<?xml version="1.0" encoding="UTF-8" standalone="no" ?>
<gpx xmlns="http://www.topografix.com/GPX/1/1" xmlns:xsi="http://www.w3.org/2001/XMLSchema-instance" xsi:schemaLocation="http://www.topografix.com/GPX/1/1 http://www.topografix.com/GPX/1/1/gpx.xsd" version="1.1" creator="VisuGPX - https://www.visugpx.com">
  <metadata>
    <name>7 majeurs jour 2</name>
  </metadata>
  <trk>
    <name><![CDATA[7 majeurs jour 2]]></name>
    <extensions>
      <line xmlns="http://www.topografix.com/GPX/gpx_style/0/2">
        <color>00FFFF</color>
        <width>4</width>
      </line>
    </extensions>
    <trkseg>
      <trkpt lat="44.30812" lon="7.26957">
        <ele>756</ele>
        <time>2022-07-19T03:19:53Z</time>
      </trkpt>
      <trkpt lat="44.30813" lon="7.26958">
        <ele>756</ele>
        <time>2022-07-19T03:19:54Z</time>
      </trkpt>
      <trkpt lat="44.30813" lon="7.26958">
        <ele>756</ele>
        <time>2022-07-19T03:19:55Z</time>
      </trkpt>
      <trkpt lat="44.30813" lon="7.26958">
        <ele>756</ele>
        <time>2022-07-19T03:19:56Z</time>
      </trkpt>
      <trkpt lat="44.30813" lon="7.26958">
        <ele>756</ele>
        <time>2022-07-19T03:19:57Z</time>
      </trkpt>
      <trkpt lat="44.30813" lon="7.26958">
        <ele>756</ele>
        <time>2022-07-19T03:20:01Z</time>
      </trkpt>
      <trkpt lat="44.30813" lon="7.26958">
        <ele>756</ele>
        <time>2022-07-19T03:20:05Z</time>
      </trkpt>
      <trkpt lat="44.30813" lon="7.26958">
        <ele>756</ele>
        <time>2022-07-19T03:20:10Z</time>
      </trkpt>
      <trkpt lat="44.30813" lon="7.26958">
        <ele>756</ele>
        <time>2022-07-19T03:20:16Z</time>
      </trkpt>
      <trkpt lat="44.30813" lon="7.26958">
        <ele>755.6</ele>
        <time>2022-07-19T03:20:20Z</time>
      </trkpt>
      <trkpt lat="44.30813" lon="7.26957">
        <ele>755.4</ele>
        <time>2022-07-19T03:20:25Z</time>
      </trkpt>
      <trkpt lat="44.30814" lon="7.26956">
        <ele>755.4</ele>
        <time>2022-07-19T03:20:26Z</time>
      </trkpt>
      <trkpt lat="44.30815" lon="7.26955">
        <ele>755.4</ele>
        <time>2022-07-19T03:20:27Z</time>
      </trkpt>
      <trkpt lat="44.30816" lon="7.26955">
        <ele>755.4</ele>
        <time>2022-07-19T03:20:28Z</time>
      </trkpt>
      <trkpt lat="44.30817" lon="7.26954">
        <ele>755.4</ele>
        <time>2022-07-19T03:20:29Z</time>
      </trkpt>
      <trkpt lat="44.30819" lon="7.26954">
        <ele>755.4</ele>
        <time>2022-07-19T03:20:30Z</time>
      </trkpt>
      <trkpt lat="44.30821" lon="7.26953">
        <ele>755.4</ele>
        <time>2022-07-19T03:20:31Z</time>
      </trkpt>
      <trkpt lat="44.30823" lon="7.26953">
        <ele>755.2</ele>
        <time>2022-07-19T03:20:32Z</time>
      </trkpt>
      <trkpt lat="44.30825" lon="7.26953">
        <ele>755</ele>
        <time>2022-07-19T03:20:33Z</time>
      </trkpt>
      <trkpt lat="44.30827" lon="7.26954">
        <ele>754.6</ele>
        <time>2022-07-19T03:20:34Z</time>
      </trkpt>
      <trkpt lat="44.3083" lon="7.26954">
        <ele>754.4</ele>
        <time>2022-07-19T03:20:35Z</time>
      </trkpt>
      <trkpt lat="44.30833" lon="7.26954">
        <ele>754.2</ele>
        <time>2022-07-19T03:20:36Z</time>
      </trkpt>
      <trkpt lat="44.30836" lon="7.26953">
        <ele>754</ele>
        <time>2022-07-19T03:20:37Z</time>
      </trkpt>
      <trkpt lat="44.30838" lon="7.26953">
        <ele>753.8</ele>
        <time>2022-07-19T03:20:38Z</time>
      </trkpt>
      <trkpt lat="44.3084" lon="7.26953">
        <ele>753.6</ele>
        <time>2022-07-19T03:20:39Z</time>
      </trkpt>
      <trkpt lat="44.30842" lon="7.26953">
        <ele>753.4</ele>
        <time>2022-07-19T03:20:40Z</time>
      </trkpt>
      <trkpt lat="44.30844" lon="7.26953">
        <ele>753.4</ele>
        <time>2022-07-19T03:20:41Z</time>
      </trkpt>
      <trkpt lat="44.30846" lon="7.26953">
        <ele>753</ele>
        <time>2022-07-19T03:20:42Z</time>
      </trkpt>
      <trkpt lat="44.30849" lon="7.26954">
        <ele>753</ele>
        <time>2022-07-19T03:20:43Z</time>
      </trkpt>
      <trkpt lat="44.30852" lon="7.26954">
        <ele>752.8</ele>
        <time>2022-07-19T03:20:44Z</time>
      </trkpt>
      <trkpt lat="44.30854" lon="7.26954">
        <ele>752.8</ele>
        <time>2022-07-19T03:20:45Z</time>
      </trkpt>
      <trkpt lat="44.30856" lon="7.26953">
        <ele>752.8</ele>
        <time>2022-07-19T03:20:46Z</time>
      </trkpt>
      <trkpt lat="44.30857" lon="7.26953">
        <ele>752.8</ele>
        <time>2022-07-19T03:20:47Z</time>
      </trkpt>
      <trkpt lat="44.30859" lon="7.26953">
        <ele>752.8</ele>
        <time>2022-07-19T03:20:48Z</time>
      </trkpt>
      <trkpt lat="44.30861" lon="7.26953">
        <ele>752.8</ele>
        <time>2022-07-19T03:20:49Z</time>
      </trkpt>
      <trkpt lat="44.30863" lon="7.26952">
        <ele>752.6</ele>
        <time>2022-07-19T03:20:50Z</time>
      </trkpt>
      <trkpt lat="44.30864" lon="7.26949">
        <ele>752.6</ele>
        <time>2022-07-19T03:20:51Z</time>
      </trkpt>
      <trkpt lat="44.30864" lon="7.26945">
        <ele>752.6</ele>
        <time>2022-07-19T03:20:52Z</time>
      </trkpt>
      <trkpt lat="44.30864" lon="7.26941">
        <ele>752.8</ele>
        <time>2022-07-19T03:20:53Z</time>
      </trkpt>
      <trkpt lat="44.30863" lon="7.26937">
        <ele>752.8</ele>
        <time>2022-07-19T03:20:54Z</time>
      </trkpt>
      <trkpt lat="44.30863" lon="7.26932">
        <ele>752.8</ele>
        <time>2022-07-19T03:20:55Z</time>
      </trkpt>
      <trkpt lat="44.30863" lon="7.26928">
        <ele>753</ele>
        <time>2022-07-19T03:20:56Z</time>
      </trkpt>
      <trkpt lat="44.30863" lon="7.26923">
        <ele>753</ele>
        <time>2022-07-19T03:20:57Z</time>
      </trkpt>
      <trkpt lat="44.30862" lon="7.26918">
        <ele>753</ele>
        <time>2022-07-19T03:20:58Z</time>
      </trkpt>
      <trkpt lat="44.30862" lon="7.26913">
        <ele>753.2</ele>
        <time>2022-07-19T03:20:59Z</time>
      </trkpt>
      <trkpt lat="44.30861" lon="7.26909">
        <ele>753.2</ele>
        <time>2022-07-19T03:21:00Z</time>
      </trkpt>
      <trkpt lat="44.30861" lon="7.26904">
        <ele>753.6</ele>
        <time>2022-07-19T03:21:01Z</time>
      </trkpt>
      <trkpt lat="44.30861" lon="7.26899">
        <ele>753.6</ele>
        <time>2022-07-19T03:21:02Z</time>
      </trkpt>
      <trkpt lat="44.30861" lon="7.26894">
        <ele>753.6</ele>
        <time>2022-07-19T03:21:03Z</time>
      </trkpt>
      <trkpt lat="44.30861" lon="7.26889">
        <ele>753.8</ele>
        <time>2022-07-19T03:21:04Z</time>
      </trkpt>
      <trkpt lat="44.3086" lon="7.26884">
        <ele>753.8</ele>
        <time>2022-07-19T03:21:05Z</time>
      </trkpt>
      <trkpt lat="44.3086" lon="7.26879">
        <ele>754</ele>
        <time>2022-07-19T03:21:06Z</time>
      </trkpt>
      <trkpt lat="44.30859" lon="7.26874">
        <ele>754</ele>
        <time>2022-07-19T03:21:07Z</time>
      </trkpt>
      <trkpt lat="44.30859" lon="7.2687">
        <ele>754</ele>
        <time>2022-07-19T03:21:08Z</time>
      </trkpt>
      <trkpt lat="44.30859" lon="7.26865">
        <ele>754</ele>
        <time>2022-07-19T03:21:09Z</time>
      </trkpt>
      <trkpt lat="44.30859" lon="7.2686">
        <ele>754.4</ele>
        <time>2022-07-19T03:21:10Z</time>
      </trkpt>
      <trkpt lat="44.30858" lon="7.26855">
        <ele>754.4</ele>
        <time>2022-07-19T03:21:11Z</time>
      </trkpt>
      <trkpt lat="44.30858" lon="7.2685">
        <ele>754.6</ele>
        <time>2022-07-19T03:21:12Z</time>
      </trkpt>
      <trkpt lat="44.30857" lon="7.26845">
        <ele>754.6</ele>
        <time>2022-07-19T03:21:13Z</time>
      </trkpt>
      <trkpt lat="44.30857" lon="7.26839">
        <ele>754.8</ele>
        <time>2022-07-19T03:21:14Z</time>
      </trkpt>
      <trkpt lat="44.30856" lon="7.26834">
        <ele>754.8</ele>
        <time>2022-07-19T03:21:15Z</time>
      </trkpt>
      <trkpt lat="44.30856" lon="7.26828">
        <ele>754.8</ele>
        <time>2022-07-19T03:21:16Z</time>
      </trkpt>
      <trkpt lat="44.30855" lon="7.26822">
        <ele>755</ele>
        <time>2022-07-19T03:21:17Z</time>
      </trkpt>
      <trkpt lat="44.30855" lon="7.26817">
        <ele>755</ele>
        <time>2022-07-19T03:21:18Z</time>
      </trkpt>
      <trkpt lat="44.30854" lon="7.26811">
        <ele>755.4</ele>
        <time>2022-07-19T03:21:19Z</time>
      </trkpt>
      <trkpt lat="44.30854" lon="7.26805">
        <ele>755.6</ele>
        <time>2022-07-19T03:21:21Z</time>
      </trkpt>
      <trkpt lat="44.30853" lon="7.26799">
        <ele>755.6</ele>
        <time>2022-07-19T03:21:22Z</time>
      </trkpt>
      <trkpt lat="44.30853" lon="7.26794">
        <ele>755.6</ele>
        <time>2022-07-19T03:21:23Z</time>
      </trkpt>
      <trkpt lat="44.30853" lon="7.26788">
        <ele>756</ele>
        <time>2022-07-19T03:21:24Z</time>
      </trkpt>
      <trkpt lat="44.30852" lon="7.26782">
        <ele>756</ele>
        <time>2022-07-19T03:21:25Z</time>
      </trkpt>
      <trkpt lat="44.30852" lon="7.26776">
        <ele>756.2</ele>
        <time>2022-07-19T03:21:26Z</time>
      </trkpt>
      <trkpt lat="44.30852" lon="7.2677">
        <ele>756.2</ele>
        <time>2022-07-19T03:21:27Z</time>
      </trkpt>
      <trkpt lat="44.30852" lon="7.26763">
        <ele>756.2</ele>
        <time>2022-07-19T03:21:28Z</time>
      </trkpt>
      <trkpt lat="44.30851" lon="7.26757">
        <ele>756.2</ele>
        <time>2022-07-19T03:21:29Z</time>
      </trkpt>
      <trkpt lat="44.30851" lon="7.26751">
        <ele>756.4</ele>
        <time>2022-07-19T03:21:30Z</time>
      </trkpt>
      <trkpt lat="44.30851" lon="7.26744">
        <ele>756.4</ele>
        <time>2022-07-19T03:21:31Z</time>
      </trkpt>
      <trkpt lat="44.30851" lon="7.26738">
        <ele>756.4</ele>
        <time>2022-07-19T03:21:32Z</time>
      </trkpt>
      <trkpt lat="44.30851" lon="7.26732">
        <ele>756.8</ele>
        <time>2022-07-19T03:21:33Z</time>
      </trkpt>
      <trkpt lat="44.30851" lon="7.26725">
        <ele>756.8</ele>
        <time>2022-07-19T03:21:34Z</time>
      </trkpt>
      <trkpt lat="44.30851" lon="7.26719">
        <ele>756.8</ele>
        <time>2022-07-19T03:21:35Z</time>
      </trkpt>
      <trkpt lat="44.30851" lon="7.26712">
        <ele>756.8</ele>
        <time>2022-07-19T03:21:36Z</time>
      </trkpt>
      <trkpt lat="44.30851" lon="7.26706">
        <ele>757</ele>
        <time>2022-07-19T03:21:37Z</time>
      </trkpt>
      <trkpt lat="44.30851" lon="7.267">
        <ele>757</ele>
        <time>2022-07-19T03:21:38Z</time>
      </trkpt>
      <trkpt lat="44.30851" lon="7.26693">
        <ele>757</ele>
        <time>2022-07-19T03:21:39Z</time>
      </trkpt>
      <trkpt lat="44.30851" lon="7.26687">
        <ele>757.2</ele>
        <time>2022-07-19T03:21:40Z</time>
      </trkpt>
      <trkpt lat="44.30851" lon="7.2668">
        <ele>757.2</ele>
        <time>2022-07-19T03:21:41Z</time>
      </trkpt>
      <trkpt lat="44.30851" lon="7.26673">
        <ele>757.2</ele>
        <time>2022-07-19T03:21:42Z</time>
      </trkpt>
      <trkpt lat="44.30851" lon="7.26667">
        <ele>757.4</ele>
        <time>2022-07-19T03:21:43Z</time>
      </trkpt>
      <trkpt lat="44.30851" lon="7.2666">
        <ele>757.4</ele>
        <time>2022-07-19T03:21:44Z</time>
      </trkpt>
      <trkpt lat="44.30852" lon="7.26654">
        <ele>757.4</ele>
        <time>2022-07-19T03:21:45Z</time>
      </trkpt>
      <trkpt lat="44.30852" lon="7.26647">
        <ele>757.4</ele>
        <time>2022-07-19T03:21:46Z</time>
      </trkpt>
      <trkpt lat="44.30852" lon="7.26641">
        <ele>757.6</ele>
        <time>2022-07-19T03:21:47Z</time>
      </trkpt>
      <trkpt lat="44.30852" lon="7.26634">
        <ele>757.6</ele>
        <time>2022-07-19T03:21:48Z</time>
      </trkpt>
      <trkpt lat="44.30852" lon="7.26628">
        <ele>757.6</ele>
        <time>2022-07-19T03:21:49Z</time>
      </trkpt>
      <trkpt lat="44.30852" lon="7.26621">
        <ele>757.8</ele>
        <time>2022-07-19T03:21:50Z</time>
      </trkpt>
      <trkpt lat="44.30852" lon="7.26615">
        <ele>757.8</ele>
        <time>2022-07-19T03:21:51Z</time>
      </trkpt>
      <trkpt lat="44.30852" lon="7.26608">
        <ele>758</ele>
        <time>2022-07-19T03:21:52Z</time>
      </trkpt>
      <trkpt lat="44.30852" lon="7.26602">
        <ele>758</ele>
        <time>2022-07-19T03:21:53Z</time>
      </trkpt>
      <trkpt lat="44.30852" lon="7.26596">
        <ele>758</ele>
        <time>2022-07-19T03:21:54Z</time>
      </trkpt>
      <trkpt lat="44.30852" lon="7.26589">
        <ele>758.4</ele>
        <time>2022-07-19T03:21:55Z</time>
      </trkpt>
      <trkpt lat="44.30852" lon="7.26583">
        <ele>758.4</ele>
        <time>2022-07-19T03:21:56Z</time>
      </trkpt>
      <trkpt lat="44.30852" lon="7.26577">
        <ele>758.6</ele>
        <time>2022-07-19T03:21:57Z</time>
      </trkpt>
      <trkpt lat="44.30852" lon="7.26571">
        <ele>758.6</ele>
        <time>2022-07-19T03:21:58Z</time>
      </trkpt>
      <trkpt lat="44.30853" lon="7.26565">
        <ele>758.8</ele>
        <time>2022-07-19T03:21:59Z</time>
      </trkpt>
      <trkpt lat="44.30853" lon="7.26559">
        <ele>758.8</ele>
        <time>2022-07-19T03:22:00Z</time>
      </trkpt>
      <trkpt lat="44.30853" lon="7.26553">
        <ele>759.2</ele>
        <time>2022-07-19T03:22:01Z</time>
      </trkpt>
      <trkpt lat="44.30853" lon="7.26547">
        <ele>759.2</ele>
        <time>2022-07-19T03:22:02Z</time>
      </trkpt>
      <trkpt lat="44.30853" lon="7.26542">
        <ele>759.2</ele>
        <time>2022-07-19T03:22:03Z</time>
      </trkpt>
      <trkpt lat="44.30853" lon="7.26536">
        <ele>759.4</ele>
        <time>2022-07-19T03:22:04Z</time>
      </trkpt>
      <trkpt lat="44.30853" lon="7.26531">
        <ele>759.4</ele>
        <time>2022-07-19T03:22:05Z</time>
      </trkpt>
      <trkpt lat="44.30853" lon="7.26525">
        <ele>759.6</ele>
        <time>2022-07-19T03:22:06Z</time>
      </trkpt>
      <trkpt lat="44.30853" lon="7.26518">
        <ele>759.6</ele>
        <time>2022-07-19T03:22:07Z</time>
      </trkpt>
      <trkpt lat="44.30853" lon="7.26512">
        <ele>759.6</ele>
        <time>2022-07-19T03:22:08Z</time>
      </trkpt>
      <trkpt lat="44.30853" lon="7.26506">
        <ele>759.8</ele>
        <time>2022-07-19T03:22:09Z</time>
      </trkpt>
      <trkpt lat="44.30853" lon="7.26499">
        <ele>759.8</ele>
        <time>2022-07-19T03:22:10Z</time>
      </trkpt>
      <trkpt lat="44.30854" lon="7.26493">
        <ele>759.8</ele>
        <time>2022-07-19T03:22:11Z</time>
      </trkpt>
      <trkpt lat="44.30854" lon="7.26486">
        <ele>759.8</ele>
        <time>2022-07-19T03:22:12Z</time>
      </trkpt>
      <trkpt lat="44.30854" lon="7.26479">
        <ele>759.8</ele>
        <time>2022-07-19T03:22:13Z</time>
      </trkpt>
      <trkpt lat="44.30854" lon="7.26473">
        <ele>760</ele>
        <time>2022-07-19T03:22:14Z</time>
      </trkpt>
      <trkpt lat="44.30854" lon="7.26467">
        <ele>760</ele>
        <time>2022-07-19T03:22:15Z</time>
      </trkpt>
      <trkpt lat="44.30854" lon="7.2646">
        <ele>760</ele>
        <time>2022-07-19T03:22:16Z</time>
      </trkpt>
      <trkpt lat="44.30854" lon="7.26454">
        <ele>760</ele>
        <time>2022-07-19T03:22:17Z</time>
      </trkpt>
      <trkpt lat="44.30854" lon="7.26447">
        <ele>760.2</ele>
        <time>2022-07-19T03:22:18Z</time>
      </trkpt>
      <trkpt lat="44.30854" lon="7.26441">
        <ele>760.2</ele>
        <time>2022-07-19T03:22:19Z</time>
      </trkpt>
      <trkpt lat="44.30854" lon="7.26434">
        <ele>760.2</ele>
        <time>2022-07-19T03:22:20Z</time>
      </trkpt>
      <trkpt lat="44.30854" lon="7.26428">
        <ele>760.6</ele>
        <time>2022-07-19T03:22:21Z</time>
      </trkpt>
      <trkpt lat="44.30854" lon="7.26422">
        <ele>760.6</ele>
        <time>2022-07-19T03:22:22Z</time>
      </trkpt>
      <trkpt lat="44.30854" lon="7.26415">
        <ele>760.6</ele>
        <time>2022-07-19T03:22:23Z</time>
      </trkpt>
      <trkpt lat="44.30854" lon="7.26409">
        <ele>760.8</ele>
        <time>2022-07-19T03:22:24Z</time>
      </trkpt>
      <trkpt lat="44.30854" lon="7.26403">
        <ele>760.8</ele>
        <time>2022-07-19T03:22:25Z</time>
      </trkpt>
      <trkpt lat="44.30855" lon="7.26396">
        <ele>761</ele>
        <time>2022-07-19T03:22:26Z</time>
      </trkpt>
      <trkpt lat="44.30855" lon="7.2639">
        <ele>761</ele>
        <time>2022-07-19T03:22:27Z</time>
      </trkpt>
      <trkpt lat="44.30855" lon="7.26384">
        <ele>761.2</ele>
        <time>2022-07-19T03:22:28Z</time>
      </trkpt>
      <trkpt lat="44.30855" lon="7.26377">
        <ele>761.2</ele>
        <time>2022-07-19T03:22:29Z</time>
      </trkpt>
      <trkpt lat="44.30855" lon="7.26371">
        <ele>761.2</ele>
        <time>2022-07-19T03:22:30Z</time>
      </trkpt>
      <trkpt lat="44.30855" lon="7.26365">
        <ele>761.2</ele>
        <time>2022-07-19T03:22:31Z</time>
      </trkpt>
      <trkpt lat="44.30855" lon="7.26359">
        <ele>761.6</ele>
        <time>2022-07-19T03:22:32Z</time>
      </trkpt>
      <trkpt lat="44.30855" lon="7.26353">
        <ele>761.6</ele>
        <time>2022-07-19T03:22:33Z</time>
      </trkpt>
      <trkpt lat="44.30855" lon="7.26346">
        <ele>761.8</ele>
        <time>2022-07-19T03:22:34Z</time>
      </trkpt>
      <trkpt lat="44.30855" lon="7.2634">
        <ele>761.8</ele>
        <time>2022-07-19T03:22:35Z</time>
      </trkpt>
      <trkpt lat="44.30856" lon="7.26327">
        <ele>762</ele>
        <time>2022-07-19T03:22:36Z</time>
      </trkpt>
      <trkpt lat="44.30856" lon="7.26321">
        <ele>762</ele>
        <time>2022-07-19T03:22:37Z</time>
      </trkpt>
      <trkpt lat="44.30856" lon="7.26315">
        <ele>762.2</ele>
        <time>2022-07-19T03:22:38Z</time>
      </trkpt>
      <trkpt lat="44.30856" lon="7.26309">
        <ele>762.2</ele>
        <time>2022-07-19T03:22:39Z</time>
      </trkpt>
      <trkpt lat="44.30856" lon="7.26302">
        <ele>762.6</ele>
        <time>2022-07-19T03:22:40Z</time>
      </trkpt>
      <trkpt lat="44.30856" lon="7.26296">
        <ele>762.6</ele>
        <time>2022-07-19T03:22:41Z</time>
      </trkpt>
      <trkpt lat="44.30856" lon="7.2629">
        <ele>762.8</ele>
        <time>2022-07-19T03:22:42Z</time>
      </trkpt>
      <trkpt lat="44.30856" lon="7.26284">
        <ele>762.8</ele>
        <time>2022-07-19T03:22:43Z</time>
      </trkpt>
      <trkpt lat="44.30856" lon="7.26278">
        <ele>763</ele>
        <time>2022-07-19T03:22:44Z</time>
      </trkpt>
      <trkpt lat="44.30856" lon="7.26272">
        <ele>763</ele>
        <time>2022-07-19T03:22:45Z</time>
      </trkpt>
      <trkpt lat="44.30856" lon="7.26266">
        <ele>763.2</ele>
        <time>2022-07-19T03:22:46Z</time>
      </trkpt>
      <trkpt lat="44.30856" lon="7.2626">
        <ele>763.2</ele>
        <time>2022-07-19T03:22:47Z</time>
      </trkpt>
      <trkpt lat="44.30856" lon="7.26255">
        <ele>763.6</ele>
        <time>2022-07-19T03:22:48Z</time>
      </trkpt>
      <trkpt lat="44.30856" lon="7.26249">
        <ele>763.6</ele>
        <time>2022-07-19T03:22:49Z</time>
      </trkpt>
      <trkpt lat="44.30856" lon="7.26243">
        <ele>763.8</ele>
        <time>2022-07-19T03:22:50Z</time>
      </trkpt>
      <trkpt lat="44.30856" lon="7.26237">
        <ele>763.8</ele>
        <time>2022-07-19T03:22:51Z</time>
      </trkpt>
      <trkpt lat="44.30856" lon="7.26231">
        <ele>764</ele>
        <time>2022-07-19T03:22:52Z</time>
      </trkpt>
      <trkpt lat="44.30856" lon="7.26225">
        <ele>764</ele>
        <time>2022-07-19T03:22:53Z</time>
      </trkpt>
      <trkpt lat="44.30856" lon="7.26219">
        <ele>764.4</ele>
        <time>2022-07-19T03:22:54Z</time>
      </trkpt>
      <trkpt lat="44.30857" lon="7.26214">
        <ele>764.4</ele>
        <time>2022-07-19T03:22:55Z</time>
      </trkpt>
      <trkpt lat="44.30857" lon="7.26208">
        <ele>764.8</ele>
        <time>2022-07-19T03:22:56Z</time>
      </trkpt>
      <trkpt lat="44.30857" lon="7.26202">
        <ele>765</ele>
        <time>2022-07-19T03:22:57Z</time>
      </trkpt>
      <trkpt lat="44.30857" lon="7.26197">
        <ele>765</ele>
        <time>2022-07-19T03:22:58Z</time>
      </trkpt>
      <trkpt lat="44.30857" lon="7.26191">
        <ele>765.4</ele>
        <time>2022-07-19T03:22:59Z</time>
      </trkpt>
      <trkpt lat="44.30857" lon="7.26185">
        <ele>765.4</ele>
        <time>2022-07-19T03:23:00Z</time>
      </trkpt>
      <trkpt lat="44.30857" lon="7.26179">
        <ele>765.8</ele>
        <time>2022-07-19T03:23:01Z</time>
      </trkpt>
      <trkpt lat="44.30857" lon="7.26173">
        <ele>765.8</ele>
        <time>2022-07-19T03:23:02Z</time>
      </trkpt>
      <trkpt lat="44.30857" lon="7.26167">
        <ele>766</ele>
        <time>2022-07-19T03:23:03Z</time>
      </trkpt>
      <trkpt lat="44.30857" lon="7.26161">
        <ele>766</ele>
        <time>2022-07-19T03:23:04Z</time>
      </trkpt>
      <trkpt lat="44.30857" lon="7.26155">
        <ele>766.2</ele>
        <time>2022-07-19T03:23:05Z</time>
      </trkpt>
      <trkpt lat="44.30857" lon="7.26149">
        <ele>766.2</ele>
        <time>2022-07-19T03:23:06Z</time>
      </trkpt>
      <trkpt lat="44.30857" lon="7.26143">
        <ele>766.6</ele>
        <time>2022-07-19T03:23:07Z</time>
      </trkpt>
      <trkpt lat="44.30858" lon="7.26137">
        <ele>766.6</ele>
        <time>2022-07-19T03:23:08Z</time>
      </trkpt>
      <trkpt lat="44.30858" lon="7.26132">
        <ele>766.6</ele>
        <time>2022-07-19T03:23:09Z</time>
      </trkpt>
      <trkpt lat="44.30858" lon="7.26126">
        <ele>766.8</ele>
        <time>2022-07-19T03:23:10Z</time>
      </trkpt>
      <trkpt lat="44.30858" lon="7.2612">
        <ele>766.8</ele>
        <time>2022-07-19T03:23:11Z</time>
      </trkpt>
      <trkpt lat="44.30858" lon="7.26114">
        <ele>767.2</ele>
        <time>2022-07-19T03:23:12Z</time>
      </trkpt>
      <trkpt lat="44.30858" lon="7.26108">
        <ele>767.2</ele>
        <time>2022-07-19T03:23:13Z</time>
      </trkpt>
      <trkpt lat="44.30858" lon="7.26103">
        <ele>767.4</ele>
        <time>2022-07-19T03:23:14Z</time>
      </trkpt>
      <trkpt lat="44.30858" lon="7.26097">
        <ele>767.6</ele>
        <time>2022-07-19T03:23:15Z</time>
      </trkpt>
      <trkpt lat="44.30858" lon="7.26091">
        <ele>767.6</ele>
        <time>2022-07-19T03:23:16Z</time>
      </trkpt>
      <trkpt lat="44.30858" lon="7.26085">
        <ele>768</ele>
        <time>2022-07-19T03:23:17Z</time>
      </trkpt>
      <trkpt lat="44.30858" lon="7.2608">
        <ele>768</ele>
        <time>2022-07-19T03:23:18Z</time>
      </trkpt>
      <trkpt lat="44.30858" lon="7.26074">
        <ele>768.4</ele>
        <time>2022-07-19T03:23:19Z</time>
      </trkpt>
      <trkpt lat="44.30858" lon="7.26068">
        <ele>768.6</ele>
        <time>2022-07-19T03:23:20Z</time>
      </trkpt>
      <trkpt lat="44.30858" lon="7.26063">
        <ele>768.6</ele>
        <time>2022-07-19T03:23:21Z</time>
      </trkpt>
      <trkpt lat="44.30857" lon="7.26057">
        <ele>768.8</ele>
        <time>2022-07-19T03:23:22Z</time>
      </trkpt>
      <trkpt lat="44.30857" lon="7.26052">
        <ele>768.8</ele>
        <time>2022-07-19T03:23:23Z</time>
      </trkpt>
      <trkpt lat="44.30857" lon="7.26047">
        <ele>769</ele>
        <time>2022-07-19T03:23:24Z</time>
      </trkpt>
      <trkpt lat="44.30856" lon="7.26042">
        <ele>769</ele>
        <time>2022-07-19T03:23:25Z</time>
      </trkpt>
      <trkpt lat="44.30856" lon="7.26036">
        <ele>769.6</ele>
        <time>2022-07-19T03:23:26Z</time>
      </trkpt>
      <trkpt lat="44.30855" lon="7.26031">
        <ele>769.6</ele>
        <time>2022-07-19T03:23:27Z</time>
      </trkpt>
      <trkpt lat="44.30854" lon="7.26026">
        <ele>770</ele>
        <time>2022-07-19T03:23:28Z</time>
      </trkpt>
      <trkpt lat="44.30854" lon="7.2602">
        <ele>770</ele>
        <time>2022-07-19T03:23:29Z</time>
      </trkpt>
      <trkpt lat="44.30853" lon="7.26015">
        <ele>770.4</ele>
        <time>2022-07-19T03:23:30Z</time>
      </trkpt>
      <trkpt lat="44.30852" lon="7.2601">
        <ele>770.6</ele>
        <time>2022-07-19T03:23:31Z</time>
      </trkpt>
      <trkpt lat="44.30851" lon="7.26005">
        <ele>770.6</ele>
        <time>2022-07-19T03:23:32Z</time>
      </trkpt>
      <trkpt lat="44.3085" lon="7.25999">
        <ele>770.8</ele>
        <time>2022-07-19T03:23:33Z</time>
      </trkpt>
      <trkpt lat="44.30849" lon="7.25994">
        <ele>771</ele>
        <time>2022-07-19T03:23:34Z</time>
      </trkpt>
      <trkpt lat="44.30848" lon="7.25989">
        <ele>771</ele>
        <time>2022-07-19T03:23:35Z</time>
      </trkpt>
      <trkpt lat="44.30847" lon="7.25984">
        <ele>771.4</ele>
        <time>2022-07-19T03:23:36Z</time>
      </trkpt>
      <trkpt lat="44.30846" lon="7.25979">
        <ele>771.4</ele>
        <time>2022-07-19T03:23:37Z</time>
      </trkpt>
      <trkpt lat="44.30845" lon="7.25974">
        <ele>771.8</ele>
        <time>2022-07-19T03:23:38Z</time>
      </trkpt>
      <trkpt lat="44.30844" lon="7.2597">
        <ele>771.8</ele>
        <time>2022-07-19T03:23:39Z</time>
      </trkpt>
      <trkpt lat="44.30843" lon="7.25965">
        <ele>772</ele>
        <time>2022-07-19T03:23:40Z</time>
      </trkpt>
      <trkpt lat="44.30842" lon="7.2596">
        <ele>772.2</ele>
        <time>2022-07-19T03:23:41Z</time>
      </trkpt>
      <trkpt lat="44.30841" lon="7.25955">
        <ele>772.2</ele>
        <time>2022-07-19T03:23:42Z</time>
      </trkpt>
      <trkpt lat="44.3084" lon="7.2595">
        <ele>772.6</ele>
        <time>2022-07-19T03:23:43Z</time>
      </trkpt>
      <trkpt lat="44.30839" lon="7.25946">
        <ele>772.6</ele>
        <time>2022-07-19T03:23:44Z</time>
      </trkpt>
      <trkpt lat="44.30838" lon="7.2594">
        <ele>772.8</ele>
        <time>2022-07-19T03:23:45Z</time>
      </trkpt>
      <trkpt lat="44.30836" lon="7.25936">
        <ele>773</ele>
        <time>2022-07-19T03:23:46Z</time>
      </trkpt>
      <trkpt lat="44.30835" lon="7.25931">
        <ele>773.2</ele>
        <time>2022-07-19T03:23:47Z</time>
      </trkpt>
      <trkpt lat="44.30834" lon="7.25926">
        <ele>773.2</ele>
        <time>2022-07-19T03:23:48Z</time>
      </trkpt>
      <trkpt lat="44.30833" lon="7.25921">
        <ele>773.6</ele>
        <time>2022-07-19T03:23:49Z</time>
      </trkpt>
      <trkpt lat="44.30831" lon="7.25916">
        <ele>773.6</ele>
        <time>2022-07-19T03:23:50Z</time>
      </trkpt>
      <trkpt lat="44.3083" lon="7.2591">
        <ele>774</ele>
        <time>2022-07-19T03:23:51Z</time>
      </trkpt>
      <trkpt lat="44.30829" lon="7.25905">
        <ele>774</ele>
        <time>2022-07-19T03:23:52Z</time>
      </trkpt>
      <trkpt lat="44.30828" lon="7.259">
        <ele>774.4</ele>
        <time>2022-07-19T03:23:53Z</time>
      </trkpt>
      <trkpt lat="44.30826" lon="7.25895">
        <ele>774.4</ele>
        <time>2022-07-19T03:23:54Z</time>
      </trkpt>
      <trkpt lat="44.30825" lon="7.25889">
        <ele>774.8</ele>
        <time>2022-07-19T03:23:55Z</time>
      </trkpt>
      <trkpt lat="44.30824" lon="7.25884">
        <ele>774.8</ele>
        <time>2022-07-19T03:23:56Z</time>
      </trkpt>
      <trkpt lat="44.30822" lon="7.25879">
        <ele>775</ele>
        <time>2022-07-19T03:23:57Z</time>
      </trkpt>
      <trkpt lat="44.30821" lon="7.25874">
        <ele>775</ele>
        <time>2022-07-19T03:23:58Z</time>
      </trkpt>
      <trkpt lat="44.3082" lon="7.25869">
        <ele>775.4</ele>
        <time>2022-07-19T03:23:59Z</time>
      </trkpt>
      <trkpt lat="44.30819" lon="7.25864">
        <ele>775.4</ele>
        <time>2022-07-19T03:24:00Z</time>
      </trkpt>
      <trkpt lat="44.30817" lon="7.25859">
        <ele>775.8</ele>
        <time>2022-07-19T03:24:01Z</time>
      </trkpt>
      <trkpt lat="44.30816" lon="7.25854">
        <ele>775.8</ele>
        <time>2022-07-19T03:24:02Z</time>
      </trkpt>
      <trkpt lat="44.30815" lon="7.25849">
        <ele>776.2</ele>
        <time>2022-07-19T03:24:03Z</time>
      </trkpt>
      <trkpt lat="44.30814" lon="7.25844">
        <ele>776.2</ele>
        <time>2022-07-19T03:24:04Z</time>
      </trkpt>
      <trkpt lat="44.30812" lon="7.25839">
        <ele>776.6</ele>
        <time>2022-07-19T03:24:05Z</time>
      </trkpt>
      <trkpt lat="44.30811" lon="7.25834">
        <ele>776.8</ele>
        <time>2022-07-19T03:24:06Z</time>
      </trkpt>
      <trkpt lat="44.3081" lon="7.25829">
        <ele>776.8</ele>
        <time>2022-07-19T03:24:07Z</time>
      </trkpt>
      <trkpt lat="44.30809" lon="7.25824">
        <ele>777.2</ele>
        <time>2022-07-19T03:24:08Z</time>
      </trkpt>
      <trkpt lat="44.30807" lon="7.25819">
        <ele>777.4</ele>
        <time>2022-07-19T03:24:09Z</time>
      </trkpt>
      <trkpt lat="44.30806" lon="7.25815">
        <ele>777.4</ele>
        <time>2022-07-19T03:24:10Z</time>
      </trkpt>
      <trkpt lat="44.30805" lon="7.2581">
        <ele>777.6</ele>
        <time>2022-07-19T03:24:11Z</time>
      </trkpt>
      <trkpt lat="44.30804" lon="7.25805">
        <ele>777.6</ele>
        <time>2022-07-19T03:24:12Z</time>
      </trkpt>
      <trkpt lat="44.30803" lon="7.258">
        <ele>778</ele>
        <time>2022-07-19T03:24:13Z</time>
      </trkpt>
      <trkpt lat="44.30802" lon="7.25795">
        <ele>778</ele>
        <time>2022-07-19T03:24:14Z</time>
      </trkpt>
      <trkpt lat="44.308" lon="7.2579">
        <ele>778.4</ele>
        <time>2022-07-19T03:24:15Z</time>
      </trkpt>
      <trkpt lat="44.30799" lon="7.25785">
        <ele>778.4</ele>
        <time>2022-07-19T03:24:16Z</time>
      </trkpt>
      <trkpt lat="44.30798" lon="7.2578">
        <ele>778.8</ele>
        <time>2022-07-19T03:24:17Z</time>
      </trkpt>
      <trkpt lat="44.30797" lon="7.25775">
        <ele>778.8</ele>
        <time>2022-07-19T03:24:18Z</time>
      </trkpt>
      <trkpt lat="44.30796" lon="7.25771">
        <ele>779.2</ele>
        <time>2022-07-19T03:24:19Z</time>
      </trkpt>
      <trkpt lat="44.30794" lon="7.25766">
        <ele>779.4</ele>
        <time>2022-07-19T03:24:20Z</time>
      </trkpt>
      <trkpt lat="44.30793" lon="7.25761">
        <ele>779.6</ele>
        <time>2022-07-19T03:24:21Z</time>
      </trkpt>
      <trkpt lat="44.30792" lon="7.25756">
        <ele>780</ele>
        <time>2022-07-19T03:24:22Z</time>
      </trkpt>
      <trkpt lat="44.30791" lon="7.25751">
        <ele>780</ele>
        <time>2022-07-19T03:24:23Z</time>
      </trkpt>
      <trkpt lat="44.3079" lon="7.25746">
        <ele>780.2</ele>
        <time>2022-07-19T03:24:24Z</time>
      </trkpt>
      <trkpt lat="44.30789" lon="7.25741">
        <ele>780.6</ele>
        <time>2022-07-19T03:24:25Z</time>
      </trkpt>
      <trkpt lat="44.30788" lon="7.25737">
        <ele>780.8</ele>
        <time>2022-07-19T03:24:26Z</time>
      </trkpt>
      <trkpt lat="44.30787" lon="7.25732">
        <ele>780.8</ele>
        <time>2022-07-19T03:24:27Z</time>
      </trkpt>
      <trkpt lat="44.30785" lon="7.25727">
        <ele>781.4</ele>
        <time>2022-07-19T03:24:28Z</time>
      </trkpt>
      <trkpt lat="44.30784" lon="7.25722">
        <ele>781.6</ele>
        <time>2022-07-19T03:24:29Z</time>
      </trkpt>
      <trkpt lat="44.30783" lon="7.25717">
        <ele>781.6</ele>
        <time>2022-07-19T03:24:30Z</time>
      </trkpt>
      <trkpt lat="44.30782" lon="7.25712">
        <ele>781.8</ele>
        <time>2022-07-19T03:24:31Z</time>
      </trkpt>
      <trkpt lat="44.30781" lon="7.25708">
        <ele>781.8</ele>
        <time>2022-07-19T03:24:32Z</time>
      </trkpt>
      <trkpt lat="44.3078" lon="7.25703">
        <ele>782.2</ele>
        <time>2022-07-19T03:24:33Z</time>
      </trkpt>
      <trkpt lat="44.30779" lon="7.25698">
        <ele>782.2</ele>
        <time>2022-07-19T03:24:34Z</time>
      </trkpt>
      <trkpt lat="44.30778" lon="7.25693">
        <ele>782.6</ele>
        <time>2022-07-19T03:24:35Z</time>
      </trkpt>
      <trkpt lat="44.30776" lon="7.25688">
        <ele>782.6</ele>
        <time>2022-07-19T03:24:36Z</time>
      </trkpt>
      <trkpt lat="44.30775" lon="7.25683">
        <ele>782.8</ele>
        <time>2022-07-19T03:24:37Z</time>
      </trkpt>
      <trkpt lat="44.30774" lon="7.25679">
        <ele>783</ele>
        <time>2022-07-19T03:24:38Z</time>
      </trkpt>
      <trkpt lat="44.30773" lon="7.25674">
        <ele>783.2</ele>
        <time>2022-07-19T03:24:39Z</time>
      </trkpt>
      <trkpt lat="44.30772" lon="7.25669">
        <ele>783.2</ele>
        <time>2022-07-19T03:24:40Z</time>
      </trkpt>
      <trkpt lat="44.3077" lon="7.25664">
        <ele>783.6</ele>
        <time>2022-07-19T03:24:41Z</time>
      </trkpt>
      <trkpt lat="44.30769" lon="7.25659">
        <ele>783.6</ele>
        <time>2022-07-19T03:24:42Z</time>
      </trkpt>
      <trkpt lat="44.30768" lon="7.25654">
        <ele>784</ele>
        <time>2022-07-19T03:24:43Z</time>
      </trkpt>
      <trkpt lat="44.30767" lon="7.2565">
        <ele>784</ele>
        <time>2022-07-19T03:24:44Z</time>
      </trkpt>
      <trkpt lat="44.30765" lon="7.25645">
        <ele>784.2</ele>
        <time>2022-07-19T03:24:45Z</time>
      </trkpt>
      <trkpt lat="44.30764" lon="7.2564">
        <ele>784.2</ele>
        <time>2022-07-19T03:24:46Z</time>
      </trkpt>
      <trkpt lat="44.30763" lon="7.25635">
        <ele>784.6</ele>
        <time>2022-07-19T03:24:47Z</time>
      </trkpt>
      <trkpt lat="44.30762" lon="7.2563">
        <ele>784.8</ele>
        <time>2022-07-19T03:24:48Z</time>
      </trkpt>
      <trkpt lat="44.30761" lon="7.25625">
        <ele>784.8</ele>
        <time>2022-07-19T03:24:49Z</time>
      </trkpt>
      <trkpt lat="44.30759" lon="7.2562">
        <ele>785.2</ele>
        <time>2022-07-19T03:24:50Z</time>
      </trkpt>
      <trkpt lat="44.30758" lon="7.25615">
        <ele>785.4</ele>
        <time>2022-07-19T03:24:51Z</time>
      </trkpt>
      <trkpt lat="44.30757" lon="7.25611">
        <ele>785.4</ele>
        <time>2022-07-19T03:24:52Z</time>
      </trkpt>
      <trkpt lat="44.30756" lon="7.25606">
        <ele>785.6</ele>
        <time>2022-07-19T03:24:53Z</time>
      </trkpt>
      <trkpt lat="44.30755" lon="7.25601">
        <ele>785.6</ele>
        <time>2022-07-19T03:24:54Z</time>
      </trkpt>
      <trkpt lat="44.30753" lon="7.25597">
        <ele>786</ele>
        <time>2022-07-19T03:24:55Z</time>
      </trkpt>
      <trkpt lat="44.30752" lon="7.25592">
        <ele>786</ele>
        <time>2022-07-19T03:24:56Z</time>
      </trkpt>
      <trkpt lat="44.30751" lon="7.25587">
        <ele>786.4</ele>
        <time>2022-07-19T03:24:57Z</time>
      </trkpt>
      <trkpt lat="44.3075" lon="7.25583">
        <ele>786.6</ele>
        <time>2022-07-19T03:24:58Z</time>
      </trkpt>
      <trkpt lat="44.30748" lon="7.25578">
        <ele>786.8</ele>
        <time>2022-07-19T03:24:59Z</time>
      </trkpt>
      <trkpt lat="44.30747" lon="7.25574">
        <ele>787</ele>
        <time>2022-07-19T03:25:01Z</time>
      </trkpt>
      <trkpt lat="44.30746" lon="7.25569">
        <ele>787.4</ele>
        <time>2022-07-19T03:25:02Z</time>
      </trkpt>
      <trkpt lat="44.30745" lon="7.25564">
        <ele>787.4</ele>
        <time>2022-07-19T03:25:03Z</time>
      </trkpt>
      <trkpt lat="44.30743" lon="7.2556">
        <ele>787.6</ele>
        <time>2022-07-19T03:25:04Z</time>
      </trkpt>
      <trkpt lat="44.30741" lon="7.25555">
        <ele>787.6</ele>
        <time>2022-07-19T03:25:05Z</time>
      </trkpt>
      <trkpt lat="44.3074" lon="7.25551">
        <ele>788</ele>
        <time>2022-07-19T03:25:06Z</time>
      </trkpt>
      <trkpt lat="44.30738" lon="7.25546">
        <ele>788</ele>
        <time>2022-07-19T03:25:07Z</time>
      </trkpt>
      <trkpt lat="44.30737" lon="7.25542">
        <ele>788.4</ele>
        <time>2022-07-19T03:25:08Z</time>
      </trkpt>
      <trkpt lat="44.30735" lon="7.25537">
        <ele>788.4</ele>
        <time>2022-07-19T03:25:09Z</time>
      </trkpt>
      <trkpt lat="44.30733" lon="7.25533">
        <ele>788.6</ele>
        <time>2022-07-19T03:25:10Z</time>
      </trkpt>
      <trkpt lat="44.30732" lon="7.25528">
        <ele>788.6</ele>
        <time>2022-07-19T03:25:11Z</time>
      </trkpt>
      <trkpt lat="44.3073" lon="7.25524">
        <ele>789</ele>
        <time>2022-07-19T03:25:12Z</time>
      </trkpt>
      <trkpt lat="44.30728" lon="7.2552">
        <ele>789.2</ele>
        <time>2022-07-19T03:25:13Z</time>
      </trkpt>
      <trkpt lat="44.30726" lon="7.25515">
        <ele>789.2</ele>
        <time>2022-07-19T03:25:14Z</time>
      </trkpt>
      <trkpt lat="44.30724" lon="7.25511">
        <ele>789.6</ele>
        <time>2022-07-19T03:25:15Z</time>
      </trkpt>
      <trkpt lat="44.30723" lon="7.25507">
        <ele>789.6</ele>
        <time>2022-07-19T03:25:16Z</time>
      </trkpt>
      <trkpt lat="44.30722" lon="7.25502">
        <ele>789.8</ele>
        <time>2022-07-19T03:25:17Z</time>
      </trkpt>
      <trkpt lat="44.3072" lon="7.25498">
        <ele>789.8</ele>
        <time>2022-07-19T03:25:18Z</time>
      </trkpt>
      <trkpt lat="44.30718" lon="7.25494">
        <ele>790.2</ele>
        <time>2022-07-19T03:25:19Z</time>
      </trkpt>
      <trkpt lat="44.30716" lon="7.2549">
        <ele>790.2</ele>
        <time>2022-07-19T03:25:20Z</time>
      </trkpt>
      <trkpt lat="44.30714" lon="7.25486">
        <ele>790.4</ele>
        <time>2022-07-19T03:25:21Z</time>
      </trkpt>
      <trkpt lat="44.30712" lon="7.25482">
        <ele>790.4</ele>
        <time>2022-07-19T03:25:22Z</time>
      </trkpt>
      <trkpt lat="44.3071" lon="7.25478">
        <ele>790.8</ele>
        <time>2022-07-19T03:25:23Z</time>
      </trkpt>
      <trkpt lat="44.30708" lon="7.25473">
        <ele>790.8</ele>
        <time>2022-07-19T03:25:24Z</time>
      </trkpt>
      <trkpt lat="44.30706" lon="7.25469">
        <ele>791.2</ele>
        <time>2022-07-19T03:25:25Z</time>
      </trkpt>
      <trkpt lat="44.30704" lon="7.25464">
        <ele>791.2</ele>
        <time>2022-07-19T03:25:26Z</time>
      </trkpt>
      <trkpt lat="44.30702" lon="7.2546">
        <ele>791.4</ele>
        <time>2022-07-19T03:25:27Z</time>
      </trkpt>
      <trkpt lat="44.307" lon="7.25456">
        <ele>791.4</ele>
        <time>2022-07-19T03:25:28Z</time>
      </trkpt>
      <trkpt lat="44.30698" lon="7.25451">
        <ele>791.8</ele>
        <time>2022-07-19T03:25:29Z</time>
      </trkpt>
      <trkpt lat="44.30696" lon="7.25447">
        <ele>792</ele>
        <time>2022-07-19T03:25:30Z</time>
      </trkpt>
      <trkpt lat="44.30694" lon="7.25443">
        <ele>792.2</ele>
        <time>2022-07-19T03:25:31Z</time>
      </trkpt>
      <trkpt lat="44.30692" lon="7.25439">
        <ele>792.2</ele>
        <time>2022-07-19T03:25:32Z</time>
      </trkpt>
      <trkpt lat="44.30691" lon="7.25434">
        <ele>792.6</ele>
        <time>2022-07-19T03:25:33Z</time>
      </trkpt>
      <trkpt lat="44.30689" lon="7.2543">
        <ele>792.6</ele>
        <time>2022-07-19T03:25:34Z</time>
      </trkpt>
      <trkpt lat="44.30687" lon="7.25426">
        <ele>792.8</ele>
        <time>2022-07-19T03:25:35Z</time>
      </trkpt>
      <trkpt lat="44.30685" lon="7.25422">
        <ele>792.8</ele>
        <time>2022-07-19T03:25:36Z</time>
      </trkpt>
      <trkpt lat="44.30684" lon="7.25418">
        <ele>793.2</ele>
        <time>2022-07-19T03:25:37Z</time>
      </trkpt>
      <trkpt lat="44.30682" lon="7.25415">
        <ele>793.4</ele>
        <time>2022-07-19T03:25:38Z</time>
      </trkpt>
      <trkpt lat="44.30681" lon="7.25411">
        <ele>793.4</ele>
        <time>2022-07-19T03:25:39Z</time>
      </trkpt>
      <trkpt lat="44.30679" lon="7.25407">
        <ele>793.4</ele>
        <time>2022-07-19T03:25:40Z</time>
      </trkpt>
      <trkpt lat="44.30678" lon="7.25403">
        <ele>793.8</ele>
        <time>2022-07-19T03:25:41Z</time>
      </trkpt>
      <trkpt lat="44.30677" lon="7.25399">
        <ele>794.2</ele>
        <time>2022-07-19T03:25:42Z</time>
      </trkpt>
      <trkpt lat="44.30675" lon="7.25395">
        <ele>794.2</ele>
        <time>2022-07-19T03:25:43Z</time>
      </trkpt>
      <trkpt lat="44.30674" lon="7.25391">
        <ele>794.4</ele>
        <time>2022-07-19T03:25:44Z</time>
      </trkpt>
      <trkpt lat="44.30672" lon="7.25386">
        <ele>794.4</ele>
        <time>2022-07-19T03:25:45Z</time>
      </trkpt>
      <trkpt lat="44.30671" lon="7.25382">
        <ele>794.6</ele>
        <time>2022-07-19T03:25:46Z</time>
      </trkpt>
      <trkpt lat="44.30669" lon="7.25377">
        <ele>794.6</ele>
        <time>2022-07-19T03:25:47Z</time>
      </trkpt>
      <trkpt lat="44.30667" lon="7.25372">
        <ele>794.8</ele>
        <time>2022-07-19T03:25:48Z</time>
      </trkpt>
      <trkpt lat="44.30666" lon="7.25367">
        <ele>794.8</ele>
        <time>2022-07-19T03:25:49Z</time>
      </trkpt>
      <trkpt lat="44.30664" lon="7.25362">
        <ele>795.2</ele>
        <time>2022-07-19T03:25:50Z</time>
      </trkpt>
      <trkpt lat="44.30663" lon="7.25356">
        <ele>795.2</ele>
        <time>2022-07-19T03:25:51Z</time>
      </trkpt>
      <trkpt lat="44.30662" lon="7.25345">
        <ele>795.4</ele>
        <time>2022-07-19T03:25:52Z</time>
      </trkpt>
      <trkpt lat="44.30662" lon="7.2534">
        <ele>795.4</ele>
        <time>2022-07-19T03:25:53Z</time>
      </trkpt>
      <trkpt lat="44.30662" lon="7.25334">
        <ele>795.4</ele>
        <time>2022-07-19T03:25:54Z</time>
      </trkpt>
      <trkpt lat="44.30663" lon="7.25329">
        <ele>795.8</ele>
        <time>2022-07-19T03:25:55Z</time>
      </trkpt>
      <trkpt lat="44.30663" lon="7.25323">
        <ele>795.8</ele>
        <time>2022-07-19T03:25:56Z</time>
      </trkpt>
      <trkpt lat="44.30664" lon="7.25318">
        <ele>796</ele>
        <time>2022-07-19T03:25:57Z</time>
      </trkpt>
      <trkpt lat="44.30665" lon="7.25313">
        <ele>796</ele>
        <time>2022-07-19T03:25:58Z</time>
      </trkpt>
      <trkpt lat="44.30666" lon="7.25308">
        <ele>796.2</ele>
        <time>2022-07-19T03:25:59Z</time>
      </trkpt>
      <trkpt lat="44.30668" lon="7.25302">
        <ele>796.2</ele>
        <time>2022-07-19T03:26:00Z</time>
      </trkpt>
      <trkpt lat="44.30669" lon="7.25297">
        <ele>796.2</ele>
        <time>2022-07-19T03:26:01Z</time>
      </trkpt>
      <trkpt lat="44.3067" lon="7.25291">
        <ele>796.4</ele>
        <time>2022-07-19T03:26:02Z</time>
      </trkpt>
      <trkpt lat="44.30672" lon="7.25286">
        <ele>796.4</ele>
        <time>2022-07-19T03:26:03Z</time>
      </trkpt>
      <trkpt lat="44.30672" lon="7.2528">
        <ele>796.8</ele>
        <time>2022-07-19T03:26:04Z</time>
      </trkpt>
      <trkpt lat="44.30673" lon="7.25274">
        <ele>796.8</ele>
        <time>2022-07-19T03:26:05Z</time>
      </trkpt>
      <trkpt lat="44.30674" lon="7.25269">
        <ele>797</ele>
        <time>2022-07-19T03:26:06Z</time>
      </trkpt>
      <trkpt lat="44.30676" lon="7.25263">
        <ele>797</ele>
        <time>2022-07-19T03:26:07Z</time>
      </trkpt>
      <trkpt lat="44.30677" lon="7.25258">
        <ele>797.2</ele>
        <time>2022-07-19T03:26:08Z</time>
      </trkpt>
      <trkpt lat="44.30678" lon="7.25253">
        <ele>797.2</ele>
        <time>2022-07-19T03:26:09Z</time>
      </trkpt>
      <trkpt lat="44.30679" lon="7.25247">
        <ele>797.2</ele>
        <time>2022-07-19T03:26:10Z</time>
      </trkpt>
      <trkpt lat="44.3068" lon="7.25242">
        <ele>797.6</ele>
        <time>2022-07-19T03:26:11Z</time>
      </trkpt>
      <trkpt lat="44.30681" lon="7.25236">
        <ele>797.6</ele>
        <time>2022-07-19T03:26:12Z</time>
      </trkpt>
      <trkpt lat="44.30682" lon="7.2523">
        <ele>797.6</ele>
        <time>2022-07-19T03:26:13Z</time>
      </trkpt>
      <trkpt lat="44.30683" lon="7.25224">
        <ele>797.8</ele>
        <time>2022-07-19T03:26:14Z</time>
      </trkpt>
      <trkpt lat="44.30685" lon="7.25218">
        <ele>797.8</ele>
        <time>2022-07-19T03:26:15Z</time>
      </trkpt>
      <trkpt lat="44.30686" lon="7.25212">
        <ele>798.2</ele>
        <time>2022-07-19T03:26:16Z</time>
      </trkpt>
      <trkpt lat="44.30687" lon="7.25207">
        <ele>798.2</ele>
        <time>2022-07-19T03:26:17Z</time>
      </trkpt>
      <trkpt lat="44.30688" lon="7.25201">
        <ele>798.4</ele>
        <time>2022-07-19T03:26:18Z</time>
      </trkpt>
      <trkpt lat="44.30689" lon="7.25195">
        <ele>798.4</ele>
        <time>2022-07-19T03:26:19Z</time>
      </trkpt>
      <trkpt lat="44.30691" lon="7.25189">
        <ele>798.6</ele>
        <time>2022-07-19T03:26:20Z</time>
      </trkpt>
      <trkpt lat="44.30692" lon="7.25183">
        <ele>798.6</ele>
        <time>2022-07-19T03:26:21Z</time>
      </trkpt>
      <trkpt lat="44.30693" lon="7.25177">
        <ele>798.8</ele>
        <time>2022-07-19T03:26:22Z</time>
      </trkpt>
      <trkpt lat="44.30694" lon="7.25171">
        <ele>798.8</ele>
        <time>2022-07-19T03:26:23Z</time>
      </trkpt>
      <trkpt lat="44.30695" lon="7.25166">
        <ele>799.2</ele>
        <time>2022-07-19T03:26:24Z</time>
      </trkpt>
      <trkpt lat="44.30696" lon="7.2516">
        <ele>799.2</ele>
        <time>2022-07-19T03:26:25Z</time>
      </trkpt>
      <trkpt lat="44.30697" lon="7.25154">
        <ele>799.2</ele>
        <time>2022-07-19T03:26:26Z</time>
      </trkpt>
      <trkpt lat="44.30699" lon="7.25148">
        <ele>799.4</ele>
        <time>2022-07-19T03:26:27Z</time>
      </trkpt>
      <trkpt lat="44.307" lon="7.25143">
        <ele>799.4</ele>
        <time>2022-07-19T03:26:28Z</time>
      </trkpt>
      <trkpt lat="44.30701" lon="7.25137">
        <ele>799.8</ele>
        <time>2022-07-19T03:26:29Z</time>
      </trkpt>
      <trkpt lat="44.30702" lon="7.25131">
        <ele>799.8</ele>
        <time>2022-07-19T03:26:30Z</time>
      </trkpt>
      <trkpt lat="44.30703" lon="7.25126">
        <ele>800</ele>
        <time>2022-07-19T03:26:31Z</time>
      </trkpt>
      <trkpt lat="44.30704" lon="7.2512">
        <ele>800</ele>
        <time>2022-07-19T03:26:32Z</time>
      </trkpt>
      <trkpt lat="44.30705" lon="7.25115">
        <ele>800.2</ele>
        <time>2022-07-19T03:26:33Z</time>
      </trkpt>
      <trkpt lat="44.30706" lon="7.25109">
        <ele>800.2</ele>
        <time>2022-07-19T03:26:34Z</time>
      </trkpt>
      <trkpt lat="44.30707" lon="7.25104">
        <ele>800.6</ele>
        <time>2022-07-19T03:26:35Z</time>
      </trkpt>
      <trkpt lat="44.30709" lon="7.25098">
        <ele>800.6</ele>
        <time>2022-07-19T03:26:36Z</time>
      </trkpt>
      <trkpt lat="44.3071" lon="7.25093">
        <ele>800.6</ele>
        <time>2022-07-19T03:26:37Z</time>
      </trkpt>
      <trkpt lat="44.30711" lon="7.25087">
        <ele>800.8</ele>
        <time>2022-07-19T03:26:38Z</time>
      </trkpt>
      <trkpt lat="44.30712" lon="7.25082">
        <ele>800.8</ele>
        <time>2022-07-19T03:26:39Z</time>
      </trkpt>
      <trkpt lat="44.30713" lon="7.25076">
        <ele>801</ele>
        <time>2022-07-19T03:26:40Z</time>
      </trkpt>
      <trkpt lat="44.30714" lon="7.2507">
        <ele>801</ele>
        <time>2022-07-19T03:26:41Z</time>
      </trkpt>
      <trkpt lat="44.30715" lon="7.25065">
        <ele>801</ele>
        <time>2022-07-19T03:26:42Z</time>
      </trkpt>
      <trkpt lat="44.30716" lon="7.25059">
        <ele>801.2</ele>
        <time>2022-07-19T03:26:43Z</time>
      </trkpt>
      <trkpt lat="44.30717" lon="7.25053">
        <ele>801.2</ele>
        <time>2022-07-19T03:26:44Z</time>
      </trkpt>
      <trkpt lat="44.30718" lon="7.25048">
        <ele>801.6</ele>
        <time>2022-07-19T03:26:45Z</time>
      </trkpt>
      <trkpt lat="44.30719" lon="7.25042">
        <ele>801.6</ele>
        <time>2022-07-19T03:26:46Z</time>
      </trkpt>
      <trkpt lat="44.3072" lon="7.25037">
        <ele>801.8</ele>
        <time>2022-07-19T03:26:47Z</time>
      </trkpt>
      <trkpt lat="44.30721" lon="7.25031">
        <ele>801.8</ele>
        <time>2022-07-19T03:26:48Z</time>
      </trkpt>
      <trkpt lat="44.30723" lon="7.25025">
        <ele>801.8</ele>
        <time>2022-07-19T03:26:49Z</time>
      </trkpt>
      <trkpt lat="44.30724" lon="7.25019">
        <ele>802</ele>
        <time>2022-07-19T03:26:50Z</time>
      </trkpt>
      <trkpt lat="44.30725" lon="7.25014">
        <ele>802</ele>
        <time>2022-07-19T03:26:51Z</time>
      </trkpt>
      <trkpt lat="44.30726" lon="7.25008">
        <ele>802</ele>
        <time>2022-07-19T03:26:52Z</time>
      </trkpt>
      <trkpt lat="44.30727" lon="7.25002">
        <ele>802.4</ele>
        <time>2022-07-19T03:26:53Z</time>
      </trkpt>
      <trkpt lat="44.30728" lon="7.24996">
        <ele>802.4</ele>
        <time>2022-07-19T03:26:54Z</time>
      </trkpt>
      <trkpt lat="44.30729" lon="7.2499">
        <ele>802.6</ele>
        <time>2022-07-19T03:26:55Z</time>
      </trkpt>
      <trkpt lat="44.3073" lon="7.24985">
        <ele>802.6</ele>
        <time>2022-07-19T03:26:56Z</time>
      </trkpt>
      <trkpt lat="44.30731" lon="7.24979">
        <ele>802.6</ele>
        <time>2022-07-19T03:26:57Z</time>
      </trkpt>
      <trkpt lat="44.30732" lon="7.24973">
        <ele>802.8</ele>
        <time>2022-07-19T03:26:58Z</time>
      </trkpt>
      <trkpt lat="44.30733" lon="7.24967">
        <ele>802.8</ele>
        <time>2022-07-19T03:26:59Z</time>
      </trkpt>
      <trkpt lat="44.30734" lon="7.24961">
        <ele>802.8</ele>
        <time>2022-07-19T03:27:00Z</time>
      </trkpt>
      <trkpt lat="44.30735" lon="7.24955">
        <ele>802.8</ele>
        <time>2022-07-19T03:27:01Z</time>
      </trkpt>
      <trkpt lat="44.30737" lon="7.24949">
        <ele>802.8</ele>
        <time>2022-07-19T03:27:02Z</time>
      </trkpt>
      <trkpt lat="44.30738" lon="7.24943">
        <ele>802.8</ele>
        <time>2022-07-19T03:27:03Z</time>
      </trkpt>
      <trkpt lat="44.30739" lon="7.24938">
        <ele>802.8</ele>
        <time>2022-07-19T03:27:04Z</time>
      </trkpt>
      <trkpt lat="44.30741" lon="7.24931">
        <ele>802.8</ele>
        <time>2022-07-19T03:27:05Z</time>
      </trkpt>
      <trkpt lat="44.30742" lon="7.24925">
        <ele>802.8</ele>
        <time>2022-07-19T03:27:06Z</time>
      </trkpt>
      <trkpt lat="44.30744" lon="7.24918">
        <ele>802.8</ele>
        <time>2022-07-19T03:27:07Z</time>
      </trkpt>
      <trkpt lat="44.30745" lon="7.24911">
        <ele>802.8</ele>
        <time>2022-07-19T03:27:08Z</time>
      </trkpt>
      <trkpt lat="44.30746" lon="7.24905">
        <ele>802.8</ele>
        <time>2022-07-19T03:27:09Z</time>
      </trkpt>
      <trkpt lat="44.30747" lon="7.24897">
        <ele>802.8</ele>
        <time>2022-07-19T03:27:10Z</time>
      </trkpt>
      <trkpt lat="44.30748" lon="7.2489">
        <ele>802.8</ele>
        <time>2022-07-19T03:27:11Z</time>
      </trkpt>
      <trkpt lat="44.30749" lon="7.24883">
        <ele>802.8</ele>
        <time>2022-07-19T03:27:12Z</time>
      </trkpt>
      <trkpt lat="44.3075" lon="7.24876">
        <ele>802.8</ele>
        <time>2022-07-19T03:27:13Z</time>
      </trkpt>
      <trkpt lat="44.3075" lon="7.24869">
        <ele>802.8</ele>
        <time>2022-07-19T03:27:14Z</time>
      </trkpt>
      <trkpt lat="44.3075" lon="7.24862">
        <ele>802.8</ele>
        <time>2022-07-19T03:27:15Z</time>
      </trkpt>
      <trkpt lat="44.30751" lon="7.24855">
        <ele>802.8</ele>
        <time>2022-07-19T03:27:16Z</time>
      </trkpt>
      <trkpt lat="44.30751" lon="7.24848">
        <ele>802.8</ele>
        <time>2022-07-19T03:27:17Z</time>
      </trkpt>
      <trkpt lat="44.30751" lon="7.24841">
        <ele>802.8</ele>
        <time>2022-07-19T03:27:18Z</time>
      </trkpt>
      <trkpt lat="44.30751" lon="7.24834">
        <ele>802.8</ele>
        <time>2022-07-19T03:27:19Z</time>
      </trkpt>
      <trkpt lat="44.30751" lon="7.24826">
        <ele>802.8</ele>
        <time>2022-07-19T03:27:20Z</time>
      </trkpt>
      <trkpt lat="44.30752" lon="7.24819">
        <ele>802.8</ele>
        <time>2022-07-19T03:27:21Z</time>
      </trkpt>
      <trkpt lat="44.30752" lon="7.24811">
        <ele>802.8</ele>
        <time>2022-07-19T03:27:22Z</time>
      </trkpt>
      <trkpt lat="44.30753" lon="7.24803">
        <ele>802.8</ele>
        <time>2022-07-19T03:27:23Z</time>
      </trkpt>
      <trkpt lat="44.30754" lon="7.24796">
        <ele>802.8</ele>
        <time>2022-07-19T03:27:24Z</time>
      </trkpt>
      <trkpt lat="44.30755" lon="7.24788">
        <ele>802.8</ele>
        <time>2022-07-19T03:27:25Z</time>
      </trkpt>
      <trkpt lat="44.30756" lon="7.24781">
        <ele>802.8</ele>
        <time>2022-07-19T03:27:26Z</time>
      </trkpt>
      <trkpt lat="44.30758" lon="7.24773">
        <ele>802.8</ele>
        <time>2022-07-19T03:27:27Z</time>
      </trkpt>
      <trkpt lat="44.3076" lon="7.24766">
        <ele>802.8</ele>
        <time>2022-07-19T03:27:28Z</time>
      </trkpt>
      <trkpt lat="44.30761" lon="7.24759">
        <ele>802.8</ele>
        <time>2022-07-19T03:27:29Z</time>
      </trkpt>
      <trkpt lat="44.30763" lon="7.24752">
        <ele>802.8</ele>
        <time>2022-07-19T03:27:30Z</time>
      </trkpt>
      <trkpt lat="44.30765" lon="7.24745">
        <ele>802.8</ele>
        <time>2022-07-19T03:27:31Z</time>
      </trkpt>
      <trkpt lat="44.30766" lon="7.24738">
        <ele>802.8</ele>
        <time>2022-07-19T03:27:32Z</time>
      </trkpt>
      <trkpt lat="44.30768" lon="7.24731">
        <ele>802.8</ele>
        <time>2022-07-19T03:27:33Z</time>
      </trkpt>
      <trkpt lat="44.3077" lon="7.24724">
        <ele>803</ele>
        <time>2022-07-19T03:27:34Z</time>
      </trkpt>
      <trkpt lat="44.30772" lon="7.24717">
        <ele>803</ele>
        <time>2022-07-19T03:27:35Z</time>
      </trkpt>
      <trkpt lat="44.30774" lon="7.2471">
        <ele>803</ele>
        <time>2022-07-19T03:27:36Z</time>
      </trkpt>
      <trkpt lat="44.30776" lon="7.24703">
        <ele>803</ele>
        <time>2022-07-19T03:27:37Z</time>
      </trkpt>
      <trkpt lat="44.30778" lon="7.24696">
        <ele>803</ele>
        <time>2022-07-19T03:27:38Z</time>
      </trkpt>
      <trkpt lat="44.3078" lon="7.24689">
        <ele>803</ele>
        <time>2022-07-19T03:27:39Z</time>
      </trkpt>
      <trkpt lat="44.30781" lon="7.24682">
        <ele>803.2</ele>
        <time>2022-07-19T03:27:40Z</time>
      </trkpt>
      <trkpt lat="44.30783" lon="7.24675">
        <ele>803.2</ele>
        <time>2022-07-19T03:27:41Z</time>
      </trkpt>
      <trkpt lat="44.30786" lon="7.24668">
        <ele>803.2</ele>
        <time>2022-07-19T03:27:42Z</time>
      </trkpt>
      <trkpt lat="44.30788" lon="7.24662">
        <ele>803.2</ele>
        <time>2022-07-19T03:27:43Z</time>
      </trkpt>
      <trkpt lat="44.3079" lon="7.24655">
        <ele>803.2</ele>
        <time>2022-07-19T03:27:44Z</time>
      </trkpt>
      <trkpt lat="44.30792" lon="7.24648">
        <ele>803.4</ele>
        <time>2022-07-19T03:27:45Z</time>
      </trkpt>
      <trkpt lat="44.30794" lon="7.24642">
        <ele>803.4</ele>
        <time>2022-07-19T03:27:46Z</time>
      </trkpt>
      <trkpt lat="44.30797" lon="7.24636">
        <ele>803.4</ele>
        <time>2022-07-19T03:27:47Z</time>
      </trkpt>
      <trkpt lat="44.30799" lon="7.24629">
        <ele>803.6</ele>
        <time>2022-07-19T03:27:48Z</time>
      </trkpt>
      <trkpt lat="44.30801" lon="7.24623">
        <ele>803.6</ele>
        <time>2022-07-19T03:27:49Z</time>
      </trkpt>
      <trkpt lat="44.30804" lon="7.24617">
        <ele>803.8</ele>
        <time>2022-07-19T03:27:50Z</time>
      </trkpt>
      <trkpt lat="44.30807" lon="7.24611">
        <ele>803.8</ele>
        <time>2022-07-19T03:27:51Z</time>
      </trkpt>
      <trkpt lat="44.30809" lon="7.24605">
        <ele>803.8</ele>
        <time>2022-07-19T03:27:52Z</time>
      </trkpt>
      <trkpt lat="44.30812" lon="7.24598">
        <ele>804.2</ele>
        <time>2022-07-19T03:27:53Z</time>
      </trkpt>
      <trkpt lat="44.30814" lon="7.24592">
        <ele>804.2</ele>
        <time>2022-07-19T03:27:54Z</time>
      </trkpt>
      <trkpt lat="44.30817" lon="7.24586">
        <ele>804.2</ele>
        <time>2022-07-19T03:27:55Z</time>
      </trkpt>
      <trkpt lat="44.30819" lon="7.24579">
        <ele>804.4</ele>
        <time>2022-07-19T03:27:56Z</time>
      </trkpt>
      <trkpt lat="44.30822" lon="7.24573">
        <ele>804.4</ele>
        <time>2022-07-19T03:27:57Z</time>
      </trkpt>
      <trkpt lat="44.30824" lon="7.24566">
        <ele>804.4</ele>
        <time>2022-07-19T03:27:58Z</time>
      </trkpt>
      <trkpt lat="44.30827" lon="7.2456">
        <ele>804.6</ele>
        <time>2022-07-19T03:27:59Z</time>
      </trkpt>
      <trkpt lat="44.30829" lon="7.24553">
        <ele>804.6</ele>
        <time>2022-07-19T03:28:00Z</time>
      </trkpt>
      <trkpt lat="44.30832" lon="7.24546">
        <ele>804.6</ele>
        <time>2022-07-19T03:28:01Z</time>
      </trkpt>
      <trkpt lat="44.30834" lon="7.24539">
        <ele>804.6</ele>
        <time>2022-07-19T03:28:02Z</time>
      </trkpt>
      <trkpt lat="44.30837" lon="7.24532">
        <ele>804.6</ele>
        <time>2022-07-19T03:28:03Z</time>
      </trkpt>
      <trkpt lat="44.30839" lon="7.24524">
        <ele>804.6</ele>
        <time>2022-07-19T03:28:04Z</time>
      </trkpt>
      <trkpt lat="44.30841" lon="7.24517">
        <ele>804.6</ele>
        <time>2022-07-19T03:28:05Z</time>
      </trkpt>
      <trkpt lat="44.30843" lon="7.2451">
        <ele>804.6</ele>
        <time>2022-07-19T03:28:06Z</time>
      </trkpt>
      <trkpt lat="44.30844" lon="7.24503">
        <ele>804.4</ele>
        <time>2022-07-19T03:28:07Z</time>
      </trkpt>
      <trkpt lat="44.30846" lon="7.24495">
        <ele>804.4</ele>
        <time>2022-07-19T03:28:08Z</time>
      </trkpt>
      <trkpt lat="44.30848" lon="7.24488">
        <ele>804.4</ele>
        <time>2022-07-19T03:28:09Z</time>
      </trkpt>
      <trkpt lat="44.3085" lon="7.24481">
        <ele>804.2</ele>
        <time>2022-07-19T03:28:10Z</time>
      </trkpt>
      <trkpt lat="44.30851" lon="7.24473">
        <ele>804.2</ele>
        <time>2022-07-19T03:28:11Z</time>
      </trkpt>
      <trkpt lat="44.30853" lon="7.24466">
        <ele>804.2</ele>
        <time>2022-07-19T03:28:12Z</time>
      </trkpt>
      <trkpt lat="44.30855" lon="7.24458">
        <ele>804.2</ele>
        <time>2022-07-19T03:28:13Z</time>
      </trkpt>
      <trkpt lat="44.30857" lon="7.2445">
        <ele>804</ele>
        <time>2022-07-19T03:28:14Z</time>
      </trkpt>
      <trkpt lat="44.30859" lon="7.24442">
        <ele>804</ele>
        <time>2022-07-19T03:28:15Z</time>
      </trkpt>
      <trkpt lat="44.30861" lon="7.24434">
        <ele>804</ele>
        <time>2022-07-19T03:28:16Z</time>
      </trkpt>
      <trkpt lat="44.30863" lon="7.24426">
        <ele>803.6</ele>
        <time>2022-07-19T03:28:17Z</time>
      </trkpt>
      <trkpt lat="44.30865" lon="7.24418">
        <ele>803.6</ele>
        <time>2022-07-19T03:28:18Z</time>
      </trkpt>
      <trkpt lat="44.30867" lon="7.2441">
        <ele>803.6</ele>
        <time>2022-07-19T03:28:19Z</time>
      </trkpt>
      <trkpt lat="44.30869" lon="7.24403">
        <ele>803.6</ele>
        <time>2022-07-19T03:28:20Z</time>
      </trkpt>
      <trkpt lat="44.30871" lon="7.24395">
        <ele>803.4</ele>
        <time>2022-07-19T03:28:21Z</time>
      </trkpt>
      <trkpt lat="44.30873" lon="7.24387">
        <ele>803.4</ele>
        <time>2022-07-19T03:28:22Z</time>
      </trkpt>
      <trkpt lat="44.30874" lon="7.24379">
        <ele>803.4</ele>
        <time>2022-07-19T03:28:23Z</time>
      </trkpt>
      <trkpt lat="44.30876" lon="7.24371">
        <ele>803.2</ele>
        <time>2022-07-19T03:28:24Z</time>
      </trkpt>
      <trkpt lat="44.30878" lon="7.24363">
        <ele>803.2</ele>
        <time>2022-07-19T03:28:25Z</time>
      </trkpt>
      <trkpt lat="44.3088" lon="7.24355">
        <ele>803.2</ele>
        <time>2022-07-19T03:28:26Z</time>
      </trkpt>
      <trkpt lat="44.30882" lon="7.24347">
        <ele>803</ele>
        <time>2022-07-19T03:28:27Z</time>
      </trkpt>
      <trkpt lat="44.30884" lon="7.24339">
        <ele>803</ele>
        <time>2022-07-19T03:28:28Z</time>
      </trkpt>
      <trkpt lat="44.30886" lon="7.24331">
        <ele>803</ele>
        <time>2022-07-19T03:28:29Z</time>
      </trkpt>
      <trkpt lat="44.30888" lon="7.24322">
        <ele>802.6</ele>
        <time>2022-07-19T03:28:30Z</time>
      </trkpt>
      <trkpt lat="44.3089" lon="7.24314">
        <ele>802.6</ele>
        <time>2022-07-19T03:28:31Z</time>
      </trkpt>
      <trkpt lat="44.30892" lon="7.24306">
        <ele>802.4</ele>
        <time>2022-07-19T03:28:32Z</time>
      </trkpt>
      <trkpt lat="44.30894" lon="7.24297">
        <ele>802.4</ele>
        <time>2022-07-19T03:28:33Z</time>
      </trkpt>
      <trkpt lat="44.30896" lon="7.24289">
        <ele>802.4</ele>
        <time>2022-07-19T03:28:34Z</time>
      </trkpt>
      <trkpt lat="44.30898" lon="7.24281">
        <ele>802.4</ele>
        <time>2022-07-19T03:28:35Z</time>
      </trkpt>
      <trkpt lat="44.309" lon="7.24272">
        <ele>802.4</ele>
        <time>2022-07-19T03:28:36Z</time>
      </trkpt>
      <trkpt lat="44.30902" lon="7.24264">
        <ele>802.2</ele>
        <time>2022-07-19T03:28:37Z</time>
      </trkpt>
      <trkpt lat="44.30904" lon="7.24255">
        <ele>802.2</ele>
        <time>2022-07-19T03:28:38Z</time>
      </trkpt>
      <trkpt lat="44.30906" lon="7.24246">
        <ele>802.2</ele>
        <time>2022-07-19T03:28:39Z</time>
      </trkpt>
      <trkpt lat="44.30908" lon="7.24237">
        <ele>801.8</ele>
        <time>2022-07-19T03:28:40Z</time>
      </trkpt>
      <trkpt lat="44.3091" lon="7.24228">
        <ele>801.8</ele>
        <time>2022-07-19T03:28:41Z</time>
      </trkpt>
      <trkpt lat="44.30912" lon="7.2422">
        <ele>801.8</ele>
        <time>2022-07-19T03:28:42Z</time>
      </trkpt>
      <trkpt lat="44.30914" lon="7.24211">
        <ele>801.6</ele>
        <time>2022-07-19T03:28:43Z</time>
      </trkpt>
      <trkpt lat="44.30916" lon="7.24203">
        <ele>801.6</ele>
        <time>2022-07-19T03:28:44Z</time>
      </trkpt>
      <trkpt lat="44.30918" lon="7.24195">
        <ele>801.6</ele>
        <time>2022-07-19T03:28:45Z</time>
      </trkpt>
      <trkpt lat="44.3092" lon="7.24186">
        <ele>801.6</ele>
        <time>2022-07-19T03:28:46Z</time>
      </trkpt>
      <trkpt lat="44.30922" lon="7.24178">
        <ele>801.6</ele>
        <time>2022-07-19T03:28:47Z</time>
      </trkpt>
      <trkpt lat="44.30923" lon="7.2417">
        <ele>801.6</ele>
        <time>2022-07-19T03:28:48Z</time>
      </trkpt>
      <trkpt lat="44.30924" lon="7.24161">
        <ele>801.6</ele>
        <time>2022-07-19T03:28:49Z</time>
      </trkpt>
      <trkpt lat="44.30925" lon="7.24153">
        <ele>801.4</ele>
        <time>2022-07-19T03:28:50Z</time>
      </trkpt>
      <trkpt lat="44.30926" lon="7.24144">
        <ele>801.4</ele>
        <time>2022-07-19T03:28:51Z</time>
      </trkpt>
      <trkpt lat="44.30926" lon="7.24136">
        <ele>801.4</ele>
        <time>2022-07-19T03:28:52Z</time>
      </trkpt>
      <trkpt lat="44.30926" lon="7.24127">
        <ele>801.4</ele>
        <time>2022-07-19T03:28:53Z</time>
      </trkpt>
      <trkpt lat="44.30925" lon="7.24118">
        <ele>801.4</ele>
        <time>2022-07-19T03:28:54Z</time>
      </trkpt>
      <trkpt lat="44.30924" lon="7.2411">
        <ele>801.2</ele>
        <time>2022-07-19T03:28:55Z</time>
      </trkpt>
      <trkpt lat="44.30923" lon="7.24101">
        <ele>801.2</ele>
        <time>2022-07-19T03:28:56Z</time>
      </trkpt>
      <trkpt lat="44.30921" lon="7.24093">
        <ele>801.2</ele>
        <time>2022-07-19T03:28:57Z</time>
      </trkpt>
      <trkpt lat="44.30919" lon="7.24085">
        <ele>801.2</ele>
        <time>2022-07-19T03:28:58Z</time>
      </trkpt>
      <trkpt lat="44.30917" lon="7.24077">
        <ele>801.2</ele>
        <time>2022-07-19T03:28:59Z</time>
      </trkpt>
      <trkpt lat="44.30915" lon="7.24069">
        <ele>801</ele>
        <time>2022-07-19T03:29:00Z</time>
      </trkpt>
      <trkpt lat="44.30913" lon="7.24062">
        <ele>801</ele>
        <time>2022-07-19T03:29:01Z</time>
      </trkpt>
      <trkpt lat="44.3091" lon="7.24054">
        <ele>801</ele>
        <time>2022-07-19T03:29:02Z</time>
      </trkpt>
      <trkpt lat="44.30908" lon="7.24047">
        <ele>801</ele>
        <time>2022-07-19T03:29:03Z</time>
      </trkpt>
      <trkpt lat="44.30906" lon="7.24039">
        <ele>801</ele>
        <time>2022-07-19T03:29:04Z</time>
      </trkpt>
      <trkpt lat="44.30904" lon="7.24032">
        <ele>801</ele>
        <time>2022-07-19T03:29:05Z</time>
      </trkpt>
      <trkpt lat="44.30902" lon="7.24024">
        <ele>801</ele>
        <time>2022-07-19T03:29:06Z</time>
      </trkpt>
      <trkpt lat="44.30899" lon="7.24017">
        <ele>801</ele>
        <time>2022-07-19T03:29:07Z</time>
      </trkpt>
      <trkpt lat="44.30897" lon="7.24009">
        <ele>801</ele>
        <time>2022-07-19T03:29:08Z</time>
      </trkpt>
      <trkpt lat="44.30895" lon="7.24002">
        <ele>801</ele>
        <time>2022-07-19T03:29:09Z</time>
      </trkpt>
      <trkpt lat="44.30892" lon="7.23995">
        <ele>801</ele>
        <time>2022-07-19T03:29:10Z</time>
      </trkpt>
      <trkpt lat="44.3089" lon="7.23987">
        <ele>801</ele>
        <time>2022-07-19T03:29:11Z</time>
      </trkpt>
      <trkpt lat="44.30888" lon="7.2398">
        <ele>801</ele>
        <time>2022-07-19T03:29:12Z</time>
      </trkpt>
      <trkpt lat="44.30886" lon="7.23972">
        <ele>801</ele>
        <time>2022-07-19T03:29:13Z</time>
      </trkpt>
      <trkpt lat="44.30884" lon="7.23965">
        <ele>801</ele>
        <time>2022-07-19T03:29:14Z</time>
      </trkpt>
      <trkpt lat="44.30882" lon="7.23958">
        <ele>801</ele>
        <time>2022-07-19T03:29:15Z</time>
      </trkpt>
      <trkpt lat="44.3088" lon="7.2395">
        <ele>801</ele>
        <time>2022-07-19T03:29:16Z</time>
      </trkpt>
      <trkpt lat="44.30877" lon="7.23943">
        <ele>801</ele>
        <time>2022-07-19T03:29:17Z</time>
      </trkpt>
      <trkpt lat="44.30875" lon="7.23935">
        <ele>800.8</ele>
        <time>2022-07-19T03:29:18Z</time>
      </trkpt>
      <trkpt lat="44.30872" lon="7.23927">
        <ele>800.8</ele>
        <time>2022-07-19T03:29:19Z</time>
      </trkpt>
      <trkpt lat="44.30869" lon="7.23918">
        <ele>800.4</ele>
        <time>2022-07-19T03:29:20Z</time>
      </trkpt>
      <trkpt lat="44.30867" lon="7.23909">
        <ele>800.2</ele>
        <time>2022-07-19T03:29:21Z</time>
      </trkpt>
      <trkpt lat="44.30864" lon="7.23899">
        <ele>799.8</ele>
        <time>2022-07-19T03:29:22Z</time>
      </trkpt>
      <trkpt lat="44.3086" lon="7.2389">
        <ele>799.4</ele>
        <time>2022-07-19T03:29:23Z</time>
      </trkpt>
      <trkpt lat="44.30857" lon="7.23879">
        <ele>799</ele>
        <time>2022-07-19T03:29:24Z</time>
      </trkpt>
      <trkpt lat="44.30853" lon="7.23869">
        <ele>798.6</ele>
        <time>2022-07-19T03:29:25Z</time>
      </trkpt>
      <trkpt lat="44.30849" lon="7.23858">
        <ele>798.4</ele>
        <time>2022-07-19T03:29:26Z</time>
      </trkpt>
      <trkpt lat="44.30845" lon="7.23848">
        <ele>797.8</ele>
        <time>2022-07-19T03:29:27Z</time>
      </trkpt>
      <trkpt lat="44.30842" lon="7.23836">
        <ele>796.8</ele>
        <time>2022-07-19T03:29:29Z</time>
      </trkpt>
      <trkpt lat="44.30838" lon="7.23825">
        <ele>796.4</ele>
        <time>2022-07-19T03:29:30Z</time>
      </trkpt>
      <trkpt lat="44.30834" lon="7.23813">
        <ele>795.8</ele>
        <time>2022-07-19T03:29:31Z</time>
      </trkpt>
      <trkpt lat="44.3083" lon="7.238">
        <ele>795.4</ele>
        <time>2022-07-19T03:29:32Z</time>
      </trkpt>
      <trkpt lat="44.30826" lon="7.23788">
        <ele>794.8</ele>
        <time>2022-07-19T03:29:33Z</time>
      </trkpt>
      <trkpt lat="44.30821" lon="7.23776">
        <ele>794.2</ele>
        <time>2022-07-19T03:29:34Z</time>
      </trkpt>
      <trkpt lat="44.30817" lon="7.23764">
        <ele>793.8</ele>
        <time>2022-07-19T03:29:35Z</time>
      </trkpt>
      <trkpt lat="44.30813" lon="7.23751">
        <ele>793.2</ele>
        <time>2022-07-19T03:29:36Z</time>
      </trkpt>
      <trkpt lat="44.3081" lon="7.23739">
        <ele>792.6</ele>
        <time>2022-07-19T03:29:37Z</time>
      </trkpt>
      <trkpt lat="44.30807" lon="7.23726">
        <ele>792.2</ele>
        <time>2022-07-19T03:29:38Z</time>
      </trkpt>
      <trkpt lat="44.30805" lon="7.23712">
        <ele>791.8</ele>
        <time>2022-07-19T03:29:39Z</time>
      </trkpt>
      <trkpt lat="44.30804" lon="7.23699">
        <ele>791.8</ele>
        <time>2022-07-19T03:29:40Z</time>
      </trkpt>
      <trkpt lat="44.30804" lon="7.23686">
        <ele>791.6</ele>
        <time>2022-07-19T03:29:41Z</time>
      </trkpt>
      <trkpt lat="44.30804" lon="7.23674">
        <ele>791.6</ele>
        <time>2022-07-19T03:29:42Z</time>
      </trkpt>
      <trkpt lat="44.30803" lon="7.23663">
        <ele>791.6</ele>
        <time>2022-07-19T03:29:43Z</time>
      </trkpt>
      <trkpt lat="44.30803" lon="7.23653">
        <ele>791.6</ele>
        <time>2022-07-19T03:29:44Z</time>
      </trkpt>
      <trkpt lat="44.30803" lon="7.23642">
        <ele>791.6</ele>
        <time>2022-07-19T03:29:45Z</time>
      </trkpt>
      <trkpt lat="44.30803" lon="7.23633">
        <ele>791.6</ele>
        <time>2022-07-19T03:29:46Z</time>
      </trkpt>
      <trkpt lat="44.30803" lon="7.23623">
        <ele>791.6</ele>
        <time>2022-07-19T03:29:47Z</time>
      </trkpt>
      <trkpt lat="44.30803" lon="7.23614">
        <ele>791.6</ele>
        <time>2022-07-19T03:29:48Z</time>
      </trkpt>
      <trkpt lat="44.30803" lon="7.23604">
        <ele>791.6</ele>
        <time>2022-07-19T03:29:49Z</time>
      </trkpt>
      <trkpt lat="44.30804" lon="7.23595">
        <ele>791.6</ele>
        <time>2022-07-19T03:29:50Z</time>
      </trkpt>
      <trkpt lat="44.30804" lon="7.23586">
        <ele>791.6</ele>
        <time>2022-07-19T03:29:51Z</time>
      </trkpt>
      <trkpt lat="44.30804" lon="7.23577">
        <ele>791.8</ele>
        <time>2022-07-19T03:29:52Z</time>
      </trkpt>
      <trkpt lat="44.30804" lon="7.23568">
        <ele>791.8</ele>
        <time>2022-07-19T03:29:53Z</time>
      </trkpt>
      <trkpt lat="44.30804" lon="7.2356">
        <ele>791.8</ele>
        <time>2022-07-19T03:29:54Z</time>
      </trkpt>
      <trkpt lat="44.30804" lon="7.23551">
        <ele>791.8</ele>
        <time>2022-07-19T03:29:55Z</time>
      </trkpt>
      <trkpt lat="44.30804" lon="7.23542">
        <ele>792</ele>
        <time>2022-07-19T03:29:56Z</time>
      </trkpt>
      <trkpt lat="44.30804" lon="7.23534">
        <ele>792</ele>
        <time>2022-07-19T03:29:57Z</time>
      </trkpt>
      <trkpt lat="44.30804" lon="7.23525">
        <ele>792</ele>
        <time>2022-07-19T03:29:58Z</time>
      </trkpt>
      <trkpt lat="44.30804" lon="7.23517">
        <ele>792</ele>
        <time>2022-07-19T03:29:59Z</time>
      </trkpt>
      <trkpt lat="44.30804" lon="7.23508">
        <ele>792</ele>
        <time>2022-07-19T03:30:00Z</time>
      </trkpt>
      <trkpt lat="44.30804" lon="7.235">
        <ele>792</ele>
        <time>2022-07-19T03:30:01Z</time>
      </trkpt>
      <trkpt lat="44.30804" lon="7.23491">
        <ele>792</ele>
        <time>2022-07-19T03:30:02Z</time>
      </trkpt>
      <trkpt lat="44.30804" lon="7.23482">
        <ele>792</ele>
        <time>2022-07-19T03:30:03Z</time>
      </trkpt>
      <trkpt lat="44.30804" lon="7.23474">
        <ele>792</ele>
        <time>2022-07-19T03:30:04Z</time>
      </trkpt>
      <trkpt lat="44.30804" lon="7.23465">
        <ele>792</ele>
        <time>2022-07-19T03:30:05Z</time>
      </trkpt>
      <trkpt lat="44.30803" lon="7.23456">
        <ele>792</ele>
        <time>2022-07-19T03:30:06Z</time>
      </trkpt>
      <trkpt lat="44.30803" lon="7.23447">
        <ele>792</ele>
        <time>2022-07-19T03:30:07Z</time>
      </trkpt>
      <trkpt lat="44.30801" lon="7.23438">
        <ele>792</ele>
        <time>2022-07-19T03:30:08Z</time>
      </trkpt>
      <trkpt lat="44.308" lon="7.23429">
        <ele>792.4</ele>
        <time>2022-07-19T03:30:09Z</time>
      </trkpt>
      <trkpt lat="44.30798" lon="7.23421">
        <ele>792.4</ele>
        <time>2022-07-19T03:30:10Z</time>
      </trkpt>
      <trkpt lat="44.30797" lon="7.23412">
        <ele>792.4</ele>
        <time>2022-07-19T03:30:11Z</time>
      </trkpt>
      <trkpt lat="44.30795" lon="7.23404">
        <ele>792.4</ele>
        <time>2022-07-19T03:30:12Z</time>
      </trkpt>
      <trkpt lat="44.30792" lon="7.23395">
        <ele>792.4</ele>
        <time>2022-07-19T03:30:13Z</time>
      </trkpt>
      <trkpt lat="44.3079" lon="7.23387">
        <ele>792.4</ele>
        <time>2022-07-19T03:30:14Z</time>
      </trkpt>
      <trkpt lat="44.30787" lon="7.23379">
        <ele>792.4</ele>
        <time>2022-07-19T03:30:15Z</time>
      </trkpt>
      <trkpt lat="44.30784" lon="7.23371">
        <ele>792.4</ele>
        <time>2022-07-19T03:30:16Z</time>
      </trkpt>
      <trkpt lat="44.3078" lon="7.23364">
        <ele>792.4</ele>
        <time>2022-07-19T03:30:17Z</time>
      </trkpt>
      <trkpt lat="44.30777" lon="7.23356">
        <ele>792.4</ele>
        <time>2022-07-19T03:30:18Z</time>
      </trkpt>
      <trkpt lat="44.30774" lon="7.23348">
        <ele>792.4</ele>
        <time>2022-07-19T03:30:19Z</time>
      </trkpt>
      <trkpt lat="44.30771" lon="7.2334">
        <ele>792.4</ele>
        <time>2022-07-19T03:30:20Z</time>
      </trkpt>
      <trkpt lat="44.30767" lon="7.23331">
        <ele>792.4</ele>
        <time>2022-07-19T03:30:21Z</time>
      </trkpt>
      <trkpt lat="44.30764" lon="7.23323">
        <ele>792</ele>
        <time>2022-07-19T03:30:22Z</time>
      </trkpt>
      <trkpt lat="44.30761" lon="7.23315">
        <ele>792</ele>
        <time>2022-07-19T03:30:23Z</time>
      </trkpt>
      <trkpt lat="44.30757" lon="7.23307">
        <ele>792</ele>
        <time>2022-07-19T03:30:24Z</time>
      </trkpt>
      <trkpt lat="44.30754" lon="7.23299">
        <ele>791.8</ele>
        <time>2022-07-19T03:30:25Z</time>
      </trkpt>
      <trkpt lat="44.3075" lon="7.2329">
        <ele>791.8</ele>
        <time>2022-07-19T03:30:26Z</time>
      </trkpt>
      <trkpt lat="44.30747" lon="7.23282">
        <ele>791.8</ele>
        <time>2022-07-19T03:30:27Z</time>
      </trkpt>
      <trkpt lat="44.30743" lon="7.23274">
        <ele>791.6</ele>
        <time>2022-07-19T03:30:28Z</time>
      </trkpt>
      <trkpt lat="44.3074" lon="7.23266">
        <ele>791.6</ele>
        <time>2022-07-19T03:30:29Z</time>
      </trkpt>
      <trkpt lat="44.30737" lon="7.23257">
        <ele>791.2</ele>
        <time>2022-07-19T03:30:30Z</time>
      </trkpt>
      <trkpt lat="44.30734" lon="7.23249">
        <ele>791.2</ele>
        <time>2022-07-19T03:30:31Z</time>
      </trkpt>
      <trkpt lat="44.3073" lon="7.23241">
        <ele>791.2</ele>
        <time>2022-07-19T03:30:32Z</time>
      </trkpt>
      <trkpt lat="44.30727" lon="7.23232">
        <ele>791</ele>
        <time>2022-07-19T03:30:33Z</time>
      </trkpt>
      <trkpt lat="44.30724" lon="7.23224">
        <ele>791</ele>
        <time>2022-07-19T03:30:34Z</time>
      </trkpt>
      <trkpt lat="44.3072" lon="7.23216">
        <ele>791</ele>
        <time>2022-07-19T03:30:35Z</time>
      </trkpt>
      <trkpt lat="44.30717" lon="7.23208">
        <ele>790.8</ele>
        <time>2022-07-19T03:30:36Z</time>
      </trkpt>
      <trkpt lat="44.30714" lon="7.232">
        <ele>790.8</ele>
        <time>2022-07-19T03:30:37Z</time>
      </trkpt>
      <trkpt lat="44.30711" lon="7.23192">
        <ele>790.8</ele>
        <time>2022-07-19T03:30:38Z</time>
      </trkpt>
      <trkpt lat="44.30709" lon="7.23183">
        <ele>790.8</ele>
        <time>2022-07-19T03:30:39Z</time>
      </trkpt>
      <trkpt lat="44.30706" lon="7.23174">
        <ele>790.8</ele>
        <time>2022-07-19T03:30:40Z</time>
      </trkpt>
      <trkpt lat="44.30704" lon="7.23165">
        <ele>790.4</ele>
        <time>2022-07-19T03:30:41Z</time>
      </trkpt>
      <trkpt lat="44.30703" lon="7.23155">
        <ele>790.4</ele>
        <time>2022-07-19T03:30:42Z</time>
      </trkpt>
      <trkpt lat="44.30702" lon="7.23145">
        <ele>790.2</ele>
        <time>2022-07-19T03:30:43Z</time>
      </trkpt>
      <trkpt lat="44.30702" lon="7.23135">
        <ele>790.2</ele>
        <time>2022-07-19T03:30:44Z</time>
      </trkpt>
      <trkpt lat="44.30702" lon="7.23125">
        <ele>790.2</ele>
        <time>2022-07-19T03:30:45Z</time>
      </trkpt>
      <trkpt lat="44.30702" lon="7.23115">
        <ele>790.2</ele>
        <time>2022-07-19T03:30:46Z</time>
      </trkpt>
      <trkpt lat="44.30702" lon="7.23106">
        <ele>790.2</ele>
        <time>2022-07-19T03:30:47Z</time>
      </trkpt>
      <trkpt lat="44.30703" lon="7.23096">
        <ele>790.2</ele>
        <time>2022-07-19T03:30:48Z</time>
      </trkpt>
      <trkpt lat="44.30704" lon="7.23087">
        <ele>790.2</ele>
        <time>2022-07-19T03:30:49Z</time>
      </trkpt>
      <trkpt lat="44.30705" lon="7.23078">
        <ele>790.2</ele>
        <time>2022-07-19T03:30:50Z</time>
      </trkpt>
      <trkpt lat="44.30705" lon="7.23068">
        <ele>790.2</ele>
        <time>2022-07-19T03:30:51Z</time>
      </trkpt>
      <trkpt lat="44.30706" lon="7.23059">
        <ele>790.2</ele>
        <time>2022-07-19T03:30:52Z</time>
      </trkpt>
      <trkpt lat="44.30707" lon="7.2305">
        <ele>790.2</ele>
        <time>2022-07-19T03:30:53Z</time>
      </trkpt>
      <trkpt lat="44.30707" lon="7.23041">
        <ele>790.2</ele>
        <time>2022-07-19T03:30:54Z</time>
      </trkpt>
      <trkpt lat="44.30708" lon="7.23033">
        <ele>790.2</ele>
        <time>2022-07-19T03:30:55Z</time>
      </trkpt>
      <trkpt lat="44.30709" lon="7.23024">
        <ele>790.2</ele>
        <time>2022-07-19T03:30:56Z</time>
      </trkpt>
      <trkpt lat="44.30709" lon="7.23015">
        <ele>790.2</ele>
        <time>2022-07-19T03:30:57Z</time>
      </trkpt>
      <trkpt lat="44.3071" lon="7.23006">
        <ele>790.2</ele>
        <time>2022-07-19T03:30:58Z</time>
      </trkpt>
      <trkpt lat="44.30711" lon="7.22997">
        <ele>790.2</ele>
        <time>2022-07-19T03:30:59Z</time>
      </trkpt>
      <trkpt lat="44.30711" lon="7.22988">
        <ele>790.2</ele>
        <time>2022-07-19T03:31:00Z</time>
      </trkpt>
      <trkpt lat="44.30712" lon="7.2298">
        <ele>790.8</ele>
        <time>2022-07-19T03:31:01Z</time>
      </trkpt>
      <trkpt lat="44.30713" lon="7.22971">
        <ele>790.8</ele>
        <time>2022-07-19T03:31:02Z</time>
      </trkpt>
      <trkpt lat="44.30713" lon="7.22962">
        <ele>790.8</ele>
        <time>2022-07-19T03:31:03Z</time>
      </trkpt>
      <trkpt lat="44.30714" lon="7.22954">
        <ele>790.8</ele>
        <time>2022-07-19T03:31:04Z</time>
      </trkpt>
      <trkpt lat="44.30714" lon="7.22945">
        <ele>790.8</ele>
        <time>2022-07-19T03:31:05Z</time>
      </trkpt>
      <trkpt lat="44.30715" lon="7.22936">
        <ele>790.8</ele>
        <time>2022-07-19T03:31:06Z</time>
      </trkpt>
      <trkpt lat="44.30716" lon="7.22928">
        <ele>790.8</ele>
        <time>2022-07-19T03:31:07Z</time>
      </trkpt>
      <trkpt lat="44.30716" lon="7.22919">
        <ele>791</ele>
        <time>2022-07-19T03:31:08Z</time>
      </trkpt>
      <trkpt lat="44.30717" lon="7.22911">
        <ele>791</ele>
        <time>2022-07-19T03:31:09Z</time>
      </trkpt>
      <trkpt lat="44.30717" lon="7.22903">
        <ele>791.2</ele>
        <time>2022-07-19T03:31:10Z</time>
      </trkpt>
      <trkpt lat="44.30718" lon="7.22894">
        <ele>791.2</ele>
        <time>2022-07-19T03:31:11Z</time>
      </trkpt>
      <trkpt lat="44.30718" lon="7.22886">
        <ele>791.6</ele>
        <time>2022-07-19T03:31:12Z</time>
      </trkpt>
      <trkpt lat="44.30719" lon="7.22878">
        <ele>791.6</ele>
        <time>2022-07-19T03:31:13Z</time>
      </trkpt>
      <trkpt lat="44.3072" lon="7.2287">
        <ele>791.6</ele>
        <time>2022-07-19T03:31:14Z</time>
      </trkpt>
      <trkpt lat="44.3072" lon="7.22862">
        <ele>791.8</ele>
        <time>2022-07-19T03:31:15Z</time>
      </trkpt>
      <trkpt lat="44.30721" lon="7.22854">
        <ele>791.8</ele>
        <time>2022-07-19T03:31:16Z</time>
      </trkpt>
      <trkpt lat="44.30721" lon="7.22846">
        <ele>791.8</ele>
        <time>2022-07-19T03:31:17Z</time>
      </trkpt>
      <trkpt lat="44.30722" lon="7.22838">
        <ele>792.2</ele>
        <time>2022-07-19T03:31:18Z</time>
      </trkpt>
      <trkpt lat="44.30722" lon="7.22831">
        <ele>792.2</ele>
        <time>2022-07-19T03:31:19Z</time>
      </trkpt>
      <trkpt lat="44.30723" lon="7.22823">
        <ele>792.6</ele>
        <time>2022-07-19T03:31:20Z</time>
      </trkpt>
      <trkpt lat="44.30724" lon="7.22815">
        <ele>792.6</ele>
        <time>2022-07-19T03:31:21Z</time>
      </trkpt>
      <trkpt lat="44.30724" lon="7.22808">
        <ele>792.8</ele>
        <time>2022-07-19T03:31:22Z</time>
      </trkpt>
      <trkpt lat="44.30725" lon="7.228">
        <ele>792.8</ele>
        <time>2022-07-19T03:31:23Z</time>
      </trkpt>
      <trkpt lat="44.30725" lon="7.22793">
        <ele>793</ele>
        <time>2022-07-19T03:31:24Z</time>
      </trkpt>
      <trkpt lat="44.30726" lon="7.22786">
        <ele>793</ele>
        <time>2022-07-19T03:31:25Z</time>
      </trkpt>
      <trkpt lat="44.30726" lon="7.22779">
        <ele>793</ele>
        <time>2022-07-19T03:31:26Z</time>
      </trkpt>
      <trkpt lat="44.30727" lon="7.22772">
        <ele>793.4</ele>
        <time>2022-07-19T03:31:27Z</time>
      </trkpt>
      <trkpt lat="44.30727" lon="7.22764">
        <ele>793.4</ele>
        <time>2022-07-19T03:31:28Z</time>
      </trkpt>
      <trkpt lat="44.30728" lon="7.22757">
        <ele>793.6</ele>
        <time>2022-07-19T03:31:29Z</time>
      </trkpt>
      <trkpt lat="44.30729" lon="7.2275">
        <ele>793.6</ele>
        <time>2022-07-19T03:31:30Z</time>
      </trkpt>
      <trkpt lat="44.30729" lon="7.22743">
        <ele>794</ele>
        <time>2022-07-19T03:31:31Z</time>
      </trkpt>
      <trkpt lat="44.3073" lon="7.22736">
        <ele>794</ele>
        <time>2022-07-19T03:31:32Z</time>
      </trkpt>
      <trkpt lat="44.3073" lon="7.22728">
        <ele>794.2</ele>
        <time>2022-07-19T03:31:33Z</time>
      </trkpt>
      <trkpt lat="44.3073" lon="7.22721">
        <ele>794.2</ele>
        <time>2022-07-19T03:31:34Z</time>
      </trkpt>
      <trkpt lat="44.30731" lon="7.22714">
        <ele>794.6</ele>
        <time>2022-07-19T03:31:35Z</time>
      </trkpt>
      <trkpt lat="44.30731" lon="7.22706">
        <ele>794.6</ele>
        <time>2022-07-19T03:31:36Z</time>
      </trkpt>
      <trkpt lat="44.30732" lon="7.22699">
        <ele>794.8</ele>
        <time>2022-07-19T03:31:37Z</time>
      </trkpt>
      <trkpt lat="44.30732" lon="7.22692">
        <ele>794.8</ele>
        <time>2022-07-19T03:31:38Z</time>
      </trkpt>
      <trkpt lat="44.30733" lon="7.22685">
        <ele>794.8</ele>
        <time>2022-07-19T03:31:39Z</time>
      </trkpt>
      <trkpt lat="44.30734" lon="7.22678">
        <ele>795.2</ele>
        <time>2022-07-19T03:31:40Z</time>
      </trkpt>
      <trkpt lat="44.30734" lon="7.22671">
        <ele>795.2</ele>
        <time>2022-07-19T03:31:41Z</time>
      </trkpt>
      <trkpt lat="44.30735" lon="7.22664">
        <ele>795.4</ele>
        <time>2022-07-19T03:31:42Z</time>
      </trkpt>
      <trkpt lat="44.30735" lon="7.22657">
        <ele>795.4</ele>
        <time>2022-07-19T03:31:43Z</time>
      </trkpt>
      <trkpt lat="44.30736" lon="7.2265">
        <ele>795.6</ele>
        <time>2022-07-19T03:31:44Z</time>
      </trkpt>
      <trkpt lat="44.30736" lon="7.22643">
        <ele>795.6</ele>
        <time>2022-07-19T03:31:45Z</time>
      </trkpt>
      <trkpt lat="44.30737" lon="7.22636">
        <ele>795.6</ele>
        <time>2022-07-19T03:31:46Z</time>
      </trkpt>
      <trkpt lat="44.30737" lon="7.22629">
        <ele>796</ele>
        <time>2022-07-19T03:31:47Z</time>
      </trkpt>
      <trkpt lat="44.30738" lon="7.22621">
        <ele>796.2</ele>
        <time>2022-07-19T03:31:48Z</time>
      </trkpt>
      <trkpt lat="44.30738" lon="7.22614">
        <ele>796.2</ele>
        <time>2022-07-19T03:31:49Z</time>
      </trkpt>
      <trkpt lat="44.30739" lon="7.22607">
        <ele>796.6</ele>
        <time>2022-07-19T03:31:50Z</time>
      </trkpt>
      <trkpt lat="44.30739" lon="7.226">
        <ele>796.6</ele>
        <time>2022-07-19T03:31:51Z</time>
      </trkpt>
      <trkpt lat="44.3074" lon="7.22593">
        <ele>796.6</ele>
        <time>2022-07-19T03:31:52Z</time>
      </trkpt>
      <trkpt lat="44.3074" lon="7.22586">
        <ele>796.8</ele>
        <time>2022-07-19T03:31:53Z</time>
      </trkpt>
      <trkpt lat="44.30741" lon="7.22579">
        <ele>796.8</ele>
        <time>2022-07-19T03:31:54Z</time>
      </trkpt>
      <trkpt lat="44.30741" lon="7.22572">
        <ele>797.2</ele>
        <time>2022-07-19T03:31:55Z</time>
      </trkpt>
      <trkpt lat="44.30742" lon="7.22565">
        <ele>797.2</ele>
        <time>2022-07-19T03:31:56Z</time>
      </trkpt>
      <trkpt lat="44.30742" lon="7.22558">
        <ele>797.2</ele>
        <time>2022-07-19T03:31:57Z</time>
      </trkpt>
      <trkpt lat="44.30743" lon="7.22551">
        <ele>797.4</ele>
        <time>2022-07-19T03:31:58Z</time>
      </trkpt>
      <trkpt lat="44.30743" lon="7.22544">
        <ele>797.4</ele>
        <time>2022-07-19T03:31:59Z</time>
      </trkpt>
      <trkpt lat="44.30744" lon="7.22537">
        <ele>797.6</ele>
        <time>2022-07-19T03:32:00Z</time>
      </trkpt>
      <trkpt lat="44.30744" lon="7.2253">
        <ele>797.6</ele>
        <time>2022-07-19T03:32:01Z</time>
      </trkpt>
      <trkpt lat="44.30745" lon="7.22523">
        <ele>798</ele>
        <time>2022-07-19T03:32:02Z</time>
      </trkpt>
      <trkpt lat="44.30745" lon="7.22516">
        <ele>798</ele>
        <time>2022-07-19T03:32:03Z</time>
      </trkpt>
      <trkpt lat="44.30746" lon="7.22509">
        <ele>798.2</ele>
        <time>2022-07-19T03:32:04Z</time>
      </trkpt>
      <trkpt lat="44.30746" lon="7.22502">
        <ele>798.2</ele>
        <time>2022-07-19T03:32:05Z</time>
      </trkpt>
      <trkpt lat="44.30746" lon="7.22495">
        <ele>798.6</ele>
        <time>2022-07-19T03:32:06Z</time>
      </trkpt>
      <trkpt lat="44.30747" lon="7.22488">
        <ele>798.6</ele>
        <time>2022-07-19T03:32:07Z</time>
      </trkpt>
      <trkpt lat="44.30748" lon="7.22482">
        <ele>798.8</ele>
        <time>2022-07-19T03:32:08Z</time>
      </trkpt>
      <trkpt lat="44.30748" lon="7.22475">
        <ele>798.8</ele>
        <time>2022-07-19T03:32:09Z</time>
      </trkpt>
      <trkpt lat="44.30749" lon="7.22468">
        <ele>799.2</ele>
        <time>2022-07-19T03:32:10Z</time>
      </trkpt>
      <trkpt lat="44.30749" lon="7.22461">
        <ele>799.2</ele>
        <time>2022-07-19T03:32:11Z</time>
      </trkpt>
      <trkpt lat="44.3075" lon="7.22454">
        <ele>799.6</ele>
        <time>2022-07-19T03:32:12Z</time>
      </trkpt>
      <trkpt lat="44.3075" lon="7.22448">
        <ele>799.6</ele>
        <time>2022-07-19T03:32:13Z</time>
      </trkpt>
      <trkpt lat="44.30751" lon="7.22441">
        <ele>799.8</ele>
        <time>2022-07-19T03:32:14Z</time>
      </trkpt>
      <trkpt lat="44.30751" lon="7.22434">
        <ele>799.8</ele>
        <time>2022-07-19T03:32:15Z</time>
      </trkpt>
      <trkpt lat="44.30752" lon="7.22428">
        <ele>800.2</ele>
        <time>2022-07-19T03:32:16Z</time>
      </trkpt>
      <trkpt lat="44.30752" lon="7.22421">
        <ele>800.2</ele>
        <time>2022-07-19T03:32:17Z</time>
      </trkpt>
      <trkpt lat="44.30752" lon="7.22414">
        <ele>800.4</ele>
        <time>2022-07-19T03:32:18Z</time>
      </trkpt>
      <trkpt lat="44.30752" lon="7.22408">
        <ele>800.4</ele>
        <time>2022-07-19T03:32:19Z</time>
      </trkpt>
      <trkpt lat="44.30753" lon="7.22402">
        <ele>801</ele>
        <time>2022-07-19T03:32:20Z</time>
      </trkpt>
      <trkpt lat="44.30753" lon="7.22395">
        <ele>801</ele>
        <time>2022-07-19T03:32:21Z</time>
      </trkpt>
      <trkpt lat="44.30752" lon="7.22389">
        <ele>801.2</ele>
        <time>2022-07-19T03:32:22Z</time>
      </trkpt>
      <trkpt lat="44.30752" lon="7.22382">
        <ele>801.2</ele>
        <time>2022-07-19T03:32:23Z</time>
      </trkpt>
      <trkpt lat="44.30751" lon="7.22375">
        <ele>801.4</ele>
        <time>2022-07-19T03:32:24Z</time>
      </trkpt>
      <trkpt lat="44.3075" lon="7.22368">
        <ele>801.4</ele>
        <time>2022-07-19T03:32:25Z</time>
      </trkpt>
      <trkpt lat="44.30749" lon="7.22361">
        <ele>801.4</ele>
        <time>2022-07-19T03:32:26Z</time>
      </trkpt>
      <trkpt lat="44.30748" lon="7.22354">
        <ele>801.4</ele>
        <time>2022-07-19T03:32:27Z</time>
      </trkpt>
      <trkpt lat="44.30748" lon="7.22347">
        <ele>801.6</ele>
        <time>2022-07-19T03:32:28Z</time>
      </trkpt>
      <trkpt lat="44.30746" lon="7.2234">
        <ele>801.6</ele>
        <time>2022-07-19T03:32:29Z</time>
      </trkpt>
      <trkpt lat="44.30746" lon="7.22333">
        <ele>802</ele>
        <time>2022-07-19T03:32:30Z</time>
      </trkpt>
      <trkpt lat="44.30745" lon="7.22327">
        <ele>802</ele>
        <time>2022-07-19T03:32:31Z</time>
      </trkpt>
      <trkpt lat="44.30744" lon="7.2232">
        <ele>802.2</ele>
        <time>2022-07-19T03:32:32Z</time>
      </trkpt>
      <trkpt lat="44.30743" lon="7.22313">
        <ele>802.2</ele>
        <time>2022-07-19T03:32:33Z</time>
      </trkpt>
      <trkpt lat="44.30742" lon="7.22307">
        <ele>802.4</ele>
        <time>2022-07-19T03:32:34Z</time>
      </trkpt>
      <trkpt lat="44.30742" lon="7.22301">
        <ele>802.4</ele>
        <time>2022-07-19T03:32:35Z</time>
      </trkpt>
      <trkpt lat="44.30741" lon="7.22294">
        <ele>802.6</ele>
        <time>2022-07-19T03:32:36Z</time>
      </trkpt>
      <trkpt lat="44.3074" lon="7.22288">
        <ele>802.6</ele>
        <time>2022-07-19T03:32:37Z</time>
      </trkpt>
      <trkpt lat="44.30739" lon="7.22282">
        <ele>803</ele>
        <time>2022-07-19T03:32:38Z</time>
      </trkpt>
      <trkpt lat="44.30738" lon="7.22275">
        <ele>803</ele>
        <time>2022-07-19T03:32:39Z</time>
      </trkpt>
      <trkpt lat="44.30738" lon="7.22269">
        <ele>803</ele>
        <time>2022-07-19T03:32:40Z</time>
      </trkpt>
      <trkpt lat="44.30737" lon="7.22263">
        <ele>803.2</ele>
        <time>2022-07-19T03:32:41Z</time>
      </trkpt>
      <trkpt lat="44.30736" lon="7.22256">
        <ele>803.2</ele>
        <time>2022-07-19T03:32:42Z</time>
      </trkpt>
      <trkpt lat="44.30736" lon="7.22249">
        <ele>803.2</ele>
        <time>2022-07-19T03:32:43Z</time>
      </trkpt>
      <trkpt lat="44.30735" lon="7.22243">
        <ele>803.2</ele>
        <time>2022-07-19T03:32:44Z</time>
      </trkpt>
      <trkpt lat="44.30734" lon="7.22236">
        <ele>803.4</ele>
        <time>2022-07-19T03:32:45Z</time>
      </trkpt>
      <trkpt lat="44.30733" lon="7.22229">
        <ele>803.4</ele>
        <time>2022-07-19T03:32:46Z</time>
      </trkpt>
      <trkpt lat="44.30733" lon="7.22222">
        <ele>803.4</ele>
        <time>2022-07-19T03:32:47Z</time>
      </trkpt>
      <trkpt lat="44.30732" lon="7.22215">
        <ele>803.4</ele>
        <time>2022-07-19T03:32:48Z</time>
      </trkpt>
      <trkpt lat="44.30731" lon="7.22208">
        <ele>803.4</ele>
        <time>2022-07-19T03:32:49Z</time>
      </trkpt>
      <trkpt lat="44.3073" lon="7.222">
        <ele>803.4</ele>
        <time>2022-07-19T03:32:50Z</time>
      </trkpt>
      <trkpt lat="44.30729" lon="7.22193">
        <ele>803.4</ele>
        <time>2022-07-19T03:32:51Z</time>
      </trkpt>
      <trkpt lat="44.30728" lon="7.22185">
        <ele>803.4</ele>
        <time>2022-07-19T03:32:52Z</time>
      </trkpt>
      <trkpt lat="44.30727" lon="7.22177">
        <ele>803.2</ele>
        <time>2022-07-19T03:32:53Z</time>
      </trkpt>
      <trkpt lat="44.30726" lon="7.22169">
        <ele>803.2</ele>
        <time>2022-07-19T03:32:54Z</time>
      </trkpt>
      <trkpt lat="44.30725" lon="7.2216">
        <ele>802.8</ele>
        <time>2022-07-19T03:32:55Z</time>
      </trkpt>
      <trkpt lat="44.30724" lon="7.22152">
        <ele>802.8</ele>
        <time>2022-07-19T03:32:56Z</time>
      </trkpt>
      <trkpt lat="44.30723" lon="7.22143">
        <ele>802.6</ele>
        <time>2022-07-19T03:32:57Z</time>
      </trkpt>
      <trkpt lat="44.30722" lon="7.22135">
        <ele>802.6</ele>
        <time>2022-07-19T03:32:58Z</time>
      </trkpt>
      <trkpt lat="44.3072" lon="7.22126">
        <ele>802.4</ele>
        <time>2022-07-19T03:32:59Z</time>
      </trkpt>
      <trkpt lat="44.30719" lon="7.22117">
        <ele>802.4</ele>
        <time>2022-07-19T03:33:00Z</time>
      </trkpt>
      <trkpt lat="44.30718" lon="7.22109">
        <ele>802.4</ele>
        <time>2022-07-19T03:33:01Z</time>
      </trkpt>
      <trkpt lat="44.30718" lon="7.221">
        <ele>802.4</ele>
        <time>2022-07-19T03:33:02Z</time>
      </trkpt>
      <trkpt lat="44.30717" lon="7.22092">
        <ele>802.4</ele>
        <time>2022-07-19T03:33:03Z</time>
      </trkpt>
      <trkpt lat="44.30717" lon="7.22083">
        <ele>802.2</ele>
        <time>2022-07-19T03:33:04Z</time>
      </trkpt>
      <trkpt lat="44.30716" lon="7.22075">
        <ele>802.2</ele>
        <time>2022-07-19T03:33:05Z</time>
      </trkpt>
      <trkpt lat="44.30716" lon="7.22067">
        <ele>802.2</ele>
        <time>2022-07-19T03:33:06Z</time>
      </trkpt>
      <trkpt lat="44.30716" lon="7.22058">
        <ele>802.2</ele>
        <time>2022-07-19T03:33:07Z</time>
      </trkpt>
      <trkpt lat="44.30716" lon="7.2205">
        <ele>802.2</ele>
        <time>2022-07-19T03:33:08Z</time>
      </trkpt>
      <trkpt lat="44.30716" lon="7.22042">
        <ele>802.2</ele>
        <time>2022-07-19T03:33:09Z</time>
      </trkpt>
      <trkpt lat="44.30716" lon="7.22034">
        <ele>802.2</ele>
        <time>2022-07-19T03:33:10Z</time>
      </trkpt>
      <trkpt lat="44.30716" lon="7.22025">
        <ele>802.2</ele>
        <time>2022-07-19T03:33:11Z</time>
      </trkpt>
      <trkpt lat="44.30716" lon="7.22017">
        <ele>802</ele>
        <time>2022-07-19T03:33:12Z</time>
      </trkpt>
      <trkpt lat="44.30716" lon="7.22008">
        <ele>802</ele>
        <time>2022-07-19T03:33:13Z</time>
      </trkpt>
      <trkpt lat="44.30716" lon="7.22">
        <ele>802</ele>
        <time>2022-07-19T03:33:14Z</time>
      </trkpt>
      <trkpt lat="44.30716" lon="7.21991">
        <ele>801.8</ele>
        <time>2022-07-19T03:33:15Z</time>
      </trkpt>
      <trkpt lat="44.30716" lon="7.21982">
        <ele>801.8</ele>
        <time>2022-07-19T03:33:16Z</time>
      </trkpt>
      <trkpt lat="44.30716" lon="7.21973">
        <ele>801.8</ele>
        <time>2022-07-19T03:33:17Z</time>
      </trkpt>
      <trkpt lat="44.30716" lon="7.21964">
        <ele>801.8</ele>
        <time>2022-07-19T03:33:18Z</time>
      </trkpt>
      <trkpt lat="44.30716" lon="7.21956">
        <ele>801.4</ele>
        <time>2022-07-19T03:33:19Z</time>
      </trkpt>
      <trkpt lat="44.30716" lon="7.21947">
        <ele>801.4</ele>
        <time>2022-07-19T03:33:20Z</time>
      </trkpt>
      <trkpt lat="44.30716" lon="7.21938">
        <ele>801.2</ele>
        <time>2022-07-19T03:33:21Z</time>
      </trkpt>
      <trkpt lat="44.30716" lon="7.21929">
        <ele>801.2</ele>
        <time>2022-07-19T03:33:22Z</time>
      </trkpt>
      <trkpt lat="44.30716" lon="7.21921">
        <ele>801.2</ele>
        <time>2022-07-19T03:33:23Z</time>
      </trkpt>
      <trkpt lat="44.30716" lon="7.21912">
        <ele>801</ele>
        <time>2022-07-19T03:33:24Z</time>
      </trkpt>
      <trkpt lat="44.30716" lon="7.21903">
        <ele>801</ele>
        <time>2022-07-19T03:33:25Z</time>
      </trkpt>
      <trkpt lat="44.30716" lon="7.21894">
        <ele>801</ele>
        <time>2022-07-19T03:33:26Z</time>
      </trkpt>
      <trkpt lat="44.30716" lon="7.21886">
        <ele>801</ele>
        <time>2022-07-19T03:33:27Z</time>
      </trkpt>
      <trkpt lat="44.30716" lon="7.21877">
        <ele>801</ele>
        <time>2022-07-19T03:33:28Z</time>
      </trkpt>
      <trkpt lat="44.30716" lon="7.21868">
        <ele>801</ele>
        <time>2022-07-19T03:33:29Z</time>
      </trkpt>
      <trkpt lat="44.30715" lon="7.2186">
        <ele>800.8</ele>
        <time>2022-07-19T03:33:30Z</time>
      </trkpt>
      <trkpt lat="44.30715" lon="7.21851">
        <ele>800.8</ele>
        <time>2022-07-19T03:33:31Z</time>
      </trkpt>
      <trkpt lat="44.30715" lon="7.21843">
        <ele>800.8</ele>
        <time>2022-07-19T03:33:32Z</time>
      </trkpt>
      <trkpt lat="44.30715" lon="7.21835">
        <ele>800.8</ele>
        <time>2022-07-19T03:33:33Z</time>
      </trkpt>
      <trkpt lat="44.30715" lon="7.21826">
        <ele>800.8</ele>
        <time>2022-07-19T03:33:34Z</time>
      </trkpt>
      <trkpt lat="44.30715" lon="7.21818">
        <ele>800.8</ele>
        <time>2022-07-19T03:33:35Z</time>
      </trkpt>
      <trkpt lat="44.30715" lon="7.2181">
        <ele>801</ele>
        <time>2022-07-19T03:33:36Z</time>
      </trkpt>
      <trkpt lat="44.30715" lon="7.21802">
        <ele>801</ele>
        <time>2022-07-19T03:33:37Z</time>
      </trkpt>
      <trkpt lat="44.30715" lon="7.21794">
        <ele>801</ele>
        <time>2022-07-19T03:33:38Z</time>
      </trkpt>
      <trkpt lat="44.30715" lon="7.21786">
        <ele>801.2</ele>
        <time>2022-07-19T03:33:39Z</time>
      </trkpt>
      <trkpt lat="44.30715" lon="7.21779">
        <ele>801.2</ele>
        <time>2022-07-19T03:33:40Z</time>
      </trkpt>
      <trkpt lat="44.30715" lon="7.21771">
        <ele>801.2</ele>
        <time>2022-07-19T03:33:41Z</time>
      </trkpt>
      <trkpt lat="44.30715" lon="7.21763">
        <ele>801.2</ele>
        <time>2022-07-19T03:33:42Z</time>
      </trkpt>
      <trkpt lat="44.30715" lon="7.21756">
        <ele>801.6</ele>
        <time>2022-07-19T03:33:43Z</time>
      </trkpt>
      <trkpt lat="44.30715" lon="7.21748">
        <ele>801.6</ele>
        <time>2022-07-19T03:33:44Z</time>
      </trkpt>
      <trkpt lat="44.30715" lon="7.21741">
        <ele>801.6</ele>
        <time>2022-07-19T03:33:45Z</time>
      </trkpt>
      <trkpt lat="44.30715" lon="7.21734">
        <ele>801.8</ele>
        <time>2022-07-19T03:33:46Z</time>
      </trkpt>
      <trkpt lat="44.30715" lon="7.21727">
        <ele>801.8</ele>
        <time>2022-07-19T03:33:47Z</time>
      </trkpt>
      <trkpt lat="44.30715" lon="7.21719">
        <ele>802</ele>
        <time>2022-07-19T03:33:48Z</time>
      </trkpt>
      <trkpt lat="44.30715" lon="7.21712">
        <ele>802</ele>
        <time>2022-07-19T03:33:49Z</time>
      </trkpt>
      <trkpt lat="44.30715" lon="7.21704">
        <ele>802.2</ele>
        <time>2022-07-19T03:33:50Z</time>
      </trkpt>
      <trkpt lat="44.30715" lon="7.21697">
        <ele>802.2</ele>
        <time>2022-07-19T03:33:51Z</time>
      </trkpt>
      <trkpt lat="44.30715" lon="7.21689">
        <ele>802.6</ele>
        <time>2022-07-19T03:33:52Z</time>
      </trkpt>
      <trkpt lat="44.30715" lon="7.21682">
        <ele>802.6</ele>
        <time>2022-07-19T03:33:53Z</time>
      </trkpt>
      <trkpt lat="44.30715" lon="7.21674">
        <ele>802.6</ele>
        <time>2022-07-19T03:33:54Z</time>
      </trkpt>
      <trkpt lat="44.30715" lon="7.21666">
        <ele>802.6</ele>
        <time>2022-07-19T03:33:55Z</time>
      </trkpt>
      <trkpt lat="44.30715" lon="7.21658">
        <ele>802.6</ele>
        <time>2022-07-19T03:33:56Z</time>
      </trkpt>
      <trkpt lat="44.30715" lon="7.2165">
        <ele>802.8</ele>
        <time>2022-07-19T03:33:57Z</time>
      </trkpt>
      <trkpt lat="44.30715" lon="7.21643">
        <ele>802.8</ele>
        <time>2022-07-19T03:33:58Z</time>
      </trkpt>
      <trkpt lat="44.30715" lon="7.21635">
        <ele>802.8</ele>
        <time>2022-07-19T03:33:59Z</time>
      </trkpt>
      <trkpt lat="44.30715" lon="7.21627">
        <ele>802.8</ele>
        <time>2022-07-19T03:34:00Z</time>
      </trkpt>
      <trkpt lat="44.30715" lon="7.21619">
        <ele>803</ele>
        <time>2022-07-19T03:34:01Z</time>
      </trkpt>
      <trkpt lat="44.30715" lon="7.21611">
        <ele>803</ele>
        <time>2022-07-19T03:34:02Z</time>
      </trkpt>
      <trkpt lat="44.30715" lon="7.21603">
        <ele>803.4</ele>
        <time>2022-07-19T03:34:03Z</time>
      </trkpt>
      <trkpt lat="44.30715" lon="7.21595">
        <ele>803.4</ele>
        <time>2022-07-19T03:34:04Z</time>
      </trkpt>
      <trkpt lat="44.30715" lon="7.21587">
        <ele>803.4</ele>
        <time>2022-07-19T03:34:05Z</time>
      </trkpt>
      <trkpt lat="44.30715" lon="7.21579">
        <ele>803.4</ele>
        <time>2022-07-19T03:34:06Z</time>
      </trkpt>
      <trkpt lat="44.30715" lon="7.21571">
        <ele>803.6</ele>
        <time>2022-07-19T03:34:07Z</time>
      </trkpt>
      <trkpt lat="44.30715" lon="7.21563">
        <ele>803.6</ele>
        <time>2022-07-19T03:34:08Z</time>
      </trkpt>
      <trkpt lat="44.30715" lon="7.21556">
        <ele>803.6</ele>
        <time>2022-07-19T03:34:09Z</time>
      </trkpt>
      <trkpt lat="44.30715" lon="7.21548">
        <ele>803.8</ele>
        <time>2022-07-19T03:34:10Z</time>
      </trkpt>
      <trkpt lat="44.30715" lon="7.21533">
        <ele>803.8</ele>
        <time>2022-07-19T03:34:11Z</time>
      </trkpt>
      <trkpt lat="44.30714" lon="7.21526">
        <ele>804</ele>
        <time>2022-07-19T03:34:12Z</time>
      </trkpt>
      <trkpt lat="44.30714" lon="7.21518">
        <ele>804</ele>
        <time>2022-07-19T03:34:13Z</time>
      </trkpt>
      <trkpt lat="44.30714" lon="7.21511">
        <ele>804.4</ele>
        <time>2022-07-19T03:34:14Z</time>
      </trkpt>
      <trkpt lat="44.30713" lon="7.21504">
        <ele>804.4</ele>
        <time>2022-07-19T03:34:15Z</time>
      </trkpt>
      <trkpt lat="44.30713" lon="7.21496">
        <ele>804.6</ele>
        <time>2022-07-19T03:34:16Z</time>
      </trkpt>
      <trkpt lat="44.30712" lon="7.21488">
        <ele>804.6</ele>
        <time>2022-07-19T03:34:17Z</time>
      </trkpt>
      <trkpt lat="44.30712" lon="7.21481">
        <ele>804.8</ele>
        <time>2022-07-19T03:34:18Z</time>
      </trkpt>
      <trkpt lat="44.30712" lon="7.21473">
        <ele>804.8</ele>
        <time>2022-07-19T03:34:19Z</time>
      </trkpt>
      <trkpt lat="44.30711" lon="7.21466">
        <ele>805.2</ele>
        <time>2022-07-19T03:34:20Z</time>
      </trkpt>
      <trkpt lat="44.30711" lon="7.21459">
        <ele>805.4</ele>
        <time>2022-07-19T03:34:21Z</time>
      </trkpt>
      <trkpt lat="44.30711" lon="7.21452">
        <ele>805.4</ele>
        <time>2022-07-19T03:34:22Z</time>
      </trkpt>
      <trkpt lat="44.3071" lon="7.21446">
        <ele>805.8</ele>
        <time>2022-07-19T03:34:23Z</time>
      </trkpt>
      <trkpt lat="44.3071" lon="7.2144">
        <ele>805.8</ele>
        <time>2022-07-19T03:34:24Z</time>
      </trkpt>
      <trkpt lat="44.3071" lon="7.21434">
        <ele>806</ele>
        <time>2022-07-19T03:34:25Z</time>
      </trkpt>
      <trkpt lat="44.3071" lon="7.21428">
        <ele>806</ele>
        <time>2022-07-19T03:34:26Z</time>
      </trkpt>
      <trkpt lat="44.30709" lon="7.21422">
        <ele>806.4</ele>
        <time>2022-07-19T03:34:27Z</time>
      </trkpt>
      <trkpt lat="44.30709" lon="7.21416">
        <ele>806.6</ele>
        <time>2022-07-19T03:34:28Z</time>
      </trkpt>
      <trkpt lat="44.30709" lon="7.2141">
        <ele>807</ele>
        <time>2022-07-19T03:34:29Z</time>
      </trkpt>
      <trkpt lat="44.30708" lon="7.21405">
        <ele>807.2</ele>
        <time>2022-07-19T03:34:30Z</time>
      </trkpt>
      <trkpt lat="44.30708" lon="7.21399">
        <ele>807.4</ele>
        <time>2022-07-19T03:34:31Z</time>
      </trkpt>
      <trkpt lat="44.30708" lon="7.21394">
        <ele>807.8</ele>
        <time>2022-07-19T03:34:32Z</time>
      </trkpt>
      <trkpt lat="44.30708" lon="7.21389">
        <ele>807.8</ele>
        <time>2022-07-19T03:34:33Z</time>
      </trkpt>
      <trkpt lat="44.30707" lon="7.21383">
        <ele>808.2</ele>
        <time>2022-07-19T03:34:34Z</time>
      </trkpt>
      <trkpt lat="44.30707" lon="7.21378">
        <ele>808.4</ele>
        <time>2022-07-19T03:34:35Z</time>
      </trkpt>
      <trkpt lat="44.30706" lon="7.21373">
        <ele>808.6</ele>
        <time>2022-07-19T03:34:36Z</time>
      </trkpt>
      <trkpt lat="44.30706" lon="7.21367">
        <ele>809</ele>
        <time>2022-07-19T03:34:37Z</time>
      </trkpt>
      <trkpt lat="44.30706" lon="7.21362">
        <ele>809.2</ele>
        <time>2022-07-19T03:34:38Z</time>
      </trkpt>
      <trkpt lat="44.30705" lon="7.21357">
        <ele>809.4</ele>
        <time>2022-07-19T03:34:39Z</time>
      </trkpt>
      <trkpt lat="44.30705" lon="7.21352">
        <ele>809.6</ele>
        <time>2022-07-19T03:34:40Z</time>
      </trkpt>
      <trkpt lat="44.30704" lon="7.21346">
        <ele>810</ele>
        <time>2022-07-19T03:34:41Z</time>
      </trkpt>
      <trkpt lat="44.30704" lon="7.21341">
        <ele>810.2</ele>
        <time>2022-07-19T03:34:42Z</time>
      </trkpt>
      <trkpt lat="44.30704" lon="7.21336">
        <ele>810.4</ele>
        <time>2022-07-19T03:34:43Z</time>
      </trkpt>
      <trkpt lat="44.30704" lon="7.21332">
        <ele>810.8</ele>
        <time>2022-07-19T03:34:44Z</time>
      </trkpt>
      <trkpt lat="44.30703" lon="7.21327">
        <ele>811</ele>
        <time>2022-07-19T03:34:45Z</time>
      </trkpt>
      <trkpt lat="44.30703" lon="7.21322">
        <ele>811.2</ele>
        <time>2022-07-19T03:34:46Z</time>
      </trkpt>
      <trkpt lat="44.30703" lon="7.21318">
        <ele>811.4</ele>
        <time>2022-07-19T03:34:47Z</time>
      </trkpt>
      <trkpt lat="44.30703" lon="7.21313">
        <ele>811.4</ele>
        <time>2022-07-19T03:34:48Z</time>
      </trkpt>
      <trkpt lat="44.30703" lon="7.21308">
        <ele>811.8</ele>
        <time>2022-07-19T03:34:49Z</time>
      </trkpt>
      <trkpt lat="44.30703" lon="7.21304">
        <ele>811.8</ele>
        <time>2022-07-19T03:34:50Z</time>
      </trkpt>
      <trkpt lat="44.30702" lon="7.21299">
        <ele>812</ele>
        <time>2022-07-19T03:34:51Z</time>
      </trkpt>
      <trkpt lat="44.30702" lon="7.21295">
        <ele>812</ele>
        <time>2022-07-19T03:34:52Z</time>
      </trkpt>
      <trkpt lat="44.30702" lon="7.2129">
        <ele>812.4</ele>
        <time>2022-07-19T03:34:53Z</time>
      </trkpt>
      <trkpt lat="44.30702" lon="7.21286">
        <ele>812.6</ele>
        <time>2022-07-19T03:34:54Z</time>
      </trkpt>
      <trkpt lat="44.30702" lon="7.21281">
        <ele>812.8</ele>
        <time>2022-07-19T03:34:55Z</time>
      </trkpt>
      <trkpt lat="44.30701" lon="7.21276">
        <ele>812.8</ele>
        <time>2022-07-19T03:34:56Z</time>
      </trkpt>
      <trkpt lat="44.30701" lon="7.21272">
        <ele>813.2</ele>
        <time>2022-07-19T03:34:57Z</time>
      </trkpt>
      <trkpt lat="44.30701" lon="7.21268">
        <ele>813.4</ele>
        <time>2022-07-19T03:34:58Z</time>
      </trkpt>
      <trkpt lat="44.307" lon="7.21263">
        <ele>813.4</ele>
        <time>2022-07-19T03:34:59Z</time>
      </trkpt>
      <trkpt lat="44.307" lon="7.21258">
        <ele>813.8</ele>
        <time>2022-07-19T03:35:00Z</time>
      </trkpt>
      <trkpt lat="44.307" lon="7.21253">
        <ele>813.8</ele>
        <time>2022-07-19T03:35:01Z</time>
      </trkpt>
      <trkpt lat="44.307" lon="7.21249">
        <ele>814.4</ele>
        <time>2022-07-19T03:35:02Z</time>
      </trkpt>
      <trkpt lat="44.307" lon="7.21244">
        <ele>814.6</ele>
        <time>2022-07-19T03:35:03Z</time>
      </trkpt>
      <trkpt lat="44.307" lon="7.2124">
        <ele>814.8</ele>
        <time>2022-07-19T03:35:04Z</time>
      </trkpt>
      <trkpt lat="44.307" lon="7.21235">
        <ele>814.8</ele>
        <time>2022-07-19T03:35:05Z</time>
      </trkpt>
      <trkpt lat="44.307" lon="7.2123">
        <ele>815.2</ele>
        <time>2022-07-19T03:35:06Z</time>
      </trkpt>
      <trkpt lat="44.307" lon="7.21226">
        <ele>815.2</ele>
        <time>2022-07-19T03:35:07Z</time>
      </trkpt>
      <trkpt lat="44.30699" lon="7.21221">
        <ele>815.6</ele>
        <time>2022-07-19T03:35:08Z</time>
      </trkpt>
      <trkpt lat="44.30699" lon="7.21217">
        <ele>815.8</ele>
        <time>2022-07-19T03:35:09Z</time>
      </trkpt>
      <trkpt lat="44.30699" lon="7.21212">
        <ele>816.2</ele>
        <time>2022-07-19T03:35:10Z</time>
      </trkpt>
      <trkpt lat="44.30699" lon="7.21208">
        <ele>816.4</ele>
        <time>2022-07-19T03:35:11Z</time>
      </trkpt>
      <trkpt lat="44.30699" lon="7.21203">
        <ele>816.4</ele>
        <time>2022-07-19T03:35:12Z</time>
      </trkpt>
      <trkpt lat="44.30699" lon="7.21199">
        <ele>816.8</ele>
        <time>2022-07-19T03:35:13Z</time>
      </trkpt>
      <trkpt lat="44.30699" lon="7.21195">
        <ele>817</ele>
        <time>2022-07-19T03:35:14Z</time>
      </trkpt>
      <trkpt lat="44.30698" lon="7.21191">
        <ele>817.2</ele>
        <time>2022-07-19T03:35:15Z</time>
      </trkpt>
      <trkpt lat="44.30698" lon="7.21186">
        <ele>817.2</ele>
        <time>2022-07-19T03:35:16Z</time>
      </trkpt>
      <trkpt lat="44.30698" lon="7.21182">
        <ele>817.6</ele>
        <time>2022-07-19T03:35:17Z</time>
      </trkpt>
      <trkpt lat="44.30698" lon="7.21178">
        <ele>817.6</ele>
        <time>2022-07-19T03:35:18Z</time>
      </trkpt>
      <trkpt lat="44.30698" lon="7.21173">
        <ele>817.8</ele>
        <time>2022-07-19T03:35:19Z</time>
      </trkpt>
      <trkpt lat="44.30697" lon="7.21169">
        <ele>818</ele>
        <time>2022-07-19T03:35:20Z</time>
      </trkpt>
      <trkpt lat="44.30698" lon="7.21165">
        <ele>818.2</ele>
        <time>2022-07-19T03:35:21Z</time>
      </trkpt>
      <trkpt lat="44.30698" lon="7.2116">
        <ele>818.6</ele>
        <time>2022-07-19T03:35:22Z</time>
      </trkpt>
      <trkpt lat="44.30698" lon="7.21156">
        <ele>819</ele>
        <time>2022-07-19T03:35:23Z</time>
      </trkpt>
      <trkpt lat="44.30698" lon="7.21152">
        <ele>819.2</ele>
        <time>2022-07-19T03:35:24Z</time>
      </trkpt>
      <trkpt lat="44.30698" lon="7.21148">
        <ele>819.4</ele>
        <time>2022-07-19T03:35:25Z</time>
      </trkpt>
      <trkpt lat="44.30697" lon="7.21143">
        <ele>819.6</ele>
        <time>2022-07-19T03:35:26Z</time>
      </trkpt>
      <trkpt lat="44.30697" lon="7.21139">
        <ele>820</ele>
        <time>2022-07-19T03:35:27Z</time>
      </trkpt>
      <trkpt lat="44.30697" lon="7.21135">
        <ele>820</ele>
        <time>2022-07-19T03:35:28Z</time>
      </trkpt>
      <trkpt lat="44.30696" lon="7.21131">
        <ele>820.2</ele>
        <time>2022-07-19T03:35:29Z</time>
      </trkpt>
      <trkpt lat="44.30696" lon="7.21127">
        <ele>820.2</ele>
        <time>2022-07-19T03:35:30Z</time>
      </trkpt>
      <trkpt lat="44.30697" lon="7.21123">
        <ele>820.6</ele>
        <time>2022-07-19T03:35:31Z</time>
      </trkpt>
      <trkpt lat="44.30697" lon="7.21119">
        <ele>820.6</ele>
        <time>2022-07-19T03:35:32Z</time>
      </trkpt>
      <trkpt lat="44.30697" lon="7.21115">
        <ele>821</ele>
        <time>2022-07-19T03:35:33Z</time>
      </trkpt>
      <trkpt lat="44.30697" lon="7.21112">
        <ele>821</ele>
        <time>2022-07-19T03:35:34Z</time>
      </trkpt>
      <trkpt lat="44.30697" lon="7.21108">
        <ele>821</ele>
        <time>2022-07-19T03:35:35Z</time>
      </trkpt>
      <trkpt lat="44.30698" lon="7.21103">
        <ele>821.4</ele>
        <time>2022-07-19T03:35:36Z</time>
      </trkpt>
      <trkpt lat="44.30698" lon="7.21099">
        <ele>821.4</ele>
        <time>2022-07-19T03:35:37Z</time>
      </trkpt>
      <trkpt lat="44.30698" lon="7.21095">
        <ele>821.8</ele>
        <time>2022-07-19T03:35:38Z</time>
      </trkpt>
      <trkpt lat="44.30698" lon="7.21091">
        <ele>822</ele>
        <time>2022-07-19T03:35:39Z</time>
      </trkpt>
      <trkpt lat="44.30698" lon="7.21087">
        <ele>822</ele>
        <time>2022-07-19T03:35:40Z</time>
      </trkpt>
      <trkpt lat="44.30697" lon="7.21083">
        <ele>822.4</ele>
        <time>2022-07-19T03:35:41Z</time>
      </trkpt>
      <trkpt lat="44.30697" lon="7.2108">
        <ele>822.4</ele>
        <time>2022-07-19T03:35:42Z</time>
      </trkpt>
      <trkpt lat="44.30697" lon="7.21076">
        <ele>822.8</ele>
        <time>2022-07-19T03:35:43Z</time>
      </trkpt>
      <trkpt lat="44.30697" lon="7.21072">
        <ele>823</ele>
        <time>2022-07-19T03:35:44Z</time>
      </trkpt>
      <trkpt lat="44.30697" lon="7.21069">
        <ele>823</ele>
        <time>2022-07-19T03:35:45Z</time>
      </trkpt>
      <trkpt lat="44.30698" lon="7.21065">
        <ele>823.2</ele>
        <time>2022-07-19T03:35:46Z</time>
      </trkpt>
      <trkpt lat="44.30698" lon="7.21061">
        <ele>823.6</ele>
        <time>2022-07-19T03:35:47Z</time>
      </trkpt>
      <trkpt lat="44.30698" lon="7.21057">
        <ele>823.6</ele>
        <time>2022-07-19T03:35:48Z</time>
      </trkpt>
      <trkpt lat="44.30697" lon="7.21054">
        <ele>824</ele>
        <time>2022-07-19T03:35:49Z</time>
      </trkpt>
      <trkpt lat="44.30697" lon="7.2105">
        <ele>824</ele>
        <time>2022-07-19T03:35:50Z</time>
      </trkpt>
      <trkpt lat="44.30697" lon="7.21046">
        <ele>824.4</ele>
        <time>2022-07-19T03:35:51Z</time>
      </trkpt>
      <trkpt lat="44.30697" lon="7.21043">
        <ele>824.6</ele>
        <time>2022-07-19T03:35:52Z</time>
      </trkpt>
      <trkpt lat="44.30697" lon="7.21039">
        <ele>824.8</ele>
        <time>2022-07-19T03:35:53Z</time>
      </trkpt>
      <trkpt lat="44.30698" lon="7.21035">
        <ele>824.8</ele>
        <time>2022-07-19T03:35:54Z</time>
      </trkpt>
      <trkpt lat="44.30698" lon="7.21032">
        <ele>825</ele>
        <time>2022-07-19T03:35:55Z</time>
      </trkpt>
      <trkpt lat="44.30697" lon="7.21028">
        <ele>825</ele>
        <time>2022-07-19T03:35:56Z</time>
      </trkpt>
      <trkpt lat="44.30697" lon="7.21024">
        <ele>825.6</ele>
        <time>2022-07-19T03:35:57Z</time>
      </trkpt>
      <trkpt lat="44.30697" lon="7.21021">
        <ele>825.8</ele>
        <time>2022-07-19T03:35:58Z</time>
      </trkpt>
      <trkpt lat="44.30697" lon="7.21017">
        <ele>826</ele>
        <time>2022-07-19T03:35:59Z</time>
      </trkpt>
      <trkpt lat="44.30697" lon="7.21013">
        <ele>826</ele>
        <time>2022-07-19T03:36:00Z</time>
      </trkpt>
      <trkpt lat="44.30697" lon="7.21009">
        <ele>826.4</ele>
        <time>2022-07-19T03:36:01Z</time>
      </trkpt>
      <trkpt lat="44.30697" lon="7.21005">
        <ele>826.6</ele>
        <time>2022-07-19T03:36:02Z</time>
      </trkpt>
      <trkpt lat="44.30697" lon="7.21002">
        <ele>826.8</ele>
        <time>2022-07-19T03:36:03Z</time>
      </trkpt>
      <trkpt lat="44.30697" lon="7.20998">
        <ele>826.8</ele>
        <time>2022-07-19T03:36:04Z</time>
      </trkpt>
      <trkpt lat="44.30697" lon="7.20995">
        <ele>827.2</ele>
        <time>2022-07-19T03:36:05Z</time>
      </trkpt>
      <trkpt lat="44.30697" lon="7.20991">
        <ele>827.4</ele>
        <time>2022-07-19T03:36:06Z</time>
      </trkpt>
      <trkpt lat="44.30696" lon="7.20987">
        <ele>827.4</ele>
        <time>2022-07-19T03:36:07Z</time>
      </trkpt>
      <trkpt lat="44.30696" lon="7.20983">
        <ele>827.6</ele>
        <time>2022-07-19T03:36:08Z</time>
      </trkpt>
      <trkpt lat="44.30696" lon="7.20978">
        <ele>827.6</ele>
        <time>2022-07-19T03:36:09Z</time>
      </trkpt>
      <trkpt lat="44.30696" lon="7.20974">
        <ele>827.8</ele>
        <time>2022-07-19T03:36:10Z</time>
      </trkpt>
      <trkpt lat="44.30696" lon="7.20969">
        <ele>827.8</ele>
        <time>2022-07-19T03:36:11Z</time>
      </trkpt>
      <trkpt lat="44.30696" lon="7.20963">
        <ele>828</ele>
        <time>2022-07-19T03:36:12Z</time>
      </trkpt>
      <trkpt lat="44.30696" lon="7.20958">
        <ele>828</ele>
        <time>2022-07-19T03:36:13Z</time>
      </trkpt>
      <trkpt lat="44.30696" lon="7.20952">
        <ele>828</ele>
        <time>2022-07-19T03:36:14Z</time>
      </trkpt>
      <trkpt lat="44.30696" lon="7.20947">
        <ele>828</ele>
        <time>2022-07-19T03:36:15Z</time>
      </trkpt>
      <trkpt lat="44.30695" lon="7.20941">
        <ele>828</ele>
        <time>2022-07-19T03:36:16Z</time>
      </trkpt>
      <trkpt lat="44.30695" lon="7.20935">
        <ele>828</ele>
        <time>2022-07-19T03:36:17Z</time>
      </trkpt>
      <trkpt lat="44.30695" lon="7.20928">
        <ele>828</ele>
        <time>2022-07-19T03:36:18Z</time>
      </trkpt>
      <trkpt lat="44.30694" lon="7.20922">
        <ele>828</ele>
        <time>2022-07-19T03:36:19Z</time>
      </trkpt>
      <trkpt lat="44.30694" lon="7.20915">
        <ele>828</ele>
        <time>2022-07-19T03:36:20Z</time>
      </trkpt>
      <trkpt lat="44.30694" lon="7.20908">
        <ele>828</ele>
        <time>2022-07-19T03:36:21Z</time>
      </trkpt>
      <trkpt lat="44.30693" lon="7.20901">
        <ele>828</ele>
        <time>2022-07-19T03:36:22Z</time>
      </trkpt>
      <trkpt lat="44.30693" lon="7.20894">
        <ele>828</ele>
        <time>2022-07-19T03:36:23Z</time>
      </trkpt>
      <trkpt lat="44.30693" lon="7.20887">
        <ele>828</ele>
        <time>2022-07-19T03:36:24Z</time>
      </trkpt>
      <trkpt lat="44.30692" lon="7.2088">
        <ele>828</ele>
        <time>2022-07-19T03:36:25Z</time>
      </trkpt>
      <trkpt lat="44.30692" lon="7.20873">
        <ele>828</ele>
        <time>2022-07-19T03:36:26Z</time>
      </trkpt>
      <trkpt lat="44.30691" lon="7.20866">
        <ele>828</ele>
        <time>2022-07-19T03:36:27Z</time>
      </trkpt>
      <trkpt lat="44.30691" lon="7.20859">
        <ele>828</ele>
        <time>2022-07-19T03:36:28Z</time>
      </trkpt>
      <trkpt lat="44.3069" lon="7.20853">
        <ele>828</ele>
        <time>2022-07-19T03:36:29Z</time>
      </trkpt>
      <trkpt lat="44.3069" lon="7.20846">
        <ele>827.8</ele>
        <time>2022-07-19T03:36:30Z</time>
      </trkpt>
      <trkpt lat="44.30689" lon="7.20839">
        <ele>827.8</ele>
        <time>2022-07-19T03:36:31Z</time>
      </trkpt>
      <trkpt lat="44.30688" lon="7.20832">
        <ele>827.8</ele>
        <time>2022-07-19T03:36:32Z</time>
      </trkpt>
      <trkpt lat="44.30687" lon="7.20825">
        <ele>827.6</ele>
        <time>2022-07-19T03:36:33Z</time>
      </trkpt>
      <trkpt lat="44.30685" lon="7.20818">
        <ele>827.6</ele>
        <time>2022-07-19T03:36:34Z</time>
      </trkpt>
      <trkpt lat="44.30684" lon="7.2081">
        <ele>827.2</ele>
        <time>2022-07-19T03:36:35Z</time>
      </trkpt>
      <trkpt lat="44.30683" lon="7.20802">
        <ele>827.2</ele>
        <time>2022-07-19T03:36:36Z</time>
      </trkpt>
      <trkpt lat="44.30682" lon="7.20794">
        <ele>827</ele>
        <time>2022-07-19T03:36:37Z</time>
      </trkpt>
      <trkpt lat="44.30681" lon="7.20786">
        <ele>827</ele>
        <time>2022-07-19T03:36:38Z</time>
      </trkpt>
      <trkpt lat="44.3068" lon="7.20777">
        <ele>826.6</ele>
        <time>2022-07-19T03:36:39Z</time>
      </trkpt>
      <trkpt lat="44.30678" lon="7.20769">
        <ele>826.6</ele>
        <time>2022-07-19T03:36:40Z</time>
      </trkpt>
      <trkpt lat="44.30677" lon="7.2076">
        <ele>826.2</ele>
        <time>2022-07-19T03:36:41Z</time>
      </trkpt>
      <trkpt lat="44.30675" lon="7.20751">
        <ele>826</ele>
        <time>2022-07-19T03:36:42Z</time>
      </trkpt>
      <trkpt lat="44.30674" lon="7.20741">
        <ele>825.8</ele>
        <time>2022-07-19T03:36:43Z</time>
      </trkpt>
      <trkpt lat="44.30672" lon="7.20732">
        <ele>825.8</ele>
        <time>2022-07-19T03:36:44Z</time>
      </trkpt>
      <trkpt lat="44.30671" lon="7.20722">
        <ele>825.4</ele>
        <time>2022-07-19T03:36:45Z</time>
      </trkpt>
      <trkpt lat="44.30669" lon="7.20712">
        <ele>825</ele>
        <time>2022-07-19T03:36:46Z</time>
      </trkpt>
      <trkpt lat="44.30667" lon="7.20701">
        <ele>824.8</ele>
        <time>2022-07-19T03:36:47Z</time>
      </trkpt>
      <trkpt lat="44.30666" lon="7.20691">
        <ele>824.4</ele>
        <time>2022-07-19T03:36:48Z</time>
      </trkpt>
      <trkpt lat="44.30664" lon="7.2068">
        <ele>824</ele>
        <time>2022-07-19T03:36:49Z</time>
      </trkpt>
      <trkpt lat="44.30662" lon="7.20669">
        <ele>823.8</ele>
        <time>2022-07-19T03:36:50Z</time>
      </trkpt>
      <trkpt lat="44.3066" lon="7.20658">
        <ele>823.4</ele>
        <time>2022-07-19T03:36:51Z</time>
      </trkpt>
      <trkpt lat="44.30658" lon="7.20647">
        <ele>823</ele>
        <time>2022-07-19T03:36:52Z</time>
      </trkpt>
      <trkpt lat="44.30654" lon="7.20637">
        <ele>822.6</ele>
        <time>2022-07-19T03:36:53Z</time>
      </trkpt>
      <trkpt lat="44.3065" lon="7.20627">
        <ele>822.2</ele>
        <time>2022-07-19T03:36:54Z</time>
      </trkpt>
      <trkpt lat="44.30645" lon="7.20617">
        <ele>822</ele>
        <time>2022-07-19T03:36:55Z</time>
      </trkpt>
      <trkpt lat="44.30639" lon="7.20608">
        <ele>821.6</ele>
        <time>2022-07-19T03:36:56Z</time>
      </trkpt>
      <trkpt lat="44.30633" lon="7.20599">
        <ele>821.2</ele>
        <time>2022-07-19T03:36:57Z</time>
      </trkpt>
      <trkpt lat="44.30627" lon="7.20589">
        <ele>820.8</ele>
        <time>2022-07-19T03:36:58Z</time>
      </trkpt>
      <trkpt lat="44.3062" lon="7.2058">
        <ele>820.4</ele>
        <time>2022-07-19T03:36:59Z</time>
      </trkpt>
      <trkpt lat="44.30612" lon="7.2057">
        <ele>819.8</ele>
        <time>2022-07-19T03:37:00Z</time>
      </trkpt>
      <trkpt lat="44.30604" lon="7.2056">
        <ele>819.4</ele>
        <time>2022-07-19T03:37:01Z</time>
      </trkpt>
      <trkpt lat="44.30596" lon="7.2055">
        <ele>818.8</ele>
        <time>2022-07-19T03:37:02Z</time>
      </trkpt>
      <trkpt lat="44.30589" lon="7.2054">
        <ele>818.4</ele>
        <time>2022-07-19T03:37:03Z</time>
      </trkpt>
      <trkpt lat="44.30584" lon="7.20531">
        <ele>818</ele>
        <time>2022-07-19T03:37:04Z</time>
      </trkpt>
      <trkpt lat="44.30578" lon="7.20522">
        <ele>817.8</ele>
        <time>2022-07-19T03:37:05Z</time>
      </trkpt>
      <trkpt lat="44.30574" lon="7.20513">
        <ele>817.4</ele>
        <time>2022-07-19T03:37:06Z</time>
      </trkpt>
      <trkpt lat="44.3057" lon="7.20504">
        <ele>817.2</ele>
        <time>2022-07-19T03:37:07Z</time>
      </trkpt>
      <trkpt lat="44.30566" lon="7.20495">
        <ele>817</ele>
        <time>2022-07-19T03:37:08Z</time>
      </trkpt>
      <trkpt lat="44.30562" lon="7.20486">
        <ele>817</ele>
        <time>2022-07-19T03:37:09Z</time>
      </trkpt>
      <trkpt lat="44.30558" lon="7.20478">
        <ele>817</ele>
        <time>2022-07-19T03:37:10Z</time>
      </trkpt>
      <trkpt lat="44.30555" lon="7.2047">
        <ele>817</ele>
        <time>2022-07-19T03:37:11Z</time>
      </trkpt>
      <trkpt lat="44.30552" lon="7.20462">
        <ele>817</ele>
        <time>2022-07-19T03:37:12Z</time>
      </trkpt>
      <trkpt lat="44.3055" lon="7.20454">
        <ele>817</ele>
        <time>2022-07-19T03:37:13Z</time>
      </trkpt>
      <trkpt lat="44.30549" lon="7.20445">
        <ele>817</ele>
        <time>2022-07-19T03:37:14Z</time>
      </trkpt>
      <trkpt lat="44.30548" lon="7.20437">
        <ele>817</ele>
        <time>2022-07-19T03:37:15Z</time>
      </trkpt>
      <trkpt lat="44.30548" lon="7.20428">
        <ele>817</ele>
        <time>2022-07-19T03:37:16Z</time>
      </trkpt>
      <trkpt lat="44.30548" lon="7.20418">
        <ele>817</ele>
        <time>2022-07-19T03:37:17Z</time>
      </trkpt>
      <trkpt lat="44.30548" lon="7.20409">
        <ele>817</ele>
        <time>2022-07-19T03:37:18Z</time>
      </trkpt>
      <trkpt lat="44.30547" lon="7.204">
        <ele>817</ele>
        <time>2022-07-19T03:37:19Z</time>
      </trkpt>
      <trkpt lat="44.30546" lon="7.20391">
        <ele>817</ele>
        <time>2022-07-19T03:37:20Z</time>
      </trkpt>
      <trkpt lat="44.30545" lon="7.20382">
        <ele>817</ele>
        <time>2022-07-19T03:37:21Z</time>
      </trkpt>
      <trkpt lat="44.30544" lon="7.20373">
        <ele>817</ele>
        <time>2022-07-19T03:37:22Z</time>
      </trkpt>
      <trkpt lat="44.30543" lon="7.20364">
        <ele>817</ele>
        <time>2022-07-19T03:37:23Z</time>
      </trkpt>
      <trkpt lat="44.30541" lon="7.20355">
        <ele>817</ele>
        <time>2022-07-19T03:37:24Z</time>
      </trkpt>
      <trkpt lat="44.30539" lon="7.20347">
        <ele>817</ele>
        <time>2022-07-19T03:37:25Z</time>
      </trkpt>
      <trkpt lat="44.30537" lon="7.20338">
        <ele>817</ele>
        <time>2022-07-19T03:37:26Z</time>
      </trkpt>
      <trkpt lat="44.30535" lon="7.20329">
        <ele>817</ele>
        <time>2022-07-19T03:37:27Z</time>
      </trkpt>
      <trkpt lat="44.30534" lon="7.20321">
        <ele>817</ele>
        <time>2022-07-19T03:37:28Z</time>
      </trkpt>
      <trkpt lat="44.30532" lon="7.20312">
        <ele>817</ele>
        <time>2022-07-19T03:37:29Z</time>
      </trkpt>
      <trkpt lat="44.3053" lon="7.20304">
        <ele>817.2</ele>
        <time>2022-07-19T03:37:30Z</time>
      </trkpt>
      <trkpt lat="44.30529" lon="7.20295">
        <ele>817.2</ele>
        <time>2022-07-19T03:37:31Z</time>
      </trkpt>
      <trkpt lat="44.30527" lon="7.20287">
        <ele>817.2</ele>
        <time>2022-07-19T03:37:32Z</time>
      </trkpt>
      <trkpt lat="44.30526" lon="7.20279">
        <ele>817.2</ele>
        <time>2022-07-19T03:37:33Z</time>
      </trkpt>
      <trkpt lat="44.30524" lon="7.2027">
        <ele>817.2</ele>
        <time>2022-07-19T03:37:34Z</time>
      </trkpt>
      <trkpt lat="44.30523" lon="7.20262">
        <ele>817.2</ele>
        <time>2022-07-19T03:37:35Z</time>
      </trkpt>
      <trkpt lat="44.30522" lon="7.20254">
        <ele>817.2</ele>
        <time>2022-07-19T03:37:36Z</time>
      </trkpt>
      <trkpt lat="44.30521" lon="7.20245">
        <ele>817.2</ele>
        <time>2022-07-19T03:37:37Z</time>
      </trkpt>
      <trkpt lat="44.30522" lon="7.20237">
        <ele>817.4</ele>
        <time>2022-07-19T03:37:38Z</time>
      </trkpt>
      <trkpt lat="44.30522" lon="7.20229">
        <ele>817.4</ele>
        <time>2022-07-19T03:37:39Z</time>
      </trkpt>
      <trkpt lat="44.30523" lon="7.20221">
        <ele>817.8</ele>
        <time>2022-07-19T03:37:40Z</time>
      </trkpt>
      <trkpt lat="44.30524" lon="7.20213">
        <ele>817.8</ele>
        <time>2022-07-19T03:37:41Z</time>
      </trkpt>
      <trkpt lat="44.30526" lon="7.20205">
        <ele>818</ele>
        <time>2022-07-19T03:37:43Z</time>
      </trkpt>
      <trkpt lat="44.30527" lon="7.20198">
        <ele>818</ele>
        <time>2022-07-19T03:37:44Z</time>
      </trkpt>
      <trkpt lat="44.30528" lon="7.2019">
        <ele>818.4</ele>
        <time>2022-07-19T03:37:45Z</time>
      </trkpt>
      <trkpt lat="44.30529" lon="7.20183">
        <ele>818.4</ele>
        <time>2022-07-19T03:37:46Z</time>
      </trkpt>
      <trkpt lat="44.30531" lon="7.20176">
        <ele>818.6</ele>
        <time>2022-07-19T03:37:47Z</time>
      </trkpt>
      <trkpt lat="44.30532" lon="7.20168">
        <ele>818.6</ele>
        <time>2022-07-19T03:37:48Z</time>
      </trkpt>
      <trkpt lat="44.30533" lon="7.20161">
        <ele>818.8</ele>
        <time>2022-07-19T03:37:49Z</time>
      </trkpt>
      <trkpt lat="44.30534" lon="7.20154">
        <ele>818.8</ele>
        <time>2022-07-19T03:37:50Z</time>
      </trkpt>
      <trkpt lat="44.30535" lon="7.20147">
        <ele>819</ele>
        <time>2022-07-19T03:37:51Z</time>
      </trkpt>
      <trkpt lat="44.30535" lon="7.20139">
        <ele>819</ele>
        <time>2022-07-19T03:37:52Z</time>
      </trkpt>
      <trkpt lat="44.30534" lon="7.20132">
        <ele>819</ele>
        <time>2022-07-19T03:37:53Z</time>
      </trkpt>
      <trkpt lat="44.30533" lon="7.20125">
        <ele>819.4</ele>
        <time>2022-07-19T03:37:54Z</time>
      </trkpt>
      <trkpt lat="44.30532" lon="7.20117">
        <ele>819.4</ele>
        <time>2022-07-19T03:37:55Z</time>
      </trkpt>
      <trkpt lat="44.30531" lon="7.2011">
        <ele>819.6</ele>
        <time>2022-07-19T03:37:56Z</time>
      </trkpt>
      <trkpt lat="44.3053" lon="7.20102">
        <ele>819.6</ele>
        <time>2022-07-19T03:37:57Z</time>
      </trkpt>
      <trkpt lat="44.30529" lon="7.20094">
        <ele>819.8</ele>
        <time>2022-07-19T03:37:58Z</time>
      </trkpt>
      <trkpt lat="44.30528" lon="7.20087">
        <ele>819.8</ele>
        <time>2022-07-19T03:37:59Z</time>
      </trkpt>
      <trkpt lat="44.30527" lon="7.20079">
        <ele>819.8</ele>
        <time>2022-07-19T03:38:00Z</time>
      </trkpt>
      <trkpt lat="44.30525" lon="7.20072">
        <ele>820</ele>
        <time>2022-07-19T03:38:01Z</time>
      </trkpt>
      <trkpt lat="44.30524" lon="7.20064">
        <ele>820</ele>
        <time>2022-07-19T03:38:02Z</time>
      </trkpt>
      <trkpt lat="44.30523" lon="7.20057">
        <ele>820</ele>
        <time>2022-07-19T03:38:03Z</time>
      </trkpt>
      <trkpt lat="44.30522" lon="7.20049">
        <ele>820.4</ele>
        <time>2022-07-19T03:38:04Z</time>
      </trkpt>
      <trkpt lat="44.30522" lon="7.20042">
        <ele>820.4</ele>
        <time>2022-07-19T03:38:05Z</time>
      </trkpt>
      <trkpt lat="44.30522" lon="7.20034">
        <ele>820.4</ele>
        <time>2022-07-19T03:38:06Z</time>
      </trkpt>
      <trkpt lat="44.30522" lon="7.20027">
        <ele>820.6</ele>
        <time>2022-07-19T03:38:07Z</time>
      </trkpt>
      <trkpt lat="44.30522" lon="7.20019">
        <ele>820.6</ele>
        <time>2022-07-19T03:38:08Z</time>
      </trkpt>
      <trkpt lat="44.30522" lon="7.20011">
        <ele>820.8</ele>
        <time>2022-07-19T03:38:09Z</time>
      </trkpt>
      <trkpt lat="44.30522" lon="7.20004">
        <ele>820.8</ele>
        <time>2022-07-19T03:38:10Z</time>
      </trkpt>
      <trkpt lat="44.30523" lon="7.19996">
        <ele>820.8</ele>
        <time>2022-07-19T03:38:11Z</time>
      </trkpt>
      <trkpt lat="44.30524" lon="7.19988">
        <ele>821.2</ele>
        <time>2022-07-19T03:38:12Z</time>
      </trkpt>
      <trkpt lat="44.30524" lon="7.1998">
        <ele>821.2</ele>
        <time>2022-07-19T03:38:13Z</time>
      </trkpt>
      <trkpt lat="44.30525" lon="7.19972">
        <ele>821.2</ele>
        <time>2022-07-19T03:38:14Z</time>
      </trkpt>
      <trkpt lat="44.30525" lon="7.19964">
        <ele>821.2</ele>
        <time>2022-07-19T03:38:15Z</time>
      </trkpt>
      <trkpt lat="44.30525" lon="7.19956">
        <ele>821.2</ele>
        <time>2022-07-19T03:38:16Z</time>
      </trkpt>
      <trkpt lat="44.30525" lon="7.19949">
        <ele>821.2</ele>
        <time>2022-07-19T03:38:17Z</time>
      </trkpt>
      <trkpt lat="44.30525" lon="7.19941">
        <ele>821.2</ele>
        <time>2022-07-19T03:38:18Z</time>
      </trkpt>
      <trkpt lat="44.30525" lon="7.19933">
        <ele>821.2</ele>
        <time>2022-07-19T03:38:19Z</time>
      </trkpt>
      <trkpt lat="44.30525" lon="7.19925">
        <ele>821.2</ele>
        <time>2022-07-19T03:38:20Z</time>
      </trkpt>
      <trkpt lat="44.30524" lon="7.19917">
        <ele>821.2</ele>
        <time>2022-07-19T03:38:21Z</time>
      </trkpt>
      <trkpt lat="44.30524" lon="7.19909">
        <ele>821.2</ele>
        <time>2022-07-19T03:38:22Z</time>
      </trkpt>
      <trkpt lat="44.30523" lon="7.19902">
        <ele>821.2</ele>
        <time>2022-07-19T03:38:23Z</time>
      </trkpt>
      <trkpt lat="44.30522" lon="7.19894">
        <ele>821.4</ele>
        <time>2022-07-19T03:38:24Z</time>
      </trkpt>
      <trkpt lat="44.30521" lon="7.19887">
        <ele>821.4</ele>
        <time>2022-07-19T03:38:25Z</time>
      </trkpt>
      <trkpt lat="44.30519" lon="7.1988">
        <ele>821.4</ele>
        <time>2022-07-19T03:38:26Z</time>
      </trkpt>
      <trkpt lat="44.30517" lon="7.19873">
        <ele>821.6</ele>
        <time>2022-07-19T03:38:27Z</time>
      </trkpt>
      <trkpt lat="44.30516" lon="7.19866">
        <ele>821.6</ele>
        <time>2022-07-19T03:38:28Z</time>
      </trkpt>
      <trkpt lat="44.30514" lon="7.19859">
        <ele>821.6</ele>
        <time>2022-07-19T03:38:29Z</time>
      </trkpt>
      <trkpt lat="44.30512" lon="7.19852">
        <ele>822</ele>
        <time>2022-07-19T03:38:30Z</time>
      </trkpt>
      <trkpt lat="44.3051" lon="7.19846">
        <ele>822</ele>
        <time>2022-07-19T03:38:31Z</time>
      </trkpt>
      <trkpt lat="44.30508" lon="7.19839">
        <ele>822.2</ele>
        <time>2022-07-19T03:38:32Z</time>
      </trkpt>
      <trkpt lat="44.30506" lon="7.19832">
        <ele>822.2</ele>
        <time>2022-07-19T03:38:33Z</time>
      </trkpt>
      <trkpt lat="44.30504" lon="7.19825">
        <ele>822.2</ele>
        <time>2022-07-19T03:38:34Z</time>
      </trkpt>
      <trkpt lat="44.30502" lon="7.19819">
        <ele>822.4</ele>
        <time>2022-07-19T03:38:35Z</time>
      </trkpt>
      <trkpt lat="44.30501" lon="7.19812">
        <ele>822.4</ele>
        <time>2022-07-19T03:38:36Z</time>
      </trkpt>
      <trkpt lat="44.30499" lon="7.19805">
        <ele>822.4</ele>
        <time>2022-07-19T03:38:37Z</time>
      </trkpt>
      <trkpt lat="44.30497" lon="7.19799">
        <ele>822.4</ele>
        <time>2022-07-19T03:38:38Z</time>
      </trkpt>
      <trkpt lat="44.30495" lon="7.19792">
        <ele>822.8</ele>
        <time>2022-07-19T03:38:39Z</time>
      </trkpt>
      <trkpt lat="44.30493" lon="7.19786">
        <ele>822.8</ele>
        <time>2022-07-19T03:38:40Z</time>
      </trkpt>
      <trkpt lat="44.30491" lon="7.19779">
        <ele>822.8</ele>
        <time>2022-07-19T03:38:41Z</time>
      </trkpt>
      <trkpt lat="44.30489" lon="7.19772">
        <ele>823.2</ele>
        <time>2022-07-19T03:38:42Z</time>
      </trkpt>
      <trkpt lat="44.30487" lon="7.19765">
        <ele>823.2</ele>
        <time>2022-07-19T03:38:43Z</time>
      </trkpt>
      <trkpt lat="44.30486" lon="7.19758">
        <ele>823.4</ele>
        <time>2022-07-19T03:38:44Z</time>
      </trkpt>
      <trkpt lat="44.30484" lon="7.19751">
        <ele>823.4</ele>
        <time>2022-07-19T03:38:45Z</time>
      </trkpt>
      <trkpt lat="44.30482" lon="7.19744">
        <ele>823.8</ele>
        <time>2022-07-19T03:38:46Z</time>
      </trkpt>
      <trkpt lat="44.30482" lon="7.19736">
        <ele>823.8</ele>
        <time>2022-07-19T03:38:47Z</time>
      </trkpt>
      <trkpt lat="44.30482" lon="7.19729">
        <ele>824</ele>
        <time>2022-07-19T03:38:48Z</time>
      </trkpt>
      <trkpt lat="44.30481" lon="7.19722">
        <ele>824</ele>
        <time>2022-07-19T03:38:49Z</time>
      </trkpt>
      <trkpt lat="44.30482" lon="7.19714">
        <ele>824</ele>
        <time>2022-07-19T03:38:50Z</time>
      </trkpt>
      <trkpt lat="44.30482" lon="7.19707">
        <ele>824.2</ele>
        <time>2022-07-19T03:38:51Z</time>
      </trkpt>
      <trkpt lat="44.30483" lon="7.197">
        <ele>824.2</ele>
        <time>2022-07-19T03:38:52Z</time>
      </trkpt>
      <trkpt lat="44.30483" lon="7.19692">
        <ele>824.2</ele>
        <time>2022-07-19T03:38:53Z</time>
      </trkpt>
      <trkpt lat="44.30484" lon="7.19685">
        <ele>824.2</ele>
        <time>2022-07-19T03:38:54Z</time>
      </trkpt>
      <trkpt lat="44.30484" lon="7.19677">
        <ele>824.2</ele>
        <time>2022-07-19T03:38:55Z</time>
      </trkpt>
      <trkpt lat="44.30485" lon="7.1967">
        <ele>824.2</ele>
        <time>2022-07-19T03:38:56Z</time>
      </trkpt>
      <trkpt lat="44.30485" lon="7.19662">
        <ele>824.4</ele>
        <time>2022-07-19T03:38:57Z</time>
      </trkpt>
      <trkpt lat="44.30486" lon="7.19655">
        <ele>824.4</ele>
        <time>2022-07-19T03:38:58Z</time>
      </trkpt>
      <trkpt lat="44.30486" lon="7.19647">
        <ele>824.4</ele>
        <time>2022-07-19T03:38:59Z</time>
      </trkpt>
      <trkpt lat="44.30487" lon="7.1964">
        <ele>824.8</ele>
        <time>2022-07-19T03:39:00Z</time>
      </trkpt>
      <trkpt lat="44.30487" lon="7.19632">
        <ele>824.8</ele>
        <time>2022-07-19T03:39:01Z</time>
      </trkpt>
      <trkpt lat="44.30488" lon="7.19625">
        <ele>825</ele>
        <time>2022-07-19T03:39:02Z</time>
      </trkpt>
      <trkpt lat="44.30488" lon="7.19618">
        <ele>825</ele>
        <time>2022-07-19T03:39:03Z</time>
      </trkpt>
      <trkpt lat="44.30488" lon="7.1961">
        <ele>825</ele>
        <time>2022-07-19T03:39:04Z</time>
      </trkpt>
      <trkpt lat="44.30489" lon="7.19603">
        <ele>825</ele>
        <time>2022-07-19T03:39:05Z</time>
      </trkpt>
      <trkpt lat="44.30491" lon="7.19596">
        <ele>825.2</ele>
        <time>2022-07-19T03:39:06Z</time>
      </trkpt>
      <trkpt lat="44.30492" lon="7.19589">
        <ele>825.2</ele>
        <time>2022-07-19T03:39:07Z</time>
      </trkpt>
      <trkpt lat="44.30494" lon="7.19581">
        <ele>825.4</ele>
        <time>2022-07-19T03:39:08Z</time>
      </trkpt>
      <trkpt lat="44.30496" lon="7.19574">
        <ele>825.4</ele>
        <time>2022-07-19T03:39:09Z</time>
      </trkpt>
      <trkpt lat="44.30498" lon="7.19567">
        <ele>825.6</ele>
        <time>2022-07-19T03:39:10Z</time>
      </trkpt>
      <trkpt lat="44.305" lon="7.1956">
        <ele>825.6</ele>
        <time>2022-07-19T03:39:11Z</time>
      </trkpt>
      <trkpt lat="44.30502" lon="7.19553">
        <ele>826</ele>
        <time>2022-07-19T03:39:12Z</time>
      </trkpt>
      <trkpt lat="44.30504" lon="7.19546">
        <ele>826</ele>
        <time>2022-07-19T03:39:13Z</time>
      </trkpt>
      <trkpt lat="44.30506" lon="7.1954">
        <ele>826.2</ele>
        <time>2022-07-19T03:39:14Z</time>
      </trkpt>
      <trkpt lat="44.30508" lon="7.19533">
        <ele>826.2</ele>
        <time>2022-07-19T03:39:15Z</time>
      </trkpt>
      <trkpt lat="44.3051" lon="7.19526">
        <ele>826.6</ele>
        <time>2022-07-19T03:39:16Z</time>
      </trkpt>
      <trkpt lat="44.30512" lon="7.19519">
        <ele>826.6</ele>
        <time>2022-07-19T03:39:17Z</time>
      </trkpt>
      <trkpt lat="44.30514" lon="7.19513">
        <ele>826.8</ele>
        <time>2022-07-19T03:39:18Z</time>
      </trkpt>
      <trkpt lat="44.30516" lon="7.19506">
        <ele>826.8</ele>
        <time>2022-07-19T03:39:19Z</time>
      </trkpt>
      <trkpt lat="44.30518" lon="7.195">
        <ele>827</ele>
        <time>2022-07-19T03:39:20Z</time>
      </trkpt>
      <trkpt lat="44.3052" lon="7.19494">
        <ele>827</ele>
        <time>2022-07-19T03:39:21Z</time>
      </trkpt>
      <trkpt lat="44.30522" lon="7.19487">
        <ele>827.4</ele>
        <time>2022-07-19T03:39:22Z</time>
      </trkpt>
      <trkpt lat="44.30524" lon="7.19481">
        <ele>827.4</ele>
        <time>2022-07-19T03:39:23Z</time>
      </trkpt>
      <trkpt lat="44.30526" lon="7.19475">
        <ele>827.6</ele>
        <time>2022-07-19T03:39:24Z</time>
      </trkpt>
      <trkpt lat="44.30528" lon="7.19469">
        <ele>827.6</ele>
        <time>2022-07-19T03:39:25Z</time>
      </trkpt>
      <trkpt lat="44.3053" lon="7.19464">
        <ele>828</ele>
        <time>2022-07-19T03:39:26Z</time>
      </trkpt>
      <trkpt lat="44.30532" lon="7.19458">
        <ele>828</ele>
        <time>2022-07-19T03:39:27Z</time>
      </trkpt>
      <trkpt lat="44.30534" lon="7.19452">
        <ele>828.2</ele>
        <time>2022-07-19T03:39:28Z</time>
      </trkpt>
      <trkpt lat="44.30536" lon="7.19446">
        <ele>828.2</ele>
        <time>2022-07-19T03:39:29Z</time>
      </trkpt>
      <trkpt lat="44.30538" lon="7.19439">
        <ele>828.2</ele>
        <time>2022-07-19T03:39:30Z</time>
      </trkpt>
      <trkpt lat="44.3054" lon="7.19433">
        <ele>828.4</ele>
        <time>2022-07-19T03:39:31Z</time>
      </trkpt>
      <trkpt lat="44.30543" lon="7.19426">
        <ele>828.4</ele>
        <time>2022-07-19T03:39:32Z</time>
      </trkpt>
      <trkpt lat="44.30545" lon="7.19419">
        <ele>828.4</ele>
        <time>2022-07-19T03:39:33Z</time>
      </trkpt>
      <trkpt lat="44.30547" lon="7.19412">
        <ele>828.4</ele>
        <time>2022-07-19T03:39:34Z</time>
      </trkpt>
      <trkpt lat="44.30549" lon="7.19405">
        <ele>828.4</ele>
        <time>2022-07-19T03:39:35Z</time>
      </trkpt>
      <trkpt lat="44.30551" lon="7.19397">
        <ele>828.4</ele>
        <time>2022-07-19T03:39:36Z</time>
      </trkpt>
      <trkpt lat="44.30553" lon="7.1939">
        <ele>828.6</ele>
        <time>2022-07-19T03:39:37Z</time>
      </trkpt>
      <trkpt lat="44.30556" lon="7.19383">
        <ele>828.6</ele>
        <time>2022-07-19T03:39:38Z</time>
      </trkpt>
      <trkpt lat="44.30558" lon="7.19375">
        <ele>828.6</ele>
        <time>2022-07-19T03:39:39Z</time>
      </trkpt>
      <trkpt lat="44.3056" lon="7.19368">
        <ele>828.6</ele>
        <time>2022-07-19T03:39:40Z</time>
      </trkpt>
      <trkpt lat="44.30562" lon="7.1936">
        <ele>828.6</ele>
        <time>2022-07-19T03:39:41Z</time>
      </trkpt>
      <trkpt lat="44.30564" lon="7.19353">
        <ele>828.6</ele>
        <time>2022-07-19T03:39:42Z</time>
      </trkpt>
      <trkpt lat="44.30566" lon="7.19346">
        <ele>828.6</ele>
        <time>2022-07-19T03:39:43Z</time>
      </trkpt>
      <trkpt lat="44.30569" lon="7.19338">
        <ele>828.6</ele>
        <time>2022-07-19T03:39:44Z</time>
      </trkpt>
      <trkpt lat="44.30571" lon="7.19331">
        <ele>828.6</ele>
        <time>2022-07-19T03:39:45Z</time>
      </trkpt>
      <trkpt lat="44.30573" lon="7.19324">
        <ele>828.6</ele>
        <time>2022-07-19T03:39:46Z</time>
      </trkpt>
      <trkpt lat="44.30575" lon="7.19317">
        <ele>828.8</ele>
        <time>2022-07-19T03:39:47Z</time>
      </trkpt>
      <trkpt lat="44.30577" lon="7.1931">
        <ele>828.8</ele>
        <time>2022-07-19T03:39:48Z</time>
      </trkpt>
      <trkpt lat="44.30579" lon="7.19304">
        <ele>828.8</ele>
        <time>2022-07-19T03:39:49Z</time>
      </trkpt>
      <trkpt lat="44.30582" lon="7.19297">
        <ele>828.8</ele>
        <time>2022-07-19T03:39:50Z</time>
      </trkpt>
      <trkpt lat="44.30584" lon="7.1929">
        <ele>828.8</ele>
        <time>2022-07-19T03:39:51Z</time>
      </trkpt>
      <trkpt lat="44.30586" lon="7.19283">
        <ele>828.8</ele>
        <time>2022-07-19T03:39:52Z</time>
      </trkpt>
      <trkpt lat="44.30588" lon="7.19276">
        <ele>828.8</ele>
        <time>2022-07-19T03:39:53Z</time>
      </trkpt>
      <trkpt lat="44.3059" lon="7.19269">
        <ele>828.8</ele>
        <time>2022-07-19T03:39:54Z</time>
      </trkpt>
      <trkpt lat="44.30592" lon="7.19262">
        <ele>828.8</ele>
        <time>2022-07-19T03:39:55Z</time>
      </trkpt>
      <trkpt lat="44.30594" lon="7.19255">
        <ele>829.2</ele>
        <time>2022-07-19T03:39:56Z</time>
      </trkpt>
      <trkpt lat="44.30596" lon="7.19249">
        <ele>829.2</ele>
        <time>2022-07-19T03:39:57Z</time>
      </trkpt>
      <trkpt lat="44.30598" lon="7.19242">
        <ele>829.2</ele>
        <time>2022-07-19T03:39:58Z</time>
      </trkpt>
      <trkpt lat="44.306" lon="7.19236">
        <ele>829.4</ele>
        <time>2022-07-19T03:39:59Z</time>
      </trkpt>
      <trkpt lat="44.30602" lon="7.19229">
        <ele>829.4</ele>
        <time>2022-07-19T03:40:00Z</time>
      </trkpt>
      <trkpt lat="44.30603" lon="7.19222">
        <ele>829.4</ele>
        <time>2022-07-19T03:40:01Z</time>
      </trkpt>
      <trkpt lat="44.30604" lon="7.19215">
        <ele>829.4</ele>
        <time>2022-07-19T03:40:02Z</time>
      </trkpt>
      <trkpt lat="44.30605" lon="7.19207">
        <ele>829.4</ele>
        <time>2022-07-19T03:40:03Z</time>
      </trkpt>
      <trkpt lat="44.30606" lon="7.192">
        <ele>829.4</ele>
        <time>2022-07-19T03:40:04Z</time>
      </trkpt>
      <trkpt lat="44.30606" lon="7.19192">
        <ele>829.4</ele>
        <time>2022-07-19T03:40:05Z</time>
      </trkpt>
      <trkpt lat="44.30605" lon="7.19185">
        <ele>829.6</ele>
        <time>2022-07-19T03:40:06Z</time>
      </trkpt>
      <trkpt lat="44.30605" lon="7.19177">
        <ele>829.6</ele>
        <time>2022-07-19T03:40:07Z</time>
      </trkpt>
      <trkpt lat="44.30604" lon="7.1917">
        <ele>829.6</ele>
        <time>2022-07-19T03:40:08Z</time>
      </trkpt>
      <trkpt lat="44.30603" lon="7.19162">
        <ele>829.6</ele>
        <time>2022-07-19T03:40:09Z</time>
      </trkpt>
      <trkpt lat="44.30602" lon="7.19155">
        <ele>829.8</ele>
        <time>2022-07-19T03:40:10Z</time>
      </trkpt>
      <trkpt lat="44.30601" lon="7.19148">
        <ele>829.8</ele>
        <time>2022-07-19T03:40:11Z</time>
      </trkpt>
      <trkpt lat="44.30599" lon="7.19141">
        <ele>829.8</ele>
        <time>2022-07-19T03:40:12Z</time>
      </trkpt>
      <trkpt lat="44.30598" lon="7.19134">
        <ele>830.2</ele>
        <time>2022-07-19T03:40:13Z</time>
      </trkpt>
      <trkpt lat="44.30597" lon="7.19127">
        <ele>830.2</ele>
        <time>2022-07-19T03:40:14Z</time>
      </trkpt>
      <trkpt lat="44.30596" lon="7.1912">
        <ele>830.6</ele>
        <time>2022-07-19T03:40:15Z</time>
      </trkpt>
      <trkpt lat="44.30595" lon="7.19113">
        <ele>830.6</ele>
        <time>2022-07-19T03:40:16Z</time>
      </trkpt>
      <trkpt lat="44.30594" lon="7.19106">
        <ele>830.8</ele>
        <time>2022-07-19T03:40:17Z</time>
      </trkpt>
      <trkpt lat="44.30593" lon="7.191">
        <ele>830.8</ele>
        <time>2022-07-19T03:40:18Z</time>
      </trkpt>
      <trkpt lat="44.30592" lon="7.19093">
        <ele>831.2</ele>
        <time>2022-07-19T03:40:19Z</time>
      </trkpt>
      <trkpt lat="44.3059" lon="7.19086">
        <ele>831.4</ele>
        <time>2022-07-19T03:40:20Z</time>
      </trkpt>
      <trkpt lat="44.30589" lon="7.1908">
        <ele>831.6</ele>
        <time>2022-07-19T03:40:21Z</time>
      </trkpt>
      <trkpt lat="44.30588" lon="7.19073">
        <ele>831.8</ele>
        <time>2022-07-19T03:40:22Z</time>
      </trkpt>
      <trkpt lat="44.30587" lon="7.19067">
        <ele>832</ele>
        <time>2022-07-19T03:40:23Z</time>
      </trkpt>
      <trkpt lat="44.30587" lon="7.1906">
        <ele>832</ele>
        <time>2022-07-19T03:40:24Z</time>
      </trkpt>
      <trkpt lat="44.30586" lon="7.19054">
        <ele>832.4</ele>
        <time>2022-07-19T03:40:25Z</time>
      </trkpt>
      <trkpt lat="44.30585" lon="7.19048">
        <ele>832.4</ele>
        <time>2022-07-19T03:40:26Z</time>
      </trkpt>
      <trkpt lat="44.30583" lon="7.19041">
        <ele>832.6</ele>
        <time>2022-07-19T03:40:27Z</time>
      </trkpt>
      <trkpt lat="44.30582" lon="7.19035">
        <ele>832.6</ele>
        <time>2022-07-19T03:40:28Z</time>
      </trkpt>
      <trkpt lat="44.30582" lon="7.19029">
        <ele>833</ele>
        <time>2022-07-19T03:40:29Z</time>
      </trkpt>
      <trkpt lat="44.30581" lon="7.19023">
        <ele>833</ele>
        <time>2022-07-19T03:40:30Z</time>
      </trkpt>
      <trkpt lat="44.3058" lon="7.19017">
        <ele>833.2</ele>
        <time>2022-07-19T03:40:31Z</time>
      </trkpt>
      <trkpt lat="44.30578" lon="7.1901">
        <ele>833.2</ele>
        <time>2022-07-19T03:40:32Z</time>
      </trkpt>
      <trkpt lat="44.30577" lon="7.19004">
        <ele>833.6</ele>
        <time>2022-07-19T03:40:33Z</time>
      </trkpt>
      <trkpt lat="44.30576" lon="7.18998">
        <ele>833.6</ele>
        <time>2022-07-19T03:40:34Z</time>
      </trkpt>
      <trkpt lat="44.30575" lon="7.18991">
        <ele>833.8</ele>
        <time>2022-07-19T03:40:35Z</time>
      </trkpt>
      <trkpt lat="44.30574" lon="7.18985">
        <ele>833.8</ele>
        <time>2022-07-19T03:40:36Z</time>
      </trkpt>
      <trkpt lat="44.30573" lon="7.18978">
        <ele>833.8</ele>
        <time>2022-07-19T03:40:37Z</time>
      </trkpt>
      <trkpt lat="44.30572" lon="7.18972">
        <ele>834.2</ele>
        <time>2022-07-19T03:40:38Z</time>
      </trkpt>
      <trkpt lat="44.30571" lon="7.18965">
        <ele>834.2</ele>
        <time>2022-07-19T03:40:39Z</time>
      </trkpt>
      <trkpt lat="44.3057" lon="7.18959">
        <ele>834.2</ele>
        <time>2022-07-19T03:40:40Z</time>
      </trkpt>
      <trkpt lat="44.3057" lon="7.18952">
        <ele>834.2</ele>
        <time>2022-07-19T03:40:41Z</time>
      </trkpt>
      <trkpt lat="44.30571" lon="7.18945">
        <ele>834.4</ele>
        <time>2022-07-19T03:40:42Z</time>
      </trkpt>
      <trkpt lat="44.30572" lon="7.18938">
        <ele>834.4</ele>
        <time>2022-07-19T03:40:43Z</time>
      </trkpt>
      <trkpt lat="44.30573" lon="7.18932">
        <ele>834.4</ele>
        <time>2022-07-19T03:40:44Z</time>
      </trkpt>
      <trkpt lat="44.30575" lon="7.18926">
        <ele>834.6</ele>
        <time>2022-07-19T03:40:45Z</time>
      </trkpt>
      <trkpt lat="44.30577" lon="7.18921">
        <ele>834.6</ele>
        <time>2022-07-19T03:40:46Z</time>
      </trkpt>
      <trkpt lat="44.30579" lon="7.18915">
        <ele>835</ele>
        <time>2022-07-19T03:40:47Z</time>
      </trkpt>
      <trkpt lat="44.30581" lon="7.1891">
        <ele>835</ele>
        <time>2022-07-19T03:40:48Z</time>
      </trkpt>
      <trkpt lat="44.30583" lon="7.18905">
        <ele>835</ele>
        <time>2022-07-19T03:40:49Z</time>
      </trkpt>
      <trkpt lat="44.30584" lon="7.189">
        <ele>835.2</ele>
        <time>2022-07-19T03:40:50Z</time>
      </trkpt>
      <trkpt lat="44.30584" lon="7.18896">
        <ele>835.2</ele>
        <time>2022-07-19T03:40:51Z</time>
      </trkpt>
      <trkpt lat="44.30584" lon="7.18892">
        <ele>835.2</ele>
        <time>2022-07-19T03:40:52Z</time>
      </trkpt>
      <trkpt lat="44.30583" lon="7.18889">
        <ele>835.2</ele>
        <time>2022-07-19T03:40:53Z</time>
      </trkpt>
      <trkpt lat="44.30582" lon="7.18887">
        <ele>835.2</ele>
        <time>2022-07-19T03:40:54Z</time>
      </trkpt>
      <trkpt lat="44.30581" lon="7.18885">
        <ele>835.2</ele>
        <time>2022-07-19T03:40:55Z</time>
      </trkpt>
      <trkpt lat="44.3058" lon="7.18884">
        <ele>835.2</ele>
        <time>2022-07-19T03:40:56Z</time>
      </trkpt>
      <trkpt lat="44.30579" lon="7.18884">
        <ele>835.2</ele>
        <time>2022-07-19T03:40:57Z</time>
      </trkpt>
      <trkpt lat="44.30579" lon="7.18883">
        <ele>835.2</ele>
        <time>2022-07-19T03:40:58Z</time>
      </trkpt>
      <trkpt lat="44.30579" lon="7.18883">
        <ele>835.2</ele>
        <time>2022-07-19T03:41:04Z</time>
      </trkpt>
      <trkpt lat="44.30579" lon="7.18883">
        <ele>835.4</ele>
        <time>2022-07-19T03:42:03Z</time>
      </trkpt>
      <trkpt lat="44.30579" lon="7.18883">
        <ele>835.2</ele>
        <time>2022-07-19T03:42:08Z</time>
      </trkpt>
      <trkpt lat="44.30579" lon="7.18883">
        <ele>835.2</ele>
        <time>2022-07-19T03:42:12Z</time>
      </trkpt>
      <trkpt lat="44.30579" lon="7.18883">
        <ele>835.2</ele>
        <time>2022-07-19T03:42:18Z</time>
      </trkpt>
      <trkpt lat="44.30576" lon="7.18883">
        <ele>835.2</ele>
        <time>2022-07-19T03:42:31Z</time>
      </trkpt>
      <trkpt lat="44.30574" lon="7.18883">
        <ele>835.2</ele>
        <time>2022-07-19T03:42:32Z</time>
      </trkpt>
      <trkpt lat="44.30573" lon="7.18884">
        <ele>835.4</ele>
        <time>2022-07-19T03:42:33Z</time>
      </trkpt>
      <trkpt lat="44.30571" lon="7.18884">
        <ele>835.4</ele>
        <time>2022-07-19T03:42:34Z</time>
      </trkpt>
      <trkpt lat="44.30569" lon="7.18883">
        <ele>835.4</ele>
        <time>2022-07-19T03:42:35Z</time>
      </trkpt>
      <trkpt lat="44.30567" lon="7.18883">
        <ele>835.6</ele>
        <time>2022-07-19T03:42:36Z</time>
      </trkpt>
      <trkpt lat="44.30565" lon="7.18882">
        <ele>835.6</ele>
        <time>2022-07-19T03:42:37Z</time>
      </trkpt>
      <trkpt lat="44.30563" lon="7.18881">
        <ele>835.6</ele>
        <time>2022-07-19T03:42:38Z</time>
      </trkpt>
      <trkpt lat="44.30561" lon="7.18881">
        <ele>835.6</ele>
        <time>2022-07-19T03:42:39Z</time>
      </trkpt>
      <trkpt lat="44.30559" lon="7.18881">
        <ele>835.6</ele>
        <time>2022-07-19T03:42:40Z</time>
      </trkpt>
      <trkpt lat="44.30556" lon="7.18881">
        <ele>835.6</ele>
        <time>2022-07-19T03:42:41Z</time>
      </trkpt>
      <trkpt lat="44.30553" lon="7.18882">
        <ele>836</ele>
        <time>2022-07-19T03:42:42Z</time>
      </trkpt>
      <trkpt lat="44.3055" lon="7.18882">
        <ele>836</ele>
        <time>2022-07-19T03:42:43Z</time>
      </trkpt>
      <trkpt lat="44.30548" lon="7.18882">
        <ele>836.2</ele>
        <time>2022-07-19T03:42:44Z</time>
      </trkpt>
      <trkpt lat="44.30545" lon="7.18883">
        <ele>836.2</ele>
        <time>2022-07-19T03:42:45Z</time>
      </trkpt>
      <trkpt lat="44.30543" lon="7.18883">
        <ele>836.6</ele>
        <time>2022-07-19T03:42:46Z</time>
      </trkpt>
      <trkpt lat="44.3054" lon="7.18884">
        <ele>836.8</ele>
        <time>2022-07-19T03:42:47Z</time>
      </trkpt>
      <trkpt lat="44.30538" lon="7.18884">
        <ele>836.8</ele>
        <time>2022-07-19T03:42:48Z</time>
      </trkpt>
      <trkpt lat="44.30536" lon="7.18885">
        <ele>837</ele>
        <time>2022-07-19T03:42:49Z</time>
      </trkpt>
      <trkpt lat="44.30534" lon="7.18884">
        <ele>837.4</ele>
        <time>2022-07-19T03:42:50Z</time>
      </trkpt>
      <trkpt lat="44.30532" lon="7.18883">
        <ele>837.4</ele>
        <time>2022-07-19T03:42:51Z</time>
      </trkpt>
      <trkpt lat="44.30529" lon="7.18882">
        <ele>837.6</ele>
        <time>2022-07-19T03:42:52Z</time>
      </trkpt>
      <trkpt lat="44.30527" lon="7.1888">
        <ele>837.6</ele>
        <time>2022-07-19T03:42:53Z</time>
      </trkpt>
      <trkpt lat="44.30525" lon="7.18878">
        <ele>837.6</ele>
        <time>2022-07-19T03:42:54Z</time>
      </trkpt>
      <trkpt lat="44.30522" lon="7.18875">
        <ele>838</ele>
        <time>2022-07-19T03:42:55Z</time>
      </trkpt>
      <trkpt lat="44.3052" lon="7.18872">
        <ele>838</ele>
        <time>2022-07-19T03:42:56Z</time>
      </trkpt>
      <trkpt lat="44.30518" lon="7.18868">
        <ele>838</ele>
        <time>2022-07-19T03:42:57Z</time>
      </trkpt>
      <trkpt lat="44.30516" lon="7.18865">
        <ele>838</ele>
        <time>2022-07-19T03:42:58Z</time>
      </trkpt>
      <trkpt lat="44.30514" lon="7.18861">
        <ele>838</ele>
        <time>2022-07-19T03:42:59Z</time>
      </trkpt>
      <trkpt lat="44.30512" lon="7.18857">
        <ele>838</ele>
        <time>2022-07-19T03:43:00Z</time>
      </trkpt>
      <trkpt lat="44.3051" lon="7.18852">
        <ele>838</ele>
        <time>2022-07-19T03:43:01Z</time>
      </trkpt>
      <trkpt lat="44.30507" lon="7.18847">
        <ele>838</ele>
        <time>2022-07-19T03:43:02Z</time>
      </trkpt>
      <trkpt lat="44.30505" lon="7.18842">
        <ele>838</ele>
        <time>2022-07-19T03:43:03Z</time>
      </trkpt>
      <trkpt lat="44.30502" lon="7.18837">
        <ele>838</ele>
        <time>2022-07-19T03:43:04Z</time>
      </trkpt>
      <trkpt lat="44.30499" lon="7.18832">
        <ele>838</ele>
        <time>2022-07-19T03:43:05Z</time>
      </trkpt>
      <trkpt lat="44.30495" lon="7.18828">
        <ele>838</ele>
        <time>2022-07-19T03:43:06Z</time>
      </trkpt>
      <trkpt lat="44.30492" lon="7.18824">
        <ele>838</ele>
        <time>2022-07-19T03:43:07Z</time>
      </trkpt>
      <trkpt lat="44.30489" lon="7.18819">
        <ele>838</ele>
        <time>2022-07-19T03:43:08Z</time>
      </trkpt>
      <trkpt lat="44.30486" lon="7.18814">
        <ele>838.2</ele>
        <time>2022-07-19T03:43:09Z</time>
      </trkpt>
      <trkpt lat="44.30484" lon="7.1881">
        <ele>838.2</ele>
        <time>2022-07-19T03:43:10Z</time>
      </trkpt>
      <trkpt lat="44.30481" lon="7.18805">
        <ele>838.2</ele>
        <time>2022-07-19T03:43:11Z</time>
      </trkpt>
      <trkpt lat="44.30477" lon="7.188">
        <ele>838.2</ele>
        <time>2022-07-19T03:43:12Z</time>
      </trkpt>
      <trkpt lat="44.30474" lon="7.18795">
        <ele>838.2</ele>
        <time>2022-07-19T03:43:13Z</time>
      </trkpt>
      <trkpt lat="44.30472" lon="7.18791">
        <ele>838.2</ele>
        <time>2022-07-19T03:43:14Z</time>
      </trkpt>
      <trkpt lat="44.30469" lon="7.18786">
        <ele>837.8</ele>
        <time>2022-07-19T03:43:15Z</time>
      </trkpt>
      <trkpt lat="44.30464" lon="7.18781">
        <ele>837.8</ele>
        <time>2022-07-19T03:43:16Z</time>
      </trkpt>
      <trkpt lat="44.3046" lon="7.18776">
        <ele>837.8</ele>
        <time>2022-07-19T03:43:17Z</time>
      </trkpt>
      <trkpt lat="44.30456" lon="7.18772">
        <ele>837.8</ele>
        <time>2022-07-19T03:43:18Z</time>
      </trkpt>
      <trkpt lat="44.30452" lon="7.18768">
        <ele>837.8</ele>
        <time>2022-07-19T03:43:19Z</time>
      </trkpt>
      <trkpt lat="44.30449" lon="7.18763">
        <ele>837.8</ele>
        <time>2022-07-19T03:43:20Z</time>
      </trkpt>
      <trkpt lat="44.30445" lon="7.18759">
        <ele>837.8</ele>
        <time>2022-07-19T03:43:21Z</time>
      </trkpt>
      <trkpt lat="44.30442" lon="7.18755">
        <ele>837.8</ele>
        <time>2022-07-19T03:43:22Z</time>
      </trkpt>
      <trkpt lat="44.30439" lon="7.18751">
        <ele>837.8</ele>
        <time>2022-07-19T03:43:23Z</time>
      </trkpt>
      <trkpt lat="44.30434" lon="7.18746">
        <ele>837.8</ele>
        <time>2022-07-19T03:43:24Z</time>
      </trkpt>
      <trkpt lat="44.3043" lon="7.18742">
        <ele>837.8</ele>
        <time>2022-07-19T03:43:25Z</time>
      </trkpt>
      <trkpt lat="44.30424" lon="7.18739">
        <ele>837.8</ele>
        <time>2022-07-19T03:43:26Z</time>
      </trkpt>
      <trkpt lat="44.30419" lon="7.18736">
        <ele>837.8</ele>
        <time>2022-07-19T03:43:27Z</time>
      </trkpt>
      <trkpt lat="44.30414" lon="7.18734">
        <ele>837.8</ele>
        <time>2022-07-19T03:43:28Z</time>
      </trkpt>
      <trkpt lat="44.30409" lon="7.18731">
        <ele>837.8</ele>
        <time>2022-07-19T03:43:29Z</time>
      </trkpt>
      <trkpt lat="44.30404" lon="7.18727">
        <ele>837.8</ele>
        <time>2022-07-19T03:43:30Z</time>
      </trkpt>
      <trkpt lat="44.304" lon="7.18722">
        <ele>838.2</ele>
        <time>2022-07-19T03:43:31Z</time>
      </trkpt>
      <trkpt lat="44.30396" lon="7.18716">
        <ele>838.2</ele>
        <time>2022-07-19T03:43:32Z</time>
      </trkpt>
      <trkpt lat="44.30392" lon="7.18709">
        <ele>838.2</ele>
        <time>2022-07-19T03:43:33Z</time>
      </trkpt>
      <trkpt lat="44.3039" lon="7.18702">
        <ele>838.2</ele>
        <time>2022-07-19T03:43:34Z</time>
      </trkpt>
      <trkpt lat="44.30388" lon="7.18696">
        <ele>838.2</ele>
        <time>2022-07-19T03:43:35Z</time>
      </trkpt>
      <trkpt lat="44.30387" lon="7.18689">
        <ele>838.4</ele>
        <time>2022-07-19T03:43:36Z</time>
      </trkpt>
      <trkpt lat="44.30386" lon="7.18682">
        <ele>838.4</ele>
        <time>2022-07-19T03:43:37Z</time>
      </trkpt>
      <trkpt lat="44.30386" lon="7.18675">
        <ele>838.6</ele>
        <time>2022-07-19T03:43:38Z</time>
      </trkpt>
      <trkpt lat="44.30386" lon="7.18669">
        <ele>838.6</ele>
        <time>2022-07-19T03:43:39Z</time>
      </trkpt>
      <trkpt lat="44.30386" lon="7.18662">
        <ele>838.8</ele>
        <time>2022-07-19T03:43:40Z</time>
      </trkpt>
      <trkpt lat="44.30386" lon="7.18655">
        <ele>838.8</ele>
        <time>2022-07-19T03:43:41Z</time>
      </trkpt>
      <trkpt lat="44.30387" lon="7.18649">
        <ele>839</ele>
        <time>2022-07-19T03:43:42Z</time>
      </trkpt>
      <trkpt lat="44.30387" lon="7.18643">
        <ele>839</ele>
        <time>2022-07-19T03:43:43Z</time>
      </trkpt>
      <trkpt lat="44.30388" lon="7.18636">
        <ele>839.4</ele>
        <time>2022-07-19T03:43:44Z</time>
      </trkpt>
      <trkpt lat="44.3039" lon="7.1863">
        <ele>839.4</ele>
        <time>2022-07-19T03:43:45Z</time>
      </trkpt>
      <trkpt lat="44.30391" lon="7.18624">
        <ele>839.6</ele>
        <time>2022-07-19T03:43:46Z</time>
      </trkpt>
      <trkpt lat="44.30392" lon="7.18618">
        <ele>839.6</ele>
        <time>2022-07-19T03:43:47Z</time>
      </trkpt>
      <trkpt lat="44.30393" lon="7.18611">
        <ele>839.8</ele>
        <time>2022-07-19T03:43:48Z</time>
      </trkpt>
      <trkpt lat="44.30394" lon="7.18605">
        <ele>839.8</ele>
        <time>2022-07-19T03:43:49Z</time>
      </trkpt>
      <trkpt lat="44.30395" lon="7.18598">
        <ele>840.2</ele>
        <time>2022-07-19T03:43:50Z</time>
      </trkpt>
      <trkpt lat="44.30396" lon="7.18592">
        <ele>840.2</ele>
        <time>2022-07-19T03:43:51Z</time>
      </trkpt>
      <trkpt lat="44.30396" lon="7.18585">
        <ele>840.2</ele>
        <time>2022-07-19T03:43:52Z</time>
      </trkpt>
      <trkpt lat="44.30396" lon="7.18579">
        <ele>840.4</ele>
        <time>2022-07-19T03:43:53Z</time>
      </trkpt>
      <trkpt lat="44.30396" lon="7.18573">
        <ele>840.4</ele>
        <time>2022-07-19T03:43:54Z</time>
      </trkpt>
      <trkpt lat="44.30396" lon="7.18567">
        <ele>840.8</ele>
        <time>2022-07-19T03:43:55Z</time>
      </trkpt>
      <trkpt lat="44.30396" lon="7.18561">
        <ele>840.8</ele>
        <time>2022-07-19T03:43:56Z</time>
      </trkpt>
      <trkpt lat="44.30396" lon="7.18555">
        <ele>841</ele>
        <time>2022-07-19T03:43:57Z</time>
      </trkpt>
      <trkpt lat="44.30396" lon="7.18549">
        <ele>841</ele>
        <time>2022-07-19T03:43:58Z</time>
      </trkpt>
      <trkpt lat="44.30396" lon="7.18543">
        <ele>841.4</ele>
        <time>2022-07-19T03:43:59Z</time>
      </trkpt>
      <trkpt lat="44.30395" lon="7.18538">
        <ele>841.4</ele>
        <time>2022-07-19T03:44:00Z</time>
      </trkpt>
      <trkpt lat="44.30394" lon="7.18533">
        <ele>841.6</ele>
        <time>2022-07-19T03:44:01Z</time>
      </trkpt>
      <trkpt lat="44.30392" lon="7.18528">
        <ele>841.8</ele>
        <time>2022-07-19T03:44:02Z</time>
      </trkpt>
      <trkpt lat="44.30391" lon="7.18523">
        <ele>842.2</ele>
        <time>2022-07-19T03:44:03Z</time>
      </trkpt>
      <trkpt lat="44.3039" lon="7.1852">
        <ele>842.4</ele>
        <time>2022-07-19T03:44:04Z</time>
      </trkpt>
      <trkpt lat="44.30388" lon="7.18516">
        <ele>842.6</ele>
        <time>2022-07-19T03:44:05Z</time>
      </trkpt>
      <trkpt lat="44.30387" lon="7.18512">
        <ele>842.6</ele>
        <time>2022-07-19T03:44:06Z</time>
      </trkpt>
      <trkpt lat="44.30386" lon="7.18509">
        <ele>843</ele>
        <time>2022-07-19T03:44:07Z</time>
      </trkpt>
      <trkpt lat="44.30385" lon="7.18505">
        <ele>843.2</ele>
        <time>2022-07-19T03:44:08Z</time>
      </trkpt>
      <trkpt lat="44.30384" lon="7.18502">
        <ele>843.4</ele>
        <time>2022-07-19T03:44:09Z</time>
      </trkpt>
      <trkpt lat="44.30383" lon="7.18498">
        <ele>843.6</ele>
        <time>2022-07-19T03:44:10Z</time>
      </trkpt>
      <trkpt lat="44.30382" lon="7.18494">
        <ele>843.8</ele>
        <time>2022-07-19T03:44:11Z</time>
      </trkpt>
      <trkpt lat="44.30381" lon="7.18491">
        <ele>844</ele>
        <time>2022-07-19T03:44:12Z</time>
      </trkpt>
      <trkpt lat="44.3038" lon="7.18488">
        <ele>844</ele>
        <time>2022-07-19T03:44:13Z</time>
      </trkpt>
      <trkpt lat="44.3038" lon="7.18485">
        <ele>844.4</ele>
        <time>2022-07-19T03:44:14Z</time>
      </trkpt>
      <trkpt lat="44.30379" lon="7.18481">
        <ele>844.4</ele>
        <time>2022-07-19T03:44:15Z</time>
      </trkpt>
      <trkpt lat="44.30378" lon="7.18478">
        <ele>844.8</ele>
        <time>2022-07-19T03:44:16Z</time>
      </trkpt>
      <trkpt lat="44.30377" lon="7.18475">
        <ele>844.8</ele>
        <time>2022-07-19T03:44:17Z</time>
      </trkpt>
      <trkpt lat="44.30377" lon="7.18472">
        <ele>845</ele>
        <time>2022-07-19T03:44:18Z</time>
      </trkpt>
      <trkpt lat="44.30376" lon="7.18468">
        <ele>845</ele>
        <time>2022-07-19T03:44:19Z</time>
      </trkpt>
      <trkpt lat="44.30376" lon="7.18465">
        <ele>845.4</ele>
        <time>2022-07-19T03:44:20Z</time>
      </trkpt>
      <trkpt lat="44.30375" lon="7.18462">
        <ele>845.6</ele>
        <time>2022-07-19T03:44:21Z</time>
      </trkpt>
      <trkpt lat="44.30374" lon="7.18458">
        <ele>845.6</ele>
        <time>2022-07-19T03:44:22Z</time>
      </trkpt>
      <trkpt lat="44.30373" lon="7.18455">
        <ele>846.2</ele>
        <time>2022-07-19T03:44:23Z</time>
      </trkpt>
      <trkpt lat="44.30372" lon="7.18451">
        <ele>846.4</ele>
        <time>2022-07-19T03:44:24Z</time>
      </trkpt>
      <trkpt lat="44.30371" lon="7.18448">
        <ele>846.6</ele>
        <time>2022-07-19T03:44:25Z</time>
      </trkpt>
      <trkpt lat="44.30369" lon="7.18444">
        <ele>846.6</ele>
        <time>2022-07-19T03:44:26Z</time>
      </trkpt>
      <trkpt lat="44.30368" lon="7.1844">
        <ele>847</ele>
        <time>2022-07-19T03:44:27Z</time>
      </trkpt>
      <trkpt lat="44.30367" lon="7.18436">
        <ele>847</ele>
        <time>2022-07-19T03:44:28Z</time>
      </trkpt>
      <trkpt lat="44.30366" lon="7.18433">
        <ele>847.2</ele>
        <time>2022-07-19T03:44:29Z</time>
      </trkpt>
      <trkpt lat="44.30365" lon="7.18429">
        <ele>847.2</ele>
        <time>2022-07-19T03:44:30Z</time>
      </trkpt>
      <trkpt lat="44.30363" lon="7.18426">
        <ele>847.6</ele>
        <time>2022-07-19T03:44:31Z</time>
      </trkpt>
      <trkpt lat="44.30362" lon="7.18422">
        <ele>847.6</ele>
        <time>2022-07-19T03:44:32Z</time>
      </trkpt>
      <trkpt lat="44.30362" lon="7.18418">
        <ele>848</ele>
        <time>2022-07-19T03:44:33Z</time>
      </trkpt>
      <trkpt lat="44.30361" lon="7.18414">
        <ele>848</ele>
        <time>2022-07-19T03:44:34Z</time>
      </trkpt>
      <trkpt lat="44.3036" lon="7.18411">
        <ele>848.4</ele>
        <time>2022-07-19T03:44:35Z</time>
      </trkpt>
      <trkpt lat="44.30359" lon="7.18407">
        <ele>848.6</ele>
        <time>2022-07-19T03:44:36Z</time>
      </trkpt>
      <trkpt lat="44.30357" lon="7.18404">
        <ele>848.6</ele>
        <time>2022-07-19T03:44:37Z</time>
      </trkpt>
      <trkpt lat="44.30356" lon="7.184">
        <ele>848.8</ele>
        <time>2022-07-19T03:44:38Z</time>
      </trkpt>
      <trkpt lat="44.30355" lon="7.18396">
        <ele>848.8</ele>
        <time>2022-07-19T03:44:39Z</time>
      </trkpt>
      <trkpt lat="44.30354" lon="7.18392">
        <ele>849.2</ele>
        <time>2022-07-19T03:44:40Z</time>
      </trkpt>
      <trkpt lat="44.30353" lon="7.18388">
        <ele>849.4</ele>
        <time>2022-07-19T03:44:41Z</time>
      </trkpt>
      <trkpt lat="44.30351" lon="7.18384">
        <ele>849.6</ele>
        <time>2022-07-19T03:44:42Z</time>
      </trkpt>
      <trkpt lat="44.3035" lon="7.18381">
        <ele>849.6</ele>
        <time>2022-07-19T03:44:43Z</time>
      </trkpt>
      <trkpt lat="44.30348" lon="7.18378">
        <ele>849.8</ele>
        <time>2022-07-19T03:44:44Z</time>
      </trkpt>
      <trkpt lat="44.30347" lon="7.18375">
        <ele>849.8</ele>
        <time>2022-07-19T03:44:45Z</time>
      </trkpt>
      <trkpt lat="44.30345" lon="7.18372">
        <ele>850.2</ele>
        <time>2022-07-19T03:44:46Z</time>
      </trkpt>
      <trkpt lat="44.30343" lon="7.1837">
        <ele>850.6</ele>
        <time>2022-07-19T03:44:47Z</time>
      </trkpt>
      <trkpt lat="44.30342" lon="7.18367">
        <ele>850.8</ele>
        <time>2022-07-19T03:44:48Z</time>
      </trkpt>
      <trkpt lat="44.30341" lon="7.18365">
        <ele>851</ele>
        <time>2022-07-19T03:44:49Z</time>
      </trkpt>
      <trkpt lat="44.3034" lon="7.18362">
        <ele>851</ele>
        <time>2022-07-19T03:44:50Z</time>
      </trkpt>
      <trkpt lat="44.30339" lon="7.18359">
        <ele>851.4</ele>
        <time>2022-07-19T03:44:51Z</time>
      </trkpt>
      <trkpt lat="44.30338" lon="7.18356">
        <ele>851.6</ele>
        <time>2022-07-19T03:44:52Z</time>
      </trkpt>
      <trkpt lat="44.30338" lon="7.18353">
        <ele>851.6</ele>
        <time>2022-07-19T03:44:53Z</time>
      </trkpt>
      <trkpt lat="44.30338" lon="7.1835">
        <ele>852</ele>
        <time>2022-07-19T03:44:54Z</time>
      </trkpt>
      <trkpt lat="44.30337" lon="7.18347">
        <ele>852.2</ele>
        <time>2022-07-19T03:44:55Z</time>
      </trkpt>
      <trkpt lat="44.30336" lon="7.18344">
        <ele>852.6</ele>
        <time>2022-07-19T03:44:56Z</time>
      </trkpt>
      <trkpt lat="44.30336" lon="7.18341">
        <ele>852.8</ele>
        <time>2022-07-19T03:44:57Z</time>
      </trkpt>
      <trkpt lat="44.30336" lon="7.18338">
        <ele>853</ele>
        <time>2022-07-19T03:44:58Z</time>
      </trkpt>
      <trkpt lat="44.30336" lon="7.18335">
        <ele>853.2</ele>
        <time>2022-07-19T03:44:59Z</time>
      </trkpt>
      <trkpt lat="44.30335" lon="7.18332">
        <ele>853.4</ele>
        <time>2022-07-19T03:45:00Z</time>
      </trkpt>
      <trkpt lat="44.30335" lon="7.18329">
        <ele>853.8</ele>
        <time>2022-07-19T03:45:01Z</time>
      </trkpt>
      <trkpt lat="44.30335" lon="7.18326">
        <ele>854</ele>
        <time>2022-07-19T03:45:02Z</time>
      </trkpt>
      <trkpt lat="44.30334" lon="7.18322">
        <ele>854.2</ele>
        <time>2022-07-19T03:45:03Z</time>
      </trkpt>
      <trkpt lat="44.30334" lon="7.18319">
        <ele>854.6</ele>
        <time>2022-07-19T03:45:04Z</time>
      </trkpt>
      <trkpt lat="44.30333" lon="7.18315">
        <ele>854.8</ele>
        <time>2022-07-19T03:45:05Z</time>
      </trkpt>
      <trkpt lat="44.30333" lon="7.18312">
        <ele>855.2</ele>
        <time>2022-07-19T03:45:06Z</time>
      </trkpt>
      <trkpt lat="44.30333" lon="7.18308">
        <ele>855.4</ele>
        <time>2022-07-19T03:45:07Z</time>
      </trkpt>
      <trkpt lat="44.30332" lon="7.18305">
        <ele>855.6</ele>
        <time>2022-07-19T03:45:08Z</time>
      </trkpt>
      <trkpt lat="44.30332" lon="7.18301">
        <ele>855.8</ele>
        <time>2022-07-19T03:45:09Z</time>
      </trkpt>
      <trkpt lat="44.30331" lon="7.18298">
        <ele>855.8</ele>
        <time>2022-07-19T03:45:10Z</time>
      </trkpt>
      <trkpt lat="44.3033" lon="7.18295">
        <ele>856.2</ele>
        <time>2022-07-19T03:45:11Z</time>
      </trkpt>
      <trkpt lat="44.30329" lon="7.18292">
        <ele>856.6</ele>
        <time>2022-07-19T03:45:12Z</time>
      </trkpt>
      <trkpt lat="44.30329" lon="7.1829">
        <ele>856.8</ele>
        <time>2022-07-19T03:45:13Z</time>
      </trkpt>
      <trkpt lat="44.30328" lon="7.18287">
        <ele>857</ele>
        <time>2022-07-19T03:45:14Z</time>
      </trkpt>
      <trkpt lat="44.30327" lon="7.18285">
        <ele>857</ele>
        <time>2022-07-19T03:45:15Z</time>
      </trkpt>
      <trkpt lat="44.30326" lon="7.18282">
        <ele>857.4</ele>
        <time>2022-07-19T03:45:16Z</time>
      </trkpt>
      <trkpt lat="44.30325" lon="7.18279">
        <ele>857.6</ele>
        <time>2022-07-19T03:45:17Z</time>
      </trkpt>
      <trkpt lat="44.30324" lon="7.18276">
        <ele>858</ele>
        <time>2022-07-19T03:45:18Z</time>
      </trkpt>
      <trkpt lat="44.30324" lon="7.18273">
        <ele>858.2</ele>
        <time>2022-07-19T03:45:19Z</time>
      </trkpt>
      <trkpt lat="44.30323" lon="7.18271">
        <ele>858.4</ele>
        <time>2022-07-19T03:45:20Z</time>
      </trkpt>
      <trkpt lat="44.30322" lon="7.18268">
        <ele>858.6</ele>
        <time>2022-07-19T03:45:21Z</time>
      </trkpt>
      <trkpt lat="44.30322" lon="7.18265">
        <ele>859</ele>
        <time>2022-07-19T03:45:22Z</time>
      </trkpt>
      <trkpt lat="44.30321" lon="7.18263">
        <ele>859.2</ele>
        <time>2022-07-19T03:45:23Z</time>
      </trkpt>
      <trkpt lat="44.3032" lon="7.18261">
        <ele>859.6</ele>
        <time>2022-07-19T03:45:24Z</time>
      </trkpt>
      <trkpt lat="44.3032" lon="7.18258">
        <ele>859.8</ele>
        <time>2022-07-19T03:45:25Z</time>
      </trkpt>
      <trkpt lat="44.30319" lon="7.18255">
        <ele>860.2</ele>
        <time>2022-07-19T03:45:26Z</time>
      </trkpt>
      <trkpt lat="44.30318" lon="7.18253">
        <ele>860.4</ele>
        <time>2022-07-19T03:45:27Z</time>
      </trkpt>
      <trkpt lat="44.30317" lon="7.1825">
        <ele>860.6</ele>
        <time>2022-07-19T03:45:28Z</time>
      </trkpt>
      <trkpt lat="44.30316" lon="7.18248">
        <ele>860.8</ele>
        <time>2022-07-19T03:45:29Z</time>
      </trkpt>
      <trkpt lat="44.30316" lon="7.18245">
        <ele>861</ele>
        <time>2022-07-19T03:45:30Z</time>
      </trkpt>
      <trkpt lat="44.30315" lon="7.18242">
        <ele>861</ele>
        <time>2022-07-19T03:45:31Z</time>
      </trkpt>
      <trkpt lat="44.30315" lon="7.1824">
        <ele>861.4</ele>
        <time>2022-07-19T03:45:32Z</time>
      </trkpt>
      <trkpt lat="44.30314" lon="7.18237">
        <ele>861.6</ele>
        <time>2022-07-19T03:45:33Z</time>
      </trkpt>
      <trkpt lat="44.30314" lon="7.18235">
        <ele>861.8</ele>
        <time>2022-07-19T03:45:34Z</time>
      </trkpt>
      <trkpt lat="44.30314" lon="7.18233">
        <ele>861.8</ele>
        <time>2022-07-19T03:45:35Z</time>
      </trkpt>
      <trkpt lat="44.30313" lon="7.1823">
        <ele>862.2</ele>
        <time>2022-07-19T03:45:36Z</time>
      </trkpt>
      <trkpt lat="44.30312" lon="7.18228">
        <ele>862.4</ele>
        <time>2022-07-19T03:45:37Z</time>
      </trkpt>
      <trkpt lat="44.30311" lon="7.18225">
        <ele>862.4</ele>
        <time>2022-07-19T03:45:38Z</time>
      </trkpt>
      <trkpt lat="44.3031" lon="7.18222">
        <ele>862.8</ele>
        <time>2022-07-19T03:45:39Z</time>
      </trkpt>
      <trkpt lat="44.30309" lon="7.18219">
        <ele>862.8</ele>
        <time>2022-07-19T03:45:40Z</time>
      </trkpt>
      <trkpt lat="44.30308" lon="7.18216">
        <ele>863</ele>
        <time>2022-07-19T03:45:41Z</time>
      </trkpt>
      <trkpt lat="44.30307" lon="7.18213">
        <ele>863</ele>
        <time>2022-07-19T03:45:42Z</time>
      </trkpt>
      <trkpt lat="44.30307" lon="7.1821">
        <ele>863.4</ele>
        <time>2022-07-19T03:45:43Z</time>
      </trkpt>
      <trkpt lat="44.30307" lon="7.18207">
        <ele>863.4</ele>
        <time>2022-07-19T03:45:44Z</time>
      </trkpt>
      <trkpt lat="44.30307" lon="7.18204">
        <ele>863.6</ele>
        <time>2022-07-19T03:45:45Z</time>
      </trkpt>
      <trkpt lat="44.30306" lon="7.182">
        <ele>863.6</ele>
        <time>2022-07-19T03:45:46Z</time>
      </trkpt>
      <trkpt lat="44.30305" lon="7.18197">
        <ele>864</ele>
        <time>2022-07-19T03:45:47Z</time>
      </trkpt>
      <trkpt lat="44.30305" lon="7.18194">
        <ele>864</ele>
        <time>2022-07-19T03:45:48Z</time>
      </trkpt>
      <trkpt lat="44.30304" lon="7.18191">
        <ele>864.2</ele>
        <time>2022-07-19T03:45:49Z</time>
      </trkpt>
      <trkpt lat="44.30303" lon="7.18188">
        <ele>864.2</ele>
        <time>2022-07-19T03:45:50Z</time>
      </trkpt>
      <trkpt lat="44.30303" lon="7.18185">
        <ele>864.4</ele>
        <time>2022-07-19T03:45:51Z</time>
      </trkpt>
      <trkpt lat="44.30302" lon="7.18182">
        <ele>864.4</ele>
        <time>2022-07-19T03:45:52Z</time>
      </trkpt>
      <trkpt lat="44.30301" lon="7.18179">
        <ele>864.8</ele>
        <time>2022-07-19T03:45:53Z</time>
      </trkpt>
      <trkpt lat="44.30301" lon="7.18175">
        <ele>864.8</ele>
        <time>2022-07-19T03:45:54Z</time>
      </trkpt>
      <trkpt lat="44.30301" lon="7.18172">
        <ele>865.2</ele>
        <time>2022-07-19T03:45:55Z</time>
      </trkpt>
      <trkpt lat="44.30301" lon="7.1817">
        <ele>865.2</ele>
        <time>2022-07-19T03:45:56Z</time>
      </trkpt>
      <trkpt lat="44.303" lon="7.18167">
        <ele>865.4</ele>
        <time>2022-07-19T03:45:57Z</time>
      </trkpt>
      <trkpt lat="44.30299" lon="7.18164">
        <ele>865.4</ele>
        <time>2022-07-19T03:45:58Z</time>
      </trkpt>
      <trkpt lat="44.30299" lon="7.18161">
        <ele>865.8</ele>
        <time>2022-07-19T03:45:59Z</time>
      </trkpt>
      <trkpt lat="44.30299" lon="7.18158">
        <ele>865.8</ele>
        <time>2022-07-19T03:46:00Z</time>
      </trkpt>
      <trkpt lat="44.30299" lon="7.18156">
        <ele>866</ele>
        <time>2022-07-19T03:46:01Z</time>
      </trkpt>
      <trkpt lat="44.30299" lon="7.18153">
        <ele>866</ele>
        <time>2022-07-19T03:46:02Z</time>
      </trkpt>
      <trkpt lat="44.30298" lon="7.1815">
        <ele>866.4</ele>
        <time>2022-07-19T03:46:03Z</time>
      </trkpt>
      <trkpt lat="44.30298" lon="7.18146">
        <ele>866.4</ele>
        <time>2022-07-19T03:46:04Z</time>
      </trkpt>
      <trkpt lat="44.30298" lon="7.18143">
        <ele>866.6</ele>
        <time>2022-07-19T03:46:05Z</time>
      </trkpt>
      <trkpt lat="44.30298" lon="7.1814">
        <ele>866.6</ele>
        <time>2022-07-19T03:46:06Z</time>
      </trkpt>
      <trkpt lat="44.30298" lon="7.18137">
        <ele>866.8</ele>
        <time>2022-07-19T03:46:07Z</time>
      </trkpt>
      <trkpt lat="44.30297" lon="7.18134">
        <ele>866.8</ele>
        <time>2022-07-19T03:46:08Z</time>
      </trkpt>
      <trkpt lat="44.30297" lon="7.18131">
        <ele>867.4</ele>
        <time>2022-07-19T03:46:09Z</time>
      </trkpt>
      <trkpt lat="44.30296" lon="7.18127">
        <ele>867.4</ele>
        <time>2022-07-19T03:46:10Z</time>
      </trkpt>
      <trkpt lat="44.30296" lon="7.18124">
        <ele>867.6</ele>
        <time>2022-07-19T03:46:11Z</time>
      </trkpt>
      <trkpt lat="44.30296" lon="7.18121">
        <ele>867.6</ele>
        <time>2022-07-19T03:46:12Z</time>
      </trkpt>
      <trkpt lat="44.30295" lon="7.18118">
        <ele>868</ele>
        <time>2022-07-19T03:46:13Z</time>
      </trkpt>
      <trkpt lat="44.30295" lon="7.18114">
        <ele>868</ele>
        <time>2022-07-19T03:46:14Z</time>
      </trkpt>
      <trkpt lat="44.30295" lon="7.18111">
        <ele>868.4</ele>
        <time>2022-07-19T03:46:15Z</time>
      </trkpt>
      <trkpt lat="44.30294" lon="7.18107">
        <ele>868.4</ele>
        <time>2022-07-19T03:46:16Z</time>
      </trkpt>
      <trkpt lat="44.30294" lon="7.18103">
        <ele>868.8</ele>
        <time>2022-07-19T03:46:17Z</time>
      </trkpt>
      <trkpt lat="44.30294" lon="7.181">
        <ele>869</ele>
        <time>2022-07-19T03:46:19Z</time>
      </trkpt>
      <trkpt lat="44.30294" lon="7.18097">
        <ele>869</ele>
        <time>2022-07-19T03:46:20Z</time>
      </trkpt>
      <trkpt lat="44.30293" lon="7.18093">
        <ele>869.4</ele>
        <time>2022-07-19T03:46:21Z</time>
      </trkpt>
      <trkpt lat="44.30293" lon="7.1809">
        <ele>869.6</ele>
        <time>2022-07-19T03:46:22Z</time>
      </trkpt>
      <trkpt lat="44.30292" lon="7.18087">
        <ele>869.6</ele>
        <time>2022-07-19T03:46:23Z</time>
      </trkpt>
      <trkpt lat="44.30291" lon="7.18084">
        <ele>870</ele>
        <time>2022-07-19T03:46:24Z</time>
      </trkpt>
      <trkpt lat="44.30291" lon="7.18081">
        <ele>870</ele>
        <time>2022-07-19T03:46:25Z</time>
      </trkpt>
      <trkpt lat="44.3029" lon="7.18078">
        <ele>870.2</ele>
        <time>2022-07-19T03:46:26Z</time>
      </trkpt>
      <trkpt lat="44.3029" lon="7.18074">
        <ele>870.2</ele>
        <time>2022-07-19T03:46:27Z</time>
      </trkpt>
      <trkpt lat="44.30289" lon="7.18071">
        <ele>870.6</ele>
        <time>2022-07-19T03:46:28Z</time>
      </trkpt>
      <trkpt lat="44.30288" lon="7.18068">
        <ele>870.6</ele>
        <time>2022-07-19T03:46:29Z</time>
      </trkpt>
      <trkpt lat="44.30287" lon="7.18064">
        <ele>870.8</ele>
        <time>2022-07-19T03:46:30Z</time>
      </trkpt>
      <trkpt lat="44.30287" lon="7.18061">
        <ele>870.8</ele>
        <time>2022-07-19T03:46:31Z</time>
      </trkpt>
      <trkpt lat="44.30286" lon="7.18057">
        <ele>871.2</ele>
        <time>2022-07-19T03:46:32Z</time>
      </trkpt>
      <trkpt lat="44.30286" lon="7.18053">
        <ele>871.2</ele>
        <time>2022-07-19T03:46:33Z</time>
      </trkpt>
      <trkpt lat="44.30286" lon="7.18049">
        <ele>871.4</ele>
        <time>2022-07-19T03:46:34Z</time>
      </trkpt>
      <trkpt lat="44.30286" lon="7.18046">
        <ele>871.4</ele>
        <time>2022-07-19T03:46:35Z</time>
      </trkpt>
      <trkpt lat="44.30285" lon="7.18042">
        <ele>871.6</ele>
        <time>2022-07-19T03:46:36Z</time>
      </trkpt>
      <trkpt lat="44.30285" lon="7.18038">
        <ele>871.6</ele>
        <time>2022-07-19T03:46:37Z</time>
      </trkpt>
      <trkpt lat="44.30284" lon="7.18034">
        <ele>872</ele>
        <time>2022-07-19T03:46:38Z</time>
      </trkpt>
      <trkpt lat="44.30284" lon="7.18031">
        <ele>872</ele>
        <time>2022-07-19T03:46:39Z</time>
      </trkpt>
      <trkpt lat="44.30284" lon="7.18027">
        <ele>872.4</ele>
        <time>2022-07-19T03:46:40Z</time>
      </trkpt>
      <trkpt lat="44.30283" lon="7.18023">
        <ele>872.4</ele>
        <time>2022-07-19T03:46:41Z</time>
      </trkpt>
      <trkpt lat="44.30283" lon="7.18019">
        <ele>872.6</ele>
        <time>2022-07-19T03:46:42Z</time>
      </trkpt>
      <trkpt lat="44.30282" lon="7.18016">
        <ele>872.6</ele>
        <time>2022-07-19T03:46:43Z</time>
      </trkpt>
      <trkpt lat="44.30282" lon="7.18012">
        <ele>872.8</ele>
        <time>2022-07-19T03:46:44Z</time>
      </trkpt>
      <trkpt lat="44.30281" lon="7.18009">
        <ele>873</ele>
        <time>2022-07-19T03:46:45Z</time>
      </trkpt>
      <trkpt lat="44.30281" lon="7.18005">
        <ele>873</ele>
        <time>2022-07-19T03:46:46Z</time>
      </trkpt>
      <trkpt lat="44.3028" lon="7.18001">
        <ele>873</ele>
        <time>2022-07-19T03:46:47Z</time>
      </trkpt>
      <trkpt lat="44.3028" lon="7.17997">
        <ele>873.4</ele>
        <time>2022-07-19T03:46:48Z</time>
      </trkpt>
      <trkpt lat="44.3028" lon="7.17993">
        <ele>873.4</ele>
        <time>2022-07-19T03:46:49Z</time>
      </trkpt>
      <trkpt lat="44.30279" lon="7.1799">
        <ele>873.6</ele>
        <time>2022-07-19T03:46:50Z</time>
      </trkpt>
      <trkpt lat="44.30279" lon="7.17986">
        <ele>873.6</ele>
        <time>2022-07-19T03:46:51Z</time>
      </trkpt>
      <trkpt lat="44.30279" lon="7.17983">
        <ele>873.8</ele>
        <time>2022-07-19T03:46:52Z</time>
      </trkpt>
      <trkpt lat="44.30278" lon="7.17979">
        <ele>873.8</ele>
        <time>2022-07-19T03:46:53Z</time>
      </trkpt>
      <trkpt lat="44.30278" lon="7.17975">
        <ele>874.2</ele>
        <time>2022-07-19T03:46:54Z</time>
      </trkpt>
      <trkpt lat="44.30277" lon="7.17972">
        <ele>874.2</ele>
        <time>2022-07-19T03:46:55Z</time>
      </trkpt>
      <trkpt lat="44.30277" lon="7.17969">
        <ele>874.4</ele>
        <time>2022-07-19T03:46:56Z</time>
      </trkpt>
      <trkpt lat="44.30277" lon="7.17966">
        <ele>874.4</ele>
        <time>2022-07-19T03:46:57Z</time>
      </trkpt>
      <trkpt lat="44.30277" lon="7.17962">
        <ele>874.6</ele>
        <time>2022-07-19T03:46:58Z</time>
      </trkpt>
      <trkpt lat="44.30277" lon="7.17958">
        <ele>874.6</ele>
        <time>2022-07-19T03:46:59Z</time>
      </trkpt>
      <trkpt lat="44.30276" lon="7.17955">
        <ele>874.8</ele>
        <time>2022-07-19T03:47:00Z</time>
      </trkpt>
      <trkpt lat="44.30275" lon="7.17951">
        <ele>874.8</ele>
        <time>2022-07-19T03:47:01Z</time>
      </trkpt>
      <trkpt lat="44.30274" lon="7.17948">
        <ele>875.2</ele>
        <time>2022-07-19T03:47:02Z</time>
      </trkpt>
      <trkpt lat="44.30273" lon="7.17945">
        <ele>875.2</ele>
        <time>2022-07-19T03:47:03Z</time>
      </trkpt>
      <trkpt lat="44.30272" lon="7.17941">
        <ele>875.4</ele>
        <time>2022-07-19T03:47:04Z</time>
      </trkpt>
      <trkpt lat="44.30272" lon="7.17938">
        <ele>875.4</ele>
        <time>2022-07-19T03:47:05Z</time>
      </trkpt>
      <trkpt lat="44.30271" lon="7.17934">
        <ele>875.4</ele>
        <time>2022-07-19T03:47:06Z</time>
      </trkpt>
      <trkpt lat="44.30271" lon="7.17931">
        <ele>875.8</ele>
        <time>2022-07-19T03:47:07Z</time>
      </trkpt>
      <trkpt lat="44.30271" lon="7.17927">
        <ele>875.8</ele>
        <time>2022-07-19T03:47:08Z</time>
      </trkpt>
      <trkpt lat="44.30271" lon="7.17923">
        <ele>876</ele>
        <time>2022-07-19T03:47:09Z</time>
      </trkpt>
      <trkpt lat="44.30271" lon="7.1792">
        <ele>876</ele>
        <time>2022-07-19T03:47:10Z</time>
      </trkpt>
      <trkpt lat="44.30272" lon="7.17916">
        <ele>876.4</ele>
        <time>2022-07-19T03:47:11Z</time>
      </trkpt>
      <trkpt lat="44.30271" lon="7.17913">
        <ele>876.4</ele>
        <time>2022-07-19T03:47:12Z</time>
      </trkpt>
      <trkpt lat="44.30271" lon="7.1791">
        <ele>876.4</ele>
        <time>2022-07-19T03:47:13Z</time>
      </trkpt>
      <trkpt lat="44.30271" lon="7.17906">
        <ele>876.6</ele>
        <time>2022-07-19T03:47:14Z</time>
      </trkpt>
      <trkpt lat="44.30271" lon="7.17903">
        <ele>876.6</ele>
        <time>2022-07-19T03:47:15Z</time>
      </trkpt>
      <trkpt lat="44.3027" lon="7.17899">
        <ele>877</ele>
        <time>2022-07-19T03:47:16Z</time>
      </trkpt>
      <trkpt lat="44.3027" lon="7.17895">
        <ele>877</ele>
        <time>2022-07-19T03:47:17Z</time>
      </trkpt>
      <trkpt lat="44.3027" lon="7.17891">
        <ele>877.2</ele>
        <time>2022-07-19T03:47:18Z</time>
      </trkpt>
      <trkpt lat="44.30269" lon="7.17887">
        <ele>877.2</ele>
        <time>2022-07-19T03:47:19Z</time>
      </trkpt>
      <trkpt lat="44.30269" lon="7.17884">
        <ele>877.4</ele>
        <time>2022-07-19T03:47:20Z</time>
      </trkpt>
      <trkpt lat="44.30268" lon="7.1788">
        <ele>877.4</ele>
        <time>2022-07-19T03:47:21Z</time>
      </trkpt>
      <trkpt lat="44.30267" lon="7.17877">
        <ele>877.8</ele>
        <time>2022-07-19T03:47:22Z</time>
      </trkpt>
      <trkpt lat="44.30265" lon="7.17874">
        <ele>877.8</ele>
        <time>2022-07-19T03:47:23Z</time>
      </trkpt>
      <trkpt lat="44.30264" lon="7.17871">
        <ele>878</ele>
        <time>2022-07-19T03:47:24Z</time>
      </trkpt>
      <trkpt lat="44.30263" lon="7.17867">
        <ele>878</ele>
        <time>2022-07-19T03:47:25Z</time>
      </trkpt>
      <trkpt lat="44.30263" lon="7.17864">
        <ele>878.4</ele>
        <time>2022-07-19T03:47:26Z</time>
      </trkpt>
      <trkpt lat="44.30262" lon="7.1786">
        <ele>878.4</ele>
        <time>2022-07-19T03:47:27Z</time>
      </trkpt>
      <trkpt lat="44.30261" lon="7.17856">
        <ele>878.8</ele>
        <time>2022-07-19T03:47:28Z</time>
      </trkpt>
      <trkpt lat="44.30261" lon="7.17853">
        <ele>879</ele>
        <time>2022-07-19T03:47:29Z</time>
      </trkpt>
      <trkpt lat="44.30261" lon="7.1785">
        <ele>879.4</ele>
        <time>2022-07-19T03:47:30Z</time>
      </trkpt>
      <trkpt lat="44.3026" lon="7.17847">
        <ele>879.4</ele>
        <time>2022-07-19T03:47:31Z</time>
      </trkpt>
      <trkpt lat="44.3026" lon="7.17843">
        <ele>879.8</ele>
        <time>2022-07-19T03:47:32Z</time>
      </trkpt>
      <trkpt lat="44.3026" lon="7.1784">
        <ele>880</ele>
        <time>2022-07-19T03:47:33Z</time>
      </trkpt>
      <trkpt lat="44.3026" lon="7.17836">
        <ele>880.2</ele>
        <time>2022-07-19T03:47:34Z</time>
      </trkpt>
      <trkpt lat="44.30259" lon="7.17833">
        <ele>880.4</ele>
        <time>2022-07-19T03:47:35Z</time>
      </trkpt>
      <trkpt lat="44.30258" lon="7.1783">
        <ele>880.6</ele>
        <time>2022-07-19T03:47:36Z</time>
      </trkpt>
      <trkpt lat="44.30257" lon="7.17827">
        <ele>880.8</ele>
        <time>2022-07-19T03:47:37Z</time>
      </trkpt>
      <trkpt lat="44.30256" lon="7.17824">
        <ele>881</ele>
        <time>2022-07-19T03:47:38Z</time>
      </trkpt>
      <trkpt lat="44.30255" lon="7.17821">
        <ele>881</ele>
        <time>2022-07-19T03:47:39Z</time>
      </trkpt>
      <trkpt lat="44.30254" lon="7.17818">
        <ele>881.4</ele>
        <time>2022-07-19T03:47:40Z</time>
      </trkpt>
      <trkpt lat="44.30253" lon="7.17816">
        <ele>881.4</ele>
        <time>2022-07-19T03:47:41Z</time>
      </trkpt>
      <trkpt lat="44.30252" lon="7.17812">
        <ele>881.8</ele>
        <time>2022-07-19T03:47:42Z</time>
      </trkpt>
      <trkpt lat="44.30252" lon="7.17809">
        <ele>881.8</ele>
        <time>2022-07-19T03:47:43Z</time>
      </trkpt>
      <trkpt lat="44.30252" lon="7.17806">
        <ele>882</ele>
        <time>2022-07-19T03:47:44Z</time>
      </trkpt>
      <trkpt lat="44.30251" lon="7.17802">
        <ele>882</ele>
        <time>2022-07-19T03:47:45Z</time>
      </trkpt>
      <trkpt lat="44.3025" lon="7.17799">
        <ele>882.4</ele>
        <time>2022-07-19T03:47:46Z</time>
      </trkpt>
      <trkpt lat="44.3025" lon="7.17796">
        <ele>882.4</ele>
        <time>2022-07-19T03:47:47Z</time>
      </trkpt>
      <trkpt lat="44.3025" lon="7.17791">
        <ele>882.8</ele>
        <time>2022-07-19T03:47:48Z</time>
      </trkpt>
      <trkpt lat="44.3025" lon="7.17787">
        <ele>882.8</ele>
        <time>2022-07-19T03:47:49Z</time>
      </trkpt>
      <trkpt lat="44.30249" lon="7.17783">
        <ele>883</ele>
        <time>2022-07-19T03:47:50Z</time>
      </trkpt>
      <trkpt lat="44.30249" lon="7.17779">
        <ele>883</ele>
        <time>2022-07-19T03:47:51Z</time>
      </trkpt>
      <trkpt lat="44.30248" lon="7.17775">
        <ele>883</ele>
        <time>2022-07-19T03:47:52Z</time>
      </trkpt>
      <trkpt lat="44.30247" lon="7.17771">
        <ele>883.2</ele>
        <time>2022-07-19T03:47:53Z</time>
      </trkpt>
      <trkpt lat="44.30246" lon="7.17766">
        <ele>883.2</ele>
        <time>2022-07-19T03:47:54Z</time>
      </trkpt>
      <trkpt lat="44.30244" lon="7.17762">
        <ele>883.2</ele>
        <time>2022-07-19T03:47:55Z</time>
      </trkpt>
      <trkpt lat="44.30244" lon="7.17757">
        <ele>883.4</ele>
        <time>2022-07-19T03:47:56Z</time>
      </trkpt>
      <trkpt lat="44.30244" lon="7.17752">
        <ele>883.4</ele>
        <time>2022-07-19T03:47:57Z</time>
      </trkpt>
      <trkpt lat="44.30244" lon="7.17747">
        <ele>883.4</ele>
        <time>2022-07-19T03:47:58Z</time>
      </trkpt>
      <trkpt lat="44.30243" lon="7.17742">
        <ele>883.4</ele>
        <time>2022-07-19T03:47:59Z</time>
      </trkpt>
      <trkpt lat="44.30243" lon="7.17737">
        <ele>883.8</ele>
        <time>2022-07-19T03:48:00Z</time>
      </trkpt>
      <trkpt lat="44.30243" lon="7.17732">
        <ele>883.8</ele>
        <time>2022-07-19T03:48:01Z</time>
      </trkpt>
      <trkpt lat="44.30243" lon="7.17727">
        <ele>883.8</ele>
        <time>2022-07-19T03:48:02Z</time>
      </trkpt>
      <trkpt lat="44.30242" lon="7.17722">
        <ele>883.8</ele>
        <time>2022-07-19T03:48:03Z</time>
      </trkpt>
      <trkpt lat="44.30242" lon="7.17718">
        <ele>883.8</ele>
        <time>2022-07-19T03:48:04Z</time>
      </trkpt>
      <trkpt lat="44.30241" lon="7.17713">
        <ele>883.4</ele>
        <time>2022-07-19T03:48:05Z</time>
      </trkpt>
      <trkpt lat="44.30241" lon="7.17707">
        <ele>883.4</ele>
        <time>2022-07-19T03:48:06Z</time>
      </trkpt>
      <trkpt lat="44.3024" lon="7.17702">
        <ele>883</ele>
        <time>2022-07-19T03:48:07Z</time>
      </trkpt>
      <trkpt lat="44.3024" lon="7.17696">
        <ele>883</ele>
        <time>2022-07-19T03:48:08Z</time>
      </trkpt>
      <trkpt lat="44.30239" lon="7.17689">
        <ele>882.8</ele>
        <time>2022-07-19T03:48:09Z</time>
      </trkpt>
      <trkpt lat="44.30238" lon="7.17683">
        <ele>882.4</ele>
        <time>2022-07-19T03:48:10Z</time>
      </trkpt>
      <trkpt lat="44.30235" lon="7.17677">
        <ele>882.2</ele>
        <time>2022-07-19T03:48:11Z</time>
      </trkpt>
      <trkpt lat="44.30232" lon="7.17671">
        <ele>882</ele>
        <time>2022-07-19T03:48:12Z</time>
      </trkpt>
      <trkpt lat="44.30228" lon="7.17664">
        <ele>881.4</ele>
        <time>2022-07-19T03:48:13Z</time>
      </trkpt>
      <trkpt lat="44.30225" lon="7.17656">
        <ele>881.2</ele>
        <time>2022-07-19T03:48:14Z</time>
      </trkpt>
      <trkpt lat="44.30224" lon="7.17647">
        <ele>880.6</ele>
        <time>2022-07-19T03:48:15Z</time>
      </trkpt>
      <trkpt lat="44.30223" lon="7.17638">
        <ele>880.4</ele>
        <time>2022-07-19T03:48:16Z</time>
      </trkpt>
      <trkpt lat="44.30222" lon="7.17629">
        <ele>880</ele>
        <time>2022-07-19T03:48:17Z</time>
      </trkpt>
      <trkpt lat="44.3022" lon="7.1762">
        <ele>879.8</ele>
        <time>2022-07-19T03:48:18Z</time>
      </trkpt>
      <trkpt lat="44.30219" lon="7.17612">
        <ele>879.6</ele>
        <time>2022-07-19T03:48:19Z</time>
      </trkpt>
      <trkpt lat="44.30217" lon="7.17604">
        <ele>879.6</ele>
        <time>2022-07-19T03:48:20Z</time>
      </trkpt>
      <trkpt lat="44.30216" lon="7.17597">
        <ele>879.2</ele>
        <time>2022-07-19T03:48:21Z</time>
      </trkpt>
      <trkpt lat="44.30217" lon="7.17589">
        <ele>879</ele>
        <time>2022-07-19T03:48:22Z</time>
      </trkpt>
      <trkpt lat="44.30218" lon="7.17583">
        <ele>878.6</ele>
        <time>2022-07-19T03:48:23Z</time>
      </trkpt>
      <trkpt lat="44.3022" lon="7.17576">
        <ele>878.4</ele>
        <time>2022-07-19T03:48:24Z</time>
      </trkpt>
      <trkpt lat="44.3022" lon="7.17568">
        <ele>878</ele>
        <time>2022-07-19T03:48:25Z</time>
      </trkpt>
      <trkpt lat="44.3022" lon="7.17559">
        <ele>877.6</ele>
        <time>2022-07-19T03:48:26Z</time>
      </trkpt>
      <trkpt lat="44.30219" lon="7.17549">
        <ele>877.2</ele>
        <time>2022-07-19T03:48:27Z</time>
      </trkpt>
      <trkpt lat="44.30218" lon="7.17539">
        <ele>876.8</ele>
        <time>2022-07-19T03:48:28Z</time>
      </trkpt>
      <trkpt lat="44.30217" lon="7.17528">
        <ele>876.4</ele>
        <time>2022-07-19T03:48:29Z</time>
      </trkpt>
      <trkpt lat="44.30217" lon="7.17516">
        <ele>876</ele>
        <time>2022-07-19T03:48:30Z</time>
      </trkpt>
      <trkpt lat="44.30217" lon="7.17504">
        <ele>875.6</ele>
        <time>2022-07-19T03:48:31Z</time>
      </trkpt>
      <trkpt lat="44.30218" lon="7.17493">
        <ele>875.2</ele>
        <time>2022-07-19T03:48:32Z</time>
      </trkpt>
      <trkpt lat="44.30219" lon="7.17482">
        <ele>875</ele>
        <time>2022-07-19T03:48:33Z</time>
      </trkpt>
      <trkpt lat="44.30219" lon="7.17473">
        <ele>874.6</ele>
        <time>2022-07-19T03:48:34Z</time>
      </trkpt>
      <trkpt lat="44.3022" lon="7.17464">
        <ele>874.4</ele>
        <time>2022-07-19T03:48:35Z</time>
      </trkpt>
      <trkpt lat="44.30219" lon="7.17455">
        <ele>874</ele>
        <time>2022-07-19T03:48:36Z</time>
      </trkpt>
      <trkpt lat="44.30219" lon="7.17446">
        <ele>873.6</ele>
        <time>2022-07-19T03:48:37Z</time>
      </trkpt>
      <trkpt lat="44.30217" lon="7.17436">
        <ele>873</ele>
        <time>2022-07-19T03:48:38Z</time>
      </trkpt>
      <trkpt lat="44.30216" lon="7.17426">
        <ele>872.6</ele>
        <time>2022-07-19T03:48:39Z</time>
      </trkpt>
      <trkpt lat="44.30215" lon="7.17415">
        <ele>872.4</ele>
        <time>2022-07-19T03:48:40Z</time>
      </trkpt>
      <trkpt lat="44.30213" lon="7.17404">
        <ele>872</ele>
        <time>2022-07-19T03:48:41Z</time>
      </trkpt>
      <trkpt lat="44.30211" lon="7.17393">
        <ele>871.8</ele>
        <time>2022-07-19T03:48:42Z</time>
      </trkpt>
      <trkpt lat="44.30208" lon="7.17383">
        <ele>871.6</ele>
        <time>2022-07-19T03:48:43Z</time>
      </trkpt>
      <trkpt lat="44.30206" lon="7.17375">
        <ele>871.6</ele>
        <time>2022-07-19T03:48:44Z</time>
      </trkpt>
      <trkpt lat="44.30204" lon="7.17367">
        <ele>871.2</ele>
        <time>2022-07-19T03:48:45Z</time>
      </trkpt>
      <trkpt lat="44.30204" lon="7.1736">
        <ele>871.2</ele>
        <time>2022-07-19T03:48:46Z</time>
      </trkpt>
      <trkpt lat="44.30205" lon="7.17351">
        <ele>871.2</ele>
        <time>2022-07-19T03:48:47Z</time>
      </trkpt>
      <trkpt lat="44.30205" lon="7.17343">
        <ele>871.2</ele>
        <time>2022-07-19T03:48:48Z</time>
      </trkpt>
      <trkpt lat="44.30205" lon="7.17336">
        <ele>871.2</ele>
        <time>2022-07-19T03:48:49Z</time>
      </trkpt>
      <trkpt lat="44.30205" lon="7.17327">
        <ele>871</ele>
        <time>2022-07-19T03:48:50Z</time>
      </trkpt>
      <trkpt lat="44.30204" lon="7.17319">
        <ele>871</ele>
        <time>2022-07-19T03:48:51Z</time>
      </trkpt>
      <trkpt lat="44.30203" lon="7.1731">
        <ele>871</ele>
        <time>2022-07-19T03:48:52Z</time>
      </trkpt>
      <trkpt lat="44.30203" lon="7.17302">
        <ele>871</ele>
        <time>2022-07-19T03:48:53Z</time>
      </trkpt>
      <trkpt lat="44.30203" lon="7.17294">
        <ele>871</ele>
        <time>2022-07-19T03:48:54Z</time>
      </trkpt>
      <trkpt lat="44.30202" lon="7.17286">
        <ele>871</ele>
        <time>2022-07-19T03:48:55Z</time>
      </trkpt>
      <trkpt lat="44.30201" lon="7.17278">
        <ele>871</ele>
        <time>2022-07-19T03:48:56Z</time>
      </trkpt>
      <trkpt lat="44.302" lon="7.1727">
        <ele>871</ele>
        <time>2022-07-19T03:48:57Z</time>
      </trkpt>
      <trkpt lat="44.30199" lon="7.17263">
        <ele>871</ele>
        <time>2022-07-19T03:48:58Z</time>
      </trkpt>
      <trkpt lat="44.30198" lon="7.17256">
        <ele>871</ele>
        <time>2022-07-19T03:48:59Z</time>
      </trkpt>
      <trkpt lat="44.30197" lon="7.17248">
        <ele>871</ele>
        <time>2022-07-19T03:49:00Z</time>
      </trkpt>
      <trkpt lat="44.30196" lon="7.1724">
        <ele>871</ele>
        <time>2022-07-19T03:49:01Z</time>
      </trkpt>
      <trkpt lat="44.30196" lon="7.17233">
        <ele>870.8</ele>
        <time>2022-07-19T03:49:02Z</time>
      </trkpt>
      <trkpt lat="44.30196" lon="7.17225">
        <ele>870.8</ele>
        <time>2022-07-19T03:49:03Z</time>
      </trkpt>
      <trkpt lat="44.30196" lon="7.17217">
        <ele>870.8</ele>
        <time>2022-07-19T03:49:04Z</time>
      </trkpt>
      <trkpt lat="44.30196" lon="7.1721">
        <ele>870.6</ele>
        <time>2022-07-19T03:49:05Z</time>
      </trkpt>
      <trkpt lat="44.30197" lon="7.17201">
        <ele>870.6</ele>
        <time>2022-07-19T03:49:06Z</time>
      </trkpt>
      <trkpt lat="44.30197" lon="7.17193">
        <ele>870.6</ele>
        <time>2022-07-19T03:49:07Z</time>
      </trkpt>
      <trkpt lat="44.30197" lon="7.17185">
        <ele>870.2</ele>
        <time>2022-07-19T03:49:08Z</time>
      </trkpt>
      <trkpt lat="44.30196" lon="7.17176">
        <ele>870.2</ele>
        <time>2022-07-19T03:49:09Z</time>
      </trkpt>
      <trkpt lat="44.30196" lon="7.17168">
        <ele>870</ele>
        <time>2022-07-19T03:49:10Z</time>
      </trkpt>
      <trkpt lat="44.30196" lon="7.1716">
        <ele>869.8</ele>
        <time>2022-07-19T03:49:11Z</time>
      </trkpt>
      <trkpt lat="44.30196" lon="7.17151">
        <ele>869.6</ele>
        <time>2022-07-19T03:49:12Z</time>
      </trkpt>
      <trkpt lat="44.30196" lon="7.17142">
        <ele>869.2</ele>
        <time>2022-07-19T03:49:13Z</time>
      </trkpt>
      <trkpt lat="44.30196" lon="7.17132">
        <ele>869</ele>
        <time>2022-07-19T03:49:14Z</time>
      </trkpt>
      <trkpt lat="44.30197" lon="7.17122">
        <ele>868.8</ele>
        <time>2022-07-19T03:49:15Z</time>
      </trkpt>
      <trkpt lat="44.30197" lon="7.17112">
        <ele>868.4</ele>
        <time>2022-07-19T03:49:16Z</time>
      </trkpt>
      <trkpt lat="44.30196" lon="7.17101">
        <ele>868.2</ele>
        <time>2022-07-19T03:49:17Z</time>
      </trkpt>
      <trkpt lat="44.30195" lon="7.1709">
        <ele>867.8</ele>
        <time>2022-07-19T03:49:18Z</time>
      </trkpt>
      <trkpt lat="44.30194" lon="7.17079">
        <ele>867.4</ele>
        <time>2022-07-19T03:49:19Z</time>
      </trkpt>
      <trkpt lat="44.30193" lon="7.17069">
        <ele>867</ele>
        <time>2022-07-19T03:49:20Z</time>
      </trkpt>
      <trkpt lat="44.30191" lon="7.17059">
        <ele>866.6</ele>
        <time>2022-07-19T03:49:21Z</time>
      </trkpt>
      <trkpt lat="44.3019" lon="7.17049">
        <ele>866.2</ele>
        <time>2022-07-19T03:49:22Z</time>
      </trkpt>
      <trkpt lat="44.30188" lon="7.17039">
        <ele>866</ele>
        <time>2022-07-19T03:49:23Z</time>
      </trkpt>
      <trkpt lat="44.30187" lon="7.17028">
        <ele>865.6</ele>
        <time>2022-07-19T03:49:24Z</time>
      </trkpt>
      <trkpt lat="44.30187" lon="7.17017">
        <ele>865.2</ele>
        <time>2022-07-19T03:49:25Z</time>
      </trkpt>
      <trkpt lat="44.30188" lon="7.17005">
        <ele>864.6</ele>
        <time>2022-07-19T03:49:26Z</time>
      </trkpt>
      <trkpt lat="44.30188" lon="7.16993">
        <ele>864</ele>
        <time>2022-07-19T03:49:27Z</time>
      </trkpt>
      <trkpt lat="44.30188" lon="7.1698">
        <ele>863.4</ele>
        <time>2022-07-19T03:49:28Z</time>
      </trkpt>
      <trkpt lat="44.30188" lon="7.16967">
        <ele>862.6</ele>
        <time>2022-07-19T03:49:29Z</time>
      </trkpt>
      <trkpt lat="44.30189" lon="7.16954">
        <ele>862.2</ele>
        <time>2022-07-19T03:49:30Z</time>
      </trkpt>
      <trkpt lat="44.3019" lon="7.16942">
        <ele>861.8</ele>
        <time>2022-07-19T03:49:31Z</time>
      </trkpt>
      <trkpt lat="44.30192" lon="7.16931">
        <ele>861.8</ele>
        <time>2022-07-19T03:49:32Z</time>
      </trkpt>
      <trkpt lat="44.30195" lon="7.1692">
        <ele>861.6</ele>
        <time>2022-07-19T03:49:33Z</time>
      </trkpt>
      <trkpt lat="44.30196" lon="7.16911">
        <ele>861.6</ele>
        <time>2022-07-19T03:49:34Z</time>
      </trkpt>
      <trkpt lat="44.30197" lon="7.16901">
        <ele>861.6</ele>
        <time>2022-07-19T03:49:35Z</time>
      </trkpt>
      <trkpt lat="44.30197" lon="7.16892">
        <ele>861.8</ele>
        <time>2022-07-19T03:49:36Z</time>
      </trkpt>
      <trkpt lat="44.30197" lon="7.16884">
        <ele>861.8</ele>
        <time>2022-07-19T03:49:37Z</time>
      </trkpt>
      <trkpt lat="44.30196" lon="7.16875">
        <ele>862.2</ele>
        <time>2022-07-19T03:49:38Z</time>
      </trkpt>
      <trkpt lat="44.30195" lon="7.16868">
        <ele>862.2</ele>
        <time>2022-07-19T03:49:39Z</time>
      </trkpt>
      <trkpt lat="44.30194" lon="7.16861">
        <ele>862.6</ele>
        <time>2022-07-19T03:49:40Z</time>
      </trkpt>
      <trkpt lat="44.30193" lon="7.16854">
        <ele>862.6</ele>
        <time>2022-07-19T03:49:41Z</time>
      </trkpt>
      <trkpt lat="44.30192" lon="7.16847">
        <ele>863</ele>
        <time>2022-07-19T03:49:42Z</time>
      </trkpt>
      <trkpt lat="44.30191" lon="7.16841">
        <ele>863</ele>
        <time>2022-07-19T03:49:43Z</time>
      </trkpt>
      <trkpt lat="44.3019" lon="7.16835">
        <ele>863.2</ele>
        <time>2022-07-19T03:49:44Z</time>
      </trkpt>
      <trkpt lat="44.30189" lon="7.16829">
        <ele>863.2</ele>
        <time>2022-07-19T03:49:45Z</time>
      </trkpt>
      <trkpt lat="44.30189" lon="7.16823">
        <ele>863.6</ele>
        <time>2022-07-19T03:49:46Z</time>
      </trkpt>
      <trkpt lat="44.30189" lon="7.16817">
        <ele>863.8</ele>
        <time>2022-07-19T03:49:47Z</time>
      </trkpt>
      <trkpt lat="44.3019" lon="7.16812">
        <ele>863.8</ele>
        <time>2022-07-19T03:49:48Z</time>
      </trkpt>
      <trkpt lat="44.30191" lon="7.16807">
        <ele>864</ele>
        <time>2022-07-19T03:49:49Z</time>
      </trkpt>
      <trkpt lat="44.30191" lon="7.16802">
        <ele>864</ele>
        <time>2022-07-19T03:49:50Z</time>
      </trkpt>
      <trkpt lat="44.30192" lon="7.16797">
        <ele>864.2</ele>
        <time>2022-07-19T03:49:51Z</time>
      </trkpt>
      <trkpt lat="44.30192" lon="7.16792">
        <ele>864.2</ele>
        <time>2022-07-19T03:49:52Z</time>
      </trkpt>
      <trkpt lat="44.30193" lon="7.16786">
        <ele>864.4</ele>
        <time>2022-07-19T03:49:53Z</time>
      </trkpt>
      <trkpt lat="44.30192" lon="7.1678">
        <ele>864.4</ele>
        <time>2022-07-19T03:49:54Z</time>
      </trkpt>
      <trkpt lat="44.3019" lon="7.16774">
        <ele>864.8</ele>
        <time>2022-07-19T03:49:55Z</time>
      </trkpt>
      <trkpt lat="44.30189" lon="7.16768">
        <ele>864.8</ele>
        <time>2022-07-19T03:49:56Z</time>
      </trkpt>
      <trkpt lat="44.30187" lon="7.16761">
        <ele>864.8</ele>
        <time>2022-07-19T03:49:57Z</time>
      </trkpt>
      <trkpt lat="44.30185" lon="7.16755">
        <ele>865</ele>
        <time>2022-07-19T03:49:58Z</time>
      </trkpt>
      <trkpt lat="44.30183" lon="7.16749">
        <ele>865</ele>
        <time>2022-07-19T03:49:59Z</time>
      </trkpt>
      <trkpt lat="44.30181" lon="7.16743">
        <ele>865</ele>
        <time>2022-07-19T03:50:00Z</time>
      </trkpt>
      <trkpt lat="44.30179" lon="7.16737">
        <ele>865</ele>
        <time>2022-07-19T03:50:01Z</time>
      </trkpt>
      <trkpt lat="44.30177" lon="7.16731">
        <ele>865.4</ele>
        <time>2022-07-19T03:50:02Z</time>
      </trkpt>
      <trkpt lat="44.30176" lon="7.16725">
        <ele>865.4</ele>
        <time>2022-07-19T03:50:03Z</time>
      </trkpt>
      <trkpt lat="44.30175" lon="7.1672">
        <ele>865.6</ele>
        <time>2022-07-19T03:50:04Z</time>
      </trkpt>
      <trkpt lat="44.30173" lon="7.16714">
        <ele>865.6</ele>
        <time>2022-07-19T03:50:05Z</time>
      </trkpt>
      <trkpt lat="44.30172" lon="7.16708">
        <ele>865.8</ele>
        <time>2022-07-19T03:50:06Z</time>
      </trkpt>
      <trkpt lat="44.30171" lon="7.16703">
        <ele>865.8</ele>
        <time>2022-07-19T03:50:07Z</time>
      </trkpt>
      <trkpt lat="44.3017" lon="7.16698">
        <ele>866.2</ele>
        <time>2022-07-19T03:50:08Z</time>
      </trkpt>
      <trkpt lat="44.30169" lon="7.16694">
        <ele>866.4</ele>
        <time>2022-07-19T03:50:09Z</time>
      </trkpt>
      <trkpt lat="44.30168" lon="7.16689">
        <ele>866.6</ele>
        <time>2022-07-19T03:50:10Z</time>
      </trkpt>
      <trkpt lat="44.30166" lon="7.16684">
        <ele>866.6</ele>
        <time>2022-07-19T03:50:11Z</time>
      </trkpt>
      <trkpt lat="44.30164" lon="7.16679">
        <ele>866.8</ele>
        <time>2022-07-19T03:50:12Z</time>
      </trkpt>
      <trkpt lat="44.30163" lon="7.16674">
        <ele>866.8</ele>
        <time>2022-07-19T03:50:13Z</time>
      </trkpt>
      <trkpt lat="44.30162" lon="7.16669">
        <ele>867</ele>
        <time>2022-07-19T03:50:14Z</time>
      </trkpt>
      <trkpt lat="44.30161" lon="7.16664">
        <ele>867</ele>
        <time>2022-07-19T03:50:15Z</time>
      </trkpt>
      <trkpt lat="44.30159" lon="7.1666">
        <ele>867.4</ele>
        <time>2022-07-19T03:50:16Z</time>
      </trkpt>
      <trkpt lat="44.30158" lon="7.16656">
        <ele>867.6</ele>
        <time>2022-07-19T03:50:17Z</time>
      </trkpt>
      <trkpt lat="44.30157" lon="7.16652">
        <ele>867.8</ele>
        <time>2022-07-19T03:50:18Z</time>
      </trkpt>
      <trkpt lat="44.30156" lon="7.16647">
        <ele>867.8</ele>
        <time>2022-07-19T03:50:19Z</time>
      </trkpt>
      <trkpt lat="44.30155" lon="7.16643">
        <ele>868.2</ele>
        <time>2022-07-19T03:50:20Z</time>
      </trkpt>
      <trkpt lat="44.30154" lon="7.16639">
        <ele>868.2</ele>
        <time>2022-07-19T03:50:21Z</time>
      </trkpt>
      <trkpt lat="44.30153" lon="7.16635">
        <ele>868.6</ele>
        <time>2022-07-19T03:50:22Z</time>
      </trkpt>
      <trkpt lat="44.30152" lon="7.16631">
        <ele>868.6</ele>
        <time>2022-07-19T03:50:23Z</time>
      </trkpt>
      <trkpt lat="44.30152" lon="7.16626">
        <ele>868.8</ele>
        <time>2022-07-19T03:50:24Z</time>
      </trkpt>
      <trkpt lat="44.30151" lon="7.16621">
        <ele>869</ele>
        <time>2022-07-19T03:50:25Z</time>
      </trkpt>
      <trkpt lat="44.3015" lon="7.16617">
        <ele>869.4</ele>
        <time>2022-07-19T03:50:26Z</time>
      </trkpt>
      <trkpt lat="44.3015" lon="7.16613">
        <ele>869.6</ele>
        <time>2022-07-19T03:50:27Z</time>
      </trkpt>
      <trkpt lat="44.3015" lon="7.16608">
        <ele>869.6</ele>
        <time>2022-07-19T03:50:28Z</time>
      </trkpt>
      <trkpt lat="44.30149" lon="7.16604">
        <ele>869.8</ele>
        <time>2022-07-19T03:50:29Z</time>
      </trkpt>
      <trkpt lat="44.30148" lon="7.166">
        <ele>870</ele>
        <time>2022-07-19T03:50:30Z</time>
      </trkpt>
      <trkpt lat="44.30147" lon="7.16595">
        <ele>870</ele>
        <time>2022-07-19T03:50:31Z</time>
      </trkpt>
      <trkpt lat="44.30146" lon="7.16591">
        <ele>870.2</ele>
        <time>2022-07-19T03:50:32Z</time>
      </trkpt>
      <trkpt lat="44.30145" lon="7.16586">
        <ele>870.2</ele>
        <time>2022-07-19T03:50:33Z</time>
      </trkpt>
      <trkpt lat="44.30144" lon="7.16582">
        <ele>870.6</ele>
        <time>2022-07-19T03:50:34Z</time>
      </trkpt>
      <trkpt lat="44.30143" lon="7.16577">
        <ele>870.6</ele>
        <time>2022-07-19T03:50:35Z</time>
      </trkpt>
      <trkpt lat="44.30143" lon="7.16573">
        <ele>871</ele>
        <time>2022-07-19T03:50:36Z</time>
      </trkpt>
      <trkpt lat="44.30143" lon="7.16569">
        <ele>871.2</ele>
        <time>2022-07-19T03:50:37Z</time>
      </trkpt>
      <trkpt lat="44.30143" lon="7.16564">
        <ele>871.2</ele>
        <time>2022-07-19T03:50:38Z</time>
      </trkpt>
      <trkpt lat="44.30143" lon="7.1656">
        <ele>871.4</ele>
        <time>2022-07-19T03:50:39Z</time>
      </trkpt>
      <trkpt lat="44.30143" lon="7.16555">
        <ele>871.6</ele>
        <time>2022-07-19T03:50:40Z</time>
      </trkpt>
      <trkpt lat="44.30143" lon="7.1655">
        <ele>871.6</ele>
        <time>2022-07-19T03:50:41Z</time>
      </trkpt>
      <trkpt lat="44.30144" lon="7.16546">
        <ele>872.2</ele>
        <time>2022-07-19T03:50:42Z</time>
      </trkpt>
      <trkpt lat="44.30144" lon="7.16542">
        <ele>872.4</ele>
        <time>2022-07-19T03:50:43Z</time>
      </trkpt>
      <trkpt lat="44.30144" lon="7.16538">
        <ele>872.4</ele>
        <time>2022-07-19T03:50:44Z</time>
      </trkpt>
      <trkpt lat="44.30144" lon="7.16533">
        <ele>872.6</ele>
        <time>2022-07-19T03:50:45Z</time>
      </trkpt>
      <trkpt lat="44.30143" lon="7.16529">
        <ele>872.8</ele>
        <time>2022-07-19T03:50:46Z</time>
      </trkpt>
      <trkpt lat="44.30143" lon="7.16525">
        <ele>872.8</ele>
        <time>2022-07-19T03:50:47Z</time>
      </trkpt>
      <trkpt lat="44.30143" lon="7.16521">
        <ele>873.2</ele>
        <time>2022-07-19T03:50:48Z</time>
      </trkpt>
      <trkpt lat="44.30143" lon="7.16516">
        <ele>873.2</ele>
        <time>2022-07-19T03:50:49Z</time>
      </trkpt>
      <trkpt lat="44.30143" lon="7.16512">
        <ele>873.6</ele>
        <time>2022-07-19T03:50:50Z</time>
      </trkpt>
      <trkpt lat="44.30143" lon="7.16507">
        <ele>873.8</ele>
        <time>2022-07-19T03:50:51Z</time>
      </trkpt>
      <trkpt lat="44.30143" lon="7.16503">
        <ele>873.8</ele>
        <time>2022-07-19T03:50:52Z</time>
      </trkpt>
      <trkpt lat="44.30143" lon="7.16498">
        <ele>874.2</ele>
        <time>2022-07-19T03:50:53Z</time>
      </trkpt>
      <trkpt lat="44.30143" lon="7.16494">
        <ele>874.2</ele>
        <time>2022-07-19T03:50:54Z</time>
      </trkpt>
      <trkpt lat="44.30143" lon="7.16485">
        <ele>874.4</ele>
        <time>2022-07-19T03:50:55Z</time>
      </trkpt>
      <trkpt lat="44.30143" lon="7.1648">
        <ele>874.4</ele>
        <time>2022-07-19T03:50:56Z</time>
      </trkpt>
      <trkpt lat="44.30144" lon="7.16476">
        <ele>874.6</ele>
        <time>2022-07-19T03:50:57Z</time>
      </trkpt>
      <trkpt lat="44.30144" lon="7.16471">
        <ele>875</ele>
        <time>2022-07-19T03:50:58Z</time>
      </trkpt>
      <trkpt lat="44.30144" lon="7.16467">
        <ele>875</ele>
        <time>2022-07-19T03:50:59Z</time>
      </trkpt>
      <trkpt lat="44.30143" lon="7.16462">
        <ele>875.2</ele>
        <time>2022-07-19T03:51:00Z</time>
      </trkpt>
      <trkpt lat="44.30143" lon="7.16458">
        <ele>875.2</ele>
        <time>2022-07-19T03:51:01Z</time>
      </trkpt>
      <trkpt lat="44.30143" lon="7.16454">
        <ele>875.6</ele>
        <time>2022-07-19T03:51:02Z</time>
      </trkpt>
      <trkpt lat="44.30142" lon="7.1645">
        <ele>875.6</ele>
        <time>2022-07-19T03:51:03Z</time>
      </trkpt>
      <trkpt lat="44.30142" lon="7.16446">
        <ele>876</ele>
        <time>2022-07-19T03:51:04Z</time>
      </trkpt>
      <trkpt lat="44.30141" lon="7.16442">
        <ele>876</ele>
        <time>2022-07-19T03:51:05Z</time>
      </trkpt>
      <trkpt lat="44.30141" lon="7.16438">
        <ele>876.2</ele>
        <time>2022-07-19T03:51:06Z</time>
      </trkpt>
      <trkpt lat="44.3014" lon="7.16434">
        <ele>876.2</ele>
        <time>2022-07-19T03:51:07Z</time>
      </trkpt>
      <trkpt lat="44.3014" lon="7.1643">
        <ele>876.6</ele>
        <time>2022-07-19T03:51:08Z</time>
      </trkpt>
      <trkpt lat="44.3014" lon="7.16427">
        <ele>876.6</ele>
        <time>2022-07-19T03:51:09Z</time>
      </trkpt>
      <trkpt lat="44.30139" lon="7.16423">
        <ele>876.8</ele>
        <time>2022-07-19T03:51:10Z</time>
      </trkpt>
      <trkpt lat="44.30138" lon="7.16419">
        <ele>877</ele>
        <time>2022-07-19T03:51:11Z</time>
      </trkpt>
      <trkpt lat="44.30138" lon="7.16415">
        <ele>877</ele>
        <time>2022-07-19T03:51:12Z</time>
      </trkpt>
      <trkpt lat="44.30138" lon="7.16411">
        <ele>877.2</ele>
        <time>2022-07-19T03:51:13Z</time>
      </trkpt>
      <trkpt lat="44.30137" lon="7.16406">
        <ele>877.2</ele>
        <time>2022-07-19T03:51:14Z</time>
      </trkpt>
      <trkpt lat="44.30137" lon="7.16402">
        <ele>877.6</ele>
        <time>2022-07-19T03:51:15Z</time>
      </trkpt>
      <trkpt lat="44.30137" lon="7.16398">
        <ele>877.6</ele>
        <time>2022-07-19T03:51:16Z</time>
      </trkpt>
      <trkpt lat="44.30136" lon="7.16394">
        <ele>878</ele>
        <time>2022-07-19T03:51:17Z</time>
      </trkpt>
      <trkpt lat="44.30135" lon="7.1639">
        <ele>878.2</ele>
        <time>2022-07-19T03:51:18Z</time>
      </trkpt>
      <trkpt lat="44.30135" lon="7.16386">
        <ele>878.2</ele>
        <time>2022-07-19T03:51:19Z</time>
      </trkpt>
      <trkpt lat="44.30134" lon="7.16382">
        <ele>878.4</ele>
        <time>2022-07-19T03:51:20Z</time>
      </trkpt>
      <trkpt lat="44.30133" lon="7.16378">
        <ele>878.4</ele>
        <time>2022-07-19T03:51:21Z</time>
      </trkpt>
      <trkpt lat="44.30132" lon="7.16374">
        <ele>878.8</ele>
        <time>2022-07-19T03:51:22Z</time>
      </trkpt>
      <trkpt lat="44.30131" lon="7.1637">
        <ele>878.8</ele>
        <time>2022-07-19T03:51:23Z</time>
      </trkpt>
      <trkpt lat="44.3013" lon="7.16366">
        <ele>879</ele>
        <time>2022-07-19T03:51:24Z</time>
      </trkpt>
      <trkpt lat="44.30129" lon="7.16362">
        <ele>879</ele>
        <time>2022-07-19T03:51:25Z</time>
      </trkpt>
      <trkpt lat="44.30127" lon="7.16358">
        <ele>879.2</ele>
        <time>2022-07-19T03:51:26Z</time>
      </trkpt>
      <trkpt lat="44.30126" lon="7.16354">
        <ele>879.2</ele>
        <time>2022-07-19T03:51:27Z</time>
      </trkpt>
      <trkpt lat="44.30124" lon="7.1635">
        <ele>879.2</ele>
        <time>2022-07-19T03:51:28Z</time>
      </trkpt>
      <trkpt lat="44.30122" lon="7.16346">
        <ele>879.4</ele>
        <time>2022-07-19T03:51:29Z</time>
      </trkpt>
      <trkpt lat="44.3012" lon="7.16343">
        <ele>879.4</ele>
        <time>2022-07-19T03:51:30Z</time>
      </trkpt>
      <trkpt lat="44.30119" lon="7.16339">
        <ele>879.4</ele>
        <time>2022-07-19T03:51:31Z</time>
      </trkpt>
      <trkpt lat="44.30117" lon="7.16335">
        <ele>879.8</ele>
        <time>2022-07-19T03:51:32Z</time>
      </trkpt>
      <trkpt lat="44.30115" lon="7.16331">
        <ele>879.8</ele>
        <time>2022-07-19T03:51:33Z</time>
      </trkpt>
      <trkpt lat="44.30113" lon="7.16327">
        <ele>880</ele>
        <time>2022-07-19T03:51:34Z</time>
      </trkpt>
      <trkpt lat="44.30111" lon="7.16324">
        <ele>880</ele>
        <time>2022-07-19T03:51:35Z</time>
      </trkpt>
      <trkpt lat="44.30109" lon="7.1632">
        <ele>880.2</ele>
        <time>2022-07-19T03:51:36Z</time>
      </trkpt>
      <trkpt lat="44.30107" lon="7.16317">
        <ele>880.2</ele>
        <time>2022-07-19T03:51:37Z</time>
      </trkpt>
      <trkpt lat="44.30105" lon="7.16313">
        <ele>880.6</ele>
        <time>2022-07-19T03:51:38Z</time>
      </trkpt>
      <trkpt lat="44.30103" lon="7.1631">
        <ele>880.6</ele>
        <time>2022-07-19T03:51:39Z</time>
      </trkpt>
      <trkpt lat="44.30101" lon="7.16306">
        <ele>880.6</ele>
        <time>2022-07-19T03:51:40Z</time>
      </trkpt>
      <trkpt lat="44.30099" lon="7.16302">
        <ele>880.8</ele>
        <time>2022-07-19T03:51:41Z</time>
      </trkpt>
      <trkpt lat="44.30097" lon="7.16299">
        <ele>880.8</ele>
        <time>2022-07-19T03:51:42Z</time>
      </trkpt>
      <trkpt lat="44.30095" lon="7.16295">
        <ele>881.2</ele>
        <time>2022-07-19T03:51:43Z</time>
      </trkpt>
      <trkpt lat="44.30093" lon="7.16291">
        <ele>881.2</ele>
        <time>2022-07-19T03:51:44Z</time>
      </trkpt>
      <trkpt lat="44.30092" lon="7.16288">
        <ele>881.4</ele>
        <time>2022-07-19T03:51:45Z</time>
      </trkpt>
      <trkpt lat="44.3009" lon="7.16284">
        <ele>881.4</ele>
        <time>2022-07-19T03:51:46Z</time>
      </trkpt>
      <trkpt lat="44.30088" lon="7.16281">
        <ele>881.8</ele>
        <time>2022-07-19T03:51:47Z</time>
      </trkpt>
      <trkpt lat="44.30086" lon="7.16278">
        <ele>881.8</ele>
        <time>2022-07-19T03:51:48Z</time>
      </trkpt>
      <trkpt lat="44.30084" lon="7.16274">
        <ele>882.2</ele>
        <time>2022-07-19T03:51:49Z</time>
      </trkpt>
      <trkpt lat="44.30083" lon="7.16271">
        <ele>882.2</ele>
        <time>2022-07-19T03:51:50Z</time>
      </trkpt>
      <trkpt lat="44.30081" lon="7.16267">
        <ele>882.2</ele>
        <time>2022-07-19T03:51:51Z</time>
      </trkpt>
      <trkpt lat="44.30081" lon="7.16264">
        <ele>882.4</ele>
        <time>2022-07-19T03:51:52Z</time>
      </trkpt>
      <trkpt lat="44.3008" lon="7.1626">
        <ele>882.4</ele>
        <time>2022-07-19T03:51:53Z</time>
      </trkpt>
      <trkpt lat="44.30079" lon="7.16257">
        <ele>882.8</ele>
        <time>2022-07-19T03:51:54Z</time>
      </trkpt>
      <trkpt lat="44.30078" lon="7.16253">
        <ele>882.8</ele>
        <time>2022-07-19T03:51:55Z</time>
      </trkpt>
      <trkpt lat="44.30077" lon="7.16249">
        <ele>883.2</ele>
        <time>2022-07-19T03:51:56Z</time>
      </trkpt>
      <trkpt lat="44.30076" lon="7.16246">
        <ele>883.2</ele>
        <time>2022-07-19T03:51:57Z</time>
      </trkpt>
      <trkpt lat="44.30076" lon="7.16242">
        <ele>883.4</ele>
        <time>2022-07-19T03:51:58Z</time>
      </trkpt>
      <trkpt lat="44.30075" lon="7.16238">
        <ele>883.4</ele>
        <time>2022-07-19T03:51:59Z</time>
      </trkpt>
      <trkpt lat="44.30074" lon="7.16234">
        <ele>883.8</ele>
        <time>2022-07-19T03:52:00Z</time>
      </trkpt>
      <trkpt lat="44.30074" lon="7.1623">
        <ele>884</ele>
        <time>2022-07-19T03:52:01Z</time>
      </trkpt>
      <trkpt lat="44.30074" lon="7.16226">
        <ele>884.2</ele>
        <time>2022-07-19T03:52:02Z</time>
      </trkpt>
      <trkpt lat="44.30073" lon="7.16221">
        <ele>884.2</ele>
        <time>2022-07-19T03:52:03Z</time>
      </trkpt>
      <trkpt lat="44.30073" lon="7.16218">
        <ele>884.4</ele>
        <time>2022-07-19T03:52:04Z</time>
      </trkpt>
      <trkpt lat="44.30072" lon="7.16214">
        <ele>884.4</ele>
        <time>2022-07-19T03:52:05Z</time>
      </trkpt>
      <trkpt lat="44.30071" lon="7.1621">
        <ele>884.8</ele>
        <time>2022-07-19T03:52:06Z</time>
      </trkpt>
      <trkpt lat="44.3007" lon="7.16206">
        <ele>885</ele>
        <time>2022-07-19T03:52:07Z</time>
      </trkpt>
      <trkpt lat="44.3007" lon="7.16203">
        <ele>885</ele>
        <time>2022-07-19T03:52:08Z</time>
      </trkpt>
      <trkpt lat="44.3007" lon="7.16199">
        <ele>885.4</ele>
        <time>2022-07-19T03:52:09Z</time>
      </trkpt>
      <trkpt lat="44.3007" lon="7.16195">
        <ele>885.6</ele>
        <time>2022-07-19T03:52:10Z</time>
      </trkpt>
      <trkpt lat="44.3007" lon="7.16191">
        <ele>885.6</ele>
        <time>2022-07-19T03:52:11Z</time>
      </trkpt>
      <trkpt lat="44.30069" lon="7.16187">
        <ele>886</ele>
        <time>2022-07-19T03:52:12Z</time>
      </trkpt>
      <trkpt lat="44.30068" lon="7.16183">
        <ele>886</ele>
        <time>2022-07-19T03:52:13Z</time>
      </trkpt>
      <trkpt lat="44.30068" lon="7.16179">
        <ele>886.4</ele>
        <time>2022-07-19T03:52:14Z</time>
      </trkpt>
      <trkpt lat="44.30068" lon="7.16175">
        <ele>886.4</ele>
        <time>2022-07-19T03:52:15Z</time>
      </trkpt>
      <trkpt lat="44.30068" lon="7.16171">
        <ele>886.6</ele>
        <time>2022-07-19T03:52:16Z</time>
      </trkpt>
      <trkpt lat="44.30068" lon="7.16167">
        <ele>886.6</ele>
        <time>2022-07-19T03:52:17Z</time>
      </trkpt>
      <trkpt lat="44.30068" lon="7.16163">
        <ele>886.8</ele>
        <time>2022-07-19T03:52:18Z</time>
      </trkpt>
      <trkpt lat="44.30068" lon="7.16158">
        <ele>886.8</ele>
        <time>2022-07-19T03:52:19Z</time>
      </trkpt>
      <trkpt lat="44.30068" lon="7.16154">
        <ele>887.2</ele>
        <time>2022-07-19T03:52:20Z</time>
      </trkpt>
      <trkpt lat="44.30069" lon="7.1615">
        <ele>887.2</ele>
        <time>2022-07-19T03:52:21Z</time>
      </trkpt>
      <trkpt lat="44.30069" lon="7.16145">
        <ele>887.2</ele>
        <time>2022-07-19T03:52:22Z</time>
      </trkpt>
      <trkpt lat="44.3007" lon="7.16141">
        <ele>887.2</ele>
        <time>2022-07-19T03:52:23Z</time>
      </trkpt>
      <trkpt lat="44.30071" lon="7.16136">
        <ele>887.2</ele>
        <time>2022-07-19T03:52:24Z</time>
      </trkpt>
      <trkpt lat="44.30072" lon="7.16131">
        <ele>887.4</ele>
        <time>2022-07-19T03:52:25Z</time>
      </trkpt>
      <trkpt lat="44.30073" lon="7.16126">
        <ele>887.4</ele>
        <time>2022-07-19T03:52:26Z</time>
      </trkpt>
      <trkpt lat="44.30075" lon="7.16121">
        <ele>887.4</ele>
        <time>2022-07-19T03:52:27Z</time>
      </trkpt>
      <trkpt lat="44.30077" lon="7.16116">
        <ele>887.4</ele>
        <time>2022-07-19T03:52:28Z</time>
      </trkpt>
      <trkpt lat="44.30079" lon="7.16112">
        <ele>887.4</ele>
        <time>2022-07-19T03:52:29Z</time>
      </trkpt>
      <trkpt lat="44.3008" lon="7.16107">
        <ele>887.4</ele>
        <time>2022-07-19T03:52:30Z</time>
      </trkpt>
      <trkpt lat="44.30083" lon="7.16102">
        <ele>887.4</ele>
        <time>2022-07-19T03:52:31Z</time>
      </trkpt>
      <trkpt lat="44.30085" lon="7.16097">
        <ele>887.4</ele>
        <time>2022-07-19T03:52:32Z</time>
      </trkpt>
      <trkpt lat="44.30087" lon="7.16092">
        <ele>887.4</ele>
        <time>2022-07-19T03:52:33Z</time>
      </trkpt>
      <trkpt lat="44.3009" lon="7.16087">
        <ele>887.4</ele>
        <time>2022-07-19T03:52:34Z</time>
      </trkpt>
      <trkpt lat="44.30093" lon="7.16082">
        <ele>887.4</ele>
        <time>2022-07-19T03:52:35Z</time>
      </trkpt>
      <trkpt lat="44.30096" lon="7.16077">
        <ele>887.4</ele>
        <time>2022-07-19T03:52:36Z</time>
      </trkpt>
      <trkpt lat="44.30099" lon="7.16072">
        <ele>887.4</ele>
        <time>2022-07-19T03:52:37Z</time>
      </trkpt>
      <trkpt lat="44.30102" lon="7.16066">
        <ele>887.4</ele>
        <time>2022-07-19T03:52:38Z</time>
      </trkpt>
      <trkpt lat="44.30105" lon="7.16061">
        <ele>887.4</ele>
        <time>2022-07-19T03:52:39Z</time>
      </trkpt>
      <trkpt lat="44.30108" lon="7.16056">
        <ele>887.4</ele>
        <time>2022-07-19T03:52:40Z</time>
      </trkpt>
      <trkpt lat="44.30111" lon="7.16051">
        <ele>887.6</ele>
        <time>2022-07-19T03:52:41Z</time>
      </trkpt>
      <trkpt lat="44.30114" lon="7.16046">
        <ele>887.6</ele>
        <time>2022-07-19T03:52:42Z</time>
      </trkpt>
      <trkpt lat="44.30116" lon="7.1604">
        <ele>887.6</ele>
        <time>2022-07-19T03:52:43Z</time>
      </trkpt>
      <trkpt lat="44.30118" lon="7.16035">
        <ele>887.8</ele>
        <time>2022-07-19T03:52:44Z</time>
      </trkpt>
      <trkpt lat="44.3012" lon="7.16029">
        <ele>887.8</ele>
        <time>2022-07-19T03:52:45Z</time>
      </trkpt>
      <trkpt lat="44.30122" lon="7.16024">
        <ele>887.8</ele>
        <time>2022-07-19T03:52:46Z</time>
      </trkpt>
      <trkpt lat="44.30123" lon="7.16018">
        <ele>887.8</ele>
        <time>2022-07-19T03:52:47Z</time>
      </trkpt>
      <trkpt lat="44.30125" lon="7.16013">
        <ele>888</ele>
        <time>2022-07-19T03:52:48Z</time>
      </trkpt>
      <trkpt lat="44.30126" lon="7.16008">
        <ele>888</ele>
        <time>2022-07-19T03:52:49Z</time>
      </trkpt>
      <trkpt lat="44.30127" lon="7.16002">
        <ele>888</ele>
        <time>2022-07-19T03:52:50Z</time>
      </trkpt>
      <trkpt lat="44.30129" lon="7.15997">
        <ele>888</ele>
        <time>2022-07-19T03:52:51Z</time>
      </trkpt>
      <trkpt lat="44.3013" lon="7.15991">
        <ele>888.2</ele>
        <time>2022-07-19T03:52:52Z</time>
      </trkpt>
      <trkpt lat="44.30131" lon="7.15986">
        <ele>888.2</ele>
        <time>2022-07-19T03:52:53Z</time>
      </trkpt>
      <trkpt lat="44.30132" lon="7.1598">
        <ele>888.2</ele>
        <time>2022-07-19T03:52:54Z</time>
      </trkpt>
      <trkpt lat="44.30133" lon="7.15975">
        <ele>888.4</ele>
        <time>2022-07-19T03:52:55Z</time>
      </trkpt>
      <trkpt lat="44.30135" lon="7.15969">
        <ele>888.4</ele>
        <time>2022-07-19T03:52:56Z</time>
      </trkpt>
      <trkpt lat="44.30136" lon="7.15964">
        <ele>888.4</ele>
        <time>2022-07-19T03:52:57Z</time>
      </trkpt>
      <trkpt lat="44.30137" lon="7.15958">
        <ele>888.4</ele>
        <time>2022-07-19T03:52:58Z</time>
      </trkpt>
      <trkpt lat="44.30139" lon="7.15952">
        <ele>888.4</ele>
        <time>2022-07-19T03:52:59Z</time>
      </trkpt>
      <trkpt lat="44.30141" lon="7.15946">
        <ele>888.6</ele>
        <time>2022-07-19T03:53:00Z</time>
      </trkpt>
      <trkpt lat="44.30142" lon="7.15941">
        <ele>888.6</ele>
        <time>2022-07-19T03:53:01Z</time>
      </trkpt>
      <trkpt lat="44.30143" lon="7.15936">
        <ele>889</ele>
        <time>2022-07-19T03:53:02Z</time>
      </trkpt>
      <trkpt lat="44.30144" lon="7.15931">
        <ele>889.2</ele>
        <time>2022-07-19T03:53:03Z</time>
      </trkpt>
      <trkpt lat="44.30145" lon="7.15927">
        <ele>889.2</ele>
        <time>2022-07-19T03:53:04Z</time>
      </trkpt>
      <trkpt lat="44.30146" lon="7.15923">
        <ele>889.6</ele>
        <time>2022-07-19T03:53:05Z</time>
      </trkpt>
      <trkpt lat="44.30146" lon="7.1592">
        <ele>889.6</ele>
        <time>2022-07-19T03:53:06Z</time>
      </trkpt>
      <trkpt lat="44.30147" lon="7.15916">
        <ele>890</ele>
        <time>2022-07-19T03:53:07Z</time>
      </trkpt>
      <trkpt lat="44.30148" lon="7.15913">
        <ele>890.4</ele>
        <time>2022-07-19T03:53:08Z</time>
      </trkpt>
      <trkpt lat="44.30149" lon="7.15909">
        <ele>890.6</ele>
        <time>2022-07-19T03:53:09Z</time>
      </trkpt>
      <trkpt lat="44.3015" lon="7.15906">
        <ele>891</ele>
        <time>2022-07-19T03:53:10Z</time>
      </trkpt>
      <trkpt lat="44.30151" lon="7.15903">
        <ele>891.2</ele>
        <time>2022-07-19T03:53:11Z</time>
      </trkpt>
      <trkpt lat="44.30152" lon="7.159">
        <ele>891.6</ele>
        <time>2022-07-19T03:53:12Z</time>
      </trkpt>
      <trkpt lat="44.30152" lon="7.15897">
        <ele>891.8</ele>
        <time>2022-07-19T03:53:13Z</time>
      </trkpt>
      <trkpt lat="44.30152" lon="7.15895">
        <ele>892</ele>
        <time>2022-07-19T03:53:14Z</time>
      </trkpt>
      <trkpt lat="44.30152" lon="7.15893">
        <ele>892.2</ele>
        <time>2022-07-19T03:53:15Z</time>
      </trkpt>
      <trkpt lat="44.30152" lon="7.15892">
        <ele>892.2</ele>
        <time>2022-07-19T03:53:16Z</time>
      </trkpt>
      <trkpt lat="44.30152" lon="7.1589">
        <ele>892.6</ele>
        <time>2022-07-19T03:53:17Z</time>
      </trkpt>
      <trkpt lat="44.30152" lon="7.15888">
        <ele>892.8</ele>
        <time>2022-07-19T03:53:18Z</time>
      </trkpt>
      <trkpt lat="44.30153" lon="7.15885">
        <ele>892.8</ele>
        <time>2022-07-19T03:53:19Z</time>
      </trkpt>
      <trkpt lat="44.30154" lon="7.15882">
        <ele>892.8</ele>
        <time>2022-07-19T03:53:20Z</time>
      </trkpt>
      <trkpt lat="44.30155" lon="7.15878">
        <ele>893</ele>
        <time>2022-07-19T03:53:21Z</time>
      </trkpt>
      <trkpt lat="44.30155" lon="7.15874">
        <ele>893</ele>
        <time>2022-07-19T03:53:22Z</time>
      </trkpt>
      <trkpt lat="44.30156" lon="7.1587">
        <ele>893</ele>
        <time>2022-07-19T03:53:23Z</time>
      </trkpt>
      <trkpt lat="44.30156" lon="7.15866">
        <ele>893.4</ele>
        <time>2022-07-19T03:53:24Z</time>
      </trkpt>
      <trkpt lat="44.30156" lon="7.15862">
        <ele>893.4</ele>
        <time>2022-07-19T03:53:25Z</time>
      </trkpt>
      <trkpt lat="44.30156" lon="7.15858">
        <ele>893.6</ele>
        <time>2022-07-19T03:53:26Z</time>
      </trkpt>
      <trkpt lat="44.30156" lon="7.15853">
        <ele>894</ele>
        <time>2022-07-19T03:53:27Z</time>
      </trkpt>
      <trkpt lat="44.30155" lon="7.15849">
        <ele>894</ele>
        <time>2022-07-19T03:53:28Z</time>
      </trkpt>
      <trkpt lat="44.30155" lon="7.15845">
        <ele>894.2</ele>
        <time>2022-07-19T03:53:29Z</time>
      </trkpt>
      <trkpt lat="44.30154" lon="7.15841">
        <ele>894.2</ele>
        <time>2022-07-19T03:53:30Z</time>
      </trkpt>
      <trkpt lat="44.30154" lon="7.15837">
        <ele>894.4</ele>
        <time>2022-07-19T03:53:31Z</time>
      </trkpt>
      <trkpt lat="44.30154" lon="7.15833">
        <ele>894.4</ele>
        <time>2022-07-19T03:53:32Z</time>
      </trkpt>
      <trkpt lat="44.30154" lon="7.15829">
        <ele>894.6</ele>
        <time>2022-07-19T03:53:33Z</time>
      </trkpt>
      <trkpt lat="44.30153" lon="7.15825">
        <ele>894.8</ele>
        <time>2022-07-19T03:53:34Z</time>
      </trkpt>
      <trkpt lat="44.30153" lon="7.15821">
        <ele>895</ele>
        <time>2022-07-19T03:53:35Z</time>
      </trkpt>
      <trkpt lat="44.30153" lon="7.15817">
        <ele>895</ele>
        <time>2022-07-19T03:53:36Z</time>
      </trkpt>
      <trkpt lat="44.30152" lon="7.15814">
        <ele>895.4</ele>
        <time>2022-07-19T03:53:37Z</time>
      </trkpt>
      <trkpt lat="44.30152" lon="7.15809">
        <ele>895.4</ele>
        <time>2022-07-19T03:53:38Z</time>
      </trkpt>
      <trkpt lat="44.30151" lon="7.15805">
        <ele>895.6</ele>
        <time>2022-07-19T03:53:39Z</time>
      </trkpt>
      <trkpt lat="44.30151" lon="7.15801">
        <ele>896</ele>
        <time>2022-07-19T03:53:40Z</time>
      </trkpt>
      <trkpt lat="44.3015" lon="7.15797">
        <ele>896</ele>
        <time>2022-07-19T03:53:41Z</time>
      </trkpt>
      <trkpt lat="44.30148" lon="7.15793">
        <ele>896.2</ele>
        <time>2022-07-19T03:53:42Z</time>
      </trkpt>
      <trkpt lat="44.30147" lon="7.15789">
        <ele>896.2</ele>
        <time>2022-07-19T03:53:43Z</time>
      </trkpt>
      <trkpt lat="44.30146" lon="7.15786">
        <ele>896.6</ele>
        <time>2022-07-19T03:53:44Z</time>
      </trkpt>
      <trkpt lat="44.30144" lon="7.15782">
        <ele>896.6</ele>
        <time>2022-07-19T03:53:45Z</time>
      </trkpt>
      <trkpt lat="44.30143" lon="7.15778">
        <ele>896.8</ele>
        <time>2022-07-19T03:53:46Z</time>
      </trkpt>
      <trkpt lat="44.30141" lon="7.15775">
        <ele>896.8</ele>
        <time>2022-07-19T03:53:47Z</time>
      </trkpt>
      <trkpt lat="44.30139" lon="7.15772">
        <ele>897.2</ele>
        <time>2022-07-19T03:53:48Z</time>
      </trkpt>
      <trkpt lat="44.30137" lon="7.15768">
        <ele>897.2</ele>
        <time>2022-07-19T03:53:49Z</time>
      </trkpt>
      <trkpt lat="44.30136" lon="7.15765">
        <ele>897.4</ele>
        <time>2022-07-19T03:53:50Z</time>
      </trkpt>
      <trkpt lat="44.30134" lon="7.15761">
        <ele>897.6</ele>
        <time>2022-07-19T03:53:51Z</time>
      </trkpt>
      <trkpt lat="44.30132" lon="7.15758">
        <ele>897.6</ele>
        <time>2022-07-19T03:53:52Z</time>
      </trkpt>
      <trkpt lat="44.3013" lon="7.15755">
        <ele>898</ele>
        <time>2022-07-19T03:53:53Z</time>
      </trkpt>
      <trkpt lat="44.30128" lon="7.15752">
        <ele>898</ele>
        <time>2022-07-19T03:53:54Z</time>
      </trkpt>
      <trkpt lat="44.30126" lon="7.15749">
        <ele>898.2</ele>
        <time>2022-07-19T03:53:55Z</time>
      </trkpt>
      <trkpt lat="44.30124" lon="7.15746">
        <ele>898.2</ele>
        <time>2022-07-19T03:53:56Z</time>
      </trkpt>
      <trkpt lat="44.30122" lon="7.15743">
        <ele>898.6</ele>
        <time>2022-07-19T03:53:57Z</time>
      </trkpt>
      <trkpt lat="44.3012" lon="7.15739">
        <ele>898.6</ele>
        <time>2022-07-19T03:53:58Z</time>
      </trkpt>
      <trkpt lat="44.30118" lon="7.15736">
        <ele>898.8</ele>
        <time>2022-07-19T03:53:59Z</time>
      </trkpt>
      <trkpt lat="44.30115" lon="7.15733">
        <ele>898.8</ele>
        <time>2022-07-19T03:54:00Z</time>
      </trkpt>
      <trkpt lat="44.30113" lon="7.1573">
        <ele>899</ele>
        <time>2022-07-19T03:54:01Z</time>
      </trkpt>
      <trkpt lat="44.30111" lon="7.15728">
        <ele>899</ele>
        <time>2022-07-19T03:54:02Z</time>
      </trkpt>
      <trkpt lat="44.30108" lon="7.15725">
        <ele>899.2</ele>
        <time>2022-07-19T03:54:03Z</time>
      </trkpt>
      <trkpt lat="44.30106" lon="7.15722">
        <ele>899.2</ele>
        <time>2022-07-19T03:54:04Z</time>
      </trkpt>
      <trkpt lat="44.30104" lon="7.15719">
        <ele>899.6</ele>
        <time>2022-07-19T03:54:05Z</time>
      </trkpt>
      <trkpt lat="44.30102" lon="7.15716">
        <ele>899.6</ele>
        <time>2022-07-19T03:54:06Z</time>
      </trkpt>
      <trkpt lat="44.301" lon="7.15713">
        <ele>899.8</ele>
        <time>2022-07-19T03:54:07Z</time>
      </trkpt>
      <trkpt lat="44.30098" lon="7.15711">
        <ele>900</ele>
        <time>2022-07-19T03:54:08Z</time>
      </trkpt>
      <trkpt lat="44.30096" lon="7.15708">
        <ele>900</ele>
        <time>2022-07-19T03:54:09Z</time>
      </trkpt>
      <trkpt lat="44.30093" lon="7.15705">
        <ele>900.4</ele>
        <time>2022-07-19T03:54:10Z</time>
      </trkpt>
      <trkpt lat="44.30091" lon="7.15702">
        <ele>900.4</ele>
        <time>2022-07-19T03:54:11Z</time>
      </trkpt>
      <trkpt lat="44.30089" lon="7.15699">
        <ele>900.6</ele>
        <time>2022-07-19T03:54:12Z</time>
      </trkpt>
      <trkpt lat="44.30087" lon="7.15696">
        <ele>900.8</ele>
        <time>2022-07-19T03:54:13Z</time>
      </trkpt>
      <trkpt lat="44.30085" lon="7.15693">
        <ele>900.8</ele>
        <time>2022-07-19T03:54:14Z</time>
      </trkpt>
      <trkpt lat="44.30082" lon="7.1569">
        <ele>901.2</ele>
        <time>2022-07-19T03:54:15Z</time>
      </trkpt>
      <trkpt lat="44.3008" lon="7.15687">
        <ele>901.2</ele>
        <time>2022-07-19T03:54:16Z</time>
      </trkpt>
      <trkpt lat="44.30077" lon="7.15684">
        <ele>901.4</ele>
        <time>2022-07-19T03:54:17Z</time>
      </trkpt>
      <trkpt lat="44.30075" lon="7.15681">
        <ele>901.4</ele>
        <time>2022-07-19T03:54:18Z</time>
      </trkpt>
      <trkpt lat="44.30073" lon="7.15678">
        <ele>901.6</ele>
        <time>2022-07-19T03:54:19Z</time>
      </trkpt>
      <trkpt lat="44.30071" lon="7.15675">
        <ele>901.6</ele>
        <time>2022-07-19T03:54:20Z</time>
      </trkpt>
      <trkpt lat="44.30068" lon="7.15672">
        <ele>901.6</ele>
        <time>2022-07-19T03:54:21Z</time>
      </trkpt>
      <trkpt lat="44.30066" lon="7.15669">
        <ele>902</ele>
        <time>2022-07-19T03:54:22Z</time>
      </trkpt>
      <trkpt lat="44.30064" lon="7.15666">
        <ele>902</ele>
        <time>2022-07-19T03:54:23Z</time>
      </trkpt>
      <trkpt lat="44.30061" lon="7.15663">
        <ele>902.2</ele>
        <time>2022-07-19T03:54:24Z</time>
      </trkpt>
      <trkpt lat="44.30059" lon="7.1566">
        <ele>902.2</ele>
        <time>2022-07-19T03:54:25Z</time>
      </trkpt>
      <trkpt lat="44.30057" lon="7.15657">
        <ele>902.4</ele>
        <time>2022-07-19T03:54:26Z</time>
      </trkpt>
      <trkpt lat="44.30054" lon="7.15654">
        <ele>902.4</ele>
        <time>2022-07-19T03:54:27Z</time>
      </trkpt>
      <trkpt lat="44.30052" lon="7.1565">
        <ele>902.4</ele>
        <time>2022-07-19T03:54:28Z</time>
      </trkpt>
      <trkpt lat="44.30049" lon="7.15647">
        <ele>902.8</ele>
        <time>2022-07-19T03:54:29Z</time>
      </trkpt>
      <trkpt lat="44.30047" lon="7.15644">
        <ele>902.8</ele>
        <time>2022-07-19T03:54:30Z</time>
      </trkpt>
      <trkpt lat="44.30045" lon="7.1564">
        <ele>902.8</ele>
        <time>2022-07-19T03:54:31Z</time>
      </trkpt>
      <trkpt lat="44.30042" lon="7.15637">
        <ele>903</ele>
        <time>2022-07-19T03:54:32Z</time>
      </trkpt>
      <trkpt lat="44.3004" lon="7.15634">
        <ele>903.2</ele>
        <time>2022-07-19T03:54:34Z</time>
      </trkpt>
      <trkpt lat="44.30037" lon="7.1563">
        <ele>903.4</ele>
        <time>2022-07-19T03:54:35Z</time>
      </trkpt>
      <trkpt lat="44.30035" lon="7.15627">
        <ele>903.4</ele>
        <time>2022-07-19T03:54:36Z</time>
      </trkpt>
      <trkpt lat="44.30033" lon="7.15623">
        <ele>903.8</ele>
        <time>2022-07-19T03:54:37Z</time>
      </trkpt>
      <trkpt lat="44.30031" lon="7.1562">
        <ele>903.8</ele>
        <time>2022-07-19T03:54:38Z</time>
      </trkpt>
      <trkpt lat="44.30028" lon="7.15617">
        <ele>903.8</ele>
        <time>2022-07-19T03:54:39Z</time>
      </trkpt>
      <trkpt lat="44.30026" lon="7.15614">
        <ele>903.8</ele>
        <time>2022-07-19T03:54:40Z</time>
      </trkpt>
      <trkpt lat="44.30023" lon="7.15611">
        <ele>903.8</ele>
        <time>2022-07-19T03:54:41Z</time>
      </trkpt>
      <trkpt lat="44.30021" lon="7.15608">
        <ele>904.2</ele>
        <time>2022-07-19T03:54:42Z</time>
      </trkpt>
      <trkpt lat="44.30018" lon="7.15605">
        <ele>904.2</ele>
        <time>2022-07-19T03:54:43Z</time>
      </trkpt>
      <trkpt lat="44.30015" lon="7.15603">
        <ele>904.2</ele>
        <time>2022-07-19T03:54:44Z</time>
      </trkpt>
      <trkpt lat="44.30012" lon="7.15601">
        <ele>904.4</ele>
        <time>2022-07-19T03:54:45Z</time>
      </trkpt>
      <trkpt lat="44.30009" lon="7.15599">
        <ele>904.4</ele>
        <time>2022-07-19T03:54:46Z</time>
      </trkpt>
      <trkpt lat="44.30007" lon="7.15598">
        <ele>904.6</ele>
        <time>2022-07-19T03:54:47Z</time>
      </trkpt>
      <trkpt lat="44.30004" lon="7.15596">
        <ele>904.6</ele>
        <time>2022-07-19T03:54:48Z</time>
      </trkpt>
      <trkpt lat="44.30001" lon="7.15595">
        <ele>905</ele>
        <time>2022-07-19T03:54:49Z</time>
      </trkpt>
      <trkpt lat="44.29999" lon="7.15595">
        <ele>905</ele>
        <time>2022-07-19T03:54:50Z</time>
      </trkpt>
      <trkpt lat="44.29996" lon="7.15595">
        <ele>905.4</ele>
        <time>2022-07-19T03:54:51Z</time>
      </trkpt>
      <trkpt lat="44.29993" lon="7.15595">
        <ele>905.6</ele>
        <time>2022-07-19T03:54:52Z</time>
      </trkpt>
      <trkpt lat="44.29991" lon="7.15596">
        <ele>905.8</ele>
        <time>2022-07-19T03:54:53Z</time>
      </trkpt>
      <trkpt lat="44.29988" lon="7.15597">
        <ele>905.8</ele>
        <time>2022-07-19T03:54:54Z</time>
      </trkpt>
      <trkpt lat="44.29986" lon="7.15599">
        <ele>906.2</ele>
        <time>2022-07-19T03:54:55Z</time>
      </trkpt>
      <trkpt lat="44.29983" lon="7.156">
        <ele>906.2</ele>
        <time>2022-07-19T03:54:56Z</time>
      </trkpt>
      <trkpt lat="44.29981" lon="7.15602">
        <ele>906.6</ele>
        <time>2022-07-19T03:54:57Z</time>
      </trkpt>
      <trkpt lat="44.29979" lon="7.15603">
        <ele>906.6</ele>
        <time>2022-07-19T03:54:58Z</time>
      </trkpt>
      <trkpt lat="44.29977" lon="7.15605">
        <ele>906.8</ele>
        <time>2022-07-19T03:54:59Z</time>
      </trkpt>
      <trkpt lat="44.29974" lon="7.15607">
        <ele>907</ele>
        <time>2022-07-19T03:55:00Z</time>
      </trkpt>
      <trkpt lat="44.29972" lon="7.15608">
        <ele>907</ele>
        <time>2022-07-19T03:55:01Z</time>
      </trkpt>
      <trkpt lat="44.2997" lon="7.1561">
        <ele>907.4</ele>
        <time>2022-07-19T03:55:02Z</time>
      </trkpt>
      <trkpt lat="44.29968" lon="7.15612">
        <ele>907.4</ele>
        <time>2022-07-19T03:55:03Z</time>
      </trkpt>
      <trkpt lat="44.29966" lon="7.15615">
        <ele>907.8</ele>
        <time>2022-07-19T03:55:04Z</time>
      </trkpt>
      <trkpt lat="44.29964" lon="7.15617">
        <ele>908</ele>
        <time>2022-07-19T03:55:05Z</time>
      </trkpt>
      <trkpt lat="44.29962" lon="7.15619">
        <ele>908.2</ele>
        <time>2022-07-19T03:55:06Z</time>
      </trkpt>
      <trkpt lat="44.2996" lon="7.15621">
        <ele>908.2</ele>
        <time>2022-07-19T03:55:07Z</time>
      </trkpt>
      <trkpt lat="44.29958" lon="7.15622">
        <ele>908.6</ele>
        <time>2022-07-19T03:55:08Z</time>
      </trkpt>
      <trkpt lat="44.29955" lon="7.15624">
        <ele>908.6</ele>
        <time>2022-07-19T03:55:09Z</time>
      </trkpt>
      <trkpt lat="44.29953" lon="7.15626">
        <ele>909</ele>
        <time>2022-07-19T03:55:10Z</time>
      </trkpt>
      <trkpt lat="44.29951" lon="7.15628">
        <ele>909.2</ele>
        <time>2022-07-19T03:55:11Z</time>
      </trkpt>
      <trkpt lat="44.29949" lon="7.15631">
        <ele>909.2</ele>
        <time>2022-07-19T03:55:12Z</time>
      </trkpt>
      <trkpt lat="44.29947" lon="7.15633">
        <ele>909.4</ele>
        <time>2022-07-19T03:55:13Z</time>
      </trkpt>
      <trkpt lat="44.29945" lon="7.15635">
        <ele>909.4</ele>
        <time>2022-07-19T03:55:14Z</time>
      </trkpt>
      <trkpt lat="44.29943" lon="7.15637">
        <ele>910</ele>
        <time>2022-07-19T03:55:15Z</time>
      </trkpt>
      <trkpt lat="44.29941" lon="7.15639">
        <ele>910</ele>
        <time>2022-07-19T03:55:16Z</time>
      </trkpt>
      <trkpt lat="44.29939" lon="7.15641">
        <ele>910.2</ele>
        <time>2022-07-19T03:55:17Z</time>
      </trkpt>
      <trkpt lat="44.29937" lon="7.15643">
        <ele>910.2</ele>
        <time>2022-07-19T03:55:18Z</time>
      </trkpt>
      <trkpt lat="44.29935" lon="7.15644">
        <ele>910.6</ele>
        <time>2022-07-19T03:55:19Z</time>
      </trkpt>
      <trkpt lat="44.29933" lon="7.15646">
        <ele>910.6</ele>
        <time>2022-07-19T03:55:20Z</time>
      </trkpt>
      <trkpt lat="44.29932" lon="7.15648">
        <ele>910.8</ele>
        <time>2022-07-19T03:55:21Z</time>
      </trkpt>
      <trkpt lat="44.2993" lon="7.1565">
        <ele>910.8</ele>
        <time>2022-07-19T03:55:22Z</time>
      </trkpt>
      <trkpt lat="44.29928" lon="7.15653">
        <ele>911.2</ele>
        <time>2022-07-19T03:55:23Z</time>
      </trkpt>
      <trkpt lat="44.29926" lon="7.15654">
        <ele>911.2</ele>
        <time>2022-07-19T03:55:24Z</time>
      </trkpt>
      <trkpt lat="44.29924" lon="7.15656">
        <ele>911.4</ele>
        <time>2022-07-19T03:55:25Z</time>
      </trkpt>
      <trkpt lat="44.29922" lon="7.15658">
        <ele>911.4</ele>
        <time>2022-07-19T03:55:26Z</time>
      </trkpt>
      <trkpt lat="44.2992" lon="7.1566">
        <ele>911.8</ele>
        <time>2022-07-19T03:55:27Z</time>
      </trkpt>
      <trkpt lat="44.29918" lon="7.15662">
        <ele>911.8</ele>
        <time>2022-07-19T03:55:28Z</time>
      </trkpt>
      <trkpt lat="44.29916" lon="7.15664">
        <ele>912</ele>
        <time>2022-07-19T03:55:29Z</time>
      </trkpt>
      <trkpt lat="44.29914" lon="7.15666">
        <ele>912</ele>
        <time>2022-07-19T03:55:30Z</time>
      </trkpt>
      <trkpt lat="44.29912" lon="7.15668">
        <ele>912.4</ele>
        <time>2022-07-19T03:55:31Z</time>
      </trkpt>
      <trkpt lat="44.2991" lon="7.15669">
        <ele>912.4</ele>
        <time>2022-07-19T03:55:32Z</time>
      </trkpt>
      <trkpt lat="44.29908" lon="7.15671">
        <ele>912.6</ele>
        <time>2022-07-19T03:55:33Z</time>
      </trkpt>
      <trkpt lat="44.29906" lon="7.15673">
        <ele>912.6</ele>
        <time>2022-07-19T03:55:34Z</time>
      </trkpt>
      <trkpt lat="44.29904" lon="7.15675">
        <ele>913</ele>
        <time>2022-07-19T03:55:35Z</time>
      </trkpt>
      <trkpt lat="44.29902" lon="7.15677">
        <ele>913</ele>
        <time>2022-07-19T03:55:36Z</time>
      </trkpt>
      <trkpt lat="44.29899" lon="7.1568">
        <ele>913.2</ele>
        <time>2022-07-19T03:55:37Z</time>
      </trkpt>
      <trkpt lat="44.29897" lon="7.15682">
        <ele>913.4</ele>
        <time>2022-07-19T03:55:38Z</time>
      </trkpt>
      <trkpt lat="44.29896" lon="7.15684">
        <ele>913.4</ele>
        <time>2022-07-19T03:55:39Z</time>
      </trkpt>
      <trkpt lat="44.29894" lon="7.15685">
        <ele>913.8</ele>
        <time>2022-07-19T03:55:40Z</time>
      </trkpt>
      <trkpt lat="44.29892" lon="7.15687">
        <ele>914</ele>
        <time>2022-07-19T03:55:41Z</time>
      </trkpt>
      <trkpt lat="44.29891" lon="7.15688">
        <ele>914.4</ele>
        <time>2022-07-19T03:55:42Z</time>
      </trkpt>
      <trkpt lat="44.29889" lon="7.1569">
        <ele>914.6</ele>
        <time>2022-07-19T03:55:43Z</time>
      </trkpt>
      <trkpt lat="44.29888" lon="7.15691">
        <ele>915</ele>
        <time>2022-07-19T03:55:44Z</time>
      </trkpt>
      <trkpt lat="44.29886" lon="7.15693">
        <ele>915</ele>
        <time>2022-07-19T03:55:45Z</time>
      </trkpt>
      <trkpt lat="44.29884" lon="7.15695">
        <ele>915.2</ele>
        <time>2022-07-19T03:55:46Z</time>
      </trkpt>
      <trkpt lat="44.29883" lon="7.15696">
        <ele>915.4</ele>
        <time>2022-07-19T03:55:47Z</time>
      </trkpt>
      <trkpt lat="44.29881" lon="7.15698">
        <ele>915.4</ele>
        <time>2022-07-19T03:55:48Z</time>
      </trkpt>
      <trkpt lat="44.2988" lon="7.15699">
        <ele>915.8</ele>
        <time>2022-07-19T03:55:49Z</time>
      </trkpt>
      <trkpt lat="44.29878" lon="7.15701">
        <ele>915.8</ele>
        <time>2022-07-19T03:55:50Z</time>
      </trkpt>
      <trkpt lat="44.29877" lon="7.15703">
        <ele>916</ele>
        <time>2022-07-19T03:55:51Z</time>
      </trkpt>
      <trkpt lat="44.29876" lon="7.15705">
        <ele>916</ele>
        <time>2022-07-19T03:55:52Z</time>
      </trkpt>
      <trkpt lat="44.29875" lon="7.15707">
        <ele>916.4</ele>
        <time>2022-07-19T03:55:53Z</time>
      </trkpt>
      <trkpt lat="44.29874" lon="7.15709">
        <ele>916.4</ele>
        <time>2022-07-19T03:55:54Z</time>
      </trkpt>
      <trkpt lat="44.29872" lon="7.15711">
        <ele>916.6</ele>
        <time>2022-07-19T03:55:55Z</time>
      </trkpt>
      <trkpt lat="44.29871" lon="7.15713">
        <ele>916.6</ele>
        <time>2022-07-19T03:55:56Z</time>
      </trkpt>
      <trkpt lat="44.29869" lon="7.15715">
        <ele>916.8</ele>
        <time>2022-07-19T03:55:57Z</time>
      </trkpt>
      <trkpt lat="44.29867" lon="7.15716">
        <ele>916.8</ele>
        <time>2022-07-19T03:55:58Z</time>
      </trkpt>
      <trkpt lat="44.29865" lon="7.15716">
        <ele>917.2</ele>
        <time>2022-07-19T03:55:59Z</time>
      </trkpt>
      <trkpt lat="44.29863" lon="7.15716">
        <ele>917.2</ele>
        <time>2022-07-19T03:56:00Z</time>
      </trkpt>
      <trkpt lat="44.29861" lon="7.15715">
        <ele>917.2</ele>
        <time>2022-07-19T03:56:01Z</time>
      </trkpt>
      <trkpt lat="44.29859" lon="7.15713">
        <ele>917.4</ele>
        <time>2022-07-19T03:56:03Z</time>
      </trkpt>
      <trkpt lat="44.29858" lon="7.15711">
        <ele>917.6</ele>
        <time>2022-07-19T03:56:04Z</time>
      </trkpt>
      <trkpt lat="44.29858" lon="7.15708">
        <ele>917.6</ele>
        <time>2022-07-19T03:56:05Z</time>
      </trkpt>
      <trkpt lat="44.29857" lon="7.15706">
        <ele>918</ele>
        <time>2022-07-19T03:56:06Z</time>
      </trkpt>
      <trkpt lat="44.29858" lon="7.15704">
        <ele>918</ele>
        <time>2022-07-19T03:56:07Z</time>
      </trkpt>
      <trkpt lat="44.29858" lon="7.15702">
        <ele>918.4</ele>
        <time>2022-07-19T03:56:08Z</time>
      </trkpt>
      <trkpt lat="44.29858" lon="7.157">
        <ele>918.4</ele>
        <time>2022-07-19T03:56:09Z</time>
      </trkpt>
      <trkpt lat="44.29858" lon="7.15698">
        <ele>918.6</ele>
        <time>2022-07-19T03:56:10Z</time>
      </trkpt>
      <trkpt lat="44.29858" lon="7.15696">
        <ele>918.6</ele>
        <time>2022-07-19T03:56:11Z</time>
      </trkpt>
      <trkpt lat="44.29858" lon="7.15694">
        <ele>919</ele>
        <time>2022-07-19T03:56:12Z</time>
      </trkpt>
      <trkpt lat="44.29858" lon="7.15692">
        <ele>919</ele>
        <time>2022-07-19T03:56:13Z</time>
      </trkpt>
      <trkpt lat="44.29858" lon="7.1569">
        <ele>919.4</ele>
        <time>2022-07-19T03:56:14Z</time>
      </trkpt>
      <trkpt lat="44.29858" lon="7.15688">
        <ele>919.4</ele>
        <time>2022-07-19T03:56:15Z</time>
      </trkpt>
      <trkpt lat="44.29858" lon="7.15685">
        <ele>919.8</ele>
        <time>2022-07-19T03:56:16Z</time>
      </trkpt>
      <trkpt lat="44.29857" lon="7.15683">
        <ele>919.8</ele>
        <time>2022-07-19T03:56:17Z</time>
      </trkpt>
      <trkpt lat="44.29857" lon="7.15681">
        <ele>920</ele>
        <time>2022-07-19T03:56:18Z</time>
      </trkpt>
      <trkpt lat="44.29856" lon="7.15679">
        <ele>920</ele>
        <time>2022-07-19T03:56:19Z</time>
      </trkpt>
      <trkpt lat="44.29855" lon="7.15677">
        <ele>920.4</ele>
        <time>2022-07-19T03:56:20Z</time>
      </trkpt>
      <trkpt lat="44.29854" lon="7.15674">
        <ele>920.4</ele>
        <time>2022-07-19T03:56:21Z</time>
      </trkpt>
      <trkpt lat="44.29854" lon="7.15672">
        <ele>920.8</ele>
        <time>2022-07-19T03:56:22Z</time>
      </trkpt>
      <trkpt lat="44.29853" lon="7.1567">
        <ele>921</ele>
        <time>2022-07-19T03:56:23Z</time>
      </trkpt>
      <trkpt lat="44.29852" lon="7.15668">
        <ele>921</ele>
        <time>2022-07-19T03:56:24Z</time>
      </trkpt>
      <trkpt lat="44.29852" lon="7.15666">
        <ele>921.4</ele>
        <time>2022-07-19T03:56:25Z</time>
      </trkpt>
      <trkpt lat="44.29851" lon="7.15664">
        <ele>921.4</ele>
        <time>2022-07-19T03:56:26Z</time>
      </trkpt>
      <trkpt lat="44.2985" lon="7.15662">
        <ele>921.8</ele>
        <time>2022-07-19T03:56:27Z</time>
      </trkpt>
      <trkpt lat="44.29849" lon="7.1566">
        <ele>922</ele>
        <time>2022-07-19T03:56:28Z</time>
      </trkpt>
      <trkpt lat="44.29848" lon="7.15658">
        <ele>922</ele>
        <time>2022-07-19T03:56:29Z</time>
      </trkpt>
      <trkpt lat="44.29847" lon="7.15656">
        <ele>922.2</ele>
        <time>2022-07-19T03:56:30Z</time>
      </trkpt>
      <trkpt lat="44.29846" lon="7.15654">
        <ele>922.4</ele>
        <time>2022-07-19T03:56:31Z</time>
      </trkpt>
      <trkpt lat="44.29845" lon="7.15651">
        <ele>922.6</ele>
        <time>2022-07-19T03:56:32Z</time>
      </trkpt>
      <trkpt lat="44.29844" lon="7.15649">
        <ele>922.8</ele>
        <time>2022-07-19T03:56:33Z</time>
      </trkpt>
      <trkpt lat="44.29844" lon="7.15646">
        <ele>922.8</ele>
        <time>2022-07-19T03:56:34Z</time>
      </trkpt>
      <trkpt lat="44.29843" lon="7.15644">
        <ele>923.2</ele>
        <time>2022-07-19T03:56:35Z</time>
      </trkpt>
      <trkpt lat="44.29842" lon="7.15642">
        <ele>923.2</ele>
        <time>2022-07-19T03:56:36Z</time>
      </trkpt>
      <trkpt lat="44.29841" lon="7.1564">
        <ele>923.4</ele>
        <time>2022-07-19T03:56:37Z</time>
      </trkpt>
      <trkpt lat="44.2984" lon="7.15638">
        <ele>923.6</ele>
        <time>2022-07-19T03:56:38Z</time>
      </trkpt>
      <trkpt lat="44.29839" lon="7.15635">
        <ele>923.8</ele>
        <time>2022-07-19T03:56:39Z</time>
      </trkpt>
      <trkpt lat="44.29839" lon="7.15633">
        <ele>923.8</ele>
        <time>2022-07-19T03:56:40Z</time>
      </trkpt>
      <trkpt lat="44.29838" lon="7.1563">
        <ele>924.4</ele>
        <time>2022-07-19T03:56:41Z</time>
      </trkpt>
      <trkpt lat="44.29838" lon="7.15628">
        <ele>924.6</ele>
        <time>2022-07-19T03:56:42Z</time>
      </trkpt>
      <trkpt lat="44.29837" lon="7.15625">
        <ele>924.8</ele>
        <time>2022-07-19T03:56:43Z</time>
      </trkpt>
      <trkpt lat="44.29836" lon="7.15623">
        <ele>924.8</ele>
        <time>2022-07-19T03:56:44Z</time>
      </trkpt>
      <trkpt lat="44.29836" lon="7.1562">
        <ele>925</ele>
        <time>2022-07-19T03:56:45Z</time>
      </trkpt>
      <trkpt lat="44.29835" lon="7.15618">
        <ele>925</ele>
        <time>2022-07-19T03:56:46Z</time>
      </trkpt>
      <trkpt lat="44.29835" lon="7.15615">
        <ele>925.4</ele>
        <time>2022-07-19T03:56:47Z</time>
      </trkpt>
      <trkpt lat="44.29834" lon="7.15612">
        <ele>925.4</ele>
        <time>2022-07-19T03:56:48Z</time>
      </trkpt>
      <trkpt lat="44.29834" lon="7.1561">
        <ele>925.6</ele>
        <time>2022-07-19T03:56:49Z</time>
      </trkpt>
      <trkpt lat="44.29833" lon="7.15608">
        <ele>925.6</ele>
        <time>2022-07-19T03:56:50Z</time>
      </trkpt>
      <trkpt lat="44.29833" lon="7.15606">
        <ele>926</ele>
        <time>2022-07-19T03:56:51Z</time>
      </trkpt>
      <trkpt lat="44.29832" lon="7.15604">
        <ele>926</ele>
        <time>2022-07-19T03:56:52Z</time>
      </trkpt>
      <trkpt lat="44.29831" lon="7.15602">
        <ele>926.2</ele>
        <time>2022-07-19T03:56:53Z</time>
      </trkpt>
      <trkpt lat="44.2983" lon="7.156">
        <ele>926.2</ele>
        <time>2022-07-19T03:56:54Z</time>
      </trkpt>
      <trkpt lat="44.29829" lon="7.15598">
        <ele>926.6</ele>
        <time>2022-07-19T03:56:55Z</time>
      </trkpt>
      <trkpt lat="44.29827" lon="7.15596">
        <ele>926.6</ele>
        <time>2022-07-19T03:56:56Z</time>
      </trkpt>
      <trkpt lat="44.29826" lon="7.15595">
        <ele>926.6</ele>
        <time>2022-07-19T03:56:57Z</time>
      </trkpt>
      <trkpt lat="44.29824" lon="7.15595">
        <ele>926.8</ele>
        <time>2022-07-19T03:56:58Z</time>
      </trkpt>
      <trkpt lat="44.29822" lon="7.15596">
        <ele>926.8</ele>
        <time>2022-07-19T03:56:59Z</time>
      </trkpt>
      <trkpt lat="44.29821" lon="7.15597">
        <ele>926.8</ele>
        <time>2022-07-19T03:57:00Z</time>
      </trkpt>
      <trkpt lat="44.2982" lon="7.156">
        <ele>927</ele>
        <time>2022-07-19T03:57:01Z</time>
      </trkpt>
      <trkpt lat="44.29819" lon="7.15603">
        <ele>927</ele>
        <time>2022-07-19T03:57:02Z</time>
      </trkpt>
      <trkpt lat="44.29819" lon="7.15606">
        <ele>927.2</ele>
        <time>2022-07-19T03:57:03Z</time>
      </trkpt>
      <trkpt lat="44.29819" lon="7.1561">
        <ele>927.2</ele>
        <time>2022-07-19T03:57:04Z</time>
      </trkpt>
      <trkpt lat="44.29819" lon="7.15613">
        <ele>927.2</ele>
        <time>2022-07-19T03:57:05Z</time>
      </trkpt>
      <trkpt lat="44.2982" lon="7.15615">
        <ele>927.6</ele>
        <time>2022-07-19T03:57:06Z</time>
      </trkpt>
      <trkpt lat="44.29819" lon="7.15618">
        <ele>927.6</ele>
        <time>2022-07-19T03:57:07Z</time>
      </trkpt>
      <trkpt lat="44.2982" lon="7.15621">
        <ele>927.8</ele>
        <time>2022-07-19T03:57:08Z</time>
      </trkpt>
      <trkpt lat="44.2982" lon="7.15624">
        <ele>927.8</ele>
        <time>2022-07-19T03:57:09Z</time>
      </trkpt>
      <trkpt lat="44.2982" lon="7.15626">
        <ele>928.2</ele>
        <time>2022-07-19T03:57:10Z</time>
      </trkpt>
      <trkpt lat="44.29821" lon="7.15629">
        <ele>928.4</ele>
        <time>2022-07-19T03:57:11Z</time>
      </trkpt>
      <trkpt lat="44.29821" lon="7.15632">
        <ele>928.6</ele>
        <time>2022-07-19T03:57:12Z</time>
      </trkpt>
      <trkpt lat="44.29821" lon="7.15635">
        <ele>928.6</ele>
        <time>2022-07-19T03:57:13Z</time>
      </trkpt>
      <trkpt lat="44.29821" lon="7.15637">
        <ele>929</ele>
        <time>2022-07-19T03:57:14Z</time>
      </trkpt>
      <trkpt lat="44.29822" lon="7.1564">
        <ele>929</ele>
        <time>2022-07-19T03:57:15Z</time>
      </trkpt>
      <trkpt lat="44.29822" lon="7.15643">
        <ele>929.4</ele>
        <time>2022-07-19T03:57:16Z</time>
      </trkpt>
      <trkpt lat="44.29822" lon="7.15646">
        <ele>929.8</ele>
        <time>2022-07-19T03:57:17Z</time>
      </trkpt>
      <trkpt lat="44.29822" lon="7.15648">
        <ele>930</ele>
        <time>2022-07-19T03:57:18Z</time>
      </trkpt>
      <trkpt lat="44.29823" lon="7.15651">
        <ele>930</ele>
        <time>2022-07-19T03:57:19Z</time>
      </trkpt>
      <trkpt lat="44.29823" lon="7.15654">
        <ele>930.4</ele>
        <time>2022-07-19T03:57:20Z</time>
      </trkpt>
      <trkpt lat="44.29823" lon="7.15656">
        <ele>930.6</ele>
        <time>2022-07-19T03:57:21Z</time>
      </trkpt>
      <trkpt lat="44.29823" lon="7.15659">
        <ele>930.8</ele>
        <time>2022-07-19T03:57:22Z</time>
      </trkpt>
      <trkpt lat="44.29824" lon="7.15662">
        <ele>930.8</ele>
        <time>2022-07-19T03:57:23Z</time>
      </trkpt>
      <trkpt lat="44.29824" lon="7.15664">
        <ele>931</ele>
        <time>2022-07-19T03:57:24Z</time>
      </trkpt>
      <trkpt lat="44.29825" lon="7.15667">
        <ele>931.2</ele>
        <time>2022-07-19T03:57:25Z</time>
      </trkpt>
      <trkpt lat="44.29825" lon="7.15669">
        <ele>931.2</ele>
        <time>2022-07-19T03:57:26Z</time>
      </trkpt>
      <trkpt lat="44.29826" lon="7.15672">
        <ele>931.6</ele>
        <time>2022-07-19T03:57:27Z</time>
      </trkpt>
      <trkpt lat="44.29826" lon="7.15675">
        <ele>931.6</ele>
        <time>2022-07-19T03:57:28Z</time>
      </trkpt>
      <trkpt lat="44.29827" lon="7.15677">
        <ele>932</ele>
        <time>2022-07-19T03:57:29Z</time>
      </trkpt>
      <trkpt lat="44.29828" lon="7.1568">
        <ele>932.2</ele>
        <time>2022-07-19T03:57:30Z</time>
      </trkpt>
      <trkpt lat="44.29829" lon="7.15682">
        <ele>932.2</ele>
        <time>2022-07-19T03:57:31Z</time>
      </trkpt>
      <trkpt lat="44.29829" lon="7.15685">
        <ele>932.6</ele>
        <time>2022-07-19T03:57:32Z</time>
      </trkpt>
      <trkpt lat="44.2983" lon="7.15687">
        <ele>932.8</ele>
        <time>2022-07-19T03:57:33Z</time>
      </trkpt>
      <trkpt lat="44.29831" lon="7.15689">
        <ele>933</ele>
        <time>2022-07-19T03:57:34Z</time>
      </trkpt>
      <trkpt lat="44.29832" lon="7.15692">
        <ele>933</ele>
        <time>2022-07-19T03:57:35Z</time>
      </trkpt>
      <trkpt lat="44.29832" lon="7.15694">
        <ele>933.4</ele>
        <time>2022-07-19T03:57:36Z</time>
      </trkpt>
      <trkpt lat="44.29833" lon="7.15696">
        <ele>933.6</ele>
        <time>2022-07-19T03:57:37Z</time>
      </trkpt>
      <trkpt lat="44.29833" lon="7.15699">
        <ele>933.6</ele>
        <time>2022-07-19T03:57:38Z</time>
      </trkpt>
      <trkpt lat="44.29834" lon="7.15701">
        <ele>934</ele>
        <time>2022-07-19T03:57:39Z</time>
      </trkpt>
      <trkpt lat="44.29835" lon="7.15704">
        <ele>934.2</ele>
        <time>2022-07-19T03:57:40Z</time>
      </trkpt>
      <trkpt lat="44.29836" lon="7.15706">
        <ele>934.4</ele>
        <time>2022-07-19T03:57:41Z</time>
      </trkpt>
      <trkpt lat="44.29836" lon="7.15708">
        <ele>934.4</ele>
        <time>2022-07-19T03:57:42Z</time>
      </trkpt>
      <trkpt lat="44.29836" lon="7.15711">
        <ele>934.8</ele>
        <time>2022-07-19T03:57:43Z</time>
      </trkpt>
      <trkpt lat="44.29837" lon="7.15713">
        <ele>934.8</ele>
        <time>2022-07-19T03:57:44Z</time>
      </trkpt>
      <trkpt lat="44.29837" lon="7.15716">
        <ele>935.2</ele>
        <time>2022-07-19T03:57:45Z</time>
      </trkpt>
      <trkpt lat="44.29837" lon="7.15718">
        <ele>935.4</ele>
        <time>2022-07-19T03:57:46Z</time>
      </trkpt>
      <trkpt lat="44.29837" lon="7.1572">
        <ele>935.4</ele>
        <time>2022-07-19T03:57:47Z</time>
      </trkpt>
      <trkpt lat="44.29836" lon="7.15722">
        <ele>935.6</ele>
        <time>2022-07-19T03:57:48Z</time>
      </trkpt>
      <trkpt lat="44.29835" lon="7.15724">
        <ele>935.6</ele>
        <time>2022-07-19T03:57:49Z</time>
      </trkpt>
      <trkpt lat="44.29834" lon="7.15725">
        <ele>936</ele>
        <time>2022-07-19T03:57:50Z</time>
      </trkpt>
      <trkpt lat="44.29832" lon="7.15724">
        <ele>936.4</ele>
        <time>2022-07-19T03:57:51Z</time>
      </trkpt>
      <trkpt lat="44.2983" lon="7.15723">
        <ele>936.4</ele>
        <time>2022-07-19T03:57:52Z</time>
      </trkpt>
      <trkpt lat="44.29829" lon="7.15721">
        <ele>936.6</ele>
        <time>2022-07-19T03:57:53Z</time>
      </trkpt>
      <trkpt lat="44.29829" lon="7.15719">
        <ele>936.6</ele>
        <time>2022-07-19T03:57:54Z</time>
      </trkpt>
      <trkpt lat="44.29828" lon="7.15717">
        <ele>936.6</ele>
        <time>2022-07-19T03:57:55Z</time>
      </trkpt>
      <trkpt lat="44.29828" lon="7.15715">
        <ele>937</ele>
        <time>2022-07-19T03:57:56Z</time>
      </trkpt>
      <trkpt lat="44.29827" lon="7.15713">
        <ele>937</ele>
        <time>2022-07-19T03:57:57Z</time>
      </trkpt>
      <trkpt lat="44.29827" lon="7.1571">
        <ele>937.4</ele>
        <time>2022-07-19T03:57:58Z</time>
      </trkpt>
      <trkpt lat="44.29827" lon="7.15708">
        <ele>937.4</ele>
        <time>2022-07-19T03:57:59Z</time>
      </trkpt>
      <trkpt lat="44.29826" lon="7.15705">
        <ele>937.6</ele>
        <time>2022-07-19T03:58:00Z</time>
      </trkpt>
      <trkpt lat="44.29825" lon="7.15703">
        <ele>937.6</ele>
        <time>2022-07-19T03:58:01Z</time>
      </trkpt>
      <trkpt lat="44.29825" lon="7.157">
        <ele>937.6</ele>
        <time>2022-07-19T03:58:02Z</time>
      </trkpt>
      <trkpt lat="44.29824" lon="7.15697">
        <ele>938</ele>
        <time>2022-07-19T03:58:03Z</time>
      </trkpt>
      <trkpt lat="44.29823" lon="7.15695">
        <ele>938</ele>
        <time>2022-07-19T03:58:04Z</time>
      </trkpt>
      <trkpt lat="44.29823" lon="7.15692">
        <ele>938</ele>
        <time>2022-07-19T03:58:05Z</time>
      </trkpt>
      <trkpt lat="44.29822" lon="7.1569">
        <ele>938.2</ele>
        <time>2022-07-19T03:58:06Z</time>
      </trkpt>
      <trkpt lat="44.29821" lon="7.15688">
        <ele>938.2</ele>
        <time>2022-07-19T03:58:07Z</time>
      </trkpt>
      <trkpt lat="44.2982" lon="7.15685">
        <ele>938.4</ele>
        <time>2022-07-19T03:58:08Z</time>
      </trkpt>
      <trkpt lat="44.29819" lon="7.15682">
        <ele>938.4</ele>
        <time>2022-07-19T03:58:09Z</time>
      </trkpt>
      <trkpt lat="44.29818" lon="7.1568">
        <ele>938.4</ele>
        <time>2022-07-19T03:58:10Z</time>
      </trkpt>
      <trkpt lat="44.29817" lon="7.15677">
        <ele>938.6</ele>
        <time>2022-07-19T03:58:11Z</time>
      </trkpt>
      <trkpt lat="44.29816" lon="7.15674">
        <ele>938.6</ele>
        <time>2022-07-19T03:58:12Z</time>
      </trkpt>
      <trkpt lat="44.29815" lon="7.15671">
        <ele>938.6</ele>
        <time>2022-07-19T03:58:13Z</time>
      </trkpt>
      <trkpt lat="44.29814" lon="7.15668">
        <ele>939</ele>
        <time>2022-07-19T03:58:14Z</time>
      </trkpt>
      <trkpt lat="44.29813" lon="7.15665">
        <ele>939</ele>
        <time>2022-07-19T03:58:15Z</time>
      </trkpt>
      <trkpt lat="44.29813" lon="7.15663">
        <ele>939.2</ele>
        <time>2022-07-19T03:58:16Z</time>
      </trkpt>
      <trkpt lat="44.29812" lon="7.1566">
        <ele>939.2</ele>
        <time>2022-07-19T03:58:17Z</time>
      </trkpt>
      <trkpt lat="44.29811" lon="7.15657">
        <ele>939.4</ele>
        <time>2022-07-19T03:58:18Z</time>
      </trkpt>
      <trkpt lat="44.2981" lon="7.15655">
        <ele>939.4</ele>
        <time>2022-07-19T03:58:19Z</time>
      </trkpt>
      <trkpt lat="44.29809" lon="7.15652">
        <ele>939.8</ele>
        <time>2022-07-19T03:58:20Z</time>
      </trkpt>
      <trkpt lat="44.29808" lon="7.1565">
        <ele>939.8</ele>
        <time>2022-07-19T03:58:21Z</time>
      </trkpt>
      <trkpt lat="44.29807" lon="7.15647">
        <ele>940</ele>
        <time>2022-07-19T03:58:22Z</time>
      </trkpt>
      <trkpt lat="44.29806" lon="7.15645">
        <ele>940</ele>
        <time>2022-07-19T03:58:23Z</time>
      </trkpt>
      <trkpt lat="44.29806" lon="7.15642">
        <ele>940</ele>
        <time>2022-07-19T03:58:24Z</time>
      </trkpt>
      <trkpt lat="44.29805" lon="7.15639">
        <ele>940.4</ele>
        <time>2022-07-19T03:58:25Z</time>
      </trkpt>
      <trkpt lat="44.29804" lon="7.15636">
        <ele>940.4</ele>
        <time>2022-07-19T03:58:26Z</time>
      </trkpt>
      <trkpt lat="44.29803" lon="7.15634">
        <ele>940.4</ele>
        <time>2022-07-19T03:58:27Z</time>
      </trkpt>
      <trkpt lat="44.29801" lon="7.15632">
        <ele>940.4</ele>
        <time>2022-07-19T03:58:28Z</time>
      </trkpt>
      <trkpt lat="44.29799" lon="7.1563">
        <ele>940.6</ele>
        <time>2022-07-19T03:58:29Z</time>
      </trkpt>
      <trkpt lat="44.29798" lon="7.15629">
        <ele>940.6</ele>
        <time>2022-07-19T03:58:30Z</time>
      </trkpt>
      <trkpt lat="44.29795" lon="7.15628">
        <ele>940.6</ele>
        <time>2022-07-19T03:58:31Z</time>
      </trkpt>
      <trkpt lat="44.29793" lon="7.15628">
        <ele>940.8</ele>
        <time>2022-07-19T03:58:32Z</time>
      </trkpt>
      <trkpt lat="44.29791" lon="7.15629">
        <ele>940.8</ele>
        <time>2022-07-19T03:58:33Z</time>
      </trkpt>
      <trkpt lat="44.29789" lon="7.15631">
        <ele>940.8</ele>
        <time>2022-07-19T03:58:34Z</time>
      </trkpt>
      <trkpt lat="44.29788" lon="7.15634">
        <ele>940.8</ele>
        <time>2022-07-19T03:58:35Z</time>
      </trkpt>
      <trkpt lat="44.29787" lon="7.15637">
        <ele>941</ele>
        <time>2022-07-19T03:58:36Z</time>
      </trkpt>
      <trkpt lat="44.29787" lon="7.1564">
        <ele>941</ele>
        <time>2022-07-19T03:58:37Z</time>
      </trkpt>
      <trkpt lat="44.29788" lon="7.15643">
        <ele>941</ele>
        <time>2022-07-19T03:58:38Z</time>
      </trkpt>
      <trkpt lat="44.29789" lon="7.15646">
        <ele>941</ele>
        <time>2022-07-19T03:58:39Z</time>
      </trkpt>
      <trkpt lat="44.2979" lon="7.15648">
        <ele>941.2</ele>
        <time>2022-07-19T03:58:40Z</time>
      </trkpt>
      <trkpt lat="44.2979" lon="7.15651">
        <ele>941.2</ele>
        <time>2022-07-19T03:58:41Z</time>
      </trkpt>
      <trkpt lat="44.29791" lon="7.15654">
        <ele>941.6</ele>
        <time>2022-07-19T03:58:42Z</time>
      </trkpt>
      <trkpt lat="44.29792" lon="7.15656">
        <ele>941.6</ele>
        <time>2022-07-19T03:58:43Z</time>
      </trkpt>
      <trkpt lat="44.29793" lon="7.15659">
        <ele>941.8</ele>
        <time>2022-07-19T03:58:44Z</time>
      </trkpt>
      <trkpt lat="44.29794" lon="7.15661">
        <ele>941.8</ele>
        <time>2022-07-19T03:58:45Z</time>
      </trkpt>
      <trkpt lat="44.29795" lon="7.15664">
        <ele>942</ele>
        <time>2022-07-19T03:58:46Z</time>
      </trkpt>
      <trkpt lat="44.29796" lon="7.15667">
        <ele>942</ele>
        <time>2022-07-19T03:58:47Z</time>
      </trkpt>
      <trkpt lat="44.29797" lon="7.15669">
        <ele>942.4</ele>
        <time>2022-07-19T03:58:48Z</time>
      </trkpt>
      <trkpt lat="44.29798" lon="7.15672">
        <ele>942.4</ele>
        <time>2022-07-19T03:58:49Z</time>
      </trkpt>
      <trkpt lat="44.29799" lon="7.15674">
        <ele>942.6</ele>
        <time>2022-07-19T03:58:50Z</time>
      </trkpt>
      <trkpt lat="44.298" lon="7.15677">
        <ele>942.6</ele>
        <time>2022-07-19T03:58:51Z</time>
      </trkpt>
      <trkpt lat="44.29801" lon="7.15679">
        <ele>943</ele>
        <time>2022-07-19T03:58:52Z</time>
      </trkpt>
      <trkpt lat="44.29803" lon="7.15681">
        <ele>943</ele>
        <time>2022-07-19T03:58:53Z</time>
      </trkpt>
      <trkpt lat="44.29804" lon="7.15684">
        <ele>943.4</ele>
        <time>2022-07-19T03:58:54Z</time>
      </trkpt>
      <trkpt lat="44.29805" lon="7.15686">
        <ele>943.4</ele>
        <time>2022-07-19T03:58:55Z</time>
      </trkpt>
      <trkpt lat="44.29806" lon="7.15689">
        <ele>943.6</ele>
        <time>2022-07-19T03:58:56Z</time>
      </trkpt>
      <trkpt lat="44.29807" lon="7.15691">
        <ele>943.6</ele>
        <time>2022-07-19T03:58:57Z</time>
      </trkpt>
      <trkpt lat="44.29808" lon="7.15694">
        <ele>944</ele>
        <time>2022-07-19T03:58:58Z</time>
      </trkpt>
      <trkpt lat="44.29809" lon="7.15696">
        <ele>944</ele>
        <time>2022-07-19T03:58:59Z</time>
      </trkpt>
      <trkpt lat="44.2981" lon="7.15699">
        <ele>944.4</ele>
        <time>2022-07-19T03:59:00Z</time>
      </trkpt>
      <trkpt lat="44.29811" lon="7.15701">
        <ele>944.4</ele>
        <time>2022-07-19T03:59:01Z</time>
      </trkpt>
      <trkpt lat="44.29812" lon="7.15704">
        <ele>944.8</ele>
        <time>2022-07-19T03:59:02Z</time>
      </trkpt>
      <trkpt lat="44.29813" lon="7.15706">
        <ele>944.8</ele>
        <time>2022-07-19T03:59:03Z</time>
      </trkpt>
      <trkpt lat="44.29814" lon="7.15708">
        <ele>945</ele>
        <time>2022-07-19T03:59:04Z</time>
      </trkpt>
      <trkpt lat="44.29814" lon="7.15711">
        <ele>945</ele>
        <time>2022-07-19T03:59:05Z</time>
      </trkpt>
      <trkpt lat="44.29814" lon="7.15714">
        <ele>945.2</ele>
        <time>2022-07-19T03:59:06Z</time>
      </trkpt>
      <trkpt lat="44.29814" lon="7.15716">
        <ele>945.2</ele>
        <time>2022-07-19T03:59:07Z</time>
      </trkpt>
      <trkpt lat="44.29812" lon="7.15719">
        <ele>945.6</ele>
        <time>2022-07-19T03:59:08Z</time>
      </trkpt>
      <trkpt lat="44.29809" lon="7.15721">
        <ele>945.6</ele>
        <time>2022-07-19T03:59:09Z</time>
      </trkpt>
      <trkpt lat="44.29807" lon="7.1572">
        <ele>945.8</ele>
        <time>2022-07-19T03:59:10Z</time>
      </trkpt>
      <trkpt lat="44.29806" lon="7.15718">
        <ele>945.8</ele>
        <time>2022-07-19T03:59:11Z</time>
      </trkpt>
      <trkpt lat="44.29805" lon="7.15717">
        <ele>946</ele>
        <time>2022-07-19T03:59:12Z</time>
      </trkpt>
      <trkpt lat="44.29805" lon="7.15714">
        <ele>946.2</ele>
        <time>2022-07-19T03:59:13Z</time>
      </trkpt>
      <trkpt lat="44.29804" lon="7.15712">
        <ele>946.2</ele>
        <time>2022-07-19T03:59:14Z</time>
      </trkpt>
      <trkpt lat="44.29804" lon="7.15709">
        <ele>946.6</ele>
        <time>2022-07-19T03:59:15Z</time>
      </trkpt>
      <trkpt lat="44.29803" lon="7.15707">
        <ele>946.6</ele>
        <time>2022-07-19T03:59:16Z</time>
      </trkpt>
      <trkpt lat="44.29803" lon="7.15704">
        <ele>946.8</ele>
        <time>2022-07-19T03:59:17Z</time>
      </trkpt>
      <trkpt lat="44.29802" lon="7.15702">
        <ele>947</ele>
        <time>2022-07-19T03:59:18Z</time>
      </trkpt>
      <trkpt lat="44.29801" lon="7.157">
        <ele>947</ele>
        <time>2022-07-19T03:59:19Z</time>
      </trkpt>
      <trkpt lat="44.298" lon="7.15698">
        <ele>947.4</ele>
        <time>2022-07-19T03:59:20Z</time>
      </trkpt>
      <trkpt lat="44.29799" lon="7.15696">
        <ele>947.4</ele>
        <time>2022-07-19T03:59:21Z</time>
      </trkpt>
      <trkpt lat="44.29798" lon="7.15693">
        <ele>947.6</ele>
        <time>2022-07-19T03:59:22Z</time>
      </trkpt>
      <trkpt lat="44.29797" lon="7.15691">
        <ele>947.6</ele>
        <time>2022-07-19T03:59:23Z</time>
      </trkpt>
      <trkpt lat="44.29796" lon="7.15688">
        <ele>948</ele>
        <time>2022-07-19T03:59:24Z</time>
      </trkpt>
      <trkpt lat="44.29795" lon="7.15686">
        <ele>948.2</ele>
        <time>2022-07-19T03:59:25Z</time>
      </trkpt>
      <trkpt lat="44.29794" lon="7.15683">
        <ele>948.2</ele>
        <time>2022-07-19T03:59:26Z</time>
      </trkpt>
      <trkpt lat="44.29793" lon="7.15681">
        <ele>948.6</ele>
        <time>2022-07-19T03:59:27Z</time>
      </trkpt>
      <trkpt lat="44.29792" lon="7.15679">
        <ele>948.6</ele>
        <time>2022-07-19T03:59:28Z</time>
      </trkpt>
      <trkpt lat="44.29791" lon="7.15677">
        <ele>949</ele>
        <time>2022-07-19T03:59:29Z</time>
      </trkpt>
      <trkpt lat="44.2979" lon="7.15674">
        <ele>949</ele>
        <time>2022-07-19T03:59:30Z</time>
      </trkpt>
      <trkpt lat="44.29789" lon="7.15672">
        <ele>949.2</ele>
        <time>2022-07-19T03:59:31Z</time>
      </trkpt>
      <trkpt lat="44.29789" lon="7.1567">
        <ele>949.2</ele>
        <time>2022-07-19T03:59:32Z</time>
      </trkpt>
      <trkpt lat="44.29788" lon="7.15667">
        <ele>949.6</ele>
        <time>2022-07-19T03:59:33Z</time>
      </trkpt>
      <trkpt lat="44.29787" lon="7.15665">
        <ele>949.6</ele>
        <time>2022-07-19T03:59:34Z</time>
      </trkpt>
      <trkpt lat="44.29786" lon="7.15663">
        <ele>949.8</ele>
        <time>2022-07-19T03:59:35Z</time>
      </trkpt>
      <trkpt lat="44.29785" lon="7.15661">
        <ele>949.8</ele>
        <time>2022-07-19T03:59:36Z</time>
      </trkpt>
      <trkpt lat="44.29783" lon="7.15659">
        <ele>950</ele>
        <time>2022-07-19T03:59:37Z</time>
      </trkpt>
      <trkpt lat="44.29781" lon="7.15658">
        <ele>950</ele>
        <time>2022-07-19T03:59:38Z</time>
      </trkpt>
      <trkpt lat="44.29779" lon="7.15657">
        <ele>950.2</ele>
        <time>2022-07-19T03:59:39Z</time>
      </trkpt>
      <trkpt lat="44.29776" lon="7.15657">
        <ele>950.2</ele>
        <time>2022-07-19T03:59:40Z</time>
      </trkpt>
      <trkpt lat="44.29774" lon="7.15659">
        <ele>950.2</ele>
        <time>2022-07-19T03:59:41Z</time>
      </trkpt>
      <trkpt lat="44.29773" lon="7.15661">
        <ele>950.6</ele>
        <time>2022-07-19T03:59:42Z</time>
      </trkpt>
      <trkpt lat="44.29772" lon="7.15664">
        <ele>950.6</ele>
        <time>2022-07-19T03:59:43Z</time>
      </trkpt>
      <trkpt lat="44.29771" lon="7.15667">
        <ele>950.6</ele>
        <time>2022-07-19T03:59:44Z</time>
      </trkpt>
      <trkpt lat="44.29771" lon="7.1567">
        <ele>950.8</ele>
        <time>2022-07-19T03:59:45Z</time>
      </trkpt>
      <trkpt lat="44.29771" lon="7.15672">
        <ele>950.8</ele>
        <time>2022-07-19T03:59:46Z</time>
      </trkpt>
      <trkpt lat="44.29772" lon="7.15675">
        <ele>951</ele>
        <time>2022-07-19T03:59:47Z</time>
      </trkpt>
      <trkpt lat="44.29773" lon="7.15677">
        <ele>951</ele>
        <time>2022-07-19T03:59:48Z</time>
      </trkpt>
      <trkpt lat="44.29774" lon="7.15679">
        <ele>951.4</ele>
        <time>2022-07-19T03:59:49Z</time>
      </trkpt>
      <trkpt lat="44.29775" lon="7.15681">
        <ele>951.6</ele>
        <time>2022-07-19T03:59:50Z</time>
      </trkpt>
      <trkpt lat="44.29776" lon="7.15683">
        <ele>951.6</ele>
        <time>2022-07-19T03:59:51Z</time>
      </trkpt>
      <trkpt lat="44.29777" lon="7.15685">
        <ele>952</ele>
        <time>2022-07-19T03:59:52Z</time>
      </trkpt>
      <trkpt lat="44.29778" lon="7.15688">
        <ele>952</ele>
        <time>2022-07-19T03:59:53Z</time>
      </trkpt>
      <trkpt lat="44.29779" lon="7.1569">
        <ele>952.2</ele>
        <time>2022-07-19T03:59:54Z</time>
      </trkpt>
      <trkpt lat="44.2978" lon="7.15693">
        <ele>952.2</ele>
        <time>2022-07-19T03:59:55Z</time>
      </trkpt>
      <trkpt lat="44.29781" lon="7.15696">
        <ele>952.6</ele>
        <time>2022-07-19T03:59:56Z</time>
      </trkpt>
      <trkpt lat="44.29781" lon="7.15698">
        <ele>952.6</ele>
        <time>2022-07-19T03:59:57Z</time>
      </trkpt>
      <trkpt lat="44.29782" lon="7.15701">
        <ele>953</ele>
        <time>2022-07-19T03:59:58Z</time>
      </trkpt>
      <trkpt lat="44.29783" lon="7.15703">
        <ele>953.2</ele>
        <time>2022-07-19T03:59:59Z</time>
      </trkpt>
      <trkpt lat="44.29784" lon="7.15705">
        <ele>953.4</ele>
        <time>2022-07-19T04:00:00Z</time>
      </trkpt>
      <trkpt lat="44.29784" lon="7.15708">
        <ele>953.6</ele>
        <time>2022-07-19T04:00:01Z</time>
      </trkpt>
      <trkpt lat="44.29785" lon="7.1571">
        <ele>954</ele>
        <time>2022-07-19T04:00:02Z</time>
      </trkpt>
      <trkpt lat="44.29786" lon="7.15712">
        <ele>954</ele>
        <time>2022-07-19T04:00:03Z</time>
      </trkpt>
      <trkpt lat="44.29787" lon="7.15714">
        <ele>954.4</ele>
        <time>2022-07-19T04:00:04Z</time>
      </trkpt>
      <trkpt lat="44.29788" lon="7.15716">
        <ele>954.4</ele>
        <time>2022-07-19T04:00:05Z</time>
      </trkpt>
      <trkpt lat="44.29789" lon="7.15718">
        <ele>954.6</ele>
        <time>2022-07-19T04:00:06Z</time>
      </trkpt>
      <trkpt lat="44.29789" lon="7.1572">
        <ele>954.6</ele>
        <time>2022-07-19T04:00:07Z</time>
      </trkpt>
      <trkpt lat="44.2979" lon="7.15722">
        <ele>955</ele>
        <time>2022-07-19T04:00:08Z</time>
      </trkpt>
      <trkpt lat="44.29791" lon="7.15724">
        <ele>955</ele>
        <time>2022-07-19T04:00:09Z</time>
      </trkpt>
      <trkpt lat="44.29792" lon="7.15726">
        <ele>955.2</ele>
        <time>2022-07-19T04:00:10Z</time>
      </trkpt>
      <trkpt lat="44.29793" lon="7.15728">
        <ele>955.2</ele>
        <time>2022-07-19T04:00:11Z</time>
      </trkpt>
      <trkpt lat="44.29793" lon="7.1573">
        <ele>955.6</ele>
        <time>2022-07-19T04:00:12Z</time>
      </trkpt>
      <trkpt lat="44.29795" lon="7.15732">
        <ele>955.6</ele>
        <time>2022-07-19T04:00:13Z</time>
      </trkpt>
      <trkpt lat="44.29795" lon="7.15734">
        <ele>955.6</ele>
        <time>2022-07-19T04:00:14Z</time>
      </trkpt>
      <trkpt lat="44.29796" lon="7.15736">
        <ele>956</ele>
        <time>2022-07-19T04:00:15Z</time>
      </trkpt>
      <trkpt lat="44.29796" lon="7.15738">
        <ele>956.2</ele>
        <time>2022-07-19T04:00:16Z</time>
      </trkpt>
      <trkpt lat="44.29796" lon="7.1574">
        <ele>956.2</ele>
        <time>2022-07-19T04:00:17Z</time>
      </trkpt>
      <trkpt lat="44.29795" lon="7.15743">
        <ele>956.4</ele>
        <time>2022-07-19T04:00:18Z</time>
      </trkpt>
      <trkpt lat="44.29794" lon="7.15745">
        <ele>956.6</ele>
        <time>2022-07-19T04:00:19Z</time>
      </trkpt>
      <trkpt lat="44.29793" lon="7.15747">
        <ele>956.6</ele>
        <time>2022-07-19T04:00:20Z</time>
      </trkpt>
      <trkpt lat="44.29791" lon="7.15748">
        <ele>957</ele>
        <time>2022-07-19T04:00:21Z</time>
      </trkpt>
      <trkpt lat="44.29789" lon="7.15748">
        <ele>957</ele>
        <time>2022-07-19T04:00:22Z</time>
      </trkpt>
      <trkpt lat="44.29787" lon="7.15748">
        <ele>957</ele>
        <time>2022-07-19T04:00:23Z</time>
      </trkpt>
      <trkpt lat="44.29785" lon="7.15747">
        <ele>957.2</ele>
        <time>2022-07-19T04:00:24Z</time>
      </trkpt>
      <trkpt lat="44.29783" lon="7.15745">
        <ele>957.2</ele>
        <time>2022-07-19T04:00:25Z</time>
      </trkpt>
      <trkpt lat="44.29782" lon="7.15743">
        <ele>957.4</ele>
        <time>2022-07-19T04:00:26Z</time>
      </trkpt>
      <trkpt lat="44.29781" lon="7.15741">
        <ele>957.4</ele>
        <time>2022-07-19T04:00:27Z</time>
      </trkpt>
      <trkpt lat="44.29781" lon="7.15738">
        <ele>957.8</ele>
        <time>2022-07-19T04:00:28Z</time>
      </trkpt>
      <trkpt lat="44.2978" lon="7.15736">
        <ele>957.8</ele>
        <time>2022-07-19T04:00:29Z</time>
      </trkpt>
      <trkpt lat="44.2978" lon="7.15733">
        <ele>957.8</ele>
        <time>2022-07-19T04:00:30Z</time>
      </trkpt>
      <trkpt lat="44.29779" lon="7.1573">
        <ele>958.2</ele>
        <time>2022-07-19T04:00:31Z</time>
      </trkpt>
      <trkpt lat="44.29778" lon="7.15728">
        <ele>958.2</ele>
        <time>2022-07-19T04:00:32Z</time>
      </trkpt>
      <trkpt lat="44.29778" lon="7.15725">
        <ele>958.6</ele>
        <time>2022-07-19T04:00:33Z</time>
      </trkpt>
      <trkpt lat="44.29777" lon="7.15722">
        <ele>958.8</ele>
        <time>2022-07-19T04:00:34Z</time>
      </trkpt>
      <trkpt lat="44.29776" lon="7.1572">
        <ele>958.8</ele>
        <time>2022-07-19T04:00:35Z</time>
      </trkpt>
      <trkpt lat="44.29775" lon="7.15717">
        <ele>959.2</ele>
        <time>2022-07-19T04:00:36Z</time>
      </trkpt>
      <trkpt lat="44.29775" lon="7.15715">
        <ele>959.2</ele>
        <time>2022-07-19T04:00:37Z</time>
      </trkpt>
      <trkpt lat="44.29774" lon="7.15713">
        <ele>959.4</ele>
        <time>2022-07-19T04:00:38Z</time>
      </trkpt>
      <trkpt lat="44.29773" lon="7.15711">
        <ele>959.8</ele>
        <time>2022-07-19T04:00:39Z</time>
      </trkpt>
      <trkpt lat="44.29772" lon="7.15709">
        <ele>959.8</ele>
        <time>2022-07-19T04:00:40Z</time>
      </trkpt>
      <trkpt lat="44.29771" lon="7.15707">
        <ele>960</ele>
        <time>2022-07-19T04:00:41Z</time>
      </trkpt>
      <trkpt lat="44.2977" lon="7.15705">
        <ele>960.2</ele>
        <time>2022-07-19T04:00:42Z</time>
      </trkpt>
      <trkpt lat="44.29769" lon="7.15703">
        <ele>960.2</ele>
        <time>2022-07-19T04:00:43Z</time>
      </trkpt>
      <trkpt lat="44.29768" lon="7.15701">
        <ele>960.6</ele>
        <time>2022-07-19T04:00:44Z</time>
      </trkpt>
      <trkpt lat="44.29767" lon="7.157">
        <ele>960.8</ele>
        <time>2022-07-19T04:00:45Z</time>
      </trkpt>
      <trkpt lat="44.29766" lon="7.15698">
        <ele>961</ele>
        <time>2022-07-19T04:00:46Z</time>
      </trkpt>
      <trkpt lat="44.29766" lon="7.15695">
        <ele>961</ele>
        <time>2022-07-19T04:00:47Z</time>
      </trkpt>
      <trkpt lat="44.29765" lon="7.15693">
        <ele>961.4</ele>
        <time>2022-07-19T04:00:48Z</time>
      </trkpt>
      <trkpt lat="44.29764" lon="7.15691">
        <ele>961.6</ele>
        <time>2022-07-19T04:00:49Z</time>
      </trkpt>
      <trkpt lat="44.29764" lon="7.15689">
        <ele>961.6</ele>
        <time>2022-07-19T04:00:50Z</time>
      </trkpt>
      <trkpt lat="44.29763" lon="7.15687">
        <ele>962</ele>
        <time>2022-07-19T04:00:51Z</time>
      </trkpt>
      <trkpt lat="44.29762" lon="7.15684">
        <ele>962.2</ele>
        <time>2022-07-19T04:00:52Z</time>
      </trkpt>
      <trkpt lat="44.29762" lon="7.15682">
        <ele>962.2</ele>
        <time>2022-07-19T04:00:53Z</time>
      </trkpt>
      <trkpt lat="44.2976" lon="7.1568">
        <ele>962.6</ele>
        <time>2022-07-19T04:00:54Z</time>
      </trkpt>
      <trkpt lat="44.29758" lon="7.15679">
        <ele>962.6</ele>
        <time>2022-07-19T04:00:55Z</time>
      </trkpt>
      <trkpt lat="44.29756" lon="7.15678">
        <ele>962.8</ele>
        <time>2022-07-19T04:00:56Z</time>
      </trkpt>
      <trkpt lat="44.29753" lon="7.15677">
        <ele>962.8</ele>
        <time>2022-07-19T04:00:57Z</time>
      </trkpt>
      <trkpt lat="44.29751" lon="7.15678">
        <ele>963</ele>
        <time>2022-07-19T04:00:58Z</time>
      </trkpt>
      <trkpt lat="44.29749" lon="7.15679">
        <ele>963</ele>
        <time>2022-07-19T04:00:59Z</time>
      </trkpt>
      <trkpt lat="44.29747" lon="7.15681">
        <ele>963</ele>
        <time>2022-07-19T04:01:00Z</time>
      </trkpt>
      <trkpt lat="44.29746" lon="7.15684">
        <ele>963.4</ele>
        <time>2022-07-19T04:01:01Z</time>
      </trkpt>
      <trkpt lat="44.29745" lon="7.15688">
        <ele>963.4</ele>
        <time>2022-07-19T04:01:02Z</time>
      </trkpt>
      <trkpt lat="44.29745" lon="7.1569">
        <ele>963.4</ele>
        <time>2022-07-19T04:01:03Z</time>
      </trkpt>
      <trkpt lat="44.29746" lon="7.15693">
        <ele>963.6</ele>
        <time>2022-07-19T04:01:04Z</time>
      </trkpt>
      <trkpt lat="44.29747" lon="7.15696">
        <ele>963.6</ele>
        <time>2022-07-19T04:01:05Z</time>
      </trkpt>
      <trkpt lat="44.29748" lon="7.15698">
        <ele>963.8</ele>
        <time>2022-07-19T04:01:06Z</time>
      </trkpt>
      <trkpt lat="44.2975" lon="7.157">
        <ele>963.8</ele>
        <time>2022-07-19T04:01:07Z</time>
      </trkpt>
      <trkpt lat="44.29752" lon="7.15702">
        <ele>964.2</ele>
        <time>2022-07-19T04:01:08Z</time>
      </trkpt>
      <trkpt lat="44.29753" lon="7.15704">
        <ele>964.4</ele>
        <time>2022-07-19T04:01:09Z</time>
      </trkpt>
      <trkpt lat="44.29754" lon="7.15706">
        <ele>964.4</ele>
        <time>2022-07-19T04:01:10Z</time>
      </trkpt>
      <trkpt lat="44.29755" lon="7.15709">
        <ele>964.8</ele>
        <time>2022-07-19T04:01:11Z</time>
      </trkpt>
      <trkpt lat="44.29755" lon="7.15711">
        <ele>964.8</ele>
        <time>2022-07-19T04:01:12Z</time>
      </trkpt>
      <trkpt lat="44.29756" lon="7.15713">
        <ele>965.2</ele>
        <time>2022-07-19T04:01:13Z</time>
      </trkpt>
      <trkpt lat="44.29757" lon="7.15715">
        <ele>965.4</ele>
        <time>2022-07-19T04:01:14Z</time>
      </trkpt>
      <trkpt lat="44.29757" lon="7.15718">
        <ele>965.4</ele>
        <time>2022-07-19T04:01:15Z</time>
      </trkpt>
      <trkpt lat="44.29758" lon="7.1572">
        <ele>966</ele>
        <time>2022-07-19T04:01:16Z</time>
      </trkpt>
      <trkpt lat="44.29759" lon="7.15722">
        <ele>966</ele>
        <time>2022-07-19T04:01:17Z</time>
      </trkpt>
      <trkpt lat="44.29761" lon="7.15725">
        <ele>966.2</ele>
        <time>2022-07-19T04:01:18Z</time>
      </trkpt>
      <trkpt lat="44.29762" lon="7.15727">
        <ele>966.2</ele>
        <time>2022-07-19T04:01:19Z</time>
      </trkpt>
      <trkpt lat="44.29764" lon="7.15728">
        <ele>966.6</ele>
        <time>2022-07-19T04:01:20Z</time>
      </trkpt>
      <trkpt lat="44.29764" lon="7.15731">
        <ele>966.8</ele>
        <time>2022-07-19T04:01:21Z</time>
      </trkpt>
      <trkpt lat="44.29764" lon="7.15734">
        <ele>966.8</ele>
        <time>2022-07-19T04:01:22Z</time>
      </trkpt>
      <trkpt lat="44.29763" lon="7.15736">
        <ele>966.8</ele>
        <time>2022-07-19T04:01:23Z</time>
      </trkpt>
      <trkpt lat="44.29763" lon="7.15739">
        <ele>967</ele>
        <time>2022-07-19T04:01:24Z</time>
      </trkpt>
      <trkpt lat="44.29762" lon="7.15741">
        <ele>967</ele>
        <time>2022-07-19T04:01:25Z</time>
      </trkpt>
      <trkpt lat="44.29761" lon="7.15742">
        <ele>967.4</ele>
        <time>2022-07-19T04:01:26Z</time>
      </trkpt>
      <trkpt lat="44.29759" lon="7.15742">
        <ele>967.6</ele>
        <time>2022-07-19T04:01:27Z</time>
      </trkpt>
      <trkpt lat="44.29758" lon="7.15741">
        <ele>967.8</ele>
        <time>2022-07-19T04:01:28Z</time>
      </trkpt>
      <trkpt lat="44.29756" lon="7.15739">
        <ele>968.2</ele>
        <time>2022-07-19T04:01:29Z</time>
      </trkpt>
      <trkpt lat="44.29755" lon="7.15737">
        <ele>968.2</ele>
        <time>2022-07-19T04:01:30Z</time>
      </trkpt>
      <trkpt lat="44.29754" lon="7.15735">
        <ele>968.4</ele>
        <time>2022-07-19T04:01:31Z</time>
      </trkpt>
      <trkpt lat="44.29754" lon="7.15732">
        <ele>968.4</ele>
        <time>2022-07-19T04:01:32Z</time>
      </trkpt>
      <trkpt lat="44.29753" lon="7.1573">
        <ele>968.8</ele>
        <time>2022-07-19T04:01:33Z</time>
      </trkpt>
      <trkpt lat="44.29752" lon="7.15727">
        <ele>968.8</ele>
        <time>2022-07-19T04:01:34Z</time>
      </trkpt>
      <trkpt lat="44.29752" lon="7.15724">
        <ele>969.2</ele>
        <time>2022-07-19T04:01:35Z</time>
      </trkpt>
      <trkpt lat="44.29751" lon="7.15722">
        <ele>969.2</ele>
        <time>2022-07-19T04:01:36Z</time>
      </trkpt>
      <trkpt lat="44.29751" lon="7.1572">
        <ele>969.4</ele>
        <time>2022-07-19T04:01:37Z</time>
      </trkpt>
      <trkpt lat="44.2975" lon="7.15717">
        <ele>969.4</ele>
        <time>2022-07-19T04:01:38Z</time>
      </trkpt>
      <trkpt lat="44.29749" lon="7.15715">
        <ele>969.8</ele>
        <time>2022-07-19T04:01:39Z</time>
      </trkpt>
      <trkpt lat="44.29748" lon="7.15713">
        <ele>969.8</ele>
        <time>2022-07-19T04:01:40Z</time>
      </trkpt>
      <trkpt lat="44.29747" lon="7.15711">
        <ele>970.2</ele>
        <time>2022-07-19T04:01:41Z</time>
      </trkpt>
      <trkpt lat="44.29746" lon="7.15709">
        <ele>970.4</ele>
        <time>2022-07-19T04:01:42Z</time>
      </trkpt>
      <trkpt lat="44.29746" lon="7.15707">
        <ele>970.4</ele>
        <time>2022-07-19T04:01:43Z</time>
      </trkpt>
      <trkpt lat="44.29745" lon="7.15704">
        <ele>970.8</ele>
        <time>2022-07-19T04:01:44Z</time>
      </trkpt>
      <trkpt lat="44.29744" lon="7.15702">
        <ele>970.8</ele>
        <time>2022-07-19T04:01:45Z</time>
      </trkpt>
      <trkpt lat="44.29743" lon="7.157">
        <ele>971.2</ele>
        <time>2022-07-19T04:01:46Z</time>
      </trkpt>
      <trkpt lat="44.29742" lon="7.15698">
        <ele>971.2</ele>
        <time>2022-07-19T04:01:47Z</time>
      </trkpt>
      <trkpt lat="44.29741" lon="7.15697">
        <ele>971.4</ele>
        <time>2022-07-19T04:01:48Z</time>
      </trkpt>
      <trkpt lat="44.29741" lon="7.15694">
        <ele>971.4</ele>
        <time>2022-07-19T04:01:49Z</time>
      </trkpt>
      <trkpt lat="44.2974" lon="7.15692">
        <ele>971.8</ele>
        <time>2022-07-19T04:01:50Z</time>
      </trkpt>
      <trkpt lat="44.29739" lon="7.1569">
        <ele>971.8</ele>
        <time>2022-07-19T04:01:51Z</time>
      </trkpt>
      <trkpt lat="44.29738" lon="7.15687">
        <ele>972</ele>
        <time>2022-07-19T04:01:52Z</time>
      </trkpt>
      <trkpt lat="44.29737" lon="7.15685">
        <ele>972</ele>
        <time>2022-07-19T04:01:53Z</time>
      </trkpt>
      <trkpt lat="44.29737" lon="7.15683">
        <ele>972.4</ele>
        <time>2022-07-19T04:01:54Z</time>
      </trkpt>
      <trkpt lat="44.29736" lon="7.15681">
        <ele>972.4</ele>
        <time>2022-07-19T04:01:55Z</time>
      </trkpt>
      <trkpt lat="44.29735" lon="7.15679">
        <ele>972.8</ele>
        <time>2022-07-19T04:01:56Z</time>
      </trkpt>
      <trkpt lat="44.29734" lon="7.15676">
        <ele>972.8</ele>
        <time>2022-07-19T04:01:57Z</time>
      </trkpt>
      <trkpt lat="44.29733" lon="7.15674">
        <ele>973.2</ele>
        <time>2022-07-19T04:01:58Z</time>
      </trkpt>
      <trkpt lat="44.29732" lon="7.15671">
        <ele>973.2</ele>
        <time>2022-07-19T04:01:59Z</time>
      </trkpt>
      <trkpt lat="44.29731" lon="7.15669">
        <ele>973.6</ele>
        <time>2022-07-19T04:02:00Z</time>
      </trkpt>
      <trkpt lat="44.29729" lon="7.15666">
        <ele>973.8</ele>
        <time>2022-07-19T04:02:01Z</time>
      </trkpt>
      <trkpt lat="44.29728" lon="7.15664">
        <ele>973.8</ele>
        <time>2022-07-19T04:02:02Z</time>
      </trkpt>
      <trkpt lat="44.29727" lon="7.15661">
        <ele>974.2</ele>
        <time>2022-07-19T04:02:03Z</time>
      </trkpt>
      <trkpt lat="44.29726" lon="7.15659">
        <ele>974.4</ele>
        <time>2022-07-19T04:02:04Z</time>
      </trkpt>
      <trkpt lat="44.29725" lon="7.15657">
        <ele>974.6</ele>
        <time>2022-07-19T04:02:05Z</time>
      </trkpt>
      <trkpt lat="44.29724" lon="7.15654">
        <ele>974.6</ele>
        <time>2022-07-19T04:02:06Z</time>
      </trkpt>
      <trkpt lat="44.29723" lon="7.15652">
        <ele>975</ele>
        <time>2022-07-19T04:02:07Z</time>
      </trkpt>
      <trkpt lat="44.29722" lon="7.1565">
        <ele>975.2</ele>
        <time>2022-07-19T04:02:08Z</time>
      </trkpt>
      <trkpt lat="44.29721" lon="7.15648">
        <ele>975.4</ele>
        <time>2022-07-19T04:02:09Z</time>
      </trkpt>
      <trkpt lat="44.2972" lon="7.15646">
        <ele>975.4</ele>
        <time>2022-07-19T04:02:10Z</time>
      </trkpt>
      <trkpt lat="44.29719" lon="7.15644">
        <ele>976</ele>
        <time>2022-07-19T04:02:11Z</time>
      </trkpt>
      <trkpt lat="44.29718" lon="7.15642">
        <ele>976</ele>
        <time>2022-07-19T04:02:12Z</time>
      </trkpt>
      <trkpt lat="44.29717" lon="7.1564">
        <ele>976.4</ele>
        <time>2022-07-19T04:02:13Z</time>
      </trkpt>
      <trkpt lat="44.29716" lon="7.15637">
        <ele>976.6</ele>
        <time>2022-07-19T04:02:14Z</time>
      </trkpt>
      <trkpt lat="44.29716" lon="7.15635">
        <ele>976.6</ele>
        <time>2022-07-19T04:02:15Z</time>
      </trkpt>
      <trkpt lat="44.29715" lon="7.15633">
        <ele>977</ele>
        <time>2022-07-19T04:02:16Z</time>
      </trkpt>
      <trkpt lat="44.29713" lon="7.1563">
        <ele>977</ele>
        <time>2022-07-19T04:02:17Z</time>
      </trkpt>
      <trkpt lat="44.29712" lon="7.15628">
        <ele>977.4</ele>
        <time>2022-07-19T04:02:18Z</time>
      </trkpt>
      <trkpt lat="44.2971" lon="7.15626">
        <ele>977.4</ele>
        <time>2022-07-19T04:02:19Z</time>
      </trkpt>
      <trkpt lat="44.29709" lon="7.15624">
        <ele>977.6</ele>
        <time>2022-07-19T04:02:20Z</time>
      </trkpt>
      <trkpt lat="44.29706" lon="7.15624">
        <ele>977.6</ele>
        <time>2022-07-19T04:02:21Z</time>
      </trkpt>
      <trkpt lat="44.29704" lon="7.15624">
        <ele>978</ele>
        <time>2022-07-19T04:02:22Z</time>
      </trkpt>
      <trkpt lat="44.29702" lon="7.15625">
        <ele>978</ele>
        <time>2022-07-19T04:02:23Z</time>
      </trkpt>
      <trkpt lat="44.297" lon="7.15627">
        <ele>978.2</ele>
        <time>2022-07-19T04:02:24Z</time>
      </trkpt>
      <trkpt lat="44.29698" lon="7.15629">
        <ele>978.2</ele>
        <time>2022-07-19T04:02:25Z</time>
      </trkpt>
      <trkpt lat="44.29697" lon="7.15632">
        <ele>978.2</ele>
        <time>2022-07-19T04:02:26Z</time>
      </trkpt>
      <trkpt lat="44.29697" lon="7.15635">
        <ele>978.4</ele>
        <time>2022-07-19T04:02:27Z</time>
      </trkpt>
      <trkpt lat="44.29698" lon="7.15638">
        <ele>978.4</ele>
        <time>2022-07-19T04:02:28Z</time>
      </trkpt>
      <trkpt lat="44.29699" lon="7.15641">
        <ele>978.4</ele>
        <time>2022-07-19T04:02:29Z</time>
      </trkpt>
      <trkpt lat="44.297" lon="7.15643">
        <ele>978.6</ele>
        <time>2022-07-19T04:02:30Z</time>
      </trkpt>
      <trkpt lat="44.29701" lon="7.15646">
        <ele>978.6</ele>
        <time>2022-07-19T04:02:31Z</time>
      </trkpt>
      <trkpt lat="44.29703" lon="7.15648">
        <ele>979</ele>
        <time>2022-07-19T04:02:32Z</time>
      </trkpt>
      <trkpt lat="44.29704" lon="7.1565">
        <ele>979</ele>
        <time>2022-07-19T04:02:33Z</time>
      </trkpt>
      <trkpt lat="44.29705" lon="7.15652">
        <ele>979.4</ele>
        <time>2022-07-19T04:02:34Z</time>
      </trkpt>
      <trkpt lat="44.29706" lon="7.15654">
        <ele>979.6</ele>
        <time>2022-07-19T04:02:35Z</time>
      </trkpt>
      <trkpt lat="44.29707" lon="7.15657">
        <ele>979.6</ele>
        <time>2022-07-19T04:02:36Z</time>
      </trkpt>
      <trkpt lat="44.29707" lon="7.15659">
        <ele>979.8</ele>
        <time>2022-07-19T04:02:37Z</time>
      </trkpt>
      <trkpt lat="44.29708" lon="7.15661">
        <ele>979.8</ele>
        <time>2022-07-19T04:02:38Z</time>
      </trkpt>
      <trkpt lat="44.29709" lon="7.15665">
        <ele>980.2</ele>
        <time>2022-07-19T04:02:39Z</time>
      </trkpt>
      <trkpt lat="44.2971" lon="7.15668">
        <ele>980.2</ele>
        <time>2022-07-19T04:02:40Z</time>
      </trkpt>
      <trkpt lat="44.29711" lon="7.15671">
        <ele>980.4</ele>
        <time>2022-07-19T04:02:41Z</time>
      </trkpt>
      <trkpt lat="44.29712" lon="7.15673">
        <ele>980.4</ele>
        <time>2022-07-19T04:02:42Z</time>
      </trkpt>
      <trkpt lat="44.29713" lon="7.15676">
        <ele>980.8</ele>
        <time>2022-07-19T04:02:43Z</time>
      </trkpt>
      <trkpt lat="44.29714" lon="7.15679">
        <ele>980.8</ele>
        <time>2022-07-19T04:02:44Z</time>
      </trkpt>
      <trkpt lat="44.29714" lon="7.15681">
        <ele>981.2</ele>
        <time>2022-07-19T04:02:45Z</time>
      </trkpt>
      <trkpt lat="44.29714" lon="7.15684">
        <ele>981.2</ele>
        <time>2022-07-19T04:02:46Z</time>
      </trkpt>
      <trkpt lat="44.29714" lon="7.15688">
        <ele>981.4</ele>
        <time>2022-07-19T04:02:47Z</time>
      </trkpt>
      <trkpt lat="44.29715" lon="7.1569">
        <ele>981.4</ele>
        <time>2022-07-19T04:02:48Z</time>
      </trkpt>
      <trkpt lat="44.29716" lon="7.15693">
        <ele>982</ele>
        <time>2022-07-19T04:02:49Z</time>
      </trkpt>
      <trkpt lat="44.29717" lon="7.15696">
        <ele>982</ele>
        <time>2022-07-19T04:02:50Z</time>
      </trkpt>
      <trkpt lat="44.29719" lon="7.15698">
        <ele>982.2</ele>
        <time>2022-07-19T04:02:51Z</time>
      </trkpt>
      <trkpt lat="44.2972" lon="7.15701">
        <ele>982.2</ele>
        <time>2022-07-19T04:02:52Z</time>
      </trkpt>
      <trkpt lat="44.29721" lon="7.15704">
        <ele>982.4</ele>
        <time>2022-07-19T04:02:53Z</time>
      </trkpt>
      <trkpt lat="44.29722" lon="7.15707">
        <ele>982.4</ele>
        <time>2022-07-19T04:02:54Z</time>
      </trkpt>
      <trkpt lat="44.29723" lon="7.1571">
        <ele>982.8</ele>
        <time>2022-07-19T04:02:55Z</time>
      </trkpt>
      <trkpt lat="44.29723" lon="7.15712">
        <ele>982.8</ele>
        <time>2022-07-19T04:02:56Z</time>
      </trkpt>
      <trkpt lat="44.29724" lon="7.15716">
        <ele>983.2</ele>
        <time>2022-07-19T04:02:57Z</time>
      </trkpt>
      <trkpt lat="44.29725" lon="7.15719">
        <ele>983.2</ele>
        <time>2022-07-19T04:02:58Z</time>
      </trkpt>
      <trkpt lat="44.29726" lon="7.15721">
        <ele>983.4</ele>
        <time>2022-07-19T04:02:59Z</time>
      </trkpt>
      <trkpt lat="44.29727" lon="7.15724">
        <ele>983.4</ele>
        <time>2022-07-19T04:03:00Z</time>
      </trkpt>
      <trkpt lat="44.29729" lon="7.15727">
        <ele>983.6</ele>
        <time>2022-07-19T04:03:01Z</time>
      </trkpt>
      <trkpt lat="44.2973" lon="7.1573">
        <ele>983.6</ele>
        <time>2022-07-19T04:03:02Z</time>
      </trkpt>
      <trkpt lat="44.29731" lon="7.15732">
        <ele>984</ele>
        <time>2022-07-19T04:03:03Z</time>
      </trkpt>
      <trkpt lat="44.29732" lon="7.15735">
        <ele>984</ele>
        <time>2022-07-19T04:03:04Z</time>
      </trkpt>
      <trkpt lat="44.29732" lon="7.15738">
        <ele>984.2</ele>
        <time>2022-07-19T04:03:05Z</time>
      </trkpt>
      <trkpt lat="44.29733" lon="7.15741">
        <ele>984.2</ele>
        <time>2022-07-19T04:03:06Z</time>
      </trkpt>
      <trkpt lat="44.29734" lon="7.15744">
        <ele>984.4</ele>
        <time>2022-07-19T04:03:07Z</time>
      </trkpt>
      <trkpt lat="44.29736" lon="7.15746">
        <ele>984.4</ele>
        <time>2022-07-19T04:03:08Z</time>
      </trkpt>
      <trkpt lat="44.29736" lon="7.15749">
        <ele>984.8</ele>
        <time>2022-07-19T04:03:09Z</time>
      </trkpt>
      <trkpt lat="44.29737" lon="7.15751">
        <ele>984.8</ele>
        <time>2022-07-19T04:03:10Z</time>
      </trkpt>
      <trkpt lat="44.29738" lon="7.15754">
        <ele>985</ele>
        <time>2022-07-19T04:03:11Z</time>
      </trkpt>
      <trkpt lat="44.29739" lon="7.15756">
        <ele>985</ele>
        <time>2022-07-19T04:03:12Z</time>
      </trkpt>
      <trkpt lat="44.2974" lon="7.15759">
        <ele>985.4</ele>
        <time>2022-07-19T04:03:13Z</time>
      </trkpt>
      <trkpt lat="44.2974" lon="7.15761">
        <ele>985.4</ele>
        <time>2022-07-19T04:03:14Z</time>
      </trkpt>
      <trkpt lat="44.29741" lon="7.15764">
        <ele>985.8</ele>
        <time>2022-07-19T04:03:15Z</time>
      </trkpt>
      <trkpt lat="44.29742" lon="7.15766">
        <ele>986</ele>
        <time>2022-07-19T04:03:16Z</time>
      </trkpt>
      <trkpt lat="44.29742" lon="7.15769">
        <ele>986</ele>
        <time>2022-07-19T04:03:17Z</time>
      </trkpt>
      <trkpt lat="44.29743" lon="7.15771">
        <ele>986.2</ele>
        <time>2022-07-19T04:03:18Z</time>
      </trkpt>
      <trkpt lat="44.29745" lon="7.15773">
        <ele>986.2</ele>
        <time>2022-07-19T04:03:19Z</time>
      </trkpt>
      <trkpt lat="44.29745" lon="7.15776">
        <ele>986.4</ele>
        <time>2022-07-19T04:03:20Z</time>
      </trkpt>
      <trkpt lat="44.29746" lon="7.15779">
        <ele>986.4</ele>
        <time>2022-07-19T04:03:21Z</time>
      </trkpt>
      <trkpt lat="44.29745" lon="7.15781">
        <ele>986.8</ele>
        <time>2022-07-19T04:03:22Z</time>
      </trkpt>
      <trkpt lat="44.29745" lon="7.15784">
        <ele>986.8</ele>
        <time>2022-07-19T04:03:23Z</time>
      </trkpt>
      <trkpt lat="44.29745" lon="7.15787">
        <ele>987</ele>
        <time>2022-07-19T04:03:24Z</time>
      </trkpt>
      <trkpt lat="44.29743" lon="7.15789">
        <ele>987</ele>
        <time>2022-07-19T04:03:25Z</time>
      </trkpt>
      <trkpt lat="44.29741" lon="7.15791">
        <ele>987</ele>
        <time>2022-07-19T04:03:26Z</time>
      </trkpt>
      <trkpt lat="44.29739" lon="7.15791">
        <ele>987.2</ele>
        <time>2022-07-19T04:03:27Z</time>
      </trkpt>
      <trkpt lat="44.29738" lon="7.1579">
        <ele>987.2</ele>
        <time>2022-07-19T04:03:28Z</time>
      </trkpt>
      <trkpt lat="44.29736" lon="7.1579">
        <ele>987.6</ele>
        <time>2022-07-19T04:03:29Z</time>
      </trkpt>
      <trkpt lat="44.29734" lon="7.15788">
        <ele>987.6</ele>
        <time>2022-07-19T04:03:30Z</time>
      </trkpt>
      <trkpt lat="44.29733" lon="7.15787">
        <ele>987.8</ele>
        <time>2022-07-19T04:03:31Z</time>
      </trkpt>
      <trkpt lat="44.29732" lon="7.15784">
        <ele>987.8</ele>
        <time>2022-07-19T04:03:32Z</time>
      </trkpt>
      <trkpt lat="44.29731" lon="7.15782">
        <ele>988</ele>
        <time>2022-07-19T04:03:33Z</time>
      </trkpt>
      <trkpt lat="44.2973" lon="7.15779">
        <ele>988.2</ele>
        <time>2022-07-19T04:03:34Z</time>
      </trkpt>
      <trkpt lat="44.29729" lon="7.15776">
        <ele>988.6</ele>
        <time>2022-07-19T04:03:35Z</time>
      </trkpt>
      <trkpt lat="44.29728" lon="7.15774">
        <ele>988.8</ele>
        <time>2022-07-19T04:03:36Z</time>
      </trkpt>
      <trkpt lat="44.29726" lon="7.15772">
        <ele>988.8</ele>
        <time>2022-07-19T04:03:37Z</time>
      </trkpt>
      <trkpt lat="44.29725" lon="7.15769">
        <ele>989</ele>
        <time>2022-07-19T04:03:38Z</time>
      </trkpt>
      <trkpt lat="44.29724" lon="7.15767">
        <ele>989</ele>
        <time>2022-07-19T04:03:39Z</time>
      </trkpt>
      <trkpt lat="44.29723" lon="7.15764">
        <ele>989.4</ele>
        <time>2022-07-19T04:03:40Z</time>
      </trkpt>
      <trkpt lat="44.29722" lon="7.15762">
        <ele>989.4</ele>
        <time>2022-07-19T04:03:41Z</time>
      </trkpt>
      <trkpt lat="44.29721" lon="7.1576">
        <ele>989.6</ele>
        <time>2022-07-19T04:03:42Z</time>
      </trkpt>
      <trkpt lat="44.29719" lon="7.15758">
        <ele>989.8</ele>
        <time>2022-07-19T04:03:43Z</time>
      </trkpt>
      <trkpt lat="44.29718" lon="7.15755">
        <ele>989.8</ele>
        <time>2022-07-19T04:03:44Z</time>
      </trkpt>
      <trkpt lat="44.29717" lon="7.15753">
        <ele>990.2</ele>
        <time>2022-07-19T04:03:45Z</time>
      </trkpt>
      <trkpt lat="44.29716" lon="7.15751">
        <ele>990.2</ele>
        <time>2022-07-19T04:03:46Z</time>
      </trkpt>
      <trkpt lat="44.29715" lon="7.15749">
        <ele>990.6</ele>
        <time>2022-07-19T04:03:47Z</time>
      </trkpt>
      <trkpt lat="44.29713" lon="7.15747">
        <ele>990.6</ele>
        <time>2022-07-19T04:03:48Z</time>
      </trkpt>
      <trkpt lat="44.29712" lon="7.15745">
        <ele>990.8</ele>
        <time>2022-07-19T04:03:49Z</time>
      </trkpt>
      <trkpt lat="44.2971" lon="7.15742">
        <ele>990.8</ele>
        <time>2022-07-19T04:03:50Z</time>
      </trkpt>
      <trkpt lat="44.29709" lon="7.1574">
        <ele>991.2</ele>
        <time>2022-07-19T04:03:51Z</time>
      </trkpt>
      <trkpt lat="44.29707" lon="7.15738">
        <ele>991.2</ele>
        <time>2022-07-19T04:03:52Z</time>
      </trkpt>
      <trkpt lat="44.29706" lon="7.15736">
        <ele>991.6</ele>
        <time>2022-07-19T04:03:53Z</time>
      </trkpt>
      <trkpt lat="44.29705" lon="7.15733">
        <ele>991.6</ele>
        <time>2022-07-19T04:03:54Z</time>
      </trkpt>
      <trkpt lat="44.29704" lon="7.15731">
        <ele>992</ele>
        <time>2022-07-19T04:03:55Z</time>
      </trkpt>
      <trkpt lat="44.29702" lon="7.1573">
        <ele>992</ele>
        <time>2022-07-19T04:03:56Z</time>
      </trkpt>
      <trkpt lat="44.29701" lon="7.15728">
        <ele>992.2</ele>
        <time>2022-07-19T04:03:57Z</time>
      </trkpt>
      <trkpt lat="44.297" lon="7.15726">
        <ele>992.2</ele>
        <time>2022-07-19T04:03:58Z</time>
      </trkpt>
      <trkpt lat="44.29699" lon="7.15723">
        <ele>992.6</ele>
        <time>2022-07-19T04:03:59Z</time>
      </trkpt>
      <trkpt lat="44.29698" lon="7.15721">
        <ele>992.6</ele>
        <time>2022-07-19T04:04:00Z</time>
      </trkpt>
      <trkpt lat="44.29697" lon="7.15719">
        <ele>992.8</ele>
        <time>2022-07-19T04:04:01Z</time>
      </trkpt>
      <trkpt lat="44.29696" lon="7.15716">
        <ele>993.2</ele>
        <time>2022-07-19T04:04:03Z</time>
      </trkpt>
      <trkpt lat="44.29695" lon="7.15714">
        <ele>993.2</ele>
        <time>2022-07-19T04:04:04Z</time>
      </trkpt>
      <trkpt lat="44.29694" lon="7.15712">
        <ele>993.6</ele>
        <time>2022-07-19T04:04:05Z</time>
      </trkpt>
      <trkpt lat="44.29693" lon="7.1571">
        <ele>993.6</ele>
        <time>2022-07-19T04:04:06Z</time>
      </trkpt>
      <trkpt lat="44.29693" lon="7.15708">
        <ele>993.8</ele>
        <time>2022-07-19T04:04:07Z</time>
      </trkpt>
      <trkpt lat="44.29692" lon="7.15705">
        <ele>993.8</ele>
        <time>2022-07-19T04:04:08Z</time>
      </trkpt>
      <trkpt lat="44.29691" lon="7.15704">
        <ele>994.2</ele>
        <time>2022-07-19T04:04:09Z</time>
      </trkpt>
      <trkpt lat="44.2969" lon="7.15702">
        <ele>994.2</ele>
        <time>2022-07-19T04:04:10Z</time>
      </trkpt>
      <trkpt lat="44.29689" lon="7.157">
        <ele>994.4</ele>
        <time>2022-07-19T04:04:11Z</time>
      </trkpt>
      <trkpt lat="44.29688" lon="7.15698">
        <ele>994.4</ele>
        <time>2022-07-19T04:04:12Z</time>
      </trkpt>
      <trkpt lat="44.29687" lon="7.15696">
        <ele>994.8</ele>
        <time>2022-07-19T04:04:13Z</time>
      </trkpt>
      <trkpt lat="44.29686" lon="7.15694">
        <ele>995</ele>
        <time>2022-07-19T04:04:14Z</time>
      </trkpt>
      <trkpt lat="44.29685" lon="7.15692">
        <ele>995</ele>
        <time>2022-07-19T04:04:15Z</time>
      </trkpt>
      <trkpt lat="44.29684" lon="7.15689">
        <ele>995.4</ele>
        <time>2022-07-19T04:04:16Z</time>
      </trkpt>
      <trkpt lat="44.29683" lon="7.15687">
        <ele>995.4</ele>
        <time>2022-07-19T04:04:17Z</time>
      </trkpt>
      <trkpt lat="44.29682" lon="7.15685">
        <ele>995.8</ele>
        <time>2022-07-19T04:04:18Z</time>
      </trkpt>
      <trkpt lat="44.29681" lon="7.15683">
        <ele>996</ele>
        <time>2022-07-19T04:04:19Z</time>
      </trkpt>
      <trkpt lat="44.29679" lon="7.1568">
        <ele>996.2</ele>
        <time>2022-07-19T04:04:20Z</time>
      </trkpt>
      <trkpt lat="44.29678" lon="7.15678">
        <ele>996.4</ele>
        <time>2022-07-19T04:04:21Z</time>
      </trkpt>
      <trkpt lat="44.29677" lon="7.15675">
        <ele>996.8</ele>
        <time>2022-07-19T04:04:22Z</time>
      </trkpt>
      <trkpt lat="44.29676" lon="7.15673">
        <ele>996.8</ele>
        <time>2022-07-19T04:04:23Z</time>
      </trkpt>
      <trkpt lat="44.29675" lon="7.15671">
        <ele>996.8</ele>
        <time>2022-07-19T04:04:24Z</time>
      </trkpt>
      <trkpt lat="44.29674" lon="7.15669">
        <ele>997</ele>
        <time>2022-07-19T04:04:25Z</time>
      </trkpt>
      <trkpt lat="44.29673" lon="7.15667">
        <ele>997</ele>
        <time>2022-07-19T04:04:26Z</time>
      </trkpt>
      <trkpt lat="44.29672" lon="7.15665">
        <ele>997.4</ele>
        <time>2022-07-19T04:04:27Z</time>
      </trkpt>
      <trkpt lat="44.29671" lon="7.15662">
        <ele>997.4</ele>
        <time>2022-07-19T04:04:28Z</time>
      </trkpt>
      <trkpt lat="44.2967" lon="7.15659">
        <ele>997.6</ele>
        <time>2022-07-19T04:04:29Z</time>
      </trkpt>
      <trkpt lat="44.29669" lon="7.15657">
        <ele>997.6</ele>
        <time>2022-07-19T04:04:30Z</time>
      </trkpt>
      <trkpt lat="44.29669" lon="7.15654">
        <ele>998</ele>
        <time>2022-07-19T04:04:31Z</time>
      </trkpt>
      <trkpt lat="44.29669" lon="7.15651">
        <ele>998</ele>
        <time>2022-07-19T04:04:32Z</time>
      </trkpt>
      <trkpt lat="44.29669" lon="7.15648">
        <ele>998.2</ele>
        <time>2022-07-19T04:04:33Z</time>
      </trkpt>
      <trkpt lat="44.29669" lon="7.15646">
        <ele>998.2</ele>
        <time>2022-07-19T04:04:34Z</time>
      </trkpt>
      <trkpt lat="44.29669" lon="7.15643">
        <ele>998.4</ele>
        <time>2022-07-19T04:04:35Z</time>
      </trkpt>
      <trkpt lat="44.29668" lon="7.15639">
        <ele>998.4</ele>
        <time>2022-07-19T04:04:36Z</time>
      </trkpt>
      <trkpt lat="44.29668" lon="7.15636">
        <ele>998.8</ele>
        <time>2022-07-19T04:04:37Z</time>
      </trkpt>
      <trkpt lat="44.29667" lon="7.15633">
        <ele>998.8</ele>
        <time>2022-07-19T04:04:38Z</time>
      </trkpt>
      <trkpt lat="44.29666" lon="7.1563">
        <ele>999</ele>
        <time>2022-07-19T04:04:39Z</time>
      </trkpt>
      <trkpt lat="44.29663" lon="7.15627">
        <ele>999</ele>
        <time>2022-07-19T04:04:40Z</time>
      </trkpt>
      <trkpt lat="44.29661" lon="7.15626">
        <ele>999</ele>
        <time>2022-07-19T04:04:41Z</time>
      </trkpt>
      <trkpt lat="44.29659" lon="7.15626">
        <ele>999</ele>
        <time>2022-07-19T04:04:42Z</time>
      </trkpt>
      <trkpt lat="44.29656" lon="7.15628">
        <ele>999.2</ele>
        <time>2022-07-19T04:04:43Z</time>
      </trkpt>
      <trkpt lat="44.29654" lon="7.15629">
        <ele>999.2</ele>
        <time>2022-07-19T04:04:44Z</time>
      </trkpt>
      <trkpt lat="44.29653" lon="7.15632">
        <ele>999.2</ele>
        <time>2022-07-19T04:04:45Z</time>
      </trkpt>
      <trkpt lat="44.29652" lon="7.15635">
        <ele>999.4</ele>
        <time>2022-07-19T04:04:46Z</time>
      </trkpt>
      <trkpt lat="44.29653" lon="7.15638">
        <ele>999.4</ele>
        <time>2022-07-19T04:04:47Z</time>
      </trkpt>
      <trkpt lat="44.29653" lon="7.15641">
        <ele>999.8</ele>
        <time>2022-07-19T04:04:48Z</time>
      </trkpt>
      <trkpt lat="44.29654" lon="7.15643">
        <ele>999.8</ele>
        <time>2022-07-19T04:04:49Z</time>
      </trkpt>
      <trkpt lat="44.29656" lon="7.15645">
        <ele>1000</ele>
        <time>2022-07-19T04:04:50Z</time>
      </trkpt>
      <trkpt lat="44.29657" lon="7.15647">
        <ele>1000</ele>
        <time>2022-07-19T04:04:51Z</time>
      </trkpt>
      <trkpt lat="44.29658" lon="7.15649">
        <ele>1000.2</ele>
        <time>2022-07-19T04:04:52Z</time>
      </trkpt>
      <trkpt lat="44.2966" lon="7.15651">
        <ele>1000.2</ele>
        <time>2022-07-19T04:04:53Z</time>
      </trkpt>
      <trkpt lat="44.29662" lon="7.15653">
        <ele>1000.6</ele>
        <time>2022-07-19T04:04:54Z</time>
      </trkpt>
      <trkpt lat="44.29663" lon="7.15655">
        <ele>1000.6</ele>
        <time>2022-07-19T04:04:55Z</time>
      </trkpt>
      <trkpt lat="44.29664" lon="7.15657">
        <ele>1000.8</ele>
        <time>2022-07-19T04:04:56Z</time>
      </trkpt>
      <trkpt lat="44.29665" lon="7.1566">
        <ele>1001</ele>
        <time>2022-07-19T04:04:57Z</time>
      </trkpt>
      <trkpt lat="44.29666" lon="7.15662">
        <ele>1001</ele>
        <time>2022-07-19T04:04:58Z</time>
      </trkpt>
      <trkpt lat="44.29667" lon="7.15664">
        <ele>1001.4</ele>
        <time>2022-07-19T04:04:59Z</time>
      </trkpt>
      <trkpt lat="44.29668" lon="7.15666">
        <ele>1001.4</ele>
        <time>2022-07-19T04:05:00Z</time>
      </trkpt>
      <trkpt lat="44.29669" lon="7.15669">
        <ele>1001.8</ele>
        <time>2022-07-19T04:05:01Z</time>
      </trkpt>
      <trkpt lat="44.2967" lon="7.15671">
        <ele>1001.8</ele>
        <time>2022-07-19T04:05:02Z</time>
      </trkpt>
      <trkpt lat="44.2967" lon="7.15673">
        <ele>1002</ele>
        <time>2022-07-19T04:05:03Z</time>
      </trkpt>
      <trkpt lat="44.29671" lon="7.15675">
        <ele>1002</ele>
        <time>2022-07-19T04:05:04Z</time>
      </trkpt>
      <trkpt lat="44.29672" lon="7.15677">
        <ele>1002.4</ele>
        <time>2022-07-19T04:05:05Z</time>
      </trkpt>
      <trkpt lat="44.29673" lon="7.15679">
        <ele>1002.4</ele>
        <time>2022-07-19T04:05:06Z</time>
      </trkpt>
      <trkpt lat="44.29674" lon="7.15681">
        <ele>1002.6</ele>
        <time>2022-07-19T04:05:07Z</time>
      </trkpt>
      <trkpt lat="44.29674" lon="7.15683">
        <ele>1002.8</ele>
        <time>2022-07-19T04:05:08Z</time>
      </trkpt>
      <trkpt lat="44.29675" lon="7.15685">
        <ele>1003</ele>
        <time>2022-07-19T04:05:09Z</time>
      </trkpt>
      <trkpt lat="44.29675" lon="7.15687">
        <ele>1003.4</ele>
        <time>2022-07-19T04:05:10Z</time>
      </trkpt>
      <trkpt lat="44.29676" lon="7.1569">
        <ele>1003.6</ele>
        <time>2022-07-19T04:05:11Z</time>
      </trkpt>
      <trkpt lat="44.29676" lon="7.15692">
        <ele>1003.6</ele>
        <time>2022-07-19T04:05:12Z</time>
      </trkpt>
      <trkpt lat="44.29676" lon="7.15695">
        <ele>1003.8</ele>
        <time>2022-07-19T04:05:13Z</time>
      </trkpt>
      <trkpt lat="44.29677" lon="7.15698">
        <ele>1003.8</ele>
        <time>2022-07-19T04:05:14Z</time>
      </trkpt>
      <trkpt lat="44.29677" lon="7.157">
        <ele>1004.2</ele>
        <time>2022-07-19T04:05:15Z</time>
      </trkpt>
      <trkpt lat="44.29677" lon="7.15703">
        <ele>1004.6</ele>
        <time>2022-07-19T04:05:16Z</time>
      </trkpt>
      <trkpt lat="44.29678" lon="7.15706">
        <ele>1004.6</ele>
        <time>2022-07-19T04:05:17Z</time>
      </trkpt>
      <trkpt lat="44.29678" lon="7.15708">
        <ele>1004.8</ele>
        <time>2022-07-19T04:05:18Z</time>
      </trkpt>
      <trkpt lat="44.29679" lon="7.15711">
        <ele>1005</ele>
        <time>2022-07-19T04:05:19Z</time>
      </trkpt>
      <trkpt lat="44.29679" lon="7.15714">
        <ele>1005.2</ele>
        <time>2022-07-19T04:05:20Z</time>
      </trkpt>
      <trkpt lat="44.2968" lon="7.15716">
        <ele>1005.2</ele>
        <time>2022-07-19T04:05:21Z</time>
      </trkpt>
      <trkpt lat="44.2968" lon="7.15719">
        <ele>1005.6</ele>
        <time>2022-07-19T04:05:22Z</time>
      </trkpt>
      <trkpt lat="44.29681" lon="7.15722">
        <ele>1005.6</ele>
        <time>2022-07-19T04:05:23Z</time>
      </trkpt>
      <trkpt lat="44.29681" lon="7.15725">
        <ele>1006</ele>
        <time>2022-07-19T04:05:24Z</time>
      </trkpt>
      <trkpt lat="44.29681" lon="7.15727">
        <ele>1006</ele>
        <time>2022-07-19T04:05:25Z</time>
      </trkpt>
      <trkpt lat="44.29682" lon="7.15729">
        <ele>1006.2</ele>
        <time>2022-07-19T04:05:26Z</time>
      </trkpt>
      <trkpt lat="44.29682" lon="7.15732">
        <ele>1006.2</ele>
        <time>2022-07-19T04:05:27Z</time>
      </trkpt>
      <trkpt lat="44.29683" lon="7.15735">
        <ele>1006.6</ele>
        <time>2022-07-19T04:05:28Z</time>
      </trkpt>
      <trkpt lat="44.29683" lon="7.15737">
        <ele>1006.6</ele>
        <time>2022-07-19T04:05:29Z</time>
      </trkpt>
      <trkpt lat="44.29684" lon="7.1574">
        <ele>1007</ele>
        <time>2022-07-19T04:05:30Z</time>
      </trkpt>
      <trkpt lat="44.29685" lon="7.15742">
        <ele>1007</ele>
        <time>2022-07-19T04:05:31Z</time>
      </trkpt>
      <trkpt lat="44.29685" lon="7.15744">
        <ele>1007.2</ele>
        <time>2022-07-19T04:05:32Z</time>
      </trkpt>
      <trkpt lat="44.29685" lon="7.15747">
        <ele>1007.2</ele>
        <time>2022-07-19T04:05:33Z</time>
      </trkpt>
      <trkpt lat="44.29686" lon="7.1575">
        <ele>1007.4</ele>
        <time>2022-07-19T04:05:34Z</time>
      </trkpt>
      <trkpt lat="44.29686" lon="7.15752">
        <ele>1007.4</ele>
        <time>2022-07-19T04:05:35Z</time>
      </trkpt>
      <trkpt lat="44.29686" lon="7.15755">
        <ele>1007.8</ele>
        <time>2022-07-19T04:05:36Z</time>
      </trkpt>
      <trkpt lat="44.29686" lon="7.15758">
        <ele>1007.8</ele>
        <time>2022-07-19T04:05:37Z</time>
      </trkpt>
      <trkpt lat="44.29686" lon="7.15761">
        <ele>1008</ele>
        <time>2022-07-19T04:05:38Z</time>
      </trkpt>
      <trkpt lat="44.29686" lon="7.15764">
        <ele>1008</ele>
        <time>2022-07-19T04:05:39Z</time>
      </trkpt>
      <trkpt lat="44.29687" lon="7.15767">
        <ele>1008.4</ele>
        <time>2022-07-19T04:05:40Z</time>
      </trkpt>
      <trkpt lat="44.29687" lon="7.15769">
        <ele>1008.4</ele>
        <time>2022-07-19T04:05:41Z</time>
      </trkpt>
      <trkpt lat="44.29688" lon="7.15772">
        <ele>1008.8</ele>
        <time>2022-07-19T04:05:42Z</time>
      </trkpt>
      <trkpt lat="44.29688" lon="7.15774">
        <ele>1009</ele>
        <time>2022-07-19T04:05:43Z</time>
      </trkpt>
      <trkpt lat="44.29689" lon="7.15777">
        <ele>1009</ele>
        <time>2022-07-19T04:05:44Z</time>
      </trkpt>
      <trkpt lat="44.29689" lon="7.1578">
        <ele>1009.4</ele>
        <time>2022-07-19T04:05:45Z</time>
      </trkpt>
      <trkpt lat="44.2969" lon="7.15782">
        <ele>1009.6</ele>
        <time>2022-07-19T04:05:46Z</time>
      </trkpt>
      <trkpt lat="44.2969" lon="7.15785">
        <ele>1009.6</ele>
        <time>2022-07-19T04:05:47Z</time>
      </trkpt>
      <trkpt lat="44.29691" lon="7.15787">
        <ele>1010</ele>
        <time>2022-07-19T04:05:48Z</time>
      </trkpt>
      <trkpt lat="44.29692" lon="7.1579">
        <ele>1010</ele>
        <time>2022-07-19T04:05:49Z</time>
      </trkpt>
      <trkpt lat="44.29692" lon="7.15792">
        <ele>1010.4</ele>
        <time>2022-07-19T04:05:50Z</time>
      </trkpt>
      <trkpt lat="44.29692" lon="7.15794">
        <ele>1010.4</ele>
        <time>2022-07-19T04:05:51Z</time>
      </trkpt>
      <trkpt lat="44.29693" lon="7.15796">
        <ele>1010.8</ele>
        <time>2022-07-19T04:05:52Z</time>
      </trkpt>
      <trkpt lat="44.29694" lon="7.15798">
        <ele>1010.8</ele>
        <time>2022-07-19T04:05:53Z</time>
      </trkpt>
      <trkpt lat="44.29695" lon="7.15799">
        <ele>1011.2</ele>
        <time>2022-07-19T04:05:54Z</time>
      </trkpt>
      <trkpt lat="44.29696" lon="7.15801">
        <ele>1011.2</ele>
        <time>2022-07-19T04:05:55Z</time>
      </trkpt>
      <trkpt lat="44.29696" lon="7.15802">
        <ele>1011.4</ele>
        <time>2022-07-19T04:05:56Z</time>
      </trkpt>
      <trkpt lat="44.29698" lon="7.15804">
        <ele>1011.6</ele>
        <time>2022-07-19T04:05:57Z</time>
      </trkpt>
      <trkpt lat="44.29699" lon="7.15805">
        <ele>1011.6</ele>
        <time>2022-07-19T04:05:58Z</time>
      </trkpt>
      <trkpt lat="44.297" lon="7.15807">
        <ele>1012</ele>
        <time>2022-07-19T04:05:59Z</time>
      </trkpt>
      <trkpt lat="44.29701" lon="7.15809">
        <ele>1012.2</ele>
        <time>2022-07-19T04:06:00Z</time>
      </trkpt>
      <trkpt lat="44.29702" lon="7.15811">
        <ele>1012.2</ele>
        <time>2022-07-19T04:06:01Z</time>
      </trkpt>
      <trkpt lat="44.29703" lon="7.15814">
        <ele>1012.4</ele>
        <time>2022-07-19T04:06:02Z</time>
      </trkpt>
      <trkpt lat="44.29703" lon="7.15816">
        <ele>1012.4</ele>
        <time>2022-07-19T04:06:03Z</time>
      </trkpt>
      <trkpt lat="44.29703" lon="7.15818">
        <ele>1012.8</ele>
        <time>2022-07-19T04:06:04Z</time>
      </trkpt>
      <trkpt lat="44.29702" lon="7.15821">
        <ele>1012.8</ele>
        <time>2022-07-19T04:06:05Z</time>
      </trkpt>
      <trkpt lat="44.29701" lon="7.15824">
        <ele>1013</ele>
        <time>2022-07-19T04:06:06Z</time>
      </trkpt>
      <trkpt lat="44.297" lon="7.15827">
        <ele>1013</ele>
        <time>2022-07-19T04:06:07Z</time>
      </trkpt>
      <trkpt lat="44.29699" lon="7.15829">
        <ele>1013.2</ele>
        <time>2022-07-19T04:06:08Z</time>
      </trkpt>
      <trkpt lat="44.29697" lon="7.15829">
        <ele>1013.2</ele>
        <time>2022-07-19T04:06:09Z</time>
      </trkpt>
      <trkpt lat="44.29695" lon="7.15829">
        <ele>1013.4</ele>
        <time>2022-07-19T04:06:10Z</time>
      </trkpt>
      <trkpt lat="44.29693" lon="7.15827">
        <ele>1013.4</ele>
        <time>2022-07-19T04:06:11Z</time>
      </trkpt>
      <trkpt lat="44.29691" lon="7.15826">
        <ele>1013.8</ele>
        <time>2022-07-19T04:06:12Z</time>
      </trkpt>
      <trkpt lat="44.2969" lon="7.15825">
        <ele>1013.8</ele>
        <time>2022-07-19T04:06:13Z</time>
      </trkpt>
      <trkpt lat="44.29688" lon="7.15823">
        <ele>1014</ele>
        <time>2022-07-19T04:06:14Z</time>
      </trkpt>
      <trkpt lat="44.29687" lon="7.15821">
        <ele>1014</ele>
        <time>2022-07-19T04:06:15Z</time>
      </trkpt>
      <trkpt lat="44.29685" lon="7.1582">
        <ele>1014.4</ele>
        <time>2022-07-19T04:06:16Z</time>
      </trkpt>
      <trkpt lat="44.29684" lon="7.15819">
        <ele>1014.4</ele>
        <time>2022-07-19T04:06:17Z</time>
      </trkpt>
      <trkpt lat="44.29682" lon="7.15818">
        <ele>1014.6</ele>
        <time>2022-07-19T04:06:18Z</time>
      </trkpt>
      <trkpt lat="44.2968" lon="7.15817">
        <ele>1014.6</ele>
        <time>2022-07-19T04:06:19Z</time>
      </trkpt>
      <trkpt lat="44.29678" lon="7.15816">
        <ele>1015</ele>
        <time>2022-07-19T04:06:20Z</time>
      </trkpt>
      <trkpt lat="44.29676" lon="7.15815">
        <ele>1015</ele>
        <time>2022-07-19T04:06:21Z</time>
      </trkpt>
      <trkpt lat="44.29674" lon="7.15814">
        <ele>1015.4</ele>
        <time>2022-07-19T04:06:22Z</time>
      </trkpt>
      <trkpt lat="44.29673" lon="7.15813">
        <ele>1015.4</ele>
        <time>2022-07-19T04:06:23Z</time>
      </trkpt>
      <trkpt lat="44.29671" lon="7.15811">
        <ele>1015.6</ele>
        <time>2022-07-19T04:06:24Z</time>
      </trkpt>
      <trkpt lat="44.2967" lon="7.1581">
        <ele>1015.6</ele>
        <time>2022-07-19T04:06:25Z</time>
      </trkpt>
      <trkpt lat="44.29668" lon="7.15808">
        <ele>1016</ele>
        <time>2022-07-19T04:06:26Z</time>
      </trkpt>
      <trkpt lat="44.29667" lon="7.15807">
        <ele>1016.2</ele>
        <time>2022-07-19T04:06:27Z</time>
      </trkpt>
      <trkpt lat="44.29665" lon="7.15806">
        <ele>1016.2</ele>
        <time>2022-07-19T04:06:28Z</time>
      </trkpt>
      <trkpt lat="44.29663" lon="7.15805">
        <ele>1016.6</ele>
        <time>2022-07-19T04:06:29Z</time>
      </trkpt>
      <trkpt lat="44.29662" lon="7.15803">
        <ele>1016.6</ele>
        <time>2022-07-19T04:06:30Z</time>
      </trkpt>
      <trkpt lat="44.2966" lon="7.15802">
        <ele>1017</ele>
        <time>2022-07-19T04:06:31Z</time>
      </trkpt>
      <trkpt lat="44.29658" lon="7.15801">
        <ele>1017</ele>
        <time>2022-07-19T04:06:32Z</time>
      </trkpt>
      <trkpt lat="44.29657" lon="7.158">
        <ele>1017.2</ele>
        <time>2022-07-19T04:06:33Z</time>
      </trkpt>
      <trkpt lat="44.29655" lon="7.15799">
        <ele>1017.2</ele>
        <time>2022-07-19T04:06:34Z</time>
      </trkpt>
      <trkpt lat="44.29654" lon="7.15798">
        <ele>1017.6</ele>
        <time>2022-07-19T04:06:35Z</time>
      </trkpt>
      <trkpt lat="44.29652" lon="7.15796">
        <ele>1017.6</ele>
        <time>2022-07-19T04:06:36Z</time>
      </trkpt>
      <trkpt lat="44.29651" lon="7.15795">
        <ele>1018</ele>
        <time>2022-07-19T04:06:37Z</time>
      </trkpt>
      <trkpt lat="44.29649" lon="7.15793">
        <ele>1018</ele>
        <time>2022-07-19T04:06:38Z</time>
      </trkpt>
      <trkpt lat="44.29648" lon="7.15791">
        <ele>1018.2</ele>
        <time>2022-07-19T04:06:39Z</time>
      </trkpt>
      <trkpt lat="44.29647" lon="7.15789">
        <ele>1018.2</ele>
        <time>2022-07-19T04:06:40Z</time>
      </trkpt>
      <trkpt lat="44.29646" lon="7.15788">
        <ele>1018.6</ele>
        <time>2022-07-19T04:06:41Z</time>
      </trkpt>
      <trkpt lat="44.29644" lon="7.15786">
        <ele>1018.6</ele>
        <time>2022-07-19T04:06:42Z</time>
      </trkpt>
      <trkpt lat="44.29643" lon="7.15784">
        <ele>1019</ele>
        <time>2022-07-19T04:06:43Z</time>
      </trkpt>
      <trkpt lat="44.29643" lon="7.15783">
        <ele>1019.2</ele>
        <time>2022-07-19T04:06:44Z</time>
      </trkpt>
      <trkpt lat="44.29641" lon="7.15781">
        <ele>1019.4</ele>
        <time>2022-07-19T04:06:45Z</time>
      </trkpt>
      <trkpt lat="44.2964" lon="7.1578">
        <ele>1019.4</ele>
        <time>2022-07-19T04:06:46Z</time>
      </trkpt>
      <trkpt lat="44.29639" lon="7.15778">
        <ele>1019.8</ele>
        <time>2022-07-19T04:06:47Z</time>
      </trkpt>
      <trkpt lat="44.29638" lon="7.15776">
        <ele>1020</ele>
        <time>2022-07-19T04:06:48Z</time>
      </trkpt>
      <trkpt lat="44.29637" lon="7.15774">
        <ele>1020</ele>
        <time>2022-07-19T04:06:49Z</time>
      </trkpt>
      <trkpt lat="44.29636" lon="7.15772">
        <ele>1020.4</ele>
        <time>2022-07-19T04:06:50Z</time>
      </trkpt>
      <trkpt lat="44.29635" lon="7.1577">
        <ele>1020.4</ele>
        <time>2022-07-19T04:06:51Z</time>
      </trkpt>
      <trkpt lat="44.29634" lon="7.15768">
        <ele>1020.6</ele>
        <time>2022-07-19T04:06:52Z</time>
      </trkpt>
      <trkpt lat="44.29633" lon="7.15766">
        <ele>1020.6</ele>
        <time>2022-07-19T04:06:53Z</time>
      </trkpt>
      <trkpt lat="44.29632" lon="7.15765">
        <ele>1021</ele>
        <time>2022-07-19T04:06:54Z</time>
      </trkpt>
      <trkpt lat="44.29631" lon="7.15763">
        <ele>1021</ele>
        <time>2022-07-19T04:06:55Z</time>
      </trkpt>
      <trkpt lat="44.29629" lon="7.15761">
        <ele>1021.4</ele>
        <time>2022-07-19T04:06:56Z</time>
      </trkpt>
      <trkpt lat="44.29628" lon="7.1576">
        <ele>1021.4</ele>
        <time>2022-07-19T04:06:57Z</time>
      </trkpt>
      <trkpt lat="44.29627" lon="7.15758">
        <ele>1021.6</ele>
        <time>2022-07-19T04:06:58Z</time>
      </trkpt>
      <trkpt lat="44.29626" lon="7.15756">
        <ele>1021.6</ele>
        <time>2022-07-19T04:06:59Z</time>
      </trkpt>
      <trkpt lat="44.29625" lon="7.15754">
        <ele>1022</ele>
        <time>2022-07-19T04:07:00Z</time>
      </trkpt>
      <trkpt lat="44.29624" lon="7.15753">
        <ele>1022</ele>
        <time>2022-07-19T04:07:01Z</time>
      </trkpt>
      <trkpt lat="44.29623" lon="7.15751">
        <ele>1022.2</ele>
        <time>2022-07-19T04:07:02Z</time>
      </trkpt>
      <trkpt lat="44.29622" lon="7.15749">
        <ele>1022.2</ele>
        <time>2022-07-19T04:07:03Z</time>
      </trkpt>
      <trkpt lat="44.29621" lon="7.15747">
        <ele>1022.6</ele>
        <time>2022-07-19T04:07:04Z</time>
      </trkpt>
      <trkpt lat="44.2962" lon="7.15745">
        <ele>1022.6</ele>
        <time>2022-07-19T04:07:05Z</time>
      </trkpt>
      <trkpt lat="44.29619" lon="7.15743">
        <ele>1022.8</ele>
        <time>2022-07-19T04:07:06Z</time>
      </trkpt>
      <trkpt lat="44.29618" lon="7.15741">
        <ele>1022.8</ele>
        <time>2022-07-19T04:07:07Z</time>
      </trkpt>
      <trkpt lat="44.29617" lon="7.15739">
        <ele>1023.2</ele>
        <time>2022-07-19T04:07:08Z</time>
      </trkpt>
      <trkpt lat="44.29616" lon="7.15737">
        <ele>1023.4</ele>
        <time>2022-07-19T04:07:09Z</time>
      </trkpt>
      <trkpt lat="44.29615" lon="7.15736">
        <ele>1023.4</ele>
        <time>2022-07-19T04:07:10Z</time>
      </trkpt>
      <trkpt lat="44.29614" lon="7.15734">
        <ele>1023.8</ele>
        <time>2022-07-19T04:07:11Z</time>
      </trkpt>
      <trkpt lat="44.29613" lon="7.15732">
        <ele>1024</ele>
        <time>2022-07-19T04:07:12Z</time>
      </trkpt>
      <trkpt lat="44.29612" lon="7.1573">
        <ele>1024</ele>
        <time>2022-07-19T04:07:13Z</time>
      </trkpt>
      <trkpt lat="44.29611" lon="7.15729">
        <ele>1024.4</ele>
        <time>2022-07-19T04:07:14Z</time>
      </trkpt>
      <trkpt lat="44.29609" lon="7.15726">
        <ele>1024.4</ele>
        <time>2022-07-19T04:07:15Z</time>
      </trkpt>
      <trkpt lat="44.29608" lon="7.15724">
        <ele>1024.6</ele>
        <time>2022-07-19T04:07:16Z</time>
      </trkpt>
      <trkpt lat="44.29607" lon="7.15722">
        <ele>1024.6</ele>
        <time>2022-07-19T04:07:17Z</time>
      </trkpt>
      <trkpt lat="44.29606" lon="7.15721">
        <ele>1025</ele>
        <time>2022-07-19T04:07:18Z</time>
      </trkpt>
      <trkpt lat="44.29605" lon="7.15719">
        <ele>1025.2</ele>
        <time>2022-07-19T04:07:19Z</time>
      </trkpt>
      <trkpt lat="44.29604" lon="7.15717">
        <ele>1025.2</ele>
        <time>2022-07-19T04:07:20Z</time>
      </trkpt>
      <trkpt lat="44.29602" lon="7.15715">
        <ele>1025.6</ele>
        <time>2022-07-19T04:07:21Z</time>
      </trkpt>
      <trkpt lat="44.29601" lon="7.15713">
        <ele>1025.6</ele>
        <time>2022-07-19T04:07:22Z</time>
      </trkpt>
      <trkpt lat="44.296" lon="7.15713">
        <ele>1025.8</ele>
        <time>2022-07-19T04:07:23Z</time>
      </trkpt>
      <trkpt lat="44.29598" lon="7.15712">
        <ele>1026</ele>
        <time>2022-07-19T04:07:24Z</time>
      </trkpt>
      <trkpt lat="44.29597" lon="7.15711">
        <ele>1026</ele>
        <time>2022-07-19T04:07:25Z</time>
      </trkpt>
      <trkpt lat="44.29595" lon="7.15711">
        <ele>1026.4</ele>
        <time>2022-07-19T04:07:26Z</time>
      </trkpt>
      <trkpt lat="44.29594" lon="7.15711">
        <ele>1026.4</ele>
        <time>2022-07-19T04:07:27Z</time>
      </trkpt>
      <trkpt lat="44.29592" lon="7.15711">
        <ele>1026.6</ele>
        <time>2022-07-19T04:07:28Z</time>
      </trkpt>
      <trkpt lat="44.2959" lon="7.15711">
        <ele>1026.6</ele>
        <time>2022-07-19T04:07:29Z</time>
      </trkpt>
      <trkpt lat="44.29589" lon="7.15712">
        <ele>1027</ele>
        <time>2022-07-19T04:07:30Z</time>
      </trkpt>
      <trkpt lat="44.29587" lon="7.15713">
        <ele>1027</ele>
        <time>2022-07-19T04:07:31Z</time>
      </trkpt>
      <trkpt lat="44.29585" lon="7.15714">
        <ele>1027.2</ele>
        <time>2022-07-19T04:07:32Z</time>
      </trkpt>
      <trkpt lat="44.29584" lon="7.15715">
        <ele>1027.2</ele>
        <time>2022-07-19T04:07:33Z</time>
      </trkpt>
      <trkpt lat="44.29582" lon="7.15716">
        <ele>1027.6</ele>
        <time>2022-07-19T04:07:34Z</time>
      </trkpt>
      <trkpt lat="44.29581" lon="7.15717">
        <ele>1027.6</ele>
        <time>2022-07-19T04:07:35Z</time>
      </trkpt>
      <trkpt lat="44.29579" lon="7.15718">
        <ele>1027.8</ele>
        <time>2022-07-19T04:07:36Z</time>
      </trkpt>
      <trkpt lat="44.29577" lon="7.15719">
        <ele>1027.8</ele>
        <time>2022-07-19T04:07:37Z</time>
      </trkpt>
      <trkpt lat="44.29576" lon="7.15719">
        <ele>1028.2</ele>
        <time>2022-07-19T04:07:38Z</time>
      </trkpt>
      <trkpt lat="44.29574" lon="7.1572">
        <ele>1028.2</ele>
        <time>2022-07-19T04:07:39Z</time>
      </trkpt>
      <trkpt lat="44.29573" lon="7.15721">
        <ele>1028.6</ele>
        <time>2022-07-19T04:07:40Z</time>
      </trkpt>
      <trkpt lat="44.29571" lon="7.15721">
        <ele>1028.8</ele>
        <time>2022-07-19T04:07:41Z</time>
      </trkpt>
      <trkpt lat="44.2957" lon="7.15722">
        <ele>1028.8</ele>
        <time>2022-07-19T04:07:42Z</time>
      </trkpt>
      <trkpt lat="44.29568" lon="7.15722">
        <ele>1029.2</ele>
        <time>2022-07-19T04:07:43Z</time>
      </trkpt>
      <trkpt lat="44.29567" lon="7.15723">
        <ele>1029.2</ele>
        <time>2022-07-19T04:07:44Z</time>
      </trkpt>
      <trkpt lat="44.29565" lon="7.15723">
        <ele>1029.6</ele>
        <time>2022-07-19T04:07:45Z</time>
      </trkpt>
      <trkpt lat="44.29564" lon="7.15723">
        <ele>1029.8</ele>
        <time>2022-07-19T04:07:46Z</time>
      </trkpt>
      <trkpt lat="44.29562" lon="7.15722">
        <ele>1029.8</ele>
        <time>2022-07-19T04:07:47Z</time>
      </trkpt>
      <trkpt lat="44.2956" lon="7.15722">
        <ele>1030.2</ele>
        <time>2022-07-19T04:07:48Z</time>
      </trkpt>
      <trkpt lat="44.29559" lon="7.15722">
        <ele>1030.2</ele>
        <time>2022-07-19T04:07:49Z</time>
      </trkpt>
      <trkpt lat="44.29557" lon="7.15722">
        <ele>1030.6</ele>
        <time>2022-07-19T04:07:50Z</time>
      </trkpt>
      <trkpt lat="44.29556" lon="7.15721">
        <ele>1030.8</ele>
        <time>2022-07-19T04:07:51Z</time>
      </trkpt>
      <trkpt lat="44.29554" lon="7.15721">
        <ele>1030.8</ele>
        <time>2022-07-19T04:07:52Z</time>
      </trkpt>
      <trkpt lat="44.29553" lon="7.15721">
        <ele>1031</ele>
        <time>2022-07-19T04:07:53Z</time>
      </trkpt>
      <trkpt lat="44.29551" lon="7.1572">
        <ele>1031</ele>
        <time>2022-07-19T04:07:54Z</time>
      </trkpt>
      <trkpt lat="44.29549" lon="7.1572">
        <ele>1031.4</ele>
        <time>2022-07-19T04:07:55Z</time>
      </trkpt>
      <trkpt lat="44.29548" lon="7.15719">
        <ele>1031.6</ele>
        <time>2022-07-19T04:07:56Z</time>
      </trkpt>
      <trkpt lat="44.29546" lon="7.15719">
        <ele>1032</ele>
        <time>2022-07-19T04:07:57Z</time>
      </trkpt>
      <trkpt lat="44.29544" lon="7.15719">
        <ele>1032.2</ele>
        <time>2022-07-19T04:07:58Z</time>
      </trkpt>
      <trkpt lat="44.29543" lon="7.15718">
        <ele>1032.2</ele>
        <time>2022-07-19T04:07:59Z</time>
      </trkpt>
      <trkpt lat="44.29542" lon="7.15718">
        <ele>1032.6</ele>
        <time>2022-07-19T04:08:00Z</time>
      </trkpt>
      <trkpt lat="44.2954" lon="7.15717">
        <ele>1032.8</ele>
        <time>2022-07-19T04:08:01Z</time>
      </trkpt>
      <trkpt lat="44.29539" lon="7.15716">
        <ele>1033</ele>
        <time>2022-07-19T04:08:02Z</time>
      </trkpt>
      <trkpt lat="44.29538" lon="7.15716">
        <ele>1033.2</ele>
        <time>2022-07-19T04:08:03Z</time>
      </trkpt>
      <trkpt lat="44.29536" lon="7.15715">
        <ele>1033.2</ele>
        <time>2022-07-19T04:08:04Z</time>
      </trkpt>
      <trkpt lat="44.29535" lon="7.15715">
        <ele>1033.6</ele>
        <time>2022-07-19T04:08:05Z</time>
      </trkpt>
      <trkpt lat="44.29533" lon="7.15715">
        <ele>1033.8</ele>
        <time>2022-07-19T04:08:06Z</time>
      </trkpt>
      <trkpt lat="44.29532" lon="7.15715">
        <ele>1034</ele>
        <time>2022-07-19T04:08:07Z</time>
      </trkpt>
      <trkpt lat="44.2953" lon="7.15715">
        <ele>1034</ele>
        <time>2022-07-19T04:08:08Z</time>
      </trkpt>
      <trkpt lat="44.29529" lon="7.15714">
        <ele>1034.4</ele>
        <time>2022-07-19T04:08:09Z</time>
      </trkpt>
      <trkpt lat="44.29528" lon="7.15713">
        <ele>1034.4</ele>
        <time>2022-07-19T04:08:10Z</time>
      </trkpt>
      <trkpt lat="44.29526" lon="7.15713">
        <ele>1034.6</ele>
        <time>2022-07-19T04:08:11Z</time>
      </trkpt>
      <trkpt lat="44.29525" lon="7.15712">
        <ele>1034.6</ele>
        <time>2022-07-19T04:08:12Z</time>
      </trkpt>
      <trkpt lat="44.29523" lon="7.15712">
        <ele>1034.8</ele>
        <time>2022-07-19T04:08:13Z</time>
      </trkpt>
      <trkpt lat="44.29522" lon="7.15711">
        <ele>1035.2</ele>
        <time>2022-07-19T04:08:14Z</time>
      </trkpt>
      <trkpt lat="44.29521" lon="7.15711">
        <ele>1035.4</ele>
        <time>2022-07-19T04:08:15Z</time>
      </trkpt>
      <trkpt lat="44.29519" lon="7.1571">
        <ele>1035.4</ele>
        <time>2022-07-19T04:08:16Z</time>
      </trkpt>
      <trkpt lat="44.29518" lon="7.1571">
        <ele>1035.4</ele>
        <time>2022-07-19T04:08:17Z</time>
      </trkpt>
      <trkpt lat="44.29517" lon="7.15709">
        <ele>1035.6</ele>
        <time>2022-07-19T04:08:18Z</time>
      </trkpt>
      <trkpt lat="44.29515" lon="7.15709">
        <ele>1035.6</ele>
        <time>2022-07-19T04:08:19Z</time>
      </trkpt>
      <trkpt lat="44.29514" lon="7.15709">
        <ele>1035.8</ele>
        <time>2022-07-19T04:08:20Z</time>
      </trkpt>
      <trkpt lat="44.29512" lon="7.15708">
        <ele>1035.8</ele>
        <time>2022-07-19T04:08:21Z</time>
      </trkpt>
      <trkpt lat="44.29511" lon="7.15708">
        <ele>1036.2</ele>
        <time>2022-07-19T04:08:22Z</time>
      </trkpt>
      <trkpt lat="44.29509" lon="7.15708">
        <ele>1036.2</ele>
        <time>2022-07-19T04:08:23Z</time>
      </trkpt>
      <trkpt lat="44.29508" lon="7.15708">
        <ele>1036.6</ele>
        <time>2022-07-19T04:08:24Z</time>
      </trkpt>
      <trkpt lat="44.29507" lon="7.15707">
        <ele>1036.6</ele>
        <time>2022-07-19T04:08:25Z</time>
      </trkpt>
      <trkpt lat="44.29505" lon="7.15706">
        <ele>1037</ele>
        <time>2022-07-19T04:08:26Z</time>
      </trkpt>
      <trkpt lat="44.29503" lon="7.15705">
        <ele>1037</ele>
        <time>2022-07-19T04:08:27Z</time>
      </trkpt>
      <trkpt lat="44.29502" lon="7.15704">
        <ele>1037.2</ele>
        <time>2022-07-19T04:08:28Z</time>
      </trkpt>
      <trkpt lat="44.29501" lon="7.15703">
        <ele>1037.2</ele>
        <time>2022-07-19T04:08:29Z</time>
      </trkpt>
      <trkpt lat="44.295" lon="7.15702">
        <ele>1037.2</ele>
        <time>2022-07-19T04:08:30Z</time>
      </trkpt>
      <trkpt lat="44.29498" lon="7.15702">
        <ele>1037.6</ele>
        <time>2022-07-19T04:08:31Z</time>
      </trkpt>
      <trkpt lat="44.29497" lon="7.15701">
        <ele>1037.6</ele>
        <time>2022-07-19T04:08:32Z</time>
      </trkpt>
      <trkpt lat="44.29496" lon="7.157">
        <ele>1038</ele>
        <time>2022-07-19T04:08:33Z</time>
      </trkpt>
      <trkpt lat="44.29494" lon="7.15699">
        <ele>1038.2</ele>
        <time>2022-07-19T04:08:34Z</time>
      </trkpt>
      <trkpt lat="44.29493" lon="7.15698">
        <ele>1038.2</ele>
        <time>2022-07-19T04:08:35Z</time>
      </trkpt>
      <trkpt lat="44.29492" lon="7.15696">
        <ele>1038.4</ele>
        <time>2022-07-19T04:08:36Z</time>
      </trkpt>
      <trkpt lat="44.2949" lon="7.15695">
        <ele>1038.4</ele>
        <time>2022-07-19T04:08:37Z</time>
      </trkpt>
      <trkpt lat="44.29489" lon="7.15694">
        <ele>1038.6</ele>
        <time>2022-07-19T04:08:38Z</time>
      </trkpt>
      <trkpt lat="44.29487" lon="7.15693">
        <ele>1038.6</ele>
        <time>2022-07-19T04:08:39Z</time>
      </trkpt>
      <trkpt lat="44.29486" lon="7.15692">
        <ele>1039</ele>
        <time>2022-07-19T04:08:40Z</time>
      </trkpt>
      <trkpt lat="44.29484" lon="7.1569">
        <ele>1039</ele>
        <time>2022-07-19T04:08:41Z</time>
      </trkpt>
      <trkpt lat="44.29483" lon="7.15689">
        <ele>1039.4</ele>
        <time>2022-07-19T04:08:42Z</time>
      </trkpt>
      <trkpt lat="44.29481" lon="7.15688">
        <ele>1039.4</ele>
        <time>2022-07-19T04:08:43Z</time>
      </trkpt>
      <trkpt lat="44.2948" lon="7.15688">
        <ele>1039.6</ele>
        <time>2022-07-19T04:08:44Z</time>
      </trkpt>
      <trkpt lat="44.29478" lon="7.15687">
        <ele>1039.6</ele>
        <time>2022-07-19T04:08:45Z</time>
      </trkpt>
      <trkpt lat="44.29476" lon="7.15687">
        <ele>1040</ele>
        <time>2022-07-19T04:08:46Z</time>
      </trkpt>
      <trkpt lat="44.29474" lon="7.15687">
        <ele>1040</ele>
        <time>2022-07-19T04:08:47Z</time>
      </trkpt>
      <trkpt lat="44.29472" lon="7.15687">
        <ele>1040.4</ele>
        <time>2022-07-19T04:08:48Z</time>
      </trkpt>
      <trkpt lat="44.2947" lon="7.15687">
        <ele>1040.4</ele>
        <time>2022-07-19T04:08:49Z</time>
      </trkpt>
      <trkpt lat="44.29469" lon="7.15686">
        <ele>1040.6</ele>
        <time>2022-07-19T04:08:50Z</time>
      </trkpt>
      <trkpt lat="44.29467" lon="7.15685">
        <ele>1040.6</ele>
        <time>2022-07-19T04:08:51Z</time>
      </trkpt>
      <trkpt lat="44.29465" lon="7.15685">
        <ele>1041</ele>
        <time>2022-07-19T04:08:52Z</time>
      </trkpt>
      <trkpt lat="44.29463" lon="7.15684">
        <ele>1041</ele>
        <time>2022-07-19T04:08:53Z</time>
      </trkpt>
      <trkpt lat="44.29462" lon="7.15684">
        <ele>1041.2</ele>
        <time>2022-07-19T04:08:54Z</time>
      </trkpt>
      <trkpt lat="44.2946" lon="7.15684">
        <ele>1041.2</ele>
        <time>2022-07-19T04:08:55Z</time>
      </trkpt>
      <trkpt lat="44.29458" lon="7.15683">
        <ele>1041.6</ele>
        <time>2022-07-19T04:08:56Z</time>
      </trkpt>
      <trkpt lat="44.29457" lon="7.15683">
        <ele>1041.6</ele>
        <time>2022-07-19T04:08:57Z</time>
      </trkpt>
      <trkpt lat="44.29455" lon="7.15682">
        <ele>1041.8</ele>
        <time>2022-07-19T04:08:58Z</time>
      </trkpt>
      <trkpt lat="44.29453" lon="7.15681">
        <ele>1041.8</ele>
        <time>2022-07-19T04:08:59Z</time>
      </trkpt>
      <trkpt lat="44.29452" lon="7.15681">
        <ele>1042</ele>
        <time>2022-07-19T04:09:00Z</time>
      </trkpt>
      <trkpt lat="44.2945" lon="7.1568">
        <ele>1042.2</ele>
        <time>2022-07-19T04:09:01Z</time>
      </trkpt>
      <trkpt lat="44.29448" lon="7.1568">
        <ele>1042.6</ele>
        <time>2022-07-19T04:09:02Z</time>
      </trkpt>
      <trkpt lat="44.29446" lon="7.15679">
        <ele>1042.8</ele>
        <time>2022-07-19T04:09:03Z</time>
      </trkpt>
      <trkpt lat="44.29445" lon="7.15679">
        <ele>1042.8</ele>
        <time>2022-07-19T04:09:04Z</time>
      </trkpt>
      <trkpt lat="44.29443" lon="7.15678">
        <ele>1043</ele>
        <time>2022-07-19T04:09:05Z</time>
      </trkpt>
      <trkpt lat="44.29441" lon="7.15678">
        <ele>1043</ele>
        <time>2022-07-19T04:09:06Z</time>
      </trkpt>
      <trkpt lat="44.2944" lon="7.15677">
        <ele>1043.2</ele>
        <time>2022-07-19T04:09:07Z</time>
      </trkpt>
      <trkpt lat="44.29438" lon="7.15677">
        <ele>1043.2</ele>
        <time>2022-07-19T04:09:08Z</time>
      </trkpt>
      <trkpt lat="44.29436" lon="7.15676">
        <ele>1043.6</ele>
        <time>2022-07-19T04:09:09Z</time>
      </trkpt>
      <trkpt lat="44.29434" lon="7.15675">
        <ele>1043.6</ele>
        <time>2022-07-19T04:09:10Z</time>
      </trkpt>
      <trkpt lat="44.29432" lon="7.15675">
        <ele>1043.8</ele>
        <time>2022-07-19T04:09:11Z</time>
      </trkpt>
      <trkpt lat="44.29431" lon="7.15675">
        <ele>1044</ele>
        <time>2022-07-19T04:09:12Z</time>
      </trkpt>
      <trkpt lat="44.29429" lon="7.15674">
        <ele>1044.2</ele>
        <time>2022-07-19T04:09:13Z</time>
      </trkpt>
      <trkpt lat="44.29427" lon="7.15673">
        <ele>1044.2</ele>
        <time>2022-07-19T04:09:14Z</time>
      </trkpt>
      <trkpt lat="44.29425" lon="7.15673">
        <ele>1044.6</ele>
        <time>2022-07-19T04:09:15Z</time>
      </trkpt>
      <trkpt lat="44.29424" lon="7.15672">
        <ele>1044.6</ele>
        <time>2022-07-19T04:09:16Z</time>
      </trkpt>
      <trkpt lat="44.29422" lon="7.15671">
        <ele>1044.8</ele>
        <time>2022-07-19T04:09:17Z</time>
      </trkpt>
      <trkpt lat="44.2942" lon="7.1567">
        <ele>1044.8</ele>
        <time>2022-07-19T04:09:18Z</time>
      </trkpt>
      <trkpt lat="44.29419" lon="7.1567">
        <ele>1045</ele>
        <time>2022-07-19T04:09:19Z</time>
      </trkpt>
      <trkpt lat="44.29417" lon="7.15669">
        <ele>1045</ele>
        <time>2022-07-19T04:09:20Z</time>
      </trkpt>
      <trkpt lat="44.29416" lon="7.15668">
        <ele>1045.4</ele>
        <time>2022-07-19T04:09:21Z</time>
      </trkpt>
      <trkpt lat="44.29415" lon="7.15667">
        <ele>1045.4</ele>
        <time>2022-07-19T04:09:22Z</time>
      </trkpt>
      <trkpt lat="44.29413" lon="7.15667">
        <ele>1045.6</ele>
        <time>2022-07-19T04:09:23Z</time>
      </trkpt>
      <trkpt lat="44.29411" lon="7.15666">
        <ele>1045.6</ele>
        <time>2022-07-19T04:09:24Z</time>
      </trkpt>
      <trkpt lat="44.29409" lon="7.15665">
        <ele>1045.8</ele>
        <time>2022-07-19T04:09:25Z</time>
      </trkpt>
      <trkpt lat="44.29407" lon="7.15664">
        <ele>1045.8</ele>
        <time>2022-07-19T04:09:26Z</time>
      </trkpt>
      <trkpt lat="44.29405" lon="7.15663">
        <ele>1046.2</ele>
        <time>2022-07-19T04:09:27Z</time>
      </trkpt>
      <trkpt lat="44.29404" lon="7.15662">
        <ele>1046.2</ele>
        <time>2022-07-19T04:09:28Z</time>
      </trkpt>
      <trkpt lat="44.29402" lon="7.1566">
        <ele>1046.4</ele>
        <time>2022-07-19T04:09:29Z</time>
      </trkpt>
      <trkpt lat="44.294" lon="7.15659">
        <ele>1046.4</ele>
        <time>2022-07-19T04:09:30Z</time>
      </trkpt>
      <trkpt lat="44.29398" lon="7.15658">
        <ele>1046.8</ele>
        <time>2022-07-19T04:09:31Z</time>
      </trkpt>
      <trkpt lat="44.29395" lon="7.15657">
        <ele>1046.8</ele>
        <time>2022-07-19T04:09:32Z</time>
      </trkpt>
      <trkpt lat="44.29393" lon="7.15655">
        <ele>1046.8</ele>
        <time>2022-07-19T04:09:33Z</time>
      </trkpt>
      <trkpt lat="44.29391" lon="7.15654">
        <ele>1047</ele>
        <time>2022-07-19T04:09:34Z</time>
      </trkpt>
      <trkpt lat="44.29389" lon="7.15652">
        <ele>1047</ele>
        <time>2022-07-19T04:09:35Z</time>
      </trkpt>
      <trkpt lat="44.29387" lon="7.15651">
        <ele>1047.4</ele>
        <time>2022-07-19T04:09:36Z</time>
      </trkpt>
      <trkpt lat="44.29385" lon="7.1565">
        <ele>1047.4</ele>
        <time>2022-07-19T04:09:37Z</time>
      </trkpt>
      <trkpt lat="44.29383" lon="7.15649">
        <ele>1047.6</ele>
        <time>2022-07-19T04:09:38Z</time>
      </trkpt>
      <trkpt lat="44.29381" lon="7.15647">
        <ele>1047.6</ele>
        <time>2022-07-19T04:09:39Z</time>
      </trkpt>
      <trkpt lat="44.29379" lon="7.15646">
        <ele>1048</ele>
        <time>2022-07-19T04:09:40Z</time>
      </trkpt>
      <trkpt lat="44.29377" lon="7.15645">
        <ele>1048.2</ele>
        <time>2022-07-19T04:09:41Z</time>
      </trkpt>
      <trkpt lat="44.29375" lon="7.15644">
        <ele>1048.2</ele>
        <time>2022-07-19T04:09:42Z</time>
      </trkpt>
      <trkpt lat="44.29373" lon="7.15642">
        <ele>1048.4</ele>
        <time>2022-07-19T04:09:43Z</time>
      </trkpt>
      <trkpt lat="44.29371" lon="7.15641">
        <ele>1048.4</ele>
        <time>2022-07-19T04:09:44Z</time>
      </trkpt>
      <trkpt lat="44.29368" lon="7.1564">
        <ele>1048.8</ele>
        <time>2022-07-19T04:09:45Z</time>
      </trkpt>
      <trkpt lat="44.29367" lon="7.15638">
        <ele>1048.8</ele>
        <time>2022-07-19T04:09:46Z</time>
      </trkpt>
      <trkpt lat="44.29365" lon="7.15637">
        <ele>1049</ele>
        <time>2022-07-19T04:09:47Z</time>
      </trkpt>
      <trkpt lat="44.29363" lon="7.15636">
        <ele>1049</ele>
        <time>2022-07-19T04:09:48Z</time>
      </trkpt>
      <trkpt lat="44.29361" lon="7.15635">
        <ele>1049.2</ele>
        <time>2022-07-19T04:09:49Z</time>
      </trkpt>
      <trkpt lat="44.2936" lon="7.15634">
        <ele>1049.2</ele>
        <time>2022-07-19T04:09:50Z</time>
      </trkpt>
      <trkpt lat="44.29358" lon="7.15633">
        <ele>1049.2</ele>
        <time>2022-07-19T04:09:51Z</time>
      </trkpt>
      <trkpt lat="44.29356" lon="7.15631">
        <ele>1049.6</ele>
        <time>2022-07-19T04:09:52Z</time>
      </trkpt>
      <trkpt lat="44.29355" lon="7.15629">
        <ele>1049.6</ele>
        <time>2022-07-19T04:09:53Z</time>
      </trkpt>
      <trkpt lat="44.29353" lon="7.15628">
        <ele>1049.6</ele>
        <time>2022-07-19T04:09:54Z</time>
      </trkpt>
      <trkpt lat="44.29351" lon="7.15626">
        <ele>1049.6</ele>
        <time>2022-07-19T04:09:55Z</time>
      </trkpt>
      <trkpt lat="44.29349" lon="7.15624">
        <ele>1049.8</ele>
        <time>2022-07-19T04:09:56Z</time>
      </trkpt>
      <trkpt lat="44.29347" lon="7.15622">
        <ele>1049.8</ele>
        <time>2022-07-19T04:09:57Z</time>
      </trkpt>
      <trkpt lat="44.29345" lon="7.15619">
        <ele>1050</ele>
        <time>2022-07-19T04:09:58Z</time>
      </trkpt>
      <trkpt lat="44.29344" lon="7.15617">
        <ele>1050</ele>
        <time>2022-07-19T04:09:59Z</time>
      </trkpt>
      <trkpt lat="44.29343" lon="7.15615">
        <ele>1050.2</ele>
        <time>2022-07-19T04:10:00Z</time>
      </trkpt>
      <trkpt lat="44.29341" lon="7.15612">
        <ele>1050.2</ele>
        <time>2022-07-19T04:10:01Z</time>
      </trkpt>
      <trkpt lat="44.2934" lon="7.15609">
        <ele>1050.6</ele>
        <time>2022-07-19T04:10:02Z</time>
      </trkpt>
      <trkpt lat="44.29338" lon="7.15606">
        <ele>1050.6</ele>
        <time>2022-07-19T04:10:03Z</time>
      </trkpt>
      <trkpt lat="44.29338" lon="7.15603">
        <ele>1050.8</ele>
        <time>2022-07-19T04:10:04Z</time>
      </trkpt>
      <trkpt lat="44.29337" lon="7.15601">
        <ele>1050.8</ele>
        <time>2022-07-19T04:10:05Z</time>
      </trkpt>
      <trkpt lat="44.29336" lon="7.15599">
        <ele>1051.2</ele>
        <time>2022-07-19T04:10:06Z</time>
      </trkpt>
      <trkpt lat="44.29335" lon="7.15596">
        <ele>1051.2</ele>
        <time>2022-07-19T04:10:07Z</time>
      </trkpt>
      <trkpt lat="44.29334" lon="7.15594">
        <ele>1051.4</ele>
        <time>2022-07-19T04:10:08Z</time>
      </trkpt>
      <trkpt lat="44.29333" lon="7.15592">
        <ele>1051.4</ele>
        <time>2022-07-19T04:10:09Z</time>
      </trkpt>
      <trkpt lat="44.29332" lon="7.1559">
        <ele>1051.8</ele>
        <time>2022-07-19T04:10:10Z</time>
      </trkpt>
      <trkpt lat="44.29331" lon="7.15587">
        <ele>1051.8</ele>
        <time>2022-07-19T04:10:11Z</time>
      </trkpt>
      <trkpt lat="44.29329" lon="7.15585">
        <ele>1052.2</ele>
        <time>2022-07-19T04:10:12Z</time>
      </trkpt>
      <trkpt lat="44.29326" lon="7.15583">
        <ele>1052.2</ele>
        <time>2022-07-19T04:10:13Z</time>
      </trkpt>
      <trkpt lat="44.29324" lon="7.15582">
        <ele>1052.4</ele>
        <time>2022-07-19T04:10:14Z</time>
      </trkpt>
      <trkpt lat="44.29322" lon="7.15581">
        <ele>1052.4</ele>
        <time>2022-07-19T04:10:15Z</time>
      </trkpt>
      <trkpt lat="44.2932" lon="7.15579">
        <ele>1052.8</ele>
        <time>2022-07-19T04:10:16Z</time>
      </trkpt>
      <trkpt lat="44.29318" lon="7.15578">
        <ele>1052.8</ele>
        <time>2022-07-19T04:10:17Z</time>
      </trkpt>
      <trkpt lat="44.29316" lon="7.15577">
        <ele>1053</ele>
        <time>2022-07-19T04:10:18Z</time>
      </trkpt>
      <trkpt lat="44.29314" lon="7.15576">
        <ele>1053</ele>
        <time>2022-07-19T04:10:19Z</time>
      </trkpt>
      <trkpt lat="44.29312" lon="7.15574">
        <ele>1053</ele>
        <time>2022-07-19T04:10:20Z</time>
      </trkpt>
      <trkpt lat="44.2931" lon="7.15573">
        <ele>1053.2</ele>
        <time>2022-07-19T04:10:21Z</time>
      </trkpt>
      <trkpt lat="44.29308" lon="7.15572">
        <ele>1053.2</ele>
        <time>2022-07-19T04:10:22Z</time>
      </trkpt>
      <trkpt lat="44.29306" lon="7.1557">
        <ele>1053.4</ele>
        <time>2022-07-19T04:10:23Z</time>
      </trkpt>
      <trkpt lat="44.29304" lon="7.15569">
        <ele>1053.4</ele>
        <time>2022-07-19T04:10:24Z</time>
      </trkpt>
      <trkpt lat="44.29303" lon="7.15568">
        <ele>1053.8</ele>
        <time>2022-07-19T04:10:25Z</time>
      </trkpt>
      <trkpt lat="44.29301" lon="7.15566">
        <ele>1053.8</ele>
        <time>2022-07-19T04:10:26Z</time>
      </trkpt>
      <trkpt lat="44.293" lon="7.15565">
        <ele>1054</ele>
        <time>2022-07-19T04:10:27Z</time>
      </trkpt>
      <trkpt lat="44.29299" lon="7.15563">
        <ele>1054</ele>
        <time>2022-07-19T04:10:28Z</time>
      </trkpt>
      <trkpt lat="44.29297" lon="7.15562">
        <ele>1054.4</ele>
        <time>2022-07-19T04:10:29Z</time>
      </trkpt>
      <trkpt lat="44.29295" lon="7.15561">
        <ele>1054.4</ele>
        <time>2022-07-19T04:10:30Z</time>
      </trkpt>
      <trkpt lat="44.29294" lon="7.15559">
        <ele>1054.6</ele>
        <time>2022-07-19T04:10:31Z</time>
      </trkpt>
      <trkpt lat="44.29293" lon="7.15557">
        <ele>1054.6</ele>
        <time>2022-07-19T04:10:32Z</time>
      </trkpt>
      <trkpt lat="44.29292" lon="7.15555">
        <ele>1055</ele>
        <time>2022-07-19T04:10:33Z</time>
      </trkpt>
      <trkpt lat="44.2929" lon="7.15553">
        <ele>1055.2</ele>
        <time>2022-07-19T04:10:34Z</time>
      </trkpt>
      <trkpt lat="44.29289" lon="7.15552">
        <ele>1055.2</ele>
        <time>2022-07-19T04:10:35Z</time>
      </trkpt>
      <trkpt lat="44.29287" lon="7.1555">
        <ele>1055.4</ele>
        <time>2022-07-19T04:10:36Z</time>
      </trkpt>
      <trkpt lat="44.29286" lon="7.15548">
        <ele>1055.4</ele>
        <time>2022-07-19T04:10:37Z</time>
      </trkpt>
      <trkpt lat="44.29284" lon="7.15546">
        <ele>1055.8</ele>
        <time>2022-07-19T04:10:38Z</time>
      </trkpt>
      <trkpt lat="44.29283" lon="7.15544">
        <ele>1055.8</ele>
        <time>2022-07-19T04:10:39Z</time>
      </trkpt>
      <trkpt lat="44.29281" lon="7.15542">
        <ele>1056</ele>
        <time>2022-07-19T04:10:40Z</time>
      </trkpt>
      <trkpt lat="44.2928" lon="7.15541">
        <ele>1056</ele>
        <time>2022-07-19T04:10:41Z</time>
      </trkpt>
      <trkpt lat="44.29278" lon="7.15539">
        <ele>1056.4</ele>
        <time>2022-07-19T04:10:42Z</time>
      </trkpt>
      <trkpt lat="44.29276" lon="7.15537">
        <ele>1056.4</ele>
        <time>2022-07-19T04:10:43Z</time>
      </trkpt>
      <trkpt lat="44.29275" lon="7.15536">
        <ele>1056.6</ele>
        <time>2022-07-19T04:10:44Z</time>
      </trkpt>
      <trkpt lat="44.29273" lon="7.15533">
        <ele>1056.6</ele>
        <time>2022-07-19T04:10:45Z</time>
      </trkpt>
      <trkpt lat="44.29271" lon="7.15531">
        <ele>1057</ele>
        <time>2022-07-19T04:10:46Z</time>
      </trkpt>
      <trkpt lat="44.29269" lon="7.1553">
        <ele>1057</ele>
        <time>2022-07-19T04:10:47Z</time>
      </trkpt>
      <trkpt lat="44.29268" lon="7.15528">
        <ele>1057.2</ele>
        <time>2022-07-19T04:10:48Z</time>
      </trkpt>
      <trkpt lat="44.29267" lon="7.15526">
        <ele>1057.2</ele>
        <time>2022-07-19T04:10:49Z</time>
      </trkpt>
      <trkpt lat="44.29265" lon="7.15525">
        <ele>1057.6</ele>
        <time>2022-07-19T04:10:50Z</time>
      </trkpt>
      <trkpt lat="44.29263" lon="7.15523">
        <ele>1057.6</ele>
        <time>2022-07-19T04:10:51Z</time>
      </trkpt>
      <trkpt lat="44.29262" lon="7.15522">
        <ele>1057.8</ele>
        <time>2022-07-19T04:10:52Z</time>
      </trkpt>
      <trkpt lat="44.2926" lon="7.1552">
        <ele>1057.8</ele>
        <time>2022-07-19T04:10:53Z</time>
      </trkpt>
      <trkpt lat="44.2926" lon="7.15519">
        <ele>1058</ele>
        <time>2022-07-19T04:10:54Z</time>
      </trkpt>
      <trkpt lat="44.29258" lon="7.15518">
        <ele>1058</ele>
        <time>2022-07-19T04:10:55Z</time>
      </trkpt>
      <trkpt lat="44.29256" lon="7.15517">
        <ele>1058.4</ele>
        <time>2022-07-19T04:10:56Z</time>
      </trkpt>
      <trkpt lat="44.29254" lon="7.15516">
        <ele>1058.4</ele>
        <time>2022-07-19T04:10:57Z</time>
      </trkpt>
      <trkpt lat="44.29252" lon="7.15515">
        <ele>1058.6</ele>
        <time>2022-07-19T04:10:58Z</time>
      </trkpt>
      <trkpt lat="44.2925" lon="7.15514">
        <ele>1058.6</ele>
        <time>2022-07-19T04:10:59Z</time>
      </trkpt>
      <trkpt lat="44.29248" lon="7.15513">
        <ele>1058.8</ele>
        <time>2022-07-19T04:11:00Z</time>
      </trkpt>
      <trkpt lat="44.29246" lon="7.15513">
        <ele>1058.8</ele>
        <time>2022-07-19T04:11:01Z</time>
      </trkpt>
      <trkpt lat="44.29244" lon="7.15512">
        <ele>1059.2</ele>
        <time>2022-07-19T04:11:02Z</time>
      </trkpt>
      <trkpt lat="44.29243" lon="7.15511">
        <ele>1059.2</ele>
        <time>2022-07-19T04:11:03Z</time>
      </trkpt>
      <trkpt lat="44.29241" lon="7.1551">
        <ele>1059.4</ele>
        <time>2022-07-19T04:11:04Z</time>
      </trkpt>
      <trkpt lat="44.29239" lon="7.15509">
        <ele>1059.8</ele>
        <time>2022-07-19T04:11:06Z</time>
      </trkpt>
      <trkpt lat="44.29237" lon="7.15508">
        <ele>1059.8</ele>
        <time>2022-07-19T04:11:07Z</time>
      </trkpt>
      <trkpt lat="44.29235" lon="7.15507">
        <ele>1060</ele>
        <time>2022-07-19T04:11:08Z</time>
      </trkpt>
      <trkpt lat="44.29233" lon="7.15506">
        <ele>1060.2</ele>
        <time>2022-07-19T04:11:09Z</time>
      </trkpt>
      <trkpt lat="44.29231" lon="7.15506">
        <ele>1060.2</ele>
        <time>2022-07-19T04:11:10Z</time>
      </trkpt>
      <trkpt lat="44.29229" lon="7.15504">
        <ele>1060.6</ele>
        <time>2022-07-19T04:11:11Z</time>
      </trkpt>
      <trkpt lat="44.29228" lon="7.15503">
        <ele>1061</ele>
        <time>2022-07-19T04:11:12Z</time>
      </trkpt>
      <trkpt lat="44.29226" lon="7.15502">
        <ele>1061.2</ele>
        <time>2022-07-19T04:11:13Z</time>
      </trkpt>
      <trkpt lat="44.29224" lon="7.15501">
        <ele>1061.4</ele>
        <time>2022-07-19T04:11:14Z</time>
      </trkpt>
      <trkpt lat="44.29222" lon="7.155">
        <ele>1061.4</ele>
        <time>2022-07-19T04:11:15Z</time>
      </trkpt>
      <trkpt lat="44.29221" lon="7.15499">
        <ele>1061.8</ele>
        <time>2022-07-19T04:11:16Z</time>
      </trkpt>
      <trkpt lat="44.2922" lon="7.15498">
        <ele>1061.8</ele>
        <time>2022-07-19T04:11:17Z</time>
      </trkpt>
      <trkpt lat="44.29219" lon="7.15497">
        <ele>1062.2</ele>
        <time>2022-07-19T04:11:18Z</time>
      </trkpt>
      <trkpt lat="44.29218" lon="7.15495">
        <ele>1062.4</ele>
        <time>2022-07-19T04:11:19Z</time>
      </trkpt>
      <trkpt lat="44.29217" lon="7.15494">
        <ele>1062.4</ele>
        <time>2022-07-19T04:11:20Z</time>
      </trkpt>
      <trkpt lat="44.29215" lon="7.15492">
        <ele>1062.8</ele>
        <time>2022-07-19T04:11:21Z</time>
      </trkpt>
      <trkpt lat="44.29214" lon="7.15491">
        <ele>1062.8</ele>
        <time>2022-07-19T04:11:22Z</time>
      </trkpt>
      <trkpt lat="44.29212" lon="7.15489">
        <ele>1063.2</ele>
        <time>2022-07-19T04:11:23Z</time>
      </trkpt>
      <trkpt lat="44.29211" lon="7.15487">
        <ele>1063.4</ele>
        <time>2022-07-19T04:11:24Z</time>
      </trkpt>
      <trkpt lat="44.29209" lon="7.15485">
        <ele>1063.6</ele>
        <time>2022-07-19T04:11:25Z</time>
      </trkpt>
      <trkpt lat="44.29207" lon="7.15484">
        <ele>1063.6</ele>
        <time>2022-07-19T04:11:26Z</time>
      </trkpt>
      <trkpt lat="44.29205" lon="7.15482">
        <ele>1064</ele>
        <time>2022-07-19T04:11:27Z</time>
      </trkpt>
      <trkpt lat="44.29202" lon="7.15481">
        <ele>1064</ele>
        <time>2022-07-19T04:11:28Z</time>
      </trkpt>
      <trkpt lat="44.292" lon="7.15479">
        <ele>1064.4</ele>
        <time>2022-07-19T04:11:29Z</time>
      </trkpt>
      <trkpt lat="44.29198" lon="7.15477">
        <ele>1064.6</ele>
        <time>2022-07-19T04:11:30Z</time>
      </trkpt>
      <trkpt lat="44.29196" lon="7.15476">
        <ele>1064.8</ele>
        <time>2022-07-19T04:11:31Z</time>
      </trkpt>
      <trkpt lat="44.29194" lon="7.15475">
        <ele>1065</ele>
        <time>2022-07-19T04:11:32Z</time>
      </trkpt>
      <trkpt lat="44.29192" lon="7.15473">
        <ele>1065.2</ele>
        <time>2022-07-19T04:11:33Z</time>
      </trkpt>
      <trkpt lat="44.2919" lon="7.15473">
        <ele>1065.2</ele>
        <time>2022-07-19T04:11:34Z</time>
      </trkpt>
      <trkpt lat="44.29188" lon="7.15472">
        <ele>1065.6</ele>
        <time>2022-07-19T04:11:35Z</time>
      </trkpt>
      <trkpt lat="44.29186" lon="7.1547">
        <ele>1065.8</ele>
        <time>2022-07-19T04:11:36Z</time>
      </trkpt>
      <trkpt lat="44.29184" lon="7.15469">
        <ele>1066</ele>
        <time>2022-07-19T04:11:37Z</time>
      </trkpt>
      <trkpt lat="44.29182" lon="7.15468">
        <ele>1066</ele>
        <time>2022-07-19T04:11:38Z</time>
      </trkpt>
      <trkpt lat="44.2918" lon="7.15467">
        <ele>1066.4</ele>
        <time>2022-07-19T04:11:39Z</time>
      </trkpt>
      <trkpt lat="44.29178" lon="7.15466">
        <ele>1066.4</ele>
        <time>2022-07-19T04:11:40Z</time>
      </trkpt>
      <trkpt lat="44.29176" lon="7.15465">
        <ele>1066.8</ele>
        <time>2022-07-19T04:11:41Z</time>
      </trkpt>
      <trkpt lat="44.29175" lon="7.15463">
        <ele>1066.8</ele>
        <time>2022-07-19T04:11:42Z</time>
      </trkpt>
      <trkpt lat="44.29173" lon="7.15462">
        <ele>1067</ele>
        <time>2022-07-19T04:11:43Z</time>
      </trkpt>
      <trkpt lat="44.29171" lon="7.15461">
        <ele>1067</ele>
        <time>2022-07-19T04:11:44Z</time>
      </trkpt>
      <trkpt lat="44.2917" lon="7.1546">
        <ele>1067.4</ele>
        <time>2022-07-19T04:11:45Z</time>
      </trkpt>
      <trkpt lat="44.29168" lon="7.15459">
        <ele>1067.4</ele>
        <time>2022-07-19T04:11:46Z</time>
      </trkpt>
      <trkpt lat="44.29167" lon="7.15458">
        <ele>1067.6</ele>
        <time>2022-07-19T04:11:47Z</time>
      </trkpt>
      <trkpt lat="44.29165" lon="7.15457">
        <ele>1067.6</ele>
        <time>2022-07-19T04:11:48Z</time>
      </trkpt>
      <trkpt lat="44.29163" lon="7.15456">
        <ele>1068</ele>
        <time>2022-07-19T04:11:49Z</time>
      </trkpt>
      <trkpt lat="44.29162" lon="7.15455">
        <ele>1068</ele>
        <time>2022-07-19T04:11:50Z</time>
      </trkpt>
      <trkpt lat="44.2916" lon="7.15454">
        <ele>1068.2</ele>
        <time>2022-07-19T04:11:51Z</time>
      </trkpt>
      <trkpt lat="44.29159" lon="7.15453">
        <ele>1068.2</ele>
        <time>2022-07-19T04:11:52Z</time>
      </trkpt>
      <trkpt lat="44.29157" lon="7.15452">
        <ele>1068.6</ele>
        <time>2022-07-19T04:11:53Z</time>
      </trkpt>
      <trkpt lat="44.29155" lon="7.15451">
        <ele>1068.6</ele>
        <time>2022-07-19T04:11:54Z</time>
      </trkpt>
      <trkpt lat="44.29154" lon="7.15451">
        <ele>1068.8</ele>
        <time>2022-07-19T04:11:55Z</time>
      </trkpt>
      <trkpt lat="44.29152" lon="7.1545">
        <ele>1068.8</ele>
        <time>2022-07-19T04:11:56Z</time>
      </trkpt>
      <trkpt lat="44.29151" lon="7.15449">
        <ele>1069.2</ele>
        <time>2022-07-19T04:11:57Z</time>
      </trkpt>
      <trkpt lat="44.29149" lon="7.15448">
        <ele>1069.2</ele>
        <time>2022-07-19T04:11:58Z</time>
      </trkpt>
      <trkpt lat="44.29148" lon="7.15446">
        <ele>1069.4</ele>
        <time>2022-07-19T04:11:59Z</time>
      </trkpt>
      <trkpt lat="44.29146" lon="7.15445">
        <ele>1069.4</ele>
        <time>2022-07-19T04:12:00Z</time>
      </trkpt>
      <trkpt lat="44.29145" lon="7.15444">
        <ele>1069.8</ele>
        <time>2022-07-19T04:12:01Z</time>
      </trkpt>
      <trkpt lat="44.29144" lon="7.15443">
        <ele>1069.8</ele>
        <time>2022-07-19T04:12:02Z</time>
      </trkpt>
      <trkpt lat="44.29142" lon="7.15442">
        <ele>1070.2</ele>
        <time>2022-07-19T04:12:03Z</time>
      </trkpt>
      <trkpt lat="44.29141" lon="7.15441">
        <ele>1070.2</ele>
        <time>2022-07-19T04:12:04Z</time>
      </trkpt>
      <trkpt lat="44.2914" lon="7.1544">
        <ele>1070.4</ele>
        <time>2022-07-19T04:12:05Z</time>
      </trkpt>
      <trkpt lat="44.29138" lon="7.15439">
        <ele>1070.4</ele>
        <time>2022-07-19T04:12:06Z</time>
      </trkpt>
      <trkpt lat="44.29137" lon="7.15438">
        <ele>1070.6</ele>
        <time>2022-07-19T04:12:07Z</time>
      </trkpt>
      <trkpt lat="44.29135" lon="7.15437">
        <ele>1070.6</ele>
        <time>2022-07-19T04:12:08Z</time>
      </trkpt>
      <trkpt lat="44.29133" lon="7.15436">
        <ele>1071</ele>
        <time>2022-07-19T04:12:09Z</time>
      </trkpt>
      <trkpt lat="44.29132" lon="7.15435">
        <ele>1071</ele>
        <time>2022-07-19T04:12:10Z</time>
      </trkpt>
      <trkpt lat="44.2913" lon="7.15434">
        <ele>1071.4</ele>
        <time>2022-07-19T04:12:11Z</time>
      </trkpt>
      <trkpt lat="44.29129" lon="7.15433">
        <ele>1071.6</ele>
        <time>2022-07-19T04:12:12Z</time>
      </trkpt>
      <trkpt lat="44.29127" lon="7.15432">
        <ele>1071.6</ele>
        <time>2022-07-19T04:12:13Z</time>
      </trkpt>
      <trkpt lat="44.29125" lon="7.1543">
        <ele>1071.8</ele>
        <time>2022-07-19T04:12:14Z</time>
      </trkpt>
      <trkpt lat="44.29123" lon="7.1543">
        <ele>1071.8</ele>
        <time>2022-07-19T04:12:15Z</time>
      </trkpt>
      <trkpt lat="44.29121" lon="7.15429">
        <ele>1072</ele>
        <time>2022-07-19T04:12:16Z</time>
      </trkpt>
      <trkpt lat="44.2912" lon="7.15428">
        <ele>1072</ele>
        <time>2022-07-19T04:12:17Z</time>
      </trkpt>
      <trkpt lat="44.29118" lon="7.15427">
        <ele>1072.4</ele>
        <time>2022-07-19T04:12:18Z</time>
      </trkpt>
      <trkpt lat="44.29116" lon="7.15426">
        <ele>1072.4</ele>
        <time>2022-07-19T04:12:19Z</time>
      </trkpt>
      <trkpt lat="44.29114" lon="7.15426">
        <ele>1072.6</ele>
        <time>2022-07-19T04:12:20Z</time>
      </trkpt>
      <trkpt lat="44.29112" lon="7.15425">
        <ele>1072.6</ele>
        <time>2022-07-19T04:12:21Z</time>
      </trkpt>
      <trkpt lat="44.2911" lon="7.15424">
        <ele>1072.8</ele>
        <time>2022-07-19T04:12:22Z</time>
      </trkpt>
      <trkpt lat="44.29108" lon="7.15422">
        <ele>1072.8</ele>
        <time>2022-07-19T04:12:23Z</time>
      </trkpt>
      <trkpt lat="44.29106" lon="7.15421">
        <ele>1073.2</ele>
        <time>2022-07-19T04:12:24Z</time>
      </trkpt>
      <trkpt lat="44.29105" lon="7.15419">
        <ele>1073.2</ele>
        <time>2022-07-19T04:12:25Z</time>
      </trkpt>
      <trkpt lat="44.29103" lon="7.15418">
        <ele>1073.4</ele>
        <time>2022-07-19T04:12:26Z</time>
      </trkpt>
      <trkpt lat="44.29101" lon="7.15416">
        <ele>1073.4</ele>
        <time>2022-07-19T04:12:27Z</time>
      </trkpt>
      <trkpt lat="44.291" lon="7.15414">
        <ele>1073.4</ele>
        <time>2022-07-19T04:12:28Z</time>
      </trkpt>
      <trkpt lat="44.29098" lon="7.15413">
        <ele>1073.6</ele>
        <time>2022-07-19T04:12:29Z</time>
      </trkpt>
      <trkpt lat="44.29097" lon="7.1541">
        <ele>1073.6</ele>
        <time>2022-07-19T04:12:30Z</time>
      </trkpt>
      <trkpt lat="44.29096" lon="7.15408">
        <ele>1074</ele>
        <time>2022-07-19T04:12:31Z</time>
      </trkpt>
      <trkpt lat="44.29094" lon="7.15407">
        <ele>1074</ele>
        <time>2022-07-19T04:12:32Z</time>
      </trkpt>
      <trkpt lat="44.29093" lon="7.15405">
        <ele>1074.2</ele>
        <time>2022-07-19T04:12:33Z</time>
      </trkpt>
      <trkpt lat="44.29091" lon="7.15403">
        <ele>1074.2</ele>
        <time>2022-07-19T04:12:34Z</time>
      </trkpt>
      <trkpt lat="44.2909" lon="7.15401">
        <ele>1074.4</ele>
        <time>2022-07-19T04:12:35Z</time>
      </trkpt>
      <trkpt lat="44.29089" lon="7.15398">
        <ele>1074.4</ele>
        <time>2022-07-19T04:12:36Z</time>
      </trkpt>
      <trkpt lat="44.29088" lon="7.15396">
        <ele>1074.4</ele>
        <time>2022-07-19T04:12:37Z</time>
      </trkpt>
      <trkpt lat="44.29087" lon="7.15394">
        <ele>1074.6</ele>
        <time>2022-07-19T04:12:38Z</time>
      </trkpt>
      <trkpt lat="44.29085" lon="7.15392">
        <ele>1074.6</ele>
        <time>2022-07-19T04:12:39Z</time>
      </trkpt>
      <trkpt lat="44.29083" lon="7.1539">
        <ele>1075</ele>
        <time>2022-07-19T04:12:40Z</time>
      </trkpt>
      <trkpt lat="44.29082" lon="7.15389">
        <ele>1075.2</ele>
        <time>2022-07-19T04:12:41Z</time>
      </trkpt>
      <trkpt lat="44.29081" lon="7.15387">
        <ele>1075.2</ele>
        <time>2022-07-19T04:12:42Z</time>
      </trkpt>
      <trkpt lat="44.29079" lon="7.15385">
        <ele>1075.4</ele>
        <time>2022-07-19T04:12:43Z</time>
      </trkpt>
      <trkpt lat="44.29078" lon="7.15384">
        <ele>1075.4</ele>
        <time>2022-07-19T04:12:44Z</time>
      </trkpt>
      <trkpt lat="44.29077" lon="7.15382">
        <ele>1075.6</ele>
        <time>2022-07-19T04:12:45Z</time>
      </trkpt>
      <trkpt lat="44.29075" lon="7.15381">
        <ele>1075.6</ele>
        <time>2022-07-19T04:12:46Z</time>
      </trkpt>
      <trkpt lat="44.29073" lon="7.15379">
        <ele>1075.8</ele>
        <time>2022-07-19T04:12:47Z</time>
      </trkpt>
      <trkpt lat="44.29072" lon="7.15378">
        <ele>1075.8</ele>
        <time>2022-07-19T04:12:48Z</time>
      </trkpt>
      <trkpt lat="44.2907" lon="7.15376">
        <ele>1076.2</ele>
        <time>2022-07-19T04:12:49Z</time>
      </trkpt>
      <trkpt lat="44.29069" lon="7.15374">
        <ele>1076.4</ele>
        <time>2022-07-19T04:12:50Z</time>
      </trkpt>
      <trkpt lat="44.29067" lon="7.15373">
        <ele>1076.4</ele>
        <time>2022-07-19T04:12:51Z</time>
      </trkpt>
      <trkpt lat="44.29066" lon="7.15371">
        <ele>1076.4</ele>
        <time>2022-07-19T04:12:52Z</time>
      </trkpt>
      <trkpt lat="44.29065" lon="7.15369">
        <ele>1076.6</ele>
        <time>2022-07-19T04:12:53Z</time>
      </trkpt>
      <trkpt lat="44.29064" lon="7.15367">
        <ele>1076.6</ele>
        <time>2022-07-19T04:12:54Z</time>
      </trkpt>
      <trkpt lat="44.29063" lon="7.15365">
        <ele>1076.8</ele>
        <time>2022-07-19T04:12:55Z</time>
      </trkpt>
      <trkpt lat="44.29061" lon="7.15364">
        <ele>1076.8</ele>
        <time>2022-07-19T04:12:56Z</time>
      </trkpt>
      <trkpt lat="44.29059" lon="7.15363">
        <ele>1077.2</ele>
        <time>2022-07-19T04:12:57Z</time>
      </trkpt>
      <trkpt lat="44.29058" lon="7.15361">
        <ele>1077.2</ele>
        <time>2022-07-19T04:12:58Z</time>
      </trkpt>
      <trkpt lat="44.29057" lon="7.15359">
        <ele>1077.6</ele>
        <time>2022-07-19T04:12:59Z</time>
      </trkpt>
      <trkpt lat="44.29055" lon="7.15358">
        <ele>1077.8</ele>
        <time>2022-07-19T04:13:00Z</time>
      </trkpt>
      <trkpt lat="44.29054" lon="7.15357">
        <ele>1077.8</ele>
        <time>2022-07-19T04:13:01Z</time>
      </trkpt>
      <trkpt lat="44.29052" lon="7.15355">
        <ele>1078</ele>
        <time>2022-07-19T04:13:02Z</time>
      </trkpt>
      <trkpt lat="44.2905" lon="7.15354">
        <ele>1078</ele>
        <time>2022-07-19T04:13:03Z</time>
      </trkpt>
      <trkpt lat="44.29048" lon="7.15353">
        <ele>1078.4</ele>
        <time>2022-07-19T04:13:04Z</time>
      </trkpt>
      <trkpt lat="44.29047" lon="7.15351">
        <ele>1078.4</ele>
        <time>2022-07-19T04:13:05Z</time>
      </trkpt>
      <trkpt lat="44.29045" lon="7.1535">
        <ele>1078.6</ele>
        <time>2022-07-19T04:13:06Z</time>
      </trkpt>
      <trkpt lat="44.29042" lon="7.15349">
        <ele>1078.6</ele>
        <time>2022-07-19T04:13:07Z</time>
      </trkpt>
      <trkpt lat="44.29038" lon="7.15346">
        <ele>1079</ele>
        <time>2022-07-19T04:13:08Z</time>
      </trkpt>
      <trkpt lat="44.29036" lon="7.15345">
        <ele>1079</ele>
        <time>2022-07-19T04:13:09Z</time>
      </trkpt>
      <trkpt lat="44.29034" lon="7.15344">
        <ele>1079.2</ele>
        <time>2022-07-19T04:13:10Z</time>
      </trkpt>
      <trkpt lat="44.29032" lon="7.15343">
        <ele>1079.2</ele>
        <time>2022-07-19T04:13:11Z</time>
      </trkpt>
      <trkpt lat="44.2903" lon="7.15342">
        <ele>1079.4</ele>
        <time>2022-07-19T04:13:12Z</time>
      </trkpt>
      <trkpt lat="44.29028" lon="7.15341">
        <ele>1079.4</ele>
        <time>2022-07-19T04:13:13Z</time>
      </trkpt>
      <trkpt lat="44.29026" lon="7.1534">
        <ele>1079.6</ele>
        <time>2022-07-19T04:13:14Z</time>
      </trkpt>
      <trkpt lat="44.29025" lon="7.15339">
        <ele>1079.6</ele>
        <time>2022-07-19T04:13:15Z</time>
      </trkpt>
      <trkpt lat="44.29023" lon="7.15337">
        <ele>1080</ele>
        <time>2022-07-19T04:13:16Z</time>
      </trkpt>
      <trkpt lat="44.29021" lon="7.15337">
        <ele>1080.4</ele>
        <time>2022-07-19T04:13:17Z</time>
      </trkpt>
      <trkpt lat="44.29019" lon="7.15336">
        <ele>1080.4</ele>
        <time>2022-07-19T04:13:18Z</time>
      </trkpt>
      <trkpt lat="44.29017" lon="7.15335">
        <ele>1080.6</ele>
        <time>2022-07-19T04:13:19Z</time>
      </trkpt>
      <trkpt lat="44.29015" lon="7.15334">
        <ele>1080.6</ele>
        <time>2022-07-19T04:13:20Z</time>
      </trkpt>
      <trkpt lat="44.29013" lon="7.15334">
        <ele>1081</ele>
        <time>2022-07-19T04:13:21Z</time>
      </trkpt>
      <trkpt lat="44.29011" lon="7.15334">
        <ele>1081</ele>
        <time>2022-07-19T04:13:22Z</time>
      </trkpt>
      <trkpt lat="44.29009" lon="7.15334">
        <ele>1081.2</ele>
        <time>2022-07-19T04:13:23Z</time>
      </trkpt>
      <trkpt lat="44.29008" lon="7.15335">
        <ele>1081.2</ele>
        <time>2022-07-19T04:13:24Z</time>
      </trkpt>
      <trkpt lat="44.29006" lon="7.15335">
        <ele>1081.4</ele>
        <time>2022-07-19T04:13:25Z</time>
      </trkpt>
      <trkpt lat="44.29004" lon="7.15336">
        <ele>1081.4</ele>
        <time>2022-07-19T04:13:26Z</time>
      </trkpt>
      <trkpt lat="44.29002" lon="7.15336">
        <ele>1081.8</ele>
        <time>2022-07-19T04:13:27Z</time>
      </trkpt>
      <trkpt lat="44.29" lon="7.15337">
        <ele>1081.8</ele>
        <time>2022-07-19T04:13:28Z</time>
      </trkpt>
      <trkpt lat="44.28998" lon="7.15337">
        <ele>1082.2</ele>
        <time>2022-07-19T04:13:29Z</time>
      </trkpt>
      <trkpt lat="44.28996" lon="7.15337">
        <ele>1082.2</ele>
        <time>2022-07-19T04:13:30Z</time>
      </trkpt>
      <trkpt lat="44.28994" lon="7.15337">
        <ele>1082.4</ele>
        <time>2022-07-19T04:13:31Z</time>
      </trkpt>
      <trkpt lat="44.28992" lon="7.15337">
        <ele>1082.4</ele>
        <time>2022-07-19T04:13:32Z</time>
      </trkpt>
      <trkpt lat="44.2899" lon="7.15336">
        <ele>1082.6</ele>
        <time>2022-07-19T04:13:33Z</time>
      </trkpt>
      <trkpt lat="44.28989" lon="7.15335">
        <ele>1082.6</ele>
        <time>2022-07-19T04:13:34Z</time>
      </trkpt>
      <trkpt lat="44.28988" lon="7.15334">
        <ele>1083</ele>
        <time>2022-07-19T04:13:35Z</time>
      </trkpt>
      <trkpt lat="44.28987" lon="7.15332">
        <ele>1083</ele>
        <time>2022-07-19T04:13:36Z</time>
      </trkpt>
      <trkpt lat="44.28986" lon="7.15331">
        <ele>1083.4</ele>
        <time>2022-07-19T04:13:37Z</time>
      </trkpt>
      <trkpt lat="44.28984" lon="7.15329">
        <ele>1083.4</ele>
        <time>2022-07-19T04:13:38Z</time>
      </trkpt>
      <trkpt lat="44.28983" lon="7.15328">
        <ele>1083.6</ele>
        <time>2022-07-19T04:13:39Z</time>
      </trkpt>
      <trkpt lat="44.28982" lon="7.15326">
        <ele>1083.6</ele>
        <time>2022-07-19T04:13:40Z</time>
      </trkpt>
      <trkpt lat="44.2898" lon="7.15325">
        <ele>1084</ele>
        <time>2022-07-19T04:13:41Z</time>
      </trkpt>
      <trkpt lat="44.28979" lon="7.15323">
        <ele>1084</ele>
        <time>2022-07-19T04:13:42Z</time>
      </trkpt>
      <trkpt lat="44.28978" lon="7.15321">
        <ele>1084.2</ele>
        <time>2022-07-19T04:13:43Z</time>
      </trkpt>
      <trkpt lat="44.28977" lon="7.15318">
        <ele>1084.2</ele>
        <time>2022-07-19T04:13:44Z</time>
      </trkpt>
      <trkpt lat="44.28976" lon="7.15316">
        <ele>1084.2</ele>
        <time>2022-07-19T04:13:45Z</time>
      </trkpt>
      <trkpt lat="44.28975" lon="7.15314">
        <ele>1084.6</ele>
        <time>2022-07-19T04:13:46Z</time>
      </trkpt>
      <trkpt lat="44.28973" lon="7.15312">
        <ele>1084.6</ele>
        <time>2022-07-19T04:13:47Z</time>
      </trkpt>
      <trkpt lat="44.28971" lon="7.15309">
        <ele>1084.8</ele>
        <time>2022-07-19T04:13:48Z</time>
      </trkpt>
      <trkpt lat="44.28969" lon="7.15307">
        <ele>1084.8</ele>
        <time>2022-07-19T04:13:49Z</time>
      </trkpt>
      <trkpt lat="44.28967" lon="7.15304">
        <ele>1085.2</ele>
        <time>2022-07-19T04:13:50Z</time>
      </trkpt>
      <trkpt lat="44.28965" lon="7.15301">
        <ele>1085.2</ele>
        <time>2022-07-19T04:13:51Z</time>
      </trkpt>
      <trkpt lat="44.28964" lon="7.15298">
        <ele>1085.4</ele>
        <time>2022-07-19T04:13:52Z</time>
      </trkpt>
      <trkpt lat="44.28962" lon="7.15296">
        <ele>1085.4</ele>
        <time>2022-07-19T04:13:53Z</time>
      </trkpt>
      <trkpt lat="44.28961" lon="7.15293">
        <ele>1085.8</ele>
        <time>2022-07-19T04:13:54Z</time>
      </trkpt>
      <trkpt lat="44.2896" lon="7.15291">
        <ele>1085.8</ele>
        <time>2022-07-19T04:13:55Z</time>
      </trkpt>
      <trkpt lat="44.28959" lon="7.15288">
        <ele>1086</ele>
        <time>2022-07-19T04:13:56Z</time>
      </trkpt>
      <trkpt lat="44.28958" lon="7.15285">
        <ele>1086</ele>
        <time>2022-07-19T04:13:57Z</time>
      </trkpt>
      <trkpt lat="44.28957" lon="7.15282">
        <ele>1086.2</ele>
        <time>2022-07-19T04:13:58Z</time>
      </trkpt>
      <trkpt lat="44.28956" lon="7.15279">
        <ele>1086.2</ele>
        <time>2022-07-19T04:13:59Z</time>
      </trkpt>
      <trkpt lat="44.28956" lon="7.15277">
        <ele>1086.4</ele>
        <time>2022-07-19T04:14:00Z</time>
      </trkpt>
      <trkpt lat="44.28955" lon="7.15275">
        <ele>1086.4</ele>
        <time>2022-07-19T04:14:01Z</time>
      </trkpt>
      <trkpt lat="44.28955" lon="7.15272">
        <ele>1086.8</ele>
        <time>2022-07-19T04:14:02Z</time>
      </trkpt>
      <trkpt lat="44.28954" lon="7.1527">
        <ele>1087</ele>
        <time>2022-07-19T04:14:03Z</time>
      </trkpt>
      <trkpt lat="44.28954" lon="7.15267">
        <ele>1087</ele>
        <time>2022-07-19T04:14:04Z</time>
      </trkpt>
      <trkpt lat="44.28953" lon="7.15264">
        <ele>1087.4</ele>
        <time>2022-07-19T04:14:05Z</time>
      </trkpt>
      <trkpt lat="44.28953" lon="7.15261">
        <ele>1087.4</ele>
        <time>2022-07-19T04:14:06Z</time>
      </trkpt>
      <trkpt lat="44.28952" lon="7.15258">
        <ele>1087.6</ele>
        <time>2022-07-19T04:14:07Z</time>
      </trkpt>
      <trkpt lat="44.28951" lon="7.15255">
        <ele>1087.6</ele>
        <time>2022-07-19T04:14:08Z</time>
      </trkpt>
      <trkpt lat="44.28949" lon="7.15253">
        <ele>1088</ele>
        <time>2022-07-19T04:14:09Z</time>
      </trkpt>
      <trkpt lat="44.28948" lon="7.1525">
        <ele>1088</ele>
        <time>2022-07-19T04:14:10Z</time>
      </trkpt>
      <trkpt lat="44.28946" lon="7.15248">
        <ele>1088</ele>
        <time>2022-07-19T04:14:11Z</time>
      </trkpt>
      <trkpt lat="44.28944" lon="7.15246">
        <ele>1088.2</ele>
        <time>2022-07-19T04:14:12Z</time>
      </trkpt>
      <trkpt lat="44.28943" lon="7.15244">
        <ele>1088.2</ele>
        <time>2022-07-19T04:14:13Z</time>
      </trkpt>
      <trkpt lat="44.28941" lon="7.15241">
        <ele>1088.6</ele>
        <time>2022-07-19T04:14:14Z</time>
      </trkpt>
      <trkpt lat="44.2894" lon="7.1524">
        <ele>1088.6</ele>
        <time>2022-07-19T04:14:15Z</time>
      </trkpt>
      <trkpt lat="44.28938" lon="7.15239">
        <ele>1088.8</ele>
        <time>2022-07-19T04:14:16Z</time>
      </trkpt>
      <trkpt lat="44.28936" lon="7.15237">
        <ele>1088.8</ele>
        <time>2022-07-19T04:14:17Z</time>
      </trkpt>
      <trkpt lat="44.28935" lon="7.15236">
        <ele>1089</ele>
        <time>2022-07-19T04:14:18Z</time>
      </trkpt>
      <trkpt lat="44.28933" lon="7.15234">
        <ele>1089</ele>
        <time>2022-07-19T04:14:19Z</time>
      </trkpt>
      <trkpt lat="44.28932" lon="7.15233">
        <ele>1089.2</ele>
        <time>2022-07-19T04:14:20Z</time>
      </trkpt>
      <trkpt lat="44.2893" lon="7.15232">
        <ele>1089.2</ele>
        <time>2022-07-19T04:14:21Z</time>
      </trkpt>
      <trkpt lat="44.28929" lon="7.15231">
        <ele>1089.6</ele>
        <time>2022-07-19T04:14:22Z</time>
      </trkpt>
      <trkpt lat="44.28927" lon="7.1523">
        <ele>1089.6</ele>
        <time>2022-07-19T04:14:23Z</time>
      </trkpt>
      <trkpt lat="44.28925" lon="7.15229">
        <ele>1089.8</ele>
        <time>2022-07-19T04:14:24Z</time>
      </trkpt>
      <trkpt lat="44.28923" lon="7.15227">
        <ele>1089.8</ele>
        <time>2022-07-19T04:14:25Z</time>
      </trkpt>
      <trkpt lat="44.28921" lon="7.15226">
        <ele>1090.2</ele>
        <time>2022-07-19T04:14:26Z</time>
      </trkpt>
      <trkpt lat="44.28919" lon="7.15224">
        <ele>1090.2</ele>
        <time>2022-07-19T04:14:27Z</time>
      </trkpt>
      <trkpt lat="44.28918" lon="7.15223">
        <ele>1090.4</ele>
        <time>2022-07-19T04:14:28Z</time>
      </trkpt>
      <trkpt lat="44.28916" lon="7.15221">
        <ele>1090.4</ele>
        <time>2022-07-19T04:14:29Z</time>
      </trkpt>
      <trkpt lat="44.28915" lon="7.15219">
        <ele>1090.6</ele>
        <time>2022-07-19T04:14:30Z</time>
      </trkpt>
      <trkpt lat="44.28913" lon="7.15217">
        <ele>1090.6</ele>
        <time>2022-07-19T04:14:31Z</time>
      </trkpt>
      <trkpt lat="44.28912" lon="7.15216">
        <ele>1091</ele>
        <time>2022-07-19T04:14:32Z</time>
      </trkpt>
      <trkpt lat="44.28911" lon="7.15215">
        <ele>1091</ele>
        <time>2022-07-19T04:14:33Z</time>
      </trkpt>
      <trkpt lat="44.28909" lon="7.15213">
        <ele>1091.2</ele>
        <time>2022-07-19T04:14:34Z</time>
      </trkpt>
      <trkpt lat="44.28908" lon="7.15211">
        <ele>1091.2</ele>
        <time>2022-07-19T04:14:35Z</time>
      </trkpt>
      <trkpt lat="44.28907" lon="7.1521">
        <ele>1091.6</ele>
        <time>2022-07-19T04:14:36Z</time>
      </trkpt>
      <trkpt lat="44.28905" lon="7.15208">
        <ele>1091.6</ele>
        <time>2022-07-19T04:14:37Z</time>
      </trkpt>
      <trkpt lat="44.28904" lon="7.15205">
        <ele>1091.8</ele>
        <time>2022-07-19T04:14:38Z</time>
      </trkpt>
      <trkpt lat="44.28903" lon="7.15203">
        <ele>1091.8</ele>
        <time>2022-07-19T04:14:39Z</time>
      </trkpt>
      <trkpt lat="44.28901" lon="7.15202">
        <ele>1092</ele>
        <time>2022-07-19T04:14:40Z</time>
      </trkpt>
      <trkpt lat="44.289" lon="7.152">
        <ele>1092</ele>
        <time>2022-07-19T04:14:41Z</time>
      </trkpt>
      <trkpt lat="44.28899" lon="7.15198">
        <ele>1092.4</ele>
        <time>2022-07-19T04:14:42Z</time>
      </trkpt>
      <trkpt lat="44.28898" lon="7.15196">
        <ele>1092.4</ele>
        <time>2022-07-19T04:14:43Z</time>
      </trkpt>
      <trkpt lat="44.28897" lon="7.15194">
        <ele>1092.6</ele>
        <time>2022-07-19T04:14:44Z</time>
      </trkpt>
      <trkpt lat="44.28896" lon="7.15192">
        <ele>1092.6</ele>
        <time>2022-07-19T04:14:45Z</time>
      </trkpt>
      <trkpt lat="44.28895" lon="7.1519">
        <ele>1093</ele>
        <time>2022-07-19T04:14:46Z</time>
      </trkpt>
      <trkpt lat="44.28894" lon="7.15188">
        <ele>1093</ele>
        <time>2022-07-19T04:14:47Z</time>
      </trkpt>
      <trkpt lat="44.28893" lon="7.15186">
        <ele>1093.2</ele>
        <time>2022-07-19T04:14:48Z</time>
      </trkpt>
      <trkpt lat="44.28892" lon="7.15184">
        <ele>1093.2</ele>
        <time>2022-07-19T04:14:49Z</time>
      </trkpt>
      <trkpt lat="44.28891" lon="7.15182">
        <ele>1093.6</ele>
        <time>2022-07-19T04:14:50Z</time>
      </trkpt>
      <trkpt lat="44.2889" lon="7.1518">
        <ele>1093.6</ele>
        <time>2022-07-19T04:14:51Z</time>
      </trkpt>
      <trkpt lat="44.28889" lon="7.15178">
        <ele>1094</ele>
        <time>2022-07-19T04:14:52Z</time>
      </trkpt>
      <trkpt lat="44.28888" lon="7.15176">
        <ele>1094.2</ele>
        <time>2022-07-19T04:14:53Z</time>
      </trkpt>
      <trkpt lat="44.28887" lon="7.15175">
        <ele>1094.2</ele>
        <time>2022-07-19T04:14:54Z</time>
      </trkpt>
      <trkpt lat="44.28886" lon="7.15173">
        <ele>1094.6</ele>
        <time>2022-07-19T04:14:55Z</time>
      </trkpt>
      <trkpt lat="44.28885" lon="7.15171">
        <ele>1094.6</ele>
        <time>2022-07-19T04:14:56Z</time>
      </trkpt>
      <trkpt lat="44.28884" lon="7.15169">
        <ele>1094.8</ele>
        <time>2022-07-19T04:14:57Z</time>
      </trkpt>
      <trkpt lat="44.28884" lon="7.15167">
        <ele>1094.8</ele>
        <time>2022-07-19T04:14:58Z</time>
      </trkpt>
      <trkpt lat="44.28883" lon="7.15165">
        <ele>1095.2</ele>
        <time>2022-07-19T04:14:59Z</time>
      </trkpt>
      <trkpt lat="44.28882" lon="7.15163">
        <ele>1095.4</ele>
        <time>2022-07-19T04:15:00Z</time>
      </trkpt>
      <trkpt lat="44.28881" lon="7.15161">
        <ele>1095.4</ele>
        <time>2022-07-19T04:15:01Z</time>
      </trkpt>
      <trkpt lat="44.2888" lon="7.15159">
        <ele>1095.8</ele>
        <time>2022-07-19T04:15:02Z</time>
      </trkpt>
      <trkpt lat="44.2888" lon="7.15158">
        <ele>1095.8</ele>
        <time>2022-07-19T04:15:03Z</time>
      </trkpt>
      <trkpt lat="44.28879" lon="7.15156">
        <ele>1096.2</ele>
        <time>2022-07-19T04:15:04Z</time>
      </trkpt>
      <trkpt lat="44.28878" lon="7.15154">
        <ele>1096.4</ele>
        <time>2022-07-19T04:15:05Z</time>
      </trkpt>
      <trkpt lat="44.28878" lon="7.15153">
        <ele>1096.4</ele>
        <time>2022-07-19T04:15:06Z</time>
      </trkpt>
      <trkpt lat="44.28877" lon="7.15151">
        <ele>1096.6</ele>
        <time>2022-07-19T04:15:07Z</time>
      </trkpt>
      <trkpt lat="44.28876" lon="7.15149">
        <ele>1096.6</ele>
        <time>2022-07-19T04:15:08Z</time>
      </trkpt>
      <trkpt lat="44.28875" lon="7.15147">
        <ele>1097</ele>
        <time>2022-07-19T04:15:09Z</time>
      </trkpt>
      <trkpt lat="44.28875" lon="7.15145">
        <ele>1097</ele>
        <time>2022-07-19T04:15:10Z</time>
      </trkpt>
      <trkpt lat="44.28875" lon="7.15143">
        <ele>1097.2</ele>
        <time>2022-07-19T04:15:11Z</time>
      </trkpt>
      <trkpt lat="44.28874" lon="7.15141">
        <ele>1097.2</ele>
        <time>2022-07-19T04:15:12Z</time>
      </trkpt>
      <trkpt lat="44.28873" lon="7.15139">
        <ele>1097.6</ele>
        <time>2022-07-19T04:15:13Z</time>
      </trkpt>
      <trkpt lat="44.28873" lon="7.15137">
        <ele>1097.6</ele>
        <time>2022-07-19T04:15:14Z</time>
      </trkpt>
      <trkpt lat="44.28872" lon="7.15134">
        <ele>1098</ele>
        <time>2022-07-19T04:15:15Z</time>
      </trkpt>
      <trkpt lat="44.28871" lon="7.15132">
        <ele>1098.4</ele>
        <time>2022-07-19T04:15:16Z</time>
      </trkpt>
      <trkpt lat="44.28871" lon="7.1513">
        <ele>1098.6</ele>
        <time>2022-07-19T04:15:17Z</time>
      </trkpt>
      <trkpt lat="44.2887" lon="7.15128">
        <ele>1098.6</ele>
        <time>2022-07-19T04:15:18Z</time>
      </trkpt>
      <trkpt lat="44.2887" lon="7.15126">
        <ele>1098.8</ele>
        <time>2022-07-19T04:15:19Z</time>
      </trkpt>
      <trkpt lat="44.28869" lon="7.15123">
        <ele>1098.8</ele>
        <time>2022-07-19T04:15:20Z</time>
      </trkpt>
      <trkpt lat="44.28868" lon="7.15121">
        <ele>1099.2</ele>
        <time>2022-07-19T04:15:21Z</time>
      </trkpt>
      <trkpt lat="44.28867" lon="7.15119">
        <ele>1099.2</ele>
        <time>2022-07-19T04:15:22Z</time>
      </trkpt>
      <trkpt lat="44.28867" lon="7.15116">
        <ele>1099.6</ele>
        <time>2022-07-19T04:15:23Z</time>
      </trkpt>
      <trkpt lat="44.28866" lon="7.15114">
        <ele>1099.6</ele>
        <time>2022-07-19T04:15:24Z</time>
      </trkpt>
      <trkpt lat="44.28865" lon="7.15112">
        <ele>1100</ele>
        <time>2022-07-19T04:15:25Z</time>
      </trkpt>
      <trkpt lat="44.28865" lon="7.1511">
        <ele>1100</ele>
        <time>2022-07-19T04:15:26Z</time>
      </trkpt>
      <trkpt lat="44.28864" lon="7.15107">
        <ele>1100.4</ele>
        <time>2022-07-19T04:15:27Z</time>
      </trkpt>
      <trkpt lat="44.28863" lon="7.15106">
        <ele>1100.6</ele>
        <time>2022-07-19T04:15:28Z</time>
      </trkpt>
      <trkpt lat="44.28862" lon="7.15104">
        <ele>1100.6</ele>
        <time>2022-07-19T04:15:29Z</time>
      </trkpt>
      <trkpt lat="44.28862" lon="7.15102">
        <ele>1100.8</ele>
        <time>2022-07-19T04:15:30Z</time>
      </trkpt>
      <trkpt lat="44.28861" lon="7.151">
        <ele>1100.8</ele>
        <time>2022-07-19T04:15:31Z</time>
      </trkpt>
      <trkpt lat="44.2886" lon="7.15098">
        <ele>1101.2</ele>
        <time>2022-07-19T04:15:32Z</time>
      </trkpt>
      <trkpt lat="44.28859" lon="7.15096">
        <ele>1101.2</ele>
        <time>2022-07-19T04:15:33Z</time>
      </trkpt>
      <trkpt lat="44.28859" lon="7.15094">
        <ele>1101.4</ele>
        <time>2022-07-19T04:15:34Z</time>
      </trkpt>
      <trkpt lat="44.28858" lon="7.15092">
        <ele>1101.8</ele>
        <time>2022-07-19T04:15:35Z</time>
      </trkpt>
      <trkpt lat="44.28857" lon="7.1509">
        <ele>1102</ele>
        <time>2022-07-19T04:15:36Z</time>
      </trkpt>
      <trkpt lat="44.28856" lon="7.15088">
        <ele>1102</ele>
        <time>2022-07-19T04:15:37Z</time>
      </trkpt>
      <trkpt lat="44.28855" lon="7.15086">
        <ele>1102.4</ele>
        <time>2022-07-19T04:15:38Z</time>
      </trkpt>
      <trkpt lat="44.28855" lon="7.15084">
        <ele>1102.4</ele>
        <time>2022-07-19T04:15:39Z</time>
      </trkpt>
      <trkpt lat="44.28854" lon="7.15082">
        <ele>1102.6</ele>
        <time>2022-07-19T04:15:40Z</time>
      </trkpt>
      <trkpt lat="44.28853" lon="7.1508">
        <ele>1103</ele>
        <time>2022-07-19T04:15:41Z</time>
      </trkpt>
      <trkpt lat="44.28852" lon="7.15078">
        <ele>1103</ele>
        <time>2022-07-19T04:15:42Z</time>
      </trkpt>
      <trkpt lat="44.28851" lon="7.15076">
        <ele>1103.2</ele>
        <time>2022-07-19T04:15:43Z</time>
      </trkpt>
      <trkpt lat="44.2885" lon="7.15074">
        <ele>1103.2</ele>
        <time>2022-07-19T04:15:44Z</time>
      </trkpt>
      <trkpt lat="44.28849" lon="7.15072">
        <ele>1103.6</ele>
        <time>2022-07-19T04:15:45Z</time>
      </trkpt>
      <trkpt lat="44.28848" lon="7.1507">
        <ele>1103.8</ele>
        <time>2022-07-19T04:15:46Z</time>
      </trkpt>
      <trkpt lat="44.28847" lon="7.15069">
        <ele>1104</ele>
        <time>2022-07-19T04:15:47Z</time>
      </trkpt>
      <trkpt lat="44.28846" lon="7.15068">
        <ele>1104</ele>
        <time>2022-07-19T04:15:48Z</time>
      </trkpt>
      <trkpt lat="44.28845" lon="7.15066">
        <ele>1104.4</ele>
        <time>2022-07-19T04:15:49Z</time>
      </trkpt>
      <trkpt lat="44.28844" lon="7.15064">
        <ele>1104.4</ele>
        <time>2022-07-19T04:15:50Z</time>
      </trkpt>
      <trkpt lat="44.28843" lon="7.15063">
        <ele>1104.8</ele>
        <time>2022-07-19T04:15:51Z</time>
      </trkpt>
      <trkpt lat="44.28843" lon="7.15061">
        <ele>1105</ele>
        <time>2022-07-19T04:15:52Z</time>
      </trkpt>
      <trkpt lat="44.28842" lon="7.1506">
        <ele>1105</ele>
        <time>2022-07-19T04:15:53Z</time>
      </trkpt>
      <trkpt lat="44.28841" lon="7.15058">
        <ele>1105.4</ele>
        <time>2022-07-19T04:15:54Z</time>
      </trkpt>
      <trkpt lat="44.2884" lon="7.15057">
        <ele>1105.4</ele>
        <time>2022-07-19T04:15:55Z</time>
      </trkpt>
      <trkpt lat="44.28839" lon="7.15055">
        <ele>1105.6</ele>
        <time>2022-07-19T04:15:56Z</time>
      </trkpt>
      <trkpt lat="44.28838" lon="7.15054">
        <ele>1105.6</ele>
        <time>2022-07-19T04:15:57Z</time>
      </trkpt>
      <trkpt lat="44.28838" lon="7.15053">
        <ele>1105.8</ele>
        <time>2022-07-19T04:15:58Z</time>
      </trkpt>
      <trkpt lat="44.28837" lon="7.15051">
        <ele>1105.8</ele>
        <time>2022-07-19T04:15:59Z</time>
      </trkpt>
      <trkpt lat="44.28836" lon="7.1505">
        <ele>1106.2</ele>
        <time>2022-07-19T04:16:00Z</time>
      </trkpt>
      <trkpt lat="44.28835" lon="7.15049">
        <ele>1106.4</ele>
        <time>2022-07-19T04:16:01Z</time>
      </trkpt>
      <trkpt lat="44.28834" lon="7.15048">
        <ele>1106.6</ele>
        <time>2022-07-19T04:16:02Z</time>
      </trkpt>
      <trkpt lat="44.28833" lon="7.15047">
        <ele>1106.6</ele>
        <time>2022-07-19T04:16:03Z</time>
      </trkpt>
      <trkpt lat="44.28831" lon="7.15046">
        <ele>1106.8</ele>
        <time>2022-07-19T04:16:04Z</time>
      </trkpt>
      <trkpt lat="44.2883" lon="7.15044">
        <ele>1106.8</ele>
        <time>2022-07-19T04:16:05Z</time>
      </trkpt>
      <trkpt lat="44.28829" lon="7.15043">
        <ele>1107.2</ele>
        <time>2022-07-19T04:16:06Z</time>
      </trkpt>
      <trkpt lat="44.28828" lon="7.15042">
        <ele>1107.2</ele>
        <time>2022-07-19T04:16:07Z</time>
      </trkpt>
      <trkpt lat="44.28827" lon="7.1504">
        <ele>1107.4</ele>
        <time>2022-07-19T04:16:08Z</time>
      </trkpt>
      <trkpt lat="44.28825" lon="7.15038">
        <ele>1107.4</ele>
        <time>2022-07-19T04:16:09Z</time>
      </trkpt>
      <trkpt lat="44.28824" lon="7.15037">
        <ele>1107.4</ele>
        <time>2022-07-19T04:16:10Z</time>
      </trkpt>
      <trkpt lat="44.28823" lon="7.15035">
        <ele>1107.8</ele>
        <time>2022-07-19T04:16:11Z</time>
      </trkpt>
      <trkpt lat="44.28822" lon="7.15034">
        <ele>1107.8</ele>
        <time>2022-07-19T04:16:12Z</time>
      </trkpt>
      <trkpt lat="44.2882" lon="7.15032">
        <ele>1108</ele>
        <time>2022-07-19T04:16:13Z</time>
      </trkpt>
      <trkpt lat="44.28819" lon="7.15031">
        <ele>1108.2</ele>
        <time>2022-07-19T04:16:14Z</time>
      </trkpt>
      <trkpt lat="44.28818" lon="7.15029">
        <ele>1108.2</ele>
        <time>2022-07-19T04:16:15Z</time>
      </trkpt>
      <trkpt lat="44.28817" lon="7.15027">
        <ele>1108.6</ele>
        <time>2022-07-19T04:16:16Z</time>
      </trkpt>
      <trkpt lat="44.28815" lon="7.15026">
        <ele>1108.6</ele>
        <time>2022-07-19T04:16:17Z</time>
      </trkpt>
      <trkpt lat="44.28814" lon="7.15024">
        <ele>1108.8</ele>
        <time>2022-07-19T04:16:18Z</time>
      </trkpt>
      <trkpt lat="44.28812" lon="7.15023">
        <ele>1109</ele>
        <time>2022-07-19T04:16:19Z</time>
      </trkpt>
      <trkpt lat="44.28811" lon="7.15022">
        <ele>1109</ele>
        <time>2022-07-19T04:16:20Z</time>
      </trkpt>
      <trkpt lat="44.2881" lon="7.15021">
        <ele>1109.4</ele>
        <time>2022-07-19T04:16:21Z</time>
      </trkpt>
      <trkpt lat="44.28808" lon="7.1502">
        <ele>1109.4</ele>
        <time>2022-07-19T04:16:22Z</time>
      </trkpt>
      <trkpt lat="44.28806" lon="7.15019">
        <ele>1109.8</ele>
        <time>2022-07-19T04:16:23Z</time>
      </trkpt>
      <trkpt lat="44.28805" lon="7.15018">
        <ele>1109.8</ele>
        <time>2022-07-19T04:16:24Z</time>
      </trkpt>
      <trkpt lat="44.28803" lon="7.15017">
        <ele>1110</ele>
        <time>2022-07-19T04:16:25Z</time>
      </trkpt>
      <trkpt lat="44.28801" lon="7.15016">
        <ele>1110</ele>
        <time>2022-07-19T04:16:26Z</time>
      </trkpt>
      <trkpt lat="44.288" lon="7.15015">
        <ele>1110.4</ele>
        <time>2022-07-19T04:16:27Z</time>
      </trkpt>
      <trkpt lat="44.28798" lon="7.15014">
        <ele>1110.4</ele>
        <time>2022-07-19T04:16:28Z</time>
      </trkpt>
      <trkpt lat="44.28797" lon="7.15013">
        <ele>1110.8</ele>
        <time>2022-07-19T04:16:29Z</time>
      </trkpt>
      <trkpt lat="44.28796" lon="7.15012">
        <ele>1110.8</ele>
        <time>2022-07-19T04:16:30Z</time>
      </trkpt>
      <trkpt lat="44.28795" lon="7.1501">
        <ele>1111.2</ele>
        <time>2022-07-19T04:16:31Z</time>
      </trkpt>
      <trkpt lat="44.28793" lon="7.15009">
        <ele>1111.4</ele>
        <time>2022-07-19T04:16:32Z</time>
      </trkpt>
      <trkpt lat="44.28792" lon="7.15008">
        <ele>1111.4</ele>
        <time>2022-07-19T04:16:33Z</time>
      </trkpt>
      <trkpt lat="44.2879" lon="7.15006">
        <ele>1111.6</ele>
        <time>2022-07-19T04:16:34Z</time>
      </trkpt>
      <trkpt lat="44.28788" lon="7.15005">
        <ele>1111.6</ele>
        <time>2022-07-19T04:16:35Z</time>
      </trkpt>
      <trkpt lat="44.28787" lon="7.15004">
        <ele>1112</ele>
        <time>2022-07-19T04:16:36Z</time>
      </trkpt>
      <trkpt lat="44.28785" lon="7.15003">
        <ele>1112.2</ele>
        <time>2022-07-19T04:16:37Z</time>
      </trkpt>
      <trkpt lat="44.28783" lon="7.15002">
        <ele>1112.2</ele>
        <time>2022-07-19T04:16:38Z</time>
      </trkpt>
      <trkpt lat="44.28782" lon="7.15001">
        <ele>1112.6</ele>
        <time>2022-07-19T04:16:39Z</time>
      </trkpt>
      <trkpt lat="44.28781" lon="7.15">
        <ele>1112.6</ele>
        <time>2022-07-19T04:16:40Z</time>
      </trkpt>
      <trkpt lat="44.28779" lon="7.14998">
        <ele>1112.8</ele>
        <time>2022-07-19T04:16:41Z</time>
      </trkpt>
      <trkpt lat="44.28778" lon="7.14997">
        <ele>1113</ele>
        <time>2022-07-19T04:16:42Z</time>
      </trkpt>
      <trkpt lat="44.28776" lon="7.14996">
        <ele>1113.2</ele>
        <time>2022-07-19T04:16:43Z</time>
      </trkpt>
      <trkpt lat="44.28775" lon="7.14994">
        <ele>1113.2</ele>
        <time>2022-07-19T04:16:44Z</time>
      </trkpt>
      <trkpt lat="44.28773" lon="7.14993">
        <ele>1113.6</ele>
        <time>2022-07-19T04:16:45Z</time>
      </trkpt>
      <trkpt lat="44.28772" lon="7.14992">
        <ele>1113.8</ele>
        <time>2022-07-19T04:16:46Z</time>
      </trkpt>
      <trkpt lat="44.2877" lon="7.14991">
        <ele>1114</ele>
        <time>2022-07-19T04:16:47Z</time>
      </trkpt>
      <trkpt lat="44.28769" lon="7.14989">
        <ele>1114</ele>
        <time>2022-07-19T04:16:48Z</time>
      </trkpt>
      <trkpt lat="44.28767" lon="7.14988">
        <ele>1114.4</ele>
        <time>2022-07-19T04:16:49Z</time>
      </trkpt>
      <trkpt lat="44.28766" lon="7.14986">
        <ele>1114.4</ele>
        <time>2022-07-19T04:16:50Z</time>
      </trkpt>
      <trkpt lat="44.28764" lon="7.14985">
        <ele>1114.8</ele>
        <time>2022-07-19T04:16:51Z</time>
      </trkpt>
      <trkpt lat="44.28763" lon="7.14984">
        <ele>1114.8</ele>
        <time>2022-07-19T04:16:52Z</time>
      </trkpt>
      <trkpt lat="44.28762" lon="7.14982">
        <ele>1115.2</ele>
        <time>2022-07-19T04:16:53Z</time>
      </trkpt>
      <trkpt lat="44.28761" lon="7.14981">
        <ele>1115.2</ele>
        <time>2022-07-19T04:16:54Z</time>
      </trkpt>
      <trkpt lat="44.28759" lon="7.1498">
        <ele>1115.6</ele>
        <time>2022-07-19T04:16:55Z</time>
      </trkpt>
      <trkpt lat="44.28758" lon="7.14979">
        <ele>1115.6</ele>
        <time>2022-07-19T04:16:56Z</time>
      </trkpt>
      <trkpt lat="44.28757" lon="7.14978">
        <ele>1115.8</ele>
        <time>2022-07-19T04:16:57Z</time>
      </trkpt>
      <trkpt lat="44.28755" lon="7.14977">
        <ele>1115.8</ele>
        <time>2022-07-19T04:16:58Z</time>
      </trkpt>
      <trkpt lat="44.28754" lon="7.14976">
        <ele>1116.2</ele>
        <time>2022-07-19T04:16:59Z</time>
      </trkpt>
      <trkpt lat="44.28753" lon="7.14975">
        <ele>1116.2</ele>
        <time>2022-07-19T04:17:00Z</time>
      </trkpt>
      <trkpt lat="44.28751" lon="7.14974">
        <ele>1116.4</ele>
        <time>2022-07-19T04:17:01Z</time>
      </trkpt>
      <trkpt lat="44.2875" lon="7.14973">
        <ele>1116.4</ele>
        <time>2022-07-19T04:17:02Z</time>
      </trkpt>
      <trkpt lat="44.28749" lon="7.14972">
        <ele>1116.8</ele>
        <time>2022-07-19T04:17:03Z</time>
      </trkpt>
      <trkpt lat="44.28748" lon="7.14971">
        <ele>1116.8</ele>
        <time>2022-07-19T04:17:04Z</time>
      </trkpt>
      <trkpt lat="44.28747" lon="7.1497">
        <ele>1117.2</ele>
        <time>2022-07-19T04:17:05Z</time>
      </trkpt>
      <trkpt lat="44.28746" lon="7.14969">
        <ele>1117.2</ele>
        <time>2022-07-19T04:17:06Z</time>
      </trkpt>
      <trkpt lat="44.28745" lon="7.14968">
        <ele>1117.6</ele>
        <time>2022-07-19T04:17:07Z</time>
      </trkpt>
      <trkpt lat="44.28744" lon="7.14967">
        <ele>1117.6</ele>
        <time>2022-07-19T04:17:08Z</time>
      </trkpt>
      <trkpt lat="44.28743" lon="7.14966">
        <ele>1117.8</ele>
        <time>2022-07-19T04:17:09Z</time>
      </trkpt>
      <trkpt lat="44.28741" lon="7.14965">
        <ele>1117.8</ele>
        <time>2022-07-19T04:17:10Z</time>
      </trkpt>
      <trkpt lat="44.2874" lon="7.14964">
        <ele>1118.2</ele>
        <time>2022-07-19T04:17:11Z</time>
      </trkpt>
      <trkpt lat="44.28738" lon="7.14963">
        <ele>1118.2</ele>
        <time>2022-07-19T04:17:12Z</time>
      </trkpt>
      <trkpt lat="44.28737" lon="7.14962">
        <ele>1118.4</ele>
        <time>2022-07-19T04:17:13Z</time>
      </trkpt>
      <trkpt lat="44.28736" lon="7.1496">
        <ele>1118.4</ele>
        <time>2022-07-19T04:17:14Z</time>
      </trkpt>
      <trkpt lat="44.28734" lon="7.1496">
        <ele>1118.6</ele>
        <time>2022-07-19T04:17:15Z</time>
      </trkpt>
      <trkpt lat="44.28733" lon="7.14959">
        <ele>1118.6</ele>
        <time>2022-07-19T04:17:16Z</time>
      </trkpt>
      <trkpt lat="44.28732" lon="7.14958">
        <ele>1118.8</ele>
        <time>2022-07-19T04:17:17Z</time>
      </trkpt>
      <trkpt lat="44.2873" lon="7.14957">
        <ele>1118.8</ele>
        <time>2022-07-19T04:17:18Z</time>
      </trkpt>
      <trkpt lat="44.28729" lon="7.14956">
        <ele>1119.2</ele>
        <time>2022-07-19T04:17:19Z</time>
      </trkpt>
      <trkpt lat="44.28729" lon="7.14955">
        <ele>1119.2</ele>
        <time>2022-07-19T04:17:20Z</time>
      </trkpt>
      <trkpt lat="44.28728" lon="7.14954">
        <ele>1119.6</ele>
        <time>2022-07-19T04:17:21Z</time>
      </trkpt>
      <trkpt lat="44.28726" lon="7.14953">
        <ele>1119.6</ele>
        <time>2022-07-19T04:17:22Z</time>
      </trkpt>
      <trkpt lat="44.28725" lon="7.14952">
        <ele>1120</ele>
        <time>2022-07-19T04:17:23Z</time>
      </trkpt>
      <trkpt lat="44.28724" lon="7.14951">
        <ele>1120</ele>
        <time>2022-07-19T04:17:24Z</time>
      </trkpt>
      <trkpt lat="44.28723" lon="7.1495">
        <ele>1120.2</ele>
        <time>2022-07-19T04:17:25Z</time>
      </trkpt>
      <trkpt lat="44.28721" lon="7.14949">
        <ele>1120.2</ele>
        <time>2022-07-19T04:17:26Z</time>
      </trkpt>
      <trkpt lat="44.2872" lon="7.14949">
        <ele>1120.6</ele>
        <time>2022-07-19T04:17:27Z</time>
      </trkpt>
      <trkpt lat="44.28719" lon="7.14948">
        <ele>1120.6</ele>
        <time>2022-07-19T04:17:28Z</time>
      </trkpt>
      <trkpt lat="44.28718" lon="7.14947">
        <ele>1120.8</ele>
        <time>2022-07-19T04:17:29Z</time>
      </trkpt>
      <trkpt lat="44.28717" lon="7.14946">
        <ele>1120.8</ele>
        <time>2022-07-19T04:17:30Z</time>
      </trkpt>
      <trkpt lat="44.28715" lon="7.14945">
        <ele>1121.2</ele>
        <time>2022-07-19T04:17:31Z</time>
      </trkpt>
      <trkpt lat="44.28714" lon="7.14944">
        <ele>1121.2</ele>
        <time>2022-07-19T04:17:32Z</time>
      </trkpt>
      <trkpt lat="44.28712" lon="7.14943">
        <ele>1121.4</ele>
        <time>2022-07-19T04:17:33Z</time>
      </trkpt>
      <trkpt lat="44.28711" lon="7.14942">
        <ele>1121.6</ele>
        <time>2022-07-19T04:17:34Z</time>
      </trkpt>
      <trkpt lat="44.2871" lon="7.14941">
        <ele>1121.6</ele>
        <time>2022-07-19T04:17:35Z</time>
      </trkpt>
      <trkpt lat="44.28708" lon="7.1494">
        <ele>1122</ele>
        <time>2022-07-19T04:17:36Z</time>
      </trkpt>
      <trkpt lat="44.28706" lon="7.14939">
        <ele>1122</ele>
        <time>2022-07-19T04:17:37Z</time>
      </trkpt>
      <trkpt lat="44.28705" lon="7.14938">
        <ele>1122.2</ele>
        <time>2022-07-19T04:17:38Z</time>
      </trkpt>
      <trkpt lat="44.28704" lon="7.14937">
        <ele>1122.2</ele>
        <time>2022-07-19T04:17:39Z</time>
      </trkpt>
      <trkpt lat="44.28703" lon="7.14936">
        <ele>1122.6</ele>
        <time>2022-07-19T04:17:40Z</time>
      </trkpt>
      <trkpt lat="44.28702" lon="7.14935">
        <ele>1122.6</ele>
        <time>2022-07-19T04:17:41Z</time>
      </trkpt>
      <trkpt lat="44.28701" lon="7.14934">
        <ele>1123</ele>
        <time>2022-07-19T04:17:42Z</time>
      </trkpt>
      <trkpt lat="44.287" lon="7.14933">
        <ele>1123</ele>
        <time>2022-07-19T04:17:43Z</time>
      </trkpt>
      <trkpt lat="44.28698" lon="7.14932">
        <ele>1123.2</ele>
        <time>2022-07-19T04:17:44Z</time>
      </trkpt>
      <trkpt lat="44.28697" lon="7.14931">
        <ele>1123.2</ele>
        <time>2022-07-19T04:17:45Z</time>
      </trkpt>
      <trkpt lat="44.28696" lon="7.1493">
        <ele>1123.6</ele>
        <time>2022-07-19T04:17:46Z</time>
      </trkpt>
      <trkpt lat="44.28695" lon="7.14929">
        <ele>1123.6</ele>
        <time>2022-07-19T04:17:47Z</time>
      </trkpt>
      <trkpt lat="44.28693" lon="7.14927">
        <ele>1123.8</ele>
        <time>2022-07-19T04:17:48Z</time>
      </trkpt>
      <trkpt lat="44.28691" lon="7.14926">
        <ele>1123.8</ele>
        <time>2022-07-19T04:17:49Z</time>
      </trkpt>
      <trkpt lat="44.2869" lon="7.14925">
        <ele>1124.2</ele>
        <time>2022-07-19T04:17:50Z</time>
      </trkpt>
      <trkpt lat="44.28689" lon="7.14924">
        <ele>1124.2</ele>
        <time>2022-07-19T04:17:51Z</time>
      </trkpt>
      <trkpt lat="44.28687" lon="7.14923">
        <ele>1124.6</ele>
        <time>2022-07-19T04:17:52Z</time>
      </trkpt>
      <trkpt lat="44.28686" lon="7.14922">
        <ele>1124.8</ele>
        <time>2022-07-19T04:17:53Z</time>
      </trkpt>
      <trkpt lat="44.28685" lon="7.14921">
        <ele>1125</ele>
        <time>2022-07-19T04:17:54Z</time>
      </trkpt>
      <trkpt lat="44.28684" lon="7.1492">
        <ele>1125.2</ele>
        <time>2022-07-19T04:17:55Z</time>
      </trkpt>
      <trkpt lat="44.28682" lon="7.14918">
        <ele>1125.2</ele>
        <time>2022-07-19T04:17:56Z</time>
      </trkpt>
      <trkpt lat="44.28681" lon="7.14917">
        <ele>1125.6</ele>
        <time>2022-07-19T04:17:57Z</time>
      </trkpt>
      <trkpt lat="44.2868" lon="7.14916">
        <ele>1125.8</ele>
        <time>2022-07-19T04:17:58Z</time>
      </trkpt>
      <trkpt lat="44.28679" lon="7.14915">
        <ele>1125.8</ele>
        <time>2022-07-19T04:17:59Z</time>
      </trkpt>
      <trkpt lat="44.28678" lon="7.14914">
        <ele>1126</ele>
        <time>2022-07-19T04:18:00Z</time>
      </trkpt>
      <trkpt lat="44.28676" lon="7.14913">
        <ele>1126</ele>
        <time>2022-07-19T04:18:01Z</time>
      </trkpt>
      <trkpt lat="44.28675" lon="7.14912">
        <ele>1126.4</ele>
        <time>2022-07-19T04:18:02Z</time>
      </trkpt>
      <trkpt lat="44.28674" lon="7.14911">
        <ele>1126.4</ele>
        <time>2022-07-19T04:18:03Z</time>
      </trkpt>
      <trkpt lat="44.28672" lon="7.1491">
        <ele>1126.6</ele>
        <time>2022-07-19T04:18:04Z</time>
      </trkpt>
      <trkpt lat="44.28671" lon="7.14908">
        <ele>1126.6</ele>
        <time>2022-07-19T04:18:05Z</time>
      </trkpt>
      <trkpt lat="44.28669" lon="7.14907">
        <ele>1127</ele>
        <time>2022-07-19T04:18:06Z</time>
      </trkpt>
      <trkpt lat="44.28668" lon="7.14906">
        <ele>1127</ele>
        <time>2022-07-19T04:18:07Z</time>
      </trkpt>
      <trkpt lat="44.28666" lon="7.14905">
        <ele>1127.2</ele>
        <time>2022-07-19T04:18:08Z</time>
      </trkpt>
      <trkpt lat="44.28665" lon="7.14904">
        <ele>1127.2</ele>
        <time>2022-07-19T04:18:09Z</time>
      </trkpt>
      <trkpt lat="44.28664" lon="7.14903">
        <ele>1127.4</ele>
        <time>2022-07-19T04:18:10Z</time>
      </trkpt>
      <trkpt lat="44.28663" lon="7.14902">
        <ele>1127.4</ele>
        <time>2022-07-19T04:18:11Z</time>
      </trkpt>
      <trkpt lat="44.28662" lon="7.14901">
        <ele>1127.8</ele>
        <time>2022-07-19T04:18:12Z</time>
      </trkpt>
      <trkpt lat="44.28661" lon="7.14901">
        <ele>1127.8</ele>
        <time>2022-07-19T04:18:13Z</time>
      </trkpt>
      <trkpt lat="44.2866" lon="7.149">
        <ele>1128</ele>
        <time>2022-07-19T04:18:14Z</time>
      </trkpt>
      <trkpt lat="44.28658" lon="7.14898">
        <ele>1128.4</ele>
        <time>2022-07-19T04:18:16Z</time>
      </trkpt>
      <trkpt lat="44.28657" lon="7.14897">
        <ele>1128.6</ele>
        <time>2022-07-19T04:18:17Z</time>
      </trkpt>
      <trkpt lat="44.28656" lon="7.14895">
        <ele>1128.6</ele>
        <time>2022-07-19T04:18:18Z</time>
      </trkpt>
      <trkpt lat="44.28654" lon="7.14894">
        <ele>1129</ele>
        <time>2022-07-19T04:18:19Z</time>
      </trkpt>
      <trkpt lat="44.28653" lon="7.14893">
        <ele>1129</ele>
        <time>2022-07-19T04:18:20Z</time>
      </trkpt>
      <trkpt lat="44.28652" lon="7.14891">
        <ele>1129.2</ele>
        <time>2022-07-19T04:18:21Z</time>
      </trkpt>
      <trkpt lat="44.2865" lon="7.1489">
        <ele>1129.6</ele>
        <time>2022-07-19T04:18:22Z</time>
      </trkpt>
      <trkpt lat="44.28649" lon="7.14889">
        <ele>1129.6</ele>
        <time>2022-07-19T04:18:23Z</time>
      </trkpt>
      <trkpt lat="44.28648" lon="7.14888">
        <ele>1130</ele>
        <time>2022-07-19T04:18:24Z</time>
      </trkpt>
      <trkpt lat="44.28646" lon="7.14887">
        <ele>1130</ele>
        <time>2022-07-19T04:18:25Z</time>
      </trkpt>
      <trkpt lat="44.28644" lon="7.14887">
        <ele>1130.4</ele>
        <time>2022-07-19T04:18:26Z</time>
      </trkpt>
      <trkpt lat="44.28643" lon="7.14886">
        <ele>1130.4</ele>
        <time>2022-07-19T04:18:27Z</time>
      </trkpt>
      <trkpt lat="44.28641" lon="7.14885">
        <ele>1130.8</ele>
        <time>2022-07-19T04:18:28Z</time>
      </trkpt>
      <trkpt lat="44.2864" lon="7.14884">
        <ele>1131</ele>
        <time>2022-07-19T04:18:29Z</time>
      </trkpt>
      <trkpt lat="44.28639" lon="7.14883">
        <ele>1131</ele>
        <time>2022-07-19T04:18:30Z</time>
      </trkpt>
      <trkpt lat="44.28637" lon="7.14882">
        <ele>1131.4</ele>
        <time>2022-07-19T04:18:31Z</time>
      </trkpt>
      <trkpt lat="44.28635" lon="7.14881">
        <ele>1131.4</ele>
        <time>2022-07-19T04:18:32Z</time>
      </trkpt>
      <trkpt lat="44.28633" lon="7.1488">
        <ele>1131.8</ele>
        <time>2022-07-19T04:18:33Z</time>
      </trkpt>
      <trkpt lat="44.28631" lon="7.14879">
        <ele>1131.8</ele>
        <time>2022-07-19T04:18:34Z</time>
      </trkpt>
      <trkpt lat="44.2863" lon="7.14878">
        <ele>1131.8</ele>
        <time>2022-07-19T04:18:35Z</time>
      </trkpt>
      <trkpt lat="44.28629" lon="7.14876">
        <ele>1132</ele>
        <time>2022-07-19T04:18:36Z</time>
      </trkpt>
      <trkpt lat="44.28627" lon="7.14875">
        <ele>1132</ele>
        <time>2022-07-19T04:18:37Z</time>
      </trkpt>
      <trkpt lat="44.28626" lon="7.14874">
        <ele>1132.4</ele>
        <time>2022-07-19T04:18:38Z</time>
      </trkpt>
      <trkpt lat="44.28624" lon="7.14872">
        <ele>1132.4</ele>
        <time>2022-07-19T04:18:39Z</time>
      </trkpt>
      <trkpt lat="44.28622" lon="7.14871">
        <ele>1132.8</ele>
        <time>2022-07-19T04:18:40Z</time>
      </trkpt>
      <trkpt lat="44.2862" lon="7.14871">
        <ele>1132.8</ele>
        <time>2022-07-19T04:18:41Z</time>
      </trkpt>
      <trkpt lat="44.28618" lon="7.1487">
        <ele>1133</ele>
        <time>2022-07-19T04:18:42Z</time>
      </trkpt>
      <trkpt lat="44.28617" lon="7.14869">
        <ele>1133</ele>
        <time>2022-07-19T04:18:43Z</time>
      </trkpt>
      <trkpt lat="44.28615" lon="7.14867">
        <ele>1133.4</ele>
        <time>2022-07-19T04:18:44Z</time>
      </trkpt>
      <trkpt lat="44.28614" lon="7.14866">
        <ele>1133.4</ele>
        <time>2022-07-19T04:18:45Z</time>
      </trkpt>
      <trkpt lat="44.28612" lon="7.14864">
        <ele>1133.6</ele>
        <time>2022-07-19T04:18:46Z</time>
      </trkpt>
      <trkpt lat="44.28611" lon="7.14863">
        <ele>1133.6</ele>
        <time>2022-07-19T04:18:47Z</time>
      </trkpt>
      <trkpt lat="44.2861" lon="7.14861">
        <ele>1134</ele>
        <time>2022-07-19T04:18:48Z</time>
      </trkpt>
      <trkpt lat="44.28608" lon="7.14859">
        <ele>1134</ele>
        <time>2022-07-19T04:18:49Z</time>
      </trkpt>
      <trkpt lat="44.28607" lon="7.14857">
        <ele>1134.2</ele>
        <time>2022-07-19T04:18:50Z</time>
      </trkpt>
      <trkpt lat="44.28605" lon="7.14855">
        <ele>1134.2</ele>
        <time>2022-07-19T04:18:51Z</time>
      </trkpt>
      <trkpt lat="44.28604" lon="7.14853">
        <ele>1134.4</ele>
        <time>2022-07-19T04:18:52Z</time>
      </trkpt>
      <trkpt lat="44.28603" lon="7.14851">
        <ele>1134.4</ele>
        <time>2022-07-19T04:18:53Z</time>
      </trkpt>
      <trkpt lat="44.28601" lon="7.1485">
        <ele>1134.8</ele>
        <time>2022-07-19T04:18:54Z</time>
      </trkpt>
      <trkpt lat="44.286" lon="7.14848">
        <ele>1134.8</ele>
        <time>2022-07-19T04:18:55Z</time>
      </trkpt>
      <trkpt lat="44.28599" lon="7.14846">
        <ele>1135</ele>
        <time>2022-07-19T04:18:56Z</time>
      </trkpt>
      <trkpt lat="44.28597" lon="7.14845">
        <ele>1135</ele>
        <time>2022-07-19T04:18:57Z</time>
      </trkpt>
      <trkpt lat="44.28595" lon="7.14844">
        <ele>1135.4</ele>
        <time>2022-07-19T04:18:58Z</time>
      </trkpt>
      <trkpt lat="44.28594" lon="7.14842">
        <ele>1135.4</ele>
        <time>2022-07-19T04:18:59Z</time>
      </trkpt>
      <trkpt lat="44.28593" lon="7.14841">
        <ele>1135.4</ele>
        <time>2022-07-19T04:19:00Z</time>
      </trkpt>
      <trkpt lat="44.28592" lon="7.14839">
        <ele>1135.8</ele>
        <time>2022-07-19T04:19:01Z</time>
      </trkpt>
      <trkpt lat="44.28591" lon="7.14838">
        <ele>1135.8</ele>
        <time>2022-07-19T04:19:02Z</time>
      </trkpt>
      <trkpt lat="44.2859" lon="7.14836">
        <ele>1136</ele>
        <time>2022-07-19T04:19:03Z</time>
      </trkpt>
      <trkpt lat="44.28589" lon="7.14834">
        <ele>1136</ele>
        <time>2022-07-19T04:19:04Z</time>
      </trkpt>
      <trkpt lat="44.28588" lon="7.14832">
        <ele>1136.2</ele>
        <time>2022-07-19T04:19:05Z</time>
      </trkpt>
      <trkpt lat="44.28587" lon="7.1483">
        <ele>1136.2</ele>
        <time>2022-07-19T04:19:06Z</time>
      </trkpt>
      <trkpt lat="44.28586" lon="7.14829">
        <ele>1136.6</ele>
        <time>2022-07-19T04:19:07Z</time>
      </trkpt>
      <trkpt lat="44.28585" lon="7.14828">
        <ele>1136.6</ele>
        <time>2022-07-19T04:19:08Z</time>
      </trkpt>
      <trkpt lat="44.28584" lon="7.14826">
        <ele>1136.8</ele>
        <time>2022-07-19T04:19:09Z</time>
      </trkpt>
      <trkpt lat="44.28583" lon="7.14824">
        <ele>1136.8</ele>
        <time>2022-07-19T04:19:10Z</time>
      </trkpt>
      <trkpt lat="44.28582" lon="7.14822">
        <ele>1137</ele>
        <time>2022-07-19T04:19:11Z</time>
      </trkpt>
      <trkpt lat="44.28582" lon="7.14819">
        <ele>1137</ele>
        <time>2022-07-19T04:19:12Z</time>
      </trkpt>
      <trkpt lat="44.28581" lon="7.14818">
        <ele>1137.2</ele>
        <time>2022-07-19T04:19:13Z</time>
      </trkpt>
      <trkpt lat="44.2858" lon="7.14816">
        <ele>1137.2</ele>
        <time>2022-07-19T04:19:14Z</time>
      </trkpt>
      <trkpt lat="44.28579" lon="7.14814">
        <ele>1137.6</ele>
        <time>2022-07-19T04:19:15Z</time>
      </trkpt>
      <trkpt lat="44.28578" lon="7.14813">
        <ele>1137.6</ele>
        <time>2022-07-19T04:19:16Z</time>
      </trkpt>
      <trkpt lat="44.28577" lon="7.14812">
        <ele>1137.6</ele>
        <time>2022-07-19T04:19:17Z</time>
      </trkpt>
      <trkpt lat="44.28575" lon="7.14811">
        <ele>1137.8</ele>
        <time>2022-07-19T04:19:18Z</time>
      </trkpt>
      <trkpt lat="44.28574" lon="7.14809">
        <ele>1137.8</ele>
        <time>2022-07-19T04:19:19Z</time>
      </trkpt>
      <trkpt lat="44.28573" lon="7.14807">
        <ele>1137.8</ele>
        <time>2022-07-19T04:19:20Z</time>
      </trkpt>
      <trkpt lat="44.28573" lon="7.14805">
        <ele>1138.2</ele>
        <time>2022-07-19T04:19:21Z</time>
      </trkpt>
      <trkpt lat="44.28572" lon="7.14803">
        <ele>1138.2</ele>
        <time>2022-07-19T04:19:22Z</time>
      </trkpt>
      <trkpt lat="44.28571" lon="7.14801">
        <ele>1138.4</ele>
        <time>2022-07-19T04:19:23Z</time>
      </trkpt>
      <trkpt lat="44.2857" lon="7.14799">
        <ele>1138.4</ele>
        <time>2022-07-19T04:19:24Z</time>
      </trkpt>
      <trkpt lat="44.28569" lon="7.14798">
        <ele>1138.6</ele>
        <time>2022-07-19T04:19:25Z</time>
      </trkpt>
      <trkpt lat="44.28569" lon="7.14796">
        <ele>1138.6</ele>
        <time>2022-07-19T04:19:26Z</time>
      </trkpt>
      <trkpt lat="44.28568" lon="7.14794">
        <ele>1139</ele>
        <time>2022-07-19T04:19:27Z</time>
      </trkpt>
      <trkpt lat="44.28567" lon="7.14792">
        <ele>1139</ele>
        <time>2022-07-19T04:19:28Z</time>
      </trkpt>
      <trkpt lat="44.28567" lon="7.14789">
        <ele>1139.2</ele>
        <time>2022-07-19T04:19:29Z</time>
      </trkpt>
      <trkpt lat="44.28566" lon="7.14787">
        <ele>1139.2</ele>
        <time>2022-07-19T04:19:30Z</time>
      </trkpt>
      <trkpt lat="44.28565" lon="7.14785">
        <ele>1139.4</ele>
        <time>2022-07-19T04:19:31Z</time>
      </trkpt>
      <trkpt lat="44.28564" lon="7.14784">
        <ele>1139.4</ele>
        <time>2022-07-19T04:19:32Z</time>
      </trkpt>
      <trkpt lat="44.28563" lon="7.14783">
        <ele>1139.8</ele>
        <time>2022-07-19T04:19:33Z</time>
      </trkpt>
      <trkpt lat="44.28562" lon="7.14781">
        <ele>1139.8</ele>
        <time>2022-07-19T04:19:34Z</time>
      </trkpt>
      <trkpt lat="44.28561" lon="7.1478">
        <ele>1140</ele>
        <time>2022-07-19T04:19:35Z</time>
      </trkpt>
      <trkpt lat="44.2856" lon="7.14778">
        <ele>1140</ele>
        <time>2022-07-19T04:19:36Z</time>
      </trkpt>
      <trkpt lat="44.28559" lon="7.14776">
        <ele>1140.4</ele>
        <time>2022-07-19T04:19:37Z</time>
      </trkpt>
      <trkpt lat="44.28558" lon="7.14775">
        <ele>1140.4</ele>
        <time>2022-07-19T04:19:38Z</time>
      </trkpt>
      <trkpt lat="44.28557" lon="7.14772">
        <ele>1140.6</ele>
        <time>2022-07-19T04:19:39Z</time>
      </trkpt>
      <trkpt lat="44.28557" lon="7.14771">
        <ele>1140.6</ele>
        <time>2022-07-19T04:19:40Z</time>
      </trkpt>
      <trkpt lat="44.28556" lon="7.14769">
        <ele>1141</ele>
        <time>2022-07-19T04:19:41Z</time>
      </trkpt>
      <trkpt lat="44.28555" lon="7.14767">
        <ele>1141</ele>
        <time>2022-07-19T04:19:42Z</time>
      </trkpt>
      <trkpt lat="44.28554" lon="7.14766">
        <ele>1141.2</ele>
        <time>2022-07-19T04:19:43Z</time>
      </trkpt>
      <trkpt lat="44.28554" lon="7.14764">
        <ele>1141.2</ele>
        <time>2022-07-19T04:19:44Z</time>
      </trkpt>
      <trkpt lat="44.28553" lon="7.14762">
        <ele>1141.4</ele>
        <time>2022-07-19T04:19:45Z</time>
      </trkpt>
      <trkpt lat="44.28553" lon="7.1476">
        <ele>1141.4</ele>
        <time>2022-07-19T04:19:46Z</time>
      </trkpt>
      <trkpt lat="44.28552" lon="7.14759">
        <ele>1141.6</ele>
        <time>2022-07-19T04:19:47Z</time>
      </trkpt>
      <trkpt lat="44.28552" lon="7.14757">
        <ele>1141.6</ele>
        <time>2022-07-19T04:19:48Z</time>
      </trkpt>
      <trkpt lat="44.28551" lon="7.14755">
        <ele>1142</ele>
        <time>2022-07-19T04:19:49Z</time>
      </trkpt>
      <trkpt lat="44.28551" lon="7.14752">
        <ele>1142</ele>
        <time>2022-07-19T04:19:50Z</time>
      </trkpt>
      <trkpt lat="44.2855" lon="7.1475">
        <ele>1142.2</ele>
        <time>2022-07-19T04:19:51Z</time>
      </trkpt>
      <trkpt lat="44.28549" lon="7.14747">
        <ele>1142.2</ele>
        <time>2022-07-19T04:19:52Z</time>
      </trkpt>
      <trkpt lat="44.28549" lon="7.14745">
        <ele>1142.4</ele>
        <time>2022-07-19T04:19:53Z</time>
      </trkpt>
      <trkpt lat="44.28548" lon="7.14743">
        <ele>1142.4</ele>
        <time>2022-07-19T04:19:54Z</time>
      </trkpt>
      <trkpt lat="44.28548" lon="7.14741">
        <ele>1142.6</ele>
        <time>2022-07-19T04:19:55Z</time>
      </trkpt>
      <trkpt lat="44.28547" lon="7.14739">
        <ele>1142.6</ele>
        <time>2022-07-19T04:19:56Z</time>
      </trkpt>
      <trkpt lat="44.28546" lon="7.14737">
        <ele>1143</ele>
        <time>2022-07-19T04:19:57Z</time>
      </trkpt>
      <trkpt lat="44.28546" lon="7.14735">
        <ele>1143</ele>
        <time>2022-07-19T04:19:58Z</time>
      </trkpt>
      <trkpt lat="44.28545" lon="7.14732">
        <ele>1143.2</ele>
        <time>2022-07-19T04:19:59Z</time>
      </trkpt>
      <trkpt lat="44.28545" lon="7.1473">
        <ele>1143.2</ele>
        <time>2022-07-19T04:20:00Z</time>
      </trkpt>
      <trkpt lat="44.28544" lon="7.14728">
        <ele>1143.6</ele>
        <time>2022-07-19T04:20:01Z</time>
      </trkpt>
      <trkpt lat="44.28543" lon="7.14726">
        <ele>1143.6</ele>
        <time>2022-07-19T04:20:02Z</time>
      </trkpt>
      <trkpt lat="44.28543" lon="7.14724">
        <ele>1143.8</ele>
        <time>2022-07-19T04:20:03Z</time>
      </trkpt>
      <trkpt lat="44.28542" lon="7.14722">
        <ele>1143.8</ele>
        <time>2022-07-19T04:20:04Z</time>
      </trkpt>
      <trkpt lat="44.28541" lon="7.1472">
        <ele>1144.2</ele>
        <time>2022-07-19T04:20:05Z</time>
      </trkpt>
      <trkpt lat="44.2854" lon="7.14718">
        <ele>1144.2</ele>
        <time>2022-07-19T04:20:06Z</time>
      </trkpt>
      <trkpt lat="44.28539" lon="7.14716">
        <ele>1144.4</ele>
        <time>2022-07-19T04:20:07Z</time>
      </trkpt>
      <trkpt lat="44.28538" lon="7.14714">
        <ele>1144.4</ele>
        <time>2022-07-19T04:20:08Z</time>
      </trkpt>
      <trkpt lat="44.28538" lon="7.14712">
        <ele>1144.8</ele>
        <time>2022-07-19T04:20:09Z</time>
      </trkpt>
      <trkpt lat="44.28537" lon="7.1471">
        <ele>1144.8</ele>
        <time>2022-07-19T04:20:10Z</time>
      </trkpt>
      <trkpt lat="44.28536" lon="7.14709">
        <ele>1145.2</ele>
        <time>2022-07-19T04:20:11Z</time>
      </trkpt>
      <trkpt lat="44.28535" lon="7.14707">
        <ele>1145.2</ele>
        <time>2022-07-19T04:20:12Z</time>
      </trkpt>
      <trkpt lat="44.28533" lon="7.14706">
        <ele>1145.6</ele>
        <time>2022-07-19T04:20:13Z</time>
      </trkpt>
      <trkpt lat="44.28532" lon="7.14704">
        <ele>1145.6</ele>
        <time>2022-07-19T04:20:14Z</time>
      </trkpt>
      <trkpt lat="44.28531" lon="7.14703">
        <ele>1145.8</ele>
        <time>2022-07-19T04:20:15Z</time>
      </trkpt>
      <trkpt lat="44.2853" lon="7.14701">
        <ele>1145.8</ele>
        <time>2022-07-19T04:20:16Z</time>
      </trkpt>
      <trkpt lat="44.28529" lon="7.14699">
        <ele>1146.2</ele>
        <time>2022-07-19T04:20:17Z</time>
      </trkpt>
      <trkpt lat="44.28528" lon="7.14698">
        <ele>1146.2</ele>
        <time>2022-07-19T04:20:18Z</time>
      </trkpt>
      <trkpt lat="44.28527" lon="7.14697">
        <ele>1146.4</ele>
        <time>2022-07-19T04:20:19Z</time>
      </trkpt>
      <trkpt lat="44.28526" lon="7.14696">
        <ele>1146.4</ele>
        <time>2022-07-19T04:20:20Z</time>
      </trkpt>
      <trkpt lat="44.28525" lon="7.14694">
        <ele>1146.8</ele>
        <time>2022-07-19T04:20:21Z</time>
      </trkpt>
      <trkpt lat="44.28524" lon="7.14693">
        <ele>1146.8</ele>
        <time>2022-07-19T04:20:22Z</time>
      </trkpt>
      <trkpt lat="44.28522" lon="7.14692">
        <ele>1147</ele>
        <time>2022-07-19T04:20:23Z</time>
      </trkpt>
      <trkpt lat="44.28521" lon="7.1469">
        <ele>1147</ele>
        <time>2022-07-19T04:20:24Z</time>
      </trkpt>
      <trkpt lat="44.2852" lon="7.14689">
        <ele>1147.4</ele>
        <time>2022-07-19T04:20:25Z</time>
      </trkpt>
      <trkpt lat="44.28519" lon="7.14687">
        <ele>1147.4</ele>
        <time>2022-07-19T04:20:26Z</time>
      </trkpt>
      <trkpt lat="44.28518" lon="7.14686">
        <ele>1147.6</ele>
        <time>2022-07-19T04:20:27Z</time>
      </trkpt>
      <trkpt lat="44.28517" lon="7.14684">
        <ele>1147.6</ele>
        <time>2022-07-19T04:20:28Z</time>
      </trkpt>
      <trkpt lat="44.28516" lon="7.14682">
        <ele>1148</ele>
        <time>2022-07-19T04:20:29Z</time>
      </trkpt>
      <trkpt lat="44.28515" lon="7.14681">
        <ele>1148</ele>
        <time>2022-07-19T04:20:30Z</time>
      </trkpt>
      <trkpt lat="44.28513" lon="7.14679">
        <ele>1148.2</ele>
        <time>2022-07-19T04:20:31Z</time>
      </trkpt>
      <trkpt lat="44.28512" lon="7.14677">
        <ele>1148.4</ele>
        <time>2022-07-19T04:20:32Z</time>
      </trkpt>
      <trkpt lat="44.28511" lon="7.14676">
        <ele>1148.4</ele>
        <time>2022-07-19T04:20:33Z</time>
      </trkpt>
      <trkpt lat="44.28509" lon="7.14674">
        <ele>1148.8</ele>
        <time>2022-07-19T04:20:34Z</time>
      </trkpt>
      <trkpt lat="44.28508" lon="7.14673">
        <ele>1149</ele>
        <time>2022-07-19T04:20:35Z</time>
      </trkpt>
      <trkpt lat="44.28507" lon="7.14671">
        <ele>1149</ele>
        <time>2022-07-19T04:20:36Z</time>
      </trkpt>
      <trkpt lat="44.28506" lon="7.1467">
        <ele>1149.2</ele>
        <time>2022-07-19T04:20:37Z</time>
      </trkpt>
      <trkpt lat="44.28505" lon="7.14668">
        <ele>1149.2</ele>
        <time>2022-07-19T04:20:38Z</time>
      </trkpt>
      <trkpt lat="44.28504" lon="7.14667">
        <ele>1149.6</ele>
        <time>2022-07-19T04:20:39Z</time>
      </trkpt>
      <trkpt lat="44.28503" lon="7.14665">
        <ele>1149.6</ele>
        <time>2022-07-19T04:20:40Z</time>
      </trkpt>
      <trkpt lat="44.28501" lon="7.14664">
        <ele>1149.8</ele>
        <time>2022-07-19T04:20:41Z</time>
      </trkpt>
      <trkpt lat="44.285" lon="7.14663">
        <ele>1149.8</ele>
        <time>2022-07-19T04:20:42Z</time>
      </trkpt>
      <trkpt lat="44.28499" lon="7.14662">
        <ele>1150.2</ele>
        <time>2022-07-19T04:20:43Z</time>
      </trkpt>
      <trkpt lat="44.28498" lon="7.1466">
        <ele>1150.2</ele>
        <time>2022-07-19T04:20:44Z</time>
      </trkpt>
      <trkpt lat="44.28496" lon="7.14659">
        <ele>1150.6</ele>
        <time>2022-07-19T04:20:45Z</time>
      </trkpt>
      <trkpt lat="44.28495" lon="7.14658">
        <ele>1150.6</ele>
        <time>2022-07-19T04:20:46Z</time>
      </trkpt>
      <trkpt lat="44.28494" lon="7.14656">
        <ele>1150.8</ele>
        <time>2022-07-19T04:20:47Z</time>
      </trkpt>
      <trkpt lat="44.28493" lon="7.14655">
        <ele>1150.8</ele>
        <time>2022-07-19T04:20:48Z</time>
      </trkpt>
      <trkpt lat="44.28492" lon="7.14654">
        <ele>1151.2</ele>
        <time>2022-07-19T04:20:49Z</time>
      </trkpt>
      <trkpt lat="44.28491" lon="7.14652">
        <ele>1151.2</ele>
        <time>2022-07-19T04:20:50Z</time>
      </trkpt>
      <trkpt lat="44.2849" lon="7.1465">
        <ele>1151.4</ele>
        <time>2022-07-19T04:20:51Z</time>
      </trkpt>
      <trkpt lat="44.28489" lon="7.14648">
        <ele>1151.4</ele>
        <time>2022-07-19T04:20:52Z</time>
      </trkpt>
      <trkpt lat="44.28489" lon="7.14646">
        <ele>1151.6</ele>
        <time>2022-07-19T04:20:53Z</time>
      </trkpt>
      <trkpt lat="44.28488" lon="7.14644">
        <ele>1151.8</ele>
        <time>2022-07-19T04:20:54Z</time>
      </trkpt>
      <trkpt lat="44.28487" lon="7.14642">
        <ele>1151.8</ele>
        <time>2022-07-19T04:20:55Z</time>
      </trkpt>
      <trkpt lat="44.28487" lon="7.14641">
        <ele>1152.2</ele>
        <time>2022-07-19T04:20:56Z</time>
      </trkpt>
      <trkpt lat="44.28486" lon="7.14639">
        <ele>1152.2</ele>
        <time>2022-07-19T04:20:57Z</time>
      </trkpt>
      <trkpt lat="44.28485" lon="7.14637">
        <ele>1152.4</ele>
        <time>2022-07-19T04:20:58Z</time>
      </trkpt>
      <trkpt lat="44.28485" lon="7.14635">
        <ele>1152.8</ele>
        <time>2022-07-19T04:20:59Z</time>
      </trkpt>
      <trkpt lat="44.28484" lon="7.14633">
        <ele>1153</ele>
        <time>2022-07-19T04:21:00Z</time>
      </trkpt>
      <trkpt lat="44.28484" lon="7.14631">
        <ele>1153</ele>
        <time>2022-07-19T04:21:01Z</time>
      </trkpt>
      <trkpt lat="44.28484" lon="7.14629">
        <ele>1153.2</ele>
        <time>2022-07-19T04:21:02Z</time>
      </trkpt>
      <trkpt lat="44.28483" lon="7.14627">
        <ele>1153.4</ele>
        <time>2022-07-19T04:21:03Z</time>
      </trkpt>
      <trkpt lat="44.28483" lon="7.14625">
        <ele>1153.4</ele>
        <time>2022-07-19T04:21:04Z</time>
      </trkpt>
      <trkpt lat="44.28483" lon="7.14623">
        <ele>1153.6</ele>
        <time>2022-07-19T04:21:05Z</time>
      </trkpt>
      <trkpt lat="44.28482" lon="7.14621">
        <ele>1153.6</ele>
        <time>2022-07-19T04:21:06Z</time>
      </trkpt>
      <trkpt lat="44.28482" lon="7.14619">
        <ele>1153.8</ele>
        <time>2022-07-19T04:21:07Z</time>
      </trkpt>
      <trkpt lat="44.28482" lon="7.14617">
        <ele>1153.8</ele>
        <time>2022-07-19T04:21:08Z</time>
      </trkpt>
      <trkpt lat="44.28481" lon="7.14615">
        <ele>1154.2</ele>
        <time>2022-07-19T04:21:09Z</time>
      </trkpt>
      <trkpt lat="44.28481" lon="7.14613">
        <ele>1154.2</ele>
        <time>2022-07-19T04:21:10Z</time>
      </trkpt>
      <trkpt lat="44.2848" lon="7.14611">
        <ele>1154.6</ele>
        <time>2022-07-19T04:21:11Z</time>
      </trkpt>
      <trkpt lat="44.2848" lon="7.14609">
        <ele>1154.6</ele>
        <time>2022-07-19T04:21:12Z</time>
      </trkpt>
      <trkpt lat="44.2848" lon="7.14607">
        <ele>1155</ele>
        <time>2022-07-19T04:21:13Z</time>
      </trkpt>
      <trkpt lat="44.28479" lon="7.14605">
        <ele>1155</ele>
        <time>2022-07-19T04:21:14Z</time>
      </trkpt>
      <trkpt lat="44.28479" lon="7.14604">
        <ele>1155.2</ele>
        <time>2022-07-19T04:21:15Z</time>
      </trkpt>
      <trkpt lat="44.28478" lon="7.14601">
        <ele>1155.2</ele>
        <time>2022-07-19T04:21:16Z</time>
      </trkpt>
      <trkpt lat="44.28478" lon="7.14599">
        <ele>1155.6</ele>
        <time>2022-07-19T04:21:17Z</time>
      </trkpt>
      <trkpt lat="44.28477" lon="7.14597">
        <ele>1155.8</ele>
        <time>2022-07-19T04:21:18Z</time>
      </trkpt>
      <trkpt lat="44.28476" lon="7.14595">
        <ele>1155.8</ele>
        <time>2022-07-19T04:21:19Z</time>
      </trkpt>
      <trkpt lat="44.28476" lon="7.14593">
        <ele>1156.2</ele>
        <time>2022-07-19T04:21:20Z</time>
      </trkpt>
      <trkpt lat="44.28475" lon="7.14592">
        <ele>1156.2</ele>
        <time>2022-07-19T04:21:21Z</time>
      </trkpt>
      <trkpt lat="44.28474" lon="7.1459">
        <ele>1156.4</ele>
        <time>2022-07-19T04:21:22Z</time>
      </trkpt>
      <trkpt lat="44.28474" lon="7.14589">
        <ele>1156.6</ele>
        <time>2022-07-19T04:21:23Z</time>
      </trkpt>
      <trkpt lat="44.28473" lon="7.14588">
        <ele>1156.6</ele>
        <time>2022-07-19T04:21:24Z</time>
      </trkpt>
      <trkpt lat="44.28472" lon="7.14587">
        <ele>1157</ele>
        <time>2022-07-19T04:21:25Z</time>
      </trkpt>
      <trkpt lat="44.28471" lon="7.14585">
        <ele>1157</ele>
        <time>2022-07-19T04:21:26Z</time>
      </trkpt>
      <trkpt lat="44.2847" lon="7.14584">
        <ele>1157</ele>
        <time>2022-07-19T04:21:27Z</time>
      </trkpt>
      <trkpt lat="44.28469" lon="7.14582">
        <ele>1157.4</ele>
        <time>2022-07-19T04:21:28Z</time>
      </trkpt>
      <trkpt lat="44.28468" lon="7.14581">
        <ele>1157.4</ele>
        <time>2022-07-19T04:21:29Z</time>
      </trkpt>
      <trkpt lat="44.28467" lon="7.14579">
        <ele>1157.6</ele>
        <time>2022-07-19T04:21:30Z</time>
      </trkpt>
      <trkpt lat="44.28466" lon="7.14578">
        <ele>1157.8</ele>
        <time>2022-07-19T04:21:31Z</time>
      </trkpt>
      <trkpt lat="44.28465" lon="7.14576">
        <ele>1157.8</ele>
        <time>2022-07-19T04:21:32Z</time>
      </trkpt>
      <trkpt lat="44.28464" lon="7.14574">
        <ele>1158</ele>
        <time>2022-07-19T04:21:33Z</time>
      </trkpt>
      <trkpt lat="44.28461" lon="7.14572">
        <ele>1158</ele>
        <time>2022-07-19T04:21:34Z</time>
      </trkpt>
      <trkpt lat="44.2846" lon="7.1457">
        <ele>1158.4</ele>
        <time>2022-07-19T04:21:35Z</time>
      </trkpt>
      <trkpt lat="44.28459" lon="7.14569">
        <ele>1158.4</ele>
        <time>2022-07-19T04:21:36Z</time>
      </trkpt>
      <trkpt lat="44.28457" lon="7.14568">
        <ele>1158.6</ele>
        <time>2022-07-19T04:21:37Z</time>
      </trkpt>
      <trkpt lat="44.28456" lon="7.14567">
        <ele>1158.6</ele>
        <time>2022-07-19T04:21:38Z</time>
      </trkpt>
      <trkpt lat="44.28455" lon="7.14566">
        <ele>1158.8</ele>
        <time>2022-07-19T04:21:39Z</time>
      </trkpt>
      <trkpt lat="44.28454" lon="7.14565">
        <ele>1158.8</ele>
        <time>2022-07-19T04:21:40Z</time>
      </trkpt>
      <trkpt lat="44.28452" lon="7.14564">
        <ele>1159</ele>
        <time>2022-07-19T04:21:41Z</time>
      </trkpt>
      <trkpt lat="44.28451" lon="7.14563">
        <ele>1159</ele>
        <time>2022-07-19T04:21:42Z</time>
      </trkpt>
      <trkpt lat="44.2845" lon="7.14562">
        <ele>1159.4</ele>
        <time>2022-07-19T04:21:43Z</time>
      </trkpt>
      <trkpt lat="44.28448" lon="7.14561">
        <ele>1159.4</ele>
        <time>2022-07-19T04:21:44Z</time>
      </trkpt>
      <trkpt lat="44.28447" lon="7.1456">
        <ele>1159.6</ele>
        <time>2022-07-19T04:21:45Z</time>
      </trkpt>
      <trkpt lat="44.28446" lon="7.14559">
        <ele>1159.6</ele>
        <time>2022-07-19T04:21:46Z</time>
      </trkpt>
      <trkpt lat="44.28444" lon="7.14558">
        <ele>1159.8</ele>
        <time>2022-07-19T04:21:47Z</time>
      </trkpt>
      <trkpt lat="44.28443" lon="7.14558">
        <ele>1159.8</ele>
        <time>2022-07-19T04:21:48Z</time>
      </trkpt>
      <trkpt lat="44.28442" lon="7.14557">
        <ele>1160.2</ele>
        <time>2022-07-19T04:21:49Z</time>
      </trkpt>
      <trkpt lat="44.2844" lon="7.14556">
        <ele>1160.2</ele>
        <time>2022-07-19T04:21:50Z</time>
      </trkpt>
      <trkpt lat="44.2844" lon="7.14555">
        <ele>1160.4</ele>
        <time>2022-07-19T04:21:51Z</time>
      </trkpt>
      <trkpt lat="44.28438" lon="7.14554">
        <ele>1160.4</ele>
        <time>2022-07-19T04:21:52Z</time>
      </trkpt>
      <trkpt lat="44.28437" lon="7.14553">
        <ele>1160.8</ele>
        <time>2022-07-19T04:21:53Z</time>
      </trkpt>
      <trkpt lat="44.28436" lon="7.14552">
        <ele>1160.8</ele>
        <time>2022-07-19T04:21:54Z</time>
      </trkpt>
      <trkpt lat="44.28435" lon="7.14551">
        <ele>1161</ele>
        <time>2022-07-19T04:21:55Z</time>
      </trkpt>
      <trkpt lat="44.28434" lon="7.1455">
        <ele>1161</ele>
        <time>2022-07-19T04:21:56Z</time>
      </trkpt>
      <trkpt lat="44.28432" lon="7.14548">
        <ele>1161.2</ele>
        <time>2022-07-19T04:21:57Z</time>
      </trkpt>
      <trkpt lat="44.28431" lon="7.14547">
        <ele>1161.2</ele>
        <time>2022-07-19T04:21:58Z</time>
      </trkpt>
      <trkpt lat="44.2843" lon="7.14546">
        <ele>1161.6</ele>
        <time>2022-07-19T04:21:59Z</time>
      </trkpt>
      <trkpt lat="44.28428" lon="7.14544">
        <ele>1161.6</ele>
        <time>2022-07-19T04:22:00Z</time>
      </trkpt>
      <trkpt lat="44.28427" lon="7.14543">
        <ele>1161.8</ele>
        <time>2022-07-19T04:22:01Z</time>
      </trkpt>
      <trkpt lat="44.28426" lon="7.14542">
        <ele>1161.8</ele>
        <time>2022-07-19T04:22:02Z</time>
      </trkpt>
      <trkpt lat="44.28425" lon="7.14541">
        <ele>1162.2</ele>
        <time>2022-07-19T04:22:03Z</time>
      </trkpt>
      <trkpt lat="44.28423" lon="7.1454">
        <ele>1162.2</ele>
        <time>2022-07-19T04:22:04Z</time>
      </trkpt>
      <trkpt lat="44.28422" lon="7.14539">
        <ele>1162.6</ele>
        <time>2022-07-19T04:22:05Z</time>
      </trkpt>
      <trkpt lat="44.28421" lon="7.14538">
        <ele>1162.6</ele>
        <time>2022-07-19T04:22:06Z</time>
      </trkpt>
      <trkpt lat="44.2842" lon="7.14536">
        <ele>1162.8</ele>
        <time>2022-07-19T04:22:07Z</time>
      </trkpt>
      <trkpt lat="44.28419" lon="7.14535">
        <ele>1162.8</ele>
        <time>2022-07-19T04:22:08Z</time>
      </trkpt>
      <trkpt lat="44.28417" lon="7.14534">
        <ele>1163</ele>
        <time>2022-07-19T04:22:09Z</time>
      </trkpt>
      <trkpt lat="44.28416" lon="7.14533">
        <ele>1163</ele>
        <time>2022-07-19T04:22:10Z</time>
      </trkpt>
      <trkpt lat="44.28415" lon="7.14532">
        <ele>1163.4</ele>
        <time>2022-07-19T04:22:11Z</time>
      </trkpt>
      <trkpt lat="44.28414" lon="7.14531">
        <ele>1163.4</ele>
        <time>2022-07-19T04:22:12Z</time>
      </trkpt>
      <trkpt lat="44.28413" lon="7.1453">
        <ele>1163.6</ele>
        <time>2022-07-19T04:22:13Z</time>
      </trkpt>
      <trkpt lat="44.28411" lon="7.14528">
        <ele>1163.8</ele>
        <time>2022-07-19T04:22:14Z</time>
      </trkpt>
      <trkpt lat="44.2841" lon="7.14527">
        <ele>1163.8</ele>
        <time>2022-07-19T04:22:15Z</time>
      </trkpt>
      <trkpt lat="44.28409" lon="7.14525">
        <ele>1164.2</ele>
        <time>2022-07-19T04:22:16Z</time>
      </trkpt>
      <trkpt lat="44.28408" lon="7.14524">
        <ele>1164.4</ele>
        <time>2022-07-19T04:22:17Z</time>
      </trkpt>
      <trkpt lat="44.28407" lon="7.14523">
        <ele>1164.4</ele>
        <time>2022-07-19T04:22:18Z</time>
      </trkpt>
      <trkpt lat="44.28405" lon="7.14522">
        <ele>1164.6</ele>
        <time>2022-07-19T04:22:19Z</time>
      </trkpt>
      <trkpt lat="44.28404" lon="7.14521">
        <ele>1164.6</ele>
        <time>2022-07-19T04:22:20Z</time>
      </trkpt>
      <trkpt lat="44.28403" lon="7.1452">
        <ele>1164.8</ele>
        <time>2022-07-19T04:22:21Z</time>
      </trkpt>
      <trkpt lat="44.28401" lon="7.14519">
        <ele>1164.8</ele>
        <time>2022-07-19T04:22:22Z</time>
      </trkpt>
      <trkpt lat="44.284" lon="7.14518">
        <ele>1165.4</ele>
        <time>2022-07-19T04:22:23Z</time>
      </trkpt>
      <trkpt lat="44.28399" lon="7.14517">
        <ele>1165.4</ele>
        <time>2022-07-19T04:22:24Z</time>
      </trkpt>
      <trkpt lat="44.28397" lon="7.14516">
        <ele>1165.6</ele>
        <time>2022-07-19T04:22:25Z</time>
      </trkpt>
      <trkpt lat="44.28396" lon="7.14516">
        <ele>1165.6</ele>
        <time>2022-07-19T04:22:26Z</time>
      </trkpt>
      <trkpt lat="44.28395" lon="7.14515">
        <ele>1165.8</ele>
        <time>2022-07-19T04:22:27Z</time>
      </trkpt>
      <trkpt lat="44.28395" lon="7.14513">
        <ele>1165.8</ele>
        <time>2022-07-19T04:22:28Z</time>
      </trkpt>
      <trkpt lat="44.28393" lon="7.14512">
        <ele>1166.2</ele>
        <time>2022-07-19T04:22:29Z</time>
      </trkpt>
      <trkpt lat="44.28392" lon="7.14512">
        <ele>1166.2</ele>
        <time>2022-07-19T04:22:30Z</time>
      </trkpt>
      <trkpt lat="44.28391" lon="7.14511">
        <ele>1166.4</ele>
        <time>2022-07-19T04:22:31Z</time>
      </trkpt>
      <trkpt lat="44.2839" lon="7.1451">
        <ele>1166.4</ele>
        <time>2022-07-19T04:22:32Z</time>
      </trkpt>
      <trkpt lat="44.28389" lon="7.14509">
        <ele>1166.8</ele>
        <time>2022-07-19T04:22:33Z</time>
      </trkpt>
      <trkpt lat="44.28388" lon="7.14508">
        <ele>1166.8</ele>
        <time>2022-07-19T04:22:34Z</time>
      </trkpt>
      <trkpt lat="44.28387" lon="7.14508">
        <ele>1167</ele>
        <time>2022-07-19T04:22:35Z</time>
      </trkpt>
      <trkpt lat="44.28386" lon="7.14507">
        <ele>1167</ele>
        <time>2022-07-19T04:22:36Z</time>
      </trkpt>
      <trkpt lat="44.28385" lon="7.14506">
        <ele>1167.2</ele>
        <time>2022-07-19T04:22:37Z</time>
      </trkpt>
      <trkpt lat="44.28384" lon="7.14505">
        <ele>1167.2</ele>
        <time>2022-07-19T04:22:38Z</time>
      </trkpt>
      <trkpt lat="44.28383" lon="7.14504">
        <ele>1167.6</ele>
        <time>2022-07-19T04:22:39Z</time>
      </trkpt>
      <trkpt lat="44.28382" lon="7.14503">
        <ele>1167.6</ele>
        <time>2022-07-19T04:22:40Z</time>
      </trkpt>
      <trkpt lat="44.2838" lon="7.14502">
        <ele>1167.8</ele>
        <time>2022-07-19T04:22:41Z</time>
      </trkpt>
      <trkpt lat="44.28379" lon="7.14501">
        <ele>1167.8</ele>
        <time>2022-07-19T04:22:42Z</time>
      </trkpt>
      <trkpt lat="44.28378" lon="7.14501">
        <ele>1168.2</ele>
        <time>2022-07-19T04:22:43Z</time>
      </trkpt>
      <trkpt lat="44.28377" lon="7.145">
        <ele>1168.2</ele>
        <time>2022-07-19T04:22:44Z</time>
      </trkpt>
      <trkpt lat="44.28376" lon="7.14499">
        <ele>1168.4</ele>
        <time>2022-07-19T04:22:45Z</time>
      </trkpt>
      <trkpt lat="44.28375" lon="7.14497">
        <ele>1168.4</ele>
        <time>2022-07-19T04:22:46Z</time>
      </trkpt>
      <trkpt lat="44.28374" lon="7.14495">
        <ele>1168.6</ele>
        <time>2022-07-19T04:22:47Z</time>
      </trkpt>
      <trkpt lat="44.28373" lon="7.14494">
        <ele>1168.6</ele>
        <time>2022-07-19T04:22:48Z</time>
      </trkpt>
      <trkpt lat="44.28371" lon="7.14493">
        <ele>1168.6</ele>
        <time>2022-07-19T04:22:49Z</time>
      </trkpt>
      <trkpt lat="44.2837" lon="7.14492">
        <ele>1168.8</ele>
        <time>2022-07-19T04:22:50Z</time>
      </trkpt>
      <trkpt lat="44.28368" lon="7.14491">
        <ele>1168.8</ele>
        <time>2022-07-19T04:22:51Z</time>
      </trkpt>
      <trkpt lat="44.28367" lon="7.1449">
        <ele>1168.8</ele>
        <time>2022-07-19T04:22:52Z</time>
      </trkpt>
      <trkpt lat="44.28366" lon="7.14489">
        <ele>1169.2</ele>
        <time>2022-07-19T04:22:53Z</time>
      </trkpt>
      <trkpt lat="44.28364" lon="7.14488">
        <ele>1169.2</ele>
        <time>2022-07-19T04:22:54Z</time>
      </trkpt>
      <trkpt lat="44.28362" lon="7.14487">
        <ele>1169.6</ele>
        <time>2022-07-19T04:22:55Z</time>
      </trkpt>
      <trkpt lat="44.28361" lon="7.14486">
        <ele>1169.8</ele>
        <time>2022-07-19T04:22:56Z</time>
      </trkpt>
      <trkpt lat="44.28359" lon="7.14485">
        <ele>1169.8</ele>
        <time>2022-07-19T04:22:57Z</time>
      </trkpt>
      <trkpt lat="44.28358" lon="7.14484">
        <ele>1170</ele>
        <time>2022-07-19T04:22:58Z</time>
      </trkpt>
      <trkpt lat="44.28356" lon="7.14482">
        <ele>1170</ele>
        <time>2022-07-19T04:22:59Z</time>
      </trkpt>
      <trkpt lat="44.28355" lon="7.14481">
        <ele>1170.4</ele>
        <time>2022-07-19T04:23:00Z</time>
      </trkpt>
      <trkpt lat="44.28353" lon="7.14481">
        <ele>1170.4</ele>
        <time>2022-07-19T04:23:01Z</time>
      </trkpt>
      <trkpt lat="44.28351" lon="7.1448">
        <ele>1170.6</ele>
        <time>2022-07-19T04:23:02Z</time>
      </trkpt>
      <trkpt lat="44.2835" lon="7.14479">
        <ele>1170.6</ele>
        <time>2022-07-19T04:23:03Z</time>
      </trkpt>
      <trkpt lat="44.28348" lon="7.14478">
        <ele>1170.8</ele>
        <time>2022-07-19T04:23:04Z</time>
      </trkpt>
      <trkpt lat="44.28346" lon="7.14478">
        <ele>1170.8</ele>
        <time>2022-07-19T04:23:05Z</time>
      </trkpt>
      <trkpt lat="44.28344" lon="7.14476">
        <ele>1171.2</ele>
        <time>2022-07-19T04:23:06Z</time>
      </trkpt>
      <trkpt lat="44.28343" lon="7.14475">
        <ele>1171.2</ele>
        <time>2022-07-19T04:23:07Z</time>
      </trkpt>
      <trkpt lat="44.28341" lon="7.14474">
        <ele>1171.4</ele>
        <time>2022-07-19T04:23:08Z</time>
      </trkpt>
      <trkpt lat="44.2834" lon="7.14473">
        <ele>1171.4</ele>
        <time>2022-07-19T04:23:09Z</time>
      </trkpt>
      <trkpt lat="44.28338" lon="7.14472">
        <ele>1171.6</ele>
        <time>2022-07-19T04:23:10Z</time>
      </trkpt>
      <trkpt lat="44.28336" lon="7.14472">
        <ele>1171.6</ele>
        <time>2022-07-19T04:23:11Z</time>
      </trkpt>
      <trkpt lat="44.28335" lon="7.14471">
        <ele>1172</ele>
        <time>2022-07-19T04:23:12Z</time>
      </trkpt>
      <trkpt lat="44.28333" lon="7.1447">
        <ele>1172</ele>
        <time>2022-07-19T04:23:13Z</time>
      </trkpt>
      <trkpt lat="44.28332" lon="7.14469">
        <ele>1172</ele>
        <time>2022-07-19T04:23:14Z</time>
      </trkpt>
      <trkpt lat="44.28329" lon="7.14468">
        <ele>1172.2</ele>
        <time>2022-07-19T04:23:15Z</time>
      </trkpt>
      <trkpt lat="44.28327" lon="7.14468">
        <ele>1172.2</ele>
        <time>2022-07-19T04:23:16Z</time>
      </trkpt>
      <trkpt lat="44.28325" lon="7.14467">
        <ele>1172.4</ele>
        <time>2022-07-19T04:23:17Z</time>
      </trkpt>
      <trkpt lat="44.28322" lon="7.14466">
        <ele>1172.4</ele>
        <time>2022-07-19T04:23:18Z</time>
      </trkpt>
      <trkpt lat="44.2832" lon="7.14465">
        <ele>1172.8</ele>
        <time>2022-07-19T04:23:19Z</time>
      </trkpt>
      <trkpt lat="44.28318" lon="7.14464">
        <ele>1172.8</ele>
        <time>2022-07-19T04:23:20Z</time>
      </trkpt>
      <trkpt lat="44.28316" lon="7.14462">
        <ele>1173</ele>
        <time>2022-07-19T04:23:21Z</time>
      </trkpt>
      <trkpt lat="44.28314" lon="7.14461">
        <ele>1173</ele>
        <time>2022-07-19T04:23:22Z</time>
      </trkpt>
      <trkpt lat="44.28312" lon="7.14459">
        <ele>1173.2</ele>
        <time>2022-07-19T04:23:23Z</time>
      </trkpt>
      <trkpt lat="44.2831" lon="7.14458">
        <ele>1173.2</ele>
        <time>2022-07-19T04:23:24Z</time>
      </trkpt>
      <trkpt lat="44.28308" lon="7.14457">
        <ele>1173.4</ele>
        <time>2022-07-19T04:23:25Z</time>
      </trkpt>
      <trkpt lat="44.28306" lon="7.14456">
        <ele>1173.4</ele>
        <time>2022-07-19T04:23:26Z</time>
      </trkpt>
      <trkpt lat="44.28304" lon="7.14455">
        <ele>1173.8</ele>
        <time>2022-07-19T04:23:27Z</time>
      </trkpt>
      <trkpt lat="44.28302" lon="7.14454">
        <ele>1173.8</ele>
        <time>2022-07-19T04:23:28Z</time>
      </trkpt>
      <trkpt lat="44.283" lon="7.14453">
        <ele>1174</ele>
        <time>2022-07-19T04:23:29Z</time>
      </trkpt>
      <trkpt lat="44.28298" lon="7.14451">
        <ele>1174</ele>
        <time>2022-07-19T04:23:30Z</time>
      </trkpt>
      <trkpt lat="44.28296" lon="7.1445">
        <ele>1174.4</ele>
        <time>2022-07-19T04:23:31Z</time>
      </trkpt>
      <trkpt lat="44.28294" lon="7.14448">
        <ele>1174.4</ele>
        <time>2022-07-19T04:23:32Z</time>
      </trkpt>
      <trkpt lat="44.28292" lon="7.14447">
        <ele>1174.6</ele>
        <time>2022-07-19T04:23:33Z</time>
      </trkpt>
      <trkpt lat="44.2829" lon="7.14445">
        <ele>1174.6</ele>
        <time>2022-07-19T04:23:34Z</time>
      </trkpt>
      <trkpt lat="44.28287" lon="7.14444">
        <ele>1175</ele>
        <time>2022-07-19T04:23:35Z</time>
      </trkpt>
      <trkpt lat="44.28285" lon="7.14442">
        <ele>1175</ele>
        <time>2022-07-19T04:23:36Z</time>
      </trkpt>
      <trkpt lat="44.28283" lon="7.14441">
        <ele>1175.2</ele>
        <time>2022-07-19T04:23:37Z</time>
      </trkpt>
      <trkpt lat="44.28281" lon="7.14439">
        <ele>1175.2</ele>
        <time>2022-07-19T04:23:38Z</time>
      </trkpt>
      <trkpt lat="44.28279" lon="7.14438">
        <ele>1175.4</ele>
        <time>2022-07-19T04:23:39Z</time>
      </trkpt>
      <trkpt lat="44.28277" lon="7.14437">
        <ele>1175.6</ele>
        <time>2022-07-19T04:23:40Z</time>
      </trkpt>
      <trkpt lat="44.28275" lon="7.14436">
        <ele>1175.6</ele>
        <time>2022-07-19T04:23:41Z</time>
      </trkpt>
      <trkpt lat="44.28273" lon="7.14435">
        <ele>1176</ele>
        <time>2022-07-19T04:23:42Z</time>
      </trkpt>
      <trkpt lat="44.28272" lon="7.14435">
        <ele>1176</ele>
        <time>2022-07-19T04:23:43Z</time>
      </trkpt>
      <trkpt lat="44.28269" lon="7.14434">
        <ele>1176</ele>
        <time>2022-07-19T04:23:44Z</time>
      </trkpt>
      <trkpt lat="44.28267" lon="7.14433">
        <ele>1176.2</ele>
        <time>2022-07-19T04:23:45Z</time>
      </trkpt>
      <trkpt lat="44.28265" lon="7.14432">
        <ele>1176.2</ele>
        <time>2022-07-19T04:23:46Z</time>
      </trkpt>
      <trkpt lat="44.28262" lon="7.14431">
        <ele>1176.6</ele>
        <time>2022-07-19T04:23:47Z</time>
      </trkpt>
      <trkpt lat="44.2826" lon="7.1443">
        <ele>1176.6</ele>
        <time>2022-07-19T04:23:48Z</time>
      </trkpt>
      <trkpt lat="44.28258" lon="7.14429">
        <ele>1176.8</ele>
        <time>2022-07-19T04:23:49Z</time>
      </trkpt>
      <trkpt lat="44.28256" lon="7.14427">
        <ele>1176.8</ele>
        <time>2022-07-19T04:23:50Z</time>
      </trkpt>
      <trkpt lat="44.28255" lon="7.14426">
        <ele>1177</ele>
        <time>2022-07-19T04:23:51Z</time>
      </trkpt>
      <trkpt lat="44.28253" lon="7.14425">
        <ele>1177</ele>
        <time>2022-07-19T04:23:52Z</time>
      </trkpt>
      <trkpt lat="44.28251" lon="7.14424">
        <ele>1177.4</ele>
        <time>2022-07-19T04:23:53Z</time>
      </trkpt>
      <trkpt lat="44.28249" lon="7.14423">
        <ele>1177.4</ele>
        <time>2022-07-19T04:23:54Z</time>
      </trkpt>
      <trkpt lat="44.28247" lon="7.14422">
        <ele>1177.8</ele>
        <time>2022-07-19T04:23:55Z</time>
      </trkpt>
      <trkpt lat="44.28245" lon="7.1442">
        <ele>1177.8</ele>
        <time>2022-07-19T04:23:56Z</time>
      </trkpt>
      <trkpt lat="44.28243" lon="7.14418">
        <ele>1178.2</ele>
        <time>2022-07-19T04:23:57Z</time>
      </trkpt>
      <trkpt lat="44.28242" lon="7.14417">
        <ele>1178.4</ele>
        <time>2022-07-19T04:23:58Z</time>
      </trkpt>
      <trkpt lat="44.2824" lon="7.14414">
        <ele>1178.4</ele>
        <time>2022-07-19T04:23:59Z</time>
      </trkpt>
      <trkpt lat="44.28238" lon="7.14412">
        <ele>1178.6</ele>
        <time>2022-07-19T04:24:00Z</time>
      </trkpt>
      <trkpt lat="44.28235" lon="7.14409">
        <ele>1178.6</ele>
        <time>2022-07-19T04:24:01Z</time>
      </trkpt>
      <trkpt lat="44.28233" lon="7.14407">
        <ele>1178.8</ele>
        <time>2022-07-19T04:24:02Z</time>
      </trkpt>
      <trkpt lat="44.28231" lon="7.14405">
        <ele>1178.8</ele>
        <time>2022-07-19T04:24:03Z</time>
      </trkpt>
      <trkpt lat="44.2823" lon="7.14403">
        <ele>1178.8</ele>
        <time>2022-07-19T04:24:04Z</time>
      </trkpt>
      <trkpt lat="44.28228" lon="7.144">
        <ele>1179.2</ele>
        <time>2022-07-19T04:24:05Z</time>
      </trkpt>
      <trkpt lat="44.28226" lon="7.14398">
        <ele>1179.2</ele>
        <time>2022-07-19T04:24:06Z</time>
      </trkpt>
      <trkpt lat="44.28224" lon="7.14396">
        <ele>1179.4</ele>
        <time>2022-07-19T04:24:07Z</time>
      </trkpt>
      <trkpt lat="44.28222" lon="7.14394">
        <ele>1179.4</ele>
        <time>2022-07-19T04:24:08Z</time>
      </trkpt>
      <trkpt lat="44.2822" lon="7.14392">
        <ele>1179.8</ele>
        <time>2022-07-19T04:24:09Z</time>
      </trkpt>
      <trkpt lat="44.28219" lon="7.14391">
        <ele>1179.8</ele>
        <time>2022-07-19T04:24:10Z</time>
      </trkpt>
      <trkpt lat="44.28217" lon="7.1439">
        <ele>1180</ele>
        <time>2022-07-19T04:24:11Z</time>
      </trkpt>
      <trkpt lat="44.28215" lon="7.14388">
        <ele>1180</ele>
        <time>2022-07-19T04:24:12Z</time>
      </trkpt>
      <trkpt lat="44.28213" lon="7.14386">
        <ele>1180.4</ele>
        <time>2022-07-19T04:24:13Z</time>
      </trkpt>
      <trkpt lat="44.28212" lon="7.14385">
        <ele>1180.4</ele>
        <time>2022-07-19T04:24:14Z</time>
      </trkpt>
      <trkpt lat="44.2821" lon="7.14383">
        <ele>1180.6</ele>
        <time>2022-07-19T04:24:15Z</time>
      </trkpt>
      <trkpt lat="44.28209" lon="7.14382">
        <ele>1180.6</ele>
        <time>2022-07-19T04:24:16Z</time>
      </trkpt>
      <trkpt lat="44.28207" lon="7.1438">
        <ele>1180.8</ele>
        <time>2022-07-19T04:24:17Z</time>
      </trkpt>
      <trkpt lat="44.28205" lon="7.14379">
        <ele>1180.8</ele>
        <time>2022-07-19T04:24:18Z</time>
      </trkpt>
      <trkpt lat="44.28204" lon="7.14377">
        <ele>1181.2</ele>
        <time>2022-07-19T04:24:19Z</time>
      </trkpt>
      <trkpt lat="44.28202" lon="7.14376">
        <ele>1181.2</ele>
        <time>2022-07-19T04:24:20Z</time>
      </trkpt>
      <trkpt lat="44.282" lon="7.14375">
        <ele>1181.4</ele>
        <time>2022-07-19T04:24:21Z</time>
      </trkpt>
      <trkpt lat="44.28199" lon="7.14374">
        <ele>1181.4</ele>
        <time>2022-07-19T04:24:22Z</time>
      </trkpt>
      <trkpt lat="44.28197" lon="7.14373">
        <ele>1181.8</ele>
        <time>2022-07-19T04:24:23Z</time>
      </trkpt>
      <trkpt lat="44.28195" lon="7.14372">
        <ele>1181.8</ele>
        <time>2022-07-19T04:24:24Z</time>
      </trkpt>
      <trkpt lat="44.28194" lon="7.14371">
        <ele>1182</ele>
        <time>2022-07-19T04:24:25Z</time>
      </trkpt>
      <trkpt lat="44.28192" lon="7.1437">
        <ele>1182</ele>
        <time>2022-07-19T04:24:26Z</time>
      </trkpt>
      <trkpt lat="44.28191" lon="7.14369">
        <ele>1182.4</ele>
        <time>2022-07-19T04:24:27Z</time>
      </trkpt>
      <trkpt lat="44.28189" lon="7.14368">
        <ele>1182.4</ele>
        <time>2022-07-19T04:24:28Z</time>
      </trkpt>
      <trkpt lat="44.28187" lon="7.14367">
        <ele>1182.8</ele>
        <time>2022-07-19T04:24:29Z</time>
      </trkpt>
      <trkpt lat="44.28186" lon="7.14366">
        <ele>1182.8</ele>
        <time>2022-07-19T04:24:30Z</time>
      </trkpt>
      <trkpt lat="44.28184" lon="7.14366">
        <ele>1183</ele>
        <time>2022-07-19T04:24:31Z</time>
      </trkpt>
      <trkpt lat="44.28183" lon="7.14365">
        <ele>1183</ele>
        <time>2022-07-19T04:24:32Z</time>
      </trkpt>
      <trkpt lat="44.28181" lon="7.14364">
        <ele>1183.4</ele>
        <time>2022-07-19T04:24:33Z</time>
      </trkpt>
      <trkpt lat="44.2818" lon="7.14363">
        <ele>1183.4</ele>
        <time>2022-07-19T04:24:34Z</time>
      </trkpt>
      <trkpt lat="44.28178" lon="7.14362">
        <ele>1183.6</ele>
        <time>2022-07-19T04:24:35Z</time>
      </trkpt>
      <trkpt lat="44.28177" lon="7.14362">
        <ele>1183.6</ele>
        <time>2022-07-19T04:24:36Z</time>
      </trkpt>
      <trkpt lat="44.28175" lon="7.14361">
        <ele>1184</ele>
        <time>2022-07-19T04:24:37Z</time>
      </trkpt>
      <trkpt lat="44.28174" lon="7.14361">
        <ele>1184</ele>
        <time>2022-07-19T04:24:38Z</time>
      </trkpt>
      <trkpt lat="44.28173" lon="7.14361">
        <ele>1184.2</ele>
        <time>2022-07-19T04:24:39Z</time>
      </trkpt>
      <trkpt lat="44.28172" lon="7.1436">
        <ele>1184.2</ele>
        <time>2022-07-19T04:24:40Z</time>
      </trkpt>
      <trkpt lat="44.28171" lon="7.14359">
        <ele>1184.6</ele>
        <time>2022-07-19T04:24:41Z</time>
      </trkpt>
      <trkpt lat="44.28169" lon="7.14359">
        <ele>1184.6</ele>
        <time>2022-07-19T04:24:42Z</time>
      </trkpt>
      <trkpt lat="44.28168" lon="7.14358">
        <ele>1185</ele>
        <time>2022-07-19T04:24:43Z</time>
      </trkpt>
      <trkpt lat="44.28167" lon="7.14357">
        <ele>1185</ele>
        <time>2022-07-19T04:24:44Z</time>
      </trkpt>
      <trkpt lat="44.28166" lon="7.14357">
        <ele>1185.2</ele>
        <time>2022-07-19T04:24:45Z</time>
      </trkpt>
      <trkpt lat="44.28164" lon="7.14356">
        <ele>1185.2</ele>
        <time>2022-07-19T04:24:46Z</time>
      </trkpt>
      <trkpt lat="44.28163" lon="7.14355">
        <ele>1185.6</ele>
        <time>2022-07-19T04:24:47Z</time>
      </trkpt>
      <trkpt lat="44.28161" lon="7.14353">
        <ele>1185.6</ele>
        <time>2022-07-19T04:24:48Z</time>
      </trkpt>
      <trkpt lat="44.2816" lon="7.14352">
        <ele>1185.8</ele>
        <time>2022-07-19T04:24:49Z</time>
      </trkpt>
      <trkpt lat="44.28158" lon="7.14351">
        <ele>1185.8</ele>
        <time>2022-07-19T04:24:50Z</time>
      </trkpt>
      <trkpt lat="44.28157" lon="7.1435">
        <ele>1186</ele>
        <time>2022-07-19T04:24:51Z</time>
      </trkpt>
      <trkpt lat="44.28155" lon="7.14349">
        <ele>1186</ele>
        <time>2022-07-19T04:24:52Z</time>
      </trkpt>
      <trkpt lat="44.28154" lon="7.14348">
        <ele>1186.4</ele>
        <time>2022-07-19T04:24:53Z</time>
      </trkpt>
      <trkpt lat="44.28153" lon="7.14346">
        <ele>1186.4</ele>
        <time>2022-07-19T04:24:54Z</time>
      </trkpt>
      <trkpt lat="44.28152" lon="7.14344">
        <ele>1186.8</ele>
        <time>2022-07-19T04:24:55Z</time>
      </trkpt>
      <trkpt lat="44.2815" lon="7.14342">
        <ele>1186.8</ele>
        <time>2022-07-19T04:24:56Z</time>
      </trkpt>
      <trkpt lat="44.28149" lon="7.14341">
        <ele>1187</ele>
        <time>2022-07-19T04:24:57Z</time>
      </trkpt>
      <trkpt lat="44.28148" lon="7.14339">
        <ele>1187.2</ele>
        <time>2022-07-19T04:24:58Z</time>
      </trkpt>
      <trkpt lat="44.28147" lon="7.14338">
        <ele>1187.2</ele>
        <time>2022-07-19T04:24:59Z</time>
      </trkpt>
      <trkpt lat="44.28145" lon="7.14337">
        <ele>1187.6</ele>
        <time>2022-07-19T04:25:00Z</time>
      </trkpt>
      <trkpt lat="44.28144" lon="7.14335">
        <ele>1187.6</ele>
        <time>2022-07-19T04:25:01Z</time>
      </trkpt>
      <trkpt lat="44.28142" lon="7.14333">
        <ele>1188</ele>
        <time>2022-07-19T04:25:02Z</time>
      </trkpt>
      <trkpt lat="44.28141" lon="7.14331">
        <ele>1188</ele>
        <time>2022-07-19T04:25:03Z</time>
      </trkpt>
      <trkpt lat="44.2814" lon="7.14328">
        <ele>1188.4</ele>
        <time>2022-07-19T04:25:04Z</time>
      </trkpt>
      <trkpt lat="44.28139" lon="7.14326">
        <ele>1188.4</ele>
        <time>2022-07-19T04:25:05Z</time>
      </trkpt>
      <trkpt lat="44.28138" lon="7.14322">
        <ele>1188.8</ele>
        <time>2022-07-19T04:25:06Z</time>
      </trkpt>
      <trkpt lat="44.28137" lon="7.1432">
        <ele>1189</ele>
        <time>2022-07-19T04:25:07Z</time>
      </trkpt>
      <trkpt lat="44.28135" lon="7.14318">
        <ele>1189.2</ele>
        <time>2022-07-19T04:25:08Z</time>
      </trkpt>
      <trkpt lat="44.28134" lon="7.14315">
        <ele>1189.2</ele>
        <time>2022-07-19T04:25:09Z</time>
      </trkpt>
      <trkpt lat="44.28133" lon="7.14313">
        <ele>1189.6</ele>
        <time>2022-07-19T04:25:10Z</time>
      </trkpt>
      <trkpt lat="44.28132" lon="7.14311">
        <ele>1189.6</ele>
        <time>2022-07-19T04:25:11Z</time>
      </trkpt>
      <trkpt lat="44.28132" lon="7.14309">
        <ele>1189.8</ele>
        <time>2022-07-19T04:25:12Z</time>
      </trkpt>
      <trkpt lat="44.28131" lon="7.14308">
        <ele>1190.2</ele>
        <time>2022-07-19T04:25:13Z</time>
      </trkpt>
      <trkpt lat="44.2813" lon="7.14306">
        <ele>1190.2</ele>
        <time>2022-07-19T04:25:14Z</time>
      </trkpt>
      <trkpt lat="44.28129" lon="7.14305">
        <ele>1190.4</ele>
        <time>2022-07-19T04:25:15Z</time>
      </trkpt>
      <trkpt lat="44.28127" lon="7.14303">
        <ele>1190.4</ele>
        <time>2022-07-19T04:25:16Z</time>
      </trkpt>
      <trkpt lat="44.28126" lon="7.143">
        <ele>1190.6</ele>
        <time>2022-07-19T04:25:17Z</time>
      </trkpt>
      <trkpt lat="44.28125" lon="7.14298">
        <ele>1190.6</ele>
        <time>2022-07-19T04:25:18Z</time>
      </trkpt>
      <trkpt lat="44.28124" lon="7.14296">
        <ele>1191</ele>
        <time>2022-07-19T04:25:19Z</time>
      </trkpt>
      <trkpt lat="44.28123" lon="7.14295">
        <ele>1191</ele>
        <time>2022-07-19T04:25:20Z</time>
      </trkpt>
      <trkpt lat="44.28122" lon="7.14293">
        <ele>1191.4</ele>
        <time>2022-07-19T04:25:21Z</time>
      </trkpt>
      <trkpt lat="44.28121" lon="7.14291">
        <ele>1191.4</ele>
        <time>2022-07-19T04:25:22Z</time>
      </trkpt>
      <trkpt lat="44.2812" lon="7.1429">
        <ele>1191.6</ele>
        <time>2022-07-19T04:25:23Z</time>
      </trkpt>
      <trkpt lat="44.28119" lon="7.14289">
        <ele>1191.6</ele>
        <time>2022-07-19T04:25:24Z</time>
      </trkpt>
      <trkpt lat="44.28118" lon="7.14287">
        <ele>1192</ele>
        <time>2022-07-19T04:25:25Z</time>
      </trkpt>
      <trkpt lat="44.28117" lon="7.14286">
        <ele>1192</ele>
        <time>2022-07-19T04:25:26Z</time>
      </trkpt>
      <trkpt lat="44.28115" lon="7.14285">
        <ele>1192.2</ele>
        <time>2022-07-19T04:25:27Z</time>
      </trkpt>
      <trkpt lat="44.28114" lon="7.14283">
        <ele>1192.2</ele>
        <time>2022-07-19T04:25:28Z</time>
      </trkpt>
      <trkpt lat="44.28113" lon="7.14282">
        <ele>1192.6</ele>
        <time>2022-07-19T04:25:29Z</time>
      </trkpt>
      <trkpt lat="44.28112" lon="7.1428">
        <ele>1192.8</ele>
        <time>2022-07-19T04:25:30Z</time>
      </trkpt>
      <trkpt lat="44.28111" lon="7.14279">
        <ele>1192.8</ele>
        <time>2022-07-19T04:25:31Z</time>
      </trkpt>
      <trkpt lat="44.2811" lon="7.14277">
        <ele>1193</ele>
        <time>2022-07-19T04:25:32Z</time>
      </trkpt>
      <trkpt lat="44.28109" lon="7.14276">
        <ele>1193</ele>
        <time>2022-07-19T04:25:33Z</time>
      </trkpt>
      <trkpt lat="44.28108" lon="7.14274">
        <ele>1193.4</ele>
        <time>2022-07-19T04:25:34Z</time>
      </trkpt>
      <trkpt lat="44.28107" lon="7.14273">
        <ele>1193.4</ele>
        <time>2022-07-19T04:25:35Z</time>
      </trkpt>
      <trkpt lat="44.28106" lon="7.14272">
        <ele>1193.6</ele>
        <time>2022-07-19T04:25:36Z</time>
      </trkpt>
      <trkpt lat="44.28105" lon="7.1427">
        <ele>1193.6</ele>
        <time>2022-07-19T04:25:37Z</time>
      </trkpt>
      <trkpt lat="44.28105" lon="7.14268">
        <ele>1193.6</ele>
        <time>2022-07-19T04:25:38Z</time>
      </trkpt>
      <trkpt lat="44.28104" lon="7.14266">
        <ele>1193.6</ele>
        <time>2022-07-19T04:25:39Z</time>
      </trkpt>
      <trkpt lat="44.28102" lon="7.14265">
        <ele>1194</ele>
        <time>2022-07-19T04:25:40Z</time>
      </trkpt>
      <trkpt lat="44.28101" lon="7.14264">
        <ele>1194</ele>
        <time>2022-07-19T04:25:41Z</time>
      </trkpt>
      <trkpt lat="44.281" lon="7.14262">
        <ele>1194.2</ele>
        <time>2022-07-19T04:25:42Z</time>
      </trkpt>
      <trkpt lat="44.28099" lon="7.14261">
        <ele>1194.2</ele>
        <time>2022-07-19T04:25:43Z</time>
      </trkpt>
      <trkpt lat="44.28098" lon="7.14259">
        <ele>1194.6</ele>
        <time>2022-07-19T04:25:44Z</time>
      </trkpt>
      <trkpt lat="44.28097" lon="7.14258">
        <ele>1194.6</ele>
        <time>2022-07-19T04:25:45Z</time>
      </trkpt>
      <trkpt lat="44.28096" lon="7.14256">
        <ele>1194.8</ele>
        <time>2022-07-19T04:25:46Z</time>
      </trkpt>
      <trkpt lat="44.28095" lon="7.14255">
        <ele>1195</ele>
        <time>2022-07-19T04:25:47Z</time>
      </trkpt>
      <trkpt lat="44.28094" lon="7.14254">
        <ele>1195.4</ele>
        <time>2022-07-19T04:25:48Z</time>
      </trkpt>
      <trkpt lat="44.28093" lon="7.14253">
        <ele>1195.4</ele>
        <time>2022-07-19T04:25:49Z</time>
      </trkpt>
      <trkpt lat="44.28092" lon="7.14251">
        <ele>1195.6</ele>
        <time>2022-07-19T04:25:50Z</time>
      </trkpt>
      <trkpt lat="44.28091" lon="7.14249">
        <ele>1195.6</ele>
        <time>2022-07-19T04:25:51Z</time>
      </trkpt>
      <trkpt lat="44.2809" lon="7.14248">
        <ele>1196</ele>
        <time>2022-07-19T04:25:53Z</time>
      </trkpt>
      <trkpt lat="44.28088" lon="7.14246">
        <ele>1196.4</ele>
        <time>2022-07-19T04:25:54Z</time>
      </trkpt>
      <trkpt lat="44.28087" lon="7.14245">
        <ele>1196.4</ele>
        <time>2022-07-19T04:25:55Z</time>
      </trkpt>
      <trkpt lat="44.28086" lon="7.14243">
        <ele>1196.8</ele>
        <time>2022-07-19T04:25:56Z</time>
      </trkpt>
      <trkpt lat="44.28085" lon="7.14242">
        <ele>1196.8</ele>
        <time>2022-07-19T04:25:57Z</time>
      </trkpt>
      <trkpt lat="44.28084" lon="7.14241">
        <ele>1197</ele>
        <time>2022-07-19T04:25:58Z</time>
      </trkpt>
      <trkpt lat="44.28083" lon="7.1424">
        <ele>1197.2</ele>
        <time>2022-07-19T04:25:59Z</time>
      </trkpt>
      <trkpt lat="44.28081" lon="7.14238">
        <ele>1197.2</ele>
        <time>2022-07-19T04:26:00Z</time>
      </trkpt>
      <trkpt lat="44.2808" lon="7.14237">
        <ele>1197.6</ele>
        <time>2022-07-19T04:26:01Z</time>
      </trkpt>
      <trkpt lat="44.28079" lon="7.14235">
        <ele>1197.6</ele>
        <time>2022-07-19T04:26:02Z</time>
      </trkpt>
      <trkpt lat="44.28078" lon="7.14234">
        <ele>1198</ele>
        <time>2022-07-19T04:26:03Z</time>
      </trkpt>
      <trkpt lat="44.28077" lon="7.14233">
        <ele>1198</ele>
        <time>2022-07-19T04:26:04Z</time>
      </trkpt>
      <trkpt lat="44.28076" lon="7.14231">
        <ele>1198.2</ele>
        <time>2022-07-19T04:26:05Z</time>
      </trkpt>
      <trkpt lat="44.28075" lon="7.1423">
        <ele>1198.2</ele>
        <time>2022-07-19T04:26:06Z</time>
      </trkpt>
      <trkpt lat="44.28073" lon="7.14228">
        <ele>1198.4</ele>
        <time>2022-07-19T04:26:07Z</time>
      </trkpt>
      <trkpt lat="44.28072" lon="7.14227">
        <ele>1198.4</ele>
        <time>2022-07-19T04:26:08Z</time>
      </trkpt>
      <trkpt lat="44.28071" lon="7.14225">
        <ele>1198.8</ele>
        <time>2022-07-19T04:26:09Z</time>
      </trkpt>
      <trkpt lat="44.2807" lon="7.14224">
        <ele>1198.8</ele>
        <time>2022-07-19T04:26:10Z</time>
      </trkpt>
      <trkpt lat="44.28069" lon="7.14222">
        <ele>1199.2</ele>
        <time>2022-07-19T04:26:11Z</time>
      </trkpt>
      <trkpt lat="44.28067" lon="7.14221">
        <ele>1199.2</ele>
        <time>2022-07-19T04:26:12Z</time>
      </trkpt>
      <trkpt lat="44.28066" lon="7.1422">
        <ele>1199.4</ele>
        <time>2022-07-19T04:26:13Z</time>
      </trkpt>
      <trkpt lat="44.28064" lon="7.14218">
        <ele>1199.4</ele>
        <time>2022-07-19T04:26:14Z</time>
      </trkpt>
      <trkpt lat="44.28063" lon="7.14216">
        <ele>1199.8</ele>
        <time>2022-07-19T04:26:15Z</time>
      </trkpt>
      <trkpt lat="44.28062" lon="7.14215">
        <ele>1199.8</ele>
        <time>2022-07-19T04:26:16Z</time>
      </trkpt>
      <trkpt lat="44.2806" lon="7.14213">
        <ele>1200.2</ele>
        <time>2022-07-19T04:26:17Z</time>
      </trkpt>
      <trkpt lat="44.28059" lon="7.14212">
        <ele>1200.2</ele>
        <time>2022-07-19T04:26:18Z</time>
      </trkpt>
      <trkpt lat="44.28058" lon="7.1421">
        <ele>1200.4</ele>
        <time>2022-07-19T04:26:19Z</time>
      </trkpt>
      <trkpt lat="44.28057" lon="7.14209">
        <ele>1200.4</ele>
        <time>2022-07-19T04:26:20Z</time>
      </trkpt>
      <trkpt lat="44.28055" lon="7.14208">
        <ele>1200.8</ele>
        <time>2022-07-19T04:26:21Z</time>
      </trkpt>
      <trkpt lat="44.28054" lon="7.14206">
        <ele>1200.8</ele>
        <time>2022-07-19T04:26:22Z</time>
      </trkpt>
      <trkpt lat="44.28053" lon="7.14205">
        <ele>1201</ele>
        <time>2022-07-19T04:26:23Z</time>
      </trkpt>
      <trkpt lat="44.28051" lon="7.14204">
        <ele>1201</ele>
        <time>2022-07-19T04:26:24Z</time>
      </trkpt>
      <trkpt lat="44.2805" lon="7.14202">
        <ele>1201.4</ele>
        <time>2022-07-19T04:26:25Z</time>
      </trkpt>
      <trkpt lat="44.28048" lon="7.14201">
        <ele>1201.4</ele>
        <time>2022-07-19T04:26:26Z</time>
      </trkpt>
      <trkpt lat="44.28047" lon="7.142">
        <ele>1201.6</ele>
        <time>2022-07-19T04:26:27Z</time>
      </trkpt>
      <trkpt lat="44.28045" lon="7.14199">
        <ele>1201.6</ele>
        <time>2022-07-19T04:26:28Z</time>
      </trkpt>
      <trkpt lat="44.28044" lon="7.14198">
        <ele>1202</ele>
        <time>2022-07-19T04:26:29Z</time>
      </trkpt>
      <trkpt lat="44.28042" lon="7.14197">
        <ele>1202</ele>
        <time>2022-07-19T04:26:30Z</time>
      </trkpt>
      <trkpt lat="44.28041" lon="7.14196">
        <ele>1202.2</ele>
        <time>2022-07-19T04:26:31Z</time>
      </trkpt>
      <trkpt lat="44.28039" lon="7.14195">
        <ele>1202.2</ele>
        <time>2022-07-19T04:26:32Z</time>
      </trkpt>
      <trkpt lat="44.28037" lon="7.14195">
        <ele>1202.4</ele>
        <time>2022-07-19T04:26:33Z</time>
      </trkpt>
      <trkpt lat="44.28036" lon="7.14194">
        <ele>1202.8</ele>
        <time>2022-07-19T04:26:34Z</time>
      </trkpt>
      <trkpt lat="44.28034" lon="7.14193">
        <ele>1202.8</ele>
        <time>2022-07-19T04:26:35Z</time>
      </trkpt>
      <trkpt lat="44.28033" lon="7.14192">
        <ele>1203</ele>
        <time>2022-07-19T04:26:36Z</time>
      </trkpt>
      <trkpt lat="44.28031" lon="7.14191">
        <ele>1203.2</ele>
        <time>2022-07-19T04:26:37Z</time>
      </trkpt>
      <trkpt lat="44.2803" lon="7.1419">
        <ele>1203.2</ele>
        <time>2022-07-19T04:26:38Z</time>
      </trkpt>
      <trkpt lat="44.28028" lon="7.14189">
        <ele>1203.6</ele>
        <time>2022-07-19T04:26:39Z</time>
      </trkpt>
      <trkpt lat="44.28027" lon="7.14188">
        <ele>1203.6</ele>
        <time>2022-07-19T04:26:40Z</time>
      </trkpt>
      <trkpt lat="44.28025" lon="7.14187">
        <ele>1204</ele>
        <time>2022-07-19T04:26:41Z</time>
      </trkpt>
      <trkpt lat="44.28024" lon="7.14186">
        <ele>1204</ele>
        <time>2022-07-19T04:26:42Z</time>
      </trkpt>
      <trkpt lat="44.28023" lon="7.14186">
        <ele>1204.2</ele>
        <time>2022-07-19T04:26:43Z</time>
      </trkpt>
      <trkpt lat="44.28021" lon="7.14185">
        <ele>1204.2</ele>
        <time>2022-07-19T04:26:44Z</time>
      </trkpt>
      <trkpt lat="44.2802" lon="7.14184">
        <ele>1204.6</ele>
        <time>2022-07-19T04:26:45Z</time>
      </trkpt>
      <trkpt lat="44.28019" lon="7.14183">
        <ele>1204.6</ele>
        <time>2022-07-19T04:26:46Z</time>
      </trkpt>
      <trkpt lat="44.28017" lon="7.14182">
        <ele>1204.6</ele>
        <time>2022-07-19T04:26:47Z</time>
      </trkpt>
      <trkpt lat="44.28016" lon="7.14181">
        <ele>1204.8</ele>
        <time>2022-07-19T04:26:48Z</time>
      </trkpt>
      <trkpt lat="44.28014" lon="7.14181">
        <ele>1204.8</ele>
        <time>2022-07-19T04:26:49Z</time>
      </trkpt>
      <trkpt lat="44.28013" lon="7.14181">
        <ele>1205.2</ele>
        <time>2022-07-19T04:26:50Z</time>
      </trkpt>
      <trkpt lat="44.28012" lon="7.1418">
        <ele>1205.2</ele>
        <time>2022-07-19T04:26:51Z</time>
      </trkpt>
      <trkpt lat="44.28011" lon="7.14179">
        <ele>1205.4</ele>
        <time>2022-07-19T04:26:52Z</time>
      </trkpt>
      <trkpt lat="44.28009" lon="7.14178">
        <ele>1205.4</ele>
        <time>2022-07-19T04:26:53Z</time>
      </trkpt>
      <trkpt lat="44.28008" lon="7.14177">
        <ele>1205.8</ele>
        <time>2022-07-19T04:26:54Z</time>
      </trkpt>
      <trkpt lat="44.28007" lon="7.14176">
        <ele>1206</ele>
        <time>2022-07-19T04:26:55Z</time>
      </trkpt>
      <trkpt lat="44.28006" lon="7.14175">
        <ele>1206</ele>
        <time>2022-07-19T04:26:56Z</time>
      </trkpt>
      <trkpt lat="44.28004" lon="7.14175">
        <ele>1206.2</ele>
        <time>2022-07-19T04:26:57Z</time>
      </trkpt>
      <trkpt lat="44.28003" lon="7.14174">
        <ele>1206.2</ele>
        <time>2022-07-19T04:26:58Z</time>
      </trkpt>
      <trkpt lat="44.28001" lon="7.14174">
        <ele>1206.6</ele>
        <time>2022-07-19T04:26:59Z</time>
      </trkpt>
      <trkpt lat="44.28" lon="7.14173">
        <ele>1206.6</ele>
        <time>2022-07-19T04:27:00Z</time>
      </trkpt>
      <trkpt lat="44.27999" lon="7.14173">
        <ele>1206.8</ele>
        <time>2022-07-19T04:27:01Z</time>
      </trkpt>
      <trkpt lat="44.27998" lon="7.14172">
        <ele>1206.8</ele>
        <time>2022-07-19T04:27:02Z</time>
      </trkpt>
      <trkpt lat="44.27996" lon="7.14172">
        <ele>1207.2</ele>
        <time>2022-07-19T04:27:03Z</time>
      </trkpt>
      <trkpt lat="44.27994" lon="7.14171">
        <ele>1207.2</ele>
        <time>2022-07-19T04:27:04Z</time>
      </trkpt>
      <trkpt lat="44.27993" lon="7.14171">
        <ele>1207.4</ele>
        <time>2022-07-19T04:27:05Z</time>
      </trkpt>
      <trkpt lat="44.27991" lon="7.14171">
        <ele>1207.4</ele>
        <time>2022-07-19T04:27:06Z</time>
      </trkpt>
      <trkpt lat="44.2799" lon="7.1417">
        <ele>1207.6</ele>
        <time>2022-07-19T04:27:07Z</time>
      </trkpt>
      <trkpt lat="44.27989" lon="7.14169">
        <ele>1207.6</ele>
        <time>2022-07-19T04:27:08Z</time>
      </trkpt>
      <trkpt lat="44.27988" lon="7.14169">
        <ele>1207.8</ele>
        <time>2022-07-19T04:27:09Z</time>
      </trkpt>
      <trkpt lat="44.27986" lon="7.14168">
        <ele>1207.8</ele>
        <time>2022-07-19T04:27:10Z</time>
      </trkpt>
      <trkpt lat="44.27984" lon="7.14168">
        <ele>1207.8</ele>
        <time>2022-07-19T04:27:11Z</time>
      </trkpt>
      <trkpt lat="44.27982" lon="7.14168">
        <ele>1208</ele>
        <time>2022-07-19T04:27:12Z</time>
      </trkpt>
      <trkpt lat="44.27981" lon="7.14168">
        <ele>1208</ele>
        <time>2022-07-19T04:27:13Z</time>
      </trkpt>
      <trkpt lat="44.27979" lon="7.14168">
        <ele>1208.4</ele>
        <time>2022-07-19T04:27:14Z</time>
      </trkpt>
      <trkpt lat="44.27978" lon="7.14168">
        <ele>1208.4</ele>
        <time>2022-07-19T04:27:15Z</time>
      </trkpt>
      <trkpt lat="44.27977" lon="7.14167">
        <ele>1208.4</ele>
        <time>2022-07-19T04:27:16Z</time>
      </trkpt>
      <trkpt lat="44.27975" lon="7.14167">
        <ele>1208.6</ele>
        <time>2022-07-19T04:27:17Z</time>
      </trkpt>
      <trkpt lat="44.27974" lon="7.14166">
        <ele>1208.6</ele>
        <time>2022-07-19T04:27:18Z</time>
      </trkpt>
      <trkpt lat="44.27973" lon="7.14165">
        <ele>1208.6</ele>
        <time>2022-07-19T04:27:19Z</time>
      </trkpt>
      <trkpt lat="44.27971" lon="7.14165">
        <ele>1209</ele>
        <time>2022-07-19T04:27:20Z</time>
      </trkpt>
      <trkpt lat="44.2797" lon="7.14164">
        <ele>1209</ele>
        <time>2022-07-19T04:27:21Z</time>
      </trkpt>
      <trkpt lat="44.27968" lon="7.14164">
        <ele>1209</ele>
        <time>2022-07-19T04:27:22Z</time>
      </trkpt>
      <trkpt lat="44.27967" lon="7.14163">
        <ele>1209.2</ele>
        <time>2022-07-19T04:27:23Z</time>
      </trkpt>
      <trkpt lat="44.27965" lon="7.14162">
        <ele>1209.2</ele>
        <time>2022-07-19T04:27:24Z</time>
      </trkpt>
      <trkpt lat="44.27964" lon="7.14161">
        <ele>1209.6</ele>
        <time>2022-07-19T04:27:25Z</time>
      </trkpt>
      <trkpt lat="44.27962" lon="7.1416">
        <ele>1209.6</ele>
        <time>2022-07-19T04:27:26Z</time>
      </trkpt>
      <trkpt lat="44.27961" lon="7.1416">
        <ele>1209.8</ele>
        <time>2022-07-19T04:27:27Z</time>
      </trkpt>
      <trkpt lat="44.27959" lon="7.1416">
        <ele>1209.8</ele>
        <time>2022-07-19T04:27:28Z</time>
      </trkpt>
      <trkpt lat="44.27957" lon="7.1416">
        <ele>1210.2</ele>
        <time>2022-07-19T04:27:29Z</time>
      </trkpt>
      <trkpt lat="44.27955" lon="7.14159">
        <ele>1210.2</ele>
        <time>2022-07-19T04:27:30Z</time>
      </trkpt>
      <trkpt lat="44.27954" lon="7.14159">
        <ele>1210.4</ele>
        <time>2022-07-19T04:27:31Z</time>
      </trkpt>
      <trkpt lat="44.27952" lon="7.1416">
        <ele>1210.4</ele>
        <time>2022-07-19T04:27:32Z</time>
      </trkpt>
      <trkpt lat="44.2795" lon="7.14159">
        <ele>1210.8</ele>
        <time>2022-07-19T04:27:33Z</time>
      </trkpt>
      <trkpt lat="44.27949" lon="7.14158">
        <ele>1210.8</ele>
        <time>2022-07-19T04:27:34Z</time>
      </trkpt>
      <trkpt lat="44.27947" lon="7.14157">
        <ele>1211</ele>
        <time>2022-07-19T04:27:35Z</time>
      </trkpt>
      <trkpt lat="44.27945" lon="7.14156">
        <ele>1211</ele>
        <time>2022-07-19T04:27:36Z</time>
      </trkpt>
      <trkpt lat="44.27943" lon="7.14156">
        <ele>1211.4</ele>
        <time>2022-07-19T04:27:37Z</time>
      </trkpt>
      <trkpt lat="44.27941" lon="7.14155">
        <ele>1211.4</ele>
        <time>2022-07-19T04:27:38Z</time>
      </trkpt>
      <trkpt lat="44.2794" lon="7.14155">
        <ele>1211.8</ele>
        <time>2022-07-19T04:27:39Z</time>
      </trkpt>
      <trkpt lat="44.27939" lon="7.14155">
        <ele>1211.8</ele>
        <time>2022-07-19T04:27:40Z</time>
      </trkpt>
      <trkpt lat="44.27937" lon="7.14154">
        <ele>1212</ele>
        <time>2022-07-19T04:27:41Z</time>
      </trkpt>
      <trkpt lat="44.27936" lon="7.14153">
        <ele>1212.2</ele>
        <time>2022-07-19T04:27:42Z</time>
      </trkpt>
      <trkpt lat="44.27934" lon="7.14153">
        <ele>1212.2</ele>
        <time>2022-07-19T04:27:43Z</time>
      </trkpt>
      <trkpt lat="44.27933" lon="7.14152">
        <ele>1212.6</ele>
        <time>2022-07-19T04:27:44Z</time>
      </trkpt>
      <trkpt lat="44.27932" lon="7.14152">
        <ele>1212.6</ele>
        <time>2022-07-19T04:27:45Z</time>
      </trkpt>
      <trkpt lat="44.2793" lon="7.14151">
        <ele>1213</ele>
        <time>2022-07-19T04:27:46Z</time>
      </trkpt>
      <trkpt lat="44.27929" lon="7.14151">
        <ele>1213</ele>
        <time>2022-07-19T04:27:47Z</time>
      </trkpt>
      <trkpt lat="44.27928" lon="7.14151">
        <ele>1213.2</ele>
        <time>2022-07-19T04:27:48Z</time>
      </trkpt>
      <trkpt lat="44.27926" lon="7.1415">
        <ele>1213.2</ele>
        <time>2022-07-19T04:27:49Z</time>
      </trkpt>
      <trkpt lat="44.27925" lon="7.14149">
        <ele>1213.4</ele>
        <time>2022-07-19T04:27:50Z</time>
      </trkpt>
      <trkpt lat="44.27924" lon="7.14149">
        <ele>1213.4</ele>
        <time>2022-07-19T04:27:51Z</time>
      </trkpt>
      <trkpt lat="44.27922" lon="7.14149">
        <ele>1213.8</ele>
        <time>2022-07-19T04:27:52Z</time>
      </trkpt>
      <trkpt lat="44.27921" lon="7.14149">
        <ele>1213.8</ele>
        <time>2022-07-19T04:27:53Z</time>
      </trkpt>
      <trkpt lat="44.27919" lon="7.14148">
        <ele>1214</ele>
        <time>2022-07-19T04:27:54Z</time>
      </trkpt>
      <trkpt lat="44.27917" lon="7.14148">
        <ele>1214</ele>
        <time>2022-07-19T04:27:55Z</time>
      </trkpt>
      <trkpt lat="44.27916" lon="7.14148">
        <ele>1214.4</ele>
        <time>2022-07-19T04:27:56Z</time>
      </trkpt>
      <trkpt lat="44.27914" lon="7.14148">
        <ele>1214.6</ele>
        <time>2022-07-19T04:27:57Z</time>
      </trkpt>
      <trkpt lat="44.27913" lon="7.14148">
        <ele>1214.8</ele>
        <time>2022-07-19T04:27:58Z</time>
      </trkpt>
      <trkpt lat="44.27911" lon="7.14148">
        <ele>1215</ele>
        <time>2022-07-19T04:27:59Z</time>
      </trkpt>
      <trkpt lat="44.2791" lon="7.14147">
        <ele>1215</ele>
        <time>2022-07-19T04:28:00Z</time>
      </trkpt>
      <trkpt lat="44.27908" lon="7.14147">
        <ele>1215.4</ele>
        <time>2022-07-19T04:28:01Z</time>
      </trkpt>
      <trkpt lat="44.27907" lon="7.14146">
        <ele>1215.6</ele>
        <time>2022-07-19T04:28:02Z</time>
      </trkpt>
      <trkpt lat="44.27906" lon="7.14146">
        <ele>1215.6</ele>
        <time>2022-07-19T04:28:03Z</time>
      </trkpt>
      <trkpt lat="44.27904" lon="7.14146">
        <ele>1215.8</ele>
        <time>2022-07-19T04:28:04Z</time>
      </trkpt>
      <trkpt lat="44.27903" lon="7.14146">
        <ele>1215.8</ele>
        <time>2022-07-19T04:28:05Z</time>
      </trkpt>
      <trkpt lat="44.27901" lon="7.14146">
        <ele>1216.2</ele>
        <time>2022-07-19T04:28:06Z</time>
      </trkpt>
      <trkpt lat="44.279" lon="7.14146">
        <ele>1216.2</ele>
        <time>2022-07-19T04:28:07Z</time>
      </trkpt>
      <trkpt lat="44.27898" lon="7.14146">
        <ele>1216.6</ele>
        <time>2022-07-19T04:28:08Z</time>
      </trkpt>
      <trkpt lat="44.27897" lon="7.14145">
        <ele>1216.6</ele>
        <time>2022-07-19T04:28:09Z</time>
      </trkpt>
      <trkpt lat="44.27896" lon="7.14145">
        <ele>1216.8</ele>
        <time>2022-07-19T04:28:10Z</time>
      </trkpt>
      <trkpt lat="44.27894" lon="7.14144">
        <ele>1217.2</ele>
        <time>2022-07-19T04:28:11Z</time>
      </trkpt>
      <trkpt lat="44.27893" lon="7.14143">
        <ele>1217.4</ele>
        <time>2022-07-19T04:28:12Z</time>
      </trkpt>
      <trkpt lat="44.27891" lon="7.14142">
        <ele>1217.4</ele>
        <time>2022-07-19T04:28:13Z</time>
      </trkpt>
      <trkpt lat="44.2789" lon="7.1414">
        <ele>1217.6</ele>
        <time>2022-07-19T04:28:14Z</time>
      </trkpt>
      <trkpt lat="44.27888" lon="7.14139">
        <ele>1217.8</ele>
        <time>2022-07-19T04:28:15Z</time>
      </trkpt>
      <trkpt lat="44.27886" lon="7.14138">
        <ele>1217.8</ele>
        <time>2022-07-19T04:28:16Z</time>
      </trkpt>
      <trkpt lat="44.27885" lon="7.14138">
        <ele>1218.2</ele>
        <time>2022-07-19T04:28:17Z</time>
      </trkpt>
      <trkpt lat="44.27883" lon="7.14137">
        <ele>1218.2</ele>
        <time>2022-07-19T04:28:18Z</time>
      </trkpt>
      <trkpt lat="44.27882" lon="7.14135">
        <ele>1218.4</ele>
        <time>2022-07-19T04:28:19Z</time>
      </trkpt>
      <trkpt lat="44.2788" lon="7.14133">
        <ele>1218.4</ele>
        <time>2022-07-19T04:28:20Z</time>
      </trkpt>
      <trkpt lat="44.27878" lon="7.14131">
        <ele>1218.8</ele>
        <time>2022-07-19T04:28:21Z</time>
      </trkpt>
      <trkpt lat="44.27876" lon="7.14129">
        <ele>1218.8</ele>
        <time>2022-07-19T04:28:22Z</time>
      </trkpt>
      <trkpt lat="44.27875" lon="7.14128">
        <ele>1219.2</ele>
        <time>2022-07-19T04:28:23Z</time>
      </trkpt>
      <trkpt lat="44.27873" lon="7.14126">
        <ele>1219.2</ele>
        <time>2022-07-19T04:28:24Z</time>
      </trkpt>
      <trkpt lat="44.27871" lon="7.14125">
        <ele>1219.4</ele>
        <time>2022-07-19T04:28:25Z</time>
      </trkpt>
      <trkpt lat="44.27868" lon="7.14122">
        <ele>1219.4</ele>
        <time>2022-07-19T04:28:26Z</time>
      </trkpt>
      <trkpt lat="44.27867" lon="7.14122">
        <ele>1219.6</ele>
        <time>2022-07-19T04:28:27Z</time>
      </trkpt>
      <trkpt lat="44.27865" lon="7.14121">
        <ele>1219.8</ele>
        <time>2022-07-19T04:28:28Z</time>
      </trkpt>
      <trkpt lat="44.27864" lon="7.1412">
        <ele>1219.8</ele>
        <time>2022-07-19T04:28:29Z</time>
      </trkpt>
      <trkpt lat="44.27863" lon="7.14119">
        <ele>1220.2</ele>
        <time>2022-07-19T04:28:30Z</time>
      </trkpt>
      <trkpt lat="44.27861" lon="7.14118">
        <ele>1220.2</ele>
        <time>2022-07-19T04:28:31Z</time>
      </trkpt>
      <trkpt lat="44.2786" lon="7.14116">
        <ele>1220.4</ele>
        <time>2022-07-19T04:28:32Z</time>
      </trkpt>
      <trkpt lat="44.27859" lon="7.14116">
        <ele>1220.4</ele>
        <time>2022-07-19T04:28:33Z</time>
      </trkpt>
      <trkpt lat="44.27858" lon="7.14115">
        <ele>1220.8</ele>
        <time>2022-07-19T04:28:34Z</time>
      </trkpt>
      <trkpt lat="44.27857" lon="7.14114">
        <ele>1221.2</ele>
        <time>2022-07-19T04:28:35Z</time>
      </trkpt>
      <trkpt lat="44.27856" lon="7.14112">
        <ele>1221.4</ele>
        <time>2022-07-19T04:28:36Z</time>
      </trkpt>
      <trkpt lat="44.27855" lon="7.14112">
        <ele>1221.6</ele>
        <time>2022-07-19T04:28:37Z</time>
      </trkpt>
      <trkpt lat="44.27853" lon="7.14112">
        <ele>1221.8</ele>
        <time>2022-07-19T04:28:38Z</time>
      </trkpt>
      <trkpt lat="44.27853" lon="7.14112">
        <ele>1222</ele>
        <time>2022-07-19T04:28:39Z</time>
      </trkpt>
      <trkpt lat="44.27852" lon="7.14111">
        <ele>1222</ele>
        <time>2022-07-19T04:28:40Z</time>
      </trkpt>
      <trkpt lat="44.27852" lon="7.1411">
        <ele>1222</ele>
        <time>2022-07-19T04:28:41Z</time>
      </trkpt>
      <trkpt lat="44.27851" lon="7.14109">
        <ele>1222.4</ele>
        <time>2022-07-19T04:28:42Z</time>
      </trkpt>
      <trkpt lat="44.2785" lon="7.14109">
        <ele>1222.4</ele>
        <time>2022-07-19T04:28:43Z</time>
      </trkpt>
      <trkpt lat="44.27849" lon="7.14108">
        <ele>1222.6</ele>
        <time>2022-07-19T04:28:44Z</time>
      </trkpt>
      <trkpt lat="44.27847" lon="7.14108">
        <ele>1222.6</ele>
        <time>2022-07-19T04:28:45Z</time>
      </trkpt>
      <trkpt lat="44.27846" lon="7.14107">
        <ele>1223</ele>
        <time>2022-07-19T04:28:46Z</time>
      </trkpt>
      <trkpt lat="44.27845" lon="7.14106">
        <ele>1223.2</ele>
        <time>2022-07-19T04:28:47Z</time>
      </trkpt>
      <trkpt lat="44.27843" lon="7.14105">
        <ele>1223.2</ele>
        <time>2022-07-19T04:28:48Z</time>
      </trkpt>
      <trkpt lat="44.27842" lon="7.14104">
        <ele>1223.6</ele>
        <time>2022-07-19T04:28:49Z</time>
      </trkpt>
      <trkpt lat="44.27841" lon="7.14103">
        <ele>1223.8</ele>
        <time>2022-07-19T04:28:50Z</time>
      </trkpt>
      <trkpt lat="44.27839" lon="7.14103">
        <ele>1223.8</ele>
        <time>2022-07-19T04:28:51Z</time>
      </trkpt>
      <trkpt lat="44.27838" lon="7.14103">
        <ele>1224.2</ele>
        <time>2022-07-19T04:28:52Z</time>
      </trkpt>
      <trkpt lat="44.27836" lon="7.14102">
        <ele>1224.2</ele>
        <time>2022-07-19T04:28:53Z</time>
      </trkpt>
      <trkpt lat="44.27835" lon="7.14101">
        <ele>1224.4</ele>
        <time>2022-07-19T04:28:54Z</time>
      </trkpt>
      <trkpt lat="44.27833" lon="7.14101">
        <ele>1224.4</ele>
        <time>2022-07-19T04:28:55Z</time>
      </trkpt>
      <trkpt lat="44.27832" lon="7.141">
        <ele>1224.8</ele>
        <time>2022-07-19T04:28:56Z</time>
      </trkpt>
      <trkpt lat="44.27831" lon="7.141">
        <ele>1225</ele>
        <time>2022-07-19T04:28:57Z</time>
      </trkpt>
      <trkpt lat="44.27829" lon="7.141">
        <ele>1225.2</ele>
        <time>2022-07-19T04:28:58Z</time>
      </trkpt>
      <trkpt lat="44.27828" lon="7.14099">
        <ele>1225.2</ele>
        <time>2022-07-19T04:28:59Z</time>
      </trkpt>
      <trkpt lat="44.27826" lon="7.14099">
        <ele>1225.6</ele>
        <time>2022-07-19T04:29:00Z</time>
      </trkpt>
      <trkpt lat="44.27825" lon="7.14098">
        <ele>1225.6</ele>
        <time>2022-07-19T04:29:01Z</time>
      </trkpt>
      <trkpt lat="44.27824" lon="7.14097">
        <ele>1225.8</ele>
        <time>2022-07-19T04:29:02Z</time>
      </trkpt>
      <trkpt lat="44.27822" lon="7.14097">
        <ele>1225.8</ele>
        <time>2022-07-19T04:29:03Z</time>
      </trkpt>
      <trkpt lat="44.27821" lon="7.14096">
        <ele>1226.2</ele>
        <time>2022-07-19T04:29:04Z</time>
      </trkpt>
      <trkpt lat="44.2782" lon="7.14096">
        <ele>1226.2</ele>
        <time>2022-07-19T04:29:05Z</time>
      </trkpt>
      <trkpt lat="44.27818" lon="7.14095">
        <ele>1226.4</ele>
        <time>2022-07-19T04:29:06Z</time>
      </trkpt>
      <trkpt lat="44.27817" lon="7.14094">
        <ele>1226.4</ele>
        <time>2022-07-19T04:29:07Z</time>
      </trkpt>
      <trkpt lat="44.27816" lon="7.14094">
        <ele>1226.8</ele>
        <time>2022-07-19T04:29:08Z</time>
      </trkpt>
      <trkpt lat="44.27815" lon="7.14093">
        <ele>1226.8</ele>
        <time>2022-07-19T04:29:09Z</time>
      </trkpt>
      <trkpt lat="44.27814" lon="7.14093">
        <ele>1227</ele>
        <time>2022-07-19T04:29:10Z</time>
      </trkpt>
      <trkpt lat="44.27812" lon="7.14093">
        <ele>1227</ele>
        <time>2022-07-19T04:29:11Z</time>
      </trkpt>
      <trkpt lat="44.27811" lon="7.14093">
        <ele>1227.4</ele>
        <time>2022-07-19T04:29:12Z</time>
      </trkpt>
      <trkpt lat="44.27808" lon="7.14092">
        <ele>1227.4</ele>
        <time>2022-07-19T04:29:13Z</time>
      </trkpt>
      <trkpt lat="44.27807" lon="7.14091">
        <ele>1227.6</ele>
        <time>2022-07-19T04:29:14Z</time>
      </trkpt>
      <trkpt lat="44.27806" lon="7.1409">
        <ele>1227.6</ele>
        <time>2022-07-19T04:29:15Z</time>
      </trkpt>
      <trkpt lat="44.27804" lon="7.14089">
        <ele>1228</ele>
        <time>2022-07-19T04:29:16Z</time>
      </trkpt>
      <trkpt lat="44.27803" lon="7.14088">
        <ele>1228.2</ele>
        <time>2022-07-19T04:29:17Z</time>
      </trkpt>
      <trkpt lat="44.27802" lon="7.14087">
        <ele>1228.4</ele>
        <time>2022-07-19T04:29:18Z</time>
      </trkpt>
      <trkpt lat="44.27801" lon="7.14086">
        <ele>1228.4</ele>
        <time>2022-07-19T04:29:19Z</time>
      </trkpt>
      <trkpt lat="44.278" lon="7.14086">
        <ele>1228.8</ele>
        <time>2022-07-19T04:29:20Z</time>
      </trkpt>
      <trkpt lat="44.27799" lon="7.14085">
        <ele>1228.8</ele>
        <time>2022-07-19T04:29:21Z</time>
      </trkpt>
      <trkpt lat="44.27797" lon="7.14084">
        <ele>1229.2</ele>
        <time>2022-07-19T04:29:22Z</time>
      </trkpt>
      <trkpt lat="44.27796" lon="7.14083">
        <ele>1229.4</ele>
        <time>2022-07-19T04:29:23Z</time>
      </trkpt>
      <trkpt lat="44.27795" lon="7.14082">
        <ele>1229.6</ele>
        <time>2022-07-19T04:29:24Z</time>
      </trkpt>
      <trkpt lat="44.27794" lon="7.14081">
        <ele>1229.6</ele>
        <time>2022-07-19T04:29:25Z</time>
      </trkpt>
      <trkpt lat="44.27792" lon="7.1408">
        <ele>1230</ele>
        <time>2022-07-19T04:29:26Z</time>
      </trkpt>
      <trkpt lat="44.27791" lon="7.1408">
        <ele>1230</ele>
        <time>2022-07-19T04:29:27Z</time>
      </trkpt>
      <trkpt lat="44.2779" lon="7.14079">
        <ele>1230.2</ele>
        <time>2022-07-19T04:29:28Z</time>
      </trkpt>
      <trkpt lat="44.27788" lon="7.14078">
        <ele>1230.4</ele>
        <time>2022-07-19T04:29:29Z</time>
      </trkpt>
      <trkpt lat="44.27787" lon="7.14078">
        <ele>1230.6</ele>
        <time>2022-07-19T04:29:30Z</time>
      </trkpt>
      <trkpt lat="44.27786" lon="7.14077">
        <ele>1230.6</ele>
        <time>2022-07-19T04:29:31Z</time>
      </trkpt>
      <trkpt lat="44.27785" lon="7.14076">
        <ele>1231</ele>
        <time>2022-07-19T04:29:32Z</time>
      </trkpt>
      <trkpt lat="44.27785" lon="7.14075">
        <ele>1231</ele>
        <time>2022-07-19T04:29:33Z</time>
      </trkpt>
      <trkpt lat="44.27784" lon="7.14075">
        <ele>1231.4</ele>
        <time>2022-07-19T04:29:34Z</time>
      </trkpt>
      <trkpt lat="44.27784" lon="7.14075">
        <ele>1232</ele>
        <time>2022-07-19T04:29:38Z</time>
      </trkpt>
      <trkpt lat="44.27776" lon="7.1407">
        <ele>1232.2</ele>
        <time>2022-07-19T04:29:40Z</time>
      </trkpt>
      <trkpt lat="44.27775" lon="7.14069">
        <ele>1232.6</ele>
        <time>2022-07-19T04:29:41Z</time>
      </trkpt>
      <trkpt lat="44.27773" lon="7.14068">
        <ele>1232.6</ele>
        <time>2022-07-19T04:29:42Z</time>
      </trkpt>
      <trkpt lat="44.27772" lon="7.14068">
        <ele>1233</ele>
        <time>2022-07-19T04:29:43Z</time>
      </trkpt>
      <trkpt lat="44.27771" lon="7.14067">
        <ele>1233.2</ele>
        <time>2022-07-19T04:29:44Z</time>
      </trkpt>
      <trkpt lat="44.27769" lon="7.14066">
        <ele>1233.2</ele>
        <time>2022-07-19T04:29:45Z</time>
      </trkpt>
      <trkpt lat="44.27768" lon="7.14065">
        <ele>1233.4</ele>
        <time>2022-07-19T04:29:46Z</time>
      </trkpt>
      <trkpt lat="44.27766" lon="7.14065">
        <ele>1233.4</ele>
        <time>2022-07-19T04:29:47Z</time>
      </trkpt>
      <trkpt lat="44.27765" lon="7.14064">
        <ele>1233.8</ele>
        <time>2022-07-19T04:29:48Z</time>
      </trkpt>
      <trkpt lat="44.27763" lon="7.14063">
        <ele>1233.8</ele>
        <time>2022-07-19T04:29:49Z</time>
      </trkpt>
      <trkpt lat="44.27761" lon="7.14062">
        <ele>1234</ele>
        <time>2022-07-19T04:29:50Z</time>
      </trkpt>
      <trkpt lat="44.2776" lon="7.1406">
        <ele>1234</ele>
        <time>2022-07-19T04:29:51Z</time>
      </trkpt>
      <trkpt lat="44.27758" lon="7.14059">
        <ele>1234</ele>
        <time>2022-07-19T04:29:52Z</time>
      </trkpt>
      <trkpt lat="44.27757" lon="7.14058">
        <ele>1234.4</ele>
        <time>2022-07-19T04:29:53Z</time>
      </trkpt>
      <trkpt lat="44.27755" lon="7.14057">
        <ele>1234.6</ele>
        <time>2022-07-19T04:29:54Z</time>
      </trkpt>
      <trkpt lat="44.27754" lon="7.14056">
        <ele>1234.6</ele>
        <time>2022-07-19T04:29:55Z</time>
      </trkpt>
      <trkpt lat="44.27753" lon="7.14055">
        <ele>1235</ele>
        <time>2022-07-19T04:29:56Z</time>
      </trkpt>
      <trkpt lat="44.27752" lon="7.14054">
        <ele>1235</ele>
        <time>2022-07-19T04:29:57Z</time>
      </trkpt>
      <trkpt lat="44.27751" lon="7.14052">
        <ele>1235.4</ele>
        <time>2022-07-19T04:29:58Z</time>
      </trkpt>
      <trkpt lat="44.27749" lon="7.14051">
        <ele>1235.6</ele>
        <time>2022-07-19T04:29:59Z</time>
      </trkpt>
      <trkpt lat="44.27748" lon="7.14049">
        <ele>1235.8</ele>
        <time>2022-07-19T04:30:00Z</time>
      </trkpt>
      <trkpt lat="44.27746" lon="7.14047">
        <ele>1236</ele>
        <time>2022-07-19T04:30:01Z</time>
      </trkpt>
      <trkpt lat="44.27745" lon="7.14045">
        <ele>1236</ele>
        <time>2022-07-19T04:30:02Z</time>
      </trkpt>
      <trkpt lat="44.27744" lon="7.14043">
        <ele>1236.4</ele>
        <time>2022-07-19T04:30:03Z</time>
      </trkpt>
      <trkpt lat="44.27743" lon="7.14041">
        <ele>1236.4</ele>
        <time>2022-07-19T04:30:04Z</time>
      </trkpt>
      <trkpt lat="44.27741" lon="7.14038">
        <ele>1236.8</ele>
        <time>2022-07-19T04:30:05Z</time>
      </trkpt>
      <trkpt lat="44.2774" lon="7.14036">
        <ele>1237</ele>
        <time>2022-07-19T04:30:06Z</time>
      </trkpt>
      <trkpt lat="44.27738" lon="7.14034">
        <ele>1237.2</ele>
        <time>2022-07-19T04:30:07Z</time>
      </trkpt>
      <trkpt lat="44.27737" lon="7.14032">
        <ele>1237.4</ele>
        <time>2022-07-19T04:30:08Z</time>
      </trkpt>
      <trkpt lat="44.27736" lon="7.1403">
        <ele>1237.8</ele>
        <time>2022-07-19T04:30:09Z</time>
      </trkpt>
      <trkpt lat="44.27735" lon="7.14028">
        <ele>1237.8</ele>
        <time>2022-07-19T04:30:10Z</time>
      </trkpt>
      <trkpt lat="44.27734" lon="7.14026">
        <ele>1238.2</ele>
        <time>2022-07-19T04:30:11Z</time>
      </trkpt>
      <trkpt lat="44.27733" lon="7.14023">
        <ele>1238.2</ele>
        <time>2022-07-19T04:30:12Z</time>
      </trkpt>
      <trkpt lat="44.27733" lon="7.14022">
        <ele>1238.4</ele>
        <time>2022-07-19T04:30:13Z</time>
      </trkpt>
      <trkpt lat="44.27732" lon="7.14019">
        <ele>1238.4</ele>
        <time>2022-07-19T04:30:14Z</time>
      </trkpt>
      <trkpt lat="44.2773" lon="7.14017">
        <ele>1238.8</ele>
        <time>2022-07-19T04:30:15Z</time>
      </trkpt>
      <trkpt lat="44.27729" lon="7.14016">
        <ele>1238.8</ele>
        <time>2022-07-19T04:30:16Z</time>
      </trkpt>
      <trkpt lat="44.27728" lon="7.14014">
        <ele>1239</ele>
        <time>2022-07-19T04:30:17Z</time>
      </trkpt>
      <trkpt lat="44.27727" lon="7.14012">
        <ele>1239</ele>
        <time>2022-07-19T04:30:18Z</time>
      </trkpt>
      <trkpt lat="44.27726" lon="7.1401">
        <ele>1239.4</ele>
        <time>2022-07-19T04:30:19Z</time>
      </trkpt>
      <trkpt lat="44.27725" lon="7.14008">
        <ele>1239.4</ele>
        <time>2022-07-19T04:30:20Z</time>
      </trkpt>
      <trkpt lat="44.27724" lon="7.14006">
        <ele>1239.8</ele>
        <time>2022-07-19T04:30:21Z</time>
      </trkpt>
      <trkpt lat="44.27724" lon="7.14004">
        <ele>1239.8</ele>
        <time>2022-07-19T04:30:22Z</time>
      </trkpt>
      <trkpt lat="44.27723" lon="7.14001">
        <ele>1240</ele>
        <time>2022-07-19T04:30:23Z</time>
      </trkpt>
      <trkpt lat="44.27722" lon="7.13999">
        <ele>1240</ele>
        <time>2022-07-19T04:30:24Z</time>
      </trkpt>
      <trkpt lat="44.27721" lon="7.13997">
        <ele>1240.2</ele>
        <time>2022-07-19T04:30:25Z</time>
      </trkpt>
      <trkpt lat="44.2772" lon="7.13994">
        <ele>1240.2</ele>
        <time>2022-07-19T04:30:26Z</time>
      </trkpt>
      <trkpt lat="44.27719" lon="7.13992">
        <ele>1240.6</ele>
        <time>2022-07-19T04:30:27Z</time>
      </trkpt>
      <trkpt lat="44.27719" lon="7.13989">
        <ele>1240.8</ele>
        <time>2022-07-19T04:30:28Z</time>
      </trkpt>
      <trkpt lat="44.27719" lon="7.13987">
        <ele>1240.8</ele>
        <time>2022-07-19T04:30:29Z</time>
      </trkpt>
      <trkpt lat="44.27718" lon="7.13985">
        <ele>1241</ele>
        <time>2022-07-19T04:30:30Z</time>
      </trkpt>
      <trkpt lat="44.27717" lon="7.13982">
        <ele>1241</ele>
        <time>2022-07-19T04:30:31Z</time>
      </trkpt>
      <trkpt lat="44.27717" lon="7.1398">
        <ele>1241.4</ele>
        <time>2022-07-19T04:30:32Z</time>
      </trkpt>
      <trkpt lat="44.27716" lon="7.13978">
        <ele>1241.4</ele>
        <time>2022-07-19T04:30:33Z</time>
      </trkpt>
      <trkpt lat="44.27715" lon="7.13976">
        <ele>1241.6</ele>
        <time>2022-07-19T04:30:34Z</time>
      </trkpt>
      <trkpt lat="44.27715" lon="7.13974">
        <ele>1241.6</ele>
        <time>2022-07-19T04:30:35Z</time>
      </trkpt>
      <trkpt lat="44.27714" lon="7.13972">
        <ele>1242</ele>
        <time>2022-07-19T04:30:36Z</time>
      </trkpt>
      <trkpt lat="44.27713" lon="7.1397">
        <ele>1242.2</ele>
        <time>2022-07-19T04:30:37Z</time>
      </trkpt>
      <trkpt lat="44.27713" lon="7.13968">
        <ele>1242.2</ele>
        <time>2022-07-19T04:30:38Z</time>
      </trkpt>
      <trkpt lat="44.27712" lon="7.13966">
        <ele>1242.6</ele>
        <time>2022-07-19T04:30:39Z</time>
      </trkpt>
      <trkpt lat="44.27711" lon="7.13965">
        <ele>1242.6</ele>
        <time>2022-07-19T04:30:40Z</time>
      </trkpt>
      <trkpt lat="44.2771" lon="7.13963">
        <ele>1243</ele>
        <time>2022-07-19T04:30:41Z</time>
      </trkpt>
      <trkpt lat="44.27709" lon="7.13962">
        <ele>1243</ele>
        <time>2022-07-19T04:30:42Z</time>
      </trkpt>
      <trkpt lat="44.27708" lon="7.1396">
        <ele>1243.2</ele>
        <time>2022-07-19T04:30:43Z</time>
      </trkpt>
      <trkpt lat="44.27707" lon="7.13958">
        <ele>1243.2</ele>
        <time>2022-07-19T04:30:44Z</time>
      </trkpt>
      <trkpt lat="44.27706" lon="7.13957">
        <ele>1243.6</ele>
        <time>2022-07-19T04:30:45Z</time>
      </trkpt>
      <trkpt lat="44.27705" lon="7.13955">
        <ele>1243.8</ele>
        <time>2022-07-19T04:30:46Z</time>
      </trkpt>
      <trkpt lat="44.27704" lon="7.13954">
        <ele>1244</ele>
        <time>2022-07-19T04:30:47Z</time>
      </trkpt>
      <trkpt lat="44.27703" lon="7.13952">
        <ele>1244</ele>
        <time>2022-07-19T04:30:48Z</time>
      </trkpt>
      <trkpt lat="44.27702" lon="7.1395">
        <ele>1244.2</ele>
        <time>2022-07-19T04:30:49Z</time>
      </trkpt>
      <trkpt lat="44.27701" lon="7.13948">
        <ele>1244.4</ele>
        <time>2022-07-19T04:30:50Z</time>
      </trkpt>
      <trkpt lat="44.277" lon="7.13946">
        <ele>1244.8</ele>
        <time>2022-07-19T04:30:51Z</time>
      </trkpt>
      <trkpt lat="44.27699" lon="7.13945">
        <ele>1244.8</ele>
        <time>2022-07-19T04:30:52Z</time>
      </trkpt>
      <trkpt lat="44.27698" lon="7.13943">
        <ele>1245</ele>
        <time>2022-07-19T04:30:53Z</time>
      </trkpt>
      <trkpt lat="44.27697" lon="7.13942">
        <ele>1245</ele>
        <time>2022-07-19T04:30:54Z</time>
      </trkpt>
      <trkpt lat="44.27696" lon="7.1394">
        <ele>1245.4</ele>
        <time>2022-07-19T04:30:55Z</time>
      </trkpt>
      <trkpt lat="44.27696" lon="7.13938">
        <ele>1245.4</ele>
        <time>2022-07-19T04:30:56Z</time>
      </trkpt>
      <trkpt lat="44.27695" lon="7.13937">
        <ele>1245.8</ele>
        <time>2022-07-19T04:30:57Z</time>
      </trkpt>
      <trkpt lat="44.27693" lon="7.13935">
        <ele>1245.8</ele>
        <time>2022-07-19T04:30:58Z</time>
      </trkpt>
      <trkpt lat="44.27692" lon="7.13933">
        <ele>1246</ele>
        <time>2022-07-19T04:30:59Z</time>
      </trkpt>
      <trkpt lat="44.27691" lon="7.13932">
        <ele>1246</ele>
        <time>2022-07-19T04:31:00Z</time>
      </trkpt>
      <trkpt lat="44.2769" lon="7.1393">
        <ele>1246.4</ele>
        <time>2022-07-19T04:31:01Z</time>
      </trkpt>
      <trkpt lat="44.2769" lon="7.13928">
        <ele>1246.4</ele>
        <time>2022-07-19T04:31:02Z</time>
      </trkpt>
      <trkpt lat="44.27689" lon="7.13927">
        <ele>1246.6</ele>
        <time>2022-07-19T04:31:03Z</time>
      </trkpt>
      <trkpt lat="44.27688" lon="7.13925">
        <ele>1246.6</ele>
        <time>2022-07-19T04:31:04Z</time>
      </trkpt>
      <trkpt lat="44.27687" lon="7.13923">
        <ele>1247</ele>
        <time>2022-07-19T04:31:05Z</time>
      </trkpt>
      <trkpt lat="44.27686" lon="7.13922">
        <ele>1247.2</ele>
        <time>2022-07-19T04:31:06Z</time>
      </trkpt>
      <trkpt lat="44.27685" lon="7.1392">
        <ele>1247.4</ele>
        <time>2022-07-19T04:31:07Z</time>
      </trkpt>
      <trkpt lat="44.27684" lon="7.13918">
        <ele>1247.4</ele>
        <time>2022-07-19T04:31:08Z</time>
      </trkpt>
      <trkpt lat="44.27684" lon="7.13916">
        <ele>1247.8</ele>
        <time>2022-07-19T04:31:09Z</time>
      </trkpt>
      <trkpt lat="44.27683" lon="7.13915">
        <ele>1247.8</ele>
        <time>2022-07-19T04:31:10Z</time>
      </trkpt>
      <trkpt lat="44.27682" lon="7.13913">
        <ele>1248.2</ele>
        <time>2022-07-19T04:31:11Z</time>
      </trkpt>
      <trkpt lat="44.27681" lon="7.13912">
        <ele>1248.2</ele>
        <time>2022-07-19T04:31:12Z</time>
      </trkpt>
      <trkpt lat="44.2768" lon="7.1391">
        <ele>1248.6</ele>
        <time>2022-07-19T04:31:13Z</time>
      </trkpt>
      <trkpt lat="44.27679" lon="7.13908">
        <ele>1248.6</ele>
        <time>2022-07-19T04:31:14Z</time>
      </trkpt>
      <trkpt lat="44.27678" lon="7.13907">
        <ele>1248.8</ele>
        <time>2022-07-19T04:31:15Z</time>
      </trkpt>
      <trkpt lat="44.27677" lon="7.13905">
        <ele>1248.8</ele>
        <time>2022-07-19T04:31:16Z</time>
      </trkpt>
      <trkpt lat="44.27676" lon="7.13904">
        <ele>1249.2</ele>
        <time>2022-07-19T04:31:17Z</time>
      </trkpt>
      <trkpt lat="44.27674" lon="7.13903">
        <ele>1249.2</ele>
        <time>2022-07-19T04:31:18Z</time>
      </trkpt>
      <trkpt lat="44.27673" lon="7.13902">
        <ele>1249.4</ele>
        <time>2022-07-19T04:31:19Z</time>
      </trkpt>
      <trkpt lat="44.27672" lon="7.139">
        <ele>1249.4</ele>
        <time>2022-07-19T04:31:20Z</time>
      </trkpt>
      <trkpt lat="44.27671" lon="7.13899">
        <ele>1249.8</ele>
        <time>2022-07-19T04:31:21Z</time>
      </trkpt>
      <trkpt lat="44.2767" lon="7.13897">
        <ele>1250</ele>
        <time>2022-07-19T04:31:22Z</time>
      </trkpt>
      <trkpt lat="44.27669" lon="7.13896">
        <ele>1250</ele>
        <time>2022-07-19T04:31:23Z</time>
      </trkpt>
      <trkpt lat="44.27668" lon="7.13895">
        <ele>1250.4</ele>
        <time>2022-07-19T04:31:24Z</time>
      </trkpt>
      <trkpt lat="44.27667" lon="7.13894">
        <ele>1250.4</ele>
        <time>2022-07-19T04:31:25Z</time>
      </trkpt>
      <trkpt lat="44.27666" lon="7.13893">
        <ele>1250.6</ele>
        <time>2022-07-19T04:31:26Z</time>
      </trkpt>
      <trkpt lat="44.27665" lon="7.13892">
        <ele>1250.6</ele>
        <time>2022-07-19T04:31:27Z</time>
      </trkpt>
      <trkpt lat="44.27664" lon="7.13891">
        <ele>1250.8</ele>
        <time>2022-07-19T04:31:28Z</time>
      </trkpt>
      <trkpt lat="44.27663" lon="7.13889">
        <ele>1250.8</ele>
        <time>2022-07-19T04:31:29Z</time>
      </trkpt>
      <trkpt lat="44.27661" lon="7.13888">
        <ele>1251</ele>
        <time>2022-07-19T04:31:30Z</time>
      </trkpt>
      <trkpt lat="44.2766" lon="7.13887">
        <ele>1251</ele>
        <time>2022-07-19T04:31:31Z</time>
      </trkpt>
      <trkpt lat="44.27659" lon="7.13886">
        <ele>1251.4</ele>
        <time>2022-07-19T04:31:32Z</time>
      </trkpt>
      <trkpt lat="44.27658" lon="7.13886">
        <ele>1251.4</ele>
        <time>2022-07-19T04:31:33Z</time>
      </trkpt>
      <trkpt lat="44.27656" lon="7.13885">
        <ele>1251.6</ele>
        <time>2022-07-19T04:31:34Z</time>
      </trkpt>
      <trkpt lat="44.27655" lon="7.13884">
        <ele>1251.6</ele>
        <time>2022-07-19T04:31:35Z</time>
      </trkpt>
      <trkpt lat="44.27655" lon="7.13883">
        <ele>1251.6</ele>
        <time>2022-07-19T04:31:36Z</time>
      </trkpt>
      <trkpt lat="44.27654" lon="7.13881">
        <ele>1252</ele>
        <time>2022-07-19T04:31:37Z</time>
      </trkpt>
      <trkpt lat="44.27652" lon="7.13881">
        <ele>1252</ele>
        <time>2022-07-19T04:31:38Z</time>
      </trkpt>
      <trkpt lat="44.27651" lon="7.1388">
        <ele>1252.2</ele>
        <time>2022-07-19T04:31:39Z</time>
      </trkpt>
      <trkpt lat="44.2765" lon="7.13879">
        <ele>1252.2</ele>
        <time>2022-07-19T04:31:40Z</time>
      </trkpt>
      <trkpt lat="44.27649" lon="7.13879">
        <ele>1252.4</ele>
        <time>2022-07-19T04:31:41Z</time>
      </trkpt>
      <trkpt lat="44.27648" lon="7.13878">
        <ele>1252.4</ele>
        <time>2022-07-19T04:31:42Z</time>
      </trkpt>
      <trkpt lat="44.27647" lon="7.13876">
        <ele>1253</ele>
        <time>2022-07-19T04:31:44Z</time>
      </trkpt>
      <trkpt lat="44.27646" lon="7.13875">
        <ele>1253</ele>
        <time>2022-07-19T04:31:45Z</time>
      </trkpt>
      <trkpt lat="44.27645" lon="7.13874">
        <ele>1253.4</ele>
        <time>2022-07-19T04:31:46Z</time>
      </trkpt>
      <trkpt lat="44.27643" lon="7.13873">
        <ele>1253.4</ele>
        <time>2022-07-19T04:31:47Z</time>
      </trkpt>
      <trkpt lat="44.27642" lon="7.13872">
        <ele>1253.6</ele>
        <time>2022-07-19T04:31:48Z</time>
      </trkpt>
      <trkpt lat="44.27641" lon="7.13871">
        <ele>1253.6</ele>
        <time>2022-07-19T04:31:49Z</time>
      </trkpt>
      <trkpt lat="44.2764" lon="7.13869">
        <ele>1253.6</ele>
        <time>2022-07-19T04:31:50Z</time>
      </trkpt>
      <trkpt lat="44.27639" lon="7.13868">
        <ele>1254</ele>
        <time>2022-07-19T04:31:51Z</time>
      </trkpt>
      <trkpt lat="44.27638" lon="7.13867">
        <ele>1254</ele>
        <time>2022-07-19T04:31:52Z</time>
      </trkpt>
      <trkpt lat="44.27637" lon="7.13866">
        <ele>1254.4</ele>
        <time>2022-07-19T04:31:53Z</time>
      </trkpt>
      <trkpt lat="44.27636" lon="7.13865">
        <ele>1254.4</ele>
        <time>2022-07-19T04:31:54Z</time>
      </trkpt>
      <trkpt lat="44.27635" lon="7.13864">
        <ele>1254.6</ele>
        <time>2022-07-19T04:31:55Z</time>
      </trkpt>
      <trkpt lat="44.27634" lon="7.13863">
        <ele>1254.6</ele>
        <time>2022-07-19T04:31:56Z</time>
      </trkpt>
      <trkpt lat="44.27633" lon="7.13861">
        <ele>1255</ele>
        <time>2022-07-19T04:31:57Z</time>
      </trkpt>
      <trkpt lat="44.27632" lon="7.1386">
        <ele>1255</ele>
        <time>2022-07-19T04:31:58Z</time>
      </trkpt>
      <trkpt lat="44.27631" lon="7.13859">
        <ele>1255.4</ele>
        <time>2022-07-19T04:31:59Z</time>
      </trkpt>
      <trkpt lat="44.2763" lon="7.13858">
        <ele>1255.4</ele>
        <time>2022-07-19T04:32:00Z</time>
      </trkpt>
      <trkpt lat="44.27629" lon="7.13857">
        <ele>1255.8</ele>
        <time>2022-07-19T04:32:01Z</time>
      </trkpt>
      <trkpt lat="44.27628" lon="7.13855">
        <ele>1255.8</ele>
        <time>2022-07-19T04:32:02Z</time>
      </trkpt>
      <trkpt lat="44.27627" lon="7.13854">
        <ele>1256.2</ele>
        <time>2022-07-19T04:32:03Z</time>
      </trkpt>
      <trkpt lat="44.27624" lon="7.13852">
        <ele>1256.4</ele>
        <time>2022-07-19T04:32:04Z</time>
      </trkpt>
      <trkpt lat="44.27623" lon="7.13851">
        <ele>1256.4</ele>
        <time>2022-07-19T04:32:06Z</time>
      </trkpt>
      <trkpt lat="44.27622" lon="7.1385">
        <ele>1256.6</ele>
        <time>2022-07-19T04:32:07Z</time>
      </trkpt>
      <trkpt lat="44.27621" lon="7.13849">
        <ele>1256.6</ele>
        <time>2022-07-19T04:32:08Z</time>
      </trkpt>
      <trkpt lat="44.2762" lon="7.13847">
        <ele>1257</ele>
        <time>2022-07-19T04:32:09Z</time>
      </trkpt>
      <trkpt lat="44.27619" lon="7.13845">
        <ele>1257</ele>
        <time>2022-07-19T04:32:10Z</time>
      </trkpt>
      <trkpt lat="44.27618" lon="7.13843">
        <ele>1257.2</ele>
        <time>2022-07-19T04:32:11Z</time>
      </trkpt>
      <trkpt lat="44.27617" lon="7.13841">
        <ele>1257.2</ele>
        <time>2022-07-19T04:32:12Z</time>
      </trkpt>
      <trkpt lat="44.27616" lon="7.1384">
        <ele>1257.4</ele>
        <time>2022-07-19T04:32:13Z</time>
      </trkpt>
      <trkpt lat="44.27615" lon="7.13838">
        <ele>1257.4</ele>
        <time>2022-07-19T04:32:14Z</time>
      </trkpt>
      <trkpt lat="44.27615" lon="7.13837">
        <ele>1257.8</ele>
        <time>2022-07-19T04:32:15Z</time>
      </trkpt>
      <trkpt lat="44.27614" lon="7.13835">
        <ele>1257.8</ele>
        <time>2022-07-19T04:32:16Z</time>
      </trkpt>
      <trkpt lat="44.27613" lon="7.13833">
        <ele>1258</ele>
        <time>2022-07-19T04:32:17Z</time>
      </trkpt>
      <trkpt lat="44.27612" lon="7.13832">
        <ele>1258.2</ele>
        <time>2022-07-19T04:32:18Z</time>
      </trkpt>
      <trkpt lat="44.27612" lon="7.1383">
        <ele>1258.2</ele>
        <time>2022-07-19T04:32:19Z</time>
      </trkpt>
      <trkpt lat="44.27611" lon="7.13828">
        <ele>1258.6</ele>
        <time>2022-07-19T04:32:20Z</time>
      </trkpt>
      <trkpt lat="44.27611" lon="7.13826">
        <ele>1258.6</ele>
        <time>2022-07-19T04:32:21Z</time>
      </trkpt>
      <trkpt lat="44.27611" lon="7.13824">
        <ele>1258.8</ele>
        <time>2022-07-19T04:32:22Z</time>
      </trkpt>
      <trkpt lat="44.2761" lon="7.13822">
        <ele>1258.8</ele>
        <time>2022-07-19T04:32:23Z</time>
      </trkpt>
      <trkpt lat="44.2761" lon="7.13819">
        <ele>1259</ele>
        <time>2022-07-19T04:32:24Z</time>
      </trkpt>
      <trkpt lat="44.27609" lon="7.13818">
        <ele>1259</ele>
        <time>2022-07-19T04:32:25Z</time>
      </trkpt>
      <trkpt lat="44.27609" lon="7.13816">
        <ele>1259.4</ele>
        <time>2022-07-19T04:32:26Z</time>
      </trkpt>
      <trkpt lat="44.27609" lon="7.13813">
        <ele>1259.4</ele>
        <time>2022-07-19T04:32:27Z</time>
      </trkpt>
      <trkpt lat="44.27608" lon="7.13811">
        <ele>1259.6</ele>
        <time>2022-07-19T04:32:28Z</time>
      </trkpt>
      <trkpt lat="44.27608" lon="7.13809">
        <ele>1259.6</ele>
        <time>2022-07-19T04:32:29Z</time>
      </trkpt>
      <trkpt lat="44.27608" lon="7.13807">
        <ele>1260</ele>
        <time>2022-07-19T04:32:30Z</time>
      </trkpt>
      <trkpt lat="44.27608" lon="7.13805">
        <ele>1260</ele>
        <time>2022-07-19T04:32:31Z</time>
      </trkpt>
      <trkpt lat="44.27608" lon="7.13803">
        <ele>1260.2</ele>
        <time>2022-07-19T04:32:32Z</time>
      </trkpt>
      <trkpt lat="44.27607" lon="7.13801">
        <ele>1260.2</ele>
        <time>2022-07-19T04:32:33Z</time>
      </trkpt>
      <trkpt lat="44.27607" lon="7.13798">
        <ele>1260.6</ele>
        <time>2022-07-19T04:32:34Z</time>
      </trkpt>
      <trkpt lat="44.27607" lon="7.13796">
        <ele>1260.6</ele>
        <time>2022-07-19T04:32:35Z</time>
      </trkpt>
      <trkpt lat="44.27606" lon="7.13794">
        <ele>1260.6</ele>
        <time>2022-07-19T04:32:36Z</time>
      </trkpt>
      <trkpt lat="44.27605" lon="7.13792">
        <ele>1260.8</ele>
        <time>2022-07-19T04:32:37Z</time>
      </trkpt>
      <trkpt lat="44.27604" lon="7.1379">
        <ele>1260.8</ele>
        <time>2022-07-19T04:32:38Z</time>
      </trkpt>
      <trkpt lat="44.27603" lon="7.13788">
        <ele>1260.8</ele>
        <time>2022-07-19T04:32:39Z</time>
      </trkpt>
      <trkpt lat="44.27602" lon="7.13786">
        <ele>1261.2</ele>
        <time>2022-07-19T04:32:40Z</time>
      </trkpt>
      <trkpt lat="44.276" lon="7.13785">
        <ele>1261.2</ele>
        <time>2022-07-19T04:32:41Z</time>
      </trkpt>
      <trkpt lat="44.27599" lon="7.13784">
        <ele>1261.2</ele>
        <time>2022-07-19T04:32:42Z</time>
      </trkpt>
      <trkpt lat="44.27597" lon="7.13784">
        <ele>1261.4</ele>
        <time>2022-07-19T04:32:43Z</time>
      </trkpt>
      <trkpt lat="44.27595" lon="7.13784">
        <ele>1261.4</ele>
        <time>2022-07-19T04:32:44Z</time>
      </trkpt>
      <trkpt lat="44.27593" lon="7.13785">
        <ele>1261.4</ele>
        <time>2022-07-19T04:32:45Z</time>
      </trkpt>
      <trkpt lat="44.27592" lon="7.13786">
        <ele>1261.6</ele>
        <time>2022-07-19T04:32:46Z</time>
      </trkpt>
      <trkpt lat="44.2759" lon="7.13787">
        <ele>1261.6</ele>
        <time>2022-07-19T04:32:47Z</time>
      </trkpt>
      <trkpt lat="44.27589" lon="7.13789">
        <ele>1261.6</ele>
        <time>2022-07-19T04:32:48Z</time>
      </trkpt>
      <trkpt lat="44.27588" lon="7.13791">
        <ele>1262</ele>
        <time>2022-07-19T04:32:49Z</time>
      </trkpt>
      <trkpt lat="44.27588" lon="7.13794">
        <ele>1262</ele>
        <time>2022-07-19T04:32:50Z</time>
      </trkpt>
      <trkpt lat="44.27588" lon="7.13799">
        <ele>1262.2</ele>
        <time>2022-07-19T04:32:51Z</time>
      </trkpt>
      <trkpt lat="44.27588" lon="7.13801">
        <ele>1262.2</ele>
        <time>2022-07-19T04:32:52Z</time>
      </trkpt>
      <trkpt lat="44.27589" lon="7.13803">
        <ele>1262.2</ele>
        <time>2022-07-19T04:32:53Z</time>
      </trkpt>
      <trkpt lat="44.2759" lon="7.13806">
        <ele>1262.2</ele>
        <time>2022-07-19T04:32:54Z</time>
      </trkpt>
      <trkpt lat="44.27591" lon="7.13808">
        <ele>1262.2</ele>
        <time>2022-07-19T04:32:55Z</time>
      </trkpt>
      <trkpt lat="44.27592" lon="7.13811">
        <ele>1262.4</ele>
        <time>2022-07-19T04:32:56Z</time>
      </trkpt>
      <trkpt lat="44.27593" lon="7.13813">
        <ele>1262.4</ele>
        <time>2022-07-19T04:32:57Z</time>
      </trkpt>
      <trkpt lat="44.27594" lon="7.13816">
        <ele>1262.8</ele>
        <time>2022-07-19T04:32:58Z</time>
      </trkpt>
      <trkpt lat="44.27595" lon="7.13818">
        <ele>1262.8</ele>
        <time>2022-07-19T04:32:59Z</time>
      </trkpt>
      <trkpt lat="44.27596" lon="7.1382">
        <ele>1263</ele>
        <time>2022-07-19T04:33:00Z</time>
      </trkpt>
      <trkpt lat="44.27597" lon="7.13822">
        <ele>1263</ele>
        <time>2022-07-19T04:33:01Z</time>
      </trkpt>
      <trkpt lat="44.27598" lon="7.13825">
        <ele>1263</ele>
        <time>2022-07-19T04:33:02Z</time>
      </trkpt>
      <trkpt lat="44.27599" lon="7.13827">
        <ele>1263.2</ele>
        <time>2022-07-19T04:33:03Z</time>
      </trkpt>
      <trkpt lat="44.27599" lon="7.13829">
        <ele>1263.2</ele>
        <time>2022-07-19T04:33:04Z</time>
      </trkpt>
      <trkpt lat="44.276" lon="7.13831">
        <ele>1263.4</ele>
        <time>2022-07-19T04:33:05Z</time>
      </trkpt>
      <trkpt lat="44.276" lon="7.13833">
        <ele>1263.4</ele>
        <time>2022-07-19T04:33:06Z</time>
      </trkpt>
      <trkpt lat="44.27601" lon="7.13835">
        <ele>1263.8</ele>
        <time>2022-07-19T04:33:07Z</time>
      </trkpt>
      <trkpt lat="44.27601" lon="7.13838">
        <ele>1263.8</ele>
        <time>2022-07-19T04:33:08Z</time>
      </trkpt>
      <trkpt lat="44.27601" lon="7.13841">
        <ele>1264</ele>
        <time>2022-07-19T04:33:09Z</time>
      </trkpt>
      <trkpt lat="44.27601" lon="7.13844">
        <ele>1264</ele>
        <time>2022-07-19T04:33:10Z</time>
      </trkpt>
      <trkpt lat="44.27601" lon="7.13847">
        <ele>1264.4</ele>
        <time>2022-07-19T04:33:11Z</time>
      </trkpt>
      <trkpt lat="44.276" lon="7.1385">
        <ele>1264.4</ele>
        <time>2022-07-19T04:33:12Z</time>
      </trkpt>
      <trkpt lat="44.27598" lon="7.13853">
        <ele>1264.6</ele>
        <time>2022-07-19T04:33:13Z</time>
      </trkpt>
      <trkpt lat="44.27596" lon="7.13854">
        <ele>1264.6</ele>
        <time>2022-07-19T04:33:14Z</time>
      </trkpt>
      <trkpt lat="44.27594" lon="7.13853">
        <ele>1264.8</ele>
        <time>2022-07-19T04:33:15Z</time>
      </trkpt>
      <trkpt lat="44.27592" lon="7.13852">
        <ele>1265</ele>
        <time>2022-07-19T04:33:16Z</time>
      </trkpt>
      <trkpt lat="44.27591" lon="7.1385">
        <ele>1265</ele>
        <time>2022-07-19T04:33:17Z</time>
      </trkpt>
      <trkpt lat="44.2759" lon="7.13848">
        <ele>1265.4</ele>
        <time>2022-07-19T04:33:18Z</time>
      </trkpt>
      <trkpt lat="44.27589" lon="7.13845">
        <ele>1265.4</ele>
        <time>2022-07-19T04:33:19Z</time>
      </trkpt>
      <trkpt lat="44.27588" lon="7.13843">
        <ele>1265.8</ele>
        <time>2022-07-19T04:33:20Z</time>
      </trkpt>
      <trkpt lat="44.27588" lon="7.1384">
        <ele>1265.8</ele>
        <time>2022-07-19T04:33:21Z</time>
      </trkpt>
      <trkpt lat="44.27588" lon="7.13837">
        <ele>1266</ele>
        <time>2022-07-19T04:33:22Z</time>
      </trkpt>
      <trkpt lat="44.27587" lon="7.13835">
        <ele>1266</ele>
        <time>2022-07-19T04:33:23Z</time>
      </trkpt>
      <trkpt lat="44.27587" lon="7.13832">
        <ele>1266.2</ele>
        <time>2022-07-19T04:33:24Z</time>
      </trkpt>
      <trkpt lat="44.27586" lon="7.1383">
        <ele>1266.2</ele>
        <time>2022-07-19T04:33:25Z</time>
      </trkpt>
      <trkpt lat="44.27586" lon="7.13828">
        <ele>1266.6</ele>
        <time>2022-07-19T04:33:26Z</time>
      </trkpt>
      <trkpt lat="44.27585" lon="7.13826">
        <ele>1266.8</ele>
        <time>2022-07-19T04:33:27Z</time>
      </trkpt>
      <trkpt lat="44.27585" lon="7.13824">
        <ele>1266.8</ele>
        <time>2022-07-19T04:33:28Z</time>
      </trkpt>
      <trkpt lat="44.27585" lon="7.13822">
        <ele>1267.2</ele>
        <time>2022-07-19T04:33:29Z</time>
      </trkpt>
      <trkpt lat="44.27584" lon="7.1382">
        <ele>1267.2</ele>
        <time>2022-07-19T04:33:30Z</time>
      </trkpt>
      <trkpt lat="44.27584" lon="7.13819">
        <ele>1267.4</ele>
        <time>2022-07-19T04:33:31Z</time>
      </trkpt>
      <trkpt lat="44.27583" lon="7.13817">
        <ele>1267.4</ele>
        <time>2022-07-19T04:33:32Z</time>
      </trkpt>
      <trkpt lat="44.27583" lon="7.13816">
        <ele>1267.8</ele>
        <time>2022-07-19T04:33:33Z</time>
      </trkpt>
      <trkpt lat="44.27582" lon="7.13814">
        <ele>1267.8</ele>
        <time>2022-07-19T04:33:34Z</time>
      </trkpt>
      <trkpt lat="44.27581" lon="7.13813">
        <ele>1268</ele>
        <time>2022-07-19T04:33:35Z</time>
      </trkpt>
      <trkpt lat="44.27581" lon="7.13811">
        <ele>1268</ele>
        <time>2022-07-19T04:33:36Z</time>
      </trkpt>
      <trkpt lat="44.2758" lon="7.13809">
        <ele>1268.4</ele>
        <time>2022-07-19T04:33:37Z</time>
      </trkpt>
      <trkpt lat="44.27579" lon="7.13807">
        <ele>1268.4</ele>
        <time>2022-07-19T04:33:38Z</time>
      </trkpt>
      <trkpt lat="44.27578" lon="7.13806">
        <ele>1268.8</ele>
        <time>2022-07-19T04:33:39Z</time>
      </trkpt>
      <trkpt lat="44.27578" lon="7.13805">
        <ele>1268.8</ele>
        <time>2022-07-19T04:33:40Z</time>
      </trkpt>
      <trkpt lat="44.27577" lon="7.13803">
        <ele>1269.2</ele>
        <time>2022-07-19T04:33:41Z</time>
      </trkpt>
      <trkpt lat="44.27577" lon="7.13801">
        <ele>1269.2</ele>
        <time>2022-07-19T04:33:42Z</time>
      </trkpt>
      <trkpt lat="44.27576" lon="7.138">
        <ele>1269.4</ele>
        <time>2022-07-19T04:33:43Z</time>
      </trkpt>
      <trkpt lat="44.27575" lon="7.13799">
        <ele>1269.6</ele>
        <time>2022-07-19T04:33:44Z</time>
      </trkpt>
      <trkpt lat="44.27575" lon="7.13797">
        <ele>1269.8</ele>
        <time>2022-07-19T04:33:45Z</time>
      </trkpt>
      <trkpt lat="44.27574" lon="7.13795">
        <ele>1269.8</ele>
        <time>2022-07-19T04:33:46Z</time>
      </trkpt>
      <trkpt lat="44.27573" lon="7.13793">
        <ele>1270</ele>
        <time>2022-07-19T04:33:47Z</time>
      </trkpt>
      <trkpt lat="44.27573" lon="7.13791">
        <ele>1270</ele>
        <time>2022-07-19T04:33:48Z</time>
      </trkpt>
      <trkpt lat="44.27572" lon="7.13789">
        <ele>1270.4</ele>
        <time>2022-07-19T04:33:49Z</time>
      </trkpt>
      <trkpt lat="44.2757" lon="7.13786">
        <ele>1270.4</ele>
        <time>2022-07-19T04:33:50Z</time>
      </trkpt>
      <trkpt lat="44.27569" lon="7.13784">
        <ele>1270.8</ele>
        <time>2022-07-19T04:33:51Z</time>
      </trkpt>
      <trkpt lat="44.27568" lon="7.13781">
        <ele>1270.8</ele>
        <time>2022-07-19T04:33:52Z</time>
      </trkpt>
      <trkpt lat="44.27567" lon="7.13778">
        <ele>1271.2</ele>
        <time>2022-07-19T04:33:53Z</time>
      </trkpt>
      <trkpt lat="44.27567" lon="7.13776">
        <ele>1271.2</ele>
        <time>2022-07-19T04:33:54Z</time>
      </trkpt>
      <trkpt lat="44.27566" lon="7.13773">
        <ele>1271.4</ele>
        <time>2022-07-19T04:33:55Z</time>
      </trkpt>
      <trkpt lat="44.27565" lon="7.13771">
        <ele>1271.4</ele>
        <time>2022-07-19T04:33:56Z</time>
      </trkpt>
      <trkpt lat="44.27565" lon="7.13768">
        <ele>1271.8</ele>
        <time>2022-07-19T04:33:57Z</time>
      </trkpt>
      <trkpt lat="44.27564" lon="7.13766">
        <ele>1271.8</ele>
        <time>2022-07-19T04:33:58Z</time>
      </trkpt>
      <trkpt lat="44.27563" lon="7.13764">
        <ele>1272.2</ele>
        <time>2022-07-19T04:33:59Z</time>
      </trkpt>
      <trkpt lat="44.27563" lon="7.13762">
        <ele>1272.2</ele>
        <time>2022-07-19T04:34:00Z</time>
      </trkpt>
      <trkpt lat="44.27562" lon="7.13759">
        <ele>1272.4</ele>
        <time>2022-07-19T04:34:01Z</time>
      </trkpt>
      <trkpt lat="44.27561" lon="7.13757">
        <ele>1272.4</ele>
        <time>2022-07-19T04:34:02Z</time>
      </trkpt>
      <trkpt lat="44.27561" lon="7.13755">
        <ele>1272.8</ele>
        <time>2022-07-19T04:34:03Z</time>
      </trkpt>
      <trkpt lat="44.2756" lon="7.13752">
        <ele>1273</ele>
        <time>2022-07-19T04:34:04Z</time>
      </trkpt>
      <trkpt lat="44.2756" lon="7.1375">
        <ele>1273</ele>
        <time>2022-07-19T04:34:05Z</time>
      </trkpt>
      <trkpt lat="44.27559" lon="7.13747">
        <ele>1273.4</ele>
        <time>2022-07-19T04:34:06Z</time>
      </trkpt>
      <trkpt lat="44.27559" lon="7.13745">
        <ele>1273.4</ele>
        <time>2022-07-19T04:34:07Z</time>
      </trkpt>
      <trkpt lat="44.27558" lon="7.13743">
        <ele>1273.6</ele>
        <time>2022-07-19T04:34:08Z</time>
      </trkpt>
      <trkpt lat="44.27558" lon="7.13741">
        <ele>1273.6</ele>
        <time>2022-07-19T04:34:09Z</time>
      </trkpt>
      <trkpt lat="44.27558" lon="7.13739">
        <ele>1274</ele>
        <time>2022-07-19T04:34:10Z</time>
      </trkpt>
      <trkpt lat="44.27558" lon="7.13736">
        <ele>1274.2</ele>
        <time>2022-07-19T04:34:11Z</time>
      </trkpt>
      <trkpt lat="44.27558" lon="7.13734">
        <ele>1274.2</ele>
        <time>2022-07-19T04:34:12Z</time>
      </trkpt>
      <trkpt lat="44.27557" lon="7.13732">
        <ele>1274.4</ele>
        <time>2022-07-19T04:34:13Z</time>
      </trkpt>
      <trkpt lat="44.27557" lon="7.13729">
        <ele>1274.4</ele>
        <time>2022-07-19T04:34:14Z</time>
      </trkpt>
      <trkpt lat="44.27557" lon="7.13727">
        <ele>1274.8</ele>
        <time>2022-07-19T04:34:15Z</time>
      </trkpt>
      <trkpt lat="44.27556" lon="7.13725">
        <ele>1275</ele>
        <time>2022-07-19T04:34:16Z</time>
      </trkpt>
      <trkpt lat="44.27556" lon="7.13723">
        <ele>1275</ele>
        <time>2022-07-19T04:34:17Z</time>
      </trkpt>
      <trkpt lat="44.27556" lon="7.13721">
        <ele>1275.4</ele>
        <time>2022-07-19T04:34:18Z</time>
      </trkpt>
      <trkpt lat="44.27555" lon="7.13719">
        <ele>1275.4</ele>
        <time>2022-07-19T04:34:19Z</time>
      </trkpt>
      <trkpt lat="44.27555" lon="7.13717">
        <ele>1275.6</ele>
        <time>2022-07-19T04:34:20Z</time>
      </trkpt>
      <trkpt lat="44.27554" lon="7.13715">
        <ele>1275.6</ele>
        <time>2022-07-19T04:34:21Z</time>
      </trkpt>
      <trkpt lat="44.27554" lon="7.13713">
        <ele>1276</ele>
        <time>2022-07-19T04:34:22Z</time>
      </trkpt>
      <trkpt lat="44.27553" lon="7.13712">
        <ele>1276</ele>
        <time>2022-07-19T04:34:23Z</time>
      </trkpt>
      <trkpt lat="44.27552" lon="7.1371">
        <ele>1276.4</ele>
        <time>2022-07-19T04:34:24Z</time>
      </trkpt>
      <trkpt lat="44.27552" lon="7.13708">
        <ele>1276.6</ele>
        <time>2022-07-19T04:34:25Z</time>
      </trkpt>
      <trkpt lat="44.27551" lon="7.13706">
        <ele>1276.8</ele>
        <time>2022-07-19T04:34:26Z</time>
      </trkpt>
      <trkpt lat="44.27551" lon="7.13704">
        <ele>1276.8</ele>
        <time>2022-07-19T04:34:27Z</time>
      </trkpt>
      <trkpt lat="44.2755" lon="7.13702">
        <ele>1277.2</ele>
        <time>2022-07-19T04:34:28Z</time>
      </trkpt>
      <trkpt lat="44.27549" lon="7.137">
        <ele>1277.2</ele>
        <time>2022-07-19T04:34:29Z</time>
      </trkpt>
      <trkpt lat="44.27549" lon="7.13698">
        <ele>1277.6</ele>
        <time>2022-07-19T04:34:30Z</time>
      </trkpt>
      <trkpt lat="44.27548" lon="7.13696">
        <ele>1277.6</ele>
        <time>2022-07-19T04:34:31Z</time>
      </trkpt>
      <trkpt lat="44.27547" lon="7.13694">
        <ele>1277.8</ele>
        <time>2022-07-19T04:34:32Z</time>
      </trkpt>
      <trkpt lat="44.27546" lon="7.13693">
        <ele>1277.8</ele>
        <time>2022-07-19T04:34:33Z</time>
      </trkpt>
      <trkpt lat="44.27545" lon="7.13691">
        <ele>1278.2</ele>
        <time>2022-07-19T04:34:34Z</time>
      </trkpt>
      <trkpt lat="44.27545" lon="7.13689">
        <ele>1278.2</ele>
        <time>2022-07-19T04:34:35Z</time>
      </trkpt>
      <trkpt lat="44.27544" lon="7.13687">
        <ele>1278.4</ele>
        <time>2022-07-19T04:34:36Z</time>
      </trkpt>
      <trkpt lat="44.27542" lon="7.13685">
        <ele>1278.4</ele>
        <time>2022-07-19T04:34:37Z</time>
      </trkpt>
      <trkpt lat="44.27541" lon="7.13684">
        <ele>1278.8</ele>
        <time>2022-07-19T04:34:38Z</time>
      </trkpt>
      <trkpt lat="44.2754" lon="7.13682">
        <ele>1278.8</ele>
        <time>2022-07-19T04:34:39Z</time>
      </trkpt>
      <trkpt lat="44.27539" lon="7.13681">
        <ele>1279.2</ele>
        <time>2022-07-19T04:34:40Z</time>
      </trkpt>
      <trkpt lat="44.27538" lon="7.13679">
        <ele>1279.2</ele>
        <time>2022-07-19T04:34:41Z</time>
      </trkpt>
      <trkpt lat="44.27537" lon="7.13677">
        <ele>1279.6</ele>
        <time>2022-07-19T04:34:42Z</time>
      </trkpt>
      <trkpt lat="44.27536" lon="7.13676">
        <ele>1279.6</ele>
        <time>2022-07-19T04:34:43Z</time>
      </trkpt>
      <trkpt lat="44.27534" lon="7.13674">
        <ele>1279.8</ele>
        <time>2022-07-19T04:34:44Z</time>
      </trkpt>
      <trkpt lat="44.27533" lon="7.13673">
        <ele>1279.8</ele>
        <time>2022-07-19T04:34:45Z</time>
      </trkpt>
      <trkpt lat="44.27532" lon="7.13671">
        <ele>1280.2</ele>
        <time>2022-07-19T04:34:46Z</time>
      </trkpt>
      <trkpt lat="44.27531" lon="7.13669">
        <ele>1280.2</ele>
        <time>2022-07-19T04:34:47Z</time>
      </trkpt>
      <trkpt lat="44.2753" lon="7.13668">
        <ele>1280.4</ele>
        <time>2022-07-19T04:34:48Z</time>
      </trkpt>
      <trkpt lat="44.27529" lon="7.13666">
        <ele>1280.4</ele>
        <time>2022-07-19T04:34:49Z</time>
      </trkpt>
      <trkpt lat="44.27528" lon="7.13664">
        <ele>1280.8</ele>
        <time>2022-07-19T04:34:50Z</time>
      </trkpt>
      <trkpt lat="44.27527" lon="7.13662">
        <ele>1280.8</ele>
        <time>2022-07-19T04:34:51Z</time>
      </trkpt>
      <trkpt lat="44.27526" lon="7.1366">
        <ele>1281.2</ele>
        <time>2022-07-19T04:34:52Z</time>
      </trkpt>
      <trkpt lat="44.27525" lon="7.13659">
        <ele>1281.6</ele>
        <time>2022-07-19T04:34:53Z</time>
      </trkpt>
      <trkpt lat="44.27524" lon="7.13657">
        <ele>1281.6</ele>
        <time>2022-07-19T04:34:54Z</time>
      </trkpt>
      <trkpt lat="44.27523" lon="7.13656">
        <ele>1282</ele>
        <time>2022-07-19T04:34:55Z</time>
      </trkpt>
      <trkpt lat="44.27522" lon="7.13654">
        <ele>1282.2</ele>
        <time>2022-07-19T04:34:56Z</time>
      </trkpt>
      <trkpt lat="44.27521" lon="7.13652">
        <ele>1282.2</ele>
        <time>2022-07-19T04:34:57Z</time>
      </trkpt>
      <trkpt lat="44.2752" lon="7.1365">
        <ele>1282.4</ele>
        <time>2022-07-19T04:34:58Z</time>
      </trkpt>
      <trkpt lat="44.27519" lon="7.13648">
        <ele>1282.4</ele>
        <time>2022-07-19T04:34:59Z</time>
      </trkpt>
      <trkpt lat="44.27517" lon="7.13646">
        <ele>1282.6</ele>
        <time>2022-07-19T04:35:00Z</time>
      </trkpt>
      <trkpt lat="44.27516" lon="7.13645">
        <ele>1282.6</ele>
        <time>2022-07-19T04:35:01Z</time>
      </trkpt>
      <trkpt lat="44.27514" lon="7.13643">
        <ele>1282.6</ele>
        <time>2022-07-19T04:35:02Z</time>
      </trkpt>
      <trkpt lat="44.27513" lon="7.13641">
        <ele>1283</ele>
        <time>2022-07-19T04:35:03Z</time>
      </trkpt>
      <trkpt lat="44.27511" lon="7.1364">
        <ele>1283</ele>
        <time>2022-07-19T04:35:04Z</time>
      </trkpt>
      <trkpt lat="44.2751" lon="7.13638">
        <ele>1283.2</ele>
        <time>2022-07-19T04:35:05Z</time>
      </trkpt>
      <trkpt lat="44.27508" lon="7.13637">
        <ele>1283.2</ele>
        <time>2022-07-19T04:35:06Z</time>
      </trkpt>
      <trkpt lat="44.27506" lon="7.13636">
        <ele>1283.4</ele>
        <time>2022-07-19T04:35:07Z</time>
      </trkpt>
      <trkpt lat="44.27505" lon="7.13634">
        <ele>1283.4</ele>
        <time>2022-07-19T04:35:08Z</time>
      </trkpt>
      <trkpt lat="44.27503" lon="7.13633">
        <ele>1283.4</ele>
        <time>2022-07-19T04:35:09Z</time>
      </trkpt>
      <trkpt lat="44.27502" lon="7.13631">
        <ele>1283.8</ele>
        <time>2022-07-19T04:35:10Z</time>
      </trkpt>
      <trkpt lat="44.275" lon="7.1363">
        <ele>1283.8</ele>
        <time>2022-07-19T04:35:11Z</time>
      </trkpt>
      <trkpt lat="44.27499" lon="7.13628">
        <ele>1284</ele>
        <time>2022-07-19T04:35:12Z</time>
      </trkpt>
      <trkpt lat="44.27497" lon="7.13627">
        <ele>1284</ele>
        <time>2022-07-19T04:35:13Z</time>
      </trkpt>
      <trkpt lat="44.27495" lon="7.13626">
        <ele>1284.4</ele>
        <time>2022-07-19T04:35:14Z</time>
      </trkpt>
      <trkpt lat="44.27494" lon="7.13624">
        <ele>1284.4</ele>
        <time>2022-07-19T04:35:15Z</time>
      </trkpt>
      <trkpt lat="44.27492" lon="7.13623">
        <ele>1284.4</ele>
        <time>2022-07-19T04:35:16Z</time>
      </trkpt>
      <trkpt lat="44.27491" lon="7.13622">
        <ele>1284.6</ele>
        <time>2022-07-19T04:35:17Z</time>
      </trkpt>
      <trkpt lat="44.27489" lon="7.13621">
        <ele>1284.6</ele>
        <time>2022-07-19T04:35:18Z</time>
      </trkpt>
      <trkpt lat="44.27487" lon="7.13619">
        <ele>1285</ele>
        <time>2022-07-19T04:35:19Z</time>
      </trkpt>
      <trkpt lat="44.27486" lon="7.13618">
        <ele>1285</ele>
        <time>2022-07-19T04:35:20Z</time>
      </trkpt>
      <trkpt lat="44.27484" lon="7.13617">
        <ele>1285.4</ele>
        <time>2022-07-19T04:35:21Z</time>
      </trkpt>
      <trkpt lat="44.27482" lon="7.13616">
        <ele>1285.4</ele>
        <time>2022-07-19T04:35:22Z</time>
      </trkpt>
      <trkpt lat="44.27481" lon="7.13615">
        <ele>1285.6</ele>
        <time>2022-07-19T04:35:23Z</time>
      </trkpt>
      <trkpt lat="44.27479" lon="7.13614">
        <ele>1285.6</ele>
        <time>2022-07-19T04:35:24Z</time>
      </trkpt>
      <trkpt lat="44.27478" lon="7.13613">
        <ele>1285.8</ele>
        <time>2022-07-19T04:35:25Z</time>
      </trkpt>
      <trkpt lat="44.27476" lon="7.13612">
        <ele>1285.8</ele>
        <time>2022-07-19T04:35:26Z</time>
      </trkpt>
      <trkpt lat="44.27474" lon="7.13611">
        <ele>1285.8</ele>
        <time>2022-07-19T04:35:27Z</time>
      </trkpt>
      <trkpt lat="44.27473" lon="7.13609">
        <ele>1286.2</ele>
        <time>2022-07-19T04:35:28Z</time>
      </trkpt>
      <trkpt lat="44.27471" lon="7.13608">
        <ele>1286.2</ele>
        <time>2022-07-19T04:35:29Z</time>
      </trkpt>
      <trkpt lat="44.2747" lon="7.13607">
        <ele>1286.4</ele>
        <time>2022-07-19T04:35:30Z</time>
      </trkpt>
      <trkpt lat="44.27468" lon="7.13606">
        <ele>1286.4</ele>
        <time>2022-07-19T04:35:31Z</time>
      </trkpt>
      <trkpt lat="44.27467" lon="7.13604">
        <ele>1286.6</ele>
        <time>2022-07-19T04:35:32Z</time>
      </trkpt>
      <trkpt lat="44.27465" lon="7.13603">
        <ele>1286.6</ele>
        <time>2022-07-19T04:35:33Z</time>
      </trkpt>
      <trkpt lat="44.27464" lon="7.13602">
        <ele>1287</ele>
        <time>2022-07-19T04:35:34Z</time>
      </trkpt>
      <trkpt lat="44.27463" lon="7.136">
        <ele>1287</ele>
        <time>2022-07-19T04:35:35Z</time>
      </trkpt>
      <trkpt lat="44.27462" lon="7.13599">
        <ele>1287.2</ele>
        <time>2022-07-19T04:35:36Z</time>
      </trkpt>
      <trkpt lat="44.27461" lon="7.13597">
        <ele>1287.4</ele>
        <time>2022-07-19T04:35:37Z</time>
      </trkpt>
      <trkpt lat="44.27459" lon="7.13596">
        <ele>1287.4</ele>
        <time>2022-07-19T04:35:38Z</time>
      </trkpt>
      <trkpt lat="44.27458" lon="7.13595">
        <ele>1287.8</ele>
        <time>2022-07-19T04:35:39Z</time>
      </trkpt>
      <trkpt lat="44.27457" lon="7.13594">
        <ele>1287.8</ele>
        <time>2022-07-19T04:35:40Z</time>
      </trkpt>
      <trkpt lat="44.27456" lon="7.13592">
        <ele>1288.2</ele>
        <time>2022-07-19T04:35:41Z</time>
      </trkpt>
      <trkpt lat="44.27455" lon="7.13591">
        <ele>1288.2</ele>
        <time>2022-07-19T04:35:42Z</time>
      </trkpt>
      <trkpt lat="44.27454" lon="7.13589">
        <ele>1288.2</ele>
        <time>2022-07-19T04:35:43Z</time>
      </trkpt>
      <trkpt lat="44.27453" lon="7.13588">
        <ele>1288.6</ele>
        <time>2022-07-19T04:35:44Z</time>
      </trkpt>
      <trkpt lat="44.27452" lon="7.13587">
        <ele>1288.6</ele>
        <time>2022-07-19T04:35:45Z</time>
      </trkpt>
      <trkpt lat="44.27451" lon="7.13586">
        <ele>1288.8</ele>
        <time>2022-07-19T04:35:46Z</time>
      </trkpt>
      <trkpt lat="44.2745" lon="7.13585">
        <ele>1288.8</ele>
        <time>2022-07-19T04:35:47Z</time>
      </trkpt>
      <trkpt lat="44.27448" lon="7.13584">
        <ele>1289</ele>
        <time>2022-07-19T04:35:48Z</time>
      </trkpt>
      <trkpt lat="44.27447" lon="7.13582">
        <ele>1289</ele>
        <time>2022-07-19T04:35:49Z</time>
      </trkpt>
      <trkpt lat="44.27446" lon="7.13581">
        <ele>1289.4</ele>
        <time>2022-07-19T04:35:50Z</time>
      </trkpt>
      <trkpt lat="44.27445" lon="7.13579">
        <ele>1289.4</ele>
        <time>2022-07-19T04:35:51Z</time>
      </trkpt>
      <trkpt lat="44.27444" lon="7.13578">
        <ele>1289.8</ele>
        <time>2022-07-19T04:35:52Z</time>
      </trkpt>
      <trkpt lat="44.27442" lon="7.13576">
        <ele>1289.8</ele>
        <time>2022-07-19T04:35:53Z</time>
      </trkpt>
      <trkpt lat="44.27441" lon="7.13575">
        <ele>1290</ele>
        <time>2022-07-19T04:35:54Z</time>
      </trkpt>
      <trkpt lat="44.2744" lon="7.13573">
        <ele>1290</ele>
        <time>2022-07-19T04:35:55Z</time>
      </trkpt>
      <trkpt lat="44.27438" lon="7.13572">
        <ele>1290.4</ele>
        <time>2022-07-19T04:35:56Z</time>
      </trkpt>
      <trkpt lat="44.27437" lon="7.13571">
        <ele>1290.4</ele>
        <time>2022-07-19T04:35:57Z</time>
      </trkpt>
      <trkpt lat="44.27435" lon="7.1357">
        <ele>1290.6</ele>
        <time>2022-07-19T04:35:58Z</time>
      </trkpt>
      <trkpt lat="44.27434" lon="7.13569">
        <ele>1290.6</ele>
        <time>2022-07-19T04:35:59Z</time>
      </trkpt>
      <trkpt lat="44.27433" lon="7.13568">
        <ele>1291</ele>
        <time>2022-07-19T04:36:00Z</time>
      </trkpt>
      <trkpt lat="44.27431" lon="7.13567">
        <ele>1291</ele>
        <time>2022-07-19T04:36:01Z</time>
      </trkpt>
      <trkpt lat="44.2743" lon="7.13565">
        <ele>1291.2</ele>
        <time>2022-07-19T04:36:02Z</time>
      </trkpt>
      <trkpt lat="44.27429" lon="7.13563">
        <ele>1291.2</ele>
        <time>2022-07-19T04:36:03Z</time>
      </trkpt>
      <trkpt lat="44.27427" lon="7.13562">
        <ele>1291.4</ele>
        <time>2022-07-19T04:36:04Z</time>
      </trkpt>
      <trkpt lat="44.27426" lon="7.13561">
        <ele>1291.4</ele>
        <time>2022-07-19T04:36:05Z</time>
      </trkpt>
      <trkpt lat="44.27425" lon="7.1356">
        <ele>1291.8</ele>
        <time>2022-07-19T04:36:06Z</time>
      </trkpt>
      <trkpt lat="44.27423" lon="7.13559">
        <ele>1291.8</ele>
        <time>2022-07-19T04:36:07Z</time>
      </trkpt>
      <trkpt lat="44.27422" lon="7.13557">
        <ele>1292</ele>
        <time>2022-07-19T04:36:08Z</time>
      </trkpt>
      <trkpt lat="44.27421" lon="7.13556">
        <ele>1292</ele>
        <time>2022-07-19T04:36:09Z</time>
      </trkpt>
      <trkpt lat="44.27419" lon="7.13555">
        <ele>1292.2</ele>
        <time>2022-07-19T04:36:10Z</time>
      </trkpt>
      <trkpt lat="44.27418" lon="7.13554">
        <ele>1292.2</ele>
        <time>2022-07-19T04:36:11Z</time>
      </trkpt>
      <trkpt lat="44.27417" lon="7.13552">
        <ele>1292.2</ele>
        <time>2022-07-19T04:36:12Z</time>
      </trkpt>
      <trkpt lat="44.27415" lon="7.13551">
        <ele>1292.6</ele>
        <time>2022-07-19T04:36:13Z</time>
      </trkpt>
      <trkpt lat="44.27414" lon="7.1355">
        <ele>1292.6</ele>
        <time>2022-07-19T04:36:14Z</time>
      </trkpt>
      <trkpt lat="44.27413" lon="7.13549">
        <ele>1293</ele>
        <time>2022-07-19T04:36:15Z</time>
      </trkpt>
      <trkpt lat="44.27411" lon="7.13548">
        <ele>1293</ele>
        <time>2022-07-19T04:36:16Z</time>
      </trkpt>
      <trkpt lat="44.2741" lon="7.13547">
        <ele>1293.4</ele>
        <time>2022-07-19T04:36:17Z</time>
      </trkpt>
      <trkpt lat="44.27409" lon="7.13546">
        <ele>1293.4</ele>
        <time>2022-07-19T04:36:18Z</time>
      </trkpt>
      <trkpt lat="44.27407" lon="7.13545">
        <ele>1293.6</ele>
        <time>2022-07-19T04:36:19Z</time>
      </trkpt>
      <trkpt lat="44.27406" lon="7.13543">
        <ele>1293.6</ele>
        <time>2022-07-19T04:36:20Z</time>
      </trkpt>
      <trkpt lat="44.27405" lon="7.13542">
        <ele>1293.6</ele>
        <time>2022-07-19T04:36:21Z</time>
      </trkpt>
      <trkpt lat="44.27403" lon="7.13541">
        <ele>1293.8</ele>
        <time>2022-07-19T04:36:22Z</time>
      </trkpt>
      <trkpt lat="44.27402" lon="7.13541">
        <ele>1293.8</ele>
        <time>2022-07-19T04:36:23Z</time>
      </trkpt>
      <trkpt lat="44.27401" lon="7.1354">
        <ele>1294</ele>
        <time>2022-07-19T04:36:24Z</time>
      </trkpt>
      <trkpt lat="44.27399" lon="7.13539">
        <ele>1294</ele>
        <time>2022-07-19T04:36:25Z</time>
      </trkpt>
      <trkpt lat="44.27398" lon="7.13538">
        <ele>1294.4</ele>
        <time>2022-07-19T04:36:26Z</time>
      </trkpt>
      <trkpt lat="44.27397" lon="7.13537">
        <ele>1294.4</ele>
        <time>2022-07-19T04:36:27Z</time>
      </trkpt>
      <trkpt lat="44.27396" lon="7.13537">
        <ele>1294.6</ele>
        <time>2022-07-19T04:36:28Z</time>
      </trkpt>
      <trkpt lat="44.27394" lon="7.13536">
        <ele>1294.6</ele>
        <time>2022-07-19T04:36:29Z</time>
      </trkpt>
      <trkpt lat="44.27393" lon="7.13535">
        <ele>1294.6</ele>
        <time>2022-07-19T04:36:30Z</time>
      </trkpt>
      <trkpt lat="44.27391" lon="7.13535">
        <ele>1295</ele>
        <time>2022-07-19T04:36:31Z</time>
      </trkpt>
      <trkpt lat="44.2739" lon="7.13534">
        <ele>1295</ele>
        <time>2022-07-19T04:36:32Z</time>
      </trkpt>
      <trkpt lat="44.27389" lon="7.13533">
        <ele>1295.2</ele>
        <time>2022-07-19T04:36:33Z</time>
      </trkpt>
      <trkpt lat="44.27388" lon="7.13532">
        <ele>1295.2</ele>
        <time>2022-07-19T04:36:34Z</time>
      </trkpt>
      <trkpt lat="44.27386" lon="7.13531">
        <ele>1295.4</ele>
        <time>2022-07-19T04:36:35Z</time>
      </trkpt>
      <trkpt lat="44.27385" lon="7.1353">
        <ele>1295.4</ele>
        <time>2022-07-19T04:36:36Z</time>
      </trkpt>
      <trkpt lat="44.27384" lon="7.13529">
        <ele>1295.8</ele>
        <time>2022-07-19T04:36:37Z</time>
      </trkpt>
      <trkpt lat="44.27383" lon="7.13527">
        <ele>1295.8</ele>
        <time>2022-07-19T04:36:38Z</time>
      </trkpt>
      <trkpt lat="44.27381" lon="7.13526">
        <ele>1296</ele>
        <time>2022-07-19T04:36:39Z</time>
      </trkpt>
      <trkpt lat="44.2738" lon="7.13525">
        <ele>1296</ele>
        <time>2022-07-19T04:36:40Z</time>
      </trkpt>
      <trkpt lat="44.27378" lon="7.13524">
        <ele>1296.4</ele>
        <time>2022-07-19T04:36:41Z</time>
      </trkpt>
      <trkpt lat="44.27377" lon="7.13523">
        <ele>1296.4</ele>
        <time>2022-07-19T04:36:42Z</time>
      </trkpt>
      <trkpt lat="44.27376" lon="7.13522">
        <ele>1296.6</ele>
        <time>2022-07-19T04:36:43Z</time>
      </trkpt>
      <trkpt lat="44.27375" lon="7.13521">
        <ele>1296.6</ele>
        <time>2022-07-19T04:36:44Z</time>
      </trkpt>
      <trkpt lat="44.27374" lon="7.13519">
        <ele>1296.8</ele>
        <time>2022-07-19T04:36:45Z</time>
      </trkpt>
      <trkpt lat="44.27372" lon="7.13518">
        <ele>1296.8</ele>
        <time>2022-07-19T04:36:46Z</time>
      </trkpt>
      <trkpt lat="44.27372" lon="7.13517">
        <ele>1297.2</ele>
        <time>2022-07-19T04:36:47Z</time>
      </trkpt>
      <trkpt lat="44.2737" lon="7.13516">
        <ele>1297.2</ele>
        <time>2022-07-19T04:36:48Z</time>
      </trkpt>
      <trkpt lat="44.27369" lon="7.13514">
        <ele>1297.4</ele>
        <time>2022-07-19T04:36:49Z</time>
      </trkpt>
      <trkpt lat="44.27368" lon="7.13513">
        <ele>1297.4</ele>
        <time>2022-07-19T04:36:50Z</time>
      </trkpt>
      <trkpt lat="44.27367" lon="7.13512">
        <ele>1297.8</ele>
        <time>2022-07-19T04:36:51Z</time>
      </trkpt>
      <trkpt lat="44.27366" lon="7.13511">
        <ele>1297.8</ele>
        <time>2022-07-19T04:36:52Z</time>
      </trkpt>
      <trkpt lat="44.27365" lon="7.1351">
        <ele>1298.2</ele>
        <time>2022-07-19T04:36:53Z</time>
      </trkpt>
      <trkpt lat="44.27364" lon="7.13509">
        <ele>1298.4</ele>
        <time>2022-07-19T04:36:54Z</time>
      </trkpt>
      <trkpt lat="44.27363" lon="7.13507">
        <ele>1298.6</ele>
        <time>2022-07-19T04:36:55Z</time>
      </trkpt>
      <trkpt lat="44.27362" lon="7.13506">
        <ele>1298.6</ele>
        <time>2022-07-19T04:36:56Z</time>
      </trkpt>
      <trkpt lat="44.27361" lon="7.13505">
        <ele>1298.8</ele>
        <time>2022-07-19T04:36:57Z</time>
      </trkpt>
      <trkpt lat="44.2736" lon="7.13503">
        <ele>1298.8</ele>
        <time>2022-07-19T04:36:58Z</time>
      </trkpt>
      <trkpt lat="44.27359" lon="7.13502">
        <ele>1299</ele>
        <time>2022-07-19T04:36:59Z</time>
      </trkpt>
      <trkpt lat="44.27358" lon="7.13501">
        <ele>1299</ele>
        <time>2022-07-19T04:37:00Z</time>
      </trkpt>
      <trkpt lat="44.27357" lon="7.135">
        <ele>1299.4</ele>
        <time>2022-07-19T04:37:01Z</time>
      </trkpt>
      <trkpt lat="44.27356" lon="7.13499">
        <ele>1299.4</ele>
        <time>2022-07-19T04:37:02Z</time>
      </trkpt>
      <trkpt lat="44.27354" lon="7.13497">
        <ele>1299.8</ele>
        <time>2022-07-19T04:37:03Z</time>
      </trkpt>
      <trkpt lat="44.27353" lon="7.13496">
        <ele>1299.8</ele>
        <time>2022-07-19T04:37:04Z</time>
      </trkpt>
      <trkpt lat="44.27352" lon="7.13495">
        <ele>1300</ele>
        <time>2022-07-19T04:37:05Z</time>
      </trkpt>
      <trkpt lat="44.27351" lon="7.13493">
        <ele>1300</ele>
        <time>2022-07-19T04:37:06Z</time>
      </trkpt>
      <trkpt lat="44.2735" lon="7.13492">
        <ele>1300.2</ele>
        <time>2022-07-19T04:37:07Z</time>
      </trkpt>
      <trkpt lat="44.27349" lon="7.13491">
        <ele>1300.2</ele>
        <time>2022-07-19T04:37:08Z</time>
      </trkpt>
      <trkpt lat="44.27348" lon="7.13489">
        <ele>1300.6</ele>
        <time>2022-07-19T04:37:09Z</time>
      </trkpt>
      <trkpt lat="44.27347" lon="7.13488">
        <ele>1300.8</ele>
        <time>2022-07-19T04:37:10Z</time>
      </trkpt>
      <trkpt lat="44.27346" lon="7.13486">
        <ele>1300.8</ele>
        <time>2022-07-19T04:37:11Z</time>
      </trkpt>
      <trkpt lat="44.27345" lon="7.13485">
        <ele>1301.2</ele>
        <time>2022-07-19T04:37:12Z</time>
      </trkpt>
      <trkpt lat="44.27344" lon="7.13484">
        <ele>1301.2</ele>
        <time>2022-07-19T04:37:13Z</time>
      </trkpt>
      <trkpt lat="44.27343" lon="7.13483">
        <ele>1301.4</ele>
        <time>2022-07-19T04:37:14Z</time>
      </trkpt>
      <trkpt lat="44.27342" lon="7.13482">
        <ele>1301.4</ele>
        <time>2022-07-19T04:37:15Z</time>
      </trkpt>
      <trkpt lat="44.2734" lon="7.1348">
        <ele>1301.8</ele>
        <time>2022-07-19T04:37:16Z</time>
      </trkpt>
      <trkpt lat="44.27339" lon="7.13479">
        <ele>1301.8</ele>
        <time>2022-07-19T04:37:17Z</time>
      </trkpt>
      <trkpt lat="44.27338" lon="7.13478">
        <ele>1302</ele>
        <time>2022-07-19T04:37:18Z</time>
      </trkpt>
      <trkpt lat="44.27337" lon="7.13477">
        <ele>1302</ele>
        <time>2022-07-19T04:37:19Z</time>
      </trkpt>
      <trkpt lat="44.27336" lon="7.13476">
        <ele>1302.4</ele>
        <time>2022-07-19T04:37:20Z</time>
      </trkpt>
      <trkpt lat="44.27335" lon="7.13475">
        <ele>1302.4</ele>
        <time>2022-07-19T04:37:21Z</time>
      </trkpt>
      <trkpt lat="44.27334" lon="7.13474">
        <ele>1302.8</ele>
        <time>2022-07-19T04:37:22Z</time>
      </trkpt>
      <trkpt lat="44.27333" lon="7.13473">
        <ele>1302.8</ele>
        <time>2022-07-19T04:37:23Z</time>
      </trkpt>
      <trkpt lat="44.27332" lon="7.13473">
        <ele>1303</ele>
        <time>2022-07-19T04:37:24Z</time>
      </trkpt>
      <trkpt lat="44.27331" lon="7.13472">
        <ele>1303</ele>
        <time>2022-07-19T04:37:25Z</time>
      </trkpt>
      <trkpt lat="44.27329" lon="7.13471">
        <ele>1303.4</ele>
        <time>2022-07-19T04:37:26Z</time>
      </trkpt>
      <trkpt lat="44.27328" lon="7.1347">
        <ele>1303.4</ele>
        <time>2022-07-19T04:37:27Z</time>
      </trkpt>
      <trkpt lat="44.27327" lon="7.13469">
        <ele>1303.8</ele>
        <time>2022-07-19T04:37:28Z</time>
      </trkpt>
      <trkpt lat="44.27326" lon="7.13468">
        <ele>1303.8</ele>
        <time>2022-07-19T04:37:29Z</time>
      </trkpt>
      <trkpt lat="44.27325" lon="7.13467">
        <ele>1304</ele>
        <time>2022-07-19T04:37:30Z</time>
      </trkpt>
      <trkpt lat="44.27324" lon="7.13466">
        <ele>1304</ele>
        <time>2022-07-19T04:37:31Z</time>
      </trkpt>
      <trkpt lat="44.27323" lon="7.13465">
        <ele>1304.4</ele>
        <time>2022-07-19T04:37:32Z</time>
      </trkpt>
      <trkpt lat="44.27321" lon="7.13464">
        <ele>1304.4</ele>
        <time>2022-07-19T04:37:33Z</time>
      </trkpt>
      <trkpt lat="44.2732" lon="7.13462">
        <ele>1304.6</ele>
        <time>2022-07-19T04:37:34Z</time>
      </trkpt>
      <trkpt lat="44.27319" lon="7.1346">
        <ele>1304.6</ele>
        <time>2022-07-19T04:37:35Z</time>
      </trkpt>
      <trkpt lat="44.27318" lon="7.13459">
        <ele>1305</ele>
        <time>2022-07-19T04:37:36Z</time>
      </trkpt>
      <trkpt lat="44.27317" lon="7.13457">
        <ele>1305</ele>
        <time>2022-07-19T04:37:37Z</time>
      </trkpt>
      <trkpt lat="44.27316" lon="7.13456">
        <ele>1305.4</ele>
        <time>2022-07-19T04:37:38Z</time>
      </trkpt>
      <trkpt lat="44.27315" lon="7.13454">
        <ele>1305.4</ele>
        <time>2022-07-19T04:37:39Z</time>
      </trkpt>
      <trkpt lat="44.27314" lon="7.13453">
        <ele>1305.6</ele>
        <time>2022-07-19T04:37:40Z</time>
      </trkpt>
      <trkpt lat="44.27313" lon="7.13452">
        <ele>1306</ele>
        <time>2022-07-19T04:37:41Z</time>
      </trkpt>
      <trkpt lat="44.27311" lon="7.1345">
        <ele>1306</ele>
        <time>2022-07-19T04:37:42Z</time>
      </trkpt>
      <trkpt lat="44.2731" lon="7.13448">
        <ele>1306.2</ele>
        <time>2022-07-19T04:37:43Z</time>
      </trkpt>
      <trkpt lat="44.27308" lon="7.13447">
        <ele>1306.2</ele>
        <time>2022-07-19T04:37:44Z</time>
      </trkpt>
      <trkpt lat="44.27307" lon="7.13445">
        <ele>1306.6</ele>
        <time>2022-07-19T04:37:45Z</time>
      </trkpt>
      <trkpt lat="44.27306" lon="7.13444">
        <ele>1306.6</ele>
        <time>2022-07-19T04:37:46Z</time>
      </trkpt>
      <trkpt lat="44.27304" lon="7.13442">
        <ele>1306.8</ele>
        <time>2022-07-19T04:37:47Z</time>
      </trkpt>
      <trkpt lat="44.27302" lon="7.13441">
        <ele>1306.8</ele>
        <time>2022-07-19T04:37:48Z</time>
      </trkpt>
      <trkpt lat="44.273" lon="7.1344">
        <ele>1307.2</ele>
        <time>2022-07-19T04:37:49Z</time>
      </trkpt>
      <trkpt lat="44.27299" lon="7.13438">
        <ele>1307.2</ele>
        <time>2022-07-19T04:37:50Z</time>
      </trkpt>
      <trkpt lat="44.27298" lon="7.13436">
        <ele>1307.4</ele>
        <time>2022-07-19T04:37:51Z</time>
      </trkpt>
      <trkpt lat="44.27297" lon="7.13435">
        <ele>1307.6</ele>
        <time>2022-07-19T04:37:52Z</time>
      </trkpt>
      <trkpt lat="44.27296" lon="7.13434">
        <ele>1307.6</ele>
        <time>2022-07-19T04:37:53Z</time>
      </trkpt>
      <trkpt lat="44.27295" lon="7.13433">
        <ele>1308</ele>
        <time>2022-07-19T04:37:54Z</time>
      </trkpt>
      <trkpt lat="44.27293" lon="7.13431">
        <ele>1308</ele>
        <time>2022-07-19T04:37:55Z</time>
      </trkpt>
      <trkpt lat="44.27292" lon="7.1343">
        <ele>1308.4</ele>
        <time>2022-07-19T04:37:56Z</time>
      </trkpt>
      <trkpt lat="44.27291" lon="7.13429">
        <ele>1308.4</ele>
        <time>2022-07-19T04:37:57Z</time>
      </trkpt>
      <trkpt lat="44.2729" lon="7.13427">
        <ele>1308.6</ele>
        <time>2022-07-19T04:37:58Z</time>
      </trkpt>
      <trkpt lat="44.27289" lon="7.13425">
        <ele>1309</ele>
        <time>2022-07-19T04:37:59Z</time>
      </trkpt>
      <trkpt lat="44.27287" lon="7.13423">
        <ele>1309.2</ele>
        <time>2022-07-19T04:38:00Z</time>
      </trkpt>
      <trkpt lat="44.27285" lon="7.13423">
        <ele>1309.4</ele>
        <time>2022-07-19T04:38:01Z</time>
      </trkpt>
      <trkpt lat="44.27284" lon="7.13421">
        <ele>1309.6</ele>
        <time>2022-07-19T04:38:02Z</time>
      </trkpt>
      <trkpt lat="44.27283" lon="7.1342">
        <ele>1309.6</ele>
        <time>2022-07-19T04:38:03Z</time>
      </trkpt>
      <trkpt lat="44.27282" lon="7.13419">
        <ele>1310</ele>
        <time>2022-07-19T04:38:04Z</time>
      </trkpt>
      <trkpt lat="44.27281" lon="7.13417">
        <ele>1310.2</ele>
        <time>2022-07-19T04:38:05Z</time>
      </trkpt>
      <trkpt lat="44.2728" lon="7.13416">
        <ele>1310.4</ele>
        <time>2022-07-19T04:38:06Z</time>
      </trkpt>
      <trkpt lat="44.27279" lon="7.13415">
        <ele>1310.8</ele>
        <time>2022-07-19T04:38:07Z</time>
      </trkpt>
      <trkpt lat="44.27278" lon="7.13415">
        <ele>1311</ele>
        <time>2022-07-19T04:38:08Z</time>
      </trkpt>
      <trkpt lat="44.27277" lon="7.13414">
        <ele>1311</ele>
        <time>2022-07-19T04:38:09Z</time>
      </trkpt>
      <trkpt lat="44.27276" lon="7.13412">
        <ele>1311.4</ele>
        <time>2022-07-19T04:38:10Z</time>
      </trkpt>
      <trkpt lat="44.27275" lon="7.13411">
        <ele>1311.4</ele>
        <time>2022-07-19T04:38:11Z</time>
      </trkpt>
      <trkpt lat="44.27274" lon="7.13409">
        <ele>1311.6</ele>
        <time>2022-07-19T04:38:12Z</time>
      </trkpt>
      <trkpt lat="44.27273" lon="7.13407">
        <ele>1311.6</ele>
        <time>2022-07-19T04:38:13Z</time>
      </trkpt>
      <trkpt lat="44.27272" lon="7.13406">
        <ele>1312</ele>
        <time>2022-07-19T04:38:14Z</time>
      </trkpt>
      <trkpt lat="44.27271" lon="7.13405">
        <ele>1312</ele>
        <time>2022-07-19T04:38:15Z</time>
      </trkpt>
      <trkpt lat="44.2727" lon="7.13404">
        <ele>1312.2</ele>
        <time>2022-07-19T04:38:16Z</time>
      </trkpt>
      <trkpt lat="44.27268" lon="7.13402">
        <ele>1312.2</ele>
        <time>2022-07-19T04:38:17Z</time>
      </trkpt>
      <trkpt lat="44.27267" lon="7.13401">
        <ele>1312.6</ele>
        <time>2022-07-19T04:38:18Z</time>
      </trkpt>
      <trkpt lat="44.27266" lon="7.134">
        <ele>1312.8</ele>
        <time>2022-07-19T04:38:19Z</time>
      </trkpt>
      <trkpt lat="44.27265" lon="7.13399">
        <ele>1312.8</ele>
        <time>2022-07-19T04:38:20Z</time>
      </trkpt>
      <trkpt lat="44.27264" lon="7.13398">
        <ele>1313</ele>
        <time>2022-07-19T04:38:21Z</time>
      </trkpt>
      <trkpt lat="44.27263" lon="7.13397">
        <ele>1313</ele>
        <time>2022-07-19T04:38:22Z</time>
      </trkpt>
      <trkpt lat="44.27261" lon="7.13396">
        <ele>1313.2</ele>
        <time>2022-07-19T04:38:23Z</time>
      </trkpt>
      <trkpt lat="44.2726" lon="7.13395">
        <ele>1313.2</ele>
        <time>2022-07-19T04:38:24Z</time>
      </trkpt>
      <trkpt lat="44.27259" lon="7.13393">
        <ele>1313.6</ele>
        <time>2022-07-19T04:38:25Z</time>
      </trkpt>
      <trkpt lat="44.27258" lon="7.13392">
        <ele>1313.8</ele>
        <time>2022-07-19T04:38:26Z</time>
      </trkpt>
      <trkpt lat="44.27257" lon="7.1339">
        <ele>1313.8</ele>
        <time>2022-07-19T04:38:27Z</time>
      </trkpt>
      <trkpt lat="44.27256" lon="7.13389">
        <ele>1314.2</ele>
        <time>2022-07-19T04:38:28Z</time>
      </trkpt>
      <trkpt lat="44.27255" lon="7.13388">
        <ele>1314.2</ele>
        <time>2022-07-19T04:38:29Z</time>
      </trkpt>
      <trkpt lat="44.27253" lon="7.13387">
        <ele>1314.4</ele>
        <time>2022-07-19T04:38:30Z</time>
      </trkpt>
      <trkpt lat="44.27252" lon="7.13386">
        <ele>1314.4</ele>
        <time>2022-07-19T04:38:31Z</time>
      </trkpt>
      <trkpt lat="44.2725" lon="7.13385">
        <ele>1314.8</ele>
        <time>2022-07-19T04:38:32Z</time>
      </trkpt>
      <trkpt lat="44.27249" lon="7.13384">
        <ele>1314.8</ele>
        <time>2022-07-19T04:38:33Z</time>
      </trkpt>
      <trkpt lat="44.27247" lon="7.13383">
        <ele>1314.8</ele>
        <time>2022-07-19T04:38:34Z</time>
      </trkpt>
      <trkpt lat="44.27246" lon="7.13381">
        <ele>1315</ele>
        <time>2022-07-19T04:38:35Z</time>
      </trkpt>
      <trkpt lat="44.27245" lon="7.13379">
        <ele>1315</ele>
        <time>2022-07-19T04:38:36Z</time>
      </trkpt>
      <trkpt lat="44.27245" lon="7.13378">
        <ele>1315.4</ele>
        <time>2022-07-19T04:38:37Z</time>
      </trkpt>
      <trkpt lat="44.27243" lon="7.13377">
        <ele>1315.6</ele>
        <time>2022-07-19T04:38:38Z</time>
      </trkpt>
      <trkpt lat="44.27242" lon="7.13376">
        <ele>1315.6</ele>
        <time>2022-07-19T04:38:39Z</time>
      </trkpt>
      <trkpt lat="44.27241" lon="7.13374">
        <ele>1315.8</ele>
        <time>2022-07-19T04:38:40Z</time>
      </trkpt>
      <trkpt lat="44.2724" lon="7.13372">
        <ele>1316</ele>
        <time>2022-07-19T04:38:41Z</time>
      </trkpt>
      <trkpt lat="44.27239" lon="7.13371">
        <ele>1316</ele>
        <time>2022-07-19T04:38:42Z</time>
      </trkpt>
      <trkpt lat="44.27238" lon="7.1337">
        <ele>1316.2</ele>
        <time>2022-07-19T04:38:43Z</time>
      </trkpt>
      <trkpt lat="44.27236" lon="7.13369">
        <ele>1316.2</ele>
        <time>2022-07-19T04:38:44Z</time>
      </trkpt>
      <trkpt lat="44.27235" lon="7.13367">
        <ele>1316.6</ele>
        <time>2022-07-19T04:38:45Z</time>
      </trkpt>
      <trkpt lat="44.27234" lon="7.13366">
        <ele>1316.6</ele>
        <time>2022-07-19T04:38:46Z</time>
      </trkpt>
      <trkpt lat="44.27233" lon="7.13365">
        <ele>1317</ele>
        <time>2022-07-19T04:38:47Z</time>
      </trkpt>
      <trkpt lat="44.27232" lon="7.13364">
        <ele>1317</ele>
        <time>2022-07-19T04:38:48Z</time>
      </trkpt>
      <trkpt lat="44.27231" lon="7.13363">
        <ele>1317.2</ele>
        <time>2022-07-19T04:38:49Z</time>
      </trkpt>
      <trkpt lat="44.2723" lon="7.13362">
        <ele>1317.2</ele>
        <time>2022-07-19T04:38:50Z</time>
      </trkpt>
      <trkpt lat="44.2723" lon="7.13361">
        <ele>1317.2</ele>
        <time>2022-07-19T04:38:51Z</time>
      </trkpt>
      <trkpt lat="44.27229" lon="7.13358">
        <ele>1317.4</ele>
        <time>2022-07-19T04:38:52Z</time>
      </trkpt>
      <trkpt lat="44.27229" lon="7.13356">
        <ele>1317.4</ele>
        <time>2022-07-19T04:38:53Z</time>
      </trkpt>
      <trkpt lat="44.27228" lon="7.13355">
        <ele>1317.8</ele>
        <time>2022-07-19T04:38:54Z</time>
      </trkpt>
      <trkpt lat="44.27227" lon="7.13353">
        <ele>1318</ele>
        <time>2022-07-19T04:38:55Z</time>
      </trkpt>
      <trkpt lat="44.27226" lon="7.13351">
        <ele>1318.4</ele>
        <time>2022-07-19T04:38:57Z</time>
      </trkpt>
      <trkpt lat="44.27225" lon="7.1335">
        <ele>1318.6</ele>
        <time>2022-07-19T04:38:58Z</time>
      </trkpt>
      <trkpt lat="44.27224" lon="7.13348">
        <ele>1318.6</ele>
        <time>2022-07-19T04:38:59Z</time>
      </trkpt>
      <trkpt lat="44.27224" lon="7.13346">
        <ele>1319</ele>
        <time>2022-07-19T04:39:00Z</time>
      </trkpt>
      <trkpt lat="44.27223" lon="7.13344">
        <ele>1319</ele>
        <time>2022-07-19T04:39:01Z</time>
      </trkpt>
      <trkpt lat="44.27222" lon="7.13342">
        <ele>1319.4</ele>
        <time>2022-07-19T04:39:02Z</time>
      </trkpt>
      <trkpt lat="44.27222" lon="7.13341">
        <ele>1319.4</ele>
        <time>2022-07-19T04:39:03Z</time>
      </trkpt>
      <trkpt lat="44.27221" lon="7.13339">
        <ele>1319.6</ele>
        <time>2022-07-19T04:39:04Z</time>
      </trkpt>
      <trkpt lat="44.2722" lon="7.13337">
        <ele>1319.6</ele>
        <time>2022-07-19T04:39:05Z</time>
      </trkpt>
      <trkpt lat="44.27219" lon="7.13335">
        <ele>1320</ele>
        <time>2022-07-19T04:39:06Z</time>
      </trkpt>
      <trkpt lat="44.27219" lon="7.13333">
        <ele>1320</ele>
        <time>2022-07-19T04:39:07Z</time>
      </trkpt>
      <trkpt lat="44.27219" lon="7.13331">
        <ele>1320.4</ele>
        <time>2022-07-19T04:39:08Z</time>
      </trkpt>
      <trkpt lat="44.27218" lon="7.13329">
        <ele>1320.4</ele>
        <time>2022-07-19T04:39:09Z</time>
      </trkpt>
      <trkpt lat="44.27218" lon="7.13327">
        <ele>1320.6</ele>
        <time>2022-07-19T04:39:10Z</time>
      </trkpt>
      <trkpt lat="44.27217" lon="7.13325">
        <ele>1320.6</ele>
        <time>2022-07-19T04:39:11Z</time>
      </trkpt>
      <trkpt lat="44.27217" lon="7.13323">
        <ele>1321</ele>
        <time>2022-07-19T04:39:12Z</time>
      </trkpt>
      <trkpt lat="44.27216" lon="7.13321">
        <ele>1321</ele>
        <time>2022-07-19T04:39:13Z</time>
      </trkpt>
      <trkpt lat="44.27215" lon="7.13319">
        <ele>1321.2</ele>
        <time>2022-07-19T04:39:14Z</time>
      </trkpt>
      <trkpt lat="44.27215" lon="7.13317">
        <ele>1321.2</ele>
        <time>2022-07-19T04:39:15Z</time>
      </trkpt>
      <trkpt lat="44.27215" lon="7.13315">
        <ele>1321.4</ele>
        <time>2022-07-19T04:39:16Z</time>
      </trkpt>
      <trkpt lat="44.27214" lon="7.13313">
        <ele>1321.4</ele>
        <time>2022-07-19T04:39:17Z</time>
      </trkpt>
      <trkpt lat="44.27214" lon="7.13311">
        <ele>1321.8</ele>
        <time>2022-07-19T04:39:18Z</time>
      </trkpt>
      <trkpt lat="44.27213" lon="7.13309">
        <ele>1321.8</ele>
        <time>2022-07-19T04:39:19Z</time>
      </trkpt>
      <trkpt lat="44.27212" lon="7.13307">
        <ele>1322.2</ele>
        <time>2022-07-19T04:39:20Z</time>
      </trkpt>
      <trkpt lat="44.27211" lon="7.13306">
        <ele>1322.2</ele>
        <time>2022-07-19T04:39:21Z</time>
      </trkpt>
      <trkpt lat="44.2721" lon="7.13304">
        <ele>1322.4</ele>
        <time>2022-07-19T04:39:22Z</time>
      </trkpt>
      <trkpt lat="44.27209" lon="7.13302">
        <ele>1322.4</ele>
        <time>2022-07-19T04:39:23Z</time>
      </trkpt>
      <trkpt lat="44.27208" lon="7.13301">
        <ele>1322.8</ele>
        <time>2022-07-19T04:39:24Z</time>
      </trkpt>
      <trkpt lat="44.27207" lon="7.13299">
        <ele>1323</ele>
        <time>2022-07-19T04:39:25Z</time>
      </trkpt>
      <trkpt lat="44.27205" lon="7.13297">
        <ele>1323</ele>
        <time>2022-07-19T04:39:26Z</time>
      </trkpt>
      <trkpt lat="44.27204" lon="7.13295">
        <ele>1323.2</ele>
        <time>2022-07-19T04:39:27Z</time>
      </trkpt>
      <trkpt lat="44.27203" lon="7.13294">
        <ele>1323.2</ele>
        <time>2022-07-19T04:39:28Z</time>
      </trkpt>
      <trkpt lat="44.27201" lon="7.13293">
        <ele>1323.4</ele>
        <time>2022-07-19T04:39:29Z</time>
      </trkpt>
      <trkpt lat="44.272" lon="7.13291">
        <ele>1323.4</ele>
        <time>2022-07-19T04:39:30Z</time>
      </trkpt>
      <trkpt lat="44.27198" lon="7.1329">
        <ele>1323.8</ele>
        <time>2022-07-19T04:39:31Z</time>
      </trkpt>
      <trkpt lat="44.27196" lon="7.1329">
        <ele>1323.8</ele>
        <time>2022-07-19T04:39:32Z</time>
      </trkpt>
      <trkpt lat="44.27194" lon="7.13289">
        <ele>1323.8</ele>
        <time>2022-07-19T04:39:33Z</time>
      </trkpt>
      <trkpt lat="44.27192" lon="7.13289">
        <ele>1324</ele>
        <time>2022-07-19T04:39:34Z</time>
      </trkpt>
      <trkpt lat="44.2719" lon="7.13288">
        <ele>1324</ele>
        <time>2022-07-19T04:39:35Z</time>
      </trkpt>
      <trkpt lat="44.27188" lon="7.13288">
        <ele>1324.4</ele>
        <time>2022-07-19T04:39:36Z</time>
      </trkpt>
      <trkpt lat="44.27186" lon="7.13289">
        <ele>1324.4</ele>
        <time>2022-07-19T04:39:37Z</time>
      </trkpt>
      <trkpt lat="44.27185" lon="7.1329">
        <ele>1324.4</ele>
        <time>2022-07-19T04:39:38Z</time>
      </trkpt>
      <trkpt lat="44.27183" lon="7.13292">
        <ele>1324.4</ele>
        <time>2022-07-19T04:39:39Z</time>
      </trkpt>
      <trkpt lat="44.27182" lon="7.13294">
        <ele>1324.6</ele>
        <time>2022-07-19T04:39:40Z</time>
      </trkpt>
      <trkpt lat="44.27181" lon="7.13297">
        <ele>1324.6</ele>
        <time>2022-07-19T04:39:41Z</time>
      </trkpt>
      <trkpt lat="44.2718" lon="7.13299">
        <ele>1324.8</ele>
        <time>2022-07-19T04:39:42Z</time>
      </trkpt>
      <trkpt lat="44.27179" lon="7.13302">
        <ele>1324.8</ele>
        <time>2022-07-19T04:39:43Z</time>
      </trkpt>
      <trkpt lat="44.27179" lon="7.13305">
        <ele>1324.8</ele>
        <time>2022-07-19T04:39:44Z</time>
      </trkpt>
      <trkpt lat="44.27178" lon="7.13308">
        <ele>1324.8</ele>
        <time>2022-07-19T04:39:45Z</time>
      </trkpt>
      <trkpt lat="44.27178" lon="7.13311">
        <ele>1325</ele>
        <time>2022-07-19T04:39:46Z</time>
      </trkpt>
      <trkpt lat="44.27179" lon="7.13314">
        <ele>1325</ele>
        <time>2022-07-19T04:39:47Z</time>
      </trkpt>
      <trkpt lat="44.2718" lon="7.13317">
        <ele>1325</ele>
        <time>2022-07-19T04:39:48Z</time>
      </trkpt>
      <trkpt lat="44.27181" lon="7.1332">
        <ele>1325.4</ele>
        <time>2022-07-19T04:39:49Z</time>
      </trkpt>
      <trkpt lat="44.27183" lon="7.13323">
        <ele>1325.4</ele>
        <time>2022-07-19T04:39:50Z</time>
      </trkpt>
      <trkpt lat="44.27185" lon="7.13325">
        <ele>1325.4</ele>
        <time>2022-07-19T04:39:51Z</time>
      </trkpt>
      <trkpt lat="44.27187" lon="7.13328">
        <ele>1325.4</ele>
        <time>2022-07-19T04:39:52Z</time>
      </trkpt>
      <trkpt lat="44.27189" lon="7.13331">
        <ele>1325.6</ele>
        <time>2022-07-19T04:39:53Z</time>
      </trkpt>
      <trkpt lat="44.2719" lon="7.13333">
        <ele>1325.6</ele>
        <time>2022-07-19T04:39:54Z</time>
      </trkpt>
      <trkpt lat="44.27192" lon="7.13336">
        <ele>1325.6</ele>
        <time>2022-07-19T04:39:55Z</time>
      </trkpt>
      <trkpt lat="44.27194" lon="7.13339">
        <ele>1325.6</ele>
        <time>2022-07-19T04:39:56Z</time>
      </trkpt>
      <trkpt lat="44.27196" lon="7.13341">
        <ele>1325.6</ele>
        <time>2022-07-19T04:39:57Z</time>
      </trkpt>
      <trkpt lat="44.27197" lon="7.13344">
        <ele>1325.6</ele>
        <time>2022-07-19T04:39:58Z</time>
      </trkpt>
      <trkpt lat="44.27199" lon="7.13347">
        <ele>1325.8</ele>
        <time>2022-07-19T04:39:59Z</time>
      </trkpt>
      <trkpt lat="44.27201" lon="7.1335">
        <ele>1325.8</ele>
        <time>2022-07-19T04:40:00Z</time>
      </trkpt>
      <trkpt lat="44.27204" lon="7.13354">
        <ele>1325.8</ele>
        <time>2022-07-19T04:40:01Z</time>
      </trkpt>
      <trkpt lat="44.27205" lon="7.13355">
        <ele>1325.8</ele>
        <time>2022-07-19T04:40:02Z</time>
      </trkpt>
      <trkpt lat="44.27207" lon="7.13357">
        <ele>1325.8</ele>
        <time>2022-07-19T04:40:03Z</time>
      </trkpt>
      <trkpt lat="44.27208" lon="7.13359">
        <ele>1325.8</ele>
        <time>2022-07-19T04:40:04Z</time>
      </trkpt>
      <trkpt lat="44.27209" lon="7.13362">
        <ele>1326.2</ele>
        <time>2022-07-19T04:40:05Z</time>
      </trkpt>
      <trkpt lat="44.27211" lon="7.13363">
        <ele>1326.2</ele>
        <time>2022-07-19T04:40:06Z</time>
      </trkpt>
      <trkpt lat="44.27212" lon="7.13365">
        <ele>1326.2</ele>
        <time>2022-07-19T04:40:07Z</time>
      </trkpt>
      <trkpt lat="44.27214" lon="7.13368">
        <ele>1326.2</ele>
        <time>2022-07-19T04:40:08Z</time>
      </trkpt>
      <trkpt lat="44.27214" lon="7.13371">
        <ele>1326.2</ele>
        <time>2022-07-19T04:40:09Z</time>
      </trkpt>
      <trkpt lat="44.27214" lon="7.13375">
        <ele>1326.2</ele>
        <time>2022-07-19T04:40:10Z</time>
      </trkpt>
      <trkpt lat="44.27213" lon="7.13378">
        <ele>1326.4</ele>
        <time>2022-07-19T04:40:11Z</time>
      </trkpt>
      <trkpt lat="44.27211" lon="7.13381">
        <ele>1326.4</ele>
        <time>2022-07-19T04:40:12Z</time>
      </trkpt>
      <trkpt lat="44.27208" lon="7.13383">
        <ele>1326.6</ele>
        <time>2022-07-19T04:40:13Z</time>
      </trkpt>
      <trkpt lat="44.27206" lon="7.13384">
        <ele>1326.6</ele>
        <time>2022-07-19T04:40:14Z</time>
      </trkpt>
      <trkpt lat="44.27203" lon="7.13383">
        <ele>1326.8</ele>
        <time>2022-07-19T04:40:15Z</time>
      </trkpt>
      <trkpt lat="44.27201" lon="7.13382">
        <ele>1327</ele>
        <time>2022-07-19T04:40:16Z</time>
      </trkpt>
      <trkpt lat="44.272" lon="7.13379">
        <ele>1327</ele>
        <time>2022-07-19T04:40:17Z</time>
      </trkpt>
      <trkpt lat="44.27198" lon="7.13377">
        <ele>1327.4</ele>
        <time>2022-07-19T04:40:18Z</time>
      </trkpt>
      <trkpt lat="44.27197" lon="7.13374">
        <ele>1327.4</ele>
        <time>2022-07-19T04:40:19Z</time>
      </trkpt>
      <trkpt lat="44.27196" lon="7.13371">
        <ele>1327.8</ele>
        <time>2022-07-19T04:40:20Z</time>
      </trkpt>
      <trkpt lat="44.27195" lon="7.13369">
        <ele>1327.8</ele>
        <time>2022-07-19T04:40:21Z</time>
      </trkpt>
      <trkpt lat="44.27194" lon="7.13366">
        <ele>1328</ele>
        <time>2022-07-19T04:40:22Z</time>
      </trkpt>
      <trkpt lat="44.27193" lon="7.13364">
        <ele>1328</ele>
        <time>2022-07-19T04:40:23Z</time>
      </trkpt>
      <trkpt lat="44.27193" lon="7.13362">
        <ele>1328.4</ele>
        <time>2022-07-19T04:40:24Z</time>
      </trkpt>
      <trkpt lat="44.27192" lon="7.1336">
        <ele>1328.4</ele>
        <time>2022-07-19T04:40:25Z</time>
      </trkpt>
      <trkpt lat="44.27191" lon="7.13358">
        <ele>1328.8</ele>
        <time>2022-07-19T04:40:26Z</time>
      </trkpt>
      <trkpt lat="44.2719" lon="7.13356">
        <ele>1329</ele>
        <time>2022-07-19T04:40:27Z</time>
      </trkpt>
      <trkpt lat="44.27189" lon="7.13354">
        <ele>1329.2</ele>
        <time>2022-07-19T04:40:28Z</time>
      </trkpt>
      <trkpt lat="44.27188" lon="7.13352">
        <ele>1329.2</ele>
        <time>2022-07-19T04:40:29Z</time>
      </trkpt>
      <trkpt lat="44.27187" lon="7.13351">
        <ele>1329.6</ele>
        <time>2022-07-19T04:40:30Z</time>
      </trkpt>
      <trkpt lat="44.27186" lon="7.13349">
        <ele>1329.6</ele>
        <time>2022-07-19T04:40:31Z</time>
      </trkpt>
      <trkpt lat="44.27185" lon="7.13347">
        <ele>1330</ele>
        <time>2022-07-19T04:40:32Z</time>
      </trkpt>
      <trkpt lat="44.27184" lon="7.13345">
        <ele>1330.2</ele>
        <time>2022-07-19T04:40:33Z</time>
      </trkpt>
      <trkpt lat="44.27183" lon="7.13343">
        <ele>1330.2</ele>
        <time>2022-07-19T04:40:34Z</time>
      </trkpt>
      <trkpt lat="44.27182" lon="7.13342">
        <ele>1330.4</ele>
        <time>2022-07-19T04:40:35Z</time>
      </trkpt>
      <trkpt lat="44.27181" lon="7.13339">
        <ele>1330.8</ele>
        <time>2022-07-19T04:40:36Z</time>
      </trkpt>
      <trkpt lat="44.2718" lon="7.13337">
        <ele>1330.8</ele>
        <time>2022-07-19T04:40:37Z</time>
      </trkpt>
      <trkpt lat="44.27179" lon="7.13336">
        <ele>1331</ele>
        <time>2022-07-19T04:40:38Z</time>
      </trkpt>
      <trkpt lat="44.27178" lon="7.13333">
        <ele>1331.4</ele>
        <time>2022-07-19T04:40:39Z</time>
      </trkpt>
      <trkpt lat="44.27177" lon="7.1333">
        <ele>1331.4</ele>
        <time>2022-07-19T04:40:40Z</time>
      </trkpt>
      <trkpt lat="44.27176" lon="7.13328">
        <ele>1331.6</ele>
        <time>2022-07-19T04:40:41Z</time>
      </trkpt>
      <trkpt lat="44.27176" lon="7.13327">
        <ele>1331.6</ele>
        <time>2022-07-19T04:40:42Z</time>
      </trkpt>
      <trkpt lat="44.27175" lon="7.13325">
        <ele>1332</ele>
        <time>2022-07-19T04:40:43Z</time>
      </trkpt>
      <trkpt lat="44.27174" lon="7.13323">
        <ele>1332</ele>
        <time>2022-07-19T04:40:44Z</time>
      </trkpt>
      <trkpt lat="44.27173" lon="7.1332">
        <ele>1332.4</ele>
        <time>2022-07-19T04:40:45Z</time>
      </trkpt>
      <trkpt lat="44.27172" lon="7.13317">
        <ele>1332.6</ele>
        <time>2022-07-19T04:40:46Z</time>
      </trkpt>
      <trkpt lat="44.2717" lon="7.13315">
        <ele>1332.6</ele>
        <time>2022-07-19T04:40:47Z</time>
      </trkpt>
      <trkpt lat="44.27169" lon="7.13312">
        <ele>1333</ele>
        <time>2022-07-19T04:40:48Z</time>
      </trkpt>
      <trkpt lat="44.27167" lon="7.1331">
        <ele>1333.2</ele>
        <time>2022-07-19T04:40:49Z</time>
      </trkpt>
      <trkpt lat="44.27166" lon="7.13307">
        <ele>1333.2</ele>
        <time>2022-07-19T04:40:50Z</time>
      </trkpt>
      <trkpt lat="44.27165" lon="7.13304">
        <ele>1333.6</ele>
        <time>2022-07-19T04:40:51Z</time>
      </trkpt>
      <trkpt lat="44.27164" lon="7.13302">
        <ele>1333.8</ele>
        <time>2022-07-19T04:40:52Z</time>
      </trkpt>
      <trkpt lat="44.27163" lon="7.133">
        <ele>1333.8</ele>
        <time>2022-07-19T04:40:53Z</time>
      </trkpt>
      <trkpt lat="44.27162" lon="7.13298">
        <ele>1334.2</ele>
        <time>2022-07-19T04:40:54Z</time>
      </trkpt>
      <trkpt lat="44.27162" lon="7.13295">
        <ele>1334.4</ele>
        <time>2022-07-19T04:40:55Z</time>
      </trkpt>
      <trkpt lat="44.27161" lon="7.13293">
        <ele>1334.6</ele>
        <time>2022-07-19T04:40:56Z</time>
      </trkpt>
      <trkpt lat="44.27161" lon="7.1329">
        <ele>1334.6</ele>
        <time>2022-07-19T04:40:57Z</time>
      </trkpt>
      <trkpt lat="44.2716" lon="7.13287">
        <ele>1335</ele>
        <time>2022-07-19T04:40:58Z</time>
      </trkpt>
      <trkpt lat="44.2716" lon="7.13285">
        <ele>1335</ele>
        <time>2022-07-19T04:40:59Z</time>
      </trkpt>
      <trkpt lat="44.27161" lon="7.13282">
        <ele>1335.2</ele>
        <time>2022-07-19T04:41:00Z</time>
      </trkpt>
      <trkpt lat="44.27162" lon="7.13279">
        <ele>1335.2</ele>
        <time>2022-07-19T04:41:01Z</time>
      </trkpt>
      <trkpt lat="44.27162" lon="7.13277">
        <ele>1335.6</ele>
        <time>2022-07-19T04:41:02Z</time>
      </trkpt>
      <trkpt lat="44.27162" lon="7.13275">
        <ele>1335.6</ele>
        <time>2022-07-19T04:41:03Z</time>
      </trkpt>
      <trkpt lat="44.27162" lon="7.13273">
        <ele>1336</ele>
        <time>2022-07-19T04:41:04Z</time>
      </trkpt>
      <trkpt lat="44.27162" lon="7.13271">
        <ele>1336</ele>
        <time>2022-07-19T04:41:05Z</time>
      </trkpt>
      <trkpt lat="44.27161" lon="7.13269">
        <ele>1336.2</ele>
        <time>2022-07-19T04:41:06Z</time>
      </trkpt>
      <trkpt lat="44.27161" lon="7.13266">
        <ele>1336.6</ele>
        <time>2022-07-19T04:41:07Z</time>
      </trkpt>
      <trkpt lat="44.2716" lon="7.13264">
        <ele>1336.8</ele>
        <time>2022-07-19T04:41:08Z</time>
      </trkpt>
      <trkpt lat="44.27159" lon="7.13262">
        <ele>1337</ele>
        <time>2022-07-19T04:41:09Z</time>
      </trkpt>
      <trkpt lat="44.27158" lon="7.13261">
        <ele>1337</ele>
        <time>2022-07-19T04:41:10Z</time>
      </trkpt>
      <trkpt lat="44.27158" lon="7.13258">
        <ele>1337.4</ele>
        <time>2022-07-19T04:41:11Z</time>
      </trkpt>
      <trkpt lat="44.27157" lon="7.13257">
        <ele>1337.6</ele>
        <time>2022-07-19T04:41:12Z</time>
      </trkpt>
      <trkpt lat="44.27156" lon="7.13255">
        <ele>1337.8</ele>
        <time>2022-07-19T04:41:13Z</time>
      </trkpt>
      <trkpt lat="44.27155" lon="7.13254">
        <ele>1337.8</ele>
        <time>2022-07-19T04:41:14Z</time>
      </trkpt>
      <trkpt lat="44.27153" lon="7.13253">
        <ele>1338.2</ele>
        <time>2022-07-19T04:41:15Z</time>
      </trkpt>
      <trkpt lat="44.27152" lon="7.13252">
        <ele>1338.2</ele>
        <time>2022-07-19T04:41:16Z</time>
      </trkpt>
      <trkpt lat="44.27151" lon="7.13251">
        <ele>1338.4</ele>
        <time>2022-07-19T04:41:17Z</time>
      </trkpt>
      <trkpt lat="44.27149" lon="7.1325">
        <ele>1338.4</ele>
        <time>2022-07-19T04:41:18Z</time>
      </trkpt>
      <trkpt lat="44.27148" lon="7.13249">
        <ele>1338.8</ele>
        <time>2022-07-19T04:41:19Z</time>
      </trkpt>
      <trkpt lat="44.27147" lon="7.13248">
        <ele>1338.8</ele>
        <time>2022-07-19T04:41:20Z</time>
      </trkpt>
      <trkpt lat="44.27145" lon="7.13248">
        <ele>1339.2</ele>
        <time>2022-07-19T04:41:21Z</time>
      </trkpt>
      <trkpt lat="44.27143" lon="7.13247">
        <ele>1339.2</ele>
        <time>2022-07-19T04:41:22Z</time>
      </trkpt>
      <trkpt lat="44.27142" lon="7.13247">
        <ele>1339.6</ele>
        <time>2022-07-19T04:41:23Z</time>
      </trkpt>
      <trkpt lat="44.27141" lon="7.13246">
        <ele>1339.8</ele>
        <time>2022-07-19T04:41:24Z</time>
      </trkpt>
      <trkpt lat="44.27139" lon="7.13245">
        <ele>1340</ele>
        <time>2022-07-19T04:41:25Z</time>
      </trkpt>
      <trkpt lat="44.27138" lon="7.13243">
        <ele>1340.2</ele>
        <time>2022-07-19T04:41:26Z</time>
      </trkpt>
      <trkpt lat="44.27136" lon="7.13242">
        <ele>1340.6</ele>
        <time>2022-07-19T04:41:27Z</time>
      </trkpt>
      <trkpt lat="44.27134" lon="7.13241">
        <ele>1340.6</ele>
        <time>2022-07-19T04:41:28Z</time>
      </trkpt>
      <trkpt lat="44.27132" lon="7.1324">
        <ele>1340.8</ele>
        <time>2022-07-19T04:41:29Z</time>
      </trkpt>
      <trkpt lat="44.2713" lon="7.13239">
        <ele>1340.8</ele>
        <time>2022-07-19T04:41:30Z</time>
      </trkpt>
      <trkpt lat="44.27129" lon="7.13237">
        <ele>1341.2</ele>
        <time>2022-07-19T04:41:31Z</time>
      </trkpt>
      <trkpt lat="44.27127" lon="7.13236">
        <ele>1341.4</ele>
        <time>2022-07-19T04:41:32Z</time>
      </trkpt>
      <trkpt lat="44.27126" lon="7.13234">
        <ele>1341.4</ele>
        <time>2022-07-19T04:41:33Z</time>
      </trkpt>
      <trkpt lat="44.27124" lon="7.13233">
        <ele>1341.8</ele>
        <time>2022-07-19T04:41:34Z</time>
      </trkpt>
      <trkpt lat="44.27122" lon="7.13233">
        <ele>1341.8</ele>
        <time>2022-07-19T04:41:35Z</time>
      </trkpt>
      <trkpt lat="44.27121" lon="7.13232">
        <ele>1342.2</ele>
        <time>2022-07-19T04:41:36Z</time>
      </trkpt>
      <trkpt lat="44.27119" lon="7.13231">
        <ele>1342.2</ele>
        <time>2022-07-19T04:41:37Z</time>
      </trkpt>
      <trkpt lat="44.27118" lon="7.1323">
        <ele>1342.6</ele>
        <time>2022-07-19T04:41:38Z</time>
      </trkpt>
      <trkpt lat="44.27117" lon="7.13228">
        <ele>1342.8</ele>
        <time>2022-07-19T04:41:39Z</time>
      </trkpt>
      <trkpt lat="44.27116" lon="7.13226">
        <ele>1342.8</ele>
        <time>2022-07-19T04:41:40Z</time>
      </trkpt>
      <trkpt lat="44.27115" lon="7.13224">
        <ele>1343.2</ele>
        <time>2022-07-19T04:41:41Z</time>
      </trkpt>
      <trkpt lat="44.27115" lon="7.13222">
        <ele>1343.2</ele>
        <time>2022-07-19T04:41:42Z</time>
      </trkpt>
      <trkpt lat="44.27114" lon="7.1322">
        <ele>1343.6</ele>
        <time>2022-07-19T04:41:43Z</time>
      </trkpt>
      <trkpt lat="44.27114" lon="7.13218">
        <ele>1343.6</ele>
        <time>2022-07-19T04:41:44Z</time>
      </trkpt>
      <trkpt lat="44.27114" lon="7.13216">
        <ele>1344</ele>
        <time>2022-07-19T04:41:45Z</time>
      </trkpt>
      <trkpt lat="44.27114" lon="7.13213">
        <ele>1344</ele>
        <time>2022-07-19T04:41:46Z</time>
      </trkpt>
      <trkpt lat="44.27114" lon="7.13211">
        <ele>1344.4</ele>
        <time>2022-07-19T04:41:47Z</time>
      </trkpt>
      <trkpt lat="44.27114" lon="7.13208">
        <ele>1344.4</ele>
        <time>2022-07-19T04:41:48Z</time>
      </trkpt>
      <trkpt lat="44.27114" lon="7.13206">
        <ele>1344.6</ele>
        <time>2022-07-19T04:41:49Z</time>
      </trkpt>
      <trkpt lat="44.27114" lon="7.13203">
        <ele>1344.8</ele>
        <time>2022-07-19T04:41:50Z</time>
      </trkpt>
      <trkpt lat="44.27113" lon="7.13201">
        <ele>1345</ele>
        <time>2022-07-19T04:41:51Z</time>
      </trkpt>
      <trkpt lat="44.27113" lon="7.13199">
        <ele>1345.2</ele>
        <time>2022-07-19T04:41:52Z</time>
      </trkpt>
      <trkpt lat="44.27114" lon="7.13196">
        <ele>1345.6</ele>
        <time>2022-07-19T04:41:53Z</time>
      </trkpt>
      <trkpt lat="44.27114" lon="7.13194">
        <ele>1345.8</ele>
        <time>2022-07-19T04:41:54Z</time>
      </trkpt>
      <trkpt lat="44.27114" lon="7.13192">
        <ele>1345.8</ele>
        <time>2022-07-19T04:41:55Z</time>
      </trkpt>
      <trkpt lat="44.27114" lon="7.1319">
        <ele>1346</ele>
        <time>2022-07-19T04:41:56Z</time>
      </trkpt>
      <trkpt lat="44.27113" lon="7.13188">
        <ele>1346</ele>
        <time>2022-07-19T04:41:57Z</time>
      </trkpt>
      <trkpt lat="44.27112" lon="7.13186">
        <ele>1346.4</ele>
        <time>2022-07-19T04:41:58Z</time>
      </trkpt>
      <trkpt lat="44.27112" lon="7.13184">
        <ele>1346.4</ele>
        <time>2022-07-19T04:41:59Z</time>
      </trkpt>
      <trkpt lat="44.27112" lon="7.13182">
        <ele>1346.6</ele>
        <time>2022-07-19T04:42:00Z</time>
      </trkpt>
      <trkpt lat="44.27112" lon="7.1318">
        <ele>1346.6</ele>
        <time>2022-07-19T04:42:01Z</time>
      </trkpt>
      <trkpt lat="44.27111" lon="7.13177">
        <ele>1347</ele>
        <time>2022-07-19T04:42:02Z</time>
      </trkpt>
      <trkpt lat="44.2711" lon="7.13175">
        <ele>1347</ele>
        <time>2022-07-19T04:42:03Z</time>
      </trkpt>
      <trkpt lat="44.27109" lon="7.13173">
        <ele>1347.2</ele>
        <time>2022-07-19T04:42:04Z</time>
      </trkpt>
      <trkpt lat="44.27109" lon="7.1317">
        <ele>1347.2</ele>
        <time>2022-07-19T04:42:05Z</time>
      </trkpt>
      <trkpt lat="44.27109" lon="7.13168">
        <ele>1347.2</ele>
        <time>2022-07-19T04:42:06Z</time>
      </trkpt>
      <trkpt lat="44.27109" lon="7.13165">
        <ele>1347.4</ele>
        <time>2022-07-19T04:42:07Z</time>
      </trkpt>
      <trkpt lat="44.27108" lon="7.13163">
        <ele>1347.4</ele>
        <time>2022-07-19T04:42:08Z</time>
      </trkpt>
      <trkpt lat="44.27107" lon="7.1316">
        <ele>1347.6</ele>
        <time>2022-07-19T04:42:09Z</time>
      </trkpt>
      <trkpt lat="44.27106" lon="7.13158">
        <ele>1347.6</ele>
        <time>2022-07-19T04:42:10Z</time>
      </trkpt>
      <trkpt lat="44.27105" lon="7.13155">
        <ele>1348</ele>
        <time>2022-07-19T04:42:11Z</time>
      </trkpt>
      <trkpt lat="44.27104" lon="7.13153">
        <ele>1348</ele>
        <time>2022-07-19T04:42:12Z</time>
      </trkpt>
      <trkpt lat="44.27103" lon="7.13151">
        <ele>1348.2</ele>
        <time>2022-07-19T04:42:13Z</time>
      </trkpt>
      <trkpt lat="44.27102" lon="7.13149">
        <ele>1348.6</ele>
        <time>2022-07-19T04:42:14Z</time>
      </trkpt>
      <trkpt lat="44.27101" lon="7.13147">
        <ele>1348.8</ele>
        <time>2022-07-19T04:42:15Z</time>
      </trkpt>
      <trkpt lat="44.271" lon="7.13144">
        <ele>1348.8</ele>
        <time>2022-07-19T04:42:16Z</time>
      </trkpt>
      <trkpt lat="44.271" lon="7.13142">
        <ele>1349</ele>
        <time>2022-07-19T04:42:17Z</time>
      </trkpt>
      <trkpt lat="44.27099" lon="7.13141">
        <ele>1349</ele>
        <time>2022-07-19T04:42:18Z</time>
      </trkpt>
      <trkpt lat="44.27098" lon="7.13139">
        <ele>1349.4</ele>
        <time>2022-07-19T04:42:19Z</time>
      </trkpt>
      <trkpt lat="44.27096" lon="7.13138">
        <ele>1349.4</ele>
        <time>2022-07-19T04:42:20Z</time>
      </trkpt>
      <trkpt lat="44.27095" lon="7.13136">
        <ele>1349.8</ele>
        <time>2022-07-19T04:42:21Z</time>
      </trkpt>
      <trkpt lat="44.27094" lon="7.13134">
        <ele>1350</ele>
        <time>2022-07-19T04:42:22Z</time>
      </trkpt>
      <trkpt lat="44.27093" lon="7.13132">
        <ele>1350</ele>
        <time>2022-07-19T04:42:23Z</time>
      </trkpt>
      <trkpt lat="44.27092" lon="7.13131">
        <ele>1350.4</ele>
        <time>2022-07-19T04:42:24Z</time>
      </trkpt>
      <trkpt lat="44.27091" lon="7.13129">
        <ele>1350.4</ele>
        <time>2022-07-19T04:42:25Z</time>
      </trkpt>
      <trkpt lat="44.2709" lon="7.13128">
        <ele>1350.6</ele>
        <time>2022-07-19T04:42:26Z</time>
      </trkpt>
      <trkpt lat="44.27089" lon="7.13127">
        <ele>1350.6</ele>
        <time>2022-07-19T04:42:27Z</time>
      </trkpt>
      <trkpt lat="44.27088" lon="7.13125">
        <ele>1350.8</ele>
        <time>2022-07-19T04:42:28Z</time>
      </trkpt>
      <trkpt lat="44.27087" lon="7.13124">
        <ele>1350.8</ele>
        <time>2022-07-19T04:42:29Z</time>
      </trkpt>
      <trkpt lat="44.27086" lon="7.13122">
        <ele>1351.2</ele>
        <time>2022-07-19T04:42:30Z</time>
      </trkpt>
      <trkpt lat="44.27085" lon="7.13121">
        <ele>1351.2</ele>
        <time>2022-07-19T04:42:31Z</time>
      </trkpt>
      <trkpt lat="44.27084" lon="7.13119">
        <ele>1351.4</ele>
        <time>2022-07-19T04:42:32Z</time>
      </trkpt>
      <trkpt lat="44.27083" lon="7.13117">
        <ele>1351.4</ele>
        <time>2022-07-19T04:42:33Z</time>
      </trkpt>
      <trkpt lat="44.27082" lon="7.13116">
        <ele>1351.6</ele>
        <time>2022-07-19T04:42:34Z</time>
      </trkpt>
      <trkpt lat="44.27081" lon="7.13114">
        <ele>1351.6</ele>
        <time>2022-07-19T04:42:35Z</time>
      </trkpt>
      <trkpt lat="44.2708" lon="7.13112">
        <ele>1352</ele>
        <time>2022-07-19T04:42:36Z</time>
      </trkpt>
      <trkpt lat="44.27079" lon="7.1311">
        <ele>1352</ele>
        <time>2022-07-19T04:42:37Z</time>
      </trkpt>
      <trkpt lat="44.27078" lon="7.13109">
        <ele>1352.2</ele>
        <time>2022-07-19T04:42:38Z</time>
      </trkpt>
      <trkpt lat="44.27077" lon="7.13107">
        <ele>1352.2</ele>
        <time>2022-07-19T04:42:39Z</time>
      </trkpt>
      <trkpt lat="44.27076" lon="7.13105">
        <ele>1352.6</ele>
        <time>2022-07-19T04:42:40Z</time>
      </trkpt>
      <trkpt lat="44.27075" lon="7.13104">
        <ele>1352.6</ele>
        <time>2022-07-19T04:42:41Z</time>
      </trkpt>
      <trkpt lat="44.27074" lon="7.13103">
        <ele>1352.8</ele>
        <time>2022-07-19T04:42:42Z</time>
      </trkpt>
      <trkpt lat="44.27073" lon="7.13102">
        <ele>1352.8</ele>
        <time>2022-07-19T04:42:43Z</time>
      </trkpt>
      <trkpt lat="44.27072" lon="7.131">
        <ele>1353.2</ele>
        <time>2022-07-19T04:42:44Z</time>
      </trkpt>
      <trkpt lat="44.27071" lon="7.13099">
        <ele>1353.2</ele>
        <time>2022-07-19T04:42:45Z</time>
      </trkpt>
      <trkpt lat="44.2707" lon="7.13097">
        <ele>1353.6</ele>
        <time>2022-07-19T04:42:46Z</time>
      </trkpt>
      <trkpt lat="44.27069" lon="7.13095">
        <ele>1353.6</ele>
        <time>2022-07-19T04:42:47Z</time>
      </trkpt>
      <trkpt lat="44.27068" lon="7.13093">
        <ele>1353.8</ele>
        <time>2022-07-19T04:42:48Z</time>
      </trkpt>
      <trkpt lat="44.27067" lon="7.13092">
        <ele>1353.8</ele>
        <time>2022-07-19T04:42:49Z</time>
      </trkpt>
      <trkpt lat="44.27066" lon="7.13091">
        <ele>1354.2</ele>
        <time>2022-07-19T04:42:50Z</time>
      </trkpt>
      <trkpt lat="44.27065" lon="7.13089">
        <ele>1354.4</ele>
        <time>2022-07-19T04:42:51Z</time>
      </trkpt>
      <trkpt lat="44.27064" lon="7.13088">
        <ele>1354.4</ele>
        <time>2022-07-19T04:42:52Z</time>
      </trkpt>
      <trkpt lat="44.27063" lon="7.13087">
        <ele>1354.8</ele>
        <time>2022-07-19T04:42:53Z</time>
      </trkpt>
      <trkpt lat="44.27062" lon="7.13085">
        <ele>1354.8</ele>
        <time>2022-07-19T04:42:54Z</time>
      </trkpt>
      <trkpt lat="44.27061" lon="7.13084">
        <ele>1355</ele>
        <time>2022-07-19T04:42:55Z</time>
      </trkpt>
      <trkpt lat="44.2706" lon="7.13083">
        <ele>1355</ele>
        <time>2022-07-19T04:42:56Z</time>
      </trkpt>
      <trkpt lat="44.27059" lon="7.13082">
        <ele>1355.4</ele>
        <time>2022-07-19T04:42:57Z</time>
      </trkpt>
      <trkpt lat="44.27058" lon="7.13081">
        <ele>1355.4</ele>
        <time>2022-07-19T04:42:58Z</time>
      </trkpt>
      <trkpt lat="44.27057" lon="7.13079">
        <ele>1355.8</ele>
        <time>2022-07-19T04:42:59Z</time>
      </trkpt>
      <trkpt lat="44.27056" lon="7.13078">
        <ele>1355.8</ele>
        <time>2022-07-19T04:43:00Z</time>
      </trkpt>
      <trkpt lat="44.27055" lon="7.13076">
        <ele>1356</ele>
        <time>2022-07-19T04:43:01Z</time>
      </trkpt>
      <trkpt lat="44.27054" lon="7.13074">
        <ele>1356</ele>
        <time>2022-07-19T04:43:02Z</time>
      </trkpt>
      <trkpt lat="44.27053" lon="7.13073">
        <ele>1356.4</ele>
        <time>2022-07-19T04:43:03Z</time>
      </trkpt>
      <trkpt lat="44.27052" lon="7.13072">
        <ele>1356.6</ele>
        <time>2022-07-19T04:43:04Z</time>
      </trkpt>
      <trkpt lat="44.27051" lon="7.13071">
        <ele>1356.6</ele>
        <time>2022-07-19T04:43:05Z</time>
      </trkpt>
      <trkpt lat="44.2705" lon="7.13069">
        <ele>1356.8</ele>
        <time>2022-07-19T04:43:06Z</time>
      </trkpt>
      <trkpt lat="44.27049" lon="7.13066">
        <ele>1356.8</ele>
        <time>2022-07-19T04:43:07Z</time>
      </trkpt>
      <trkpt lat="44.27048" lon="7.13064">
        <ele>1357.2</ele>
        <time>2022-07-19T04:43:08Z</time>
      </trkpt>
      <trkpt lat="44.27048" lon="7.13062">
        <ele>1357.2</ele>
        <time>2022-07-19T04:43:09Z</time>
      </trkpt>
      <trkpt lat="44.27047" lon="7.1306">
        <ele>1357.6</ele>
        <time>2022-07-19T04:43:10Z</time>
      </trkpt>
      <trkpt lat="44.27046" lon="7.13058">
        <ele>1357.6</ele>
        <time>2022-07-19T04:43:11Z</time>
      </trkpt>
      <trkpt lat="44.27045" lon="7.13056">
        <ele>1358</ele>
        <time>2022-07-19T04:43:12Z</time>
      </trkpt>
      <trkpt lat="44.27044" lon="7.13054">
        <ele>1358</ele>
        <time>2022-07-19T04:43:13Z</time>
      </trkpt>
      <trkpt lat="44.27044" lon="7.13052">
        <ele>1358</ele>
        <time>2022-07-19T04:43:14Z</time>
      </trkpt>
      <trkpt lat="44.27043" lon="7.1305">
        <ele>1358.2</ele>
        <time>2022-07-19T04:43:15Z</time>
      </trkpt>
      <trkpt lat="44.27042" lon="7.13048">
        <ele>1358.4</ele>
        <time>2022-07-19T04:43:16Z</time>
      </trkpt>
      <trkpt lat="44.27041" lon="7.13047">
        <ele>1358.4</ele>
        <time>2022-07-19T04:43:17Z</time>
      </trkpt>
      <trkpt lat="44.2704" lon="7.13045">
        <ele>1358.8</ele>
        <time>2022-07-19T04:43:18Z</time>
      </trkpt>
      <trkpt lat="44.27039" lon="7.13044">
        <ele>1358.8</ele>
        <time>2022-07-19T04:43:19Z</time>
      </trkpt>
      <trkpt lat="44.27038" lon="7.13042">
        <ele>1359</ele>
        <time>2022-07-19T04:43:20Z</time>
      </trkpt>
      <trkpt lat="44.27037" lon="7.1304">
        <ele>1359</ele>
        <time>2022-07-19T04:43:21Z</time>
      </trkpt>
      <trkpt lat="44.27036" lon="7.13038">
        <ele>1359.4</ele>
        <time>2022-07-19T04:43:22Z</time>
      </trkpt>
      <trkpt lat="44.27035" lon="7.13036">
        <ele>1359.6</ele>
        <time>2022-07-19T04:43:23Z</time>
      </trkpt>
      <trkpt lat="44.27033" lon="7.13035">
        <ele>1359.6</ele>
        <time>2022-07-19T04:43:24Z</time>
      </trkpt>
      <trkpt lat="44.27032" lon="7.13033">
        <ele>1360</ele>
        <time>2022-07-19T04:43:25Z</time>
      </trkpt>
      <trkpt lat="44.27031" lon="7.13032">
        <ele>1360</ele>
        <time>2022-07-19T04:43:26Z</time>
      </trkpt>
      <trkpt lat="44.27029" lon="7.1303">
        <ele>1360.4</ele>
        <time>2022-07-19T04:43:27Z</time>
      </trkpt>
      <trkpt lat="44.27028" lon="7.13029">
        <ele>1360.4</ele>
        <time>2022-07-19T04:43:28Z</time>
      </trkpt>
      <trkpt lat="44.27026" lon="7.13028">
        <ele>1360.8</ele>
        <time>2022-07-19T04:43:29Z</time>
      </trkpt>
      <trkpt lat="44.27025" lon="7.13026">
        <ele>1360.8</ele>
        <time>2022-07-19T04:43:30Z</time>
      </trkpt>
      <trkpt lat="44.27023" lon="7.13025">
        <ele>1361</ele>
        <time>2022-07-19T04:43:31Z</time>
      </trkpt>
      <trkpt lat="44.27022" lon="7.13023">
        <ele>1361.2</ele>
        <time>2022-07-19T04:43:32Z</time>
      </trkpt>
      <trkpt lat="44.27021" lon="7.13022">
        <ele>1361.2</ele>
        <time>2022-07-19T04:43:33Z</time>
      </trkpt>
      <trkpt lat="44.27019" lon="7.13021">
        <ele>1361.6</ele>
        <time>2022-07-19T04:43:34Z</time>
      </trkpt>
      <trkpt lat="44.27017" lon="7.1302">
        <ele>1361.6</ele>
        <time>2022-07-19T04:43:35Z</time>
      </trkpt>
      <trkpt lat="44.27016" lon="7.13019">
        <ele>1361.8</ele>
        <time>2022-07-19T04:43:36Z</time>
      </trkpt>
      <trkpt lat="44.27014" lon="7.13019">
        <ele>1362</ele>
        <time>2022-07-19T04:43:37Z</time>
      </trkpt>
      <trkpt lat="44.27012" lon="7.13019">
        <ele>1362</ele>
        <time>2022-07-19T04:43:38Z</time>
      </trkpt>
      <trkpt lat="44.2701" lon="7.13019">
        <ele>1362.2</ele>
        <time>2022-07-19T04:43:39Z</time>
      </trkpt>
      <trkpt lat="44.27008" lon="7.13019">
        <ele>1362.4</ele>
        <time>2022-07-19T04:43:40Z</time>
      </trkpt>
      <trkpt lat="44.27006" lon="7.13019">
        <ele>1362.6</ele>
        <time>2022-07-19T04:43:41Z</time>
      </trkpt>
      <trkpt lat="44.27004" lon="7.13019">
        <ele>1362.6</ele>
        <time>2022-07-19T04:43:42Z</time>
      </trkpt>
      <trkpt lat="44.27002" lon="7.1302">
        <ele>1363</ele>
        <time>2022-07-19T04:43:43Z</time>
      </trkpt>
      <trkpt lat="44.27001" lon="7.1302">
        <ele>1363</ele>
        <time>2022-07-19T04:43:44Z</time>
      </trkpt>
      <trkpt lat="44.26999" lon="7.1302">
        <ele>1363.4</ele>
        <time>2022-07-19T04:43:45Z</time>
      </trkpt>
      <trkpt lat="44.26997" lon="7.1302">
        <ele>1363.4</ele>
        <time>2022-07-19T04:43:46Z</time>
      </trkpt>
      <trkpt lat="44.26996" lon="7.13019">
        <ele>1363.6</ele>
        <time>2022-07-19T04:43:47Z</time>
      </trkpt>
      <trkpt lat="44.26994" lon="7.13018">
        <ele>1363.6</ele>
        <time>2022-07-19T04:43:48Z</time>
      </trkpt>
      <trkpt lat="44.26992" lon="7.13017">
        <ele>1364</ele>
        <time>2022-07-19T04:43:49Z</time>
      </trkpt>
      <trkpt lat="44.26991" lon="7.13015">
        <ele>1364</ele>
        <time>2022-07-19T04:43:50Z</time>
      </trkpt>
      <trkpt lat="44.2699" lon="7.13013">
        <ele>1364.2</ele>
        <time>2022-07-19T04:43:51Z</time>
      </trkpt>
      <trkpt lat="44.2699" lon="7.13011">
        <ele>1364.2</ele>
        <time>2022-07-19T04:43:52Z</time>
      </trkpt>
      <trkpt lat="44.2699" lon="7.13008">
        <ele>1364.4</ele>
        <time>2022-07-19T04:43:53Z</time>
      </trkpt>
      <trkpt lat="44.2699" lon="7.13006">
        <ele>1364.4</ele>
        <time>2022-07-19T04:43:54Z</time>
      </trkpt>
      <trkpt lat="44.26991" lon="7.13004">
        <ele>1364.6</ele>
        <time>2022-07-19T04:43:55Z</time>
      </trkpt>
      <trkpt lat="44.26993" lon="7.13002">
        <ele>1364.6</ele>
        <time>2022-07-19T04:43:56Z</time>
      </trkpt>
      <trkpt lat="44.26995" lon="7.13">
        <ele>1364.8</ele>
        <time>2022-07-19T04:43:57Z</time>
      </trkpt>
      <trkpt lat="44.26997" lon="7.12999">
        <ele>1364.8</ele>
        <time>2022-07-19T04:43:58Z</time>
      </trkpt>
      <trkpt lat="44.26999" lon="7.12999">
        <ele>1365</ele>
        <time>2022-07-19T04:43:59Z</time>
      </trkpt>
      <trkpt lat="44.27001" lon="7.13">
        <ele>1365</ele>
        <time>2022-07-19T04:44:00Z</time>
      </trkpt>
      <trkpt lat="44.27003" lon="7.13001">
        <ele>1365.4</ele>
        <time>2022-07-19T04:44:01Z</time>
      </trkpt>
      <trkpt lat="44.27005" lon="7.13003">
        <ele>1365.4</ele>
        <time>2022-07-19T04:44:02Z</time>
      </trkpt>
      <trkpt lat="44.27007" lon="7.13004">
        <ele>1365.6</ele>
        <time>2022-07-19T04:44:03Z</time>
      </trkpt>
      <trkpt lat="44.27009" lon="7.13005">
        <ele>1365.6</ele>
        <time>2022-07-19T04:44:04Z</time>
      </trkpt>
      <trkpt lat="44.27011" lon="7.13006">
        <ele>1365.8</ele>
        <time>2022-07-19T04:44:05Z</time>
      </trkpt>
      <trkpt lat="44.27012" lon="7.13006">
        <ele>1365.8</ele>
        <time>2022-07-19T04:44:06Z</time>
      </trkpt>
      <trkpt lat="44.27014" lon="7.13006">
        <ele>1366.2</ele>
        <time>2022-07-19T04:44:07Z</time>
      </trkpt>
      <trkpt lat="44.27015" lon="7.13006">
        <ele>1366.2</ele>
        <time>2022-07-19T04:44:08Z</time>
      </trkpt>
      <trkpt lat="44.27017" lon="7.13007">
        <ele>1366.4</ele>
        <time>2022-07-19T04:44:09Z</time>
      </trkpt>
      <trkpt lat="44.27019" lon="7.13007">
        <ele>1366.4</ele>
        <time>2022-07-19T04:44:10Z</time>
      </trkpt>
      <trkpt lat="44.27021" lon="7.13008">
        <ele>1366.8</ele>
        <time>2022-07-19T04:44:11Z</time>
      </trkpt>
      <trkpt lat="44.27022" lon="7.13009">
        <ele>1366.8</ele>
        <time>2022-07-19T04:44:12Z</time>
      </trkpt>
      <trkpt lat="44.27024" lon="7.1301">
        <ele>1367</ele>
        <time>2022-07-19T04:44:13Z</time>
      </trkpt>
      <trkpt lat="44.27025" lon="7.13011">
        <ele>1367</ele>
        <time>2022-07-19T04:44:14Z</time>
      </trkpt>
      <trkpt lat="44.27027" lon="7.13012">
        <ele>1367.4</ele>
        <time>2022-07-19T04:44:15Z</time>
      </trkpt>
      <trkpt lat="44.27029" lon="7.13013">
        <ele>1367.4</ele>
        <time>2022-07-19T04:44:16Z</time>
      </trkpt>
      <trkpt lat="44.27031" lon="7.13014">
        <ele>1367.6</ele>
        <time>2022-07-19T04:44:17Z</time>
      </trkpt>
      <trkpt lat="44.27032" lon="7.13015">
        <ele>1367.6</ele>
        <time>2022-07-19T04:44:18Z</time>
      </trkpt>
      <trkpt lat="44.27034" lon="7.13016">
        <ele>1367.8</ele>
        <time>2022-07-19T04:44:19Z</time>
      </trkpt>
      <trkpt lat="44.27036" lon="7.13017">
        <ele>1368</ele>
        <time>2022-07-19T04:44:20Z</time>
      </trkpt>
      <trkpt lat="44.27037" lon="7.13018">
        <ele>1368.2</ele>
        <time>2022-07-19T04:44:21Z</time>
      </trkpt>
      <trkpt lat="44.27039" lon="7.13018">
        <ele>1368.2</ele>
        <time>2022-07-19T04:44:22Z</time>
      </trkpt>
      <trkpt lat="44.27041" lon="7.13019">
        <ele>1368.6</ele>
        <time>2022-07-19T04:44:23Z</time>
      </trkpt>
      <trkpt lat="44.27042" lon="7.1302">
        <ele>1368.6</ele>
        <time>2022-07-19T04:44:24Z</time>
      </trkpt>
      <trkpt lat="44.27044" lon="7.1302">
        <ele>1368.8</ele>
        <time>2022-07-19T04:44:25Z</time>
      </trkpt>
      <trkpt lat="44.27045" lon="7.13021">
        <ele>1368.8</ele>
        <time>2022-07-19T04:44:26Z</time>
      </trkpt>
      <trkpt lat="44.27047" lon="7.13022">
        <ele>1369</ele>
        <time>2022-07-19T04:44:27Z</time>
      </trkpt>
      <trkpt lat="44.27049" lon="7.13023">
        <ele>1369</ele>
        <time>2022-07-19T04:44:28Z</time>
      </trkpt>
      <trkpt lat="44.27051" lon="7.13025">
        <ele>1369.2</ele>
        <time>2022-07-19T04:44:29Z</time>
      </trkpt>
      <trkpt lat="44.27053" lon="7.13027">
        <ele>1369.2</ele>
        <time>2022-07-19T04:44:30Z</time>
      </trkpt>
      <trkpt lat="44.27054" lon="7.13028">
        <ele>1369.6</ele>
        <time>2022-07-19T04:44:31Z</time>
      </trkpt>
      <trkpt lat="44.27056" lon="7.1303">
        <ele>1369.6</ele>
        <time>2022-07-19T04:44:32Z</time>
      </trkpt>
      <trkpt lat="44.27057" lon="7.13032">
        <ele>1370</ele>
        <time>2022-07-19T04:44:33Z</time>
      </trkpt>
      <trkpt lat="44.27058" lon="7.13034">
        <ele>1370</ele>
        <time>2022-07-19T04:44:34Z</time>
      </trkpt>
      <trkpt lat="44.27059" lon="7.13036">
        <ele>1370.2</ele>
        <time>2022-07-19T04:44:35Z</time>
      </trkpt>
      <trkpt lat="44.2706" lon="7.13039">
        <ele>1370.2</ele>
        <time>2022-07-19T04:44:36Z</time>
      </trkpt>
      <trkpt lat="44.27061" lon="7.13041">
        <ele>1370.4</ele>
        <time>2022-07-19T04:44:37Z</time>
      </trkpt>
      <trkpt lat="44.27062" lon="7.13043">
        <ele>1370.4</ele>
        <time>2022-07-19T04:44:38Z</time>
      </trkpt>
      <trkpt lat="44.27063" lon="7.13046">
        <ele>1370.6</ele>
        <time>2022-07-19T04:44:39Z</time>
      </trkpt>
      <trkpt lat="44.27064" lon="7.13047">
        <ele>1370.6</ele>
        <time>2022-07-19T04:44:40Z</time>
      </trkpt>
      <trkpt lat="44.27065" lon="7.13049">
        <ele>1370.6</ele>
        <time>2022-07-19T04:44:41Z</time>
      </trkpt>
      <trkpt lat="44.27066" lon="7.13051">
        <ele>1371</ele>
        <time>2022-07-19T04:44:42Z</time>
      </trkpt>
      <trkpt lat="44.27067" lon="7.13053">
        <ele>1371</ele>
        <time>2022-07-19T04:44:43Z</time>
      </trkpt>
      <trkpt lat="44.27068" lon="7.13054">
        <ele>1371.2</ele>
        <time>2022-07-19T04:44:44Z</time>
      </trkpt>
      <trkpt lat="44.27069" lon="7.13056">
        <ele>1371.2</ele>
        <time>2022-07-19T04:44:45Z</time>
      </trkpt>
      <trkpt lat="44.27071" lon="7.13058">
        <ele>1371.6</ele>
        <time>2022-07-19T04:44:46Z</time>
      </trkpt>
      <trkpt lat="44.27072" lon="7.1306">
        <ele>1371.6</ele>
        <time>2022-07-19T04:44:47Z</time>
      </trkpt>
      <trkpt lat="44.27073" lon="7.13062">
        <ele>1371.8</ele>
        <time>2022-07-19T04:44:48Z</time>
      </trkpt>
      <trkpt lat="44.27074" lon="7.13065">
        <ele>1371.8</ele>
        <time>2022-07-19T04:44:49Z</time>
      </trkpt>
      <trkpt lat="44.27075" lon="7.13067">
        <ele>1371.8</ele>
        <time>2022-07-19T04:44:50Z</time>
      </trkpt>
      <trkpt lat="44.27077" lon="7.13069">
        <ele>1372.2</ele>
        <time>2022-07-19T04:44:51Z</time>
      </trkpt>
      <trkpt lat="44.27079" lon="7.1307">
        <ele>1372.2</ele>
        <time>2022-07-19T04:44:52Z</time>
      </trkpt>
      <trkpt lat="44.27081" lon="7.13071">
        <ele>1372.2</ele>
        <time>2022-07-19T04:44:53Z</time>
      </trkpt>
      <trkpt lat="44.27083" lon="7.13071">
        <ele>1372.2</ele>
        <time>2022-07-19T04:44:54Z</time>
      </trkpt>
      <trkpt lat="44.27086" lon="7.13069">
        <ele>1372.4</ele>
        <time>2022-07-19T04:44:55Z</time>
      </trkpt>
      <trkpt lat="44.27087" lon="7.13067">
        <ele>1372.4</ele>
        <time>2022-07-19T04:44:56Z</time>
      </trkpt>
      <trkpt lat="44.27088" lon="7.13065">
        <ele>1372.4</ele>
        <time>2022-07-19T04:44:57Z</time>
      </trkpt>
      <trkpt lat="44.27088" lon="7.13062">
        <ele>1372.6</ele>
        <time>2022-07-19T04:44:58Z</time>
      </trkpt>
      <trkpt lat="44.27088" lon="7.13059">
        <ele>1372.8</ele>
        <time>2022-07-19T04:44:59Z</time>
      </trkpt>
      <trkpt lat="44.27087" lon="7.13056">
        <ele>1372.8</ele>
        <time>2022-07-19T04:45:00Z</time>
      </trkpt>
      <trkpt lat="44.27086" lon="7.13053">
        <ele>1373</ele>
        <time>2022-07-19T04:45:01Z</time>
      </trkpt>
      <trkpt lat="44.27084" lon="7.1305">
        <ele>1373</ele>
        <time>2022-07-19T04:45:02Z</time>
      </trkpt>
      <trkpt lat="44.27082" lon="7.13049">
        <ele>1373.2</ele>
        <time>2022-07-19T04:45:03Z</time>
      </trkpt>
      <trkpt lat="44.27081" lon="7.13047">
        <ele>1373.2</ele>
        <time>2022-07-19T04:45:04Z</time>
      </trkpt>
      <trkpt lat="44.27079" lon="7.13045">
        <ele>1373.2</ele>
        <time>2022-07-19T04:45:05Z</time>
      </trkpt>
      <trkpt lat="44.27078" lon="7.13043">
        <ele>1373.6</ele>
        <time>2022-07-19T04:45:06Z</time>
      </trkpt>
      <trkpt lat="44.27076" lon="7.13041">
        <ele>1373.6</ele>
        <time>2022-07-19T04:45:07Z</time>
      </trkpt>
      <trkpt lat="44.27075" lon="7.13039">
        <ele>1373.8</ele>
        <time>2022-07-19T04:45:08Z</time>
      </trkpt>
      <trkpt lat="44.27073" lon="7.13038">
        <ele>1373.8</ele>
        <time>2022-07-19T04:45:09Z</time>
      </trkpt>
      <trkpt lat="44.27071" lon="7.13034">
        <ele>1374</ele>
        <time>2022-07-19T04:45:10Z</time>
      </trkpt>
      <trkpt lat="44.27069" lon="7.13031">
        <ele>1374</ele>
        <time>2022-07-19T04:45:11Z</time>
      </trkpt>
      <trkpt lat="44.27068" lon="7.13029">
        <ele>1374</ele>
        <time>2022-07-19T04:45:12Z</time>
      </trkpt>
      <trkpt lat="44.27067" lon="7.13027">
        <ele>1374.4</ele>
        <time>2022-07-19T04:45:13Z</time>
      </trkpt>
      <trkpt lat="44.27065" lon="7.13026">
        <ele>1374.4</ele>
        <time>2022-07-19T04:45:14Z</time>
      </trkpt>
      <trkpt lat="44.27064" lon="7.13024">
        <ele>1374.6</ele>
        <time>2022-07-19T04:45:15Z</time>
      </trkpt>
      <trkpt lat="44.27063" lon="7.13021">
        <ele>1374.8</ele>
        <time>2022-07-19T04:45:16Z</time>
      </trkpt>
      <trkpt lat="44.27062" lon="7.13019">
        <ele>1374.8</ele>
        <time>2022-07-19T04:45:17Z</time>
      </trkpt>
      <trkpt lat="44.27061" lon="7.13017">
        <ele>1375.2</ele>
        <time>2022-07-19T04:45:18Z</time>
      </trkpt>
      <trkpt lat="44.2706" lon="7.13015">
        <ele>1375.4</ele>
        <time>2022-07-19T04:45:19Z</time>
      </trkpt>
      <trkpt lat="44.27059" lon="7.13014">
        <ele>1375.4</ele>
        <time>2022-07-19T04:45:20Z</time>
      </trkpt>
      <trkpt lat="44.27057" lon="7.13012">
        <ele>1375.8</ele>
        <time>2022-07-19T04:45:21Z</time>
      </trkpt>
      <trkpt lat="44.27056" lon="7.13011">
        <ele>1375.8</ele>
        <time>2022-07-19T04:45:22Z</time>
      </trkpt>
      <trkpt lat="44.27054" lon="7.13009">
        <ele>1376</ele>
        <time>2022-07-19T04:45:23Z</time>
      </trkpt>
      <trkpt lat="44.27052" lon="7.13008">
        <ele>1376.2</ele>
        <time>2022-07-19T04:45:24Z</time>
      </trkpt>
      <trkpt lat="44.27051" lon="7.13007">
        <ele>1376.2</ele>
        <time>2022-07-19T04:45:25Z</time>
      </trkpt>
      <trkpt lat="44.27049" lon="7.13005">
        <ele>1376.6</ele>
        <time>2022-07-19T04:45:26Z</time>
      </trkpt>
      <trkpt lat="44.27048" lon="7.13004">
        <ele>1376.6</ele>
        <time>2022-07-19T04:45:27Z</time>
      </trkpt>
      <trkpt lat="44.27046" lon="7.13002">
        <ele>1376.8</ele>
        <time>2022-07-19T04:45:28Z</time>
      </trkpt>
      <trkpt lat="44.27045" lon="7.13001">
        <ele>1376.8</ele>
        <time>2022-07-19T04:45:29Z</time>
      </trkpt>
      <trkpt lat="44.27043" lon="7.13">
        <ele>1377.2</ele>
        <time>2022-07-19T04:45:30Z</time>
      </trkpt>
      <trkpt lat="44.27042" lon="7.12999">
        <ele>1377.2</ele>
        <time>2022-07-19T04:45:31Z</time>
      </trkpt>
      <trkpt lat="44.2704" lon="7.12998">
        <ele>1377.4</ele>
        <time>2022-07-19T04:45:32Z</time>
      </trkpt>
      <trkpt lat="44.27039" lon="7.12996">
        <ele>1377.4</ele>
        <time>2022-07-19T04:45:33Z</time>
      </trkpt>
      <trkpt lat="44.27038" lon="7.12995">
        <ele>1377.8</ele>
        <time>2022-07-19T04:45:34Z</time>
      </trkpt>
      <trkpt lat="44.27036" lon="7.12994">
        <ele>1377.8</ele>
        <time>2022-07-19T04:45:35Z</time>
      </trkpt>
      <trkpt lat="44.27035" lon="7.12992">
        <ele>1378</ele>
        <time>2022-07-19T04:45:36Z</time>
      </trkpt>
      <trkpt lat="44.27033" lon="7.12991">
        <ele>1378.2</ele>
        <time>2022-07-19T04:45:37Z</time>
      </trkpt>
      <trkpt lat="44.27032" lon="7.1299">
        <ele>1378.2</ele>
        <time>2022-07-19T04:45:38Z</time>
      </trkpt>
      <trkpt lat="44.2703" lon="7.12989">
        <ele>1378.6</ele>
        <time>2022-07-19T04:45:39Z</time>
      </trkpt>
      <trkpt lat="44.27028" lon="7.12988">
        <ele>1378.6</ele>
        <time>2022-07-19T04:45:40Z</time>
      </trkpt>
      <trkpt lat="44.27026" lon="7.12988">
        <ele>1378.8</ele>
        <time>2022-07-19T04:45:41Z</time>
      </trkpt>
      <trkpt lat="44.27025" lon="7.12986">
        <ele>1378.8</ele>
        <time>2022-07-19T04:45:42Z</time>
      </trkpt>
      <trkpt lat="44.27024" lon="7.12985">
        <ele>1379</ele>
        <time>2022-07-19T04:45:43Z</time>
      </trkpt>
      <trkpt lat="44.27022" lon="7.12984">
        <ele>1379</ele>
        <time>2022-07-19T04:45:44Z</time>
      </trkpt>
      <trkpt lat="44.2702" lon="7.12983">
        <ele>1379.2</ele>
        <time>2022-07-19T04:45:45Z</time>
      </trkpt>
      <trkpt lat="44.27019" lon="7.12982">
        <ele>1379.2</ele>
        <time>2022-07-19T04:45:46Z</time>
      </trkpt>
      <trkpt lat="44.27017" lon="7.12981">
        <ele>1379.6</ele>
        <time>2022-07-19T04:45:47Z</time>
      </trkpt>
      <trkpt lat="44.27016" lon="7.1298">
        <ele>1379.6</ele>
        <time>2022-07-19T04:45:48Z</time>
      </trkpt>
      <trkpt lat="44.27015" lon="7.1298">
        <ele>1379.8</ele>
        <time>2022-07-19T04:45:49Z</time>
      </trkpt>
      <trkpt lat="44.27013" lon="7.12979">
        <ele>1380.2</ele>
        <time>2022-07-19T04:45:51Z</time>
      </trkpt>
      <trkpt lat="44.27012" lon="7.12978">
        <ele>1380.2</ele>
        <time>2022-07-19T04:45:52Z</time>
      </trkpt>
      <trkpt lat="44.2701" lon="7.12977">
        <ele>1380.4</ele>
        <time>2022-07-19T04:45:53Z</time>
      </trkpt>
      <trkpt lat="44.27009" lon="7.12975">
        <ele>1380.4</ele>
        <time>2022-07-19T04:45:54Z</time>
      </trkpt>
      <trkpt lat="44.27007" lon="7.12974">
        <ele>1380.8</ele>
        <time>2022-07-19T04:45:55Z</time>
      </trkpt>
      <trkpt lat="44.27006" lon="7.12973">
        <ele>1380.8</ele>
        <time>2022-07-19T04:45:56Z</time>
      </trkpt>
      <trkpt lat="44.27005" lon="7.12971">
        <ele>1381</ele>
        <time>2022-07-19T04:45:57Z</time>
      </trkpt>
      <trkpt lat="44.27004" lon="7.1297">
        <ele>1381</ele>
        <time>2022-07-19T04:45:58Z</time>
      </trkpt>
      <trkpt lat="44.27003" lon="7.12969">
        <ele>1381</ele>
        <time>2022-07-19T04:45:59Z</time>
      </trkpt>
      <trkpt lat="44.27001" lon="7.12968">
        <ele>1381.4</ele>
        <time>2022-07-19T04:46:00Z</time>
      </trkpt>
      <trkpt lat="44.27" lon="7.12967">
        <ele>1381.4</ele>
        <time>2022-07-19T04:46:01Z</time>
      </trkpt>
      <trkpt lat="44.26999" lon="7.12966">
        <ele>1381.6</ele>
        <time>2022-07-19T04:46:02Z</time>
      </trkpt>
      <trkpt lat="44.26998" lon="7.12964">
        <ele>1381.6</ele>
        <time>2022-07-19T04:46:03Z</time>
      </trkpt>
      <trkpt lat="44.26997" lon="7.12963">
        <ele>1381.8</ele>
        <time>2022-07-19T04:46:04Z</time>
      </trkpt>
      <trkpt lat="44.26996" lon="7.12961">
        <ele>1381.8</ele>
        <time>2022-07-19T04:46:05Z</time>
      </trkpt>
      <trkpt lat="44.26994" lon="7.1296">
        <ele>1382</ele>
        <time>2022-07-19T04:46:06Z</time>
      </trkpt>
      <trkpt lat="44.26993" lon="7.12959">
        <ele>1382</ele>
        <time>2022-07-19T04:46:07Z</time>
      </trkpt>
      <trkpt lat="44.26992" lon="7.12958">
        <ele>1382.4</ele>
        <time>2022-07-19T04:46:08Z</time>
      </trkpt>
      <trkpt lat="44.26991" lon="7.12956">
        <ele>1382.4</ele>
        <time>2022-07-19T04:46:09Z</time>
      </trkpt>
      <trkpt lat="44.26989" lon="7.12955">
        <ele>1382.8</ele>
        <time>2022-07-19T04:46:10Z</time>
      </trkpt>
      <trkpt lat="44.26988" lon="7.12954">
        <ele>1383</ele>
        <time>2022-07-19T04:46:11Z</time>
      </trkpt>
      <trkpt lat="44.26987" lon="7.12953">
        <ele>1383.2</ele>
        <time>2022-07-19T04:46:12Z</time>
      </trkpt>
      <trkpt lat="44.26987" lon="7.12951">
        <ele>1383.2</ele>
        <time>2022-07-19T04:46:13Z</time>
      </trkpt>
      <trkpt lat="44.26986" lon="7.1295">
        <ele>1383.6</ele>
        <time>2022-07-19T04:46:14Z</time>
      </trkpt>
      <trkpt lat="44.26985" lon="7.12948">
        <ele>1383.8</ele>
        <time>2022-07-19T04:46:15Z</time>
      </trkpt>
      <trkpt lat="44.26984" lon="7.12946">
        <ele>1384</ele>
        <time>2022-07-19T04:46:16Z</time>
      </trkpt>
      <trkpt lat="44.26983" lon="7.12944">
        <ele>1384.2</ele>
        <time>2022-07-19T04:46:17Z</time>
      </trkpt>
      <trkpt lat="44.26982" lon="7.12941">
        <ele>1384.4</ele>
        <time>2022-07-19T04:46:18Z</time>
      </trkpt>
      <trkpt lat="44.26981" lon="7.1294">
        <ele>1384.4</ele>
        <time>2022-07-19T04:46:19Z</time>
      </trkpt>
      <trkpt lat="44.2698" lon="7.12938">
        <ele>1384.6</ele>
        <time>2022-07-19T04:46:20Z</time>
      </trkpt>
      <trkpt lat="44.26979" lon="7.12936">
        <ele>1384.6</ele>
        <time>2022-07-19T04:46:21Z</time>
      </trkpt>
      <trkpt lat="44.26978" lon="7.12934">
        <ele>1385</ele>
        <time>2022-07-19T04:46:22Z</time>
      </trkpt>
      <trkpt lat="44.26978" lon="7.12931">
        <ele>1385.2</ele>
        <time>2022-07-19T04:46:23Z</time>
      </trkpt>
      <trkpt lat="44.26977" lon="7.12929">
        <ele>1385.2</ele>
        <time>2022-07-19T04:46:24Z</time>
      </trkpt>
      <trkpt lat="44.26976" lon="7.12927">
        <ele>1385.4</ele>
        <time>2022-07-19T04:46:25Z</time>
      </trkpt>
      <trkpt lat="44.26976" lon="7.12925">
        <ele>1385.4</ele>
        <time>2022-07-19T04:46:26Z</time>
      </trkpt>
      <trkpt lat="44.26975" lon="7.12923">
        <ele>1385.8</ele>
        <time>2022-07-19T04:46:27Z</time>
      </trkpt>
      <trkpt lat="44.26974" lon="7.12922">
        <ele>1385.8</ele>
        <time>2022-07-19T04:46:28Z</time>
      </trkpt>
      <trkpt lat="44.26972" lon="7.1292">
        <ele>1386</ele>
        <time>2022-07-19T04:46:29Z</time>
      </trkpt>
      <trkpt lat="44.2697" lon="7.12919">
        <ele>1386</ele>
        <time>2022-07-19T04:46:30Z</time>
      </trkpt>
      <trkpt lat="44.26969" lon="7.12918">
        <ele>1386.4</ele>
        <time>2022-07-19T04:46:31Z</time>
      </trkpt>
      <trkpt lat="44.26968" lon="7.12918">
        <ele>1386.4</ele>
        <time>2022-07-19T04:46:32Z</time>
      </trkpt>
      <trkpt lat="44.26967" lon="7.12919">
        <ele>1386.4</ele>
        <time>2022-07-19T04:46:33Z</time>
      </trkpt>
      <trkpt lat="44.26965" lon="7.12919">
        <ele>1386.8</ele>
        <time>2022-07-19T04:46:34Z</time>
      </trkpt>
      <trkpt lat="44.26963" lon="7.12919">
        <ele>1386.8</ele>
        <time>2022-07-19T04:46:35Z</time>
      </trkpt>
      <trkpt lat="44.26961" lon="7.12919">
        <ele>1387</ele>
        <time>2022-07-19T04:46:36Z</time>
      </trkpt>
      <trkpt lat="44.26959" lon="7.12919">
        <ele>1387</ele>
        <time>2022-07-19T04:46:37Z</time>
      </trkpt>
      <trkpt lat="44.26958" lon="7.12918">
        <ele>1387.2</ele>
        <time>2022-07-19T04:46:38Z</time>
      </trkpt>
      <trkpt lat="44.26956" lon="7.12918">
        <ele>1387.2</ele>
        <time>2022-07-19T04:46:39Z</time>
      </trkpt>
      <trkpt lat="44.26954" lon="7.12918">
        <ele>1387.6</ele>
        <time>2022-07-19T04:46:40Z</time>
      </trkpt>
      <trkpt lat="44.26953" lon="7.12917">
        <ele>1388</ele>
        <time>2022-07-19T04:46:41Z</time>
      </trkpt>
      <trkpt lat="44.26951" lon="7.12917">
        <ele>1388</ele>
        <time>2022-07-19T04:46:42Z</time>
      </trkpt>
      <trkpt lat="44.26949" lon="7.12916">
        <ele>1388.2</ele>
        <time>2022-07-19T04:46:43Z</time>
      </trkpt>
      <trkpt lat="44.26947" lon="7.12915">
        <ele>1388.2</ele>
        <time>2022-07-19T04:46:44Z</time>
      </trkpt>
      <trkpt lat="44.26945" lon="7.12915">
        <ele>1388.6</ele>
        <time>2022-07-19T04:46:45Z</time>
      </trkpt>
      <trkpt lat="44.26944" lon="7.12914">
        <ele>1388.6</ele>
        <time>2022-07-19T04:46:46Z</time>
      </trkpt>
      <trkpt lat="44.26942" lon="7.12914">
        <ele>1388.8</ele>
        <time>2022-07-19T04:46:47Z</time>
      </trkpt>
      <trkpt lat="44.26941" lon="7.12913">
        <ele>1388.8</ele>
        <time>2022-07-19T04:46:48Z</time>
      </trkpt>
      <trkpt lat="44.26939" lon="7.12913">
        <ele>1389.2</ele>
        <time>2022-07-19T04:46:49Z</time>
      </trkpt>
      <trkpt lat="44.26938" lon="7.12912">
        <ele>1389.2</ele>
        <time>2022-07-19T04:46:50Z</time>
      </trkpt>
      <trkpt lat="44.26936" lon="7.12911">
        <ele>1389.4</ele>
        <time>2022-07-19T04:46:51Z</time>
      </trkpt>
      <trkpt lat="44.26934" lon="7.1291">
        <ele>1389.8</ele>
        <time>2022-07-19T04:46:52Z</time>
      </trkpt>
      <trkpt lat="44.26932" lon="7.12909">
        <ele>1389.8</ele>
        <time>2022-07-19T04:46:53Z</time>
      </trkpt>
      <trkpt lat="44.26931" lon="7.12908">
        <ele>1390.2</ele>
        <time>2022-07-19T04:46:54Z</time>
      </trkpt>
      <trkpt lat="44.26929" lon="7.12908">
        <ele>1390.4</ele>
        <time>2022-07-19T04:46:55Z</time>
      </trkpt>
      <trkpt lat="44.26928" lon="7.12907">
        <ele>1390.6</ele>
        <time>2022-07-19T04:46:56Z</time>
      </trkpt>
      <trkpt lat="44.26926" lon="7.12906">
        <ele>1390.8</ele>
        <time>2022-07-19T04:46:57Z</time>
      </trkpt>
      <trkpt lat="44.26925" lon="7.12905">
        <ele>1390.8</ele>
        <time>2022-07-19T04:46:58Z</time>
      </trkpt>
      <trkpt lat="44.26923" lon="7.12904">
        <ele>1391.2</ele>
        <time>2022-07-19T04:46:59Z</time>
      </trkpt>
      <trkpt lat="44.26922" lon="7.12903">
        <ele>1391.2</ele>
        <time>2022-07-19T04:47:00Z</time>
      </trkpt>
      <trkpt lat="44.2692" lon="7.12902">
        <ele>1391.6</ele>
        <time>2022-07-19T04:47:01Z</time>
      </trkpt>
      <trkpt lat="44.26919" lon="7.12901">
        <ele>1391.6</ele>
        <time>2022-07-19T04:47:02Z</time>
      </trkpt>
      <trkpt lat="44.26917" lon="7.129">
        <ele>1392</ele>
        <time>2022-07-19T04:47:03Z</time>
      </trkpt>
      <trkpt lat="44.26916" lon="7.12899">
        <ele>1392</ele>
        <time>2022-07-19T04:47:04Z</time>
      </trkpt>
      <trkpt lat="44.26915" lon="7.12897">
        <ele>1392</ele>
        <time>2022-07-19T04:47:05Z</time>
      </trkpt>
      <trkpt lat="44.26914" lon="7.12896">
        <ele>1392.2</ele>
        <time>2022-07-19T04:47:06Z</time>
      </trkpt>
      <trkpt lat="44.26912" lon="7.12895">
        <ele>1392.2</ele>
        <time>2022-07-19T04:47:07Z</time>
      </trkpt>
      <trkpt lat="44.26911" lon="7.12894">
        <ele>1392.6</ele>
        <time>2022-07-19T04:47:08Z</time>
      </trkpt>
      <trkpt lat="44.2691" lon="7.12893">
        <ele>1392.6</ele>
        <time>2022-07-19T04:47:09Z</time>
      </trkpt>
      <trkpt lat="44.26908" lon="7.12892">
        <ele>1393</ele>
        <time>2022-07-19T04:47:10Z</time>
      </trkpt>
      <trkpt lat="44.26907" lon="7.12891">
        <ele>1393</ele>
        <time>2022-07-19T04:47:11Z</time>
      </trkpt>
      <trkpt lat="44.26905" lon="7.1289">
        <ele>1393.4</ele>
        <time>2022-07-19T04:47:12Z</time>
      </trkpt>
      <trkpt lat="44.26904" lon="7.1289">
        <ele>1393.6</ele>
        <time>2022-07-19T04:47:13Z</time>
      </trkpt>
      <trkpt lat="44.26903" lon="7.12889">
        <ele>1393.6</ele>
        <time>2022-07-19T04:47:14Z</time>
      </trkpt>
      <trkpt lat="44.26901" lon="7.12888">
        <ele>1393.8</ele>
        <time>2022-07-19T04:47:15Z</time>
      </trkpt>
      <trkpt lat="44.269" lon="7.12888">
        <ele>1393.8</ele>
        <time>2022-07-19T04:47:16Z</time>
      </trkpt>
      <trkpt lat="44.26899" lon="7.12888">
        <ele>1394</ele>
        <time>2022-07-19T04:47:17Z</time>
      </trkpt>
      <trkpt lat="44.26897" lon="7.12888">
        <ele>1394</ele>
        <time>2022-07-19T04:47:18Z</time>
      </trkpt>
      <trkpt lat="44.26896" lon="7.12887">
        <ele>1394.4</ele>
        <time>2022-07-19T04:47:19Z</time>
      </trkpt>
      <trkpt lat="44.26895" lon="7.12886">
        <ele>1394.4</ele>
        <time>2022-07-19T04:47:20Z</time>
      </trkpt>
      <trkpt lat="44.26894" lon="7.12885">
        <ele>1394.4</ele>
        <time>2022-07-19T04:47:21Z</time>
      </trkpt>
      <trkpt lat="44.26892" lon="7.12884">
        <ele>1394.6</ele>
        <time>2022-07-19T04:47:22Z</time>
      </trkpt>
      <trkpt lat="44.26891" lon="7.12883">
        <ele>1394.6</ele>
        <time>2022-07-19T04:47:23Z</time>
      </trkpt>
      <trkpt lat="44.2689" lon="7.12882">
        <ele>1395</ele>
        <time>2022-07-19T04:47:24Z</time>
      </trkpt>
      <trkpt lat="44.26889" lon="7.12882">
        <ele>1395</ele>
        <time>2022-07-19T04:47:25Z</time>
      </trkpt>
      <trkpt lat="44.26887" lon="7.12881">
        <ele>1395</ele>
        <time>2022-07-19T04:47:26Z</time>
      </trkpt>
      <trkpt lat="44.26886" lon="7.12881">
        <ele>1395.2</ele>
        <time>2022-07-19T04:47:27Z</time>
      </trkpt>
      <trkpt lat="44.26885" lon="7.1288">
        <ele>1395.2</ele>
        <time>2022-07-19T04:47:28Z</time>
      </trkpt>
      <trkpt lat="44.26883" lon="7.12879">
        <ele>1395.2</ele>
        <time>2022-07-19T04:47:29Z</time>
      </trkpt>
      <trkpt lat="44.26882" lon="7.12878">
        <ele>1395.4</ele>
        <time>2022-07-19T04:47:30Z</time>
      </trkpt>
      <trkpt lat="44.2688" lon="7.12878">
        <ele>1395.4</ele>
        <time>2022-07-19T04:47:31Z</time>
      </trkpt>
      <trkpt lat="44.26879" lon="7.12876">
        <ele>1395.6</ele>
        <time>2022-07-19T04:47:32Z</time>
      </trkpt>
      <trkpt lat="44.26878" lon="7.12876">
        <ele>1395.6</ele>
        <time>2022-07-19T04:47:33Z</time>
      </trkpt>
      <trkpt lat="44.26876" lon="7.12875">
        <ele>1396</ele>
        <time>2022-07-19T04:47:34Z</time>
      </trkpt>
      <trkpt lat="44.26874" lon="7.12874">
        <ele>1396</ele>
        <time>2022-07-19T04:47:35Z</time>
      </trkpt>
      <trkpt lat="44.26873" lon="7.12873">
        <ele>1396.4</ele>
        <time>2022-07-19T04:47:36Z</time>
      </trkpt>
      <trkpt lat="44.26871" lon="7.12873">
        <ele>1396.4</ele>
        <time>2022-07-19T04:47:37Z</time>
      </trkpt>
      <trkpt lat="44.2687" lon="7.12873">
        <ele>1396.6</ele>
        <time>2022-07-19T04:47:38Z</time>
      </trkpt>
      <trkpt lat="44.26868" lon="7.12873">
        <ele>1396.6</ele>
        <time>2022-07-19T04:47:39Z</time>
      </trkpt>
      <trkpt lat="44.26867" lon="7.12872">
        <ele>1397</ele>
        <time>2022-07-19T04:47:40Z</time>
      </trkpt>
      <trkpt lat="44.26866" lon="7.12871">
        <ele>1397.2</ele>
        <time>2022-07-19T04:47:41Z</time>
      </trkpt>
      <trkpt lat="44.26865" lon="7.12871">
        <ele>1397.2</ele>
        <time>2022-07-19T04:47:42Z</time>
      </trkpt>
      <trkpt lat="44.26863" lon="7.1287">
        <ele>1397.6</ele>
        <time>2022-07-19T04:47:43Z</time>
      </trkpt>
      <trkpt lat="44.26862" lon="7.12869">
        <ele>1397.6</ele>
        <time>2022-07-19T04:47:44Z</time>
      </trkpt>
      <trkpt lat="44.26861" lon="7.12869">
        <ele>1397.8</ele>
        <time>2022-07-19T04:47:45Z</time>
      </trkpt>
      <trkpt lat="44.2686" lon="7.12868">
        <ele>1397.8</ele>
        <time>2022-07-19T04:47:46Z</time>
      </trkpt>
      <trkpt lat="44.26859" lon="7.12867">
        <ele>1398.2</ele>
        <time>2022-07-19T04:47:47Z</time>
      </trkpt>
      <trkpt lat="44.26858" lon="7.12866">
        <ele>1398.2</ele>
        <time>2022-07-19T04:47:48Z</time>
      </trkpt>
      <trkpt lat="44.26856" lon="7.12865">
        <ele>1398.4</ele>
        <time>2022-07-19T04:47:49Z</time>
      </trkpt>
      <trkpt lat="44.26855" lon="7.12865">
        <ele>1398.4</ele>
        <time>2022-07-19T04:47:50Z</time>
      </trkpt>
      <trkpt lat="44.26853" lon="7.12865">
        <ele>1398.8</ele>
        <time>2022-07-19T04:47:51Z</time>
      </trkpt>
      <trkpt lat="44.26851" lon="7.12865">
        <ele>1398.8</ele>
        <time>2022-07-19T04:47:52Z</time>
      </trkpt>
      <trkpt lat="44.26849" lon="7.12865">
        <ele>1399.2</ele>
        <time>2022-07-19T04:47:53Z</time>
      </trkpt>
      <trkpt lat="44.26848" lon="7.12864">
        <ele>1399.2</ele>
        <time>2022-07-19T04:47:54Z</time>
      </trkpt>
      <trkpt lat="44.26846" lon="7.12865">
        <ele>1399.6</ele>
        <time>2022-07-19T04:47:55Z</time>
      </trkpt>
      <trkpt lat="44.26845" lon="7.12865">
        <ele>1399.6</ele>
        <time>2022-07-19T04:47:56Z</time>
      </trkpt>
      <trkpt lat="44.26844" lon="7.12866">
        <ele>1399.8</ele>
        <time>2022-07-19T04:47:57Z</time>
      </trkpt>
      <trkpt lat="44.26843" lon="7.12867">
        <ele>1399.8</ele>
        <time>2022-07-19T04:47:58Z</time>
      </trkpt>
      <trkpt lat="44.26842" lon="7.12868">
        <ele>1400.2</ele>
        <time>2022-07-19T04:47:59Z</time>
      </trkpt>
      <trkpt lat="44.26841" lon="7.12869">
        <ele>1400.2</ele>
        <time>2022-07-19T04:48:00Z</time>
      </trkpt>
      <trkpt lat="44.2684" lon="7.1287">
        <ele>1400.4</ele>
        <time>2022-07-19T04:48:01Z</time>
      </trkpt>
      <trkpt lat="44.26839" lon="7.12871">
        <ele>1400.6</ele>
        <time>2022-07-19T04:48:02Z</time>
      </trkpt>
      <trkpt lat="44.26838" lon="7.12871">
        <ele>1400.6</ele>
        <time>2022-07-19T04:48:03Z</time>
      </trkpt>
      <trkpt lat="44.26836" lon="7.12871">
        <ele>1401</ele>
        <time>2022-07-19T04:48:04Z</time>
      </trkpt>
      <trkpt lat="44.26835" lon="7.12872">
        <ele>1401</ele>
        <time>2022-07-19T04:48:05Z</time>
      </trkpt>
      <trkpt lat="44.26834" lon="7.12873">
        <ele>1401.2</ele>
        <time>2022-07-19T04:48:06Z</time>
      </trkpt>
      <trkpt lat="44.26833" lon="7.12874">
        <ele>1401.4</ele>
        <time>2022-07-19T04:48:07Z</time>
      </trkpt>
      <trkpt lat="44.26832" lon="7.12875">
        <ele>1401.4</ele>
        <time>2022-07-19T04:48:08Z</time>
      </trkpt>
      <trkpt lat="44.2683" lon="7.12875">
        <ele>1401.8</ele>
        <time>2022-07-19T04:48:09Z</time>
      </trkpt>
      <trkpt lat="44.26829" lon="7.12876">
        <ele>1401.8</ele>
        <time>2022-07-19T04:48:10Z</time>
      </trkpt>
      <trkpt lat="44.26828" lon="7.12876">
        <ele>1402</ele>
        <time>2022-07-19T04:48:11Z</time>
      </trkpt>
      <trkpt lat="44.26827" lon="7.12876">
        <ele>1402</ele>
        <time>2022-07-19T04:48:12Z</time>
      </trkpt>
      <trkpt lat="44.26825" lon="7.12877">
        <ele>1402.4</ele>
        <time>2022-07-19T04:48:13Z</time>
      </trkpt>
      <trkpt lat="44.26824" lon="7.12877">
        <ele>1402.4</ele>
        <time>2022-07-19T04:48:14Z</time>
      </trkpt>
      <trkpt lat="44.26823" lon="7.12878">
        <ele>1402.8</ele>
        <time>2022-07-19T04:48:15Z</time>
      </trkpt>
      <trkpt lat="44.26822" lon="7.12878">
        <ele>1402.8</ele>
        <time>2022-07-19T04:48:16Z</time>
      </trkpt>
      <trkpt lat="44.26821" lon="7.12878">
        <ele>1403</ele>
        <time>2022-07-19T04:48:17Z</time>
      </trkpt>
      <trkpt lat="44.26819" lon="7.12879">
        <ele>1403.2</ele>
        <time>2022-07-19T04:48:18Z</time>
      </trkpt>
      <trkpt lat="44.26818" lon="7.12879">
        <ele>1403.2</ele>
        <time>2022-07-19T04:48:19Z</time>
      </trkpt>
      <trkpt lat="44.26817" lon="7.12879">
        <ele>1403.4</ele>
        <time>2022-07-19T04:48:20Z</time>
      </trkpt>
      <trkpt lat="44.26816" lon="7.12879">
        <ele>1403.4</ele>
        <time>2022-07-19T04:48:21Z</time>
      </trkpt>
      <trkpt lat="44.26815" lon="7.1288">
        <ele>1403.8</ele>
        <time>2022-07-19T04:48:22Z</time>
      </trkpt>
      <trkpt lat="44.26813" lon="7.12879">
        <ele>1403.8</ele>
        <time>2022-07-19T04:48:23Z</time>
      </trkpt>
      <trkpt lat="44.26812" lon="7.12879">
        <ele>1404</ele>
        <time>2022-07-19T04:48:24Z</time>
      </trkpt>
      <trkpt lat="44.26811" lon="7.12879">
        <ele>1404</ele>
        <time>2022-07-19T04:48:25Z</time>
      </trkpt>
      <trkpt lat="44.26809" lon="7.12879">
        <ele>1404.2</ele>
        <time>2022-07-19T04:48:26Z</time>
      </trkpt>
      <trkpt lat="44.26808" lon="7.1288">
        <ele>1404.2</ele>
        <time>2022-07-19T04:48:27Z</time>
      </trkpt>
      <trkpt lat="44.26807" lon="7.1288">
        <ele>1404.6</ele>
        <time>2022-07-19T04:48:28Z</time>
      </trkpt>
      <trkpt lat="44.26806" lon="7.12881">
        <ele>1404.8</ele>
        <time>2022-07-19T04:48:29Z</time>
      </trkpt>
      <trkpt lat="44.26804" lon="7.12881">
        <ele>1404.8</ele>
        <time>2022-07-19T04:48:30Z</time>
      </trkpt>
      <trkpt lat="44.26803" lon="7.12881">
        <ele>1405</ele>
        <time>2022-07-19T04:48:31Z</time>
      </trkpt>
      <trkpt lat="44.26802" lon="7.12881">
        <ele>1405</ele>
        <time>2022-07-19T04:48:32Z</time>
      </trkpt>
      <trkpt lat="44.268" lon="7.12881">
        <ele>1405.4</ele>
        <time>2022-07-19T04:48:33Z</time>
      </trkpt>
      <trkpt lat="44.26799" lon="7.12881">
        <ele>1405.4</ele>
        <time>2022-07-19T04:48:34Z</time>
      </trkpt>
      <trkpt lat="44.26798" lon="7.12882">
        <ele>1405.6</ele>
        <time>2022-07-19T04:48:35Z</time>
      </trkpt>
      <trkpt lat="44.26796" lon="7.12882">
        <ele>1405.6</ele>
        <time>2022-07-19T04:48:36Z</time>
      </trkpt>
      <trkpt lat="44.26795" lon="7.12882">
        <ele>1405.8</ele>
        <time>2022-07-19T04:48:37Z</time>
      </trkpt>
      <trkpt lat="44.26794" lon="7.12882">
        <ele>1405.8</ele>
        <time>2022-07-19T04:48:38Z</time>
      </trkpt>
      <trkpt lat="44.26792" lon="7.12882">
        <ele>1406.2</ele>
        <time>2022-07-19T04:48:39Z</time>
      </trkpt>
      <trkpt lat="44.26791" lon="7.12882">
        <ele>1406.4</ele>
        <time>2022-07-19T04:48:40Z</time>
      </trkpt>
      <trkpt lat="44.2679" lon="7.12882">
        <ele>1406.4</ele>
        <time>2022-07-19T04:48:41Z</time>
      </trkpt>
      <trkpt lat="44.26788" lon="7.12882">
        <ele>1406.6</ele>
        <time>2022-07-19T04:48:42Z</time>
      </trkpt>
      <trkpt lat="44.26787" lon="7.12882">
        <ele>1406.6</ele>
        <time>2022-07-19T04:48:43Z</time>
      </trkpt>
      <trkpt lat="44.26786" lon="7.12883">
        <ele>1406.8</ele>
        <time>2022-07-19T04:48:44Z</time>
      </trkpt>
      <trkpt lat="44.26784" lon="7.12883">
        <ele>1406.8</ele>
        <time>2022-07-19T04:48:45Z</time>
      </trkpt>
      <trkpt lat="44.26783" lon="7.12883">
        <ele>1407.2</ele>
        <time>2022-07-19T04:48:46Z</time>
      </trkpt>
      <trkpt lat="44.26782" lon="7.12883">
        <ele>1407.2</ele>
        <time>2022-07-19T04:48:47Z</time>
      </trkpt>
      <trkpt lat="44.2678" lon="7.12883">
        <ele>1407.4</ele>
        <time>2022-07-19T04:48:48Z</time>
      </trkpt>
      <trkpt lat="44.26779" lon="7.12883">
        <ele>1407.6</ele>
        <time>2022-07-19T04:48:49Z</time>
      </trkpt>
      <trkpt lat="44.26777" lon="7.12884">
        <ele>1407.6</ele>
        <time>2022-07-19T04:48:50Z</time>
      </trkpt>
      <trkpt lat="44.26776" lon="7.12884">
        <ele>1408</ele>
        <time>2022-07-19T04:48:51Z</time>
      </trkpt>
      <trkpt lat="44.26774" lon="7.12884">
        <ele>1408.2</ele>
        <time>2022-07-19T04:48:52Z</time>
      </trkpt>
      <trkpt lat="44.26773" lon="7.12884">
        <ele>1408.2</ele>
        <time>2022-07-19T04:48:53Z</time>
      </trkpt>
      <trkpt lat="44.26772" lon="7.12885">
        <ele>1408.6</ele>
        <time>2022-07-19T04:48:54Z</time>
      </trkpt>
      <trkpt lat="44.2677" lon="7.12886">
        <ele>1408.6</ele>
        <time>2022-07-19T04:48:55Z</time>
      </trkpt>
      <trkpt lat="44.26769" lon="7.12887">
        <ele>1408.8</ele>
        <time>2022-07-19T04:48:56Z</time>
      </trkpt>
      <trkpt lat="44.26768" lon="7.12888">
        <ele>1408.8</ele>
        <time>2022-07-19T04:48:57Z</time>
      </trkpt>
      <trkpt lat="44.26767" lon="7.12889">
        <ele>1409.2</ele>
        <time>2022-07-19T04:48:58Z</time>
      </trkpt>
      <trkpt lat="44.26765" lon="7.1289">
        <ele>1409.2</ele>
        <time>2022-07-19T04:48:59Z</time>
      </trkpt>
      <trkpt lat="44.26764" lon="7.12891">
        <ele>1409.4</ele>
        <time>2022-07-19T04:49:00Z</time>
      </trkpt>
      <trkpt lat="44.26762" lon="7.12892">
        <ele>1409.4</ele>
        <time>2022-07-19T04:49:01Z</time>
      </trkpt>
      <trkpt lat="44.26761" lon="7.12893">
        <ele>1409.6</ele>
        <time>2022-07-19T04:49:02Z</time>
      </trkpt>
      <trkpt lat="44.2676" lon="7.12895">
        <ele>1409.6</ele>
        <time>2022-07-19T04:49:03Z</time>
      </trkpt>
      <trkpt lat="44.26759" lon="7.12897">
        <ele>1410</ele>
        <time>2022-07-19T04:49:04Z</time>
      </trkpt>
      <trkpt lat="44.26758" lon="7.12898">
        <ele>1410</ele>
        <time>2022-07-19T04:49:05Z</time>
      </trkpt>
      <trkpt lat="44.26756" lon="7.129">
        <ele>1410.2</ele>
        <time>2022-07-19T04:49:06Z</time>
      </trkpt>
      <trkpt lat="44.26755" lon="7.12902">
        <ele>1410.4</ele>
        <time>2022-07-19T04:49:07Z</time>
      </trkpt>
      <trkpt lat="44.26754" lon="7.12903">
        <ele>1410.4</ele>
        <time>2022-07-19T04:49:08Z</time>
      </trkpt>
      <trkpt lat="44.26753" lon="7.12905">
        <ele>1410.4</ele>
        <time>2022-07-19T04:49:09Z</time>
      </trkpt>
      <trkpt lat="44.26751" lon="7.12906">
        <ele>1410.6</ele>
        <time>2022-07-19T04:49:10Z</time>
      </trkpt>
      <trkpt lat="44.2675" lon="7.12907">
        <ele>1411</ele>
        <time>2022-07-19T04:49:11Z</time>
      </trkpt>
      <trkpt lat="44.26748" lon="7.12908">
        <ele>1411</ele>
        <time>2022-07-19T04:49:12Z</time>
      </trkpt>
      <trkpt lat="44.26746" lon="7.12909">
        <ele>1411.2</ele>
        <time>2022-07-19T04:49:13Z</time>
      </trkpt>
      <trkpt lat="44.26744" lon="7.12908">
        <ele>1411.2</ele>
        <time>2022-07-19T04:49:14Z</time>
      </trkpt>
      <trkpt lat="44.26742" lon="7.12907">
        <ele>1411.4</ele>
        <time>2022-07-19T04:49:15Z</time>
      </trkpt>
      <trkpt lat="44.2674" lon="7.12905">
        <ele>1411.4</ele>
        <time>2022-07-19T04:49:16Z</time>
      </trkpt>
      <trkpt lat="44.26739" lon="7.12902">
        <ele>1411.8</ele>
        <time>2022-07-19T04:49:17Z</time>
      </trkpt>
      <trkpt lat="44.26738" lon="7.12899">
        <ele>1411.8</ele>
        <time>2022-07-19T04:49:18Z</time>
      </trkpt>
      <trkpt lat="44.26738" lon="7.12896">
        <ele>1412</ele>
        <time>2022-07-19T04:49:19Z</time>
      </trkpt>
      <trkpt lat="44.26739" lon="7.12894">
        <ele>1412</ele>
        <time>2022-07-19T04:49:20Z</time>
      </trkpt>
      <trkpt lat="44.2674" lon="7.12891">
        <ele>1412</ele>
        <time>2022-07-19T04:49:21Z</time>
      </trkpt>
      <trkpt lat="44.26742" lon="7.12889">
        <ele>1412.2</ele>
        <time>2022-07-19T04:49:22Z</time>
      </trkpt>
      <trkpt lat="44.26744" lon="7.12888">
        <ele>1412.2</ele>
        <time>2022-07-19T04:49:23Z</time>
      </trkpt>
      <trkpt lat="44.26746" lon="7.12886">
        <ele>1412.6</ele>
        <time>2022-07-19T04:49:24Z</time>
      </trkpt>
      <trkpt lat="44.26748" lon="7.12885">
        <ele>1412.6</ele>
        <time>2022-07-19T04:49:25Z</time>
      </trkpt>
      <trkpt lat="44.2675" lon="7.12884">
        <ele>1412.8</ele>
        <time>2022-07-19T04:49:26Z</time>
      </trkpt>
      <trkpt lat="44.26752" lon="7.12883">
        <ele>1412.8</ele>
        <time>2022-07-19T04:49:27Z</time>
      </trkpt>
      <trkpt lat="44.26755" lon="7.12883">
        <ele>1413.2</ele>
        <time>2022-07-19T04:49:28Z</time>
      </trkpt>
      <trkpt lat="44.26757" lon="7.12882">
        <ele>1413.2</ele>
        <time>2022-07-19T04:49:29Z</time>
      </trkpt>
      <trkpt lat="44.26758" lon="7.12881">
        <ele>1413.6</ele>
        <time>2022-07-19T04:49:30Z</time>
      </trkpt>
      <trkpt lat="44.2676" lon="7.12879">
        <ele>1413.6</ele>
        <time>2022-07-19T04:49:31Z</time>
      </trkpt>
      <trkpt lat="44.26762" lon="7.12878">
        <ele>1413.8</ele>
        <time>2022-07-19T04:49:32Z</time>
      </trkpt>
      <trkpt lat="44.26763" lon="7.12877">
        <ele>1413.8</ele>
        <time>2022-07-19T04:49:33Z</time>
      </trkpt>
      <trkpt lat="44.26764" lon="7.12875">
        <ele>1414.2</ele>
        <time>2022-07-19T04:49:34Z</time>
      </trkpt>
      <trkpt lat="44.26765" lon="7.12873">
        <ele>1414.2</ele>
        <time>2022-07-19T04:49:35Z</time>
      </trkpt>
      <trkpt lat="44.26766" lon="7.12872">
        <ele>1414.6</ele>
        <time>2022-07-19T04:49:36Z</time>
      </trkpt>
      <trkpt lat="44.26768" lon="7.1287">
        <ele>1414.8</ele>
        <time>2022-07-19T04:49:37Z</time>
      </trkpt>
      <trkpt lat="44.26769" lon="7.12868">
        <ele>1414.8</ele>
        <time>2022-07-19T04:49:38Z</time>
      </trkpt>
      <trkpt lat="44.2677" lon="7.12867">
        <ele>1415.2</ele>
        <time>2022-07-19T04:49:39Z</time>
      </trkpt>
      <trkpt lat="44.26772" lon="7.12865">
        <ele>1415.2</ele>
        <time>2022-07-19T04:49:40Z</time>
      </trkpt>
      <trkpt lat="44.26773" lon="7.12864">
        <ele>1415.4</ele>
        <time>2022-07-19T04:49:41Z</time>
      </trkpt>
      <trkpt lat="44.26775" lon="7.12863">
        <ele>1415.4</ele>
        <time>2022-07-19T04:49:42Z</time>
      </trkpt>
      <trkpt lat="44.26777" lon="7.12862">
        <ele>1415.6</ele>
        <time>2022-07-19T04:49:43Z</time>
      </trkpt>
      <trkpt lat="44.26778" lon="7.12861">
        <ele>1416</ele>
        <time>2022-07-19T04:49:44Z</time>
      </trkpt>
      <trkpt lat="44.2678" lon="7.12859">
        <ele>1416</ele>
        <time>2022-07-19T04:49:45Z</time>
      </trkpt>
      <trkpt lat="44.26782" lon="7.12858">
        <ele>1416.2</ele>
        <time>2022-07-19T04:49:46Z</time>
      </trkpt>
      <trkpt lat="44.26784" lon="7.12857">
        <ele>1416.2</ele>
        <time>2022-07-19T04:49:47Z</time>
      </trkpt>
      <trkpt lat="44.26785" lon="7.12856">
        <ele>1416.6</ele>
        <time>2022-07-19T04:49:48Z</time>
      </trkpt>
      <trkpt lat="44.26787" lon="7.12856">
        <ele>1416.6</ele>
        <time>2022-07-19T04:49:49Z</time>
      </trkpt>
      <trkpt lat="44.26789" lon="7.12855">
        <ele>1416.8</ele>
        <time>2022-07-19T04:49:50Z</time>
      </trkpt>
      <trkpt lat="44.2679" lon="7.12854">
        <ele>1416.8</ele>
        <time>2022-07-19T04:49:51Z</time>
      </trkpt>
      <trkpt lat="44.26792" lon="7.12853">
        <ele>1417.2</ele>
        <time>2022-07-19T04:49:52Z</time>
      </trkpt>
      <trkpt lat="44.26794" lon="7.12852">
        <ele>1417.4</ele>
        <time>2022-07-19T04:49:53Z</time>
      </trkpt>
      <trkpt lat="44.26795" lon="7.12851">
        <ele>1417.4</ele>
        <time>2022-07-19T04:49:54Z</time>
      </trkpt>
      <trkpt lat="44.26797" lon="7.12849">
        <ele>1417.6</ele>
        <time>2022-07-19T04:49:55Z</time>
      </trkpt>
      <trkpt lat="44.26798" lon="7.12848">
        <ele>1417.6</ele>
        <time>2022-07-19T04:49:56Z</time>
      </trkpt>
      <trkpt lat="44.268" lon="7.12847">
        <ele>1418</ele>
        <time>2022-07-19T04:49:57Z</time>
      </trkpt>
      <trkpt lat="44.26802" lon="7.12846">
        <ele>1418</ele>
        <time>2022-07-19T04:49:58Z</time>
      </trkpt>
      <trkpt lat="44.26803" lon="7.12845">
        <ele>1418.4</ele>
        <time>2022-07-19T04:49:59Z</time>
      </trkpt>
      <trkpt lat="44.26805" lon="7.12843">
        <ele>1418.4</ele>
        <time>2022-07-19T04:50:00Z</time>
      </trkpt>
      <trkpt lat="44.26806" lon="7.12841">
        <ele>1418.6</ele>
        <time>2022-07-19T04:50:01Z</time>
      </trkpt>
      <trkpt lat="44.26808" lon="7.1284">
        <ele>1418.6</ele>
        <time>2022-07-19T04:50:02Z</time>
      </trkpt>
      <trkpt lat="44.26809" lon="7.12838">
        <ele>1418.6</ele>
        <time>2022-07-19T04:50:03Z</time>
      </trkpt>
      <trkpt lat="44.2681" lon="7.12836">
        <ele>1419</ele>
        <time>2022-07-19T04:50:04Z</time>
      </trkpt>
      <trkpt lat="44.26811" lon="7.12835">
        <ele>1419.2</ele>
        <time>2022-07-19T04:50:05Z</time>
      </trkpt>
      <trkpt lat="44.26813" lon="7.12833">
        <ele>1419.4</ele>
        <time>2022-07-19T04:50:06Z</time>
      </trkpt>
      <trkpt lat="44.26814" lon="7.12831">
        <ele>1419.8</ele>
        <time>2022-07-19T04:50:07Z</time>
      </trkpt>
      <trkpt lat="44.26816" lon="7.1283">
        <ele>1419.8</ele>
        <time>2022-07-19T04:50:08Z</time>
      </trkpt>
      <trkpt lat="44.26817" lon="7.12828">
        <ele>1420</ele>
        <time>2022-07-19T04:50:09Z</time>
      </trkpt>
      <trkpt lat="44.26819" lon="7.12827">
        <ele>1420</ele>
        <time>2022-07-19T04:50:10Z</time>
      </trkpt>
      <trkpt lat="44.2682" lon="7.12825">
        <ele>1420.2</ele>
        <time>2022-07-19T04:50:11Z</time>
      </trkpt>
      <trkpt lat="44.26822" lon="7.12825">
        <ele>1420.4</ele>
        <time>2022-07-19T04:50:12Z</time>
      </trkpt>
      <trkpt lat="44.26823" lon="7.12824">
        <ele>1420.8</ele>
        <time>2022-07-19T04:50:13Z</time>
      </trkpt>
      <trkpt lat="44.26824" lon="7.12823">
        <ele>1420.8</ele>
        <time>2022-07-19T04:50:14Z</time>
      </trkpt>
      <trkpt lat="44.26825" lon="7.12822">
        <ele>1421</ele>
        <time>2022-07-19T04:50:15Z</time>
      </trkpt>
      <trkpt lat="44.26826" lon="7.1282">
        <ele>1421.2</ele>
        <time>2022-07-19T04:50:16Z</time>
      </trkpt>
      <trkpt lat="44.26827" lon="7.12819">
        <ele>1421.2</ele>
        <time>2022-07-19T04:50:17Z</time>
      </trkpt>
      <trkpt lat="44.26829" lon="7.12817">
        <ele>1421.4</ele>
        <time>2022-07-19T04:50:18Z</time>
      </trkpt>
      <trkpt lat="44.2683" lon="7.12815">
        <ele>1421.4</ele>
        <time>2022-07-19T04:50:19Z</time>
      </trkpt>
      <trkpt lat="44.26832" lon="7.12814">
        <ele>1421.8</ele>
        <time>2022-07-19T04:50:20Z</time>
      </trkpt>
      <trkpt lat="44.26832" lon="7.12814">
        <ele>1421.8</ele>
        <time>2022-07-19T04:50:21Z</time>
      </trkpt>
      <trkpt lat="44.26833" lon="7.12812">
        <ele>1422.2</ele>
        <time>2022-07-19T04:50:22Z</time>
      </trkpt>
      <trkpt lat="44.26835" lon="7.12812">
        <ele>1422.2</ele>
        <time>2022-07-19T04:50:23Z</time>
      </trkpt>
      <trkpt lat="44.26836" lon="7.12811">
        <ele>1422.4</ele>
        <time>2022-07-19T04:50:24Z</time>
      </trkpt>
      <trkpt lat="44.26837" lon="7.1281">
        <ele>1422.4</ele>
        <time>2022-07-19T04:50:25Z</time>
      </trkpt>
      <trkpt lat="44.26839" lon="7.12808">
        <ele>1422.8</ele>
        <time>2022-07-19T04:50:26Z</time>
      </trkpt>
      <trkpt lat="44.2684" lon="7.12807">
        <ele>1422.8</ele>
        <time>2022-07-19T04:50:27Z</time>
      </trkpt>
      <trkpt lat="44.26842" lon="7.12806">
        <ele>1423</ele>
        <time>2022-07-19T04:50:28Z</time>
      </trkpt>
      <trkpt lat="44.26843" lon="7.12806">
        <ele>1423</ele>
        <time>2022-07-19T04:50:29Z</time>
      </trkpt>
      <trkpt lat="44.26844" lon="7.12805">
        <ele>1423.4</ele>
        <time>2022-07-19T04:50:30Z</time>
      </trkpt>
      <trkpt lat="44.26846" lon="7.12804">
        <ele>1423.6</ele>
        <time>2022-07-19T04:50:31Z</time>
      </trkpt>
      <trkpt lat="44.26847" lon="7.12804">
        <ele>1423.6</ele>
        <time>2022-07-19T04:50:32Z</time>
      </trkpt>
      <trkpt lat="44.26848" lon="7.12803">
        <ele>1424</ele>
        <time>2022-07-19T04:50:33Z</time>
      </trkpt>
      <trkpt lat="44.2685" lon="7.12802">
        <ele>1424</ele>
        <time>2022-07-19T04:50:34Z</time>
      </trkpt>
      <trkpt lat="44.26851" lon="7.12801">
        <ele>1424.2</ele>
        <time>2022-07-19T04:50:35Z</time>
      </trkpt>
      <trkpt lat="44.26852" lon="7.12801">
        <ele>1424.2</ele>
        <time>2022-07-19T04:50:36Z</time>
      </trkpt>
      <trkpt lat="44.26854" lon="7.128">
        <ele>1424.4</ele>
        <time>2022-07-19T04:50:37Z</time>
      </trkpt>
      <trkpt lat="44.26856" lon="7.12799">
        <ele>1424.4</ele>
        <time>2022-07-19T04:50:38Z</time>
      </trkpt>
      <trkpt lat="44.26857" lon="7.12799">
        <ele>1424.8</ele>
        <time>2022-07-19T04:50:39Z</time>
      </trkpt>
      <trkpt lat="44.26859" lon="7.12799">
        <ele>1424.8</ele>
        <time>2022-07-19T04:50:40Z</time>
      </trkpt>
      <trkpt lat="44.2686" lon="7.12799">
        <ele>1424.8</ele>
        <time>2022-07-19T04:50:41Z</time>
      </trkpt>
      <trkpt lat="44.26862" lon="7.12799">
        <ele>1425</ele>
        <time>2022-07-19T04:50:42Z</time>
      </trkpt>
      <trkpt lat="44.26864" lon="7.12799">
        <ele>1425</ele>
        <time>2022-07-19T04:50:43Z</time>
      </trkpt>
      <trkpt lat="44.26865" lon="7.12799">
        <ele>1425</ele>
        <time>2022-07-19T04:50:44Z</time>
      </trkpt>
      <trkpt lat="44.26867" lon="7.128">
        <ele>1425.4</ele>
        <time>2022-07-19T04:50:45Z</time>
      </trkpt>
      <trkpt lat="44.26869" lon="7.128">
        <ele>1425.4</ele>
        <time>2022-07-19T04:50:46Z</time>
      </trkpt>
      <trkpt lat="44.2687" lon="7.128">
        <ele>1425.4</ele>
        <time>2022-07-19T04:50:47Z</time>
      </trkpt>
      <trkpt lat="44.26872" lon="7.12801">
        <ele>1425.6</ele>
        <time>2022-07-19T04:50:48Z</time>
      </trkpt>
      <trkpt lat="44.26874" lon="7.12801">
        <ele>1425.6</ele>
        <time>2022-07-19T04:50:49Z</time>
      </trkpt>
      <trkpt lat="44.26876" lon="7.12802">
        <ele>1425.8</ele>
        <time>2022-07-19T04:50:50Z</time>
      </trkpt>
      <trkpt lat="44.26878" lon="7.12804">
        <ele>1425.8</ele>
        <time>2022-07-19T04:50:51Z</time>
      </trkpt>
      <trkpt lat="44.2688" lon="7.12805">
        <ele>1425.8</ele>
        <time>2022-07-19T04:50:52Z</time>
      </trkpt>
      <trkpt lat="44.26882" lon="7.12807">
        <ele>1425.8</ele>
        <time>2022-07-19T04:50:53Z</time>
      </trkpt>
      <trkpt lat="44.26884" lon="7.12809">
        <ele>1426</ele>
        <time>2022-07-19T04:50:54Z</time>
      </trkpt>
      <trkpt lat="44.26886" lon="7.12811">
        <ele>1426</ele>
        <time>2022-07-19T04:50:55Z</time>
      </trkpt>
      <trkpt lat="44.26888" lon="7.12814">
        <ele>1426</ele>
        <time>2022-07-19T04:50:56Z</time>
      </trkpt>
      <trkpt lat="44.2689" lon="7.12815">
        <ele>1426.2</ele>
        <time>2022-07-19T04:50:57Z</time>
      </trkpt>
      <trkpt lat="44.26892" lon="7.12817">
        <ele>1426.2</ele>
        <time>2022-07-19T04:50:58Z</time>
      </trkpt>
      <trkpt lat="44.26894" lon="7.12817">
        <ele>1426.2</ele>
        <time>2022-07-19T04:50:59Z</time>
      </trkpt>
      <trkpt lat="44.26896" lon="7.12816">
        <ele>1426.2</ele>
        <time>2022-07-19T04:51:00Z</time>
      </trkpt>
      <trkpt lat="44.26898" lon="7.12815">
        <ele>1426.4</ele>
        <time>2022-07-19T04:51:01Z</time>
      </trkpt>
      <trkpt lat="44.269" lon="7.12812">
        <ele>1426.4</ele>
        <time>2022-07-19T04:51:02Z</time>
      </trkpt>
      <trkpt lat="44.26902" lon="7.1281">
        <ele>1426.4</ele>
        <time>2022-07-19T04:51:03Z</time>
      </trkpt>
      <trkpt lat="44.26902" lon="7.12807">
        <ele>1426.8</ele>
        <time>2022-07-19T04:51:04Z</time>
      </trkpt>
      <trkpt lat="44.26902" lon="7.12804">
        <ele>1426.8</ele>
        <time>2022-07-19T04:51:05Z</time>
      </trkpt>
      <trkpt lat="44.26902" lon="7.12801">
        <ele>1426.8</ele>
        <time>2022-07-19T04:51:06Z</time>
      </trkpt>
      <trkpt lat="44.26901" lon="7.12799">
        <ele>1427</ele>
        <time>2022-07-19T04:51:07Z</time>
      </trkpt>
      <trkpt lat="44.269" lon="7.12796">
        <ele>1427</ele>
        <time>2022-07-19T04:51:08Z</time>
      </trkpt>
      <trkpt lat="44.26898" lon="7.12795">
        <ele>1427.2</ele>
        <time>2022-07-19T04:51:09Z</time>
      </trkpt>
      <trkpt lat="44.26896" lon="7.12794">
        <ele>1427.2</ele>
        <time>2022-07-19T04:51:10Z</time>
      </trkpt>
      <trkpt lat="44.26894" lon="7.12793">
        <ele>1427.4</ele>
        <time>2022-07-19T04:51:11Z</time>
      </trkpt>
      <trkpt lat="44.26892" lon="7.12793">
        <ele>1427.4</ele>
        <time>2022-07-19T04:51:12Z</time>
      </trkpt>
      <trkpt lat="44.2689" lon="7.12793">
        <ele>1427.8</ele>
        <time>2022-07-19T04:51:13Z</time>
      </trkpt>
      <trkpt lat="44.26887" lon="7.12793">
        <ele>1428</ele>
        <time>2022-07-19T04:51:14Z</time>
      </trkpt>
      <trkpt lat="44.26885" lon="7.12792">
        <ele>1428</ele>
        <time>2022-07-19T04:51:15Z</time>
      </trkpt>
      <trkpt lat="44.26884" lon="7.12792">
        <ele>1428.6</ele>
        <time>2022-07-19T04:51:16Z</time>
      </trkpt>
      <trkpt lat="44.26882" lon="7.12792">
        <ele>1428.6</ele>
        <time>2022-07-19T04:51:17Z</time>
      </trkpt>
      <trkpt lat="44.2688" lon="7.12791">
        <ele>1428.8</ele>
        <time>2022-07-19T04:51:18Z</time>
      </trkpt>
      <trkpt lat="44.26879" lon="7.1279">
        <ele>1428.8</ele>
        <time>2022-07-19T04:51:19Z</time>
      </trkpt>
      <trkpt lat="44.26877" lon="7.1279">
        <ele>1429.2</ele>
        <time>2022-07-19T04:51:20Z</time>
      </trkpt>
      <trkpt lat="44.26876" lon="7.12789">
        <ele>1429.4</ele>
        <time>2022-07-19T04:51:21Z</time>
      </trkpt>
      <trkpt lat="44.26874" lon="7.12788">
        <ele>1429.4</ele>
        <time>2022-07-19T04:51:22Z</time>
      </trkpt>
      <trkpt lat="44.26872" lon="7.12787">
        <ele>1429.8</ele>
        <time>2022-07-19T04:51:23Z</time>
      </trkpt>
      <trkpt lat="44.26871" lon="7.12786">
        <ele>1429.8</ele>
        <time>2022-07-19T04:51:24Z</time>
      </trkpt>
      <trkpt lat="44.26869" lon="7.12785">
        <ele>1430</ele>
        <time>2022-07-19T04:51:25Z</time>
      </trkpt>
      <trkpt lat="44.26868" lon="7.12784">
        <ele>1430</ele>
        <time>2022-07-19T04:51:26Z</time>
      </trkpt>
      <trkpt lat="44.26866" lon="7.12784">
        <ele>1430.2</ele>
        <time>2022-07-19T04:51:27Z</time>
      </trkpt>
      <trkpt lat="44.26865" lon="7.12783">
        <ele>1430.2</ele>
        <time>2022-07-19T04:51:28Z</time>
      </trkpt>
      <trkpt lat="44.26863" lon="7.12782">
        <ele>1430.6</ele>
        <time>2022-07-19T04:51:29Z</time>
      </trkpt>
      <trkpt lat="44.26861" lon="7.12782">
        <ele>1430.6</ele>
        <time>2022-07-19T04:51:30Z</time>
      </trkpt>
      <trkpt lat="44.2686" lon="7.12782">
        <ele>1431</ele>
        <time>2022-07-19T04:51:31Z</time>
      </trkpt>
      <trkpt lat="44.26858" lon="7.12783">
        <ele>1431</ele>
        <time>2022-07-19T04:51:32Z</time>
      </trkpt>
      <trkpt lat="44.26857" lon="7.12783">
        <ele>1431.4</ele>
        <time>2022-07-19T04:51:33Z</time>
      </trkpt>
      <trkpt lat="44.26855" lon="7.12782">
        <ele>1431.8</ele>
        <time>2022-07-19T04:51:34Z</time>
      </trkpt>
      <trkpt lat="44.26853" lon="7.12782">
        <ele>1432</ele>
        <time>2022-07-19T04:51:35Z</time>
      </trkpt>
      <trkpt lat="44.26852" lon="7.12782">
        <ele>1432</ele>
        <time>2022-07-19T04:51:36Z</time>
      </trkpt>
      <trkpt lat="44.26851" lon="7.12782">
        <ele>1432.2</ele>
        <time>2022-07-19T04:51:37Z</time>
      </trkpt>
      <trkpt lat="44.26848" lon="7.12783">
        <ele>1432.2</ele>
        <time>2022-07-19T04:51:38Z</time>
      </trkpt>
      <trkpt lat="44.26846" lon="7.12784">
        <ele>1432.6</ele>
        <time>2022-07-19T04:51:39Z</time>
      </trkpt>
      <trkpt lat="44.26845" lon="7.12785">
        <ele>1432.6</ele>
        <time>2022-07-19T04:51:40Z</time>
      </trkpt>
      <trkpt lat="44.26843" lon="7.12786">
        <ele>1432.8</ele>
        <time>2022-07-19T04:51:41Z</time>
      </trkpt>
      <trkpt lat="44.26841" lon="7.12787">
        <ele>1432.8</ele>
        <time>2022-07-19T04:51:42Z</time>
      </trkpt>
      <trkpt lat="44.2684" lon="7.12788">
        <ele>1433.2</ele>
        <time>2022-07-19T04:51:43Z</time>
      </trkpt>
      <trkpt lat="44.26838" lon="7.1279">
        <ele>1433.2</ele>
        <time>2022-07-19T04:51:44Z</time>
      </trkpt>
      <trkpt lat="44.26836" lon="7.12791">
        <ele>1433.2</ele>
        <time>2022-07-19T04:51:45Z</time>
      </trkpt>
      <trkpt lat="44.26834" lon="7.12792">
        <ele>1433.4</ele>
        <time>2022-07-19T04:51:46Z</time>
      </trkpt>
      <trkpt lat="44.26833" lon="7.12794">
        <ele>1433.4</ele>
        <time>2022-07-19T04:51:47Z</time>
      </trkpt>
      <trkpt lat="44.26831" lon="7.12795">
        <ele>1433.8</ele>
        <time>2022-07-19T04:51:48Z</time>
      </trkpt>
      <trkpt lat="44.26829" lon="7.12796">
        <ele>1434</ele>
        <time>2022-07-19T04:51:49Z</time>
      </trkpt>
      <trkpt lat="44.26828" lon="7.12796">
        <ele>1434</ele>
        <time>2022-07-19T04:51:50Z</time>
      </trkpt>
      <trkpt lat="44.26827" lon="7.12797">
        <ele>1434.2</ele>
        <time>2022-07-19T04:51:51Z</time>
      </trkpt>
      <trkpt lat="44.26825" lon="7.12797">
        <ele>1434.2</ele>
        <time>2022-07-19T04:51:52Z</time>
      </trkpt>
      <trkpt lat="44.26823" lon="7.12797">
        <ele>1434.6</ele>
        <time>2022-07-19T04:51:53Z</time>
      </trkpt>
      <trkpt lat="44.26822" lon="7.12798">
        <ele>1434.6</ele>
        <time>2022-07-19T04:51:54Z</time>
      </trkpt>
      <trkpt lat="44.26821" lon="7.12799">
        <ele>1434.8</ele>
        <time>2022-07-19T04:51:55Z</time>
      </trkpt>
      <trkpt lat="44.26819" lon="7.128">
        <ele>1434.8</ele>
        <time>2022-07-19T04:51:56Z</time>
      </trkpt>
      <trkpt lat="44.26818" lon="7.128">
        <ele>1435.2</ele>
        <time>2022-07-19T04:51:57Z</time>
      </trkpt>
      <trkpt lat="44.26816" lon="7.128">
        <ele>1435.2</ele>
        <time>2022-07-19T04:51:58Z</time>
      </trkpt>
      <trkpt lat="44.26815" lon="7.12801">
        <ele>1435.4</ele>
        <time>2022-07-19T04:51:59Z</time>
      </trkpt>
      <trkpt lat="44.26814" lon="7.128">
        <ele>1435.4</ele>
        <time>2022-07-19T04:52:00Z</time>
      </trkpt>
      <trkpt lat="44.26813" lon="7.128">
        <ele>1435.8</ele>
        <time>2022-07-19T04:52:01Z</time>
      </trkpt>
      <trkpt lat="44.26811" lon="7.12801">
        <ele>1435.8</ele>
        <time>2022-07-19T04:52:02Z</time>
      </trkpt>
      <trkpt lat="44.2681" lon="7.12801">
        <ele>1436.2</ele>
        <time>2022-07-19T04:52:03Z</time>
      </trkpt>
      <trkpt lat="44.26809" lon="7.128">
        <ele>1436.2</ele>
        <time>2022-07-19T04:52:04Z</time>
      </trkpt>
      <trkpt lat="44.26807" lon="7.128">
        <ele>1436.4</ele>
        <time>2022-07-19T04:52:05Z</time>
      </trkpt>
      <trkpt lat="44.26806" lon="7.128">
        <ele>1436.4</ele>
        <time>2022-07-19T04:52:06Z</time>
      </trkpt>
      <trkpt lat="44.26805" lon="7.12799">
        <ele>1436.8</ele>
        <time>2022-07-19T04:52:07Z</time>
      </trkpt>
      <trkpt lat="44.26804" lon="7.12798">
        <ele>1436.8</ele>
        <time>2022-07-19T04:52:08Z</time>
      </trkpt>
      <trkpt lat="44.26802" lon="7.12797">
        <ele>1437</ele>
        <time>2022-07-19T04:52:09Z</time>
      </trkpt>
      <trkpt lat="44.26801" lon="7.12796">
        <ele>1437</ele>
        <time>2022-07-19T04:52:10Z</time>
      </trkpt>
      <trkpt lat="44.26801" lon="7.12795">
        <ele>1437.6</ele>
        <time>2022-07-19T04:52:11Z</time>
      </trkpt>
      <trkpt lat="44.26799" lon="7.12794">
        <ele>1437.8</ele>
        <time>2022-07-19T04:52:12Z</time>
      </trkpt>
      <trkpt lat="44.26798" lon="7.12793">
        <ele>1438</ele>
        <time>2022-07-19T04:52:13Z</time>
      </trkpt>
      <trkpt lat="44.26797" lon="7.12793">
        <ele>1438.2</ele>
        <time>2022-07-19T04:52:14Z</time>
      </trkpt>
      <trkpt lat="44.26795" lon="7.12792">
        <ele>1438.2</ele>
        <time>2022-07-19T04:52:15Z</time>
      </trkpt>
      <trkpt lat="44.26794" lon="7.12792">
        <ele>1438.6</ele>
        <time>2022-07-19T04:52:16Z</time>
      </trkpt>
      <trkpt lat="44.26793" lon="7.12791">
        <ele>1438.6</ele>
        <time>2022-07-19T04:52:17Z</time>
      </trkpt>
      <trkpt lat="44.26792" lon="7.12791">
        <ele>1438.8</ele>
        <time>2022-07-19T04:52:18Z</time>
      </trkpt>
      <trkpt lat="44.26791" lon="7.1279">
        <ele>1439</ele>
        <time>2022-07-19T04:52:19Z</time>
      </trkpt>
      <trkpt lat="44.2679" lon="7.1279">
        <ele>1439</ele>
        <time>2022-07-19T04:52:20Z</time>
      </trkpt>
      <trkpt lat="44.26789" lon="7.1279">
        <ele>1439.4</ele>
        <time>2022-07-19T04:52:21Z</time>
      </trkpt>
      <trkpt lat="44.26787" lon="7.12789">
        <ele>1439.4</ele>
        <time>2022-07-19T04:52:22Z</time>
      </trkpt>
      <trkpt lat="44.26785" lon="7.1279">
        <ele>1439.6</ele>
        <time>2022-07-19T04:52:23Z</time>
      </trkpt>
      <trkpt lat="44.26784" lon="7.1279">
        <ele>1439.6</ele>
        <time>2022-07-19T04:52:24Z</time>
      </trkpt>
      <trkpt lat="44.26782" lon="7.1279">
        <ele>1439.8</ele>
        <time>2022-07-19T04:52:25Z</time>
      </trkpt>
      <trkpt lat="44.2678" lon="7.1279">
        <ele>1439.8</ele>
        <time>2022-07-19T04:52:26Z</time>
      </trkpt>
      <trkpt lat="44.26778" lon="7.12791">
        <ele>1440.2</ele>
        <time>2022-07-19T04:52:27Z</time>
      </trkpt>
      <trkpt lat="44.26777" lon="7.12792">
        <ele>1440.2</ele>
        <time>2022-07-19T04:52:28Z</time>
      </trkpt>
      <trkpt lat="44.26776" lon="7.12794">
        <ele>1440.4</ele>
        <time>2022-07-19T04:52:29Z</time>
      </trkpt>
      <trkpt lat="44.26774" lon="7.12795">
        <ele>1440.4</ele>
        <time>2022-07-19T04:52:30Z</time>
      </trkpt>
      <trkpt lat="44.26773" lon="7.12795">
        <ele>1440.8</ele>
        <time>2022-07-19T04:52:31Z</time>
      </trkpt>
      <trkpt lat="44.26771" lon="7.12795">
        <ele>1440.8</ele>
        <time>2022-07-19T04:52:32Z</time>
      </trkpt>
      <trkpt lat="44.2677" lon="7.12795">
        <ele>1441</ele>
        <time>2022-07-19T04:52:33Z</time>
      </trkpt>
      <trkpt lat="44.26768" lon="7.12796">
        <ele>1441</ele>
        <time>2022-07-19T04:52:34Z</time>
      </trkpt>
      <trkpt lat="44.26767" lon="7.12796">
        <ele>1441.4</ele>
        <time>2022-07-19T04:52:35Z</time>
      </trkpt>
      <trkpt lat="44.26766" lon="7.12797">
        <ele>1441.4</ele>
        <time>2022-07-19T04:52:36Z</time>
      </trkpt>
      <trkpt lat="44.26765" lon="7.12798">
        <ele>1441.6</ele>
        <time>2022-07-19T04:52:37Z</time>
      </trkpt>
      <trkpt lat="44.26764" lon="7.12798">
        <ele>1441.6</ele>
        <time>2022-07-19T04:52:38Z</time>
      </trkpt>
      <trkpt lat="44.26762" lon="7.12798">
        <ele>1442</ele>
        <time>2022-07-19T04:52:39Z</time>
      </trkpt>
      <trkpt lat="44.26761" lon="7.12798">
        <ele>1442</ele>
        <time>2022-07-19T04:52:40Z</time>
      </trkpt>
      <trkpt lat="44.2676" lon="7.12798">
        <ele>1442.2</ele>
        <time>2022-07-19T04:52:41Z</time>
      </trkpt>
      <trkpt lat="44.26759" lon="7.12798">
        <ele>1442.2</ele>
        <time>2022-07-19T04:52:42Z</time>
      </trkpt>
      <trkpt lat="44.26758" lon="7.12798">
        <ele>1442.6</ele>
        <time>2022-07-19T04:52:43Z</time>
      </trkpt>
      <trkpt lat="44.26757" lon="7.12798">
        <ele>1442.6</ele>
        <time>2022-07-19T04:52:44Z</time>
      </trkpt>
      <trkpt lat="44.26756" lon="7.12798">
        <ele>1442.8</ele>
        <time>2022-07-19T04:52:45Z</time>
      </trkpt>
      <trkpt lat="44.26754" lon="7.12798">
        <ele>1442.8</ele>
        <time>2022-07-19T04:52:46Z</time>
      </trkpt>
      <trkpt lat="44.26753" lon="7.12798">
        <ele>1443.2</ele>
        <time>2022-07-19T04:52:47Z</time>
      </trkpt>
      <trkpt lat="44.26752" lon="7.12798">
        <ele>1443.2</ele>
        <time>2022-07-19T04:52:48Z</time>
      </trkpt>
      <trkpt lat="44.26751" lon="7.12797">
        <ele>1443.4</ele>
        <time>2022-07-19T04:52:49Z</time>
      </trkpt>
      <trkpt lat="44.2675" lon="7.12797">
        <ele>1443.4</ele>
        <time>2022-07-19T04:52:50Z</time>
      </trkpt>
      <trkpt lat="44.26749" lon="7.12797">
        <ele>1443.6</ele>
        <time>2022-07-19T04:52:51Z</time>
      </trkpt>
      <trkpt lat="44.26748" lon="7.12797">
        <ele>1443.6</ele>
        <time>2022-07-19T04:52:52Z</time>
      </trkpt>
      <trkpt lat="44.26746" lon="7.12797">
        <ele>1443.8</ele>
        <time>2022-07-19T04:52:53Z</time>
      </trkpt>
      <trkpt lat="44.26745" lon="7.12797">
        <ele>1443.8</ele>
        <time>2022-07-19T04:52:54Z</time>
      </trkpt>
      <trkpt lat="44.26744" lon="7.12797">
        <ele>1443.8</ele>
        <time>2022-07-19T04:52:55Z</time>
      </trkpt>
      <trkpt lat="44.26742" lon="7.12798">
        <ele>1444.2</ele>
        <time>2022-07-19T04:52:56Z</time>
      </trkpt>
      <trkpt lat="44.26741" lon="7.12798">
        <ele>1444.2</ele>
        <time>2022-07-19T04:52:57Z</time>
      </trkpt>
      <trkpt lat="44.26739" lon="7.12798">
        <ele>1444.6</ele>
        <time>2022-07-19T04:52:58Z</time>
      </trkpt>
      <trkpt lat="44.26738" lon="7.12799">
        <ele>1444.6</ele>
        <time>2022-07-19T04:52:59Z</time>
      </trkpt>
      <trkpt lat="44.26737" lon="7.12799">
        <ele>1444.8</ele>
        <time>2022-07-19T04:53:00Z</time>
      </trkpt>
      <trkpt lat="44.26735" lon="7.12799">
        <ele>1444.8</ele>
        <time>2022-07-19T04:53:01Z</time>
      </trkpt>
      <trkpt lat="44.26734" lon="7.12799">
        <ele>1445</ele>
        <time>2022-07-19T04:53:02Z</time>
      </trkpt>
      <trkpt lat="44.26733" lon="7.12799">
        <ele>1445</ele>
        <time>2022-07-19T04:53:03Z</time>
      </trkpt>
      <trkpt lat="44.26731" lon="7.12798">
        <ele>1445.4</ele>
        <time>2022-07-19T04:53:04Z</time>
      </trkpt>
      <trkpt lat="44.2673" lon="7.12798">
        <ele>1445.4</ele>
        <time>2022-07-19T04:53:05Z</time>
      </trkpt>
      <trkpt lat="44.26729" lon="7.12797">
        <ele>1445.6</ele>
        <time>2022-07-19T04:53:06Z</time>
      </trkpt>
      <trkpt lat="44.26728" lon="7.12797">
        <ele>1445.8</ele>
        <time>2022-07-19T04:53:07Z</time>
      </trkpt>
      <trkpt lat="44.26726" lon="7.12797">
        <ele>1445.8</ele>
        <time>2022-07-19T04:53:08Z</time>
      </trkpt>
      <trkpt lat="44.26725" lon="7.12797">
        <ele>1445.8</ele>
        <time>2022-07-19T04:53:09Z</time>
      </trkpt>
      <trkpt lat="44.26724" lon="7.12796">
        <ele>1445.8</ele>
        <time>2022-07-19T04:53:10Z</time>
      </trkpt>
      <trkpt lat="44.26722" lon="7.12796">
        <ele>1446</ele>
        <time>2022-07-19T04:53:11Z</time>
      </trkpt>
      <trkpt lat="44.26721" lon="7.12796">
        <ele>1446</ele>
        <time>2022-07-19T04:53:12Z</time>
      </trkpt>
      <trkpt lat="44.2672" lon="7.12797">
        <ele>1446.4</ele>
        <time>2022-07-19T04:53:13Z</time>
      </trkpt>
      <trkpt lat="44.26718" lon="7.12797">
        <ele>1446.4</ele>
        <time>2022-07-19T04:53:14Z</time>
      </trkpt>
      <trkpt lat="44.26717" lon="7.12798">
        <ele>1446.8</ele>
        <time>2022-07-19T04:53:15Z</time>
      </trkpt>
      <trkpt lat="44.26716" lon="7.12798">
        <ele>1446.8</ele>
        <time>2022-07-19T04:53:16Z</time>
      </trkpt>
      <trkpt lat="44.26714" lon="7.12798">
        <ele>1447</ele>
        <time>2022-07-19T04:53:17Z</time>
      </trkpt>
      <trkpt lat="44.26713" lon="7.12799">
        <ele>1447</ele>
        <time>2022-07-19T04:53:18Z</time>
      </trkpt>
      <trkpt lat="44.26711" lon="7.12799">
        <ele>1447.2</ele>
        <time>2022-07-19T04:53:19Z</time>
      </trkpt>
      <trkpt lat="44.2671" lon="7.12799">
        <ele>1447.4</ele>
        <time>2022-07-19T04:53:20Z</time>
      </trkpt>
      <trkpt lat="44.26709" lon="7.12799">
        <ele>1447.4</ele>
        <time>2022-07-19T04:53:21Z</time>
      </trkpt>
      <trkpt lat="44.26707" lon="7.12798">
        <ele>1447.8</ele>
        <time>2022-07-19T04:53:22Z</time>
      </trkpt>
      <trkpt lat="44.26706" lon="7.12798">
        <ele>1447.8</ele>
        <time>2022-07-19T04:53:23Z</time>
      </trkpt>
      <trkpt lat="44.26703" lon="7.12798">
        <ele>1448</ele>
        <time>2022-07-19T04:53:24Z</time>
      </trkpt>
      <trkpt lat="44.26702" lon="7.12798">
        <ele>1448</ele>
        <time>2022-07-19T04:53:25Z</time>
      </trkpt>
      <trkpt lat="44.267" lon="7.12798">
        <ele>1448.4</ele>
        <time>2022-07-19T04:53:26Z</time>
      </trkpt>
      <trkpt lat="44.26699" lon="7.12798">
        <ele>1448.4</ele>
        <time>2022-07-19T04:53:27Z</time>
      </trkpt>
      <trkpt lat="44.26697" lon="7.12798">
        <ele>1448.8</ele>
        <time>2022-07-19T04:53:28Z</time>
      </trkpt>
      <trkpt lat="44.26696" lon="7.12798">
        <ele>1448.8</ele>
        <time>2022-07-19T04:53:29Z</time>
      </trkpt>
      <trkpt lat="44.26694" lon="7.12798">
        <ele>1449</ele>
        <time>2022-07-19T04:53:30Z</time>
      </trkpt>
      <trkpt lat="44.26693" lon="7.12798">
        <ele>1449</ele>
        <time>2022-07-19T04:53:31Z</time>
      </trkpt>
      <trkpt lat="44.26691" lon="7.12798">
        <ele>1449.2</ele>
        <time>2022-07-19T04:53:32Z</time>
      </trkpt>
      <trkpt lat="44.2669" lon="7.12798">
        <ele>1449.2</ele>
        <time>2022-07-19T04:53:33Z</time>
      </trkpt>
      <trkpt lat="44.26688" lon="7.12798">
        <ele>1449.6</ele>
        <time>2022-07-19T04:53:34Z</time>
      </trkpt>
      <trkpt lat="44.26687" lon="7.12798">
        <ele>1449.8</ele>
        <time>2022-07-19T04:53:35Z</time>
      </trkpt>
      <trkpt lat="44.26685" lon="7.12798">
        <ele>1449.8</ele>
        <time>2022-07-19T04:53:36Z</time>
      </trkpt>
      <trkpt lat="44.26684" lon="7.12798">
        <ele>1450.2</ele>
        <time>2022-07-19T04:53:37Z</time>
      </trkpt>
      <trkpt lat="44.26682" lon="7.12798">
        <ele>1450.2</ele>
        <time>2022-07-19T04:53:38Z</time>
      </trkpt>
      <trkpt lat="44.26681" lon="7.12798">
        <ele>1450.4</ele>
        <time>2022-07-19T04:53:39Z</time>
      </trkpt>
      <trkpt lat="44.2668" lon="7.12798">
        <ele>1450.4</ele>
        <time>2022-07-19T04:53:40Z</time>
      </trkpt>
      <trkpt lat="44.26678" lon="7.12798">
        <ele>1450.4</ele>
        <time>2022-07-19T04:53:41Z</time>
      </trkpt>
      <trkpt lat="44.26677" lon="7.12798">
        <ele>1450.8</ele>
        <time>2022-07-19T04:53:42Z</time>
      </trkpt>
      <trkpt lat="44.26675" lon="7.12798">
        <ele>1450.8</ele>
        <time>2022-07-19T04:53:43Z</time>
      </trkpt>
      <trkpt lat="44.26674" lon="7.12798">
        <ele>1451</ele>
        <time>2022-07-19T04:53:44Z</time>
      </trkpt>
      <trkpt lat="44.26672" lon="7.12798">
        <ele>1451</ele>
        <time>2022-07-19T04:53:45Z</time>
      </trkpt>
      <trkpt lat="44.26671" lon="7.12798">
        <ele>1451.4</ele>
        <time>2022-07-19T04:53:46Z</time>
      </trkpt>
      <trkpt lat="44.26669" lon="7.12798">
        <ele>1451.4</ele>
        <time>2022-07-19T04:53:47Z</time>
      </trkpt>
      <trkpt lat="44.26668" lon="7.12798">
        <ele>1451.4</ele>
        <time>2022-07-19T04:53:48Z</time>
      </trkpt>
      <trkpt lat="44.26666" lon="7.12798">
        <ele>1451.6</ele>
        <time>2022-07-19T04:53:49Z</time>
      </trkpt>
      <trkpt lat="44.26665" lon="7.12798">
        <ele>1451.6</ele>
        <time>2022-07-19T04:53:50Z</time>
      </trkpt>
      <trkpt lat="44.26663" lon="7.12798">
        <ele>1452</ele>
        <time>2022-07-19T04:53:51Z</time>
      </trkpt>
      <trkpt lat="44.26662" lon="7.12798">
        <ele>1452</ele>
        <time>2022-07-19T04:53:52Z</time>
      </trkpt>
      <trkpt lat="44.2666" lon="7.12797">
        <ele>1452.2</ele>
        <time>2022-07-19T04:53:53Z</time>
      </trkpt>
      <trkpt lat="44.26658" lon="7.12796">
        <ele>1452.2</ele>
        <time>2022-07-19T04:53:54Z</time>
      </trkpt>
      <trkpt lat="44.26656" lon="7.12795">
        <ele>1452.4</ele>
        <time>2022-07-19T04:53:55Z</time>
      </trkpt>
      <trkpt lat="44.26655" lon="7.12795">
        <ele>1452.4</ele>
        <time>2022-07-19T04:53:56Z</time>
      </trkpt>
      <trkpt lat="44.26653" lon="7.12794">
        <ele>1452.8</ele>
        <time>2022-07-19T04:53:57Z</time>
      </trkpt>
      <trkpt lat="44.26651" lon="7.12793">
        <ele>1452.8</ele>
        <time>2022-07-19T04:53:58Z</time>
      </trkpt>
      <trkpt lat="44.26649" lon="7.12792">
        <ele>1453</ele>
        <time>2022-07-19T04:53:59Z</time>
      </trkpt>
      <trkpt lat="44.26647" lon="7.12791">
        <ele>1453</ele>
        <time>2022-07-19T04:54:00Z</time>
      </trkpt>
      <trkpt lat="44.26646" lon="7.12791">
        <ele>1453.4</ele>
        <time>2022-07-19T04:54:01Z</time>
      </trkpt>
      <trkpt lat="44.26644" lon="7.1279">
        <ele>1453.6</ele>
        <time>2022-07-19T04:54:02Z</time>
      </trkpt>
      <trkpt lat="44.26643" lon="7.12788">
        <ele>1453.6</ele>
        <time>2022-07-19T04:54:03Z</time>
      </trkpt>
      <trkpt lat="44.26641" lon="7.12787">
        <ele>1453.8</ele>
        <time>2022-07-19T04:54:04Z</time>
      </trkpt>
      <trkpt lat="44.2664" lon="7.12786">
        <ele>1453.8</ele>
        <time>2022-07-19T04:54:05Z</time>
      </trkpt>
      <trkpt lat="44.26639" lon="7.12785">
        <ele>1454</ele>
        <time>2022-07-19T04:54:06Z</time>
      </trkpt>
      <trkpt lat="44.26638" lon="7.12784">
        <ele>1454</ele>
        <time>2022-07-19T04:54:07Z</time>
      </trkpt>
      <trkpt lat="44.26637" lon="7.12782">
        <ele>1454.4</ele>
        <time>2022-07-19T04:54:08Z</time>
      </trkpt>
      <trkpt lat="44.26635" lon="7.12781">
        <ele>1454.6</ele>
        <time>2022-07-19T04:54:09Z</time>
      </trkpt>
      <trkpt lat="44.26634" lon="7.1278">
        <ele>1454.6</ele>
        <time>2022-07-19T04:54:10Z</time>
      </trkpt>
      <trkpt lat="44.26633" lon="7.12779">
        <ele>1454.8</ele>
        <time>2022-07-19T04:54:11Z</time>
      </trkpt>
      <trkpt lat="44.26632" lon="7.12777">
        <ele>1454.8</ele>
        <time>2022-07-19T04:54:12Z</time>
      </trkpt>
      <trkpt lat="44.26631" lon="7.12776">
        <ele>1455</ele>
        <time>2022-07-19T04:54:13Z</time>
      </trkpt>
      <trkpt lat="44.26629" lon="7.12775">
        <ele>1455.4</ele>
        <time>2022-07-19T04:54:14Z</time>
      </trkpt>
      <trkpt lat="44.26628" lon="7.12774">
        <ele>1455.6</ele>
        <time>2022-07-19T04:54:15Z</time>
      </trkpt>
      <trkpt lat="44.26627" lon="7.12773">
        <ele>1455.6</ele>
        <time>2022-07-19T04:54:16Z</time>
      </trkpt>
      <trkpt lat="44.26625" lon="7.12772">
        <ele>1455.8</ele>
        <time>2022-07-19T04:54:17Z</time>
      </trkpt>
      <trkpt lat="44.26624" lon="7.1277">
        <ele>1455.8</ele>
        <time>2022-07-19T04:54:18Z</time>
      </trkpt>
      <trkpt lat="44.26623" lon="7.12769">
        <ele>1456</ele>
        <time>2022-07-19T04:54:19Z</time>
      </trkpt>
      <trkpt lat="44.26622" lon="7.12769">
        <ele>1456</ele>
        <time>2022-07-19T04:54:20Z</time>
      </trkpt>
      <trkpt lat="44.26621" lon="7.12769">
        <ele>1456.4</ele>
        <time>2022-07-19T04:54:21Z</time>
      </trkpt>
      <trkpt lat="44.26619" lon="7.12768">
        <ele>1456.4</ele>
        <time>2022-07-19T04:54:22Z</time>
      </trkpt>
      <trkpt lat="44.26618" lon="7.12767">
        <ele>1456.6</ele>
        <time>2022-07-19T04:54:23Z</time>
      </trkpt>
      <trkpt lat="44.26617" lon="7.12765">
        <ele>1456.6</ele>
        <time>2022-07-19T04:54:24Z</time>
      </trkpt>
      <trkpt lat="44.26616" lon="7.12764">
        <ele>1456.8</ele>
        <time>2022-07-19T04:54:25Z</time>
      </trkpt>
      <trkpt lat="44.26615" lon="7.12763">
        <ele>1456.8</ele>
        <time>2022-07-19T04:54:26Z</time>
      </trkpt>
      <trkpt lat="44.26614" lon="7.12761">
        <ele>1457.2</ele>
        <time>2022-07-19T04:54:27Z</time>
      </trkpt>
      <trkpt lat="44.26612" lon="7.12761">
        <ele>1457.2</ele>
        <time>2022-07-19T04:54:28Z</time>
      </trkpt>
      <trkpt lat="44.26611" lon="7.1276">
        <ele>1457.4</ele>
        <time>2022-07-19T04:54:29Z</time>
      </trkpt>
      <trkpt lat="44.2661" lon="7.12759">
        <ele>1457.4</ele>
        <time>2022-07-19T04:54:30Z</time>
      </trkpt>
      <trkpt lat="44.26608" lon="7.12758">
        <ele>1457.8</ele>
        <time>2022-07-19T04:54:31Z</time>
      </trkpt>
      <trkpt lat="44.26607" lon="7.12758">
        <ele>1457.8</ele>
        <time>2022-07-19T04:54:32Z</time>
      </trkpt>
      <trkpt lat="44.26606" lon="7.12757">
        <ele>1458</ele>
        <time>2022-07-19T04:54:33Z</time>
      </trkpt>
      <trkpt lat="44.26604" lon="7.12756">
        <ele>1458</ele>
        <time>2022-07-19T04:54:34Z</time>
      </trkpt>
      <trkpt lat="44.26603" lon="7.12756">
        <ele>1458.2</ele>
        <time>2022-07-19T04:54:35Z</time>
      </trkpt>
      <trkpt lat="44.26601" lon="7.12755">
        <ele>1458.2</ele>
        <time>2022-07-19T04:54:36Z</time>
      </trkpt>
      <trkpt lat="44.266" lon="7.12754">
        <ele>1458.4</ele>
        <time>2022-07-19T04:54:37Z</time>
      </trkpt>
      <trkpt lat="44.26599" lon="7.12754">
        <ele>1458.4</ele>
        <time>2022-07-19T04:54:38Z</time>
      </trkpt>
      <trkpt lat="44.26597" lon="7.12753">
        <ele>1458.4</ele>
        <time>2022-07-19T04:54:39Z</time>
      </trkpt>
      <trkpt lat="44.26596" lon="7.12752">
        <ele>1458.8</ele>
        <time>2022-07-19T04:54:40Z</time>
      </trkpt>
      <trkpt lat="44.26595" lon="7.12751">
        <ele>1458.8</ele>
        <time>2022-07-19T04:54:41Z</time>
      </trkpt>
      <trkpt lat="44.26594" lon="7.1275">
        <ele>1459</ele>
        <time>2022-07-19T04:54:42Z</time>
      </trkpt>
      <trkpt lat="44.26593" lon="7.12749">
        <ele>1459</ele>
        <time>2022-07-19T04:54:43Z</time>
      </trkpt>
      <trkpt lat="44.26592" lon="7.12748">
        <ele>1459.2</ele>
        <time>2022-07-19T04:54:44Z</time>
      </trkpt>
      <trkpt lat="44.2659" lon="7.12747">
        <ele>1459.2</ele>
        <time>2022-07-19T04:54:45Z</time>
      </trkpt>
      <trkpt lat="44.26589" lon="7.12747">
        <ele>1459.6</ele>
        <time>2022-07-19T04:54:46Z</time>
      </trkpt>
      <trkpt lat="44.26587" lon="7.12746">
        <ele>1459.6</ele>
        <time>2022-07-19T04:54:47Z</time>
      </trkpt>
      <trkpt lat="44.26586" lon="7.12746">
        <ele>1459.6</ele>
        <time>2022-07-19T04:54:48Z</time>
      </trkpt>
      <trkpt lat="44.26584" lon="7.12746">
        <ele>1459.8</ele>
        <time>2022-07-19T04:54:49Z</time>
      </trkpt>
      <trkpt lat="44.26583" lon="7.12745">
        <ele>1459.8</ele>
        <time>2022-07-19T04:54:50Z</time>
      </trkpt>
      <trkpt lat="44.26582" lon="7.12744">
        <ele>1459.8</ele>
        <time>2022-07-19T04:54:51Z</time>
      </trkpt>
      <trkpt lat="44.26581" lon="7.12743">
        <ele>1460.2</ele>
        <time>2022-07-19T04:54:52Z</time>
      </trkpt>
      <trkpt lat="44.26579" lon="7.12743">
        <ele>1460.2</ele>
        <time>2022-07-19T04:54:53Z</time>
      </trkpt>
      <trkpt lat="44.26577" lon="7.12744">
        <ele>1460.4</ele>
        <time>2022-07-19T04:54:54Z</time>
      </trkpt>
      <trkpt lat="44.26576" lon="7.12744">
        <ele>1460.4</ele>
        <time>2022-07-19T04:54:55Z</time>
      </trkpt>
      <trkpt lat="44.26574" lon="7.12743">
        <ele>1460.8</ele>
        <time>2022-07-19T04:54:56Z</time>
      </trkpt>
      <trkpt lat="44.26573" lon="7.12743">
        <ele>1460.8</ele>
        <time>2022-07-19T04:54:57Z</time>
      </trkpt>
      <trkpt lat="44.26571" lon="7.12742">
        <ele>1461</ele>
        <time>2022-07-19T04:54:58Z</time>
      </trkpt>
      <trkpt lat="44.2657" lon="7.12741">
        <ele>1461</ele>
        <time>2022-07-19T04:54:59Z</time>
      </trkpt>
      <trkpt lat="44.26569" lon="7.12741">
        <ele>1461.2</ele>
        <time>2022-07-19T04:55:00Z</time>
      </trkpt>
      <trkpt lat="44.26567" lon="7.12741">
        <ele>1461.2</ele>
        <time>2022-07-19T04:55:01Z</time>
      </trkpt>
      <trkpt lat="44.26566" lon="7.1274">
        <ele>1461.2</ele>
        <time>2022-07-19T04:55:02Z</time>
      </trkpt>
      <trkpt lat="44.26564" lon="7.1274">
        <ele>1461.6</ele>
        <time>2022-07-19T04:55:03Z</time>
      </trkpt>
      <trkpt lat="44.26563" lon="7.12739">
        <ele>1461.6</ele>
        <time>2022-07-19T04:55:04Z</time>
      </trkpt>
      <trkpt lat="44.26561" lon="7.12739">
        <ele>1461.8</ele>
        <time>2022-07-19T04:55:05Z</time>
      </trkpt>
      <trkpt lat="44.26559" lon="7.12738">
        <ele>1461.8</ele>
        <time>2022-07-19T04:55:06Z</time>
      </trkpt>
      <trkpt lat="44.26558" lon="7.12738">
        <ele>1461.8</ele>
        <time>2022-07-19T04:55:07Z</time>
      </trkpt>
      <trkpt lat="44.26556" lon="7.12737">
        <ele>1462.2</ele>
        <time>2022-07-19T04:55:08Z</time>
      </trkpt>
      <trkpt lat="44.26555" lon="7.12736">
        <ele>1462.2</ele>
        <time>2022-07-19T04:55:09Z</time>
      </trkpt>
      <trkpt lat="44.26553" lon="7.12735">
        <ele>1462.2</ele>
        <time>2022-07-19T04:55:10Z</time>
      </trkpt>
      <trkpt lat="44.26552" lon="7.12734">
        <ele>1462.2</ele>
        <time>2022-07-19T04:55:11Z</time>
      </trkpt>
      <trkpt lat="44.2655" lon="7.12733">
        <ele>1462.4</ele>
        <time>2022-07-19T04:55:12Z</time>
      </trkpt>
      <trkpt lat="44.26548" lon="7.12732">
        <ele>1462.4</ele>
        <time>2022-07-19T04:55:13Z</time>
      </trkpt>
      <trkpt lat="44.26547" lon="7.12731">
        <ele>1462.6</ele>
        <time>2022-07-19T04:55:14Z</time>
      </trkpt>
      <trkpt lat="44.26545" lon="7.1273">
        <ele>1462.6</ele>
        <time>2022-07-19T04:55:15Z</time>
      </trkpt>
      <trkpt lat="44.26543" lon="7.12729">
        <ele>1462.8</ele>
        <time>2022-07-19T04:55:16Z</time>
      </trkpt>
      <trkpt lat="44.26541" lon="7.12729">
        <ele>1462.8</ele>
        <time>2022-07-19T04:55:17Z</time>
      </trkpt>
      <trkpt lat="44.26539" lon="7.12728">
        <ele>1463.2</ele>
        <time>2022-07-19T04:55:18Z</time>
      </trkpt>
      <trkpt lat="44.26537" lon="7.12727">
        <ele>1463.2</ele>
        <time>2022-07-19T04:55:19Z</time>
      </trkpt>
      <trkpt lat="44.26535" lon="7.12727">
        <ele>1463.6</ele>
        <time>2022-07-19T04:55:20Z</time>
      </trkpt>
      <trkpt lat="44.26534" lon="7.12726">
        <ele>1463.6</ele>
        <time>2022-07-19T04:55:21Z</time>
      </trkpt>
      <trkpt lat="44.26532" lon="7.12725">
        <ele>1464</ele>
        <time>2022-07-19T04:55:22Z</time>
      </trkpt>
      <trkpt lat="44.2653" lon="7.12724">
        <ele>1464</ele>
        <time>2022-07-19T04:55:23Z</time>
      </trkpt>
      <trkpt lat="44.26528" lon="7.12723">
        <ele>1464.2</ele>
        <time>2022-07-19T04:55:24Z</time>
      </trkpt>
      <trkpt lat="44.26526" lon="7.12721">
        <ele>1464.2</ele>
        <time>2022-07-19T04:55:25Z</time>
      </trkpt>
      <trkpt lat="44.26524" lon="7.1272">
        <ele>1464.4</ele>
        <time>2022-07-19T04:55:26Z</time>
      </trkpt>
      <trkpt lat="44.26522" lon="7.12719">
        <ele>1464.4</ele>
        <time>2022-07-19T04:55:27Z</time>
      </trkpt>
      <trkpt lat="44.2652" lon="7.12718">
        <ele>1464.4</ele>
        <time>2022-07-19T04:55:28Z</time>
      </trkpt>
      <trkpt lat="44.26519" lon="7.12717">
        <ele>1464.6</ele>
        <time>2022-07-19T04:55:29Z</time>
      </trkpt>
      <trkpt lat="44.26517" lon="7.12716">
        <ele>1465</ele>
        <time>2022-07-19T04:55:30Z</time>
      </trkpt>
      <trkpt lat="44.26515" lon="7.12716">
        <ele>1465</ele>
        <time>2022-07-19T04:55:31Z</time>
      </trkpt>
      <trkpt lat="44.26513" lon="7.12716">
        <ele>1465.2</ele>
        <time>2022-07-19T04:55:32Z</time>
      </trkpt>
      <trkpt lat="44.26512" lon="7.12715">
        <ele>1465.2</ele>
        <time>2022-07-19T04:55:33Z</time>
      </trkpt>
      <trkpt lat="44.2651" lon="7.12715">
        <ele>1465.6</ele>
        <time>2022-07-19T04:55:34Z</time>
      </trkpt>
      <trkpt lat="44.26508" lon="7.12713">
        <ele>1465.6</ele>
        <time>2022-07-19T04:55:35Z</time>
      </trkpt>
      <trkpt lat="44.26506" lon="7.12712">
        <ele>1465.6</ele>
        <time>2022-07-19T04:55:36Z</time>
      </trkpt>
      <trkpt lat="44.26505" lon="7.12711">
        <ele>1465.8</ele>
        <time>2022-07-19T04:55:37Z</time>
      </trkpt>
      <trkpt lat="44.26503" lon="7.1271">
        <ele>1465.8</ele>
        <time>2022-07-19T04:55:38Z</time>
      </trkpt>
      <trkpt lat="44.26502" lon="7.12708">
        <ele>1466.2</ele>
        <time>2022-07-19T04:55:39Z</time>
      </trkpt>
      <trkpt lat="44.265" lon="7.12707">
        <ele>1466.2</ele>
        <time>2022-07-19T04:55:40Z</time>
      </trkpt>
      <trkpt lat="44.26499" lon="7.12706">
        <ele>1466.4</ele>
        <time>2022-07-19T04:55:41Z</time>
      </trkpt>
      <trkpt lat="44.26497" lon="7.12704">
        <ele>1466.4</ele>
        <time>2022-07-19T04:55:42Z</time>
      </trkpt>
      <trkpt lat="44.26495" lon="7.12702">
        <ele>1466.8</ele>
        <time>2022-07-19T04:55:43Z</time>
      </trkpt>
      <trkpt lat="44.26494" lon="7.12701">
        <ele>1466.8</ele>
        <time>2022-07-19T04:55:44Z</time>
      </trkpt>
      <trkpt lat="44.26492" lon="7.127">
        <ele>1467</ele>
        <time>2022-07-19T04:55:45Z</time>
      </trkpt>
      <trkpt lat="44.2649" lon="7.12699">
        <ele>1467.2</ele>
        <time>2022-07-19T04:55:46Z</time>
      </trkpt>
      <trkpt lat="44.26489" lon="7.12697">
        <ele>1467.2</ele>
        <time>2022-07-19T04:55:47Z</time>
      </trkpt>
      <trkpt lat="44.26488" lon="7.12695">
        <ele>1467.2</ele>
        <time>2022-07-19T04:55:48Z</time>
      </trkpt>
      <trkpt lat="44.26487" lon="7.12694">
        <ele>1467.2</ele>
        <time>2022-07-19T04:55:49Z</time>
      </trkpt>
      <trkpt lat="44.26485" lon="7.12692">
        <ele>1467.6</ele>
        <time>2022-07-19T04:55:50Z</time>
      </trkpt>
      <trkpt lat="44.26483" lon="7.12691">
        <ele>1467.6</ele>
        <time>2022-07-19T04:55:51Z</time>
      </trkpt>
      <trkpt lat="44.26481" lon="7.1269">
        <ele>1467.8</ele>
        <time>2022-07-19T04:55:52Z</time>
      </trkpt>
      <trkpt lat="44.26479" lon="7.12689">
        <ele>1468</ele>
        <time>2022-07-19T04:55:53Z</time>
      </trkpt>
      <trkpt lat="44.26477" lon="7.12688">
        <ele>1468</ele>
        <time>2022-07-19T04:55:54Z</time>
      </trkpt>
      <trkpt lat="44.26476" lon="7.12687">
        <ele>1468.2</ele>
        <time>2022-07-19T04:55:55Z</time>
      </trkpt>
      <trkpt lat="44.26474" lon="7.12686">
        <ele>1468.2</ele>
        <time>2022-07-19T04:55:56Z</time>
      </trkpt>
      <trkpt lat="44.26472" lon="7.12685">
        <ele>1468.4</ele>
        <time>2022-07-19T04:55:57Z</time>
      </trkpt>
      <trkpt lat="44.2647" lon="7.12684">
        <ele>1468.4</ele>
        <time>2022-07-19T04:55:58Z</time>
      </trkpt>
      <trkpt lat="44.26468" lon="7.12683">
        <ele>1468.8</ele>
        <time>2022-07-19T04:55:59Z</time>
      </trkpt>
      <trkpt lat="44.26466" lon="7.12682">
        <ele>1468.8</ele>
        <time>2022-07-19T04:56:00Z</time>
      </trkpt>
      <trkpt lat="44.26464" lon="7.12681">
        <ele>1469.2</ele>
        <time>2022-07-19T04:56:01Z</time>
      </trkpt>
      <trkpt lat="44.26462" lon="7.1268">
        <ele>1469.2</ele>
        <time>2022-07-19T04:56:02Z</time>
      </trkpt>
      <trkpt lat="44.26461" lon="7.1268">
        <ele>1469.4</ele>
        <time>2022-07-19T04:56:03Z</time>
      </trkpt>
      <trkpt lat="44.26459" lon="7.12679">
        <ele>1469.4</ele>
        <time>2022-07-19T04:56:04Z</time>
      </trkpt>
      <trkpt lat="44.26457" lon="7.12678">
        <ele>1469.8</ele>
        <time>2022-07-19T04:56:05Z</time>
      </trkpt>
      <trkpt lat="44.26455" lon="7.12677">
        <ele>1469.8</ele>
        <time>2022-07-19T04:56:06Z</time>
      </trkpt>
      <trkpt lat="44.26453" lon="7.12676">
        <ele>1470</ele>
        <time>2022-07-19T04:56:07Z</time>
      </trkpt>
      <trkpt lat="44.26451" lon="7.12674">
        <ele>1470</ele>
        <time>2022-07-19T04:56:08Z</time>
      </trkpt>
      <trkpt lat="44.26449" lon="7.12673">
        <ele>1470.2</ele>
        <time>2022-07-19T04:56:09Z</time>
      </trkpt>
      <trkpt lat="44.26447" lon="7.12672">
        <ele>1470.2</ele>
        <time>2022-07-19T04:56:10Z</time>
      </trkpt>
      <trkpt lat="44.26445" lon="7.12671">
        <ele>1470.6</ele>
        <time>2022-07-19T04:56:11Z</time>
      </trkpt>
      <trkpt lat="44.26443" lon="7.1267">
        <ele>1470.6</ele>
        <time>2022-07-19T04:56:12Z</time>
      </trkpt>
      <trkpt lat="44.26442" lon="7.12669">
        <ele>1470.8</ele>
        <time>2022-07-19T04:56:13Z</time>
      </trkpt>
      <trkpt lat="44.2644" lon="7.12668">
        <ele>1470.8</ele>
        <time>2022-07-19T04:56:14Z</time>
      </trkpt>
      <trkpt lat="44.26438" lon="7.12667">
        <ele>1471</ele>
        <time>2022-07-19T04:56:15Z</time>
      </trkpt>
      <trkpt lat="44.26437" lon="7.12666">
        <ele>1471</ele>
        <time>2022-07-19T04:56:16Z</time>
      </trkpt>
      <trkpt lat="44.26435" lon="7.12665">
        <ele>1471.4</ele>
        <time>2022-07-19T04:56:17Z</time>
      </trkpt>
      <trkpt lat="44.26433" lon="7.12664">
        <ele>1471.6</ele>
        <time>2022-07-19T04:56:18Z</time>
      </trkpt>
      <trkpt lat="44.26431" lon="7.12663">
        <ele>1471.8</ele>
        <time>2022-07-19T04:56:19Z</time>
      </trkpt>
      <trkpt lat="44.26429" lon="7.12662">
        <ele>1471.8</ele>
        <time>2022-07-19T04:56:20Z</time>
      </trkpt>
      <trkpt lat="44.26427" lon="7.12662">
        <ele>1472.2</ele>
        <time>2022-07-19T04:56:21Z</time>
      </trkpt>
      <trkpt lat="44.26425" lon="7.12661">
        <ele>1472.2</ele>
        <time>2022-07-19T04:56:22Z</time>
      </trkpt>
      <trkpt lat="44.26423" lon="7.1266">
        <ele>1472.4</ele>
        <time>2022-07-19T04:56:23Z</time>
      </trkpt>
      <trkpt lat="44.26421" lon="7.12659">
        <ele>1472.4</ele>
        <time>2022-07-19T04:56:24Z</time>
      </trkpt>
      <trkpt lat="44.2642" lon="7.12658">
        <ele>1473</ele>
        <time>2022-07-19T04:56:25Z</time>
      </trkpt>
      <trkpt lat="44.26418" lon="7.12657">
        <ele>1473.2</ele>
        <time>2022-07-19T04:56:26Z</time>
      </trkpt>
      <trkpt lat="44.26417" lon="7.12656">
        <ele>1473.2</ele>
        <time>2022-07-19T04:56:27Z</time>
      </trkpt>
      <trkpt lat="44.26415" lon="7.12656">
        <ele>1473.6</ele>
        <time>2022-07-19T04:56:28Z</time>
      </trkpt>
      <trkpt lat="44.26413" lon="7.12655">
        <ele>1473.8</ele>
        <time>2022-07-19T04:56:29Z</time>
      </trkpt>
      <trkpt lat="44.26411" lon="7.12655">
        <ele>1473.8</ele>
        <time>2022-07-19T04:56:30Z</time>
      </trkpt>
      <trkpt lat="44.26409" lon="7.12654">
        <ele>1474.2</ele>
        <time>2022-07-19T04:56:31Z</time>
      </trkpt>
      <trkpt lat="44.26408" lon="7.12654">
        <ele>1474.2</ele>
        <time>2022-07-19T04:56:32Z</time>
      </trkpt>
      <trkpt lat="44.26406" lon="7.12653">
        <ele>1474.4</ele>
        <time>2022-07-19T04:56:33Z</time>
      </trkpt>
      <trkpt lat="44.26404" lon="7.12653">
        <ele>1474.4</ele>
        <time>2022-07-19T04:56:34Z</time>
      </trkpt>
      <trkpt lat="44.26402" lon="7.12653">
        <ele>1474.6</ele>
        <time>2022-07-19T04:56:35Z</time>
      </trkpt>
      <trkpt lat="44.264" lon="7.12653">
        <ele>1474.6</ele>
        <time>2022-07-19T04:56:36Z</time>
      </trkpt>
      <trkpt lat="44.26398" lon="7.12653">
        <ele>1474.8</ele>
        <time>2022-07-19T04:56:37Z</time>
      </trkpt>
      <trkpt lat="44.26397" lon="7.12653">
        <ele>1474.8</ele>
        <time>2022-07-19T04:56:38Z</time>
      </trkpt>
      <trkpt lat="44.26395" lon="7.12653">
        <ele>1475.2</ele>
        <time>2022-07-19T04:56:39Z</time>
      </trkpt>
      <trkpt lat="44.26393" lon="7.12653">
        <ele>1475.4</ele>
        <time>2022-07-19T04:56:40Z</time>
      </trkpt>
      <trkpt lat="44.26391" lon="7.12653">
        <ele>1475.4</ele>
        <time>2022-07-19T04:56:41Z</time>
      </trkpt>
      <trkpt lat="44.2639" lon="7.12653">
        <ele>1475.8</ele>
        <time>2022-07-19T04:56:42Z</time>
      </trkpt>
      <trkpt lat="44.26388" lon="7.12653">
        <ele>1475.8</ele>
        <time>2022-07-19T04:56:43Z</time>
      </trkpt>
      <trkpt lat="44.26386" lon="7.12653">
        <ele>1476</ele>
        <time>2022-07-19T04:56:44Z</time>
      </trkpt>
      <trkpt lat="44.26385" lon="7.12653">
        <ele>1476</ele>
        <time>2022-07-19T04:56:45Z</time>
      </trkpt>
      <trkpt lat="44.26383" lon="7.12654">
        <ele>1476.4</ele>
        <time>2022-07-19T04:56:46Z</time>
      </trkpt>
      <trkpt lat="44.26382" lon="7.12655">
        <ele>1476.4</ele>
        <time>2022-07-19T04:56:47Z</time>
      </trkpt>
      <trkpt lat="44.2638" lon="7.12655">
        <ele>1476.8</ele>
        <time>2022-07-19T04:56:48Z</time>
      </trkpt>
      <trkpt lat="44.26378" lon="7.12655">
        <ele>1477</ele>
        <time>2022-07-19T04:56:49Z</time>
      </trkpt>
      <trkpt lat="44.26377" lon="7.12656">
        <ele>1477</ele>
        <time>2022-07-19T04:56:50Z</time>
      </trkpt>
      <trkpt lat="44.26375" lon="7.12656">
        <ele>1477.4</ele>
        <time>2022-07-19T04:56:51Z</time>
      </trkpt>
      <trkpt lat="44.26374" lon="7.12656">
        <ele>1477.4</ele>
        <time>2022-07-19T04:56:52Z</time>
      </trkpt>
      <trkpt lat="44.26372" lon="7.12657">
        <ele>1477.6</ele>
        <time>2022-07-19T04:56:53Z</time>
      </trkpt>
      <trkpt lat="44.2637" lon="7.12657">
        <ele>1477.6</ele>
        <time>2022-07-19T04:56:54Z</time>
      </trkpt>
      <trkpt lat="44.26369" lon="7.12658">
        <ele>1478</ele>
        <time>2022-07-19T04:56:55Z</time>
      </trkpt>
      <trkpt lat="44.26367" lon="7.12658">
        <ele>1478</ele>
        <time>2022-07-19T04:56:56Z</time>
      </trkpt>
      <trkpt lat="44.26365" lon="7.12659">
        <ele>1478.2</ele>
        <time>2022-07-19T04:56:57Z</time>
      </trkpt>
      <trkpt lat="44.26363" lon="7.12659">
        <ele>1478.2</ele>
        <time>2022-07-19T04:56:58Z</time>
      </trkpt>
      <trkpt lat="44.26361" lon="7.12659">
        <ele>1478.2</ele>
        <time>2022-07-19T04:56:59Z</time>
      </trkpt>
      <trkpt lat="44.26359" lon="7.1266">
        <ele>1478.2</ele>
        <time>2022-07-19T04:57:00Z</time>
      </trkpt>
      <trkpt lat="44.26357" lon="7.1266">
        <ele>1478.4</ele>
        <time>2022-07-19T04:57:01Z</time>
      </trkpt>
      <trkpt lat="44.26354" lon="7.12662">
        <ele>1478.4</ele>
        <time>2022-07-19T04:57:02Z</time>
      </trkpt>
      <trkpt lat="44.26352" lon="7.12662">
        <ele>1478.4</ele>
        <time>2022-07-19T04:57:03Z</time>
      </trkpt>
      <trkpt lat="44.2635" lon="7.12663">
        <ele>1478.6</ele>
        <time>2022-07-19T04:57:04Z</time>
      </trkpt>
      <trkpt lat="44.26346" lon="7.12664">
        <ele>1478.6</ele>
        <time>2022-07-19T04:57:06Z</time>
      </trkpt>
      <trkpt lat="44.26344" lon="7.12665">
        <ele>1478.8</ele>
        <time>2022-07-19T04:57:07Z</time>
      </trkpt>
      <trkpt lat="44.26342" lon="7.12667">
        <ele>1478.8</ele>
        <time>2022-07-19T04:57:08Z</time>
      </trkpt>
      <trkpt lat="44.2634" lon="7.12668">
        <ele>1478.8</ele>
        <time>2022-07-19T04:57:09Z</time>
      </trkpt>
      <trkpt lat="44.26338" lon="7.12672">
        <ele>1478.8</ele>
        <time>2022-07-19T04:57:10Z</time>
      </trkpt>
      <trkpt lat="44.26336" lon="7.12674">
        <ele>1479.2</ele>
        <time>2022-07-19T04:57:11Z</time>
      </trkpt>
      <trkpt lat="44.26334" lon="7.12676">
        <ele>1479.2</ele>
        <time>2022-07-19T04:57:12Z</time>
      </trkpt>
      <trkpt lat="44.26332" lon="7.12678">
        <ele>1479.4</ele>
        <time>2022-07-19T04:57:13Z</time>
      </trkpt>
      <trkpt lat="44.26331" lon="7.1268">
        <ele>1479.4</ele>
        <time>2022-07-19T04:57:14Z</time>
      </trkpt>
      <trkpt lat="44.26329" lon="7.12683">
        <ele>1479.4</ele>
        <time>2022-07-19T04:57:15Z</time>
      </trkpt>
      <trkpt lat="44.26327" lon="7.12685">
        <ele>1479.6</ele>
        <time>2022-07-19T04:57:16Z</time>
      </trkpt>
      <trkpt lat="44.26324" lon="7.12687">
        <ele>1479.6</ele>
        <time>2022-07-19T04:57:17Z</time>
      </trkpt>
      <trkpt lat="44.26321" lon="7.1269">
        <ele>1479.8</ele>
        <time>2022-07-19T04:57:18Z</time>
      </trkpt>
      <trkpt lat="44.26318" lon="7.12692">
        <ele>1479.8</ele>
        <time>2022-07-19T04:57:19Z</time>
      </trkpt>
      <trkpt lat="44.26316" lon="7.12694">
        <ele>1479.8</ele>
        <time>2022-07-19T04:57:20Z</time>
      </trkpt>
      <trkpt lat="44.26313" lon="7.12695">
        <ele>1480</ele>
        <time>2022-07-19T04:57:21Z</time>
      </trkpt>
      <trkpt lat="44.26311" lon="7.12696">
        <ele>1480</ele>
        <time>2022-07-19T04:57:22Z</time>
      </trkpt>
      <trkpt lat="44.26309" lon="7.12697">
        <ele>1480</ele>
        <time>2022-07-19T04:57:23Z</time>
      </trkpt>
      <trkpt lat="44.26307" lon="7.12698">
        <ele>1480.2</ele>
        <time>2022-07-19T04:57:24Z</time>
      </trkpt>
      <trkpt lat="44.26305" lon="7.127">
        <ele>1480.2</ele>
        <time>2022-07-19T04:57:25Z</time>
      </trkpt>
      <trkpt lat="44.26303" lon="7.12701">
        <ele>1480.2</ele>
        <time>2022-07-19T04:57:26Z</time>
      </trkpt>
      <trkpt lat="44.26301" lon="7.12702">
        <ele>1480.4</ele>
        <time>2022-07-19T04:57:27Z</time>
      </trkpt>
      <trkpt lat="44.26299" lon="7.12703">
        <ele>1480.4</ele>
        <time>2022-07-19T04:57:28Z</time>
      </trkpt>
      <trkpt lat="44.26296" lon="7.12703">
        <ele>1480.4</ele>
        <time>2022-07-19T04:57:29Z</time>
      </trkpt>
      <trkpt lat="44.26294" lon="7.12704">
        <ele>1480.4</ele>
        <time>2022-07-19T04:57:30Z</time>
      </trkpt>
      <trkpt lat="44.2629" lon="7.12706">
        <ele>1480.8</ele>
        <time>2022-07-19T04:57:31Z</time>
      </trkpt>
      <trkpt lat="44.26288" lon="7.12707">
        <ele>1480.8</ele>
        <time>2022-07-19T04:57:32Z</time>
      </trkpt>
      <trkpt lat="44.26285" lon="7.12708">
        <ele>1480.8</ele>
        <time>2022-07-19T04:57:33Z</time>
      </trkpt>
      <trkpt lat="44.26282" lon="7.1271">
        <ele>1481</ele>
        <time>2022-07-19T04:57:34Z</time>
      </trkpt>
      <trkpt lat="44.26279" lon="7.12711">
        <ele>1481</ele>
        <time>2022-07-19T04:57:35Z</time>
      </trkpt>
      <trkpt lat="44.26277" lon="7.12712">
        <ele>1481</ele>
        <time>2022-07-19T04:57:36Z</time>
      </trkpt>
      <trkpt lat="44.26274" lon="7.12713">
        <ele>1481.2</ele>
        <time>2022-07-19T04:57:37Z</time>
      </trkpt>
      <trkpt lat="44.26272" lon="7.12713">
        <ele>1481.2</ele>
        <time>2022-07-19T04:57:38Z</time>
      </trkpt>
      <trkpt lat="44.26269" lon="7.12713">
        <ele>1481.2</ele>
        <time>2022-07-19T04:57:39Z</time>
      </trkpt>
      <trkpt lat="44.26267" lon="7.12713">
        <ele>1481.2</ele>
        <time>2022-07-19T04:57:40Z</time>
      </trkpt>
      <trkpt lat="44.26265" lon="7.12713">
        <ele>1481.6</ele>
        <time>2022-07-19T04:57:41Z</time>
      </trkpt>
      <trkpt lat="44.26262" lon="7.12713">
        <ele>1481.8</ele>
        <time>2022-07-19T04:57:42Z</time>
      </trkpt>
      <trkpt lat="44.26261" lon="7.12715">
        <ele>1481.8</ele>
        <time>2022-07-19T04:57:43Z</time>
      </trkpt>
      <trkpt lat="44.26259" lon="7.12715">
        <ele>1482.2</ele>
        <time>2022-07-19T04:57:44Z</time>
      </trkpt>
      <trkpt lat="44.26257" lon="7.12715">
        <ele>1482.2</ele>
        <time>2022-07-19T04:57:45Z</time>
      </trkpt>
      <trkpt lat="44.26256" lon="7.12715">
        <ele>1482.4</ele>
        <time>2022-07-19T04:57:46Z</time>
      </trkpt>
      <trkpt lat="44.26254" lon="7.12714">
        <ele>1482.4</ele>
        <time>2022-07-19T04:57:47Z</time>
      </trkpt>
      <trkpt lat="44.26252" lon="7.12714">
        <ele>1482.6</ele>
        <time>2022-07-19T04:57:48Z</time>
      </trkpt>
      <trkpt lat="44.2625" lon="7.12714">
        <ele>1482.6</ele>
        <time>2022-07-19T04:57:49Z</time>
      </trkpt>
      <trkpt lat="44.26248" lon="7.12714">
        <ele>1483</ele>
        <time>2022-07-19T04:57:50Z</time>
      </trkpt>
      <trkpt lat="44.26245" lon="7.12713">
        <ele>1483</ele>
        <time>2022-07-19T04:57:51Z</time>
      </trkpt>
      <trkpt lat="44.26244" lon="7.12713">
        <ele>1483.2</ele>
        <time>2022-07-19T04:57:52Z</time>
      </trkpt>
      <trkpt lat="44.26243" lon="7.12712">
        <ele>1483.6</ele>
        <time>2022-07-19T04:57:53Z</time>
      </trkpt>
      <trkpt lat="44.26241" lon="7.12712">
        <ele>1483.6</ele>
        <time>2022-07-19T04:57:54Z</time>
      </trkpt>
      <trkpt lat="44.26239" lon="7.12712">
        <ele>1483.8</ele>
        <time>2022-07-19T04:57:55Z</time>
      </trkpt>
      <trkpt lat="44.26237" lon="7.12711">
        <ele>1484</ele>
        <time>2022-07-19T04:57:56Z</time>
      </trkpt>
      <trkpt lat="44.26235" lon="7.1271">
        <ele>1484</ele>
        <time>2022-07-19T04:57:57Z</time>
      </trkpt>
      <trkpt lat="44.26234" lon="7.1271">
        <ele>1484.6</ele>
        <time>2022-07-19T04:57:58Z</time>
      </trkpt>
      <trkpt lat="44.26232" lon="7.1271">
        <ele>1484.8</ele>
        <time>2022-07-19T04:57:59Z</time>
      </trkpt>
      <trkpt lat="44.2623" lon="7.12709">
        <ele>1484.8</ele>
        <time>2022-07-19T04:58:00Z</time>
      </trkpt>
      <trkpt lat="44.26229" lon="7.12709">
        <ele>1485.2</ele>
        <time>2022-07-19T04:58:01Z</time>
      </trkpt>
      <trkpt lat="44.26227" lon="7.12708">
        <ele>1485.4</ele>
        <time>2022-07-19T04:58:02Z</time>
      </trkpt>
      <trkpt lat="44.26225" lon="7.12708">
        <ele>1485.6</ele>
        <time>2022-07-19T04:58:03Z</time>
      </trkpt>
      <trkpt lat="44.26223" lon="7.12708">
        <ele>1485.8</ele>
        <time>2022-07-19T04:58:04Z</time>
      </trkpt>
      <trkpt lat="44.26221" lon="7.12707">
        <ele>1486</ele>
        <time>2022-07-19T04:58:05Z</time>
      </trkpt>
      <trkpt lat="44.26219" lon="7.12706">
        <ele>1486</ele>
        <time>2022-07-19T04:58:06Z</time>
      </trkpt>
      <trkpt lat="44.26217" lon="7.12705">
        <ele>1486.4</ele>
        <time>2022-07-19T04:58:07Z</time>
      </trkpt>
      <trkpt lat="44.26215" lon="7.12704">
        <ele>1486.4</ele>
        <time>2022-07-19T04:58:08Z</time>
      </trkpt>
      <trkpt lat="44.26214" lon="7.12707">
        <ele>1486.8</ele>
        <time>2022-07-19T04:58:09Z</time>
      </trkpt>
      <trkpt lat="44.26212" lon="7.12707">
        <ele>1487.2</ele>
        <time>2022-07-19T04:58:10Z</time>
      </trkpt>
      <trkpt lat="44.2621" lon="7.12707">
        <ele>1487.4</ele>
        <time>2022-07-19T04:58:11Z</time>
      </trkpt>
      <trkpt lat="44.26209" lon="7.12708">
        <ele>1487.6</ele>
        <time>2022-07-19T04:58:12Z</time>
      </trkpt>
      <trkpt lat="44.26207" lon="7.12707">
        <ele>1487.6</ele>
        <time>2022-07-19T04:58:13Z</time>
      </trkpt>
      <trkpt lat="44.26206" lon="7.12707">
        <ele>1488</ele>
        <time>2022-07-19T04:58:14Z</time>
      </trkpt>
      <trkpt lat="44.26205" lon="7.12706">
        <ele>1488</ele>
        <time>2022-07-19T04:58:15Z</time>
      </trkpt>
      <trkpt lat="44.26203" lon="7.12705">
        <ele>1488.2</ele>
        <time>2022-07-19T04:58:16Z</time>
      </trkpt>
      <trkpt lat="44.26202" lon="7.12703">
        <ele>1488.6</ele>
        <time>2022-07-19T04:58:17Z</time>
      </trkpt>
      <trkpt lat="44.26201" lon="7.12701">
        <ele>1488.6</ele>
        <time>2022-07-19T04:58:18Z</time>
      </trkpt>
      <trkpt lat="44.262" lon="7.127">
        <ele>1488.8</ele>
        <time>2022-07-19T04:58:19Z</time>
      </trkpt>
      <trkpt lat="44.26199" lon="7.12699">
        <ele>1489</ele>
        <time>2022-07-19T04:58:20Z</time>
      </trkpt>
      <trkpt lat="44.26197" lon="7.12697">
        <ele>1489</ele>
        <time>2022-07-19T04:58:21Z</time>
      </trkpt>
      <trkpt lat="44.26196" lon="7.12695">
        <ele>1489.4</ele>
        <time>2022-07-19T04:58:22Z</time>
      </trkpt>
      <trkpt lat="44.26195" lon="7.12694">
        <ele>1489.4</ele>
        <time>2022-07-19T04:58:23Z</time>
      </trkpt>
      <trkpt lat="44.26194" lon="7.12692">
        <ele>1489.6</ele>
        <time>2022-07-19T04:58:24Z</time>
      </trkpt>
      <trkpt lat="44.26192" lon="7.1269">
        <ele>1489.6</ele>
        <time>2022-07-19T04:58:25Z</time>
      </trkpt>
      <trkpt lat="44.2619" lon="7.12688">
        <ele>1489.8</ele>
        <time>2022-07-19T04:58:26Z</time>
      </trkpt>
      <trkpt lat="44.26189" lon="7.12686">
        <ele>1489.8</ele>
        <time>2022-07-19T04:58:27Z</time>
      </trkpt>
      <trkpt lat="44.26187" lon="7.12685">
        <ele>1490.2</ele>
        <time>2022-07-19T04:58:28Z</time>
      </trkpt>
      <trkpt lat="44.26185" lon="7.12683">
        <ele>1490.2</ele>
        <time>2022-07-19T04:58:29Z</time>
      </trkpt>
      <trkpt lat="44.26183" lon="7.12682">
        <ele>1490.4</ele>
        <time>2022-07-19T04:58:30Z</time>
      </trkpt>
      <trkpt lat="44.26182" lon="7.12681">
        <ele>1490.4</ele>
        <time>2022-07-19T04:58:31Z</time>
      </trkpt>
      <trkpt lat="44.2618" lon="7.12681">
        <ele>1490.6</ele>
        <time>2022-07-19T04:58:32Z</time>
      </trkpt>
      <trkpt lat="44.26178" lon="7.1268">
        <ele>1490.6</ele>
        <time>2022-07-19T04:58:33Z</time>
      </trkpt>
      <trkpt lat="44.26176" lon="7.12679">
        <ele>1490.6</ele>
        <time>2022-07-19T04:58:34Z</time>
      </trkpt>
      <trkpt lat="44.26174" lon="7.12678">
        <ele>1491</ele>
        <time>2022-07-19T04:58:35Z</time>
      </trkpt>
      <trkpt lat="44.26172" lon="7.12677">
        <ele>1491.2</ele>
        <time>2022-07-19T04:58:36Z</time>
      </trkpt>
      <trkpt lat="44.26171" lon="7.12676">
        <ele>1491.4</ele>
        <time>2022-07-19T04:58:37Z</time>
      </trkpt>
      <trkpt lat="44.26169" lon="7.12675">
        <ele>1491.4</ele>
        <time>2022-07-19T04:58:38Z</time>
      </trkpt>
      <trkpt lat="44.26168" lon="7.12673">
        <ele>1491.6</ele>
        <time>2022-07-19T04:58:39Z</time>
      </trkpt>
      <trkpt lat="44.26167" lon="7.12672">
        <ele>1491.6</ele>
        <time>2022-07-19T04:58:40Z</time>
      </trkpt>
      <trkpt lat="44.26165" lon="7.1267">
        <ele>1492</ele>
        <time>2022-07-19T04:58:41Z</time>
      </trkpt>
      <trkpt lat="44.26164" lon="7.12667">
        <ele>1492</ele>
        <time>2022-07-19T04:58:42Z</time>
      </trkpt>
      <trkpt lat="44.26162" lon="7.12665">
        <ele>1492.2</ele>
        <time>2022-07-19T04:58:43Z</time>
      </trkpt>
      <trkpt lat="44.26161" lon="7.12663">
        <ele>1492.2</ele>
        <time>2022-07-19T04:58:44Z</time>
      </trkpt>
      <trkpt lat="44.26159" lon="7.12661">
        <ele>1492.6</ele>
        <time>2022-07-19T04:58:45Z</time>
      </trkpt>
      <trkpt lat="44.26157" lon="7.12659">
        <ele>1492.6</ele>
        <time>2022-07-19T04:58:46Z</time>
      </trkpt>
      <trkpt lat="44.26157" lon="7.12659">
        <ele>1492.8</ele>
        <time>2022-07-19T04:58:47Z</time>
      </trkpt>
      <trkpt lat="44.26157" lon="7.12659">
        <ele>1492.8</ele>
        <time>2022-07-19T04:58:48Z</time>
      </trkpt>
      <trkpt lat="44.26157" lon="7.12659">
        <ele>1492.8</ele>
        <time>2022-07-19T04:58:49Z</time>
      </trkpt>
      <trkpt lat="44.26157" lon="7.12659">
        <ele>1492.8</ele>
        <time>2022-07-19T04:58:50Z</time>
      </trkpt>
      <trkpt lat="44.26157" lon="7.12659">
        <ele>1493</ele>
        <time>2022-07-19T04:58:51Z</time>
      </trkpt>
      <trkpt lat="44.26157" lon="7.12659">
        <ele>1493</ele>
        <time>2022-07-19T04:58:52Z</time>
      </trkpt>
      <trkpt lat="44.26157" lon="7.12659">
        <ele>1493</ele>
        <time>2022-07-19T04:58:53Z</time>
      </trkpt>
      <trkpt lat="44.26157" lon="7.12659">
        <ele>1493</ele>
        <time>2022-07-19T04:58:54Z</time>
      </trkpt>
      <trkpt lat="44.26157" lon="7.12659">
        <ele>1493</ele>
        <time>2022-07-19T04:58:55Z</time>
      </trkpt>
      <trkpt lat="44.26156" lon="7.12658">
        <ele>1493</ele>
        <time>2022-07-19T04:58:56Z</time>
      </trkpt>
      <trkpt lat="44.26156" lon="7.12658">
        <ele>1493</ele>
        <time>2022-07-19T04:58:57Z</time>
      </trkpt>
      <trkpt lat="44.26156" lon="7.12658">
        <ele>1493.2</ele>
        <time>2022-07-19T04:58:58Z</time>
      </trkpt>
      <trkpt lat="44.26156" lon="7.12658">
        <ele>1493.2</ele>
        <time>2022-07-19T04:58:59Z</time>
      </trkpt>
      <trkpt lat="44.26156" lon="7.12658">
        <ele>1493.2</ele>
        <time>2022-07-19T04:59:00Z</time>
      </trkpt>
      <trkpt lat="44.26156" lon="7.12658">
        <ele>1493.2</ele>
        <time>2022-07-19T04:59:02Z</time>
      </trkpt>
      <trkpt lat="44.26156" lon="7.12658">
        <ele>1493.2</ele>
        <time>2022-07-19T04:59:03Z</time>
      </trkpt>
      <trkpt lat="44.26156" lon="7.12658">
        <ele>1493.2</ele>
        <time>2022-07-19T04:59:05Z</time>
      </trkpt>
      <trkpt lat="44.26156" lon="7.12658">
        <ele>1493.2</ele>
        <time>2022-07-19T04:59:06Z</time>
      </trkpt>
      <trkpt lat="44.26156" lon="7.12658">
        <ele>1493.4</ele>
        <time>2022-07-19T04:59:08Z</time>
      </trkpt>
      <trkpt lat="44.26156" lon="7.12657">
        <ele>1493.4</ele>
        <time>2022-07-19T04:59:09Z</time>
      </trkpt>
      <trkpt lat="44.26156" lon="7.12657">
        <ele>1493.4</ele>
        <time>2022-07-19T04:59:10Z</time>
      </trkpt>
      <trkpt lat="44.26156" lon="7.12657">
        <ele>1493.4</ele>
        <time>2022-07-19T04:59:11Z</time>
      </trkpt>
      <trkpt lat="44.26156" lon="7.12657">
        <ele>1493.4</ele>
        <time>2022-07-19T04:59:12Z</time>
      </trkpt>
      <trkpt lat="44.26156" lon="7.12657">
        <ele>1493.4</ele>
        <time>2022-07-19T04:59:13Z</time>
      </trkpt>
      <trkpt lat="44.26155" lon="7.12657">
        <ele>1493.4</ele>
        <time>2022-07-19T04:59:14Z</time>
      </trkpt>
      <trkpt lat="44.26155" lon="7.12657">
        <ele>1493.8</ele>
        <time>2022-07-19T04:59:21Z</time>
      </trkpt>
      <trkpt lat="44.26155" lon="7.12657">
        <ele>1493.8</ele>
        <time>2022-07-19T04:59:22Z</time>
      </trkpt>
      <trkpt lat="44.26155" lon="7.12657">
        <ele>1493.8</ele>
        <time>2022-07-19T04:59:31Z</time>
      </trkpt>
      <trkpt lat="44.26155" lon="7.12657">
        <ele>1493.8</ele>
        <time>2022-07-19T04:59:32Z</time>
      </trkpt>
      <trkpt lat="44.26155" lon="7.12656">
        <ele>1493.8</ele>
        <time>2022-07-19T04:59:33Z</time>
      </trkpt>
      <trkpt lat="44.26155" lon="7.12656">
        <ele>1493.8</ele>
        <time>2022-07-19T04:59:34Z</time>
      </trkpt>
      <trkpt lat="44.26155" lon="7.12656">
        <ele>1493.8</ele>
        <time>2022-07-19T04:59:35Z</time>
      </trkpt>
      <trkpt lat="44.26155" lon="7.12656">
        <ele>1493.8</ele>
        <time>2022-07-19T04:59:36Z</time>
      </trkpt>
      <trkpt lat="44.26155" lon="7.12656">
        <ele>1493.8</ele>
        <time>2022-07-19T04:59:37Z</time>
      </trkpt>
      <trkpt lat="44.26155" lon="7.12656">
        <ele>1493.8</ele>
        <time>2022-07-19T04:59:38Z</time>
      </trkpt>
      <trkpt lat="44.26155" lon="7.12656">
        <ele>1493.8</ele>
        <time>2022-07-19T04:59:39Z</time>
      </trkpt>
      <trkpt lat="44.26155" lon="7.12656">
        <ele>1493.8</ele>
        <time>2022-07-19T04:59:40Z</time>
      </trkpt>
      <trkpt lat="44.26155" lon="7.12656">
        <ele>1493.8</ele>
        <time>2022-07-19T04:59:41Z</time>
      </trkpt>
      <trkpt lat="44.26155" lon="7.12656">
        <ele>1493.8</ele>
        <time>2022-07-19T04:59:42Z</time>
      </trkpt>
      <trkpt lat="44.26154" lon="7.12655">
        <ele>1493.8</ele>
        <time>2022-07-19T04:59:43Z</time>
      </trkpt>
      <trkpt lat="44.26154" lon="7.12655">
        <ele>1493.8</ele>
        <time>2022-07-19T04:59:44Z</time>
      </trkpt>
      <trkpt lat="44.26154" lon="7.12655">
        <ele>1493.8</ele>
        <time>2022-07-19T04:59:53Z</time>
      </trkpt>
      <trkpt lat="44.26154" lon="7.12655">
        <ele>1493.8</ele>
        <time>2022-07-19T04:59:54Z</time>
      </trkpt>
      <trkpt lat="44.26154" lon="7.12655">
        <ele>1493.8</ele>
        <time>2022-07-19T04:59:56Z</time>
      </trkpt>
      <trkpt lat="44.26154" lon="7.12655">
        <ele>1493.8</ele>
        <time>2022-07-19T04:59:57Z</time>
      </trkpt>
      <trkpt lat="44.26154" lon="7.12655">
        <ele>1493.8</ele>
        <time>2022-07-19T05:00:05Z</time>
      </trkpt>
      <trkpt lat="44.26154" lon="7.12655">
        <ele>1493.8</ele>
        <time>2022-07-19T05:00:06Z</time>
      </trkpt>
      <trkpt lat="44.26154" lon="7.12655">
        <ele>1493.8</ele>
        <time>2022-07-19T05:00:15Z</time>
      </trkpt>
      <trkpt lat="44.26154" lon="7.12655">
        <ele>1493.8</ele>
        <time>2022-07-19T05:00:16Z</time>
      </trkpt>
      <trkpt lat="44.26154" lon="7.12654">
        <ele>1493.8</ele>
        <time>2022-07-19T05:00:19Z</time>
      </trkpt>
      <trkpt lat="44.26154" lon="7.12654">
        <ele>1493.8</ele>
        <time>2022-07-19T05:00:20Z</time>
      </trkpt>
      <trkpt lat="44.26154" lon="7.12654">
        <ele>1493.8</ele>
        <time>2022-07-19T05:00:28Z</time>
      </trkpt>
      <trkpt lat="44.26154" lon="7.12654">
        <ele>1493.8</ele>
        <time>2022-07-19T05:00:29Z</time>
      </trkpt>
      <trkpt lat="44.26154" lon="7.12654">
        <ele>1493.8</ele>
        <time>2022-07-19T05:00:30Z</time>
      </trkpt>
      <trkpt lat="44.26153" lon="7.12654">
        <ele>1493.8</ele>
        <time>2022-07-19T05:00:31Z</time>
      </trkpt>
      <trkpt lat="44.26153" lon="7.12654">
        <ele>1493.8</ele>
        <time>2022-07-19T05:00:32Z</time>
      </trkpt>
      <trkpt lat="44.26153" lon="7.12654">
        <ele>1493.8</ele>
        <time>2022-07-19T05:00:33Z</time>
      </trkpt>
      <trkpt lat="44.26153" lon="7.12654">
        <ele>1493.8</ele>
        <time>2022-07-19T05:00:34Z</time>
      </trkpt>
      <trkpt lat="44.26153" lon="7.12654">
        <ele>1493.8</ele>
        <time>2022-07-19T05:00:35Z</time>
      </trkpt>
      <trkpt lat="44.26153" lon="7.12653">
        <ele>1493.8</ele>
        <time>2022-07-19T05:00:36Z</time>
      </trkpt>
      <trkpt lat="44.26153" lon="7.12653">
        <ele>1493.8</ele>
        <time>2022-07-19T05:00:37Z</time>
      </trkpt>
      <trkpt lat="44.26153" lon="7.12653">
        <ele>1493.8</ele>
        <time>2022-07-19T05:00:38Z</time>
      </trkpt>
      <trkpt lat="44.26153" lon="7.12653">
        <ele>1493.8</ele>
        <time>2022-07-19T05:00:39Z</time>
      </trkpt>
      <trkpt lat="44.26153" lon="7.12653">
        <ele>1493.8</ele>
        <time>2022-07-19T05:00:40Z</time>
      </trkpt>
      <trkpt lat="44.26153" lon="7.12653">
        <ele>1493.8</ele>
        <time>2022-07-19T05:00:41Z</time>
      </trkpt>
      <trkpt lat="44.26153" lon="7.12653">
        <ele>1493.8</ele>
        <time>2022-07-19T05:00:42Z</time>
      </trkpt>
      <trkpt lat="44.26153" lon="7.12653">
        <ele>1493.8</ele>
        <time>2022-07-19T05:00:43Z</time>
      </trkpt>
      <trkpt lat="44.26153" lon="7.12653">
        <ele>1493.8</ele>
        <time>2022-07-19T05:00:44Z</time>
      </trkpt>
      <trkpt lat="44.26153" lon="7.12653">
        <ele>1493.8</ele>
        <time>2022-07-19T05:00:45Z</time>
      </trkpt>
      <trkpt lat="44.26152" lon="7.12652">
        <ele>1493.8</ele>
        <time>2022-07-19T05:00:46Z</time>
      </trkpt>
      <trkpt lat="44.26152" lon="7.12652">
        <ele>1493.8</ele>
        <time>2022-07-19T05:00:47Z</time>
      </trkpt>
      <trkpt lat="44.26152" lon="7.12652">
        <ele>1493.8</ele>
        <time>2022-07-19T05:00:48Z</time>
      </trkpt>
      <trkpt lat="44.26152" lon="7.12652">
        <ele>1493.8</ele>
        <time>2022-07-19T05:00:49Z</time>
      </trkpt>
      <trkpt lat="44.26152" lon="7.12652">
        <ele>1493.8</ele>
        <time>2022-07-19T05:00:50Z</time>
      </trkpt>
      <trkpt lat="44.26152" lon="7.12652">
        <ele>1493.8</ele>
        <time>2022-07-19T05:00:51Z</time>
      </trkpt>
      <trkpt lat="44.26152" lon="7.12652">
        <ele>1493.8</ele>
        <time>2022-07-19T05:00:52Z</time>
      </trkpt>
      <trkpt lat="44.26152" lon="7.12652">
        <ele>1493.8</ele>
        <time>2022-07-19T05:00:53Z</time>
      </trkpt>
      <trkpt lat="44.26152" lon="7.12652">
        <ele>1493.8</ele>
        <time>2022-07-19T05:00:54Z</time>
      </trkpt>
      <trkpt lat="44.26152" lon="7.12652">
        <ele>1493.8</ele>
        <time>2022-07-19T05:00:55Z</time>
      </trkpt>
      <trkpt lat="44.26152" lon="7.12651">
        <ele>1493.8</ele>
        <time>2022-07-19T05:00:56Z</time>
      </trkpt>
      <trkpt lat="44.26152" lon="7.12651">
        <ele>1493.8</ele>
        <time>2022-07-19T05:00:57Z</time>
      </trkpt>
      <trkpt lat="44.26152" lon="7.12651">
        <ele>1493.8</ele>
        <time>2022-07-19T05:00:58Z</time>
      </trkpt>
      <trkpt lat="44.26152" lon="7.12651">
        <ele>1493.8</ele>
        <time>2022-07-19T05:00:59Z</time>
      </trkpt>
      <trkpt lat="44.26152" lon="7.12651">
        <ele>1493.8</ele>
        <time>2022-07-19T05:01:00Z</time>
      </trkpt>
      <trkpt lat="44.26153" lon="7.12648">
        <ele>1493.8</ele>
        <time>2022-07-19T05:01:01Z</time>
      </trkpt>
      <trkpt lat="44.26153" lon="7.12644">
        <ele>1493.8</ele>
        <time>2022-07-19T05:01:02Z</time>
      </trkpt>
      <trkpt lat="44.26153" lon="7.12641">
        <ele>1493.8</ele>
        <time>2022-07-19T05:01:03Z</time>
      </trkpt>
      <trkpt lat="44.26152" lon="7.12639">
        <ele>1493.8</ele>
        <time>2022-07-19T05:01:04Z</time>
      </trkpt>
      <trkpt lat="44.26152" lon="7.12636">
        <ele>1493.8</ele>
        <time>2022-07-19T05:01:05Z</time>
      </trkpt>
      <trkpt lat="44.26152" lon="7.12633">
        <ele>1494</ele>
        <time>2022-07-19T05:01:06Z</time>
      </trkpt>
      <trkpt lat="44.26153" lon="7.1263">
        <ele>1494</ele>
        <time>2022-07-19T05:01:07Z</time>
      </trkpt>
      <trkpt lat="44.26154" lon="7.12628">
        <ele>1494.2</ele>
        <time>2022-07-19T05:01:08Z</time>
      </trkpt>
      <trkpt lat="44.26154" lon="7.12626">
        <ele>1494.2</ele>
        <time>2022-07-19T05:01:09Z</time>
      </trkpt>
      <trkpt lat="44.26155" lon="7.12623">
        <ele>1494.2</ele>
        <time>2022-07-19T05:01:10Z</time>
      </trkpt>
      <trkpt lat="44.26156" lon="7.1262">
        <ele>1494.6</ele>
        <time>2022-07-19T05:01:11Z</time>
      </trkpt>
      <trkpt lat="44.26156" lon="7.12617">
        <ele>1494.6</ele>
        <time>2022-07-19T05:01:12Z</time>
      </trkpt>
      <trkpt lat="44.26155" lon="7.12615">
        <ele>1495</ele>
        <time>2022-07-19T05:01:13Z</time>
      </trkpt>
      <trkpt lat="44.26155" lon="7.12612">
        <ele>1495</ele>
        <time>2022-07-19T05:01:14Z</time>
      </trkpt>
      <trkpt lat="44.26153" lon="7.1261">
        <ele>1495.2</ele>
        <time>2022-07-19T05:01:15Z</time>
      </trkpt>
      <trkpt lat="44.26153" lon="7.12607">
        <ele>1495.2</ele>
        <time>2022-07-19T05:01:16Z</time>
      </trkpt>
      <trkpt lat="44.26152" lon="7.12605">
        <ele>1495.6</ele>
        <time>2022-07-19T05:01:17Z</time>
      </trkpt>
      <trkpt lat="44.26151" lon="7.12602">
        <ele>1495.6</ele>
        <time>2022-07-19T05:01:18Z</time>
      </trkpt>
      <trkpt lat="44.26151" lon="7.126">
        <ele>1496</ele>
        <time>2022-07-19T05:01:19Z</time>
      </trkpt>
      <trkpt lat="44.2615" lon="7.12597">
        <ele>1496</ele>
        <time>2022-07-19T05:01:20Z</time>
      </trkpt>
      <trkpt lat="44.26149" lon="7.12595">
        <ele>1496.2</ele>
        <time>2022-07-19T05:01:21Z</time>
      </trkpt>
      <trkpt lat="44.26148" lon="7.12593">
        <ele>1496.4</ele>
        <time>2022-07-19T05:01:22Z</time>
      </trkpt>
      <trkpt lat="44.26147" lon="7.12591">
        <ele>1496.4</ele>
        <time>2022-07-19T05:01:23Z</time>
      </trkpt>
      <trkpt lat="44.26146" lon="7.12589">
        <ele>1496.6</ele>
        <time>2022-07-19T05:01:24Z</time>
      </trkpt>
      <trkpt lat="44.26145" lon="7.12586">
        <ele>1496.6</ele>
        <time>2022-07-19T05:01:25Z</time>
      </trkpt>
      <trkpt lat="44.26145" lon="7.12585">
        <ele>1496.8</ele>
        <time>2022-07-19T05:01:26Z</time>
      </trkpt>
      <trkpt lat="44.26144" lon="7.12582">
        <ele>1496.8</ele>
        <time>2022-07-19T05:01:27Z</time>
      </trkpt>
      <trkpt lat="44.26143" lon="7.1258">
        <ele>1497.2</ele>
        <time>2022-07-19T05:01:28Z</time>
      </trkpt>
      <trkpt lat="44.26142" lon="7.12578">
        <ele>1497.2</ele>
        <time>2022-07-19T05:01:29Z</time>
      </trkpt>
      <trkpt lat="44.26141" lon="7.12576">
        <ele>1497.6</ele>
        <time>2022-07-19T05:01:30Z</time>
      </trkpt>
      <trkpt lat="44.2614" lon="7.12574">
        <ele>1497.6</ele>
        <time>2022-07-19T05:01:31Z</time>
      </trkpt>
      <trkpt lat="44.26139" lon="7.12572">
        <ele>1497.8</ele>
        <time>2022-07-19T05:01:32Z</time>
      </trkpt>
      <trkpt lat="44.26138" lon="7.12571">
        <ele>1497.8</ele>
        <time>2022-07-19T05:01:33Z</time>
      </trkpt>
      <trkpt lat="44.26137" lon="7.12569">
        <ele>1498.2</ele>
        <time>2022-07-19T05:01:34Z</time>
      </trkpt>
      <trkpt lat="44.26136" lon="7.12566">
        <ele>1498.2</ele>
        <time>2022-07-19T05:01:35Z</time>
      </trkpt>
      <trkpt lat="44.26135" lon="7.12564">
        <ele>1498.4</ele>
        <time>2022-07-19T05:01:36Z</time>
      </trkpt>
      <trkpt lat="44.26134" lon="7.12561">
        <ele>1498.4</ele>
        <time>2022-07-19T05:01:37Z</time>
      </trkpt>
      <trkpt lat="44.26133" lon="7.12559">
        <ele>1498.8</ele>
        <time>2022-07-19T05:01:38Z</time>
      </trkpt>
      <trkpt lat="44.26132" lon="7.12557">
        <ele>1498.8</ele>
        <time>2022-07-19T05:01:39Z</time>
      </trkpt>
      <trkpt lat="44.26131" lon="7.12555">
        <ele>1499.2</ele>
        <time>2022-07-19T05:01:40Z</time>
      </trkpt>
      <trkpt lat="44.2613" lon="7.12553">
        <ele>1499.2</ele>
        <time>2022-07-19T05:01:41Z</time>
      </trkpt>
      <trkpt lat="44.26129" lon="7.12551">
        <ele>1499.4</ele>
        <time>2022-07-19T05:01:42Z</time>
      </trkpt>
      <trkpt lat="44.26127" lon="7.12549">
        <ele>1499.4</ele>
        <time>2022-07-19T05:01:43Z</time>
      </trkpt>
      <trkpt lat="44.26127" lon="7.12547">
        <ele>1499.6</ele>
        <time>2022-07-19T05:01:44Z</time>
      </trkpt>
      <trkpt lat="44.26126" lon="7.12545">
        <ele>1499.6</ele>
        <time>2022-07-19T05:01:45Z</time>
      </trkpt>
      <trkpt lat="44.26125" lon="7.12543">
        <ele>1499.6</ele>
        <time>2022-07-19T05:01:46Z</time>
      </trkpt>
      <trkpt lat="44.26124" lon="7.12541">
        <ele>1500</ele>
        <time>2022-07-19T05:01:48Z</time>
      </trkpt>
      <trkpt lat="44.26123" lon="7.12539">
        <ele>1500.4</ele>
        <time>2022-07-19T05:01:49Z</time>
      </trkpt>
      <trkpt lat="44.26122" lon="7.12538">
        <ele>1500.4</ele>
        <time>2022-07-19T05:01:50Z</time>
      </trkpt>
      <trkpt lat="44.26121" lon="7.12536">
        <ele>1500.6</ele>
        <time>2022-07-19T05:01:51Z</time>
      </trkpt>
      <trkpt lat="44.2612" lon="7.12534">
        <ele>1500.6</ele>
        <time>2022-07-19T05:01:52Z</time>
      </trkpt>
      <trkpt lat="44.26119" lon="7.12532">
        <ele>1501</ele>
        <time>2022-07-19T05:01:53Z</time>
      </trkpt>
      <trkpt lat="44.26118" lon="7.12531">
        <ele>1501.2</ele>
        <time>2022-07-19T05:01:54Z</time>
      </trkpt>
      <trkpt lat="44.26118" lon="7.12529">
        <ele>1501.2</ele>
        <time>2022-07-19T05:01:55Z</time>
      </trkpt>
      <trkpt lat="44.26117" lon="7.12527">
        <ele>1501.6</ele>
        <time>2022-07-19T05:01:56Z</time>
      </trkpt>
      <trkpt lat="44.26116" lon="7.12525">
        <ele>1502</ele>
        <time>2022-07-19T05:01:57Z</time>
      </trkpt>
      <trkpt lat="44.26115" lon="7.12523">
        <ele>1502.2</ele>
        <time>2022-07-19T05:01:58Z</time>
      </trkpt>
      <trkpt lat="44.26114" lon="7.12521">
        <ele>1502.4</ele>
        <time>2022-07-19T05:01:59Z</time>
      </trkpt>
      <trkpt lat="44.26113" lon="7.12518">
        <ele>1502.4</ele>
        <time>2022-07-19T05:02:00Z</time>
      </trkpt>
      <trkpt lat="44.26113" lon="7.12516">
        <ele>1502.6</ele>
        <time>2022-07-19T05:02:01Z</time>
      </trkpt>
      <trkpt lat="44.26112" lon="7.12514">
        <ele>1502.6</ele>
        <time>2022-07-19T05:02:02Z</time>
      </trkpt>
      <trkpt lat="44.26111" lon="7.12512">
        <ele>1503</ele>
        <time>2022-07-19T05:02:03Z</time>
      </trkpt>
      <trkpt lat="44.26111" lon="7.1251">
        <ele>1503</ele>
        <time>2022-07-19T05:02:04Z</time>
      </trkpt>
      <trkpt lat="44.2611" lon="7.12508">
        <ele>1503.2</ele>
        <time>2022-07-19T05:02:05Z</time>
      </trkpt>
      <trkpt lat="44.26109" lon="7.12506">
        <ele>1503.2</ele>
        <time>2022-07-19T05:02:06Z</time>
      </trkpt>
      <trkpt lat="44.26109" lon="7.12503">
        <ele>1503.6</ele>
        <time>2022-07-19T05:02:07Z</time>
      </trkpt>
      <trkpt lat="44.26108" lon="7.12501">
        <ele>1503.8</ele>
        <time>2022-07-19T05:02:08Z</time>
      </trkpt>
      <trkpt lat="44.26106" lon="7.12499">
        <ele>1504.2</ele>
        <time>2022-07-19T05:02:09Z</time>
      </trkpt>
      <trkpt lat="44.26105" lon="7.12497">
        <ele>1504.2</ele>
        <time>2022-07-19T05:02:10Z</time>
      </trkpt>
      <trkpt lat="44.26103" lon="7.12495">
        <ele>1504.4</ele>
        <time>2022-07-19T05:02:11Z</time>
      </trkpt>
      <trkpt lat="44.26102" lon="7.12493">
        <ele>1504.4</ele>
        <time>2022-07-19T05:02:12Z</time>
      </trkpt>
      <trkpt lat="44.26101" lon="7.12491">
        <ele>1504.8</ele>
        <time>2022-07-19T05:02:13Z</time>
      </trkpt>
      <trkpt lat="44.261" lon="7.12489">
        <ele>1504.8</ele>
        <time>2022-07-19T05:02:14Z</time>
      </trkpt>
      <trkpt lat="44.26098" lon="7.12486">
        <ele>1505.2</ele>
        <time>2022-07-19T05:02:15Z</time>
      </trkpt>
      <trkpt lat="44.26097" lon="7.12485">
        <ele>1505.2</ele>
        <time>2022-07-19T05:02:16Z</time>
      </trkpt>
      <trkpt lat="44.26095" lon="7.12483">
        <ele>1505.2</ele>
        <time>2022-07-19T05:02:17Z</time>
      </trkpt>
      <trkpt lat="44.26094" lon="7.12481">
        <ele>1505.6</ele>
        <time>2022-07-19T05:02:18Z</time>
      </trkpt>
      <trkpt lat="44.26092" lon="7.1248">
        <ele>1505.6</ele>
        <time>2022-07-19T05:02:19Z</time>
      </trkpt>
      <trkpt lat="44.26091" lon="7.12478">
        <ele>1505.8</ele>
        <time>2022-07-19T05:02:20Z</time>
      </trkpt>
      <trkpt lat="44.26089" lon="7.12476">
        <ele>1505.8</ele>
        <time>2022-07-19T05:02:21Z</time>
      </trkpt>
      <trkpt lat="44.26089" lon="7.12475">
        <ele>1506</ele>
        <time>2022-07-19T05:02:22Z</time>
      </trkpt>
      <trkpt lat="44.26088" lon="7.12473">
        <ele>1506</ele>
        <time>2022-07-19T05:02:23Z</time>
      </trkpt>
      <trkpt lat="44.26087" lon="7.12471">
        <ele>1506.2</ele>
        <time>2022-07-19T05:02:24Z</time>
      </trkpt>
      <trkpt lat="44.26086" lon="7.12469">
        <ele>1506.2</ele>
        <time>2022-07-19T05:02:25Z</time>
      </trkpt>
      <trkpt lat="44.26085" lon="7.12468">
        <ele>1506.6</ele>
        <time>2022-07-19T05:02:26Z</time>
      </trkpt>
      <trkpt lat="44.26085" lon="7.12466">
        <ele>1506.8</ele>
        <time>2022-07-19T05:02:27Z</time>
      </trkpt>
      <trkpt lat="44.26084" lon="7.12465">
        <ele>1507</ele>
        <time>2022-07-19T05:02:28Z</time>
      </trkpt>
      <trkpt lat="44.26083" lon="7.12463">
        <ele>1507.2</ele>
        <time>2022-07-19T05:02:29Z</time>
      </trkpt>
      <trkpt lat="44.26082" lon="7.12462">
        <ele>1507.2</ele>
        <time>2022-07-19T05:02:30Z</time>
      </trkpt>
      <trkpt lat="44.26081" lon="7.12461">
        <ele>1507.6</ele>
        <time>2022-07-19T05:02:31Z</time>
      </trkpt>
      <trkpt lat="44.2608" lon="7.1246">
        <ele>1507.6</ele>
        <time>2022-07-19T05:02:32Z</time>
      </trkpt>
      <trkpt lat="44.26079" lon="7.12458">
        <ele>1507.6</ele>
        <time>2022-07-19T05:02:33Z</time>
      </trkpt>
      <trkpt lat="44.26078" lon="7.12456">
        <ele>1507.8</ele>
        <time>2022-07-19T05:02:34Z</time>
      </trkpt>
      <trkpt lat="44.26077" lon="7.12455">
        <ele>1508</ele>
        <time>2022-07-19T05:02:35Z</time>
      </trkpt>
      <trkpt lat="44.26076" lon="7.12453">
        <ele>1508</ele>
        <time>2022-07-19T05:02:36Z</time>
      </trkpt>
      <trkpt lat="44.26075" lon="7.12451">
        <ele>1508.4</ele>
        <time>2022-07-19T05:02:37Z</time>
      </trkpt>
      <trkpt lat="44.26074" lon="7.1245">
        <ele>1508.4</ele>
        <time>2022-07-19T05:02:38Z</time>
      </trkpt>
      <trkpt lat="44.26073" lon="7.12448">
        <ele>1508.6</ele>
        <time>2022-07-19T05:02:39Z</time>
      </trkpt>
      <trkpt lat="44.26073" lon="7.12446">
        <ele>1508.6</ele>
        <time>2022-07-19T05:02:40Z</time>
      </trkpt>
      <trkpt lat="44.26072" lon="7.12444">
        <ele>1509</ele>
        <time>2022-07-19T05:02:41Z</time>
      </trkpt>
      <trkpt lat="44.26071" lon="7.12442">
        <ele>1509.2</ele>
        <time>2022-07-19T05:02:42Z</time>
      </trkpt>
      <trkpt lat="44.2607" lon="7.12441">
        <ele>1509.2</ele>
        <time>2022-07-19T05:02:43Z</time>
      </trkpt>
      <trkpt lat="44.26069" lon="7.12439">
        <ele>1509.4</ele>
        <time>2022-07-19T05:02:44Z</time>
      </trkpt>
      <trkpt lat="44.26068" lon="7.12437">
        <ele>1509.4</ele>
        <time>2022-07-19T05:02:45Z</time>
      </trkpt>
      <trkpt lat="44.26068" lon="7.12436">
        <ele>1509.4</ele>
        <time>2022-07-19T05:02:46Z</time>
      </trkpt>
      <trkpt lat="44.26067" lon="7.12433">
        <ele>1509.8</ele>
        <time>2022-07-19T05:02:47Z</time>
      </trkpt>
      <trkpt lat="44.26067" lon="7.12432">
        <ele>1509.8</ele>
        <time>2022-07-19T05:02:48Z</time>
      </trkpt>
      <trkpt lat="44.26066" lon="7.1243">
        <ele>1510.2</ele>
        <time>2022-07-19T05:02:49Z</time>
      </trkpt>
      <trkpt lat="44.26066" lon="7.12428">
        <ele>1510.2</ele>
        <time>2022-07-19T05:02:50Z</time>
      </trkpt>
      <trkpt lat="44.26065" lon="7.12427">
        <ele>1510.4</ele>
        <time>2022-07-19T05:02:51Z</time>
      </trkpt>
      <trkpt lat="44.26064" lon="7.12425">
        <ele>1510.4</ele>
        <time>2022-07-19T05:02:52Z</time>
      </trkpt>
      <trkpt lat="44.26063" lon="7.12424">
        <ele>1510.8</ele>
        <time>2022-07-19T05:02:53Z</time>
      </trkpt>
      <trkpt lat="44.26062" lon="7.12422">
        <ele>1510.8</ele>
        <time>2022-07-19T05:02:54Z</time>
      </trkpt>
      <trkpt lat="44.26062" lon="7.12421">
        <ele>1511.2</ele>
        <time>2022-07-19T05:02:55Z</time>
      </trkpt>
      <trkpt lat="44.26061" lon="7.12419">
        <ele>1511.2</ele>
        <time>2022-07-19T05:02:56Z</time>
      </trkpt>
      <trkpt lat="44.2606" lon="7.12417">
        <ele>1511.4</ele>
        <time>2022-07-19T05:02:57Z</time>
      </trkpt>
      <trkpt lat="44.26059" lon="7.12416">
        <ele>1511.4</ele>
        <time>2022-07-19T05:02:58Z</time>
      </trkpt>
      <trkpt lat="44.26058" lon="7.12414">
        <ele>1511.8</ele>
        <time>2022-07-19T05:02:59Z</time>
      </trkpt>
      <trkpt lat="44.26057" lon="7.12413">
        <ele>1511.8</ele>
        <time>2022-07-19T05:03:00Z</time>
      </trkpt>
      <trkpt lat="44.26056" lon="7.12411">
        <ele>1511.8</ele>
        <time>2022-07-19T05:03:01Z</time>
      </trkpt>
      <trkpt lat="44.26055" lon="7.12409">
        <ele>1511.8</ele>
        <time>2022-07-19T05:03:02Z</time>
      </trkpt>
      <trkpt lat="44.26053" lon="7.12407">
        <ele>1512</ele>
        <time>2022-07-19T05:03:03Z</time>
      </trkpt>
      <trkpt lat="44.26052" lon="7.12406">
        <ele>1512</ele>
        <time>2022-07-19T05:03:04Z</time>
      </trkpt>
      <trkpt lat="44.26051" lon="7.12405">
        <ele>1512.2</ele>
        <time>2022-07-19T05:03:05Z</time>
      </trkpt>
      <trkpt lat="44.2605" lon="7.12403">
        <ele>1512.2</ele>
        <time>2022-07-19T05:03:06Z</time>
      </trkpt>
      <trkpt lat="44.26048" lon="7.12402">
        <ele>1512.6</ele>
        <time>2022-07-19T05:03:07Z</time>
      </trkpt>
      <trkpt lat="44.26047" lon="7.12401">
        <ele>1512.6</ele>
        <time>2022-07-19T05:03:08Z</time>
      </trkpt>
      <trkpt lat="44.26045" lon="7.124">
        <ele>1512.8</ele>
        <time>2022-07-19T05:03:09Z</time>
      </trkpt>
      <trkpt lat="44.26044" lon="7.12398">
        <ele>1512.8</ele>
        <time>2022-07-19T05:03:10Z</time>
      </trkpt>
      <trkpt lat="44.26043" lon="7.12397">
        <ele>1513.2</ele>
        <time>2022-07-19T05:03:11Z</time>
      </trkpt>
      <trkpt lat="44.26042" lon="7.12396">
        <ele>1513.2</ele>
        <time>2022-07-19T05:03:12Z</time>
      </trkpt>
      <trkpt lat="44.2604" lon="7.12395">
        <ele>1513.6</ele>
        <time>2022-07-19T05:03:13Z</time>
      </trkpt>
      <trkpt lat="44.26039" lon="7.12394">
        <ele>1513.6</ele>
        <time>2022-07-19T05:03:14Z</time>
      </trkpt>
      <trkpt lat="44.26038" lon="7.12393">
        <ele>1514</ele>
        <time>2022-07-19T05:03:15Z</time>
      </trkpt>
      <trkpt lat="44.26037" lon="7.12392">
        <ele>1514</ele>
        <time>2022-07-19T05:03:16Z</time>
      </trkpt>
      <trkpt lat="44.26036" lon="7.12391">
        <ele>1514.2</ele>
        <time>2022-07-19T05:03:17Z</time>
      </trkpt>
      <trkpt lat="44.26035" lon="7.1239">
        <ele>1514.4</ele>
        <time>2022-07-19T05:03:18Z</time>
      </trkpt>
      <trkpt lat="44.26033" lon="7.12389">
        <ele>1514.4</ele>
        <time>2022-07-19T05:03:19Z</time>
      </trkpt>
      <trkpt lat="44.26032" lon="7.12387">
        <ele>1514.6</ele>
        <time>2022-07-19T05:03:20Z</time>
      </trkpt>
      <trkpt lat="44.2603" lon="7.12386">
        <ele>1514.6</ele>
        <time>2022-07-19T05:03:21Z</time>
      </trkpt>
      <trkpt lat="44.26029" lon="7.12385">
        <ele>1514.8</ele>
        <time>2022-07-19T05:03:22Z</time>
      </trkpt>
      <trkpt lat="44.26028" lon="7.12384">
        <ele>1514.8</ele>
        <time>2022-07-19T05:03:23Z</time>
      </trkpt>
      <trkpt lat="44.26026" lon="7.12383">
        <ele>1515.2</ele>
        <time>2022-07-19T05:03:24Z</time>
      </trkpt>
      <trkpt lat="44.26025" lon="7.12383">
        <ele>1515.2</ele>
        <time>2022-07-19T05:03:25Z</time>
      </trkpt>
      <trkpt lat="44.26024" lon="7.12382">
        <ele>1515.6</ele>
        <time>2022-07-19T05:03:26Z</time>
      </trkpt>
      <trkpt lat="44.26022" lon="7.12382">
        <ele>1515.6</ele>
        <time>2022-07-19T05:03:27Z</time>
      </trkpt>
      <trkpt lat="44.26021" lon="7.12381">
        <ele>1515.8</ele>
        <time>2022-07-19T05:03:28Z</time>
      </trkpt>
      <trkpt lat="44.2602" lon="7.12379">
        <ele>1515.8</ele>
        <time>2022-07-19T05:03:29Z</time>
      </trkpt>
      <trkpt lat="44.26019" lon="7.12378">
        <ele>1516.2</ele>
        <time>2022-07-19T05:03:30Z</time>
      </trkpt>
      <trkpt lat="44.26018" lon="7.12376">
        <ele>1516.2</ele>
        <time>2022-07-19T05:03:31Z</time>
      </trkpt>
      <trkpt lat="44.26017" lon="7.12375">
        <ele>1516.6</ele>
        <time>2022-07-19T05:03:32Z</time>
      </trkpt>
      <trkpt lat="44.26016" lon="7.12374">
        <ele>1516.6</ele>
        <time>2022-07-19T05:03:33Z</time>
      </trkpt>
      <trkpt lat="44.26014" lon="7.12373">
        <ele>1517</ele>
        <time>2022-07-19T05:03:34Z</time>
      </trkpt>
      <trkpt lat="44.26013" lon="7.12372">
        <ele>1517</ele>
        <time>2022-07-19T05:03:35Z</time>
      </trkpt>
      <trkpt lat="44.26012" lon="7.12371">
        <ele>1517.2</ele>
        <time>2022-07-19T05:03:36Z</time>
      </trkpt>
      <trkpt lat="44.26011" lon="7.1237">
        <ele>1517.2</ele>
        <time>2022-07-19T05:03:37Z</time>
      </trkpt>
      <trkpt lat="44.2601" lon="7.12368">
        <ele>1517.4</ele>
        <time>2022-07-19T05:03:38Z</time>
      </trkpt>
      <trkpt lat="44.26009" lon="7.12367">
        <ele>1517.6</ele>
        <time>2022-07-19T05:03:39Z</time>
      </trkpt>
      <trkpt lat="44.26008" lon="7.12365">
        <ele>1517.6</ele>
        <time>2022-07-19T05:03:40Z</time>
      </trkpt>
      <trkpt lat="44.26007" lon="7.12364">
        <ele>1518</ele>
        <time>2022-07-19T05:03:41Z</time>
      </trkpt>
      <trkpt lat="44.26005" lon="7.12363">
        <ele>1518</ele>
        <time>2022-07-19T05:03:42Z</time>
      </trkpt>
      <trkpt lat="44.26005" lon="7.12361">
        <ele>1518.2</ele>
        <time>2022-07-19T05:03:43Z</time>
      </trkpt>
      <trkpt lat="44.26004" lon="7.1236">
        <ele>1518.2</ele>
        <time>2022-07-19T05:03:44Z</time>
      </trkpt>
      <trkpt lat="44.26002" lon="7.12359">
        <ele>1518.6</ele>
        <time>2022-07-19T05:03:45Z</time>
      </trkpt>
      <trkpt lat="44.26001" lon="7.12358">
        <ele>1518.6</ele>
        <time>2022-07-19T05:03:46Z</time>
      </trkpt>
      <trkpt lat="44.25999" lon="7.12358">
        <ele>1518.8</ele>
        <time>2022-07-19T05:03:47Z</time>
      </trkpt>
      <trkpt lat="44.25998" lon="7.12357">
        <ele>1519.2</ele>
        <time>2022-07-19T05:03:48Z</time>
      </trkpt>
      <trkpt lat="44.25997" lon="7.12356">
        <ele>1519.4</ele>
        <time>2022-07-19T05:03:49Z</time>
      </trkpt>
      <trkpt lat="44.25995" lon="7.12356">
        <ele>1519.6</ele>
        <time>2022-07-19T05:03:50Z</time>
      </trkpt>
      <trkpt lat="44.25994" lon="7.12356">
        <ele>1519.6</ele>
        <time>2022-07-19T05:03:51Z</time>
      </trkpt>
      <trkpt lat="44.25993" lon="7.12355">
        <ele>1519.8</ele>
        <time>2022-07-19T05:03:52Z</time>
      </trkpt>
      <trkpt lat="44.25991" lon="7.12354">
        <ele>1519.8</ele>
        <time>2022-07-19T05:03:53Z</time>
      </trkpt>
      <trkpt lat="44.2599" lon="7.12353">
        <ele>1520.2</ele>
        <time>2022-07-19T05:03:54Z</time>
      </trkpt>
      <trkpt lat="44.25989" lon="7.12352">
        <ele>1520.2</ele>
        <time>2022-07-19T05:03:55Z</time>
      </trkpt>
      <trkpt lat="44.25988" lon="7.12351">
        <ele>1520.6</ele>
        <time>2022-07-19T05:03:56Z</time>
      </trkpt>
      <trkpt lat="44.25987" lon="7.1235">
        <ele>1520.6</ele>
        <time>2022-07-19T05:03:57Z</time>
      </trkpt>
      <trkpt lat="44.25986" lon="7.12348">
        <ele>1520.8</ele>
        <time>2022-07-19T05:03:58Z</time>
      </trkpt>
      <trkpt lat="44.25985" lon="7.12345">
        <ele>1521</ele>
        <time>2022-07-19T05:03:59Z</time>
      </trkpt>
      <trkpt lat="44.25984" lon="7.12343">
        <ele>1521</ele>
        <time>2022-07-19T05:04:00Z</time>
      </trkpt>
      <trkpt lat="44.25983" lon="7.12341">
        <ele>1521.4</ele>
        <time>2022-07-19T05:04:01Z</time>
      </trkpt>
      <trkpt lat="44.25982" lon="7.12338">
        <ele>1521.4</ele>
        <time>2022-07-19T05:04:02Z</time>
      </trkpt>
      <trkpt lat="44.25982" lon="7.12335">
        <ele>1521.8</ele>
        <time>2022-07-19T05:04:03Z</time>
      </trkpt>
      <trkpt lat="44.25981" lon="7.12333">
        <ele>1522.2</ele>
        <time>2022-07-19T05:04:04Z</time>
      </trkpt>
      <trkpt lat="44.2598" lon="7.12332">
        <ele>1522.4</ele>
        <time>2022-07-19T05:04:05Z</time>
      </trkpt>
      <trkpt lat="44.25978" lon="7.12331">
        <ele>1522.6</ele>
        <time>2022-07-19T05:04:06Z</time>
      </trkpt>
      <trkpt lat="44.25977" lon="7.12329">
        <ele>1522.6</ele>
        <time>2022-07-19T05:04:07Z</time>
      </trkpt>
      <trkpt lat="44.25976" lon="7.12327">
        <ele>1523</ele>
        <time>2022-07-19T05:04:08Z</time>
      </trkpt>
      <trkpt lat="44.25974" lon="7.12326">
        <ele>1523.2</ele>
        <time>2022-07-19T05:04:09Z</time>
      </trkpt>
      <trkpt lat="44.25973" lon="7.12325">
        <ele>1523.2</ele>
        <time>2022-07-19T05:04:10Z</time>
      </trkpt>
      <trkpt lat="44.25972" lon="7.12323">
        <ele>1523.6</ele>
        <time>2022-07-19T05:04:11Z</time>
      </trkpt>
      <trkpt lat="44.25971" lon="7.12322">
        <ele>1523.8</ele>
        <time>2022-07-19T05:04:12Z</time>
      </trkpt>
      <trkpt lat="44.2597" lon="7.12321">
        <ele>1524</ele>
        <time>2022-07-19T05:04:13Z</time>
      </trkpt>
      <trkpt lat="44.2597" lon="7.1232">
        <ele>1524</ele>
        <time>2022-07-19T05:04:14Z</time>
      </trkpt>
      <trkpt lat="44.25969" lon="7.12318">
        <ele>1524.4</ele>
        <time>2022-07-19T05:04:15Z</time>
      </trkpt>
      <trkpt lat="44.25968" lon="7.12317">
        <ele>1524.4</ele>
        <time>2022-07-19T05:04:16Z</time>
      </trkpt>
      <trkpt lat="44.25966" lon="7.12316">
        <ele>1524.6</ele>
        <time>2022-07-19T05:04:17Z</time>
      </trkpt>
      <trkpt lat="44.25965" lon="7.12315">
        <ele>1524.6</ele>
        <time>2022-07-19T05:04:18Z</time>
      </trkpt>
      <trkpt lat="44.25964" lon="7.12314">
        <ele>1525</ele>
        <time>2022-07-19T05:04:19Z</time>
      </trkpt>
      <trkpt lat="44.25963" lon="7.12313">
        <ele>1525</ele>
        <time>2022-07-19T05:04:20Z</time>
      </trkpt>
      <trkpt lat="44.25961" lon="7.12312">
        <ele>1525.4</ele>
        <time>2022-07-19T05:04:21Z</time>
      </trkpt>
      <trkpt lat="44.2596" lon="7.12311">
        <ele>1525.4</ele>
        <time>2022-07-19T05:04:22Z</time>
      </trkpt>
      <trkpt lat="44.25958" lon="7.12311">
        <ele>1525.6</ele>
        <time>2022-07-19T05:04:23Z</time>
      </trkpt>
      <trkpt lat="44.25956" lon="7.1231">
        <ele>1525.6</ele>
        <time>2022-07-19T05:04:24Z</time>
      </trkpt>
      <trkpt lat="44.25955" lon="7.12309">
        <ele>1526</ele>
        <time>2022-07-19T05:04:25Z</time>
      </trkpt>
      <trkpt lat="44.25954" lon="7.12308">
        <ele>1526</ele>
        <time>2022-07-19T05:04:26Z</time>
      </trkpt>
      <trkpt lat="44.25952" lon="7.12306">
        <ele>1526.2</ele>
        <time>2022-07-19T05:04:27Z</time>
      </trkpt>
      <trkpt lat="44.25951" lon="7.12305">
        <ele>1526.2</ele>
        <time>2022-07-19T05:04:28Z</time>
      </trkpt>
      <trkpt lat="44.25949" lon="7.12305">
        <ele>1526.4</ele>
        <time>2022-07-19T05:04:29Z</time>
      </trkpt>
      <trkpt lat="44.25947" lon="7.12304">
        <ele>1526.4</ele>
        <time>2022-07-19T05:04:30Z</time>
      </trkpt>
      <trkpt lat="44.25945" lon="7.12303">
        <ele>1526.6</ele>
        <time>2022-07-19T05:04:31Z</time>
      </trkpt>
      <trkpt lat="44.25944" lon="7.12302">
        <ele>1526.6</ele>
        <time>2022-07-19T05:04:32Z</time>
      </trkpt>
      <trkpt lat="44.25942" lon="7.12301">
        <ele>1527</ele>
        <time>2022-07-19T05:04:33Z</time>
      </trkpt>
      <trkpt lat="44.25941" lon="7.123">
        <ele>1527</ele>
        <time>2022-07-19T05:04:34Z</time>
      </trkpt>
      <trkpt lat="44.2594" lon="7.12299">
        <ele>1527.4</ele>
        <time>2022-07-19T05:04:35Z</time>
      </trkpt>
      <trkpt lat="44.2594" lon="7.12298">
        <ele>1527.4</ele>
        <time>2022-07-19T05:04:36Z</time>
      </trkpt>
      <trkpt lat="44.25938" lon="7.12297">
        <ele>1527.8</ele>
        <time>2022-07-19T05:04:37Z</time>
      </trkpt>
      <trkpt lat="44.25937" lon="7.12295">
        <ele>1528</ele>
        <time>2022-07-19T05:04:38Z</time>
      </trkpt>
      <trkpt lat="44.25936" lon="7.12294">
        <ele>1528</ele>
        <time>2022-07-19T05:04:39Z</time>
      </trkpt>
      <trkpt lat="44.25935" lon="7.12292">
        <ele>1528.2</ele>
        <time>2022-07-19T05:04:40Z</time>
      </trkpt>
      <trkpt lat="44.25934" lon="7.12291">
        <ele>1528.2</ele>
        <time>2022-07-19T05:04:41Z</time>
      </trkpt>
      <trkpt lat="44.25934" lon="7.12288">
        <ele>1528.6</ele>
        <time>2022-07-19T05:04:42Z</time>
      </trkpt>
      <trkpt lat="44.25933" lon="7.12286">
        <ele>1528.6</ele>
        <time>2022-07-19T05:04:43Z</time>
      </trkpt>
      <trkpt lat="44.25932" lon="7.12284">
        <ele>1529</ele>
        <time>2022-07-19T05:04:44Z</time>
      </trkpt>
      <trkpt lat="44.25931" lon="7.12282">
        <ele>1529.2</ele>
        <time>2022-07-19T05:04:45Z</time>
      </trkpt>
      <trkpt lat="44.25929" lon="7.12279">
        <ele>1529.6</ele>
        <time>2022-07-19T05:04:46Z</time>
      </trkpt>
      <trkpt lat="44.25928" lon="7.12278">
        <ele>1529.8</ele>
        <time>2022-07-19T05:04:47Z</time>
      </trkpt>
      <trkpt lat="44.25927" lon="7.12276">
        <ele>1529.8</ele>
        <time>2022-07-19T05:04:48Z</time>
      </trkpt>
      <trkpt lat="44.25926" lon="7.12275">
        <ele>1530</ele>
        <time>2022-07-19T05:04:49Z</time>
      </trkpt>
      <trkpt lat="44.25925" lon="7.12273">
        <ele>1530</ele>
        <time>2022-07-19T05:04:50Z</time>
      </trkpt>
      <trkpt lat="44.25924" lon="7.12272">
        <ele>1530.2</ele>
        <time>2022-07-19T05:04:51Z</time>
      </trkpt>
      <trkpt lat="44.25924" lon="7.12271">
        <ele>1530.2</ele>
        <time>2022-07-19T05:04:52Z</time>
      </trkpt>
      <trkpt lat="44.25922" lon="7.12269">
        <ele>1530.4</ele>
        <time>2022-07-19T05:04:53Z</time>
      </trkpt>
      <trkpt lat="44.2592" lon="7.12268">
        <ele>1530.4</ele>
        <time>2022-07-19T05:04:54Z</time>
      </trkpt>
      <trkpt lat="44.25918" lon="7.12267">
        <ele>1530.8</ele>
        <time>2022-07-19T05:04:55Z</time>
      </trkpt>
      <trkpt lat="44.25917" lon="7.12266">
        <ele>1531</ele>
        <time>2022-07-19T05:04:56Z</time>
      </trkpt>
      <trkpt lat="44.25915" lon="7.12265">
        <ele>1531.2</ele>
        <time>2022-07-19T05:04:57Z</time>
      </trkpt>
      <trkpt lat="44.25914" lon="7.12263">
        <ele>1531.4</ele>
        <time>2022-07-19T05:04:58Z</time>
      </trkpt>
      <trkpt lat="44.25913" lon="7.12261">
        <ele>1531.8</ele>
        <time>2022-07-19T05:04:59Z</time>
      </trkpt>
      <trkpt lat="44.25912" lon="7.1226">
        <ele>1532</ele>
        <time>2022-07-19T05:05:00Z</time>
      </trkpt>
      <trkpt lat="44.25911" lon="7.12259">
        <ele>1532.2</ele>
        <time>2022-07-19T05:05:01Z</time>
      </trkpt>
      <trkpt lat="44.25909" lon="7.12258">
        <ele>1532.2</ele>
        <time>2022-07-19T05:05:02Z</time>
      </trkpt>
      <trkpt lat="44.25907" lon="7.12258">
        <ele>1532.6</ele>
        <time>2022-07-19T05:05:03Z</time>
      </trkpt>
      <trkpt lat="44.25905" lon="7.12257">
        <ele>1532.8</ele>
        <time>2022-07-19T05:05:04Z</time>
      </trkpt>
      <trkpt lat="44.25903" lon="7.12257">
        <ele>1533</ele>
        <time>2022-07-19T05:05:05Z</time>
      </trkpt>
      <trkpt lat="44.25901" lon="7.12256">
        <ele>1533</ele>
        <time>2022-07-19T05:05:06Z</time>
      </trkpt>
      <trkpt lat="44.25899" lon="7.12254">
        <ele>1533.4</ele>
        <time>2022-07-19T05:05:07Z</time>
      </trkpt>
      <trkpt lat="44.25898" lon="7.12253">
        <ele>1533.4</ele>
        <time>2022-07-19T05:05:08Z</time>
      </trkpt>
      <trkpt lat="44.25896" lon="7.12253">
        <ele>1533.8</ele>
        <time>2022-07-19T05:05:09Z</time>
      </trkpt>
      <trkpt lat="44.25895" lon="7.12253">
        <ele>1534</ele>
        <time>2022-07-19T05:05:10Z</time>
      </trkpt>
      <trkpt lat="44.25893" lon="7.12253">
        <ele>1534.2</ele>
        <time>2022-07-19T05:05:11Z</time>
      </trkpt>
      <trkpt lat="44.25892" lon="7.12252">
        <ele>1534.4</ele>
        <time>2022-07-19T05:05:12Z</time>
      </trkpt>
      <trkpt lat="44.25892" lon="7.12251">
        <ele>1534.4</ele>
        <time>2022-07-19T05:05:13Z</time>
      </trkpt>
      <trkpt lat="44.25891" lon="7.1225">
        <ele>1534.8</ele>
        <time>2022-07-19T05:05:14Z</time>
      </trkpt>
      <trkpt lat="44.2589" lon="7.12249">
        <ele>1535</ele>
        <time>2022-07-19T05:05:15Z</time>
      </trkpt>
      <trkpt lat="44.25888" lon="7.12248">
        <ele>1535.2</ele>
        <time>2022-07-19T05:05:16Z</time>
      </trkpt>
      <trkpt lat="44.25887" lon="7.12248">
        <ele>1535.2</ele>
        <time>2022-07-19T05:05:17Z</time>
      </trkpt>
      <trkpt lat="44.25885" lon="7.12248">
        <ele>1535.4</ele>
        <time>2022-07-19T05:05:18Z</time>
      </trkpt>
      <trkpt lat="44.25884" lon="7.12248">
        <ele>1535.4</ele>
        <time>2022-07-19T05:05:19Z</time>
      </trkpt>
      <trkpt lat="44.25883" lon="7.12247">
        <ele>1535.8</ele>
        <time>2022-07-19T05:05:20Z</time>
      </trkpt>
      <trkpt lat="44.25882" lon="7.12247">
        <ele>1535.8</ele>
        <time>2022-07-19T05:05:21Z</time>
      </trkpt>
      <trkpt lat="44.2588" lon="7.12246">
        <ele>1536</ele>
        <time>2022-07-19T05:05:22Z</time>
      </trkpt>
      <trkpt lat="44.25879" lon="7.12246">
        <ele>1536</ele>
        <time>2022-07-19T05:05:23Z</time>
      </trkpt>
      <trkpt lat="44.25877" lon="7.12245">
        <ele>1536.4</ele>
        <time>2022-07-19T05:05:24Z</time>
      </trkpt>
      <trkpt lat="44.25876" lon="7.12244">
        <ele>1536.4</ele>
        <time>2022-07-19T05:05:25Z</time>
      </trkpt>
      <trkpt lat="44.25875" lon="7.12243">
        <ele>1536.6</ele>
        <time>2022-07-19T05:05:26Z</time>
      </trkpt>
      <trkpt lat="44.25874" lon="7.12242">
        <ele>1536.6</ele>
        <time>2022-07-19T05:05:27Z</time>
      </trkpt>
      <trkpt lat="44.25873" lon="7.1224">
        <ele>1536.6</ele>
        <time>2022-07-19T05:05:28Z</time>
      </trkpt>
      <trkpt lat="44.25872" lon="7.12237">
        <ele>1537</ele>
        <time>2022-07-19T05:05:29Z</time>
      </trkpt>
      <trkpt lat="44.25872" lon="7.12235">
        <ele>1537</ele>
        <time>2022-07-19T05:05:30Z</time>
      </trkpt>
      <trkpt lat="44.25871" lon="7.12232">
        <ele>1537.2</ele>
        <time>2022-07-19T05:05:31Z</time>
      </trkpt>
      <trkpt lat="44.25871" lon="7.1223">
        <ele>1537.2</ele>
        <time>2022-07-19T05:05:32Z</time>
      </trkpt>
      <trkpt lat="44.25873" lon="7.12228">
        <ele>1537.2</ele>
        <time>2022-07-19T05:05:33Z</time>
      </trkpt>
      <trkpt lat="44.25874" lon="7.12226">
        <ele>1537.4</ele>
        <time>2022-07-19T05:05:34Z</time>
      </trkpt>
      <trkpt lat="44.25877" lon="7.12225">
        <ele>1537.4</ele>
        <time>2022-07-19T05:05:35Z</time>
      </trkpt>
      <trkpt lat="44.25879" lon="7.12225">
        <ele>1537.6</ele>
        <time>2022-07-19T05:05:36Z</time>
      </trkpt>
      <trkpt lat="44.25881" lon="7.12226">
        <ele>1537.6</ele>
        <time>2022-07-19T05:05:37Z</time>
      </trkpt>
      <trkpt lat="44.25884" lon="7.12227">
        <ele>1537.8</ele>
        <time>2022-07-19T05:05:38Z</time>
      </trkpt>
      <trkpt lat="44.25885" lon="7.12229">
        <ele>1537.8</ele>
        <time>2022-07-19T05:05:39Z</time>
      </trkpt>
      <trkpt lat="44.25887" lon="7.1223">
        <ele>1537.8</ele>
        <time>2022-07-19T05:05:40Z</time>
      </trkpt>
      <trkpt lat="44.2589" lon="7.12232">
        <ele>1538.2</ele>
        <time>2022-07-19T05:05:41Z</time>
      </trkpt>
      <trkpt lat="44.25892" lon="7.12233">
        <ele>1538.2</ele>
        <time>2022-07-19T05:05:42Z</time>
      </trkpt>
      <trkpt lat="44.25893" lon="7.12234">
        <ele>1538.4</ele>
        <time>2022-07-19T05:05:43Z</time>
      </trkpt>
      <trkpt lat="44.25895" lon="7.12235">
        <ele>1538.4</ele>
        <time>2022-07-19T05:05:44Z</time>
      </trkpt>
      <trkpt lat="44.25897" lon="7.12235">
        <ele>1538.4</ele>
        <time>2022-07-19T05:05:45Z</time>
      </trkpt>
      <trkpt lat="44.25899" lon="7.12236">
        <ele>1538.6</ele>
        <time>2022-07-19T05:05:46Z</time>
      </trkpt>
      <trkpt lat="44.25901" lon="7.12237">
        <ele>1538.6</ele>
        <time>2022-07-19T05:05:47Z</time>
      </trkpt>
      <trkpt lat="44.25903" lon="7.12237">
        <ele>1538.6</ele>
        <time>2022-07-19T05:05:48Z</time>
      </trkpt>
      <trkpt lat="44.25905" lon="7.12237">
        <ele>1539</ele>
        <time>2022-07-19T05:05:49Z</time>
      </trkpt>
      <trkpt lat="44.25908" lon="7.12237">
        <ele>1539</ele>
        <time>2022-07-19T05:05:50Z</time>
      </trkpt>
      <trkpt lat="44.2591" lon="7.12238">
        <ele>1539.4</ele>
        <time>2022-07-19T05:05:51Z</time>
      </trkpt>
      <trkpt lat="44.25912" lon="7.12238">
        <ele>1539.4</ele>
        <time>2022-07-19T05:05:52Z</time>
      </trkpt>
      <trkpt lat="44.25914" lon="7.12238">
        <ele>1539.6</ele>
        <time>2022-07-19T05:05:53Z</time>
      </trkpt>
      <trkpt lat="44.25916" lon="7.12238">
        <ele>1539.6</ele>
        <time>2022-07-19T05:05:54Z</time>
      </trkpt>
      <trkpt lat="44.25919" lon="7.12238">
        <ele>1539.6</ele>
        <time>2022-07-19T05:05:55Z</time>
      </trkpt>
      <trkpt lat="44.25921" lon="7.12238">
        <ele>1540</ele>
        <time>2022-07-19T05:05:56Z</time>
      </trkpt>
      <trkpt lat="44.25924" lon="7.12238">
        <ele>1540</ele>
        <time>2022-07-19T05:05:57Z</time>
      </trkpt>
      <trkpt lat="44.25926" lon="7.12238">
        <ele>1540.4</ele>
        <time>2022-07-19T05:05:58Z</time>
      </trkpt>
      <trkpt lat="44.25928" lon="7.12238">
        <ele>1540.4</ele>
        <time>2022-07-19T05:05:59Z</time>
      </trkpt>
      <trkpt lat="44.2593" lon="7.12238">
        <ele>1540.6</ele>
        <time>2022-07-19T05:06:00Z</time>
      </trkpt>
      <trkpt lat="44.25932" lon="7.12238">
        <ele>1540.6</ele>
        <time>2022-07-19T05:06:01Z</time>
      </trkpt>
      <trkpt lat="44.25935" lon="7.12238">
        <ele>1541</ele>
        <time>2022-07-19T05:06:02Z</time>
      </trkpt>
      <trkpt lat="44.25937" lon="7.12239">
        <ele>1541</ele>
        <time>2022-07-19T05:06:03Z</time>
      </trkpt>
      <trkpt lat="44.25939" lon="7.12239">
        <ele>1541.2</ele>
        <time>2022-07-19T05:06:04Z</time>
      </trkpt>
      <trkpt lat="44.25941" lon="7.12239">
        <ele>1541.4</ele>
        <time>2022-07-19T05:06:05Z</time>
      </trkpt>
      <trkpt lat="44.25944" lon="7.12239">
        <ele>1541.6</ele>
        <time>2022-07-19T05:06:06Z</time>
      </trkpt>
      <trkpt lat="44.25945" lon="7.1224">
        <ele>1541.6</ele>
        <time>2022-07-19T05:06:07Z</time>
      </trkpt>
      <trkpt lat="44.25947" lon="7.1224">
        <ele>1541.8</ele>
        <time>2022-07-19T05:06:08Z</time>
      </trkpt>
      <trkpt lat="44.2595" lon="7.12241">
        <ele>1541.8</ele>
        <time>2022-07-19T05:06:09Z</time>
      </trkpt>
      <trkpt lat="44.25952" lon="7.12241">
        <ele>1542.2</ele>
        <time>2022-07-19T05:06:10Z</time>
      </trkpt>
      <trkpt lat="44.25954" lon="7.12242">
        <ele>1542.2</ele>
        <time>2022-07-19T05:06:11Z</time>
      </trkpt>
      <trkpt lat="44.25957" lon="7.12243">
        <ele>1542.4</ele>
        <time>2022-07-19T05:06:12Z</time>
      </trkpt>
      <trkpt lat="44.25959" lon="7.12245">
        <ele>1542.4</ele>
        <time>2022-07-19T05:06:13Z</time>
      </trkpt>
      <trkpt lat="44.25961" lon="7.12247">
        <ele>1542.4</ele>
        <time>2022-07-19T05:06:14Z</time>
      </trkpt>
      <trkpt lat="44.25963" lon="7.12249">
        <ele>1542.8</ele>
        <time>2022-07-19T05:06:15Z</time>
      </trkpt>
      <trkpt lat="44.25965" lon="7.1225">
        <ele>1542.8</ele>
        <time>2022-07-19T05:06:16Z</time>
      </trkpt>
      <trkpt lat="44.25967" lon="7.12251">
        <ele>1543.2</ele>
        <time>2022-07-19T05:06:17Z</time>
      </trkpt>
      <trkpt lat="44.25969" lon="7.12252">
        <ele>1543.4</ele>
        <time>2022-07-19T05:06:18Z</time>
      </trkpt>
      <trkpt lat="44.25971" lon="7.12253">
        <ele>1543.4</ele>
        <time>2022-07-19T05:06:19Z</time>
      </trkpt>
      <trkpt lat="44.25973" lon="7.12255">
        <ele>1543.6</ele>
        <time>2022-07-19T05:06:20Z</time>
      </trkpt>
      <trkpt lat="44.25975" lon="7.12257">
        <ele>1543.6</ele>
        <time>2022-07-19T05:06:21Z</time>
      </trkpt>
      <trkpt lat="44.25976" lon="7.12258">
        <ele>1544</ele>
        <time>2022-07-19T05:06:22Z</time>
      </trkpt>
      <trkpt lat="44.25978" lon="7.12259">
        <ele>1544.2</ele>
        <time>2022-07-19T05:06:23Z</time>
      </trkpt>
      <trkpt lat="44.25979" lon="7.1226">
        <ele>1544.2</ele>
        <time>2022-07-19T05:06:24Z</time>
      </trkpt>
      <trkpt lat="44.25981" lon="7.12261">
        <ele>1544.4</ele>
        <time>2022-07-19T05:06:25Z</time>
      </trkpt>
      <trkpt lat="44.25983" lon="7.12261">
        <ele>1544.4</ele>
        <time>2022-07-19T05:06:26Z</time>
      </trkpt>
      <trkpt lat="44.25985" lon="7.12262">
        <ele>1544.8</ele>
        <time>2022-07-19T05:06:27Z</time>
      </trkpt>
      <trkpt lat="44.25987" lon="7.12263">
        <ele>1544.8</ele>
        <time>2022-07-19T05:06:28Z</time>
      </trkpt>
      <trkpt lat="44.25989" lon="7.12265">
        <ele>1545</ele>
        <time>2022-07-19T05:06:29Z</time>
      </trkpt>
      <trkpt lat="44.25991" lon="7.12266">
        <ele>1545</ele>
        <time>2022-07-19T05:06:30Z</time>
      </trkpt>
      <trkpt lat="44.25993" lon="7.12267">
        <ele>1545.2</ele>
        <time>2022-07-19T05:06:31Z</time>
      </trkpt>
      <trkpt lat="44.25995" lon="7.12267">
        <ele>1545.2</ele>
        <time>2022-07-19T05:06:32Z</time>
      </trkpt>
      <trkpt lat="44.25997" lon="7.12268">
        <ele>1545.6</ele>
        <time>2022-07-19T05:06:33Z</time>
      </trkpt>
      <trkpt lat="44.25999" lon="7.12269">
        <ele>1545.6</ele>
        <time>2022-07-19T05:06:34Z</time>
      </trkpt>
      <trkpt lat="44.26" lon="7.1227">
        <ele>1545.8</ele>
        <time>2022-07-19T05:06:35Z</time>
      </trkpt>
      <trkpt lat="44.26002" lon="7.1227">
        <ele>1545.8</ele>
        <time>2022-07-19T05:06:36Z</time>
      </trkpt>
      <trkpt lat="44.26004" lon="7.12271">
        <ele>1546.2</ele>
        <time>2022-07-19T05:06:37Z</time>
      </trkpt>
      <trkpt lat="44.26007" lon="7.12271">
        <ele>1546.2</ele>
        <time>2022-07-19T05:06:38Z</time>
      </trkpt>
      <trkpt lat="44.26009" lon="7.12271">
        <ele>1546.4</ele>
        <time>2022-07-19T05:06:39Z</time>
      </trkpt>
      <trkpt lat="44.26011" lon="7.12272">
        <ele>1546.4</ele>
        <time>2022-07-19T05:06:40Z</time>
      </trkpt>
      <trkpt lat="44.26013" lon="7.12272">
        <ele>1546.8</ele>
        <time>2022-07-19T05:06:41Z</time>
      </trkpt>
      <trkpt lat="44.26015" lon="7.12272">
        <ele>1546.8</ele>
        <time>2022-07-19T05:06:42Z</time>
      </trkpt>
      <trkpt lat="44.26017" lon="7.12272">
        <ele>1547</ele>
        <time>2022-07-19T05:06:43Z</time>
      </trkpt>
      <trkpt lat="44.26019" lon="7.12272">
        <ele>1547.2</ele>
        <time>2022-07-19T05:06:44Z</time>
      </trkpt>
      <trkpt lat="44.26021" lon="7.12273">
        <ele>1547.2</ele>
        <time>2022-07-19T05:06:45Z</time>
      </trkpt>
      <trkpt lat="44.26023" lon="7.12273">
        <ele>1547.6</ele>
        <time>2022-07-19T05:06:46Z</time>
      </trkpt>
      <trkpt lat="44.26024" lon="7.12273">
        <ele>1547.6</ele>
        <time>2022-07-19T05:06:47Z</time>
      </trkpt>
      <trkpt lat="44.26026" lon="7.12274">
        <ele>1547.8</ele>
        <time>2022-07-19T05:06:48Z</time>
      </trkpt>
      <trkpt lat="44.26028" lon="7.12275">
        <ele>1547.8</ele>
        <time>2022-07-19T05:06:49Z</time>
      </trkpt>
      <trkpt lat="44.2603" lon="7.12276">
        <ele>1548.2</ele>
        <time>2022-07-19T05:06:50Z</time>
      </trkpt>
      <trkpt lat="44.26032" lon="7.12277">
        <ele>1548.2</ele>
        <time>2022-07-19T05:06:51Z</time>
      </trkpt>
      <trkpt lat="44.26034" lon="7.12278">
        <ele>1548.4</ele>
        <time>2022-07-19T05:06:52Z</time>
      </trkpt>
      <trkpt lat="44.26036" lon="7.12279">
        <ele>1548.4</ele>
        <time>2022-07-19T05:06:53Z</time>
      </trkpt>
      <trkpt lat="44.26038" lon="7.12281">
        <ele>1548.6</ele>
        <time>2022-07-19T05:06:54Z</time>
      </trkpt>
      <trkpt lat="44.2604" lon="7.12282">
        <ele>1548.6</ele>
        <time>2022-07-19T05:06:55Z</time>
      </trkpt>
      <trkpt lat="44.26041" lon="7.12282">
        <ele>1548.6</ele>
        <time>2022-07-19T05:06:56Z</time>
      </trkpt>
      <trkpt lat="44.26043" lon="7.12283">
        <ele>1548.8</ele>
        <time>2022-07-19T05:06:57Z</time>
      </trkpt>
      <trkpt lat="44.26045" lon="7.12283">
        <ele>1548.8</ele>
        <time>2022-07-19T05:06:58Z</time>
      </trkpt>
      <trkpt lat="44.26047" lon="7.12284">
        <ele>1548.8</ele>
        <time>2022-07-19T05:06:59Z</time>
      </trkpt>
      <trkpt lat="44.26049" lon="7.12283">
        <ele>1549.2</ele>
        <time>2022-07-19T05:07:00Z</time>
      </trkpt>
      <trkpt lat="44.26051" lon="7.12283">
        <ele>1549.2</ele>
        <time>2022-07-19T05:07:01Z</time>
      </trkpt>
      <trkpt lat="44.26052" lon="7.12281">
        <ele>1549.2</ele>
        <time>2022-07-19T05:07:02Z</time>
      </trkpt>
      <trkpt lat="44.26053" lon="7.1228">
        <ele>1549.4</ele>
        <time>2022-07-19T05:07:03Z</time>
      </trkpt>
      <trkpt lat="44.26055" lon="7.12278">
        <ele>1549.4</ele>
        <time>2022-07-19T05:07:04Z</time>
      </trkpt>
      <trkpt lat="44.26056" lon="7.12275">
        <ele>1549.4</ele>
        <time>2022-07-19T05:07:05Z</time>
      </trkpt>
      <trkpt lat="44.26056" lon="7.12271">
        <ele>1549.6</ele>
        <time>2022-07-19T05:07:06Z</time>
      </trkpt>
      <trkpt lat="44.26056" lon="7.12268">
        <ele>1549.6</ele>
        <time>2022-07-19T05:07:07Z</time>
      </trkpt>
      <trkpt lat="44.26055" lon="7.12266">
        <ele>1549.6</ele>
        <time>2022-07-19T05:07:08Z</time>
      </trkpt>
      <trkpt lat="44.26053" lon="7.12264">
        <ele>1549.8</ele>
        <time>2022-07-19T05:07:09Z</time>
      </trkpt>
      <trkpt lat="44.26052" lon="7.12263">
        <ele>1549.8</ele>
        <time>2022-07-19T05:07:10Z</time>
      </trkpt>
      <trkpt lat="44.26049" lon="7.12262">
        <ele>1550.2</ele>
        <time>2022-07-19T05:07:11Z</time>
      </trkpt>
      <trkpt lat="44.26047" lon="7.12262">
        <ele>1550.2</ele>
        <time>2022-07-19T05:07:12Z</time>
      </trkpt>
      <trkpt lat="44.26045" lon="7.12261">
        <ele>1550.4</ele>
        <time>2022-07-19T05:07:13Z</time>
      </trkpt>
      <trkpt lat="44.26043" lon="7.12261">
        <ele>1550.6</ele>
        <time>2022-07-19T05:07:14Z</time>
      </trkpt>
      <trkpt lat="44.26041" lon="7.12261">
        <ele>1550.6</ele>
        <time>2022-07-19T05:07:15Z</time>
      </trkpt>
      <trkpt lat="44.26038" lon="7.1226">
        <ele>1551</ele>
        <time>2022-07-19T05:07:16Z</time>
      </trkpt>
      <trkpt lat="44.26037" lon="7.1226">
        <ele>1551</ele>
        <time>2022-07-19T05:07:17Z</time>
      </trkpt>
      <trkpt lat="44.26035" lon="7.12259">
        <ele>1551.4</ele>
        <time>2022-07-19T05:07:18Z</time>
      </trkpt>
      <trkpt lat="44.26034" lon="7.12258">
        <ele>1551.4</ele>
        <time>2022-07-19T05:07:19Z</time>
      </trkpt>
      <trkpt lat="44.26032" lon="7.12256">
        <ele>1551.8</ele>
        <time>2022-07-19T05:07:20Z</time>
      </trkpt>
      <trkpt lat="44.26031" lon="7.12255">
        <ele>1551.8</ele>
        <time>2022-07-19T05:07:21Z</time>
      </trkpt>
      <trkpt lat="44.26029" lon="7.12253">
        <ele>1552</ele>
        <time>2022-07-19T05:07:22Z</time>
      </trkpt>
      <trkpt lat="44.26028" lon="7.12251">
        <ele>1552</ele>
        <time>2022-07-19T05:07:23Z</time>
      </trkpt>
      <trkpt lat="44.26026" lon="7.12251">
        <ele>1552.4</ele>
        <time>2022-07-19T05:07:24Z</time>
      </trkpt>
      <trkpt lat="44.26024" lon="7.1225">
        <ele>1552.4</ele>
        <time>2022-07-19T05:07:25Z</time>
      </trkpt>
      <trkpt lat="44.26023" lon="7.12249">
        <ele>1552.8</ele>
        <time>2022-07-19T05:07:26Z</time>
      </trkpt>
      <trkpt lat="44.26022" lon="7.12248">
        <ele>1553</ele>
        <time>2022-07-19T05:07:27Z</time>
      </trkpt>
      <trkpt lat="44.2602" lon="7.12247">
        <ele>1553</ele>
        <time>2022-07-19T05:07:28Z</time>
      </trkpt>
      <trkpt lat="44.26019" lon="7.12246">
        <ele>1553.4</ele>
        <time>2022-07-19T05:07:29Z</time>
      </trkpt>
      <trkpt lat="44.26017" lon="7.12244">
        <ele>1553.4</ele>
        <time>2022-07-19T05:07:30Z</time>
      </trkpt>
      <trkpt lat="44.26016" lon="7.12243">
        <ele>1553.8</ele>
        <time>2022-07-19T05:07:31Z</time>
      </trkpt>
      <trkpt lat="44.26014" lon="7.12241">
        <ele>1553.8</ele>
        <time>2022-07-19T05:07:32Z</time>
      </trkpt>
      <trkpt lat="44.26013" lon="7.12239">
        <ele>1554.2</ele>
        <time>2022-07-19T05:07:33Z</time>
      </trkpt>
      <trkpt lat="44.26012" lon="7.12237">
        <ele>1554.2</ele>
        <time>2022-07-19T05:07:34Z</time>
      </trkpt>
      <trkpt lat="44.26011" lon="7.12235">
        <ele>1554.6</ele>
        <time>2022-07-19T05:07:35Z</time>
      </trkpt>
      <trkpt lat="44.2601" lon="7.12234">
        <ele>1554.8</ele>
        <time>2022-07-19T05:07:36Z</time>
      </trkpt>
      <trkpt lat="44.26009" lon="7.12233">
        <ele>1554.8</ele>
        <time>2022-07-19T05:07:37Z</time>
      </trkpt>
      <trkpt lat="44.26008" lon="7.12231">
        <ele>1555.2</ele>
        <time>2022-07-19T05:07:38Z</time>
      </trkpt>
      <trkpt lat="44.26007" lon="7.12229">
        <ele>1555.2</ele>
        <time>2022-07-19T05:07:39Z</time>
      </trkpt>
      <trkpt lat="44.26006" lon="7.12228">
        <ele>1555.4</ele>
        <time>2022-07-19T05:07:40Z</time>
      </trkpt>
      <trkpt lat="44.26004" lon="7.12226">
        <ele>1555.4</ele>
        <time>2022-07-19T05:07:41Z</time>
      </trkpt>
      <trkpt lat="44.26003" lon="7.12225">
        <ele>1555.8</ele>
        <time>2022-07-19T05:07:42Z</time>
      </trkpt>
      <trkpt lat="44.26001" lon="7.12223">
        <ele>1556.2</ele>
        <time>2022-07-19T05:07:43Z</time>
      </trkpt>
      <trkpt lat="44.26" lon="7.12221">
        <ele>1556.2</ele>
        <time>2022-07-19T05:07:44Z</time>
      </trkpt>
      <trkpt lat="44.26" lon="7.12219">
        <ele>1556.2</ele>
        <time>2022-07-19T05:07:45Z</time>
      </trkpt>
      <trkpt lat="44.25999" lon="7.12217">
        <ele>1556.6</ele>
        <time>2022-07-19T05:07:46Z</time>
      </trkpt>
      <trkpt lat="44.25998" lon="7.12216">
        <ele>1556.6</ele>
        <time>2022-07-19T05:07:47Z</time>
      </trkpt>
      <trkpt lat="44.25998" lon="7.12214">
        <ele>1557</ele>
        <time>2022-07-19T05:07:48Z</time>
      </trkpt>
      <trkpt lat="44.25997" lon="7.12213">
        <ele>1557</ele>
        <time>2022-07-19T05:07:49Z</time>
      </trkpt>
      <trkpt lat="44.25996" lon="7.12211">
        <ele>1557.2</ele>
        <time>2022-07-19T05:07:50Z</time>
      </trkpt>
      <trkpt lat="44.25995" lon="7.12209">
        <ele>1557.2</ele>
        <time>2022-07-19T05:07:51Z</time>
      </trkpt>
      <trkpt lat="44.25995" lon="7.12207">
        <ele>1557.4</ele>
        <time>2022-07-19T05:07:52Z</time>
      </trkpt>
      <trkpt lat="44.25994" lon="7.12205">
        <ele>1557.8</ele>
        <time>2022-07-19T05:07:53Z</time>
      </trkpt>
      <trkpt lat="44.25993" lon="7.12204">
        <ele>1557.8</ele>
        <time>2022-07-19T05:07:54Z</time>
      </trkpt>
      <trkpt lat="44.25992" lon="7.12203">
        <ele>1558</ele>
        <time>2022-07-19T05:07:55Z</time>
      </trkpt>
      <trkpt lat="44.25991" lon="7.12201">
        <ele>1558.2</ele>
        <time>2022-07-19T05:07:56Z</time>
      </trkpt>
      <trkpt lat="44.2599" lon="7.122">
        <ele>1558.2</ele>
        <time>2022-07-19T05:07:57Z</time>
      </trkpt>
      <trkpt lat="44.25989" lon="7.12198">
        <ele>1558.6</ele>
        <time>2022-07-19T05:07:58Z</time>
      </trkpt>
      <trkpt lat="44.25988" lon="7.12197">
        <ele>1559</ele>
        <time>2022-07-19T05:07:59Z</time>
      </trkpt>
      <trkpt lat="44.25987" lon="7.12195">
        <ele>1559.2</ele>
        <time>2022-07-19T05:08:00Z</time>
      </trkpt>
      <trkpt lat="44.25986" lon="7.12193">
        <ele>1559.6</ele>
        <time>2022-07-19T05:08:01Z</time>
      </trkpt>
      <trkpt lat="44.25985" lon="7.12191">
        <ele>1559.8</ele>
        <time>2022-07-19T05:08:02Z</time>
      </trkpt>
      <trkpt lat="44.25984" lon="7.12189">
        <ele>1560</ele>
        <time>2022-07-19T05:08:03Z</time>
      </trkpt>
      <trkpt lat="44.25983" lon="7.12188">
        <ele>1560.2</ele>
        <time>2022-07-19T05:08:04Z</time>
      </trkpt>
      <trkpt lat="44.25982" lon="7.12186">
        <ele>1560.6</ele>
        <time>2022-07-19T05:08:05Z</time>
      </trkpt>
      <trkpt lat="44.25981" lon="7.12185">
        <ele>1560.8</ele>
        <time>2022-07-19T05:08:06Z</time>
      </trkpt>
      <trkpt lat="44.2598" lon="7.12184">
        <ele>1561.2</ele>
        <time>2022-07-19T05:08:07Z</time>
      </trkpt>
      <trkpt lat="44.25979" lon="7.12183">
        <ele>1561.2</ele>
        <time>2022-07-19T05:08:08Z</time>
      </trkpt>
      <trkpt lat="44.25978" lon="7.12182">
        <ele>1561.4</ele>
        <time>2022-07-19T05:08:09Z</time>
      </trkpt>
      <trkpt lat="44.25976" lon="7.12179">
        <ele>1561.4</ele>
        <time>2022-07-19T05:08:10Z</time>
      </trkpt>
      <trkpt lat="44.25975" lon="7.12178">
        <ele>1561.4</ele>
        <time>2022-07-19T05:08:11Z</time>
      </trkpt>
      <trkpt lat="44.25973" lon="7.12177">
        <ele>1561.8</ele>
        <time>2022-07-19T05:08:12Z</time>
      </trkpt>
      <trkpt lat="44.25972" lon="7.12176">
        <ele>1562</ele>
        <time>2022-07-19T05:08:13Z</time>
      </trkpt>
      <trkpt lat="44.25972" lon="7.12175">
        <ele>1562</ele>
        <time>2022-07-19T05:08:14Z</time>
      </trkpt>
      <trkpt lat="44.25971" lon="7.12173">
        <ele>1562.4</ele>
        <time>2022-07-19T05:08:15Z</time>
      </trkpt>
      <trkpt lat="44.2597" lon="7.12172">
        <ele>1562.4</ele>
        <time>2022-07-19T05:08:16Z</time>
      </trkpt>
      <trkpt lat="44.25969" lon="7.12172">
        <ele>1562.6</ele>
        <time>2022-07-19T05:08:17Z</time>
      </trkpt>
      <trkpt lat="44.25965" lon="7.1217">
        <ele>1562.6</ele>
        <time>2022-07-19T05:08:18Z</time>
      </trkpt>
      <trkpt lat="44.25963" lon="7.12169">
        <ele>1563</ele>
        <time>2022-07-19T05:08:19Z</time>
      </trkpt>
      <trkpt lat="44.25961" lon="7.12168">
        <ele>1563</ele>
        <time>2022-07-19T05:08:20Z</time>
      </trkpt>
      <trkpt lat="44.25959" lon="7.12166">
        <ele>1563.2</ele>
        <time>2022-07-19T05:08:21Z</time>
      </trkpt>
      <trkpt lat="44.25958" lon="7.12165">
        <ele>1563.2</ele>
        <time>2022-07-19T05:08:22Z</time>
      </trkpt>
      <trkpt lat="44.25956" lon="7.12164">
        <ele>1563.6</ele>
        <time>2022-07-19T05:08:23Z</time>
      </trkpt>
      <trkpt lat="44.25955" lon="7.12164">
        <ele>1563.6</ele>
        <time>2022-07-19T05:08:24Z</time>
      </trkpt>
      <trkpt lat="44.25953" lon="7.12162">
        <ele>1564</ele>
        <time>2022-07-19T05:08:25Z</time>
      </trkpt>
      <trkpt lat="44.25952" lon="7.12161">
        <ele>1564</ele>
        <time>2022-07-19T05:08:26Z</time>
      </trkpt>
      <trkpt lat="44.25951" lon="7.1216">
        <ele>1564.4</ele>
        <time>2022-07-19T05:08:27Z</time>
      </trkpt>
      <trkpt lat="44.2595" lon="7.12159">
        <ele>1564.6</ele>
        <time>2022-07-19T05:08:28Z</time>
      </trkpt>
      <trkpt lat="44.25949" lon="7.12158">
        <ele>1564.6</ele>
        <time>2022-07-19T05:08:29Z</time>
      </trkpt>
      <trkpt lat="44.25948" lon="7.12157">
        <ele>1564.8</ele>
        <time>2022-07-19T05:08:30Z</time>
      </trkpt>
      <trkpt lat="44.25947" lon="7.12156">
        <ele>1564.8</ele>
        <time>2022-07-19T05:08:31Z</time>
      </trkpt>
      <trkpt lat="44.25945" lon="7.12156">
        <ele>1565.2</ele>
        <time>2022-07-19T05:08:32Z</time>
      </trkpt>
      <trkpt lat="44.25944" lon="7.12155">
        <ele>1565.2</ele>
        <time>2022-07-19T05:08:33Z</time>
      </trkpt>
      <trkpt lat="44.25942" lon="7.12154">
        <ele>1565.6</ele>
        <time>2022-07-19T05:08:34Z</time>
      </trkpt>
      <trkpt lat="44.25941" lon="7.12153">
        <ele>1565.6</ele>
        <time>2022-07-19T05:08:35Z</time>
      </trkpt>
      <trkpt lat="44.2594" lon="7.12153">
        <ele>1565.8</ele>
        <time>2022-07-19T05:08:36Z</time>
      </trkpt>
      <trkpt lat="44.25939" lon="7.12153">
        <ele>1566</ele>
        <time>2022-07-19T05:08:37Z</time>
      </trkpt>
      <trkpt lat="44.25937" lon="7.12153">
        <ele>1566</ele>
        <time>2022-07-19T05:08:38Z</time>
      </trkpt>
      <trkpt lat="44.25936" lon="7.12152">
        <ele>1566.4</ele>
        <time>2022-07-19T05:08:39Z</time>
      </trkpt>
      <trkpt lat="44.25935" lon="7.12152">
        <ele>1566.4</ele>
        <time>2022-07-19T05:08:40Z</time>
      </trkpt>
      <trkpt lat="44.25933" lon="7.12153">
        <ele>1566.8</ele>
        <time>2022-07-19T05:08:41Z</time>
      </trkpt>
      <trkpt lat="44.25932" lon="7.12153">
        <ele>1566.8</ele>
        <time>2022-07-19T05:08:42Z</time>
      </trkpt>
      <trkpt lat="44.25931" lon="7.12154">
        <ele>1567</ele>
        <time>2022-07-19T05:08:43Z</time>
      </trkpt>
      <trkpt lat="44.25929" lon="7.12154">
        <ele>1567.2</ele>
        <time>2022-07-19T05:08:44Z</time>
      </trkpt>
      <trkpt lat="44.25928" lon="7.12154">
        <ele>1567.2</ele>
        <time>2022-07-19T05:08:45Z</time>
      </trkpt>
      <trkpt lat="44.25927" lon="7.12154">
        <ele>1567.6</ele>
        <time>2022-07-19T05:08:46Z</time>
      </trkpt>
      <trkpt lat="44.25926" lon="7.12154">
        <ele>1567.8</ele>
        <time>2022-07-19T05:08:47Z</time>
      </trkpt>
      <trkpt lat="44.25924" lon="7.12155">
        <ele>1567.8</ele>
        <time>2022-07-19T05:08:48Z</time>
      </trkpt>
      <trkpt lat="44.25923" lon="7.12155">
        <ele>1568.2</ele>
        <time>2022-07-19T05:08:49Z</time>
      </trkpt>
      <trkpt lat="44.25921" lon="7.12155">
        <ele>1568.2</ele>
        <time>2022-07-19T05:08:50Z</time>
      </trkpt>
      <trkpt lat="44.2592" lon="7.12155">
        <ele>1568.4</ele>
        <time>2022-07-19T05:08:51Z</time>
      </trkpt>
      <trkpt lat="44.25919" lon="7.12155">
        <ele>1568.8</ele>
        <time>2022-07-19T05:08:52Z</time>
      </trkpt>
      <trkpt lat="44.25917" lon="7.12155">
        <ele>1568.8</ele>
        <time>2022-07-19T05:08:53Z</time>
      </trkpt>
      <trkpt lat="44.25916" lon="7.12154">
        <ele>1569.2</ele>
        <time>2022-07-19T05:08:54Z</time>
      </trkpt>
      <trkpt lat="44.25914" lon="7.12153">
        <ele>1569.2</ele>
        <time>2022-07-19T05:08:55Z</time>
      </trkpt>
      <trkpt lat="44.25912" lon="7.12152">
        <ele>1569.4</ele>
        <time>2022-07-19T05:08:56Z</time>
      </trkpt>
      <trkpt lat="44.25911" lon="7.1215">
        <ele>1569.4</ele>
        <time>2022-07-19T05:08:57Z</time>
      </trkpt>
      <trkpt lat="44.2591" lon="7.12148">
        <ele>1569.4</ele>
        <time>2022-07-19T05:08:58Z</time>
      </trkpt>
      <trkpt lat="44.2591" lon="7.12146">
        <ele>1569.4</ele>
        <time>2022-07-19T05:08:59Z</time>
      </trkpt>
      <trkpt lat="44.25909" lon="7.12143">
        <ele>1569.4</ele>
        <time>2022-07-19T05:09:00Z</time>
      </trkpt>
      <trkpt lat="44.25909" lon="7.1214">
        <ele>1569.4</ele>
        <time>2022-07-19T05:09:01Z</time>
      </trkpt>
      <trkpt lat="44.2591" lon="7.12137">
        <ele>1569.4</ele>
        <time>2022-07-19T05:09:02Z</time>
      </trkpt>
      <trkpt lat="44.25911" lon="7.12136">
        <ele>1569.6</ele>
        <time>2022-07-19T05:09:03Z</time>
      </trkpt>
      <trkpt lat="44.25913" lon="7.12136">
        <ele>1569.6</ele>
        <time>2022-07-19T05:09:04Z</time>
      </trkpt>
      <trkpt lat="44.25915" lon="7.12135">
        <ele>1569.8</ele>
        <time>2022-07-19T05:09:05Z</time>
      </trkpt>
      <trkpt lat="44.25917" lon="7.12135">
        <ele>1569.8</ele>
        <time>2022-07-19T05:09:06Z</time>
      </trkpt>
      <trkpt lat="44.25919" lon="7.12135">
        <ele>1569.8</ele>
        <time>2022-07-19T05:09:07Z</time>
      </trkpt>
      <trkpt lat="44.25921" lon="7.12136">
        <ele>1570.2</ele>
        <time>2022-07-19T05:09:08Z</time>
      </trkpt>
      <trkpt lat="44.25923" lon="7.12136">
        <ele>1570.2</ele>
        <time>2022-07-19T05:09:09Z</time>
      </trkpt>
      <trkpt lat="44.25924" lon="7.12136">
        <ele>1570.4</ele>
        <time>2022-07-19T05:09:10Z</time>
      </trkpt>
      <trkpt lat="44.25926" lon="7.12136">
        <ele>1570.4</ele>
        <time>2022-07-19T05:09:11Z</time>
      </trkpt>
      <trkpt lat="44.25927" lon="7.12137">
        <ele>1570.8</ele>
        <time>2022-07-19T05:09:12Z</time>
      </trkpt>
      <trkpt lat="44.25929" lon="7.12137">
        <ele>1570.8</ele>
        <time>2022-07-19T05:09:13Z</time>
      </trkpt>
      <trkpt lat="44.25931" lon="7.12137">
        <ele>1571.2</ele>
        <time>2022-07-19T05:09:14Z</time>
      </trkpt>
      <trkpt lat="44.25932" lon="7.12136">
        <ele>1571.2</ele>
        <time>2022-07-19T05:09:15Z</time>
      </trkpt>
      <trkpt lat="44.25934" lon="7.12136">
        <ele>1571.4</ele>
        <time>2022-07-19T05:09:16Z</time>
      </trkpt>
      <trkpt lat="44.25935" lon="7.12136">
        <ele>1571.4</ele>
        <time>2022-07-19T05:09:17Z</time>
      </trkpt>
      <trkpt lat="44.25937" lon="7.12135">
        <ele>1571.6</ele>
        <time>2022-07-19T05:09:18Z</time>
      </trkpt>
      <trkpt lat="44.25938" lon="7.12135">
        <ele>1571.6</ele>
        <time>2022-07-19T05:09:19Z</time>
      </trkpt>
      <trkpt lat="44.2594" lon="7.12135">
        <ele>1572</ele>
        <time>2022-07-19T05:09:20Z</time>
      </trkpt>
      <trkpt lat="44.25941" lon="7.12135">
        <ele>1572</ele>
        <time>2022-07-19T05:09:21Z</time>
      </trkpt>
      <trkpt lat="44.25943" lon="7.12134">
        <ele>1572.2</ele>
        <time>2022-07-19T05:09:22Z</time>
      </trkpt>
      <trkpt lat="44.25944" lon="7.12134">
        <ele>1572.2</ele>
        <time>2022-07-19T05:09:23Z</time>
      </trkpt>
      <trkpt lat="44.25946" lon="7.12134">
        <ele>1572.2</ele>
        <time>2022-07-19T05:09:24Z</time>
      </trkpt>
      <trkpt lat="44.25947" lon="7.12134">
        <ele>1572.4</ele>
        <time>2022-07-19T05:09:25Z</time>
      </trkpt>
      <trkpt lat="44.25949" lon="7.12134">
        <ele>1572.4</ele>
        <time>2022-07-19T05:09:26Z</time>
      </trkpt>
      <trkpt lat="44.2595" lon="7.12133">
        <ele>1572.4</ele>
        <time>2022-07-19T05:09:27Z</time>
      </trkpt>
      <trkpt lat="44.25952" lon="7.12133">
        <ele>1572.6</ele>
        <time>2022-07-19T05:09:28Z</time>
      </trkpt>
      <trkpt lat="44.25953" lon="7.12133">
        <ele>1572.6</ele>
        <time>2022-07-19T05:09:29Z</time>
      </trkpt>
      <trkpt lat="44.25954" lon="7.12133">
        <ele>1573</ele>
        <time>2022-07-19T05:09:30Z</time>
      </trkpt>
      <trkpt lat="44.25955" lon="7.12134">
        <ele>1573</ele>
        <time>2022-07-19T05:09:31Z</time>
      </trkpt>
      <trkpt lat="44.25957" lon="7.12134">
        <ele>1573.2</ele>
        <time>2022-07-19T05:09:32Z</time>
      </trkpt>
      <trkpt lat="44.25958" lon="7.12135">
        <ele>1573.2</ele>
        <time>2022-07-19T05:09:33Z</time>
      </trkpt>
      <trkpt lat="44.2596" lon="7.12136">
        <ele>1573.6</ele>
        <time>2022-07-19T05:09:34Z</time>
      </trkpt>
      <trkpt lat="44.25961" lon="7.12136">
        <ele>1573.6</ele>
        <time>2022-07-19T05:09:35Z</time>
      </trkpt>
      <trkpt lat="44.25962" lon="7.12138">
        <ele>1573.8</ele>
        <time>2022-07-19T05:09:36Z</time>
      </trkpt>
      <trkpt lat="44.25963" lon="7.12139">
        <ele>1574</ele>
        <time>2022-07-19T05:09:37Z</time>
      </trkpt>
      <trkpt lat="44.25964" lon="7.1214">
        <ele>1574.2</ele>
        <time>2022-07-19T05:09:38Z</time>
      </trkpt>
      <trkpt lat="44.25966" lon="7.1214">
        <ele>1574.4</ele>
        <time>2022-07-19T05:09:39Z</time>
      </trkpt>
      <trkpt lat="44.25967" lon="7.1214">
        <ele>1574.4</ele>
        <time>2022-07-19T05:09:40Z</time>
      </trkpt>
      <trkpt lat="44.25968" lon="7.1214">
        <ele>1574.8</ele>
        <time>2022-07-19T05:09:41Z</time>
      </trkpt>
      <trkpt lat="44.2597" lon="7.1214">
        <ele>1574.8</ele>
        <time>2022-07-19T05:09:42Z</time>
      </trkpt>
      <trkpt lat="44.25971" lon="7.12141">
        <ele>1575.2</ele>
        <time>2022-07-19T05:09:43Z</time>
      </trkpt>
      <trkpt lat="44.25973" lon="7.12142">
        <ele>1575.2</ele>
        <time>2022-07-19T05:09:44Z</time>
      </trkpt>
      <trkpt lat="44.25974" lon="7.12142">
        <ele>1575.4</ele>
        <time>2022-07-19T05:09:45Z</time>
      </trkpt>
      <trkpt lat="44.25976" lon="7.12143">
        <ele>1575.4</ele>
        <time>2022-07-19T05:09:46Z</time>
      </trkpt>
      <trkpt lat="44.25977" lon="7.12143">
        <ele>1575.8</ele>
        <time>2022-07-19T05:09:47Z</time>
      </trkpt>
      <trkpt lat="44.25978" lon="7.12143">
        <ele>1575.8</ele>
        <time>2022-07-19T05:09:48Z</time>
      </trkpt>
      <trkpt lat="44.2598" lon="7.12144">
        <ele>1576</ele>
        <time>2022-07-19T05:09:49Z</time>
      </trkpt>
      <trkpt lat="44.25981" lon="7.12144">
        <ele>1576</ele>
        <time>2022-07-19T05:09:50Z</time>
      </trkpt>
      <trkpt lat="44.25982" lon="7.12145">
        <ele>1576.2</ele>
        <time>2022-07-19T05:09:51Z</time>
      </trkpt>
      <trkpt lat="44.25984" lon="7.12146">
        <ele>1576.2</ele>
        <time>2022-07-19T05:09:52Z</time>
      </trkpt>
      <trkpt lat="44.25985" lon="7.12146">
        <ele>1576.4</ele>
        <time>2022-07-19T05:09:53Z</time>
      </trkpt>
      <trkpt lat="44.25986" lon="7.12146">
        <ele>1576.4</ele>
        <time>2022-07-19T05:09:54Z</time>
      </trkpt>
      <trkpt lat="44.25988" lon="7.12147">
        <ele>1576.8</ele>
        <time>2022-07-19T05:09:55Z</time>
      </trkpt>
      <trkpt lat="44.25989" lon="7.12148">
        <ele>1576.8</ele>
        <time>2022-07-19T05:09:56Z</time>
      </trkpt>
      <trkpt lat="44.25991" lon="7.12148">
        <ele>1577</ele>
        <time>2022-07-19T05:09:57Z</time>
      </trkpt>
      <trkpt lat="44.25993" lon="7.12149">
        <ele>1577.4</ele>
        <time>2022-07-19T05:09:58Z</time>
      </trkpt>
      <trkpt lat="44.25994" lon="7.12149">
        <ele>1577.4</ele>
        <time>2022-07-19T05:09:59Z</time>
      </trkpt>
      <trkpt lat="44.25996" lon="7.1215">
        <ele>1577.6</ele>
        <time>2022-07-19T05:10:00Z</time>
      </trkpt>
      <trkpt lat="44.25997" lon="7.12151">
        <ele>1577.6</ele>
        <time>2022-07-19T05:10:01Z</time>
      </trkpt>
      <trkpt lat="44.25999" lon="7.12151">
        <ele>1577.8</ele>
        <time>2022-07-19T05:10:02Z</time>
      </trkpt>
      <trkpt lat="44.26" lon="7.12152">
        <ele>1577.8</ele>
        <time>2022-07-19T05:10:03Z</time>
      </trkpt>
      <trkpt lat="44.26002" lon="7.12152">
        <ele>1578.2</ele>
        <time>2022-07-19T05:10:04Z</time>
      </trkpt>
      <trkpt lat="44.26003" lon="7.12153">
        <ele>1578.2</ele>
        <time>2022-07-19T05:10:05Z</time>
      </trkpt>
      <trkpt lat="44.26005" lon="7.12153">
        <ele>1578.4</ele>
        <time>2022-07-19T05:10:06Z</time>
      </trkpt>
      <trkpt lat="44.26006" lon="7.12153">
        <ele>1578.4</ele>
        <time>2022-07-19T05:10:07Z</time>
      </trkpt>
      <trkpt lat="44.26008" lon="7.12154">
        <ele>1578.8</ele>
        <time>2022-07-19T05:10:08Z</time>
      </trkpt>
      <trkpt lat="44.2601" lon="7.12154">
        <ele>1578.8</ele>
        <time>2022-07-19T05:10:09Z</time>
      </trkpt>
      <trkpt lat="44.26011" lon="7.12155">
        <ele>1579</ele>
        <time>2022-07-19T05:10:10Z</time>
      </trkpt>
      <trkpt lat="44.26013" lon="7.12155">
        <ele>1579</ele>
        <time>2022-07-19T05:10:11Z</time>
      </trkpt>
      <trkpt lat="44.26014" lon="7.12155">
        <ele>1579.2</ele>
        <time>2022-07-19T05:10:12Z</time>
      </trkpt>
      <trkpt lat="44.26016" lon="7.12156">
        <ele>1579.2</ele>
        <time>2022-07-19T05:10:13Z</time>
      </trkpt>
      <trkpt lat="44.26017" lon="7.12157">
        <ele>1579.6</ele>
        <time>2022-07-19T05:10:14Z</time>
      </trkpt>
      <trkpt lat="44.26019" lon="7.12158">
        <ele>1579.6</ele>
        <time>2022-07-19T05:10:15Z</time>
      </trkpt>
      <trkpt lat="44.2602" lon="7.12159">
        <ele>1580</ele>
        <time>2022-07-19T05:10:16Z</time>
      </trkpt>
      <trkpt lat="44.26022" lon="7.12159">
        <ele>1580</ele>
        <time>2022-07-19T05:10:17Z</time>
      </trkpt>
      <trkpt lat="44.26023" lon="7.12159">
        <ele>1580.2</ele>
        <time>2022-07-19T05:10:18Z</time>
      </trkpt>
      <trkpt lat="44.26024" lon="7.1216">
        <ele>1580.2</ele>
        <time>2022-07-19T05:10:19Z</time>
      </trkpt>
      <trkpt lat="44.26025" lon="7.12161">
        <ele>1580.2</ele>
        <time>2022-07-19T05:10:20Z</time>
      </trkpt>
      <trkpt lat="44.26027" lon="7.12162">
        <ele>1580.4</ele>
        <time>2022-07-19T05:10:21Z</time>
      </trkpt>
      <trkpt lat="44.26028" lon="7.12163">
        <ele>1580.4</ele>
        <time>2022-07-19T05:10:22Z</time>
      </trkpt>
      <trkpt lat="44.26029" lon="7.12163">
        <ele>1580.8</ele>
        <time>2022-07-19T05:10:23Z</time>
      </trkpt>
      <trkpt lat="44.26031" lon="7.12164">
        <ele>1580.8</ele>
        <time>2022-07-19T05:10:24Z</time>
      </trkpt>
      <trkpt lat="44.26032" lon="7.12165">
        <ele>1580.8</ele>
        <time>2022-07-19T05:10:25Z</time>
      </trkpt>
      <trkpt lat="44.26034" lon="7.12165">
        <ele>1581</ele>
        <time>2022-07-19T05:10:26Z</time>
      </trkpt>
      <trkpt lat="44.26036" lon="7.12166">
        <ele>1581.2</ele>
        <time>2022-07-19T05:10:27Z</time>
      </trkpt>
      <trkpt lat="44.26037" lon="7.12167">
        <ele>1581.2</ele>
        <time>2022-07-19T05:10:28Z</time>
      </trkpt>
      <trkpt lat="44.26038" lon="7.12169">
        <ele>1581.6</ele>
        <time>2022-07-19T05:10:29Z</time>
      </trkpt>
      <trkpt lat="44.26039" lon="7.1217">
        <ele>1581.6</ele>
        <time>2022-07-19T05:10:30Z</time>
      </trkpt>
      <trkpt lat="44.2604" lon="7.12172">
        <ele>1581.8</ele>
        <time>2022-07-19T05:10:31Z</time>
      </trkpt>
      <trkpt lat="44.26041" lon="7.12173">
        <ele>1582</ele>
        <time>2022-07-19T05:10:32Z</time>
      </trkpt>
      <trkpt lat="44.26042" lon="7.12174">
        <ele>1582</ele>
        <time>2022-07-19T05:10:33Z</time>
      </trkpt>
      <trkpt lat="44.26044" lon="7.12175">
        <ele>1582.2</ele>
        <time>2022-07-19T05:10:34Z</time>
      </trkpt>
      <trkpt lat="44.26046" lon="7.12175">
        <ele>1582.2</ele>
        <time>2022-07-19T05:10:35Z</time>
      </trkpt>
      <trkpt lat="44.26047" lon="7.12176">
        <ele>1582.2</ele>
        <time>2022-07-19T05:10:36Z</time>
      </trkpt>
      <trkpt lat="44.26049" lon="7.12177">
        <ele>1582.6</ele>
        <time>2022-07-19T05:10:37Z</time>
      </trkpt>
      <trkpt lat="44.2605" lon="7.12177">
        <ele>1582.6</ele>
        <time>2022-07-19T05:10:38Z</time>
      </trkpt>
      <trkpt lat="44.26051" lon="7.12176">
        <ele>1582.6</ele>
        <time>2022-07-19T05:10:39Z</time>
      </trkpt>
      <trkpt lat="44.26053" lon="7.12176">
        <ele>1582.6</ele>
        <time>2022-07-19T05:10:40Z</time>
      </trkpt>
      <trkpt lat="44.26055" lon="7.12174">
        <ele>1582.8</ele>
        <time>2022-07-19T05:10:41Z</time>
      </trkpt>
      <trkpt lat="44.26056" lon="7.12172">
        <ele>1582.8</ele>
        <time>2022-07-19T05:10:42Z</time>
      </trkpt>
      <trkpt lat="44.26057" lon="7.1217">
        <ele>1582.8</ele>
        <time>2022-07-19T05:10:43Z</time>
      </trkpt>
      <trkpt lat="44.26057" lon="7.12167">
        <ele>1583</ele>
        <time>2022-07-19T05:10:44Z</time>
      </trkpt>
      <trkpt lat="44.26057" lon="7.12164">
        <ele>1583</ele>
        <time>2022-07-19T05:10:45Z</time>
      </trkpt>
      <trkpt lat="44.26057" lon="7.12162">
        <ele>1583</ele>
        <time>2022-07-19T05:10:46Z</time>
      </trkpt>
      <trkpt lat="44.26055" lon="7.1216">
        <ele>1583.4</ele>
        <time>2022-07-19T05:10:47Z</time>
      </trkpt>
      <trkpt lat="44.26054" lon="7.12158">
        <ele>1583.4</ele>
        <time>2022-07-19T05:10:48Z</time>
      </trkpt>
      <trkpt lat="44.26052" lon="7.12157">
        <ele>1583.6</ele>
        <time>2022-07-19T05:10:49Z</time>
      </trkpt>
      <trkpt lat="44.2605" lon="7.12156">
        <ele>1583.6</ele>
        <time>2022-07-19T05:10:50Z</time>
      </trkpt>
      <trkpt lat="44.26048" lon="7.12155">
        <ele>1584</ele>
        <time>2022-07-19T05:10:51Z</time>
      </trkpt>
      <trkpt lat="44.26046" lon="7.12154">
        <ele>1584</ele>
        <time>2022-07-19T05:10:52Z</time>
      </trkpt>
      <trkpt lat="44.26045" lon="7.12153">
        <ele>1584.2</ele>
        <time>2022-07-19T05:10:53Z</time>
      </trkpt>
      <trkpt lat="44.26044" lon="7.12151">
        <ele>1584.2</ele>
        <time>2022-07-19T05:10:54Z</time>
      </trkpt>
      <trkpt lat="44.26042" lon="7.1215">
        <ele>1584.6</ele>
        <time>2022-07-19T05:10:55Z</time>
      </trkpt>
      <trkpt lat="44.26041" lon="7.12148">
        <ele>1584.6</ele>
        <time>2022-07-19T05:10:56Z</time>
      </trkpt>
      <trkpt lat="44.2604" lon="7.12147">
        <ele>1585</ele>
        <time>2022-07-19T05:10:57Z</time>
      </trkpt>
      <trkpt lat="44.26038" lon="7.12146">
        <ele>1585</ele>
        <time>2022-07-19T05:10:58Z</time>
      </trkpt>
      <trkpt lat="44.26037" lon="7.12144">
        <ele>1585.2</ele>
        <time>2022-07-19T05:10:59Z</time>
      </trkpt>
      <trkpt lat="44.26035" lon="7.12143">
        <ele>1585.4</ele>
        <time>2022-07-19T05:11:00Z</time>
      </trkpt>
      <trkpt lat="44.26034" lon="7.12141">
        <ele>1585.8</ele>
        <time>2022-07-19T05:11:01Z</time>
      </trkpt>
      <trkpt lat="44.26033" lon="7.1214">
        <ele>1586</ele>
        <time>2022-07-19T05:11:02Z</time>
      </trkpt>
      <trkpt lat="44.26031" lon="7.12139">
        <ele>1586.2</ele>
        <time>2022-07-19T05:11:03Z</time>
      </trkpt>
      <trkpt lat="44.2603" lon="7.12138">
        <ele>1586.2</ele>
        <time>2022-07-19T05:11:04Z</time>
      </trkpt>
      <trkpt lat="44.26029" lon="7.12137">
        <ele>1586.6</ele>
        <time>2022-07-19T05:11:05Z</time>
      </trkpt>
      <trkpt lat="44.26027" lon="7.12136">
        <ele>1586.6</ele>
        <time>2022-07-19T05:11:06Z</time>
      </trkpt>
      <trkpt lat="44.26026" lon="7.12136">
        <ele>1587</ele>
        <time>2022-07-19T05:11:07Z</time>
      </trkpt>
      <trkpt lat="44.26024" lon="7.12135">
        <ele>1587</ele>
        <time>2022-07-19T05:11:08Z</time>
      </trkpt>
      <trkpt lat="44.26023" lon="7.12135">
        <ele>1587.4</ele>
        <time>2022-07-19T05:11:09Z</time>
      </trkpt>
      <trkpt lat="44.26022" lon="7.12134">
        <ele>1587.4</ele>
        <time>2022-07-19T05:11:10Z</time>
      </trkpt>
      <trkpt lat="44.2602" lon="7.12133">
        <ele>1587.6</ele>
        <time>2022-07-19T05:11:11Z</time>
      </trkpt>
      <trkpt lat="44.26019" lon="7.12131">
        <ele>1587.6</ele>
        <time>2022-07-19T05:11:12Z</time>
      </trkpt>
      <trkpt lat="44.26018" lon="7.1213">
        <ele>1588.2</ele>
        <time>2022-07-19T05:11:13Z</time>
      </trkpt>
      <trkpt lat="44.26016" lon="7.12129">
        <ele>1588.2</ele>
        <time>2022-07-19T05:11:14Z</time>
      </trkpt>
      <trkpt lat="44.26015" lon="7.12129">
        <ele>1588.4</ele>
        <time>2022-07-19T05:11:15Z</time>
      </trkpt>
      <trkpt lat="44.26013" lon="7.12128">
        <ele>1588.4</ele>
        <time>2022-07-19T05:11:16Z</time>
      </trkpt>
      <trkpt lat="44.26012" lon="7.12127">
        <ele>1588.8</ele>
        <time>2022-07-19T05:11:17Z</time>
      </trkpt>
      <trkpt lat="44.26011" lon="7.12126">
        <ele>1588.8</ele>
        <time>2022-07-19T05:11:18Z</time>
      </trkpt>
      <trkpt lat="44.26009" lon="7.12125">
        <ele>1589.2</ele>
        <time>2022-07-19T05:11:19Z</time>
      </trkpt>
      <trkpt lat="44.26008" lon="7.12124">
        <ele>1589.4</ele>
        <time>2022-07-19T05:11:20Z</time>
      </trkpt>
      <trkpt lat="44.26007" lon="7.12123">
        <ele>1589.6</ele>
        <time>2022-07-19T05:11:21Z</time>
      </trkpt>
      <trkpt lat="44.26005" lon="7.12122">
        <ele>1589.8</ele>
        <time>2022-07-19T05:11:22Z</time>
      </trkpt>
      <trkpt lat="44.26003" lon="7.12121">
        <ele>1590</ele>
        <time>2022-07-19T05:11:23Z</time>
      </trkpt>
      <trkpt lat="44.26002" lon="7.1212">
        <ele>1590</ele>
        <time>2022-07-19T05:11:24Z</time>
      </trkpt>
      <trkpt lat="44.26001" lon="7.12119">
        <ele>1590.4</ele>
        <time>2022-07-19T05:11:25Z</time>
      </trkpt>
      <trkpt lat="44.25999" lon="7.12118">
        <ele>1590.4</ele>
        <time>2022-07-19T05:11:26Z</time>
      </trkpt>
      <trkpt lat="44.25998" lon="7.12117">
        <ele>1590.6</ele>
        <time>2022-07-19T05:11:27Z</time>
      </trkpt>
      <trkpt lat="44.25997" lon="7.12115">
        <ele>1590.6</ele>
        <time>2022-07-19T05:11:28Z</time>
      </trkpt>
      <trkpt lat="44.25996" lon="7.12114">
        <ele>1591.2</ele>
        <time>2022-07-19T05:11:29Z</time>
      </trkpt>
      <trkpt lat="44.25995" lon="7.12112">
        <ele>1591.2</ele>
        <time>2022-07-19T05:11:30Z</time>
      </trkpt>
      <trkpt lat="44.25994" lon="7.12111">
        <ele>1591.4</ele>
        <time>2022-07-19T05:11:31Z</time>
      </trkpt>
      <trkpt lat="44.25994" lon="7.12109">
        <ele>1591.6</ele>
        <time>2022-07-19T05:11:32Z</time>
      </trkpt>
      <trkpt lat="44.25993" lon="7.12107">
        <ele>1591.8</ele>
        <time>2022-07-19T05:11:33Z</time>
      </trkpt>
      <trkpt lat="44.25992" lon="7.12105">
        <ele>1591.8</ele>
        <time>2022-07-19T05:11:34Z</time>
      </trkpt>
      <trkpt lat="44.25991" lon="7.12103">
        <ele>1592.2</ele>
        <time>2022-07-19T05:11:35Z</time>
      </trkpt>
      <trkpt lat="44.25991" lon="7.12101">
        <ele>1592.4</ele>
        <time>2022-07-19T05:11:36Z</time>
      </trkpt>
      <trkpt lat="44.2599" lon="7.12099">
        <ele>1592.6</ele>
        <time>2022-07-19T05:11:37Z</time>
      </trkpt>
      <trkpt lat="44.25989" lon="7.12097">
        <ele>1592.6</ele>
        <time>2022-07-19T05:11:38Z</time>
      </trkpt>
      <trkpt lat="44.25988" lon="7.12094">
        <ele>1593.2</ele>
        <time>2022-07-19T05:11:39Z</time>
      </trkpt>
      <trkpt lat="44.25987" lon="7.12093">
        <ele>1593.2</ele>
        <time>2022-07-19T05:11:40Z</time>
      </trkpt>
      <trkpt lat="44.25986" lon="7.1209">
        <ele>1593.6</ele>
        <time>2022-07-19T05:11:41Z</time>
      </trkpt>
      <trkpt lat="44.25985" lon="7.12088">
        <ele>1593.6</ele>
        <time>2022-07-19T05:11:42Z</time>
      </trkpt>
      <trkpt lat="44.25984" lon="7.12086">
        <ele>1593.8</ele>
        <time>2022-07-19T05:11:43Z</time>
      </trkpt>
      <trkpt lat="44.25983" lon="7.12084">
        <ele>1594</ele>
        <time>2022-07-19T05:11:44Z</time>
      </trkpt>
      <trkpt lat="44.25982" lon="7.12083">
        <ele>1594</ele>
        <time>2022-07-19T05:11:45Z</time>
      </trkpt>
      <trkpt lat="44.25981" lon="7.12081">
        <ele>1594.4</ele>
        <time>2022-07-19T05:11:46Z</time>
      </trkpt>
      <trkpt lat="44.2598" lon="7.12079">
        <ele>1594.6</ele>
        <time>2022-07-19T05:11:47Z</time>
      </trkpt>
      <trkpt lat="44.25979" lon="7.12077">
        <ele>1594.8</ele>
        <time>2022-07-19T05:11:48Z</time>
      </trkpt>
      <trkpt lat="44.25978" lon="7.12076">
        <ele>1595</ele>
        <time>2022-07-19T05:11:49Z</time>
      </trkpt>
      <trkpt lat="44.25977" lon="7.12074">
        <ele>1595</ele>
        <time>2022-07-19T05:11:50Z</time>
      </trkpt>
      <trkpt lat="44.25976" lon="7.12072">
        <ele>1595.4</ele>
        <time>2022-07-19T05:11:51Z</time>
      </trkpt>
      <trkpt lat="44.25975" lon="7.1207">
        <ele>1595.4</ele>
        <time>2022-07-19T05:11:52Z</time>
      </trkpt>
      <trkpt lat="44.25974" lon="7.12069">
        <ele>1595.8</ele>
        <time>2022-07-19T05:11:53Z</time>
      </trkpt>
      <trkpt lat="44.25973" lon="7.12067">
        <ele>1596</ele>
        <time>2022-07-19T05:11:54Z</time>
      </trkpt>
      <trkpt lat="44.25972" lon="7.12066">
        <ele>1596</ele>
        <time>2022-07-19T05:11:55Z</time>
      </trkpt>
      <trkpt lat="44.2597" lon="7.12065">
        <ele>1596.2</ele>
        <time>2022-07-19T05:11:56Z</time>
      </trkpt>
      <trkpt lat="44.25969" lon="7.12064">
        <ele>1596.2</ele>
        <time>2022-07-19T05:11:57Z</time>
      </trkpt>
      <trkpt lat="44.25968" lon="7.12062">
        <ele>1596.6</ele>
        <time>2022-07-19T05:11:58Z</time>
      </trkpt>
      <trkpt lat="44.25967" lon="7.12061">
        <ele>1597</ele>
        <time>2022-07-19T05:11:59Z</time>
      </trkpt>
      <trkpt lat="44.25966" lon="7.12059">
        <ele>1597.2</ele>
        <time>2022-07-19T05:12:00Z</time>
      </trkpt>
      <trkpt lat="44.25964" lon="7.12059">
        <ele>1597.4</ele>
        <time>2022-07-19T05:12:01Z</time>
      </trkpt>
      <trkpt lat="44.25963" lon="7.12058">
        <ele>1597.6</ele>
        <time>2022-07-19T05:12:02Z</time>
      </trkpt>
      <trkpt lat="44.25961" lon="7.12057">
        <ele>1597.8</ele>
        <time>2022-07-19T05:12:03Z</time>
      </trkpt>
      <trkpt lat="44.2596" lon="7.12056">
        <ele>1597.8</ele>
        <time>2022-07-19T05:12:04Z</time>
      </trkpt>
      <trkpt lat="44.25959" lon="7.12055">
        <ele>1598.2</ele>
        <time>2022-07-19T05:12:05Z</time>
      </trkpt>
      <trkpt lat="44.25958" lon="7.12054">
        <ele>1598.2</ele>
        <time>2022-07-19T05:12:06Z</time>
      </trkpt>
      <trkpt lat="44.25957" lon="7.12052">
        <ele>1598.4</ele>
        <time>2022-07-19T05:12:07Z</time>
      </trkpt>
      <trkpt lat="44.25954" lon="7.1205">
        <ele>1598.4</ele>
        <time>2022-07-19T05:12:08Z</time>
      </trkpt>
      <trkpt lat="44.25953" lon="7.12049">
        <ele>1598.6</ele>
        <time>2022-07-19T05:12:10Z</time>
      </trkpt>
      <trkpt lat="44.25951" lon="7.12048">
        <ele>1598.6</ele>
        <time>2022-07-19T05:12:11Z</time>
      </trkpt>
      <trkpt lat="44.2595" lon="7.12047">
        <ele>1598.8</ele>
        <time>2022-07-19T05:12:12Z</time>
      </trkpt>
      <trkpt lat="44.25949" lon="7.12046">
        <ele>1598.8</ele>
        <time>2022-07-19T05:12:13Z</time>
      </trkpt>
      <trkpt lat="44.25947" lon="7.12045">
        <ele>1599.2</ele>
        <time>2022-07-19T05:12:14Z</time>
      </trkpt>
      <trkpt lat="44.25946" lon="7.12045">
        <ele>1599.2</ele>
        <time>2022-07-19T05:12:15Z</time>
      </trkpt>
      <trkpt lat="44.25945" lon="7.12044">
        <ele>1599.6</ele>
        <time>2022-07-19T05:12:16Z</time>
      </trkpt>
      <trkpt lat="44.25944" lon="7.12044">
        <ele>1599.6</ele>
        <time>2022-07-19T05:12:17Z</time>
      </trkpt>
      <trkpt lat="44.25942" lon="7.12043">
        <ele>1600</ele>
        <time>2022-07-19T05:12:18Z</time>
      </trkpt>
      <trkpt lat="44.25941" lon="7.12042">
        <ele>1600</ele>
        <time>2022-07-19T05:12:19Z</time>
      </trkpt>
      <trkpt lat="44.2594" lon="7.12042">
        <ele>1600.4</ele>
        <time>2022-07-19T05:12:20Z</time>
      </trkpt>
      <trkpt lat="44.25938" lon="7.12041">
        <ele>1600.4</ele>
        <time>2022-07-19T05:12:21Z</time>
      </trkpt>
      <trkpt lat="44.25937" lon="7.12041">
        <ele>1600.8</ele>
        <time>2022-07-19T05:12:22Z</time>
      </trkpt>
      <trkpt lat="44.25936" lon="7.1204">
        <ele>1600.8</ele>
        <time>2022-07-19T05:12:23Z</time>
      </trkpt>
      <trkpt lat="44.25934" lon="7.1204">
        <ele>1601</ele>
        <time>2022-07-19T05:12:24Z</time>
      </trkpt>
      <trkpt lat="44.25933" lon="7.12039">
        <ele>1601</ele>
        <time>2022-07-19T05:12:25Z</time>
      </trkpt>
      <trkpt lat="44.25932" lon="7.12039">
        <ele>1601.2</ele>
        <time>2022-07-19T05:12:26Z</time>
      </trkpt>
      <trkpt lat="44.25931" lon="7.12039">
        <ele>1601.4</ele>
        <time>2022-07-19T05:12:27Z</time>
      </trkpt>
      <trkpt lat="44.2593" lon="7.12039">
        <ele>1601.4</ele>
        <time>2022-07-19T05:12:28Z</time>
      </trkpt>
      <trkpt lat="44.25928" lon="7.1204">
        <ele>1602</ele>
        <time>2022-07-19T05:12:30Z</time>
      </trkpt>
      <trkpt lat="44.25927" lon="7.1204">
        <ele>1602.2</ele>
        <time>2022-07-19T05:12:31Z</time>
      </trkpt>
      <trkpt lat="44.25925" lon="7.1204">
        <ele>1602.2</ele>
        <time>2022-07-19T05:12:32Z</time>
      </trkpt>
      <trkpt lat="44.25924" lon="7.12041">
        <ele>1602.6</ele>
        <time>2022-07-19T05:12:33Z</time>
      </trkpt>
      <trkpt lat="44.25921" lon="7.12042">
        <ele>1602.6</ele>
        <time>2022-07-19T05:12:34Z</time>
      </trkpt>
      <trkpt lat="44.2592" lon="7.12042">
        <ele>1603</ele>
        <time>2022-07-19T05:12:35Z</time>
      </trkpt>
      <trkpt lat="44.25919" lon="7.12042">
        <ele>1603</ele>
        <time>2022-07-19T05:12:36Z</time>
      </trkpt>
      <trkpt lat="44.25917" lon="7.12043">
        <ele>1603.2</ele>
        <time>2022-07-19T05:12:37Z</time>
      </trkpt>
      <trkpt lat="44.25916" lon="7.12043">
        <ele>1603.2</ele>
        <time>2022-07-19T05:12:38Z</time>
      </trkpt>
      <trkpt lat="44.25915" lon="7.12043">
        <ele>1603.4</ele>
        <time>2022-07-19T05:12:39Z</time>
      </trkpt>
      <trkpt lat="44.25914" lon="7.12043">
        <ele>1603.4</ele>
        <time>2022-07-19T05:12:40Z</time>
      </trkpt>
      <trkpt lat="44.25912" lon="7.12043">
        <ele>1603.8</ele>
        <time>2022-07-19T05:12:41Z</time>
      </trkpt>
      <trkpt lat="44.25911" lon="7.12044">
        <ele>1604</ele>
        <time>2022-07-19T05:12:42Z</time>
      </trkpt>
      <trkpt lat="44.25909" lon="7.12045">
        <ele>1604</ele>
        <time>2022-07-19T05:12:43Z</time>
      </trkpt>
      <trkpt lat="44.25908" lon="7.12045">
        <ele>1604.4</ele>
        <time>2022-07-19T05:12:44Z</time>
      </trkpt>
      <trkpt lat="44.25907" lon="7.12045">
        <ele>1604.4</ele>
        <time>2022-07-19T05:12:45Z</time>
      </trkpt>
      <trkpt lat="44.25906" lon="7.12046">
        <ele>1604.6</ele>
        <time>2022-07-19T05:12:46Z</time>
      </trkpt>
      <trkpt lat="44.25904" lon="7.12046">
        <ele>1604.6</ele>
        <time>2022-07-19T05:12:47Z</time>
      </trkpt>
      <trkpt lat="44.25903" lon="7.12046">
        <ele>1605</ele>
        <time>2022-07-19T05:12:48Z</time>
      </trkpt>
      <trkpt lat="44.25901" lon="7.12047">
        <ele>1605.2</ele>
        <time>2022-07-19T05:12:49Z</time>
      </trkpt>
      <trkpt lat="44.259" lon="7.12047">
        <ele>1605.2</ele>
        <time>2022-07-19T05:12:50Z</time>
      </trkpt>
      <trkpt lat="44.25898" lon="7.12047">
        <ele>1605.6</ele>
        <time>2022-07-19T05:12:51Z</time>
      </trkpt>
      <trkpt lat="44.25897" lon="7.12048">
        <ele>1605.8</ele>
        <time>2022-07-19T05:12:52Z</time>
      </trkpt>
      <trkpt lat="44.25896" lon="7.12048">
        <ele>1606.2</ele>
        <time>2022-07-19T05:12:54Z</time>
      </trkpt>
      <trkpt lat="44.25894" lon="7.12048">
        <ele>1606.2</ele>
        <time>2022-07-19T05:12:55Z</time>
      </trkpt>
      <trkpt lat="44.25893" lon="7.12049">
        <ele>1606.4</ele>
        <time>2022-07-19T05:12:56Z</time>
      </trkpt>
      <trkpt lat="44.2589" lon="7.1205">
        <ele>1606.4</ele>
        <time>2022-07-19T05:12:57Z</time>
      </trkpt>
      <trkpt lat="44.25889" lon="7.1205">
        <ele>1606.8</ele>
        <time>2022-07-19T05:12:58Z</time>
      </trkpt>
      <trkpt lat="44.25887" lon="7.1205">
        <ele>1606.8</ele>
        <time>2022-07-19T05:12:59Z</time>
      </trkpt>
      <trkpt lat="44.25886" lon="7.12051">
        <ele>1607.2</ele>
        <time>2022-07-19T05:13:00Z</time>
      </trkpt>
      <trkpt lat="44.25885" lon="7.12051">
        <ele>1607.2</ele>
        <time>2022-07-19T05:13:01Z</time>
      </trkpt>
      <trkpt lat="44.25883" lon="7.12052">
        <ele>1607.4</ele>
        <time>2022-07-19T05:13:02Z</time>
      </trkpt>
      <trkpt lat="44.25882" lon="7.12052">
        <ele>1607.4</ele>
        <time>2022-07-19T05:13:03Z</time>
      </trkpt>
      <trkpt lat="44.2588" lon="7.12052">
        <ele>1607.8</ele>
        <time>2022-07-19T05:13:04Z</time>
      </trkpt>
      <trkpt lat="44.25879" lon="7.12053">
        <ele>1607.8</ele>
        <time>2022-07-19T05:13:05Z</time>
      </trkpt>
      <trkpt lat="44.25878" lon="7.12053">
        <ele>1608</ele>
        <time>2022-07-19T05:13:06Z</time>
      </trkpt>
      <trkpt lat="44.25876" lon="7.12053">
        <ele>1608</ele>
        <time>2022-07-19T05:13:07Z</time>
      </trkpt>
      <trkpt lat="44.25875" lon="7.12054">
        <ele>1608.4</ele>
        <time>2022-07-19T05:13:08Z</time>
      </trkpt>
      <trkpt lat="44.25874" lon="7.12054">
        <ele>1608.6</ele>
        <time>2022-07-19T05:13:09Z</time>
      </trkpt>
      <trkpt lat="44.25873" lon="7.12054">
        <ele>1608.8</ele>
        <time>2022-07-19T05:13:10Z</time>
      </trkpt>
      <trkpt lat="44.25871" lon="7.12054">
        <ele>1608.8</ele>
        <time>2022-07-19T05:13:11Z</time>
      </trkpt>
      <trkpt lat="44.2587" lon="7.12054">
        <ele>1609</ele>
        <time>2022-07-19T05:13:12Z</time>
      </trkpt>
      <trkpt lat="44.25868" lon="7.12054">
        <ele>1609</ele>
        <time>2022-07-19T05:13:13Z</time>
      </trkpt>
      <trkpt lat="44.25867" lon="7.12054">
        <ele>1609.2</ele>
        <time>2022-07-19T05:13:14Z</time>
      </trkpt>
      <trkpt lat="44.25865" lon="7.12054">
        <ele>1609.2</ele>
        <time>2022-07-19T05:13:15Z</time>
      </trkpt>
      <trkpt lat="44.25864" lon="7.12053">
        <ele>1609.6</ele>
        <time>2022-07-19T05:13:16Z</time>
      </trkpt>
      <trkpt lat="44.25862" lon="7.12052">
        <ele>1609.6</ele>
        <time>2022-07-19T05:13:17Z</time>
      </trkpt>
      <trkpt lat="44.25861" lon="7.12052">
        <ele>1609.8</ele>
        <time>2022-07-19T05:13:18Z</time>
      </trkpt>
      <trkpt lat="44.25859" lon="7.12052">
        <ele>1609.8</ele>
        <time>2022-07-19T05:13:19Z</time>
      </trkpt>
      <trkpt lat="44.25858" lon="7.12051">
        <ele>1610.2</ele>
        <time>2022-07-19T05:13:20Z</time>
      </trkpt>
      <trkpt lat="44.25856" lon="7.12051">
        <ele>1610.2</ele>
        <time>2022-07-19T05:13:21Z</time>
      </trkpt>
      <trkpt lat="44.25854" lon="7.1205">
        <ele>1610.4</ele>
        <time>2022-07-19T05:13:22Z</time>
      </trkpt>
      <trkpt lat="44.25853" lon="7.12049">
        <ele>1610.4</ele>
        <time>2022-07-19T05:13:23Z</time>
      </trkpt>
      <trkpt lat="44.25851" lon="7.12049">
        <ele>1610.8</ele>
        <time>2022-07-19T05:13:24Z</time>
      </trkpt>
      <trkpt lat="44.2585" lon="7.12048">
        <ele>1610.8</ele>
        <time>2022-07-19T05:13:25Z</time>
      </trkpt>
      <trkpt lat="44.25848" lon="7.12048">
        <ele>1611.2</ele>
        <time>2022-07-19T05:13:26Z</time>
      </trkpt>
      <trkpt lat="44.25847" lon="7.12047">
        <ele>1611.2</ele>
        <time>2022-07-19T05:13:27Z</time>
      </trkpt>
      <trkpt lat="44.25846" lon="7.12047">
        <ele>1611.4</ele>
        <time>2022-07-19T05:13:28Z</time>
      </trkpt>
      <trkpt lat="44.25845" lon="7.12045">
        <ele>1611.4</ele>
        <time>2022-07-19T05:13:29Z</time>
      </trkpt>
      <trkpt lat="44.25844" lon="7.12044">
        <ele>1611.6</ele>
        <time>2022-07-19T05:13:30Z</time>
      </trkpt>
      <trkpt lat="44.25843" lon="7.12042">
        <ele>1611.8</ele>
        <time>2022-07-19T05:13:31Z</time>
      </trkpt>
      <trkpt lat="44.25841" lon="7.12041">
        <ele>1611.8</ele>
        <time>2022-07-19T05:13:32Z</time>
      </trkpt>
      <trkpt lat="44.2584" lon="7.1204">
        <ele>1612.2</ele>
        <time>2022-07-19T05:13:33Z</time>
      </trkpt>
      <trkpt lat="44.25839" lon="7.12038">
        <ele>1612.2</ele>
        <time>2022-07-19T05:13:34Z</time>
      </trkpt>
      <trkpt lat="44.25837" lon="7.12037">
        <ele>1612.4</ele>
        <time>2022-07-19T05:13:35Z</time>
      </trkpt>
      <trkpt lat="44.25836" lon="7.12036">
        <ele>1612.4</ele>
        <time>2022-07-19T05:13:36Z</time>
      </trkpt>
      <trkpt lat="44.25834" lon="7.12035">
        <ele>1612.8</ele>
        <time>2022-07-19T05:13:37Z</time>
      </trkpt>
      <trkpt lat="44.25833" lon="7.12033">
        <ele>1613</ele>
        <time>2022-07-19T05:13:38Z</time>
      </trkpt>
      <trkpt lat="44.25832" lon="7.12032">
        <ele>1613</ele>
        <time>2022-07-19T05:13:39Z</time>
      </trkpt>
      <trkpt lat="44.25831" lon="7.12031">
        <ele>1613.2</ele>
        <time>2022-07-19T05:13:40Z</time>
      </trkpt>
      <trkpt lat="44.2583" lon="7.12029">
        <ele>1613.2</ele>
        <time>2022-07-19T05:13:41Z</time>
      </trkpt>
      <trkpt lat="44.25828" lon="7.12028">
        <ele>1613.2</ele>
        <time>2022-07-19T05:13:42Z</time>
      </trkpt>
      <trkpt lat="44.25827" lon="7.12027">
        <ele>1613.6</ele>
        <time>2022-07-19T05:13:43Z</time>
      </trkpt>
      <trkpt lat="44.25826" lon="7.12026">
        <ele>1613.6</ele>
        <time>2022-07-19T05:13:44Z</time>
      </trkpt>
      <trkpt lat="44.25825" lon="7.12024">
        <ele>1614</ele>
        <time>2022-07-19T05:13:45Z</time>
      </trkpt>
      <trkpt lat="44.25823" lon="7.12023">
        <ele>1614</ele>
        <time>2022-07-19T05:13:46Z</time>
      </trkpt>
      <trkpt lat="44.25822" lon="7.12022">
        <ele>1614.2</ele>
        <time>2022-07-19T05:13:47Z</time>
      </trkpt>
      <trkpt lat="44.25821" lon="7.1202">
        <ele>1614.2</ele>
        <time>2022-07-19T05:13:48Z</time>
      </trkpt>
      <trkpt lat="44.25819" lon="7.12019">
        <ele>1614.4</ele>
        <time>2022-07-19T05:13:49Z</time>
      </trkpt>
      <trkpt lat="44.25818" lon="7.12018">
        <ele>1614.4</ele>
        <time>2022-07-19T05:13:50Z</time>
      </trkpt>
      <trkpt lat="44.25817" lon="7.12016">
        <ele>1614.8</ele>
        <time>2022-07-19T05:13:51Z</time>
      </trkpt>
      <trkpt lat="44.25815" lon="7.12015">
        <ele>1614.8</ele>
        <time>2022-07-19T05:13:52Z</time>
      </trkpt>
      <trkpt lat="44.25814" lon="7.12014">
        <ele>1615</ele>
        <time>2022-07-19T05:13:53Z</time>
      </trkpt>
      <trkpt lat="44.25813" lon="7.12014">
        <ele>1615</ele>
        <time>2022-07-19T05:13:54Z</time>
      </trkpt>
      <trkpt lat="44.25811" lon="7.12013">
        <ele>1615.4</ele>
        <time>2022-07-19T05:13:55Z</time>
      </trkpt>
      <trkpt lat="44.2581" lon="7.12012">
        <ele>1615.4</ele>
        <time>2022-07-19T05:13:56Z</time>
      </trkpt>
      <trkpt lat="44.25809" lon="7.12011">
        <ele>1615.6</ele>
        <time>2022-07-19T05:13:57Z</time>
      </trkpt>
      <trkpt lat="44.25808" lon="7.12009">
        <ele>1615.6</ele>
        <time>2022-07-19T05:13:58Z</time>
      </trkpt>
      <trkpt lat="44.25807" lon="7.12008">
        <ele>1616</ele>
        <time>2022-07-19T05:13:59Z</time>
      </trkpt>
      <trkpt lat="44.25805" lon="7.12007">
        <ele>1616</ele>
        <time>2022-07-19T05:14:00Z</time>
      </trkpt>
      <trkpt lat="44.25804" lon="7.12005">
        <ele>1616.2</ele>
        <time>2022-07-19T05:14:01Z</time>
      </trkpt>
      <trkpt lat="44.25803" lon="7.12004">
        <ele>1616.2</ele>
        <time>2022-07-19T05:14:02Z</time>
      </trkpt>
      <trkpt lat="44.25802" lon="7.12003">
        <ele>1616.2</ele>
        <time>2022-07-19T05:14:03Z</time>
      </trkpt>
      <trkpt lat="44.258" lon="7.12002">
        <ele>1616.2</ele>
        <time>2022-07-19T05:14:04Z</time>
      </trkpt>
      <trkpt lat="44.25799" lon="7.12001">
        <ele>1616.6</ele>
        <time>2022-07-19T05:14:05Z</time>
      </trkpt>
      <trkpt lat="44.25798" lon="7.12">
        <ele>1616.6</ele>
        <time>2022-07-19T05:14:06Z</time>
      </trkpt>
      <trkpt lat="44.25796" lon="7.11999">
        <ele>1616.8</ele>
        <time>2022-07-19T05:14:07Z</time>
      </trkpt>
      <trkpt lat="44.25795" lon="7.11999">
        <ele>1616.8</ele>
        <time>2022-07-19T05:14:08Z</time>
      </trkpt>
      <trkpt lat="44.25793" lon="7.11998">
        <ele>1617.2</ele>
        <time>2022-07-19T05:14:09Z</time>
      </trkpt>
      <trkpt lat="44.25792" lon="7.11997">
        <ele>1617.2</ele>
        <time>2022-07-19T05:14:10Z</time>
      </trkpt>
      <trkpt lat="44.25791" lon="7.11996">
        <ele>1617.4</ele>
        <time>2022-07-19T05:14:11Z</time>
      </trkpt>
      <trkpt lat="44.25789" lon="7.11995">
        <ele>1617.4</ele>
        <time>2022-07-19T05:14:12Z</time>
      </trkpt>
      <trkpt lat="44.25788" lon="7.11994">
        <ele>1617.8</ele>
        <time>2022-07-19T05:14:13Z</time>
      </trkpt>
      <trkpt lat="44.25786" lon="7.11994">
        <ele>1617.8</ele>
        <time>2022-07-19T05:14:14Z</time>
      </trkpt>
      <trkpt lat="44.25785" lon="7.11993">
        <ele>1618</ele>
        <time>2022-07-19T05:14:15Z</time>
      </trkpt>
      <trkpt lat="44.25784" lon="7.11993">
        <ele>1618</ele>
        <time>2022-07-19T05:14:16Z</time>
      </trkpt>
      <trkpt lat="44.25782" lon="7.11992">
        <ele>1618.4</ele>
        <time>2022-07-19T05:14:17Z</time>
      </trkpt>
      <trkpt lat="44.25781" lon="7.11992">
        <ele>1618.4</ele>
        <time>2022-07-19T05:14:18Z</time>
      </trkpt>
      <trkpt lat="44.2578" lon="7.11991">
        <ele>1618.6</ele>
        <time>2022-07-19T05:14:19Z</time>
      </trkpt>
      <trkpt lat="44.25779" lon="7.1199">
        <ele>1618.6</ele>
        <time>2022-07-19T05:14:20Z</time>
      </trkpt>
      <trkpt lat="44.25777" lon="7.11989">
        <ele>1619</ele>
        <time>2022-07-19T05:14:21Z</time>
      </trkpt>
      <trkpt lat="44.25776" lon="7.11988">
        <ele>1619</ele>
        <time>2022-07-19T05:14:22Z</time>
      </trkpt>
      <trkpt lat="44.25775" lon="7.11987">
        <ele>1619.2</ele>
        <time>2022-07-19T05:14:23Z</time>
      </trkpt>
      <trkpt lat="44.25773" lon="7.11986">
        <ele>1619.2</ele>
        <time>2022-07-19T05:14:24Z</time>
      </trkpt>
      <trkpt lat="44.25772" lon="7.11985">
        <ele>1619.6</ele>
        <time>2022-07-19T05:14:25Z</time>
      </trkpt>
      <trkpt lat="44.25771" lon="7.11984">
        <ele>1619.6</ele>
        <time>2022-07-19T05:14:26Z</time>
      </trkpt>
      <trkpt lat="44.2577" lon="7.11983">
        <ele>1619.8</ele>
        <time>2022-07-19T05:14:27Z</time>
      </trkpt>
      <trkpt lat="44.25768" lon="7.11982">
        <ele>1619.8</ele>
        <time>2022-07-19T05:14:28Z</time>
      </trkpt>
      <trkpt lat="44.25767" lon="7.11981">
        <ele>1620</ele>
        <time>2022-07-19T05:14:29Z</time>
      </trkpt>
      <trkpt lat="44.25766" lon="7.11981">
        <ele>1620</ele>
        <time>2022-07-19T05:14:30Z</time>
      </trkpt>
      <trkpt lat="44.25764" lon="7.1198">
        <ele>1620.2</ele>
        <time>2022-07-19T05:14:31Z</time>
      </trkpt>
      <trkpt lat="44.25763" lon="7.11978">
        <ele>1620.2</ele>
        <time>2022-07-19T05:14:32Z</time>
      </trkpt>
      <trkpt lat="44.25762" lon="7.11978">
        <ele>1620.6</ele>
        <time>2022-07-19T05:14:33Z</time>
      </trkpt>
      <trkpt lat="44.2576" lon="7.11977">
        <ele>1620.6</ele>
        <time>2022-07-19T05:14:34Z</time>
      </trkpt>
      <trkpt lat="44.25759" lon="7.11976">
        <ele>1620.6</ele>
        <time>2022-07-19T05:14:35Z</time>
      </trkpt>
      <trkpt lat="44.25758" lon="7.11976">
        <ele>1620.8</ele>
        <time>2022-07-19T05:14:36Z</time>
      </trkpt>
      <trkpt lat="44.25756" lon="7.11975">
        <ele>1620.8</ele>
        <time>2022-07-19T05:14:37Z</time>
      </trkpt>
      <trkpt lat="44.25755" lon="7.11974">
        <ele>1621.2</ele>
        <time>2022-07-19T05:14:38Z</time>
      </trkpt>
      <trkpt lat="44.25754" lon="7.11973">
        <ele>1621.2</ele>
        <time>2022-07-19T05:14:39Z</time>
      </trkpt>
      <trkpt lat="44.25753" lon="7.11972">
        <ele>1621.4</ele>
        <time>2022-07-19T05:14:40Z</time>
      </trkpt>
      <trkpt lat="44.25752" lon="7.11971">
        <ele>1621.4</ele>
        <time>2022-07-19T05:14:41Z</time>
      </trkpt>
      <trkpt lat="44.25751" lon="7.1197">
        <ele>1621.8</ele>
        <time>2022-07-19T05:14:42Z</time>
      </trkpt>
      <trkpt lat="44.2575" lon="7.11969">
        <ele>1621.8</ele>
        <time>2022-07-19T05:14:43Z</time>
      </trkpt>
      <trkpt lat="44.25749" lon="7.11968">
        <ele>1621.8</ele>
        <time>2022-07-19T05:14:44Z</time>
      </trkpt>
      <trkpt lat="44.25748" lon="7.11967">
        <ele>1622</ele>
        <time>2022-07-19T05:14:45Z</time>
      </trkpt>
      <trkpt lat="44.25747" lon="7.11967">
        <ele>1622</ele>
        <time>2022-07-19T05:14:46Z</time>
      </trkpt>
      <trkpt lat="44.25745" lon="7.11966">
        <ele>1622.4</ele>
        <time>2022-07-19T05:14:47Z</time>
      </trkpt>
      <trkpt lat="44.25744" lon="7.11965">
        <ele>1622.6</ele>
        <time>2022-07-19T05:14:48Z</time>
      </trkpt>
      <trkpt lat="44.25743" lon="7.11964">
        <ele>1622.6</ele>
        <time>2022-07-19T05:14:49Z</time>
      </trkpt>
      <trkpt lat="44.25742" lon="7.11963">
        <ele>1623</ele>
        <time>2022-07-19T05:14:50Z</time>
      </trkpt>
      <trkpt lat="44.2574" lon="7.11962">
        <ele>1623</ele>
        <time>2022-07-19T05:14:51Z</time>
      </trkpt>
      <trkpt lat="44.25739" lon="7.1196">
        <ele>1623</ele>
        <time>2022-07-19T05:14:52Z</time>
      </trkpt>
      <trkpt lat="44.25738" lon="7.11959">
        <ele>1623.2</ele>
        <time>2022-07-19T05:14:53Z</time>
      </trkpt>
      <trkpt lat="44.25737" lon="7.11958">
        <ele>1623.2</ele>
        <time>2022-07-19T05:14:54Z</time>
      </trkpt>
      <trkpt lat="44.25735" lon="7.11957">
        <ele>1623.6</ele>
        <time>2022-07-19T05:14:55Z</time>
      </trkpt>
      <trkpt lat="44.25734" lon="7.11956">
        <ele>1623.8</ele>
        <time>2022-07-19T05:14:56Z</time>
      </trkpt>
      <trkpt lat="44.25733" lon="7.11954">
        <ele>1623.8</ele>
        <time>2022-07-19T05:14:57Z</time>
      </trkpt>
      <trkpt lat="44.25732" lon="7.11953">
        <ele>1624</ele>
        <time>2022-07-19T05:14:58Z</time>
      </trkpt>
      <trkpt lat="44.25731" lon="7.11952">
        <ele>1624</ele>
        <time>2022-07-19T05:14:59Z</time>
      </trkpt>
      <trkpt lat="44.2573" lon="7.1195">
        <ele>1624</ele>
        <time>2022-07-19T05:15:00Z</time>
      </trkpt>
      <trkpt lat="44.25729" lon="7.11949">
        <ele>1624.2</ele>
        <time>2022-07-19T05:15:01Z</time>
      </trkpt>
      <trkpt lat="44.25728" lon="7.11948">
        <ele>1624.2</ele>
        <time>2022-07-19T05:15:02Z</time>
      </trkpt>
      <trkpt lat="44.25726" lon="7.11947">
        <ele>1624.6</ele>
        <time>2022-07-19T05:15:03Z</time>
      </trkpt>
      <trkpt lat="44.25725" lon="7.11945">
        <ele>1624.6</ele>
        <time>2022-07-19T05:15:04Z</time>
      </trkpt>
      <trkpt lat="44.25724" lon="7.11944">
        <ele>1624.8</ele>
        <time>2022-07-19T05:15:05Z</time>
      </trkpt>
      <trkpt lat="44.25723" lon="7.11942">
        <ele>1624.8</ele>
        <time>2022-07-19T05:15:06Z</time>
      </trkpt>
      <trkpt lat="44.25722" lon="7.11941">
        <ele>1625.4</ele>
        <time>2022-07-19T05:15:08Z</time>
      </trkpt>
      <trkpt lat="44.25721" lon="7.1194">
        <ele>1625.4</ele>
        <time>2022-07-19T05:15:09Z</time>
      </trkpt>
      <trkpt lat="44.2572" lon="7.11939">
        <ele>1625.6</ele>
        <time>2022-07-19T05:15:10Z</time>
      </trkpt>
      <trkpt lat="44.25719" lon="7.11938">
        <ele>1625.6</ele>
        <time>2022-07-19T05:15:11Z</time>
      </trkpt>
      <trkpt lat="44.25718" lon="7.11937">
        <ele>1626</ele>
        <time>2022-07-19T05:15:12Z</time>
      </trkpt>
      <trkpt lat="44.25717" lon="7.11936">
        <ele>1626</ele>
        <time>2022-07-19T05:15:13Z</time>
      </trkpt>
      <trkpt lat="44.25716" lon="7.11934">
        <ele>1626</ele>
        <time>2022-07-19T05:15:14Z</time>
      </trkpt>
      <trkpt lat="44.25715" lon="7.11933">
        <ele>1626.2</ele>
        <time>2022-07-19T05:15:15Z</time>
      </trkpt>
      <trkpt lat="44.25714" lon="7.11931">
        <ele>1626.2</ele>
        <time>2022-07-19T05:15:16Z</time>
      </trkpt>
      <trkpt lat="44.25713" lon="7.1193">
        <ele>1626.2</ele>
        <time>2022-07-19T05:15:17Z</time>
      </trkpt>
      <trkpt lat="44.25712" lon="7.11929">
        <ele>1626.6</ele>
        <time>2022-07-19T05:15:18Z</time>
      </trkpt>
      <trkpt lat="44.25712" lon="7.11927">
        <ele>1626.6</ele>
        <time>2022-07-19T05:15:19Z</time>
      </trkpt>
      <trkpt lat="44.25711" lon="7.11925">
        <ele>1626.6</ele>
        <time>2022-07-19T05:15:20Z</time>
      </trkpt>
      <trkpt lat="44.25711" lon="7.11923">
        <ele>1627</ele>
        <time>2022-07-19T05:15:21Z</time>
      </trkpt>
      <trkpt lat="44.2571" lon="7.11922">
        <ele>1627</ele>
        <time>2022-07-19T05:15:22Z</time>
      </trkpt>
      <trkpt lat="44.25709" lon="7.1192">
        <ele>1627</ele>
        <time>2022-07-19T05:15:23Z</time>
      </trkpt>
      <trkpt lat="44.25708" lon="7.11918">
        <ele>1627.4</ele>
        <time>2022-07-19T05:15:24Z</time>
      </trkpt>
      <trkpt lat="44.25708" lon="7.11916">
        <ele>1627.4</ele>
        <time>2022-07-19T05:15:25Z</time>
      </trkpt>
      <trkpt lat="44.25707" lon="7.11914">
        <ele>1627.6</ele>
        <time>2022-07-19T05:15:26Z</time>
      </trkpt>
      <trkpt lat="44.25707" lon="7.11912">
        <ele>1627.6</ele>
        <time>2022-07-19T05:15:27Z</time>
      </trkpt>
      <trkpt lat="44.25706" lon="7.11911">
        <ele>1627.8</ele>
        <time>2022-07-19T05:15:28Z</time>
      </trkpt>
      <trkpt lat="44.25706" lon="7.11909">
        <ele>1627.8</ele>
        <time>2022-07-19T05:15:29Z</time>
      </trkpt>
      <trkpt lat="44.25705" lon="7.11906">
        <ele>1627.8</ele>
        <time>2022-07-19T05:15:30Z</time>
      </trkpt>
      <trkpt lat="44.25705" lon="7.11904">
        <ele>1628</ele>
        <time>2022-07-19T05:15:31Z</time>
      </trkpt>
      <trkpt lat="44.25705" lon="7.11902">
        <ele>1628</ele>
        <time>2022-07-19T05:15:32Z</time>
      </trkpt>
      <trkpt lat="44.25704" lon="7.11899">
        <ele>1628</ele>
        <time>2022-07-19T05:15:33Z</time>
      </trkpt>
      <trkpt lat="44.25704" lon="7.11897">
        <ele>1628.4</ele>
        <time>2022-07-19T05:15:34Z</time>
      </trkpt>
      <trkpt lat="44.25703" lon="7.11895">
        <ele>1628.4</ele>
        <time>2022-07-19T05:15:35Z</time>
      </trkpt>
      <trkpt lat="44.25702" lon="7.11892">
        <ele>1628.6</ele>
        <time>2022-07-19T05:15:36Z</time>
      </trkpt>
      <trkpt lat="44.25701" lon="7.11889">
        <ele>1628.6</ele>
        <time>2022-07-19T05:15:37Z</time>
      </trkpt>
      <trkpt lat="44.25701" lon="7.11886">
        <ele>1628.6</ele>
        <time>2022-07-19T05:15:38Z</time>
      </trkpt>
      <trkpt lat="44.257" lon="7.11884">
        <ele>1628.8</ele>
        <time>2022-07-19T05:15:39Z</time>
      </trkpt>
      <trkpt lat="44.25699" lon="7.11881">
        <ele>1628.8</ele>
        <time>2022-07-19T05:15:40Z</time>
      </trkpt>
      <trkpt lat="44.25698" lon="7.11878">
        <ele>1628.8</ele>
        <time>2022-07-19T05:15:41Z</time>
      </trkpt>
      <trkpt lat="44.25697" lon="7.11875">
        <ele>1629</ele>
        <time>2022-07-19T05:15:42Z</time>
      </trkpt>
      <trkpt lat="44.25695" lon="7.11873">
        <ele>1629</ele>
        <time>2022-07-19T05:15:43Z</time>
      </trkpt>
      <trkpt lat="44.25694" lon="7.1187">
        <ele>1629</ele>
        <time>2022-07-19T05:15:44Z</time>
      </trkpt>
      <trkpt lat="44.25693" lon="7.11867">
        <ele>1629</ele>
        <time>2022-07-19T05:15:45Z</time>
      </trkpt>
      <trkpt lat="44.25691" lon="7.11864">
        <ele>1629</ele>
        <time>2022-07-19T05:15:46Z</time>
      </trkpt>
      <trkpt lat="44.2569" lon="7.11861">
        <ele>1629</ele>
        <time>2022-07-19T05:15:47Z</time>
      </trkpt>
      <trkpt lat="44.25688" lon="7.11858">
        <ele>1629</ele>
        <time>2022-07-19T05:15:48Z</time>
      </trkpt>
      <trkpt lat="44.25687" lon="7.11855">
        <ele>1629.2</ele>
        <time>2022-07-19T05:15:49Z</time>
      </trkpt>
      <trkpt lat="44.25685" lon="7.11851">
        <ele>1629.2</ele>
        <time>2022-07-19T05:15:50Z</time>
      </trkpt>
      <trkpt lat="44.25684" lon="7.11849">
        <ele>1629.2</ele>
        <time>2022-07-19T05:15:51Z</time>
      </trkpt>
      <trkpt lat="44.25683" lon="7.11846">
        <ele>1629.2</ele>
        <time>2022-07-19T05:15:52Z</time>
      </trkpt>
      <trkpt lat="44.25682" lon="7.11844">
        <ele>1629.6</ele>
        <time>2022-07-19T05:15:53Z</time>
      </trkpt>
      <trkpt lat="44.25681" lon="7.11841">
        <ele>1629.6</ele>
        <time>2022-07-19T05:15:54Z</time>
      </trkpt>
      <trkpt lat="44.25679" lon="7.11839">
        <ele>1629.6</ele>
        <time>2022-07-19T05:15:55Z</time>
      </trkpt>
      <trkpt lat="44.25677" lon="7.11837">
        <ele>1629.6</ele>
        <time>2022-07-19T05:15:56Z</time>
      </trkpt>
      <trkpt lat="44.25675" lon="7.11834">
        <ele>1629.6</ele>
        <time>2022-07-19T05:15:57Z</time>
      </trkpt>
      <trkpt lat="44.25671" lon="7.11829">
        <ele>1629.8</ele>
        <time>2022-07-19T05:15:58Z</time>
      </trkpt>
      <trkpt lat="44.25669" lon="7.11827">
        <ele>1629.8</ele>
        <time>2022-07-19T05:15:59Z</time>
      </trkpt>
      <trkpt lat="44.25666" lon="7.11825">
        <ele>1629.8</ele>
        <time>2022-07-19T05:16:00Z</time>
      </trkpt>
      <trkpt lat="44.25664" lon="7.11823">
        <ele>1629.8</ele>
        <time>2022-07-19T05:16:01Z</time>
      </trkpt>
      <trkpt lat="44.25662" lon="7.11822">
        <ele>1629.8</ele>
        <time>2022-07-19T05:16:02Z</time>
      </trkpt>
      <trkpt lat="44.2566" lon="7.1182">
        <ele>1629.8</ele>
        <time>2022-07-19T05:16:03Z</time>
      </trkpt>
      <trkpt lat="44.25657" lon="7.11819">
        <ele>1629.8</ele>
        <time>2022-07-19T05:16:04Z</time>
      </trkpt>
      <trkpt lat="44.25655" lon="7.11817">
        <ele>1630</ele>
        <time>2022-07-19T05:16:05Z</time>
      </trkpt>
      <trkpt lat="44.25652" lon="7.11815">
        <ele>1630</ele>
        <time>2022-07-19T05:16:06Z</time>
      </trkpt>
      <trkpt lat="44.2565" lon="7.11813">
        <ele>1630</ele>
        <time>2022-07-19T05:16:07Z</time>
      </trkpt>
      <trkpt lat="44.25647" lon="7.11811">
        <ele>1630</ele>
        <time>2022-07-19T05:16:08Z</time>
      </trkpt>
      <trkpt lat="44.25644" lon="7.1181">
        <ele>1630</ele>
        <time>2022-07-19T05:16:09Z</time>
      </trkpt>
      <trkpt lat="44.25642" lon="7.11808">
        <ele>1630</ele>
        <time>2022-07-19T05:16:10Z</time>
      </trkpt>
      <trkpt lat="44.25639" lon="7.11806">
        <ele>1630</ele>
        <time>2022-07-19T05:16:11Z</time>
      </trkpt>
      <trkpt lat="44.25637" lon="7.11805">
        <ele>1630</ele>
        <time>2022-07-19T05:16:12Z</time>
      </trkpt>
      <trkpt lat="44.25634" lon="7.11804">
        <ele>1630.2</ele>
        <time>2022-07-19T05:16:13Z</time>
      </trkpt>
      <trkpt lat="44.25632" lon="7.11803">
        <ele>1630.2</ele>
        <time>2022-07-19T05:16:14Z</time>
      </trkpt>
      <trkpt lat="44.25629" lon="7.11801">
        <ele>1630.2</ele>
        <time>2022-07-19T05:16:15Z</time>
      </trkpt>
      <trkpt lat="44.25626" lon="7.118">
        <ele>1630.2</ele>
        <time>2022-07-19T05:16:16Z</time>
      </trkpt>
      <trkpt lat="44.25623" lon="7.11799">
        <ele>1630.2</ele>
        <time>2022-07-19T05:16:17Z</time>
      </trkpt>
      <trkpt lat="44.2562" lon="7.11798">
        <ele>1630.2</ele>
        <time>2022-07-19T05:16:18Z</time>
      </trkpt>
      <trkpt lat="44.25617" lon="7.11796">
        <ele>1630.2</ele>
        <time>2022-07-19T05:16:19Z</time>
      </trkpt>
      <trkpt lat="44.25614" lon="7.11795">
        <ele>1630.2</ele>
        <time>2022-07-19T05:16:20Z</time>
      </trkpt>
      <trkpt lat="44.25611" lon="7.11794">
        <ele>1630.2</ele>
        <time>2022-07-19T05:16:21Z</time>
      </trkpt>
      <trkpt lat="44.25608" lon="7.11792">
        <ele>1630.4</ele>
        <time>2022-07-19T05:16:22Z</time>
      </trkpt>
      <trkpt lat="44.25605" lon="7.1179">
        <ele>1630.4</ele>
        <time>2022-07-19T05:16:23Z</time>
      </trkpt>
      <trkpt lat="44.25602" lon="7.11789">
        <ele>1630.4</ele>
        <time>2022-07-19T05:16:24Z</time>
      </trkpt>
      <trkpt lat="44.25599" lon="7.11787">
        <ele>1630.4</ele>
        <time>2022-07-19T05:16:25Z</time>
      </trkpt>
      <trkpt lat="44.25596" lon="7.11786">
        <ele>1630.8</ele>
        <time>2022-07-19T05:16:26Z</time>
      </trkpt>
      <trkpt lat="44.25593" lon="7.11785">
        <ele>1630.8</ele>
        <time>2022-07-19T05:16:27Z</time>
      </trkpt>
      <trkpt lat="44.2559" lon="7.11784">
        <ele>1630.8</ele>
        <time>2022-07-19T05:16:28Z</time>
      </trkpt>
      <trkpt lat="44.25587" lon="7.11783">
        <ele>1630.8</ele>
        <time>2022-07-19T05:16:29Z</time>
      </trkpt>
      <trkpt lat="44.25584" lon="7.11782">
        <ele>1630.8</ele>
        <time>2022-07-19T05:16:30Z</time>
      </trkpt>
      <trkpt lat="44.25581" lon="7.11781">
        <ele>1631</ele>
        <time>2022-07-19T05:16:31Z</time>
      </trkpt>
      <trkpt lat="44.25578" lon="7.1178">
        <ele>1631</ele>
        <time>2022-07-19T05:16:32Z</time>
      </trkpt>
      <trkpt lat="44.25575" lon="7.11779">
        <ele>1631</ele>
        <time>2022-07-19T05:16:33Z</time>
      </trkpt>
      <trkpt lat="44.25572" lon="7.11777">
        <ele>1631.2</ele>
        <time>2022-07-19T05:16:34Z</time>
      </trkpt>
      <trkpt lat="44.25569" lon="7.11776">
        <ele>1631.2</ele>
        <time>2022-07-19T05:16:35Z</time>
      </trkpt>
      <trkpt lat="44.25566" lon="7.11775">
        <ele>1631.2</ele>
        <time>2022-07-19T05:16:36Z</time>
      </trkpt>
      <trkpt lat="44.25563" lon="7.11774">
        <ele>1631.2</ele>
        <time>2022-07-19T05:16:37Z</time>
      </trkpt>
      <trkpt lat="44.2556" lon="7.11773">
        <ele>1631.4</ele>
        <time>2022-07-19T05:16:38Z</time>
      </trkpt>
      <trkpt lat="44.25557" lon="7.11772">
        <ele>1631.4</ele>
        <time>2022-07-19T05:16:39Z</time>
      </trkpt>
      <trkpt lat="44.25554" lon="7.11772">
        <ele>1631.4</ele>
        <time>2022-07-19T05:16:40Z</time>
      </trkpt>
      <trkpt lat="44.25551" lon="7.1177">
        <ele>1631.8</ele>
        <time>2022-07-19T05:16:41Z</time>
      </trkpt>
      <trkpt lat="44.25548" lon="7.11769">
        <ele>1631.8</ele>
        <time>2022-07-19T05:16:42Z</time>
      </trkpt>
      <trkpt lat="44.25545" lon="7.11768">
        <ele>1632</ele>
        <time>2022-07-19T05:16:43Z</time>
      </trkpt>
      <trkpt lat="44.25542" lon="7.11767">
        <ele>1632</ele>
        <time>2022-07-19T05:16:44Z</time>
      </trkpt>
      <trkpt lat="44.25539" lon="7.11766">
        <ele>1632</ele>
        <time>2022-07-19T05:16:45Z</time>
      </trkpt>
      <trkpt lat="44.25536" lon="7.11765">
        <ele>1632</ele>
        <time>2022-07-19T05:16:46Z</time>
      </trkpt>
      <trkpt lat="44.25533" lon="7.11764">
        <ele>1632</ele>
        <time>2022-07-19T05:16:47Z</time>
      </trkpt>
      <trkpt lat="44.2553" lon="7.11763">
        <ele>1632.2</ele>
        <time>2022-07-19T05:16:48Z</time>
      </trkpt>
      <trkpt lat="44.25527" lon="7.11762">
        <ele>1632.2</ele>
        <time>2022-07-19T05:16:49Z</time>
      </trkpt>
      <trkpt lat="44.25524" lon="7.11761">
        <ele>1632.6</ele>
        <time>2022-07-19T05:16:50Z</time>
      </trkpt>
      <trkpt lat="44.25521" lon="7.1176">
        <ele>1632.6</ele>
        <time>2022-07-19T05:16:51Z</time>
      </trkpt>
      <trkpt lat="44.25518" lon="7.11759">
        <ele>1632.8</ele>
        <time>2022-07-19T05:16:52Z</time>
      </trkpt>
      <trkpt lat="44.25515" lon="7.11758">
        <ele>1632.8</ele>
        <time>2022-07-19T05:16:53Z</time>
      </trkpt>
      <trkpt lat="44.25511" lon="7.11758">
        <ele>1632.8</ele>
        <time>2022-07-19T05:16:54Z</time>
      </trkpt>
      <trkpt lat="44.25508" lon="7.11757">
        <ele>1633</ele>
        <time>2022-07-19T05:16:55Z</time>
      </trkpt>
      <trkpt lat="44.25505" lon="7.11756">
        <ele>1633</ele>
        <time>2022-07-19T05:16:56Z</time>
      </trkpt>
      <trkpt lat="44.25502" lon="7.11754">
        <ele>1633</ele>
        <time>2022-07-19T05:16:57Z</time>
      </trkpt>
      <trkpt lat="44.25499" lon="7.11753">
        <ele>1633.4</ele>
        <time>2022-07-19T05:16:58Z</time>
      </trkpt>
      <trkpt lat="44.25497" lon="7.11753">
        <ele>1633.4</ele>
        <time>2022-07-19T05:16:59Z</time>
      </trkpt>
      <trkpt lat="44.25494" lon="7.11752">
        <ele>1633.4</ele>
        <time>2022-07-19T05:17:00Z</time>
      </trkpt>
      <trkpt lat="44.25491" lon="7.11752">
        <ele>1633.6</ele>
        <time>2022-07-19T05:17:01Z</time>
      </trkpt>
      <trkpt lat="44.25489" lon="7.11751">
        <ele>1633.6</ele>
        <time>2022-07-19T05:17:02Z</time>
      </trkpt>
      <trkpt lat="44.25486" lon="7.1175">
        <ele>1633.8</ele>
        <time>2022-07-19T05:17:03Z</time>
      </trkpt>
      <trkpt lat="44.25483" lon="7.11749">
        <ele>1633.8</ele>
        <time>2022-07-19T05:17:04Z</time>
      </trkpt>
      <trkpt lat="44.2548" lon="7.11749">
        <ele>1633.8</ele>
        <time>2022-07-19T05:17:05Z</time>
      </trkpt>
      <trkpt lat="44.25477" lon="7.11748">
        <ele>1634</ele>
        <time>2022-07-19T05:17:06Z</time>
      </trkpt>
      <trkpt lat="44.25475" lon="7.11747">
        <ele>1634</ele>
        <time>2022-07-19T05:17:07Z</time>
      </trkpt>
      <trkpt lat="44.25472" lon="7.11746">
        <ele>1634</ele>
        <time>2022-07-19T05:17:08Z</time>
      </trkpt>
      <trkpt lat="44.25469" lon="7.11745">
        <ele>1634</ele>
        <time>2022-07-19T05:17:09Z</time>
      </trkpt>
      <trkpt lat="44.25466" lon="7.11744">
        <ele>1634.4</ele>
        <time>2022-07-19T05:17:10Z</time>
      </trkpt>
      <trkpt lat="44.25463" lon="7.11743">
        <ele>1634.4</ele>
        <time>2022-07-19T05:17:11Z</time>
      </trkpt>
      <trkpt lat="44.2546" lon="7.11742">
        <ele>1634.4</ele>
        <time>2022-07-19T05:17:12Z</time>
      </trkpt>
      <trkpt lat="44.25458" lon="7.11742">
        <ele>1634.6</ele>
        <time>2022-07-19T05:17:13Z</time>
      </trkpt>
      <trkpt lat="44.25455" lon="7.11741">
        <ele>1634.6</ele>
        <time>2022-07-19T05:17:14Z</time>
      </trkpt>
      <trkpt lat="44.25452" lon="7.1174">
        <ele>1634.6</ele>
        <time>2022-07-19T05:17:15Z</time>
      </trkpt>
      <trkpt lat="44.25449" lon="7.11739">
        <ele>1635</ele>
        <time>2022-07-19T05:17:16Z</time>
      </trkpt>
      <trkpt lat="44.25446" lon="7.11738">
        <ele>1635</ele>
        <time>2022-07-19T05:17:17Z</time>
      </trkpt>
      <trkpt lat="44.25443" lon="7.11736">
        <ele>1635.2</ele>
        <time>2022-07-19T05:17:18Z</time>
      </trkpt>
      <trkpt lat="44.2544" lon="7.11735">
        <ele>1635.2</ele>
        <time>2022-07-19T05:17:19Z</time>
      </trkpt>
      <trkpt lat="44.25438" lon="7.11734">
        <ele>1635.2</ele>
        <time>2022-07-19T05:17:20Z</time>
      </trkpt>
      <trkpt lat="44.25435" lon="7.11733">
        <ele>1635.6</ele>
        <time>2022-07-19T05:17:21Z</time>
      </trkpt>
      <trkpt lat="44.25432" lon="7.11732">
        <ele>1635.6</ele>
        <time>2022-07-19T05:17:22Z</time>
      </trkpt>
      <trkpt lat="44.25429" lon="7.1173">
        <ele>1635.8</ele>
        <time>2022-07-19T05:17:23Z</time>
      </trkpt>
      <trkpt lat="44.25427" lon="7.11729">
        <ele>1635.8</ele>
        <time>2022-07-19T05:17:24Z</time>
      </trkpt>
      <trkpt lat="44.25424" lon="7.11728">
        <ele>1636</ele>
        <time>2022-07-19T05:17:25Z</time>
      </trkpt>
      <trkpt lat="44.25422" lon="7.11727">
        <ele>1636</ele>
        <time>2022-07-19T05:17:26Z</time>
      </trkpt>
      <trkpt lat="44.25419" lon="7.11725">
        <ele>1636.4</ele>
        <time>2022-07-19T05:17:27Z</time>
      </trkpt>
      <trkpt lat="44.25417" lon="7.11724">
        <ele>1636.4</ele>
        <time>2022-07-19T05:17:28Z</time>
      </trkpt>
      <trkpt lat="44.25414" lon="7.11722">
        <ele>1636.8</ele>
        <time>2022-07-19T05:17:29Z</time>
      </trkpt>
      <trkpt lat="44.25412" lon="7.11721">
        <ele>1636.8</ele>
        <time>2022-07-19T05:17:30Z</time>
      </trkpt>
      <trkpt lat="44.25409" lon="7.1172">
        <ele>1637</ele>
        <time>2022-07-19T05:17:31Z</time>
      </trkpt>
      <trkpt lat="44.25407" lon="7.11719">
        <ele>1637.2</ele>
        <time>2022-07-19T05:17:32Z</time>
      </trkpt>
      <trkpt lat="44.25405" lon="7.11718">
        <ele>1637.2</ele>
        <time>2022-07-19T05:17:33Z</time>
      </trkpt>
      <trkpt lat="44.25402" lon="7.11716">
        <ele>1637.4</ele>
        <time>2022-07-19T05:17:34Z</time>
      </trkpt>
      <trkpt lat="44.254" lon="7.11715">
        <ele>1637.4</ele>
        <time>2022-07-19T05:17:35Z</time>
      </trkpt>
      <trkpt lat="44.25398" lon="7.11714">
        <ele>1637.8</ele>
        <time>2022-07-19T05:17:36Z</time>
      </trkpt>
      <trkpt lat="44.25395" lon="7.11713">
        <ele>1637.8</ele>
        <time>2022-07-19T05:17:37Z</time>
      </trkpt>
      <trkpt lat="44.25393" lon="7.11712">
        <ele>1638.2</ele>
        <time>2022-07-19T05:17:38Z</time>
      </trkpt>
      <trkpt lat="44.2539" lon="7.11711">
        <ele>1638.2</ele>
        <time>2022-07-19T05:17:39Z</time>
      </trkpt>
      <trkpt lat="44.25388" lon="7.1171">
        <ele>1638.4</ele>
        <time>2022-07-19T05:17:40Z</time>
      </trkpt>
      <trkpt lat="44.25386" lon="7.11709">
        <ele>1638.4</ele>
        <time>2022-07-19T05:17:41Z</time>
      </trkpt>
      <trkpt lat="44.25384" lon="7.11708">
        <ele>1638.8</ele>
        <time>2022-07-19T05:17:42Z</time>
      </trkpt>
      <trkpt lat="44.25382" lon="7.11706">
        <ele>1638.8</ele>
        <time>2022-07-19T05:17:43Z</time>
      </trkpt>
      <trkpt lat="44.2538" lon="7.11705">
        <ele>1639</ele>
        <time>2022-07-19T05:17:44Z</time>
      </trkpt>
      <trkpt lat="44.25378" lon="7.11703">
        <ele>1639</ele>
        <time>2022-07-19T05:17:45Z</time>
      </trkpt>
      <trkpt lat="44.25375" lon="7.11702">
        <ele>1639.4</ele>
        <time>2022-07-19T05:17:46Z</time>
      </trkpt>
      <trkpt lat="44.25373" lon="7.117">
        <ele>1639.4</ele>
        <time>2022-07-19T05:17:47Z</time>
      </trkpt>
      <trkpt lat="44.25371" lon="7.11699">
        <ele>1639.8</ele>
        <time>2022-07-19T05:17:48Z</time>
      </trkpt>
      <trkpt lat="44.25369" lon="7.11697">
        <ele>1640</ele>
        <time>2022-07-19T05:17:49Z</time>
      </trkpt>
      <trkpt lat="44.25367" lon="7.11695">
        <ele>1640</ele>
        <time>2022-07-19T05:17:50Z</time>
      </trkpt>
      <trkpt lat="44.25365" lon="7.11693">
        <ele>1640.4</ele>
        <time>2022-07-19T05:17:51Z</time>
      </trkpt>
      <trkpt lat="44.25363" lon="7.11691">
        <ele>1640.4</ele>
        <time>2022-07-19T05:17:52Z</time>
      </trkpt>
      <trkpt lat="44.25361" lon="7.1169">
        <ele>1640.6</ele>
        <time>2022-07-19T05:17:53Z</time>
      </trkpt>
      <trkpt lat="44.25359" lon="7.11688">
        <ele>1640.8</ele>
        <time>2022-07-19T05:17:54Z</time>
      </trkpt>
      <trkpt lat="44.25358" lon="7.11686">
        <ele>1641.2</ele>
        <time>2022-07-19T05:17:55Z</time>
      </trkpt>
      <trkpt lat="44.25356" lon="7.11684">
        <ele>1641.2</ele>
        <time>2022-07-19T05:17:56Z</time>
      </trkpt>
      <trkpt lat="44.25355" lon="7.11681">
        <ele>1641.6</ele>
        <time>2022-07-19T05:17:57Z</time>
      </trkpt>
      <trkpt lat="44.25354" lon="7.11678">
        <ele>1641.8</ele>
        <time>2022-07-19T05:17:58Z</time>
      </trkpt>
      <trkpt lat="44.25353" lon="7.11675">
        <ele>1641.8</ele>
        <time>2022-07-19T05:17:59Z</time>
      </trkpt>
      <trkpt lat="44.25352" lon="7.11673">
        <ele>1642.2</ele>
        <time>2022-07-19T05:18:00Z</time>
      </trkpt>
      <trkpt lat="44.2535" lon="7.1167">
        <ele>1642.4</ele>
        <time>2022-07-19T05:18:01Z</time>
      </trkpt>
      <trkpt lat="44.25349" lon="7.11668">
        <ele>1642.4</ele>
        <time>2022-07-19T05:18:02Z</time>
      </trkpt>
      <trkpt lat="44.25348" lon="7.11665">
        <ele>1642.6</ele>
        <time>2022-07-19T05:18:03Z</time>
      </trkpt>
      <trkpt lat="44.25347" lon="7.11663">
        <ele>1642.6</ele>
        <time>2022-07-19T05:18:04Z</time>
      </trkpt>
      <trkpt lat="44.25346" lon="7.11661">
        <ele>1643</ele>
        <time>2022-07-19T05:18:05Z</time>
      </trkpt>
      <trkpt lat="44.25345" lon="7.11659">
        <ele>1643</ele>
        <time>2022-07-19T05:18:06Z</time>
      </trkpt>
      <trkpt lat="44.25344" lon="7.11657">
        <ele>1643.4</ele>
        <time>2022-07-19T05:18:07Z</time>
      </trkpt>
      <trkpt lat="44.25342" lon="7.11655">
        <ele>1643.4</ele>
        <time>2022-07-19T05:18:08Z</time>
      </trkpt>
      <trkpt lat="44.25341" lon="7.11653">
        <ele>1643.6</ele>
        <time>2022-07-19T05:18:09Z</time>
      </trkpt>
      <trkpt lat="44.2534" lon="7.11651">
        <ele>1643.6</ele>
        <time>2022-07-19T05:18:10Z</time>
      </trkpt>
      <trkpt lat="44.25339" lon="7.11649">
        <ele>1643.8</ele>
        <time>2022-07-19T05:18:11Z</time>
      </trkpt>
      <trkpt lat="44.25338" lon="7.11647">
        <ele>1643.8</ele>
        <time>2022-07-19T05:18:12Z</time>
      </trkpt>
      <trkpt lat="44.25337" lon="7.11645">
        <ele>1644.2</ele>
        <time>2022-07-19T05:18:13Z</time>
      </trkpt>
      <trkpt lat="44.25336" lon="7.11642">
        <ele>1644.2</ele>
        <time>2022-07-19T05:18:14Z</time>
      </trkpt>
      <trkpt lat="44.25335" lon="7.1164">
        <ele>1644.4</ele>
        <time>2022-07-19T05:18:15Z</time>
      </trkpt>
      <trkpt lat="44.25334" lon="7.11638">
        <ele>1644.4</ele>
        <time>2022-07-19T05:18:16Z</time>
      </trkpt>
      <trkpt lat="44.25332" lon="7.11635">
        <ele>1644.8</ele>
        <time>2022-07-19T05:18:17Z</time>
      </trkpt>
      <trkpt lat="44.2533" lon="7.11633">
        <ele>1644.8</ele>
        <time>2022-07-19T05:18:18Z</time>
      </trkpt>
      <trkpt lat="44.25329" lon="7.11631">
        <ele>1645</ele>
        <time>2022-07-19T05:18:19Z</time>
      </trkpt>
      <trkpt lat="44.25328" lon="7.11628">
        <ele>1645</ele>
        <time>2022-07-19T05:18:20Z</time>
      </trkpt>
      <trkpt lat="44.25327" lon="7.11626">
        <ele>1645.4</ele>
        <time>2022-07-19T05:18:21Z</time>
      </trkpt>
      <trkpt lat="44.25326" lon="7.11623">
        <ele>1645.6</ele>
        <time>2022-07-19T05:18:22Z</time>
      </trkpt>
      <trkpt lat="44.25325" lon="7.11621">
        <ele>1645.6</ele>
        <time>2022-07-19T05:18:23Z</time>
      </trkpt>
      <trkpt lat="44.25324" lon="7.11619">
        <ele>1646</ele>
        <time>2022-07-19T05:18:24Z</time>
      </trkpt>
      <trkpt lat="44.25322" lon="7.11617">
        <ele>1646</ele>
        <time>2022-07-19T05:18:25Z</time>
      </trkpt>
      <trkpt lat="44.25321" lon="7.11614">
        <ele>1646.4</ele>
        <time>2022-07-19T05:18:26Z</time>
      </trkpt>
      <trkpt lat="44.25321" lon="7.11612">
        <ele>1646.4</ele>
        <time>2022-07-19T05:18:27Z</time>
      </trkpt>
      <trkpt lat="44.2532" lon="7.11609">
        <ele>1646.8</ele>
        <time>2022-07-19T05:18:28Z</time>
      </trkpt>
      <trkpt lat="44.25319" lon="7.11607">
        <ele>1646.8</ele>
        <time>2022-07-19T05:18:29Z</time>
      </trkpt>
      <trkpt lat="44.25318" lon="7.11605">
        <ele>1647</ele>
        <time>2022-07-19T05:18:30Z</time>
      </trkpt>
      <trkpt lat="44.25317" lon="7.11602">
        <ele>1647.4</ele>
        <time>2022-07-19T05:18:31Z</time>
      </trkpt>
      <trkpt lat="44.25317" lon="7.116">
        <ele>1647.4</ele>
        <time>2022-07-19T05:18:32Z</time>
      </trkpt>
      <trkpt lat="44.25317" lon="7.11597">
        <ele>1647.8</ele>
        <time>2022-07-19T05:18:33Z</time>
      </trkpt>
      <trkpt lat="44.25316" lon="7.11595">
        <ele>1647.8</ele>
        <time>2022-07-19T05:18:34Z</time>
      </trkpt>
      <trkpt lat="44.25315" lon="7.11593">
        <ele>1648</ele>
        <time>2022-07-19T05:18:35Z</time>
      </trkpt>
      <trkpt lat="44.25314" lon="7.1159">
        <ele>1648</ele>
        <time>2022-07-19T05:18:36Z</time>
      </trkpt>
      <trkpt lat="44.25314" lon="7.11587">
        <ele>1648.4</ele>
        <time>2022-07-19T05:18:37Z</time>
      </trkpt>
      <trkpt lat="44.25313" lon="7.11585">
        <ele>1648.4</ele>
        <time>2022-07-19T05:18:38Z</time>
      </trkpt>
      <trkpt lat="44.25313" lon="7.11582">
        <ele>1648.6</ele>
        <time>2022-07-19T05:18:39Z</time>
      </trkpt>
      <trkpt lat="44.25313" lon="7.1158">
        <ele>1648.6</ele>
        <time>2022-07-19T05:18:40Z</time>
      </trkpt>
      <trkpt lat="44.25312" lon="7.11577">
        <ele>1648.6</ele>
        <time>2022-07-19T05:18:41Z</time>
      </trkpt>
      <trkpt lat="44.25312" lon="7.11574">
        <ele>1649</ele>
        <time>2022-07-19T05:18:42Z</time>
      </trkpt>
      <trkpt lat="44.25311" lon="7.11571">
        <ele>1649</ele>
        <time>2022-07-19T05:18:43Z</time>
      </trkpt>
      <trkpt lat="44.25311" lon="7.11569">
        <ele>1649.2</ele>
        <time>2022-07-19T05:18:44Z</time>
      </trkpt>
      <trkpt lat="44.2531" lon="7.11566">
        <ele>1649.2</ele>
        <time>2022-07-19T05:18:45Z</time>
      </trkpt>
      <trkpt lat="44.2531" lon="7.11563">
        <ele>1649.6</ele>
        <time>2022-07-19T05:18:46Z</time>
      </trkpt>
      <trkpt lat="44.25309" lon="7.11561">
        <ele>1649.6</ele>
        <time>2022-07-19T05:18:47Z</time>
      </trkpt>
      <trkpt lat="44.25309" lon="7.11557">
        <ele>1649.8</ele>
        <time>2022-07-19T05:18:48Z</time>
      </trkpt>
      <trkpt lat="44.25308" lon="7.11555">
        <ele>1649.8</ele>
        <time>2022-07-19T05:18:49Z</time>
      </trkpt>
      <trkpt lat="44.25308" lon="7.11551">
        <ele>1650.2</ele>
        <time>2022-07-19T05:18:50Z</time>
      </trkpt>
      <trkpt lat="44.25308" lon="7.11548">
        <ele>1650.2</ele>
        <time>2022-07-19T05:18:51Z</time>
      </trkpt>
      <trkpt lat="44.25308" lon="7.11544">
        <ele>1650.2</ele>
        <time>2022-07-19T05:18:52Z</time>
      </trkpt>
      <trkpt lat="44.25307" lon="7.11541">
        <ele>1650.4</ele>
        <time>2022-07-19T05:18:53Z</time>
      </trkpt>
      <trkpt lat="44.25306" lon="7.11539">
        <ele>1650.6</ele>
        <time>2022-07-19T05:18:54Z</time>
      </trkpt>
      <trkpt lat="44.25306" lon="7.11536">
        <ele>1651</ele>
        <time>2022-07-19T05:18:55Z</time>
      </trkpt>
      <trkpt lat="44.25305" lon="7.11533">
        <ele>1651</ele>
        <time>2022-07-19T05:18:56Z</time>
      </trkpt>
      <trkpt lat="44.25305" lon="7.1153">
        <ele>1651</ele>
        <time>2022-07-19T05:18:57Z</time>
      </trkpt>
      <trkpt lat="44.25304" lon="7.11528">
        <ele>1651.2</ele>
        <time>2022-07-19T05:18:58Z</time>
      </trkpt>
      <trkpt lat="44.25303" lon="7.11525">
        <ele>1651.2</ele>
        <time>2022-07-19T05:18:59Z</time>
      </trkpt>
      <trkpt lat="44.25302" lon="7.11522">
        <ele>1651.6</ele>
        <time>2022-07-19T05:19:00Z</time>
      </trkpt>
      <trkpt lat="44.25302" lon="7.1152">
        <ele>1651.6</ele>
        <time>2022-07-19T05:19:01Z</time>
      </trkpt>
      <trkpt lat="44.25301" lon="7.11517">
        <ele>1651.8</ele>
        <time>2022-07-19T05:19:02Z</time>
      </trkpt>
      <trkpt lat="44.253" lon="7.11514">
        <ele>1651.8</ele>
        <time>2022-07-19T05:19:03Z</time>
      </trkpt>
      <trkpt lat="44.25299" lon="7.11512">
        <ele>1652.2</ele>
        <time>2022-07-19T05:19:04Z</time>
      </trkpt>
      <trkpt lat="44.25298" lon="7.11509">
        <ele>1652.4</ele>
        <time>2022-07-19T05:19:05Z</time>
      </trkpt>
      <trkpt lat="44.25296" lon="7.11506">
        <ele>1652.6</ele>
        <time>2022-07-19T05:19:06Z</time>
      </trkpt>
      <trkpt lat="44.25295" lon="7.11504">
        <ele>1652.6</ele>
        <time>2022-07-19T05:19:07Z</time>
      </trkpt>
      <trkpt lat="44.25293" lon="7.11502">
        <ele>1652.8</ele>
        <time>2022-07-19T05:19:08Z</time>
      </trkpt>
      <trkpt lat="44.25292" lon="7.11499">
        <ele>1652.8</ele>
        <time>2022-07-19T05:19:09Z</time>
      </trkpt>
      <trkpt lat="44.2529" lon="7.11497">
        <ele>1653.2</ele>
        <time>2022-07-19T05:19:10Z</time>
      </trkpt>
      <trkpt lat="44.25289" lon="7.11495">
        <ele>1653.2</ele>
        <time>2022-07-19T05:19:11Z</time>
      </trkpt>
      <trkpt lat="44.25288" lon="7.11493">
        <ele>1653.4</ele>
        <time>2022-07-19T05:19:12Z</time>
      </trkpt>
      <trkpt lat="44.25286" lon="7.11491">
        <ele>1653.4</ele>
        <time>2022-07-19T05:19:13Z</time>
      </trkpt>
      <trkpt lat="44.25285" lon="7.11489">
        <ele>1653.4</ele>
        <time>2022-07-19T05:19:14Z</time>
      </trkpt>
      <trkpt lat="44.25283" lon="7.11487">
        <ele>1653.8</ele>
        <time>2022-07-19T05:19:15Z</time>
      </trkpt>
      <trkpt lat="44.25282" lon="7.11485">
        <ele>1653.8</ele>
        <time>2022-07-19T05:19:16Z</time>
      </trkpt>
      <trkpt lat="44.2528" lon="7.11483">
        <ele>1653.8</ele>
        <time>2022-07-19T05:19:17Z</time>
      </trkpt>
      <trkpt lat="44.25279" lon="7.11482">
        <ele>1654</ele>
        <time>2022-07-19T05:19:18Z</time>
      </trkpt>
      <trkpt lat="44.25277" lon="7.1148">
        <ele>1654</ele>
        <time>2022-07-19T05:19:19Z</time>
      </trkpt>
      <trkpt lat="44.25276" lon="7.11478">
        <ele>1654</ele>
        <time>2022-07-19T05:19:20Z</time>
      </trkpt>
      <trkpt lat="44.25274" lon="7.11476">
        <ele>1654.4</ele>
        <time>2022-07-19T05:19:21Z</time>
      </trkpt>
      <trkpt lat="44.25273" lon="7.11474">
        <ele>1654.4</ele>
        <time>2022-07-19T05:19:22Z</time>
      </trkpt>
      <trkpt lat="44.25272" lon="7.11472">
        <ele>1654.6</ele>
        <time>2022-07-19T05:19:23Z</time>
      </trkpt>
      <trkpt lat="44.2527" lon="7.11471">
        <ele>1654.6</ele>
        <time>2022-07-19T05:19:24Z</time>
      </trkpt>
      <trkpt lat="44.25269" lon="7.11469">
        <ele>1655</ele>
        <time>2022-07-19T05:19:25Z</time>
      </trkpt>
      <trkpt lat="44.25267" lon="7.11467">
        <ele>1655</ele>
        <time>2022-07-19T05:19:26Z</time>
      </trkpt>
      <trkpt lat="44.25266" lon="7.11466">
        <ele>1655.2</ele>
        <time>2022-07-19T05:19:27Z</time>
      </trkpt>
      <trkpt lat="44.25264" lon="7.11465">
        <ele>1655.2</ele>
        <time>2022-07-19T05:19:28Z</time>
      </trkpt>
      <trkpt lat="44.25263" lon="7.11463">
        <ele>1655.6</ele>
        <time>2022-07-19T05:19:29Z</time>
      </trkpt>
      <trkpt lat="44.25262" lon="7.11461">
        <ele>1655.6</ele>
        <time>2022-07-19T05:19:30Z</time>
      </trkpt>
      <trkpt lat="44.25261" lon="7.11459">
        <ele>1655.8</ele>
        <time>2022-07-19T05:19:31Z</time>
      </trkpt>
      <trkpt lat="44.2526" lon="7.11457">
        <ele>1655.8</ele>
        <time>2022-07-19T05:19:32Z</time>
      </trkpt>
      <trkpt lat="44.25258" lon="7.11456">
        <ele>1656.2</ele>
        <time>2022-07-19T05:19:33Z</time>
      </trkpt>
      <trkpt lat="44.25257" lon="7.11455">
        <ele>1656.2</ele>
        <time>2022-07-19T05:19:34Z</time>
      </trkpt>
      <trkpt lat="44.25255" lon="7.11454">
        <ele>1656.4</ele>
        <time>2022-07-19T05:19:35Z</time>
      </trkpt>
      <trkpt lat="44.25254" lon="7.11452">
        <ele>1656.4</ele>
        <time>2022-07-19T05:19:36Z</time>
      </trkpt>
      <trkpt lat="44.25252" lon="7.11449">
        <ele>1656.6</ele>
        <time>2022-07-19T05:19:37Z</time>
      </trkpt>
      <trkpt lat="44.25251" lon="7.11448">
        <ele>1656.6</ele>
        <time>2022-07-19T05:19:38Z</time>
      </trkpt>
      <trkpt lat="44.25249" lon="7.11447">
        <ele>1657</ele>
        <time>2022-07-19T05:19:39Z</time>
      </trkpt>
      <trkpt lat="44.25247" lon="7.11446">
        <ele>1657</ele>
        <time>2022-07-19T05:19:40Z</time>
      </trkpt>
      <trkpt lat="44.25245" lon="7.11445">
        <ele>1657</ele>
        <time>2022-07-19T05:19:41Z</time>
      </trkpt>
      <trkpt lat="44.25243" lon="7.11443">
        <ele>1657.4</ele>
        <time>2022-07-19T05:19:42Z</time>
      </trkpt>
      <trkpt lat="44.25241" lon="7.11442">
        <ele>1657.4</ele>
        <time>2022-07-19T05:19:43Z</time>
      </trkpt>
      <trkpt lat="44.25239" lon="7.1144">
        <ele>1657.6</ele>
        <time>2022-07-19T05:19:44Z</time>
      </trkpt>
      <trkpt lat="44.25238" lon="7.11438">
        <ele>1657.6</ele>
        <time>2022-07-19T05:19:45Z</time>
      </trkpt>
      <trkpt lat="44.25236" lon="7.11437">
        <ele>1657.6</ele>
        <time>2022-07-19T05:19:46Z</time>
      </trkpt>
      <trkpt lat="44.25234" lon="7.11435">
        <ele>1658</ele>
        <time>2022-07-19T05:19:47Z</time>
      </trkpt>
      <trkpt lat="44.25233" lon="7.11434">
        <ele>1658.2</ele>
        <time>2022-07-19T05:19:48Z</time>
      </trkpt>
      <trkpt lat="44.25231" lon="7.11433">
        <ele>1658.4</ele>
        <time>2022-07-19T05:19:49Z</time>
      </trkpt>
      <trkpt lat="44.25229" lon="7.11432">
        <ele>1658.4</ele>
        <time>2022-07-19T05:19:50Z</time>
      </trkpt>
      <trkpt lat="44.25228" lon="7.11431">
        <ele>1658.8</ele>
        <time>2022-07-19T05:19:51Z</time>
      </trkpt>
      <trkpt lat="44.25226" lon="7.1143">
        <ele>1658.8</ele>
        <time>2022-07-19T05:19:52Z</time>
      </trkpt>
      <trkpt lat="44.25224" lon="7.11429">
        <ele>1659</ele>
        <time>2022-07-19T05:19:53Z</time>
      </trkpt>
      <trkpt lat="44.25223" lon="7.11427">
        <ele>1659</ele>
        <time>2022-07-19T05:19:54Z</time>
      </trkpt>
      <trkpt lat="44.25221" lon="7.11426">
        <ele>1659.2</ele>
        <time>2022-07-19T05:19:55Z</time>
      </trkpt>
      <trkpt lat="44.25219" lon="7.11426">
        <ele>1659.2</ele>
        <time>2022-07-19T05:19:56Z</time>
      </trkpt>
      <trkpt lat="44.25218" lon="7.11425">
        <ele>1659.6</ele>
        <time>2022-07-19T05:19:57Z</time>
      </trkpt>
      <trkpt lat="44.25216" lon="7.11425">
        <ele>1659.6</ele>
        <time>2022-07-19T05:19:58Z</time>
      </trkpt>
      <trkpt lat="44.25214" lon="7.11424">
        <ele>1659.8</ele>
        <time>2022-07-19T05:19:59Z</time>
      </trkpt>
      <trkpt lat="44.25212" lon="7.11423">
        <ele>1659.8</ele>
        <time>2022-07-19T05:20:00Z</time>
      </trkpt>
      <trkpt lat="44.25211" lon="7.11422">
        <ele>1660</ele>
        <time>2022-07-19T05:20:01Z</time>
      </trkpt>
      <trkpt lat="44.25209" lon="7.1142">
        <ele>1660</ele>
        <time>2022-07-19T05:20:02Z</time>
      </trkpt>
      <trkpt lat="44.25208" lon="7.11419">
        <ele>1660.4</ele>
        <time>2022-07-19T05:20:03Z</time>
      </trkpt>
      <trkpt lat="44.25206" lon="7.11417">
        <ele>1660.4</ele>
        <time>2022-07-19T05:20:04Z</time>
      </trkpt>
      <trkpt lat="44.25204" lon="7.11417">
        <ele>1660.6</ele>
        <time>2022-07-19T05:20:05Z</time>
      </trkpt>
      <trkpt lat="44.25203" lon="7.11415">
        <ele>1660.6</ele>
        <time>2022-07-19T05:20:06Z</time>
      </trkpt>
      <trkpt lat="44.25201" lon="7.11414">
        <ele>1660.8</ele>
        <time>2022-07-19T05:20:07Z</time>
      </trkpt>
      <trkpt lat="44.252" lon="7.11413">
        <ele>1660.8</ele>
        <time>2022-07-19T05:20:08Z</time>
      </trkpt>
      <trkpt lat="44.25198" lon="7.11412">
        <ele>1661</ele>
        <time>2022-07-19T05:20:09Z</time>
      </trkpt>
      <trkpt lat="44.25197" lon="7.1141">
        <ele>1661.4</ele>
        <time>2022-07-19T05:20:10Z</time>
      </trkpt>
      <trkpt lat="44.25195" lon="7.11409">
        <ele>1661.4</ele>
        <time>2022-07-19T05:20:11Z</time>
      </trkpt>
      <trkpt lat="44.25194" lon="7.11407">
        <ele>1661.4</ele>
        <time>2022-07-19T05:20:12Z</time>
      </trkpt>
      <trkpt lat="44.25192" lon="7.11406">
        <ele>1661.6</ele>
        <time>2022-07-19T05:20:13Z</time>
      </trkpt>
      <trkpt lat="44.25191" lon="7.11404">
        <ele>1661.6</ele>
        <time>2022-07-19T05:20:14Z</time>
      </trkpt>
      <trkpt lat="44.25189" lon="7.11403">
        <ele>1661.8</ele>
        <time>2022-07-19T05:20:15Z</time>
      </trkpt>
      <trkpt lat="44.25187" lon="7.11402">
        <ele>1661.8</ele>
        <time>2022-07-19T05:20:16Z</time>
      </trkpt>
      <trkpt lat="44.25186" lon="7.11401">
        <ele>1662.2</ele>
        <time>2022-07-19T05:20:17Z</time>
      </trkpt>
      <trkpt lat="44.25184" lon="7.114">
        <ele>1662.4</ele>
        <time>2022-07-19T05:20:18Z</time>
      </trkpt>
      <trkpt lat="44.25182" lon="7.11398">
        <ele>1662.4</ele>
        <time>2022-07-19T05:20:19Z</time>
      </trkpt>
      <trkpt lat="44.25181" lon="7.11397">
        <ele>1662.6</ele>
        <time>2022-07-19T05:20:20Z</time>
      </trkpt>
      <trkpt lat="44.25179" lon="7.11395">
        <ele>1662.6</ele>
        <time>2022-07-19T05:20:21Z</time>
      </trkpt>
      <trkpt lat="44.25178" lon="7.11394">
        <ele>1662.8</ele>
        <time>2022-07-19T05:20:22Z</time>
      </trkpt>
      <trkpt lat="44.25176" lon="7.11393">
        <ele>1662.8</ele>
        <time>2022-07-19T05:20:23Z</time>
      </trkpt>
      <trkpt lat="44.25175" lon="7.11392">
        <ele>1663.2</ele>
        <time>2022-07-19T05:20:24Z</time>
      </trkpt>
      <trkpt lat="44.25173" lon="7.1139">
        <ele>1663.4</ele>
        <time>2022-07-19T05:20:25Z</time>
      </trkpt>
      <trkpt lat="44.25172" lon="7.11389">
        <ele>1663.4</ele>
        <time>2022-07-19T05:20:26Z</time>
      </trkpt>
      <trkpt lat="44.2517" lon="7.11388">
        <ele>1663.4</ele>
        <time>2022-07-19T05:20:27Z</time>
      </trkpt>
      <trkpt lat="44.25169" lon="7.11387">
        <ele>1663.8</ele>
        <time>2022-07-19T05:20:28Z</time>
      </trkpt>
      <trkpt lat="44.25167" lon="7.11386">
        <ele>1663.8</ele>
        <time>2022-07-19T05:20:29Z</time>
      </trkpt>
      <trkpt lat="44.25166" lon="7.11385">
        <ele>1664</ele>
        <time>2022-07-19T05:20:30Z</time>
      </trkpt>
      <trkpt lat="44.25164" lon="7.11384">
        <ele>1664</ele>
        <time>2022-07-19T05:20:31Z</time>
      </trkpt>
      <trkpt lat="44.25163" lon="7.11383">
        <ele>1664.4</ele>
        <time>2022-07-19T05:20:32Z</time>
      </trkpt>
      <trkpt lat="44.25161" lon="7.11383">
        <ele>1664.4</ele>
        <time>2022-07-19T05:20:33Z</time>
      </trkpt>
      <trkpt lat="44.25159" lon="7.11384">
        <ele>1664.6</ele>
        <time>2022-07-19T05:20:34Z</time>
      </trkpt>
      <trkpt lat="44.25157" lon="7.11384">
        <ele>1664.6</ele>
        <time>2022-07-19T05:20:35Z</time>
      </trkpt>
      <trkpt lat="44.25155" lon="7.11384">
        <ele>1664.6</ele>
        <time>2022-07-19T05:20:36Z</time>
      </trkpt>
      <trkpt lat="44.25153" lon="7.11385">
        <ele>1664.6</ele>
        <time>2022-07-19T05:20:37Z</time>
      </trkpt>
      <trkpt lat="44.25151" lon="7.11385">
        <ele>1664.8</ele>
        <time>2022-07-19T05:20:38Z</time>
      </trkpt>
      <trkpt lat="44.25149" lon="7.11385">
        <ele>1664.8</ele>
        <time>2022-07-19T05:20:39Z</time>
      </trkpt>
      <trkpt lat="44.25147" lon="7.11385">
        <ele>1664.8</ele>
        <time>2022-07-19T05:20:40Z</time>
      </trkpt>
      <trkpt lat="44.25145" lon="7.11386">
        <ele>1664.8</ele>
        <time>2022-07-19T05:20:41Z</time>
      </trkpt>
      <trkpt lat="44.25143" lon="7.11386">
        <ele>1665.2</ele>
        <time>2022-07-19T05:20:42Z</time>
      </trkpt>
      <trkpt lat="44.25142" lon="7.11387">
        <ele>1665.2</ele>
        <time>2022-07-19T05:20:43Z</time>
      </trkpt>
      <trkpt lat="44.2514" lon="7.11388">
        <ele>1665.4</ele>
        <time>2022-07-19T05:20:44Z</time>
      </trkpt>
      <trkpt lat="44.25139" lon="7.11389">
        <ele>1665.4</ele>
        <time>2022-07-19T05:20:45Z</time>
      </trkpt>
      <trkpt lat="44.25137" lon="7.1139">
        <ele>1665.6</ele>
        <time>2022-07-19T05:20:46Z</time>
      </trkpt>
      <trkpt lat="44.25135" lon="7.11392">
        <ele>1665.6</ele>
        <time>2022-07-19T05:20:47Z</time>
      </trkpt>
      <trkpt lat="44.25133" lon="7.11393">
        <ele>1665.6</ele>
        <time>2022-07-19T05:20:48Z</time>
      </trkpt>
      <trkpt lat="44.25131" lon="7.11394">
        <ele>1665.8</ele>
        <time>2022-07-19T05:20:49Z</time>
      </trkpt>
      <trkpt lat="44.25129" lon="7.11395">
        <ele>1665.8</ele>
        <time>2022-07-19T05:20:50Z</time>
      </trkpt>
      <trkpt lat="44.25127" lon="7.11397">
        <ele>1666</ele>
        <time>2022-07-19T05:20:51Z</time>
      </trkpt>
      <trkpt lat="44.25125" lon="7.11398">
        <ele>1666</ele>
        <time>2022-07-19T05:20:52Z</time>
      </trkpt>
      <trkpt lat="44.25123" lon="7.11399">
        <ele>1666.4</ele>
        <time>2022-07-19T05:20:53Z</time>
      </trkpt>
      <trkpt lat="44.25121" lon="7.114">
        <ele>1666.4</ele>
        <time>2022-07-19T05:20:54Z</time>
      </trkpt>
      <trkpt lat="44.25119" lon="7.114">
        <ele>1666.4</ele>
        <time>2022-07-19T05:20:55Z</time>
      </trkpt>
      <trkpt lat="44.25116" lon="7.11401">
        <ele>1666.6</ele>
        <time>2022-07-19T05:20:56Z</time>
      </trkpt>
      <trkpt lat="44.25114" lon="7.11401">
        <ele>1666.6</ele>
        <time>2022-07-19T05:20:57Z</time>
      </trkpt>
      <trkpt lat="44.25112" lon="7.11401">
        <ele>1666.8</ele>
        <time>2022-07-19T05:20:58Z</time>
      </trkpt>
      <trkpt lat="44.2511" lon="7.11401">
        <ele>1666.8</ele>
        <time>2022-07-19T05:20:59Z</time>
      </trkpt>
      <trkpt lat="44.25108" lon="7.11401">
        <ele>1667.2</ele>
        <time>2022-07-19T05:21:00Z</time>
      </trkpt>
      <trkpt lat="44.25106" lon="7.11401">
        <ele>1667.2</ele>
        <time>2022-07-19T05:21:01Z</time>
      </trkpt>
      <trkpt lat="44.25104" lon="7.11401">
        <ele>1667.4</ele>
        <time>2022-07-19T05:21:02Z</time>
      </trkpt>
      <trkpt lat="44.25101" lon="7.11401">
        <ele>1667.4</ele>
        <time>2022-07-19T05:21:03Z</time>
      </trkpt>
      <trkpt lat="44.25099" lon="7.114">
        <ele>1667.8</ele>
        <time>2022-07-19T05:21:04Z</time>
      </trkpt>
      <trkpt lat="44.25097" lon="7.114">
        <ele>1667.8</ele>
        <time>2022-07-19T05:21:05Z</time>
      </trkpt>
      <trkpt lat="44.25095" lon="7.114">
        <ele>1668</ele>
        <time>2022-07-19T05:21:06Z</time>
      </trkpt>
      <trkpt lat="44.25093" lon="7.11399">
        <ele>1668</ele>
        <time>2022-07-19T05:21:07Z</time>
      </trkpt>
      <trkpt lat="44.25091" lon="7.11399">
        <ele>1668.2</ele>
        <time>2022-07-19T05:21:08Z</time>
      </trkpt>
      <trkpt lat="44.25089" lon="7.11399">
        <ele>1668.2</ele>
        <time>2022-07-19T05:21:09Z</time>
      </trkpt>
      <trkpt lat="44.25086" lon="7.11399">
        <ele>1668.4</ele>
        <time>2022-07-19T05:21:10Z</time>
      </trkpt>
      <trkpt lat="44.25084" lon="7.11399">
        <ele>1668.4</ele>
        <time>2022-07-19T05:21:11Z</time>
      </trkpt>
      <trkpt lat="44.25081" lon="7.11398">
        <ele>1668.6</ele>
        <time>2022-07-19T05:21:12Z</time>
      </trkpt>
      <trkpt lat="44.25079" lon="7.11398">
        <ele>1668.6</ele>
        <time>2022-07-19T05:21:13Z</time>
      </trkpt>
      <trkpt lat="44.25077" lon="7.11398">
        <ele>1668.8</ele>
        <time>2022-07-19T05:21:14Z</time>
      </trkpt>
      <trkpt lat="44.25074" lon="7.11397">
        <ele>1668.8</ele>
        <time>2022-07-19T05:21:15Z</time>
      </trkpt>
      <trkpt lat="44.25072" lon="7.11397">
        <ele>1669.2</ele>
        <time>2022-07-19T05:21:16Z</time>
      </trkpt>
      <trkpt lat="44.2507" lon="7.11396">
        <ele>1669.2</ele>
        <time>2022-07-19T05:21:17Z</time>
      </trkpt>
      <trkpt lat="44.25067" lon="7.11396">
        <ele>1669.4</ele>
        <time>2022-07-19T05:21:18Z</time>
      </trkpt>
      <trkpt lat="44.25065" lon="7.11396">
        <ele>1669.4</ele>
        <time>2022-07-19T05:21:19Z</time>
      </trkpt>
      <trkpt lat="44.25063" lon="7.11395">
        <ele>1669.8</ele>
        <time>2022-07-19T05:21:20Z</time>
      </trkpt>
      <trkpt lat="44.2506" lon="7.11396">
        <ele>1669.8</ele>
        <time>2022-07-19T05:21:21Z</time>
      </trkpt>
      <trkpt lat="44.25058" lon="7.11396">
        <ele>1670</ele>
        <time>2022-07-19T05:21:22Z</time>
      </trkpt>
      <trkpt lat="44.25056" lon="7.11396">
        <ele>1670</ele>
        <time>2022-07-19T05:21:23Z</time>
      </trkpt>
      <trkpt lat="44.25054" lon="7.11396">
        <ele>1670.2</ele>
        <time>2022-07-19T05:21:24Z</time>
      </trkpt>
      <trkpt lat="44.25052" lon="7.11396">
        <ele>1670.2</ele>
        <time>2022-07-19T05:21:25Z</time>
      </trkpt>
      <trkpt lat="44.25049" lon="7.11396">
        <ele>1670.4</ele>
        <time>2022-07-19T05:21:26Z</time>
      </trkpt>
      <trkpt lat="44.25047" lon="7.11396">
        <ele>1670.4</ele>
        <time>2022-07-19T05:21:27Z</time>
      </trkpt>
      <trkpt lat="44.25045" lon="7.11396">
        <ele>1670.8</ele>
        <time>2022-07-19T05:21:28Z</time>
      </trkpt>
      <trkpt lat="44.25042" lon="7.11396">
        <ele>1670.8</ele>
        <time>2022-07-19T05:21:29Z</time>
      </trkpt>
      <trkpt lat="44.2504" lon="7.11396">
        <ele>1671</ele>
        <time>2022-07-19T05:21:30Z</time>
      </trkpt>
      <trkpt lat="44.25038" lon="7.11396">
        <ele>1671</ele>
        <time>2022-07-19T05:21:31Z</time>
      </trkpt>
      <trkpt lat="44.25035" lon="7.11396">
        <ele>1671.2</ele>
        <time>2022-07-19T05:21:32Z</time>
      </trkpt>
      <trkpt lat="44.25033" lon="7.11396">
        <ele>1671.2</ele>
        <time>2022-07-19T05:21:33Z</time>
      </trkpt>
      <trkpt lat="44.2503" lon="7.11396">
        <ele>1671.4</ele>
        <time>2022-07-19T05:21:34Z</time>
      </trkpt>
      <trkpt lat="44.25028" lon="7.11396">
        <ele>1671.4</ele>
        <time>2022-07-19T05:21:35Z</time>
      </trkpt>
      <trkpt lat="44.25025" lon="7.11395">
        <ele>1671.4</ele>
        <time>2022-07-19T05:21:36Z</time>
      </trkpt>
      <trkpt lat="44.25023" lon="7.11395">
        <ele>1671.8</ele>
        <time>2022-07-19T05:21:37Z</time>
      </trkpt>
      <trkpt lat="44.2502" lon="7.11395">
        <ele>1671.8</ele>
        <time>2022-07-19T05:21:38Z</time>
      </trkpt>
      <trkpt lat="44.25018" lon="7.11394">
        <ele>1671.8</ele>
        <time>2022-07-19T05:21:39Z</time>
      </trkpt>
      <trkpt lat="44.25015" lon="7.11394">
        <ele>1672</ele>
        <time>2022-07-19T05:21:40Z</time>
      </trkpt>
      <trkpt lat="44.25013" lon="7.11394">
        <ele>1672</ele>
        <time>2022-07-19T05:21:41Z</time>
      </trkpt>
      <trkpt lat="44.2501" lon="7.11393">
        <ele>1672.2</ele>
        <time>2022-07-19T05:21:42Z</time>
      </trkpt>
      <trkpt lat="44.25008" lon="7.11393">
        <ele>1672.2</ele>
        <time>2022-07-19T05:21:43Z</time>
      </trkpt>
      <trkpt lat="44.25006" lon="7.11393">
        <ele>1672.6</ele>
        <time>2022-07-19T05:21:44Z</time>
      </trkpt>
      <trkpt lat="44.25003" lon="7.11393">
        <ele>1672.8</ele>
        <time>2022-07-19T05:21:45Z</time>
      </trkpt>
      <trkpt lat="44.25001" lon="7.11392">
        <ele>1672.8</ele>
        <time>2022-07-19T05:21:46Z</time>
      </trkpt>
      <trkpt lat="44.24999" lon="7.11392">
        <ele>1673.2</ele>
        <time>2022-07-19T05:21:47Z</time>
      </trkpt>
      <trkpt lat="44.24996" lon="7.11391">
        <ele>1673.2</ele>
        <time>2022-07-19T05:21:48Z</time>
      </trkpt>
      <trkpt lat="44.24994" lon="7.11391">
        <ele>1673.4</ele>
        <time>2022-07-19T05:21:49Z</time>
      </trkpt>
      <trkpt lat="44.24991" lon="7.1139">
        <ele>1673.4</ele>
        <time>2022-07-19T05:21:50Z</time>
      </trkpt>
      <trkpt lat="44.24989" lon="7.11389">
        <ele>1673.6</ele>
        <time>2022-07-19T05:21:51Z</time>
      </trkpt>
      <trkpt lat="44.24986" lon="7.11388">
        <ele>1673.6</ele>
        <time>2022-07-19T05:21:52Z</time>
      </trkpt>
      <trkpt lat="44.24984" lon="7.11387">
        <ele>1673.8</ele>
        <time>2022-07-19T05:21:53Z</time>
      </trkpt>
      <trkpt lat="44.24982" lon="7.11387">
        <ele>1673.8</ele>
        <time>2022-07-19T05:21:54Z</time>
      </trkpt>
      <trkpt lat="44.24979" lon="7.11386">
        <ele>1674.2</ele>
        <time>2022-07-19T05:21:55Z</time>
      </trkpt>
      <trkpt lat="44.24977" lon="7.11385">
        <ele>1674.2</ele>
        <time>2022-07-19T05:21:56Z</time>
      </trkpt>
      <trkpt lat="44.24975" lon="7.11384">
        <ele>1674.6</ele>
        <time>2022-07-19T05:21:57Z</time>
      </trkpt>
      <trkpt lat="44.24972" lon="7.11384">
        <ele>1674.6</ele>
        <time>2022-07-19T05:21:58Z</time>
      </trkpt>
      <trkpt lat="44.2497" lon="7.11382">
        <ele>1674.8</ele>
        <time>2022-07-19T05:21:59Z</time>
      </trkpt>
      <trkpt lat="44.24968" lon="7.11381">
        <ele>1674.8</ele>
        <time>2022-07-19T05:22:00Z</time>
      </trkpt>
      <trkpt lat="44.24965" lon="7.1138">
        <ele>1675.2</ele>
        <time>2022-07-19T05:22:01Z</time>
      </trkpt>
      <trkpt lat="44.24963" lon="7.11379">
        <ele>1675.2</ele>
        <time>2022-07-19T05:22:02Z</time>
      </trkpt>
      <trkpt lat="44.24961" lon="7.11378">
        <ele>1675.4</ele>
        <time>2022-07-19T05:22:03Z</time>
      </trkpt>
      <trkpt lat="44.24959" lon="7.11377">
        <ele>1675.4</ele>
        <time>2022-07-19T05:22:04Z</time>
      </trkpt>
      <trkpt lat="44.24957" lon="7.11375">
        <ele>1675.6</ele>
        <time>2022-07-19T05:22:05Z</time>
      </trkpt>
      <trkpt lat="44.24955" lon="7.11373">
        <ele>1675.6</ele>
        <time>2022-07-19T05:22:06Z</time>
      </trkpt>
      <trkpt lat="44.24953" lon="7.11371">
        <ele>1676</ele>
        <time>2022-07-19T05:22:07Z</time>
      </trkpt>
      <trkpt lat="44.24951" lon="7.11368">
        <ele>1676.2</ele>
        <time>2022-07-19T05:22:08Z</time>
      </trkpt>
      <trkpt lat="44.24949" lon="7.11366">
        <ele>1676.2</ele>
        <time>2022-07-19T05:22:09Z</time>
      </trkpt>
      <trkpt lat="44.24947" lon="7.11364">
        <ele>1676.4</ele>
        <time>2022-07-19T05:22:10Z</time>
      </trkpt>
      <trkpt lat="44.24946" lon="7.11362">
        <ele>1676.4</ele>
        <time>2022-07-19T05:22:11Z</time>
      </trkpt>
      <trkpt lat="44.24944" lon="7.1136">
        <ele>1676.4</ele>
        <time>2022-07-19T05:22:12Z</time>
      </trkpt>
      <trkpt lat="44.24942" lon="7.11358">
        <ele>1676.8</ele>
        <time>2022-07-19T05:22:13Z</time>
      </trkpt>
      <trkpt lat="44.2494" lon="7.11356">
        <ele>1677</ele>
        <time>2022-07-19T05:22:14Z</time>
      </trkpt>
      <trkpt lat="44.24938" lon="7.11354">
        <ele>1677</ele>
        <time>2022-07-19T05:22:15Z</time>
      </trkpt>
      <trkpt lat="44.24936" lon="7.11352">
        <ele>1677.4</ele>
        <time>2022-07-19T05:22:16Z</time>
      </trkpt>
      <trkpt lat="44.24934" lon="7.1135">
        <ele>1677.4</ele>
        <time>2022-07-19T05:22:17Z</time>
      </trkpt>
      <trkpt lat="44.24932" lon="7.11348">
        <ele>1677.8</ele>
        <time>2022-07-19T05:22:18Z</time>
      </trkpt>
      <trkpt lat="44.2493" lon="7.11346">
        <ele>1677.8</ele>
        <time>2022-07-19T05:22:19Z</time>
      </trkpt>
      <trkpt lat="44.24927" lon="7.11344">
        <ele>1678.2</ele>
        <time>2022-07-19T05:22:20Z</time>
      </trkpt>
      <trkpt lat="44.24925" lon="7.11341">
        <ele>1678.4</ele>
        <time>2022-07-19T05:22:21Z</time>
      </trkpt>
      <trkpt lat="44.24923" lon="7.11339">
        <ele>1678.4</ele>
        <time>2022-07-19T05:22:22Z</time>
      </trkpt>
      <trkpt lat="44.24921" lon="7.11338">
        <ele>1678.6</ele>
        <time>2022-07-19T05:22:23Z</time>
      </trkpt>
      <trkpt lat="44.24918" lon="7.11336">
        <ele>1678.6</ele>
        <time>2022-07-19T05:22:24Z</time>
      </trkpt>
      <trkpt lat="44.24916" lon="7.11334">
        <ele>1679</ele>
        <time>2022-07-19T05:22:25Z</time>
      </trkpt>
      <trkpt lat="44.24914" lon="7.11332">
        <ele>1679</ele>
        <time>2022-07-19T05:22:26Z</time>
      </trkpt>
      <trkpt lat="44.24912" lon="7.11329">
        <ele>1679.2</ele>
        <time>2022-07-19T05:22:27Z</time>
      </trkpt>
      <trkpt lat="44.2491" lon="7.11327">
        <ele>1679.2</ele>
        <time>2022-07-19T05:22:28Z</time>
      </trkpt>
      <trkpt lat="44.24908" lon="7.11324">
        <ele>1679.2</ele>
        <time>2022-07-19T05:22:29Z</time>
      </trkpt>
      <trkpt lat="44.24906" lon="7.11322">
        <ele>1679.6</ele>
        <time>2022-07-19T05:22:30Z</time>
      </trkpt>
      <trkpt lat="44.24904" lon="7.11319">
        <ele>1679.6</ele>
        <time>2022-07-19T05:22:31Z</time>
      </trkpt>
      <trkpt lat="44.24901" lon="7.11317">
        <ele>1679.6</ele>
        <time>2022-07-19T05:22:32Z</time>
      </trkpt>
      <trkpt lat="44.24899" lon="7.11315">
        <ele>1679.8</ele>
        <time>2022-07-19T05:22:33Z</time>
      </trkpt>
      <trkpt lat="44.24896" lon="7.11313">
        <ele>1679.8</ele>
        <time>2022-07-19T05:22:34Z</time>
      </trkpt>
      <trkpt lat="44.24894" lon="7.11311">
        <ele>1679.8</ele>
        <time>2022-07-19T05:22:35Z</time>
      </trkpt>
      <trkpt lat="44.24892" lon="7.11308">
        <ele>1679.8</ele>
        <time>2022-07-19T05:22:36Z</time>
      </trkpt>
      <trkpt lat="44.2489" lon="7.11305">
        <ele>1680</ele>
        <time>2022-07-19T05:22:37Z</time>
      </trkpt>
      <trkpt lat="44.24888" lon="7.11303">
        <ele>1680</ele>
        <time>2022-07-19T05:22:38Z</time>
      </trkpt>
      <trkpt lat="44.24885" lon="7.11301">
        <ele>1680</ele>
        <time>2022-07-19T05:22:39Z</time>
      </trkpt>
      <trkpt lat="44.24883" lon="7.11299">
        <ele>1680</ele>
        <time>2022-07-19T05:22:40Z</time>
      </trkpt>
      <trkpt lat="44.24881" lon="7.11297">
        <ele>1680.4</ele>
        <time>2022-07-19T05:22:41Z</time>
      </trkpt>
      <trkpt lat="44.24879" lon="7.11295">
        <ele>1680.4</ele>
        <time>2022-07-19T05:22:42Z</time>
      </trkpt>
      <trkpt lat="44.24877" lon="7.11293">
        <ele>1680.8</ele>
        <time>2022-07-19T05:22:43Z</time>
      </trkpt>
      <trkpt lat="44.24875" lon="7.11291">
        <ele>1680.8</ele>
        <time>2022-07-19T05:22:44Z</time>
      </trkpt>
      <trkpt lat="44.24873" lon="7.11289">
        <ele>1681</ele>
        <time>2022-07-19T05:22:45Z</time>
      </trkpt>
      <trkpt lat="44.2487" lon="7.11286">
        <ele>1681</ele>
        <time>2022-07-19T05:22:46Z</time>
      </trkpt>
      <trkpt lat="44.24868" lon="7.11284">
        <ele>1681</ele>
        <time>2022-07-19T05:22:47Z</time>
      </trkpt>
      <trkpt lat="44.24866" lon="7.11281">
        <ele>1681.2</ele>
        <time>2022-07-19T05:22:49Z</time>
      </trkpt>
      <trkpt lat="44.24863" lon="7.11278">
        <ele>1681.2</ele>
        <time>2022-07-19T05:22:50Z</time>
      </trkpt>
      <trkpt lat="44.24861" lon="7.11275">
        <ele>1681.2</ele>
        <time>2022-07-19T05:22:51Z</time>
      </trkpt>
      <trkpt lat="44.24859" lon="7.11272">
        <ele>1681.2</ele>
        <time>2022-07-19T05:22:52Z</time>
      </trkpt>
      <trkpt lat="44.24857" lon="7.11268">
        <ele>1681.4</ele>
        <time>2022-07-19T05:22:53Z</time>
      </trkpt>
      <trkpt lat="44.24855" lon="7.11264">
        <ele>1681.4</ele>
        <time>2022-07-19T05:22:54Z</time>
      </trkpt>
      <trkpt lat="44.24853" lon="7.11261">
        <ele>1681.6</ele>
        <time>2022-07-19T05:22:55Z</time>
      </trkpt>
      <trkpt lat="44.24851" lon="7.11257">
        <ele>1681.6</ele>
        <time>2022-07-19T05:22:56Z</time>
      </trkpt>
      <trkpt lat="44.24849" lon="7.11254">
        <ele>1681.6</ele>
        <time>2022-07-19T05:22:57Z</time>
      </trkpt>
      <trkpt lat="44.24847" lon="7.1125">
        <ele>1681.6</ele>
        <time>2022-07-19T05:22:58Z</time>
      </trkpt>
      <trkpt lat="44.24845" lon="7.11246">
        <ele>1681.6</ele>
        <time>2022-07-19T05:22:59Z</time>
      </trkpt>
      <trkpt lat="44.24844" lon="7.11242">
        <ele>1681.6</ele>
        <time>2022-07-19T05:23:00Z</time>
      </trkpt>
      <trkpt lat="44.24842" lon="7.11238">
        <ele>1682</ele>
        <time>2022-07-19T05:23:01Z</time>
      </trkpt>
      <trkpt lat="44.2484" lon="7.11234">
        <ele>1682</ele>
        <time>2022-07-19T05:23:02Z</time>
      </trkpt>
      <trkpt lat="44.24839" lon="7.1123">
        <ele>1682</ele>
        <time>2022-07-19T05:23:03Z</time>
      </trkpt>
      <trkpt lat="44.24837" lon="7.11226">
        <ele>1682</ele>
        <time>2022-07-19T05:23:04Z</time>
      </trkpt>
      <trkpt lat="44.24835" lon="7.11222">
        <ele>1682</ele>
        <time>2022-07-19T05:23:05Z</time>
      </trkpt>
      <trkpt lat="44.24833" lon="7.11218">
        <ele>1682</ele>
        <time>2022-07-19T05:23:06Z</time>
      </trkpt>
      <trkpt lat="44.24831" lon="7.11214">
        <ele>1682</ele>
        <time>2022-07-19T05:23:07Z</time>
      </trkpt>
      <trkpt lat="44.24829" lon="7.11209">
        <ele>1682</ele>
        <time>2022-07-19T05:23:08Z</time>
      </trkpt>
      <trkpt lat="44.24827" lon="7.11205">
        <ele>1682.2</ele>
        <time>2022-07-19T05:23:09Z</time>
      </trkpt>
      <trkpt lat="44.24825" lon="7.11201">
        <ele>1682.2</ele>
        <time>2022-07-19T05:23:10Z</time>
      </trkpt>
      <trkpt lat="44.24823" lon="7.11196">
        <ele>1682.2</ele>
        <time>2022-07-19T05:23:11Z</time>
      </trkpt>
      <trkpt lat="44.2482" lon="7.11192">
        <ele>1682.2</ele>
        <time>2022-07-19T05:23:12Z</time>
      </trkpt>
      <trkpt lat="44.24818" lon="7.11187">
        <ele>1682.2</ele>
        <time>2022-07-19T05:23:13Z</time>
      </trkpt>
      <trkpt lat="44.24816" lon="7.11183">
        <ele>1682.2</ele>
        <time>2022-07-19T05:23:14Z</time>
      </trkpt>
      <trkpt lat="44.24813" lon="7.11178">
        <ele>1682.2</ele>
        <time>2022-07-19T05:23:15Z</time>
      </trkpt>
      <trkpt lat="44.2481" lon="7.11174">
        <ele>1682.2</ele>
        <time>2022-07-19T05:23:16Z</time>
      </trkpt>
      <trkpt lat="44.24807" lon="7.11169">
        <ele>1682.2</ele>
        <time>2022-07-19T05:23:17Z</time>
      </trkpt>
      <trkpt lat="44.24804" lon="7.11166">
        <ele>1682.2</ele>
        <time>2022-07-19T05:23:18Z</time>
      </trkpt>
      <trkpt lat="44.248" lon="7.11163">
        <ele>1682.2</ele>
        <time>2022-07-19T05:23:19Z</time>
      </trkpt>
      <trkpt lat="44.24796" lon="7.1116">
        <ele>1682.2</ele>
        <time>2022-07-19T05:23:20Z</time>
      </trkpt>
      <trkpt lat="44.24791" lon="7.11158">
        <ele>1682.4</ele>
        <time>2022-07-19T05:23:21Z</time>
      </trkpt>
      <trkpt lat="44.24787" lon="7.11157">
        <ele>1682.4</ele>
        <time>2022-07-19T05:23:22Z</time>
      </trkpt>
      <trkpt lat="44.24782" lon="7.11156">
        <ele>1682.4</ele>
        <time>2022-07-19T05:23:23Z</time>
      </trkpt>
      <trkpt lat="44.24777" lon="7.11155">
        <ele>1682.4</ele>
        <time>2022-07-19T05:23:24Z</time>
      </trkpt>
      <trkpt lat="44.24773" lon="7.11154">
        <ele>1682.4</ele>
        <time>2022-07-19T05:23:25Z</time>
      </trkpt>
      <trkpt lat="44.24768" lon="7.11154">
        <ele>1682.6</ele>
        <time>2022-07-19T05:23:26Z</time>
      </trkpt>
      <trkpt lat="44.24764" lon="7.11154">
        <ele>1682.6</ele>
        <time>2022-07-19T05:23:27Z</time>
      </trkpt>
      <trkpt lat="44.2476" lon="7.11155">
        <ele>1682.6</ele>
        <time>2022-07-19T05:23:28Z</time>
      </trkpt>
      <trkpt lat="44.24756" lon="7.11155">
        <ele>1682.6</ele>
        <time>2022-07-19T05:23:29Z</time>
      </trkpt>
      <trkpt lat="44.24751" lon="7.11155">
        <ele>1682.6</ele>
        <time>2022-07-19T05:23:30Z</time>
      </trkpt>
      <trkpt lat="44.24747" lon="7.11155">
        <ele>1682.6</ele>
        <time>2022-07-19T05:23:31Z</time>
      </trkpt>
      <trkpt lat="44.24743" lon="7.11155">
        <ele>1682.6</ele>
        <time>2022-07-19T05:23:32Z</time>
      </trkpt>
      <trkpt lat="44.24739" lon="7.11154">
        <ele>1682.6</ele>
        <time>2022-07-19T05:23:33Z</time>
      </trkpt>
      <trkpt lat="44.24735" lon="7.11153">
        <ele>1682.6</ele>
        <time>2022-07-19T05:23:34Z</time>
      </trkpt>
      <trkpt lat="44.24731" lon="7.11152">
        <ele>1682.6</ele>
        <time>2022-07-19T05:23:35Z</time>
      </trkpt>
      <trkpt lat="44.24727" lon="7.11151">
        <ele>1682.8</ele>
        <time>2022-07-19T05:23:36Z</time>
      </trkpt>
      <trkpt lat="44.24722" lon="7.11149">
        <ele>1682.8</ele>
        <time>2022-07-19T05:23:37Z</time>
      </trkpt>
      <trkpt lat="44.24718" lon="7.11147">
        <ele>1682.8</ele>
        <time>2022-07-19T05:23:38Z</time>
      </trkpt>
      <trkpt lat="44.24714" lon="7.11145">
        <ele>1682.8</ele>
        <time>2022-07-19T05:23:39Z</time>
      </trkpt>
      <trkpt lat="44.24711" lon="7.11141">
        <ele>1682.8</ele>
        <time>2022-07-19T05:23:40Z</time>
      </trkpt>
      <trkpt lat="44.24708" lon="7.11137">
        <ele>1683</ele>
        <time>2022-07-19T05:23:41Z</time>
      </trkpt>
      <trkpt lat="44.24703" lon="7.11127">
        <ele>1683</ele>
        <time>2022-07-19T05:23:42Z</time>
      </trkpt>
      <trkpt lat="44.24701" lon="7.11122">
        <ele>1683</ele>
        <time>2022-07-19T05:23:43Z</time>
      </trkpt>
      <trkpt lat="44.24698" lon="7.11117">
        <ele>1683</ele>
        <time>2022-07-19T05:23:44Z</time>
      </trkpt>
      <trkpt lat="44.24695" lon="7.11113">
        <ele>1683</ele>
        <time>2022-07-19T05:23:45Z</time>
      </trkpt>
      <trkpt lat="44.24692" lon="7.1111">
        <ele>1683</ele>
        <time>2022-07-19T05:23:46Z</time>
      </trkpt>
      <trkpt lat="44.24688" lon="7.11107">
        <ele>1683.2</ele>
        <time>2022-07-19T05:23:47Z</time>
      </trkpt>
      <trkpt lat="44.24684" lon="7.11105">
        <ele>1683.2</ele>
        <time>2022-07-19T05:23:48Z</time>
      </trkpt>
      <trkpt lat="44.2468" lon="7.11104">
        <ele>1683.2</ele>
        <time>2022-07-19T05:23:49Z</time>
      </trkpt>
      <trkpt lat="44.24676" lon="7.11104">
        <ele>1683.2</ele>
        <time>2022-07-19T05:23:50Z</time>
      </trkpt>
      <trkpt lat="44.24672" lon="7.11104">
        <ele>1683.6</ele>
        <time>2022-07-19T05:23:51Z</time>
      </trkpt>
      <trkpt lat="44.24668" lon="7.11106">
        <ele>1683.6</ele>
        <time>2022-07-19T05:23:52Z</time>
      </trkpt>
      <trkpt lat="44.24664" lon="7.11107">
        <ele>1683.6</ele>
        <time>2022-07-19T05:23:53Z</time>
      </trkpt>
      <trkpt lat="44.2466" lon="7.11108">
        <ele>1683.6</ele>
        <time>2022-07-19T05:23:54Z</time>
      </trkpt>
      <trkpt lat="44.24656" lon="7.11108">
        <ele>1683.6</ele>
        <time>2022-07-19T05:23:55Z</time>
      </trkpt>
      <trkpt lat="44.24651" lon="7.11108">
        <ele>1683.8</ele>
        <time>2022-07-19T05:23:56Z</time>
      </trkpt>
      <trkpt lat="44.24647" lon="7.11106">
        <ele>1683.8</ele>
        <time>2022-07-19T05:23:57Z</time>
      </trkpt>
      <trkpt lat="44.24643" lon="7.11104">
        <ele>1683.8</ele>
        <time>2022-07-19T05:23:58Z</time>
      </trkpt>
      <trkpt lat="44.24639" lon="7.11101">
        <ele>1683.8</ele>
        <time>2022-07-19T05:23:59Z</time>
      </trkpt>
      <trkpt lat="44.24636" lon="7.11097">
        <ele>1683.8</ele>
        <time>2022-07-19T05:24:00Z</time>
      </trkpt>
      <trkpt lat="44.24633" lon="7.11093">
        <ele>1684</ele>
        <time>2022-07-19T05:24:01Z</time>
      </trkpt>
      <trkpt lat="44.2463" lon="7.11089">
        <ele>1684</ele>
        <time>2022-07-19T05:24:02Z</time>
      </trkpt>
      <trkpt lat="44.24626" lon="7.11085">
        <ele>1684.2</ele>
        <time>2022-07-19T05:24:03Z</time>
      </trkpt>
      <trkpt lat="44.24623" lon="7.11082">
        <ele>1684.2</ele>
        <time>2022-07-19T05:24:04Z</time>
      </trkpt>
      <trkpt lat="44.24619" lon="7.11079">
        <ele>1684.2</ele>
        <time>2022-07-19T05:24:05Z</time>
      </trkpt>
      <trkpt lat="44.24615" lon="7.11077">
        <ele>1684.2</ele>
        <time>2022-07-19T05:24:06Z</time>
      </trkpt>
      <trkpt lat="44.24611" lon="7.11076">
        <ele>1684.2</ele>
        <time>2022-07-19T05:24:07Z</time>
      </trkpt>
      <trkpt lat="44.24606" lon="7.11076">
        <ele>1684.4</ele>
        <time>2022-07-19T05:24:08Z</time>
      </trkpt>
      <trkpt lat="44.24602" lon="7.11076">
        <ele>1684.4</ele>
        <time>2022-07-19T05:24:09Z</time>
      </trkpt>
      <trkpt lat="44.24597" lon="7.11076">
        <ele>1684.4</ele>
        <time>2022-07-19T05:24:10Z</time>
      </trkpt>
      <trkpt lat="44.24593" lon="7.11077">
        <ele>1684.4</ele>
        <time>2022-07-19T05:24:11Z</time>
      </trkpt>
      <trkpt lat="44.24589" lon="7.11077">
        <ele>1684.4</ele>
        <time>2022-07-19T05:24:12Z</time>
      </trkpt>
      <trkpt lat="44.24585" lon="7.11077">
        <ele>1684.8</ele>
        <time>2022-07-19T05:24:13Z</time>
      </trkpt>
      <trkpt lat="44.24581" lon="7.11077">
        <ele>1684.8</ele>
        <time>2022-07-19T05:24:14Z</time>
      </trkpt>
      <trkpt lat="44.24577" lon="7.11077">
        <ele>1684.8</ele>
        <time>2022-07-19T05:24:15Z</time>
      </trkpt>
      <trkpt lat="44.24573" lon="7.11076">
        <ele>1684.8</ele>
        <time>2022-07-19T05:24:16Z</time>
      </trkpt>
      <trkpt lat="44.24569" lon="7.11077">
        <ele>1684.8</ele>
        <time>2022-07-19T05:24:17Z</time>
      </trkpt>
      <trkpt lat="44.24564" lon="7.11078">
        <ele>1684.8</ele>
        <time>2022-07-19T05:24:18Z</time>
      </trkpt>
      <trkpt lat="44.2456" lon="7.1108">
        <ele>1684.8</ele>
        <time>2022-07-19T05:24:19Z</time>
      </trkpt>
      <trkpt lat="44.24557" lon="7.11082">
        <ele>1684.8</ele>
        <time>2022-07-19T05:24:20Z</time>
      </trkpt>
      <trkpt lat="44.24553" lon="7.11085">
        <ele>1684.8</ele>
        <time>2022-07-19T05:24:21Z</time>
      </trkpt>
      <trkpt lat="44.2455" lon="7.11089">
        <ele>1684.8</ele>
        <time>2022-07-19T05:24:22Z</time>
      </trkpt>
      <trkpt lat="44.24548" lon="7.11093">
        <ele>1684.8</ele>
        <time>2022-07-19T05:24:23Z</time>
      </trkpt>
      <trkpt lat="44.24545" lon="7.11097">
        <ele>1684.8</ele>
        <time>2022-07-19T05:24:24Z</time>
      </trkpt>
      <trkpt lat="44.24542" lon="7.11101">
        <ele>1684.8</ele>
        <time>2022-07-19T05:24:25Z</time>
      </trkpt>
      <trkpt lat="44.24539" lon="7.11105">
        <ele>1684.8</ele>
        <time>2022-07-19T05:24:26Z</time>
      </trkpt>
      <trkpt lat="44.24535" lon="7.11108">
        <ele>1684.8</ele>
        <time>2022-07-19T05:24:27Z</time>
      </trkpt>
      <trkpt lat="44.24531" lon="7.11111">
        <ele>1684.8</ele>
        <time>2022-07-19T05:24:28Z</time>
      </trkpt>
      <trkpt lat="44.24526" lon="7.11113">
        <ele>1684.8</ele>
        <time>2022-07-19T05:24:29Z</time>
      </trkpt>
      <trkpt lat="44.24522" lon="7.11114">
        <ele>1684.8</ele>
        <time>2022-07-19T05:24:30Z</time>
      </trkpt>
      <trkpt lat="44.24517" lon="7.11114">
        <ele>1684.8</ele>
        <time>2022-07-19T05:24:31Z</time>
      </trkpt>
      <trkpt lat="44.24513" lon="7.11113">
        <ele>1684.8</ele>
        <time>2022-07-19T05:24:32Z</time>
      </trkpt>
      <trkpt lat="44.24508" lon="7.11112">
        <ele>1684.8</ele>
        <time>2022-07-19T05:24:33Z</time>
      </trkpt>
      <trkpt lat="44.24504" lon="7.11111">
        <ele>1684.8</ele>
        <time>2022-07-19T05:24:34Z</time>
      </trkpt>
      <trkpt lat="44.245" lon="7.11109">
        <ele>1684.8</ele>
        <time>2022-07-19T05:24:35Z</time>
      </trkpt>
      <trkpt lat="44.24496" lon="7.11108">
        <ele>1684.8</ele>
        <time>2022-07-19T05:24:36Z</time>
      </trkpt>
      <trkpt lat="44.24492" lon="7.11106">
        <ele>1685</ele>
        <time>2022-07-19T05:24:37Z</time>
      </trkpt>
      <trkpt lat="44.24487" lon="7.11105">
        <ele>1685</ele>
        <time>2022-07-19T05:24:38Z</time>
      </trkpt>
      <trkpt lat="44.24483" lon="7.11104">
        <ele>1685</ele>
        <time>2022-07-19T05:24:39Z</time>
      </trkpt>
      <trkpt lat="44.24479" lon="7.11103">
        <ele>1685</ele>
        <time>2022-07-19T05:24:40Z</time>
      </trkpt>
      <trkpt lat="44.24475" lon="7.11102">
        <ele>1685</ele>
        <time>2022-07-19T05:24:41Z</time>
      </trkpt>
      <trkpt lat="44.2447" lon="7.11102">
        <ele>1685</ele>
        <time>2022-07-19T05:24:42Z</time>
      </trkpt>
      <trkpt lat="44.24466" lon="7.11102">
        <ele>1685</ele>
        <time>2022-07-19T05:24:43Z</time>
      </trkpt>
      <trkpt lat="44.24462" lon="7.11101">
        <ele>1685.2</ele>
        <time>2022-07-19T05:24:44Z</time>
      </trkpt>
      <trkpt lat="44.24457" lon="7.11101">
        <ele>1685.2</ele>
        <time>2022-07-19T05:24:45Z</time>
      </trkpt>
      <trkpt lat="44.24453" lon="7.11101">
        <ele>1685.2</ele>
        <time>2022-07-19T05:24:46Z</time>
      </trkpt>
      <trkpt lat="44.24449" lon="7.111">
        <ele>1685.2</ele>
        <time>2022-07-19T05:24:47Z</time>
      </trkpt>
      <trkpt lat="44.24444" lon="7.111">
        <ele>1685.2</ele>
        <time>2022-07-19T05:24:48Z</time>
      </trkpt>
      <trkpt lat="44.2444" lon="7.11101">
        <ele>1685.4</ele>
        <time>2022-07-19T05:24:49Z</time>
      </trkpt>
      <trkpt lat="44.24436" lon="7.11102">
        <ele>1685.4</ele>
        <time>2022-07-19T05:24:50Z</time>
      </trkpt>
      <trkpt lat="44.24432" lon="7.11102">
        <ele>1685.4</ele>
        <time>2022-07-19T05:24:51Z</time>
      </trkpt>
      <trkpt lat="44.24428" lon="7.11103">
        <ele>1685.4</ele>
        <time>2022-07-19T05:24:52Z</time>
      </trkpt>
      <trkpt lat="44.24423" lon="7.11104">
        <ele>1685.4</ele>
        <time>2022-07-19T05:24:53Z</time>
      </trkpt>
      <trkpt lat="44.24419" lon="7.11104">
        <ele>1685.4</ele>
        <time>2022-07-19T05:24:54Z</time>
      </trkpt>
      <trkpt lat="44.24415" lon="7.11105">
        <ele>1685.4</ele>
        <time>2022-07-19T05:24:55Z</time>
      </trkpt>
      <trkpt lat="44.24411" lon="7.11106">
        <ele>1685.6</ele>
        <time>2022-07-19T05:24:56Z</time>
      </trkpt>
      <trkpt lat="44.24406" lon="7.11106">
        <ele>1685.6</ele>
        <time>2022-07-19T05:24:57Z</time>
      </trkpt>
      <trkpt lat="44.24402" lon="7.11107">
        <ele>1685.6</ele>
        <time>2022-07-19T05:24:58Z</time>
      </trkpt>
      <trkpt lat="44.24398" lon="7.11107">
        <ele>1685.8</ele>
        <time>2022-07-19T05:24:59Z</time>
      </trkpt>
      <trkpt lat="44.24394" lon="7.11108">
        <ele>1685.8</ele>
        <time>2022-07-19T05:25:00Z</time>
      </trkpt>
      <trkpt lat="44.2439" lon="7.11109">
        <ele>1685.8</ele>
        <time>2022-07-19T05:25:01Z</time>
      </trkpt>
      <trkpt lat="44.24386" lon="7.1111">
        <ele>1685.8</ele>
        <time>2022-07-19T05:25:02Z</time>
      </trkpt>
      <trkpt lat="44.24382" lon="7.11112">
        <ele>1685.8</ele>
        <time>2022-07-19T05:25:03Z</time>
      </trkpt>
      <trkpt lat="44.24378" lon="7.11113">
        <ele>1686.2</ele>
        <time>2022-07-19T05:25:04Z</time>
      </trkpt>
      <trkpt lat="44.24374" lon="7.11115">
        <ele>1686.2</ele>
        <time>2022-07-19T05:25:05Z</time>
      </trkpt>
      <trkpt lat="44.2437" lon="7.11118">
        <ele>1686.2</ele>
        <time>2022-07-19T05:25:06Z</time>
      </trkpt>
      <trkpt lat="44.24367" lon="7.11121">
        <ele>1686.2</ele>
        <time>2022-07-19T05:25:07Z</time>
      </trkpt>
      <trkpt lat="44.24363" lon="7.11124">
        <ele>1686.4</ele>
        <time>2022-07-19T05:25:08Z</time>
      </trkpt>
      <trkpt lat="44.24359" lon="7.11128">
        <ele>1686.4</ele>
        <time>2022-07-19T05:25:09Z</time>
      </trkpt>
      <trkpt lat="44.24355" lon="7.11131">
        <ele>1686.4</ele>
        <time>2022-07-19T05:25:10Z</time>
      </trkpt>
      <trkpt lat="44.24351" lon="7.11134">
        <ele>1686.4</ele>
        <time>2022-07-19T05:25:11Z</time>
      </trkpt>
      <trkpt lat="44.24347" lon="7.11135">
        <ele>1686.4</ele>
        <time>2022-07-19T05:25:12Z</time>
      </trkpt>
      <trkpt lat="44.24342" lon="7.11136">
        <ele>1686.4</ele>
        <time>2022-07-19T05:25:13Z</time>
      </trkpt>
      <trkpt lat="44.24338" lon="7.11135">
        <ele>1686.4</ele>
        <time>2022-07-19T05:25:14Z</time>
      </trkpt>
      <trkpt lat="44.24333" lon="7.11134">
        <ele>1686.4</ele>
        <time>2022-07-19T05:25:15Z</time>
      </trkpt>
      <trkpt lat="44.24329" lon="7.11131">
        <ele>1686.4</ele>
        <time>2022-07-19T05:25:16Z</time>
      </trkpt>
      <trkpt lat="44.24325" lon="7.11128">
        <ele>1686.4</ele>
        <time>2022-07-19T05:25:17Z</time>
      </trkpt>
      <trkpt lat="44.24322" lon="7.11125">
        <ele>1686.4</ele>
        <time>2022-07-19T05:25:18Z</time>
      </trkpt>
      <trkpt lat="44.24318" lon="7.11121">
        <ele>1686.4</ele>
        <time>2022-07-19T05:25:19Z</time>
      </trkpt>
      <trkpt lat="44.24315" lon="7.11118">
        <ele>1686.6</ele>
        <time>2022-07-19T05:25:20Z</time>
      </trkpt>
      <trkpt lat="44.24311" lon="7.11115">
        <ele>1686.6</ele>
        <time>2022-07-19T05:25:21Z</time>
      </trkpt>
      <trkpt lat="44.24307" lon="7.11112">
        <ele>1686.6</ele>
        <time>2022-07-19T05:25:22Z</time>
      </trkpt>
      <trkpt lat="44.24303" lon="7.1111">
        <ele>1686.6</ele>
        <time>2022-07-19T05:25:23Z</time>
      </trkpt>
      <trkpt lat="44.24298" lon="7.11108">
        <ele>1686.6</ele>
        <time>2022-07-19T05:25:24Z</time>
      </trkpt>
      <trkpt lat="44.24294" lon="7.11107">
        <ele>1686.6</ele>
        <time>2022-07-19T05:25:25Z</time>
      </trkpt>
      <trkpt lat="44.2429" lon="7.11106">
        <ele>1686.6</ele>
        <time>2022-07-19T05:25:26Z</time>
      </trkpt>
      <trkpt lat="44.24285" lon="7.11104">
        <ele>1686.6</ele>
        <time>2022-07-19T05:25:27Z</time>
      </trkpt>
      <trkpt lat="44.24281" lon="7.11101">
        <ele>1686.6</ele>
        <time>2022-07-19T05:25:28Z</time>
      </trkpt>
      <trkpt lat="44.24277" lon="7.11098">
        <ele>1686.6</ele>
        <time>2022-07-19T05:25:29Z</time>
      </trkpt>
      <trkpt lat="44.24273" lon="7.11096">
        <ele>1686.6</ele>
        <time>2022-07-19T05:25:30Z</time>
      </trkpt>
      <trkpt lat="44.24268" lon="7.11093">
        <ele>1686.6</ele>
        <time>2022-07-19T05:25:31Z</time>
      </trkpt>
      <trkpt lat="44.24264" lon="7.1109">
        <ele>1686.6</ele>
        <time>2022-07-19T05:25:32Z</time>
      </trkpt>
      <trkpt lat="44.2426" lon="7.11089">
        <ele>1686.6</ele>
        <time>2022-07-19T05:25:33Z</time>
      </trkpt>
      <trkpt lat="44.24255" lon="7.11088">
        <ele>1686.6</ele>
        <time>2022-07-19T05:25:34Z</time>
      </trkpt>
      <trkpt lat="44.2425" lon="7.11087">
        <ele>1686.8</ele>
        <time>2022-07-19T05:25:35Z</time>
      </trkpt>
      <trkpt lat="44.24246" lon="7.11086">
        <ele>1686.8</ele>
        <time>2022-07-19T05:25:36Z</time>
      </trkpt>
      <trkpt lat="44.24241" lon="7.11086">
        <ele>1686.8</ele>
        <time>2022-07-19T05:25:37Z</time>
      </trkpt>
      <trkpt lat="44.24237" lon="7.11086">
        <ele>1686.8</ele>
        <time>2022-07-19T05:25:38Z</time>
      </trkpt>
      <trkpt lat="44.24233" lon="7.11085">
        <ele>1686.8</ele>
        <time>2022-07-19T05:25:39Z</time>
      </trkpt>
      <trkpt lat="44.24229" lon="7.11085">
        <ele>1687</ele>
        <time>2022-07-19T05:25:40Z</time>
      </trkpt>
      <trkpt lat="44.24224" lon="7.11085">
        <ele>1687</ele>
        <time>2022-07-19T05:25:41Z</time>
      </trkpt>
      <trkpt lat="44.2422" lon="7.11085">
        <ele>1687</ele>
        <time>2022-07-19T05:25:42Z</time>
      </trkpt>
      <trkpt lat="44.24216" lon="7.11085">
        <ele>1687</ele>
        <time>2022-07-19T05:25:43Z</time>
      </trkpt>
      <trkpt lat="44.24212" lon="7.11086">
        <ele>1687</ele>
        <time>2022-07-19T05:25:44Z</time>
      </trkpt>
      <trkpt lat="44.24208" lon="7.11086">
        <ele>1687.2</ele>
        <time>2022-07-19T05:25:45Z</time>
      </trkpt>
      <trkpt lat="44.24204" lon="7.11087">
        <ele>1687.2</ele>
        <time>2022-07-19T05:25:46Z</time>
      </trkpt>
      <trkpt lat="44.242" lon="7.11088">
        <ele>1687.4</ele>
        <time>2022-07-19T05:25:47Z</time>
      </trkpt>
      <trkpt lat="44.24196" lon="7.11089">
        <ele>1687.4</ele>
        <time>2022-07-19T05:25:48Z</time>
      </trkpt>
      <trkpt lat="44.24192" lon="7.1109">
        <ele>1687.4</ele>
        <time>2022-07-19T05:25:49Z</time>
      </trkpt>
      <trkpt lat="44.24189" lon="7.11092">
        <ele>1687.8</ele>
        <time>2022-07-19T05:25:50Z</time>
      </trkpt>
      <trkpt lat="44.24185" lon="7.11093">
        <ele>1687.8</ele>
        <time>2022-07-19T05:25:51Z</time>
      </trkpt>
      <trkpt lat="44.24182" lon="7.11093">
        <ele>1687.8</ele>
        <time>2022-07-19T05:25:52Z</time>
      </trkpt>
      <trkpt lat="44.24178" lon="7.11094">
        <ele>1687.8</ele>
        <time>2022-07-19T05:25:53Z</time>
      </trkpt>
      <trkpt lat="44.24175" lon="7.11095">
        <ele>1687.8</ele>
        <time>2022-07-19T05:25:54Z</time>
      </trkpt>
      <trkpt lat="44.24171" lon="7.11096">
        <ele>1688</ele>
        <time>2022-07-19T05:25:55Z</time>
      </trkpt>
      <trkpt lat="44.24167" lon="7.11097">
        <ele>1688</ele>
        <time>2022-07-19T05:25:56Z</time>
      </trkpt>
      <trkpt lat="44.24163" lon="7.11097">
        <ele>1688</ele>
        <time>2022-07-19T05:25:57Z</time>
      </trkpt>
      <trkpt lat="44.24159" lon="7.11097">
        <ele>1688</ele>
        <time>2022-07-19T05:25:58Z</time>
      </trkpt>
      <trkpt lat="44.24156" lon="7.11096">
        <ele>1688</ele>
        <time>2022-07-19T05:25:59Z</time>
      </trkpt>
      <trkpt lat="44.24152" lon="7.11095">
        <ele>1688.2</ele>
        <time>2022-07-19T05:26:00Z</time>
      </trkpt>
      <trkpt lat="44.24148" lon="7.11094">
        <ele>1688.2</ele>
        <time>2022-07-19T05:26:01Z</time>
      </trkpt>
      <trkpt lat="44.24144" lon="7.11093">
        <ele>1688.2</ele>
        <time>2022-07-19T05:26:02Z</time>
      </trkpt>
      <trkpt lat="44.2414" lon="7.11091">
        <ele>1688.2</ele>
        <time>2022-07-19T05:26:03Z</time>
      </trkpt>
      <trkpt lat="44.24137" lon="7.11089">
        <ele>1688.4</ele>
        <time>2022-07-19T05:26:04Z</time>
      </trkpt>
      <trkpt lat="44.24133" lon="7.11086">
        <ele>1688.4</ele>
        <time>2022-07-19T05:26:05Z</time>
      </trkpt>
      <trkpt lat="44.2413" lon="7.11083">
        <ele>1688.4</ele>
        <time>2022-07-19T05:26:06Z</time>
      </trkpt>
      <trkpt lat="44.24127" lon="7.1108">
        <ele>1688.4</ele>
        <time>2022-07-19T05:26:07Z</time>
      </trkpt>
      <trkpt lat="44.24125" lon="7.11076">
        <ele>1688.4</ele>
        <time>2022-07-19T05:26:08Z</time>
      </trkpt>
      <trkpt lat="44.24122" lon="7.11072">
        <ele>1688.6</ele>
        <time>2022-07-19T05:26:09Z</time>
      </trkpt>
      <trkpt lat="44.2412" lon="7.11068">
        <ele>1688.6</ele>
        <time>2022-07-19T05:26:10Z</time>
      </trkpt>
      <trkpt lat="44.24118" lon="7.11064">
        <ele>1688.6</ele>
        <time>2022-07-19T05:26:11Z</time>
      </trkpt>
      <trkpt lat="44.24116" lon="7.1106">
        <ele>1689</ele>
        <time>2022-07-19T05:26:12Z</time>
      </trkpt>
      <trkpt lat="44.24114" lon="7.11056">
        <ele>1689</ele>
        <time>2022-07-19T05:26:13Z</time>
      </trkpt>
      <trkpt lat="44.24112" lon="7.11052">
        <ele>1689</ele>
        <time>2022-07-19T05:26:14Z</time>
      </trkpt>
      <trkpt lat="44.24109" lon="7.11049">
        <ele>1689.2</ele>
        <time>2022-07-19T05:26:15Z</time>
      </trkpt>
      <trkpt lat="44.24107" lon="7.11045">
        <ele>1689.2</ele>
        <time>2022-07-19T05:26:16Z</time>
      </trkpt>
      <trkpt lat="44.24105" lon="7.11042">
        <ele>1689.4</ele>
        <time>2022-07-19T05:26:17Z</time>
      </trkpt>
      <trkpt lat="44.24102" lon="7.11039">
        <ele>1689.4</ele>
        <time>2022-07-19T05:26:18Z</time>
      </trkpt>
      <trkpt lat="44.241" lon="7.11036">
        <ele>1689.6</ele>
        <time>2022-07-19T05:26:19Z</time>
      </trkpt>
      <trkpt lat="44.24098" lon="7.11032">
        <ele>1689.6</ele>
        <time>2022-07-19T05:26:20Z</time>
      </trkpt>
      <trkpt lat="44.24095" lon="7.1103">
        <ele>1689.6</ele>
        <time>2022-07-19T05:26:21Z</time>
      </trkpt>
      <trkpt lat="44.24092" lon="7.11028">
        <ele>1689.6</ele>
        <time>2022-07-19T05:26:22Z</time>
      </trkpt>
      <trkpt lat="44.24089" lon="7.11026">
        <ele>1689.6</ele>
        <time>2022-07-19T05:26:23Z</time>
      </trkpt>
      <trkpt lat="44.24086" lon="7.11025">
        <ele>1689.6</ele>
        <time>2022-07-19T05:26:24Z</time>
      </trkpt>
      <trkpt lat="44.24083" lon="7.11025">
        <ele>1690</ele>
        <time>2022-07-19T05:26:25Z</time>
      </trkpt>
      <trkpt lat="44.2408" lon="7.11026">
        <ele>1690</ele>
        <time>2022-07-19T05:26:26Z</time>
      </trkpt>
      <trkpt lat="44.24077" lon="7.11028">
        <ele>1690</ele>
        <time>2022-07-19T05:26:27Z</time>
      </trkpt>
      <trkpt lat="44.24075" lon="7.11031">
        <ele>1690</ele>
        <time>2022-07-19T05:26:28Z</time>
      </trkpt>
      <trkpt lat="44.24072" lon="7.11034">
        <ele>1690</ele>
        <time>2022-07-19T05:26:29Z</time>
      </trkpt>
      <trkpt lat="44.2407" lon="7.11038">
        <ele>1690</ele>
        <time>2022-07-19T05:26:30Z</time>
      </trkpt>
      <trkpt lat="44.24068" lon="7.11042">
        <ele>1690</ele>
        <time>2022-07-19T05:26:31Z</time>
      </trkpt>
      <trkpt lat="44.24068" lon="7.11047">
        <ele>1690.2</ele>
        <time>2022-07-19T05:26:32Z</time>
      </trkpt>
      <trkpt lat="44.24068" lon="7.11051">
        <ele>1690.2</ele>
        <time>2022-07-19T05:26:33Z</time>
      </trkpt>
      <trkpt lat="44.24068" lon="7.11056">
        <ele>1690.6</ele>
        <time>2022-07-19T05:26:34Z</time>
      </trkpt>
      <trkpt lat="44.2407" lon="7.11059">
        <ele>1690.6</ele>
        <time>2022-07-19T05:26:35Z</time>
      </trkpt>
      <trkpt lat="44.24071" lon="7.11063">
        <ele>1690.8</ele>
        <time>2022-07-19T05:26:36Z</time>
      </trkpt>
      <trkpt lat="44.24072" lon="7.11066">
        <ele>1690.8</ele>
        <time>2022-07-19T05:26:37Z</time>
      </trkpt>
      <trkpt lat="44.24073" lon="7.1107">
        <ele>1691.2</ele>
        <time>2022-07-19T05:26:38Z</time>
      </trkpt>
      <trkpt lat="44.24073" lon="7.11073">
        <ele>1691.2</ele>
        <time>2022-07-19T05:26:39Z</time>
      </trkpt>
      <trkpt lat="44.24074" lon="7.11076">
        <ele>1691.6</ele>
        <time>2022-07-19T05:26:40Z</time>
      </trkpt>
      <trkpt lat="44.24075" lon="7.11079">
        <ele>1691.6</ele>
        <time>2022-07-19T05:26:41Z</time>
      </trkpt>
      <trkpt lat="44.24076" lon="7.11082">
        <ele>1692</ele>
        <time>2022-07-19T05:26:42Z</time>
      </trkpt>
      <trkpt lat="44.24077" lon="7.11084">
        <ele>1692.2</ele>
        <time>2022-07-19T05:26:43Z</time>
      </trkpt>
      <trkpt lat="44.24079" lon="7.11087">
        <ele>1692.2</ele>
        <time>2022-07-19T05:26:44Z</time>
      </trkpt>
      <trkpt lat="44.24079" lon="7.11089">
        <ele>1692.6</ele>
        <time>2022-07-19T05:26:45Z</time>
      </trkpt>
      <trkpt lat="44.2408" lon="7.11092">
        <ele>1692.6</ele>
        <time>2022-07-19T05:26:46Z</time>
      </trkpt>
      <trkpt lat="44.24081" lon="7.11095">
        <ele>1692.8</ele>
        <time>2022-07-19T05:26:47Z</time>
      </trkpt>
      <trkpt lat="44.24082" lon="7.11097">
        <ele>1692.8</ele>
        <time>2022-07-19T05:26:48Z</time>
      </trkpt>
      <trkpt lat="44.24082" lon="7.11099">
        <ele>1692.8</ele>
        <time>2022-07-19T05:26:49Z</time>
      </trkpt>
      <trkpt lat="44.24083" lon="7.11102">
        <ele>1693.2</ele>
        <time>2022-07-19T05:26:50Z</time>
      </trkpt>
      <trkpt lat="44.24084" lon="7.11104">
        <ele>1693.2</ele>
        <time>2022-07-19T05:26:51Z</time>
      </trkpt>
      <trkpt lat="44.24085" lon="7.11106">
        <ele>1693.4</ele>
        <time>2022-07-19T05:26:52Z</time>
      </trkpt>
      <trkpt lat="44.24086" lon="7.11108">
        <ele>1693.4</ele>
        <time>2022-07-19T05:26:53Z</time>
      </trkpt>
      <trkpt lat="44.24088" lon="7.1111">
        <ele>1693.6</ele>
        <time>2022-07-19T05:26:54Z</time>
      </trkpt>
      <trkpt lat="44.24089" lon="7.11112">
        <ele>1693.6</ele>
        <time>2022-07-19T05:26:55Z</time>
      </trkpt>
      <trkpt lat="44.24091" lon="7.11113">
        <ele>1693.8</ele>
        <time>2022-07-19T05:26:56Z</time>
      </trkpt>
      <trkpt lat="44.24093" lon="7.11115">
        <ele>1693.8</ele>
        <time>2022-07-19T05:26:57Z</time>
      </trkpt>
      <trkpt lat="44.24095" lon="7.11116">
        <ele>1694.2</ele>
        <time>2022-07-19T05:26:58Z</time>
      </trkpt>
      <trkpt lat="44.24096" lon="7.11118">
        <ele>1694.2</ele>
        <time>2022-07-19T05:26:59Z</time>
      </trkpt>
      <trkpt lat="44.24098" lon="7.1112">
        <ele>1694.4</ele>
        <time>2022-07-19T05:27:00Z</time>
      </trkpt>
      <trkpt lat="44.241" lon="7.11122">
        <ele>1694.4</ele>
        <time>2022-07-19T05:27:01Z</time>
      </trkpt>
      <trkpt lat="44.24101" lon="7.11123">
        <ele>1694.6</ele>
        <time>2022-07-19T05:27:02Z</time>
      </trkpt>
      <trkpt lat="44.24103" lon="7.11125">
        <ele>1694.6</ele>
        <time>2022-07-19T05:27:03Z</time>
      </trkpt>
      <trkpt lat="44.24104" lon="7.11126">
        <ele>1694.6</ele>
        <time>2022-07-19T05:27:04Z</time>
      </trkpt>
      <trkpt lat="44.24104" lon="7.11126">
        <ele>1694.6</ele>
        <time>2022-07-19T05:27:05Z</time>
      </trkpt>
      <trkpt lat="44.24103" lon="7.11126">
        <ele>1694.6</ele>
        <time>2022-07-19T05:27:06Z</time>
      </trkpt>
      <trkpt lat="44.24103" lon="7.11126">
        <ele>1694.6</ele>
        <time>2022-07-19T05:27:07Z</time>
      </trkpt>
      <trkpt lat="44.24103" lon="7.11127">
        <ele>1694.6</ele>
        <time>2022-07-19T05:27:08Z</time>
      </trkpt>
      <trkpt lat="44.24103" lon="7.11127">
        <ele>1694.6</ele>
        <time>2022-07-19T05:27:09Z</time>
      </trkpt>
      <trkpt lat="44.24103" lon="7.11127">
        <ele>1694.6</ele>
        <time>2022-07-19T05:27:10Z</time>
      </trkpt>
      <trkpt lat="44.24103" lon="7.11127">
        <ele>1694.6</ele>
        <time>2022-07-19T05:27:11Z</time>
      </trkpt>
      <trkpt lat="44.24103" lon="7.11127">
        <ele>1694.8</ele>
        <time>2022-07-19T05:27:22Z</time>
      </trkpt>
      <trkpt lat="44.24103" lon="7.11128">
        <ele>1694.8</ele>
        <time>2022-07-19T05:27:23Z</time>
      </trkpt>
      <trkpt lat="44.24103" lon="7.11128">
        <ele>1695</ele>
        <time>2022-07-19T05:27:24Z</time>
      </trkpt>
      <trkpt lat="44.24103" lon="7.11128">
        <ele>1695</ele>
        <time>2022-07-19T05:27:25Z</time>
      </trkpt>
      <trkpt lat="44.24103" lon="7.11128">
        <ele>1695</ele>
        <time>2022-07-19T05:27:26Z</time>
      </trkpt>
      <trkpt lat="44.24103" lon="7.11128">
        <ele>1695</ele>
        <time>2022-07-19T05:27:27Z</time>
      </trkpt>
      <trkpt lat="44.24102" lon="7.11129">
        <ele>1695</ele>
        <time>2022-07-19T05:27:28Z</time>
      </trkpt>
      <trkpt lat="44.24102" lon="7.11129">
        <ele>1695</ele>
        <time>2022-07-19T05:27:29Z</time>
      </trkpt>
      <trkpt lat="44.24102" lon="7.11129">
        <ele>1695</ele>
        <time>2022-07-19T05:27:31Z</time>
      </trkpt>
      <trkpt lat="44.24102" lon="7.11129">
        <ele>1695.2</ele>
        <time>2022-07-19T05:27:32Z</time>
      </trkpt>
      <trkpt lat="44.24102" lon="7.11129">
        <ele>1695.2</ele>
        <time>2022-07-19T05:27:34Z</time>
      </trkpt>
      <trkpt lat="44.24102" lon="7.1113">
        <ele>1695.2</ele>
        <time>2022-07-19T05:27:35Z</time>
      </trkpt>
      <trkpt lat="44.24102" lon="7.1113">
        <ele>1695.2</ele>
        <time>2022-07-19T05:27:36Z</time>
      </trkpt>
      <trkpt lat="44.24102" lon="7.1113">
        <ele>1695.2</ele>
        <time>2022-07-19T05:27:40Z</time>
      </trkpt>
      <trkpt lat="44.24102" lon="7.1113">
        <ele>1695.2</ele>
        <time>2022-07-19T05:27:41Z</time>
      </trkpt>
      <trkpt lat="44.24102" lon="7.11131">
        <ele>1695.2</ele>
        <time>2022-07-19T05:27:42Z</time>
      </trkpt>
      <trkpt lat="44.24102" lon="7.11131">
        <ele>1695.2</ele>
        <time>2022-07-19T05:27:43Z</time>
      </trkpt>
      <trkpt lat="44.24102" lon="7.11131">
        <ele>1695.4</ele>
        <time>2022-07-19T05:28:14Z</time>
      </trkpt>
      <trkpt lat="44.24101" lon="7.11131">
        <ele>1695.4</ele>
        <time>2022-07-19T05:28:15Z</time>
      </trkpt>
      <trkpt lat="44.24101" lon="7.11131">
        <ele>1695.4</ele>
        <time>2022-07-19T05:28:23Z</time>
      </trkpt>
      <trkpt lat="44.24101" lon="7.11132">
        <ele>1695.4</ele>
        <time>2022-07-19T05:28:24Z</time>
      </trkpt>
      <trkpt lat="44.24101" lon="7.11132">
        <ele>1695.6</ele>
        <time>2022-07-19T05:28:52Z</time>
      </trkpt>
      <trkpt lat="44.24101" lon="7.11132">
        <ele>1695.6</ele>
        <time>2022-07-19T05:28:53Z</time>
      </trkpt>
      <trkpt lat="44.24101" lon="7.11132">
        <ele>1695.2</ele>
        <time>2022-07-19T05:29:36Z</time>
      </trkpt>
      <trkpt lat="44.24101" lon="7.11132">
        <ele>1695.2</ele>
        <time>2022-07-19T05:29:37Z</time>
      </trkpt>
      <trkpt lat="44.24101" lon="7.11133">
        <ele>1695.2</ele>
        <time>2022-07-19T05:29:38Z</time>
      </trkpt>
      <trkpt lat="44.24101" lon="7.11133">
        <ele>1695.4</ele>
        <time>2022-07-19T05:33:19Z</time>
      </trkpt>
      <trkpt lat="44.24101" lon="7.11133">
        <ele>1695.4</ele>
        <time>2022-07-19T05:33:20Z</time>
      </trkpt>
      <trkpt lat="44.24101" lon="7.11133">
        <ele>1695.4</ele>
        <time>2022-07-19T05:33:21Z</time>
      </trkpt>
      <trkpt lat="44.241" lon="7.11133">
        <ele>1695.4</ele>
        <time>2022-07-19T05:33:22Z</time>
      </trkpt>
      <trkpt lat="44.241" lon="7.11134">
        <ele>1695.4</ele>
        <time>2022-07-19T05:33:23Z</time>
      </trkpt>
      <trkpt lat="44.241" lon="7.11134">
        <ele>1695.4</ele>
        <time>2022-07-19T05:33:24Z</time>
      </trkpt>
      <trkpt lat="44.241" lon="7.11134">
        <ele>1695.4</ele>
        <time>2022-07-19T05:33:32Z</time>
      </trkpt>
      <trkpt lat="44.241" lon="7.11134">
        <ele>1695.4</ele>
        <time>2022-07-19T05:33:33Z</time>
      </trkpt>
      <trkpt lat="44.241" lon="7.11134">
        <ele>1695.4</ele>
        <time>2022-07-19T05:33:34Z</time>
      </trkpt>
      <trkpt lat="44.241" lon="7.11135">
        <ele>1695.4</ele>
        <time>2022-07-19T05:33:35Z</time>
      </trkpt>
      <trkpt lat="44.241" lon="7.11135">
        <ele>1695.4</ele>
        <time>2022-07-19T05:33:36Z</time>
      </trkpt>
      <trkpt lat="44.241" lon="7.11135">
        <ele>1695.4</ele>
        <time>2022-07-19T05:33:37Z</time>
      </trkpt>
      <trkpt lat="44.241" lon="7.11135">
        <ele>1695.4</ele>
        <time>2022-07-19T05:33:38Z</time>
      </trkpt>
      <trkpt lat="44.241" lon="7.11136">
        <ele>1695.4</ele>
        <time>2022-07-19T05:33:39Z</time>
      </trkpt>
      <trkpt lat="44.241" lon="7.11136">
        <ele>1695.4</ele>
        <time>2022-07-19T05:33:40Z</time>
      </trkpt>
      <trkpt lat="44.24098" lon="7.11137">
        <ele>1695.4</ele>
        <time>2022-07-19T05:33:41Z</time>
      </trkpt>
      <trkpt lat="44.24096" lon="7.11139">
        <ele>1695.4</ele>
        <time>2022-07-19T05:33:42Z</time>
      </trkpt>
      <trkpt lat="44.24095" lon="7.1114">
        <ele>1695.4</ele>
        <time>2022-07-19T05:33:43Z</time>
      </trkpt>
      <trkpt lat="44.24093" lon="7.1114">
        <ele>1695.6</ele>
        <time>2022-07-19T05:33:44Z</time>
      </trkpt>
      <trkpt lat="44.24091" lon="7.1114">
        <ele>1695.6</ele>
        <time>2022-07-19T05:33:45Z</time>
      </trkpt>
      <trkpt lat="44.2409" lon="7.11139">
        <ele>1696</ele>
        <time>2022-07-19T05:33:46Z</time>
      </trkpt>
      <trkpt lat="44.24089" lon="7.11138">
        <ele>1696</ele>
        <time>2022-07-19T05:33:47Z</time>
      </trkpt>
      <trkpt lat="44.24087" lon="7.11136">
        <ele>1696.2</ele>
        <time>2022-07-19T05:33:48Z</time>
      </trkpt>
      <trkpt lat="44.24086" lon="7.11135">
        <ele>1696.2</ele>
        <time>2022-07-19T05:33:49Z</time>
      </trkpt>
      <trkpt lat="44.24085" lon="7.11134">
        <ele>1696.4</ele>
        <time>2022-07-19T05:33:50Z</time>
      </trkpt>
      <trkpt lat="44.24084" lon="7.11133">
        <ele>1696.4</ele>
        <time>2022-07-19T05:33:51Z</time>
      </trkpt>
      <trkpt lat="44.24083" lon="7.11131">
        <ele>1696.4</ele>
        <time>2022-07-19T05:33:52Z</time>
      </trkpt>
      <trkpt lat="44.24082" lon="7.1113">
        <ele>1696.8</ele>
        <time>2022-07-19T05:33:53Z</time>
      </trkpt>
      <trkpt lat="44.24081" lon="7.11128">
        <ele>1696.8</ele>
        <time>2022-07-19T05:33:54Z</time>
      </trkpt>
      <trkpt lat="44.2408" lon="7.11126">
        <ele>1697.2</ele>
        <time>2022-07-19T05:33:55Z</time>
      </trkpt>
      <trkpt lat="44.24079" lon="7.11125">
        <ele>1697.2</ele>
        <time>2022-07-19T05:33:56Z</time>
      </trkpt>
      <trkpt lat="44.24078" lon="7.11123">
        <ele>1697.4</ele>
        <time>2022-07-19T05:33:57Z</time>
      </trkpt>
      <trkpt lat="44.24077" lon="7.11122">
        <ele>1697.4</ele>
        <time>2022-07-19T05:33:58Z</time>
      </trkpt>
      <trkpt lat="44.24075" lon="7.11121">
        <ele>1697.6</ele>
        <time>2022-07-19T05:33:59Z</time>
      </trkpt>
      <trkpt lat="44.24074" lon="7.11119">
        <ele>1697.6</ele>
        <time>2022-07-19T05:34:00Z</time>
      </trkpt>
      <trkpt lat="44.24073" lon="7.11118">
        <ele>1698</ele>
        <time>2022-07-19T05:34:01Z</time>
      </trkpt>
      <trkpt lat="44.24072" lon="7.11116">
        <ele>1698</ele>
        <time>2022-07-19T05:34:02Z</time>
      </trkpt>
      <trkpt lat="44.2407" lon="7.11115">
        <ele>1698.2</ele>
        <time>2022-07-19T05:34:03Z</time>
      </trkpt>
      <trkpt lat="44.24069" lon="7.11114">
        <ele>1698.2</ele>
        <time>2022-07-19T05:34:04Z</time>
      </trkpt>
      <trkpt lat="44.24068" lon="7.11114">
        <ele>1698.6</ele>
        <time>2022-07-19T05:34:05Z</time>
      </trkpt>
      <trkpt lat="44.24066" lon="7.11112">
        <ele>1698.6</ele>
        <time>2022-07-19T05:34:06Z</time>
      </trkpt>
      <trkpt lat="44.24065" lon="7.1111">
        <ele>1699</ele>
        <time>2022-07-19T05:34:07Z</time>
      </trkpt>
      <trkpt lat="44.24064" lon="7.11109">
        <ele>1699.2</ele>
        <time>2022-07-19T05:34:08Z</time>
      </trkpt>
      <trkpt lat="44.24062" lon="7.11107">
        <ele>1699.2</ele>
        <time>2022-07-19T05:34:09Z</time>
      </trkpt>
      <trkpt lat="44.24061" lon="7.11105">
        <ele>1699.6</ele>
        <time>2022-07-19T05:34:10Z</time>
      </trkpt>
      <trkpt lat="44.2406" lon="7.11104">
        <ele>1699.8</ele>
        <time>2022-07-19T05:34:11Z</time>
      </trkpt>
      <trkpt lat="44.24058" lon="7.11103">
        <ele>1699.8</ele>
        <time>2022-07-19T05:34:12Z</time>
      </trkpt>
      <trkpt lat="44.24057" lon="7.11102">
        <ele>1700</ele>
        <time>2022-07-19T05:34:13Z</time>
      </trkpt>
      <trkpt lat="44.24055" lon="7.11101">
        <ele>1700</ele>
        <time>2022-07-19T05:34:14Z</time>
      </trkpt>
      <trkpt lat="44.24053" lon="7.11099">
        <ele>1700.4</ele>
        <time>2022-07-19T05:34:15Z</time>
      </trkpt>
      <trkpt lat="44.24052" lon="7.11097">
        <ele>1700.4</ele>
        <time>2022-07-19T05:34:16Z</time>
      </trkpt>
      <trkpt lat="44.2405" lon="7.11095">
        <ele>1700.8</ele>
        <time>2022-07-19T05:34:17Z</time>
      </trkpt>
      <trkpt lat="44.24049" lon="7.11094">
        <ele>1701</ele>
        <time>2022-07-19T05:34:18Z</time>
      </trkpt>
      <trkpt lat="44.24048" lon="7.11092">
        <ele>1701</ele>
        <time>2022-07-19T05:34:19Z</time>
      </trkpt>
      <trkpt lat="44.24047" lon="7.11091">
        <ele>1701.4</ele>
        <time>2022-07-19T05:34:20Z</time>
      </trkpt>
      <trkpt lat="44.24046" lon="7.1109">
        <ele>1701.4</ele>
        <time>2022-07-19T05:34:21Z</time>
      </trkpt>
      <trkpt lat="44.24045" lon="7.11088">
        <ele>1701.8</ele>
        <time>2022-07-19T05:34:22Z</time>
      </trkpt>
      <trkpt lat="44.24044" lon="7.11087">
        <ele>1701.8</ele>
        <time>2022-07-19T05:34:23Z</time>
      </trkpt>
      <trkpt lat="44.24043" lon="7.11085">
        <ele>1702.2</ele>
        <time>2022-07-19T05:34:24Z</time>
      </trkpt>
      <trkpt lat="44.24042" lon="7.11084">
        <ele>1702.4</ele>
        <time>2022-07-19T05:34:25Z</time>
      </trkpt>
      <trkpt lat="44.2404" lon="7.11081">
        <ele>1702.6</ele>
        <time>2022-07-19T05:34:26Z</time>
      </trkpt>
      <trkpt lat="44.24039" lon="7.11079">
        <ele>1702.8</ele>
        <time>2022-07-19T05:34:27Z</time>
      </trkpt>
      <trkpt lat="44.24037" lon="7.11077">
        <ele>1702.8</ele>
        <time>2022-07-19T05:34:28Z</time>
      </trkpt>
      <trkpt lat="44.24036" lon="7.11075">
        <ele>1703.2</ele>
        <time>2022-07-19T05:34:29Z</time>
      </trkpt>
      <trkpt lat="44.24034" lon="7.11073">
        <ele>1703.2</ele>
        <time>2022-07-19T05:34:30Z</time>
      </trkpt>
      <trkpt lat="44.24033" lon="7.1107">
        <ele>1703.4</ele>
        <time>2022-07-19T05:34:31Z</time>
      </trkpt>
      <trkpt lat="44.24032" lon="7.11068">
        <ele>1703.4</ele>
        <time>2022-07-19T05:34:32Z</time>
      </trkpt>
      <trkpt lat="44.24031" lon="7.11066">
        <ele>1703.8</ele>
        <time>2022-07-19T05:34:33Z</time>
      </trkpt>
      <trkpt lat="44.2403" lon="7.11064">
        <ele>1703.8</ele>
        <time>2022-07-19T05:34:34Z</time>
      </trkpt>
      <trkpt lat="44.24029" lon="7.11063">
        <ele>1704.2</ele>
        <time>2022-07-19T05:34:35Z</time>
      </trkpt>
      <trkpt lat="44.24028" lon="7.11061">
        <ele>1704.4</ele>
        <time>2022-07-19T05:34:36Z</time>
      </trkpt>
      <trkpt lat="44.24027" lon="7.11059">
        <ele>1704.4</ele>
        <time>2022-07-19T05:34:37Z</time>
      </trkpt>
      <trkpt lat="44.24025" lon="7.11057">
        <ele>1704.8</ele>
        <time>2022-07-19T05:34:38Z</time>
      </trkpt>
      <trkpt lat="44.24024" lon="7.11054">
        <ele>1704.8</ele>
        <time>2022-07-19T05:34:39Z</time>
      </trkpt>
      <trkpt lat="44.24023" lon="7.11052">
        <ele>1705</ele>
        <time>2022-07-19T05:34:40Z</time>
      </trkpt>
      <trkpt lat="44.24022" lon="7.1105">
        <ele>1705</ele>
        <time>2022-07-19T05:34:41Z</time>
      </trkpt>
      <trkpt lat="44.24021" lon="7.11047">
        <ele>1705.4</ele>
        <time>2022-07-19T05:34:42Z</time>
      </trkpt>
      <trkpt lat="44.2402" lon="7.11045">
        <ele>1705.4</ele>
        <time>2022-07-19T05:34:43Z</time>
      </trkpt>
      <trkpt lat="44.24019" lon="7.11042">
        <ele>1705.8</ele>
        <time>2022-07-19T05:34:44Z</time>
      </trkpt>
      <trkpt lat="44.24018" lon="7.1104">
        <ele>1706.2</ele>
        <time>2022-07-19T05:34:45Z</time>
      </trkpt>
      <trkpt lat="44.24017" lon="7.11038">
        <ele>1706.2</ele>
        <time>2022-07-19T05:34:46Z</time>
      </trkpt>
      <trkpt lat="44.24016" lon="7.11036">
        <ele>1706.6</ele>
        <time>2022-07-19T05:34:47Z</time>
      </trkpt>
      <trkpt lat="44.24015" lon="7.11034">
        <ele>1707</ele>
        <time>2022-07-19T05:34:48Z</time>
      </trkpt>
      <trkpt lat="44.24015" lon="7.11032">
        <ele>1707.2</ele>
        <time>2022-07-19T05:34:49Z</time>
      </trkpt>
      <trkpt lat="44.24013" lon="7.1103">
        <ele>1707.2</ele>
        <time>2022-07-19T05:34:50Z</time>
      </trkpt>
      <trkpt lat="44.24012" lon="7.11027">
        <ele>1707.6</ele>
        <time>2022-07-19T05:34:51Z</time>
      </trkpt>
      <trkpt lat="44.24011" lon="7.11025">
        <ele>1707.8</ele>
        <time>2022-07-19T05:34:52Z</time>
      </trkpt>
      <trkpt lat="44.2401" lon="7.11022">
        <ele>1707.8</ele>
        <time>2022-07-19T05:34:53Z</time>
      </trkpt>
      <trkpt lat="44.24009" lon="7.1102">
        <ele>1708.2</ele>
        <time>2022-07-19T05:34:54Z</time>
      </trkpt>
      <trkpt lat="44.24008" lon="7.11017">
        <ele>1708.2</ele>
        <time>2022-07-19T05:34:55Z</time>
      </trkpt>
      <trkpt lat="44.24007" lon="7.11014">
        <ele>1708.6</ele>
        <time>2022-07-19T05:34:56Z</time>
      </trkpt>
      <trkpt lat="44.24006" lon="7.11012">
        <ele>1708.8</ele>
        <time>2022-07-19T05:34:57Z</time>
      </trkpt>
      <trkpt lat="44.24004" lon="7.1101">
        <ele>1709</ele>
        <time>2022-07-19T05:34:58Z</time>
      </trkpt>
      <trkpt lat="44.24003" lon="7.11008">
        <ele>1709</ele>
        <time>2022-07-19T05:34:59Z</time>
      </trkpt>
      <trkpt lat="44.24002" lon="7.11005">
        <ele>1709.4</ele>
        <time>2022-07-19T05:35:00Z</time>
      </trkpt>
      <trkpt lat="44.24002" lon="7.11003">
        <ele>1709.4</ele>
        <time>2022-07-19T05:35:01Z</time>
      </trkpt>
      <trkpt lat="44.24001" lon="7.11">
        <ele>1709.6</ele>
        <time>2022-07-19T05:35:02Z</time>
      </trkpt>
      <trkpt lat="44.24" lon="7.10997">
        <ele>1709.6</ele>
        <time>2022-07-19T05:35:03Z</time>
      </trkpt>
      <trkpt lat="44.24" lon="7.10995">
        <ele>1710</ele>
        <time>2022-07-19T05:35:04Z</time>
      </trkpt>
      <trkpt lat="44.23999" lon="7.10993">
        <ele>1710</ele>
        <time>2022-07-19T05:35:05Z</time>
      </trkpt>
      <trkpt lat="44.23999" lon="7.10991">
        <ele>1710.2</ele>
        <time>2022-07-19T05:35:06Z</time>
      </trkpt>
      <trkpt lat="44.23999" lon="7.10988">
        <ele>1710.2</ele>
        <time>2022-07-19T05:35:07Z</time>
      </trkpt>
      <trkpt lat="44.23999" lon="7.10985">
        <ele>1710.4</ele>
        <time>2022-07-19T05:35:08Z</time>
      </trkpt>
      <trkpt lat="44.24" lon="7.10983">
        <ele>1710.4</ele>
        <time>2022-07-19T05:35:09Z</time>
      </trkpt>
      <trkpt lat="44.24" lon="7.10981">
        <ele>1710.8</ele>
        <time>2022-07-19T05:35:10Z</time>
      </trkpt>
      <trkpt lat="44.24" lon="7.10978">
        <ele>1711</ele>
        <time>2022-07-19T05:35:11Z</time>
      </trkpt>
      <trkpt lat="44.24" lon="7.10976">
        <ele>1711</ele>
        <time>2022-07-19T05:35:12Z</time>
      </trkpt>
      <trkpt lat="44.23999" lon="7.10974">
        <ele>1711.4</ele>
        <time>2022-07-19T05:35:13Z</time>
      </trkpt>
      <trkpt lat="44.23999" lon="7.10971">
        <ele>1711.4</ele>
        <time>2022-07-19T05:35:14Z</time>
      </trkpt>
      <trkpt lat="44.23998" lon="7.10968">
        <ele>1711.8</ele>
        <time>2022-07-19T05:35:15Z</time>
      </trkpt>
      <trkpt lat="44.23997" lon="7.10966">
        <ele>1711.8</ele>
        <time>2022-07-19T05:35:16Z</time>
      </trkpt>
      <trkpt lat="44.23996" lon="7.10964">
        <ele>1711.8</ele>
        <time>2022-07-19T05:35:17Z</time>
      </trkpt>
      <trkpt lat="44.23995" lon="7.10962">
        <ele>1712</ele>
        <time>2022-07-19T05:35:18Z</time>
      </trkpt>
      <trkpt lat="44.23993" lon="7.10961">
        <ele>1712.4</ele>
        <time>2022-07-19T05:35:19Z</time>
      </trkpt>
      <trkpt lat="44.23991" lon="7.10962">
        <ele>1712.4</ele>
        <time>2022-07-19T05:35:20Z</time>
      </trkpt>
      <trkpt lat="44.2399" lon="7.10963">
        <ele>1712.6</ele>
        <time>2022-07-19T05:35:21Z</time>
      </trkpt>
      <trkpt lat="44.23988" lon="7.10964">
        <ele>1712.6</ele>
        <time>2022-07-19T05:35:22Z</time>
      </trkpt>
      <trkpt lat="44.23987" lon="7.10967">
        <ele>1713</ele>
        <time>2022-07-19T05:35:23Z</time>
      </trkpt>
      <trkpt lat="44.23986" lon="7.1097">
        <ele>1713</ele>
        <time>2022-07-19T05:35:24Z</time>
      </trkpt>
      <trkpt lat="44.23985" lon="7.10972">
        <ele>1713.2</ele>
        <time>2022-07-19T05:35:25Z</time>
      </trkpt>
      <trkpt lat="44.23985" lon="7.10976">
        <ele>1713.2</ele>
        <time>2022-07-19T05:35:26Z</time>
      </trkpt>
      <trkpt lat="44.23984" lon="7.10979">
        <ele>1713.6</ele>
        <time>2022-07-19T05:35:27Z</time>
      </trkpt>
      <trkpt lat="44.23984" lon="7.10982">
        <ele>1713.6</ele>
        <time>2022-07-19T05:35:28Z</time>
      </trkpt>
      <trkpt lat="44.23984" lon="7.10985">
        <ele>1714</ele>
        <time>2022-07-19T05:35:29Z</time>
      </trkpt>
      <trkpt lat="44.23984" lon="7.10988">
        <ele>1714</ele>
        <time>2022-07-19T05:35:30Z</time>
      </trkpt>
      <trkpt lat="44.23984" lon="7.1099">
        <ele>1714.2</ele>
        <time>2022-07-19T05:35:31Z</time>
      </trkpt>
      <trkpt lat="44.23985" lon="7.10993">
        <ele>1714.2</ele>
        <time>2022-07-19T05:35:32Z</time>
      </trkpt>
      <trkpt lat="44.23985" lon="7.10995">
        <ele>1714.6</ele>
        <time>2022-07-19T05:35:33Z</time>
      </trkpt>
      <trkpt lat="44.23985" lon="7.10998">
        <ele>1714.6</ele>
        <time>2022-07-19T05:35:34Z</time>
      </trkpt>
      <trkpt lat="44.23985" lon="7.11">
        <ele>1715</ele>
        <time>2022-07-19T05:35:35Z</time>
      </trkpt>
      <trkpt lat="44.23985" lon="7.11002">
        <ele>1715</ele>
        <time>2022-07-19T05:35:36Z</time>
      </trkpt>
      <trkpt lat="44.23985" lon="7.11005">
        <ele>1715.2</ele>
        <time>2022-07-19T05:35:37Z</time>
      </trkpt>
      <trkpt lat="44.23985" lon="7.11006">
        <ele>1715.2</ele>
        <time>2022-07-19T05:35:38Z</time>
      </trkpt>
      <trkpt lat="44.23986" lon="7.11008">
        <ele>1715.6</ele>
        <time>2022-07-19T05:35:39Z</time>
      </trkpt>
      <trkpt lat="44.23986" lon="7.1101">
        <ele>1715.6</ele>
        <time>2022-07-19T05:35:40Z</time>
      </trkpt>
      <trkpt lat="44.23986" lon="7.11013">
        <ele>1716</ele>
        <time>2022-07-19T05:35:41Z</time>
      </trkpt>
      <trkpt lat="44.23986" lon="7.11015">
        <ele>1716.4</ele>
        <time>2022-07-19T05:35:42Z</time>
      </trkpt>
      <trkpt lat="44.23986" lon="7.11017">
        <ele>1716.4</ele>
        <time>2022-07-19T05:35:43Z</time>
      </trkpt>
      <trkpt lat="44.23986" lon="7.11019">
        <ele>1716.8</ele>
        <time>2022-07-19T05:35:44Z</time>
      </trkpt>
      <trkpt lat="44.23986" lon="7.11022">
        <ele>1717</ele>
        <time>2022-07-19T05:35:45Z</time>
      </trkpt>
      <trkpt lat="44.23986" lon="7.11024">
        <ele>1717.2</ele>
        <time>2022-07-19T05:35:46Z</time>
      </trkpt>
      <trkpt lat="44.23986" lon="7.11026">
        <ele>1717.4</ele>
        <time>2022-07-19T05:35:47Z</time>
      </trkpt>
      <trkpt lat="44.23986" lon="7.11029">
        <ele>1717.6</ele>
        <time>2022-07-19T05:35:48Z</time>
      </trkpt>
      <trkpt lat="44.23985" lon="7.11031">
        <ele>1718</ele>
        <time>2022-07-19T05:35:49Z</time>
      </trkpt>
      <trkpt lat="44.23985" lon="7.11033">
        <ele>1718</ele>
        <time>2022-07-19T05:35:50Z</time>
      </trkpt>
      <trkpt lat="44.23985" lon="7.11036">
        <ele>1718.2</ele>
        <time>2022-07-19T05:35:51Z</time>
      </trkpt>
      <trkpt lat="44.23985" lon="7.11038">
        <ele>1718.2</ele>
        <time>2022-07-19T05:35:52Z</time>
      </trkpt>
      <trkpt lat="44.23985" lon="7.11041">
        <ele>1718.2</ele>
        <time>2022-07-19T05:35:53Z</time>
      </trkpt>
      <trkpt lat="44.23985" lon="7.11043">
        <ele>1718.6</ele>
        <time>2022-07-19T05:35:54Z</time>
      </trkpt>
      <trkpt lat="44.23984" lon="7.11045">
        <ele>1718.6</ele>
        <time>2022-07-19T05:35:55Z</time>
      </trkpt>
      <trkpt lat="44.23984" lon="7.11047">
        <ele>1719</ele>
        <time>2022-07-19T05:35:56Z</time>
      </trkpt>
      <trkpt lat="44.23984" lon="7.11049">
        <ele>1719.2</ele>
        <time>2022-07-19T05:35:57Z</time>
      </trkpt>
      <trkpt lat="44.23983" lon="7.11051">
        <ele>1719.2</ele>
        <time>2022-07-19T05:35:58Z</time>
      </trkpt>
      <trkpt lat="44.23982" lon="7.11053">
        <ele>1719.6</ele>
        <time>2022-07-19T05:35:59Z</time>
      </trkpt>
      <trkpt lat="44.23982" lon="7.11055">
        <ele>1719.6</ele>
        <time>2022-07-19T05:36:00Z</time>
      </trkpt>
      <trkpt lat="44.23981" lon="7.11057">
        <ele>1720</ele>
        <time>2022-07-19T05:36:01Z</time>
      </trkpt>
      <trkpt lat="44.23979" lon="7.11059">
        <ele>1720</ele>
        <time>2022-07-19T05:36:02Z</time>
      </trkpt>
      <trkpt lat="44.23978" lon="7.1106">
        <ele>1720.4</ele>
        <time>2022-07-19T05:36:03Z</time>
      </trkpt>
      <trkpt lat="44.23977" lon="7.11062">
        <ele>1720.4</ele>
        <time>2022-07-19T05:36:04Z</time>
      </trkpt>
      <trkpt lat="44.23976" lon="7.11064">
        <ele>1720.6</ele>
        <time>2022-07-19T05:36:05Z</time>
      </trkpt>
      <trkpt lat="44.23975" lon="7.11066">
        <ele>1720.6</ele>
        <time>2022-07-19T05:36:06Z</time>
      </trkpt>
      <trkpt lat="44.23975" lon="7.11069">
        <ele>1721</ele>
        <time>2022-07-19T05:36:07Z</time>
      </trkpt>
      <trkpt lat="44.23974" lon="7.1107">
        <ele>1721.2</ele>
        <time>2022-07-19T05:36:08Z</time>
      </trkpt>
      <trkpt lat="44.23973" lon="7.11072">
        <ele>1721.4</ele>
        <time>2022-07-19T05:36:09Z</time>
      </trkpt>
      <trkpt lat="44.23972" lon="7.11074">
        <ele>1721.4</ele>
        <time>2022-07-19T05:36:10Z</time>
      </trkpt>
      <trkpt lat="44.23971" lon="7.11075">
        <ele>1721.8</ele>
        <time>2022-07-19T05:36:11Z</time>
      </trkpt>
      <trkpt lat="44.23969" lon="7.11075">
        <ele>1721.8</ele>
        <time>2022-07-19T05:36:12Z</time>
      </trkpt>
      <trkpt lat="44.23967" lon="7.11076">
        <ele>1722.2</ele>
        <time>2022-07-19T05:36:13Z</time>
      </trkpt>
      <trkpt lat="44.23965" lon="7.11076">
        <ele>1722.2</ele>
        <time>2022-07-19T05:36:14Z</time>
      </trkpt>
      <trkpt lat="44.23964" lon="7.11075">
        <ele>1722.4</ele>
        <time>2022-07-19T05:36:15Z</time>
      </trkpt>
      <trkpt lat="44.23962" lon="7.11074">
        <ele>1722.4</ele>
        <time>2022-07-19T05:36:16Z</time>
      </trkpt>
      <trkpt lat="44.23961" lon="7.11072">
        <ele>1722.6</ele>
        <time>2022-07-19T05:36:17Z</time>
      </trkpt>
      <trkpt lat="44.2396" lon="7.11069">
        <ele>1722.6</ele>
        <time>2022-07-19T05:36:18Z</time>
      </trkpt>
      <trkpt lat="44.23959" lon="7.11067">
        <ele>1722.6</ele>
        <time>2022-07-19T05:36:19Z</time>
      </trkpt>
      <trkpt lat="44.23958" lon="7.11064">
        <ele>1722.8</ele>
        <time>2022-07-19T05:36:20Z</time>
      </trkpt>
      <trkpt lat="44.23958" lon="7.11062">
        <ele>1722.8</ele>
        <time>2022-07-19T05:36:21Z</time>
      </trkpt>
      <trkpt lat="44.23958" lon="7.11059">
        <ele>1723.2</ele>
        <time>2022-07-19T05:36:22Z</time>
      </trkpt>
      <trkpt lat="44.23959" lon="7.11057">
        <ele>1723.2</ele>
        <time>2022-07-19T05:36:23Z</time>
      </trkpt>
      <trkpt lat="44.2396" lon="7.11055">
        <ele>1723.4</ele>
        <time>2022-07-19T05:36:24Z</time>
      </trkpt>
      <trkpt lat="44.2396" lon="7.11052">
        <ele>1723.4</ele>
        <time>2022-07-19T05:36:25Z</time>
      </trkpt>
      <trkpt lat="44.2396" lon="7.1105">
        <ele>1723.8</ele>
        <time>2022-07-19T05:36:26Z</time>
      </trkpt>
      <trkpt lat="44.2396" lon="7.11047">
        <ele>1723.8</ele>
        <time>2022-07-19T05:36:27Z</time>
      </trkpt>
      <trkpt lat="44.23959" lon="7.11045">
        <ele>1724</ele>
        <time>2022-07-19T05:36:28Z</time>
      </trkpt>
      <trkpt lat="44.23959" lon="7.11043">
        <ele>1724</ele>
        <time>2022-07-19T05:36:29Z</time>
      </trkpt>
      <trkpt lat="44.23959" lon="7.11041">
        <ele>1724.2</ele>
        <time>2022-07-19T05:36:30Z</time>
      </trkpt>
      <trkpt lat="44.23958" lon="7.11039">
        <ele>1724.2</ele>
        <time>2022-07-19T05:36:31Z</time>
      </trkpt>
      <trkpt lat="44.23958" lon="7.11037">
        <ele>1724.6</ele>
        <time>2022-07-19T05:36:32Z</time>
      </trkpt>
      <trkpt lat="44.23958" lon="7.11035">
        <ele>1724.6</ele>
        <time>2022-07-19T05:36:33Z</time>
      </trkpt>
      <trkpt lat="44.23957" lon="7.11033">
        <ele>1725</ele>
        <time>2022-07-19T05:36:34Z</time>
      </trkpt>
      <trkpt lat="44.23958" lon="7.1103">
        <ele>1725</ele>
        <time>2022-07-19T05:36:35Z</time>
      </trkpt>
      <trkpt lat="44.23958" lon="7.11028">
        <ele>1725.4</ele>
        <time>2022-07-19T05:36:36Z</time>
      </trkpt>
      <trkpt lat="44.23958" lon="7.11026">
        <ele>1725.4</ele>
        <time>2022-07-19T05:36:37Z</time>
      </trkpt>
      <trkpt lat="44.23958" lon="7.11023">
        <ele>1725.8</ele>
        <time>2022-07-19T05:36:38Z</time>
      </trkpt>
      <trkpt lat="44.23958" lon="7.11021">
        <ele>1726</ele>
        <time>2022-07-19T05:36:39Z</time>
      </trkpt>
      <trkpt lat="44.23958" lon="7.11019">
        <ele>1726.2</ele>
        <time>2022-07-19T05:36:40Z</time>
      </trkpt>
      <trkpt lat="44.23957" lon="7.11016">
        <ele>1726.2</ele>
        <time>2022-07-19T05:36:41Z</time>
      </trkpt>
      <trkpt lat="44.23957" lon="7.11014">
        <ele>1726.6</ele>
        <time>2022-07-19T05:36:42Z</time>
      </trkpt>
      <trkpt lat="44.23957" lon="7.11012">
        <ele>1726.8</ele>
        <time>2022-07-19T05:36:43Z</time>
      </trkpt>
      <trkpt lat="44.23957" lon="7.1101">
        <ele>1727.2</ele>
        <time>2022-07-19T05:36:44Z</time>
      </trkpt>
      <trkpt lat="44.23957" lon="7.11007">
        <ele>1727.2</ele>
        <time>2022-07-19T05:36:45Z</time>
      </trkpt>
      <trkpt lat="44.23957" lon="7.11005">
        <ele>1727.4</ele>
        <time>2022-07-19T05:36:46Z</time>
      </trkpt>
      <trkpt lat="44.23956" lon="7.11003">
        <ele>1727.4</ele>
        <time>2022-07-19T05:36:47Z</time>
      </trkpt>
      <trkpt lat="44.23956" lon="7.11001">
        <ele>1727.6</ele>
        <time>2022-07-19T05:36:48Z</time>
      </trkpt>
      <trkpt lat="44.23956" lon="7.10999">
        <ele>1727.6</ele>
        <time>2022-07-19T05:36:49Z</time>
      </trkpt>
      <trkpt lat="44.23956" lon="7.10996">
        <ele>1728</ele>
        <time>2022-07-19T05:36:50Z</time>
      </trkpt>
      <trkpt lat="44.23956" lon="7.10994">
        <ele>1728</ele>
        <time>2022-07-19T05:36:51Z</time>
      </trkpt>
      <trkpt lat="44.23956" lon="7.10993">
        <ele>1728.4</ele>
        <time>2022-07-19T05:36:52Z</time>
      </trkpt>
      <trkpt lat="44.23955" lon="7.10991">
        <ele>1728.6</ele>
        <time>2022-07-19T05:36:53Z</time>
      </trkpt>
      <trkpt lat="44.23956" lon="7.10989">
        <ele>1728.6</ele>
        <time>2022-07-19T05:36:54Z</time>
      </trkpt>
      <trkpt lat="44.23956" lon="7.10987">
        <ele>1729</ele>
        <time>2022-07-19T05:36:55Z</time>
      </trkpt>
      <trkpt lat="44.23956" lon="7.10984">
        <ele>1729</ele>
        <time>2022-07-19T05:36:56Z</time>
      </trkpt>
      <trkpt lat="44.23956" lon="7.10982">
        <ele>1729.2</ele>
        <time>2022-07-19T05:36:57Z</time>
      </trkpt>
      <trkpt lat="44.23956" lon="7.10979">
        <ele>1729.2</ele>
        <time>2022-07-19T05:36:58Z</time>
      </trkpt>
      <trkpt lat="44.23956" lon="7.10977">
        <ele>1729.6</ele>
        <time>2022-07-19T05:36:59Z</time>
      </trkpt>
      <trkpt lat="44.23955" lon="7.10974">
        <ele>1729.8</ele>
        <time>2022-07-19T05:37:00Z</time>
      </trkpt>
      <trkpt lat="44.23955" lon="7.10972">
        <ele>1729.8</ele>
        <time>2022-07-19T05:37:01Z</time>
      </trkpt>
      <trkpt lat="44.23954" lon="7.1097">
        <ele>1730.2</ele>
        <time>2022-07-19T05:37:02Z</time>
      </trkpt>
      <trkpt lat="44.23953" lon="7.10967">
        <ele>1730.4</ele>
        <time>2022-07-19T05:37:03Z</time>
      </trkpt>
      <trkpt lat="44.23952" lon="7.10965">
        <ele>1730.6</ele>
        <time>2022-07-19T05:37:04Z</time>
      </trkpt>
      <trkpt lat="44.23952" lon="7.10962">
        <ele>1730.8</ele>
        <time>2022-07-19T05:37:05Z</time>
      </trkpt>
      <trkpt lat="44.23951" lon="7.1096">
        <ele>1731.2</ele>
        <time>2022-07-19T05:37:06Z</time>
      </trkpt>
      <trkpt lat="44.2395" lon="7.10958">
        <ele>1731.4</ele>
        <time>2022-07-19T05:37:07Z</time>
      </trkpt>
      <trkpt lat="44.23949" lon="7.10956">
        <ele>1731.6</ele>
        <time>2022-07-19T05:37:08Z</time>
      </trkpt>
      <trkpt lat="44.23947" lon="7.10955">
        <ele>1731.6</ele>
        <time>2022-07-19T05:37:09Z</time>
      </trkpt>
      <trkpt lat="44.23946" lon="7.10954">
        <ele>1732</ele>
        <time>2022-07-19T05:37:10Z</time>
      </trkpt>
      <trkpt lat="44.23944" lon="7.10953">
        <ele>1732</ele>
        <time>2022-07-19T05:37:11Z</time>
      </trkpt>
      <trkpt lat="44.23943" lon="7.10953">
        <ele>1732.4</ele>
        <time>2022-07-19T05:37:12Z</time>
      </trkpt>
      <trkpt lat="44.23941" lon="7.10953">
        <ele>1732.4</ele>
        <time>2022-07-19T05:37:13Z</time>
      </trkpt>
      <trkpt lat="44.23939" lon="7.10953">
        <ele>1732.8</ele>
        <time>2022-07-19T05:37:14Z</time>
      </trkpt>
      <trkpt lat="44.23938" lon="7.10953">
        <ele>1733</ele>
        <time>2022-07-19T05:37:15Z</time>
      </trkpt>
      <trkpt lat="44.23937" lon="7.10953">
        <ele>1733.2</ele>
        <time>2022-07-19T05:37:16Z</time>
      </trkpt>
      <trkpt lat="44.23935" lon="7.10954">
        <ele>1733.4</ele>
        <time>2022-07-19T05:37:17Z</time>
      </trkpt>
      <trkpt lat="44.23934" lon="7.10954">
        <ele>1733.6</ele>
        <time>2022-07-19T05:37:18Z</time>
      </trkpt>
      <trkpt lat="44.23932" lon="7.10954">
        <ele>1733.6</ele>
        <time>2022-07-19T05:37:19Z</time>
      </trkpt>
      <trkpt lat="44.2393" lon="7.10955">
        <ele>1734</ele>
        <time>2022-07-19T05:37:20Z</time>
      </trkpt>
      <trkpt lat="44.23928" lon="7.10956">
        <ele>1734</ele>
        <time>2022-07-19T05:37:21Z</time>
      </trkpt>
      <trkpt lat="44.23926" lon="7.10956">
        <ele>1734</ele>
        <time>2022-07-19T05:37:22Z</time>
      </trkpt>
      <trkpt lat="44.23924" lon="7.10957">
        <ele>1734.2</ele>
        <time>2022-07-19T05:37:23Z</time>
      </trkpt>
      <trkpt lat="44.23922" lon="7.10958">
        <ele>1734.2</ele>
        <time>2022-07-19T05:37:24Z</time>
      </trkpt>
      <trkpt lat="44.2392" lon="7.10959">
        <ele>1734.4</ele>
        <time>2022-07-19T05:37:25Z</time>
      </trkpt>
      <trkpt lat="44.23918" lon="7.10961">
        <ele>1734.4</ele>
        <time>2022-07-19T05:37:26Z</time>
      </trkpt>
      <trkpt lat="44.23915" lon="7.10962">
        <ele>1734.4</ele>
        <time>2022-07-19T05:37:27Z</time>
      </trkpt>
      <trkpt lat="44.23913" lon="7.10963">
        <ele>1734.6</ele>
        <time>2022-07-19T05:37:28Z</time>
      </trkpt>
      <trkpt lat="44.2391" lon="7.10965">
        <ele>1734.6</ele>
        <time>2022-07-19T05:37:29Z</time>
      </trkpt>
      <trkpt lat="44.23908" lon="7.10967">
        <ele>1734.6</ele>
        <time>2022-07-19T05:37:30Z</time>
      </trkpt>
      <trkpt lat="44.23905" lon="7.10969">
        <ele>1734.6</ele>
        <time>2022-07-19T05:37:31Z</time>
      </trkpt>
      <trkpt lat="44.23902" lon="7.1097">
        <ele>1735</ele>
        <time>2022-07-19T05:37:32Z</time>
      </trkpt>
      <trkpt lat="44.239" lon="7.10971">
        <ele>1735</ele>
        <time>2022-07-19T05:37:33Z</time>
      </trkpt>
      <trkpt lat="44.23897" lon="7.10972">
        <ele>1735</ele>
        <time>2022-07-19T05:37:34Z</time>
      </trkpt>
      <trkpt lat="44.23894" lon="7.10973">
        <ele>1735</ele>
        <time>2022-07-19T05:37:35Z</time>
      </trkpt>
      <trkpt lat="44.23891" lon="7.10975">
        <ele>1735</ele>
        <time>2022-07-19T05:37:36Z</time>
      </trkpt>
      <trkpt lat="44.23888" lon="7.10976">
        <ele>1735</ele>
        <time>2022-07-19T05:37:37Z</time>
      </trkpt>
      <trkpt lat="44.23885" lon="7.10977">
        <ele>1735</ele>
        <time>2022-07-19T05:37:38Z</time>
      </trkpt>
      <trkpt lat="44.23882" lon="7.10978">
        <ele>1735</ele>
        <time>2022-07-19T05:37:39Z</time>
      </trkpt>
      <trkpt lat="44.23878" lon="7.10979">
        <ele>1735</ele>
        <time>2022-07-19T05:37:40Z</time>
      </trkpt>
      <trkpt lat="44.23875" lon="7.1098">
        <ele>1735.2</ele>
        <time>2022-07-19T05:37:41Z</time>
      </trkpt>
      <trkpt lat="44.23871" lon="7.1098">
        <ele>1735.2</ele>
        <time>2022-07-19T05:37:42Z</time>
      </trkpt>
      <trkpt lat="44.23868" lon="7.10981">
        <ele>1735.2</ele>
        <time>2022-07-19T05:37:43Z</time>
      </trkpt>
      <trkpt lat="44.23865" lon="7.10982">
        <ele>1735.4</ele>
        <time>2022-07-19T05:37:44Z</time>
      </trkpt>
      <trkpt lat="44.23862" lon="7.10982">
        <ele>1735.4</ele>
        <time>2022-07-19T05:37:45Z</time>
      </trkpt>
      <trkpt lat="44.23858" lon="7.10982">
        <ele>1735.4</ele>
        <time>2022-07-19T05:37:46Z</time>
      </trkpt>
      <trkpt lat="44.23855" lon="7.10983">
        <ele>1735.4</ele>
        <time>2022-07-19T05:37:47Z</time>
      </trkpt>
      <trkpt lat="44.23851" lon="7.10983">
        <ele>1735.4</ele>
        <time>2022-07-19T05:37:48Z</time>
      </trkpt>
      <trkpt lat="44.23848" lon="7.10984">
        <ele>1735.8</ele>
        <time>2022-07-19T05:37:49Z</time>
      </trkpt>
      <trkpt lat="44.23845" lon="7.10985">
        <ele>1735.8</ele>
        <time>2022-07-19T05:37:50Z</time>
      </trkpt>
      <trkpt lat="44.23841" lon="7.10986">
        <ele>1735.8</ele>
        <time>2022-07-19T05:37:51Z</time>
      </trkpt>
      <trkpt lat="44.23838" lon="7.10987">
        <ele>1735.8</ele>
        <time>2022-07-19T05:37:52Z</time>
      </trkpt>
      <trkpt lat="44.23834" lon="7.10988">
        <ele>1735.8</ele>
        <time>2022-07-19T05:37:53Z</time>
      </trkpt>
      <trkpt lat="44.2383" lon="7.10989">
        <ele>1736</ele>
        <time>2022-07-19T05:37:54Z</time>
      </trkpt>
      <trkpt lat="44.23827" lon="7.1099">
        <ele>1736</ele>
        <time>2022-07-19T05:37:55Z</time>
      </trkpt>
      <trkpt lat="44.23823" lon="7.10992">
        <ele>1736.2</ele>
        <time>2022-07-19T05:37:56Z</time>
      </trkpt>
      <trkpt lat="44.23819" lon="7.10993">
        <ele>1736.2</ele>
        <time>2022-07-19T05:37:57Z</time>
      </trkpt>
      <trkpt lat="44.23816" lon="7.10995">
        <ele>1736.6</ele>
        <time>2022-07-19T05:37:58Z</time>
      </trkpt>
      <trkpt lat="44.23812" lon="7.10997">
        <ele>1736.6</ele>
        <time>2022-07-19T05:37:59Z</time>
      </trkpt>
      <trkpt lat="44.23809" lon="7.10999">
        <ele>1736.6</ele>
        <time>2022-07-19T05:38:00Z</time>
      </trkpt>
      <trkpt lat="44.23805" lon="7.11001">
        <ele>1736.6</ele>
        <time>2022-07-19T05:38:01Z</time>
      </trkpt>
      <trkpt lat="44.23802" lon="7.11003">
        <ele>1736.6</ele>
        <time>2022-07-19T05:38:02Z</time>
      </trkpt>
      <trkpt lat="44.23798" lon="7.11005">
        <ele>1736.6</ele>
        <time>2022-07-19T05:38:03Z</time>
      </trkpt>
      <trkpt lat="44.23794" lon="7.11007">
        <ele>1736.6</ele>
        <time>2022-07-19T05:38:04Z</time>
      </trkpt>
      <trkpt lat="44.2379" lon="7.11009">
        <ele>1736.6</ele>
        <time>2022-07-19T05:38:05Z</time>
      </trkpt>
      <trkpt lat="44.23786" lon="7.1101">
        <ele>1736.6</ele>
        <time>2022-07-19T05:38:06Z</time>
      </trkpt>
      <trkpt lat="44.23783" lon="7.11012">
        <ele>1736.6</ele>
        <time>2022-07-19T05:38:07Z</time>
      </trkpt>
      <trkpt lat="44.2378" lon="7.11013">
        <ele>1736.6</ele>
        <time>2022-07-19T05:38:08Z</time>
      </trkpt>
      <trkpt lat="44.23776" lon="7.11014">
        <ele>1736.8</ele>
        <time>2022-07-19T05:38:09Z</time>
      </trkpt>
      <trkpt lat="44.23772" lon="7.11016">
        <ele>1736.8</ele>
        <time>2022-07-19T05:38:10Z</time>
      </trkpt>
      <trkpt lat="44.23769" lon="7.11018">
        <ele>1737</ele>
        <time>2022-07-19T05:38:11Z</time>
      </trkpt>
      <trkpt lat="44.23765" lon="7.11021">
        <ele>1737</ele>
        <time>2022-07-19T05:38:12Z</time>
      </trkpt>
      <trkpt lat="44.23762" lon="7.11024">
        <ele>1737</ele>
        <time>2022-07-19T05:38:13Z</time>
      </trkpt>
      <trkpt lat="44.23758" lon="7.11027">
        <ele>1737</ele>
        <time>2022-07-19T05:38:14Z</time>
      </trkpt>
      <trkpt lat="44.23755" lon="7.1103">
        <ele>1737</ele>
        <time>2022-07-19T05:38:15Z</time>
      </trkpt>
      <trkpt lat="44.23751" lon="7.11032">
        <ele>1737</ele>
        <time>2022-07-19T05:38:16Z</time>
      </trkpt>
      <trkpt lat="44.23747" lon="7.11035">
        <ele>1736.8</ele>
        <time>2022-07-19T05:38:17Z</time>
      </trkpt>
      <trkpt lat="44.23743" lon="7.11038">
        <ele>1736.8</ele>
        <time>2022-07-19T05:38:18Z</time>
      </trkpt>
      <trkpt lat="44.2374" lon="7.11042">
        <ele>1736.8</ele>
        <time>2022-07-19T05:38:19Z</time>
      </trkpt>
      <trkpt lat="44.23736" lon="7.11045">
        <ele>1736.8</ele>
        <time>2022-07-19T05:38:20Z</time>
      </trkpt>
      <trkpt lat="44.23732" lon="7.11048">
        <ele>1736.8</ele>
        <time>2022-07-19T05:38:21Z</time>
      </trkpt>
      <trkpt lat="44.23729" lon="7.11051">
        <ele>1736.8</ele>
        <time>2022-07-19T05:38:22Z</time>
      </trkpt>
      <trkpt lat="44.23725" lon="7.11054">
        <ele>1736.8</ele>
        <time>2022-07-19T05:38:23Z</time>
      </trkpt>
      <trkpt lat="44.23722" lon="7.11057">
        <ele>1736.8</ele>
        <time>2022-07-19T05:38:24Z</time>
      </trkpt>
      <trkpt lat="44.23718" lon="7.1106">
        <ele>1736.8</ele>
        <time>2022-07-19T05:38:25Z</time>
      </trkpt>
      <trkpt lat="44.23715" lon="7.11063">
        <ele>1736.8</ele>
        <time>2022-07-19T05:38:26Z</time>
      </trkpt>
      <trkpt lat="44.23712" lon="7.11066">
        <ele>1736.8</ele>
        <time>2022-07-19T05:38:27Z</time>
      </trkpt>
      <trkpt lat="44.23709" lon="7.11069">
        <ele>1736.8</ele>
        <time>2022-07-19T05:38:28Z</time>
      </trkpt>
      <trkpt lat="44.23706" lon="7.11074">
        <ele>1736.8</ele>
        <time>2022-07-19T05:38:29Z</time>
      </trkpt>
      <trkpt lat="44.23703" lon="7.11078">
        <ele>1736.8</ele>
        <time>2022-07-19T05:38:30Z</time>
      </trkpt>
      <trkpt lat="44.237" lon="7.11082">
        <ele>1736.8</ele>
        <time>2022-07-19T05:38:31Z</time>
      </trkpt>
      <trkpt lat="44.23697" lon="7.11087">
        <ele>1736.8</ele>
        <time>2022-07-19T05:38:32Z</time>
      </trkpt>
      <trkpt lat="44.23695" lon="7.11091">
        <ele>1736.8</ele>
        <time>2022-07-19T05:38:33Z</time>
      </trkpt>
      <trkpt lat="44.23692" lon="7.11096">
        <ele>1736.8</ele>
        <time>2022-07-19T05:38:34Z</time>
      </trkpt>
      <trkpt lat="44.23689" lon="7.111">
        <ele>1736.8</ele>
        <time>2022-07-19T05:38:35Z</time>
      </trkpt>
      <trkpt lat="44.23686" lon="7.11104">
        <ele>1736.8</ele>
        <time>2022-07-19T05:38:36Z</time>
      </trkpt>
      <trkpt lat="44.23683" lon="7.11108">
        <ele>1737</ele>
        <time>2022-07-19T05:38:37Z</time>
      </trkpt>
      <trkpt lat="44.2368" lon="7.11112">
        <ele>1737</ele>
        <time>2022-07-19T05:38:38Z</time>
      </trkpt>
      <trkpt lat="44.23677" lon="7.11117">
        <ele>1737</ele>
        <time>2022-07-19T05:38:39Z</time>
      </trkpt>
      <trkpt lat="44.23674" lon="7.11121">
        <ele>1737</ele>
        <time>2022-07-19T05:38:40Z</time>
      </trkpt>
      <trkpt lat="44.2367" lon="7.11124">
        <ele>1737</ele>
        <time>2022-07-19T05:38:41Z</time>
      </trkpt>
      <trkpt lat="44.23667" lon="7.11127">
        <ele>1737</ele>
        <time>2022-07-19T05:38:42Z</time>
      </trkpt>
      <trkpt lat="44.23663" lon="7.1113">
        <ele>1737</ele>
        <time>2022-07-19T05:38:43Z</time>
      </trkpt>
      <trkpt lat="44.23659" lon="7.11132">
        <ele>1737.2</ele>
        <time>2022-07-19T05:38:44Z</time>
      </trkpt>
      <trkpt lat="44.23655" lon="7.11133">
        <ele>1737.2</ele>
        <time>2022-07-19T05:38:45Z</time>
      </trkpt>
      <trkpt lat="44.23652" lon="7.11133">
        <ele>1737.2</ele>
        <time>2022-07-19T05:38:46Z</time>
      </trkpt>
      <trkpt lat="44.23648" lon="7.11133">
        <ele>1737.2</ele>
        <time>2022-07-19T05:38:47Z</time>
      </trkpt>
      <trkpt lat="44.23645" lon="7.11133">
        <ele>1737.6</ele>
        <time>2022-07-19T05:38:48Z</time>
      </trkpt>
      <trkpt lat="44.23641" lon="7.11132">
        <ele>1737.6</ele>
        <time>2022-07-19T05:38:49Z</time>
      </trkpt>
      <trkpt lat="44.23638" lon="7.11131">
        <ele>1738</ele>
        <time>2022-07-19T05:38:50Z</time>
      </trkpt>
      <trkpt lat="44.23635" lon="7.1113">
        <ele>1738</ele>
        <time>2022-07-19T05:38:51Z</time>
      </trkpt>
      <trkpt lat="44.23632" lon="7.1113">
        <ele>1738.2</ele>
        <time>2022-07-19T05:38:52Z</time>
      </trkpt>
      <trkpt lat="44.23629" lon="7.11129">
        <ele>1738.2</ele>
        <time>2022-07-19T05:38:53Z</time>
      </trkpt>
      <trkpt lat="44.23626" lon="7.11128">
        <ele>1738.4</ele>
        <time>2022-07-19T05:38:54Z</time>
      </trkpt>
      <trkpt lat="44.23623" lon="7.11128">
        <ele>1738.4</ele>
        <time>2022-07-19T05:38:55Z</time>
      </trkpt>
      <trkpt lat="44.2362" lon="7.11128">
        <ele>1738.8</ele>
        <time>2022-07-19T05:38:56Z</time>
      </trkpt>
      <trkpt lat="44.23617" lon="7.11128">
        <ele>1738.8</ele>
        <time>2022-07-19T05:38:57Z</time>
      </trkpt>
      <trkpt lat="44.23614" lon="7.11129">
        <ele>1739</ele>
        <time>2022-07-19T05:38:58Z</time>
      </trkpt>
      <trkpt lat="44.23612" lon="7.11129">
        <ele>1739</ele>
        <time>2022-07-19T05:38:59Z</time>
      </trkpt>
      <trkpt lat="44.23609" lon="7.1113">
        <ele>1739.4</ele>
        <time>2022-07-19T05:39:00Z</time>
      </trkpt>
      <trkpt lat="44.23606" lon="7.11131">
        <ele>1739.4</ele>
        <time>2022-07-19T05:39:01Z</time>
      </trkpt>
      <trkpt lat="44.23603" lon="7.11132">
        <ele>1739.8</ele>
        <time>2022-07-19T05:39:02Z</time>
      </trkpt>
      <trkpt lat="44.23601" lon="7.11133">
        <ele>1739.8</ele>
        <time>2022-07-19T05:39:03Z</time>
      </trkpt>
      <trkpt lat="44.23599" lon="7.11135">
        <ele>1740</ele>
        <time>2022-07-19T05:39:04Z</time>
      </trkpt>
      <trkpt lat="44.23596" lon="7.11137">
        <ele>1740</ele>
        <time>2022-07-19T05:39:05Z</time>
      </trkpt>
      <trkpt lat="44.23594" lon="7.11139">
        <ele>1740.4</ele>
        <time>2022-07-19T05:39:06Z</time>
      </trkpt>
      <trkpt lat="44.23592" lon="7.11141">
        <ele>1740.6</ele>
        <time>2022-07-19T05:39:07Z</time>
      </trkpt>
      <trkpt lat="44.2359" lon="7.11142">
        <ele>1740.6</ele>
        <time>2022-07-19T05:39:08Z</time>
      </trkpt>
      <trkpt lat="44.23588" lon="7.11144">
        <ele>1741</ele>
        <time>2022-07-19T05:39:09Z</time>
      </trkpt>
      <trkpt lat="44.23585" lon="7.11145">
        <ele>1741</ele>
        <time>2022-07-19T05:39:10Z</time>
      </trkpt>
      <trkpt lat="44.23583" lon="7.11147">
        <ele>1741.2</ele>
        <time>2022-07-19T05:39:11Z</time>
      </trkpt>
      <trkpt lat="44.23581" lon="7.11149">
        <ele>1741.2</ele>
        <time>2022-07-19T05:39:12Z</time>
      </trkpt>
      <trkpt lat="44.23579" lon="7.11151">
        <ele>1741.6</ele>
        <time>2022-07-19T05:39:13Z</time>
      </trkpt>
      <trkpt lat="44.23577" lon="7.11152">
        <ele>1741.6</ele>
        <time>2022-07-19T05:39:14Z</time>
      </trkpt>
      <trkpt lat="44.23575" lon="7.11154">
        <ele>1742</ele>
        <time>2022-07-19T05:39:15Z</time>
      </trkpt>
      <trkpt lat="44.23573" lon="7.11156">
        <ele>1742</ele>
        <time>2022-07-19T05:39:16Z</time>
      </trkpt>
      <trkpt lat="44.23571" lon="7.11158">
        <ele>1742.2</ele>
        <time>2022-07-19T05:39:17Z</time>
      </trkpt>
      <trkpt lat="44.23569" lon="7.1116">
        <ele>1742.2</ele>
        <time>2022-07-19T05:39:18Z</time>
      </trkpt>
      <trkpt lat="44.23567" lon="7.11161">
        <ele>1742.6</ele>
        <time>2022-07-19T05:39:19Z</time>
      </trkpt>
      <trkpt lat="44.23565" lon="7.11162">
        <ele>1742.6</ele>
        <time>2022-07-19T05:39:20Z</time>
      </trkpt>
      <trkpt lat="44.23563" lon="7.11164">
        <ele>1743</ele>
        <time>2022-07-19T05:39:21Z</time>
      </trkpt>
      <trkpt lat="44.23561" lon="7.11165">
        <ele>1743</ele>
        <time>2022-07-19T05:39:22Z</time>
      </trkpt>
      <trkpt lat="44.23559" lon="7.11165">
        <ele>1743.4</ele>
        <time>2022-07-19T05:39:23Z</time>
      </trkpt>
      <trkpt lat="44.23557" lon="7.11167">
        <ele>1743.4</ele>
        <time>2022-07-19T05:39:24Z</time>
      </trkpt>
      <trkpt lat="44.23555" lon="7.11168">
        <ele>1743.6</ele>
        <time>2022-07-19T05:39:25Z</time>
      </trkpt>
      <trkpt lat="44.23552" lon="7.11169">
        <ele>1743.6</ele>
        <time>2022-07-19T05:39:26Z</time>
      </trkpt>
      <trkpt lat="44.2355" lon="7.1117">
        <ele>1744</ele>
        <time>2022-07-19T05:39:27Z</time>
      </trkpt>
      <trkpt lat="44.23548" lon="7.11172">
        <ele>1744</ele>
        <time>2022-07-19T05:39:28Z</time>
      </trkpt>
      <trkpt lat="44.23545" lon="7.11172">
        <ele>1744.4</ele>
        <time>2022-07-19T05:39:29Z</time>
      </trkpt>
      <trkpt lat="44.23543" lon="7.11173">
        <ele>1744.6</ele>
        <time>2022-07-19T05:39:30Z</time>
      </trkpt>
      <trkpt lat="44.23541" lon="7.11173">
        <ele>1744.6</ele>
        <time>2022-07-19T05:39:31Z</time>
      </trkpt>
      <trkpt lat="44.23539" lon="7.11173">
        <ele>1744.8</ele>
        <time>2022-07-19T05:39:32Z</time>
      </trkpt>
      <trkpt lat="44.23537" lon="7.11174">
        <ele>1745</ele>
        <time>2022-07-19T05:39:33Z</time>
      </trkpt>
      <trkpt lat="44.23535" lon="7.11174">
        <ele>1745</ele>
        <time>2022-07-19T05:39:34Z</time>
      </trkpt>
      <trkpt lat="44.23533" lon="7.11174">
        <ele>1745.4</ele>
        <time>2022-07-19T05:39:35Z</time>
      </trkpt>
      <trkpt lat="44.23532" lon="7.11174">
        <ele>1745.4</ele>
        <time>2022-07-19T05:39:36Z</time>
      </trkpt>
      <trkpt lat="44.2353" lon="7.11175">
        <ele>1745.6</ele>
        <time>2022-07-19T05:39:37Z</time>
      </trkpt>
      <trkpt lat="44.23529" lon="7.11175">
        <ele>1745.6</ele>
        <time>2022-07-19T05:39:38Z</time>
      </trkpt>
      <trkpt lat="44.23527" lon="7.11176">
        <ele>1745.8</ele>
        <time>2022-07-19T05:39:39Z</time>
      </trkpt>
      <trkpt lat="44.23525" lon="7.11176">
        <ele>1746.2</ele>
        <time>2022-07-19T05:39:40Z</time>
      </trkpt>
      <trkpt lat="44.23524" lon="7.11177">
        <ele>1746.2</ele>
        <time>2022-07-19T05:39:41Z</time>
      </trkpt>
      <trkpt lat="44.23522" lon="7.11177">
        <ele>1746.4</ele>
        <time>2022-07-19T05:39:42Z</time>
      </trkpt>
      <trkpt lat="44.2352" lon="7.11177">
        <ele>1746.4</ele>
        <time>2022-07-19T05:39:43Z</time>
      </trkpt>
      <trkpt lat="44.23518" lon="7.11177">
        <ele>1746.8</ele>
        <time>2022-07-19T05:39:44Z</time>
      </trkpt>
      <trkpt lat="44.23516" lon="7.11178">
        <ele>1746.8</ele>
        <time>2022-07-19T05:39:45Z</time>
      </trkpt>
      <trkpt lat="44.23514" lon="7.11179">
        <ele>1747</ele>
        <time>2022-07-19T05:39:46Z</time>
      </trkpt>
      <trkpt lat="44.23512" lon="7.1118">
        <ele>1747</ele>
        <time>2022-07-19T05:39:47Z</time>
      </trkpt>
      <trkpt lat="44.2351" lon="7.11181">
        <ele>1747.2</ele>
        <time>2022-07-19T05:39:48Z</time>
      </trkpt>
      <trkpt lat="44.23509" lon="7.11182">
        <ele>1747.2</ele>
        <time>2022-07-19T05:39:49Z</time>
      </trkpt>
      <trkpt lat="44.23507" lon="7.11183">
        <ele>1747.6</ele>
        <time>2022-07-19T05:39:50Z</time>
      </trkpt>
      <trkpt lat="44.23505" lon="7.11184">
        <ele>1747.6</ele>
        <time>2022-07-19T05:39:51Z</time>
      </trkpt>
      <trkpt lat="44.23503" lon="7.11184">
        <ele>1747.8</ele>
        <time>2022-07-19T05:39:52Z</time>
      </trkpt>
      <trkpt lat="44.23501" lon="7.11185">
        <ele>1747.8</ele>
        <time>2022-07-19T05:39:53Z</time>
      </trkpt>
      <trkpt lat="44.23499" lon="7.11187">
        <ele>1748.2</ele>
        <time>2022-07-19T05:39:54Z</time>
      </trkpt>
      <trkpt lat="44.23497" lon="7.11188">
        <ele>1748.2</ele>
        <time>2022-07-19T05:39:55Z</time>
      </trkpt>
      <trkpt lat="44.23495" lon="7.11189">
        <ele>1748.4</ele>
        <time>2022-07-19T05:39:56Z</time>
      </trkpt>
      <trkpt lat="44.23494" lon="7.11191">
        <ele>1748.4</ele>
        <time>2022-07-19T05:39:57Z</time>
      </trkpt>
      <trkpt lat="44.23492" lon="7.11192">
        <ele>1748.8</ele>
        <time>2022-07-19T05:39:58Z</time>
      </trkpt>
      <trkpt lat="44.2349" lon="7.11193">
        <ele>1749</ele>
        <time>2022-07-19T05:39:59Z</time>
      </trkpt>
      <trkpt lat="44.23488" lon="7.11194">
        <ele>1749.2</ele>
        <time>2022-07-19T05:40:00Z</time>
      </trkpt>
      <trkpt lat="44.23486" lon="7.11195">
        <ele>1749.2</ele>
        <time>2022-07-19T05:40:01Z</time>
      </trkpt>
      <trkpt lat="44.23484" lon="7.11196">
        <ele>1749.6</ele>
        <time>2022-07-19T05:40:02Z</time>
      </trkpt>
      <trkpt lat="44.23482" lon="7.11197">
        <ele>1749.6</ele>
        <time>2022-07-19T05:40:03Z</time>
      </trkpt>
      <trkpt lat="44.2348" lon="7.11198">
        <ele>1749.8</ele>
        <time>2022-07-19T05:40:04Z</time>
      </trkpt>
      <trkpt lat="44.23478" lon="7.11199">
        <ele>1749.8</ele>
        <time>2022-07-19T05:40:05Z</time>
      </trkpt>
      <trkpt lat="44.23476" lon="7.112">
        <ele>1750.2</ele>
        <time>2022-07-19T05:40:06Z</time>
      </trkpt>
      <trkpt lat="44.23474" lon="7.11201">
        <ele>1750.2</ele>
        <time>2022-07-19T05:40:07Z</time>
      </trkpt>
      <trkpt lat="44.23472" lon="7.11201">
        <ele>1750.4</ele>
        <time>2022-07-19T05:40:08Z</time>
      </trkpt>
      <trkpt lat="44.2347" lon="7.11202">
        <ele>1750.4</ele>
        <time>2022-07-19T05:40:09Z</time>
      </trkpt>
      <trkpt lat="44.23468" lon="7.11203">
        <ele>1750.8</ele>
        <time>2022-07-19T05:40:10Z</time>
      </trkpt>
      <trkpt lat="44.23466" lon="7.11204">
        <ele>1751.2</ele>
        <time>2022-07-19T05:40:11Z</time>
      </trkpt>
      <trkpt lat="44.23464" lon="7.11205">
        <ele>1751.4</ele>
        <time>2022-07-19T05:40:12Z</time>
      </trkpt>
      <trkpt lat="44.23462" lon="7.11206">
        <ele>1751.6</ele>
        <time>2022-07-19T05:40:13Z</time>
      </trkpt>
      <trkpt lat="44.2346" lon="7.11207">
        <ele>1751.8</ele>
        <time>2022-07-19T05:40:14Z</time>
      </trkpt>
      <trkpt lat="44.23458" lon="7.11208">
        <ele>1752</ele>
        <time>2022-07-19T05:40:15Z</time>
      </trkpt>
      <trkpt lat="44.23456" lon="7.11209">
        <ele>1752</ele>
        <time>2022-07-19T05:40:16Z</time>
      </trkpt>
      <trkpt lat="44.23454" lon="7.11209">
        <ele>1752.4</ele>
        <time>2022-07-19T05:40:17Z</time>
      </trkpt>
      <trkpt lat="44.23452" lon="7.1121">
        <ele>1752.8</ele>
        <time>2022-07-19T05:40:18Z</time>
      </trkpt>
      <trkpt lat="44.2345" lon="7.11211">
        <ele>1753</ele>
        <time>2022-07-19T05:40:20Z</time>
      </trkpt>
      <trkpt lat="44.23448" lon="7.11211">
        <ele>1753.2</ele>
        <time>2022-07-19T05:40:21Z</time>
      </trkpt>
      <trkpt lat="44.23446" lon="7.11212">
        <ele>1753.2</ele>
        <time>2022-07-19T05:40:22Z</time>
      </trkpt>
      <trkpt lat="44.23444" lon="7.11213">
        <ele>1753.6</ele>
        <time>2022-07-19T05:40:23Z</time>
      </trkpt>
      <trkpt lat="44.23442" lon="7.11214">
        <ele>1753.6</ele>
        <time>2022-07-19T05:40:24Z</time>
      </trkpt>
      <trkpt lat="44.2344" lon="7.11215">
        <ele>1753.8</ele>
        <time>2022-07-19T05:40:25Z</time>
      </trkpt>
      <trkpt lat="44.23438" lon="7.11215">
        <ele>1753.8</ele>
        <time>2022-07-19T05:40:26Z</time>
      </trkpt>
      <trkpt lat="44.23436" lon="7.11216">
        <ele>1753.8</ele>
        <time>2022-07-19T05:40:27Z</time>
      </trkpt>
      <trkpt lat="44.23434" lon="7.11216">
        <ele>1753.8</ele>
        <time>2022-07-19T05:40:28Z</time>
      </trkpt>
      <trkpt lat="44.23433" lon="7.11217">
        <ele>1754.2</ele>
        <time>2022-07-19T05:40:29Z</time>
      </trkpt>
      <trkpt lat="44.23431" lon="7.11217">
        <ele>1754.2</ele>
        <time>2022-07-19T05:40:30Z</time>
      </trkpt>
      <trkpt lat="44.23429" lon="7.11218">
        <ele>1754.6</ele>
        <time>2022-07-19T05:40:31Z</time>
      </trkpt>
      <trkpt lat="44.23427" lon="7.11219">
        <ele>1754.6</ele>
        <time>2022-07-19T05:40:32Z</time>
      </trkpt>
      <trkpt lat="44.23426" lon="7.1122">
        <ele>1754.8</ele>
        <time>2022-07-19T05:40:33Z</time>
      </trkpt>
      <trkpt lat="44.23424" lon="7.1122">
        <ele>1754.8</ele>
        <time>2022-07-19T05:40:34Z</time>
      </trkpt>
      <trkpt lat="44.23422" lon="7.1122">
        <ele>1755.2</ele>
        <time>2022-07-19T05:40:35Z</time>
      </trkpt>
      <trkpt lat="44.2342" lon="7.11221">
        <ele>1755.2</ele>
        <time>2022-07-19T05:40:36Z</time>
      </trkpt>
      <trkpt lat="44.23418" lon="7.11222">
        <ele>1755.4</ele>
        <time>2022-07-19T05:40:37Z</time>
      </trkpt>
      <trkpt lat="44.23416" lon="7.11223">
        <ele>1755.4</ele>
        <time>2022-07-19T05:40:38Z</time>
      </trkpt>
      <trkpt lat="44.23414" lon="7.11224">
        <ele>1755.8</ele>
        <time>2022-07-19T05:40:39Z</time>
      </trkpt>
      <trkpt lat="44.23412" lon="7.11225">
        <ele>1756</ele>
        <time>2022-07-19T05:40:40Z</time>
      </trkpt>
      <trkpt lat="44.2341" lon="7.11226">
        <ele>1756</ele>
        <time>2022-07-19T05:40:41Z</time>
      </trkpt>
      <trkpt lat="44.23409" lon="7.11227">
        <ele>1756.2</ele>
        <time>2022-07-19T05:40:42Z</time>
      </trkpt>
      <trkpt lat="44.23407" lon="7.11227">
        <ele>1756.4</ele>
        <time>2022-07-19T05:40:43Z</time>
      </trkpt>
      <trkpt lat="44.23405" lon="7.11228">
        <ele>1756.4</ele>
        <time>2022-07-19T05:40:44Z</time>
      </trkpt>
      <trkpt lat="44.23403" lon="7.11228">
        <ele>1756.8</ele>
        <time>2022-07-19T05:40:45Z</time>
      </trkpt>
      <trkpt lat="44.23401" lon="7.11229">
        <ele>1756.8</ele>
        <time>2022-07-19T05:40:46Z</time>
      </trkpt>
      <trkpt lat="44.234" lon="7.11229">
        <ele>1756.8</ele>
        <time>2022-07-19T05:40:47Z</time>
      </trkpt>
      <trkpt lat="44.23398" lon="7.1123">
        <ele>1757</ele>
        <time>2022-07-19T05:40:48Z</time>
      </trkpt>
      <trkpt lat="44.23396" lon="7.1123">
        <ele>1757</ele>
        <time>2022-07-19T05:40:49Z</time>
      </trkpt>
      <trkpt lat="44.23394" lon="7.11231">
        <ele>1757.4</ele>
        <time>2022-07-19T05:40:50Z</time>
      </trkpt>
      <trkpt lat="44.23392" lon="7.11231">
        <ele>1757.4</ele>
        <time>2022-07-19T05:40:51Z</time>
      </trkpt>
      <trkpt lat="44.23391" lon="7.11231">
        <ele>1757.6</ele>
        <time>2022-07-19T05:40:52Z</time>
      </trkpt>
      <trkpt lat="44.23389" lon="7.11232">
        <ele>1757.6</ele>
        <time>2022-07-19T05:40:53Z</time>
      </trkpt>
      <trkpt lat="44.23387" lon="7.11233">
        <ele>1758</ele>
        <time>2022-07-19T05:40:54Z</time>
      </trkpt>
      <trkpt lat="44.23385" lon="7.11234">
        <ele>1758.2</ele>
        <time>2022-07-19T05:40:55Z</time>
      </trkpt>
      <trkpt lat="44.23383" lon="7.11235">
        <ele>1758.2</ele>
        <time>2022-07-19T05:40:56Z</time>
      </trkpt>
      <trkpt lat="44.23381" lon="7.11235">
        <ele>1758.4</ele>
        <time>2022-07-19T05:40:57Z</time>
      </trkpt>
      <trkpt lat="44.2338" lon="7.11236">
        <ele>1758.4</ele>
        <time>2022-07-19T05:40:58Z</time>
      </trkpt>
      <trkpt lat="44.23378" lon="7.11236">
        <ele>1758.8</ele>
        <time>2022-07-19T05:40:59Z</time>
      </trkpt>
      <trkpt lat="44.23376" lon="7.11237">
        <ele>1758.8</ele>
        <time>2022-07-19T05:41:00Z</time>
      </trkpt>
      <trkpt lat="44.23375" lon="7.11238">
        <ele>1759</ele>
        <time>2022-07-19T05:41:01Z</time>
      </trkpt>
      <trkpt lat="44.23373" lon="7.11238">
        <ele>1759</ele>
        <time>2022-07-19T05:41:02Z</time>
      </trkpt>
      <trkpt lat="44.23371" lon="7.11239">
        <ele>1759.4</ele>
        <time>2022-07-19T05:41:03Z</time>
      </trkpt>
      <trkpt lat="44.23369" lon="7.1124">
        <ele>1759.4</ele>
        <time>2022-07-19T05:41:04Z</time>
      </trkpt>
      <trkpt lat="44.23368" lon="7.1124">
        <ele>1759.6</ele>
        <time>2022-07-19T05:41:05Z</time>
      </trkpt>
      <trkpt lat="44.23366" lon="7.11241">
        <ele>1759.6</ele>
        <time>2022-07-19T05:41:06Z</time>
      </trkpt>
      <trkpt lat="44.23364" lon="7.11242">
        <ele>1760</ele>
        <time>2022-07-19T05:41:07Z</time>
      </trkpt>
      <trkpt lat="44.23362" lon="7.11242">
        <ele>1760.2</ele>
        <time>2022-07-19T05:41:08Z</time>
      </trkpt>
      <trkpt lat="44.2336" lon="7.11243">
        <ele>1760.2</ele>
        <time>2022-07-19T05:41:09Z</time>
      </trkpt>
      <trkpt lat="44.23359" lon="7.11244">
        <ele>1760.6</ele>
        <time>2022-07-19T05:41:10Z</time>
      </trkpt>
      <trkpt lat="44.23357" lon="7.11244">
        <ele>1761</ele>
        <time>2022-07-19T05:41:11Z</time>
      </trkpt>
      <trkpt lat="44.23354" lon="7.11247">
        <ele>1761</ele>
        <time>2022-07-19T05:41:12Z</time>
      </trkpt>
      <trkpt lat="44.23352" lon="7.11247">
        <ele>1761.2</ele>
        <time>2022-07-19T05:41:13Z</time>
      </trkpt>
      <trkpt lat="44.2335" lon="7.11248">
        <ele>1761.2</ele>
        <time>2022-07-19T05:41:14Z</time>
      </trkpt>
      <trkpt lat="44.23348" lon="7.11248">
        <ele>1761.6</ele>
        <time>2022-07-19T05:41:15Z</time>
      </trkpt>
      <trkpt lat="44.23347" lon="7.11249">
        <ele>1761.6</ele>
        <time>2022-07-19T05:41:16Z</time>
      </trkpt>
      <trkpt lat="44.23345" lon="7.11249">
        <ele>1762</ele>
        <time>2022-07-19T05:41:17Z</time>
      </trkpt>
      <trkpt lat="44.23343" lon="7.1125">
        <ele>1762</ele>
        <time>2022-07-19T05:41:18Z</time>
      </trkpt>
      <trkpt lat="44.23341" lon="7.11251">
        <ele>1762.2</ele>
        <time>2022-07-19T05:41:19Z</time>
      </trkpt>
      <trkpt lat="44.2334" lon="7.11252">
        <ele>1762.2</ele>
        <time>2022-07-19T05:41:20Z</time>
      </trkpt>
      <trkpt lat="44.23338" lon="7.11253">
        <ele>1762.6</ele>
        <time>2022-07-19T05:41:21Z</time>
      </trkpt>
      <trkpt lat="44.23336" lon="7.11253">
        <ele>1762.6</ele>
        <time>2022-07-19T05:41:22Z</time>
      </trkpt>
      <trkpt lat="44.23334" lon="7.11254">
        <ele>1762.8</ele>
        <time>2022-07-19T05:41:23Z</time>
      </trkpt>
      <trkpt lat="44.23333" lon="7.11255">
        <ele>1762.8</ele>
        <time>2022-07-19T05:41:24Z</time>
      </trkpt>
      <trkpt lat="44.23331" lon="7.11256">
        <ele>1763.2</ele>
        <time>2022-07-19T05:41:25Z</time>
      </trkpt>
      <trkpt lat="44.2333" lon="7.11257">
        <ele>1763.2</ele>
        <time>2022-07-19T05:41:26Z</time>
      </trkpt>
      <trkpt lat="44.23328" lon="7.11258">
        <ele>1763.4</ele>
        <time>2022-07-19T05:41:27Z</time>
      </trkpt>
      <trkpt lat="44.23327" lon="7.1126">
        <ele>1763.4</ele>
        <time>2022-07-19T05:41:28Z</time>
      </trkpt>
      <trkpt lat="44.23326" lon="7.11262">
        <ele>1763.6</ele>
        <time>2022-07-19T05:41:29Z</time>
      </trkpt>
      <trkpt lat="44.23325" lon="7.11263">
        <ele>1763.6</ele>
        <time>2022-07-19T05:41:30Z</time>
      </trkpt>
      <trkpt lat="44.23324" lon="7.11265">
        <ele>1764</ele>
        <time>2022-07-19T05:41:31Z</time>
      </trkpt>
      <trkpt lat="44.23324" lon="7.11267">
        <ele>1764.2</ele>
        <time>2022-07-19T05:41:32Z</time>
      </trkpt>
      <trkpt lat="44.23325" lon="7.1127">
        <ele>1764.2</ele>
        <time>2022-07-19T05:41:33Z</time>
      </trkpt>
      <trkpt lat="44.23326" lon="7.11272">
        <ele>1764.2</ele>
        <time>2022-07-19T05:41:34Z</time>
      </trkpt>
      <trkpt lat="44.23327" lon="7.11274">
        <ele>1764.4</ele>
        <time>2022-07-19T05:41:35Z</time>
      </trkpt>
      <trkpt lat="44.23329" lon="7.11276">
        <ele>1764.4</ele>
        <time>2022-07-19T05:41:36Z</time>
      </trkpt>
      <trkpt lat="44.23331" lon="7.11278">
        <ele>1764.4</ele>
        <time>2022-07-19T05:41:37Z</time>
      </trkpt>
      <trkpt lat="44.23333" lon="7.11279">
        <ele>1764.4</ele>
        <time>2022-07-19T05:41:38Z</time>
      </trkpt>
      <trkpt lat="44.23335" lon="7.1128">
        <ele>1764.8</ele>
        <time>2022-07-19T05:41:39Z</time>
      </trkpt>
      <trkpt lat="44.23337" lon="7.11279">
        <ele>1764.8</ele>
        <time>2022-07-19T05:41:40Z</time>
      </trkpt>
      <trkpt lat="44.23339" lon="7.11278">
        <ele>1765</ele>
        <time>2022-07-19T05:41:41Z</time>
      </trkpt>
      <trkpt lat="44.23341" lon="7.11277">
        <ele>1765</ele>
        <time>2022-07-19T05:41:42Z</time>
      </trkpt>
      <trkpt lat="44.23343" lon="7.11275">
        <ele>1765</ele>
        <time>2022-07-19T05:41:43Z</time>
      </trkpt>
      <trkpt lat="44.23345" lon="7.11273">
        <ele>1765</ele>
        <time>2022-07-19T05:41:44Z</time>
      </trkpt>
      <trkpt lat="44.23347" lon="7.11272">
        <ele>1765</ele>
        <time>2022-07-19T05:41:45Z</time>
      </trkpt>
      <trkpt lat="44.23349" lon="7.11271">
        <ele>1765.4</ele>
        <time>2022-07-19T05:41:46Z</time>
      </trkpt>
      <trkpt lat="44.23351" lon="7.11271">
        <ele>1765.4</ele>
        <time>2022-07-19T05:41:47Z</time>
      </trkpt>
      <trkpt lat="44.23353" lon="7.1127">
        <ele>1765.6</ele>
        <time>2022-07-19T05:41:48Z</time>
      </trkpt>
      <trkpt lat="44.23355" lon="7.11271">
        <ele>1765.8</ele>
        <time>2022-07-19T05:41:49Z</time>
      </trkpt>
      <trkpt lat="44.23356" lon="7.11271">
        <ele>1765.8</ele>
        <time>2022-07-19T05:41:50Z</time>
      </trkpt>
      <trkpt lat="44.23358" lon="7.11271">
        <ele>1766.2</ele>
        <time>2022-07-19T05:41:51Z</time>
      </trkpt>
      <trkpt lat="44.2336" lon="7.1127">
        <ele>1766.2</ele>
        <time>2022-07-19T05:41:52Z</time>
      </trkpt>
      <trkpt lat="44.23361" lon="7.1127">
        <ele>1766.6</ele>
        <time>2022-07-19T05:41:53Z</time>
      </trkpt>
      <trkpt lat="44.23363" lon="7.11269">
        <ele>1766.6</ele>
        <time>2022-07-19T05:41:54Z</time>
      </trkpt>
      <trkpt lat="44.23365" lon="7.11269">
        <ele>1767</ele>
        <time>2022-07-19T05:41:55Z</time>
      </trkpt>
      <trkpt lat="44.23366" lon="7.1127">
        <ele>1767.2</ele>
        <time>2022-07-19T05:41:56Z</time>
      </trkpt>
      <trkpt lat="44.23368" lon="7.1127">
        <ele>1767.2</ele>
        <time>2022-07-19T05:41:57Z</time>
      </trkpt>
      <trkpt lat="44.23369" lon="7.1127">
        <ele>1767.4</ele>
        <time>2022-07-19T05:41:58Z</time>
      </trkpt>
      <trkpt lat="44.23371" lon="7.1127">
        <ele>1767.4</ele>
        <time>2022-07-19T05:41:59Z</time>
      </trkpt>
      <trkpt lat="44.23372" lon="7.1127">
        <ele>1767.8</ele>
        <time>2022-07-19T05:42:00Z</time>
      </trkpt>
      <trkpt lat="44.23374" lon="7.1127">
        <ele>1767.8</ele>
        <time>2022-07-19T05:42:01Z</time>
      </trkpt>
      <trkpt lat="44.23375" lon="7.11269">
        <ele>1768</ele>
        <time>2022-07-19T05:42:02Z</time>
      </trkpt>
      <trkpt lat="44.23377" lon="7.11269">
        <ele>1768</ele>
        <time>2022-07-19T05:42:03Z</time>
      </trkpt>
      <trkpt lat="44.23379" lon="7.11269">
        <ele>1768.6</ele>
        <time>2022-07-19T05:42:04Z</time>
      </trkpt>
      <trkpt lat="44.2338" lon="7.11268">
        <ele>1768.6</ele>
        <time>2022-07-19T05:42:05Z</time>
      </trkpt>
      <trkpt lat="44.23382" lon="7.11268">
        <ele>1768.8</ele>
        <time>2022-07-19T05:42:06Z</time>
      </trkpt>
      <trkpt lat="44.23383" lon="7.11268">
        <ele>1768.8</ele>
        <time>2022-07-19T05:42:07Z</time>
      </trkpt>
      <trkpt lat="44.23385" lon="7.11267">
        <ele>1769</ele>
        <time>2022-07-19T05:42:08Z</time>
      </trkpt>
      <trkpt lat="44.23386" lon="7.11267">
        <ele>1769</ele>
        <time>2022-07-19T05:42:09Z</time>
      </trkpt>
      <trkpt lat="44.23388" lon="7.11267">
        <ele>1769</ele>
        <time>2022-07-19T05:42:10Z</time>
      </trkpt>
      <trkpt lat="44.2339" lon="7.11267">
        <ele>1769.4</ele>
        <time>2022-07-19T05:42:11Z</time>
      </trkpt>
      <trkpt lat="44.23391" lon="7.11267">
        <ele>1769.4</ele>
        <time>2022-07-19T05:42:12Z</time>
      </trkpt>
      <trkpt lat="44.23393" lon="7.11267">
        <ele>1769.6</ele>
        <time>2022-07-19T05:42:13Z</time>
      </trkpt>
      <trkpt lat="44.23395" lon="7.11267">
        <ele>1769.8</ele>
        <time>2022-07-19T05:42:14Z</time>
      </trkpt>
      <trkpt lat="44.23396" lon="7.11267">
        <ele>1769.8</ele>
        <time>2022-07-19T05:42:15Z</time>
      </trkpt>
      <trkpt lat="44.23398" lon="7.11267">
        <ele>1770</ele>
        <time>2022-07-19T05:42:16Z</time>
      </trkpt>
      <trkpt lat="44.234" lon="7.11267">
        <ele>1770</ele>
        <time>2022-07-19T05:42:17Z</time>
      </trkpt>
      <trkpt lat="44.23401" lon="7.11266">
        <ele>1770.4</ele>
        <time>2022-07-19T05:42:18Z</time>
      </trkpt>
      <trkpt lat="44.23403" lon="7.11267">
        <ele>1770.4</ele>
        <time>2022-07-19T05:42:19Z</time>
      </trkpt>
      <trkpt lat="44.23405" lon="7.11267">
        <ele>1770.8</ele>
        <time>2022-07-19T05:42:20Z</time>
      </trkpt>
      <trkpt lat="44.23407" lon="7.11268">
        <ele>1770.8</ele>
        <time>2022-07-19T05:42:21Z</time>
      </trkpt>
      <trkpt lat="44.23409" lon="7.11268">
        <ele>1771</ele>
        <time>2022-07-19T05:42:22Z</time>
      </trkpt>
      <trkpt lat="44.2341" lon="7.11269">
        <ele>1771</ele>
        <time>2022-07-19T05:42:23Z</time>
      </trkpt>
      <trkpt lat="44.23412" lon="7.11269">
        <ele>1771.4</ele>
        <time>2022-07-19T05:42:24Z</time>
      </trkpt>
      <trkpt lat="44.23413" lon="7.11269">
        <ele>1771.4</ele>
        <time>2022-07-19T05:42:25Z</time>
      </trkpt>
      <trkpt lat="44.23415" lon="7.11269">
        <ele>1771.8</ele>
        <time>2022-07-19T05:42:26Z</time>
      </trkpt>
      <trkpt lat="44.23416" lon="7.11269">
        <ele>1771.8</ele>
        <time>2022-07-19T05:42:27Z</time>
      </trkpt>
      <trkpt lat="44.23418" lon="7.11269">
        <ele>1772</ele>
        <time>2022-07-19T05:42:28Z</time>
      </trkpt>
      <trkpt lat="44.23419" lon="7.11269">
        <ele>1772</ele>
        <time>2022-07-19T05:42:29Z</time>
      </trkpt>
      <trkpt lat="44.23421" lon="7.11269">
        <ele>1772.2</ele>
        <time>2022-07-19T05:42:30Z</time>
      </trkpt>
      <trkpt lat="44.23423" lon="7.11269">
        <ele>1772.6</ele>
        <time>2022-07-19T05:42:31Z</time>
      </trkpt>
      <trkpt lat="44.23425" lon="7.1127">
        <ele>1772.6</ele>
        <time>2022-07-19T05:42:32Z</time>
      </trkpt>
      <trkpt lat="44.23426" lon="7.1127">
        <ele>1772.8</ele>
        <time>2022-07-19T05:42:33Z</time>
      </trkpt>
      <trkpt lat="44.23428" lon="7.11269">
        <ele>1772.8</ele>
        <time>2022-07-19T05:42:34Z</time>
      </trkpt>
      <trkpt lat="44.23429" lon="7.11269">
        <ele>1773</ele>
        <time>2022-07-19T05:42:35Z</time>
      </trkpt>
      <trkpt lat="44.23431" lon="7.11269">
        <ele>1773</ele>
        <time>2022-07-19T05:42:36Z</time>
      </trkpt>
      <trkpt lat="44.23432" lon="7.11269">
        <ele>1773.4</ele>
        <time>2022-07-19T05:42:37Z</time>
      </trkpt>
      <trkpt lat="44.23434" lon="7.11268">
        <ele>1773.4</ele>
        <time>2022-07-19T05:42:38Z</time>
      </trkpt>
      <trkpt lat="44.23435" lon="7.11268">
        <ele>1773.6</ele>
        <time>2022-07-19T05:42:39Z</time>
      </trkpt>
      <trkpt lat="44.23437" lon="7.11268">
        <ele>1773.6</ele>
        <time>2022-07-19T05:42:40Z</time>
      </trkpt>
      <trkpt lat="44.23438" lon="7.11269">
        <ele>1773.8</ele>
        <time>2022-07-19T05:42:41Z</time>
      </trkpt>
      <trkpt lat="44.2344" lon="7.11269">
        <ele>1773.8</ele>
        <time>2022-07-19T05:42:42Z</time>
      </trkpt>
      <trkpt lat="44.23441" lon="7.11269">
        <ele>1774</ele>
        <time>2022-07-19T05:42:43Z</time>
      </trkpt>
      <trkpt lat="44.23443" lon="7.11269">
        <ele>1774.2</ele>
        <time>2022-07-19T05:42:44Z</time>
      </trkpt>
      <trkpt lat="44.23445" lon="7.11269">
        <ele>1774.6</ele>
        <time>2022-07-19T05:42:45Z</time>
      </trkpt>
      <trkpt lat="44.23446" lon="7.11269">
        <ele>1774.6</ele>
        <time>2022-07-19T05:42:46Z</time>
      </trkpt>
      <trkpt lat="44.23448" lon="7.11269">
        <ele>1774.8</ele>
        <time>2022-07-19T05:42:47Z</time>
      </trkpt>
      <trkpt lat="44.23449" lon="7.1127">
        <ele>1774.8</ele>
        <time>2022-07-19T05:42:48Z</time>
      </trkpt>
      <trkpt lat="44.23451" lon="7.1127">
        <ele>1775</ele>
        <time>2022-07-19T05:42:49Z</time>
      </trkpt>
      <trkpt lat="44.23453" lon="7.11271">
        <ele>1775</ele>
        <time>2022-07-19T05:42:50Z</time>
      </trkpt>
      <trkpt lat="44.23455" lon="7.11271">
        <ele>1775.4</ele>
        <time>2022-07-19T05:42:51Z</time>
      </trkpt>
      <trkpt lat="44.23456" lon="7.11271">
        <ele>1775.4</ele>
        <time>2022-07-19T05:42:52Z</time>
      </trkpt>
      <trkpt lat="44.23458" lon="7.11271">
        <ele>1775.6</ele>
        <time>2022-07-19T05:42:53Z</time>
      </trkpt>
      <trkpt lat="44.23459" lon="7.11272">
        <ele>1775.6</ele>
        <time>2022-07-19T05:42:54Z</time>
      </trkpt>
      <trkpt lat="44.23461" lon="7.11272">
        <ele>1775.8</ele>
        <time>2022-07-19T05:42:55Z</time>
      </trkpt>
      <trkpt lat="44.23462" lon="7.11272">
        <ele>1775.8</ele>
        <time>2022-07-19T05:42:56Z</time>
      </trkpt>
      <trkpt lat="44.23464" lon="7.11272">
        <ele>1776.2</ele>
        <time>2022-07-19T05:42:57Z</time>
      </trkpt>
      <trkpt lat="44.23465" lon="7.11272">
        <ele>1776.2</ele>
        <time>2022-07-19T05:42:58Z</time>
      </trkpt>
      <trkpt lat="44.23467" lon="7.11272">
        <ele>1776.6</ele>
        <time>2022-07-19T05:42:59Z</time>
      </trkpt>
      <trkpt lat="44.23469" lon="7.11272">
        <ele>1776.6</ele>
        <time>2022-07-19T05:43:00Z</time>
      </trkpt>
      <trkpt lat="44.2347" lon="7.11273">
        <ele>1776.8</ele>
        <time>2022-07-19T05:43:01Z</time>
      </trkpt>
      <trkpt lat="44.23472" lon="7.11274">
        <ele>1776.8</ele>
        <time>2022-07-19T05:43:02Z</time>
      </trkpt>
      <trkpt lat="44.23474" lon="7.11274">
        <ele>1777</ele>
        <time>2022-07-19T05:43:03Z</time>
      </trkpt>
      <trkpt lat="44.23475" lon="7.11275">
        <ele>1777</ele>
        <time>2022-07-19T05:43:04Z</time>
      </trkpt>
      <trkpt lat="44.23477" lon="7.11275">
        <ele>1777.4</ele>
        <time>2022-07-19T05:43:05Z</time>
      </trkpt>
      <trkpt lat="44.23479" lon="7.11274">
        <ele>1777.4</ele>
        <time>2022-07-19T05:43:06Z</time>
      </trkpt>
      <trkpt lat="44.2348" lon="7.11274">
        <ele>1777.6</ele>
        <time>2022-07-19T05:43:07Z</time>
      </trkpt>
      <trkpt lat="44.23481" lon="7.11274">
        <ele>1777.6</ele>
        <time>2022-07-19T05:43:08Z</time>
      </trkpt>
      <trkpt lat="44.23483" lon="7.11274">
        <ele>1778</ele>
        <time>2022-07-19T05:43:09Z</time>
      </trkpt>
      <trkpt lat="44.23485" lon="7.11274">
        <ele>1778</ele>
        <time>2022-07-19T05:43:10Z</time>
      </trkpt>
      <trkpt lat="44.23486" lon="7.11274">
        <ele>1778</ele>
        <time>2022-07-19T05:43:11Z</time>
      </trkpt>
      <trkpt lat="44.23487" lon="7.11273">
        <ele>1778.2</ele>
        <time>2022-07-19T05:43:12Z</time>
      </trkpt>
      <trkpt lat="44.23489" lon="7.11273">
        <ele>1778.2</ele>
        <time>2022-07-19T05:43:13Z</time>
      </trkpt>
      <trkpt lat="44.2349" lon="7.11274">
        <ele>1778.6</ele>
        <time>2022-07-19T05:43:14Z</time>
      </trkpt>
      <trkpt lat="44.23492" lon="7.11274">
        <ele>1778.8</ele>
        <time>2022-07-19T05:43:15Z</time>
      </trkpt>
      <trkpt lat="44.23494" lon="7.11275">
        <ele>1778.8</ele>
        <time>2022-07-19T05:43:16Z</time>
      </trkpt>
      <trkpt lat="44.23495" lon="7.11276">
        <ele>1779.2</ele>
        <time>2022-07-19T05:43:17Z</time>
      </trkpt>
      <trkpt lat="44.23496" lon="7.11276">
        <ele>1779.2</ele>
        <time>2022-07-19T05:43:18Z</time>
      </trkpt>
      <trkpt lat="44.23498" lon="7.11278">
        <ele>1779.4</ele>
        <time>2022-07-19T05:43:19Z</time>
      </trkpt>
      <trkpt lat="44.23499" lon="7.11278">
        <ele>1779.4</ele>
        <time>2022-07-19T05:43:20Z</time>
      </trkpt>
      <trkpt lat="44.235" lon="7.11279">
        <ele>1779.6</ele>
        <time>2022-07-19T05:43:21Z</time>
      </trkpt>
      <trkpt lat="44.23502" lon="7.11279">
        <ele>1779.6</ele>
        <time>2022-07-19T05:43:22Z</time>
      </trkpt>
      <trkpt lat="44.23503" lon="7.1128">
        <ele>1779.8</ele>
        <time>2022-07-19T05:43:23Z</time>
      </trkpt>
      <trkpt lat="44.23505" lon="7.1128">
        <ele>1779.8</ele>
        <time>2022-07-19T05:43:24Z</time>
      </trkpt>
      <trkpt lat="44.23506" lon="7.1128">
        <ele>1780.2</ele>
        <time>2022-07-19T05:43:25Z</time>
      </trkpt>
      <trkpt lat="44.23508" lon="7.11281">
        <ele>1780.2</ele>
        <time>2022-07-19T05:43:26Z</time>
      </trkpt>
      <trkpt lat="44.23509" lon="7.11281">
        <ele>1780.4</ele>
        <time>2022-07-19T05:43:27Z</time>
      </trkpt>
      <trkpt lat="44.2351" lon="7.11281">
        <ele>1780.4</ele>
        <time>2022-07-19T05:43:28Z</time>
      </trkpt>
      <trkpt lat="44.23512" lon="7.11281">
        <ele>1780.8</ele>
        <time>2022-07-19T05:43:29Z</time>
      </trkpt>
      <trkpt lat="44.23513" lon="7.11281">
        <ele>1780.8</ele>
        <time>2022-07-19T05:43:30Z</time>
      </trkpt>
      <trkpt lat="44.23514" lon="7.11282">
        <ele>1781</ele>
        <time>2022-07-19T05:43:31Z</time>
      </trkpt>
      <trkpt lat="44.23516" lon="7.11282">
        <ele>1781</ele>
        <time>2022-07-19T05:43:32Z</time>
      </trkpt>
      <trkpt lat="44.23517" lon="7.11282">
        <ele>1781.4</ele>
        <time>2022-07-19T05:43:33Z</time>
      </trkpt>
      <trkpt lat="44.23518" lon="7.11282">
        <ele>1781.6</ele>
        <time>2022-07-19T05:43:34Z</time>
      </trkpt>
      <trkpt lat="44.2352" lon="7.11282">
        <ele>1781.6</ele>
        <time>2022-07-19T05:43:35Z</time>
      </trkpt>
      <trkpt lat="44.23521" lon="7.11282">
        <ele>1782</ele>
        <time>2022-07-19T05:43:36Z</time>
      </trkpt>
      <trkpt lat="44.23523" lon="7.11281">
        <ele>1782</ele>
        <time>2022-07-19T05:43:37Z</time>
      </trkpt>
      <trkpt lat="44.23524" lon="7.1128">
        <ele>1782.4</ele>
        <time>2022-07-19T05:43:38Z</time>
      </trkpt>
      <trkpt lat="44.23525" lon="7.11279">
        <ele>1782.6</ele>
        <time>2022-07-19T05:43:39Z</time>
      </trkpt>
      <trkpt lat="44.23527" lon="7.11278">
        <ele>1782.6</ele>
        <time>2022-07-19T05:43:40Z</time>
      </trkpt>
      <trkpt lat="44.23528" lon="7.11277">
        <ele>1783</ele>
        <time>2022-07-19T05:43:41Z</time>
      </trkpt>
      <trkpt lat="44.2353" lon="7.11276">
        <ele>1783</ele>
        <time>2022-07-19T05:43:42Z</time>
      </trkpt>
      <trkpt lat="44.2353" lon="7.11275">
        <ele>1783.2</ele>
        <time>2022-07-19T05:43:43Z</time>
      </trkpt>
      <trkpt lat="44.23531" lon="7.11274">
        <ele>1783.2</ele>
        <time>2022-07-19T05:43:44Z</time>
      </trkpt>
      <trkpt lat="44.23533" lon="7.11273">
        <ele>1783.4</ele>
        <time>2022-07-19T05:43:45Z</time>
      </trkpt>
      <trkpt lat="44.23534" lon="7.11272">
        <ele>1783.4</ele>
        <time>2022-07-19T05:43:46Z</time>
      </trkpt>
      <trkpt lat="44.23536" lon="7.11272">
        <ele>1783.8</ele>
        <time>2022-07-19T05:43:48Z</time>
      </trkpt>
      <trkpt lat="44.23537" lon="7.11272">
        <ele>1784</ele>
        <time>2022-07-19T05:43:49Z</time>
      </trkpt>
      <trkpt lat="44.23538" lon="7.11272">
        <ele>1784.2</ele>
        <time>2022-07-19T05:43:50Z</time>
      </trkpt>
      <trkpt lat="44.2354" lon="7.11271">
        <ele>1784.2</ele>
        <time>2022-07-19T05:43:51Z</time>
      </trkpt>
      <trkpt lat="44.23541" lon="7.1127">
        <ele>1784.6</ele>
        <time>2022-07-19T05:43:52Z</time>
      </trkpt>
      <trkpt lat="44.23542" lon="7.1127">
        <ele>1784.6</ele>
        <time>2022-07-19T05:43:53Z</time>
      </trkpt>
      <trkpt lat="44.23543" lon="7.11269">
        <ele>1785</ele>
        <time>2022-07-19T05:43:54Z</time>
      </trkpt>
      <trkpt lat="44.23544" lon="7.11268">
        <ele>1785</ele>
        <time>2022-07-19T05:43:55Z</time>
      </trkpt>
      <trkpt lat="44.23546" lon="7.11267">
        <ele>1785.2</ele>
        <time>2022-07-19T05:43:56Z</time>
      </trkpt>
      <trkpt lat="44.23547" lon="7.11267">
        <ele>1785.2</ele>
        <time>2022-07-19T05:43:57Z</time>
      </trkpt>
      <trkpt lat="44.23548" lon="7.11266">
        <ele>1785.4</ele>
        <time>2022-07-19T05:43:58Z</time>
      </trkpt>
      <trkpt lat="44.2355" lon="7.11266">
        <ele>1785.4</ele>
        <time>2022-07-19T05:43:59Z</time>
      </trkpt>
      <trkpt lat="44.23552" lon="7.11265">
        <ele>1786</ele>
        <time>2022-07-19T05:44:00Z</time>
      </trkpt>
      <trkpt lat="44.23553" lon="7.11264">
        <ele>1786</ele>
        <time>2022-07-19T05:44:01Z</time>
      </trkpt>
      <trkpt lat="44.23554" lon="7.11263">
        <ele>1786.2</ele>
        <time>2022-07-19T05:44:02Z</time>
      </trkpt>
      <trkpt lat="44.23556" lon="7.11262">
        <ele>1786.2</ele>
        <time>2022-07-19T05:44:03Z</time>
      </trkpt>
      <trkpt lat="44.23557" lon="7.11261">
        <ele>1786.4</ele>
        <time>2022-07-19T05:44:04Z</time>
      </trkpt>
      <trkpt lat="44.23559" lon="7.1126">
        <ele>1786.4</ele>
        <time>2022-07-19T05:44:05Z</time>
      </trkpt>
      <trkpt lat="44.2356" lon="7.11258">
        <ele>1786.6</ele>
        <time>2022-07-19T05:44:06Z</time>
      </trkpt>
      <trkpt lat="44.23562" lon="7.11257">
        <ele>1786.8</ele>
        <time>2022-07-19T05:44:07Z</time>
      </trkpt>
      <trkpt lat="44.23563" lon="7.11257">
        <ele>1786.8</ele>
        <time>2022-07-19T05:44:08Z</time>
      </trkpt>
      <trkpt lat="44.23565" lon="7.11256">
        <ele>1787.2</ele>
        <time>2022-07-19T05:44:09Z</time>
      </trkpt>
      <trkpt lat="44.23566" lon="7.11255">
        <ele>1787.2</ele>
        <time>2022-07-19T05:44:10Z</time>
      </trkpt>
      <trkpt lat="44.23568" lon="7.11255">
        <ele>1787.6</ele>
        <time>2022-07-19T05:44:11Z</time>
      </trkpt>
      <trkpt lat="44.23569" lon="7.11254">
        <ele>1787.6</ele>
        <time>2022-07-19T05:44:12Z</time>
      </trkpt>
      <trkpt lat="44.23571" lon="7.11254">
        <ele>1788</ele>
        <time>2022-07-19T05:44:13Z</time>
      </trkpt>
      <trkpt lat="44.23573" lon="7.11254">
        <ele>1788</ele>
        <time>2022-07-19T05:44:14Z</time>
      </trkpt>
      <trkpt lat="44.23574" lon="7.11254">
        <ele>1788.2</ele>
        <time>2022-07-19T05:44:15Z</time>
      </trkpt>
      <trkpt lat="44.23576" lon="7.11253">
        <ele>1788.2</ele>
        <time>2022-07-19T05:44:16Z</time>
      </trkpt>
      <trkpt lat="44.23578" lon="7.11254">
        <ele>1788.6</ele>
        <time>2022-07-19T05:44:17Z</time>
      </trkpt>
      <trkpt lat="44.2358" lon="7.11254">
        <ele>1788.6</ele>
        <time>2022-07-19T05:44:18Z</time>
      </trkpt>
      <trkpt lat="44.23581" lon="7.11254">
        <ele>1788.8</ele>
        <time>2022-07-19T05:44:19Z</time>
      </trkpt>
      <trkpt lat="44.23583" lon="7.11254">
        <ele>1788.8</ele>
        <time>2022-07-19T05:44:20Z</time>
      </trkpt>
      <trkpt lat="44.23584" lon="7.11253">
        <ele>1789.2</ele>
        <time>2022-07-19T05:44:21Z</time>
      </trkpt>
      <trkpt lat="44.23586" lon="7.11252">
        <ele>1789.2</ele>
        <time>2022-07-19T05:44:22Z</time>
      </trkpt>
      <trkpt lat="44.23587" lon="7.11252">
        <ele>1789.6</ele>
        <time>2022-07-19T05:44:23Z</time>
      </trkpt>
      <trkpt lat="44.23589" lon="7.11251">
        <ele>1789.6</ele>
        <time>2022-07-19T05:44:24Z</time>
      </trkpt>
      <trkpt lat="44.23591" lon="7.11251">
        <ele>1789.8</ele>
        <time>2022-07-19T05:44:25Z</time>
      </trkpt>
      <trkpt lat="44.23592" lon="7.1125">
        <ele>1789.8</ele>
        <time>2022-07-19T05:44:26Z</time>
      </trkpt>
      <trkpt lat="44.23594" lon="7.1125">
        <ele>1790</ele>
        <time>2022-07-19T05:44:27Z</time>
      </trkpt>
      <trkpt lat="44.23596" lon="7.1125">
        <ele>1790</ele>
        <time>2022-07-19T05:44:28Z</time>
      </trkpt>
      <trkpt lat="44.23597" lon="7.1125">
        <ele>1790.4</ele>
        <time>2022-07-19T05:44:29Z</time>
      </trkpt>
      <trkpt lat="44.23599" lon="7.1125">
        <ele>1790.4</ele>
        <time>2022-07-19T05:44:30Z</time>
      </trkpt>
      <trkpt lat="44.23601" lon="7.1125">
        <ele>1790.6</ele>
        <time>2022-07-19T05:44:31Z</time>
      </trkpt>
      <trkpt lat="44.23602" lon="7.1125">
        <ele>1790.6</ele>
        <time>2022-07-19T05:44:32Z</time>
      </trkpt>
      <trkpt lat="44.23604" lon="7.1125">
        <ele>1791</ele>
        <time>2022-07-19T05:44:33Z</time>
      </trkpt>
      <trkpt lat="44.23605" lon="7.1125">
        <ele>1791</ele>
        <time>2022-07-19T05:44:34Z</time>
      </trkpt>
      <trkpt lat="44.23607" lon="7.1125">
        <ele>1791.2</ele>
        <time>2022-07-19T05:44:35Z</time>
      </trkpt>
      <trkpt lat="44.23608" lon="7.11249">
        <ele>1791.2</ele>
        <time>2022-07-19T05:44:36Z</time>
      </trkpt>
      <trkpt lat="44.2361" lon="7.1125">
        <ele>1791.4</ele>
        <time>2022-07-19T05:44:37Z</time>
      </trkpt>
      <trkpt lat="44.23611" lon="7.1125">
        <ele>1791.4</ele>
        <time>2022-07-19T05:44:38Z</time>
      </trkpt>
      <trkpt lat="44.23613" lon="7.11249">
        <ele>1791.8</ele>
        <time>2022-07-19T05:44:39Z</time>
      </trkpt>
      <trkpt lat="44.23614" lon="7.11249">
        <ele>1791.8</ele>
        <time>2022-07-19T05:44:40Z</time>
      </trkpt>
      <trkpt lat="44.23616" lon="7.11248">
        <ele>1792</ele>
        <time>2022-07-19T05:44:41Z</time>
      </trkpt>
      <trkpt lat="44.23617" lon="7.11247">
        <ele>1792</ele>
        <time>2022-07-19T05:44:42Z</time>
      </trkpt>
      <trkpt lat="44.23619" lon="7.11247">
        <ele>1792.2</ele>
        <time>2022-07-19T05:44:43Z</time>
      </trkpt>
      <trkpt lat="44.2362" lon="7.11247">
        <ele>1792.2</ele>
        <time>2022-07-19T05:44:44Z</time>
      </trkpt>
      <trkpt lat="44.23622" lon="7.11247">
        <ele>1792.4</ele>
        <time>2022-07-19T05:44:45Z</time>
      </trkpt>
      <trkpt lat="44.23623" lon="7.11247">
        <ele>1792.6</ele>
        <time>2022-07-19T05:44:46Z</time>
      </trkpt>
      <trkpt lat="44.23625" lon="7.11248">
        <ele>1792.6</ele>
        <time>2022-07-19T05:44:47Z</time>
      </trkpt>
      <trkpt lat="44.23627" lon="7.11248">
        <ele>1793</ele>
        <time>2022-07-19T05:44:48Z</time>
      </trkpt>
      <trkpt lat="44.23629" lon="7.11248">
        <ele>1793</ele>
        <time>2022-07-19T05:44:49Z</time>
      </trkpt>
      <trkpt lat="44.2363" lon="7.11248">
        <ele>1793.4</ele>
        <time>2022-07-19T05:44:50Z</time>
      </trkpt>
      <trkpt lat="44.23631" lon="7.11248">
        <ele>1793.4</ele>
        <time>2022-07-19T05:44:51Z</time>
      </trkpt>
      <trkpt lat="44.23633" lon="7.11248">
        <ele>1793.6</ele>
        <time>2022-07-19T05:44:52Z</time>
      </trkpt>
      <trkpt lat="44.23634" lon="7.11248">
        <ele>1793.6</ele>
        <time>2022-07-19T05:44:53Z</time>
      </trkpt>
      <trkpt lat="44.23636" lon="7.11248">
        <ele>1794</ele>
        <time>2022-07-19T05:44:54Z</time>
      </trkpt>
      <trkpt lat="44.23637" lon="7.11248">
        <ele>1794</ele>
        <time>2022-07-19T05:44:55Z</time>
      </trkpt>
      <trkpt lat="44.23639" lon="7.11248">
        <ele>1794.2</ele>
        <time>2022-07-19T05:44:56Z</time>
      </trkpt>
      <trkpt lat="44.2364" lon="7.11248">
        <ele>1794.2</ele>
        <time>2022-07-19T05:44:57Z</time>
      </trkpt>
      <trkpt lat="44.23641" lon="7.11248">
        <ele>1794.4</ele>
        <time>2022-07-19T05:44:58Z</time>
      </trkpt>
      <trkpt lat="44.23643" lon="7.11247">
        <ele>1794.4</ele>
        <time>2022-07-19T05:44:59Z</time>
      </trkpt>
      <trkpt lat="44.23644" lon="7.11247">
        <ele>1794.8</ele>
        <time>2022-07-19T05:45:00Z</time>
      </trkpt>
      <trkpt lat="44.23646" lon="7.11246">
        <ele>1794.8</ele>
        <time>2022-07-19T05:45:01Z</time>
      </trkpt>
      <trkpt lat="44.23647" lon="7.11245">
        <ele>1795</ele>
        <time>2022-07-19T05:45:02Z</time>
      </trkpt>
      <trkpt lat="44.23648" lon="7.11244">
        <ele>1795</ele>
        <time>2022-07-19T05:45:03Z</time>
      </trkpt>
      <trkpt lat="44.2365" lon="7.11244">
        <ele>1795.4</ele>
        <time>2022-07-19T05:45:04Z</time>
      </trkpt>
      <trkpt lat="44.23651" lon="7.11243">
        <ele>1795.4</ele>
        <time>2022-07-19T05:45:05Z</time>
      </trkpt>
      <trkpt lat="44.23653" lon="7.11243">
        <ele>1795.6</ele>
        <time>2022-07-19T05:45:06Z</time>
      </trkpt>
      <trkpt lat="44.23654" lon="7.11243">
        <ele>1795.6</ele>
        <time>2022-07-19T05:45:07Z</time>
      </trkpt>
      <trkpt lat="44.23656" lon="7.11243">
        <ele>1796</ele>
        <time>2022-07-19T05:45:08Z</time>
      </trkpt>
      <trkpt lat="44.23657" lon="7.11243">
        <ele>1796.2</ele>
        <time>2022-07-19T05:45:09Z</time>
      </trkpt>
      <trkpt lat="44.23659" lon="7.11243">
        <ele>1796.2</ele>
        <time>2022-07-19T05:45:10Z</time>
      </trkpt>
      <trkpt lat="44.2366" lon="7.11243">
        <ele>1796.6</ele>
        <time>2022-07-19T05:45:11Z</time>
      </trkpt>
      <trkpt lat="44.23662" lon="7.11243">
        <ele>1796.6</ele>
        <time>2022-07-19T05:45:12Z</time>
      </trkpt>
      <trkpt lat="44.23663" lon="7.11243">
        <ele>1796.8</ele>
        <time>2022-07-19T05:45:13Z</time>
      </trkpt>
      <trkpt lat="44.23665" lon="7.11243">
        <ele>1796.8</ele>
        <time>2022-07-19T05:45:14Z</time>
      </trkpt>
      <trkpt lat="44.23666" lon="7.11242">
        <ele>1797.2</ele>
        <time>2022-07-19T05:45:15Z</time>
      </trkpt>
      <trkpt lat="44.23668" lon="7.11242">
        <ele>1797.4</ele>
        <time>2022-07-19T05:45:16Z</time>
      </trkpt>
      <trkpt lat="44.23669" lon="7.11242">
        <ele>1797.4</ele>
        <time>2022-07-19T05:45:17Z</time>
      </trkpt>
      <trkpt lat="44.23671" lon="7.11241">
        <ele>1797.8</ele>
        <time>2022-07-19T05:45:18Z</time>
      </trkpt>
      <trkpt lat="44.23672" lon="7.1124">
        <ele>1797.8</ele>
        <time>2022-07-19T05:45:19Z</time>
      </trkpt>
      <trkpt lat="44.23673" lon="7.11239">
        <ele>1798</ele>
        <time>2022-07-19T05:45:20Z</time>
      </trkpt>
      <trkpt lat="44.23674" lon="7.11238">
        <ele>1798.2</ele>
        <time>2022-07-19T05:45:21Z</time>
      </trkpt>
      <trkpt lat="44.23675" lon="7.11237">
        <ele>1798.2</ele>
        <time>2022-07-19T05:45:22Z</time>
      </trkpt>
      <trkpt lat="44.23677" lon="7.11237">
        <ele>1798.6</ele>
        <time>2022-07-19T05:45:23Z</time>
      </trkpt>
      <trkpt lat="44.23678" lon="7.11236">
        <ele>1798.6</ele>
        <time>2022-07-19T05:45:24Z</time>
      </trkpt>
      <trkpt lat="44.23679" lon="7.11236">
        <ele>1798.8</ele>
        <time>2022-07-19T05:45:25Z</time>
      </trkpt>
      <trkpt lat="44.2368" lon="7.11236">
        <ele>1799</ele>
        <time>2022-07-19T05:45:26Z</time>
      </trkpt>
      <trkpt lat="44.23682" lon="7.11236">
        <ele>1799</ele>
        <time>2022-07-19T05:45:27Z</time>
      </trkpt>
      <trkpt lat="44.23683" lon="7.11236">
        <ele>1799.4</ele>
        <time>2022-07-19T05:45:28Z</time>
      </trkpt>
      <trkpt lat="44.23685" lon="7.11236">
        <ele>1799.4</ele>
        <time>2022-07-19T05:45:29Z</time>
      </trkpt>
      <trkpt lat="44.23686" lon="7.11235">
        <ele>1799.4</ele>
        <time>2022-07-19T05:45:30Z</time>
      </trkpt>
      <trkpt lat="44.23688" lon="7.11234">
        <ele>1799.6</ele>
        <time>2022-07-19T05:45:31Z</time>
      </trkpt>
      <trkpt lat="44.23689" lon="7.11234">
        <ele>1799.6</ele>
        <time>2022-07-19T05:45:32Z</time>
      </trkpt>
      <trkpt lat="44.2369" lon="7.11233">
        <ele>1800</ele>
        <time>2022-07-19T05:45:33Z</time>
      </trkpt>
      <trkpt lat="44.23692" lon="7.11231">
        <ele>1800</ele>
        <time>2022-07-19T05:45:34Z</time>
      </trkpt>
      <trkpt lat="44.23693" lon="7.1123">
        <ele>1800.4</ele>
        <time>2022-07-19T05:45:35Z</time>
      </trkpt>
      <trkpt lat="44.23694" lon="7.11229">
        <ele>1800.4</ele>
        <time>2022-07-19T05:45:36Z</time>
      </trkpt>
      <trkpt lat="44.23695" lon="7.11228">
        <ele>1800.6</ele>
        <time>2022-07-19T05:45:37Z</time>
      </trkpt>
      <trkpt lat="44.23697" lon="7.11228">
        <ele>1800.6</ele>
        <time>2022-07-19T05:45:38Z</time>
      </trkpt>
      <trkpt lat="44.23698" lon="7.11227">
        <ele>1800.8</ele>
        <time>2022-07-19T05:45:39Z</time>
      </trkpt>
      <trkpt lat="44.237" lon="7.11227">
        <ele>1800.8</ele>
        <time>2022-07-19T05:45:40Z</time>
      </trkpt>
      <trkpt lat="44.23701" lon="7.11227">
        <ele>1800.8</ele>
        <time>2022-07-19T05:45:41Z</time>
      </trkpt>
      <trkpt lat="44.23703" lon="7.11226">
        <ele>1801.2</ele>
        <time>2022-07-19T05:45:42Z</time>
      </trkpt>
      <trkpt lat="44.23704" lon="7.11227">
        <ele>1801.2</ele>
        <time>2022-07-19T05:45:43Z</time>
      </trkpt>
      <trkpt lat="44.23706" lon="7.11227">
        <ele>1801.6</ele>
        <time>2022-07-19T05:45:44Z</time>
      </trkpt>
      <trkpt lat="44.23707" lon="7.11227">
        <ele>1801.8</ele>
        <time>2022-07-19T05:45:45Z</time>
      </trkpt>
      <trkpt lat="44.23709" lon="7.11226">
        <ele>1801.8</ele>
        <time>2022-07-19T05:45:46Z</time>
      </trkpt>
      <trkpt lat="44.2371" lon="7.11226">
        <ele>1802.2</ele>
        <time>2022-07-19T05:45:47Z</time>
      </trkpt>
      <trkpt lat="44.23712" lon="7.11226">
        <ele>1802.2</ele>
        <time>2022-07-19T05:45:48Z</time>
      </trkpt>
      <trkpt lat="44.23713" lon="7.11226">
        <ele>1802.6</ele>
        <time>2022-07-19T05:45:49Z</time>
      </trkpt>
      <trkpt lat="44.23715" lon="7.11226">
        <ele>1802.6</ele>
        <time>2022-07-19T05:45:50Z</time>
      </trkpt>
      <trkpt lat="44.23716" lon="7.11226">
        <ele>1803</ele>
        <time>2022-07-19T05:45:51Z</time>
      </trkpt>
      <trkpt lat="44.23718" lon="7.11226">
        <ele>1803.2</ele>
        <time>2022-07-19T05:45:52Z</time>
      </trkpt>
      <trkpt lat="44.2372" lon="7.11226">
        <ele>1803.4</ele>
        <time>2022-07-19T05:45:53Z</time>
      </trkpt>
      <trkpt lat="44.23721" lon="7.11227">
        <ele>1803.4</ele>
        <time>2022-07-19T05:45:54Z</time>
      </trkpt>
      <trkpt lat="44.23723" lon="7.11227">
        <ele>1803.6</ele>
        <time>2022-07-19T05:45:55Z</time>
      </trkpt>
      <trkpt lat="44.23724" lon="7.11228">
        <ele>1803.6</ele>
        <time>2022-07-19T05:45:56Z</time>
      </trkpt>
      <trkpt lat="44.23726" lon="7.11227">
        <ele>1804</ele>
        <time>2022-07-19T05:45:57Z</time>
      </trkpt>
      <trkpt lat="44.23727" lon="7.11227">
        <ele>1804</ele>
        <time>2022-07-19T05:45:58Z</time>
      </trkpt>
      <trkpt lat="44.23729" lon="7.11226">
        <ele>1804.2</ele>
        <time>2022-07-19T05:45:59Z</time>
      </trkpt>
      <trkpt lat="44.2373" lon="7.11226">
        <ele>1804.2</ele>
        <time>2022-07-19T05:46:00Z</time>
      </trkpt>
      <trkpt lat="44.23732" lon="7.11227">
        <ele>1804.6</ele>
        <time>2022-07-19T05:46:01Z</time>
      </trkpt>
      <trkpt lat="44.23733" lon="7.11227">
        <ele>1804.6</ele>
        <time>2022-07-19T05:46:02Z</time>
      </trkpt>
      <trkpt lat="44.23734" lon="7.11227">
        <ele>1804.8</ele>
        <time>2022-07-19T05:46:03Z</time>
      </trkpt>
      <trkpt lat="44.23736" lon="7.11227">
        <ele>1804.8</ele>
        <time>2022-07-19T05:46:04Z</time>
      </trkpt>
      <trkpt lat="44.23737" lon="7.11227">
        <ele>1805.2</ele>
        <time>2022-07-19T05:46:05Z</time>
      </trkpt>
      <trkpt lat="44.23739" lon="7.11227">
        <ele>1805.2</ele>
        <time>2022-07-19T05:46:06Z</time>
      </trkpt>
      <trkpt lat="44.2374" lon="7.11228">
        <ele>1805.6</ele>
        <time>2022-07-19T05:46:07Z</time>
      </trkpt>
      <trkpt lat="44.23742" lon="7.11228">
        <ele>1805.6</ele>
        <time>2022-07-19T05:46:08Z</time>
      </trkpt>
      <trkpt lat="44.23743" lon="7.11229">
        <ele>1806</ele>
        <time>2022-07-19T05:46:09Z</time>
      </trkpt>
      <trkpt lat="44.23745" lon="7.11229">
        <ele>1806</ele>
        <time>2022-07-19T05:46:10Z</time>
      </trkpt>
      <trkpt lat="44.23746" lon="7.11228">
        <ele>1806.2</ele>
        <time>2022-07-19T05:46:11Z</time>
      </trkpt>
      <trkpt lat="44.23748" lon="7.11228">
        <ele>1806.2</ele>
        <time>2022-07-19T05:46:12Z</time>
      </trkpt>
      <trkpt lat="44.23749" lon="7.11227">
        <ele>1806.6</ele>
        <time>2022-07-19T05:46:13Z</time>
      </trkpt>
      <trkpt lat="44.2375" lon="7.11227">
        <ele>1806.6</ele>
        <time>2022-07-19T05:46:14Z</time>
      </trkpt>
      <trkpt lat="44.23751" lon="7.11227">
        <ele>1806.8</ele>
        <time>2022-07-19T05:46:15Z</time>
      </trkpt>
      <trkpt lat="44.23752" lon="7.11228">
        <ele>1806.8</ele>
        <time>2022-07-19T05:46:16Z</time>
      </trkpt>
      <trkpt lat="44.23753" lon="7.11228">
        <ele>1807.2</ele>
        <time>2022-07-19T05:46:17Z</time>
      </trkpt>
      <trkpt lat="44.23754" lon="7.11229">
        <ele>1807.2</ele>
        <time>2022-07-19T05:46:18Z</time>
      </trkpt>
      <trkpt lat="44.23756" lon="7.11229">
        <ele>1807.4</ele>
        <time>2022-07-19T05:46:19Z</time>
      </trkpt>
      <trkpt lat="44.23757" lon="7.1123">
        <ele>1807.4</ele>
        <time>2022-07-19T05:46:20Z</time>
      </trkpt>
      <trkpt lat="44.23758" lon="7.11231">
        <ele>1807.6</ele>
        <time>2022-07-19T05:46:21Z</time>
      </trkpt>
      <trkpt lat="44.2376" lon="7.11232">
        <ele>1807.6</ele>
        <time>2022-07-19T05:46:22Z</time>
      </trkpt>
      <trkpt lat="44.23761" lon="7.11233">
        <ele>1808</ele>
        <time>2022-07-19T05:46:23Z</time>
      </trkpt>
      <trkpt lat="44.23762" lon="7.11234">
        <ele>1808</ele>
        <time>2022-07-19T05:46:24Z</time>
      </trkpt>
      <trkpt lat="44.23763" lon="7.11235">
        <ele>1808.2</ele>
        <time>2022-07-19T05:46:25Z</time>
      </trkpt>
      <trkpt lat="44.23764" lon="7.11236">
        <ele>1808.2</ele>
        <time>2022-07-19T05:46:26Z</time>
      </trkpt>
      <trkpt lat="44.23765" lon="7.11237">
        <ele>1808.6</ele>
        <time>2022-07-19T05:46:27Z</time>
      </trkpt>
      <trkpt lat="44.23766" lon="7.11239">
        <ele>1808.6</ele>
        <time>2022-07-19T05:46:28Z</time>
      </trkpt>
      <trkpt lat="44.23766" lon="7.11241">
        <ele>1809</ele>
        <time>2022-07-19T05:46:29Z</time>
      </trkpt>
      <trkpt lat="44.23766" lon="7.11243">
        <ele>1809</ele>
        <time>2022-07-19T05:46:30Z</time>
      </trkpt>
      <trkpt lat="44.23765" lon="7.11246">
        <ele>1809.2</ele>
        <time>2022-07-19T05:46:31Z</time>
      </trkpt>
      <trkpt lat="44.23766" lon="7.11249">
        <ele>1809.2</ele>
        <time>2022-07-19T05:46:32Z</time>
      </trkpt>
      <trkpt lat="44.23765" lon="7.11251">
        <ele>1809.2</ele>
        <time>2022-07-19T05:46:33Z</time>
      </trkpt>
      <trkpt lat="44.23765" lon="7.11254">
        <ele>1809.4</ele>
        <time>2022-07-19T05:46:34Z</time>
      </trkpt>
      <trkpt lat="44.23765" lon="7.11257">
        <ele>1809.4</ele>
        <time>2022-07-19T05:46:35Z</time>
      </trkpt>
      <trkpt lat="44.23765" lon="7.11259">
        <ele>1809.8</ele>
        <time>2022-07-19T05:46:36Z</time>
      </trkpt>
      <trkpt lat="44.23765" lon="7.11262">
        <ele>1809.8</ele>
        <time>2022-07-19T05:46:37Z</time>
      </trkpt>
      <trkpt lat="44.23765" lon="7.11265">
        <ele>1810</ele>
        <time>2022-07-19T05:46:38Z</time>
      </trkpt>
      <trkpt lat="44.23764" lon="7.11267">
        <ele>1810</ele>
        <time>2022-07-19T05:46:39Z</time>
      </trkpt>
      <trkpt lat="44.23764" lon="7.1127">
        <ele>1810.2</ele>
        <time>2022-07-19T05:46:40Z</time>
      </trkpt>
      <trkpt lat="44.23764" lon="7.11273">
        <ele>1810.2</ele>
        <time>2022-07-19T05:46:41Z</time>
      </trkpt>
      <trkpt lat="44.23764" lon="7.11276">
        <ele>1810.2</ele>
        <time>2022-07-19T05:46:42Z</time>
      </trkpt>
      <trkpt lat="44.23764" lon="7.11278">
        <ele>1810.6</ele>
        <time>2022-07-19T05:46:43Z</time>
      </trkpt>
      <trkpt lat="44.23764" lon="7.11281">
        <ele>1810.6</ele>
        <time>2022-07-19T05:46:44Z</time>
      </trkpt>
      <trkpt lat="44.23764" lon="7.11284">
        <ele>1811</ele>
        <time>2022-07-19T05:46:45Z</time>
      </trkpt>
      <trkpt lat="44.23764" lon="7.11287">
        <ele>1811</ele>
        <time>2022-07-19T05:46:46Z</time>
      </trkpt>
      <trkpt lat="44.23764" lon="7.1129">
        <ele>1811.2</ele>
        <time>2022-07-19T05:46:47Z</time>
      </trkpt>
      <trkpt lat="44.23764" lon="7.11293">
        <ele>1811.2</ele>
        <time>2022-07-19T05:46:48Z</time>
      </trkpt>
      <trkpt lat="44.23764" lon="7.11296">
        <ele>1811.6</ele>
        <time>2022-07-19T05:46:49Z</time>
      </trkpt>
      <trkpt lat="44.23764" lon="7.11299">
        <ele>1811.6</ele>
        <time>2022-07-19T05:46:50Z</time>
      </trkpt>
      <trkpt lat="44.23763" lon="7.11301">
        <ele>1811.6</ele>
        <time>2022-07-19T05:46:51Z</time>
      </trkpt>
      <trkpt lat="44.23763" lon="7.11304">
        <ele>1811.8</ele>
        <time>2022-07-19T05:46:52Z</time>
      </trkpt>
      <trkpt lat="44.23763" lon="7.11307">
        <ele>1811.8</ele>
        <time>2022-07-19T05:46:53Z</time>
      </trkpt>
      <trkpt lat="44.23763" lon="7.1131">
        <ele>1812.2</ele>
        <time>2022-07-19T05:46:54Z</time>
      </trkpt>
      <trkpt lat="44.23763" lon="7.11312">
        <ele>1812.4</ele>
        <time>2022-07-19T05:46:55Z</time>
      </trkpt>
      <trkpt lat="44.23764" lon="7.11315">
        <ele>1812.4</ele>
        <time>2022-07-19T05:46:56Z</time>
      </trkpt>
      <trkpt lat="44.23763" lon="7.11318">
        <ele>1812.6</ele>
        <time>2022-07-19T05:46:57Z</time>
      </trkpt>
      <trkpt lat="44.23764" lon="7.1132">
        <ele>1812.8</ele>
        <time>2022-07-19T05:46:58Z</time>
      </trkpt>
      <trkpt lat="44.23764" lon="7.11324">
        <ele>1812.8</ele>
        <time>2022-07-19T05:46:59Z</time>
      </trkpt>
      <trkpt lat="44.23764" lon="7.11326">
        <ele>1813.2</ele>
        <time>2022-07-19T05:47:00Z</time>
      </trkpt>
      <trkpt lat="44.23764" lon="7.11327">
        <ele>1813.2</ele>
        <time>2022-07-19T05:47:01Z</time>
      </trkpt>
      <trkpt lat="44.23764" lon="7.1133">
        <ele>1813.2</ele>
        <time>2022-07-19T05:47:02Z</time>
      </trkpt>
      <trkpt lat="44.23764" lon="7.11333">
        <ele>1813.6</ele>
        <time>2022-07-19T05:47:03Z</time>
      </trkpt>
      <trkpt lat="44.23765" lon="7.11337">
        <ele>1813.6</ele>
        <time>2022-07-19T05:47:04Z</time>
      </trkpt>
      <trkpt lat="44.23766" lon="7.11339">
        <ele>1813.8</ele>
        <time>2022-07-19T05:47:05Z</time>
      </trkpt>
      <trkpt lat="44.23767" lon="7.11342">
        <ele>1813.8</ele>
        <time>2022-07-19T05:47:06Z</time>
      </trkpt>
      <trkpt lat="44.23768" lon="7.11345">
        <ele>1814.2</ele>
        <time>2022-07-19T05:47:07Z</time>
      </trkpt>
      <trkpt lat="44.2377" lon="7.11347">
        <ele>1814.2</ele>
        <time>2022-07-19T05:47:08Z</time>
      </trkpt>
      <trkpt lat="44.23771" lon="7.11349">
        <ele>1814.4</ele>
        <time>2022-07-19T05:47:09Z</time>
      </trkpt>
      <trkpt lat="44.23771" lon="7.11351">
        <ele>1814.4</ele>
        <time>2022-07-19T05:47:10Z</time>
      </trkpt>
      <trkpt lat="44.23772" lon="7.11352">
        <ele>1814.6</ele>
        <time>2022-07-19T05:47:11Z</time>
      </trkpt>
      <trkpt lat="44.23774" lon="7.11353">
        <ele>1814.6</ele>
        <time>2022-07-19T05:47:12Z</time>
      </trkpt>
      <trkpt lat="44.23775" lon="7.11354">
        <ele>1814.8</ele>
        <time>2022-07-19T05:47:13Z</time>
      </trkpt>
      <trkpt lat="44.23778" lon="7.11355">
        <ele>1814.8</ele>
        <time>2022-07-19T05:47:14Z</time>
      </trkpt>
      <trkpt lat="44.23779" lon="7.11355">
        <ele>1814.8</ele>
        <time>2022-07-19T05:47:15Z</time>
      </trkpt>
      <trkpt lat="44.23781" lon="7.11355">
        <ele>1815.2</ele>
        <time>2022-07-19T05:47:16Z</time>
      </trkpt>
      <trkpt lat="44.23783" lon="7.11356">
        <ele>1815.2</ele>
        <time>2022-07-19T05:47:17Z</time>
      </trkpt>
      <trkpt lat="44.23784" lon="7.11357">
        <ele>1815.4</ele>
        <time>2022-07-19T05:47:18Z</time>
      </trkpt>
      <trkpt lat="44.23786" lon="7.11357">
        <ele>1815.4</ele>
        <time>2022-07-19T05:47:19Z</time>
      </trkpt>
      <trkpt lat="44.23788" lon="7.11358">
        <ele>1815.6</ele>
        <time>2022-07-19T05:47:20Z</time>
      </trkpt>
      <trkpt lat="44.23789" lon="7.11359">
        <ele>1815.6</ele>
        <time>2022-07-19T05:47:21Z</time>
      </trkpt>
      <trkpt lat="44.2379" lon="7.1136">
        <ele>1816</ele>
        <time>2022-07-19T05:47:22Z</time>
      </trkpt>
      <trkpt lat="44.23792" lon="7.11361">
        <ele>1816</ele>
        <time>2022-07-19T05:47:23Z</time>
      </trkpt>
      <trkpt lat="44.23793" lon="7.11362">
        <ele>1816.2</ele>
        <time>2022-07-19T05:47:24Z</time>
      </trkpt>
      <trkpt lat="44.23795" lon="7.11363">
        <ele>1816.2</ele>
        <time>2022-07-19T05:47:25Z</time>
      </trkpt>
      <trkpt lat="44.23796" lon="7.11364">
        <ele>1816.6</ele>
        <time>2022-07-19T05:47:26Z</time>
      </trkpt>
      <trkpt lat="44.23798" lon="7.11366">
        <ele>1816.6</ele>
        <time>2022-07-19T05:47:27Z</time>
      </trkpt>
      <trkpt lat="44.238" lon="7.11368">
        <ele>1816.8</ele>
        <time>2022-07-19T05:47:28Z</time>
      </trkpt>
      <trkpt lat="44.23801" lon="7.11369">
        <ele>1816.8</ele>
        <time>2022-07-19T05:47:29Z</time>
      </trkpt>
      <trkpt lat="44.23802" lon="7.11371">
        <ele>1817.2</ele>
        <time>2022-07-19T05:47:30Z</time>
      </trkpt>
      <trkpt lat="44.23803" lon="7.11372">
        <ele>1817.2</ele>
        <time>2022-07-19T05:47:31Z</time>
      </trkpt>
      <trkpt lat="44.23805" lon="7.11374">
        <ele>1817.4</ele>
        <time>2022-07-19T05:47:32Z</time>
      </trkpt>
      <trkpt lat="44.23807" lon="7.11375">
        <ele>1817.4</ele>
        <time>2022-07-19T05:47:33Z</time>
      </trkpt>
      <trkpt lat="44.23808" lon="7.11377">
        <ele>1817.4</ele>
        <time>2022-07-19T05:47:34Z</time>
      </trkpt>
      <trkpt lat="44.23809" lon="7.11378">
        <ele>1817.6</ele>
        <time>2022-07-19T05:47:35Z</time>
      </trkpt>
      <trkpt lat="44.2381" lon="7.11379">
        <ele>1817.6</ele>
        <time>2022-07-19T05:47:36Z</time>
      </trkpt>
      <trkpt lat="44.23811" lon="7.11381">
        <ele>1818</ele>
        <time>2022-07-19T05:47:37Z</time>
      </trkpt>
      <trkpt lat="44.23813" lon="7.11382">
        <ele>1818</ele>
        <time>2022-07-19T05:47:38Z</time>
      </trkpt>
      <trkpt lat="44.23814" lon="7.11384">
        <ele>1818</ele>
        <time>2022-07-19T05:47:39Z</time>
      </trkpt>
      <trkpt lat="44.23815" lon="7.11385">
        <ele>1818.2</ele>
        <time>2022-07-19T05:47:40Z</time>
      </trkpt>
      <trkpt lat="44.23816" lon="7.11385">
        <ele>1818.2</ele>
        <time>2022-07-19T05:47:41Z</time>
      </trkpt>
      <trkpt lat="44.23817" lon="7.11386">
        <ele>1818.6</ele>
        <time>2022-07-19T05:47:42Z</time>
      </trkpt>
      <trkpt lat="44.23819" lon="7.11386">
        <ele>1818.6</ele>
        <time>2022-07-19T05:47:43Z</time>
      </trkpt>
      <trkpt lat="44.2382" lon="7.11387">
        <ele>1819</ele>
        <time>2022-07-19T05:47:44Z</time>
      </trkpt>
      <trkpt lat="44.2382" lon="7.11389">
        <ele>1819.2</ele>
        <time>2022-07-19T05:47:45Z</time>
      </trkpt>
      <trkpt lat="44.23821" lon="7.1139">
        <ele>1819.2</ele>
        <time>2022-07-19T05:47:46Z</time>
      </trkpt>
      <trkpt lat="44.23822" lon="7.11392">
        <ele>1819.2</ele>
        <time>2022-07-19T05:47:47Z</time>
      </trkpt>
      <trkpt lat="44.23822" lon="7.11393">
        <ele>1819.4</ele>
        <time>2022-07-19T05:47:48Z</time>
      </trkpt>
      <trkpt lat="44.23824" lon="7.11394">
        <ele>1819.4</ele>
        <time>2022-07-19T05:47:49Z</time>
      </trkpt>
      <trkpt lat="44.23825" lon="7.11395">
        <ele>1819.6</ele>
        <time>2022-07-19T05:47:50Z</time>
      </trkpt>
      <trkpt lat="44.23826" lon="7.11397">
        <ele>1819.6</ele>
        <time>2022-07-19T05:47:51Z</time>
      </trkpt>
      <trkpt lat="44.23827" lon="7.11398">
        <ele>1819.8</ele>
        <time>2022-07-19T05:47:52Z</time>
      </trkpt>
      <trkpt lat="44.23827" lon="7.114">
        <ele>1819.8</ele>
        <time>2022-07-19T05:47:53Z</time>
      </trkpt>
      <trkpt lat="44.23828" lon="7.11401">
        <ele>1820.2</ele>
        <time>2022-07-19T05:47:54Z</time>
      </trkpt>
      <trkpt lat="44.23829" lon="7.11402">
        <ele>1820.2</ele>
        <time>2022-07-19T05:47:55Z</time>
      </trkpt>
      <trkpt lat="44.2383" lon="7.11404">
        <ele>1820.4</ele>
        <time>2022-07-19T05:47:56Z</time>
      </trkpt>
      <trkpt lat="44.23831" lon="7.11406">
        <ele>1820.4</ele>
        <time>2022-07-19T05:47:57Z</time>
      </trkpt>
      <trkpt lat="44.23832" lon="7.11407">
        <ele>1820.8</ele>
        <time>2022-07-19T05:47:58Z</time>
      </trkpt>
      <trkpt lat="44.23833" lon="7.11408">
        <ele>1820.8</ele>
        <time>2022-07-19T05:47:59Z</time>
      </trkpt>
      <trkpt lat="44.23834" lon="7.1141">
        <ele>1821</ele>
        <time>2022-07-19T05:48:00Z</time>
      </trkpt>
      <trkpt lat="44.23835" lon="7.11411">
        <ele>1821</ele>
        <time>2022-07-19T05:48:01Z</time>
      </trkpt>
      <trkpt lat="44.23835" lon="7.11413">
        <ele>1821</ele>
        <time>2022-07-19T05:48:02Z</time>
      </trkpt>
      <trkpt lat="44.23836" lon="7.11415">
        <ele>1821.2</ele>
        <time>2022-07-19T05:48:03Z</time>
      </trkpt>
      <trkpt lat="44.23837" lon="7.11417">
        <ele>1821.2</ele>
        <time>2022-07-19T05:48:04Z</time>
      </trkpt>
      <trkpt lat="44.23837" lon="7.11418">
        <ele>1821.2</ele>
        <time>2022-07-19T05:48:05Z</time>
      </trkpt>
      <trkpt lat="44.23838" lon="7.11419">
        <ele>1821.6</ele>
        <time>2022-07-19T05:48:06Z</time>
      </trkpt>
      <trkpt lat="44.23839" lon="7.11421">
        <ele>1821.8</ele>
        <time>2022-07-19T05:48:07Z</time>
      </trkpt>
      <trkpt lat="44.2384" lon="7.11422">
        <ele>1821.8</ele>
        <time>2022-07-19T05:48:08Z</time>
      </trkpt>
      <trkpt lat="44.23841" lon="7.11424">
        <ele>1822</ele>
        <time>2022-07-19T05:48:09Z</time>
      </trkpt>
      <trkpt lat="44.23841" lon="7.11427">
        <ele>1822</ele>
        <time>2022-07-19T05:48:10Z</time>
      </trkpt>
      <trkpt lat="44.23841" lon="7.11429">
        <ele>1822</ele>
        <time>2022-07-19T05:48:11Z</time>
      </trkpt>
      <trkpt lat="44.23841" lon="7.1143">
        <ele>1822.4</ele>
        <time>2022-07-19T05:48:12Z</time>
      </trkpt>
      <trkpt lat="44.23842" lon="7.11432">
        <ele>1822.4</ele>
        <time>2022-07-19T05:48:13Z</time>
      </trkpt>
      <trkpt lat="44.23842" lon="7.11433">
        <ele>1822.6</ele>
        <time>2022-07-19T05:48:14Z</time>
      </trkpt>
      <trkpt lat="44.23843" lon="7.11435">
        <ele>1822.6</ele>
        <time>2022-07-19T05:48:15Z</time>
      </trkpt>
      <trkpt lat="44.23844" lon="7.11437">
        <ele>1823</ele>
        <time>2022-07-19T05:48:16Z</time>
      </trkpt>
      <trkpt lat="44.23845" lon="7.11438">
        <ele>1823</ele>
        <time>2022-07-19T05:48:17Z</time>
      </trkpt>
      <trkpt lat="44.23846" lon="7.1144">
        <ele>1823.2</ele>
        <time>2022-07-19T05:48:18Z</time>
      </trkpt>
      <trkpt lat="44.23847" lon="7.11441">
        <ele>1823.2</ele>
        <time>2022-07-19T05:48:19Z</time>
      </trkpt>
      <trkpt lat="44.23848" lon="7.11442">
        <ele>1823.6</ele>
        <time>2022-07-19T05:48:20Z</time>
      </trkpt>
      <trkpt lat="44.23848" lon="7.11443">
        <ele>1823.6</ele>
        <time>2022-07-19T05:48:21Z</time>
      </trkpt>
      <trkpt lat="44.23849" lon="7.11445">
        <ele>1823.8</ele>
        <time>2022-07-19T05:48:22Z</time>
      </trkpt>
      <trkpt lat="44.23849" lon="7.11447">
        <ele>1823.8</ele>
        <time>2022-07-19T05:48:23Z</time>
      </trkpt>
      <trkpt lat="44.2385" lon="7.11449">
        <ele>1824.2</ele>
        <time>2022-07-19T05:48:24Z</time>
      </trkpt>
      <trkpt lat="44.23851" lon="7.11451">
        <ele>1824.2</ele>
        <time>2022-07-19T05:48:25Z</time>
      </trkpt>
      <trkpt lat="44.23851" lon="7.11452">
        <ele>1824.2</ele>
        <time>2022-07-19T05:48:26Z</time>
      </trkpt>
      <trkpt lat="44.23852" lon="7.11454">
        <ele>1824.4</ele>
        <time>2022-07-19T05:48:27Z</time>
      </trkpt>
      <trkpt lat="44.23853" lon="7.11455">
        <ele>1824.4</ele>
        <time>2022-07-19T05:48:28Z</time>
      </trkpt>
      <trkpt lat="44.23854" lon="7.11457">
        <ele>1824.4</ele>
        <time>2022-07-19T05:48:29Z</time>
      </trkpt>
      <trkpt lat="44.23855" lon="7.11459">
        <ele>1824.8</ele>
        <time>2022-07-19T05:48:30Z</time>
      </trkpt>
      <trkpt lat="44.23856" lon="7.11461">
        <ele>1824.8</ele>
        <time>2022-07-19T05:48:31Z</time>
      </trkpt>
      <trkpt lat="44.23857" lon="7.11463">
        <ele>1824.8</ele>
        <time>2022-07-19T05:48:32Z</time>
      </trkpt>
      <trkpt lat="44.23857" lon="7.11464">
        <ele>1825</ele>
        <time>2022-07-19T05:48:33Z</time>
      </trkpt>
      <trkpt lat="44.23858" lon="7.11466">
        <ele>1825</ele>
        <time>2022-07-19T05:48:34Z</time>
      </trkpt>
      <trkpt lat="44.23859" lon="7.11467">
        <ele>1825.2</ele>
        <time>2022-07-19T05:48:35Z</time>
      </trkpt>
      <trkpt lat="44.23861" lon="7.11468">
        <ele>1825.2</ele>
        <time>2022-07-19T05:48:36Z</time>
      </trkpt>
      <trkpt lat="44.23862" lon="7.11469">
        <ele>1825.4</ele>
        <time>2022-07-19T05:48:37Z</time>
      </trkpt>
      <trkpt lat="44.23862" lon="7.11471">
        <ele>1825.4</ele>
        <time>2022-07-19T05:48:38Z</time>
      </trkpt>
      <trkpt lat="44.23863" lon="7.11473">
        <ele>1825.8</ele>
        <time>2022-07-19T05:48:39Z</time>
      </trkpt>
      <trkpt lat="44.23864" lon="7.11475">
        <ele>1825.8</ele>
        <time>2022-07-19T05:48:40Z</time>
      </trkpt>
      <trkpt lat="44.23865" lon="7.11477">
        <ele>1826</ele>
        <time>2022-07-19T05:48:41Z</time>
      </trkpt>
      <trkpt lat="44.23865" lon="7.11478">
        <ele>1826</ele>
        <time>2022-07-19T05:48:42Z</time>
      </trkpt>
      <trkpt lat="44.23867" lon="7.11479">
        <ele>1826.4</ele>
        <time>2022-07-19T05:48:43Z</time>
      </trkpt>
      <trkpt lat="44.23868" lon="7.1148">
        <ele>1826.4</ele>
        <time>2022-07-19T05:48:44Z</time>
      </trkpt>
      <trkpt lat="44.2387" lon="7.11481">
        <ele>1826.8</ele>
        <time>2022-07-19T05:48:45Z</time>
      </trkpt>
      <trkpt lat="44.23871" lon="7.11482">
        <ele>1826.8</ele>
        <time>2022-07-19T05:48:46Z</time>
      </trkpt>
      <trkpt lat="44.23872" lon="7.11484">
        <ele>1827</ele>
        <time>2022-07-19T05:48:47Z</time>
      </trkpt>
      <trkpt lat="44.23873" lon="7.11486">
        <ele>1827</ele>
        <time>2022-07-19T05:48:48Z</time>
      </trkpt>
      <trkpt lat="44.23874" lon="7.11488">
        <ele>1827.2</ele>
        <time>2022-07-19T05:48:49Z</time>
      </trkpt>
      <trkpt lat="44.23875" lon="7.11489">
        <ele>1827.2</ele>
        <time>2022-07-19T05:48:50Z</time>
      </trkpt>
      <trkpt lat="44.23877" lon="7.11491">
        <ele>1827.4</ele>
        <time>2022-07-19T05:48:51Z</time>
      </trkpt>
      <trkpt lat="44.23878" lon="7.11492">
        <ele>1827.4</ele>
        <time>2022-07-19T05:48:52Z</time>
      </trkpt>
      <trkpt lat="44.2388" lon="7.11493">
        <ele>1827.8</ele>
        <time>2022-07-19T05:48:53Z</time>
      </trkpt>
      <trkpt lat="44.23881" lon="7.11495">
        <ele>1827.8</ele>
        <time>2022-07-19T05:48:54Z</time>
      </trkpt>
      <trkpt lat="44.23883" lon="7.11496">
        <ele>1828</ele>
        <time>2022-07-19T05:48:55Z</time>
      </trkpt>
      <trkpt lat="44.23884" lon="7.11498">
        <ele>1828</ele>
        <time>2022-07-19T05:48:56Z</time>
      </trkpt>
      <trkpt lat="44.23886" lon="7.11499">
        <ele>1828</ele>
        <time>2022-07-19T05:48:57Z</time>
      </trkpt>
      <trkpt lat="44.23887" lon="7.11501">
        <ele>1828.2</ele>
        <time>2022-07-19T05:48:58Z</time>
      </trkpt>
      <trkpt lat="44.23889" lon="7.11502">
        <ele>1828.2</ele>
        <time>2022-07-19T05:48:59Z</time>
      </trkpt>
      <trkpt lat="44.2389" lon="7.11503">
        <ele>1828.8</ele>
        <time>2022-07-19T05:49:00Z</time>
      </trkpt>
      <trkpt lat="44.23892" lon="7.11505">
        <ele>1828.8</ele>
        <time>2022-07-19T05:49:01Z</time>
      </trkpt>
      <trkpt lat="44.23893" lon="7.11507">
        <ele>1829.2</ele>
        <time>2022-07-19T05:49:02Z</time>
      </trkpt>
      <trkpt lat="44.23894" lon="7.11509">
        <ele>1829.2</ele>
        <time>2022-07-19T05:49:03Z</time>
      </trkpt>
      <trkpt lat="44.23896" lon="7.11514">
        <ele>1829.4</ele>
        <time>2022-07-19T05:49:04Z</time>
      </trkpt>
      <trkpt lat="44.23897" lon="7.11516">
        <ele>1829.4</ele>
        <time>2022-07-19T05:49:05Z</time>
      </trkpt>
      <trkpt lat="44.23898" lon="7.11518">
        <ele>1829.6</ele>
        <time>2022-07-19T05:49:06Z</time>
      </trkpt>
      <trkpt lat="44.23899" lon="7.1152">
        <ele>1829.6</ele>
        <time>2022-07-19T05:49:07Z</time>
      </trkpt>
      <trkpt lat="44.23899" lon="7.11523">
        <ele>1830</ele>
        <time>2022-07-19T05:49:08Z</time>
      </trkpt>
      <trkpt lat="44.23899" lon="7.11525">
        <ele>1830</ele>
        <time>2022-07-19T05:49:09Z</time>
      </trkpt>
      <trkpt lat="44.23899" lon="7.11527">
        <ele>1830.2</ele>
        <time>2022-07-19T05:49:10Z</time>
      </trkpt>
      <trkpt lat="44.23899" lon="7.11529">
        <ele>1830.2</ele>
        <time>2022-07-19T05:49:11Z</time>
      </trkpt>
      <trkpt lat="44.23899" lon="7.11531">
        <ele>1830.6</ele>
        <time>2022-07-19T05:49:12Z</time>
      </trkpt>
      <trkpt lat="44.23899" lon="7.11534">
        <ele>1830.6</ele>
        <time>2022-07-19T05:49:13Z</time>
      </trkpt>
      <trkpt lat="44.23899" lon="7.11536">
        <ele>1830.8</ele>
        <time>2022-07-19T05:49:14Z</time>
      </trkpt>
      <trkpt lat="44.239" lon="7.11538">
        <ele>1830.8</ele>
        <time>2022-07-19T05:49:15Z</time>
      </trkpt>
      <trkpt lat="44.239" lon="7.11541">
        <ele>1831.2</ele>
        <time>2022-07-19T05:49:16Z</time>
      </trkpt>
      <trkpt lat="44.23901" lon="7.11543">
        <ele>1831.2</ele>
        <time>2022-07-19T05:49:17Z</time>
      </trkpt>
      <trkpt lat="44.23901" lon="7.11545">
        <ele>1831.4</ele>
        <time>2022-07-19T05:49:18Z</time>
      </trkpt>
      <trkpt lat="44.23902" lon="7.11546">
        <ele>1831.4</ele>
        <time>2022-07-19T05:49:19Z</time>
      </trkpt>
      <trkpt lat="44.23902" lon="7.11548">
        <ele>1831.8</ele>
        <time>2022-07-19T05:49:20Z</time>
      </trkpt>
      <trkpt lat="44.23902" lon="7.11549">
        <ele>1831.8</ele>
        <time>2022-07-19T05:49:21Z</time>
      </trkpt>
      <trkpt lat="44.23902" lon="7.11551">
        <ele>1832</ele>
        <time>2022-07-19T05:49:22Z</time>
      </trkpt>
      <trkpt lat="44.23902" lon="7.11552">
        <ele>1832</ele>
        <time>2022-07-19T05:49:23Z</time>
      </trkpt>
      <trkpt lat="44.23902" lon="7.11554">
        <ele>1832</ele>
        <time>2022-07-19T05:49:24Z</time>
      </trkpt>
      <trkpt lat="44.23902" lon="7.11556">
        <ele>1832.4</ele>
        <time>2022-07-19T05:49:25Z</time>
      </trkpt>
      <trkpt lat="44.23903" lon="7.11558">
        <ele>1832.4</ele>
        <time>2022-07-19T05:49:26Z</time>
      </trkpt>
      <trkpt lat="44.23903" lon="7.11559">
        <ele>1832.8</ele>
        <time>2022-07-19T05:49:27Z</time>
      </trkpt>
      <trkpt lat="44.23904" lon="7.11561">
        <ele>1832.8</ele>
        <time>2022-07-19T05:49:28Z</time>
      </trkpt>
      <trkpt lat="44.23904" lon="7.11563">
        <ele>1833</ele>
        <time>2022-07-19T05:49:29Z</time>
      </trkpt>
      <trkpt lat="44.23905" lon="7.11565">
        <ele>1833</ele>
        <time>2022-07-19T05:49:30Z</time>
      </trkpt>
      <trkpt lat="44.23906" lon="7.11566">
        <ele>1833.4</ele>
        <time>2022-07-19T05:49:31Z</time>
      </trkpt>
      <trkpt lat="44.23906" lon="7.11568">
        <ele>1833.4</ele>
        <time>2022-07-19T05:49:32Z</time>
      </trkpt>
      <trkpt lat="44.23907" lon="7.11569">
        <ele>1833.4</ele>
        <time>2022-07-19T05:49:33Z</time>
      </trkpt>
      <trkpt lat="44.23908" lon="7.11571">
        <ele>1833.4</ele>
        <time>2022-07-19T05:49:34Z</time>
      </trkpt>
      <trkpt lat="44.23908" lon="7.11572">
        <ele>1833.8</ele>
        <time>2022-07-19T05:49:35Z</time>
      </trkpt>
      <trkpt lat="44.23909" lon="7.11573">
        <ele>1833.8</ele>
        <time>2022-07-19T05:49:36Z</time>
      </trkpt>
      <trkpt lat="44.2391" lon="7.11574">
        <ele>1834.2</ele>
        <time>2022-07-19T05:49:37Z</time>
      </trkpt>
      <trkpt lat="44.23911" lon="7.11574">
        <ele>1834.2</ele>
        <time>2022-07-19T05:49:38Z</time>
      </trkpt>
      <trkpt lat="44.23912" lon="7.11575">
        <ele>1834.4</ele>
        <time>2022-07-19T05:49:39Z</time>
      </trkpt>
      <trkpt lat="44.23913" lon="7.11575">
        <ele>1834.4</ele>
        <time>2022-07-19T05:49:40Z</time>
      </trkpt>
      <trkpt lat="44.23914" lon="7.11575">
        <ele>1834.6</ele>
        <time>2022-07-19T05:49:41Z</time>
      </trkpt>
      <trkpt lat="44.23915" lon="7.11575">
        <ele>1834.6</ele>
        <time>2022-07-19T05:49:42Z</time>
      </trkpt>
      <trkpt lat="44.23917" lon="7.11576">
        <ele>1835</ele>
        <time>2022-07-19T05:49:43Z</time>
      </trkpt>
      <trkpt lat="44.23918" lon="7.11577">
        <ele>1835</ele>
        <time>2022-07-19T05:49:44Z</time>
      </trkpt>
      <trkpt lat="44.23919" lon="7.11577">
        <ele>1835.2</ele>
        <time>2022-07-19T05:49:45Z</time>
      </trkpt>
      <trkpt lat="44.2392" lon="7.11578">
        <ele>1835.2</ele>
        <time>2022-07-19T05:49:46Z</time>
      </trkpt>
      <trkpt lat="44.23922" lon="7.11577">
        <ele>1835.4</ele>
        <time>2022-07-19T05:49:47Z</time>
      </trkpt>
      <trkpt lat="44.23923" lon="7.11577">
        <ele>1835.4</ele>
        <time>2022-07-19T05:49:48Z</time>
      </trkpt>
      <trkpt lat="44.23924" lon="7.11576">
        <ele>1835.8</ele>
        <time>2022-07-19T05:49:49Z</time>
      </trkpt>
      <trkpt lat="44.23925" lon="7.11575">
        <ele>1835.8</ele>
        <time>2022-07-19T05:49:50Z</time>
      </trkpt>
      <trkpt lat="44.23925" lon="7.11573">
        <ele>1836</ele>
        <time>2022-07-19T05:49:51Z</time>
      </trkpt>
      <trkpt lat="44.23926" lon="7.11572">
        <ele>1836</ele>
        <time>2022-07-19T05:49:52Z</time>
      </trkpt>
      <trkpt lat="44.23927" lon="7.11571">
        <ele>1836.2</ele>
        <time>2022-07-19T05:49:53Z</time>
      </trkpt>
      <trkpt lat="44.23929" lon="7.11571">
        <ele>1836.2</ele>
        <time>2022-07-19T05:49:54Z</time>
      </trkpt>
      <trkpt lat="44.2393" lon="7.11571">
        <ele>1836.2</ele>
        <time>2022-07-19T05:49:55Z</time>
      </trkpt>
      <trkpt lat="44.23931" lon="7.1157">
        <ele>1836.6</ele>
        <time>2022-07-19T05:49:56Z</time>
      </trkpt>
      <trkpt lat="44.23933" lon="7.1157">
        <ele>1836.6</ele>
        <time>2022-07-19T05:49:57Z</time>
      </trkpt>
      <trkpt lat="44.23934" lon="7.1157">
        <ele>1836.8</ele>
        <time>2022-07-19T05:49:58Z</time>
      </trkpt>
      <trkpt lat="44.23936" lon="7.1157">
        <ele>1836.8</ele>
        <time>2022-07-19T05:49:59Z</time>
      </trkpt>
      <trkpt lat="44.23937" lon="7.1157">
        <ele>1837.2</ele>
        <time>2022-07-19T05:50:00Z</time>
      </trkpt>
      <trkpt lat="44.23938" lon="7.1157">
        <ele>1837.2</ele>
        <time>2022-07-19T05:50:01Z</time>
      </trkpt>
      <trkpt lat="44.2394" lon="7.1157">
        <ele>1837.4</ele>
        <time>2022-07-19T05:50:02Z</time>
      </trkpt>
      <trkpt lat="44.23941" lon="7.1157">
        <ele>1837.4</ele>
        <time>2022-07-19T05:50:03Z</time>
      </trkpt>
      <trkpt lat="44.23942" lon="7.1157">
        <ele>1837.6</ele>
        <time>2022-07-19T05:50:04Z</time>
      </trkpt>
      <trkpt lat="44.23944" lon="7.11569">
        <ele>1837.6</ele>
        <time>2022-07-19T05:50:05Z</time>
      </trkpt>
      <trkpt lat="44.23946" lon="7.11569">
        <ele>1837.8</ele>
        <time>2022-07-19T05:50:06Z</time>
      </trkpt>
      <trkpt lat="44.23947" lon="7.11568">
        <ele>1837.8</ele>
        <time>2022-07-19T05:50:07Z</time>
      </trkpt>
      <trkpt lat="44.23948" lon="7.11568">
        <ele>1838.2</ele>
        <time>2022-07-19T05:50:08Z</time>
      </trkpt>
      <trkpt lat="44.23949" lon="7.11567">
        <ele>1838.2</ele>
        <time>2022-07-19T05:50:09Z</time>
      </trkpt>
      <trkpt lat="44.2395" lon="7.11567">
        <ele>1838.4</ele>
        <time>2022-07-19T05:50:10Z</time>
      </trkpt>
      <trkpt lat="44.23951" lon="7.11566">
        <ele>1838.4</ele>
        <time>2022-07-19T05:50:11Z</time>
      </trkpt>
      <trkpt lat="44.23952" lon="7.11566">
        <ele>1838.6</ele>
        <time>2022-07-19T05:50:12Z</time>
      </trkpt>
      <trkpt lat="44.23953" lon="7.11565">
        <ele>1838.6</ele>
        <time>2022-07-19T05:50:13Z</time>
      </trkpt>
      <trkpt lat="44.23954" lon="7.11565">
        <ele>1839</ele>
        <time>2022-07-19T05:50:14Z</time>
      </trkpt>
      <trkpt lat="44.23955" lon="7.11565">
        <ele>1839</ele>
        <time>2022-07-19T05:50:15Z</time>
      </trkpt>
      <trkpt lat="44.23956" lon="7.11565">
        <ele>1839.4</ele>
        <time>2022-07-19T05:50:16Z</time>
      </trkpt>
      <trkpt lat="44.23957" lon="7.11565">
        <ele>1839.4</ele>
        <time>2022-07-19T05:50:17Z</time>
      </trkpt>
      <trkpt lat="44.23959" lon="7.11565">
        <ele>1839.6</ele>
        <time>2022-07-19T05:50:18Z</time>
      </trkpt>
      <trkpt lat="44.2396" lon="7.11565">
        <ele>1839.6</ele>
        <time>2022-07-19T05:50:19Z</time>
      </trkpt>
      <trkpt lat="44.23962" lon="7.11565">
        <ele>1839.8</ele>
        <time>2022-07-19T05:50:20Z</time>
      </trkpt>
      <trkpt lat="44.23963" lon="7.11566">
        <ele>1839.8</ele>
        <time>2022-07-19T05:50:21Z</time>
      </trkpt>
      <trkpt lat="44.23964" lon="7.11566">
        <ele>1840.2</ele>
        <time>2022-07-19T05:50:22Z</time>
      </trkpt>
      <trkpt lat="44.23966" lon="7.11567">
        <ele>1840.2</ele>
        <time>2022-07-19T05:50:23Z</time>
      </trkpt>
      <trkpt lat="44.23967" lon="7.11568">
        <ele>1840.4</ele>
        <time>2022-07-19T05:50:24Z</time>
      </trkpt>
      <trkpt lat="44.23969" lon="7.11569">
        <ele>1840.4</ele>
        <time>2022-07-19T05:50:25Z</time>
      </trkpt>
      <trkpt lat="44.23971" lon="7.11569">
        <ele>1840.8</ele>
        <time>2022-07-19T05:50:26Z</time>
      </trkpt>
      <trkpt lat="44.23972" lon="7.11571">
        <ele>1840.8</ele>
        <time>2022-07-19T05:50:27Z</time>
      </trkpt>
      <trkpt lat="44.23974" lon="7.11572">
        <ele>1840.8</ele>
        <time>2022-07-19T05:50:28Z</time>
      </trkpt>
      <trkpt lat="44.23975" lon="7.11573">
        <ele>1841</ele>
        <time>2022-07-19T05:50:29Z</time>
      </trkpt>
      <trkpt lat="44.23977" lon="7.11573">
        <ele>1841</ele>
        <time>2022-07-19T05:50:30Z</time>
      </trkpt>
      <trkpt lat="44.23979" lon="7.11575">
        <ele>1841.4</ele>
        <time>2022-07-19T05:50:31Z</time>
      </trkpt>
      <trkpt lat="44.2398" lon="7.11576">
        <ele>1841.4</ele>
        <time>2022-07-19T05:50:32Z</time>
      </trkpt>
      <trkpt lat="44.23981" lon="7.11578">
        <ele>1841.6</ele>
        <time>2022-07-19T05:50:33Z</time>
      </trkpt>
      <trkpt lat="44.23982" lon="7.1158">
        <ele>1841.6</ele>
        <time>2022-07-19T05:50:34Z</time>
      </trkpt>
      <trkpt lat="44.23983" lon="7.11582">
        <ele>1842</ele>
        <time>2022-07-19T05:50:35Z</time>
      </trkpt>
      <trkpt lat="44.23985" lon="7.11583">
        <ele>1842</ele>
        <time>2022-07-19T05:50:36Z</time>
      </trkpt>
      <trkpt lat="44.23986" lon="7.11585">
        <ele>1842.2</ele>
        <time>2022-07-19T05:50:37Z</time>
      </trkpt>
      <trkpt lat="44.23987" lon="7.11586">
        <ele>1842.2</ele>
        <time>2022-07-19T05:50:38Z</time>
      </trkpt>
      <trkpt lat="44.23989" lon="7.11588">
        <ele>1842.6</ele>
        <time>2022-07-19T05:50:39Z</time>
      </trkpt>
      <trkpt lat="44.2399" lon="7.11589">
        <ele>1842.6</ele>
        <time>2022-07-19T05:50:40Z</time>
      </trkpt>
      <trkpt lat="44.23991" lon="7.11591">
        <ele>1842.8</ele>
        <time>2022-07-19T05:50:41Z</time>
      </trkpt>
      <trkpt lat="44.23992" lon="7.11592">
        <ele>1842.8</ele>
        <time>2022-07-19T05:50:42Z</time>
      </trkpt>
      <trkpt lat="44.23994" lon="7.11594">
        <ele>1843.2</ele>
        <time>2022-07-19T05:50:43Z</time>
      </trkpt>
      <trkpt lat="44.23995" lon="7.11596">
        <ele>1843.2</ele>
        <time>2022-07-19T05:50:44Z</time>
      </trkpt>
      <trkpt lat="44.23996" lon="7.11597">
        <ele>1843.6</ele>
        <time>2022-07-19T05:50:45Z</time>
      </trkpt>
      <trkpt lat="44.23997" lon="7.11599">
        <ele>1843.6</ele>
        <time>2022-07-19T05:50:46Z</time>
      </trkpt>
      <trkpt lat="44.23999" lon="7.116">
        <ele>1843.8</ele>
        <time>2022-07-19T05:50:47Z</time>
      </trkpt>
      <trkpt lat="44.24" lon="7.11602">
        <ele>1843.8</ele>
        <time>2022-07-19T05:50:48Z</time>
      </trkpt>
      <trkpt lat="44.24001" lon="7.11603">
        <ele>1844</ele>
        <time>2022-07-19T05:50:49Z</time>
      </trkpt>
      <trkpt lat="44.24002" lon="7.11605">
        <ele>1844</ele>
        <time>2022-07-19T05:50:50Z</time>
      </trkpt>
      <trkpt lat="44.24003" lon="7.11607">
        <ele>1844.2</ele>
        <time>2022-07-19T05:50:51Z</time>
      </trkpt>
      <trkpt lat="44.24004" lon="7.11608">
        <ele>1844.2</ele>
        <time>2022-07-19T05:50:52Z</time>
      </trkpt>
      <trkpt lat="44.24006" lon="7.11609">
        <ele>1844.4</ele>
        <time>2022-07-19T05:50:53Z</time>
      </trkpt>
      <trkpt lat="44.24007" lon="7.1161">
        <ele>1844.4</ele>
        <time>2022-07-19T05:50:54Z</time>
      </trkpt>
      <trkpt lat="44.24008" lon="7.11612">
        <ele>1844.8</ele>
        <time>2022-07-19T05:50:55Z</time>
      </trkpt>
      <trkpt lat="44.24009" lon="7.11613">
        <ele>1844.8</ele>
        <time>2022-07-19T05:50:56Z</time>
      </trkpt>
      <trkpt lat="44.24011" lon="7.11614">
        <ele>1845</ele>
        <time>2022-07-19T05:50:57Z</time>
      </trkpt>
      <trkpt lat="44.24012" lon="7.11615">
        <ele>1845</ele>
        <time>2022-07-19T05:50:58Z</time>
      </trkpt>
      <trkpt lat="44.24013" lon="7.11616">
        <ele>1845.4</ele>
        <time>2022-07-19T05:50:59Z</time>
      </trkpt>
      <trkpt lat="44.24014" lon="7.11618">
        <ele>1845.4</ele>
        <time>2022-07-19T05:51:00Z</time>
      </trkpt>
      <trkpt lat="44.24015" lon="7.11619">
        <ele>1845.6</ele>
        <time>2022-07-19T05:51:01Z</time>
      </trkpt>
      <trkpt lat="44.24016" lon="7.1162">
        <ele>1845.6</ele>
        <time>2022-07-19T05:51:02Z</time>
      </trkpt>
      <trkpt lat="44.24017" lon="7.11621">
        <ele>1846</ele>
        <time>2022-07-19T05:51:03Z</time>
      </trkpt>
      <trkpt lat="44.24018" lon="7.11621">
        <ele>1846</ele>
        <time>2022-07-19T05:51:04Z</time>
      </trkpt>
      <trkpt lat="44.24019" lon="7.11621">
        <ele>1846.2</ele>
        <time>2022-07-19T05:51:05Z</time>
      </trkpt>
      <trkpt lat="44.24021" lon="7.11622">
        <ele>1846.2</ele>
        <time>2022-07-19T05:51:06Z</time>
      </trkpt>
      <trkpt lat="44.24022" lon="7.11623">
        <ele>1846.4</ele>
        <time>2022-07-19T05:51:07Z</time>
      </trkpt>
      <trkpt lat="44.24023" lon="7.11624">
        <ele>1846.4</ele>
        <time>2022-07-19T05:51:08Z</time>
      </trkpt>
      <trkpt lat="44.24025" lon="7.11624">
        <ele>1846.8</ele>
        <time>2022-07-19T05:51:09Z</time>
      </trkpt>
      <trkpt lat="44.24026" lon="7.11625">
        <ele>1847</ele>
        <time>2022-07-19T05:51:10Z</time>
      </trkpt>
      <trkpt lat="44.24027" lon="7.11627">
        <ele>1847</ele>
        <time>2022-07-19T05:51:11Z</time>
      </trkpt>
      <trkpt lat="44.24029" lon="7.11629">
        <ele>1847</ele>
        <time>2022-07-19T05:51:12Z</time>
      </trkpt>
      <trkpt lat="44.2403" lon="7.1163">
        <ele>1847.2</ele>
        <time>2022-07-19T05:51:13Z</time>
      </trkpt>
      <trkpt lat="44.24031" lon="7.11631">
        <ele>1847.2</ele>
        <time>2022-07-19T05:51:14Z</time>
      </trkpt>
      <trkpt lat="44.24033" lon="7.11631">
        <ele>1847.6</ele>
        <time>2022-07-19T05:51:15Z</time>
      </trkpt>
      <trkpt lat="44.24035" lon="7.11631">
        <ele>1848</ele>
        <time>2022-07-19T05:51:16Z</time>
      </trkpt>
      <trkpt lat="44.24036" lon="7.11632">
        <ele>1848</ele>
        <time>2022-07-19T05:51:17Z</time>
      </trkpt>
      <trkpt lat="44.24037" lon="7.11633">
        <ele>1848.2</ele>
        <time>2022-07-19T05:51:18Z</time>
      </trkpt>
      <trkpt lat="44.24039" lon="7.11634">
        <ele>1848.2</ele>
        <time>2022-07-19T05:51:19Z</time>
      </trkpt>
      <trkpt lat="44.2404" lon="7.11635">
        <ele>1848.6</ele>
        <time>2022-07-19T05:51:20Z</time>
      </trkpt>
      <trkpt lat="44.24042" lon="7.11636">
        <ele>1848.6</ele>
        <time>2022-07-19T05:51:21Z</time>
      </trkpt>
      <trkpt lat="44.24043" lon="7.11636">
        <ele>1848.8</ele>
        <time>2022-07-19T05:51:22Z</time>
      </trkpt>
      <trkpt lat="44.24044" lon="7.11637">
        <ele>1849</ele>
        <time>2022-07-19T05:51:23Z</time>
      </trkpt>
      <trkpt lat="44.24046" lon="7.11637">
        <ele>1849</ele>
        <time>2022-07-19T05:51:24Z</time>
      </trkpt>
      <trkpt lat="44.24047" lon="7.11637">
        <ele>1849.2</ele>
        <time>2022-07-19T05:51:25Z</time>
      </trkpt>
      <trkpt lat="44.24048" lon="7.11637">
        <ele>1849.2</ele>
        <time>2022-07-19T05:51:26Z</time>
      </trkpt>
      <trkpt lat="44.24049" lon="7.11638">
        <ele>1849.6</ele>
        <time>2022-07-19T05:51:27Z</time>
      </trkpt>
      <trkpt lat="44.2405" lon="7.11638">
        <ele>1849.6</ele>
        <time>2022-07-19T05:51:28Z</time>
      </trkpt>
      <trkpt lat="44.24052" lon="7.11638">
        <ele>1849.8</ele>
        <time>2022-07-19T05:51:29Z</time>
      </trkpt>
      <trkpt lat="44.24053" lon="7.11639">
        <ele>1849.8</ele>
        <time>2022-07-19T05:51:30Z</time>
      </trkpt>
      <trkpt lat="44.24054" lon="7.11639">
        <ele>1850</ele>
        <time>2022-07-19T05:51:31Z</time>
      </trkpt>
      <trkpt lat="44.24055" lon="7.11641">
        <ele>1850</ele>
        <time>2022-07-19T05:51:32Z</time>
      </trkpt>
      <trkpt lat="44.24056" lon="7.11642">
        <ele>1850</ele>
        <time>2022-07-19T05:51:33Z</time>
      </trkpt>
      <trkpt lat="44.24057" lon="7.11644">
        <ele>1850</ele>
        <time>2022-07-19T05:51:34Z</time>
      </trkpt>
      <trkpt lat="44.24057" lon="7.11646">
        <ele>1850.2</ele>
        <time>2022-07-19T05:51:35Z</time>
      </trkpt>
      <trkpt lat="44.24056" lon="7.11649">
        <ele>1850.2</ele>
        <time>2022-07-19T05:51:36Z</time>
      </trkpt>
      <trkpt lat="44.24056" lon="7.11651">
        <ele>1850.2</ele>
        <time>2022-07-19T05:51:37Z</time>
      </trkpt>
      <trkpt lat="44.24055" lon="7.11653">
        <ele>1850.6</ele>
        <time>2022-07-19T05:51:38Z</time>
      </trkpt>
      <trkpt lat="44.24053" lon="7.11655">
        <ele>1850.6</ele>
        <time>2022-07-19T05:51:39Z</time>
      </trkpt>
      <trkpt lat="44.24052" lon="7.11657">
        <ele>1850.8</ele>
        <time>2022-07-19T05:51:40Z</time>
      </trkpt>
      <trkpt lat="44.2405" lon="7.11658">
        <ele>1850.8</ele>
        <time>2022-07-19T05:51:41Z</time>
      </trkpt>
      <trkpt lat="44.24049" lon="7.11659">
        <ele>1851</ele>
        <time>2022-07-19T05:51:42Z</time>
      </trkpt>
      <trkpt lat="44.24047" lon="7.11659">
        <ele>1851</ele>
        <time>2022-07-19T05:51:43Z</time>
      </trkpt>
      <trkpt lat="44.24045" lon="7.11658">
        <ele>1851</ele>
        <time>2022-07-19T05:51:44Z</time>
      </trkpt>
      <trkpt lat="44.24043" lon="7.11658">
        <ele>1851.2</ele>
        <time>2022-07-19T05:51:45Z</time>
      </trkpt>
      <trkpt lat="44.24042" lon="7.11657">
        <ele>1851.2</ele>
        <time>2022-07-19T05:51:46Z</time>
      </trkpt>
      <trkpt lat="44.2404" lon="7.11655">
        <ele>1851.2</ele>
        <time>2022-07-19T05:51:47Z</time>
      </trkpt>
      <trkpt lat="44.24039" lon="7.11654">
        <ele>1851.6</ele>
        <time>2022-07-19T05:51:48Z</time>
      </trkpt>
      <trkpt lat="44.24038" lon="7.11653">
        <ele>1851.6</ele>
        <time>2022-07-19T05:51:49Z</time>
      </trkpt>
      <trkpt lat="44.24036" lon="7.11651">
        <ele>1852</ele>
        <time>2022-07-19T05:51:50Z</time>
      </trkpt>
      <trkpt lat="44.24034" lon="7.1165">
        <ele>1852</ele>
        <time>2022-07-19T05:51:51Z</time>
      </trkpt>
      <trkpt lat="44.24033" lon="7.11649">
        <ele>1852.4</ele>
        <time>2022-07-19T05:51:52Z</time>
      </trkpt>
      <trkpt lat="44.24031" lon="7.11648">
        <ele>1852.4</ele>
        <time>2022-07-19T05:51:53Z</time>
      </trkpt>
      <trkpt lat="44.2403" lon="7.11648">
        <ele>1852.8</ele>
        <time>2022-07-19T05:51:54Z</time>
      </trkpt>
      <trkpt lat="44.24029" lon="7.11648">
        <ele>1853</ele>
        <time>2022-07-19T05:51:55Z</time>
      </trkpt>
      <trkpt lat="44.24028" lon="7.11648">
        <ele>1853</ele>
        <time>2022-07-19T05:51:56Z</time>
      </trkpt>
      <trkpt lat="44.24027" lon="7.11648">
        <ele>1853.4</ele>
        <time>2022-07-19T05:51:57Z</time>
      </trkpt>
      <trkpt lat="44.24026" lon="7.11648">
        <ele>1853.4</ele>
        <time>2022-07-19T05:51:58Z</time>
      </trkpt>
      <trkpt lat="44.24025" lon="7.11648">
        <ele>1853.6</ele>
        <time>2022-07-19T05:51:59Z</time>
      </trkpt>
      <trkpt lat="44.24023" lon="7.11648">
        <ele>1853.6</ele>
        <time>2022-07-19T05:52:00Z</time>
      </trkpt>
      <trkpt lat="44.24022" lon="7.11647">
        <ele>1854.2</ele>
        <time>2022-07-19T05:52:02Z</time>
      </trkpt>
      <trkpt lat="44.2402" lon="7.11647">
        <ele>1854.2</ele>
        <time>2022-07-19T05:52:03Z</time>
      </trkpt>
      <trkpt lat="44.24019" lon="7.11646">
        <ele>1854.4</ele>
        <time>2022-07-19T05:52:04Z</time>
      </trkpt>
      <trkpt lat="44.24017" lon="7.11646">
        <ele>1854.4</ele>
        <time>2022-07-19T05:52:05Z</time>
      </trkpt>
      <trkpt lat="44.24016" lon="7.11645">
        <ele>1854.4</ele>
        <time>2022-07-19T05:52:06Z</time>
      </trkpt>
      <trkpt lat="44.24014" lon="7.11644">
        <ele>1854.8</ele>
        <time>2022-07-19T05:52:07Z</time>
      </trkpt>
      <trkpt lat="44.24013" lon="7.11644">
        <ele>1854.8</ele>
        <time>2022-07-19T05:52:08Z</time>
      </trkpt>
      <trkpt lat="44.24011" lon="7.11643">
        <ele>1855</ele>
        <time>2022-07-19T05:52:09Z</time>
      </trkpt>
      <trkpt lat="44.2401" lon="7.11643">
        <ele>1855</ele>
        <time>2022-07-19T05:52:10Z</time>
      </trkpt>
      <trkpt lat="44.24009" lon="7.11644">
        <ele>1855.2</ele>
        <time>2022-07-19T05:52:11Z</time>
      </trkpt>
      <trkpt lat="44.24008" lon="7.11644">
        <ele>1855.2</ele>
        <time>2022-07-19T05:52:12Z</time>
      </trkpt>
      <trkpt lat="44.24007" lon="7.11643">
        <ele>1855.4</ele>
        <time>2022-07-19T05:52:13Z</time>
      </trkpt>
      <trkpt lat="44.24006" lon="7.11643">
        <ele>1855.4</ele>
        <time>2022-07-19T05:52:14Z</time>
      </trkpt>
      <trkpt lat="44.24004" lon="7.11642">
        <ele>1855.8</ele>
        <time>2022-07-19T05:52:15Z</time>
      </trkpt>
      <trkpt lat="44.24003" lon="7.11641">
        <ele>1855.8</ele>
        <time>2022-07-19T05:52:16Z</time>
      </trkpt>
      <trkpt lat="44.24002" lon="7.1164">
        <ele>1856.2</ele>
        <time>2022-07-19T05:52:17Z</time>
      </trkpt>
      <trkpt lat="44.24" lon="7.1164">
        <ele>1856.2</ele>
        <time>2022-07-19T05:52:18Z</time>
      </trkpt>
      <trkpt lat="44.23999" lon="7.1164">
        <ele>1856.4</ele>
        <time>2022-07-19T05:52:19Z</time>
      </trkpt>
      <trkpt lat="44.23997" lon="7.1164">
        <ele>1856.4</ele>
        <time>2022-07-19T05:52:20Z</time>
      </trkpt>
      <trkpt lat="44.23996" lon="7.11639">
        <ele>1856.6</ele>
        <time>2022-07-19T05:52:21Z</time>
      </trkpt>
      <trkpt lat="44.23995" lon="7.11639">
        <ele>1856.6</ele>
        <time>2022-07-19T05:52:22Z</time>
      </trkpt>
      <trkpt lat="44.23994" lon="7.11638">
        <ele>1856.6</ele>
        <time>2022-07-19T05:52:23Z</time>
      </trkpt>
      <trkpt lat="44.23993" lon="7.11637">
        <ele>1856.8</ele>
        <time>2022-07-19T05:52:24Z</time>
      </trkpt>
      <trkpt lat="44.23992" lon="7.11636">
        <ele>1856.8</ele>
        <time>2022-07-19T05:52:25Z</time>
      </trkpt>
      <trkpt lat="44.2399" lon="7.11636">
        <ele>1856.8</ele>
        <time>2022-07-19T05:52:26Z</time>
      </trkpt>
      <trkpt lat="44.23989" lon="7.11637">
        <ele>1857</ele>
        <time>2022-07-19T05:52:27Z</time>
      </trkpt>
      <trkpt lat="44.23987" lon="7.11637">
        <ele>1857</ele>
        <time>2022-07-19T05:52:28Z</time>
      </trkpt>
      <trkpt lat="44.23986" lon="7.11636">
        <ele>1857.4</ele>
        <time>2022-07-19T05:52:29Z</time>
      </trkpt>
      <trkpt lat="44.23985" lon="7.11635">
        <ele>1857.4</ele>
        <time>2022-07-19T05:52:30Z</time>
      </trkpt>
      <trkpt lat="44.23984" lon="7.11634">
        <ele>1857.6</ele>
        <time>2022-07-19T05:52:31Z</time>
      </trkpt>
      <trkpt lat="44.23983" lon="7.11633">
        <ele>1857.6</ele>
        <time>2022-07-19T05:52:32Z</time>
      </trkpt>
      <trkpt lat="44.23982" lon="7.11633">
        <ele>1858</ele>
        <time>2022-07-19T05:52:33Z</time>
      </trkpt>
      <trkpt lat="44.2398" lon="7.11632">
        <ele>1858</ele>
        <time>2022-07-19T05:52:34Z</time>
      </trkpt>
      <trkpt lat="44.23979" lon="7.11631">
        <ele>1858.2</ele>
        <time>2022-07-19T05:52:35Z</time>
      </trkpt>
      <trkpt lat="44.23978" lon="7.11631">
        <ele>1858.2</ele>
        <time>2022-07-19T05:52:36Z</time>
      </trkpt>
      <trkpt lat="44.23976" lon="7.1163">
        <ele>1858.6</ele>
        <time>2022-07-19T05:52:37Z</time>
      </trkpt>
      <trkpt lat="44.23975" lon="7.11629">
        <ele>1858.6</ele>
        <time>2022-07-19T05:52:38Z</time>
      </trkpt>
      <trkpt lat="44.23973" lon="7.11628">
        <ele>1858.8</ele>
        <time>2022-07-19T05:52:39Z</time>
      </trkpt>
      <trkpt lat="44.23972" lon="7.11627">
        <ele>1859</ele>
        <time>2022-07-19T05:52:40Z</time>
      </trkpt>
      <trkpt lat="44.2397" lon="7.11627">
        <ele>1859</ele>
        <time>2022-07-19T05:52:41Z</time>
      </trkpt>
      <trkpt lat="44.23969" lon="7.11627">
        <ele>1859.4</ele>
        <time>2022-07-19T05:52:42Z</time>
      </trkpt>
      <trkpt lat="44.23968" lon="7.11626">
        <ele>1859.4</ele>
        <time>2022-07-19T05:52:43Z</time>
      </trkpt>
      <trkpt lat="44.23967" lon="7.11626">
        <ele>1859.6</ele>
        <time>2022-07-19T05:52:44Z</time>
      </trkpt>
      <trkpt lat="44.23965" lon="7.11625">
        <ele>1859.6</ele>
        <time>2022-07-19T05:52:45Z</time>
      </trkpt>
      <trkpt lat="44.23964" lon="7.11625">
        <ele>1860</ele>
        <time>2022-07-19T05:52:46Z</time>
      </trkpt>
      <trkpt lat="44.23962" lon="7.11625">
        <ele>1860</ele>
        <time>2022-07-19T05:52:47Z</time>
      </trkpt>
      <trkpt lat="44.2396" lon="7.11625">
        <ele>1860.2</ele>
        <time>2022-07-19T05:52:48Z</time>
      </trkpt>
      <trkpt lat="44.23959" lon="7.11625">
        <ele>1860.4</ele>
        <time>2022-07-19T05:52:49Z</time>
      </trkpt>
      <trkpt lat="44.23958" lon="7.11624">
        <ele>1860.4</ele>
        <time>2022-07-19T05:52:50Z</time>
      </trkpt>
      <trkpt lat="44.23956" lon="7.11624">
        <ele>1860.4</ele>
        <time>2022-07-19T05:52:51Z</time>
      </trkpt>
      <trkpt lat="44.23955" lon="7.11625">
        <ele>1860.6</ele>
        <time>2022-07-19T05:52:52Z</time>
      </trkpt>
      <trkpt lat="44.23953" lon="7.11625">
        <ele>1860.6</ele>
        <time>2022-07-19T05:52:53Z</time>
      </trkpt>
      <trkpt lat="44.23952" lon="7.11626">
        <ele>1861</ele>
        <time>2022-07-19T05:52:54Z</time>
      </trkpt>
      <trkpt lat="44.2395" lon="7.11626">
        <ele>1861</ele>
        <time>2022-07-19T05:52:55Z</time>
      </trkpt>
      <trkpt lat="44.23949" lon="7.11626">
        <ele>1861.2</ele>
        <time>2022-07-19T05:52:56Z</time>
      </trkpt>
      <trkpt lat="44.23947" lon="7.11627">
        <ele>1861.2</ele>
        <time>2022-07-19T05:52:57Z</time>
      </trkpt>
      <trkpt lat="44.23946" lon="7.11627">
        <ele>1861.4</ele>
        <time>2022-07-19T05:52:58Z</time>
      </trkpt>
      <trkpt lat="44.23944" lon="7.11628">
        <ele>1861.4</ele>
        <time>2022-07-19T05:52:59Z</time>
      </trkpt>
      <trkpt lat="44.23943" lon="7.11629">
        <ele>1861.8</ele>
        <time>2022-07-19T05:53:00Z</time>
      </trkpt>
      <trkpt lat="44.23942" lon="7.11631">
        <ele>1861.8</ele>
        <time>2022-07-19T05:53:01Z</time>
      </trkpt>
      <trkpt lat="44.23941" lon="7.11632">
        <ele>1862.2</ele>
        <time>2022-07-19T05:53:02Z</time>
      </trkpt>
      <trkpt lat="44.2394" lon="7.11633">
        <ele>1862.2</ele>
        <time>2022-07-19T05:53:03Z</time>
      </trkpt>
      <trkpt lat="44.23939" lon="7.11634">
        <ele>1862.4</ele>
        <time>2022-07-19T05:53:04Z</time>
      </trkpt>
      <trkpt lat="44.23937" lon="7.11636">
        <ele>1862.4</ele>
        <time>2022-07-19T05:53:05Z</time>
      </trkpt>
      <trkpt lat="44.23936" lon="7.11637">
        <ele>1862.8</ele>
        <time>2022-07-19T05:53:06Z</time>
      </trkpt>
      <trkpt lat="44.23935" lon="7.11637">
        <ele>1862.8</ele>
        <time>2022-07-19T05:53:07Z</time>
      </trkpt>
      <trkpt lat="44.23934" lon="7.11638">
        <ele>1863</ele>
        <time>2022-07-19T05:53:08Z</time>
      </trkpt>
      <trkpt lat="44.23933" lon="7.11639">
        <ele>1863</ele>
        <time>2022-07-19T05:53:09Z</time>
      </trkpt>
      <trkpt lat="44.23932" lon="7.1164">
        <ele>1863.4</ele>
        <time>2022-07-19T05:53:10Z</time>
      </trkpt>
      <trkpt lat="44.23931" lon="7.11641">
        <ele>1863.4</ele>
        <time>2022-07-19T05:53:11Z</time>
      </trkpt>
      <trkpt lat="44.2393" lon="7.11643">
        <ele>1863.8</ele>
        <time>2022-07-19T05:53:12Z</time>
      </trkpt>
      <trkpt lat="44.23929" lon="7.11644">
        <ele>1863.8</ele>
        <time>2022-07-19T05:53:13Z</time>
      </trkpt>
      <trkpt lat="44.23928" lon="7.11645">
        <ele>1864</ele>
        <time>2022-07-19T05:53:14Z</time>
      </trkpt>
      <trkpt lat="44.23927" lon="7.11646">
        <ele>1864</ele>
        <time>2022-07-19T05:53:15Z</time>
      </trkpt>
      <trkpt lat="44.23927" lon="7.11646">
        <ele>1864.4</ele>
        <time>2022-07-19T05:53:16Z</time>
      </trkpt>
      <trkpt lat="44.23925" lon="7.11647">
        <ele>1864.4</ele>
        <time>2022-07-19T05:53:17Z</time>
      </trkpt>
      <trkpt lat="44.23924" lon="7.11647">
        <ele>1864.4</ele>
        <time>2022-07-19T05:53:18Z</time>
      </trkpt>
      <trkpt lat="44.23922" lon="7.11647">
        <ele>1864.6</ele>
        <time>2022-07-19T05:53:19Z</time>
      </trkpt>
      <trkpt lat="44.23921" lon="7.11647">
        <ele>1864.6</ele>
        <time>2022-07-19T05:53:20Z</time>
      </trkpt>
      <trkpt lat="44.2392" lon="7.11647">
        <ele>1864.8</ele>
        <time>2022-07-19T05:53:21Z</time>
      </trkpt>
      <trkpt lat="44.23918" lon="7.11648">
        <ele>1864.8</ele>
        <time>2022-07-19T05:53:22Z</time>
      </trkpt>
      <trkpt lat="44.23917" lon="7.11648">
        <ele>1865.2</ele>
        <time>2022-07-19T05:53:23Z</time>
      </trkpt>
      <trkpt lat="44.23916" lon="7.11649">
        <ele>1865.2</ele>
        <time>2022-07-19T05:53:24Z</time>
      </trkpt>
      <trkpt lat="44.23914" lon="7.11649">
        <ele>1865.4</ele>
        <time>2022-07-19T05:53:25Z</time>
      </trkpt>
      <trkpt lat="44.23913" lon="7.1165">
        <ele>1865.4</ele>
        <time>2022-07-19T05:53:26Z</time>
      </trkpt>
      <trkpt lat="44.23912" lon="7.11651">
        <ele>1865.8</ele>
        <time>2022-07-19T05:53:27Z</time>
      </trkpt>
      <trkpt lat="44.2391" lon="7.11651">
        <ele>1865.8</ele>
        <time>2022-07-19T05:53:28Z</time>
      </trkpt>
      <trkpt lat="44.23909" lon="7.11652">
        <ele>1866</ele>
        <time>2022-07-19T05:53:29Z</time>
      </trkpt>
      <trkpt lat="44.23908" lon="7.11652">
        <ele>1866</ele>
        <time>2022-07-19T05:53:30Z</time>
      </trkpt>
      <trkpt lat="44.23906" lon="7.11653">
        <ele>1866.2</ele>
        <time>2022-07-19T05:53:31Z</time>
      </trkpt>
      <trkpt lat="44.23904" lon="7.11653">
        <ele>1866.2</ele>
        <time>2022-07-19T05:53:32Z</time>
      </trkpt>
      <trkpt lat="44.23903" lon="7.11653">
        <ele>1866.2</ele>
        <time>2022-07-19T05:53:33Z</time>
      </trkpt>
      <trkpt lat="44.23902" lon="7.11652">
        <ele>1866.6</ele>
        <time>2022-07-19T05:53:34Z</time>
      </trkpt>
      <trkpt lat="44.23901" lon="7.11652">
        <ele>1866.6</ele>
        <time>2022-07-19T05:53:35Z</time>
      </trkpt>
      <trkpt lat="44.23899" lon="7.11651">
        <ele>1866.8</ele>
        <time>2022-07-19T05:53:36Z</time>
      </trkpt>
      <trkpt lat="44.23898" lon="7.11651">
        <ele>1866.8</ele>
        <time>2022-07-19T05:53:37Z</time>
      </trkpt>
      <trkpt lat="44.23896" lon="7.1165">
        <ele>1867</ele>
        <time>2022-07-19T05:53:38Z</time>
      </trkpt>
      <trkpt lat="44.23893" lon="7.1165">
        <ele>1867</ele>
        <time>2022-07-19T05:53:39Z</time>
      </trkpt>
      <trkpt lat="44.23892" lon="7.1165">
        <ele>1867.4</ele>
        <time>2022-07-19T05:53:40Z</time>
      </trkpt>
      <trkpt lat="44.2389" lon="7.11651">
        <ele>1867.4</ele>
        <time>2022-07-19T05:53:41Z</time>
      </trkpt>
      <trkpt lat="44.23889" lon="7.11651">
        <ele>1867.6</ele>
        <time>2022-07-19T05:53:42Z</time>
      </trkpt>
      <trkpt lat="44.23888" lon="7.1165">
        <ele>1867.6</ele>
        <time>2022-07-19T05:53:43Z</time>
      </trkpt>
      <trkpt lat="44.23886" lon="7.11649">
        <ele>1867.8</ele>
        <time>2022-07-19T05:53:44Z</time>
      </trkpt>
      <trkpt lat="44.23884" lon="7.11647">
        <ele>1867.8</ele>
        <time>2022-07-19T05:53:45Z</time>
      </trkpt>
      <trkpt lat="44.23883" lon="7.11646">
        <ele>1868</ele>
        <time>2022-07-19T05:53:46Z</time>
      </trkpt>
      <trkpt lat="44.23882" lon="7.11644">
        <ele>1868</ele>
        <time>2022-07-19T05:53:47Z</time>
      </trkpt>
      <trkpt lat="44.23881" lon="7.11641">
        <ele>1868.4</ele>
        <time>2022-07-19T05:53:48Z</time>
      </trkpt>
      <trkpt lat="44.2388" lon="7.11639">
        <ele>1868.4</ele>
        <time>2022-07-19T05:53:49Z</time>
      </trkpt>
      <trkpt lat="44.23879" lon="7.11638">
        <ele>1868.6</ele>
        <time>2022-07-19T05:53:50Z</time>
      </trkpt>
      <trkpt lat="44.23877" lon="7.11636">
        <ele>1868.6</ele>
        <time>2022-07-19T05:53:51Z</time>
      </trkpt>
      <trkpt lat="44.23876" lon="7.11635">
        <ele>1868.6</ele>
        <time>2022-07-19T05:53:52Z</time>
      </trkpt>
      <trkpt lat="44.23875" lon="7.11634">
        <ele>1869</ele>
        <time>2022-07-19T05:53:53Z</time>
      </trkpt>
      <trkpt lat="44.23874" lon="7.11633">
        <ele>1869</ele>
        <time>2022-07-19T05:53:54Z</time>
      </trkpt>
      <trkpt lat="44.23873" lon="7.11632">
        <ele>1869.2</ele>
        <time>2022-07-19T05:53:55Z</time>
      </trkpt>
      <trkpt lat="44.23872" lon="7.11631">
        <ele>1869.2</ele>
        <time>2022-07-19T05:53:56Z</time>
      </trkpt>
      <trkpt lat="44.23871" lon="7.11629">
        <ele>1869.2</ele>
        <time>2022-07-19T05:53:57Z</time>
      </trkpt>
      <trkpt lat="44.2387" lon="7.11628">
        <ele>1869.4</ele>
        <time>2022-07-19T05:53:58Z</time>
      </trkpt>
      <trkpt lat="44.23869" lon="7.11627">
        <ele>1869.6</ele>
        <time>2022-07-19T05:53:59Z</time>
      </trkpt>
      <trkpt lat="44.23868" lon="7.11626">
        <ele>1869.8</ele>
        <time>2022-07-19T05:54:00Z</time>
      </trkpt>
      <trkpt lat="44.23867" lon="7.11624">
        <ele>1869.8</ele>
        <time>2022-07-19T05:54:01Z</time>
      </trkpt>
      <trkpt lat="44.23865" lon="7.11622">
        <ele>1870.2</ele>
        <time>2022-07-19T05:54:02Z</time>
      </trkpt>
      <trkpt lat="44.23864" lon="7.1162">
        <ele>1870.2</ele>
        <time>2022-07-19T05:54:03Z</time>
      </trkpt>
      <trkpt lat="44.23863" lon="7.11619">
        <ele>1870.4</ele>
        <time>2022-07-19T05:54:04Z</time>
      </trkpt>
      <trkpt lat="44.23862" lon="7.11618">
        <ele>1870.4</ele>
        <time>2022-07-19T05:54:05Z</time>
      </trkpt>
      <trkpt lat="44.23861" lon="7.11617">
        <ele>1870.6</ele>
        <time>2022-07-19T05:54:06Z</time>
      </trkpt>
      <trkpt lat="44.23858" lon="7.11616">
        <ele>1870.6</ele>
        <time>2022-07-19T05:54:07Z</time>
      </trkpt>
      <trkpt lat="44.23857" lon="7.11615">
        <ele>1871</ele>
        <time>2022-07-19T05:54:08Z</time>
      </trkpt>
      <trkpt lat="44.23856" lon="7.11615">
        <ele>1871</ele>
        <time>2022-07-19T05:54:09Z</time>
      </trkpt>
      <trkpt lat="44.23854" lon="7.11614">
        <ele>1871.2</ele>
        <time>2022-07-19T05:54:10Z</time>
      </trkpt>
      <trkpt lat="44.23853" lon="7.11613">
        <ele>1871.2</ele>
        <time>2022-07-19T05:54:11Z</time>
      </trkpt>
      <trkpt lat="44.23851" lon="7.11612">
        <ele>1871.4</ele>
        <time>2022-07-19T05:54:12Z</time>
      </trkpt>
      <trkpt lat="44.2385" lon="7.11611">
        <ele>1871.4</ele>
        <time>2022-07-19T05:54:13Z</time>
      </trkpt>
      <trkpt lat="44.23849" lon="7.1161">
        <ele>1871.8</ele>
        <time>2022-07-19T05:54:14Z</time>
      </trkpt>
      <trkpt lat="44.23847" lon="7.1161">
        <ele>1871.8</ele>
        <time>2022-07-19T05:54:15Z</time>
      </trkpt>
      <trkpt lat="44.23846" lon="7.11609">
        <ele>1872</ele>
        <time>2022-07-19T05:54:16Z</time>
      </trkpt>
      <trkpt lat="44.23844" lon="7.11609">
        <ele>1872.2</ele>
        <time>2022-07-19T05:54:17Z</time>
      </trkpt>
      <trkpt lat="44.23843" lon="7.11608">
        <ele>1872.4</ele>
        <time>2022-07-19T05:54:18Z</time>
      </trkpt>
      <trkpt lat="44.23842" lon="7.11607">
        <ele>1872.4</ele>
        <time>2022-07-19T05:54:19Z</time>
      </trkpt>
      <trkpt lat="44.23841" lon="7.11607">
        <ele>1872.8</ele>
        <time>2022-07-19T05:54:20Z</time>
      </trkpt>
      <trkpt lat="44.23839" lon="7.11606">
        <ele>1872.8</ele>
        <time>2022-07-19T05:54:21Z</time>
      </trkpt>
      <trkpt lat="44.23838" lon="7.11606">
        <ele>1872.8</ele>
        <time>2022-07-19T05:54:22Z</time>
      </trkpt>
      <trkpt lat="44.23837" lon="7.11606">
        <ele>1873</ele>
        <time>2022-07-19T05:54:23Z</time>
      </trkpt>
      <trkpt lat="44.23835" lon="7.11606">
        <ele>1873</ele>
        <time>2022-07-19T05:54:24Z</time>
      </trkpt>
      <trkpt lat="44.23834" lon="7.11606">
        <ele>1873.4</ele>
        <time>2022-07-19T05:54:25Z</time>
      </trkpt>
      <trkpt lat="44.23833" lon="7.11606">
        <ele>1873.4</ele>
        <time>2022-07-19T05:54:26Z</time>
      </trkpt>
      <trkpt lat="44.23831" lon="7.11606">
        <ele>1873.4</ele>
        <time>2022-07-19T05:54:27Z</time>
      </trkpt>
      <trkpt lat="44.23829" lon="7.11606">
        <ele>1873.6</ele>
        <time>2022-07-19T05:54:28Z</time>
      </trkpt>
      <trkpt lat="44.23828" lon="7.11606">
        <ele>1873.6</ele>
        <time>2022-07-19T05:54:29Z</time>
      </trkpt>
      <trkpt lat="44.23827" lon="7.11607">
        <ele>1873.6</ele>
        <time>2022-07-19T05:54:30Z</time>
      </trkpt>
      <trkpt lat="44.23826" lon="7.11607">
        <ele>1874</ele>
        <time>2022-07-19T05:54:31Z</time>
      </trkpt>
      <trkpt lat="44.23825" lon="7.11607">
        <ele>1874</ele>
        <time>2022-07-19T05:54:32Z</time>
      </trkpt>
      <trkpt lat="44.23823" lon="7.11607">
        <ele>1874.4</ele>
        <time>2022-07-19T05:54:33Z</time>
      </trkpt>
      <trkpt lat="44.23822" lon="7.11606">
        <ele>1874.4</ele>
        <time>2022-07-19T05:54:34Z</time>
      </trkpt>
      <trkpt lat="44.2382" lon="7.11606">
        <ele>1874.6</ele>
        <time>2022-07-19T05:54:35Z</time>
      </trkpt>
      <trkpt lat="44.23819" lon="7.11604">
        <ele>1874.6</ele>
        <time>2022-07-19T05:54:36Z</time>
      </trkpt>
      <trkpt lat="44.23818" lon="7.11604">
        <ele>1874.8</ele>
        <time>2022-07-19T05:54:37Z</time>
      </trkpt>
      <trkpt lat="44.23816" lon="7.11603">
        <ele>1874.8</ele>
        <time>2022-07-19T05:54:38Z</time>
      </trkpt>
      <trkpt lat="44.23815" lon="7.11602">
        <ele>1875.2</ele>
        <time>2022-07-19T05:54:39Z</time>
      </trkpt>
      <trkpt lat="44.23813" lon="7.11601">
        <ele>1875.4</ele>
        <time>2022-07-19T05:54:40Z</time>
      </trkpt>
      <trkpt lat="44.23812" lon="7.116">
        <ele>1875.4</ele>
        <time>2022-07-19T05:54:41Z</time>
      </trkpt>
      <trkpt lat="44.23811" lon="7.11598">
        <ele>1875.8</ele>
        <time>2022-07-19T05:54:42Z</time>
      </trkpt>
      <trkpt lat="44.23809" lon="7.11597">
        <ele>1875.8</ele>
        <time>2022-07-19T05:54:43Z</time>
      </trkpt>
      <trkpt lat="44.23808" lon="7.11596">
        <ele>1875.8</ele>
        <time>2022-07-19T05:54:44Z</time>
      </trkpt>
      <trkpt lat="44.23807" lon="7.11596">
        <ele>1876</ele>
        <time>2022-07-19T05:54:45Z</time>
      </trkpt>
      <trkpt lat="44.23806" lon="7.11595">
        <ele>1876</ele>
        <time>2022-07-19T05:54:46Z</time>
      </trkpt>
      <trkpt lat="44.23804" lon="7.11595">
        <ele>1876</ele>
        <time>2022-07-19T05:54:47Z</time>
      </trkpt>
      <trkpt lat="44.23803" lon="7.11594">
        <ele>1876.4</ele>
        <time>2022-07-19T05:54:48Z</time>
      </trkpt>
      <trkpt lat="44.23802" lon="7.11593">
        <ele>1876.6</ele>
        <time>2022-07-19T05:54:49Z</time>
      </trkpt>
      <trkpt lat="44.23801" lon="7.11592">
        <ele>1876.6</ele>
        <time>2022-07-19T05:54:50Z</time>
      </trkpt>
      <trkpt lat="44.23799" lon="7.11591">
        <ele>1876.8</ele>
        <time>2022-07-19T05:54:51Z</time>
      </trkpt>
      <trkpt lat="44.23798" lon="7.1159">
        <ele>1876.8</ele>
        <time>2022-07-19T05:54:52Z</time>
      </trkpt>
      <trkpt lat="44.23797" lon="7.11589">
        <ele>1877.2</ele>
        <time>2022-07-19T05:54:53Z</time>
      </trkpt>
      <trkpt lat="44.23796" lon="7.11589">
        <ele>1877.2</ele>
        <time>2022-07-19T05:54:54Z</time>
      </trkpt>
      <trkpt lat="44.23794" lon="7.11588">
        <ele>1877.4</ele>
        <time>2022-07-19T05:54:55Z</time>
      </trkpt>
      <trkpt lat="44.23793" lon="7.11588">
        <ele>1877.4</ele>
        <time>2022-07-19T05:54:56Z</time>
      </trkpt>
      <trkpt lat="44.23792" lon="7.11587">
        <ele>1877.6</ele>
        <time>2022-07-19T05:54:57Z</time>
      </trkpt>
      <trkpt lat="44.23791" lon="7.11587">
        <ele>1877.6</ele>
        <time>2022-07-19T05:54:58Z</time>
      </trkpt>
      <trkpt lat="44.23789" lon="7.11586">
        <ele>1878</ele>
        <time>2022-07-19T05:54:59Z</time>
      </trkpt>
      <trkpt lat="44.23788" lon="7.11586">
        <ele>1878</ele>
        <time>2022-07-19T05:55:00Z</time>
      </trkpt>
      <trkpt lat="44.23786" lon="7.11585">
        <ele>1878.2</ele>
        <time>2022-07-19T05:55:01Z</time>
      </trkpt>
      <trkpt lat="44.23785" lon="7.11584">
        <ele>1878.2</ele>
        <time>2022-07-19T05:55:02Z</time>
      </trkpt>
      <trkpt lat="44.23784" lon="7.11583">
        <ele>1878.8</ele>
        <time>2022-07-19T05:55:03Z</time>
      </trkpt>
      <trkpt lat="44.23782" lon="7.11582">
        <ele>1879</ele>
        <time>2022-07-19T05:55:04Z</time>
      </trkpt>
      <trkpt lat="44.23781" lon="7.11582">
        <ele>1879</ele>
        <time>2022-07-19T05:55:05Z</time>
      </trkpt>
      <trkpt lat="44.2378" lon="7.11581">
        <ele>1879.2</ele>
        <time>2022-07-19T05:55:06Z</time>
      </trkpt>
      <trkpt lat="44.23779" lon="7.11581">
        <ele>1879.2</ele>
        <time>2022-07-19T05:55:07Z</time>
      </trkpt>
      <trkpt lat="44.23777" lon="7.11579">
        <ele>1879.2</ele>
        <time>2022-07-19T05:55:08Z</time>
      </trkpt>
      <trkpt lat="44.23776" lon="7.11578">
        <ele>1879.6</ele>
        <time>2022-07-19T05:55:09Z</time>
      </trkpt>
      <trkpt lat="44.23775" lon="7.11576">
        <ele>1879.6</ele>
        <time>2022-07-19T05:55:10Z</time>
      </trkpt>
      <trkpt lat="44.23774" lon="7.11575">
        <ele>1879.8</ele>
        <time>2022-07-19T05:55:11Z</time>
      </trkpt>
      <trkpt lat="44.23773" lon="7.11573">
        <ele>1879.8</ele>
        <time>2022-07-19T05:55:12Z</time>
      </trkpt>
      <trkpt lat="44.23771" lon="7.11571">
        <ele>1880.2</ele>
        <time>2022-07-19T05:55:13Z</time>
      </trkpt>
      <trkpt lat="44.2377" lon="7.11569">
        <ele>1880.2</ele>
        <time>2022-07-19T05:55:14Z</time>
      </trkpt>
      <trkpt lat="44.2377" lon="7.11568">
        <ele>1880.4</ele>
        <time>2022-07-19T05:55:15Z</time>
      </trkpt>
      <trkpt lat="44.23769" lon="7.11565">
        <ele>1880.4</ele>
        <time>2022-07-19T05:55:16Z</time>
      </trkpt>
      <trkpt lat="44.23769" lon="7.11563">
        <ele>1880.6</ele>
        <time>2022-07-19T05:55:17Z</time>
      </trkpt>
      <trkpt lat="44.23768" lon="7.11561">
        <ele>1880.6</ele>
        <time>2022-07-19T05:55:18Z</time>
      </trkpt>
      <trkpt lat="44.23768" lon="7.11559">
        <ele>1881</ele>
        <time>2022-07-19T05:55:19Z</time>
      </trkpt>
      <trkpt lat="44.23767" lon="7.11557">
        <ele>1881</ele>
        <time>2022-07-19T05:55:20Z</time>
      </trkpt>
      <trkpt lat="44.23767" lon="7.11556">
        <ele>1881.4</ele>
        <time>2022-07-19T05:55:21Z</time>
      </trkpt>
      <trkpt lat="44.23766" lon="7.11554">
        <ele>1881.4</ele>
        <time>2022-07-19T05:55:22Z</time>
      </trkpt>
      <trkpt lat="44.23766" lon="7.11553">
        <ele>1881.6</ele>
        <time>2022-07-19T05:55:23Z</time>
      </trkpt>
      <trkpt lat="44.23765" lon="7.11551">
        <ele>1881.8</ele>
        <time>2022-07-19T05:55:24Z</time>
      </trkpt>
      <trkpt lat="44.23765" lon="7.11549">
        <ele>1882</ele>
        <time>2022-07-19T05:55:25Z</time>
      </trkpt>
      <trkpt lat="44.23765" lon="7.11547">
        <ele>1882</ele>
        <time>2022-07-19T05:55:26Z</time>
      </trkpt>
      <trkpt lat="44.23765" lon="7.11546">
        <ele>1882.4</ele>
        <time>2022-07-19T05:55:27Z</time>
      </trkpt>
      <trkpt lat="44.23765" lon="7.11545">
        <ele>1882.6</ele>
        <time>2022-07-19T05:55:28Z</time>
      </trkpt>
      <trkpt lat="44.23764" lon="7.11543">
        <ele>1882.6</ele>
        <time>2022-07-19T05:55:29Z</time>
      </trkpt>
      <trkpt lat="44.23764" lon="7.11541">
        <ele>1882.8</ele>
        <time>2022-07-19T05:55:30Z</time>
      </trkpt>
      <trkpt lat="44.23764" lon="7.11539">
        <ele>1883</ele>
        <time>2022-07-19T05:55:31Z</time>
      </trkpt>
      <trkpt lat="44.23763" lon="7.11537">
        <ele>1883</ele>
        <time>2022-07-19T05:55:32Z</time>
      </trkpt>
      <trkpt lat="44.23763" lon="7.11535">
        <ele>1883.2</ele>
        <time>2022-07-19T05:55:33Z</time>
      </trkpt>
      <trkpt lat="44.23763" lon="7.11533">
        <ele>1883.2</ele>
        <time>2022-07-19T05:55:34Z</time>
      </trkpt>
      <trkpt lat="44.23763" lon="7.11531">
        <ele>1883.6</ele>
        <time>2022-07-19T05:55:35Z</time>
      </trkpt>
      <trkpt lat="44.23762" lon="7.11529">
        <ele>1883.6</ele>
        <time>2022-07-19T05:55:36Z</time>
      </trkpt>
      <trkpt lat="44.23762" lon="7.11527">
        <ele>1883.8</ele>
        <time>2022-07-19T05:55:37Z</time>
      </trkpt>
      <trkpt lat="44.23762" lon="7.11525">
        <ele>1883.8</ele>
        <time>2022-07-19T05:55:38Z</time>
      </trkpt>
      <trkpt lat="44.23761" lon="7.11524">
        <ele>1883.8</ele>
        <time>2022-07-19T05:55:39Z</time>
      </trkpt>
      <trkpt lat="44.23759" lon="7.11523">
        <ele>1883.8</ele>
        <time>2022-07-19T05:55:40Z</time>
      </trkpt>
      <trkpt lat="44.23758" lon="7.11522">
        <ele>1884</ele>
        <time>2022-07-19T05:55:41Z</time>
      </trkpt>
      <trkpt lat="44.23757" lon="7.11521">
        <ele>1884</ele>
        <time>2022-07-19T05:55:42Z</time>
      </trkpt>
      <trkpt lat="44.23755" lon="7.1152">
        <ele>1884.4</ele>
        <time>2022-07-19T05:55:43Z</time>
      </trkpt>
      <trkpt lat="44.23754" lon="7.1152">
        <ele>1884.4</ele>
        <time>2022-07-19T05:55:44Z</time>
      </trkpt>
      <trkpt lat="44.23752" lon="7.11521">
        <ele>1884.6</ele>
        <time>2022-07-19T05:55:45Z</time>
      </trkpt>
      <trkpt lat="44.23751" lon="7.11523">
        <ele>1884.6</ele>
        <time>2022-07-19T05:55:46Z</time>
      </trkpt>
      <trkpt lat="44.2375" lon="7.11525">
        <ele>1884.8</ele>
        <time>2022-07-19T05:55:47Z</time>
      </trkpt>
      <trkpt lat="44.23749" lon="7.11527">
        <ele>1884.8</ele>
        <time>2022-07-19T05:55:48Z</time>
      </trkpt>
      <trkpt lat="44.23749" lon="7.1153">
        <ele>1884.8</ele>
        <time>2022-07-19T05:55:49Z</time>
      </trkpt>
      <trkpt lat="44.23748" lon="7.11533">
        <ele>1885.2</ele>
        <time>2022-07-19T05:55:50Z</time>
      </trkpt>
      <trkpt lat="44.23749" lon="7.11535">
        <ele>1885.2</ele>
        <time>2022-07-19T05:55:51Z</time>
      </trkpt>
      <trkpt lat="44.23749" lon="7.11538">
        <ele>1885.2</ele>
        <time>2022-07-19T05:55:52Z</time>
      </trkpt>
      <trkpt lat="44.2375" lon="7.11541">
        <ele>1885.2</ele>
        <time>2022-07-19T05:55:53Z</time>
      </trkpt>
      <trkpt lat="44.23751" lon="7.11543">
        <ele>1885.4</ele>
        <time>2022-07-19T05:55:54Z</time>
      </trkpt>
      <trkpt lat="44.23751" lon="7.11546">
        <ele>1885.4</ele>
        <time>2022-07-19T05:55:55Z</time>
      </trkpt>
      <trkpt lat="44.23752" lon="7.11549">
        <ele>1885.6</ele>
        <time>2022-07-19T05:55:56Z</time>
      </trkpt>
      <trkpt lat="44.23752" lon="7.11552">
        <ele>1885.6</ele>
        <time>2022-07-19T05:55:57Z</time>
      </trkpt>
      <trkpt lat="44.23753" lon="7.11554">
        <ele>1885.8</ele>
        <time>2022-07-19T05:55:58Z</time>
      </trkpt>
      <trkpt lat="44.23753" lon="7.11556">
        <ele>1885.8</ele>
        <time>2022-07-19T05:55:59Z</time>
      </trkpt>
      <trkpt lat="44.23754" lon="7.11559">
        <ele>1885.8</ele>
        <time>2022-07-19T05:56:00Z</time>
      </trkpt>
      <trkpt lat="44.23754" lon="7.11562">
        <ele>1886</ele>
        <time>2022-07-19T05:56:01Z</time>
      </trkpt>
      <trkpt lat="44.23755" lon="7.11564">
        <ele>1886</ele>
        <time>2022-07-19T05:56:02Z</time>
      </trkpt>
      <trkpt lat="44.23755" lon="7.11567">
        <ele>1886</ele>
        <time>2022-07-19T05:56:03Z</time>
      </trkpt>
      <trkpt lat="44.23755" lon="7.1157">
        <ele>1886</ele>
        <time>2022-07-19T05:56:04Z</time>
      </trkpt>
      <trkpt lat="44.23755" lon="7.11573">
        <ele>1886.2</ele>
        <time>2022-07-19T05:56:05Z</time>
      </trkpt>
      <trkpt lat="44.23756" lon="7.11575">
        <ele>1886.2</ele>
        <time>2022-07-19T05:56:06Z</time>
      </trkpt>
      <trkpt lat="44.23757" lon="7.11578">
        <ele>1886.2</ele>
        <time>2022-07-19T05:56:07Z</time>
      </trkpt>
      <trkpt lat="44.23758" lon="7.1158">
        <ele>1886.6</ele>
        <time>2022-07-19T05:56:08Z</time>
      </trkpt>
      <trkpt lat="44.23759" lon="7.11582">
        <ele>1886.6</ele>
        <time>2022-07-19T05:56:09Z</time>
      </trkpt>
      <trkpt lat="44.2376" lon="7.11584">
        <ele>1886.6</ele>
        <time>2022-07-19T05:56:10Z</time>
      </trkpt>
      <trkpt lat="44.23761" lon="7.11586">
        <ele>1886.8</ele>
        <time>2022-07-19T05:56:11Z</time>
      </trkpt>
      <trkpt lat="44.23762" lon="7.11589">
        <ele>1886.8</ele>
        <time>2022-07-19T05:56:12Z</time>
      </trkpt>
      <trkpt lat="44.23763" lon="7.11591">
        <ele>1886.8</ele>
        <time>2022-07-19T05:56:13Z</time>
      </trkpt>
      <trkpt lat="44.23763" lon="7.11594">
        <ele>1887.2</ele>
        <time>2022-07-19T05:56:14Z</time>
      </trkpt>
      <trkpt lat="44.23764" lon="7.11596">
        <ele>1887.2</ele>
        <time>2022-07-19T05:56:15Z</time>
      </trkpt>
      <trkpt lat="44.23765" lon="7.11598">
        <ele>1887.2</ele>
        <time>2022-07-19T05:56:16Z</time>
      </trkpt>
      <trkpt lat="44.23766" lon="7.116">
        <ele>1887.4</ele>
        <time>2022-07-19T05:56:17Z</time>
      </trkpt>
      <trkpt lat="44.23767" lon="7.11602">
        <ele>1887.4</ele>
        <time>2022-07-19T05:56:18Z</time>
      </trkpt>
      <trkpt lat="44.23768" lon="7.11605">
        <ele>1887.6</ele>
        <time>2022-07-19T05:56:19Z</time>
      </trkpt>
      <trkpt lat="44.23769" lon="7.11607">
        <ele>1887.6</ele>
        <time>2022-07-19T05:56:20Z</time>
      </trkpt>
      <trkpt lat="44.2377" lon="7.1161">
        <ele>1887.8</ele>
        <time>2022-07-19T05:56:21Z</time>
      </trkpt>
      <trkpt lat="44.23771" lon="7.11611">
        <ele>1887.8</ele>
        <time>2022-07-19T05:56:22Z</time>
      </trkpt>
      <trkpt lat="44.23773" lon="7.11613">
        <ele>1887.8</ele>
        <time>2022-07-19T05:56:23Z</time>
      </trkpt>
      <trkpt lat="44.23774" lon="7.11614">
        <ele>1888.2</ele>
        <time>2022-07-19T05:56:24Z</time>
      </trkpt>
      <trkpt lat="44.23775" lon="7.11616">
        <ele>1888.2</ele>
        <time>2022-07-19T05:56:25Z</time>
      </trkpt>
      <trkpt lat="44.23776" lon="7.11619">
        <ele>1888.2</ele>
        <time>2022-07-19T05:56:26Z</time>
      </trkpt>
      <trkpt lat="44.23776" lon="7.11621">
        <ele>1888.4</ele>
        <time>2022-07-19T05:56:27Z</time>
      </trkpt>
      <trkpt lat="44.23776" lon="7.11623">
        <ele>1888.4</ele>
        <time>2022-07-19T05:56:28Z</time>
      </trkpt>
      <trkpt lat="44.23777" lon="7.11626">
        <ele>1888.6</ele>
        <time>2022-07-19T05:56:29Z</time>
      </trkpt>
      <trkpt lat="44.23778" lon="7.11628">
        <ele>1888.6</ele>
        <time>2022-07-19T05:56:30Z</time>
      </trkpt>
      <trkpt lat="44.23779" lon="7.1163">
        <ele>1889</ele>
        <time>2022-07-19T05:56:31Z</time>
      </trkpt>
      <trkpt lat="44.2378" lon="7.11632">
        <ele>1889</ele>
        <time>2022-07-19T05:56:32Z</time>
      </trkpt>
      <trkpt lat="44.2378" lon="7.11634">
        <ele>1889.2</ele>
        <time>2022-07-19T05:56:33Z</time>
      </trkpt>
      <trkpt lat="44.23781" lon="7.11636">
        <ele>1889.2</ele>
        <time>2022-07-19T05:56:34Z</time>
      </trkpt>
      <trkpt lat="44.23782" lon="7.11638">
        <ele>1889.4</ele>
        <time>2022-07-19T05:56:35Z</time>
      </trkpt>
      <trkpt lat="44.23783" lon="7.1164">
        <ele>1889.4</ele>
        <time>2022-07-19T05:56:36Z</time>
      </trkpt>
      <trkpt lat="44.23784" lon="7.11641">
        <ele>1889.8</ele>
        <time>2022-07-19T05:56:37Z</time>
      </trkpt>
      <trkpt lat="44.23785" lon="7.11643">
        <ele>1889.8</ele>
        <time>2022-07-19T05:56:38Z</time>
      </trkpt>
      <trkpt lat="44.23786" lon="7.11644">
        <ele>1890</ele>
        <time>2022-07-19T05:56:39Z</time>
      </trkpt>
      <trkpt lat="44.23788" lon="7.11645">
        <ele>1890</ele>
        <time>2022-07-19T05:56:40Z</time>
      </trkpt>
      <trkpt lat="44.23789" lon="7.11647">
        <ele>1890.2</ele>
        <time>2022-07-19T05:56:41Z</time>
      </trkpt>
      <trkpt lat="44.2379" lon="7.11648">
        <ele>1890.2</ele>
        <time>2022-07-19T05:56:42Z</time>
      </trkpt>
      <trkpt lat="44.23791" lon="7.11649">
        <ele>1890.2</ele>
        <time>2022-07-19T05:56:43Z</time>
      </trkpt>
      <trkpt lat="44.23792" lon="7.11651">
        <ele>1890.4</ele>
        <time>2022-07-19T05:56:44Z</time>
      </trkpt>
      <trkpt lat="44.23794" lon="7.11652">
        <ele>1890.4</ele>
        <time>2022-07-19T05:56:45Z</time>
      </trkpt>
      <trkpt lat="44.23795" lon="7.11654">
        <ele>1890.4</ele>
        <time>2022-07-19T05:56:46Z</time>
      </trkpt>
      <trkpt lat="44.23796" lon="7.11656">
        <ele>1890.6</ele>
        <time>2022-07-19T05:56:47Z</time>
      </trkpt>
      <trkpt lat="44.23798" lon="7.11657">
        <ele>1890.6</ele>
        <time>2022-07-19T05:56:48Z</time>
      </trkpt>
      <trkpt lat="44.23799" lon="7.11658">
        <ele>1890.8</ele>
        <time>2022-07-19T05:56:49Z</time>
      </trkpt>
      <trkpt lat="44.238" lon="7.1166">
        <ele>1890.8</ele>
        <time>2022-07-19T05:56:50Z</time>
      </trkpt>
      <trkpt lat="44.23801" lon="7.11661">
        <ele>1891.2</ele>
        <time>2022-07-19T05:56:51Z</time>
      </trkpt>
      <trkpt lat="44.23802" lon="7.11663">
        <ele>1891.2</ele>
        <time>2022-07-19T05:56:52Z</time>
      </trkpt>
      <trkpt lat="44.23804" lon="7.11665">
        <ele>1891.4</ele>
        <time>2022-07-19T05:56:53Z</time>
      </trkpt>
      <trkpt lat="44.23805" lon="7.11667">
        <ele>1891.6</ele>
        <time>2022-07-19T05:56:54Z</time>
      </trkpt>
      <trkpt lat="44.23806" lon="7.11669">
        <ele>1891.6</ele>
        <time>2022-07-19T05:56:55Z</time>
      </trkpt>
      <trkpt lat="44.23807" lon="7.1167">
        <ele>1892</ele>
        <time>2022-07-19T05:56:56Z</time>
      </trkpt>
      <trkpt lat="44.23808" lon="7.11671">
        <ele>1892</ele>
        <time>2022-07-19T05:56:57Z</time>
      </trkpt>
      <trkpt lat="44.23809" lon="7.11672">
        <ele>1892.2</ele>
        <time>2022-07-19T05:56:58Z</time>
      </trkpt>
      <trkpt lat="44.23811" lon="7.11673">
        <ele>1892.4</ele>
        <time>2022-07-19T05:56:59Z</time>
      </trkpt>
      <trkpt lat="44.23813" lon="7.11675">
        <ele>1892.6</ele>
        <time>2022-07-19T05:57:00Z</time>
      </trkpt>
      <trkpt lat="44.23814" lon="7.11677">
        <ele>1892.6</ele>
        <time>2022-07-19T05:57:01Z</time>
      </trkpt>
      <trkpt lat="44.23815" lon="7.11679">
        <ele>1893</ele>
        <time>2022-07-19T05:57:02Z</time>
      </trkpt>
      <trkpt lat="44.23817" lon="7.11681">
        <ele>1893</ele>
        <time>2022-07-19T05:57:03Z</time>
      </trkpt>
      <trkpt lat="44.23819" lon="7.11683">
        <ele>1893.4</ele>
        <time>2022-07-19T05:57:04Z</time>
      </trkpt>
      <trkpt lat="44.23821" lon="7.11684">
        <ele>1893.4</ele>
        <time>2022-07-19T05:57:05Z</time>
      </trkpt>
      <trkpt lat="44.23823" lon="7.11686">
        <ele>1893.6</ele>
        <time>2022-07-19T05:57:06Z</time>
      </trkpt>
      <trkpt lat="44.23824" lon="7.11688">
        <ele>1893.6</ele>
        <time>2022-07-19T05:57:07Z</time>
      </trkpt>
      <trkpt lat="44.23826" lon="7.11689">
        <ele>1894</ele>
        <time>2022-07-19T05:57:08Z</time>
      </trkpt>
      <trkpt lat="44.23828" lon="7.1169">
        <ele>1894</ele>
        <time>2022-07-19T05:57:09Z</time>
      </trkpt>
      <trkpt lat="44.2383" lon="7.11691">
        <ele>1894.2</ele>
        <time>2022-07-19T05:57:10Z</time>
      </trkpt>
      <trkpt lat="44.23832" lon="7.11692">
        <ele>1894.2</ele>
        <time>2022-07-19T05:57:11Z</time>
      </trkpt>
      <trkpt lat="44.23833" lon="7.11693">
        <ele>1894.4</ele>
        <time>2022-07-19T05:57:12Z</time>
      </trkpt>
      <trkpt lat="44.23834" lon="7.11695">
        <ele>1894.4</ele>
        <time>2022-07-19T05:57:13Z</time>
      </trkpt>
      <trkpt lat="44.23835" lon="7.11697">
        <ele>1894.6</ele>
        <time>2022-07-19T05:57:14Z</time>
      </trkpt>
      <trkpt lat="44.23837" lon="7.11698">
        <ele>1894.6</ele>
        <time>2022-07-19T05:57:15Z</time>
      </trkpt>
      <trkpt lat="44.23838" lon="7.117">
        <ele>1895</ele>
        <time>2022-07-19T05:57:16Z</time>
      </trkpt>
      <trkpt lat="44.23839" lon="7.11702">
        <ele>1895</ele>
        <time>2022-07-19T05:57:17Z</time>
      </trkpt>
      <trkpt lat="44.2384" lon="7.11703">
        <ele>1895.4</ele>
        <time>2022-07-19T05:57:18Z</time>
      </trkpt>
      <trkpt lat="44.2384" lon="7.11704">
        <ele>1895.4</ele>
        <time>2022-07-19T05:57:19Z</time>
      </trkpt>
      <trkpt lat="44.23841" lon="7.11705">
        <ele>1895.6</ele>
        <time>2022-07-19T05:57:20Z</time>
      </trkpt>
      <trkpt lat="44.23842" lon="7.11708">
        <ele>1896</ele>
        <time>2022-07-19T05:57:21Z</time>
      </trkpt>
      <trkpt lat="44.23843" lon="7.1171">
        <ele>1896.2</ele>
        <time>2022-07-19T05:57:22Z</time>
      </trkpt>
      <trkpt lat="44.23844" lon="7.11711">
        <ele>1896.2</ele>
        <time>2022-07-19T05:57:23Z</time>
      </trkpt>
      <trkpt lat="44.23844" lon="7.11713">
        <ele>1896.4</ele>
        <time>2022-07-19T05:57:24Z</time>
      </trkpt>
      <trkpt lat="44.23845" lon="7.11714">
        <ele>1896.4</ele>
        <time>2022-07-19T05:57:25Z</time>
      </trkpt>
      <trkpt lat="44.23846" lon="7.11715">
        <ele>1896.6</ele>
        <time>2022-07-19T05:57:26Z</time>
      </trkpt>
      <trkpt lat="44.23847" lon="7.11717">
        <ele>1896.6</ele>
        <time>2022-07-19T05:57:27Z</time>
      </trkpt>
      <trkpt lat="44.23848" lon="7.11719">
        <ele>1897</ele>
        <time>2022-07-19T05:57:28Z</time>
      </trkpt>
      <trkpt lat="44.23849" lon="7.1172">
        <ele>1897</ele>
        <time>2022-07-19T05:57:29Z</time>
      </trkpt>
      <trkpt lat="44.2385" lon="7.11722">
        <ele>1897.2</ele>
        <time>2022-07-19T05:57:30Z</time>
      </trkpt>
      <trkpt lat="44.23851" lon="7.11724">
        <ele>1897.4</ele>
        <time>2022-07-19T05:57:31Z</time>
      </trkpt>
      <trkpt lat="44.23852" lon="7.11725">
        <ele>1897.4</ele>
        <time>2022-07-19T05:57:32Z</time>
      </trkpt>
      <trkpt lat="44.23853" lon="7.11727">
        <ele>1897.8</ele>
        <time>2022-07-19T05:57:33Z</time>
      </trkpt>
      <trkpt lat="44.23854" lon="7.11728">
        <ele>1898</ele>
        <time>2022-07-19T05:57:34Z</time>
      </trkpt>
      <trkpt lat="44.23855" lon="7.11729">
        <ele>1898</ele>
        <time>2022-07-19T05:57:35Z</time>
      </trkpt>
      <trkpt lat="44.23857" lon="7.1173">
        <ele>1898.2</ele>
        <time>2022-07-19T05:57:36Z</time>
      </trkpt>
      <trkpt lat="44.23858" lon="7.11731">
        <ele>1898.2</ele>
        <time>2022-07-19T05:57:37Z</time>
      </trkpt>
      <trkpt lat="44.23859" lon="7.11732">
        <ele>1898.6</ele>
        <time>2022-07-19T05:57:38Z</time>
      </trkpt>
      <trkpt lat="44.23861" lon="7.11734">
        <ele>1898.6</ele>
        <time>2022-07-19T05:57:39Z</time>
      </trkpt>
      <trkpt lat="44.23862" lon="7.11735">
        <ele>1898.6</ele>
        <time>2022-07-19T05:57:40Z</time>
      </trkpt>
      <trkpt lat="44.23863" lon="7.11736">
        <ele>1899</ele>
        <time>2022-07-19T05:57:41Z</time>
      </trkpt>
      <trkpt lat="44.23864" lon="7.11738">
        <ele>1899</ele>
        <time>2022-07-19T05:57:42Z</time>
      </trkpt>
      <trkpt lat="44.23866" lon="7.1174">
        <ele>1899.2</ele>
        <time>2022-07-19T05:57:43Z</time>
      </trkpt>
      <trkpt lat="44.23867" lon="7.11741">
        <ele>1899.2</ele>
        <time>2022-07-19T05:57:44Z</time>
      </trkpt>
      <trkpt lat="44.23868" lon="7.11743">
        <ele>1899.6</ele>
        <time>2022-07-19T05:57:45Z</time>
      </trkpt>
      <trkpt lat="44.2387" lon="7.11744">
        <ele>1899.6</ele>
        <time>2022-07-19T05:57:46Z</time>
      </trkpt>
      <trkpt lat="44.23871" lon="7.11746">
        <ele>1900</ele>
        <time>2022-07-19T05:57:47Z</time>
      </trkpt>
      <trkpt lat="44.23872" lon="7.11747">
        <ele>1900</ele>
        <time>2022-07-19T05:57:48Z</time>
      </trkpt>
      <trkpt lat="44.23873" lon="7.11748">
        <ele>1900.2</ele>
        <time>2022-07-19T05:57:49Z</time>
      </trkpt>
      <trkpt lat="44.23874" lon="7.1175">
        <ele>1900.2</ele>
        <time>2022-07-19T05:57:50Z</time>
      </trkpt>
      <trkpt lat="44.23875" lon="7.11751">
        <ele>1900.4</ele>
        <time>2022-07-19T05:57:51Z</time>
      </trkpt>
      <trkpt lat="44.23876" lon="7.11752">
        <ele>1900.4</ele>
        <time>2022-07-19T05:57:52Z</time>
      </trkpt>
      <trkpt lat="44.23878" lon="7.11753">
        <ele>1900.8</ele>
        <time>2022-07-19T05:57:53Z</time>
      </trkpt>
      <trkpt lat="44.23879" lon="7.11754">
        <ele>1901</ele>
        <time>2022-07-19T05:57:54Z</time>
      </trkpt>
      <trkpt lat="44.23879" lon="7.11755">
        <ele>1901</ele>
        <time>2022-07-19T05:57:55Z</time>
      </trkpt>
      <trkpt lat="44.23881" lon="7.11755">
        <ele>1901.4</ele>
        <time>2022-07-19T05:57:56Z</time>
      </trkpt>
      <trkpt lat="44.23882" lon="7.11756">
        <ele>1901.4</ele>
        <time>2022-07-19T05:57:57Z</time>
      </trkpt>
      <trkpt lat="44.23883" lon="7.11756">
        <ele>1901.6</ele>
        <time>2022-07-19T05:57:58Z</time>
      </trkpt>
      <trkpt lat="44.23885" lon="7.11757">
        <ele>1901.6</ele>
        <time>2022-07-19T05:57:59Z</time>
      </trkpt>
      <trkpt lat="44.23886" lon="7.11758">
        <ele>1901.8</ele>
        <time>2022-07-19T05:58:00Z</time>
      </trkpt>
      <trkpt lat="44.23887" lon="7.1176">
        <ele>1901.8</ele>
        <time>2022-07-19T05:58:01Z</time>
      </trkpt>
      <trkpt lat="44.23889" lon="7.11761">
        <ele>1902</ele>
        <time>2022-07-19T05:58:02Z</time>
      </trkpt>
      <trkpt lat="44.2389" lon="7.11762">
        <ele>1902</ele>
        <time>2022-07-19T05:58:03Z</time>
      </trkpt>
      <trkpt lat="44.23891" lon="7.11763">
        <ele>1902.2</ele>
        <time>2022-07-19T05:58:04Z</time>
      </trkpt>
      <trkpt lat="44.23892" lon="7.11764">
        <ele>1902.2</ele>
        <time>2022-07-19T05:58:05Z</time>
      </trkpt>
      <trkpt lat="44.23893" lon="7.11765">
        <ele>1902.2</ele>
        <time>2022-07-19T05:58:06Z</time>
      </trkpt>
      <trkpt lat="44.23895" lon="7.11766">
        <ele>1902.8</ele>
        <time>2022-07-19T05:58:07Z</time>
      </trkpt>
      <trkpt lat="44.23896" lon="7.11767">
        <ele>1902.8</ele>
        <time>2022-07-19T05:58:08Z</time>
      </trkpt>
      <trkpt lat="44.23898" lon="7.11768">
        <ele>1903</ele>
        <time>2022-07-19T05:58:09Z</time>
      </trkpt>
      <trkpt lat="44.23899" lon="7.11769">
        <ele>1903</ele>
        <time>2022-07-19T05:58:10Z</time>
      </trkpt>
      <trkpt lat="44.239" lon="7.1177">
        <ele>1903.2</ele>
        <time>2022-07-19T05:58:11Z</time>
      </trkpt>
      <trkpt lat="44.23902" lon="7.11771">
        <ele>1903.2</ele>
        <time>2022-07-19T05:58:12Z</time>
      </trkpt>
      <trkpt lat="44.23903" lon="7.11773">
        <ele>1903.4</ele>
        <time>2022-07-19T05:58:13Z</time>
      </trkpt>
      <trkpt lat="44.23904" lon="7.11774">
        <ele>1903.4</ele>
        <time>2022-07-19T05:58:14Z</time>
      </trkpt>
      <trkpt lat="44.23905" lon="7.11775">
        <ele>1903.8</ele>
        <time>2022-07-19T05:58:15Z</time>
      </trkpt>
      <trkpt lat="44.23907" lon="7.11777">
        <ele>1903.8</ele>
        <time>2022-07-19T05:58:16Z</time>
      </trkpt>
      <trkpt lat="44.23908" lon="7.11778">
        <ele>1904</ele>
        <time>2022-07-19T05:58:17Z</time>
      </trkpt>
      <trkpt lat="44.2391" lon="7.11779">
        <ele>1904</ele>
        <time>2022-07-19T05:58:18Z</time>
      </trkpt>
      <trkpt lat="44.23911" lon="7.1178">
        <ele>1904.2</ele>
        <time>2022-07-19T05:58:19Z</time>
      </trkpt>
      <trkpt lat="44.23913" lon="7.11781">
        <ele>1904.2</ele>
        <time>2022-07-19T05:58:20Z</time>
      </trkpt>
      <trkpt lat="44.23914" lon="7.11781">
        <ele>1904.6</ele>
        <time>2022-07-19T05:58:21Z</time>
      </trkpt>
      <trkpt lat="44.23916" lon="7.11782">
        <ele>1904.6</ele>
        <time>2022-07-19T05:58:22Z</time>
      </trkpt>
      <trkpt lat="44.23917" lon="7.11783">
        <ele>1904.8</ele>
        <time>2022-07-19T05:58:23Z</time>
      </trkpt>
      <trkpt lat="44.23919" lon="7.11784">
        <ele>1904.8</ele>
        <time>2022-07-19T05:58:24Z</time>
      </trkpt>
      <trkpt lat="44.2392" lon="7.11786">
        <ele>1905</ele>
        <time>2022-07-19T05:58:25Z</time>
      </trkpt>
      <trkpt lat="44.23921" lon="7.11786">
        <ele>1905</ele>
        <time>2022-07-19T05:58:26Z</time>
      </trkpt>
      <trkpt lat="44.23923" lon="7.11787">
        <ele>1905.4</ele>
        <time>2022-07-19T05:58:27Z</time>
      </trkpt>
      <trkpt lat="44.23924" lon="7.11788">
        <ele>1905.4</ele>
        <time>2022-07-19T05:58:28Z</time>
      </trkpt>
      <trkpt lat="44.23926" lon="7.11789">
        <ele>1905.6</ele>
        <time>2022-07-19T05:58:29Z</time>
      </trkpt>
      <trkpt lat="44.23927" lon="7.11789">
        <ele>1905.6</ele>
        <time>2022-07-19T05:58:30Z</time>
      </trkpt>
      <trkpt lat="44.23929" lon="7.1179">
        <ele>1905.8</ele>
        <time>2022-07-19T05:58:31Z</time>
      </trkpt>
      <trkpt lat="44.2393" lon="7.1179">
        <ele>1905.8</ele>
        <time>2022-07-19T05:58:32Z</time>
      </trkpt>
      <trkpt lat="44.23932" lon="7.11791">
        <ele>1906</ele>
        <time>2022-07-19T05:58:33Z</time>
      </trkpt>
      <trkpt lat="44.23933" lon="7.11792">
        <ele>1906</ele>
        <time>2022-07-19T05:58:34Z</time>
      </trkpt>
      <trkpt lat="44.23934" lon="7.11793">
        <ele>1906.4</ele>
        <time>2022-07-19T05:58:35Z</time>
      </trkpt>
      <trkpt lat="44.23936" lon="7.11793">
        <ele>1906.4</ele>
        <time>2022-07-19T05:58:36Z</time>
      </trkpt>
      <trkpt lat="44.23937" lon="7.11794">
        <ele>1906.6</ele>
        <time>2022-07-19T05:58:37Z</time>
      </trkpt>
      <trkpt lat="44.23939" lon="7.11795">
        <ele>1906.6</ele>
        <time>2022-07-19T05:58:38Z</time>
      </trkpt>
      <trkpt lat="44.23941" lon="7.11796">
        <ele>1907</ele>
        <time>2022-07-19T05:58:39Z</time>
      </trkpt>
      <trkpt lat="44.23942" lon="7.11798">
        <ele>1907</ele>
        <time>2022-07-19T05:58:40Z</time>
      </trkpt>
      <trkpt lat="44.23944" lon="7.11799">
        <ele>1907.4</ele>
        <time>2022-07-19T05:58:41Z</time>
      </trkpt>
      <trkpt lat="44.23945" lon="7.118">
        <ele>1907.4</ele>
        <time>2022-07-19T05:58:42Z</time>
      </trkpt>
      <trkpt lat="44.23946" lon="7.11801">
        <ele>1907.6</ele>
        <time>2022-07-19T05:58:43Z</time>
      </trkpt>
      <trkpt lat="44.23948" lon="7.11802">
        <ele>1907.6</ele>
        <time>2022-07-19T05:58:44Z</time>
      </trkpt>
      <trkpt lat="44.23949" lon="7.11803">
        <ele>1908</ele>
        <time>2022-07-19T05:58:45Z</time>
      </trkpt>
      <trkpt lat="44.2395" lon="7.11805">
        <ele>1908</ele>
        <time>2022-07-19T05:58:46Z</time>
      </trkpt>
      <trkpt lat="44.23951" lon="7.11806">
        <ele>1908.2</ele>
        <time>2022-07-19T05:58:47Z</time>
      </trkpt>
      <trkpt lat="44.23953" lon="7.11808">
        <ele>1908.2</ele>
        <time>2022-07-19T05:58:48Z</time>
      </trkpt>
      <trkpt lat="44.23954" lon="7.1181">
        <ele>1908.6</ele>
        <time>2022-07-19T05:58:49Z</time>
      </trkpt>
      <trkpt lat="44.23955" lon="7.11812">
        <ele>1908.6</ele>
        <time>2022-07-19T05:58:50Z</time>
      </trkpt>
      <trkpt lat="44.23956" lon="7.11814">
        <ele>1909</ele>
        <time>2022-07-19T05:58:51Z</time>
      </trkpt>
      <trkpt lat="44.23957" lon="7.11816">
        <ele>1909</ele>
        <time>2022-07-19T05:58:52Z</time>
      </trkpt>
      <trkpt lat="44.23958" lon="7.11817">
        <ele>1909.2</ele>
        <time>2022-07-19T05:58:53Z</time>
      </trkpt>
      <trkpt lat="44.23959" lon="7.11819">
        <ele>1909.2</ele>
        <time>2022-07-19T05:58:54Z</time>
      </trkpt>
      <trkpt lat="44.2396" lon="7.11821">
        <ele>1909.4</ele>
        <time>2022-07-19T05:58:55Z</time>
      </trkpt>
      <trkpt lat="44.23961" lon="7.11822">
        <ele>1909.4</ele>
        <time>2022-07-19T05:58:56Z</time>
      </trkpt>
      <trkpt lat="44.23962" lon="7.11824">
        <ele>1909.4</ele>
        <time>2022-07-19T05:58:57Z</time>
      </trkpt>
      <trkpt lat="44.23964" lon="7.11825">
        <ele>1909.6</ele>
        <time>2022-07-19T05:58:58Z</time>
      </trkpt>
      <trkpt lat="44.23965" lon="7.11826">
        <ele>1909.6</ele>
        <time>2022-07-19T05:58:59Z</time>
      </trkpt>
      <trkpt lat="44.23966" lon="7.11828">
        <ele>1910</ele>
        <time>2022-07-19T05:59:00Z</time>
      </trkpt>
      <trkpt lat="44.23968" lon="7.11829">
        <ele>1910</ele>
        <time>2022-07-19T05:59:01Z</time>
      </trkpt>
      <trkpt lat="44.23969" lon="7.11831">
        <ele>1910.2</ele>
        <time>2022-07-19T05:59:02Z</time>
      </trkpt>
      <trkpt lat="44.23971" lon="7.11833">
        <ele>1910.2</ele>
        <time>2022-07-19T05:59:03Z</time>
      </trkpt>
      <trkpt lat="44.23972" lon="7.11835">
        <ele>1910.4</ele>
        <time>2022-07-19T05:59:04Z</time>
      </trkpt>
      <trkpt lat="44.23974" lon="7.11836">
        <ele>1910.4</ele>
        <time>2022-07-19T05:59:05Z</time>
      </trkpt>
      <trkpt lat="44.23975" lon="7.11837">
        <ele>1910.8</ele>
        <time>2022-07-19T05:59:06Z</time>
      </trkpt>
      <trkpt lat="44.23977" lon="7.11838">
        <ele>1910.8</ele>
        <time>2022-07-19T05:59:07Z</time>
      </trkpt>
      <trkpt lat="44.23978" lon="7.11839">
        <ele>1911</ele>
        <time>2022-07-19T05:59:08Z</time>
      </trkpt>
      <trkpt lat="44.2398" lon="7.1184">
        <ele>1911</ele>
        <time>2022-07-19T05:59:09Z</time>
      </trkpt>
      <trkpt lat="44.23981" lon="7.11841">
        <ele>1911</ele>
        <time>2022-07-19T05:59:10Z</time>
      </trkpt>
      <trkpt lat="44.23983" lon="7.11842">
        <ele>1911.4</ele>
        <time>2022-07-19T05:59:11Z</time>
      </trkpt>
      <trkpt lat="44.23985" lon="7.11844">
        <ele>1911.4</ele>
        <time>2022-07-19T05:59:12Z</time>
      </trkpt>
      <trkpt lat="44.23986" lon="7.11846">
        <ele>1911.6</ele>
        <time>2022-07-19T05:59:13Z</time>
      </trkpt>
      <trkpt lat="44.23987" lon="7.11848">
        <ele>1911.6</ele>
        <time>2022-07-19T05:59:14Z</time>
      </trkpt>
      <trkpt lat="44.23987" lon="7.11851">
        <ele>1912</ele>
        <time>2022-07-19T05:59:15Z</time>
      </trkpt>
      <trkpt lat="44.23987" lon="7.11854">
        <ele>1912</ele>
        <time>2022-07-19T05:59:16Z</time>
      </trkpt>
      <trkpt lat="44.23987" lon="7.11856">
        <ele>1912</ele>
        <time>2022-07-19T05:59:17Z</time>
      </trkpt>
      <trkpt lat="44.23986" lon="7.11859">
        <ele>1912.2</ele>
        <time>2022-07-19T05:59:18Z</time>
      </trkpt>
      <trkpt lat="44.23984" lon="7.11861">
        <ele>1912.2</ele>
        <time>2022-07-19T05:59:19Z</time>
      </trkpt>
      <trkpt lat="44.23983" lon="7.11862">
        <ele>1912.2</ele>
        <time>2022-07-19T05:59:20Z</time>
      </trkpt>
      <trkpt lat="44.23981" lon="7.11863">
        <ele>1912.4</ele>
        <time>2022-07-19T05:59:22Z</time>
      </trkpt>
      <trkpt lat="44.23979" lon="7.11862">
        <ele>1912.8</ele>
        <time>2022-07-19T05:59:23Z</time>
      </trkpt>
      <trkpt lat="44.23978" lon="7.11862">
        <ele>1912.8</ele>
        <time>2022-07-19T05:59:24Z</time>
      </trkpt>
      <trkpt lat="44.23976" lon="7.11861">
        <ele>1913</ele>
        <time>2022-07-19T05:59:25Z</time>
      </trkpt>
      <trkpt lat="44.23975" lon="7.1186">
        <ele>1913</ele>
        <time>2022-07-19T05:59:26Z</time>
      </trkpt>
      <trkpt lat="44.23973" lon="7.11858">
        <ele>1913.2</ele>
        <time>2022-07-19T05:59:27Z</time>
      </trkpt>
      <trkpt lat="44.23972" lon="7.11856">
        <ele>1913.2</ele>
        <time>2022-07-19T05:59:28Z</time>
      </trkpt>
      <trkpt lat="44.23971" lon="7.11854">
        <ele>1913.4</ele>
        <time>2022-07-19T05:59:29Z</time>
      </trkpt>
      <trkpt lat="44.23969" lon="7.11852">
        <ele>1913.4</ele>
        <time>2022-07-19T05:59:30Z</time>
      </trkpt>
      <trkpt lat="44.23968" lon="7.1185">
        <ele>1913.4</ele>
        <time>2022-07-19T05:59:31Z</time>
      </trkpt>
      <trkpt lat="44.23966" lon="7.11848">
        <ele>1913.8</ele>
        <time>2022-07-19T05:59:32Z</time>
      </trkpt>
      <trkpt lat="44.23965" lon="7.11846">
        <ele>1913.8</ele>
        <time>2022-07-19T05:59:33Z</time>
      </trkpt>
      <trkpt lat="44.23963" lon="7.11844">
        <ele>1913.8</ele>
        <time>2022-07-19T05:59:34Z</time>
      </trkpt>
      <trkpt lat="44.23962" lon="7.11843">
        <ele>1914</ele>
        <time>2022-07-19T05:59:35Z</time>
      </trkpt>
      <trkpt lat="44.2396" lon="7.11841">
        <ele>1914</ele>
        <time>2022-07-19T05:59:36Z</time>
      </trkpt>
      <trkpt lat="44.23959" lon="7.11839">
        <ele>1914</ele>
        <time>2022-07-19T05:59:37Z</time>
      </trkpt>
      <trkpt lat="44.23958" lon="7.11837">
        <ele>1914.2</ele>
        <time>2022-07-19T05:59:38Z</time>
      </trkpt>
      <trkpt lat="44.23956" lon="7.11835">
        <ele>1914.2</ele>
        <time>2022-07-19T05:59:39Z</time>
      </trkpt>
      <trkpt lat="44.23955" lon="7.11834">
        <ele>1914.4</ele>
        <time>2022-07-19T05:59:40Z</time>
      </trkpt>
      <trkpt lat="44.23954" lon="7.11833">
        <ele>1914.4</ele>
        <time>2022-07-19T05:59:41Z</time>
      </trkpt>
      <trkpt lat="44.23952" lon="7.11832">
        <ele>1914.6</ele>
        <time>2022-07-19T05:59:42Z</time>
      </trkpt>
      <trkpt lat="44.23951" lon="7.11831">
        <ele>1914.8</ele>
        <time>2022-07-19T05:59:43Z</time>
      </trkpt>
      <trkpt lat="44.2395" lon="7.1183">
        <ele>1914.8</ele>
        <time>2022-07-19T05:59:44Z</time>
      </trkpt>
      <trkpt lat="44.23948" lon="7.11829">
        <ele>1915</ele>
        <time>2022-07-19T05:59:45Z</time>
      </trkpt>
      <trkpt lat="44.23947" lon="7.11828">
        <ele>1915.4</ele>
        <time>2022-07-19T05:59:46Z</time>
      </trkpt>
      <trkpt lat="44.23945" lon="7.11827">
        <ele>1915.6</ele>
        <time>2022-07-19T05:59:47Z</time>
      </trkpt>
      <trkpt lat="44.23944" lon="7.11826">
        <ele>1915.8</ele>
        <time>2022-07-19T05:59:48Z</time>
      </trkpt>
      <trkpt lat="44.23942" lon="7.11825">
        <ele>1915.8</ele>
        <time>2022-07-19T05:59:49Z</time>
      </trkpt>
      <trkpt lat="44.2394" lon="7.11824">
        <ele>1916.2</ele>
        <time>2022-07-19T05:59:50Z</time>
      </trkpt>
      <trkpt lat="44.23939" lon="7.11824">
        <ele>1916.2</ele>
        <time>2022-07-19T05:59:51Z</time>
      </trkpt>
      <trkpt lat="44.23937" lon="7.11823">
        <ele>1916.6</ele>
        <time>2022-07-19T05:59:52Z</time>
      </trkpt>
      <trkpt lat="44.23935" lon="7.11822">
        <ele>1916.6</ele>
        <time>2022-07-19T05:59:53Z</time>
      </trkpt>
      <trkpt lat="44.23933" lon="7.11822">
        <ele>1917</ele>
        <time>2022-07-19T05:59:54Z</time>
      </trkpt>
      <trkpt lat="44.23931" lon="7.11821">
        <ele>1917</ele>
        <time>2022-07-19T05:59:55Z</time>
      </trkpt>
      <trkpt lat="44.23929" lon="7.11821">
        <ele>1917.4</ele>
        <time>2022-07-19T05:59:56Z</time>
      </trkpt>
      <trkpt lat="44.23928" lon="7.11821">
        <ele>1917.4</ele>
        <time>2022-07-19T05:59:57Z</time>
      </trkpt>
      <trkpt lat="44.23926" lon="7.11821">
        <ele>1917.6</ele>
        <time>2022-07-19T05:59:58Z</time>
      </trkpt>
      <trkpt lat="44.23924" lon="7.1182">
        <ele>1917.6</ele>
        <time>2022-07-19T05:59:59Z</time>
      </trkpt>
      <trkpt lat="44.23922" lon="7.1182">
        <ele>1918</ele>
        <time>2022-07-19T06:00:00Z</time>
      </trkpt>
      <trkpt lat="44.2392" lon="7.1182">
        <ele>1918</ele>
        <time>2022-07-19T06:00:01Z</time>
      </trkpt>
      <trkpt lat="44.23919" lon="7.11819">
        <ele>1918.2</ele>
        <time>2022-07-19T06:00:02Z</time>
      </trkpt>
      <trkpt lat="44.23917" lon="7.11819">
        <ele>1918.2</ele>
        <time>2022-07-19T06:00:03Z</time>
      </trkpt>
      <trkpt lat="44.23915" lon="7.11819">
        <ele>1918.6</ele>
        <time>2022-07-19T06:00:04Z</time>
      </trkpt>
      <trkpt lat="44.23913" lon="7.11819">
        <ele>1918.6</ele>
        <time>2022-07-19T06:00:05Z</time>
      </trkpt>
      <trkpt lat="44.23911" lon="7.11819">
        <ele>1919</ele>
        <time>2022-07-19T06:00:06Z</time>
      </trkpt>
      <trkpt lat="44.2391" lon="7.11819">
        <ele>1919</ele>
        <time>2022-07-19T06:00:07Z</time>
      </trkpt>
      <trkpt lat="44.23908" lon="7.11819">
        <ele>1919.2</ele>
        <time>2022-07-19T06:00:08Z</time>
      </trkpt>
      <trkpt lat="44.23906" lon="7.11819">
        <ele>1919.2</ele>
        <time>2022-07-19T06:00:09Z</time>
      </trkpt>
      <trkpt lat="44.23904" lon="7.11819">
        <ele>1919.4</ele>
        <time>2022-07-19T06:00:10Z</time>
      </trkpt>
      <trkpt lat="44.23902" lon="7.11819">
        <ele>1919.4</ele>
        <time>2022-07-19T06:00:11Z</time>
      </trkpt>
      <trkpt lat="44.239" lon="7.11819">
        <ele>1919.6</ele>
        <time>2022-07-19T06:00:12Z</time>
      </trkpt>
      <trkpt lat="44.23898" lon="7.11819">
        <ele>1919.6</ele>
        <time>2022-07-19T06:00:13Z</time>
      </trkpt>
      <trkpt lat="44.23897" lon="7.11819">
        <ele>1920</ele>
        <time>2022-07-19T06:00:14Z</time>
      </trkpt>
      <trkpt lat="44.23895" lon="7.11818">
        <ele>1920</ele>
        <time>2022-07-19T06:00:15Z</time>
      </trkpt>
      <trkpt lat="44.23893" lon="7.11818">
        <ele>1920.2</ele>
        <time>2022-07-19T06:00:16Z</time>
      </trkpt>
      <trkpt lat="44.23892" lon="7.11818">
        <ele>1920.2</ele>
        <time>2022-07-19T06:00:17Z</time>
      </trkpt>
      <trkpt lat="44.2389" lon="7.11818">
        <ele>1920.6</ele>
        <time>2022-07-19T06:00:18Z</time>
      </trkpt>
      <trkpt lat="44.23889" lon="7.11817">
        <ele>1920.6</ele>
        <time>2022-07-19T06:00:19Z</time>
      </trkpt>
      <trkpt lat="44.23887" lon="7.11817">
        <ele>1920.8</ele>
        <time>2022-07-19T06:00:20Z</time>
      </trkpt>
      <trkpt lat="44.23886" lon="7.11817">
        <ele>1920.8</ele>
        <time>2022-07-19T06:00:21Z</time>
      </trkpt>
      <trkpt lat="44.23884" lon="7.11817">
        <ele>1921.2</ele>
        <time>2022-07-19T06:00:22Z</time>
      </trkpt>
      <trkpt lat="44.23883" lon="7.11817">
        <ele>1921.2</ele>
        <time>2022-07-19T06:00:23Z</time>
      </trkpt>
      <trkpt lat="44.23881" lon="7.11818">
        <ele>1921.4</ele>
        <time>2022-07-19T06:00:24Z</time>
      </trkpt>
      <trkpt lat="44.2388" lon="7.11817">
        <ele>1921.4</ele>
        <time>2022-07-19T06:00:25Z</time>
      </trkpt>
      <trkpt lat="44.23878" lon="7.11817">
        <ele>1921.8</ele>
        <time>2022-07-19T06:00:26Z</time>
      </trkpt>
      <trkpt lat="44.23876" lon="7.11816">
        <ele>1921.8</ele>
        <time>2022-07-19T06:00:27Z</time>
      </trkpt>
      <trkpt lat="44.23875" lon="7.11817">
        <ele>1922</ele>
        <time>2022-07-19T06:00:28Z</time>
      </trkpt>
      <trkpt lat="44.23873" lon="7.11816">
        <ele>1922</ele>
        <time>2022-07-19T06:00:29Z</time>
      </trkpt>
      <trkpt lat="44.23872" lon="7.11816">
        <ele>1922.2</ele>
        <time>2022-07-19T06:00:30Z</time>
      </trkpt>
      <trkpt lat="44.2387" lon="7.11816">
        <ele>1922.2</ele>
        <time>2022-07-19T06:00:31Z</time>
      </trkpt>
      <trkpt lat="44.23869" lon="7.11816">
        <ele>1922.6</ele>
        <time>2022-07-19T06:00:32Z</time>
      </trkpt>
      <trkpt lat="44.23867" lon="7.11816">
        <ele>1922.6</ele>
        <time>2022-07-19T06:00:33Z</time>
      </trkpt>
      <trkpt lat="44.23866" lon="7.11816">
        <ele>1922.8</ele>
        <time>2022-07-19T06:00:34Z</time>
      </trkpt>
      <trkpt lat="44.23864" lon="7.11816">
        <ele>1922.8</ele>
        <time>2022-07-19T06:00:35Z</time>
      </trkpt>
      <trkpt lat="44.23863" lon="7.11816">
        <ele>1923.2</ele>
        <time>2022-07-19T06:00:36Z</time>
      </trkpt>
      <trkpt lat="44.23861" lon="7.11816">
        <ele>1923.2</ele>
        <time>2022-07-19T06:00:37Z</time>
      </trkpt>
      <trkpt lat="44.2386" lon="7.11817">
        <ele>1923.4</ele>
        <time>2022-07-19T06:00:38Z</time>
      </trkpt>
      <trkpt lat="44.23859" lon="7.11817">
        <ele>1923.4</ele>
        <time>2022-07-19T06:00:39Z</time>
      </trkpt>
      <trkpt lat="44.23857" lon="7.11817">
        <ele>1923.6</ele>
        <time>2022-07-19T06:00:40Z</time>
      </trkpt>
      <trkpt lat="44.23856" lon="7.11818">
        <ele>1923.6</ele>
        <time>2022-07-19T06:00:41Z</time>
      </trkpt>
      <trkpt lat="44.23855" lon="7.11818">
        <ele>1924</ele>
        <time>2022-07-19T06:00:42Z</time>
      </trkpt>
      <trkpt lat="44.23853" lon="7.11817">
        <ele>1924</ele>
        <time>2022-07-19T06:00:43Z</time>
      </trkpt>
      <trkpt lat="44.23852" lon="7.11817">
        <ele>1924.2</ele>
        <time>2022-07-19T06:00:44Z</time>
      </trkpt>
      <trkpt lat="44.2385" lon="7.11816">
        <ele>1924.2</ele>
        <time>2022-07-19T06:00:45Z</time>
      </trkpt>
      <trkpt lat="44.23849" lon="7.11815">
        <ele>1924.2</ele>
        <time>2022-07-19T06:00:46Z</time>
      </trkpt>
      <trkpt lat="44.23847" lon="7.11815">
        <ele>1924.4</ele>
        <time>2022-07-19T06:00:47Z</time>
      </trkpt>
      <trkpt lat="44.23846" lon="7.11815">
        <ele>1924.4</ele>
        <time>2022-07-19T06:00:48Z</time>
      </trkpt>
      <trkpt lat="44.23844" lon="7.11815">
        <ele>1924.6</ele>
        <time>2022-07-19T06:00:49Z</time>
      </trkpt>
      <trkpt lat="44.23842" lon="7.11815">
        <ele>1924.6</ele>
        <time>2022-07-19T06:00:50Z</time>
      </trkpt>
      <trkpt lat="44.23841" lon="7.11815">
        <ele>1924.6</ele>
        <time>2022-07-19T06:00:51Z</time>
      </trkpt>
      <trkpt lat="44.2384" lon="7.11815">
        <ele>1925</ele>
        <time>2022-07-19T06:00:52Z</time>
      </trkpt>
      <trkpt lat="44.23838" lon="7.11816">
        <ele>1925</ele>
        <time>2022-07-19T06:00:53Z</time>
      </trkpt>
      <trkpt lat="44.23837" lon="7.11816">
        <ele>1925.4</ele>
        <time>2022-07-19T06:00:54Z</time>
      </trkpt>
      <trkpt lat="44.23836" lon="7.11815">
        <ele>1925.4</ele>
        <time>2022-07-19T06:00:55Z</time>
      </trkpt>
      <trkpt lat="44.23834" lon="7.11814">
        <ele>1925.6</ele>
        <time>2022-07-19T06:00:56Z</time>
      </trkpt>
      <trkpt lat="44.23833" lon="7.11812">
        <ele>1925.6</ele>
        <time>2022-07-19T06:00:57Z</time>
      </trkpt>
      <trkpt lat="44.23832" lon="7.11812">
        <ele>1926</ele>
        <time>2022-07-19T06:00:58Z</time>
      </trkpt>
      <trkpt lat="44.23831" lon="7.11812">
        <ele>1926</ele>
        <time>2022-07-19T06:00:59Z</time>
      </trkpt>
      <trkpt lat="44.2383" lon="7.11811">
        <ele>1926.2</ele>
        <time>2022-07-19T06:01:00Z</time>
      </trkpt>
      <trkpt lat="44.23828" lon="7.11811">
        <ele>1926.2</ele>
        <time>2022-07-19T06:01:01Z</time>
      </trkpt>
      <trkpt lat="44.23827" lon="7.1181">
        <ele>1926.2</ele>
        <time>2022-07-19T06:01:02Z</time>
      </trkpt>
      <trkpt lat="44.23825" lon="7.11809">
        <ele>1926.4</ele>
        <time>2022-07-19T06:01:03Z</time>
      </trkpt>
      <trkpt lat="44.23824" lon="7.11808">
        <ele>1926.4</ele>
        <time>2022-07-19T06:01:04Z</time>
      </trkpt>
      <trkpt lat="44.23823" lon="7.11807">
        <ele>1926.4</ele>
        <time>2022-07-19T06:01:05Z</time>
      </trkpt>
      <trkpt lat="44.23821" lon="7.11806">
        <ele>1926.8</ele>
        <time>2022-07-19T06:01:06Z</time>
      </trkpt>
      <trkpt lat="44.2382" lon="7.11805">
        <ele>1926.8</ele>
        <time>2022-07-19T06:01:07Z</time>
      </trkpt>
      <trkpt lat="44.23818" lon="7.11805">
        <ele>1926.8</ele>
        <time>2022-07-19T06:01:08Z</time>
      </trkpt>
      <trkpt lat="44.23817" lon="7.11804">
        <ele>1927</ele>
        <time>2022-07-19T06:01:09Z</time>
      </trkpt>
      <trkpt lat="44.23816" lon="7.11803">
        <ele>1927</ele>
        <time>2022-07-19T06:01:10Z</time>
      </trkpt>
      <trkpt lat="44.23815" lon="7.11803">
        <ele>1927.2</ele>
        <time>2022-07-19T06:01:11Z</time>
      </trkpt>
      <trkpt lat="44.23814" lon="7.11802">
        <ele>1927.2</ele>
        <time>2022-07-19T06:01:12Z</time>
      </trkpt>
      <trkpt lat="44.23813" lon="7.11802">
        <ele>1927.4</ele>
        <time>2022-07-19T06:01:13Z</time>
      </trkpt>
      <trkpt lat="44.23812" lon="7.11801">
        <ele>1927.4</ele>
        <time>2022-07-19T06:01:14Z</time>
      </trkpt>
      <trkpt lat="44.2381" lon="7.11801">
        <ele>1927.6</ele>
        <time>2022-07-19T06:01:15Z</time>
      </trkpt>
      <trkpt lat="44.23809" lon="7.118">
        <ele>1927.6</ele>
        <time>2022-07-19T06:01:16Z</time>
      </trkpt>
      <trkpt lat="44.23808" lon="7.118">
        <ele>1927.6</ele>
        <time>2022-07-19T06:01:17Z</time>
      </trkpt>
      <trkpt lat="44.23807" lon="7.11799">
        <ele>1928</ele>
        <time>2022-07-19T06:01:18Z</time>
      </trkpt>
      <trkpt lat="44.23806" lon="7.11799">
        <ele>1928</ele>
        <time>2022-07-19T06:01:19Z</time>
      </trkpt>
      <trkpt lat="44.23805" lon="7.11798">
        <ele>1928.2</ele>
        <time>2022-07-19T06:01:20Z</time>
      </trkpt>
      <trkpt lat="44.23803" lon="7.11797">
        <ele>1928.2</ele>
        <time>2022-07-19T06:01:21Z</time>
      </trkpt>
      <trkpt lat="44.23802" lon="7.11797">
        <ele>1928.4</ele>
        <time>2022-07-19T06:01:22Z</time>
      </trkpt>
      <trkpt lat="44.23801" lon="7.11796">
        <ele>1928.4</ele>
        <time>2022-07-19T06:01:23Z</time>
      </trkpt>
      <trkpt lat="44.238" lon="7.11794">
        <ele>1928.4</ele>
        <time>2022-07-19T06:01:24Z</time>
      </trkpt>
      <trkpt lat="44.23798" lon="7.11794">
        <ele>1928.6</ele>
        <time>2022-07-19T06:01:25Z</time>
      </trkpt>
      <trkpt lat="44.23797" lon="7.11793">
        <ele>1928.6</ele>
        <time>2022-07-19T06:01:26Z</time>
      </trkpt>
      <trkpt lat="44.23796" lon="7.11792">
        <ele>1928.6</ele>
        <time>2022-07-19T06:01:27Z</time>
      </trkpt>
      <trkpt lat="44.23794" lon="7.11791">
        <ele>1929</ele>
        <time>2022-07-19T06:01:28Z</time>
      </trkpt>
      <trkpt lat="44.23793" lon="7.11791">
        <ele>1929</ele>
        <time>2022-07-19T06:01:29Z</time>
      </trkpt>
      <trkpt lat="44.23792" lon="7.1179">
        <ele>1929.4</ele>
        <time>2022-07-19T06:01:30Z</time>
      </trkpt>
      <trkpt lat="44.23791" lon="7.1179">
        <ele>1929.4</ele>
        <time>2022-07-19T06:01:31Z</time>
      </trkpt>
      <trkpt lat="44.2379" lon="7.11789">
        <ele>1929.6</ele>
        <time>2022-07-19T06:01:32Z</time>
      </trkpt>
      <trkpt lat="44.23788" lon="7.11788">
        <ele>1929.8</ele>
        <time>2022-07-19T06:01:33Z</time>
      </trkpt>
      <trkpt lat="44.23787" lon="7.11788">
        <ele>1929.8</ele>
        <time>2022-07-19T06:01:34Z</time>
      </trkpt>
      <trkpt lat="44.23786" lon="7.11788">
        <ele>1930</ele>
        <time>2022-07-19T06:01:35Z</time>
      </trkpt>
      <trkpt lat="44.23785" lon="7.11787">
        <ele>1930</ele>
        <time>2022-07-19T06:01:36Z</time>
      </trkpt>
      <trkpt lat="44.23784" lon="7.11787">
        <ele>1930.2</ele>
        <time>2022-07-19T06:01:37Z</time>
      </trkpt>
      <trkpt lat="44.23783" lon="7.11786">
        <ele>1930.2</ele>
        <time>2022-07-19T06:01:38Z</time>
      </trkpt>
      <trkpt lat="44.23782" lon="7.11785">
        <ele>1930.8</ele>
        <time>2022-07-19T06:01:39Z</time>
      </trkpt>
      <trkpt lat="44.23781" lon="7.11785">
        <ele>1930.8</ele>
        <time>2022-07-19T06:01:40Z</time>
      </trkpt>
      <trkpt lat="44.2378" lon="7.11784">
        <ele>1931</ele>
        <time>2022-07-19T06:01:41Z</time>
      </trkpt>
      <trkpt lat="44.2378" lon="7.11784">
        <ele>1931.2</ele>
        <time>2022-07-19T06:01:42Z</time>
      </trkpt>
      <trkpt lat="44.23778" lon="7.11784">
        <ele>1931.4</ele>
        <time>2022-07-19T06:01:43Z</time>
      </trkpt>
      <trkpt lat="44.23777" lon="7.11783">
        <ele>1931.8</ele>
        <time>2022-07-19T06:01:44Z</time>
      </trkpt>
      <trkpt lat="44.23776" lon="7.11783">
        <ele>1931.8</ele>
        <time>2022-07-19T06:01:45Z</time>
      </trkpt>
      <trkpt lat="44.23775" lon="7.11782">
        <ele>1931.8</ele>
        <time>2022-07-19T06:01:46Z</time>
      </trkpt>
      <trkpt lat="44.23774" lon="7.11782">
        <ele>1932</ele>
        <time>2022-07-19T06:01:47Z</time>
      </trkpt>
      <trkpt lat="44.23773" lon="7.11781">
        <ele>1932</ele>
        <time>2022-07-19T06:01:48Z</time>
      </trkpt>
      <trkpt lat="44.23771" lon="7.11781">
        <ele>1932.4</ele>
        <time>2022-07-19T06:01:49Z</time>
      </trkpt>
      <trkpt lat="44.2377" lon="7.11781">
        <ele>1932.4</ele>
        <time>2022-07-19T06:01:50Z</time>
      </trkpt>
      <trkpt lat="44.23768" lon="7.11781">
        <ele>1932.6</ele>
        <time>2022-07-19T06:01:51Z</time>
      </trkpt>
      <trkpt lat="44.23767" lon="7.1178">
        <ele>1932.6</ele>
        <time>2022-07-19T06:01:52Z</time>
      </trkpt>
      <trkpt lat="44.23765" lon="7.1178">
        <ele>1932.8</ele>
        <time>2022-07-19T06:01:53Z</time>
      </trkpt>
      <trkpt lat="44.23763" lon="7.1178">
        <ele>1932.8</ele>
        <time>2022-07-19T06:01:54Z</time>
      </trkpt>
      <trkpt lat="44.23761" lon="7.1178">
        <ele>1933</ele>
        <time>2022-07-19T06:01:55Z</time>
      </trkpt>
      <trkpt lat="44.2376" lon="7.1178">
        <ele>1933</ele>
        <time>2022-07-19T06:01:56Z</time>
      </trkpt>
      <trkpt lat="44.23758" lon="7.11779">
        <ele>1933.4</ele>
        <time>2022-07-19T06:01:57Z</time>
      </trkpt>
      <trkpt lat="44.23756" lon="7.11778">
        <ele>1933.4</ele>
        <time>2022-07-19T06:01:58Z</time>
      </trkpt>
      <trkpt lat="44.23754" lon="7.11778">
        <ele>1933.6</ele>
        <time>2022-07-19T06:01:59Z</time>
      </trkpt>
      <trkpt lat="44.23753" lon="7.11779">
        <ele>1933.6</ele>
        <time>2022-07-19T06:02:00Z</time>
      </trkpt>
      <trkpt lat="44.23751" lon="7.11779">
        <ele>1934</ele>
        <time>2022-07-19T06:02:01Z</time>
      </trkpt>
      <trkpt lat="44.23749" lon="7.11778">
        <ele>1934.2</ele>
        <time>2022-07-19T06:02:02Z</time>
      </trkpt>
      <trkpt lat="44.23748" lon="7.11777">
        <ele>1934.2</ele>
        <time>2022-07-19T06:02:03Z</time>
      </trkpt>
      <trkpt lat="44.23746" lon="7.11777">
        <ele>1934.6</ele>
        <time>2022-07-19T06:02:04Z</time>
      </trkpt>
      <trkpt lat="44.23745" lon="7.11776">
        <ele>1934.6</ele>
        <time>2022-07-19T06:02:05Z</time>
      </trkpt>
      <trkpt lat="44.23743" lon="7.11776">
        <ele>1934.6</ele>
        <time>2022-07-19T06:02:06Z</time>
      </trkpt>
      <trkpt lat="44.23741" lon="7.11775">
        <ele>1934.8</ele>
        <time>2022-07-19T06:02:07Z</time>
      </trkpt>
      <trkpt lat="44.23739" lon="7.11774">
        <ele>1934.8</ele>
        <time>2022-07-19T06:02:08Z</time>
      </trkpt>
      <trkpt lat="44.23737" lon="7.11773">
        <ele>1934.8</ele>
        <time>2022-07-19T06:02:09Z</time>
      </trkpt>
      <trkpt lat="44.23736" lon="7.11772">
        <ele>1935.2</ele>
        <time>2022-07-19T06:02:10Z</time>
      </trkpt>
      <trkpt lat="44.23734" lon="7.11772">
        <ele>1935.2</ele>
        <time>2022-07-19T06:02:11Z</time>
      </trkpt>
      <trkpt lat="44.23732" lon="7.11771">
        <ele>1935.6</ele>
        <time>2022-07-19T06:02:12Z</time>
      </trkpt>
      <trkpt lat="44.23731" lon="7.1177">
        <ele>1935.6</ele>
        <time>2022-07-19T06:02:13Z</time>
      </trkpt>
      <trkpt lat="44.23729" lon="7.1177">
        <ele>1935.6</ele>
        <time>2022-07-19T06:02:14Z</time>
      </trkpt>
      <trkpt lat="44.23727" lon="7.11769">
        <ele>1936</ele>
        <time>2022-07-19T06:02:15Z</time>
      </trkpt>
      <trkpt lat="44.23725" lon="7.11768">
        <ele>1936.2</ele>
        <time>2022-07-19T06:02:16Z</time>
      </trkpt>
      <trkpt lat="44.23724" lon="7.11768">
        <ele>1936.2</ele>
        <time>2022-07-19T06:02:17Z</time>
      </trkpt>
      <trkpt lat="44.23722" lon="7.11768">
        <ele>1936.4</ele>
        <time>2022-07-19T06:02:18Z</time>
      </trkpt>
      <trkpt lat="44.2372" lon="7.11767">
        <ele>1936.6</ele>
        <time>2022-07-19T06:02:19Z</time>
      </trkpt>
      <trkpt lat="44.23719" lon="7.11766">
        <ele>1936.6</ele>
        <time>2022-07-19T06:02:20Z</time>
      </trkpt>
      <trkpt lat="44.23717" lon="7.11766">
        <ele>1937</ele>
        <time>2022-07-19T06:02:21Z</time>
      </trkpt>
      <trkpt lat="44.23715" lon="7.11765">
        <ele>1937</ele>
        <time>2022-07-19T06:02:22Z</time>
      </trkpt>
      <trkpt lat="44.23714" lon="7.11765">
        <ele>1937.2</ele>
        <time>2022-07-19T06:02:23Z</time>
      </trkpt>
      <trkpt lat="44.23712" lon="7.11763">
        <ele>1937.2</ele>
        <time>2022-07-19T06:02:24Z</time>
      </trkpt>
      <trkpt lat="44.2371" lon="7.11762">
        <ele>1937.6</ele>
        <time>2022-07-19T06:02:25Z</time>
      </trkpt>
      <trkpt lat="44.23709" lon="7.11761">
        <ele>1937.6</ele>
        <time>2022-07-19T06:02:26Z</time>
      </trkpt>
      <trkpt lat="44.23707" lon="7.1176">
        <ele>1937.8</ele>
        <time>2022-07-19T06:02:27Z</time>
      </trkpt>
      <trkpt lat="44.23706" lon="7.11759">
        <ele>1937.8</ele>
        <time>2022-07-19T06:02:28Z</time>
      </trkpt>
      <trkpt lat="44.23704" lon="7.11758">
        <ele>1938</ele>
        <time>2022-07-19T06:02:29Z</time>
      </trkpt>
      <trkpt lat="44.23703" lon="7.11757">
        <ele>1938</ele>
        <time>2022-07-19T06:02:30Z</time>
      </trkpt>
      <trkpt lat="44.23701" lon="7.11756">
        <ele>1938.2</ele>
        <time>2022-07-19T06:02:31Z</time>
      </trkpt>
      <trkpt lat="44.23699" lon="7.11755">
        <ele>1938.2</ele>
        <time>2022-07-19T06:02:32Z</time>
      </trkpt>
      <trkpt lat="44.23698" lon="7.11754">
        <ele>1938.4</ele>
        <time>2022-07-19T06:02:33Z</time>
      </trkpt>
      <trkpt lat="44.23696" lon="7.11753">
        <ele>1938.4</ele>
        <time>2022-07-19T06:02:34Z</time>
      </trkpt>
      <trkpt lat="44.23694" lon="7.11752">
        <ele>1938.8</ele>
        <time>2022-07-19T06:02:35Z</time>
      </trkpt>
      <trkpt lat="44.23692" lon="7.11751">
        <ele>1939</ele>
        <time>2022-07-19T06:02:36Z</time>
      </trkpt>
      <trkpt lat="44.2369" lon="7.1175">
        <ele>1939</ele>
        <time>2022-07-19T06:02:37Z</time>
      </trkpt>
      <trkpt lat="44.23688" lon="7.11748">
        <ele>1939.4</ele>
        <time>2022-07-19T06:02:38Z</time>
      </trkpt>
      <trkpt lat="44.23687" lon="7.11747">
        <ele>1939.6</ele>
        <time>2022-07-19T06:02:39Z</time>
      </trkpt>
      <trkpt lat="44.23685" lon="7.11746">
        <ele>1939.6</ele>
        <time>2022-07-19T06:02:40Z</time>
      </trkpt>
      <trkpt lat="44.23684" lon="7.11745">
        <ele>1940</ele>
        <time>2022-07-19T06:02:41Z</time>
      </trkpt>
      <trkpt lat="44.23682" lon="7.11744">
        <ele>1940</ele>
        <time>2022-07-19T06:02:42Z</time>
      </trkpt>
      <trkpt lat="44.23681" lon="7.11743">
        <ele>1940.2</ele>
        <time>2022-07-19T06:02:43Z</time>
      </trkpt>
      <trkpt lat="44.2368" lon="7.11742">
        <ele>1940.2</ele>
        <time>2022-07-19T06:02:44Z</time>
      </trkpt>
      <trkpt lat="44.23679" lon="7.11741">
        <ele>1940.6</ele>
        <time>2022-07-19T06:02:45Z</time>
      </trkpt>
      <trkpt lat="44.23677" lon="7.11739">
        <ele>1940.6</ele>
        <time>2022-07-19T06:02:46Z</time>
      </trkpt>
      <trkpt lat="44.23676" lon="7.11737">
        <ele>1941</ele>
        <time>2022-07-19T06:02:47Z</time>
      </trkpt>
      <trkpt lat="44.23675" lon="7.11736">
        <ele>1941.2</ele>
        <time>2022-07-19T06:02:48Z</time>
      </trkpt>
      <trkpt lat="44.23673" lon="7.11734">
        <ele>1941.2</ele>
        <time>2022-07-19T06:02:49Z</time>
      </trkpt>
      <trkpt lat="44.23671" lon="7.11734">
        <ele>1941.6</ele>
        <time>2022-07-19T06:02:50Z</time>
      </trkpt>
      <trkpt lat="44.2367" lon="7.11733">
        <ele>1941.6</ele>
        <time>2022-07-19T06:02:51Z</time>
      </trkpt>
      <trkpt lat="44.23668" lon="7.11732">
        <ele>1941.8</ele>
        <time>2022-07-19T06:02:52Z</time>
      </trkpt>
      <trkpt lat="44.23666" lon="7.11732">
        <ele>1941.8</ele>
        <time>2022-07-19T06:02:53Z</time>
      </trkpt>
      <trkpt lat="44.23664" lon="7.11731">
        <ele>1942</ele>
        <time>2022-07-19T06:02:54Z</time>
      </trkpt>
      <trkpt lat="44.23663" lon="7.1173">
        <ele>1942</ele>
        <time>2022-07-19T06:02:55Z</time>
      </trkpt>
      <trkpt lat="44.23661" lon="7.11729">
        <ele>1942.4</ele>
        <time>2022-07-19T06:02:56Z</time>
      </trkpt>
      <trkpt lat="44.2366" lon="7.11729">
        <ele>1942.4</ele>
        <time>2022-07-19T06:02:57Z</time>
      </trkpt>
      <trkpt lat="44.23659" lon="7.11728">
        <ele>1942.6</ele>
        <time>2022-07-19T06:02:58Z</time>
      </trkpt>
      <trkpt lat="44.23658" lon="7.11726">
        <ele>1942.6</ele>
        <time>2022-07-19T06:02:59Z</time>
      </trkpt>
      <trkpt lat="44.23656" lon="7.11725">
        <ele>1943</ele>
        <time>2022-07-19T06:03:00Z</time>
      </trkpt>
      <trkpt lat="44.23655" lon="7.11724">
        <ele>1943</ele>
        <time>2022-07-19T06:03:01Z</time>
      </trkpt>
      <trkpt lat="44.23654" lon="7.11723">
        <ele>1943.2</ele>
        <time>2022-07-19T06:03:02Z</time>
      </trkpt>
      <trkpt lat="44.23653" lon="7.11722">
        <ele>1943.2</ele>
        <time>2022-07-19T06:03:03Z</time>
      </trkpt>
      <trkpt lat="44.23652" lon="7.11722">
        <ele>1943.4</ele>
        <time>2022-07-19T06:03:04Z</time>
      </trkpt>
      <trkpt lat="44.2365" lon="7.11721">
        <ele>1943.4</ele>
        <time>2022-07-19T06:03:05Z</time>
      </trkpt>
      <trkpt lat="44.23649" lon="7.11721">
        <ele>1943.8</ele>
        <time>2022-07-19T06:03:06Z</time>
      </trkpt>
      <trkpt lat="44.23648" lon="7.1172">
        <ele>1944</ele>
        <time>2022-07-19T06:03:07Z</time>
      </trkpt>
      <trkpt lat="44.23646" lon="7.11719">
        <ele>1944.2</ele>
        <time>2022-07-19T06:03:08Z</time>
      </trkpt>
      <trkpt lat="44.23645" lon="7.11718">
        <ele>1944.2</ele>
        <time>2022-07-19T06:03:09Z</time>
      </trkpt>
      <trkpt lat="44.23643" lon="7.11717">
        <ele>1944.4</ele>
        <time>2022-07-19T06:03:10Z</time>
      </trkpt>
      <trkpt lat="44.23642" lon="7.11716">
        <ele>1944.4</ele>
        <time>2022-07-19T06:03:11Z</time>
      </trkpt>
      <trkpt lat="44.23641" lon="7.11716">
        <ele>1944.4</ele>
        <time>2022-07-19T06:03:12Z</time>
      </trkpt>
      <trkpt lat="44.23639" lon="7.11715">
        <ele>1944.8</ele>
        <time>2022-07-19T06:03:13Z</time>
      </trkpt>
      <trkpt lat="44.23638" lon="7.11714">
        <ele>1944.8</ele>
        <time>2022-07-19T06:03:14Z</time>
      </trkpt>
      <trkpt lat="44.23637" lon="7.11713">
        <ele>1945</ele>
        <time>2022-07-19T06:03:15Z</time>
      </trkpt>
      <trkpt lat="44.23636" lon="7.11712">
        <ele>1945</ele>
        <time>2022-07-19T06:03:16Z</time>
      </trkpt>
      <trkpt lat="44.23635" lon="7.11711">
        <ele>1945.2</ele>
        <time>2022-07-19T06:03:17Z</time>
      </trkpt>
      <trkpt lat="44.23633" lon="7.1171">
        <ele>1945.2</ele>
        <time>2022-07-19T06:03:18Z</time>
      </trkpt>
      <trkpt lat="44.23632" lon="7.11709">
        <ele>1945.6</ele>
        <time>2022-07-19T06:03:19Z</time>
      </trkpt>
      <trkpt lat="44.23631" lon="7.11708">
        <ele>1945.6</ele>
        <time>2022-07-19T06:03:20Z</time>
      </trkpt>
      <trkpt lat="44.23629" lon="7.11707">
        <ele>1945.8</ele>
        <time>2022-07-19T06:03:21Z</time>
      </trkpt>
      <trkpt lat="44.23628" lon="7.11706">
        <ele>1945.8</ele>
        <time>2022-07-19T06:03:22Z</time>
      </trkpt>
      <trkpt lat="44.23627" lon="7.11705">
        <ele>1946</ele>
        <time>2022-07-19T06:03:23Z</time>
      </trkpt>
      <trkpt lat="44.23626" lon="7.11704">
        <ele>1946</ele>
        <time>2022-07-19T06:03:24Z</time>
      </trkpt>
      <trkpt lat="44.23624" lon="7.11704">
        <ele>1946.2</ele>
        <time>2022-07-19T06:03:25Z</time>
      </trkpt>
      <trkpt lat="44.23623" lon="7.11703">
        <ele>1946.2</ele>
        <time>2022-07-19T06:03:26Z</time>
      </trkpt>
      <trkpt lat="44.23622" lon="7.11702">
        <ele>1946.6</ele>
        <time>2022-07-19T06:03:27Z</time>
      </trkpt>
      <trkpt lat="44.23621" lon="7.11701">
        <ele>1946.6</ele>
        <time>2022-07-19T06:03:28Z</time>
      </trkpt>
      <trkpt lat="44.23619" lon="7.117">
        <ele>1947</ele>
        <time>2022-07-19T06:03:29Z</time>
      </trkpt>
      <trkpt lat="44.23618" lon="7.11699">
        <ele>1947</ele>
        <time>2022-07-19T06:03:30Z</time>
      </trkpt>
      <trkpt lat="44.23617" lon="7.11698">
        <ele>1947.2</ele>
        <time>2022-07-19T06:03:31Z</time>
      </trkpt>
      <trkpt lat="44.23616" lon="7.11696">
        <ele>1947.2</ele>
        <time>2022-07-19T06:03:32Z</time>
      </trkpt>
      <trkpt lat="44.23615" lon="7.11695">
        <ele>1947.4</ele>
        <time>2022-07-19T06:03:33Z</time>
      </trkpt>
      <trkpt lat="44.23615" lon="7.11694">
        <ele>1947.4</ele>
        <time>2022-07-19T06:03:34Z</time>
      </trkpt>
      <trkpt lat="44.23613" lon="7.11693">
        <ele>1947.4</ele>
        <time>2022-07-19T06:03:35Z</time>
      </trkpt>
      <trkpt lat="44.23612" lon="7.11692">
        <ele>1947.8</ele>
        <time>2022-07-19T06:03:36Z</time>
      </trkpt>
      <trkpt lat="44.23611" lon="7.11691">
        <ele>1948</ele>
        <time>2022-07-19T06:03:37Z</time>
      </trkpt>
      <trkpt lat="44.2361" lon="7.1169">
        <ele>1948</ele>
        <time>2022-07-19T06:03:38Z</time>
      </trkpt>
      <trkpt lat="44.23609" lon="7.11689">
        <ele>1948.2</ele>
        <time>2022-07-19T06:03:39Z</time>
      </trkpt>
      <trkpt lat="44.23608" lon="7.11688">
        <ele>1948.6</ele>
        <time>2022-07-19T06:03:40Z</time>
      </trkpt>
      <trkpt lat="44.23606" lon="7.11688">
        <ele>1948.6</ele>
        <time>2022-07-19T06:03:41Z</time>
      </trkpt>
      <trkpt lat="44.23605" lon="7.11687">
        <ele>1948.8</ele>
        <time>2022-07-19T06:03:42Z</time>
      </trkpt>
      <trkpt lat="44.23604" lon="7.11686">
        <ele>1948.8</ele>
        <time>2022-07-19T06:03:43Z</time>
      </trkpt>
      <trkpt lat="44.23603" lon="7.11685">
        <ele>1948.8</ele>
        <time>2022-07-19T06:03:44Z</time>
      </trkpt>
      <trkpt lat="44.23601" lon="7.11683">
        <ele>1949</ele>
        <time>2022-07-19T06:03:45Z</time>
      </trkpt>
      <trkpt lat="44.236" lon="7.11682">
        <ele>1949</ele>
        <time>2022-07-19T06:03:46Z</time>
      </trkpt>
      <trkpt lat="44.23599" lon="7.11681">
        <ele>1949.2</ele>
        <time>2022-07-19T06:03:47Z</time>
      </trkpt>
      <trkpt lat="44.23597" lon="7.1168">
        <ele>1949.2</ele>
        <time>2022-07-19T06:03:48Z</time>
      </trkpt>
      <trkpt lat="44.23595" lon="7.11679">
        <ele>1949.2</ele>
        <time>2022-07-19T06:03:49Z</time>
      </trkpt>
      <trkpt lat="44.23594" lon="7.11679">
        <ele>1949.8</ele>
        <time>2022-07-19T06:03:50Z</time>
      </trkpt>
      <trkpt lat="44.23593" lon="7.11678">
        <ele>1949.8</ele>
        <time>2022-07-19T06:03:51Z</time>
      </trkpt>
      <trkpt lat="44.23592" lon="7.11678">
        <ele>1950</ele>
        <time>2022-07-19T06:03:52Z</time>
      </trkpt>
      <trkpt lat="44.2359" lon="7.11677">
        <ele>1950</ele>
        <time>2022-07-19T06:03:53Z</time>
      </trkpt>
      <trkpt lat="44.23589" lon="7.11677">
        <ele>1950.2</ele>
        <time>2022-07-19T06:03:54Z</time>
      </trkpt>
      <trkpt lat="44.23588" lon="7.11676">
        <ele>1950.2</ele>
        <time>2022-07-19T06:03:55Z</time>
      </trkpt>
      <trkpt lat="44.23587" lon="7.11676">
        <ele>1950.6</ele>
        <time>2022-07-19T06:03:56Z</time>
      </trkpt>
      <trkpt lat="44.23586" lon="7.11675">
        <ele>1950.6</ele>
        <time>2022-07-19T06:03:57Z</time>
      </trkpt>
      <trkpt lat="44.23584" lon="7.11675">
        <ele>1950.8</ele>
        <time>2022-07-19T06:03:58Z</time>
      </trkpt>
      <trkpt lat="44.23583" lon="7.11674">
        <ele>1950.8</ele>
        <time>2022-07-19T06:03:59Z</time>
      </trkpt>
      <trkpt lat="44.23582" lon="7.11674">
        <ele>1951</ele>
        <time>2022-07-19T06:04:00Z</time>
      </trkpt>
      <trkpt lat="44.23581" lon="7.11673">
        <ele>1951</ele>
        <time>2022-07-19T06:04:01Z</time>
      </trkpt>
      <trkpt lat="44.2358" lon="7.11672">
        <ele>1951</ele>
        <time>2022-07-19T06:04:02Z</time>
      </trkpt>
      <trkpt lat="44.23578" lon="7.11672">
        <ele>1951.4</ele>
        <time>2022-07-19T06:04:03Z</time>
      </trkpt>
      <trkpt lat="44.23577" lon="7.11671">
        <ele>1951.4</ele>
        <time>2022-07-19T06:04:04Z</time>
      </trkpt>
      <trkpt lat="44.23576" lon="7.11671">
        <ele>1951.8</ele>
        <time>2022-07-19T06:04:05Z</time>
      </trkpt>
      <trkpt lat="44.23575" lon="7.1167">
        <ele>1951.8</ele>
        <time>2022-07-19T06:04:06Z</time>
      </trkpt>
      <trkpt lat="44.23574" lon="7.1167">
        <ele>1951.8</ele>
        <time>2022-07-19T06:04:07Z</time>
      </trkpt>
      <trkpt lat="44.23572" lon="7.11669">
        <ele>1952.2</ele>
        <time>2022-07-19T06:04:08Z</time>
      </trkpt>
      <trkpt lat="44.23571" lon="7.11669">
        <ele>1952.2</ele>
        <time>2022-07-19T06:04:09Z</time>
      </trkpt>
      <trkpt lat="44.2357" lon="7.11668">
        <ele>1952.6</ele>
        <time>2022-07-19T06:04:10Z</time>
      </trkpt>
      <trkpt lat="44.23569" lon="7.11668">
        <ele>1952.6</ele>
        <time>2022-07-19T06:04:11Z</time>
      </trkpt>
      <trkpt lat="44.23568" lon="7.11667">
        <ele>1952.8</ele>
        <time>2022-07-19T06:04:12Z</time>
      </trkpt>
      <trkpt lat="44.23566" lon="7.11667">
        <ele>1952.8</ele>
        <time>2022-07-19T06:04:13Z</time>
      </trkpt>
      <trkpt lat="44.23565" lon="7.11666">
        <ele>1953.2</ele>
        <time>2022-07-19T06:04:14Z</time>
      </trkpt>
      <trkpt lat="44.23564" lon="7.11666">
        <ele>1953.2</ele>
        <time>2022-07-19T06:04:15Z</time>
      </trkpt>
      <trkpt lat="44.23563" lon="7.11665">
        <ele>1953.4</ele>
        <time>2022-07-19T06:04:16Z</time>
      </trkpt>
      <trkpt lat="44.23562" lon="7.11665">
        <ele>1953.4</ele>
        <time>2022-07-19T06:04:17Z</time>
      </trkpt>
      <trkpt lat="44.2356" lon="7.11664">
        <ele>1953.8</ele>
        <time>2022-07-19T06:04:18Z</time>
      </trkpt>
      <trkpt lat="44.23559" lon="7.11664">
        <ele>1953.8</ele>
        <time>2022-07-19T06:04:19Z</time>
      </trkpt>
      <trkpt lat="44.23558" lon="7.11663">
        <ele>1954.2</ele>
        <time>2022-07-19T06:04:20Z</time>
      </trkpt>
      <trkpt lat="44.23557" lon="7.11663">
        <ele>1954.2</ele>
        <time>2022-07-19T06:04:21Z</time>
      </trkpt>
      <trkpt lat="44.23556" lon="7.11662">
        <ele>1954.4</ele>
        <time>2022-07-19T06:04:22Z</time>
      </trkpt>
      <trkpt lat="44.23554" lon="7.11661">
        <ele>1954.4</ele>
        <time>2022-07-19T06:04:23Z</time>
      </trkpt>
      <trkpt lat="44.23553" lon="7.11661">
        <ele>1954.8</ele>
        <time>2022-07-19T06:04:24Z</time>
      </trkpt>
      <trkpt lat="44.23552" lon="7.1166">
        <ele>1955</ele>
        <time>2022-07-19T06:04:25Z</time>
      </trkpt>
      <trkpt lat="44.23551" lon="7.1166">
        <ele>1955.2</ele>
        <time>2022-07-19T06:04:26Z</time>
      </trkpt>
      <trkpt lat="44.2355" lon="7.11659">
        <ele>1955.2</ele>
        <time>2022-07-19T06:04:27Z</time>
      </trkpt>
      <trkpt lat="44.23548" lon="7.11659">
        <ele>1955.6</ele>
        <time>2022-07-19T06:04:28Z</time>
      </trkpt>
      <trkpt lat="44.23547" lon="7.11658">
        <ele>1955.6</ele>
        <time>2022-07-19T06:04:29Z</time>
      </trkpt>
      <trkpt lat="44.23546" lon="7.11658">
        <ele>1955.8</ele>
        <time>2022-07-19T06:04:30Z</time>
      </trkpt>
      <trkpt lat="44.23545" lon="7.11657">
        <ele>1955.8</ele>
        <time>2022-07-19T06:04:31Z</time>
      </trkpt>
      <trkpt lat="44.23543" lon="7.11657">
        <ele>1956.2</ele>
        <time>2022-07-19T06:04:32Z</time>
      </trkpt>
      <trkpt lat="44.23542" lon="7.11656">
        <ele>1956.2</ele>
        <time>2022-07-19T06:04:33Z</time>
      </trkpt>
      <trkpt lat="44.23541" lon="7.11656">
        <ele>1956.4</ele>
        <time>2022-07-19T06:04:34Z</time>
      </trkpt>
      <trkpt lat="44.2354" lon="7.11655">
        <ele>1956.4</ele>
        <time>2022-07-19T06:04:35Z</time>
      </trkpt>
      <trkpt lat="44.23539" lon="7.11655">
        <ele>1956.6</ele>
        <time>2022-07-19T06:04:36Z</time>
      </trkpt>
      <trkpt lat="44.23537" lon="7.11654">
        <ele>1956.6</ele>
        <time>2022-07-19T06:04:37Z</time>
      </trkpt>
      <trkpt lat="44.23536" lon="7.11654">
        <ele>1957</ele>
        <time>2022-07-19T06:04:38Z</time>
      </trkpt>
      <trkpt lat="44.23535" lon="7.11653">
        <ele>1957</ele>
        <time>2022-07-19T06:04:39Z</time>
      </trkpt>
      <trkpt lat="44.23534" lon="7.11652">
        <ele>1957.2</ele>
        <time>2022-07-19T06:04:40Z</time>
      </trkpt>
      <trkpt lat="44.23532" lon="7.11651">
        <ele>1957.2</ele>
        <time>2022-07-19T06:04:41Z</time>
      </trkpt>
      <trkpt lat="44.23529" lon="7.11651">
        <ele>1957.4</ele>
        <time>2022-07-19T06:04:42Z</time>
      </trkpt>
      <trkpt lat="44.23528" lon="7.11651">
        <ele>1957.4</ele>
        <time>2022-07-19T06:04:43Z</time>
      </trkpt>
      <trkpt lat="44.23526" lon="7.1165">
        <ele>1957.8</ele>
        <time>2022-07-19T06:04:44Z</time>
      </trkpt>
      <trkpt lat="44.23524" lon="7.11649">
        <ele>1957.8</ele>
        <time>2022-07-19T06:04:45Z</time>
      </trkpt>
      <trkpt lat="44.23523" lon="7.11649">
        <ele>1958</ele>
        <time>2022-07-19T06:04:46Z</time>
      </trkpt>
      <trkpt lat="44.23522" lon="7.11649">
        <ele>1958</ele>
        <time>2022-07-19T06:04:47Z</time>
      </trkpt>
      <trkpt lat="44.2352" lon="7.11649">
        <ele>1958.4</ele>
        <time>2022-07-19T06:04:48Z</time>
      </trkpt>
      <trkpt lat="44.23519" lon="7.11648">
        <ele>1958.4</ele>
        <time>2022-07-19T06:04:49Z</time>
      </trkpt>
      <trkpt lat="44.23518" lon="7.11647">
        <ele>1958.8</ele>
        <time>2022-07-19T06:04:50Z</time>
      </trkpt>
      <trkpt lat="44.23517" lon="7.11646">
        <ele>1958.8</ele>
        <time>2022-07-19T06:04:51Z</time>
      </trkpt>
      <trkpt lat="44.23516" lon="7.11645">
        <ele>1959</ele>
        <time>2022-07-19T06:04:52Z</time>
      </trkpt>
      <trkpt lat="44.23515" lon="7.11644">
        <ele>1959</ele>
        <time>2022-07-19T06:04:53Z</time>
      </trkpt>
      <trkpt lat="44.23514" lon="7.11643">
        <ele>1959.4</ele>
        <time>2022-07-19T06:04:54Z</time>
      </trkpt>
      <trkpt lat="44.23512" lon="7.11642">
        <ele>1959.4</ele>
        <time>2022-07-19T06:04:55Z</time>
      </trkpt>
      <trkpt lat="44.23511" lon="7.11641">
        <ele>1959.8</ele>
        <time>2022-07-19T06:04:56Z</time>
      </trkpt>
      <trkpt lat="44.2351" lon="7.1164">
        <ele>1959.8</ele>
        <time>2022-07-19T06:04:57Z</time>
      </trkpt>
      <trkpt lat="44.23509" lon="7.1164">
        <ele>1960.2</ele>
        <time>2022-07-19T06:04:58Z</time>
      </trkpt>
      <trkpt lat="44.23508" lon="7.11639">
        <ele>1960.2</ele>
        <time>2022-07-19T06:04:59Z</time>
      </trkpt>
      <trkpt lat="44.23507" lon="7.11638">
        <ele>1960.6</ele>
        <time>2022-07-19T06:05:00Z</time>
      </trkpt>
      <trkpt lat="44.23506" lon="7.11638">
        <ele>1960.6</ele>
        <time>2022-07-19T06:05:01Z</time>
      </trkpt>
      <trkpt lat="44.23504" lon="7.11637">
        <ele>1960.8</ele>
        <time>2022-07-19T06:05:02Z</time>
      </trkpt>
      <trkpt lat="44.23503" lon="7.11637">
        <ele>1960.8</ele>
        <time>2022-07-19T06:05:03Z</time>
      </trkpt>
      <trkpt lat="44.23502" lon="7.11637">
        <ele>1961.2</ele>
        <time>2022-07-19T06:05:04Z</time>
      </trkpt>
      <trkpt lat="44.23501" lon="7.11636">
        <ele>1961.2</ele>
        <time>2022-07-19T06:05:05Z</time>
      </trkpt>
      <trkpt lat="44.235" lon="7.11635">
        <ele>1961.4</ele>
        <time>2022-07-19T06:05:06Z</time>
      </trkpt>
      <trkpt lat="44.23499" lon="7.11635">
        <ele>1961.4</ele>
        <time>2022-07-19T06:05:07Z</time>
      </trkpt>
      <trkpt lat="44.23497" lon="7.11634">
        <ele>1961.6</ele>
        <time>2022-07-19T06:05:08Z</time>
      </trkpt>
      <trkpt lat="44.23496" lon="7.11633">
        <ele>1961.6</ele>
        <time>2022-07-19T06:05:09Z</time>
      </trkpt>
      <trkpt lat="44.23495" lon="7.11633">
        <ele>1961.6</ele>
        <time>2022-07-19T06:05:10Z</time>
      </trkpt>
      <trkpt lat="44.23494" lon="7.11632">
        <ele>1962</ele>
        <time>2022-07-19T06:05:11Z</time>
      </trkpt>
      <trkpt lat="44.23493" lon="7.11632">
        <ele>1962</ele>
        <time>2022-07-19T06:05:12Z</time>
      </trkpt>
      <trkpt lat="44.23492" lon="7.11631">
        <ele>1962.4</ele>
        <time>2022-07-19T06:05:13Z</time>
      </trkpt>
      <trkpt lat="44.2349" lon="7.11631">
        <ele>1962.4</ele>
        <time>2022-07-19T06:05:14Z</time>
      </trkpt>
      <trkpt lat="44.23489" lon="7.11631">
        <ele>1962.8</ele>
        <time>2022-07-19T06:05:15Z</time>
      </trkpt>
      <trkpt lat="44.23488" lon="7.1163">
        <ele>1962.8</ele>
        <time>2022-07-19T06:05:16Z</time>
      </trkpt>
      <trkpt lat="44.23487" lon="7.11629">
        <ele>1963.2</ele>
        <time>2022-07-19T06:05:17Z</time>
      </trkpt>
      <trkpt lat="44.23485" lon="7.11629">
        <ele>1963.2</ele>
        <time>2022-07-19T06:05:18Z</time>
      </trkpt>
      <trkpt lat="44.23484" lon="7.11628">
        <ele>1963.4</ele>
        <time>2022-07-19T06:05:19Z</time>
      </trkpt>
      <trkpt lat="44.23483" lon="7.11628">
        <ele>1963.4</ele>
        <time>2022-07-19T06:05:20Z</time>
      </trkpt>
      <trkpt lat="44.23481" lon="7.11628">
        <ele>1963.8</ele>
        <time>2022-07-19T06:05:21Z</time>
      </trkpt>
      <trkpt lat="44.2348" lon="7.11628">
        <ele>1963.8</ele>
        <time>2022-07-19T06:05:22Z</time>
      </trkpt>
      <trkpt lat="44.23478" lon="7.11628">
        <ele>1964.2</ele>
        <time>2022-07-19T06:05:23Z</time>
      </trkpt>
      <trkpt lat="44.23477" lon="7.11628">
        <ele>1964.2</ele>
        <time>2022-07-19T06:05:24Z</time>
      </trkpt>
      <trkpt lat="44.23475" lon="7.11627">
        <ele>1964.4</ele>
        <time>2022-07-19T06:05:25Z</time>
      </trkpt>
      <trkpt lat="44.23474" lon="7.11627">
        <ele>1964.6</ele>
        <time>2022-07-19T06:05:26Z</time>
      </trkpt>
      <trkpt lat="44.23473" lon="7.11628">
        <ele>1964.6</ele>
        <time>2022-07-19T06:05:27Z</time>
      </trkpt>
      <trkpt lat="44.23471" lon="7.11628">
        <ele>1965</ele>
        <time>2022-07-19T06:05:28Z</time>
      </trkpt>
      <trkpt lat="44.2347" lon="7.11628">
        <ele>1965</ele>
        <time>2022-07-19T06:05:29Z</time>
      </trkpt>
      <trkpt lat="44.23468" lon="7.11629">
        <ele>1965</ele>
        <time>2022-07-19T06:05:30Z</time>
      </trkpt>
      <trkpt lat="44.23467" lon="7.11629">
        <ele>1965.2</ele>
        <time>2022-07-19T06:05:31Z</time>
      </trkpt>
      <trkpt lat="44.23465" lon="7.11629">
        <ele>1965.2</ele>
        <time>2022-07-19T06:05:32Z</time>
      </trkpt>
      <trkpt lat="44.23464" lon="7.1163">
        <ele>1965.6</ele>
        <time>2022-07-19T06:05:33Z</time>
      </trkpt>
      <trkpt lat="44.23463" lon="7.1163">
        <ele>1965.6</ele>
        <time>2022-07-19T06:05:34Z</time>
      </trkpt>
      <trkpt lat="44.23461" lon="7.1163">
        <ele>1965.6</ele>
        <time>2022-07-19T06:05:35Z</time>
      </trkpt>
      <trkpt lat="44.2346" lon="7.1163">
        <ele>1965.8</ele>
        <time>2022-07-19T06:05:36Z</time>
      </trkpt>
      <trkpt lat="44.23459" lon="7.1163">
        <ele>1965.8</ele>
        <time>2022-07-19T06:05:37Z</time>
      </trkpt>
      <trkpt lat="44.23457" lon="7.1163">
        <ele>1966.2</ele>
        <time>2022-07-19T06:05:38Z</time>
      </trkpt>
      <trkpt lat="44.23456" lon="7.11631">
        <ele>1966.4</ele>
        <time>2022-07-19T06:05:39Z</time>
      </trkpt>
      <trkpt lat="44.23455" lon="7.11631">
        <ele>1966.4</ele>
        <time>2022-07-19T06:05:40Z</time>
      </trkpt>
      <trkpt lat="44.23453" lon="7.11632">
        <ele>1966.8</ele>
        <time>2022-07-19T06:05:41Z</time>
      </trkpt>
      <trkpt lat="44.23452" lon="7.11633">
        <ele>1966.8</ele>
        <time>2022-07-19T06:05:42Z</time>
      </trkpt>
      <trkpt lat="44.23451" lon="7.11634">
        <ele>1967</ele>
        <time>2022-07-19T06:05:43Z</time>
      </trkpt>
      <trkpt lat="44.2345" lon="7.11634">
        <ele>1967</ele>
        <time>2022-07-19T06:05:44Z</time>
      </trkpt>
      <trkpt lat="44.23448" lon="7.11635">
        <ele>1967.4</ele>
        <time>2022-07-19T06:05:45Z</time>
      </trkpt>
      <trkpt lat="44.23447" lon="7.11635">
        <ele>1967.4</ele>
        <time>2022-07-19T06:05:46Z</time>
      </trkpt>
      <trkpt lat="44.23446" lon="7.11635">
        <ele>1967.6</ele>
        <time>2022-07-19T06:05:47Z</time>
      </trkpt>
      <trkpt lat="44.23444" lon="7.11635">
        <ele>1967.6</ele>
        <time>2022-07-19T06:05:48Z</time>
      </trkpt>
      <trkpt lat="44.23443" lon="7.11636">
        <ele>1967.8</ele>
        <time>2022-07-19T06:05:49Z</time>
      </trkpt>
      <trkpt lat="44.23441" lon="7.11636">
        <ele>1967.8</ele>
        <time>2022-07-19T06:05:50Z</time>
      </trkpt>
      <trkpt lat="44.2344" lon="7.11637">
        <ele>1968</ele>
        <time>2022-07-19T06:05:51Z</time>
      </trkpt>
      <trkpt lat="44.23439" lon="7.11637">
        <ele>1968</ele>
        <time>2022-07-19T06:05:52Z</time>
      </trkpt>
      <trkpt lat="44.23437" lon="7.11638">
        <ele>1968.2</ele>
        <time>2022-07-19T06:05:53Z</time>
      </trkpt>
      <trkpt lat="44.23436" lon="7.11638">
        <ele>1968.4</ele>
        <time>2022-07-19T06:05:54Z</time>
      </trkpt>
      <trkpt lat="44.23435" lon="7.11639">
        <ele>1968.4</ele>
        <time>2022-07-19T06:05:55Z</time>
      </trkpt>
      <trkpt lat="44.23434" lon="7.11639">
        <ele>1968.8</ele>
        <time>2022-07-19T06:05:56Z</time>
      </trkpt>
      <trkpt lat="44.23433" lon="7.11641">
        <ele>1968.8</ele>
        <time>2022-07-19T06:05:57Z</time>
      </trkpt>
      <trkpt lat="44.23432" lon="7.11642">
        <ele>1969</ele>
        <time>2022-07-19T06:05:58Z</time>
      </trkpt>
      <trkpt lat="44.23431" lon="7.11643">
        <ele>1969.2</ele>
        <time>2022-07-19T06:05:59Z</time>
      </trkpt>
      <trkpt lat="44.23429" lon="7.11644">
        <ele>1969.4</ele>
        <time>2022-07-19T06:06:00Z</time>
      </trkpt>
      <trkpt lat="44.23429" lon="7.11645">
        <ele>1969.6</ele>
        <time>2022-07-19T06:06:01Z</time>
      </trkpt>
      <trkpt lat="44.23427" lon="7.11646">
        <ele>1969.6</ele>
        <time>2022-07-19T06:06:02Z</time>
      </trkpt>
      <trkpt lat="44.23426" lon="7.11647">
        <ele>1969.8</ele>
        <time>2022-07-19T06:06:03Z</time>
      </trkpt>
      <trkpt lat="44.23425" lon="7.11649">
        <ele>1970</ele>
        <time>2022-07-19T06:06:04Z</time>
      </trkpt>
      <trkpt lat="44.23423" lon="7.11649">
        <ele>1970</ele>
        <time>2022-07-19T06:06:05Z</time>
      </trkpt>
      <trkpt lat="44.23422" lon="7.1165">
        <ele>1970.4</ele>
        <time>2022-07-19T06:06:06Z</time>
      </trkpt>
      <trkpt lat="44.2342" lon="7.11651">
        <ele>1970.4</ele>
        <time>2022-07-19T06:06:07Z</time>
      </trkpt>
      <trkpt lat="44.23419" lon="7.11652">
        <ele>1970.6</ele>
        <time>2022-07-19T06:06:08Z</time>
      </trkpt>
      <trkpt lat="44.23417" lon="7.11652">
        <ele>1970.8</ele>
        <time>2022-07-19T06:06:09Z</time>
      </trkpt>
      <trkpt lat="44.23416" lon="7.11653">
        <ele>1970.8</ele>
        <time>2022-07-19T06:06:10Z</time>
      </trkpt>
      <trkpt lat="44.23415" lon="7.11653">
        <ele>1971.2</ele>
        <time>2022-07-19T06:06:11Z</time>
      </trkpt>
      <trkpt lat="44.23413" lon="7.11654">
        <ele>1971.2</ele>
        <time>2022-07-19T06:06:12Z</time>
      </trkpt>
      <trkpt lat="44.23412" lon="7.11655">
        <ele>1971.4</ele>
        <time>2022-07-19T06:06:13Z</time>
      </trkpt>
      <trkpt lat="44.2341" lon="7.11655">
        <ele>1971.4</ele>
        <time>2022-07-19T06:06:14Z</time>
      </trkpt>
      <trkpt lat="44.23409" lon="7.11656">
        <ele>1971.8</ele>
        <time>2022-07-19T06:06:15Z</time>
      </trkpt>
      <trkpt lat="44.23407" lon="7.11657">
        <ele>1971.8</ele>
        <time>2022-07-19T06:06:16Z</time>
      </trkpt>
      <trkpt lat="44.23406" lon="7.11658">
        <ele>1972</ele>
        <time>2022-07-19T06:06:17Z</time>
      </trkpt>
      <trkpt lat="44.23404" lon="7.11658">
        <ele>1972</ele>
        <time>2022-07-19T06:06:18Z</time>
      </trkpt>
      <trkpt lat="44.23403" lon="7.11659">
        <ele>1972.4</ele>
        <time>2022-07-19T06:06:19Z</time>
      </trkpt>
      <trkpt lat="44.23401" lon="7.1166">
        <ele>1972.4</ele>
        <time>2022-07-19T06:06:20Z</time>
      </trkpt>
      <trkpt lat="44.23399" lon="7.11662">
        <ele>1972.6</ele>
        <time>2022-07-19T06:06:21Z</time>
      </trkpt>
      <trkpt lat="44.23398" lon="7.11663">
        <ele>1972.6</ele>
        <time>2022-07-19T06:06:22Z</time>
      </trkpt>
      <trkpt lat="44.23396" lon="7.11664">
        <ele>1972.6</ele>
        <time>2022-07-19T06:06:23Z</time>
      </trkpt>
      <trkpt lat="44.23395" lon="7.11665">
        <ele>1973</ele>
        <time>2022-07-19T06:06:24Z</time>
      </trkpt>
      <trkpt lat="44.23394" lon="7.11666">
        <ele>1973</ele>
        <time>2022-07-19T06:06:25Z</time>
      </trkpt>
      <trkpt lat="44.23392" lon="7.11666">
        <ele>1973.2</ele>
        <time>2022-07-19T06:06:26Z</time>
      </trkpt>
      <trkpt lat="44.23391" lon="7.11667">
        <ele>1973.2</ele>
        <time>2022-07-19T06:06:27Z</time>
      </trkpt>
      <trkpt lat="44.2339" lon="7.11668">
        <ele>1973.6</ele>
        <time>2022-07-19T06:06:28Z</time>
      </trkpt>
      <trkpt lat="44.23389" lon="7.11669">
        <ele>1973.6</ele>
        <time>2022-07-19T06:06:29Z</time>
      </trkpt>
      <trkpt lat="44.23387" lon="7.1167">
        <ele>1974</ele>
        <time>2022-07-19T06:06:30Z</time>
      </trkpt>
      <trkpt lat="44.23386" lon="7.11671">
        <ele>1974</ele>
        <time>2022-07-19T06:06:31Z</time>
      </trkpt>
      <trkpt lat="44.23384" lon="7.11671">
        <ele>1974</ele>
        <time>2022-07-19T06:06:32Z</time>
      </trkpt>
      <trkpt lat="44.23383" lon="7.11672">
        <ele>1974.2</ele>
        <time>2022-07-19T06:06:33Z</time>
      </trkpt>
      <trkpt lat="44.23382" lon="7.11673">
        <ele>1974.2</ele>
        <time>2022-07-19T06:06:34Z</time>
      </trkpt>
      <trkpt lat="44.23382" lon="7.11675">
        <ele>1974.6</ele>
        <time>2022-07-19T06:06:35Z</time>
      </trkpt>
      <trkpt lat="44.2338" lon="7.11677">
        <ele>1974.6</ele>
        <time>2022-07-19T06:06:36Z</time>
      </trkpt>
      <trkpt lat="44.23379" lon="7.11678">
        <ele>1974.8</ele>
        <time>2022-07-19T06:06:37Z</time>
      </trkpt>
      <trkpt lat="44.23378" lon="7.11679">
        <ele>1974.8</ele>
        <time>2022-07-19T06:06:38Z</time>
      </trkpt>
      <trkpt lat="44.23377" lon="7.1168">
        <ele>1975.2</ele>
        <time>2022-07-19T06:06:39Z</time>
      </trkpt>
      <trkpt lat="44.23376" lon="7.11681">
        <ele>1975.2</ele>
        <time>2022-07-19T06:06:40Z</time>
      </trkpt>
      <trkpt lat="44.23375" lon="7.11682">
        <ele>1975.4</ele>
        <time>2022-07-19T06:06:41Z</time>
      </trkpt>
      <trkpt lat="44.23374" lon="7.11683">
        <ele>1975.4</ele>
        <time>2022-07-19T06:06:42Z</time>
      </trkpt>
      <trkpt lat="44.23372" lon="7.11685">
        <ele>1975.4</ele>
        <time>2022-07-19T06:06:43Z</time>
      </trkpt>
      <trkpt lat="44.23371" lon="7.11687">
        <ele>1975.8</ele>
        <time>2022-07-19T06:06:44Z</time>
      </trkpt>
      <trkpt lat="44.2337" lon="7.11688">
        <ele>1975.8</ele>
        <time>2022-07-19T06:06:45Z</time>
      </trkpt>
      <trkpt lat="44.23369" lon="7.11689">
        <ele>1975.8</ele>
        <time>2022-07-19T06:06:46Z</time>
      </trkpt>
      <trkpt lat="44.23368" lon="7.1169">
        <ele>1975.8</ele>
        <time>2022-07-19T06:06:47Z</time>
      </trkpt>
      <trkpt lat="44.23367" lon="7.11691">
        <ele>1976</ele>
        <time>2022-07-19T06:06:48Z</time>
      </trkpt>
      <trkpt lat="44.23365" lon="7.11693">
        <ele>1976</ele>
        <time>2022-07-19T06:06:49Z</time>
      </trkpt>
      <trkpt lat="44.23364" lon="7.11695">
        <ele>1976.4</ele>
        <time>2022-07-19T06:06:50Z</time>
      </trkpt>
      <trkpt lat="44.23363" lon="7.11697">
        <ele>1976.4</ele>
        <time>2022-07-19T06:06:51Z</time>
      </trkpt>
      <trkpt lat="44.23361" lon="7.11698">
        <ele>1976.4</ele>
        <time>2022-07-19T06:06:52Z</time>
      </trkpt>
      <trkpt lat="44.2336" lon="7.117">
        <ele>1976.4</ele>
        <time>2022-07-19T06:06:53Z</time>
      </trkpt>
      <trkpt lat="44.23359" lon="7.11702">
        <ele>1976.6</ele>
        <time>2022-07-19T06:06:54Z</time>
      </trkpt>
      <trkpt lat="44.23357" lon="7.11704">
        <ele>1976.6</ele>
        <time>2022-07-19T06:06:55Z</time>
      </trkpt>
      <trkpt lat="44.23356" lon="7.11705">
        <ele>1976.6</ele>
        <time>2022-07-19T06:06:56Z</time>
      </trkpt>
      <trkpt lat="44.23354" lon="7.11707">
        <ele>1977</ele>
        <time>2022-07-19T06:06:57Z</time>
      </trkpt>
      <trkpt lat="44.23353" lon="7.11709">
        <ele>1977</ele>
        <time>2022-07-19T06:06:58Z</time>
      </trkpt>
      <trkpt lat="44.23351" lon="7.11711">
        <ele>1977</ele>
        <time>2022-07-19T06:06:59Z</time>
      </trkpt>
      <trkpt lat="44.2335" lon="7.11713">
        <ele>1977.2</ele>
        <time>2022-07-19T06:07:00Z</time>
      </trkpt>
      <trkpt lat="44.23349" lon="7.11714">
        <ele>1977.2</ele>
        <time>2022-07-19T06:07:01Z</time>
      </trkpt>
      <trkpt lat="44.23348" lon="7.11716">
        <ele>1977.2</ele>
        <time>2022-07-19T06:07:02Z</time>
      </trkpt>
      <trkpt lat="44.23346" lon="7.11718">
        <ele>1977.4</ele>
        <time>2022-07-19T06:07:03Z</time>
      </trkpt>
      <trkpt lat="44.23345" lon="7.1172">
        <ele>1977.4</ele>
        <time>2022-07-19T06:07:04Z</time>
      </trkpt>
      <trkpt lat="44.23343" lon="7.11723">
        <ele>1977.6</ele>
        <time>2022-07-19T06:07:05Z</time>
      </trkpt>
      <trkpt lat="44.23341" lon="7.11725">
        <ele>1977.6</ele>
        <time>2022-07-19T06:07:06Z</time>
      </trkpt>
      <trkpt lat="44.2334" lon="7.11726">
        <ele>1977.8</ele>
        <time>2022-07-19T06:07:07Z</time>
      </trkpt>
      <trkpt lat="44.23338" lon="7.11728">
        <ele>1977.8</ele>
        <time>2022-07-19T06:07:08Z</time>
      </trkpt>
      <trkpt lat="44.23337" lon="7.1173">
        <ele>1978.2</ele>
        <time>2022-07-19T06:07:09Z</time>
      </trkpt>
      <trkpt lat="44.23335" lon="7.11731">
        <ele>1978.2</ele>
        <time>2022-07-19T06:07:10Z</time>
      </trkpt>
      <trkpt lat="44.23334" lon="7.11732">
        <ele>1978.4</ele>
        <time>2022-07-19T06:07:11Z</time>
      </trkpt>
      <trkpt lat="44.23332" lon="7.11733">
        <ele>1978.4</ele>
        <time>2022-07-19T06:07:12Z</time>
      </trkpt>
      <trkpt lat="44.2333" lon="7.11734">
        <ele>1978.4</ele>
        <time>2022-07-19T06:07:13Z</time>
      </trkpt>
      <trkpt lat="44.23329" lon="7.11735">
        <ele>1978.8</ele>
        <time>2022-07-19T06:07:14Z</time>
      </trkpt>
      <trkpt lat="44.23327" lon="7.11735">
        <ele>1978.8</ele>
        <time>2022-07-19T06:07:15Z</time>
      </trkpt>
      <trkpt lat="44.23326" lon="7.11735">
        <ele>1979</ele>
        <time>2022-07-19T06:07:16Z</time>
      </trkpt>
      <trkpt lat="44.23324" lon="7.11736">
        <ele>1979</ele>
        <time>2022-07-19T06:07:17Z</time>
      </trkpt>
      <trkpt lat="44.23322" lon="7.11736">
        <ele>1979</ele>
        <time>2022-07-19T06:07:18Z</time>
      </trkpt>
      <trkpt lat="44.23321" lon="7.11735">
        <ele>1979</ele>
        <time>2022-07-19T06:07:19Z</time>
      </trkpt>
      <trkpt lat="44.23319" lon="7.11736">
        <ele>1979.2</ele>
        <time>2022-07-19T06:07:20Z</time>
      </trkpt>
      <trkpt lat="44.23317" lon="7.11736">
        <ele>1979.2</ele>
        <time>2022-07-19T06:07:21Z</time>
      </trkpt>
      <trkpt lat="44.23316" lon="7.11737">
        <ele>1979.6</ele>
        <time>2022-07-19T06:07:22Z</time>
      </trkpt>
      <trkpt lat="44.23314" lon="7.11737">
        <ele>1979.6</ele>
        <time>2022-07-19T06:07:23Z</time>
      </trkpt>
      <trkpt lat="44.23313" lon="7.11737">
        <ele>1979.8</ele>
        <time>2022-07-19T06:07:24Z</time>
      </trkpt>
      <trkpt lat="44.23311" lon="7.11737">
        <ele>1979.8</ele>
        <time>2022-07-19T06:07:25Z</time>
      </trkpt>
      <trkpt lat="44.23309" lon="7.11737">
        <ele>1979.8</ele>
        <time>2022-07-19T06:07:26Z</time>
      </trkpt>
      <trkpt lat="44.23308" lon="7.11737">
        <ele>1980.2</ele>
        <time>2022-07-19T06:07:27Z</time>
      </trkpt>
      <trkpt lat="44.23306" lon="7.11737">
        <ele>1980.2</ele>
        <time>2022-07-19T06:07:28Z</time>
      </trkpt>
      <trkpt lat="44.23304" lon="7.11737">
        <ele>1980.4</ele>
        <time>2022-07-19T06:07:29Z</time>
      </trkpt>
      <trkpt lat="44.23303" lon="7.11737">
        <ele>1980.4</ele>
        <time>2022-07-19T06:07:30Z</time>
      </trkpt>
      <trkpt lat="44.23301" lon="7.11737">
        <ele>1980.8</ele>
        <time>2022-07-19T06:07:31Z</time>
      </trkpt>
      <trkpt lat="44.23299" lon="7.11738">
        <ele>1980.8</ele>
        <time>2022-07-19T06:07:32Z</time>
      </trkpt>
      <trkpt lat="44.23298" lon="7.11738">
        <ele>1981</ele>
        <time>2022-07-19T06:07:33Z</time>
      </trkpt>
      <trkpt lat="44.23296" lon="7.11738">
        <ele>1981</ele>
        <time>2022-07-19T06:07:34Z</time>
      </trkpt>
      <trkpt lat="44.23294" lon="7.11739">
        <ele>1981.2</ele>
        <time>2022-07-19T06:07:35Z</time>
      </trkpt>
      <trkpt lat="44.23292" lon="7.11739">
        <ele>1981.2</ele>
        <time>2022-07-19T06:07:36Z</time>
      </trkpt>
      <trkpt lat="44.2329" lon="7.11739">
        <ele>1981.6</ele>
        <time>2022-07-19T06:07:37Z</time>
      </trkpt>
      <trkpt lat="44.23288" lon="7.11739">
        <ele>1981.8</ele>
        <time>2022-07-19T06:07:38Z</time>
      </trkpt>
      <trkpt lat="44.23287" lon="7.11739">
        <ele>1981.8</ele>
        <time>2022-07-19T06:07:39Z</time>
      </trkpt>
      <trkpt lat="44.23285" lon="7.11739">
        <ele>1982.2</ele>
        <time>2022-07-19T06:07:40Z</time>
      </trkpt>
      <trkpt lat="44.23283" lon="7.11739">
        <ele>1982.4</ele>
        <time>2022-07-19T06:07:41Z</time>
      </trkpt>
      <trkpt lat="44.23281" lon="7.11739">
        <ele>1982.4</ele>
        <time>2022-07-19T06:07:42Z</time>
      </trkpt>
      <trkpt lat="44.2328" lon="7.1174">
        <ele>1982.8</ele>
        <time>2022-07-19T06:07:43Z</time>
      </trkpt>
      <trkpt lat="44.23278" lon="7.11741">
        <ele>1983.2</ele>
        <time>2022-07-19T06:07:45Z</time>
      </trkpt>
      <trkpt lat="44.23276" lon="7.11742">
        <ele>1983.2</ele>
        <time>2022-07-19T06:07:46Z</time>
      </trkpt>
      <trkpt lat="44.23275" lon="7.11743">
        <ele>1983.6</ele>
        <time>2022-07-19T06:07:47Z</time>
      </trkpt>
      <trkpt lat="44.23273" lon="7.11743">
        <ele>1983.6</ele>
        <time>2022-07-19T06:07:48Z</time>
      </trkpt>
      <trkpt lat="44.23271" lon="7.11743">
        <ele>1983.8</ele>
        <time>2022-07-19T06:07:49Z</time>
      </trkpt>
      <trkpt lat="44.2327" lon="7.11744">
        <ele>1983.8</ele>
        <time>2022-07-19T06:07:50Z</time>
      </trkpt>
      <trkpt lat="44.23268" lon="7.11744">
        <ele>1984.2</ele>
        <time>2022-07-19T06:07:51Z</time>
      </trkpt>
      <trkpt lat="44.23266" lon="7.11744">
        <ele>1984.2</ele>
        <time>2022-07-19T06:07:52Z</time>
      </trkpt>
      <trkpt lat="44.23264" lon="7.11744">
        <ele>1984.4</ele>
        <time>2022-07-19T06:07:53Z</time>
      </trkpt>
      <trkpt lat="44.23263" lon="7.11745">
        <ele>1984.4</ele>
        <time>2022-07-19T06:07:54Z</time>
      </trkpt>
      <trkpt lat="44.23261" lon="7.11746">
        <ele>1984.6</ele>
        <time>2022-07-19T06:07:55Z</time>
      </trkpt>
      <trkpt lat="44.23259" lon="7.11747">
        <ele>1984.6</ele>
        <time>2022-07-19T06:07:56Z</time>
      </trkpt>
      <trkpt lat="44.23257" lon="7.11747">
        <ele>1984.8</ele>
        <time>2022-07-19T06:07:57Z</time>
      </trkpt>
      <trkpt lat="44.23255" lon="7.11748">
        <ele>1984.8</ele>
        <time>2022-07-19T06:07:58Z</time>
      </trkpt>
      <trkpt lat="44.23253" lon="7.11749">
        <ele>1985.2</ele>
        <time>2022-07-19T06:07:59Z</time>
      </trkpt>
      <trkpt lat="44.23251" lon="7.11749">
        <ele>1985.2</ele>
        <time>2022-07-19T06:08:00Z</time>
      </trkpt>
      <trkpt lat="44.23249" lon="7.1175">
        <ele>1985.4</ele>
        <time>2022-07-19T06:08:01Z</time>
      </trkpt>
      <trkpt lat="44.23247" lon="7.1175">
        <ele>1985.4</ele>
        <time>2022-07-19T06:08:02Z</time>
      </trkpt>
      <trkpt lat="44.23245" lon="7.11751">
        <ele>1985.8</ele>
        <time>2022-07-19T06:08:03Z</time>
      </trkpt>
      <trkpt lat="44.23243" lon="7.11752">
        <ele>1985.8</ele>
        <time>2022-07-19T06:08:04Z</time>
      </trkpt>
      <trkpt lat="44.23241" lon="7.11753">
        <ele>1986</ele>
        <time>2022-07-19T06:08:05Z</time>
      </trkpt>
      <trkpt lat="44.23239" lon="7.11753">
        <ele>1986</ele>
        <time>2022-07-19T06:08:06Z</time>
      </trkpt>
      <trkpt lat="44.23237" lon="7.11754">
        <ele>1986.2</ele>
        <time>2022-07-19T06:08:07Z</time>
      </trkpt>
      <trkpt lat="44.23235" lon="7.11754">
        <ele>1986.2</ele>
        <time>2022-07-19T06:08:08Z</time>
      </trkpt>
      <trkpt lat="44.23233" lon="7.11755">
        <ele>1986.2</ele>
        <time>2022-07-19T06:08:09Z</time>
      </trkpt>
      <trkpt lat="44.23231" lon="7.11755">
        <ele>1986.6</ele>
        <time>2022-07-19T06:08:10Z</time>
      </trkpt>
      <trkpt lat="44.23229" lon="7.11756">
        <ele>1986.6</ele>
        <time>2022-07-19T06:08:11Z</time>
      </trkpt>
      <trkpt lat="44.23227" lon="7.11758">
        <ele>1986.6</ele>
        <time>2022-07-19T06:08:12Z</time>
      </trkpt>
      <trkpt lat="44.23225" lon="7.11758">
        <ele>1987</ele>
        <time>2022-07-19T06:08:13Z</time>
      </trkpt>
      <trkpt lat="44.23223" lon="7.11759">
        <ele>1987</ele>
        <time>2022-07-19T06:08:14Z</time>
      </trkpt>
      <trkpt lat="44.23221" lon="7.1176">
        <ele>1987</ele>
        <time>2022-07-19T06:08:15Z</time>
      </trkpt>
      <trkpt lat="44.23219" lon="7.11761">
        <ele>1987.2</ele>
        <time>2022-07-19T06:08:16Z</time>
      </trkpt>
      <trkpt lat="44.23216" lon="7.11762">
        <ele>1987.2</ele>
        <time>2022-07-19T06:08:17Z</time>
      </trkpt>
      <trkpt lat="44.23214" lon="7.11763">
        <ele>1987.2</ele>
        <time>2022-07-19T06:08:18Z</time>
      </trkpt>
      <trkpt lat="44.23212" lon="7.11764">
        <ele>1987.4</ele>
        <time>2022-07-19T06:08:19Z</time>
      </trkpt>
      <trkpt lat="44.2321" lon="7.11764">
        <ele>1987.4</ele>
        <time>2022-07-19T06:08:20Z</time>
      </trkpt>
      <trkpt lat="44.23207" lon="7.11765">
        <ele>1987.8</ele>
        <time>2022-07-19T06:08:21Z</time>
      </trkpt>
      <trkpt lat="44.23205" lon="7.11766">
        <ele>1987.8</ele>
        <time>2022-07-19T06:08:22Z</time>
      </trkpt>
      <trkpt lat="44.23203" lon="7.11767">
        <ele>1988</ele>
        <time>2022-07-19T06:08:23Z</time>
      </trkpt>
      <trkpt lat="44.23201" lon="7.11768">
        <ele>1988</ele>
        <time>2022-07-19T06:08:24Z</time>
      </trkpt>
      <trkpt lat="44.23199" lon="7.11769">
        <ele>1988.2</ele>
        <time>2022-07-19T06:08:25Z</time>
      </trkpt>
      <trkpt lat="44.23197" lon="7.1177">
        <ele>1988.2</ele>
        <time>2022-07-19T06:08:26Z</time>
      </trkpt>
      <trkpt lat="44.23195" lon="7.11771">
        <ele>1988.2</ele>
        <time>2022-07-19T06:08:27Z</time>
      </trkpt>
      <trkpt lat="44.23193" lon="7.11773">
        <ele>1988.6</ele>
        <time>2022-07-19T06:08:28Z</time>
      </trkpt>
      <trkpt lat="44.23191" lon="7.11775">
        <ele>1988.6</ele>
        <time>2022-07-19T06:08:29Z</time>
      </trkpt>
      <trkpt lat="44.23189" lon="7.11777">
        <ele>1988.8</ele>
        <time>2022-07-19T06:08:30Z</time>
      </trkpt>
      <trkpt lat="44.23187" lon="7.11778">
        <ele>1988.8</ele>
        <time>2022-07-19T06:08:31Z</time>
      </trkpt>
      <trkpt lat="44.23185" lon="7.11779">
        <ele>1989</ele>
        <time>2022-07-19T06:08:32Z</time>
      </trkpt>
      <trkpt lat="44.23183" lon="7.11781">
        <ele>1989</ele>
        <time>2022-07-19T06:08:33Z</time>
      </trkpt>
      <trkpt lat="44.2318" lon="7.11782">
        <ele>1989.4</ele>
        <time>2022-07-19T06:08:34Z</time>
      </trkpt>
      <trkpt lat="44.23178" lon="7.11783">
        <ele>1989.4</ele>
        <time>2022-07-19T06:08:35Z</time>
      </trkpt>
      <trkpt lat="44.23176" lon="7.11785">
        <ele>1989.6</ele>
        <time>2022-07-19T06:08:36Z</time>
      </trkpt>
      <trkpt lat="44.23175" lon="7.11786">
        <ele>1989.8</ele>
        <time>2022-07-19T06:08:37Z</time>
      </trkpt>
      <trkpt lat="44.23173" lon="7.11787">
        <ele>1989.8</ele>
        <time>2022-07-19T06:08:38Z</time>
      </trkpt>
      <trkpt lat="44.23171" lon="7.11789">
        <ele>1990.2</ele>
        <time>2022-07-19T06:08:39Z</time>
      </trkpt>
      <trkpt lat="44.2317" lon="7.1179">
        <ele>1990.2</ele>
        <time>2022-07-19T06:08:40Z</time>
      </trkpt>
      <trkpt lat="44.23168" lon="7.11792">
        <ele>1990.6</ele>
        <time>2022-07-19T06:08:41Z</time>
      </trkpt>
      <trkpt lat="44.23166" lon="7.11793">
        <ele>1990.8</ele>
        <time>2022-07-19T06:08:42Z</time>
      </trkpt>
      <trkpt lat="44.23165" lon="7.11794">
        <ele>1990.8</ele>
        <time>2022-07-19T06:08:43Z</time>
      </trkpt>
      <trkpt lat="44.23163" lon="7.11795">
        <ele>1991</ele>
        <time>2022-07-19T06:08:44Z</time>
      </trkpt>
      <trkpt lat="44.23161" lon="7.11796">
        <ele>1991</ele>
        <time>2022-07-19T06:08:45Z</time>
      </trkpt>
      <trkpt lat="44.2316" lon="7.11797">
        <ele>1991</ele>
        <time>2022-07-19T06:08:46Z</time>
      </trkpt>
      <trkpt lat="44.23158" lon="7.11798">
        <ele>1991.2</ele>
        <time>2022-07-19T06:08:47Z</time>
      </trkpt>
      <trkpt lat="44.23156" lon="7.11799">
        <ele>1991.2</ele>
        <time>2022-07-19T06:08:48Z</time>
      </trkpt>
      <trkpt lat="44.23154" lon="7.118">
        <ele>1991.6</ele>
        <time>2022-07-19T06:08:49Z</time>
      </trkpt>
      <trkpt lat="44.23152" lon="7.11801">
        <ele>1991.6</ele>
        <time>2022-07-19T06:08:50Z</time>
      </trkpt>
      <trkpt lat="44.2315" lon="7.11802">
        <ele>1991.8</ele>
        <time>2022-07-19T06:08:51Z</time>
      </trkpt>
      <trkpt lat="44.23148" lon="7.11803">
        <ele>1991.8</ele>
        <time>2022-07-19T06:08:52Z</time>
      </trkpt>
      <trkpt lat="44.23146" lon="7.11804">
        <ele>1992.2</ele>
        <time>2022-07-19T06:08:53Z</time>
      </trkpt>
      <trkpt lat="44.23144" lon="7.11806">
        <ele>1992.2</ele>
        <time>2022-07-19T06:08:54Z</time>
      </trkpt>
      <trkpt lat="44.23143" lon="7.11808">
        <ele>1992.2</ele>
        <time>2022-07-19T06:08:55Z</time>
      </trkpt>
      <trkpt lat="44.23141" lon="7.11809">
        <ele>1992.6</ele>
        <time>2022-07-19T06:08:56Z</time>
      </trkpt>
      <trkpt lat="44.23139" lon="7.1181">
        <ele>1992.8</ele>
        <time>2022-07-19T06:08:57Z</time>
      </trkpt>
      <trkpt lat="44.23137" lon="7.11812">
        <ele>1992.8</ele>
        <time>2022-07-19T06:08:58Z</time>
      </trkpt>
      <trkpt lat="44.23135" lon="7.11813">
        <ele>1993.2</ele>
        <time>2022-07-19T06:08:59Z</time>
      </trkpt>
      <trkpt lat="44.23133" lon="7.11814">
        <ele>1993.2</ele>
        <time>2022-07-19T06:09:00Z</time>
      </trkpt>
      <trkpt lat="44.23131" lon="7.11816">
        <ele>1993.6</ele>
        <time>2022-07-19T06:09:01Z</time>
      </trkpt>
      <trkpt lat="44.2313" lon="7.11817">
        <ele>1993.6</ele>
        <time>2022-07-19T06:09:02Z</time>
      </trkpt>
      <trkpt lat="44.23128" lon="7.11818">
        <ele>1993.8</ele>
        <time>2022-07-19T06:09:03Z</time>
      </trkpt>
      <trkpt lat="44.23126" lon="7.11819">
        <ele>1993.8</ele>
        <time>2022-07-19T06:09:04Z</time>
      </trkpt>
      <trkpt lat="44.23124" lon="7.1182">
        <ele>1994</ele>
        <time>2022-07-19T06:09:05Z</time>
      </trkpt>
      <trkpt lat="44.23122" lon="7.11819">
        <ele>1994</ele>
        <time>2022-07-19T06:09:06Z</time>
      </trkpt>
      <trkpt lat="44.2312" lon="7.1182">
        <ele>1994.2</ele>
        <time>2022-07-19T06:09:07Z</time>
      </trkpt>
      <trkpt lat="44.23118" lon="7.11822">
        <ele>1994.2</ele>
        <time>2022-07-19T06:09:08Z</time>
      </trkpt>
      <trkpt lat="44.23116" lon="7.11823">
        <ele>1994.6</ele>
        <time>2022-07-19T06:09:09Z</time>
      </trkpt>
      <trkpt lat="44.23115" lon="7.11825">
        <ele>1994.6</ele>
        <time>2022-07-19T06:09:10Z</time>
      </trkpt>
      <trkpt lat="44.23113" lon="7.11826">
        <ele>1994.8</ele>
        <time>2022-07-19T06:09:11Z</time>
      </trkpt>
      <trkpt lat="44.23111" lon="7.11829">
        <ele>1994.8</ele>
        <time>2022-07-19T06:09:12Z</time>
      </trkpt>
      <trkpt lat="44.23109" lon="7.11831">
        <ele>1995</ele>
        <time>2022-07-19T06:09:13Z</time>
      </trkpt>
      <trkpt lat="44.23107" lon="7.11832">
        <ele>1995</ele>
        <time>2022-07-19T06:09:14Z</time>
      </trkpt>
      <trkpt lat="44.23105" lon="7.11833">
        <ele>1995.4</ele>
        <time>2022-07-19T06:09:15Z</time>
      </trkpt>
      <trkpt lat="44.23103" lon="7.11835">
        <ele>1995.4</ele>
        <time>2022-07-19T06:09:16Z</time>
      </trkpt>
      <trkpt lat="44.23101" lon="7.11836">
        <ele>1995.6</ele>
        <time>2022-07-19T06:09:17Z</time>
      </trkpt>
      <trkpt lat="44.23099" lon="7.11839">
        <ele>1995.6</ele>
        <time>2022-07-19T06:09:18Z</time>
      </trkpt>
      <trkpt lat="44.23098" lon="7.1184">
        <ele>1995.8</ele>
        <time>2022-07-19T06:09:19Z</time>
      </trkpt>
      <trkpt lat="44.23096" lon="7.11842">
        <ele>1995.8</ele>
        <time>2022-07-19T06:09:20Z</time>
      </trkpt>
      <trkpt lat="44.23094" lon="7.11843">
        <ele>1996.2</ele>
        <time>2022-07-19T06:09:21Z</time>
      </trkpt>
      <trkpt lat="44.23093" lon="7.11844">
        <ele>1996.4</ele>
        <time>2022-07-19T06:09:22Z</time>
      </trkpt>
      <trkpt lat="44.23091" lon="7.11845">
        <ele>1996.4</ele>
        <time>2022-07-19T06:09:23Z</time>
      </trkpt>
      <trkpt lat="44.2309" lon="7.11848">
        <ele>1996.4</ele>
        <time>2022-07-19T06:09:24Z</time>
      </trkpt>
      <trkpt lat="44.23089" lon="7.1185">
        <ele>1996.8</ele>
        <time>2022-07-19T06:09:25Z</time>
      </trkpt>
      <trkpt lat="44.23088" lon="7.11853">
        <ele>1996.8</ele>
        <time>2022-07-19T06:09:26Z</time>
      </trkpt>
      <trkpt lat="44.23086" lon="7.11854">
        <ele>1997</ele>
        <time>2022-07-19T06:09:27Z</time>
      </trkpt>
      <trkpt lat="44.23085" lon="7.11856">
        <ele>1997</ele>
        <time>2022-07-19T06:09:28Z</time>
      </trkpt>
      <trkpt lat="44.23083" lon="7.11857">
        <ele>1997.6</ele>
        <time>2022-07-19T06:09:29Z</time>
      </trkpt>
      <trkpt lat="44.23081" lon="7.11859">
        <ele>1997.6</ele>
        <time>2022-07-19T06:09:30Z</time>
      </trkpt>
      <trkpt lat="44.23079" lon="7.11861">
        <ele>1997.8</ele>
        <time>2022-07-19T06:09:31Z</time>
      </trkpt>
      <trkpt lat="44.23077" lon="7.11863">
        <ele>1997.8</ele>
        <time>2022-07-19T06:09:32Z</time>
      </trkpt>
      <trkpt lat="44.23075" lon="7.11864">
        <ele>1998.2</ele>
        <time>2022-07-19T06:09:33Z</time>
      </trkpt>
      <trkpt lat="44.23073" lon="7.11866">
        <ele>1998.4</ele>
        <time>2022-07-19T06:09:34Z</time>
      </trkpt>
      <trkpt lat="44.23071" lon="7.11867">
        <ele>1998.4</ele>
        <time>2022-07-19T06:09:35Z</time>
      </trkpt>
      <trkpt lat="44.23069" lon="7.11869">
        <ele>1998.8</ele>
        <time>2022-07-19T06:09:36Z</time>
      </trkpt>
      <trkpt lat="44.23067" lon="7.11871">
        <ele>1998.8</ele>
        <time>2022-07-19T06:09:37Z</time>
      </trkpt>
      <trkpt lat="44.23065" lon="7.11873">
        <ele>1999</ele>
        <time>2022-07-19T06:09:38Z</time>
      </trkpt>
      <trkpt lat="44.23063" lon="7.11874">
        <ele>1999</ele>
        <time>2022-07-19T06:09:39Z</time>
      </trkpt>
      <trkpt lat="44.23061" lon="7.11875">
        <ele>1999.4</ele>
        <time>2022-07-19T06:09:40Z</time>
      </trkpt>
      <trkpt lat="44.2306" lon="7.11876">
        <ele>1999.4</ele>
        <time>2022-07-19T06:09:41Z</time>
      </trkpt>
      <trkpt lat="44.23058" lon="7.11877">
        <ele>1999.6</ele>
        <time>2022-07-19T06:09:42Z</time>
      </trkpt>
      <trkpt lat="44.23056" lon="7.11877">
        <ele>1999.6</ele>
        <time>2022-07-19T06:09:43Z</time>
      </trkpt>
      <trkpt lat="44.23054" lon="7.11878">
        <ele>2000</ele>
        <time>2022-07-19T06:09:44Z</time>
      </trkpt>
      <trkpt lat="44.23052" lon="7.11878">
        <ele>2000.2</ele>
        <time>2022-07-19T06:09:45Z</time>
      </trkpt>
      <trkpt lat="44.2305" lon="7.11879">
        <ele>2000.2</ele>
        <time>2022-07-19T06:09:46Z</time>
      </trkpt>
      <trkpt lat="44.23048" lon="7.11881">
        <ele>2000.4</ele>
        <time>2022-07-19T06:09:47Z</time>
      </trkpt>
      <trkpt lat="44.23046" lon="7.11882">
        <ele>2000.4</ele>
        <time>2022-07-19T06:09:48Z</time>
      </trkpt>
      <trkpt lat="44.23044" lon="7.11883">
        <ele>2000.6</ele>
        <time>2022-07-19T06:09:49Z</time>
      </trkpt>
      <trkpt lat="44.23042" lon="7.11884">
        <ele>2000.6</ele>
        <time>2022-07-19T06:09:50Z</time>
      </trkpt>
      <trkpt lat="44.2304" lon="7.11885">
        <ele>2001</ele>
        <time>2022-07-19T06:09:51Z</time>
      </trkpt>
      <trkpt lat="44.23038" lon="7.11887">
        <ele>2001</ele>
        <time>2022-07-19T06:09:52Z</time>
      </trkpt>
      <trkpt lat="44.23036" lon="7.11889">
        <ele>2001</ele>
        <time>2022-07-19T06:09:53Z</time>
      </trkpt>
      <trkpt lat="44.23035" lon="7.1189">
        <ele>2001.2</ele>
        <time>2022-07-19T06:09:54Z</time>
      </trkpt>
      <trkpt lat="44.23033" lon="7.11891">
        <ele>2001.2</ele>
        <time>2022-07-19T06:09:55Z</time>
      </trkpt>
      <trkpt lat="44.23031" lon="7.11892">
        <ele>2001.4</ele>
        <time>2022-07-19T06:09:56Z</time>
      </trkpt>
      <trkpt lat="44.23029" lon="7.11892">
        <ele>2001.4</ele>
        <time>2022-07-19T06:09:57Z</time>
      </trkpt>
      <trkpt lat="44.23027" lon="7.11893">
        <ele>2001.8</ele>
        <time>2022-07-19T06:09:58Z</time>
      </trkpt>
      <trkpt lat="44.23025" lon="7.11894">
        <ele>2001.8</ele>
        <time>2022-07-19T06:09:59Z</time>
      </trkpt>
      <trkpt lat="44.23023" lon="7.11895">
        <ele>2002</ele>
        <time>2022-07-19T06:10:00Z</time>
      </trkpt>
      <trkpt lat="44.23022" lon="7.11896">
        <ele>2002</ele>
        <time>2022-07-19T06:10:01Z</time>
      </trkpt>
      <trkpt lat="44.2302" lon="7.11898">
        <ele>2002.4</ele>
        <time>2022-07-19T06:10:02Z</time>
      </trkpt>
      <trkpt lat="44.23018" lon="7.119">
        <ele>2002.4</ele>
        <time>2022-07-19T06:10:03Z</time>
      </trkpt>
      <trkpt lat="44.23017" lon="7.11901">
        <ele>2002.6</ele>
        <time>2022-07-19T06:10:04Z</time>
      </trkpt>
      <trkpt lat="44.23015" lon="7.11902">
        <ele>2002.6</ele>
        <time>2022-07-19T06:10:05Z</time>
      </trkpt>
      <trkpt lat="44.23013" lon="7.11903">
        <ele>2002.8</ele>
        <time>2022-07-19T06:10:06Z</time>
      </trkpt>
      <trkpt lat="44.23011" lon="7.11904">
        <ele>2003</ele>
        <time>2022-07-19T06:10:07Z</time>
      </trkpt>
      <trkpt lat="44.23009" lon="7.11906">
        <ele>2003</ele>
        <time>2022-07-19T06:10:08Z</time>
      </trkpt>
      <trkpt lat="44.23008" lon="7.11907">
        <ele>2003.4</ele>
        <time>2022-07-19T06:10:09Z</time>
      </trkpt>
      <trkpt lat="44.23006" lon="7.11909">
        <ele>2003.6</ele>
        <time>2022-07-19T06:10:10Z</time>
      </trkpt>
      <trkpt lat="44.23004" lon="7.1191">
        <ele>2003.6</ele>
        <time>2022-07-19T06:10:11Z</time>
      </trkpt>
      <trkpt lat="44.23002" lon="7.11911">
        <ele>2003.8</ele>
        <time>2022-07-19T06:10:12Z</time>
      </trkpt>
      <trkpt lat="44.23" lon="7.11913">
        <ele>2003.8</ele>
        <time>2022-07-19T06:10:13Z</time>
      </trkpt>
      <trkpt lat="44.22999" lon="7.11914">
        <ele>2004</ele>
        <time>2022-07-19T06:10:14Z</time>
      </trkpt>
      <trkpt lat="44.22997" lon="7.11915">
        <ele>2004</ele>
        <time>2022-07-19T06:10:15Z</time>
      </trkpt>
      <trkpt lat="44.22994" lon="7.11915">
        <ele>2004.2</ele>
        <time>2022-07-19T06:10:16Z</time>
      </trkpt>
      <trkpt lat="44.22992" lon="7.11916">
        <ele>2004.2</ele>
        <time>2022-07-19T06:10:17Z</time>
      </trkpt>
      <trkpt lat="44.2299" lon="7.11917">
        <ele>2004.6</ele>
        <time>2022-07-19T06:10:18Z</time>
      </trkpt>
      <trkpt lat="44.22989" lon="7.11919">
        <ele>2004.8</ele>
        <time>2022-07-19T06:10:19Z</time>
      </trkpt>
      <trkpt lat="44.22987" lon="7.1192">
        <ele>2004.8</ele>
        <time>2022-07-19T06:10:20Z</time>
      </trkpt>
      <trkpt lat="44.22985" lon="7.11922">
        <ele>2005</ele>
        <time>2022-07-19T06:10:21Z</time>
      </trkpt>
      <trkpt lat="44.22983" lon="7.11923">
        <ele>2005</ele>
        <time>2022-07-19T06:10:22Z</time>
      </trkpt>
      <trkpt lat="44.22981" lon="7.11925">
        <ele>2005.2</ele>
        <time>2022-07-19T06:10:23Z</time>
      </trkpt>
      <trkpt lat="44.2298" lon="7.11926">
        <ele>2005.2</ele>
        <time>2022-07-19T06:10:24Z</time>
      </trkpt>
      <trkpt lat="44.22978" lon="7.11927">
        <ele>2005.4</ele>
        <time>2022-07-19T06:10:25Z</time>
      </trkpt>
      <trkpt lat="44.22976" lon="7.11928">
        <ele>2005.4</ele>
        <time>2022-07-19T06:10:26Z</time>
      </trkpt>
      <trkpt lat="44.22974" lon="7.11928">
        <ele>2005.4</ele>
        <time>2022-07-19T06:10:27Z</time>
      </trkpt>
      <trkpt lat="44.22972" lon="7.11928">
        <ele>2005.8</ele>
        <time>2022-07-19T06:10:28Z</time>
      </trkpt>
      <trkpt lat="44.2297" lon="7.11929">
        <ele>2005.8</ele>
        <time>2022-07-19T06:10:29Z</time>
      </trkpt>
      <trkpt lat="44.22968" lon="7.1193">
        <ele>2005.8</ele>
        <time>2022-07-19T06:10:30Z</time>
      </trkpt>
      <trkpt lat="44.22966" lon="7.11931">
        <ele>2006</ele>
        <time>2022-07-19T06:10:31Z</time>
      </trkpt>
      <trkpt lat="44.22964" lon="7.11932">
        <ele>2006</ele>
        <time>2022-07-19T06:10:32Z</time>
      </trkpt>
      <trkpt lat="44.22962" lon="7.11933">
        <ele>2006.2</ele>
        <time>2022-07-19T06:10:33Z</time>
      </trkpt>
      <trkpt lat="44.2296" lon="7.11934">
        <ele>2006.2</ele>
        <time>2022-07-19T06:10:34Z</time>
      </trkpt>
      <trkpt lat="44.22958" lon="7.11936">
        <ele>2006.6</ele>
        <time>2022-07-19T06:10:35Z</time>
      </trkpt>
      <trkpt lat="44.22955" lon="7.11937">
        <ele>2006.6</ele>
        <time>2022-07-19T06:10:36Z</time>
      </trkpt>
      <trkpt lat="44.22953" lon="7.11938">
        <ele>2006.6</ele>
        <time>2022-07-19T06:10:37Z</time>
      </trkpt>
      <trkpt lat="44.22951" lon="7.11939">
        <ele>2006.8</ele>
        <time>2022-07-19T06:10:38Z</time>
      </trkpt>
      <trkpt lat="44.22949" lon="7.1194">
        <ele>2006.8</ele>
        <time>2022-07-19T06:10:39Z</time>
      </trkpt>
      <trkpt lat="44.22947" lon="7.11941">
        <ele>2007.2</ele>
        <time>2022-07-19T06:10:40Z</time>
      </trkpt>
      <trkpt lat="44.22945" lon="7.11942">
        <ele>2007.2</ele>
        <time>2022-07-19T06:10:41Z</time>
      </trkpt>
      <trkpt lat="44.22943" lon="7.11944">
        <ele>2007.4</ele>
        <time>2022-07-19T06:10:42Z</time>
      </trkpt>
      <trkpt lat="44.22941" lon="7.11945">
        <ele>2007.4</ele>
        <time>2022-07-19T06:10:43Z</time>
      </trkpt>
      <trkpt lat="44.22939" lon="7.11947">
        <ele>2007.6</ele>
        <time>2022-07-19T06:10:44Z</time>
      </trkpt>
      <trkpt lat="44.22937" lon="7.11949">
        <ele>2007.6</ele>
        <time>2022-07-19T06:10:45Z</time>
      </trkpt>
      <trkpt lat="44.22935" lon="7.1195">
        <ele>2007.8</ele>
        <time>2022-07-19T06:10:46Z</time>
      </trkpt>
      <trkpt lat="44.22933" lon="7.11951">
        <ele>2007.8</ele>
        <time>2022-07-19T06:10:47Z</time>
      </trkpt>
      <trkpt lat="44.22931" lon="7.11953">
        <ele>2008.2</ele>
        <time>2022-07-19T06:10:48Z</time>
      </trkpt>
      <trkpt lat="44.22929" lon="7.11954">
        <ele>2008.2</ele>
        <time>2022-07-19T06:10:49Z</time>
      </trkpt>
      <trkpt lat="44.22927" lon="7.11955">
        <ele>2008.4</ele>
        <time>2022-07-19T06:10:50Z</time>
      </trkpt>
      <trkpt lat="44.22925" lon="7.11956">
        <ele>2008.4</ele>
        <time>2022-07-19T06:10:51Z</time>
      </trkpt>
      <trkpt lat="44.22923" lon="7.11958">
        <ele>2008.6</ele>
        <time>2022-07-19T06:10:52Z</time>
      </trkpt>
      <trkpt lat="44.22921" lon="7.11958">
        <ele>2008.6</ele>
        <time>2022-07-19T06:10:53Z</time>
      </trkpt>
      <trkpt lat="44.22919" lon="7.1196">
        <ele>2008.6</ele>
        <time>2022-07-19T06:10:54Z</time>
      </trkpt>
      <trkpt lat="44.22917" lon="7.11961">
        <ele>2008.8</ele>
        <time>2022-07-19T06:10:55Z</time>
      </trkpt>
      <trkpt lat="44.22915" lon="7.11962">
        <ele>2008.8</ele>
        <time>2022-07-19T06:10:56Z</time>
      </trkpt>
      <trkpt lat="44.22914" lon="7.11963">
        <ele>2009.2</ele>
        <time>2022-07-19T06:10:57Z</time>
      </trkpt>
      <trkpt lat="44.22912" lon="7.11964">
        <ele>2009.2</ele>
        <time>2022-07-19T06:10:58Z</time>
      </trkpt>
      <trkpt lat="44.2291" lon="7.11965">
        <ele>2009.4</ele>
        <time>2022-07-19T06:10:59Z</time>
      </trkpt>
      <trkpt lat="44.22908" lon="7.11967">
        <ele>2009.4</ele>
        <time>2022-07-19T06:11:00Z</time>
      </trkpt>
      <trkpt lat="44.22906" lon="7.11968">
        <ele>2009.4</ele>
        <time>2022-07-19T06:11:01Z</time>
      </trkpt>
      <trkpt lat="44.22904" lon="7.1197">
        <ele>2009.6</ele>
        <time>2022-07-19T06:11:02Z</time>
      </trkpt>
      <trkpt lat="44.22902" lon="7.11971">
        <ele>2009.6</ele>
        <time>2022-07-19T06:11:03Z</time>
      </trkpt>
      <trkpt lat="44.22901" lon="7.11972">
        <ele>2009.6</ele>
        <time>2022-07-19T06:11:04Z</time>
      </trkpt>
      <trkpt lat="44.22899" lon="7.11974">
        <ele>2009.8</ele>
        <time>2022-07-19T06:11:05Z</time>
      </trkpt>
      <trkpt lat="44.22897" lon="7.11975">
        <ele>2009.8</ele>
        <time>2022-07-19T06:11:06Z</time>
      </trkpt>
      <trkpt lat="44.22895" lon="7.11976">
        <ele>2010.2</ele>
        <time>2022-07-19T06:11:07Z</time>
      </trkpt>
      <trkpt lat="44.22894" lon="7.11978">
        <ele>2010.2</ele>
        <time>2022-07-19T06:11:08Z</time>
      </trkpt>
      <trkpt lat="44.22892" lon="7.11979">
        <ele>2010.2</ele>
        <time>2022-07-19T06:11:09Z</time>
      </trkpt>
      <trkpt lat="44.22891" lon="7.11981">
        <ele>2010.4</ele>
        <time>2022-07-19T06:11:10Z</time>
      </trkpt>
      <trkpt lat="44.22889" lon="7.11982">
        <ele>2010.4</ele>
        <time>2022-07-19T06:11:11Z</time>
      </trkpt>
      <trkpt lat="44.22887" lon="7.11983">
        <ele>2010.6</ele>
        <time>2022-07-19T06:11:12Z</time>
      </trkpt>
      <trkpt lat="44.22886" lon="7.11985">
        <ele>2010.6</ele>
        <time>2022-07-19T06:11:13Z</time>
      </trkpt>
      <trkpt lat="44.22884" lon="7.11986">
        <ele>2010.8</ele>
        <time>2022-07-19T06:11:14Z</time>
      </trkpt>
      <trkpt lat="44.22882" lon="7.11987">
        <ele>2010.8</ele>
        <time>2022-07-19T06:11:15Z</time>
      </trkpt>
      <trkpt lat="44.22881" lon="7.11989">
        <ele>2010.8</ele>
        <time>2022-07-19T06:11:16Z</time>
      </trkpt>
      <trkpt lat="44.22879" lon="7.1199">
        <ele>2011.2</ele>
        <time>2022-07-19T06:11:17Z</time>
      </trkpt>
      <trkpt lat="44.22877" lon="7.11992">
        <ele>2011.2</ele>
        <time>2022-07-19T06:11:18Z</time>
      </trkpt>
      <trkpt lat="44.22876" lon="7.11993">
        <ele>2011.4</ele>
        <time>2022-07-19T06:11:19Z</time>
      </trkpt>
      <trkpt lat="44.22874" lon="7.11994">
        <ele>2011.4</ele>
        <time>2022-07-19T06:11:20Z</time>
      </trkpt>
      <trkpt lat="44.22872" lon="7.11995">
        <ele>2011.6</ele>
        <time>2022-07-19T06:11:21Z</time>
      </trkpt>
      <trkpt lat="44.22871" lon="7.11995">
        <ele>2011.6</ele>
        <time>2022-07-19T06:11:22Z</time>
      </trkpt>
      <trkpt lat="44.22869" lon="7.11997">
        <ele>2011.6</ele>
        <time>2022-07-19T06:11:23Z</time>
      </trkpt>
      <trkpt lat="44.22868" lon="7.11998">
        <ele>2012</ele>
        <time>2022-07-19T06:11:24Z</time>
      </trkpt>
      <trkpt lat="44.22866" lon="7.11999">
        <ele>2012</ele>
        <time>2022-07-19T06:11:25Z</time>
      </trkpt>
      <trkpt lat="44.22865" lon="7.12">
        <ele>2012</ele>
        <time>2022-07-19T06:11:26Z</time>
      </trkpt>
      <trkpt lat="44.22863" lon="7.12001">
        <ele>2012.2</ele>
        <time>2022-07-19T06:11:27Z</time>
      </trkpt>
      <trkpt lat="44.22862" lon="7.12002">
        <ele>2012.2</ele>
        <time>2022-07-19T06:11:28Z</time>
      </trkpt>
      <trkpt lat="44.2286" lon="7.12002">
        <ele>2012.4</ele>
        <time>2022-07-19T06:11:29Z</time>
      </trkpt>
      <trkpt lat="44.22859" lon="7.12003">
        <ele>2012.4</ele>
        <time>2022-07-19T06:11:30Z</time>
      </trkpt>
      <trkpt lat="44.22857" lon="7.12004">
        <ele>2012.6</ele>
        <time>2022-07-19T06:11:31Z</time>
      </trkpt>
      <trkpt lat="44.22856" lon="7.12005">
        <ele>2012.6</ele>
        <time>2022-07-19T06:11:32Z</time>
      </trkpt>
      <trkpt lat="44.22854" lon="7.12006">
        <ele>2012.6</ele>
        <time>2022-07-19T06:11:33Z</time>
      </trkpt>
      <trkpt lat="44.22853" lon="7.12006">
        <ele>2013</ele>
        <time>2022-07-19T06:11:34Z</time>
      </trkpt>
      <trkpt lat="44.22851" lon="7.12007">
        <ele>2013</ele>
        <time>2022-07-19T06:11:35Z</time>
      </trkpt>
      <trkpt lat="44.2285" lon="7.12008">
        <ele>2013</ele>
        <time>2022-07-19T06:11:36Z</time>
      </trkpt>
      <trkpt lat="44.22848" lon="7.12009">
        <ele>2013.2</ele>
        <time>2022-07-19T06:11:37Z</time>
      </trkpt>
      <trkpt lat="44.22847" lon="7.1201">
        <ele>2013.2</ele>
        <time>2022-07-19T06:11:38Z</time>
      </trkpt>
      <trkpt lat="44.22845" lon="7.12011">
        <ele>2013.6</ele>
        <time>2022-07-19T06:11:39Z</time>
      </trkpt>
      <trkpt lat="44.22844" lon="7.12012">
        <ele>2013.6</ele>
        <time>2022-07-19T06:11:40Z</time>
      </trkpt>
      <trkpt lat="44.22842" lon="7.12013">
        <ele>2013.8</ele>
        <time>2022-07-19T06:11:41Z</time>
      </trkpt>
      <trkpt lat="44.22841" lon="7.12014">
        <ele>2013.8</ele>
        <time>2022-07-19T06:11:42Z</time>
      </trkpt>
      <trkpt lat="44.2284" lon="7.12015">
        <ele>2014</ele>
        <time>2022-07-19T06:11:43Z</time>
      </trkpt>
      <trkpt lat="44.22838" lon="7.12016">
        <ele>2014</ele>
        <time>2022-07-19T06:11:44Z</time>
      </trkpt>
      <trkpt lat="44.22836" lon="7.12016">
        <ele>2014</ele>
        <time>2022-07-19T06:11:45Z</time>
      </trkpt>
      <trkpt lat="44.22835" lon="7.12017">
        <ele>2014.2</ele>
        <time>2022-07-19T06:11:46Z</time>
      </trkpt>
      <trkpt lat="44.22833" lon="7.12019">
        <ele>2014.2</ele>
        <time>2022-07-19T06:11:47Z</time>
      </trkpt>
      <trkpt lat="44.22831" lon="7.1202">
        <ele>2014.6</ele>
        <time>2022-07-19T06:11:48Z</time>
      </trkpt>
      <trkpt lat="44.2283" lon="7.1202">
        <ele>2014.6</ele>
        <time>2022-07-19T06:11:49Z</time>
      </trkpt>
      <trkpt lat="44.22828" lon="7.12022">
        <ele>2014.8</ele>
        <time>2022-07-19T06:11:50Z</time>
      </trkpt>
      <trkpt lat="44.22826" lon="7.12023">
        <ele>2014.8</ele>
        <time>2022-07-19T06:11:51Z</time>
      </trkpt>
      <trkpt lat="44.22825" lon="7.12024">
        <ele>2015.2</ele>
        <time>2022-07-19T06:11:52Z</time>
      </trkpt>
      <trkpt lat="44.22823" lon="7.12025">
        <ele>2015.2</ele>
        <time>2022-07-19T06:11:53Z</time>
      </trkpt>
      <trkpt lat="44.22822" lon="7.12027">
        <ele>2015.6</ele>
        <time>2022-07-19T06:11:54Z</time>
      </trkpt>
      <trkpt lat="44.2282" lon="7.12028">
        <ele>2015.8</ele>
        <time>2022-07-19T06:11:55Z</time>
      </trkpt>
      <trkpt lat="44.22818" lon="7.12029">
        <ele>2016</ele>
        <time>2022-07-19T06:11:56Z</time>
      </trkpt>
      <trkpt lat="44.22816" lon="7.1203">
        <ele>2016.2</ele>
        <time>2022-07-19T06:11:57Z</time>
      </trkpt>
      <trkpt lat="44.22815" lon="7.12031">
        <ele>2016.6</ele>
        <time>2022-07-19T06:11:58Z</time>
      </trkpt>
      <trkpt lat="44.22813" lon="7.12032">
        <ele>2016.8</ele>
        <time>2022-07-19T06:11:59Z</time>
      </trkpt>
      <trkpt lat="44.22811" lon="7.12033">
        <ele>2016.8</ele>
        <time>2022-07-19T06:12:00Z</time>
      </trkpt>
      <trkpt lat="44.2281" lon="7.12034">
        <ele>2017.2</ele>
        <time>2022-07-19T06:12:01Z</time>
      </trkpt>
      <trkpt lat="44.22808" lon="7.12035">
        <ele>2017.4</ele>
        <time>2022-07-19T06:12:02Z</time>
      </trkpt>
      <trkpt lat="44.22807" lon="7.12037">
        <ele>2017.8</ele>
        <time>2022-07-19T06:12:03Z</time>
      </trkpt>
      <trkpt lat="44.22805" lon="7.12037">
        <ele>2017.8</ele>
        <time>2022-07-19T06:12:04Z</time>
      </trkpt>
      <trkpt lat="44.22803" lon="7.12038">
        <ele>2018</ele>
        <time>2022-07-19T06:12:05Z</time>
      </trkpt>
      <trkpt lat="44.22802" lon="7.12039">
        <ele>2018.2</ele>
        <time>2022-07-19T06:12:06Z</time>
      </trkpt>
      <trkpt lat="44.228" lon="7.1204">
        <ele>2018.2</ele>
        <time>2022-07-19T06:12:07Z</time>
      </trkpt>
      <trkpt lat="44.22798" lon="7.1204">
        <ele>2018.6</ele>
        <time>2022-07-19T06:12:08Z</time>
      </trkpt>
      <trkpt lat="44.22796" lon="7.1204">
        <ele>2018.8</ele>
        <time>2022-07-19T06:12:09Z</time>
      </trkpt>
      <trkpt lat="44.22795" lon="7.12042">
        <ele>2019</ele>
        <time>2022-07-19T06:12:10Z</time>
      </trkpt>
      <trkpt lat="44.22793" lon="7.12043">
        <ele>2019</ele>
        <time>2022-07-19T06:12:11Z</time>
      </trkpt>
      <trkpt lat="44.22791" lon="7.12044">
        <ele>2019.4</ele>
        <time>2022-07-19T06:12:12Z</time>
      </trkpt>
      <trkpt lat="44.2279" lon="7.12045">
        <ele>2019.6</ele>
        <time>2022-07-19T06:12:13Z</time>
      </trkpt>
      <trkpt lat="44.22788" lon="7.12046">
        <ele>2019.8</ele>
        <time>2022-07-19T06:12:14Z</time>
      </trkpt>
      <trkpt lat="44.22786" lon="7.12047">
        <ele>2019.8</ele>
        <time>2022-07-19T06:12:15Z</time>
      </trkpt>
      <trkpt lat="44.22784" lon="7.12049">
        <ele>2020.2</ele>
        <time>2022-07-19T06:12:16Z</time>
      </trkpt>
      <trkpt lat="44.22783" lon="7.1205">
        <ele>2020.2</ele>
        <time>2022-07-19T06:12:17Z</time>
      </trkpt>
      <trkpt lat="44.22781" lon="7.12051">
        <ele>2020.6</ele>
        <time>2022-07-19T06:12:18Z</time>
      </trkpt>
      <trkpt lat="44.2278" lon="7.12051">
        <ele>2020.6</ele>
        <time>2022-07-19T06:12:19Z</time>
      </trkpt>
      <trkpt lat="44.22778" lon="7.12052">
        <ele>2020.8</ele>
        <time>2022-07-19T06:12:20Z</time>
      </trkpt>
      <trkpt lat="44.22777" lon="7.12053">
        <ele>2021</ele>
        <time>2022-07-19T06:12:21Z</time>
      </trkpt>
      <trkpt lat="44.22775" lon="7.12053">
        <ele>2021</ele>
        <time>2022-07-19T06:12:22Z</time>
      </trkpt>
      <trkpt lat="44.22773" lon="7.12054">
        <ele>2021.4</ele>
        <time>2022-07-19T06:12:23Z</time>
      </trkpt>
      <trkpt lat="44.22772" lon="7.12055">
        <ele>2021.4</ele>
        <time>2022-07-19T06:12:24Z</time>
      </trkpt>
      <trkpt lat="44.2277" lon="7.12055">
        <ele>2021.8</ele>
        <time>2022-07-19T06:12:25Z</time>
      </trkpt>
      <trkpt lat="44.22769" lon="7.12055">
        <ele>2021.8</ele>
        <time>2022-07-19T06:12:26Z</time>
      </trkpt>
      <trkpt lat="44.22767" lon="7.12056">
        <ele>2022</ele>
        <time>2022-07-19T06:12:27Z</time>
      </trkpt>
      <trkpt lat="44.22766" lon="7.12057">
        <ele>2022.2</ele>
        <time>2022-07-19T06:12:28Z</time>
      </trkpt>
      <trkpt lat="44.22764" lon="7.12058">
        <ele>2022.2</ele>
        <time>2022-07-19T06:12:29Z</time>
      </trkpt>
      <trkpt lat="44.22763" lon="7.12059">
        <ele>2022.6</ele>
        <time>2022-07-19T06:12:30Z</time>
      </trkpt>
      <trkpt lat="44.22762" lon="7.1206">
        <ele>2022.6</ele>
        <time>2022-07-19T06:12:31Z</time>
      </trkpt>
      <trkpt lat="44.22759" lon="7.12062">
        <ele>2022.8</ele>
        <time>2022-07-19T06:12:32Z</time>
      </trkpt>
      <trkpt lat="44.22758" lon="7.12063">
        <ele>2023</ele>
        <time>2022-07-19T06:12:33Z</time>
      </trkpt>
      <trkpt lat="44.22757" lon="7.12064">
        <ele>2023.2</ele>
        <time>2022-07-19T06:12:34Z</time>
      </trkpt>
      <trkpt lat="44.22755" lon="7.12064">
        <ele>2023.2</ele>
        <time>2022-07-19T06:12:35Z</time>
      </trkpt>
      <trkpt lat="44.22754" lon="7.12065">
        <ele>2023.6</ele>
        <time>2022-07-19T06:12:36Z</time>
      </trkpt>
      <trkpt lat="44.22752" lon="7.12066">
        <ele>2023.6</ele>
        <time>2022-07-19T06:12:37Z</time>
      </trkpt>
      <trkpt lat="44.22751" lon="7.12067">
        <ele>2024</ele>
        <time>2022-07-19T06:12:38Z</time>
      </trkpt>
      <trkpt lat="44.22749" lon="7.12068">
        <ele>2024</ele>
        <time>2022-07-19T06:12:39Z</time>
      </trkpt>
      <trkpt lat="44.22748" lon="7.12068">
        <ele>2024.4</ele>
        <time>2022-07-19T06:12:40Z</time>
      </trkpt>
      <trkpt lat="44.22746" lon="7.12069">
        <ele>2024.4</ele>
        <time>2022-07-19T06:12:41Z</time>
      </trkpt>
      <trkpt lat="44.22745" lon="7.1207">
        <ele>2024.6</ele>
        <time>2022-07-19T06:12:42Z</time>
      </trkpt>
      <trkpt lat="44.22744" lon="7.12071">
        <ele>2024.6</ele>
        <time>2022-07-19T06:12:43Z</time>
      </trkpt>
      <trkpt lat="44.22743" lon="7.12072">
        <ele>2025</ele>
        <time>2022-07-19T06:12:44Z</time>
      </trkpt>
      <trkpt lat="44.22742" lon="7.12073">
        <ele>2025</ele>
        <time>2022-07-19T06:12:45Z</time>
      </trkpt>
      <trkpt lat="44.22741" lon="7.12074">
        <ele>2025.2</ele>
        <time>2022-07-19T06:12:46Z</time>
      </trkpt>
      <trkpt lat="44.22739" lon="7.12074">
        <ele>2025.2</ele>
        <time>2022-07-19T06:12:47Z</time>
      </trkpt>
      <trkpt lat="44.22738" lon="7.12075">
        <ele>2025.6</ele>
        <time>2022-07-19T06:12:48Z</time>
      </trkpt>
      <trkpt lat="44.22737" lon="7.12075">
        <ele>2025.6</ele>
        <time>2022-07-19T06:12:49Z</time>
      </trkpt>
      <trkpt lat="44.22735" lon="7.12076">
        <ele>2025.8</ele>
        <time>2022-07-19T06:12:50Z</time>
      </trkpt>
      <trkpt lat="44.22734" lon="7.12077">
        <ele>2025.8</ele>
        <time>2022-07-19T06:12:51Z</time>
      </trkpt>
      <trkpt lat="44.22733" lon="7.12078">
        <ele>2026</ele>
        <time>2022-07-19T06:12:52Z</time>
      </trkpt>
      <trkpt lat="44.22732" lon="7.12078">
        <ele>2026</ele>
        <time>2022-07-19T06:12:53Z</time>
      </trkpt>
      <trkpt lat="44.22731" lon="7.12079">
        <ele>2026.4</ele>
        <time>2022-07-19T06:12:54Z</time>
      </trkpt>
      <trkpt lat="44.22729" lon="7.1208">
        <ele>2026.4</ele>
        <time>2022-07-19T06:12:55Z</time>
      </trkpt>
      <trkpt lat="44.22728" lon="7.1208">
        <ele>2026.8</ele>
        <time>2022-07-19T06:12:56Z</time>
      </trkpt>
      <trkpt lat="44.22726" lon="7.12081">
        <ele>2026.8</ele>
        <time>2022-07-19T06:12:57Z</time>
      </trkpt>
      <trkpt lat="44.22725" lon="7.12082">
        <ele>2027</ele>
        <time>2022-07-19T06:12:58Z</time>
      </trkpt>
      <trkpt lat="44.22723" lon="7.12082">
        <ele>2027.4</ele>
        <time>2022-07-19T06:12:59Z</time>
      </trkpt>
      <trkpt lat="44.22722" lon="7.12083">
        <ele>2027.6</ele>
        <time>2022-07-19T06:13:00Z</time>
      </trkpt>
      <trkpt lat="44.2272" lon="7.12084">
        <ele>2027.6</ele>
        <time>2022-07-19T06:13:01Z</time>
      </trkpt>
      <trkpt lat="44.22718" lon="7.12084">
        <ele>2028</ele>
        <time>2022-07-19T06:13:02Z</time>
      </trkpt>
      <trkpt lat="44.22717" lon="7.12085">
        <ele>2028</ele>
        <time>2022-07-19T06:13:03Z</time>
      </trkpt>
      <trkpt lat="44.22715" lon="7.12085">
        <ele>2028.4</ele>
        <time>2022-07-19T06:13:04Z</time>
      </trkpt>
      <trkpt lat="44.22714" lon="7.12086">
        <ele>2028.4</ele>
        <time>2022-07-19T06:13:05Z</time>
      </trkpt>
      <trkpt lat="44.22712" lon="7.12087">
        <ele>2028.6</ele>
        <time>2022-07-19T06:13:06Z</time>
      </trkpt>
      <trkpt lat="44.22711" lon="7.12088">
        <ele>2028.6</ele>
        <time>2022-07-19T06:13:07Z</time>
      </trkpt>
      <trkpt lat="44.2271" lon="7.12088">
        <ele>2029</ele>
        <time>2022-07-19T06:13:08Z</time>
      </trkpt>
      <trkpt lat="44.22709" lon="7.12089">
        <ele>2029</ele>
        <time>2022-07-19T06:13:09Z</time>
      </trkpt>
      <trkpt lat="44.22707" lon="7.1209">
        <ele>2029.4</ele>
        <time>2022-07-19T06:13:10Z</time>
      </trkpt>
      <trkpt lat="44.22706" lon="7.1209">
        <ele>2029.8</ele>
        <time>2022-07-19T06:13:11Z</time>
      </trkpt>
      <trkpt lat="44.22704" lon="7.12091">
        <ele>2030</ele>
        <time>2022-07-19T06:13:12Z</time>
      </trkpt>
      <trkpt lat="44.22703" lon="7.12092">
        <ele>2030</ele>
        <time>2022-07-19T06:13:13Z</time>
      </trkpt>
      <trkpt lat="44.22702" lon="7.12093">
        <ele>2030.2</ele>
        <time>2022-07-19T06:13:14Z</time>
      </trkpt>
      <trkpt lat="44.22701" lon="7.12093">
        <ele>2030.4</ele>
        <time>2022-07-19T06:13:15Z</time>
      </trkpt>
      <trkpt lat="44.22699" lon="7.12094">
        <ele>2030.4</ele>
        <time>2022-07-19T06:13:16Z</time>
      </trkpt>
      <trkpt lat="44.22698" lon="7.12095">
        <ele>2030.8</ele>
        <time>2022-07-19T06:13:17Z</time>
      </trkpt>
      <trkpt lat="44.22697" lon="7.12096">
        <ele>2030.8</ele>
        <time>2022-07-19T06:13:18Z</time>
      </trkpt>
      <trkpt lat="44.22695" lon="7.12096">
        <ele>2031.2</ele>
        <time>2022-07-19T06:13:19Z</time>
      </trkpt>
      <trkpt lat="44.22694" lon="7.12097">
        <ele>2031.2</ele>
        <time>2022-07-19T06:13:20Z</time>
      </trkpt>
      <trkpt lat="44.22692" lon="7.12098">
        <ele>2031.6</ele>
        <time>2022-07-19T06:13:21Z</time>
      </trkpt>
      <trkpt lat="44.22691" lon="7.12099">
        <ele>2031.6</ele>
        <time>2022-07-19T06:13:22Z</time>
      </trkpt>
      <trkpt lat="44.2269" lon="7.121">
        <ele>2031.8</ele>
        <time>2022-07-19T06:13:24Z</time>
      </trkpt>
      <trkpt lat="44.22689" lon="7.12101">
        <ele>2032.2</ele>
        <time>2022-07-19T06:13:25Z</time>
      </trkpt>
      <trkpt lat="44.22688" lon="7.12102">
        <ele>2032.6</ele>
        <time>2022-07-19T06:13:26Z</time>
      </trkpt>
      <trkpt lat="44.22686" lon="7.12103">
        <ele>2032.8</ele>
        <time>2022-07-19T06:13:27Z</time>
      </trkpt>
      <trkpt lat="44.22685" lon="7.12103">
        <ele>2033</ele>
        <time>2022-07-19T06:13:28Z</time>
      </trkpt>
      <trkpt lat="44.22683" lon="7.12104">
        <ele>2033</ele>
        <time>2022-07-19T06:13:29Z</time>
      </trkpt>
      <trkpt lat="44.22682" lon="7.12104">
        <ele>2033.2</ele>
        <time>2022-07-19T06:13:30Z</time>
      </trkpt>
      <trkpt lat="44.2268" lon="7.12106">
        <ele>2033.2</ele>
        <time>2022-07-19T06:13:31Z</time>
      </trkpt>
      <trkpt lat="44.22679" lon="7.12106">
        <ele>2033.6</ele>
        <time>2022-07-19T06:13:32Z</time>
      </trkpt>
      <trkpt lat="44.22677" lon="7.12108">
        <ele>2033.6</ele>
        <time>2022-07-19T06:13:33Z</time>
      </trkpt>
      <trkpt lat="44.22676" lon="7.12109">
        <ele>2033.8</ele>
        <time>2022-07-19T06:13:34Z</time>
      </trkpt>
      <trkpt lat="44.22675" lon="7.1211">
        <ele>2033.8</ele>
        <time>2022-07-19T06:13:35Z</time>
      </trkpt>
      <trkpt lat="44.22674" lon="7.12111">
        <ele>2034.2</ele>
        <time>2022-07-19T06:13:36Z</time>
      </trkpt>
      <trkpt lat="44.22672" lon="7.12112">
        <ele>2034.4</ele>
        <time>2022-07-19T06:13:37Z</time>
      </trkpt>
      <trkpt lat="44.22671" lon="7.12113">
        <ele>2034.4</ele>
        <time>2022-07-19T06:13:38Z</time>
      </trkpt>
      <trkpt lat="44.2267" lon="7.12114">
        <ele>2034.8</ele>
        <time>2022-07-19T06:13:39Z</time>
      </trkpt>
      <trkpt lat="44.22669" lon="7.12116">
        <ele>2035.2</ele>
        <time>2022-07-19T06:13:40Z</time>
      </trkpt>
      <trkpt lat="44.22667" lon="7.12117">
        <ele>2035.2</ele>
        <time>2022-07-19T06:13:41Z</time>
      </trkpt>
      <trkpt lat="44.22665" lon="7.12119">
        <ele>2035.6</ele>
        <time>2022-07-19T06:13:42Z</time>
      </trkpt>
      <trkpt lat="44.22664" lon="7.12121">
        <ele>2035.8</ele>
        <time>2022-07-19T06:13:43Z</time>
      </trkpt>
      <trkpt lat="44.22662" lon="7.12123">
        <ele>2036</ele>
        <time>2022-07-19T06:13:44Z</time>
      </trkpt>
      <trkpt lat="44.22661" lon="7.12125">
        <ele>2036</ele>
        <time>2022-07-19T06:13:45Z</time>
      </trkpt>
      <trkpt lat="44.2266" lon="7.12126">
        <ele>2036.4</ele>
        <time>2022-07-19T06:13:46Z</time>
      </trkpt>
      <trkpt lat="44.22658" lon="7.12128">
        <ele>2036.4</ele>
        <time>2022-07-19T06:13:47Z</time>
      </trkpt>
      <trkpt lat="44.22657" lon="7.1213">
        <ele>2036.8</ele>
        <time>2022-07-19T06:13:48Z</time>
      </trkpt>
      <trkpt lat="44.22656" lon="7.12131">
        <ele>2037</ele>
        <time>2022-07-19T06:13:49Z</time>
      </trkpt>
      <trkpt lat="44.22655" lon="7.12133">
        <ele>2037.2</ele>
        <time>2022-07-19T06:13:50Z</time>
      </trkpt>
      <trkpt lat="44.22653" lon="7.12135">
        <ele>2037.6</ele>
        <time>2022-07-19T06:13:51Z</time>
      </trkpt>
      <trkpt lat="44.22652" lon="7.12137">
        <ele>2037.8</ele>
        <time>2022-07-19T06:13:52Z</time>
      </trkpt>
      <trkpt lat="44.22651" lon="7.12139">
        <ele>2038</ele>
        <time>2022-07-19T06:13:53Z</time>
      </trkpt>
      <trkpt lat="44.2265" lon="7.12141">
        <ele>2038.2</ele>
        <time>2022-07-19T06:13:54Z</time>
      </trkpt>
      <trkpt lat="44.22649" lon="7.12143">
        <ele>2038.6</ele>
        <time>2022-07-19T06:13:55Z</time>
      </trkpt>
      <trkpt lat="44.22648" lon="7.12145">
        <ele>2038.6</ele>
        <time>2022-07-19T06:13:56Z</time>
      </trkpt>
      <trkpt lat="44.22647" lon="7.12147">
        <ele>2038.8</ele>
        <time>2022-07-19T06:13:57Z</time>
      </trkpt>
      <trkpt lat="44.22646" lon="7.1215">
        <ele>2039</ele>
        <time>2022-07-19T06:13:58Z</time>
      </trkpt>
      <trkpt lat="44.22645" lon="7.12151">
        <ele>2039</ele>
        <time>2022-07-19T06:13:59Z</time>
      </trkpt>
      <trkpt lat="44.22644" lon="7.12153">
        <ele>2039.4</ele>
        <time>2022-07-19T06:14:00Z</time>
      </trkpt>
      <trkpt lat="44.22641" lon="7.12157">
        <ele>2039.4</ele>
        <time>2022-07-19T06:14:01Z</time>
      </trkpt>
      <trkpt lat="44.2264" lon="7.12159">
        <ele>2039.8</ele>
        <time>2022-07-19T06:14:02Z</time>
      </trkpt>
      <trkpt lat="44.22639" lon="7.12161">
        <ele>2040</ele>
        <time>2022-07-19T06:14:03Z</time>
      </trkpt>
      <trkpt lat="44.22638" lon="7.12163">
        <ele>2040.2</ele>
        <time>2022-07-19T06:14:04Z</time>
      </trkpt>
      <trkpt lat="44.22637" lon="7.12164">
        <ele>2040.6</ele>
        <time>2022-07-19T06:14:05Z</time>
      </trkpt>
      <trkpt lat="44.22635" lon="7.12166">
        <ele>2040.8</ele>
        <time>2022-07-19T06:14:06Z</time>
      </trkpt>
      <trkpt lat="44.22634" lon="7.12168">
        <ele>2041</ele>
        <time>2022-07-19T06:14:07Z</time>
      </trkpt>
      <trkpt lat="44.22633" lon="7.1217">
        <ele>2041.2</ele>
        <time>2022-07-19T06:14:08Z</time>
      </trkpt>
      <trkpt lat="44.22632" lon="7.12172">
        <ele>2041.2</ele>
        <time>2022-07-19T06:14:09Z</time>
      </trkpt>
      <trkpt lat="44.22631" lon="7.12175">
        <ele>2041.6</ele>
        <time>2022-07-19T06:14:10Z</time>
      </trkpt>
      <trkpt lat="44.2263" lon="7.12177">
        <ele>2041.6</ele>
        <time>2022-07-19T06:14:11Z</time>
      </trkpt>
      <trkpt lat="44.22629" lon="7.12179">
        <ele>2041.8</ele>
        <time>2022-07-19T06:14:12Z</time>
      </trkpt>
      <trkpt lat="44.22627" lon="7.12181">
        <ele>2042.2</ele>
        <time>2022-07-19T06:14:13Z</time>
      </trkpt>
      <trkpt lat="44.22626" lon="7.12183">
        <ele>2042.4</ele>
        <time>2022-07-19T06:14:14Z</time>
      </trkpt>
      <trkpt lat="44.22625" lon="7.12184">
        <ele>2042.6</ele>
        <time>2022-07-19T06:14:15Z</time>
      </trkpt>
      <trkpt lat="44.22624" lon="7.12186">
        <ele>2042.6</ele>
        <time>2022-07-19T06:14:16Z</time>
      </trkpt>
      <trkpt lat="44.22623" lon="7.12188">
        <ele>2042.8</ele>
        <time>2022-07-19T06:14:17Z</time>
      </trkpt>
      <trkpt lat="44.22622" lon="7.1219">
        <ele>2042.8</ele>
        <time>2022-07-19T06:14:18Z</time>
      </trkpt>
      <trkpt lat="44.22621" lon="7.12192">
        <ele>2043.2</ele>
        <time>2022-07-19T06:14:19Z</time>
      </trkpt>
      <trkpt lat="44.2262" lon="7.12195">
        <ele>2043.4</ele>
        <time>2022-07-19T06:14:20Z</time>
      </trkpt>
      <trkpt lat="44.2262" lon="7.12197">
        <ele>2043.4</ele>
        <time>2022-07-19T06:14:21Z</time>
      </trkpt>
      <trkpt lat="44.22619" lon="7.12199">
        <ele>2043.8</ele>
        <time>2022-07-19T06:14:22Z</time>
      </trkpt>
      <trkpt lat="44.22618" lon="7.12201">
        <ele>2044</ele>
        <time>2022-07-19T06:14:23Z</time>
      </trkpt>
      <trkpt lat="44.22616" lon="7.12203">
        <ele>2044.2</ele>
        <time>2022-07-19T06:14:24Z</time>
      </trkpt>
      <trkpt lat="44.22615" lon="7.12205">
        <ele>2044.4</ele>
        <time>2022-07-19T06:14:25Z</time>
      </trkpt>
      <trkpt lat="44.22614" lon="7.12207">
        <ele>2044.4</ele>
        <time>2022-07-19T06:14:26Z</time>
      </trkpt>
      <trkpt lat="44.22613" lon="7.12209">
        <ele>2044.8</ele>
        <time>2022-07-19T06:14:27Z</time>
      </trkpt>
      <trkpt lat="44.22612" lon="7.12211">
        <ele>2044.8</ele>
        <time>2022-07-19T06:14:28Z</time>
      </trkpt>
      <trkpt lat="44.22611" lon="7.12213">
        <ele>2045</ele>
        <time>2022-07-19T06:14:29Z</time>
      </trkpt>
      <trkpt lat="44.2261" lon="7.12215">
        <ele>2045.2</ele>
        <time>2022-07-19T06:14:30Z</time>
      </trkpt>
      <trkpt lat="44.22609" lon="7.12217">
        <ele>2045.2</ele>
        <time>2022-07-19T06:14:31Z</time>
      </trkpt>
      <trkpt lat="44.22608" lon="7.12219">
        <ele>2045.6</ele>
        <time>2022-07-19T06:14:32Z</time>
      </trkpt>
      <trkpt lat="44.22607" lon="7.1222">
        <ele>2045.8</ele>
        <time>2022-07-19T06:14:33Z</time>
      </trkpt>
      <trkpt lat="44.22606" lon="7.12222">
        <ele>2045.8</ele>
        <time>2022-07-19T06:14:34Z</time>
      </trkpt>
      <trkpt lat="44.22605" lon="7.12224">
        <ele>2046</ele>
        <time>2022-07-19T06:14:35Z</time>
      </trkpt>
      <trkpt lat="44.22603" lon="7.12226">
        <ele>2046</ele>
        <time>2022-07-19T06:14:36Z</time>
      </trkpt>
      <trkpt lat="44.22602" lon="7.12228">
        <ele>2046.4</ele>
        <time>2022-07-19T06:14:37Z</time>
      </trkpt>
      <trkpt lat="44.22601" lon="7.12229">
        <ele>2046.4</ele>
        <time>2022-07-19T06:14:38Z</time>
      </trkpt>
      <trkpt lat="44.226" lon="7.12231">
        <ele>2046.6</ele>
        <time>2022-07-19T06:14:39Z</time>
      </trkpt>
      <trkpt lat="44.22598" lon="7.12233">
        <ele>2046.6</ele>
        <time>2022-07-19T06:14:40Z</time>
      </trkpt>
      <trkpt lat="44.22597" lon="7.12235">
        <ele>2047</ele>
        <time>2022-07-19T06:14:41Z</time>
      </trkpt>
      <trkpt lat="44.22596" lon="7.12237">
        <ele>2047</ele>
        <time>2022-07-19T06:14:42Z</time>
      </trkpt>
      <trkpt lat="44.22595" lon="7.12239">
        <ele>2047.4</ele>
        <time>2022-07-19T06:14:43Z</time>
      </trkpt>
      <trkpt lat="44.22594" lon="7.12241">
        <ele>2047.4</ele>
        <time>2022-07-19T06:14:44Z</time>
      </trkpt>
      <trkpt lat="44.22593" lon="7.12243">
        <ele>2047.6</ele>
        <time>2022-07-19T06:14:45Z</time>
      </trkpt>
      <trkpt lat="44.22592" lon="7.12245">
        <ele>2048</ele>
        <time>2022-07-19T06:14:46Z</time>
      </trkpt>
      <trkpt lat="44.22591" lon="7.12247">
        <ele>2048</ele>
        <time>2022-07-19T06:14:47Z</time>
      </trkpt>
      <trkpt lat="44.2259" lon="7.12249">
        <ele>2048.2</ele>
        <time>2022-07-19T06:14:48Z</time>
      </trkpt>
      <trkpt lat="44.22589" lon="7.12251">
        <ele>2048.4</ele>
        <time>2022-07-19T06:14:49Z</time>
      </trkpt>
      <trkpt lat="44.22588" lon="7.12253">
        <ele>2048.4</ele>
        <time>2022-07-19T06:14:50Z</time>
      </trkpt>
      <trkpt lat="44.22587" lon="7.12255">
        <ele>2048.8</ele>
        <time>2022-07-19T06:14:51Z</time>
      </trkpt>
      <trkpt lat="44.22586" lon="7.12257">
        <ele>2048.8</ele>
        <time>2022-07-19T06:14:52Z</time>
      </trkpt>
      <trkpt lat="44.22585" lon="7.12259">
        <ele>2049.2</ele>
        <time>2022-07-19T06:14:53Z</time>
      </trkpt>
      <trkpt lat="44.22584" lon="7.12261">
        <ele>2049.4</ele>
        <time>2022-07-19T06:14:54Z</time>
      </trkpt>
      <trkpt lat="44.22583" lon="7.12262">
        <ele>2049.4</ele>
        <time>2022-07-19T06:14:55Z</time>
      </trkpt>
      <trkpt lat="44.22581" lon="7.12264">
        <ele>2049.4</ele>
        <time>2022-07-19T06:14:56Z</time>
      </trkpt>
      <trkpt lat="44.2258" lon="7.12266">
        <ele>2049.6</ele>
        <time>2022-07-19T06:14:57Z</time>
      </trkpt>
      <trkpt lat="44.22579" lon="7.12268">
        <ele>2049.6</ele>
        <time>2022-07-19T06:14:58Z</time>
      </trkpt>
      <trkpt lat="44.22578" lon="7.1227">
        <ele>2050</ele>
        <time>2022-07-19T06:14:59Z</time>
      </trkpt>
      <trkpt lat="44.22576" lon="7.12271">
        <ele>2050.2</ele>
        <time>2022-07-19T06:15:00Z</time>
      </trkpt>
      <trkpt lat="44.22575" lon="7.12273">
        <ele>2050.2</ele>
        <time>2022-07-19T06:15:01Z</time>
      </trkpt>
      <trkpt lat="44.22574" lon="7.12275">
        <ele>2050.4</ele>
        <time>2022-07-19T06:15:02Z</time>
      </trkpt>
      <trkpt lat="44.22573" lon="7.12277">
        <ele>2050.4</ele>
        <time>2022-07-19T06:15:03Z</time>
      </trkpt>
      <trkpt lat="44.22572" lon="7.12278">
        <ele>2050.8</ele>
        <time>2022-07-19T06:15:04Z</time>
      </trkpt>
      <trkpt lat="44.22571" lon="7.12281">
        <ele>2050.8</ele>
        <time>2022-07-19T06:15:05Z</time>
      </trkpt>
      <trkpt lat="44.2257" lon="7.12283">
        <ele>2051</ele>
        <time>2022-07-19T06:15:06Z</time>
      </trkpt>
      <trkpt lat="44.22568" lon="7.12284">
        <ele>2051</ele>
        <time>2022-07-19T06:15:07Z</time>
      </trkpt>
      <trkpt lat="44.22567" lon="7.12286">
        <ele>2051</ele>
        <time>2022-07-19T06:15:08Z</time>
      </trkpt>
      <trkpt lat="44.22566" lon="7.12288">
        <ele>2051.2</ele>
        <time>2022-07-19T06:15:09Z</time>
      </trkpt>
      <trkpt lat="44.22565" lon="7.1229">
        <ele>2051.2</ele>
        <time>2022-07-19T06:15:10Z</time>
      </trkpt>
      <trkpt lat="44.22563" lon="7.12292">
        <ele>2051.6</ele>
        <time>2022-07-19T06:15:11Z</time>
      </trkpt>
      <trkpt lat="44.22562" lon="7.12294">
        <ele>2051.6</ele>
        <time>2022-07-19T06:15:12Z</time>
      </trkpt>
      <trkpt lat="44.22561" lon="7.12297">
        <ele>2051.8</ele>
        <time>2022-07-19T06:15:13Z</time>
      </trkpt>
      <trkpt lat="44.2256" lon="7.12299">
        <ele>2051.8</ele>
        <time>2022-07-19T06:15:14Z</time>
      </trkpt>
      <trkpt lat="44.22559" lon="7.12301">
        <ele>2052</ele>
        <time>2022-07-19T06:15:15Z</time>
      </trkpt>
      <trkpt lat="44.22557" lon="7.12303">
        <ele>2052</ele>
        <time>2022-07-19T06:15:16Z</time>
      </trkpt>
      <trkpt lat="44.22556" lon="7.12305">
        <ele>2052.2</ele>
        <time>2022-07-19T06:15:17Z</time>
      </trkpt>
      <trkpt lat="44.22555" lon="7.12307">
        <ele>2052.2</ele>
        <time>2022-07-19T06:15:18Z</time>
      </trkpt>
      <trkpt lat="44.22554" lon="7.12309">
        <ele>2052.8</ele>
        <time>2022-07-19T06:15:19Z</time>
      </trkpt>
      <trkpt lat="44.22553" lon="7.12311">
        <ele>2052.8</ele>
        <time>2022-07-19T06:15:20Z</time>
      </trkpt>
      <trkpt lat="44.22552" lon="7.12313">
        <ele>2053.2</ele>
        <time>2022-07-19T06:15:21Z</time>
      </trkpt>
      <trkpt lat="44.22551" lon="7.12315">
        <ele>2053.2</ele>
        <time>2022-07-19T06:15:22Z</time>
      </trkpt>
      <trkpt lat="44.2255" lon="7.12317">
        <ele>2053.4</ele>
        <time>2022-07-19T06:15:23Z</time>
      </trkpt>
      <trkpt lat="44.22549" lon="7.12319">
        <ele>2053.4</ele>
        <time>2022-07-19T06:15:24Z</time>
      </trkpt>
      <trkpt lat="44.22548" lon="7.12321">
        <ele>2053.6</ele>
        <time>2022-07-19T06:15:26Z</time>
      </trkpt>
      <trkpt lat="44.22547" lon="7.12323">
        <ele>2053.6</ele>
        <time>2022-07-19T06:15:27Z</time>
      </trkpt>
      <trkpt lat="44.22546" lon="7.12325">
        <ele>2054</ele>
        <time>2022-07-19T06:15:28Z</time>
      </trkpt>
      <trkpt lat="44.22546" lon="7.12327">
        <ele>2054</ele>
        <time>2022-07-19T06:15:29Z</time>
      </trkpt>
      <trkpt lat="44.22545" lon="7.12329">
        <ele>2054.2</ele>
        <time>2022-07-19T06:15:30Z</time>
      </trkpt>
      <trkpt lat="44.22545" lon="7.12331">
        <ele>2054.2</ele>
        <time>2022-07-19T06:15:31Z</time>
      </trkpt>
      <trkpt lat="44.22544" lon="7.12334">
        <ele>2054.6</ele>
        <time>2022-07-19T06:15:32Z</time>
      </trkpt>
      <trkpt lat="44.22543" lon="7.12336">
        <ele>2054.6</ele>
        <time>2022-07-19T06:15:33Z</time>
      </trkpt>
      <trkpt lat="44.22543" lon="7.12338">
        <ele>2054.8</ele>
        <time>2022-07-19T06:15:34Z</time>
      </trkpt>
      <trkpt lat="44.22542" lon="7.1234">
        <ele>2054.8</ele>
        <time>2022-07-19T06:15:35Z</time>
      </trkpt>
      <trkpt lat="44.22541" lon="7.12342">
        <ele>2055.2</ele>
        <time>2022-07-19T06:15:36Z</time>
      </trkpt>
      <trkpt lat="44.2254" lon="7.12344">
        <ele>2055.2</ele>
        <time>2022-07-19T06:15:37Z</time>
      </trkpt>
      <trkpt lat="44.22539" lon="7.12346">
        <ele>2055.4</ele>
        <time>2022-07-19T06:15:38Z</time>
      </trkpt>
      <trkpt lat="44.22538" lon="7.12348">
        <ele>2055.4</ele>
        <time>2022-07-19T06:15:39Z</time>
      </trkpt>
      <trkpt lat="44.22538" lon="7.1235">
        <ele>2055.8</ele>
        <time>2022-07-19T06:15:40Z</time>
      </trkpt>
      <trkpt lat="44.22537" lon="7.12353">
        <ele>2055.8</ele>
        <time>2022-07-19T06:15:41Z</time>
      </trkpt>
      <trkpt lat="44.22536" lon="7.12355">
        <ele>2056</ele>
        <time>2022-07-19T06:15:42Z</time>
      </trkpt>
      <trkpt lat="44.22535" lon="7.12357">
        <ele>2056</ele>
        <time>2022-07-19T06:15:43Z</time>
      </trkpt>
      <trkpt lat="44.22535" lon="7.12359">
        <ele>2056.4</ele>
        <time>2022-07-19T06:15:44Z</time>
      </trkpt>
      <trkpt lat="44.22534" lon="7.12361">
        <ele>2056.4</ele>
        <time>2022-07-19T06:15:45Z</time>
      </trkpt>
      <trkpt lat="44.22534" lon="7.12364">
        <ele>2056.6</ele>
        <time>2022-07-19T06:15:46Z</time>
      </trkpt>
      <trkpt lat="44.22533" lon="7.12366">
        <ele>2056.8</ele>
        <time>2022-07-19T06:15:47Z</time>
      </trkpt>
      <trkpt lat="44.22532" lon="7.12368">
        <ele>2056.8</ele>
        <time>2022-07-19T06:15:48Z</time>
      </trkpt>
      <trkpt lat="44.22531" lon="7.1237">
        <ele>2057.2</ele>
        <time>2022-07-19T06:15:49Z</time>
      </trkpt>
      <trkpt lat="44.2253" lon="7.12372">
        <ele>2057.2</ele>
        <time>2022-07-19T06:15:50Z</time>
      </trkpt>
      <trkpt lat="44.22529" lon="7.12374">
        <ele>2057.6</ele>
        <time>2022-07-19T06:15:51Z</time>
      </trkpt>
      <trkpt lat="44.22529" lon="7.12376">
        <ele>2057.8</ele>
        <time>2022-07-19T06:15:52Z</time>
      </trkpt>
      <trkpt lat="44.22528" lon="7.12378">
        <ele>2058</ele>
        <time>2022-07-19T06:15:53Z</time>
      </trkpt>
      <trkpt lat="44.22527" lon="7.1238">
        <ele>2058</ele>
        <time>2022-07-19T06:15:54Z</time>
      </trkpt>
      <trkpt lat="44.22526" lon="7.12382">
        <ele>2058.4</ele>
        <time>2022-07-19T06:15:55Z</time>
      </trkpt>
      <trkpt lat="44.22525" lon="7.12384">
        <ele>2058.4</ele>
        <time>2022-07-19T06:15:56Z</time>
      </trkpt>
      <trkpt lat="44.22524" lon="7.12386">
        <ele>2058.6</ele>
        <time>2022-07-19T06:15:57Z</time>
      </trkpt>
      <trkpt lat="44.22522" lon="7.12388">
        <ele>2058.6</ele>
        <time>2022-07-19T06:15:58Z</time>
      </trkpt>
      <trkpt lat="44.22521" lon="7.1239">
        <ele>2058.8</ele>
        <time>2022-07-19T06:15:59Z</time>
      </trkpt>
      <trkpt lat="44.2252" lon="7.12392">
        <ele>2058.8</ele>
        <time>2022-07-19T06:16:00Z</time>
      </trkpt>
      <trkpt lat="44.22519" lon="7.12394">
        <ele>2058.8</ele>
        <time>2022-07-19T06:16:01Z</time>
      </trkpt>
      <trkpt lat="44.22518" lon="7.12396">
        <ele>2059.2</ele>
        <time>2022-07-19T06:16:02Z</time>
      </trkpt>
      <trkpt lat="44.22517" lon="7.12398">
        <ele>2059.2</ele>
        <time>2022-07-19T06:16:03Z</time>
      </trkpt>
      <trkpt lat="44.22516" lon="7.124">
        <ele>2059.6</ele>
        <time>2022-07-19T06:16:04Z</time>
      </trkpt>
      <trkpt lat="44.22515" lon="7.12402">
        <ele>2059.6</ele>
        <time>2022-07-19T06:16:05Z</time>
      </trkpt>
      <trkpt lat="44.22514" lon="7.12404">
        <ele>2059.8</ele>
        <time>2022-07-19T06:16:06Z</time>
      </trkpt>
      <trkpt lat="44.22513" lon="7.12406">
        <ele>2059.8</ele>
        <time>2022-07-19T06:16:07Z</time>
      </trkpt>
      <trkpt lat="44.22512" lon="7.12408">
        <ele>2060</ele>
        <time>2022-07-19T06:16:08Z</time>
      </trkpt>
      <trkpt lat="44.22511" lon="7.1241">
        <ele>2060</ele>
        <time>2022-07-19T06:16:09Z</time>
      </trkpt>
      <trkpt lat="44.2251" lon="7.12412">
        <ele>2060.4</ele>
        <time>2022-07-19T06:16:10Z</time>
      </trkpt>
      <trkpt lat="44.22509" lon="7.12414">
        <ele>2060.6</ele>
        <time>2022-07-19T06:16:11Z</time>
      </trkpt>
      <trkpt lat="44.22508" lon="7.12416">
        <ele>2060.6</ele>
        <time>2022-07-19T06:16:12Z</time>
      </trkpt>
      <trkpt lat="44.22507" lon="7.12419">
        <ele>2061</ele>
        <time>2022-07-19T06:16:13Z</time>
      </trkpt>
      <trkpt lat="44.22506" lon="7.12421">
        <ele>2061</ele>
        <time>2022-07-19T06:16:14Z</time>
      </trkpt>
      <trkpt lat="44.22505" lon="7.12424">
        <ele>2061.2</ele>
        <time>2022-07-19T06:16:15Z</time>
      </trkpt>
      <trkpt lat="44.22504" lon="7.12426">
        <ele>2061.2</ele>
        <time>2022-07-19T06:16:16Z</time>
      </trkpt>
      <trkpt lat="44.22503" lon="7.12428">
        <ele>2061.4</ele>
        <time>2022-07-19T06:16:17Z</time>
      </trkpt>
      <trkpt lat="44.22502" lon="7.1243">
        <ele>2061.4</ele>
        <time>2022-07-19T06:16:18Z</time>
      </trkpt>
      <trkpt lat="44.22502" lon="7.12432">
        <ele>2061.4</ele>
        <time>2022-07-19T06:16:19Z</time>
      </trkpt>
      <trkpt lat="44.22501" lon="7.12435">
        <ele>2061.6</ele>
        <time>2022-07-19T06:16:20Z</time>
      </trkpt>
      <trkpt lat="44.225" lon="7.12436">
        <ele>2061.6</ele>
        <time>2022-07-19T06:16:21Z</time>
      </trkpt>
      <trkpt lat="44.22499" lon="7.12438">
        <ele>2062</ele>
        <time>2022-07-19T06:16:22Z</time>
      </trkpt>
      <trkpt lat="44.22498" lon="7.1244">
        <ele>2062</ele>
        <time>2022-07-19T06:16:23Z</time>
      </trkpt>
      <trkpt lat="44.22497" lon="7.12443">
        <ele>2062.2</ele>
        <time>2022-07-19T06:16:24Z</time>
      </trkpt>
      <trkpt lat="44.22497" lon="7.12445">
        <ele>2062.2</ele>
        <time>2022-07-19T06:16:25Z</time>
      </trkpt>
      <trkpt lat="44.22496" lon="7.12447">
        <ele>2062.6</ele>
        <time>2022-07-19T06:16:26Z</time>
      </trkpt>
      <trkpt lat="44.22495" lon="7.12449">
        <ele>2062.6</ele>
        <time>2022-07-19T06:16:27Z</time>
      </trkpt>
      <trkpt lat="44.22493" lon="7.12451">
        <ele>2062.8</ele>
        <time>2022-07-19T06:16:28Z</time>
      </trkpt>
      <trkpt lat="44.22492" lon="7.12453">
        <ele>2062.8</ele>
        <time>2022-07-19T06:16:29Z</time>
      </trkpt>
      <trkpt lat="44.22491" lon="7.12455">
        <ele>2063</ele>
        <time>2022-07-19T06:16:30Z</time>
      </trkpt>
      <trkpt lat="44.2249" lon="7.12458">
        <ele>2063</ele>
        <time>2022-07-19T06:16:31Z</time>
      </trkpt>
      <trkpt lat="44.2249" lon="7.1246">
        <ele>2063.4</ele>
        <time>2022-07-19T06:16:32Z</time>
      </trkpt>
      <trkpt lat="44.22489" lon="7.12462">
        <ele>2063.4</ele>
        <time>2022-07-19T06:16:33Z</time>
      </trkpt>
      <trkpt lat="44.22488" lon="7.12463">
        <ele>2063.6</ele>
        <time>2022-07-19T06:16:34Z</time>
      </trkpt>
      <trkpt lat="44.22486" lon="7.12465">
        <ele>2063.6</ele>
        <time>2022-07-19T06:16:35Z</time>
      </trkpt>
      <trkpt lat="44.22485" lon="7.12467">
        <ele>2063.8</ele>
        <time>2022-07-19T06:16:36Z</time>
      </trkpt>
      <trkpt lat="44.22485" lon="7.12469">
        <ele>2063.8</ele>
        <time>2022-07-19T06:16:37Z</time>
      </trkpt>
      <trkpt lat="44.22484" lon="7.12471">
        <ele>2064</ele>
        <time>2022-07-19T06:16:38Z</time>
      </trkpt>
      <trkpt lat="44.22483" lon="7.12473">
        <ele>2064</ele>
        <time>2022-07-19T06:16:39Z</time>
      </trkpt>
      <trkpt lat="44.22482" lon="7.12475">
        <ele>2064.4</ele>
        <time>2022-07-19T06:16:40Z</time>
      </trkpt>
      <trkpt lat="44.22482" lon="7.12477">
        <ele>2064.4</ele>
        <time>2022-07-19T06:16:41Z</time>
      </trkpt>
      <trkpt lat="44.22481" lon="7.12479">
        <ele>2064.6</ele>
        <time>2022-07-19T06:16:42Z</time>
      </trkpt>
      <trkpt lat="44.22479" lon="7.12481">
        <ele>2065</ele>
        <time>2022-07-19T06:16:43Z</time>
      </trkpt>
      <trkpt lat="44.22478" lon="7.12484">
        <ele>2065</ele>
        <time>2022-07-19T06:16:44Z</time>
      </trkpt>
      <trkpt lat="44.22477" lon="7.12486">
        <ele>2065.2</ele>
        <time>2022-07-19T06:16:45Z</time>
      </trkpt>
      <trkpt lat="44.22477" lon="7.12489">
        <ele>2065.2</ele>
        <time>2022-07-19T06:16:46Z</time>
      </trkpt>
      <trkpt lat="44.22476" lon="7.12491">
        <ele>2065.6</ele>
        <time>2022-07-19T06:16:47Z</time>
      </trkpt>
      <trkpt lat="44.22475" lon="7.12493">
        <ele>2065.8</ele>
        <time>2022-07-19T06:16:48Z</time>
      </trkpt>
      <trkpt lat="44.22474" lon="7.12495">
        <ele>2065.8</ele>
        <time>2022-07-19T06:16:49Z</time>
      </trkpt>
      <trkpt lat="44.22473" lon="7.12497">
        <ele>2066.2</ele>
        <time>2022-07-19T06:16:50Z</time>
      </trkpt>
      <trkpt lat="44.22472" lon="7.12499">
        <ele>2066.2</ele>
        <time>2022-07-19T06:16:51Z</time>
      </trkpt>
      <trkpt lat="44.22471" lon="7.12501">
        <ele>2066.4</ele>
        <time>2022-07-19T06:16:52Z</time>
      </trkpt>
      <trkpt lat="44.2247" lon="7.12504">
        <ele>2066.4</ele>
        <time>2022-07-19T06:16:53Z</time>
      </trkpt>
      <trkpt lat="44.2247" lon="7.12506">
        <ele>2066.8</ele>
        <time>2022-07-19T06:16:54Z</time>
      </trkpt>
      <trkpt lat="44.22469" lon="7.12508">
        <ele>2066.8</ele>
        <time>2022-07-19T06:16:55Z</time>
      </trkpt>
      <trkpt lat="44.22468" lon="7.1251">
        <ele>2067</ele>
        <time>2022-07-19T06:16:56Z</time>
      </trkpt>
      <trkpt lat="44.22467" lon="7.12512">
        <ele>2067</ele>
        <time>2022-07-19T06:16:57Z</time>
      </trkpt>
      <trkpt lat="44.22466" lon="7.12514">
        <ele>2067.4</ele>
        <time>2022-07-19T06:16:58Z</time>
      </trkpt>
      <trkpt lat="44.22465" lon="7.12516">
        <ele>2067.4</ele>
        <time>2022-07-19T06:16:59Z</time>
      </trkpt>
      <trkpt lat="44.22464" lon="7.12518">
        <ele>2067.6</ele>
        <time>2022-07-19T06:17:00Z</time>
      </trkpt>
      <trkpt lat="44.22463" lon="7.1252">
        <ele>2067.6</ele>
        <time>2022-07-19T06:17:01Z</time>
      </trkpt>
      <trkpt lat="44.22462" lon="7.12522">
        <ele>2068</ele>
        <time>2022-07-19T06:17:02Z</time>
      </trkpt>
      <trkpt lat="44.22461" lon="7.12524">
        <ele>2068</ele>
        <time>2022-07-19T06:17:03Z</time>
      </trkpt>
      <trkpt lat="44.2246" lon="7.12526">
        <ele>2068.2</ele>
        <time>2022-07-19T06:17:04Z</time>
      </trkpt>
      <trkpt lat="44.22459" lon="7.12528">
        <ele>2068.2</ele>
        <time>2022-07-19T06:17:05Z</time>
      </trkpt>
      <trkpt lat="44.22458" lon="7.1253">
        <ele>2068.4</ele>
        <time>2022-07-19T06:17:06Z</time>
      </trkpt>
      <trkpt lat="44.22456" lon="7.12532">
        <ele>2068.8</ele>
        <time>2022-07-19T06:17:07Z</time>
      </trkpt>
      <trkpt lat="44.22456" lon="7.12535">
        <ele>2068.8</ele>
        <time>2022-07-19T06:17:08Z</time>
      </trkpt>
      <trkpt lat="44.22455" lon="7.12537">
        <ele>2069</ele>
        <time>2022-07-19T06:17:09Z</time>
      </trkpt>
      <trkpt lat="44.22454" lon="7.12539">
        <ele>2069.2</ele>
        <time>2022-07-19T06:17:10Z</time>
      </trkpt>
      <trkpt lat="44.22453" lon="7.12541">
        <ele>2069.4</ele>
        <time>2022-07-19T06:17:11Z</time>
      </trkpt>
      <trkpt lat="44.22452" lon="7.12543">
        <ele>2069.4</ele>
        <time>2022-07-19T06:17:12Z</time>
      </trkpt>
      <trkpt lat="44.22451" lon="7.12545">
        <ele>2069.6</ele>
        <time>2022-07-19T06:17:13Z</time>
      </trkpt>
      <trkpt lat="44.2245" lon="7.12547">
        <ele>2070</ele>
        <time>2022-07-19T06:17:14Z</time>
      </trkpt>
      <trkpt lat="44.22449" lon="7.12549">
        <ele>2070</ele>
        <time>2022-07-19T06:17:15Z</time>
      </trkpt>
      <trkpt lat="44.22448" lon="7.12552">
        <ele>2070.2</ele>
        <time>2022-07-19T06:17:16Z</time>
      </trkpt>
      <trkpt lat="44.22447" lon="7.12554">
        <ele>2070.2</ele>
        <time>2022-07-19T06:17:17Z</time>
      </trkpt>
      <trkpt lat="44.22446" lon="7.12556">
        <ele>2070.4</ele>
        <time>2022-07-19T06:17:18Z</time>
      </trkpt>
      <trkpt lat="44.22445" lon="7.12558">
        <ele>2070.4</ele>
        <time>2022-07-19T06:17:19Z</time>
      </trkpt>
      <trkpt lat="44.22444" lon="7.1256">
        <ele>2070.8</ele>
        <time>2022-07-19T06:17:20Z</time>
      </trkpt>
      <trkpt lat="44.22443" lon="7.12562">
        <ele>2070.8</ele>
        <time>2022-07-19T06:17:21Z</time>
      </trkpt>
      <trkpt lat="44.22442" lon="7.12564">
        <ele>2071</ele>
        <time>2022-07-19T06:17:22Z</time>
      </trkpt>
      <trkpt lat="44.22441" lon="7.12565">
        <ele>2071</ele>
        <time>2022-07-19T06:17:23Z</time>
      </trkpt>
      <trkpt lat="44.2244" lon="7.12568">
        <ele>2071.4</ele>
        <time>2022-07-19T06:17:24Z</time>
      </trkpt>
      <trkpt lat="44.22439" lon="7.1257">
        <ele>2071.4</ele>
        <time>2022-07-19T06:17:25Z</time>
      </trkpt>
      <trkpt lat="44.22438" lon="7.12572">
        <ele>2071.6</ele>
        <time>2022-07-19T06:17:26Z</time>
      </trkpt>
      <trkpt lat="44.22438" lon="7.12574">
        <ele>2071.6</ele>
        <time>2022-07-19T06:17:27Z</time>
      </trkpt>
      <trkpt lat="44.22437" lon="7.12576">
        <ele>2072</ele>
        <time>2022-07-19T06:17:28Z</time>
      </trkpt>
      <trkpt lat="44.22436" lon="7.12578">
        <ele>2072</ele>
        <time>2022-07-19T06:17:29Z</time>
      </trkpt>
      <trkpt lat="44.22435" lon="7.1258">
        <ele>2072.4</ele>
        <time>2022-07-19T06:17:30Z</time>
      </trkpt>
      <trkpt lat="44.22434" lon="7.12582">
        <ele>2072.4</ele>
        <time>2022-07-19T06:17:31Z</time>
      </trkpt>
      <trkpt lat="44.22434" lon="7.12584">
        <ele>2072.8</ele>
        <time>2022-07-19T06:17:32Z</time>
      </trkpt>
      <trkpt lat="44.22433" lon="7.12587">
        <ele>2072.8</ele>
        <time>2022-07-19T06:17:33Z</time>
      </trkpt>
      <trkpt lat="44.22432" lon="7.12589">
        <ele>2072.8</ele>
        <time>2022-07-19T06:17:34Z</time>
      </trkpt>
      <trkpt lat="44.22431" lon="7.12591">
        <ele>2073</ele>
        <time>2022-07-19T06:17:35Z</time>
      </trkpt>
      <trkpt lat="44.2243" lon="7.12593">
        <ele>2073</ele>
        <time>2022-07-19T06:17:36Z</time>
      </trkpt>
      <trkpt lat="44.22429" lon="7.12595">
        <ele>2073.4</ele>
        <time>2022-07-19T06:17:37Z</time>
      </trkpt>
      <trkpt lat="44.22428" lon="7.12597">
        <ele>2073.4</ele>
        <time>2022-07-19T06:17:38Z</time>
      </trkpt>
      <trkpt lat="44.22427" lon="7.12599">
        <ele>2073.6</ele>
        <time>2022-07-19T06:17:39Z</time>
      </trkpt>
      <trkpt lat="44.22426" lon="7.12601">
        <ele>2073.6</ele>
        <time>2022-07-19T06:17:40Z</time>
      </trkpt>
      <trkpt lat="44.22426" lon="7.12603">
        <ele>2074</ele>
        <time>2022-07-19T06:17:41Z</time>
      </trkpt>
      <trkpt lat="44.22425" lon="7.12605">
        <ele>2074</ele>
        <time>2022-07-19T06:17:42Z</time>
      </trkpt>
      <trkpt lat="44.22424" lon="7.12608">
        <ele>2074.2</ele>
        <time>2022-07-19T06:17:43Z</time>
      </trkpt>
      <trkpt lat="44.22423" lon="7.12609">
        <ele>2074.2</ele>
        <time>2022-07-19T06:17:44Z</time>
      </trkpt>
      <trkpt lat="44.22422" lon="7.12611">
        <ele>2074.6</ele>
        <time>2022-07-19T06:17:45Z</time>
      </trkpt>
      <trkpt lat="44.22421" lon="7.12613">
        <ele>2074.8</ele>
        <time>2022-07-19T06:17:46Z</time>
      </trkpt>
      <trkpt lat="44.2242" lon="7.12615">
        <ele>2074.8</ele>
        <time>2022-07-19T06:17:47Z</time>
      </trkpt>
      <trkpt lat="44.2242" lon="7.12618">
        <ele>2075</ele>
        <time>2022-07-19T06:17:48Z</time>
      </trkpt>
      <trkpt lat="44.22419" lon="7.1262">
        <ele>2075</ele>
        <time>2022-07-19T06:17:49Z</time>
      </trkpt>
      <trkpt lat="44.22418" lon="7.12622">
        <ele>2075.4</ele>
        <time>2022-07-19T06:17:50Z</time>
      </trkpt>
      <trkpt lat="44.22417" lon="7.12624">
        <ele>2075.4</ele>
        <time>2022-07-19T06:17:51Z</time>
      </trkpt>
      <trkpt lat="44.22416" lon="7.12626">
        <ele>2075.6</ele>
        <time>2022-07-19T06:17:52Z</time>
      </trkpt>
      <trkpt lat="44.22415" lon="7.12628">
        <ele>2075.6</ele>
        <time>2022-07-19T06:17:53Z</time>
      </trkpt>
      <trkpt lat="44.22415" lon="7.1263">
        <ele>2075.8</ele>
        <time>2022-07-19T06:17:54Z</time>
      </trkpt>
      <trkpt lat="44.22414" lon="7.12633">
        <ele>2075.8</ele>
        <time>2022-07-19T06:17:55Z</time>
      </trkpt>
      <trkpt lat="44.22413" lon="7.12635">
        <ele>2076</ele>
        <time>2022-07-19T06:17:56Z</time>
      </trkpt>
      <trkpt lat="44.22413" lon="7.12637">
        <ele>2076</ele>
        <time>2022-07-19T06:17:57Z</time>
      </trkpt>
      <trkpt lat="44.22412" lon="7.12639">
        <ele>2076.4</ele>
        <time>2022-07-19T06:17:58Z</time>
      </trkpt>
      <trkpt lat="44.22411" lon="7.12641">
        <ele>2076.4</ele>
        <time>2022-07-19T06:17:59Z</time>
      </trkpt>
      <trkpt lat="44.2241" lon="7.12643">
        <ele>2076.6</ele>
        <time>2022-07-19T06:18:00Z</time>
      </trkpt>
      <trkpt lat="44.2241" lon="7.12645">
        <ele>2076.6</ele>
        <time>2022-07-19T06:18:01Z</time>
      </trkpt>
      <trkpt lat="44.22409" lon="7.12647">
        <ele>2077</ele>
        <time>2022-07-19T06:18:02Z</time>
      </trkpt>
      <trkpt lat="44.22408" lon="7.12649">
        <ele>2077</ele>
        <time>2022-07-19T06:18:03Z</time>
      </trkpt>
      <trkpt lat="44.22407" lon="7.12651">
        <ele>2077.2</ele>
        <time>2022-07-19T06:18:04Z</time>
      </trkpt>
      <trkpt lat="44.22406" lon="7.12653">
        <ele>2077.2</ele>
        <time>2022-07-19T06:18:05Z</time>
      </trkpt>
      <trkpt lat="44.22406" lon="7.12655">
        <ele>2077.2</ele>
        <time>2022-07-19T06:18:06Z</time>
      </trkpt>
      <trkpt lat="44.22405" lon="7.12657">
        <ele>2077.6</ele>
        <time>2022-07-19T06:18:07Z</time>
      </trkpt>
      <trkpt lat="44.22405" lon="7.12659">
        <ele>2077.6</ele>
        <time>2022-07-19T06:18:08Z</time>
      </trkpt>
      <trkpt lat="44.22404" lon="7.12661">
        <ele>2078</ele>
        <time>2022-07-19T06:18:09Z</time>
      </trkpt>
      <trkpt lat="44.22403" lon="7.12663">
        <ele>2078</ele>
        <time>2022-07-19T06:18:10Z</time>
      </trkpt>
      <trkpt lat="44.22402" lon="7.12665">
        <ele>2078.2</ele>
        <time>2022-07-19T06:18:11Z</time>
      </trkpt>
      <trkpt lat="44.22401" lon="7.12667">
        <ele>2078.2</ele>
        <time>2022-07-19T06:18:12Z</time>
      </trkpt>
      <trkpt lat="44.22401" lon="7.12669">
        <ele>2078.4</ele>
        <time>2022-07-19T06:18:13Z</time>
      </trkpt>
      <trkpt lat="44.224" lon="7.12671">
        <ele>2078.4</ele>
        <time>2022-07-19T06:18:14Z</time>
      </trkpt>
      <trkpt lat="44.22399" lon="7.12673">
        <ele>2078.8</ele>
        <time>2022-07-19T06:18:15Z</time>
      </trkpt>
      <trkpt lat="44.22398" lon="7.12675">
        <ele>2078.8</ele>
        <time>2022-07-19T06:18:16Z</time>
      </trkpt>
      <trkpt lat="44.22397" lon="7.12677">
        <ele>2079.4</ele>
        <time>2022-07-19T06:18:17Z</time>
      </trkpt>
      <trkpt lat="44.22396" lon="7.12679">
        <ele>2079.4</ele>
        <time>2022-07-19T06:18:18Z</time>
      </trkpt>
      <trkpt lat="44.22395" lon="7.12682">
        <ele>2079.4</ele>
        <time>2022-07-19T06:18:19Z</time>
      </trkpt>
      <trkpt lat="44.22395" lon="7.12684">
        <ele>2079.6</ele>
        <time>2022-07-19T06:18:20Z</time>
      </trkpt>
      <trkpt lat="44.22394" lon="7.12686">
        <ele>2079.6</ele>
        <time>2022-07-19T06:18:21Z</time>
      </trkpt>
      <trkpt lat="44.22393" lon="7.12689">
        <ele>2079.8</ele>
        <time>2022-07-19T06:18:22Z</time>
      </trkpt>
      <trkpt lat="44.22392" lon="7.12691">
        <ele>2079.8</ele>
        <time>2022-07-19T06:18:23Z</time>
      </trkpt>
      <trkpt lat="44.22392" lon="7.12694">
        <ele>2080</ele>
        <time>2022-07-19T06:18:24Z</time>
      </trkpt>
      <trkpt lat="44.22391" lon="7.12696">
        <ele>2080</ele>
        <time>2022-07-19T06:18:25Z</time>
      </trkpt>
      <trkpt lat="44.22391" lon="7.12698">
        <ele>2080.4</ele>
        <time>2022-07-19T06:18:26Z</time>
      </trkpt>
      <trkpt lat="44.2239" lon="7.12701">
        <ele>2080.4</ele>
        <time>2022-07-19T06:18:27Z</time>
      </trkpt>
      <trkpt lat="44.22389" lon="7.12703">
        <ele>2080.6</ele>
        <time>2022-07-19T06:18:28Z</time>
      </trkpt>
      <trkpt lat="44.22388" lon="7.12705">
        <ele>2080.6</ele>
        <time>2022-07-19T06:18:29Z</time>
      </trkpt>
      <trkpt lat="44.22388" lon="7.12708">
        <ele>2080.8</ele>
        <time>2022-07-19T06:18:30Z</time>
      </trkpt>
      <trkpt lat="44.22387" lon="7.1271">
        <ele>2080.8</ele>
        <time>2022-07-19T06:18:31Z</time>
      </trkpt>
      <trkpt lat="44.22387" lon="7.12712">
        <ele>2080.8</ele>
        <time>2022-07-19T06:18:32Z</time>
      </trkpt>
      <trkpt lat="44.22386" lon="7.12715">
        <ele>2081.2</ele>
        <time>2022-07-19T06:18:33Z</time>
      </trkpt>
      <trkpt lat="44.22386" lon="7.12717">
        <ele>2081.2</ele>
        <time>2022-07-19T06:18:34Z</time>
      </trkpt>
      <trkpt lat="44.22385" lon="7.1272">
        <ele>2081.2</ele>
        <time>2022-07-19T06:18:35Z</time>
      </trkpt>
      <trkpt lat="44.22385" lon="7.12723">
        <ele>2081.4</ele>
        <time>2022-07-19T06:18:36Z</time>
      </trkpt>
      <trkpt lat="44.22384" lon="7.12725">
        <ele>2081.4</ele>
        <time>2022-07-19T06:18:37Z</time>
      </trkpt>
      <trkpt lat="44.22383" lon="7.12728">
        <ele>2081.8</ele>
        <time>2022-07-19T06:18:38Z</time>
      </trkpt>
      <trkpt lat="44.22382" lon="7.12731">
        <ele>2081.8</ele>
        <time>2022-07-19T06:18:39Z</time>
      </trkpt>
      <trkpt lat="44.22381" lon="7.12733">
        <ele>2082</ele>
        <time>2022-07-19T06:18:40Z</time>
      </trkpt>
      <trkpt lat="44.2238" lon="7.12736">
        <ele>2082</ele>
        <time>2022-07-19T06:18:41Z</time>
      </trkpt>
      <trkpt lat="44.22378" lon="7.12738">
        <ele>2082.2</ele>
        <time>2022-07-19T06:18:42Z</time>
      </trkpt>
      <trkpt lat="44.22377" lon="7.1274">
        <ele>2082.2</ele>
        <time>2022-07-19T06:18:43Z</time>
      </trkpt>
      <trkpt lat="44.22375" lon="7.12742">
        <ele>2082.2</ele>
        <time>2022-07-19T06:18:44Z</time>
      </trkpt>
      <trkpt lat="44.22374" lon="7.12744">
        <ele>2082.4</ele>
        <time>2022-07-19T06:18:45Z</time>
      </trkpt>
      <trkpt lat="44.22373" lon="7.12746">
        <ele>2082.4</ele>
        <time>2022-07-19T06:18:46Z</time>
      </trkpt>
      <trkpt lat="44.22371" lon="7.12749">
        <ele>2082.6</ele>
        <time>2022-07-19T06:18:47Z</time>
      </trkpt>
      <trkpt lat="44.2237" lon="7.12751">
        <ele>2082.6</ele>
        <time>2022-07-19T06:18:48Z</time>
      </trkpt>
      <trkpt lat="44.22369" lon="7.12754">
        <ele>2083</ele>
        <time>2022-07-19T06:18:49Z</time>
      </trkpt>
      <trkpt lat="44.22368" lon="7.12756">
        <ele>2083</ele>
        <time>2022-07-19T06:18:50Z</time>
      </trkpt>
      <trkpt lat="44.22367" lon="7.12759">
        <ele>2083</ele>
        <time>2022-07-19T06:18:51Z</time>
      </trkpt>
      <trkpt lat="44.22366" lon="7.12761">
        <ele>2083</ele>
        <time>2022-07-19T06:18:52Z</time>
      </trkpt>
      <trkpt lat="44.22365" lon="7.12763">
        <ele>2083.4</ele>
        <time>2022-07-19T06:18:53Z</time>
      </trkpt>
      <trkpt lat="44.22365" lon="7.12765">
        <ele>2083.4</ele>
        <time>2022-07-19T06:18:54Z</time>
      </trkpt>
      <trkpt lat="44.22364" lon="7.12768">
        <ele>2083.6</ele>
        <time>2022-07-19T06:18:55Z</time>
      </trkpt>
      <trkpt lat="44.22363" lon="7.1277">
        <ele>2083.6</ele>
        <time>2022-07-19T06:18:56Z</time>
      </trkpt>
      <trkpt lat="44.22363" lon="7.12772">
        <ele>2083.8</ele>
        <time>2022-07-19T06:18:57Z</time>
      </trkpt>
      <trkpt lat="44.22362" lon="7.12774">
        <ele>2083.8</ele>
        <time>2022-07-19T06:18:58Z</time>
      </trkpt>
      <trkpt lat="44.22361" lon="7.12777">
        <ele>2084.2</ele>
        <time>2022-07-19T06:18:59Z</time>
      </trkpt>
      <trkpt lat="44.22361" lon="7.12779">
        <ele>2084.2</ele>
        <time>2022-07-19T06:19:00Z</time>
      </trkpt>
      <trkpt lat="44.2236" lon="7.12781">
        <ele>2084.2</ele>
        <time>2022-07-19T06:19:01Z</time>
      </trkpt>
      <trkpt lat="44.22359" lon="7.12783">
        <ele>2084.4</ele>
        <time>2022-07-19T06:19:02Z</time>
      </trkpt>
      <trkpt lat="44.22358" lon="7.12785">
        <ele>2084.4</ele>
        <time>2022-07-19T06:19:03Z</time>
      </trkpt>
      <trkpt lat="44.22357" lon="7.12787">
        <ele>2084.4</ele>
        <time>2022-07-19T06:19:04Z</time>
      </trkpt>
      <trkpt lat="44.22357" lon="7.12789">
        <ele>2084.6</ele>
        <time>2022-07-19T06:19:05Z</time>
      </trkpt>
      <trkpt lat="44.22356" lon="7.12791">
        <ele>2084.6</ele>
        <time>2022-07-19T06:19:06Z</time>
      </trkpt>
      <trkpt lat="44.22355" lon="7.12793">
        <ele>2084.8</ele>
        <time>2022-07-19T06:19:07Z</time>
      </trkpt>
      <trkpt lat="44.22354" lon="7.12796">
        <ele>2084.8</ele>
        <time>2022-07-19T06:19:08Z</time>
      </trkpt>
      <trkpt lat="44.22353" lon="7.12798">
        <ele>2085.2</ele>
        <time>2022-07-19T06:19:09Z</time>
      </trkpt>
      <trkpt lat="44.22352" lon="7.128">
        <ele>2085.4</ele>
        <time>2022-07-19T06:19:10Z</time>
      </trkpt>
      <trkpt lat="44.22351" lon="7.12802">
        <ele>2085.4</ele>
        <time>2022-07-19T06:19:11Z</time>
      </trkpt>
      <trkpt lat="44.22351" lon="7.12805">
        <ele>2085.8</ele>
        <time>2022-07-19T06:19:12Z</time>
      </trkpt>
      <trkpt lat="44.2235" lon="7.12807">
        <ele>2085.8</ele>
        <time>2022-07-19T06:19:13Z</time>
      </trkpt>
      <trkpt lat="44.22349" lon="7.12809">
        <ele>2086</ele>
        <time>2022-07-19T06:19:14Z</time>
      </trkpt>
      <trkpt lat="44.22349" lon="7.12812">
        <ele>2086</ele>
        <time>2022-07-19T06:19:15Z</time>
      </trkpt>
      <trkpt lat="44.22348" lon="7.12814">
        <ele>2086.4</ele>
        <time>2022-07-19T06:19:16Z</time>
      </trkpt>
      <trkpt lat="44.22347" lon="7.12816">
        <ele>2086.6</ele>
        <time>2022-07-19T06:19:17Z</time>
      </trkpt>
      <trkpt lat="44.22346" lon="7.12819">
        <ele>2086.6</ele>
        <time>2022-07-19T06:19:18Z</time>
      </trkpt>
      <trkpt lat="44.22346" lon="7.12821">
        <ele>2086.8</ele>
        <time>2022-07-19T06:19:19Z</time>
      </trkpt>
      <trkpt lat="44.22345" lon="7.12823">
        <ele>2086.8</ele>
        <time>2022-07-19T06:19:20Z</time>
      </trkpt>
      <trkpt lat="44.22344" lon="7.12826">
        <ele>2087.2</ele>
        <time>2022-07-19T06:19:21Z</time>
      </trkpt>
      <trkpt lat="44.22344" lon="7.12828">
        <ele>2087.2</ele>
        <time>2022-07-19T06:19:22Z</time>
      </trkpt>
      <trkpt lat="44.22343" lon="7.12831">
        <ele>2087.4</ele>
        <time>2022-07-19T06:19:23Z</time>
      </trkpt>
      <trkpt lat="44.22341" lon="7.12833">
        <ele>2087.4</ele>
        <time>2022-07-19T06:19:24Z</time>
      </trkpt>
      <trkpt lat="44.2234" lon="7.12834">
        <ele>2087.4</ele>
        <time>2022-07-19T06:19:25Z</time>
      </trkpt>
      <trkpt lat="44.22339" lon="7.12836">
        <ele>2087.6</ele>
        <time>2022-07-19T06:19:26Z</time>
      </trkpt>
      <trkpt lat="44.22338" lon="7.12838">
        <ele>2087.6</ele>
        <time>2022-07-19T06:19:27Z</time>
      </trkpt>
      <trkpt lat="44.22337" lon="7.12841">
        <ele>2087.6</ele>
        <time>2022-07-19T06:19:28Z</time>
      </trkpt>
      <trkpt lat="44.22337" lon="7.12843">
        <ele>2088</ele>
        <time>2022-07-19T06:19:29Z</time>
      </trkpt>
      <trkpt lat="44.22336" lon="7.12845">
        <ele>2088</ele>
        <time>2022-07-19T06:19:30Z</time>
      </trkpt>
      <trkpt lat="44.22335" lon="7.12847">
        <ele>2088.4</ele>
        <time>2022-07-19T06:19:31Z</time>
      </trkpt>
      <trkpt lat="44.22334" lon="7.12849">
        <ele>2088.4</ele>
        <time>2022-07-19T06:19:32Z</time>
      </trkpt>
      <trkpt lat="44.22333" lon="7.12851">
        <ele>2088.6</ele>
        <time>2022-07-19T06:19:33Z</time>
      </trkpt>
      <trkpt lat="44.22332" lon="7.12852">
        <ele>2088.6</ele>
        <time>2022-07-19T06:19:34Z</time>
      </trkpt>
      <trkpt lat="44.22331" lon="7.12854">
        <ele>2088.8</ele>
        <time>2022-07-19T06:19:35Z</time>
      </trkpt>
      <trkpt lat="44.22331" lon="7.12856">
        <ele>2088.8</ele>
        <time>2022-07-19T06:19:36Z</time>
      </trkpt>
      <trkpt lat="44.2233" lon="7.12858">
        <ele>2089.2</ele>
        <time>2022-07-19T06:19:37Z</time>
      </trkpt>
      <trkpt lat="44.22329" lon="7.1286">
        <ele>2089.2</ele>
        <time>2022-07-19T06:19:38Z</time>
      </trkpt>
      <trkpt lat="44.22328" lon="7.12862">
        <ele>2089.2</ele>
        <time>2022-07-19T06:19:39Z</time>
      </trkpt>
      <trkpt lat="44.22327" lon="7.12864">
        <ele>2089.4</ele>
        <time>2022-07-19T06:19:40Z</time>
      </trkpt>
      <trkpt lat="44.22326" lon="7.12866">
        <ele>2089.4</ele>
        <time>2022-07-19T06:19:41Z</time>
      </trkpt>
      <trkpt lat="44.22326" lon="7.12868">
        <ele>2089.4</ele>
        <time>2022-07-19T06:19:42Z</time>
      </trkpt>
      <trkpt lat="44.22326" lon="7.12871">
        <ele>2089.8</ele>
        <time>2022-07-19T06:19:43Z</time>
      </trkpt>
      <trkpt lat="44.22326" lon="7.12873">
        <ele>2089.8</ele>
        <time>2022-07-19T06:19:44Z</time>
      </trkpt>
      <trkpt lat="44.22325" lon="7.12875">
        <ele>2090</ele>
        <time>2022-07-19T06:19:45Z</time>
      </trkpt>
      <trkpt lat="44.22325" lon="7.12878">
        <ele>2090</ele>
        <time>2022-07-19T06:19:46Z</time>
      </trkpt>
      <trkpt lat="44.22324" lon="7.1288">
        <ele>2090.4</ele>
        <time>2022-07-19T06:19:47Z</time>
      </trkpt>
      <trkpt lat="44.22323" lon="7.12883">
        <ele>2090.6</ele>
        <time>2022-07-19T06:19:48Z</time>
      </trkpt>
      <trkpt lat="44.22322" lon="7.12885">
        <ele>2090.8</ele>
        <time>2022-07-19T06:19:49Z</time>
      </trkpt>
      <trkpt lat="44.22322" lon="7.12887">
        <ele>2090.8</ele>
        <time>2022-07-19T06:19:50Z</time>
      </trkpt>
      <trkpt lat="44.22321" lon="7.12889">
        <ele>2091.2</ele>
        <time>2022-07-19T06:19:51Z</time>
      </trkpt>
      <trkpt lat="44.2232" lon="7.12891">
        <ele>2091.2</ele>
        <time>2022-07-19T06:19:52Z</time>
      </trkpt>
      <trkpt lat="44.2232" lon="7.12894">
        <ele>2091.4</ele>
        <time>2022-07-19T06:19:53Z</time>
      </trkpt>
      <trkpt lat="44.22319" lon="7.12896">
        <ele>2091.8</ele>
        <time>2022-07-19T06:19:54Z</time>
      </trkpt>
      <trkpt lat="44.22319" lon="7.12898">
        <ele>2091.8</ele>
        <time>2022-07-19T06:19:55Z</time>
      </trkpt>
      <trkpt lat="44.22318" lon="7.129">
        <ele>2092</ele>
        <time>2022-07-19T06:19:56Z</time>
      </trkpt>
      <trkpt lat="44.22317" lon="7.12902">
        <ele>2092</ele>
        <time>2022-07-19T06:19:57Z</time>
      </trkpt>
      <trkpt lat="44.22317" lon="7.12904">
        <ele>2092.2</ele>
        <time>2022-07-19T06:19:58Z</time>
      </trkpt>
      <trkpt lat="44.22316" lon="7.12907">
        <ele>2092.2</ele>
        <time>2022-07-19T06:19:59Z</time>
      </trkpt>
      <trkpt lat="44.22316" lon="7.12909">
        <ele>2092.6</ele>
        <time>2022-07-19T06:20:00Z</time>
      </trkpt>
      <trkpt lat="44.22315" lon="7.12911">
        <ele>2092.6</ele>
        <time>2022-07-19T06:20:01Z</time>
      </trkpt>
      <trkpt lat="44.22314" lon="7.12914">
        <ele>2093</ele>
        <time>2022-07-19T06:20:02Z</time>
      </trkpt>
      <trkpt lat="44.22314" lon="7.12916">
        <ele>2093</ele>
        <time>2022-07-19T06:20:03Z</time>
      </trkpt>
      <trkpt lat="44.22313" lon="7.12918">
        <ele>2093.4</ele>
        <time>2022-07-19T06:20:04Z</time>
      </trkpt>
      <trkpt lat="44.22312" lon="7.1292">
        <ele>2093.4</ele>
        <time>2022-07-19T06:20:05Z</time>
      </trkpt>
      <trkpt lat="44.22312" lon="7.12923">
        <ele>2093.8</ele>
        <time>2022-07-19T06:20:06Z</time>
      </trkpt>
      <trkpt lat="44.22312" lon="7.12925">
        <ele>2094</ele>
        <time>2022-07-19T06:20:07Z</time>
      </trkpt>
      <trkpt lat="44.22311" lon="7.12927">
        <ele>2094.2</ele>
        <time>2022-07-19T06:20:08Z</time>
      </trkpt>
      <trkpt lat="44.22311" lon="7.12929">
        <ele>2094.2</ele>
        <time>2022-07-19T06:20:09Z</time>
      </trkpt>
      <trkpt lat="44.2231" lon="7.12931">
        <ele>2094.6</ele>
        <time>2022-07-19T06:20:10Z</time>
      </trkpt>
      <trkpt lat="44.22309" lon="7.12933">
        <ele>2094.6</ele>
        <time>2022-07-19T06:20:11Z</time>
      </trkpt>
      <trkpt lat="44.22309" lon="7.12935">
        <ele>2094.8</ele>
        <time>2022-07-19T06:20:12Z</time>
      </trkpt>
      <trkpt lat="44.22308" lon="7.12938">
        <ele>2095</ele>
        <time>2022-07-19T06:20:13Z</time>
      </trkpt>
      <trkpt lat="44.22308" lon="7.1294">
        <ele>2095</ele>
        <time>2022-07-19T06:20:14Z</time>
      </trkpt>
      <trkpt lat="44.22307" lon="7.12942">
        <ele>2095.4</ele>
        <time>2022-07-19T06:20:15Z</time>
      </trkpt>
      <trkpt lat="44.22307" lon="7.12944">
        <ele>2095.6</ele>
        <time>2022-07-19T06:20:16Z</time>
      </trkpt>
      <trkpt lat="44.22306" lon="7.12947">
        <ele>2096</ele>
        <time>2022-07-19T06:20:17Z</time>
      </trkpt>
      <trkpt lat="44.22305" lon="7.12949">
        <ele>2096</ele>
        <time>2022-07-19T06:20:18Z</time>
      </trkpt>
      <trkpt lat="44.22305" lon="7.12951">
        <ele>2096.4</ele>
        <time>2022-07-19T06:20:19Z</time>
      </trkpt>
      <trkpt lat="44.22304" lon="7.12953">
        <ele>2096.6</ele>
        <time>2022-07-19T06:20:20Z</time>
      </trkpt>
      <trkpt lat="44.22303" lon="7.12955">
        <ele>2096.6</ele>
        <time>2022-07-19T06:20:21Z</time>
      </trkpt>
      <trkpt lat="44.22302" lon="7.12957">
        <ele>2097</ele>
        <time>2022-07-19T06:20:22Z</time>
      </trkpt>
      <trkpt lat="44.22301" lon="7.12959">
        <ele>2097</ele>
        <time>2022-07-19T06:20:23Z</time>
      </trkpt>
      <trkpt lat="44.223" lon="7.12961">
        <ele>2097.2</ele>
        <time>2022-07-19T06:20:24Z</time>
      </trkpt>
      <trkpt lat="44.22299" lon="7.12963">
        <ele>2097.2</ele>
        <time>2022-07-19T06:20:25Z</time>
      </trkpt>
      <trkpt lat="44.22298" lon="7.12964">
        <ele>2097.4</ele>
        <time>2022-07-19T06:20:26Z</time>
      </trkpt>
      <trkpt lat="44.22296" lon="7.12968">
        <ele>2097.4</ele>
        <time>2022-07-19T06:20:27Z</time>
      </trkpt>
      <trkpt lat="44.22294" lon="7.12969">
        <ele>2097.8</ele>
        <time>2022-07-19T06:20:28Z</time>
      </trkpt>
      <trkpt lat="44.22293" lon="7.12971">
        <ele>2098.2</ele>
        <time>2022-07-19T06:20:29Z</time>
      </trkpt>
      <trkpt lat="44.22292" lon="7.12973">
        <ele>2098.2</ele>
        <time>2022-07-19T06:20:30Z</time>
      </trkpt>
      <trkpt lat="44.22291" lon="7.12975">
        <ele>2098.4</ele>
        <time>2022-07-19T06:20:31Z</time>
      </trkpt>
      <trkpt lat="44.2229" lon="7.12976">
        <ele>2098.4</ele>
        <time>2022-07-19T06:20:32Z</time>
      </trkpt>
      <trkpt lat="44.22289" lon="7.12978">
        <ele>2098.8</ele>
        <time>2022-07-19T06:20:33Z</time>
      </trkpt>
      <trkpt lat="44.22288" lon="7.1298">
        <ele>2098.8</ele>
        <time>2022-07-19T06:20:34Z</time>
      </trkpt>
      <trkpt lat="44.22287" lon="7.12981">
        <ele>2099.2</ele>
        <time>2022-07-19T06:20:35Z</time>
      </trkpt>
      <trkpt lat="44.22286" lon="7.12983">
        <ele>2099.4</ele>
        <time>2022-07-19T06:20:36Z</time>
      </trkpt>
      <trkpt lat="44.22285" lon="7.12985">
        <ele>2099.4</ele>
        <time>2022-07-19T06:20:37Z</time>
      </trkpt>
      <trkpt lat="44.22284" lon="7.12987">
        <ele>2099.8</ele>
        <time>2022-07-19T06:20:38Z</time>
      </trkpt>
      <trkpt lat="44.22283" lon="7.12989">
        <ele>2100</ele>
        <time>2022-07-19T06:20:39Z</time>
      </trkpt>
      <trkpt lat="44.22282" lon="7.1299">
        <ele>2100</ele>
        <time>2022-07-19T06:20:40Z</time>
      </trkpt>
      <trkpt lat="44.22281" lon="7.12991">
        <ele>2100.4</ele>
        <time>2022-07-19T06:20:41Z</time>
      </trkpt>
      <trkpt lat="44.2228" lon="7.12992">
        <ele>2100.4</ele>
        <time>2022-07-19T06:20:42Z</time>
      </trkpt>
      <trkpt lat="44.22279" lon="7.12994">
        <ele>2100.6</ele>
        <time>2022-07-19T06:20:43Z</time>
      </trkpt>
      <trkpt lat="44.22278" lon="7.12995">
        <ele>2100.8</ele>
        <time>2022-07-19T06:20:44Z</time>
      </trkpt>
      <trkpt lat="44.22277" lon="7.12997">
        <ele>2100.8</ele>
        <time>2022-07-19T06:20:45Z</time>
      </trkpt>
      <trkpt lat="44.22276" lon="7.12999">
        <ele>2101.2</ele>
        <time>2022-07-19T06:20:46Z</time>
      </trkpt>
      <trkpt lat="44.22275" lon="7.13">
        <ele>2101.2</ele>
        <time>2022-07-19T06:20:47Z</time>
      </trkpt>
      <trkpt lat="44.22274" lon="7.13002">
        <ele>2101.6</ele>
        <time>2022-07-19T06:20:48Z</time>
      </trkpt>
      <trkpt lat="44.22273" lon="7.13004">
        <ele>2101.6</ele>
        <time>2022-07-19T06:20:49Z</time>
      </trkpt>
      <trkpt lat="44.22272" lon="7.13005">
        <ele>2101.8</ele>
        <time>2022-07-19T06:20:50Z</time>
      </trkpt>
      <trkpt lat="44.22271" lon="7.13007">
        <ele>2102</ele>
        <time>2022-07-19T06:20:51Z</time>
      </trkpt>
      <trkpt lat="44.22271" lon="7.13008">
        <ele>2102</ele>
        <time>2022-07-19T06:20:52Z</time>
      </trkpt>
      <trkpt lat="44.2227" lon="7.1301">
        <ele>2102.4</ele>
        <time>2022-07-19T06:20:53Z</time>
      </trkpt>
      <trkpt lat="44.22269" lon="7.13012">
        <ele>2102.6</ele>
        <time>2022-07-19T06:20:54Z</time>
      </trkpt>
      <trkpt lat="44.22268" lon="7.13013">
        <ele>2102.6</ele>
        <time>2022-07-19T06:20:55Z</time>
      </trkpt>
      <trkpt lat="44.22268" lon="7.13015">
        <ele>2103</ele>
        <time>2022-07-19T06:20:56Z</time>
      </trkpt>
      <trkpt lat="44.22267" lon="7.13017">
        <ele>2103.2</ele>
        <time>2022-07-19T06:20:57Z</time>
      </trkpt>
      <trkpt lat="44.22266" lon="7.13018">
        <ele>2103.2</ele>
        <time>2022-07-19T06:20:58Z</time>
      </trkpt>
      <trkpt lat="44.22266" lon="7.1302">
        <ele>2103.4</ele>
        <time>2022-07-19T06:20:59Z</time>
      </trkpt>
      <trkpt lat="44.22265" lon="7.13022">
        <ele>2103.6</ele>
        <time>2022-07-19T06:21:00Z</time>
      </trkpt>
      <trkpt lat="44.22264" lon="7.13023">
        <ele>2103.6</ele>
        <time>2022-07-19T06:21:01Z</time>
      </trkpt>
      <trkpt lat="44.22263" lon="7.13025">
        <ele>2104</ele>
        <time>2022-07-19T06:21:02Z</time>
      </trkpt>
      <trkpt lat="44.22263" lon="7.13026">
        <ele>2104</ele>
        <time>2022-07-19T06:21:03Z</time>
      </trkpt>
      <trkpt lat="44.22262" lon="7.13028">
        <ele>2104.2</ele>
        <time>2022-07-19T06:21:04Z</time>
      </trkpt>
      <trkpt lat="44.22261" lon="7.1303">
        <ele>2104.2</ele>
        <time>2022-07-19T06:21:05Z</time>
      </trkpt>
      <trkpt lat="44.2226" lon="7.13031">
        <ele>2104.2</ele>
        <time>2022-07-19T06:21:06Z</time>
      </trkpt>
      <trkpt lat="44.2226" lon="7.13033">
        <ele>2104.6</ele>
        <time>2022-07-19T06:21:07Z</time>
      </trkpt>
      <trkpt lat="44.22259" lon="7.13035">
        <ele>2104.6</ele>
        <time>2022-07-19T06:21:08Z</time>
      </trkpt>
      <trkpt lat="44.22258" lon="7.13037">
        <ele>2105</ele>
        <time>2022-07-19T06:21:09Z</time>
      </trkpt>
      <trkpt lat="44.22257" lon="7.13038">
        <ele>2105</ele>
        <time>2022-07-19T06:21:10Z</time>
      </trkpt>
      <trkpt lat="44.22257" lon="7.1304">
        <ele>2105.4</ele>
        <time>2022-07-19T06:21:11Z</time>
      </trkpt>
      <trkpt lat="44.22256" lon="7.13042">
        <ele>2105.4</ele>
        <time>2022-07-19T06:21:12Z</time>
      </trkpt>
      <trkpt lat="44.22255" lon="7.13044">
        <ele>2105.6</ele>
        <time>2022-07-19T06:21:13Z</time>
      </trkpt>
      <trkpt lat="44.22255" lon="7.13046">
        <ele>2105.6</ele>
        <time>2022-07-19T06:21:14Z</time>
      </trkpt>
      <trkpt lat="44.22254" lon="7.13048">
        <ele>2106</ele>
        <time>2022-07-19T06:21:15Z</time>
      </trkpt>
      <trkpt lat="44.22253" lon="7.1305">
        <ele>2106</ele>
        <time>2022-07-19T06:21:16Z</time>
      </trkpt>
      <trkpt lat="44.22253" lon="7.13051">
        <ele>2106.4</ele>
        <time>2022-07-19T06:21:17Z</time>
      </trkpt>
      <trkpt lat="44.22252" lon="7.13053">
        <ele>2106.6</ele>
        <time>2022-07-19T06:21:18Z</time>
      </trkpt>
      <trkpt lat="44.22251" lon="7.13055">
        <ele>2106.8</ele>
        <time>2022-07-19T06:21:19Z</time>
      </trkpt>
      <trkpt lat="44.22251" lon="7.13057">
        <ele>2106.8</ele>
        <time>2022-07-19T06:21:20Z</time>
      </trkpt>
      <trkpt lat="44.2225" lon="7.13058">
        <ele>2107.2</ele>
        <time>2022-07-19T06:21:21Z</time>
      </trkpt>
      <trkpt lat="44.22249" lon="7.1306">
        <ele>2107.2</ele>
        <time>2022-07-19T06:21:22Z</time>
      </trkpt>
      <trkpt lat="44.22248" lon="7.13062">
        <ele>2107.4</ele>
        <time>2022-07-19T06:21:23Z</time>
      </trkpt>
      <trkpt lat="44.22248" lon="7.13064">
        <ele>2107.4</ele>
        <time>2022-07-19T06:21:24Z</time>
      </trkpt>
      <trkpt lat="44.22247" lon="7.13066">
        <ele>2107.6</ele>
        <time>2022-07-19T06:21:25Z</time>
      </trkpt>
      <trkpt lat="44.22247" lon="7.13068">
        <ele>2107.6</ele>
        <time>2022-07-19T06:21:26Z</time>
      </trkpt>
      <trkpt lat="44.22246" lon="7.1307">
        <ele>2108</ele>
        <time>2022-07-19T06:21:27Z</time>
      </trkpt>
      <trkpt lat="44.22246" lon="7.13072">
        <ele>2108.2</ele>
        <time>2022-07-19T06:21:28Z</time>
      </trkpt>
      <trkpt lat="44.22245" lon="7.13073">
        <ele>2108.2</ele>
        <time>2022-07-19T06:21:29Z</time>
      </trkpt>
      <trkpt lat="44.22244" lon="7.13075">
        <ele>2108.6</ele>
        <time>2022-07-19T06:21:30Z</time>
      </trkpt>
      <trkpt lat="44.22244" lon="7.13077">
        <ele>2108.6</ele>
        <time>2022-07-19T06:21:31Z</time>
      </trkpt>
      <trkpt lat="44.22243" lon="7.13079">
        <ele>2108.8</ele>
        <time>2022-07-19T06:21:32Z</time>
      </trkpt>
      <trkpt lat="44.22243" lon="7.13081">
        <ele>2108.8</ele>
        <time>2022-07-19T06:21:33Z</time>
      </trkpt>
      <trkpt lat="44.22242" lon="7.13082">
        <ele>2109.4</ele>
        <time>2022-07-19T06:21:34Z</time>
      </trkpt>
      <trkpt lat="44.22242" lon="7.13084">
        <ele>2109.6</ele>
        <time>2022-07-19T06:21:35Z</time>
      </trkpt>
      <trkpt lat="44.22241" lon="7.13086">
        <ele>2109.6</ele>
        <time>2022-07-19T06:21:36Z</time>
      </trkpt>
      <trkpt lat="44.22241" lon="7.13087">
        <ele>2110</ele>
        <time>2022-07-19T06:21:37Z</time>
      </trkpt>
      <trkpt lat="44.22241" lon="7.13089">
        <ele>2110</ele>
        <time>2022-07-19T06:21:38Z</time>
      </trkpt>
      <trkpt lat="44.2224" lon="7.13091">
        <ele>2110.2</ele>
        <time>2022-07-19T06:21:39Z</time>
      </trkpt>
      <trkpt lat="44.2224" lon="7.13092">
        <ele>2110.2</ele>
        <time>2022-07-19T06:21:40Z</time>
      </trkpt>
      <trkpt lat="44.22239" lon="7.13094">
        <ele>2110.6</ele>
        <time>2022-07-19T06:21:41Z</time>
      </trkpt>
      <trkpt lat="44.22238" lon="7.13096">
        <ele>2110.6</ele>
        <time>2022-07-19T06:21:42Z</time>
      </trkpt>
      <trkpt lat="44.22237" lon="7.13098">
        <ele>2110.8</ele>
        <time>2022-07-19T06:21:43Z</time>
      </trkpt>
      <trkpt lat="44.22237" lon="7.13099">
        <ele>2110.8</ele>
        <time>2022-07-19T06:21:44Z</time>
      </trkpt>
      <trkpt lat="44.22236" lon="7.13101">
        <ele>2111</ele>
        <time>2022-07-19T06:21:45Z</time>
      </trkpt>
      <trkpt lat="44.22236" lon="7.13103">
        <ele>2111</ele>
        <time>2022-07-19T06:21:46Z</time>
      </trkpt>
      <trkpt lat="44.22236" lon="7.13105">
        <ele>2111.4</ele>
        <time>2022-07-19T06:21:47Z</time>
      </trkpt>
      <trkpt lat="44.22235" lon="7.13106">
        <ele>2111.4</ele>
        <time>2022-07-19T06:21:48Z</time>
      </trkpt>
      <trkpt lat="44.22234" lon="7.13108">
        <ele>2111.6</ele>
        <time>2022-07-19T06:21:49Z</time>
      </trkpt>
      <trkpt lat="44.22234" lon="7.13109">
        <ele>2111.6</ele>
        <time>2022-07-19T06:21:50Z</time>
      </trkpt>
      <trkpt lat="44.22233" lon="7.13111">
        <ele>2112</ele>
        <time>2022-07-19T06:21:51Z</time>
      </trkpt>
      <trkpt lat="44.22233" lon="7.13112">
        <ele>2112.2</ele>
        <time>2022-07-19T06:21:52Z</time>
      </trkpt>
      <trkpt lat="44.22233" lon="7.13114">
        <ele>2112.2</ele>
        <time>2022-07-19T06:21:53Z</time>
      </trkpt>
      <trkpt lat="44.22232" lon="7.13116">
        <ele>2112.4</ele>
        <time>2022-07-19T06:21:54Z</time>
      </trkpt>
      <trkpt lat="44.22231" lon="7.13118">
        <ele>2112.4</ele>
        <time>2022-07-19T06:21:55Z</time>
      </trkpt>
      <trkpt lat="44.22231" lon="7.13119">
        <ele>2112.8</ele>
        <time>2022-07-19T06:21:56Z</time>
      </trkpt>
      <trkpt lat="44.2223" lon="7.13121">
        <ele>2113.2</ele>
        <time>2022-07-19T06:21:58Z</time>
      </trkpt>
      <trkpt lat="44.2223" lon="7.13123">
        <ele>2113.2</ele>
        <time>2022-07-19T06:21:59Z</time>
      </trkpt>
      <trkpt lat="44.2223" lon="7.13125">
        <ele>2113.4</ele>
        <time>2022-07-19T06:22:00Z</time>
      </trkpt>
      <trkpt lat="44.22229" lon="7.13126">
        <ele>2113.4</ele>
        <time>2022-07-19T06:22:01Z</time>
      </trkpt>
      <trkpt lat="44.22229" lon="7.13128">
        <ele>2113.8</ele>
        <time>2022-07-19T06:22:02Z</time>
      </trkpt>
      <trkpt lat="44.22229" lon="7.1313">
        <ele>2113.8</ele>
        <time>2022-07-19T06:22:03Z</time>
      </trkpt>
      <trkpt lat="44.22228" lon="7.13131">
        <ele>2114.2</ele>
        <time>2022-07-19T06:22:04Z</time>
      </trkpt>
      <trkpt lat="44.22228" lon="7.13133">
        <ele>2114.2</ele>
        <time>2022-07-19T06:22:05Z</time>
      </trkpt>
      <trkpt lat="44.22227" lon="7.13135">
        <ele>2114.4</ele>
        <time>2022-07-19T06:22:06Z</time>
      </trkpt>
      <trkpt lat="44.22227" lon="7.13136">
        <ele>2114.4</ele>
        <time>2022-07-19T06:22:07Z</time>
      </trkpt>
      <trkpt lat="44.22227" lon="7.13138">
        <ele>2114.4</ele>
        <time>2022-07-19T06:22:08Z</time>
      </trkpt>
      <trkpt lat="44.22226" lon="7.1314">
        <ele>2114.6</ele>
        <time>2022-07-19T06:22:09Z</time>
      </trkpt>
      <trkpt lat="44.22226" lon="7.13141">
        <ele>2114.6</ele>
        <time>2022-07-19T06:22:10Z</time>
      </trkpt>
      <trkpt lat="44.22225" lon="7.13143">
        <ele>2115</ele>
        <time>2022-07-19T06:22:11Z</time>
      </trkpt>
      <trkpt lat="44.22225" lon="7.13144">
        <ele>2115</ele>
        <time>2022-07-19T06:22:12Z</time>
      </trkpt>
      <trkpt lat="44.22225" lon="7.13146">
        <ele>2115</ele>
        <time>2022-07-19T06:22:13Z</time>
      </trkpt>
      <trkpt lat="44.22225" lon="7.13148">
        <ele>2115.2</ele>
        <time>2022-07-19T06:22:14Z</time>
      </trkpt>
      <trkpt lat="44.22225" lon="7.1315">
        <ele>2115.2</ele>
        <time>2022-07-19T06:22:15Z</time>
      </trkpt>
      <trkpt lat="44.22224" lon="7.13151">
        <ele>2115.4</ele>
        <time>2022-07-19T06:22:16Z</time>
      </trkpt>
      <trkpt lat="44.22223" lon="7.13153">
        <ele>2115.4</ele>
        <time>2022-07-19T06:22:17Z</time>
      </trkpt>
      <trkpt lat="44.22223" lon="7.13155">
        <ele>2115.6</ele>
        <time>2022-07-19T06:22:18Z</time>
      </trkpt>
      <trkpt lat="44.22222" lon="7.13157">
        <ele>2115.6</ele>
        <time>2022-07-19T06:22:19Z</time>
      </trkpt>
      <trkpt lat="44.22221" lon="7.13158">
        <ele>2116</ele>
        <time>2022-07-19T06:22:20Z</time>
      </trkpt>
      <trkpt lat="44.2222" lon="7.1316">
        <ele>2116</ele>
        <time>2022-07-19T06:22:21Z</time>
      </trkpt>
      <trkpt lat="44.2222" lon="7.13162">
        <ele>2116.2</ele>
        <time>2022-07-19T06:22:22Z</time>
      </trkpt>
      <trkpt lat="44.2222" lon="7.13164">
        <ele>2116.2</ele>
        <time>2022-07-19T06:22:23Z</time>
      </trkpt>
      <trkpt lat="44.2222" lon="7.13166">
        <ele>2116.4</ele>
        <time>2022-07-19T06:22:24Z</time>
      </trkpt>
      <trkpt lat="44.22219" lon="7.13167">
        <ele>2116.4</ele>
        <time>2022-07-19T06:22:25Z</time>
      </trkpt>
      <trkpt lat="44.22219" lon="7.13169">
        <ele>2116.8</ele>
        <time>2022-07-19T06:22:26Z</time>
      </trkpt>
      <trkpt lat="44.22218" lon="7.13171">
        <ele>2116.8</ele>
        <time>2022-07-19T06:22:27Z</time>
      </trkpt>
      <trkpt lat="44.22218" lon="7.13172">
        <ele>2117</ele>
        <time>2022-07-19T06:22:28Z</time>
      </trkpt>
      <trkpt lat="44.22218" lon="7.13174">
        <ele>2117</ele>
        <time>2022-07-19T06:22:29Z</time>
      </trkpt>
      <trkpt lat="44.22218" lon="7.13176">
        <ele>2117</ele>
        <time>2022-07-19T06:22:30Z</time>
      </trkpt>
      <trkpt lat="44.22218" lon="7.13178">
        <ele>2117.2</ele>
        <time>2022-07-19T06:22:31Z</time>
      </trkpt>
      <trkpt lat="44.22217" lon="7.1318">
        <ele>2117.2</ele>
        <time>2022-07-19T06:22:32Z</time>
      </trkpt>
      <trkpt lat="44.22217" lon="7.13182">
        <ele>2117.6</ele>
        <time>2022-07-19T06:22:33Z</time>
      </trkpt>
      <trkpt lat="44.22217" lon="7.13185">
        <ele>2117.6</ele>
        <time>2022-07-19T06:22:34Z</time>
      </trkpt>
      <trkpt lat="44.22217" lon="7.13187">
        <ele>2117.8</ele>
        <time>2022-07-19T06:22:35Z</time>
      </trkpt>
      <trkpt lat="44.22217" lon="7.13189">
        <ele>2117.8</ele>
        <time>2022-07-19T06:22:36Z</time>
      </trkpt>
      <trkpt lat="44.22216" lon="7.13191">
        <ele>2118</ele>
        <time>2022-07-19T06:22:37Z</time>
      </trkpt>
      <trkpt lat="44.22216" lon="7.13193">
        <ele>2118</ele>
        <time>2022-07-19T06:22:38Z</time>
      </trkpt>
      <trkpt lat="44.22216" lon="7.13196">
        <ele>2118</ele>
        <time>2022-07-19T06:22:39Z</time>
      </trkpt>
      <trkpt lat="44.22217" lon="7.13199">
        <ele>2118</ele>
        <time>2022-07-19T06:22:40Z</time>
      </trkpt>
      <trkpt lat="44.22217" lon="7.13201">
        <ele>2118.4</ele>
        <time>2022-07-19T06:22:41Z</time>
      </trkpt>
      <trkpt lat="44.22217" lon="7.13204">
        <ele>2118.4</ele>
        <time>2022-07-19T06:22:42Z</time>
      </trkpt>
      <trkpt lat="44.22218" lon="7.13207">
        <ele>2118.4</ele>
        <time>2022-07-19T06:22:43Z</time>
      </trkpt>
      <trkpt lat="44.22218" lon="7.1321">
        <ele>2118.6</ele>
        <time>2022-07-19T06:22:44Z</time>
      </trkpt>
      <trkpt lat="44.22219" lon="7.13213">
        <ele>2118.6</ele>
        <time>2022-07-19T06:22:45Z</time>
      </trkpt>
      <trkpt lat="44.2222" lon="7.13216">
        <ele>2118.6</ele>
        <time>2022-07-19T06:22:46Z</time>
      </trkpt>
      <trkpt lat="44.22221" lon="7.13219">
        <ele>2118.6</ele>
        <time>2022-07-19T06:22:47Z</time>
      </trkpt>
      <trkpt lat="44.22223" lon="7.13222">
        <ele>2118.8</ele>
        <time>2022-07-19T06:22:48Z</time>
      </trkpt>
      <trkpt lat="44.22224" lon="7.13225">
        <ele>2118.8</ele>
        <time>2022-07-19T06:22:49Z</time>
      </trkpt>
      <trkpt lat="44.22226" lon="7.13228">
        <ele>2118.8</ele>
        <time>2022-07-19T06:22:50Z</time>
      </trkpt>
      <trkpt lat="44.22228" lon="7.13231">
        <ele>2118.8</ele>
        <time>2022-07-19T06:22:51Z</time>
      </trkpt>
      <trkpt lat="44.2223" lon="7.13234">
        <ele>2119</ele>
        <time>2022-07-19T06:22:52Z</time>
      </trkpt>
      <trkpt lat="44.22233" lon="7.13236">
        <ele>2119</ele>
        <time>2022-07-19T06:22:53Z</time>
      </trkpt>
      <trkpt lat="44.22235" lon="7.13239">
        <ele>2119</ele>
        <time>2022-07-19T06:22:54Z</time>
      </trkpt>
      <trkpt lat="44.22238" lon="7.13242">
        <ele>2119</ele>
        <time>2022-07-19T06:22:55Z</time>
      </trkpt>
      <trkpt lat="44.2224" lon="7.13245">
        <ele>2119</ele>
        <time>2022-07-19T06:22:56Z</time>
      </trkpt>
      <trkpt lat="44.22243" lon="7.13249">
        <ele>2119</ele>
        <time>2022-07-19T06:22:57Z</time>
      </trkpt>
      <trkpt lat="44.22245" lon="7.13253">
        <ele>2119</ele>
        <time>2022-07-19T06:22:58Z</time>
      </trkpt>
      <trkpt lat="44.22246" lon="7.13257">
        <ele>2119</ele>
        <time>2022-07-19T06:22:59Z</time>
      </trkpt>
      <trkpt lat="44.22247" lon="7.13262">
        <ele>2119.2</ele>
        <time>2022-07-19T06:23:00Z</time>
      </trkpt>
      <trkpt lat="44.22248" lon="7.13267">
        <ele>2119.2</ele>
        <time>2022-07-19T06:23:01Z</time>
      </trkpt>
      <trkpt lat="44.22248" lon="7.13271">
        <ele>2119.2</ele>
        <time>2022-07-19T06:23:02Z</time>
      </trkpt>
      <trkpt lat="44.22248" lon="7.13276">
        <ele>2119.2</ele>
        <time>2022-07-19T06:23:03Z</time>
      </trkpt>
      <trkpt lat="44.22247" lon="7.1328">
        <ele>2119.2</ele>
        <time>2022-07-19T06:23:04Z</time>
      </trkpt>
      <trkpt lat="44.22247" lon="7.13285">
        <ele>2119.2</ele>
        <time>2022-07-19T06:23:05Z</time>
      </trkpt>
      <trkpt lat="44.22247" lon="7.1329">
        <ele>2119.6</ele>
        <time>2022-07-19T06:23:06Z</time>
      </trkpt>
      <trkpt lat="44.22247" lon="7.13295">
        <ele>2119.6</ele>
        <time>2022-07-19T06:23:07Z</time>
      </trkpt>
      <trkpt lat="44.22246" lon="7.133">
        <ele>2119.6</ele>
        <time>2022-07-19T06:23:08Z</time>
      </trkpt>
      <trkpt lat="44.22245" lon="7.13304">
        <ele>2119.6</ele>
        <time>2022-07-19T06:23:09Z</time>
      </trkpt>
      <trkpt lat="44.22245" lon="7.13309">
        <ele>2119.6</ele>
        <time>2022-07-19T06:23:10Z</time>
      </trkpt>
      <trkpt lat="44.22244" lon="7.13314">
        <ele>2119.6</ele>
        <time>2022-07-19T06:23:11Z</time>
      </trkpt>
      <trkpt lat="44.22243" lon="7.13319">
        <ele>2119.6</ele>
        <time>2022-07-19T06:23:12Z</time>
      </trkpt>
      <trkpt lat="44.22242" lon="7.13324">
        <ele>2119.8</ele>
        <time>2022-07-19T06:23:13Z</time>
      </trkpt>
      <trkpt lat="44.22239" lon="7.1333">
        <ele>2119.8</ele>
        <time>2022-07-19T06:23:14Z</time>
      </trkpt>
      <trkpt lat="44.22239" lon="7.13332">
        <ele>2119.8</ele>
        <time>2022-07-19T06:23:15Z</time>
      </trkpt>
      <trkpt lat="44.22236" lon="7.13335">
        <ele>2120</ele>
        <time>2022-07-19T06:23:16Z</time>
      </trkpt>
      <trkpt lat="44.22234" lon="7.13338">
        <ele>2120</ele>
        <time>2022-07-19T06:23:17Z</time>
      </trkpt>
      <trkpt lat="44.22233" lon="7.13341">
        <ele>2120</ele>
        <time>2022-07-19T06:23:18Z</time>
      </trkpt>
      <trkpt lat="44.22231" lon="7.13343">
        <ele>2120</ele>
        <time>2022-07-19T06:23:19Z</time>
      </trkpt>
      <trkpt lat="44.22229" lon="7.13344">
        <ele>2120</ele>
        <time>2022-07-19T06:23:20Z</time>
      </trkpt>
      <trkpt lat="44.22227" lon="7.13346">
        <ele>2120</ele>
        <time>2022-07-19T06:23:21Z</time>
      </trkpt>
      <trkpt lat="44.22225" lon="7.13348">
        <ele>2120</ele>
        <time>2022-07-19T06:23:22Z</time>
      </trkpt>
      <trkpt lat="44.22222" lon="7.13349">
        <ele>2120</ele>
        <time>2022-07-19T06:23:23Z</time>
      </trkpt>
      <trkpt lat="44.22219" lon="7.13351">
        <ele>2120</ele>
        <time>2022-07-19T06:23:24Z</time>
      </trkpt>
      <trkpt lat="44.22216" lon="7.13351">
        <ele>2120.4</ele>
        <time>2022-07-19T06:23:25Z</time>
      </trkpt>
      <trkpt lat="44.22213" lon="7.13352">
        <ele>2120.4</ele>
        <time>2022-07-19T06:23:26Z</time>
      </trkpt>
      <trkpt lat="44.2221" lon="7.13353">
        <ele>2120.4</ele>
        <time>2022-07-19T06:23:27Z</time>
      </trkpt>
      <trkpt lat="44.22207" lon="7.13353">
        <ele>2120.6</ele>
        <time>2022-07-19T06:23:28Z</time>
      </trkpt>
      <trkpt lat="44.22204" lon="7.13354">
        <ele>2120.6</ele>
        <time>2022-07-19T06:23:29Z</time>
      </trkpt>
      <trkpt lat="44.22202" lon="7.13355">
        <ele>2120.6</ele>
        <time>2022-07-19T06:23:30Z</time>
      </trkpt>
      <trkpt lat="44.22199" lon="7.13355">
        <ele>2120.8</ele>
        <time>2022-07-19T06:23:31Z</time>
      </trkpt>
      <trkpt lat="44.22196" lon="7.13356">
        <ele>2120.8</ele>
        <time>2022-07-19T06:23:32Z</time>
      </trkpt>
      <trkpt lat="44.22193" lon="7.13356">
        <ele>2121.2</ele>
        <time>2022-07-19T06:23:33Z</time>
      </trkpt>
      <trkpt lat="44.2219" lon="7.13357">
        <ele>2121.2</ele>
        <time>2022-07-19T06:23:34Z</time>
      </trkpt>
      <trkpt lat="44.22187" lon="7.13357">
        <ele>2121.4</ele>
        <time>2022-07-19T06:23:35Z</time>
      </trkpt>
      <trkpt lat="44.22184" lon="7.13358">
        <ele>2121.4</ele>
        <time>2022-07-19T06:23:36Z</time>
      </trkpt>
      <trkpt lat="44.22182" lon="7.13359">
        <ele>2121.8</ele>
        <time>2022-07-19T06:23:37Z</time>
      </trkpt>
      <trkpt lat="44.22179" lon="7.13361">
        <ele>2121.8</ele>
        <time>2022-07-19T06:23:38Z</time>
      </trkpt>
      <trkpt lat="44.22177" lon="7.13362">
        <ele>2121.8</ele>
        <time>2022-07-19T06:23:39Z</time>
      </trkpt>
      <trkpt lat="44.22175" lon="7.13363">
        <ele>2122.2</ele>
        <time>2022-07-19T06:23:40Z</time>
      </trkpt>
      <trkpt lat="44.22172" lon="7.13364">
        <ele>2122.4</ele>
        <time>2022-07-19T06:23:41Z</time>
      </trkpt>
      <trkpt lat="44.2217" lon="7.13365">
        <ele>2122.8</ele>
        <time>2022-07-19T06:23:42Z</time>
      </trkpt>
      <trkpt lat="44.22168" lon="7.13365">
        <ele>2123</ele>
        <time>2022-07-19T06:23:43Z</time>
      </trkpt>
      <trkpt lat="44.22165" lon="7.13366">
        <ele>2123.2</ele>
        <time>2022-07-19T06:23:44Z</time>
      </trkpt>
      <trkpt lat="44.22163" lon="7.13367">
        <ele>2123.4</ele>
        <time>2022-07-19T06:23:45Z</time>
      </trkpt>
      <trkpt lat="44.22161" lon="7.13368">
        <ele>2123.6</ele>
        <time>2022-07-19T06:23:46Z</time>
      </trkpt>
      <trkpt lat="44.22159" lon="7.1337">
        <ele>2124</ele>
        <time>2022-07-19T06:23:47Z</time>
      </trkpt>
      <trkpt lat="44.22157" lon="7.1337">
        <ele>2124</ele>
        <time>2022-07-19T06:23:48Z</time>
      </trkpt>
      <trkpt lat="44.22155" lon="7.13371">
        <ele>2124.2</ele>
        <time>2022-07-19T06:23:49Z</time>
      </trkpt>
      <trkpt lat="44.22153" lon="7.13372">
        <ele>2124.4</ele>
        <time>2022-07-19T06:23:50Z</time>
      </trkpt>
      <trkpt lat="44.22151" lon="7.13373">
        <ele>2124.6</ele>
        <time>2022-07-19T06:23:51Z</time>
      </trkpt>
      <trkpt lat="44.22148" lon="7.13374">
        <ele>2124.8</ele>
        <time>2022-07-19T06:23:52Z</time>
      </trkpt>
      <trkpt lat="44.22146" lon="7.13375">
        <ele>2125</ele>
        <time>2022-07-19T06:23:53Z</time>
      </trkpt>
      <trkpt lat="44.22144" lon="7.13377">
        <ele>2125.2</ele>
        <time>2022-07-19T06:23:54Z</time>
      </trkpt>
      <trkpt lat="44.22142" lon="7.13378">
        <ele>2125.2</ele>
        <time>2022-07-19T06:23:55Z</time>
      </trkpt>
      <trkpt lat="44.2214" lon="7.13379">
        <ele>2125.8</ele>
        <time>2022-07-19T06:23:56Z</time>
      </trkpt>
      <trkpt lat="44.22138" lon="7.1338">
        <ele>2125.8</ele>
        <time>2022-07-19T06:23:57Z</time>
      </trkpt>
      <trkpt lat="44.22136" lon="7.13381">
        <ele>2126</ele>
        <time>2022-07-19T06:23:58Z</time>
      </trkpt>
      <trkpt lat="44.22134" lon="7.13383">
        <ele>2126</ele>
        <time>2022-07-19T06:23:59Z</time>
      </trkpt>
      <trkpt lat="44.22132" lon="7.13384">
        <ele>2126.4</ele>
        <time>2022-07-19T06:24:00Z</time>
      </trkpt>
      <trkpt lat="44.2213" lon="7.13386">
        <ele>2126.8</ele>
        <time>2022-07-19T06:24:01Z</time>
      </trkpt>
      <trkpt lat="44.22129" lon="7.13388">
        <ele>2126.8</ele>
        <time>2022-07-19T06:24:02Z</time>
      </trkpt>
      <trkpt lat="44.22127" lon="7.13389">
        <ele>2127.2</ele>
        <time>2022-07-19T06:24:03Z</time>
      </trkpt>
      <trkpt lat="44.22124" lon="7.13394">
        <ele>2127.4</ele>
        <time>2022-07-19T06:24:04Z</time>
      </trkpt>
      <trkpt lat="44.22123" lon="7.13396">
        <ele>2127.6</ele>
        <time>2022-07-19T06:24:05Z</time>
      </trkpt>
      <trkpt lat="44.22121" lon="7.13399">
        <ele>2127.8</ele>
        <time>2022-07-19T06:24:06Z</time>
      </trkpt>
      <trkpt lat="44.2212" lon="7.13401">
        <ele>2127.8</ele>
        <time>2022-07-19T06:24:07Z</time>
      </trkpt>
      <trkpt lat="44.22119" lon="7.13404">
        <ele>2128.2</ele>
        <time>2022-07-19T06:24:08Z</time>
      </trkpt>
      <trkpt lat="44.22118" lon="7.13406">
        <ele>2128.6</ele>
        <time>2022-07-19T06:24:09Z</time>
      </trkpt>
      <trkpt lat="44.22117" lon="7.13409">
        <ele>2128.8</ele>
        <time>2022-07-19T06:24:10Z</time>
      </trkpt>
      <trkpt lat="44.22116" lon="7.13411">
        <ele>2129</ele>
        <time>2022-07-19T06:24:11Z</time>
      </trkpt>
      <trkpt lat="44.22116" lon="7.13414">
        <ele>2129.4</ele>
        <time>2022-07-19T06:24:12Z</time>
      </trkpt>
      <trkpt lat="44.22115" lon="7.13417">
        <ele>2129.4</ele>
        <time>2022-07-19T06:24:13Z</time>
      </trkpt>
      <trkpt lat="44.22114" lon="7.13419">
        <ele>2129.6</ele>
        <time>2022-07-19T06:24:14Z</time>
      </trkpt>
      <trkpt lat="44.22114" lon="7.13421">
        <ele>2130</ele>
        <time>2022-07-19T06:24:15Z</time>
      </trkpt>
      <trkpt lat="44.22112" lon="7.13423">
        <ele>2130.2</ele>
        <time>2022-07-19T06:24:16Z</time>
      </trkpt>
      <trkpt lat="44.22111" lon="7.13425">
        <ele>2130.6</ele>
        <time>2022-07-19T06:24:17Z</time>
      </trkpt>
      <trkpt lat="44.22109" lon="7.13427">
        <ele>2130.8</ele>
        <time>2022-07-19T06:24:18Z</time>
      </trkpt>
      <trkpt lat="44.22108" lon="7.13429">
        <ele>2131</ele>
        <time>2022-07-19T06:24:19Z</time>
      </trkpt>
      <trkpt lat="44.22107" lon="7.13432">
        <ele>2131.4</ele>
        <time>2022-07-19T06:24:20Z</time>
      </trkpt>
      <trkpt lat="44.22106" lon="7.13434">
        <ele>2131.6</ele>
        <time>2022-07-19T06:24:21Z</time>
      </trkpt>
      <trkpt lat="44.22105" lon="7.13436">
        <ele>2132</ele>
        <time>2022-07-19T06:24:22Z</time>
      </trkpt>
      <trkpt lat="44.22104" lon="7.13438">
        <ele>2132.2</ele>
        <time>2022-07-19T06:24:23Z</time>
      </trkpt>
      <trkpt lat="44.22103" lon="7.13441">
        <ele>2132.4</ele>
        <time>2022-07-19T06:24:24Z</time>
      </trkpt>
      <trkpt lat="44.22101" lon="7.13443">
        <ele>2132.8</ele>
        <time>2022-07-19T06:24:25Z</time>
      </trkpt>
      <trkpt lat="44.221" lon="7.13444">
        <ele>2133</ele>
        <time>2022-07-19T06:24:26Z</time>
      </trkpt>
      <trkpt lat="44.22098" lon="7.13445">
        <ele>2133.2</ele>
        <time>2022-07-19T06:24:27Z</time>
      </trkpt>
      <trkpt lat="44.22095" lon="7.13445">
        <ele>2133.2</ele>
        <time>2022-07-19T06:24:28Z</time>
      </trkpt>
      <trkpt lat="44.22093" lon="7.13445">
        <ele>2133.6</ele>
        <time>2022-07-19T06:24:29Z</time>
      </trkpt>
      <trkpt lat="44.22091" lon="7.13445">
        <ele>2133.6</ele>
        <time>2022-07-19T06:24:30Z</time>
      </trkpt>
      <trkpt lat="44.22089" lon="7.13446">
        <ele>2133.8</ele>
        <time>2022-07-19T06:24:31Z</time>
      </trkpt>
      <trkpt lat="44.22087" lon="7.13447">
        <ele>2133.8</ele>
        <time>2022-07-19T06:24:32Z</time>
      </trkpt>
      <trkpt lat="44.22084" lon="7.13448">
        <ele>2134.2</ele>
        <time>2022-07-19T06:24:33Z</time>
      </trkpt>
      <trkpt lat="44.22082" lon="7.13449">
        <ele>2134.2</ele>
        <time>2022-07-19T06:24:34Z</time>
      </trkpt>
      <trkpt lat="44.2208" lon="7.13449">
        <ele>2134.4</ele>
        <time>2022-07-19T06:24:35Z</time>
      </trkpt>
      <trkpt lat="44.22078" lon="7.13448">
        <ele>2134.4</ele>
        <time>2022-07-19T06:24:36Z</time>
      </trkpt>
      <trkpt lat="44.22076" lon="7.13447">
        <ele>2134.4</ele>
        <time>2022-07-19T06:24:37Z</time>
      </trkpt>
      <trkpt lat="44.22074" lon="7.13445">
        <ele>2134.8</ele>
        <time>2022-07-19T06:24:38Z</time>
      </trkpt>
      <trkpt lat="44.22072" lon="7.13443">
        <ele>2134.8</ele>
        <time>2022-07-19T06:24:39Z</time>
      </trkpt>
      <trkpt lat="44.22071" lon="7.1344">
        <ele>2135.2</ele>
        <time>2022-07-19T06:24:40Z</time>
      </trkpt>
      <trkpt lat="44.22069" lon="7.13438">
        <ele>2135.4</ele>
        <time>2022-07-19T06:24:41Z</time>
      </trkpt>
      <trkpt lat="44.22068" lon="7.13436">
        <ele>2135.4</ele>
        <time>2022-07-19T06:24:42Z</time>
      </trkpt>
      <trkpt lat="44.22067" lon="7.13434">
        <ele>2135.8</ele>
        <time>2022-07-19T06:24:43Z</time>
      </trkpt>
      <trkpt lat="44.22066" lon="7.13431">
        <ele>2136</ele>
        <time>2022-07-19T06:24:44Z</time>
      </trkpt>
      <trkpt lat="44.22066" lon="7.13429">
        <ele>2136</ele>
        <time>2022-07-19T06:24:45Z</time>
      </trkpt>
      <trkpt lat="44.22065" lon="7.13427">
        <ele>2136.4</ele>
        <time>2022-07-19T06:24:46Z</time>
      </trkpt>
      <trkpt lat="44.22064" lon="7.13425">
        <ele>2136.4</ele>
        <time>2022-07-19T06:24:47Z</time>
      </trkpt>
      <trkpt lat="44.22062" lon="7.13422">
        <ele>2136.8</ele>
        <time>2022-07-19T06:24:48Z</time>
      </trkpt>
      <trkpt lat="44.22061" lon="7.1342">
        <ele>2136.8</ele>
        <time>2022-07-19T06:24:49Z</time>
      </trkpt>
      <trkpt lat="44.2206" lon="7.13418">
        <ele>2137</ele>
        <time>2022-07-19T06:24:50Z</time>
      </trkpt>
      <trkpt lat="44.22059" lon="7.13415">
        <ele>2137.4</ele>
        <time>2022-07-19T06:24:51Z</time>
      </trkpt>
      <trkpt lat="44.22059" lon="7.13413">
        <ele>2137.6</ele>
        <time>2022-07-19T06:24:52Z</time>
      </trkpt>
      <trkpt lat="44.22058" lon="7.13411">
        <ele>2137.8</ele>
        <time>2022-07-19T06:24:53Z</time>
      </trkpt>
      <trkpt lat="44.22058" lon="7.13409">
        <ele>2138</ele>
        <time>2022-07-19T06:24:54Z</time>
      </trkpt>
      <trkpt lat="44.22057" lon="7.13406">
        <ele>2138.2</ele>
        <time>2022-07-19T06:24:55Z</time>
      </trkpt>
      <trkpt lat="44.22056" lon="7.13404">
        <ele>2138.4</ele>
        <time>2022-07-19T06:24:56Z</time>
      </trkpt>
      <trkpt lat="44.22056" lon="7.13402">
        <ele>2138.4</ele>
        <time>2022-07-19T06:24:57Z</time>
      </trkpt>
      <trkpt lat="44.22055" lon="7.13399">
        <ele>2138.6</ele>
        <time>2022-07-19T06:24:58Z</time>
      </trkpt>
      <trkpt lat="44.22054" lon="7.13397">
        <ele>2138.6</ele>
        <time>2022-07-19T06:24:59Z</time>
      </trkpt>
      <trkpt lat="44.22053" lon="7.13395">
        <ele>2138.8</ele>
        <time>2022-07-19T06:25:00Z</time>
      </trkpt>
      <trkpt lat="44.22053" lon="7.13393">
        <ele>2138.8</ele>
        <time>2022-07-19T06:25:01Z</time>
      </trkpt>
      <trkpt lat="44.22053" lon="7.1339">
        <ele>2139.2</ele>
        <time>2022-07-19T06:25:02Z</time>
      </trkpt>
      <trkpt lat="44.22052" lon="7.13388">
        <ele>2139.2</ele>
        <time>2022-07-19T06:25:03Z</time>
      </trkpt>
      <trkpt lat="44.22052" lon="7.13386">
        <ele>2139.2</ele>
        <time>2022-07-19T06:25:04Z</time>
      </trkpt>
      <trkpt lat="44.22051" lon="7.13384">
        <ele>2139.4</ele>
        <time>2022-07-19T06:25:05Z</time>
      </trkpt>
      <trkpt lat="44.2205" lon="7.13382">
        <ele>2139.4</ele>
        <time>2022-07-19T06:25:06Z</time>
      </trkpt>
      <trkpt lat="44.2205" lon="7.1338">
        <ele>2139.8</ele>
        <time>2022-07-19T06:25:07Z</time>
      </trkpt>
      <trkpt lat="44.2205" lon="7.13377">
        <ele>2139.8</ele>
        <time>2022-07-19T06:25:08Z</time>
      </trkpt>
      <trkpt lat="44.2205" lon="7.13375">
        <ele>2140</ele>
        <time>2022-07-19T06:25:09Z</time>
      </trkpt>
      <trkpt lat="44.22049" lon="7.13372">
        <ele>2140</ele>
        <time>2022-07-19T06:25:10Z</time>
      </trkpt>
      <trkpt lat="44.22049" lon="7.1337">
        <ele>2140.4</ele>
        <time>2022-07-19T06:25:11Z</time>
      </trkpt>
      <trkpt lat="44.22048" lon="7.13367">
        <ele>2140.4</ele>
        <time>2022-07-19T06:25:12Z</time>
      </trkpt>
      <trkpt lat="44.22047" lon="7.13364">
        <ele>2140.6</ele>
        <time>2022-07-19T06:25:13Z</time>
      </trkpt>
      <trkpt lat="44.22045" lon="7.13362">
        <ele>2140.6</ele>
        <time>2022-07-19T06:25:14Z</time>
      </trkpt>
      <trkpt lat="44.22044" lon="7.1336">
        <ele>2140.8</ele>
        <time>2022-07-19T06:25:15Z</time>
      </trkpt>
      <trkpt lat="44.22041" lon="7.1336">
        <ele>2140.8</ele>
        <time>2022-07-19T06:25:16Z</time>
      </trkpt>
      <trkpt lat="44.22039" lon="7.1336">
        <ele>2140.8</ele>
        <time>2022-07-19T06:25:17Z</time>
      </trkpt>
      <trkpt lat="44.22037" lon="7.13362">
        <ele>2141</ele>
        <time>2022-07-19T06:25:18Z</time>
      </trkpt>
      <trkpt lat="44.22036" lon="7.13364">
        <ele>2141</ele>
        <time>2022-07-19T06:25:19Z</time>
      </trkpt>
      <trkpt lat="44.22034" lon="7.13366">
        <ele>2141</ele>
        <time>2022-07-19T06:25:20Z</time>
      </trkpt>
      <trkpt lat="44.22033" lon="7.13368">
        <ele>2141.2</ele>
        <time>2022-07-19T06:25:21Z</time>
      </trkpt>
      <trkpt lat="44.22032" lon="7.1337">
        <ele>2141.2</ele>
        <time>2022-07-19T06:25:22Z</time>
      </trkpt>
      <trkpt lat="44.22032" lon="7.13373">
        <ele>2141.6</ele>
        <time>2022-07-19T06:25:23Z</time>
      </trkpt>
      <trkpt lat="44.22032" lon="7.13377">
        <ele>2141.6</ele>
        <time>2022-07-19T06:25:24Z</time>
      </trkpt>
      <trkpt lat="44.22032" lon="7.1338">
        <ele>2141.8</ele>
        <time>2022-07-19T06:25:25Z</time>
      </trkpt>
      <trkpt lat="44.22032" lon="7.13382">
        <ele>2141.8</ele>
        <time>2022-07-19T06:25:26Z</time>
      </trkpt>
      <trkpt lat="44.22032" lon="7.13385">
        <ele>2141.8</ele>
        <time>2022-07-19T06:25:27Z</time>
      </trkpt>
      <trkpt lat="44.22033" lon="7.13388">
        <ele>2142.2</ele>
        <time>2022-07-19T06:25:28Z</time>
      </trkpt>
      <trkpt lat="44.22033" lon="7.13391">
        <ele>2142.2</ele>
        <time>2022-07-19T06:25:29Z</time>
      </trkpt>
      <trkpt lat="44.22033" lon="7.13393">
        <ele>2142.4</ele>
        <time>2022-07-19T06:25:30Z</time>
      </trkpt>
      <trkpt lat="44.22033" lon="7.13396">
        <ele>2142.4</ele>
        <time>2022-07-19T06:25:31Z</time>
      </trkpt>
      <trkpt lat="44.22033" lon="7.13399">
        <ele>2142.8</ele>
        <time>2022-07-19T06:25:33Z</time>
      </trkpt>
      <trkpt lat="44.22033" lon="7.13401">
        <ele>2143</ele>
        <time>2022-07-19T06:25:34Z</time>
      </trkpt>
      <trkpt lat="44.22033" lon="7.13404">
        <ele>2143</ele>
        <time>2022-07-19T06:25:35Z</time>
      </trkpt>
      <trkpt lat="44.22033" lon="7.13406">
        <ele>2143.4</ele>
        <time>2022-07-19T06:25:36Z</time>
      </trkpt>
      <trkpt lat="44.22033" lon="7.13408">
        <ele>2143.6</ele>
        <time>2022-07-19T06:25:37Z</time>
      </trkpt>
      <trkpt lat="44.22033" lon="7.13411">
        <ele>2143.6</ele>
        <time>2022-07-19T06:25:38Z</time>
      </trkpt>
      <trkpt lat="44.22033" lon="7.13413">
        <ele>2144</ele>
        <time>2022-07-19T06:25:39Z</time>
      </trkpt>
      <trkpt lat="44.22034" lon="7.13415">
        <ele>2144</ele>
        <time>2022-07-19T06:25:40Z</time>
      </trkpt>
      <trkpt lat="44.22034" lon="7.13417">
        <ele>2144.2</ele>
        <time>2022-07-19T06:25:41Z</time>
      </trkpt>
      <trkpt lat="44.22034" lon="7.1342">
        <ele>2144.2</ele>
        <time>2022-07-19T06:25:42Z</time>
      </trkpt>
      <trkpt lat="44.22035" lon="7.13422">
        <ele>2144.6</ele>
        <time>2022-07-19T06:25:43Z</time>
      </trkpt>
      <trkpt lat="44.22035" lon="7.13424">
        <ele>2144.6</ele>
        <time>2022-07-19T06:25:44Z</time>
      </trkpt>
      <trkpt lat="44.22035" lon="7.13426">
        <ele>2144.8</ele>
        <time>2022-07-19T06:25:45Z</time>
      </trkpt>
      <trkpt lat="44.22036" lon="7.13429">
        <ele>2144.8</ele>
        <time>2022-07-19T06:25:46Z</time>
      </trkpt>
      <trkpt lat="44.22036" lon="7.13431">
        <ele>2144.8</ele>
        <time>2022-07-19T06:25:47Z</time>
      </trkpt>
      <trkpt lat="44.22037" lon="7.13433">
        <ele>2145.2</ele>
        <time>2022-07-19T06:25:48Z</time>
      </trkpt>
      <trkpt lat="44.22037" lon="7.13435">
        <ele>2145.4</ele>
        <time>2022-07-19T06:25:49Z</time>
      </trkpt>
      <trkpt lat="44.22038" lon="7.13437">
        <ele>2145.4</ele>
        <time>2022-07-19T06:25:50Z</time>
      </trkpt>
      <trkpt lat="44.22038" lon="7.13439">
        <ele>2145.6</ele>
        <time>2022-07-19T06:25:51Z</time>
      </trkpt>
      <trkpt lat="44.22038" lon="7.13441">
        <ele>2145.8</ele>
        <time>2022-07-19T06:25:52Z</time>
      </trkpt>
      <trkpt lat="44.22038" lon="7.13443">
        <ele>2145.8</ele>
        <time>2022-07-19T06:25:53Z</time>
      </trkpt>
      <trkpt lat="44.22038" lon="7.13446">
        <ele>2146.2</ele>
        <time>2022-07-19T06:25:54Z</time>
      </trkpt>
      <trkpt lat="44.22037" lon="7.13448">
        <ele>2146.2</ele>
        <time>2022-07-19T06:25:55Z</time>
      </trkpt>
      <trkpt lat="44.22037" lon="7.1345">
        <ele>2146.2</ele>
        <time>2022-07-19T06:25:56Z</time>
      </trkpt>
      <trkpt lat="44.22036" lon="7.13453">
        <ele>2146.4</ele>
        <time>2022-07-19T06:25:57Z</time>
      </trkpt>
      <trkpt lat="44.22034" lon="7.13454">
        <ele>2146.8</ele>
        <time>2022-07-19T06:25:58Z</time>
      </trkpt>
      <trkpt lat="44.22032" lon="7.13456">
        <ele>2146.8</ele>
        <time>2022-07-19T06:25:59Z</time>
      </trkpt>
      <trkpt lat="44.2203" lon="7.13456">
        <ele>2147</ele>
        <time>2022-07-19T06:26:00Z</time>
      </trkpt>
      <trkpt lat="44.22029" lon="7.13455">
        <ele>2147</ele>
        <time>2022-07-19T06:26:01Z</time>
      </trkpt>
      <trkpt lat="44.22027" lon="7.13454">
        <ele>2147.4</ele>
        <time>2022-07-19T06:26:02Z</time>
      </trkpt>
      <trkpt lat="44.22025" lon="7.13451">
        <ele>2147.4</ele>
        <time>2022-07-19T06:26:03Z</time>
      </trkpt>
      <trkpt lat="44.22024" lon="7.13449">
        <ele>2147.4</ele>
        <time>2022-07-19T06:26:04Z</time>
      </trkpt>
      <trkpt lat="44.22023" lon="7.13446">
        <ele>2147.4</ele>
        <time>2022-07-19T06:26:05Z</time>
      </trkpt>
      <trkpt lat="44.22023" lon="7.13443">
        <ele>2147.6</ele>
        <time>2022-07-19T06:26:06Z</time>
      </trkpt>
      <trkpt lat="44.22022" lon="7.13439">
        <ele>2147.6</ele>
        <time>2022-07-19T06:26:07Z</time>
      </trkpt>
      <trkpt lat="44.22022" lon="7.13436">
        <ele>2148</ele>
        <time>2022-07-19T06:26:08Z</time>
      </trkpt>
      <trkpt lat="44.22021" lon="7.13433">
        <ele>2148</ele>
        <time>2022-07-19T06:26:09Z</time>
      </trkpt>
      <trkpt lat="44.2202" lon="7.1343">
        <ele>2148.2</ele>
        <time>2022-07-19T06:26:10Z</time>
      </trkpt>
      <trkpt lat="44.22019" lon="7.13427">
        <ele>2148.2</ele>
        <time>2022-07-19T06:26:11Z</time>
      </trkpt>
      <trkpt lat="44.22018" lon="7.13424">
        <ele>2148.4</ele>
        <time>2022-07-19T06:26:12Z</time>
      </trkpt>
      <trkpt lat="44.22017" lon="7.13422">
        <ele>2148.4</ele>
        <time>2022-07-19T06:26:13Z</time>
      </trkpt>
      <trkpt lat="44.22016" lon="7.13419">
        <ele>2148.6</ele>
        <time>2022-07-19T06:26:14Z</time>
      </trkpt>
      <trkpt lat="44.22015" lon="7.13416">
        <ele>2148.6</ele>
        <time>2022-07-19T06:26:15Z</time>
      </trkpt>
      <trkpt lat="44.22015" lon="7.13413">
        <ele>2149</ele>
        <time>2022-07-19T06:26:16Z</time>
      </trkpt>
      <trkpt lat="44.22014" lon="7.13411">
        <ele>2149</ele>
        <time>2022-07-19T06:26:17Z</time>
      </trkpt>
      <trkpt lat="44.22013" lon="7.13408">
        <ele>2149.2</ele>
        <time>2022-07-19T06:26:18Z</time>
      </trkpt>
      <trkpt lat="44.22012" lon="7.13406">
        <ele>2149.2</ele>
        <time>2022-07-19T06:26:19Z</time>
      </trkpt>
      <trkpt lat="44.22011" lon="7.13404">
        <ele>2149.4</ele>
        <time>2022-07-19T06:26:20Z</time>
      </trkpt>
      <trkpt lat="44.22009" lon="7.13402">
        <ele>2149.4</ele>
        <time>2022-07-19T06:26:21Z</time>
      </trkpt>
      <trkpt lat="44.22008" lon="7.134">
        <ele>2149.8</ele>
        <time>2022-07-19T06:26:22Z</time>
      </trkpt>
      <trkpt lat="44.22007" lon="7.13398">
        <ele>2150</ele>
        <time>2022-07-19T06:26:23Z</time>
      </trkpt>
      <trkpt lat="44.22006" lon="7.13396">
        <ele>2150</ele>
        <time>2022-07-19T06:26:24Z</time>
      </trkpt>
      <trkpt lat="44.22004" lon="7.13395">
        <ele>2150.2</ele>
        <time>2022-07-19T06:26:25Z</time>
      </trkpt>
      <trkpt lat="44.22003" lon="7.13393">
        <ele>2150.2</ele>
        <time>2022-07-19T06:26:26Z</time>
      </trkpt>
      <trkpt lat="44.22002" lon="7.13391">
        <ele>2150.6</ele>
        <time>2022-07-19T06:26:27Z</time>
      </trkpt>
      <trkpt lat="44.22001" lon="7.13389">
        <ele>2150.6</ele>
        <time>2022-07-19T06:26:28Z</time>
      </trkpt>
      <trkpt lat="44.21999" lon="7.13387">
        <ele>2150.8</ele>
        <time>2022-07-19T06:26:29Z</time>
      </trkpt>
      <trkpt lat="44.21998" lon="7.13385">
        <ele>2150.8</ele>
        <time>2022-07-19T06:26:30Z</time>
      </trkpt>
      <trkpt lat="44.21997" lon="7.13383">
        <ele>2150.8</ele>
        <time>2022-07-19T06:26:31Z</time>
      </trkpt>
      <trkpt lat="44.21995" lon="7.13382">
        <ele>2151.2</ele>
        <time>2022-07-19T06:26:32Z</time>
      </trkpt>
      <trkpt lat="44.21994" lon="7.1338">
        <ele>2151.2</ele>
        <time>2022-07-19T06:26:33Z</time>
      </trkpt>
      <trkpt lat="44.21992" lon="7.13378">
        <ele>2151.2</ele>
        <time>2022-07-19T06:26:34Z</time>
      </trkpt>
      <trkpt lat="44.21991" lon="7.13377">
        <ele>2151.4</ele>
        <time>2022-07-19T06:26:35Z</time>
      </trkpt>
      <trkpt lat="44.21989" lon="7.13375">
        <ele>2151.4</ele>
        <time>2022-07-19T06:26:36Z</time>
      </trkpt>
      <trkpt lat="44.21987" lon="7.13374">
        <ele>2151.6</ele>
        <time>2022-07-19T06:26:37Z</time>
      </trkpt>
      <trkpt lat="44.21985" lon="7.13374">
        <ele>2151.6</ele>
        <time>2022-07-19T06:26:38Z</time>
      </trkpt>
      <trkpt lat="44.21983" lon="7.13373">
        <ele>2151.6</ele>
        <time>2022-07-19T06:26:39Z</time>
      </trkpt>
      <trkpt lat="44.21981" lon="7.13373">
        <ele>2151.8</ele>
        <time>2022-07-19T06:26:40Z</time>
      </trkpt>
      <trkpt lat="44.21978" lon="7.13372">
        <ele>2151.8</ele>
        <time>2022-07-19T06:26:41Z</time>
      </trkpt>
      <trkpt lat="44.21976" lon="7.13371">
        <ele>2152.2</ele>
        <time>2022-07-19T06:26:42Z</time>
      </trkpt>
      <trkpt lat="44.21974" lon="7.13371">
        <ele>2152.2</ele>
        <time>2022-07-19T06:26:43Z</time>
      </trkpt>
      <trkpt lat="44.21972" lon="7.13371">
        <ele>2152.4</ele>
        <time>2022-07-19T06:26:44Z</time>
      </trkpt>
      <trkpt lat="44.21969" lon="7.13371">
        <ele>2152.4</ele>
        <time>2022-07-19T06:26:45Z</time>
      </trkpt>
      <trkpt lat="44.21967" lon="7.13371">
        <ele>2152.4</ele>
        <time>2022-07-19T06:26:46Z</time>
      </trkpt>
      <trkpt lat="44.21965" lon="7.1337">
        <ele>2152.6</ele>
        <time>2022-07-19T06:26:47Z</time>
      </trkpt>
      <trkpt lat="44.21962" lon="7.1337">
        <ele>2152.6</ele>
        <time>2022-07-19T06:26:48Z</time>
      </trkpt>
      <trkpt lat="44.2196" lon="7.1337">
        <ele>2153</ele>
        <time>2022-07-19T06:26:49Z</time>
      </trkpt>
      <trkpt lat="44.21958" lon="7.1337">
        <ele>2153</ele>
        <time>2022-07-19T06:26:50Z</time>
      </trkpt>
      <trkpt lat="44.21955" lon="7.1337">
        <ele>2153.2</ele>
        <time>2022-07-19T06:26:51Z</time>
      </trkpt>
      <trkpt lat="44.21952" lon="7.13371">
        <ele>2153.2</ele>
        <time>2022-07-19T06:26:52Z</time>
      </trkpt>
      <trkpt lat="44.2195" lon="7.13371">
        <ele>2153.6</ele>
        <time>2022-07-19T06:26:53Z</time>
      </trkpt>
      <trkpt lat="44.21947" lon="7.13371">
        <ele>2153.6</ele>
        <time>2022-07-19T06:26:54Z</time>
      </trkpt>
      <trkpt lat="44.21944" lon="7.13371">
        <ele>2153.6</ele>
        <time>2022-07-19T06:26:55Z</time>
      </trkpt>
      <trkpt lat="44.2194" lon="7.13371">
        <ele>2153.6</ele>
        <time>2022-07-19T06:26:56Z</time>
      </trkpt>
      <trkpt lat="44.21937" lon="7.13372">
        <ele>2153.6</ele>
        <time>2022-07-19T06:26:57Z</time>
      </trkpt>
      <trkpt lat="44.21934" lon="7.13372">
        <ele>2153.6</ele>
        <time>2022-07-19T06:26:58Z</time>
      </trkpt>
      <trkpt lat="44.21931" lon="7.13373">
        <ele>2153.6</ele>
        <time>2022-07-19T06:26:59Z</time>
      </trkpt>
      <trkpt lat="44.21927" lon="7.13374">
        <ele>2153.6</ele>
        <time>2022-07-19T06:27:00Z</time>
      </trkpt>
      <trkpt lat="44.21924" lon="7.13374">
        <ele>2153.6</ele>
        <time>2022-07-19T06:27:01Z</time>
      </trkpt>
      <trkpt lat="44.2192" lon="7.13374">
        <ele>2153.8</ele>
        <time>2022-07-19T06:27:02Z</time>
      </trkpt>
      <trkpt lat="44.21917" lon="7.13373">
        <ele>2153.8</ele>
        <time>2022-07-19T06:27:03Z</time>
      </trkpt>
      <trkpt lat="44.21914" lon="7.13373">
        <ele>2153.8</ele>
        <time>2022-07-19T06:27:04Z</time>
      </trkpt>
      <trkpt lat="44.21911" lon="7.13372">
        <ele>2153.8</ele>
        <time>2022-07-19T06:27:05Z</time>
      </trkpt>
      <trkpt lat="44.21908" lon="7.13371">
        <ele>2154</ele>
        <time>2022-07-19T06:27:06Z</time>
      </trkpt>
      <trkpt lat="44.21905" lon="7.1337">
        <ele>2154</ele>
        <time>2022-07-19T06:27:07Z</time>
      </trkpt>
      <trkpt lat="44.21902" lon="7.13369">
        <ele>2154.4</ele>
        <time>2022-07-19T06:27:08Z</time>
      </trkpt>
      <trkpt lat="44.219" lon="7.13367">
        <ele>2154.4</ele>
        <time>2022-07-19T06:27:09Z</time>
      </trkpt>
      <trkpt lat="44.21898" lon="7.13366">
        <ele>2154.8</ele>
        <time>2022-07-19T06:27:10Z</time>
      </trkpt>
      <trkpt lat="44.21895" lon="7.13365">
        <ele>2154.8</ele>
        <time>2022-07-19T06:27:11Z</time>
      </trkpt>
      <trkpt lat="44.21893" lon="7.13364">
        <ele>2155</ele>
        <time>2022-07-19T06:27:12Z</time>
      </trkpt>
      <trkpt lat="44.21891" lon="7.13363">
        <ele>2155.2</ele>
        <time>2022-07-19T06:27:13Z</time>
      </trkpt>
      <trkpt lat="44.21889" lon="7.13362">
        <ele>2155.2</ele>
        <time>2022-07-19T06:27:14Z</time>
      </trkpt>
      <trkpt lat="44.21886" lon="7.13362">
        <ele>2155.6</ele>
        <time>2022-07-19T06:27:15Z</time>
      </trkpt>
      <trkpt lat="44.21884" lon="7.13362">
        <ele>2155.6</ele>
        <time>2022-07-19T06:27:16Z</time>
      </trkpt>
      <trkpt lat="44.21882" lon="7.13362">
        <ele>2155.6</ele>
        <time>2022-07-19T06:27:17Z</time>
      </trkpt>
      <trkpt lat="44.2188" lon="7.13362">
        <ele>2155.8</ele>
        <time>2022-07-19T06:27:18Z</time>
      </trkpt>
      <trkpt lat="44.21877" lon="7.13363">
        <ele>2155.8</ele>
        <time>2022-07-19T06:27:19Z</time>
      </trkpt>
      <trkpt lat="44.21875" lon="7.13363">
        <ele>2156.2</ele>
        <time>2022-07-19T06:27:20Z</time>
      </trkpt>
      <trkpt lat="44.21873" lon="7.13364">
        <ele>2156.2</ele>
        <time>2022-07-19T06:27:21Z</time>
      </trkpt>
      <trkpt lat="44.21871" lon="7.13364">
        <ele>2156.2</ele>
        <time>2022-07-19T06:27:22Z</time>
      </trkpt>
      <trkpt lat="44.21869" lon="7.13365">
        <ele>2156.4</ele>
        <time>2022-07-19T06:27:23Z</time>
      </trkpt>
      <trkpt lat="44.21867" lon="7.13365">
        <ele>2156.6</ele>
        <time>2022-07-19T06:27:24Z</time>
      </trkpt>
      <trkpt lat="44.21865" lon="7.13367">
        <ele>2156.8</ele>
        <time>2022-07-19T06:27:25Z</time>
      </trkpt>
      <trkpt lat="44.21863" lon="7.13368">
        <ele>2156.8</ele>
        <time>2022-07-19T06:27:26Z</time>
      </trkpt>
      <trkpt lat="44.21861" lon="7.1337">
        <ele>2157.2</ele>
        <time>2022-07-19T06:27:27Z</time>
      </trkpt>
      <trkpt lat="44.21859" lon="7.13371">
        <ele>2157.2</ele>
        <time>2022-07-19T06:27:28Z</time>
      </trkpt>
      <trkpt lat="44.21856" lon="7.13373">
        <ele>2157.4</ele>
        <time>2022-07-19T06:27:29Z</time>
      </trkpt>
      <trkpt lat="44.21854" lon="7.13375">
        <ele>2157.4</ele>
        <time>2022-07-19T06:27:30Z</time>
      </trkpt>
      <trkpt lat="44.21852" lon="7.13376">
        <ele>2157.8</ele>
        <time>2022-07-19T06:27:31Z</time>
      </trkpt>
      <trkpt lat="44.2185" lon="7.13378">
        <ele>2157.8</ele>
        <time>2022-07-19T06:27:32Z</time>
      </trkpt>
      <trkpt lat="44.21848" lon="7.13381">
        <ele>2157.8</ele>
        <time>2022-07-19T06:27:33Z</time>
      </trkpt>
      <trkpt lat="44.21846" lon="7.13384">
        <ele>2157.8</ele>
        <time>2022-07-19T06:27:34Z</time>
      </trkpt>
      <trkpt lat="44.21844" lon="7.13386">
        <ele>2158</ele>
        <time>2022-07-19T06:27:35Z</time>
      </trkpt>
      <trkpt lat="44.21841" lon="7.13389">
        <ele>2158</ele>
        <time>2022-07-19T06:27:36Z</time>
      </trkpt>
      <trkpt lat="44.21839" lon="7.13392">
        <ele>2158</ele>
        <time>2022-07-19T06:27:37Z</time>
      </trkpt>
      <trkpt lat="44.21837" lon="7.13395">
        <ele>2158.2</ele>
        <time>2022-07-19T06:27:38Z</time>
      </trkpt>
      <trkpt lat="44.21835" lon="7.13397">
        <ele>2158.2</ele>
        <time>2022-07-19T06:27:39Z</time>
      </trkpt>
      <trkpt lat="44.21833" lon="7.134">
        <ele>2158.2</ele>
        <time>2022-07-19T06:27:40Z</time>
      </trkpt>
      <trkpt lat="44.2183" lon="7.13404">
        <ele>2158.4</ele>
        <time>2022-07-19T06:27:41Z</time>
      </trkpt>
      <trkpt lat="44.21828" lon="7.13407">
        <ele>2158.4</ele>
        <time>2022-07-19T06:27:42Z</time>
      </trkpt>
      <trkpt lat="44.21825" lon="7.1341">
        <ele>2158.6</ele>
        <time>2022-07-19T06:27:43Z</time>
      </trkpt>
      <trkpt lat="44.21823" lon="7.13413">
        <ele>2158.6</ele>
        <time>2022-07-19T06:27:44Z</time>
      </trkpt>
      <trkpt lat="44.2182" lon="7.13416">
        <ele>2158.6</ele>
        <time>2022-07-19T06:27:45Z</time>
      </trkpt>
      <trkpt lat="44.21818" lon="7.13419">
        <ele>2158.6</ele>
        <time>2022-07-19T06:27:46Z</time>
      </trkpt>
      <trkpt lat="44.21815" lon="7.13422">
        <ele>2159</ele>
        <time>2022-07-19T06:27:47Z</time>
      </trkpt>
      <trkpt lat="44.21813" lon="7.13425">
        <ele>2159</ele>
        <time>2022-07-19T06:27:48Z</time>
      </trkpt>
      <trkpt lat="44.2181" lon="7.13428">
        <ele>2159</ele>
        <time>2022-07-19T06:27:49Z</time>
      </trkpt>
      <trkpt lat="44.21808" lon="7.13431">
        <ele>2159</ele>
        <time>2022-07-19T06:27:50Z</time>
      </trkpt>
      <trkpt lat="44.21806" lon="7.13434">
        <ele>2159.2</ele>
        <time>2022-07-19T06:27:51Z</time>
      </trkpt>
      <trkpt lat="44.21804" lon="7.13438">
        <ele>2159.2</ele>
        <time>2022-07-19T06:27:52Z</time>
      </trkpt>
      <trkpt lat="44.21802" lon="7.13441">
        <ele>2159.2</ele>
        <time>2022-07-19T06:27:53Z</time>
      </trkpt>
      <trkpt lat="44.21801" lon="7.13445">
        <ele>2159.2</ele>
        <time>2022-07-19T06:27:54Z</time>
      </trkpt>
      <trkpt lat="44.21799" lon="7.13449">
        <ele>2159.4</ele>
        <time>2022-07-19T06:27:55Z</time>
      </trkpt>
      <trkpt lat="44.21798" lon="7.13454">
        <ele>2159.4</ele>
        <time>2022-07-19T06:27:56Z</time>
      </trkpt>
      <trkpt lat="44.21796" lon="7.13458">
        <ele>2159.4</ele>
        <time>2022-07-19T06:27:57Z</time>
      </trkpt>
      <trkpt lat="44.21795" lon="7.13463">
        <ele>2159.4</ele>
        <time>2022-07-19T06:27:58Z</time>
      </trkpt>
      <trkpt lat="44.21794" lon="7.13468">
        <ele>2159.4</ele>
        <time>2022-07-19T06:27:59Z</time>
      </trkpt>
      <trkpt lat="44.21792" lon="7.13472">
        <ele>2159.4</ele>
        <time>2022-07-19T06:28:00Z</time>
      </trkpt>
      <trkpt lat="44.2179" lon="7.13477">
        <ele>2159.4</ele>
        <time>2022-07-19T06:28:01Z</time>
      </trkpt>
      <trkpt lat="44.21788" lon="7.13482">
        <ele>2159.4</ele>
        <time>2022-07-19T06:28:02Z</time>
      </trkpt>
      <trkpt lat="44.21786" lon="7.13487">
        <ele>2159.4</ele>
        <time>2022-07-19T06:28:03Z</time>
      </trkpt>
      <trkpt lat="44.21784" lon="7.13491">
        <ele>2159.4</ele>
        <time>2022-07-19T06:28:04Z</time>
      </trkpt>
      <trkpt lat="44.21782" lon="7.13496">
        <ele>2159.4</ele>
        <time>2022-07-19T06:28:05Z</time>
      </trkpt>
      <trkpt lat="44.21779" lon="7.135">
        <ele>2159.6</ele>
        <time>2022-07-19T06:28:06Z</time>
      </trkpt>
      <trkpt lat="44.21776" lon="7.13504">
        <ele>2159.6</ele>
        <time>2022-07-19T06:28:07Z</time>
      </trkpt>
      <trkpt lat="44.21773" lon="7.13507">
        <ele>2159.6</ele>
        <time>2022-07-19T06:28:08Z</time>
      </trkpt>
      <trkpt lat="44.2177" lon="7.1351">
        <ele>2159.6</ele>
        <time>2022-07-19T06:28:09Z</time>
      </trkpt>
      <trkpt lat="44.21767" lon="7.13512">
        <ele>2159.6</ele>
        <time>2022-07-19T06:28:10Z</time>
      </trkpt>
      <trkpt lat="44.21764" lon="7.13515">
        <ele>2159.6</ele>
        <time>2022-07-19T06:28:11Z</time>
      </trkpt>
      <trkpt lat="44.2176" lon="7.13518">
        <ele>2159.8</ele>
        <time>2022-07-19T06:28:12Z</time>
      </trkpt>
      <trkpt lat="44.21757" lon="7.1352">
        <ele>2159.8</ele>
        <time>2022-07-19T06:28:13Z</time>
      </trkpt>
      <trkpt lat="44.21754" lon="7.13522">
        <ele>2159.8</ele>
        <time>2022-07-19T06:28:14Z</time>
      </trkpt>
      <trkpt lat="44.21751" lon="7.13525">
        <ele>2159.8</ele>
        <time>2022-07-19T06:28:15Z</time>
      </trkpt>
      <trkpt lat="44.21748" lon="7.13526">
        <ele>2160.2</ele>
        <time>2022-07-19T06:28:16Z</time>
      </trkpt>
      <trkpt lat="44.21744" lon="7.13527">
        <ele>2160.2</ele>
        <time>2022-07-19T06:28:17Z</time>
      </trkpt>
      <trkpt lat="44.21741" lon="7.13528">
        <ele>2160.2</ele>
        <time>2022-07-19T06:28:18Z</time>
      </trkpt>
      <trkpt lat="44.21738" lon="7.13529">
        <ele>2160.4</ele>
        <time>2022-07-19T06:28:19Z</time>
      </trkpt>
      <trkpt lat="44.21735" lon="7.13529">
        <ele>2160.4</ele>
        <time>2022-07-19T06:28:20Z</time>
      </trkpt>
      <trkpt lat="44.21732" lon="7.1353">
        <ele>2160.8</ele>
        <time>2022-07-19T06:28:21Z</time>
      </trkpt>
      <trkpt lat="44.21729" lon="7.1353">
        <ele>2160.8</ele>
        <time>2022-07-19T06:28:22Z</time>
      </trkpt>
      <trkpt lat="44.21726" lon="7.13531">
        <ele>2161</ele>
        <time>2022-07-19T06:28:23Z</time>
      </trkpt>
      <trkpt lat="44.21723" lon="7.13532">
        <ele>2161</ele>
        <time>2022-07-19T06:28:24Z</time>
      </trkpt>
      <trkpt lat="44.2172" lon="7.13534">
        <ele>2161.4</ele>
        <time>2022-07-19T06:28:25Z</time>
      </trkpt>
      <trkpt lat="44.21717" lon="7.13535">
        <ele>2161.4</ele>
        <time>2022-07-19T06:28:26Z</time>
      </trkpt>
      <trkpt lat="44.21714" lon="7.13537">
        <ele>2161.6</ele>
        <time>2022-07-19T06:28:27Z</time>
      </trkpt>
      <trkpt lat="44.21711" lon="7.13538">
        <ele>2161.6</ele>
        <time>2022-07-19T06:28:28Z</time>
      </trkpt>
      <trkpt lat="44.21708" lon="7.1354">
        <ele>2161.8</ele>
        <time>2022-07-19T06:28:29Z</time>
      </trkpt>
      <trkpt lat="44.21705" lon="7.13542">
        <ele>2161.8</ele>
        <time>2022-07-19T06:28:30Z</time>
      </trkpt>
      <trkpt lat="44.21703" lon="7.13543">
        <ele>2162.2</ele>
        <time>2022-07-19T06:28:31Z</time>
      </trkpt>
      <trkpt lat="44.217" lon="7.13545">
        <ele>2162.2</ele>
        <time>2022-07-19T06:28:32Z</time>
      </trkpt>
      <trkpt lat="44.21697" lon="7.13547">
        <ele>2162.4</ele>
        <time>2022-07-19T06:28:33Z</time>
      </trkpt>
      <trkpt lat="44.21695" lon="7.13549">
        <ele>2162.6</ele>
        <time>2022-07-19T06:28:34Z</time>
      </trkpt>
      <trkpt lat="44.21692" lon="7.13551">
        <ele>2162.6</ele>
        <time>2022-07-19T06:28:35Z</time>
      </trkpt>
      <trkpt lat="44.2169" lon="7.13554">
        <ele>2162.8</ele>
        <time>2022-07-19T06:28:36Z</time>
      </trkpt>
      <trkpt lat="44.21688" lon="7.13556">
        <ele>2162.8</ele>
        <time>2022-07-19T06:28:37Z</time>
      </trkpt>
      <trkpt lat="44.21686" lon="7.13558">
        <ele>2163.2</ele>
        <time>2022-07-19T06:28:38Z</time>
      </trkpt>
      <trkpt lat="44.21683" lon="7.13561">
        <ele>2163.4</ele>
        <time>2022-07-19T06:28:39Z</time>
      </trkpt>
      <trkpt lat="44.21681" lon="7.13563">
        <ele>2163.4</ele>
        <time>2022-07-19T06:28:40Z</time>
      </trkpt>
      <trkpt lat="44.21679" lon="7.13566">
        <ele>2163.8</ele>
        <time>2022-07-19T06:28:41Z</time>
      </trkpt>
      <trkpt lat="44.21677" lon="7.13568">
        <ele>2164</ele>
        <time>2022-07-19T06:28:42Z</time>
      </trkpt>
      <trkpt lat="44.21675" lon="7.1357">
        <ele>2164</ele>
        <time>2022-07-19T06:28:43Z</time>
      </trkpt>
      <trkpt lat="44.21673" lon="7.13573">
        <ele>2164.4</ele>
        <time>2022-07-19T06:28:44Z</time>
      </trkpt>
      <trkpt lat="44.2167" lon="7.13575">
        <ele>2164.4</ele>
        <time>2022-07-19T06:28:45Z</time>
      </trkpt>
      <trkpt lat="44.21668" lon="7.13578">
        <ele>2164.8</ele>
        <time>2022-07-19T06:28:46Z</time>
      </trkpt>
      <trkpt lat="44.21666" lon="7.1358">
        <ele>2164.8</ele>
        <time>2022-07-19T06:28:47Z</time>
      </trkpt>
      <trkpt lat="44.21663" lon="7.13582">
        <ele>2165</ele>
        <time>2022-07-19T06:28:48Z</time>
      </trkpt>
      <trkpt lat="44.21661" lon="7.13585">
        <ele>2165</ele>
        <time>2022-07-19T06:28:49Z</time>
      </trkpt>
      <trkpt lat="44.21659" lon="7.13587">
        <ele>2165.4</ele>
        <time>2022-07-19T06:28:50Z</time>
      </trkpt>
      <trkpt lat="44.21657" lon="7.1359">
        <ele>2165.6</ele>
        <time>2022-07-19T06:28:51Z</time>
      </trkpt>
      <trkpt lat="44.21655" lon="7.13592">
        <ele>2165.6</ele>
        <time>2022-07-19T06:28:52Z</time>
      </trkpt>
      <trkpt lat="44.21653" lon="7.13594">
        <ele>2165.8</ele>
        <time>2022-07-19T06:28:53Z</time>
      </trkpt>
      <trkpt lat="44.21651" lon="7.13597">
        <ele>2165.8</ele>
        <time>2022-07-19T06:28:54Z</time>
      </trkpt>
      <trkpt lat="44.2165" lon="7.13599">
        <ele>2166</ele>
        <time>2022-07-19T06:28:55Z</time>
      </trkpt>
      <trkpt lat="44.21648" lon="7.13602">
        <ele>2166</ele>
        <time>2022-07-19T06:28:56Z</time>
      </trkpt>
      <trkpt lat="44.21646" lon="7.13605">
        <ele>2166.4</ele>
        <time>2022-07-19T06:28:57Z</time>
      </trkpt>
      <trkpt lat="44.21645" lon="7.13608">
        <ele>2166.4</ele>
        <time>2022-07-19T06:28:58Z</time>
      </trkpt>
      <trkpt lat="44.21643" lon="7.1361">
        <ele>2166.8</ele>
        <time>2022-07-19T06:28:59Z</time>
      </trkpt>
      <trkpt lat="44.21642" lon="7.13614">
        <ele>2167</ele>
        <time>2022-07-19T06:29:00Z</time>
      </trkpt>
      <trkpt lat="44.21641" lon="7.13617">
        <ele>2167.2</ele>
        <time>2022-07-19T06:29:01Z</time>
      </trkpt>
      <trkpt lat="44.21641" lon="7.1362">
        <ele>2167.2</ele>
        <time>2022-07-19T06:29:02Z</time>
      </trkpt>
      <trkpt lat="44.2164" lon="7.13623">
        <ele>2167.4</ele>
        <time>2022-07-19T06:29:03Z</time>
      </trkpt>
      <trkpt lat="44.2164" lon="7.13626">
        <ele>2167.4</ele>
        <time>2022-07-19T06:29:04Z</time>
      </trkpt>
      <trkpt lat="44.21639" lon="7.1363">
        <ele>2167.6</ele>
        <time>2022-07-19T06:29:05Z</time>
      </trkpt>
      <trkpt lat="44.21639" lon="7.13633">
        <ele>2167.6</ele>
        <time>2022-07-19T06:29:06Z</time>
      </trkpt>
      <trkpt lat="44.21638" lon="7.13636">
        <ele>2168</ele>
        <time>2022-07-19T06:29:07Z</time>
      </trkpt>
      <trkpt lat="44.21637" lon="7.13639">
        <ele>2168</ele>
        <time>2022-07-19T06:29:08Z</time>
      </trkpt>
      <trkpt lat="44.21635" lon="7.13642">
        <ele>2168.2</ele>
        <time>2022-07-19T06:29:09Z</time>
      </trkpt>
      <trkpt lat="44.21634" lon="7.13645">
        <ele>2168.2</ele>
        <time>2022-07-19T06:29:10Z</time>
      </trkpt>
      <trkpt lat="44.21632" lon="7.13647">
        <ele>2168.2</ele>
        <time>2022-07-19T06:29:11Z</time>
      </trkpt>
      <trkpt lat="44.2163" lon="7.1365">
        <ele>2168.4</ele>
        <time>2022-07-19T06:29:12Z</time>
      </trkpt>
      <trkpt lat="44.21628" lon="7.13652">
        <ele>2168.4</ele>
        <time>2022-07-19T06:29:13Z</time>
      </trkpt>
      <trkpt lat="44.21627" lon="7.13654">
        <ele>2168.8</ele>
        <time>2022-07-19T06:29:14Z</time>
      </trkpt>
      <trkpt lat="44.21625" lon="7.13656">
        <ele>2168.8</ele>
        <time>2022-07-19T06:29:15Z</time>
      </trkpt>
      <trkpt lat="44.21623" lon="7.13657">
        <ele>2169.2</ele>
        <time>2022-07-19T06:29:16Z</time>
      </trkpt>
      <trkpt lat="44.21621" lon="7.13659">
        <ele>2169.4</ele>
        <time>2022-07-19T06:29:17Z</time>
      </trkpt>
      <trkpt lat="44.21619" lon="7.13661">
        <ele>2169.4</ele>
        <time>2022-07-19T06:29:18Z</time>
      </trkpt>
      <trkpt lat="44.21617" lon="7.13663">
        <ele>2169.4</ele>
        <time>2022-07-19T06:29:19Z</time>
      </trkpt>
      <trkpt lat="44.21615" lon="7.13664">
        <ele>2169.6</ele>
        <time>2022-07-19T06:29:20Z</time>
      </trkpt>
      <trkpt lat="44.21613" lon="7.13666">
        <ele>2169.6</ele>
        <time>2022-07-19T06:29:21Z</time>
      </trkpt>
      <trkpt lat="44.21612" lon="7.13668">
        <ele>2170</ele>
        <time>2022-07-19T06:29:22Z</time>
      </trkpt>
      <trkpt lat="44.2161" lon="7.1367">
        <ele>2170</ele>
        <time>2022-07-19T06:29:23Z</time>
      </trkpt>
      <trkpt lat="44.21608" lon="7.13671">
        <ele>2170.2</ele>
        <time>2022-07-19T06:29:24Z</time>
      </trkpt>
      <trkpt lat="44.21606" lon="7.13673">
        <ele>2170.2</ele>
        <time>2022-07-19T06:29:25Z</time>
      </trkpt>
      <trkpt lat="44.21604" lon="7.13675">
        <ele>2170.4</ele>
        <time>2022-07-19T06:29:26Z</time>
      </trkpt>
      <trkpt lat="44.21602" lon="7.13676">
        <ele>2170.4</ele>
        <time>2022-07-19T06:29:27Z</time>
      </trkpt>
      <trkpt lat="44.216" lon="7.13678">
        <ele>2170.6</ele>
        <time>2022-07-19T06:29:28Z</time>
      </trkpt>
      <trkpt lat="44.21598" lon="7.1368">
        <ele>2170.6</ele>
        <time>2022-07-19T06:29:29Z</time>
      </trkpt>
      <trkpt lat="44.21596" lon="7.13682">
        <ele>2171</ele>
        <time>2022-07-19T06:29:30Z</time>
      </trkpt>
      <trkpt lat="44.21594" lon="7.13684">
        <ele>2171</ele>
        <time>2022-07-19T06:29:31Z</time>
      </trkpt>
      <trkpt lat="44.21592" lon="7.13686">
        <ele>2171.2</ele>
        <time>2022-07-19T06:29:32Z</time>
      </trkpt>
      <trkpt lat="44.21591" lon="7.13689">
        <ele>2171.2</ele>
        <time>2022-07-19T06:29:33Z</time>
      </trkpt>
      <trkpt lat="44.2159" lon="7.13691">
        <ele>2171.6</ele>
        <time>2022-07-19T06:29:34Z</time>
      </trkpt>
      <trkpt lat="44.21588" lon="7.13694">
        <ele>2171.6</ele>
        <time>2022-07-19T06:29:35Z</time>
      </trkpt>
      <trkpt lat="44.21587" lon="7.13697">
        <ele>2172</ele>
        <time>2022-07-19T06:29:36Z</time>
      </trkpt>
      <trkpt lat="44.21585" lon="7.13699">
        <ele>2172</ele>
        <time>2022-07-19T06:29:37Z</time>
      </trkpt>
      <trkpt lat="44.21584" lon="7.13702">
        <ele>2172</ele>
        <time>2022-07-19T06:29:38Z</time>
      </trkpt>
      <trkpt lat="44.21583" lon="7.13706">
        <ele>2172.2</ele>
        <time>2022-07-19T06:29:39Z</time>
      </trkpt>
      <trkpt lat="44.21582" lon="7.13709">
        <ele>2172.2</ele>
        <time>2022-07-19T06:29:40Z</time>
      </trkpt>
      <trkpt lat="44.21581" lon="7.13713">
        <ele>2172.2</ele>
        <time>2022-07-19T06:29:41Z</time>
      </trkpt>
      <trkpt lat="44.2158" lon="7.13716">
        <ele>2172.6</ele>
        <time>2022-07-19T06:29:42Z</time>
      </trkpt>
      <trkpt lat="44.21579" lon="7.1372">
        <ele>2172.6</ele>
        <time>2022-07-19T06:29:43Z</time>
      </trkpt>
      <trkpt lat="44.21578" lon="7.13723">
        <ele>2172.6</ele>
        <time>2022-07-19T06:29:44Z</time>
      </trkpt>
      <trkpt lat="44.21577" lon="7.13727">
        <ele>2172.8</ele>
        <time>2022-07-19T06:29:45Z</time>
      </trkpt>
      <trkpt lat="44.21576" lon="7.1373">
        <ele>2172.8</ele>
        <time>2022-07-19T06:29:46Z</time>
      </trkpt>
      <trkpt lat="44.21574" lon="7.13734">
        <ele>2172.8</ele>
        <time>2022-07-19T06:29:47Z</time>
      </trkpt>
      <trkpt lat="44.21573" lon="7.13737">
        <ele>2173.2</ele>
        <time>2022-07-19T06:29:48Z</time>
      </trkpt>
      <trkpt lat="44.21572" lon="7.13741">
        <ele>2173.2</ele>
        <time>2022-07-19T06:29:49Z</time>
      </trkpt>
      <trkpt lat="44.2157" lon="7.13744">
        <ele>2173.4</ele>
        <time>2022-07-19T06:29:50Z</time>
      </trkpt>
      <trkpt lat="44.21569" lon="7.13748">
        <ele>2173.4</ele>
        <time>2022-07-19T06:29:51Z</time>
      </trkpt>
      <trkpt lat="44.21567" lon="7.13751">
        <ele>2173.4</ele>
        <time>2022-07-19T06:29:52Z</time>
      </trkpt>
      <trkpt lat="44.21565" lon="7.13755">
        <ele>2173.4</ele>
        <time>2022-07-19T06:29:53Z</time>
      </trkpt>
      <trkpt lat="44.21563" lon="7.13759">
        <ele>2173.4</ele>
        <time>2022-07-19T06:29:54Z</time>
      </trkpt>
      <trkpt lat="44.21561" lon="7.13762">
        <ele>2173.4</ele>
        <time>2022-07-19T06:29:55Z</time>
      </trkpt>
      <trkpt lat="44.21559" lon="7.13767">
        <ele>2173.4</ele>
        <time>2022-07-19T06:29:56Z</time>
      </trkpt>
      <trkpt lat="44.21557" lon="7.13771">
        <ele>2173.4</ele>
        <time>2022-07-19T06:29:57Z</time>
      </trkpt>
      <trkpt lat="44.21555" lon="7.13775">
        <ele>2173.4</ele>
        <time>2022-07-19T06:29:58Z</time>
      </trkpt>
      <trkpt lat="44.21553" lon="7.13779">
        <ele>2173.6</ele>
        <time>2022-07-19T06:29:59Z</time>
      </trkpt>
      <trkpt lat="44.2155" lon="7.13784">
        <ele>2173.6</ele>
        <time>2022-07-19T06:30:00Z</time>
      </trkpt>
      <trkpt lat="44.21548" lon="7.13788">
        <ele>2173.6</ele>
        <time>2022-07-19T06:30:01Z</time>
      </trkpt>
      <trkpt lat="44.21545" lon="7.13793">
        <ele>2173.6</ele>
        <time>2022-07-19T06:30:02Z</time>
      </trkpt>
      <trkpt lat="44.21543" lon="7.13798">
        <ele>2173.6</ele>
        <time>2022-07-19T06:30:03Z</time>
      </trkpt>
      <trkpt lat="44.21541" lon="7.13803">
        <ele>2173.6</ele>
        <time>2022-07-19T06:30:04Z</time>
      </trkpt>
      <trkpt lat="44.21539" lon="7.13808">
        <ele>2173.6</ele>
        <time>2022-07-19T06:30:05Z</time>
      </trkpt>
      <trkpt lat="44.21538" lon="7.13813">
        <ele>2173.6</ele>
        <time>2022-07-19T06:30:06Z</time>
      </trkpt>
      <trkpt lat="44.21536" lon="7.13818">
        <ele>2173.6</ele>
        <time>2022-07-19T06:30:07Z</time>
      </trkpt>
      <trkpt lat="44.21534" lon="7.13823">
        <ele>2173.6</ele>
        <time>2022-07-19T06:30:08Z</time>
      </trkpt>
      <trkpt lat="44.21533" lon="7.13829">
        <ele>2173.6</ele>
        <time>2022-07-19T06:30:09Z</time>
      </trkpt>
      <trkpt lat="44.21531" lon="7.13834">
        <ele>2173.6</ele>
        <time>2022-07-19T06:30:10Z</time>
      </trkpt>
      <trkpt lat="44.2153" lon="7.13839">
        <ele>2173.6</ele>
        <time>2022-07-19T06:30:11Z</time>
      </trkpt>
      <trkpt lat="44.21528" lon="7.13844">
        <ele>2173.6</ele>
        <time>2022-07-19T06:30:12Z</time>
      </trkpt>
      <trkpt lat="44.21527" lon="7.13849">
        <ele>2173.6</ele>
        <time>2022-07-19T06:30:13Z</time>
      </trkpt>
      <trkpt lat="44.21525" lon="7.13855">
        <ele>2173.6</ele>
        <time>2022-07-19T06:30:14Z</time>
      </trkpt>
      <trkpt lat="44.21523" lon="7.1386">
        <ele>2173.6</ele>
        <time>2022-07-19T06:30:15Z</time>
      </trkpt>
      <trkpt lat="44.21521" lon="7.13865">
        <ele>2173.6</ele>
        <time>2022-07-19T06:30:16Z</time>
      </trkpt>
      <trkpt lat="44.2152" lon="7.1387">
        <ele>2173.8</ele>
        <time>2022-07-19T06:30:17Z</time>
      </trkpt>
      <trkpt lat="44.21518" lon="7.13875">
        <ele>2173.8</ele>
        <time>2022-07-19T06:30:18Z</time>
      </trkpt>
      <trkpt lat="44.21516" lon="7.13881">
        <ele>2173.8</ele>
        <time>2022-07-19T06:30:19Z</time>
      </trkpt>
      <trkpt lat="44.21514" lon="7.13886">
        <ele>2173.8</ele>
        <time>2022-07-19T06:30:20Z</time>
      </trkpt>
      <trkpt lat="44.21513" lon="7.13891">
        <ele>2173.8</ele>
        <time>2022-07-19T06:30:21Z</time>
      </trkpt>
      <trkpt lat="44.21511" lon="7.13896">
        <ele>2173.8</ele>
        <time>2022-07-19T06:30:22Z</time>
      </trkpt>
      <trkpt lat="44.21509" lon="7.13901">
        <ele>2173.8</ele>
        <time>2022-07-19T06:30:23Z</time>
      </trkpt>
      <trkpt lat="44.21507" lon="7.13907">
        <ele>2173.8</ele>
        <time>2022-07-19T06:30:24Z</time>
      </trkpt>
      <trkpt lat="44.21505" lon="7.13912">
        <ele>2173.8</ele>
        <time>2022-07-19T06:30:25Z</time>
      </trkpt>
      <trkpt lat="44.21503" lon="7.13917">
        <ele>2173.8</ele>
        <time>2022-07-19T06:30:26Z</time>
      </trkpt>
      <trkpt lat="44.215" lon="7.13921">
        <ele>2173.8</ele>
        <time>2022-07-19T06:30:27Z</time>
      </trkpt>
      <trkpt lat="44.21498" lon="7.13925">
        <ele>2174.2</ele>
        <time>2022-07-19T06:30:28Z</time>
      </trkpt>
      <trkpt lat="44.21496" lon="7.13929">
        <ele>2174.2</ele>
        <time>2022-07-19T06:30:29Z</time>
      </trkpt>
      <trkpt lat="44.21494" lon="7.13932">
        <ele>2174.2</ele>
        <time>2022-07-19T06:30:30Z</time>
      </trkpt>
      <trkpt lat="44.21492" lon="7.13935">
        <ele>2174.4</ele>
        <time>2022-07-19T06:30:31Z</time>
      </trkpt>
      <trkpt lat="44.2149" lon="7.13938">
        <ele>2174.4</ele>
        <time>2022-07-19T06:30:32Z</time>
      </trkpt>
      <trkpt lat="44.21488" lon="7.13941">
        <ele>2174.8</ele>
        <time>2022-07-19T06:30:33Z</time>
      </trkpt>
      <trkpt lat="44.21486" lon="7.13944">
        <ele>2174.8</ele>
        <time>2022-07-19T06:30:34Z</time>
      </trkpt>
      <trkpt lat="44.21484" lon="7.13947">
        <ele>2175.2</ele>
        <time>2022-07-19T06:30:35Z</time>
      </trkpt>
      <trkpt lat="44.21483" lon="7.1395">
        <ele>2175.2</ele>
        <time>2022-07-19T06:30:36Z</time>
      </trkpt>
      <trkpt lat="44.21481" lon="7.13953">
        <ele>2175.4</ele>
        <time>2022-07-19T06:30:37Z</time>
      </trkpt>
      <trkpt lat="44.2148" lon="7.13957">
        <ele>2175.4</ele>
        <time>2022-07-19T06:30:38Z</time>
      </trkpt>
      <trkpt lat="44.21479" lon="7.1396">
        <ele>2175.6</ele>
        <time>2022-07-19T06:30:39Z</time>
      </trkpt>
      <trkpt lat="44.21478" lon="7.13964">
        <ele>2175.6</ele>
        <time>2022-07-19T06:30:40Z</time>
      </trkpt>
      <trkpt lat="44.21477" lon="7.13968">
        <ele>2175.8</ele>
        <time>2022-07-19T06:30:41Z</time>
      </trkpt>
      <trkpt lat="44.21476" lon="7.13972">
        <ele>2175.8</ele>
        <time>2022-07-19T06:30:42Z</time>
      </trkpt>
      <trkpt lat="44.21476" lon="7.13975">
        <ele>2175.8</ele>
        <time>2022-07-19T06:30:43Z</time>
      </trkpt>
      <trkpt lat="44.21475" lon="7.13979">
        <ele>2176.2</ele>
        <time>2022-07-19T06:30:44Z</time>
      </trkpt>
      <trkpt lat="44.21475" lon="7.13983">
        <ele>2176.2</ele>
        <time>2022-07-19T06:30:45Z</time>
      </trkpt>
      <trkpt lat="44.21474" lon="7.13986">
        <ele>2176.4</ele>
        <time>2022-07-19T06:30:46Z</time>
      </trkpt>
      <trkpt lat="44.21473" lon="7.1399">
        <ele>2176.4</ele>
        <time>2022-07-19T06:30:47Z</time>
      </trkpt>
      <trkpt lat="44.21473" lon="7.13994">
        <ele>2176.8</ele>
        <time>2022-07-19T06:30:48Z</time>
      </trkpt>
      <trkpt lat="44.21473" lon="7.13997">
        <ele>2176.8</ele>
        <time>2022-07-19T06:30:49Z</time>
      </trkpt>
      <trkpt lat="44.21473" lon="7.14001">
        <ele>2177</ele>
        <time>2022-07-19T06:30:50Z</time>
      </trkpt>
      <trkpt lat="44.21474" lon="7.14005">
        <ele>2177</ele>
        <time>2022-07-19T06:30:51Z</time>
      </trkpt>
      <trkpt lat="44.21474" lon="7.14009">
        <ele>2177</ele>
        <time>2022-07-19T06:30:52Z</time>
      </trkpt>
      <trkpt lat="44.21475" lon="7.14013">
        <ele>2177.2</ele>
        <time>2022-07-19T06:30:53Z</time>
      </trkpt>
      <trkpt lat="44.21475" lon="7.14016">
        <ele>2177.2</ele>
        <time>2022-07-19T06:30:54Z</time>
      </trkpt>
      <trkpt lat="44.21475" lon="7.1402">
        <ele>2177.2</ele>
        <time>2022-07-19T06:30:55Z</time>
      </trkpt>
      <trkpt lat="44.21476" lon="7.14024">
        <ele>2177.6</ele>
        <time>2022-07-19T06:30:56Z</time>
      </trkpt>
      <trkpt lat="44.21476" lon="7.14027">
        <ele>2177.8</ele>
        <time>2022-07-19T06:30:57Z</time>
      </trkpt>
      <trkpt lat="44.21476" lon="7.14031">
        <ele>2177.8</ele>
        <time>2022-07-19T06:30:58Z</time>
      </trkpt>
      <trkpt lat="44.21477" lon="7.14034">
        <ele>2178</ele>
        <time>2022-07-19T06:30:59Z</time>
      </trkpt>
      <trkpt lat="44.21477" lon="7.14038">
        <ele>2178.2</ele>
        <time>2022-07-19T06:31:00Z</time>
      </trkpt>
      <trkpt lat="44.21478" lon="7.14041">
        <ele>2178.2</ele>
        <time>2022-07-19T06:31:01Z</time>
      </trkpt>
      <trkpt lat="44.21478" lon="7.14045">
        <ele>2178.6</ele>
        <time>2022-07-19T06:31:02Z</time>
      </trkpt>
      <trkpt lat="44.21478" lon="7.14048">
        <ele>2178.6</ele>
        <time>2022-07-19T06:31:03Z</time>
      </trkpt>
      <trkpt lat="44.21479" lon="7.14052">
        <ele>2178.8</ele>
        <time>2022-07-19T06:31:04Z</time>
      </trkpt>
      <trkpt lat="44.21479" lon="7.14056">
        <ele>2178.8</ele>
        <time>2022-07-19T06:31:05Z</time>
      </trkpt>
      <trkpt lat="44.2148" lon="7.14059">
        <ele>2179</ele>
        <time>2022-07-19T06:31:06Z</time>
      </trkpt>
      <trkpt lat="44.21481" lon="7.14063">
        <ele>2179</ele>
        <time>2022-07-19T06:31:07Z</time>
      </trkpt>
      <trkpt lat="44.21481" lon="7.14066">
        <ele>2179.2</ele>
        <time>2022-07-19T06:31:08Z</time>
      </trkpt>
      <trkpt lat="44.21482" lon="7.14069">
        <ele>2179.2</ele>
        <time>2022-07-19T06:31:09Z</time>
      </trkpt>
      <trkpt lat="44.21482" lon="7.14073">
        <ele>2179.6</ele>
        <time>2022-07-19T06:31:10Z</time>
      </trkpt>
      <trkpt lat="44.21483" lon="7.14077">
        <ele>2179.6</ele>
        <time>2022-07-19T06:31:11Z</time>
      </trkpt>
      <trkpt lat="44.21484" lon="7.1408">
        <ele>2179.8</ele>
        <time>2022-07-19T06:31:12Z</time>
      </trkpt>
      <trkpt lat="44.21485" lon="7.14084">
        <ele>2179.8</ele>
        <time>2022-07-19T06:31:13Z</time>
      </trkpt>
      <trkpt lat="44.21486" lon="7.14087">
        <ele>2180</ele>
        <time>2022-07-19T06:31:14Z</time>
      </trkpt>
      <trkpt lat="44.21486" lon="7.14091">
        <ele>2180.2</ele>
        <time>2022-07-19T06:31:15Z</time>
      </trkpt>
      <trkpt lat="44.21487" lon="7.14095">
        <ele>2180.2</ele>
        <time>2022-07-19T06:31:16Z</time>
      </trkpt>
      <trkpt lat="44.21488" lon="7.14099">
        <ele>2180.6</ele>
        <time>2022-07-19T06:31:17Z</time>
      </trkpt>
      <trkpt lat="44.21488" lon="7.14103">
        <ele>2180.6</ele>
        <time>2022-07-19T06:31:18Z</time>
      </trkpt>
      <trkpt lat="44.21487" lon="7.14106">
        <ele>2180.6</ele>
        <time>2022-07-19T06:31:19Z</time>
      </trkpt>
      <trkpt lat="44.21487" lon="7.1411">
        <ele>2180.8</ele>
        <time>2022-07-19T06:31:20Z</time>
      </trkpt>
      <trkpt lat="44.21487" lon="7.14114">
        <ele>2180.8</ele>
        <time>2022-07-19T06:31:21Z</time>
      </trkpt>
      <trkpt lat="44.21487" lon="7.14118">
        <ele>2181</ele>
        <time>2022-07-19T06:31:22Z</time>
      </trkpt>
      <trkpt lat="44.21487" lon="7.14121">
        <ele>2181</ele>
        <time>2022-07-19T06:31:23Z</time>
      </trkpt>
      <trkpt lat="44.21484" lon="7.14132">
        <ele>2181.6</ele>
        <time>2022-07-19T06:31:24Z</time>
      </trkpt>
      <trkpt lat="44.21483" lon="7.14136">
        <ele>2181.6</ele>
        <time>2022-07-19T06:31:25Z</time>
      </trkpt>
      <trkpt lat="44.21482" lon="7.1414">
        <ele>2181.8</ele>
        <time>2022-07-19T06:31:26Z</time>
      </trkpt>
      <trkpt lat="44.21481" lon="7.14143">
        <ele>2181.8</ele>
        <time>2022-07-19T06:31:27Z</time>
      </trkpt>
      <trkpt lat="44.2148" lon="7.14146">
        <ele>2182.2</ele>
        <time>2022-07-19T06:31:28Z</time>
      </trkpt>
      <trkpt lat="44.21478" lon="7.14149">
        <ele>2182.2</ele>
        <time>2022-07-19T06:31:29Z</time>
      </trkpt>
      <trkpt lat="44.21476" lon="7.14152">
        <ele>2182.4</ele>
        <time>2022-07-19T06:31:30Z</time>
      </trkpt>
      <trkpt lat="44.21473" lon="7.14154">
        <ele>2182.4</ele>
        <time>2022-07-19T06:31:31Z</time>
      </trkpt>
      <trkpt lat="44.21471" lon="7.14157">
        <ele>2182.8</ele>
        <time>2022-07-19T06:31:32Z</time>
      </trkpt>
      <trkpt lat="44.21469" lon="7.14159">
        <ele>2182.8</ele>
        <time>2022-07-19T06:31:33Z</time>
      </trkpt>
      <trkpt lat="44.21466" lon="7.1416">
        <ele>2183</ele>
        <time>2022-07-19T06:31:34Z</time>
      </trkpt>
      <trkpt lat="44.21464" lon="7.14162">
        <ele>2183.2</ele>
        <time>2022-07-19T06:31:35Z</time>
      </trkpt>
      <trkpt lat="44.21461" lon="7.14163">
        <ele>2183.2</ele>
        <time>2022-07-19T06:31:36Z</time>
      </trkpt>
      <trkpt lat="44.21459" lon="7.14165">
        <ele>2183.2</ele>
        <time>2022-07-19T06:31:37Z</time>
      </trkpt>
      <trkpt lat="44.21456" lon="7.14167">
        <ele>2183.6</ele>
        <time>2022-07-19T06:31:38Z</time>
      </trkpt>
      <trkpt lat="44.21454" lon="7.14169">
        <ele>2183.6</ele>
        <time>2022-07-19T06:31:39Z</time>
      </trkpt>
      <trkpt lat="44.21452" lon="7.14171">
        <ele>2184</ele>
        <time>2022-07-19T06:31:40Z</time>
      </trkpt>
      <trkpt lat="44.21449" lon="7.14173">
        <ele>2184</ele>
        <time>2022-07-19T06:31:41Z</time>
      </trkpt>
      <trkpt lat="44.21447" lon="7.14176">
        <ele>2184.2</ele>
        <time>2022-07-19T06:31:42Z</time>
      </trkpt>
      <trkpt lat="44.21445" lon="7.14178">
        <ele>2184.4</ele>
        <time>2022-07-19T06:31:43Z</time>
      </trkpt>
      <trkpt lat="44.21442" lon="7.14181">
        <ele>2184.4</ele>
        <time>2022-07-19T06:31:44Z</time>
      </trkpt>
      <trkpt lat="44.2144" lon="7.14183">
        <ele>2184.8</ele>
        <time>2022-07-19T06:31:45Z</time>
      </trkpt>
      <trkpt lat="44.21438" lon="7.14187">
        <ele>2184.8</ele>
        <time>2022-07-19T06:31:46Z</time>
      </trkpt>
      <trkpt lat="44.21437" lon="7.1419">
        <ele>2185.2</ele>
        <time>2022-07-19T06:31:47Z</time>
      </trkpt>
      <trkpt lat="44.21435" lon="7.14194">
        <ele>2185.2</ele>
        <time>2022-07-19T06:31:48Z</time>
      </trkpt>
      <trkpt lat="44.21434" lon="7.14197">
        <ele>2185.4</ele>
        <time>2022-07-19T06:31:49Z</time>
      </trkpt>
      <trkpt lat="44.21433" lon="7.142">
        <ele>2185.8</ele>
        <time>2022-07-19T06:31:51Z</time>
      </trkpt>
      <trkpt lat="44.21432" lon="7.14204">
        <ele>2185.8</ele>
        <time>2022-07-19T06:31:52Z</time>
      </trkpt>
      <trkpt lat="44.21431" lon="7.14207">
        <ele>2186</ele>
        <time>2022-07-19T06:31:53Z</time>
      </trkpt>
      <trkpt lat="44.21431" lon="7.14211">
        <ele>2186</ele>
        <time>2022-07-19T06:31:54Z</time>
      </trkpt>
      <trkpt lat="44.2143" lon="7.14215">
        <ele>2186.4</ele>
        <time>2022-07-19T06:31:55Z</time>
      </trkpt>
      <trkpt lat="44.21429" lon="7.14218">
        <ele>2186.6</ele>
        <time>2022-07-19T06:31:56Z</time>
      </trkpt>
      <trkpt lat="44.21429" lon="7.14222">
        <ele>2186.8</ele>
        <time>2022-07-19T06:31:57Z</time>
      </trkpt>
      <trkpt lat="44.21428" lon="7.14226">
        <ele>2186.8</ele>
        <time>2022-07-19T06:31:58Z</time>
      </trkpt>
      <trkpt lat="44.21427" lon="7.1423">
        <ele>2187.2</ele>
        <time>2022-07-19T06:31:59Z</time>
      </trkpt>
      <trkpt lat="44.21427" lon="7.14234">
        <ele>2187.2</ele>
        <time>2022-07-19T06:32:00Z</time>
      </trkpt>
      <trkpt lat="44.21426" lon="7.14237">
        <ele>2187.2</ele>
        <time>2022-07-19T06:32:01Z</time>
      </trkpt>
      <trkpt lat="44.21426" lon="7.14241">
        <ele>2187.6</ele>
        <time>2022-07-19T06:32:02Z</time>
      </trkpt>
      <trkpt lat="44.21425" lon="7.14244">
        <ele>2187.6</ele>
        <time>2022-07-19T06:32:03Z</time>
      </trkpt>
      <trkpt lat="44.21424" lon="7.14247">
        <ele>2188</ele>
        <time>2022-07-19T06:32:04Z</time>
      </trkpt>
      <trkpt lat="44.21424" lon="7.14251">
        <ele>2188</ele>
        <time>2022-07-19T06:32:05Z</time>
      </trkpt>
      <trkpt lat="44.21423" lon="7.14254">
        <ele>2188.4</ele>
        <time>2022-07-19T06:32:06Z</time>
      </trkpt>
      <trkpt lat="44.21423" lon="7.14258">
        <ele>2188.4</ele>
        <time>2022-07-19T06:32:07Z</time>
      </trkpt>
      <trkpt lat="44.21423" lon="7.14261">
        <ele>2188.6</ele>
        <time>2022-07-19T06:32:08Z</time>
      </trkpt>
      <trkpt lat="44.21422" lon="7.14264">
        <ele>2188.6</ele>
        <time>2022-07-19T06:32:09Z</time>
      </trkpt>
      <trkpt lat="44.21422" lon="7.14268">
        <ele>2189</ele>
        <time>2022-07-19T06:32:10Z</time>
      </trkpt>
      <trkpt lat="44.21422" lon="7.14271">
        <ele>2189</ele>
        <time>2022-07-19T06:32:11Z</time>
      </trkpt>
      <trkpt lat="44.21421" lon="7.14277">
        <ele>2189.4</ele>
        <time>2022-07-19T06:32:12Z</time>
      </trkpt>
      <trkpt lat="44.2142" lon="7.1428">
        <ele>2189.6</ele>
        <time>2022-07-19T06:32:13Z</time>
      </trkpt>
      <trkpt lat="44.2142" lon="7.14283">
        <ele>2189.8</ele>
        <time>2022-07-19T06:32:14Z</time>
      </trkpt>
      <trkpt lat="44.21418" lon="7.14286">
        <ele>2189.8</ele>
        <time>2022-07-19T06:32:15Z</time>
      </trkpt>
      <trkpt lat="44.21417" lon="7.14289">
        <ele>2190.2</ele>
        <time>2022-07-19T06:32:16Z</time>
      </trkpt>
      <trkpt lat="44.21416" lon="7.14291">
        <ele>2190.2</ele>
        <time>2022-07-19T06:32:17Z</time>
      </trkpt>
      <trkpt lat="44.21415" lon="7.14293">
        <ele>2190.4</ele>
        <time>2022-07-19T06:32:18Z</time>
      </trkpt>
      <trkpt lat="44.21413" lon="7.14295">
        <ele>2190.4</ele>
        <time>2022-07-19T06:32:19Z</time>
      </trkpt>
      <trkpt lat="44.21412" lon="7.14297">
        <ele>2190.6</ele>
        <time>2022-07-19T06:32:20Z</time>
      </trkpt>
      <trkpt lat="44.21411" lon="7.14299">
        <ele>2190.6</ele>
        <time>2022-07-19T06:32:21Z</time>
      </trkpt>
      <trkpt lat="44.21409" lon="7.14301">
        <ele>2191</ele>
        <time>2022-07-19T06:32:22Z</time>
      </trkpt>
      <trkpt lat="44.21408" lon="7.14302">
        <ele>2191</ele>
        <time>2022-07-19T06:32:23Z</time>
      </trkpt>
      <trkpt lat="44.21406" lon="7.14304">
        <ele>2191.4</ele>
        <time>2022-07-19T06:32:24Z</time>
      </trkpt>
      <trkpt lat="44.21405" lon="7.14306">
        <ele>2191.4</ele>
        <time>2022-07-19T06:32:25Z</time>
      </trkpt>
      <trkpt lat="44.21403" lon="7.14308">
        <ele>2191.6</ele>
        <time>2022-07-19T06:32:26Z</time>
      </trkpt>
      <trkpt lat="44.21402" lon="7.14309">
        <ele>2191.6</ele>
        <time>2022-07-19T06:32:27Z</time>
      </trkpt>
      <trkpt lat="44.214" lon="7.1431">
        <ele>2191.6</ele>
        <time>2022-07-19T06:32:28Z</time>
      </trkpt>
      <trkpt lat="44.21398" lon="7.14311">
        <ele>2191.8</ele>
        <time>2022-07-19T06:32:29Z</time>
      </trkpt>
      <trkpt lat="44.21396" lon="7.14312">
        <ele>2191.8</ele>
        <time>2022-07-19T06:32:30Z</time>
      </trkpt>
      <trkpt lat="44.21394" lon="7.14313">
        <ele>2191.8</ele>
        <time>2022-07-19T06:32:31Z</time>
      </trkpt>
      <trkpt lat="44.21392" lon="7.14314">
        <ele>2192</ele>
        <time>2022-07-19T06:32:32Z</time>
      </trkpt>
      <trkpt lat="44.2139" lon="7.14315">
        <ele>2192.4</ele>
        <time>2022-07-19T06:32:33Z</time>
      </trkpt>
      <trkpt lat="44.21388" lon="7.14316">
        <ele>2192.4</ele>
        <time>2022-07-19T06:32:34Z</time>
      </trkpt>
      <trkpt lat="44.21386" lon="7.14318">
        <ele>2192.8</ele>
        <time>2022-07-19T06:32:35Z</time>
      </trkpt>
      <trkpt lat="44.21384" lon="7.14319">
        <ele>2192.8</ele>
        <time>2022-07-19T06:32:36Z</time>
      </trkpt>
      <trkpt lat="44.21381" lon="7.14321">
        <ele>2192.8</ele>
        <time>2022-07-19T06:32:37Z</time>
      </trkpt>
      <trkpt lat="44.21379" lon="7.14322">
        <ele>2193</ele>
        <time>2022-07-19T06:32:38Z</time>
      </trkpt>
      <trkpt lat="44.21376" lon="7.14323">
        <ele>2193</ele>
        <time>2022-07-19T06:32:39Z</time>
      </trkpt>
      <trkpt lat="44.21374" lon="7.14324">
        <ele>2193.4</ele>
        <time>2022-07-19T06:32:40Z</time>
      </trkpt>
      <trkpt lat="44.21371" lon="7.14325">
        <ele>2193.4</ele>
        <time>2022-07-19T06:32:41Z</time>
      </trkpt>
      <trkpt lat="44.21368" lon="7.14324">
        <ele>2193.6</ele>
        <time>2022-07-19T06:32:42Z</time>
      </trkpt>
      <trkpt lat="44.21365" lon="7.14324">
        <ele>2193.6</ele>
        <time>2022-07-19T06:32:43Z</time>
      </trkpt>
      <trkpt lat="44.21363" lon="7.14323">
        <ele>2193.6</ele>
        <time>2022-07-19T06:32:44Z</time>
      </trkpt>
      <trkpt lat="44.2136" lon="7.14322">
        <ele>2194</ele>
        <time>2022-07-19T06:32:45Z</time>
      </trkpt>
      <trkpt lat="44.21357" lon="7.1432">
        <ele>2194</ele>
        <time>2022-07-19T06:32:46Z</time>
      </trkpt>
      <trkpt lat="44.21354" lon="7.14319">
        <ele>2194.2</ele>
        <time>2022-07-19T06:32:47Z</time>
      </trkpt>
      <trkpt lat="44.21351" lon="7.14317">
        <ele>2194.2</ele>
        <time>2022-07-19T06:32:48Z</time>
      </trkpt>
      <trkpt lat="44.21348" lon="7.14316">
        <ele>2194.2</ele>
        <time>2022-07-19T06:32:49Z</time>
      </trkpt>
      <trkpt lat="44.21345" lon="7.14315">
        <ele>2194.4</ele>
        <time>2022-07-19T06:32:50Z</time>
      </trkpt>
      <trkpt lat="44.21342" lon="7.14313">
        <ele>2194.4</ele>
        <time>2022-07-19T06:32:51Z</time>
      </trkpt>
      <trkpt lat="44.21339" lon="7.14311">
        <ele>2194.6</ele>
        <time>2022-07-19T06:32:52Z</time>
      </trkpt>
      <trkpt lat="44.21336" lon="7.1431">
        <ele>2194.8</ele>
        <time>2022-07-19T06:32:53Z</time>
      </trkpt>
      <trkpt lat="44.21334" lon="7.14309">
        <ele>2194.8</ele>
        <time>2022-07-19T06:32:54Z</time>
      </trkpt>
      <trkpt lat="44.2133" lon="7.14308">
        <ele>2194.8</ele>
        <time>2022-07-19T06:32:55Z</time>
      </trkpt>
      <trkpt lat="44.21327" lon="7.14308">
        <ele>2195.2</ele>
        <time>2022-07-19T06:32:56Z</time>
      </trkpt>
      <trkpt lat="44.21324" lon="7.14308">
        <ele>2195.2</ele>
        <time>2022-07-19T06:32:57Z</time>
      </trkpt>
      <trkpt lat="44.21321" lon="7.14308">
        <ele>2195.4</ele>
        <time>2022-07-19T06:32:58Z</time>
      </trkpt>
      <trkpt lat="44.21318" lon="7.14309">
        <ele>2195.4</ele>
        <time>2022-07-19T06:32:59Z</time>
      </trkpt>
      <trkpt lat="44.21315" lon="7.1431">
        <ele>2195.8</ele>
        <time>2022-07-19T06:33:00Z</time>
      </trkpt>
      <trkpt lat="44.21313" lon="7.14311">
        <ele>2195.8</ele>
        <time>2022-07-19T06:33:01Z</time>
      </trkpt>
      <trkpt lat="44.21311" lon="7.14312">
        <ele>2196</ele>
        <time>2022-07-19T06:33:02Z</time>
      </trkpt>
      <trkpt lat="44.21308" lon="7.14314">
        <ele>2196</ele>
        <time>2022-07-19T06:33:03Z</time>
      </trkpt>
      <trkpt lat="44.21305" lon="7.14315">
        <ele>2196</ele>
        <time>2022-07-19T06:33:04Z</time>
      </trkpt>
      <trkpt lat="44.21303" lon="7.14316">
        <ele>2196.4</ele>
        <time>2022-07-19T06:33:05Z</time>
      </trkpt>
      <trkpt lat="44.213" lon="7.14317">
        <ele>2196.4</ele>
        <time>2022-07-19T06:33:06Z</time>
      </trkpt>
      <trkpt lat="44.21297" lon="7.14318">
        <ele>2196.6</ele>
        <time>2022-07-19T06:33:07Z</time>
      </trkpt>
      <trkpt lat="44.21295" lon="7.14319">
        <ele>2196.8</ele>
        <time>2022-07-19T06:33:08Z</time>
      </trkpt>
      <trkpt lat="44.21292" lon="7.1432">
        <ele>2196.8</ele>
        <time>2022-07-19T06:33:09Z</time>
      </trkpt>
      <trkpt lat="44.2129" lon="7.14321">
        <ele>2197.2</ele>
        <time>2022-07-19T06:33:10Z</time>
      </trkpt>
      <trkpt lat="44.21287" lon="7.14322">
        <ele>2197.2</ele>
        <time>2022-07-19T06:33:11Z</time>
      </trkpt>
      <trkpt lat="44.21285" lon="7.14322">
        <ele>2197.6</ele>
        <time>2022-07-19T06:33:12Z</time>
      </trkpt>
      <trkpt lat="44.21283" lon="7.14323">
        <ele>2197.8</ele>
        <time>2022-07-19T06:33:13Z</time>
      </trkpt>
      <trkpt lat="44.21281" lon="7.14325">
        <ele>2198</ele>
        <time>2022-07-19T06:33:14Z</time>
      </trkpt>
      <trkpt lat="44.21278" lon="7.14326">
        <ele>2198</ele>
        <time>2022-07-19T06:33:15Z</time>
      </trkpt>
      <trkpt lat="44.21276" lon="7.14327">
        <ele>2198.4</ele>
        <time>2022-07-19T06:33:16Z</time>
      </trkpt>
      <trkpt lat="44.21274" lon="7.14329">
        <ele>2198.4</ele>
        <time>2022-07-19T06:33:17Z</time>
      </trkpt>
      <trkpt lat="44.21272" lon="7.14331">
        <ele>2198.6</ele>
        <time>2022-07-19T06:33:18Z</time>
      </trkpt>
      <trkpt lat="44.2127" lon="7.14333">
        <ele>2198.6</ele>
        <time>2022-07-19T06:33:19Z</time>
      </trkpt>
      <trkpt lat="44.21268" lon="7.14335">
        <ele>2198.6</ele>
        <time>2022-07-19T06:33:20Z</time>
      </trkpt>
      <trkpt lat="44.21266" lon="7.14338">
        <ele>2198.8</ele>
        <time>2022-07-19T06:33:21Z</time>
      </trkpt>
      <trkpt lat="44.21265" lon="7.14342">
        <ele>2198.8</ele>
        <time>2022-07-19T06:33:22Z</time>
      </trkpt>
      <trkpt lat="44.21263" lon="7.14345">
        <ele>2198.8</ele>
        <time>2022-07-19T06:33:23Z</time>
      </trkpt>
      <trkpt lat="44.21262" lon="7.14349">
        <ele>2198.8</ele>
        <time>2022-07-19T06:33:24Z</time>
      </trkpt>
      <trkpt lat="44.21261" lon="7.14352">
        <ele>2199</ele>
        <time>2022-07-19T06:33:25Z</time>
      </trkpt>
      <trkpt lat="44.21261" lon="7.14356">
        <ele>2199</ele>
        <time>2022-07-19T06:33:26Z</time>
      </trkpt>
      <trkpt lat="44.2126" lon="7.1436">
        <ele>2199</ele>
        <time>2022-07-19T06:33:27Z</time>
      </trkpt>
      <trkpt lat="44.2126" lon="7.14364">
        <ele>2199</ele>
        <time>2022-07-19T06:33:28Z</time>
      </trkpt>
      <trkpt lat="44.2126" lon="7.14368">
        <ele>2199</ele>
        <time>2022-07-19T06:33:29Z</time>
      </trkpt>
      <trkpt lat="44.21259" lon="7.14372">
        <ele>2199</ele>
        <time>2022-07-19T06:33:30Z</time>
      </trkpt>
      <trkpt lat="44.21259" lon="7.14376">
        <ele>2199</ele>
        <time>2022-07-19T06:33:31Z</time>
      </trkpt>
      <trkpt lat="44.21258" lon="7.1438">
        <ele>2199</ele>
        <time>2022-07-19T06:33:32Z</time>
      </trkpt>
      <trkpt lat="44.21258" lon="7.14385">
        <ele>2199</ele>
        <time>2022-07-19T06:33:33Z</time>
      </trkpt>
      <trkpt lat="44.21257" lon="7.1439">
        <ele>2199</ele>
        <time>2022-07-19T06:33:34Z</time>
      </trkpt>
      <trkpt lat="44.21257" lon="7.14395">
        <ele>2199</ele>
        <time>2022-07-19T06:33:35Z</time>
      </trkpt>
      <trkpt lat="44.21257" lon="7.144">
        <ele>2199</ele>
        <time>2022-07-19T06:33:36Z</time>
      </trkpt>
      <trkpt lat="44.21257" lon="7.14405">
        <ele>2199</ele>
        <time>2022-07-19T06:33:37Z</time>
      </trkpt>
      <trkpt lat="44.21256" lon="7.14411">
        <ele>2199.2</ele>
        <time>2022-07-19T06:33:38Z</time>
      </trkpt>
      <trkpt lat="44.21256" lon="7.14417">
        <ele>2199.2</ele>
        <time>2022-07-19T06:33:39Z</time>
      </trkpt>
      <trkpt lat="44.21255" lon="7.14422">
        <ele>2199.2</ele>
        <time>2022-07-19T06:33:40Z</time>
      </trkpt>
      <trkpt lat="44.21255" lon="7.14428">
        <ele>2199.2</ele>
        <time>2022-07-19T06:33:41Z</time>
      </trkpt>
      <trkpt lat="44.21256" lon="7.14433">
        <ele>2199.2</ele>
        <time>2022-07-19T06:33:42Z</time>
      </trkpt>
      <trkpt lat="44.21256" lon="7.14439">
        <ele>2199.2</ele>
        <time>2022-07-19T06:33:43Z</time>
      </trkpt>
      <trkpt lat="44.21257" lon="7.14445">
        <ele>2199.4</ele>
        <time>2022-07-19T06:33:44Z</time>
      </trkpt>
      <trkpt lat="44.21258" lon="7.1445">
        <ele>2199.4</ele>
        <time>2022-07-19T06:33:45Z</time>
      </trkpt>
      <trkpt lat="44.21259" lon="7.14456">
        <ele>2199.4</ele>
        <time>2022-07-19T06:33:46Z</time>
      </trkpt>
      <trkpt lat="44.2126" lon="7.14461">
        <ele>2199.4</ele>
        <time>2022-07-19T06:33:47Z</time>
      </trkpt>
      <trkpt lat="44.21261" lon="7.14467">
        <ele>2199.4</ele>
        <time>2022-07-19T06:33:48Z</time>
      </trkpt>
      <trkpt lat="44.21262" lon="7.14473">
        <ele>2199.4</ele>
        <time>2022-07-19T06:33:49Z</time>
      </trkpt>
      <trkpt lat="44.21261" lon="7.14479">
        <ele>2199.4</ele>
        <time>2022-07-19T06:33:50Z</time>
      </trkpt>
      <trkpt lat="44.21259" lon="7.14485">
        <ele>2199.4</ele>
        <time>2022-07-19T06:33:51Z</time>
      </trkpt>
      <trkpt lat="44.21257" lon="7.14491">
        <ele>2199.4</ele>
        <time>2022-07-19T06:33:52Z</time>
      </trkpt>
      <trkpt lat="44.21254" lon="7.14496">
        <ele>2199.4</ele>
        <time>2022-07-19T06:33:53Z</time>
      </trkpt>
      <trkpt lat="44.21251" lon="7.145">
        <ele>2199.4</ele>
        <time>2022-07-19T06:33:54Z</time>
      </trkpt>
      <trkpt lat="44.21247" lon="7.14505">
        <ele>2199.4</ele>
        <time>2022-07-19T06:33:55Z</time>
      </trkpt>
      <trkpt lat="44.21244" lon="7.14509">
        <ele>2199.4</ele>
        <time>2022-07-19T06:33:56Z</time>
      </trkpt>
      <trkpt lat="44.21241" lon="7.14514">
        <ele>2199.2</ele>
        <time>2022-07-19T06:33:57Z</time>
      </trkpt>
      <trkpt lat="44.21238" lon="7.14518">
        <ele>2199.2</ele>
        <time>2022-07-19T06:33:58Z</time>
      </trkpt>
      <trkpt lat="44.21235" lon="7.14522">
        <ele>2199.4</ele>
        <time>2022-07-19T06:33:59Z</time>
      </trkpt>
      <trkpt lat="44.21232" lon="7.14527">
        <ele>2199.4</ele>
        <time>2022-07-19T06:34:00Z</time>
      </trkpt>
      <trkpt lat="44.21228" lon="7.14531">
        <ele>2199.4</ele>
        <time>2022-07-19T06:34:01Z</time>
      </trkpt>
      <trkpt lat="44.21225" lon="7.14536">
        <ele>2199.4</ele>
        <time>2022-07-19T06:34:02Z</time>
      </trkpt>
      <trkpt lat="44.21222" lon="7.1454">
        <ele>2199.4</ele>
        <time>2022-07-19T06:34:03Z</time>
      </trkpt>
      <trkpt lat="44.21218" lon="7.14544">
        <ele>2199.4</ele>
        <time>2022-07-19T06:34:04Z</time>
      </trkpt>
      <trkpt lat="44.21214" lon="7.14548">
        <ele>2199.4</ele>
        <time>2022-07-19T06:34:05Z</time>
      </trkpt>
      <trkpt lat="44.2121" lon="7.14552">
        <ele>2199.4</ele>
        <time>2022-07-19T06:34:06Z</time>
      </trkpt>
      <trkpt lat="44.21206" lon="7.14556">
        <ele>2199.4</ele>
        <time>2022-07-19T06:34:07Z</time>
      </trkpt>
      <trkpt lat="44.21202" lon="7.14558">
        <ele>2199.6</ele>
        <time>2022-07-19T06:34:08Z</time>
      </trkpt>
      <trkpt lat="44.21197" lon="7.14559">
        <ele>2199.6</ele>
        <time>2022-07-19T06:34:09Z</time>
      </trkpt>
      <trkpt lat="44.21192" lon="7.14561">
        <ele>2199.6</ele>
        <time>2022-07-19T06:34:10Z</time>
      </trkpt>
      <trkpt lat="44.21188" lon="7.14562">
        <ele>2199.6</ele>
        <time>2022-07-19T06:34:11Z</time>
      </trkpt>
      <trkpt lat="44.21183" lon="7.14563">
        <ele>2199.6</ele>
        <time>2022-07-19T06:34:12Z</time>
      </trkpt>
      <trkpt lat="44.21179" lon="7.14564">
        <ele>2199.6</ele>
        <time>2022-07-19T06:34:13Z</time>
      </trkpt>
      <trkpt lat="44.21174" lon="7.14566">
        <ele>2199.6</ele>
        <time>2022-07-19T06:34:14Z</time>
      </trkpt>
      <trkpt lat="44.2117" lon="7.14568">
        <ele>2199.6</ele>
        <time>2022-07-19T06:34:15Z</time>
      </trkpt>
      <trkpt lat="44.21165" lon="7.1457">
        <ele>2199.6</ele>
        <time>2022-07-19T06:34:16Z</time>
      </trkpt>
      <trkpt lat="44.2116" lon="7.14571">
        <ele>2199.6</ele>
        <time>2022-07-19T06:34:17Z</time>
      </trkpt>
      <trkpt lat="44.21154" lon="7.14572">
        <ele>2199.8</ele>
        <time>2022-07-19T06:34:18Z</time>
      </trkpt>
      <trkpt lat="44.2115" lon="7.1457">
        <ele>2199.8</ele>
        <time>2022-07-19T06:34:19Z</time>
      </trkpt>
      <trkpt lat="44.21145" lon="7.14567">
        <ele>2199.8</ele>
        <time>2022-07-19T06:34:20Z</time>
      </trkpt>
      <trkpt lat="44.21141" lon="7.14563">
        <ele>2199.8</ele>
        <time>2022-07-19T06:34:21Z</time>
      </trkpt>
      <trkpt lat="44.21138" lon="7.14558">
        <ele>2200.2</ele>
        <time>2022-07-19T06:34:22Z</time>
      </trkpt>
      <trkpt lat="44.21134" lon="7.14552">
        <ele>2200.2</ele>
        <time>2022-07-19T06:34:23Z</time>
      </trkpt>
      <trkpt lat="44.21131" lon="7.14547">
        <ele>2200.2</ele>
        <time>2022-07-19T06:34:24Z</time>
      </trkpt>
      <trkpt lat="44.21128" lon="7.14541">
        <ele>2200.2</ele>
        <time>2022-07-19T06:34:25Z</time>
      </trkpt>
      <trkpt lat="44.21125" lon="7.14535">
        <ele>2200.2</ele>
        <time>2022-07-19T06:34:26Z</time>
      </trkpt>
      <trkpt lat="44.21122" lon="7.14529">
        <ele>2200.2</ele>
        <time>2022-07-19T06:34:27Z</time>
      </trkpt>
      <trkpt lat="44.21118" lon="7.14524">
        <ele>2200.2</ele>
        <time>2022-07-19T06:34:28Z</time>
      </trkpt>
      <trkpt lat="44.21114" lon="7.14519">
        <ele>2200.2</ele>
        <time>2022-07-19T06:34:29Z</time>
      </trkpt>
      <trkpt lat="44.2111" lon="7.14515">
        <ele>2200.4</ele>
        <time>2022-07-19T06:34:30Z</time>
      </trkpt>
      <trkpt lat="44.21105" lon="7.14512">
        <ele>2200.4</ele>
        <time>2022-07-19T06:34:31Z</time>
      </trkpt>
      <trkpt lat="44.211" lon="7.1451">
        <ele>2200.4</ele>
        <time>2022-07-19T06:34:32Z</time>
      </trkpt>
      <trkpt lat="44.21095" lon="7.14509">
        <ele>2200.2</ele>
        <time>2022-07-19T06:34:33Z</time>
      </trkpt>
      <trkpt lat="44.21089" lon="7.14509">
        <ele>2200.2</ele>
        <time>2022-07-19T06:34:34Z</time>
      </trkpt>
      <trkpt lat="44.21084" lon="7.14509">
        <ele>2200.2</ele>
        <time>2022-07-19T06:34:35Z</time>
      </trkpt>
      <trkpt lat="44.21079" lon="7.1451">
        <ele>2200.2</ele>
        <time>2022-07-19T06:34:36Z</time>
      </trkpt>
      <trkpt lat="44.21074" lon="7.14512">
        <ele>2200.2</ele>
        <time>2022-07-19T06:34:37Z</time>
      </trkpt>
      <trkpt lat="44.2107" lon="7.14513">
        <ele>2200.2</ele>
        <time>2022-07-19T06:34:38Z</time>
      </trkpt>
      <trkpt lat="44.21065" lon="7.14515">
        <ele>2200.2</ele>
        <time>2022-07-19T06:34:39Z</time>
      </trkpt>
      <trkpt lat="44.21061" lon="7.14517">
        <ele>2200.2</ele>
        <time>2022-07-19T06:34:40Z</time>
      </trkpt>
      <trkpt lat="44.21056" lon="7.14519">
        <ele>2200.2</ele>
        <time>2022-07-19T06:34:41Z</time>
      </trkpt>
      <trkpt lat="44.21051" lon="7.1452">
        <ele>2200.2</ele>
        <time>2022-07-19T06:34:42Z</time>
      </trkpt>
      <trkpt lat="44.21047" lon="7.14522">
        <ele>2200.2</ele>
        <time>2022-07-19T06:34:43Z</time>
      </trkpt>
      <trkpt lat="44.21042" lon="7.14523">
        <ele>2200.2</ele>
        <time>2022-07-19T06:34:44Z</time>
      </trkpt>
      <trkpt lat="44.21037" lon="7.14525">
        <ele>2200.4</ele>
        <time>2022-07-19T06:34:45Z</time>
      </trkpt>
      <trkpt lat="44.21032" lon="7.14526">
        <ele>2200.4</ele>
        <time>2022-07-19T06:34:46Z</time>
      </trkpt>
      <trkpt lat="44.21028" lon="7.14528">
        <ele>2200.4</ele>
        <time>2022-07-19T06:34:47Z</time>
      </trkpt>
      <trkpt lat="44.21024" lon="7.1453">
        <ele>2200.6</ele>
        <time>2022-07-19T06:34:48Z</time>
      </trkpt>
      <trkpt lat="44.2102" lon="7.14533">
        <ele>2200.6</ele>
        <time>2022-07-19T06:34:49Z</time>
      </trkpt>
      <trkpt lat="44.21017" lon="7.14536">
        <ele>2200.6</ele>
        <time>2022-07-19T06:34:50Z</time>
      </trkpt>
      <trkpt lat="44.21013" lon="7.14538">
        <ele>2201</ele>
        <time>2022-07-19T06:34:51Z</time>
      </trkpt>
      <trkpt lat="44.2101" lon="7.14541">
        <ele>2201</ele>
        <time>2022-07-19T06:34:52Z</time>
      </trkpt>
      <trkpt lat="44.21007" lon="7.14545">
        <ele>2201.4</ele>
        <time>2022-07-19T06:34:53Z</time>
      </trkpt>
      <trkpt lat="44.21005" lon="7.14548">
        <ele>2201.4</ele>
        <time>2022-07-19T06:34:54Z</time>
      </trkpt>
      <trkpt lat="44.21003" lon="7.14552">
        <ele>2201.6</ele>
        <time>2022-07-19T06:34:55Z</time>
      </trkpt>
      <trkpt lat="44.21001" lon="7.14555">
        <ele>2201.6</ele>
        <time>2022-07-19T06:34:56Z</time>
      </trkpt>
      <trkpt lat="44.21" lon="7.14559">
        <ele>2202</ele>
        <time>2022-07-19T06:34:57Z</time>
      </trkpt>
      <trkpt lat="44.20999" lon="7.14562">
        <ele>2202.2</ele>
        <time>2022-07-19T06:34:58Z</time>
      </trkpt>
      <trkpt lat="44.20998" lon="7.14566">
        <ele>2202.2</ele>
        <time>2022-07-19T06:34:59Z</time>
      </trkpt>
      <trkpt lat="44.20997" lon="7.14569">
        <ele>2202.4</ele>
        <time>2022-07-19T06:35:00Z</time>
      </trkpt>
      <trkpt lat="44.20996" lon="7.14572">
        <ele>2202.4</ele>
        <time>2022-07-19T06:35:01Z</time>
      </trkpt>
      <trkpt lat="44.20996" lon="7.14575">
        <ele>2202.8</ele>
        <time>2022-07-19T06:35:02Z</time>
      </trkpt>
      <trkpt lat="44.20995" lon="7.14577">
        <ele>2202.8</ele>
        <time>2022-07-19T06:35:03Z</time>
      </trkpt>
      <trkpt lat="44.20994" lon="7.1458">
        <ele>2203.2</ele>
        <time>2022-07-19T06:35:04Z</time>
      </trkpt>
      <trkpt lat="44.20994" lon="7.14583">
        <ele>2203.2</ele>
        <time>2022-07-19T06:35:05Z</time>
      </trkpt>
      <trkpt lat="44.20993" lon="7.14586">
        <ele>2203.6</ele>
        <time>2022-07-19T06:35:06Z</time>
      </trkpt>
      <trkpt lat="44.20992" lon="7.14589">
        <ele>2203.8</ele>
        <time>2022-07-19T06:35:07Z</time>
      </trkpt>
      <trkpt lat="44.20991" lon="7.14592">
        <ele>2203.8</ele>
        <time>2022-07-19T06:35:08Z</time>
      </trkpt>
      <trkpt lat="44.2099" lon="7.14595">
        <ele>2204.2</ele>
        <time>2022-07-19T06:35:09Z</time>
      </trkpt>
      <trkpt lat="44.20989" lon="7.14598">
        <ele>2204.4</ele>
        <time>2022-07-19T06:35:10Z</time>
      </trkpt>
      <trkpt lat="44.20988" lon="7.14601">
        <ele>2204.4</ele>
        <time>2022-07-19T06:35:11Z</time>
      </trkpt>
      <trkpt lat="44.20987" lon="7.14604">
        <ele>2204.8</ele>
        <time>2022-07-19T06:35:12Z</time>
      </trkpt>
      <trkpt lat="44.20986" lon="7.14607">
        <ele>2204.8</ele>
        <time>2022-07-19T06:35:13Z</time>
      </trkpt>
      <trkpt lat="44.20985" lon="7.1461">
        <ele>2205.2</ele>
        <time>2022-07-19T06:35:14Z</time>
      </trkpt>
      <trkpt lat="44.20984" lon="7.14612">
        <ele>2205.2</ele>
        <time>2022-07-19T06:35:15Z</time>
      </trkpt>
      <trkpt lat="44.20983" lon="7.14615">
        <ele>2205.6</ele>
        <time>2022-07-19T06:35:16Z</time>
      </trkpt>
      <trkpt lat="44.20981" lon="7.14618">
        <ele>2206</ele>
        <time>2022-07-19T06:35:17Z</time>
      </trkpt>
      <trkpt lat="44.2098" lon="7.1462">
        <ele>2206.2</ele>
        <time>2022-07-19T06:35:18Z</time>
      </trkpt>
      <trkpt lat="44.20979" lon="7.14623">
        <ele>2206.4</ele>
        <time>2022-07-19T06:35:19Z</time>
      </trkpt>
      <trkpt lat="44.20977" lon="7.14625">
        <ele>2206.6</ele>
        <time>2022-07-19T06:35:20Z</time>
      </trkpt>
      <trkpt lat="44.20976" lon="7.14627">
        <ele>2207</ele>
        <time>2022-07-19T06:35:21Z</time>
      </trkpt>
      <trkpt lat="44.20974" lon="7.14629">
        <ele>2207</ele>
        <time>2022-07-19T06:35:22Z</time>
      </trkpt>
      <trkpt lat="44.20973" lon="7.14632">
        <ele>2207.2</ele>
        <time>2022-07-19T06:35:23Z</time>
      </trkpt>
      <trkpt lat="44.20971" lon="7.14634">
        <ele>2207.4</ele>
        <time>2022-07-19T06:35:24Z</time>
      </trkpt>
      <trkpt lat="44.20969" lon="7.14636">
        <ele>2207.6</ele>
        <time>2022-07-19T06:35:25Z</time>
      </trkpt>
      <trkpt lat="44.20968" lon="7.14639">
        <ele>2207.6</ele>
        <time>2022-07-19T06:35:26Z</time>
      </trkpt>
      <trkpt lat="44.20966" lon="7.14641">
        <ele>2208</ele>
        <time>2022-07-19T06:35:27Z</time>
      </trkpt>
      <trkpt lat="44.20965" lon="7.14643">
        <ele>2208.2</ele>
        <time>2022-07-19T06:35:28Z</time>
      </trkpt>
      <trkpt lat="44.20963" lon="7.14645">
        <ele>2208.4</ele>
        <time>2022-07-19T06:35:29Z</time>
      </trkpt>
      <trkpt lat="44.20961" lon="7.14647">
        <ele>2208.8</ele>
        <time>2022-07-19T06:35:30Z</time>
      </trkpt>
      <trkpt lat="44.2096" lon="7.14648">
        <ele>2209</ele>
        <time>2022-07-19T06:35:31Z</time>
      </trkpt>
      <trkpt lat="44.20958" lon="7.1465">
        <ele>2209.2</ele>
        <time>2022-07-19T06:35:32Z</time>
      </trkpt>
      <trkpt lat="44.20956" lon="7.14651">
        <ele>2209.6</ele>
        <time>2022-07-19T06:35:33Z</time>
      </trkpt>
      <trkpt lat="44.20954" lon="7.14653">
        <ele>2209.8</ele>
        <time>2022-07-19T06:35:34Z</time>
      </trkpt>
      <trkpt lat="44.20952" lon="7.14654">
        <ele>2210</ele>
        <time>2022-07-19T06:35:35Z</time>
      </trkpt>
      <trkpt lat="44.20951" lon="7.14656">
        <ele>2210</ele>
        <time>2022-07-19T06:35:36Z</time>
      </trkpt>
      <trkpt lat="44.20949" lon="7.14657">
        <ele>2210.4</ele>
        <time>2022-07-19T06:35:37Z</time>
      </trkpt>
      <trkpt lat="44.20947" lon="7.14659">
        <ele>2210.6</ele>
        <time>2022-07-19T06:35:38Z</time>
      </trkpt>
      <trkpt lat="44.20945" lon="7.1466">
        <ele>2210.8</ele>
        <time>2022-07-19T06:35:39Z</time>
      </trkpt>
      <trkpt lat="44.20943" lon="7.14661">
        <ele>2210.8</ele>
        <time>2022-07-19T06:35:40Z</time>
      </trkpt>
      <trkpt lat="44.20942" lon="7.14663">
        <ele>2211.2</ele>
        <time>2022-07-19T06:35:41Z</time>
      </trkpt>
      <trkpt lat="44.20941" lon="7.14664">
        <ele>2211.2</ele>
        <time>2022-07-19T06:35:42Z</time>
      </trkpt>
      <trkpt lat="44.20939" lon="7.14665">
        <ele>2211.6</ele>
        <time>2022-07-19T06:35:43Z</time>
      </trkpt>
      <trkpt lat="44.20937" lon="7.14665">
        <ele>2211.6</ele>
        <time>2022-07-19T06:35:44Z</time>
      </trkpt>
      <trkpt lat="44.20936" lon="7.14665">
        <ele>2212</ele>
        <time>2022-07-19T06:35:45Z</time>
      </trkpt>
      <trkpt lat="44.20934" lon="7.14665">
        <ele>2212.2</ele>
        <time>2022-07-19T06:35:46Z</time>
      </trkpt>
      <trkpt lat="44.20932" lon="7.14665">
        <ele>2212.2</ele>
        <time>2022-07-19T06:35:47Z</time>
      </trkpt>
      <trkpt lat="44.20929" lon="7.14665">
        <ele>2212.6</ele>
        <time>2022-07-19T06:35:48Z</time>
      </trkpt>
      <trkpt lat="44.20927" lon="7.14664">
        <ele>2212.6</ele>
        <time>2022-07-19T06:35:49Z</time>
      </trkpt>
      <trkpt lat="44.20925" lon="7.14663">
        <ele>2212.8</ele>
        <time>2022-07-19T06:35:50Z</time>
      </trkpt>
      <trkpt lat="44.20923" lon="7.14662">
        <ele>2212.8</ele>
        <time>2022-07-19T06:35:51Z</time>
      </trkpt>
      <trkpt lat="44.20921" lon="7.14659">
        <ele>2213</ele>
        <time>2022-07-19T06:35:52Z</time>
      </trkpt>
      <trkpt lat="44.20921" lon="7.14657">
        <ele>2213</ele>
        <time>2022-07-19T06:35:53Z</time>
      </trkpt>
      <trkpt lat="44.2092" lon="7.14653">
        <ele>2213.2</ele>
        <time>2022-07-19T06:35:54Z</time>
      </trkpt>
      <trkpt lat="44.2092" lon="7.1465">
        <ele>2213.2</ele>
        <time>2022-07-19T06:35:55Z</time>
      </trkpt>
      <trkpt lat="44.20919" lon="7.14647">
        <ele>2213.4</ele>
        <time>2022-07-19T06:35:56Z</time>
      </trkpt>
      <trkpt lat="44.20918" lon="7.14644">
        <ele>2213.6</ele>
        <time>2022-07-19T06:35:57Z</time>
      </trkpt>
      <trkpt lat="44.20917" lon="7.14641">
        <ele>2213.6</ele>
        <time>2022-07-19T06:35:58Z</time>
      </trkpt>
      <trkpt lat="44.20917" lon="7.14638">
        <ele>2214</ele>
        <time>2022-07-19T06:35:59Z</time>
      </trkpt>
      <trkpt lat="44.20917" lon="7.14635">
        <ele>2214</ele>
        <time>2022-07-19T06:36:00Z</time>
      </trkpt>
      <trkpt lat="44.20917" lon="7.14631">
        <ele>2214.4</ele>
        <time>2022-07-19T06:36:01Z</time>
      </trkpt>
      <trkpt lat="44.20916" lon="7.14628">
        <ele>2214.6</ele>
        <time>2022-07-19T06:36:04Z</time>
      </trkpt>
      <trkpt lat="44.20916" lon="7.14625">
        <ele>2214.6</ele>
        <time>2022-07-19T06:36:05Z</time>
      </trkpt>
      <trkpt lat="44.20915" lon="7.14622">
        <ele>2215</ele>
        <time>2022-07-19T06:36:06Z</time>
      </trkpt>
      <trkpt lat="44.20915" lon="7.14619">
        <ele>2215</ele>
        <time>2022-07-19T06:36:07Z</time>
      </trkpt>
      <trkpt lat="44.20915" lon="7.14616">
        <ele>2215.2</ele>
        <time>2022-07-19T06:36:08Z</time>
      </trkpt>
      <trkpt lat="44.20914" lon="7.14613">
        <ele>2215.2</ele>
        <time>2022-07-19T06:36:09Z</time>
      </trkpt>
      <trkpt lat="44.20914" lon="7.1461">
        <ele>2215.4</ele>
        <time>2022-07-19T06:36:10Z</time>
      </trkpt>
      <trkpt lat="44.20914" lon="7.14608">
        <ele>2215.4</ele>
        <time>2022-07-19T06:36:11Z</time>
      </trkpt>
      <trkpt lat="44.20913" lon="7.14605">
        <ele>2215.6</ele>
        <time>2022-07-19T06:36:12Z</time>
      </trkpt>
      <trkpt lat="44.20912" lon="7.14603">
        <ele>2215.6</ele>
        <time>2022-07-19T06:36:13Z</time>
      </trkpt>
      <trkpt lat="44.20911" lon="7.146">
        <ele>2215.6</ele>
        <time>2022-07-19T06:36:14Z</time>
      </trkpt>
      <trkpt lat="44.2091" lon="7.14598">
        <ele>2216</ele>
        <time>2022-07-19T06:36:15Z</time>
      </trkpt>
      <trkpt lat="44.20909" lon="7.14595">
        <ele>2216</ele>
        <time>2022-07-19T06:36:16Z</time>
      </trkpt>
      <trkpt lat="44.20906" lon="7.14592">
        <ele>2216.2</ele>
        <time>2022-07-19T06:36:17Z</time>
      </trkpt>
      <trkpt lat="44.20905" lon="7.14591">
        <ele>2216.2</ele>
        <time>2022-07-19T06:36:18Z</time>
      </trkpt>
      <trkpt lat="44.20903" lon="7.14589">
        <ele>2216.6</ele>
        <time>2022-07-19T06:36:19Z</time>
      </trkpt>
      <trkpt lat="44.20901" lon="7.14588">
        <ele>2216.6</ele>
        <time>2022-07-19T06:36:20Z</time>
      </trkpt>
      <trkpt lat="44.20899" lon="7.14588">
        <ele>2217</ele>
        <time>2022-07-19T06:36:21Z</time>
      </trkpt>
      <trkpt lat="44.20898" lon="7.14588">
        <ele>2217</ele>
        <time>2022-07-19T06:36:22Z</time>
      </trkpt>
      <trkpt lat="44.20896" lon="7.14589">
        <ele>2217</ele>
        <time>2022-07-19T06:36:23Z</time>
      </trkpt>
      <trkpt lat="44.20894" lon="7.14589">
        <ele>2217.2</ele>
        <time>2022-07-19T06:36:24Z</time>
      </trkpt>
      <trkpt lat="44.20892" lon="7.1459">
        <ele>2217.2</ele>
        <time>2022-07-19T06:36:25Z</time>
      </trkpt>
      <trkpt lat="44.20891" lon="7.14591">
        <ele>2217.6</ele>
        <time>2022-07-19T06:36:26Z</time>
      </trkpt>
      <trkpt lat="44.20889" lon="7.14593">
        <ele>2217.6</ele>
        <time>2022-07-19T06:36:27Z</time>
      </trkpt>
      <trkpt lat="44.20888" lon="7.14595">
        <ele>2217.8</ele>
        <time>2022-07-19T06:36:28Z</time>
      </trkpt>
      <trkpt lat="44.20887" lon="7.14597">
        <ele>2217.8</ele>
        <time>2022-07-19T06:36:29Z</time>
      </trkpt>
      <trkpt lat="44.20885" lon="7.14598">
        <ele>2218.2</ele>
        <time>2022-07-19T06:36:30Z</time>
      </trkpt>
      <trkpt lat="44.20883" lon="7.14598">
        <ele>2218.4</ele>
        <time>2022-07-19T06:36:31Z</time>
      </trkpt>
      <trkpt lat="44.20881" lon="7.14598">
        <ele>2218.4</ele>
        <time>2022-07-19T06:36:32Z</time>
      </trkpt>
      <trkpt lat="44.2088" lon="7.14599">
        <ele>2218.8</ele>
        <time>2022-07-19T06:36:33Z</time>
      </trkpt>
      <trkpt lat="44.20878" lon="7.14599">
        <ele>2218.8</ele>
        <time>2022-07-19T06:36:34Z</time>
      </trkpt>
      <trkpt lat="44.20876" lon="7.146">
        <ele>2219.2</ele>
        <time>2022-07-19T06:36:35Z</time>
      </trkpt>
      <trkpt lat="44.20875" lon="7.14601">
        <ele>2219.4</ele>
        <time>2022-07-19T06:36:36Z</time>
      </trkpt>
      <trkpt lat="44.20873" lon="7.14602">
        <ele>2219.4</ele>
        <time>2022-07-19T06:36:37Z</time>
      </trkpt>
      <trkpt lat="44.20871" lon="7.14604">
        <ele>2219.8</ele>
        <time>2022-07-19T06:36:38Z</time>
      </trkpt>
      <trkpt lat="44.2087" lon="7.14605">
        <ele>2219.8</ele>
        <time>2022-07-19T06:36:39Z</time>
      </trkpt>
      <trkpt lat="44.20868" lon="7.14606">
        <ele>2220.2</ele>
        <time>2022-07-19T06:36:40Z</time>
      </trkpt>
      <trkpt lat="44.20866" lon="7.14608">
        <ele>2220.4</ele>
        <time>2022-07-19T06:36:41Z</time>
      </trkpt>
      <trkpt lat="44.20864" lon="7.14609">
        <ele>2220.6</ele>
        <time>2022-07-19T06:36:42Z</time>
      </trkpt>
      <trkpt lat="44.20862" lon="7.1461">
        <ele>2220.6</ele>
        <time>2022-07-19T06:36:43Z</time>
      </trkpt>
      <trkpt lat="44.20861" lon="7.14612">
        <ele>2221</ele>
        <time>2022-07-19T06:36:44Z</time>
      </trkpt>
      <trkpt lat="44.20859" lon="7.14613">
        <ele>2221</ele>
        <time>2022-07-19T06:36:45Z</time>
      </trkpt>
      <trkpt lat="44.20858" lon="7.14614">
        <ele>2221.4</ele>
        <time>2022-07-19T06:36:46Z</time>
      </trkpt>
      <trkpt lat="44.20856" lon="7.14616">
        <ele>2221.4</ele>
        <time>2022-07-19T06:36:47Z</time>
      </trkpt>
      <trkpt lat="44.20855" lon="7.14617">
        <ele>2221.6</ele>
        <time>2022-07-19T06:36:48Z</time>
      </trkpt>
      <trkpt lat="44.20853" lon="7.14618">
        <ele>2221.6</ele>
        <time>2022-07-19T06:36:49Z</time>
      </trkpt>
      <trkpt lat="44.20852" lon="7.14619">
        <ele>2222</ele>
        <time>2022-07-19T06:36:50Z</time>
      </trkpt>
      <trkpt lat="44.2085" lon="7.1462">
        <ele>2222</ele>
        <time>2022-07-19T06:36:51Z</time>
      </trkpt>
      <trkpt lat="44.20849" lon="7.14621">
        <ele>2222.2</ele>
        <time>2022-07-19T06:36:52Z</time>
      </trkpt>
      <trkpt lat="44.20847" lon="7.14622">
        <ele>2222.2</ele>
        <time>2022-07-19T06:36:53Z</time>
      </trkpt>
      <trkpt lat="44.20846" lon="7.14623">
        <ele>2222.4</ele>
        <time>2022-07-19T06:36:54Z</time>
      </trkpt>
      <trkpt lat="44.20845" lon="7.14624">
        <ele>2222.6</ele>
        <time>2022-07-19T06:36:55Z</time>
      </trkpt>
      <trkpt lat="44.20843" lon="7.14626">
        <ele>2222.6</ele>
        <time>2022-07-19T06:36:56Z</time>
      </trkpt>
      <trkpt lat="44.20842" lon="7.14627">
        <ele>2223</ele>
        <time>2022-07-19T06:36:57Z</time>
      </trkpt>
      <trkpt lat="44.2084" lon="7.14628">
        <ele>2223</ele>
        <time>2022-07-19T06:36:58Z</time>
      </trkpt>
      <trkpt lat="44.20839" lon="7.14629">
        <ele>2223.4</ele>
        <time>2022-07-19T06:36:59Z</time>
      </trkpt>
      <trkpt lat="44.20837" lon="7.1463">
        <ele>2223.4</ele>
        <time>2022-07-19T06:37:00Z</time>
      </trkpt>
      <trkpt lat="44.20835" lon="7.1463">
        <ele>2223.8</ele>
        <time>2022-07-19T06:37:01Z</time>
      </trkpt>
      <trkpt lat="44.20834" lon="7.14631">
        <ele>2223.8</ele>
        <time>2022-07-19T06:37:02Z</time>
      </trkpt>
      <trkpt lat="44.20832" lon="7.14632">
        <ele>2224</ele>
        <time>2022-07-19T06:37:03Z</time>
      </trkpt>
      <trkpt lat="44.20831" lon="7.14633">
        <ele>2224</ele>
        <time>2022-07-19T06:37:04Z</time>
      </trkpt>
      <trkpt lat="44.2083" lon="7.14635">
        <ele>2224.2</ele>
        <time>2022-07-19T06:37:05Z</time>
      </trkpt>
      <trkpt lat="44.20828" lon="7.14636">
        <ele>2224.2</ele>
        <time>2022-07-19T06:37:06Z</time>
      </trkpt>
      <trkpt lat="44.20827" lon="7.14637">
        <ele>2224.6</ele>
        <time>2022-07-19T06:37:07Z</time>
      </trkpt>
      <trkpt lat="44.20825" lon="7.14638">
        <ele>2224.6</ele>
        <time>2022-07-19T06:37:08Z</time>
      </trkpt>
      <trkpt lat="44.20824" lon="7.14638">
        <ele>2225</ele>
        <time>2022-07-19T06:37:09Z</time>
      </trkpt>
      <trkpt lat="44.20822" lon="7.14639">
        <ele>2225</ele>
        <time>2022-07-19T06:37:10Z</time>
      </trkpt>
      <trkpt lat="44.20821" lon="7.14641">
        <ele>2225.2</ele>
        <time>2022-07-19T06:37:11Z</time>
      </trkpt>
      <trkpt lat="44.2082" lon="7.14642">
        <ele>2225.6</ele>
        <time>2022-07-19T06:37:12Z</time>
      </trkpt>
      <trkpt lat="44.20819" lon="7.14643">
        <ele>2225.6</ele>
        <time>2022-07-19T06:37:13Z</time>
      </trkpt>
      <trkpt lat="44.20817" lon="7.14644">
        <ele>2225.8</ele>
        <time>2022-07-19T06:37:14Z</time>
      </trkpt>
      <trkpt lat="44.20816" lon="7.14646">
        <ele>2225.8</ele>
        <time>2022-07-19T06:37:15Z</time>
      </trkpt>
      <trkpt lat="44.20814" lon="7.14647">
        <ele>2226.2</ele>
        <time>2022-07-19T06:37:16Z</time>
      </trkpt>
      <trkpt lat="44.20813" lon="7.14648">
        <ele>2226.2</ele>
        <time>2022-07-19T06:37:17Z</time>
      </trkpt>
      <trkpt lat="44.20812" lon="7.1465">
        <ele>2226.4</ele>
        <time>2022-07-19T06:37:18Z</time>
      </trkpt>
      <trkpt lat="44.20811" lon="7.14651">
        <ele>2226.4</ele>
        <time>2022-07-19T06:37:19Z</time>
      </trkpt>
      <trkpt lat="44.20809" lon="7.14653">
        <ele>2226.8</ele>
        <time>2022-07-19T06:37:20Z</time>
      </trkpt>
      <trkpt lat="44.20808" lon="7.14655">
        <ele>2227</ele>
        <time>2022-07-19T06:37:21Z</time>
      </trkpt>
      <trkpt lat="44.20807" lon="7.14656">
        <ele>2227.2</ele>
        <time>2022-07-19T06:37:22Z</time>
      </trkpt>
      <trkpt lat="44.20805" lon="7.14657">
        <ele>2227.2</ele>
        <time>2022-07-19T06:37:23Z</time>
      </trkpt>
      <trkpt lat="44.20803" lon="7.14659">
        <ele>2227.6</ele>
        <time>2022-07-19T06:37:24Z</time>
      </trkpt>
      <trkpt lat="44.20802" lon="7.1466">
        <ele>2227.6</ele>
        <time>2022-07-19T06:37:25Z</time>
      </trkpt>
      <trkpt lat="44.20801" lon="7.14662">
        <ele>2228</ele>
        <time>2022-07-19T06:37:26Z</time>
      </trkpt>
      <trkpt lat="44.20799" lon="7.14664">
        <ele>2228</ele>
        <time>2022-07-19T06:37:27Z</time>
      </trkpt>
      <trkpt lat="44.20798" lon="7.14665">
        <ele>2228.2</ele>
        <time>2022-07-19T06:37:28Z</time>
      </trkpt>
      <trkpt lat="44.20797" lon="7.14667">
        <ele>2228.2</ele>
        <time>2022-07-19T06:37:29Z</time>
      </trkpt>
      <trkpt lat="44.20795" lon="7.14669">
        <ele>2228.6</ele>
        <time>2022-07-19T06:37:30Z</time>
      </trkpt>
      <trkpt lat="44.20794" lon="7.14671">
        <ele>2228.6</ele>
        <time>2022-07-19T06:37:31Z</time>
      </trkpt>
      <trkpt lat="44.20793" lon="7.14673">
        <ele>2228.6</ele>
        <time>2022-07-19T06:37:32Z</time>
      </trkpt>
      <trkpt lat="44.20792" lon="7.14674">
        <ele>2228.8</ele>
        <time>2022-07-19T06:37:33Z</time>
      </trkpt>
      <trkpt lat="44.2079" lon="7.14676">
        <ele>2228.8</ele>
        <time>2022-07-19T06:37:34Z</time>
      </trkpt>
      <trkpt lat="44.20789" lon="7.14678">
        <ele>2229.2</ele>
        <time>2022-07-19T06:37:35Z</time>
      </trkpt>
      <trkpt lat="44.20788" lon="7.1468">
        <ele>2229.4</ele>
        <time>2022-07-19T06:37:36Z</time>
      </trkpt>
      <trkpt lat="44.20786" lon="7.14682">
        <ele>2229.4</ele>
        <time>2022-07-19T06:37:37Z</time>
      </trkpt>
      <trkpt lat="44.20785" lon="7.14683">
        <ele>2229.8</ele>
        <time>2022-07-19T06:37:38Z</time>
      </trkpt>
      <trkpt lat="44.20784" lon="7.14685">
        <ele>2229.8</ele>
        <time>2022-07-19T06:37:39Z</time>
      </trkpt>
      <trkpt lat="44.20782" lon="7.14686">
        <ele>2230</ele>
        <time>2022-07-19T06:37:40Z</time>
      </trkpt>
      <trkpt lat="44.2078" lon="7.14688">
        <ele>2230</ele>
        <time>2022-07-19T06:37:41Z</time>
      </trkpt>
      <trkpt lat="44.20779" lon="7.14689">
        <ele>2230.4</ele>
        <time>2022-07-19T06:37:42Z</time>
      </trkpt>
      <trkpt lat="44.20778" lon="7.14691">
        <ele>2230.4</ele>
        <time>2022-07-19T06:37:43Z</time>
      </trkpt>
      <trkpt lat="44.20777" lon="7.14693">
        <ele>2230.4</ele>
        <time>2022-07-19T06:37:44Z</time>
      </trkpt>
      <trkpt lat="44.20776" lon="7.14695">
        <ele>2230.6</ele>
        <time>2022-07-19T06:37:45Z</time>
      </trkpt>
      <trkpt lat="44.20774" lon="7.14697">
        <ele>2230.6</ele>
        <time>2022-07-19T06:37:46Z</time>
      </trkpt>
      <trkpt lat="44.20773" lon="7.14698">
        <ele>2231</ele>
        <time>2022-07-19T06:37:47Z</time>
      </trkpt>
      <trkpt lat="44.20771" lon="7.14699">
        <ele>2231</ele>
        <time>2022-07-19T06:37:48Z</time>
      </trkpt>
      <trkpt lat="44.20769" lon="7.147">
        <ele>2231.2</ele>
        <time>2022-07-19T06:37:49Z</time>
      </trkpt>
      <trkpt lat="44.20768" lon="7.14702">
        <ele>2231.2</ele>
        <time>2022-07-19T06:37:50Z</time>
      </trkpt>
      <trkpt lat="44.20766" lon="7.14703">
        <ele>2231.2</ele>
        <time>2022-07-19T06:37:51Z</time>
      </trkpt>
      <trkpt lat="44.20765" lon="7.14705">
        <ele>2231.6</ele>
        <time>2022-07-19T06:37:52Z</time>
      </trkpt>
      <trkpt lat="44.20764" lon="7.14706">
        <ele>2231.6</ele>
        <time>2022-07-19T06:37:53Z</time>
      </trkpt>
      <trkpt lat="44.20763" lon="7.14708">
        <ele>2231.8</ele>
        <time>2022-07-19T06:37:54Z</time>
      </trkpt>
      <trkpt lat="44.20761" lon="7.1471">
        <ele>2231.8</ele>
        <time>2022-07-19T06:37:55Z</time>
      </trkpt>
      <trkpt lat="44.2076" lon="7.14711">
        <ele>2232.2</ele>
        <time>2022-07-19T06:37:56Z</time>
      </trkpt>
      <trkpt lat="44.20758" lon="7.14712">
        <ele>2232.2</ele>
        <time>2022-07-19T06:37:57Z</time>
      </trkpt>
      <trkpt lat="44.20757" lon="7.14713">
        <ele>2232.4</ele>
        <time>2022-07-19T06:37:58Z</time>
      </trkpt>
      <trkpt lat="44.20755" lon="7.14714">
        <ele>2232.4</ele>
        <time>2022-07-19T06:37:59Z</time>
      </trkpt>
      <trkpt lat="44.20753" lon="7.14714">
        <ele>2232.8</ele>
        <time>2022-07-19T06:38:00Z</time>
      </trkpt>
      <trkpt lat="44.20752" lon="7.14716">
        <ele>2232.8</ele>
        <time>2022-07-19T06:38:01Z</time>
      </trkpt>
      <trkpt lat="44.2075" lon="7.14717">
        <ele>2233.2</ele>
        <time>2022-07-19T06:38:02Z</time>
      </trkpt>
      <trkpt lat="44.20749" lon="7.14718">
        <ele>2233.2</ele>
        <time>2022-07-19T06:38:03Z</time>
      </trkpt>
      <trkpt lat="44.20747" lon="7.14719">
        <ele>2233.2</ele>
        <time>2022-07-19T06:38:04Z</time>
      </trkpt>
      <trkpt lat="44.20746" lon="7.1472">
        <ele>2233.4</ele>
        <time>2022-07-19T06:38:05Z</time>
      </trkpt>
      <trkpt lat="44.20744" lon="7.14721">
        <ele>2233.4</ele>
        <time>2022-07-19T06:38:06Z</time>
      </trkpt>
      <trkpt lat="44.20743" lon="7.14722">
        <ele>2233.8</ele>
        <time>2022-07-19T06:38:07Z</time>
      </trkpt>
      <trkpt lat="44.20741" lon="7.14723">
        <ele>2233.8</ele>
        <time>2022-07-19T06:38:08Z</time>
      </trkpt>
      <trkpt lat="44.2074" lon="7.14724">
        <ele>2234.2</ele>
        <time>2022-07-19T06:38:09Z</time>
      </trkpt>
      <trkpt lat="44.20738" lon="7.14725">
        <ele>2234.2</ele>
        <time>2022-07-19T06:38:10Z</time>
      </trkpt>
      <trkpt lat="44.20737" lon="7.14726">
        <ele>2234.2</ele>
        <time>2022-07-19T06:38:11Z</time>
      </trkpt>
      <trkpt lat="44.20735" lon="7.14728">
        <ele>2234.6</ele>
        <time>2022-07-19T06:38:12Z</time>
      </trkpt>
      <trkpt lat="44.20734" lon="7.14729">
        <ele>2234.8</ele>
        <time>2022-07-19T06:38:13Z</time>
      </trkpt>
      <trkpt lat="44.20732" lon="7.1473">
        <ele>2235</ele>
        <time>2022-07-19T06:38:14Z</time>
      </trkpt>
      <trkpt lat="44.2073" lon="7.1473">
        <ele>2235.4</ele>
        <time>2022-07-19T06:38:15Z</time>
      </trkpt>
      <trkpt lat="44.20729" lon="7.14732">
        <ele>2235.6</ele>
        <time>2022-07-19T06:38:16Z</time>
      </trkpt>
      <trkpt lat="44.20727" lon="7.14733">
        <ele>2235.6</ele>
        <time>2022-07-19T06:38:17Z</time>
      </trkpt>
      <trkpt lat="44.20726" lon="7.14734">
        <ele>2235.8</ele>
        <time>2022-07-19T06:38:18Z</time>
      </trkpt>
      <trkpt lat="44.20724" lon="7.14736">
        <ele>2235.8</ele>
        <time>2022-07-19T06:38:19Z</time>
      </trkpt>
      <trkpt lat="44.20722" lon="7.14737">
        <ele>2235.8</ele>
        <time>2022-07-19T06:38:20Z</time>
      </trkpt>
      <trkpt lat="44.20721" lon="7.14739">
        <ele>2236.2</ele>
        <time>2022-07-19T06:38:21Z</time>
      </trkpt>
      <trkpt lat="44.20719" lon="7.14741">
        <ele>2236.2</ele>
        <time>2022-07-19T06:38:22Z</time>
      </trkpt>
      <trkpt lat="44.20718" lon="7.14743">
        <ele>2236.4</ele>
        <time>2022-07-19T06:38:23Z</time>
      </trkpt>
      <trkpt lat="44.20717" lon="7.14745">
        <ele>2236.4</ele>
        <time>2022-07-19T06:38:24Z</time>
      </trkpt>
      <trkpt lat="44.20715" lon="7.14747">
        <ele>2236.6</ele>
        <time>2022-07-19T06:38:25Z</time>
      </trkpt>
      <trkpt lat="44.20714" lon="7.1475">
        <ele>2236.6</ele>
        <time>2022-07-19T06:38:26Z</time>
      </trkpt>
      <trkpt lat="44.20713" lon="7.14752">
        <ele>2236.6</ele>
        <time>2022-07-19T06:38:27Z</time>
      </trkpt>
      <trkpt lat="44.20712" lon="7.14755">
        <ele>2237</ele>
        <time>2022-07-19T06:38:28Z</time>
      </trkpt>
      <trkpt lat="44.20711" lon="7.14757">
        <ele>2237</ele>
        <time>2022-07-19T06:38:29Z</time>
      </trkpt>
      <trkpt lat="44.20709" lon="7.1476">
        <ele>2237</ele>
        <time>2022-07-19T06:38:30Z</time>
      </trkpt>
      <trkpt lat="44.20708" lon="7.14762">
        <ele>2237</ele>
        <time>2022-07-19T06:38:31Z</time>
      </trkpt>
      <trkpt lat="44.20707" lon="7.14765">
        <ele>2237</ele>
        <time>2022-07-19T06:38:32Z</time>
      </trkpt>
      <trkpt lat="44.20706" lon="7.14767">
        <ele>2237</ele>
        <time>2022-07-19T06:38:33Z</time>
      </trkpt>
      <trkpt lat="44.20705" lon="7.1477">
        <ele>2237.4</ele>
        <time>2022-07-19T06:38:34Z</time>
      </trkpt>
      <trkpt lat="44.20704" lon="7.14773">
        <ele>2237.4</ele>
        <time>2022-07-19T06:38:35Z</time>
      </trkpt>
      <trkpt lat="44.20703" lon="7.14776">
        <ele>2237.6</ele>
        <time>2022-07-19T06:38:36Z</time>
      </trkpt>
      <trkpt lat="44.20702" lon="7.14779">
        <ele>2237.6</ele>
        <time>2022-07-19T06:38:37Z</time>
      </trkpt>
      <trkpt lat="44.20701" lon="7.14782">
        <ele>2237.6</ele>
        <time>2022-07-19T06:38:38Z</time>
      </trkpt>
      <trkpt lat="44.207" lon="7.14785">
        <ele>2237.8</ele>
        <time>2022-07-19T06:38:39Z</time>
      </trkpt>
      <trkpt lat="44.207" lon="7.14788">
        <ele>2237.8</ele>
        <time>2022-07-19T06:38:40Z</time>
      </trkpt>
      <trkpt lat="44.20699" lon="7.14791">
        <ele>2237.8</ele>
        <time>2022-07-19T06:38:41Z</time>
      </trkpt>
      <trkpt lat="44.20699" lon="7.14794">
        <ele>2238</ele>
        <time>2022-07-19T06:38:42Z</time>
      </trkpt>
      <trkpt lat="44.20699" lon="7.14798">
        <ele>2238</ele>
        <time>2022-07-19T06:38:43Z</time>
      </trkpt>
      <trkpt lat="44.20699" lon="7.14801">
        <ele>2238</ele>
        <time>2022-07-19T06:38:44Z</time>
      </trkpt>
      <trkpt lat="44.20698" lon="7.14805">
        <ele>2238</ele>
        <time>2022-07-19T06:38:45Z</time>
      </trkpt>
      <trkpt lat="44.20698" lon="7.14808">
        <ele>2238</ele>
        <time>2022-07-19T06:38:46Z</time>
      </trkpt>
      <trkpt lat="44.20698" lon="7.14812">
        <ele>2238</ele>
        <time>2022-07-19T06:38:47Z</time>
      </trkpt>
      <trkpt lat="44.20698" lon="7.14815">
        <ele>2238.4</ele>
        <time>2022-07-19T06:38:48Z</time>
      </trkpt>
      <trkpt lat="44.20697" lon="7.14819">
        <ele>2238.4</ele>
        <time>2022-07-19T06:38:49Z</time>
      </trkpt>
      <trkpt lat="44.20697" lon="7.14822">
        <ele>2238.4</ele>
        <time>2022-07-19T06:38:50Z</time>
      </trkpt>
      <trkpt lat="44.20697" lon="7.14826">
        <ele>2238.4</ele>
        <time>2022-07-19T06:38:51Z</time>
      </trkpt>
      <trkpt lat="44.20696" lon="7.14829">
        <ele>2238.4</ele>
        <time>2022-07-19T06:38:52Z</time>
      </trkpt>
      <trkpt lat="44.20696" lon="7.14832">
        <ele>2238.4</ele>
        <time>2022-07-19T06:38:53Z</time>
      </trkpt>
      <trkpt lat="44.20695" lon="7.14836">
        <ele>2238.6</ele>
        <time>2022-07-19T06:38:54Z</time>
      </trkpt>
      <trkpt lat="44.20695" lon="7.14839">
        <ele>2238.6</ele>
        <time>2022-07-19T06:38:55Z</time>
      </trkpt>
      <trkpt lat="44.20694" lon="7.14842">
        <ele>2238.8</ele>
        <time>2022-07-19T06:38:56Z</time>
      </trkpt>
      <trkpt lat="44.20694" lon="7.14846">
        <ele>2238.8</ele>
        <time>2022-07-19T06:38:57Z</time>
      </trkpt>
      <trkpt lat="44.20693" lon="7.14849">
        <ele>2238.8</ele>
        <time>2022-07-19T06:38:58Z</time>
      </trkpt>
      <trkpt lat="44.20691" lon="7.14855">
        <ele>2238.8</ele>
        <time>2022-07-19T06:38:59Z</time>
      </trkpt>
      <trkpt lat="44.20691" lon="7.14858">
        <ele>2239</ele>
        <time>2022-07-19T06:39:00Z</time>
      </trkpt>
      <trkpt lat="44.2069" lon="7.14861">
        <ele>2239</ele>
        <time>2022-07-19T06:39:01Z</time>
      </trkpt>
      <trkpt lat="44.20688" lon="7.14864">
        <ele>2239</ele>
        <time>2022-07-19T06:39:02Z</time>
      </trkpt>
      <trkpt lat="44.20687" lon="7.14867">
        <ele>2239</ele>
        <time>2022-07-19T06:39:03Z</time>
      </trkpt>
      <trkpt lat="44.20687" lon="7.14871">
        <ele>2239</ele>
        <time>2022-07-19T06:39:04Z</time>
      </trkpt>
      <trkpt lat="44.20686" lon="7.14874">
        <ele>2239.2</ele>
        <time>2022-07-19T06:39:05Z</time>
      </trkpt>
      <trkpt lat="44.20685" lon="7.14877">
        <ele>2239.2</ele>
        <time>2022-07-19T06:39:06Z</time>
      </trkpt>
      <trkpt lat="44.20684" lon="7.14879">
        <ele>2239.2</ele>
        <time>2022-07-19T06:39:07Z</time>
      </trkpt>
      <trkpt lat="44.20683" lon="7.14882">
        <ele>2239.2</ele>
        <time>2022-07-19T06:39:08Z</time>
      </trkpt>
      <trkpt lat="44.20682" lon="7.14885">
        <ele>2239.4</ele>
        <time>2022-07-19T06:39:09Z</time>
      </trkpt>
      <trkpt lat="44.20681" lon="7.14888">
        <ele>2239.4</ele>
        <time>2022-07-19T06:39:10Z</time>
      </trkpt>
      <trkpt lat="44.2068" lon="7.14891">
        <ele>2239.4</ele>
        <time>2022-07-19T06:39:11Z</time>
      </trkpt>
      <trkpt lat="44.2068" lon="7.14894">
        <ele>2239.4</ele>
        <time>2022-07-19T06:39:12Z</time>
      </trkpt>
      <trkpt lat="44.20679" lon="7.14897">
        <ele>2239.8</ele>
        <time>2022-07-19T06:39:13Z</time>
      </trkpt>
      <trkpt lat="44.20678" lon="7.149">
        <ele>2239.8</ele>
        <time>2022-07-19T06:39:14Z</time>
      </trkpt>
      <trkpt lat="44.20677" lon="7.14903">
        <ele>2239.8</ele>
        <time>2022-07-19T06:39:15Z</time>
      </trkpt>
      <trkpt lat="44.20676" lon="7.14906">
        <ele>2240</ele>
        <time>2022-07-19T06:39:16Z</time>
      </trkpt>
      <trkpt lat="44.20676" lon="7.14909">
        <ele>2240</ele>
        <time>2022-07-19T06:39:17Z</time>
      </trkpt>
      <trkpt lat="44.20675" lon="7.14912">
        <ele>2240</ele>
        <time>2022-07-19T06:39:18Z</time>
      </trkpt>
      <trkpt lat="44.20675" lon="7.14915">
        <ele>2240.2</ele>
        <time>2022-07-19T06:39:19Z</time>
      </trkpt>
      <trkpt lat="44.20675" lon="7.14918">
        <ele>2240.2</ele>
        <time>2022-07-19T06:39:20Z</time>
      </trkpt>
      <trkpt lat="44.20675" lon="7.14921">
        <ele>2240.2</ele>
        <time>2022-07-19T06:39:21Z</time>
      </trkpt>
      <trkpt lat="44.20674" lon="7.14924">
        <ele>2240.6</ele>
        <time>2022-07-19T06:39:22Z</time>
      </trkpt>
      <trkpt lat="44.20674" lon="7.14927">
        <ele>2240.8</ele>
        <time>2022-07-19T06:39:23Z</time>
      </trkpt>
      <trkpt lat="44.20674" lon="7.1493">
        <ele>2240.8</ele>
        <time>2022-07-19T06:39:24Z</time>
      </trkpt>
      <trkpt lat="44.20674" lon="7.14933">
        <ele>2240.8</ele>
        <time>2022-07-19T06:39:25Z</time>
      </trkpt>
      <trkpt lat="44.20674" lon="7.14936">
        <ele>2241</ele>
        <time>2022-07-19T06:39:26Z</time>
      </trkpt>
      <trkpt lat="44.20674" lon="7.14939">
        <ele>2241</ele>
        <time>2022-07-19T06:39:27Z</time>
      </trkpt>
      <trkpt lat="44.20674" lon="7.14942">
        <ele>2241.4</ele>
        <time>2022-07-19T06:39:28Z</time>
      </trkpt>
      <trkpt lat="44.20674" lon="7.14945">
        <ele>2241.4</ele>
        <time>2022-07-19T06:39:29Z</time>
      </trkpt>
      <trkpt lat="44.20674" lon="7.14948">
        <ele>2241.8</ele>
        <time>2022-07-19T06:39:30Z</time>
      </trkpt>
      <trkpt lat="44.20674" lon="7.1495">
        <ele>2241.8</ele>
        <time>2022-07-19T06:39:31Z</time>
      </trkpt>
      <trkpt lat="44.20674" lon="7.14953">
        <ele>2242</ele>
        <time>2022-07-19T06:39:32Z</time>
      </trkpt>
      <trkpt lat="44.20674" lon="7.14956">
        <ele>2242</ele>
        <time>2022-07-19T06:39:33Z</time>
      </trkpt>
      <trkpt lat="44.20673" lon="7.14959">
        <ele>2242.2</ele>
        <time>2022-07-19T06:39:34Z</time>
      </trkpt>
      <trkpt lat="44.20673" lon="7.14962">
        <ele>2242.2</ele>
        <time>2022-07-19T06:39:35Z</time>
      </trkpt>
      <trkpt lat="44.20673" lon="7.14965">
        <ele>2242.6</ele>
        <time>2022-07-19T06:39:36Z</time>
      </trkpt>
      <trkpt lat="44.20673" lon="7.14968">
        <ele>2242.6</ele>
        <time>2022-07-19T06:39:37Z</time>
      </trkpt>
      <trkpt lat="44.20672" lon="7.14971">
        <ele>2242.8</ele>
        <time>2022-07-19T06:39:38Z</time>
      </trkpt>
      <trkpt lat="44.20672" lon="7.14974">
        <ele>2242.8</ele>
        <time>2022-07-19T06:39:39Z</time>
      </trkpt>
      <trkpt lat="44.20672" lon="7.14977">
        <ele>2243</ele>
        <time>2022-07-19T06:39:40Z</time>
      </trkpt>
      <trkpt lat="44.20671" lon="7.14979">
        <ele>2243</ele>
        <time>2022-07-19T06:39:41Z</time>
      </trkpt>
      <trkpt lat="44.20671" lon="7.14982">
        <ele>2243.4</ele>
        <time>2022-07-19T06:39:42Z</time>
      </trkpt>
      <trkpt lat="44.2067" lon="7.14985">
        <ele>2243.4</ele>
        <time>2022-07-19T06:39:43Z</time>
      </trkpt>
      <trkpt lat="44.20669" lon="7.14988">
        <ele>2243.6</ele>
        <time>2022-07-19T06:39:44Z</time>
      </trkpt>
      <trkpt lat="44.20669" lon="7.1499">
        <ele>2243.6</ele>
        <time>2022-07-19T06:39:45Z</time>
      </trkpt>
      <trkpt lat="44.20668" lon="7.14993">
        <ele>2243.8</ele>
        <time>2022-07-19T06:39:46Z</time>
      </trkpt>
      <trkpt lat="44.20667" lon="7.14996">
        <ele>2243.8</ele>
        <time>2022-07-19T06:39:47Z</time>
      </trkpt>
      <trkpt lat="44.20666" lon="7.14999">
        <ele>2244.2</ele>
        <time>2022-07-19T06:39:48Z</time>
      </trkpt>
      <trkpt lat="44.20666" lon="7.15002">
        <ele>2244.2</ele>
        <time>2022-07-19T06:39:49Z</time>
      </trkpt>
      <trkpt lat="44.20665" lon="7.15005">
        <ele>2244.2</ele>
        <time>2022-07-19T06:39:50Z</time>
      </trkpt>
      <trkpt lat="44.20664" lon="7.15008">
        <ele>2244.4</ele>
        <time>2022-07-19T06:39:51Z</time>
      </trkpt>
      <trkpt lat="44.20663" lon="7.1501">
        <ele>2244.4</ele>
        <time>2022-07-19T06:39:52Z</time>
      </trkpt>
      <trkpt lat="44.20662" lon="7.15013">
        <ele>2244.6</ele>
        <time>2022-07-19T06:39:53Z</time>
      </trkpt>
      <trkpt lat="44.20661" lon="7.15016">
        <ele>2244.6</ele>
        <time>2022-07-19T06:39:54Z</time>
      </trkpt>
      <trkpt lat="44.2066" lon="7.15019">
        <ele>2244.6</ele>
        <time>2022-07-19T06:39:55Z</time>
      </trkpt>
      <trkpt lat="44.20659" lon="7.15021">
        <ele>2244.8</ele>
        <time>2022-07-19T06:39:56Z</time>
      </trkpt>
      <trkpt lat="44.20657" lon="7.15024">
        <ele>2244.8</ele>
        <time>2022-07-19T06:39:57Z</time>
      </trkpt>
      <trkpt lat="44.20656" lon="7.15026">
        <ele>2245.2</ele>
        <time>2022-07-19T06:39:58Z</time>
      </trkpt>
      <trkpt lat="44.20654" lon="7.15029">
        <ele>2245.2</ele>
        <time>2022-07-19T06:39:59Z</time>
      </trkpt>
      <trkpt lat="44.20653" lon="7.15031">
        <ele>2245.4</ele>
        <time>2022-07-19T06:40:00Z</time>
      </trkpt>
      <trkpt lat="44.20651" lon="7.15034">
        <ele>2245.6</ele>
        <time>2022-07-19T06:40:01Z</time>
      </trkpt>
      <trkpt lat="44.20649" lon="7.15036">
        <ele>2245.6</ele>
        <time>2022-07-19T06:40:02Z</time>
      </trkpt>
      <trkpt lat="44.20647" lon="7.15038">
        <ele>2246</ele>
        <time>2022-07-19T06:40:03Z</time>
      </trkpt>
      <trkpt lat="44.20645" lon="7.1504">
        <ele>2246</ele>
        <time>2022-07-19T06:40:04Z</time>
      </trkpt>
      <trkpt lat="44.20643" lon="7.15041">
        <ele>2246</ele>
        <time>2022-07-19T06:40:05Z</time>
      </trkpt>
      <trkpt lat="44.20641" lon="7.15043">
        <ele>2246.2</ele>
        <time>2022-07-19T06:40:06Z</time>
      </trkpt>
      <trkpt lat="44.20639" lon="7.15045">
        <ele>2246.2</ele>
        <time>2022-07-19T06:40:07Z</time>
      </trkpt>
      <trkpt lat="44.20636" lon="7.15046">
        <ele>2246.2</ele>
        <time>2022-07-19T06:40:08Z</time>
      </trkpt>
      <trkpt lat="44.20634" lon="7.15048">
        <ele>2246.2</ele>
        <time>2022-07-19T06:40:09Z</time>
      </trkpt>
      <trkpt lat="44.20632" lon="7.15049">
        <ele>2246.2</ele>
        <time>2022-07-19T06:40:10Z</time>
      </trkpt>
      <trkpt lat="44.2063" lon="7.15051">
        <ele>2246.4</ele>
        <time>2022-07-19T06:40:11Z</time>
      </trkpt>
      <trkpt lat="44.20628" lon="7.15053">
        <ele>2246.4</ele>
        <time>2022-07-19T06:40:12Z</time>
      </trkpt>
      <trkpt lat="44.20626" lon="7.15055">
        <ele>2246.4</ele>
        <time>2022-07-19T06:40:13Z</time>
      </trkpt>
      <trkpt lat="44.20624" lon="7.15057">
        <ele>2246.8</ele>
        <time>2022-07-19T06:40:14Z</time>
      </trkpt>
      <trkpt lat="44.20621" lon="7.15059">
        <ele>2246.8</ele>
        <time>2022-07-19T06:40:15Z</time>
      </trkpt>
      <trkpt lat="44.20619" lon="7.1506">
        <ele>2247</ele>
        <time>2022-07-19T06:40:16Z</time>
      </trkpt>
      <trkpt lat="44.20617" lon="7.15062">
        <ele>2247</ele>
        <time>2022-07-19T06:40:17Z</time>
      </trkpt>
      <trkpt lat="44.20615" lon="7.15064">
        <ele>2247</ele>
        <time>2022-07-19T06:40:18Z</time>
      </trkpt>
      <trkpt lat="44.20613" lon="7.15065">
        <ele>2247</ele>
        <time>2022-07-19T06:40:19Z</time>
      </trkpt>
      <trkpt lat="44.2061" lon="7.15067">
        <ele>2247</ele>
        <time>2022-07-19T06:40:20Z</time>
      </trkpt>
      <trkpt lat="44.20608" lon="7.15069">
        <ele>2247.2</ele>
        <time>2022-07-19T06:40:21Z</time>
      </trkpt>
      <trkpt lat="44.20606" lon="7.1507">
        <ele>2247.2</ele>
        <time>2022-07-19T06:40:22Z</time>
      </trkpt>
      <trkpt lat="44.20604" lon="7.15072">
        <ele>2247.2</ele>
        <time>2022-07-19T06:40:23Z</time>
      </trkpt>
      <trkpt lat="44.20602" lon="7.15074">
        <ele>2247.4</ele>
        <time>2022-07-19T06:40:24Z</time>
      </trkpt>
      <trkpt lat="44.206" lon="7.15076">
        <ele>2247.4</ele>
        <time>2022-07-19T06:40:25Z</time>
      </trkpt>
      <trkpt lat="44.20598" lon="7.15078">
        <ele>2247.6</ele>
        <time>2022-07-19T06:40:26Z</time>
      </trkpt>
      <trkpt lat="44.20596" lon="7.1508">
        <ele>2247.6</ele>
        <time>2022-07-19T06:40:27Z</time>
      </trkpt>
      <trkpt lat="44.20595" lon="7.15082">
        <ele>2247.8</ele>
        <time>2022-07-19T06:40:28Z</time>
      </trkpt>
      <trkpt lat="44.20593" lon="7.15085">
        <ele>2247.8</ele>
        <time>2022-07-19T06:40:29Z</time>
      </trkpt>
      <trkpt lat="44.20591" lon="7.15087">
        <ele>2248.2</ele>
        <time>2022-07-19T06:40:30Z</time>
      </trkpt>
      <trkpt lat="44.20589" lon="7.15089">
        <ele>2248.2</ele>
        <time>2022-07-19T06:40:31Z</time>
      </trkpt>
      <trkpt lat="44.20587" lon="7.15092">
        <ele>2248.4</ele>
        <time>2022-07-19T06:40:32Z</time>
      </trkpt>
      <trkpt lat="44.20585" lon="7.15094">
        <ele>2248.4</ele>
        <time>2022-07-19T06:40:33Z</time>
      </trkpt>
      <trkpt lat="44.20584" lon="7.15097">
        <ele>2248.4</ele>
        <time>2022-07-19T06:40:34Z</time>
      </trkpt>
      <trkpt lat="44.20582" lon="7.15099">
        <ele>2248.6</ele>
        <time>2022-07-19T06:40:35Z</time>
      </trkpt>
      <trkpt lat="44.2058" lon="7.15102">
        <ele>2248.6</ele>
        <time>2022-07-19T06:40:36Z</time>
      </trkpt>
      <trkpt lat="44.20579" lon="7.15104">
        <ele>2248.8</ele>
        <time>2022-07-19T06:40:37Z</time>
      </trkpt>
      <trkpt lat="44.20578" lon="7.15107">
        <ele>2248.8</ele>
        <time>2022-07-19T06:40:38Z</time>
      </trkpt>
      <trkpt lat="44.20577" lon="7.1511">
        <ele>2249</ele>
        <time>2022-07-19T06:40:39Z</time>
      </trkpt>
      <trkpt lat="44.20577" lon="7.15113">
        <ele>2249</ele>
        <time>2022-07-19T06:40:40Z</time>
      </trkpt>
      <trkpt lat="44.20577" lon="7.15117">
        <ele>2249</ele>
        <time>2022-07-19T06:40:41Z</time>
      </trkpt>
      <trkpt lat="44.20577" lon="7.1512">
        <ele>2249.4</ele>
        <time>2022-07-19T06:40:42Z</time>
      </trkpt>
      <trkpt lat="44.20576" lon="7.15123">
        <ele>2249.4</ele>
        <time>2022-07-19T06:40:43Z</time>
      </trkpt>
      <trkpt lat="44.20576" lon="7.15126">
        <ele>2249.6</ele>
        <time>2022-07-19T06:40:44Z</time>
      </trkpt>
      <trkpt lat="44.20576" lon="7.15129">
        <ele>2249.6</ele>
        <time>2022-07-19T06:40:45Z</time>
      </trkpt>
      <trkpt lat="44.20576" lon="7.15132">
        <ele>2250</ele>
        <time>2022-07-19T06:40:46Z</time>
      </trkpt>
      <trkpt lat="44.20576" lon="7.15135">
        <ele>2250</ele>
        <time>2022-07-19T06:40:47Z</time>
      </trkpt>
      <trkpt lat="44.20576" lon="7.15138">
        <ele>2250.2</ele>
        <time>2022-07-19T06:40:48Z</time>
      </trkpt>
      <trkpt lat="44.20576" lon="7.15141">
        <ele>2250.4</ele>
        <time>2022-07-19T06:40:49Z</time>
      </trkpt>
      <trkpt lat="44.20576" lon="7.15145">
        <ele>2250.4</ele>
        <time>2022-07-19T06:40:50Z</time>
      </trkpt>
      <trkpt lat="44.20576" lon="7.15148">
        <ele>2250.8</ele>
        <time>2022-07-19T06:40:51Z</time>
      </trkpt>
      <trkpt lat="44.20576" lon="7.15151">
        <ele>2250.8</ele>
        <time>2022-07-19T06:40:52Z</time>
      </trkpt>
      <trkpt lat="44.20576" lon="7.15154">
        <ele>2251</ele>
        <time>2022-07-19T06:40:53Z</time>
      </trkpt>
      <trkpt lat="44.20576" lon="7.15157">
        <ele>2251</ele>
        <time>2022-07-19T06:40:54Z</time>
      </trkpt>
      <trkpt lat="44.20576" lon="7.1516">
        <ele>2251.4</ele>
        <time>2022-07-19T06:40:55Z</time>
      </trkpt>
      <trkpt lat="44.20576" lon="7.15163">
        <ele>2251.4</ele>
        <time>2022-07-19T06:40:56Z</time>
      </trkpt>
      <trkpt lat="44.20577" lon="7.15166">
        <ele>2251.6</ele>
        <time>2022-07-19T06:40:57Z</time>
      </trkpt>
      <trkpt lat="44.20577" lon="7.1517">
        <ele>2251.6</ele>
        <time>2022-07-19T06:40:58Z</time>
      </trkpt>
      <trkpt lat="44.20578" lon="7.15173">
        <ele>2251.8</ele>
        <time>2022-07-19T06:40:59Z</time>
      </trkpt>
      <trkpt lat="44.20578" lon="7.15176">
        <ele>2251.8</ele>
        <time>2022-07-19T06:41:00Z</time>
      </trkpt>
      <trkpt lat="44.20579" lon="7.15179">
        <ele>2252.2</ele>
        <time>2022-07-19T06:41:01Z</time>
      </trkpt>
      <trkpt lat="44.20579" lon="7.15183">
        <ele>2252.2</ele>
        <time>2022-07-19T06:41:02Z</time>
      </trkpt>
      <trkpt lat="44.2058" lon="7.15186">
        <ele>2252.2</ele>
        <time>2022-07-19T06:41:03Z</time>
      </trkpt>
      <trkpt lat="44.20579" lon="7.15189">
        <ele>2252.4</ele>
        <time>2022-07-19T06:41:04Z</time>
      </trkpt>
      <trkpt lat="44.20579" lon="7.15192">
        <ele>2252.4</ele>
        <time>2022-07-19T06:41:05Z</time>
      </trkpt>
      <trkpt lat="44.20578" lon="7.15195">
        <ele>2252.8</ele>
        <time>2022-07-19T06:41:06Z</time>
      </trkpt>
      <trkpt lat="44.20577" lon="7.15198">
        <ele>2252.8</ele>
        <time>2022-07-19T06:41:07Z</time>
      </trkpt>
      <trkpt lat="44.20576" lon="7.15201">
        <ele>2253</ele>
        <time>2022-07-19T06:41:08Z</time>
      </trkpt>
      <trkpt lat="44.20575" lon="7.15204">
        <ele>2253.2</ele>
        <time>2022-07-19T06:41:09Z</time>
      </trkpt>
      <trkpt lat="44.20573" lon="7.15207">
        <ele>2253.6</ele>
        <time>2022-07-19T06:41:10Z</time>
      </trkpt>
      <trkpt lat="44.2057" lon="7.15209">
        <ele>2253.6</ele>
        <time>2022-07-19T06:41:11Z</time>
      </trkpt>
      <trkpt lat="44.20568" lon="7.15211">
        <ele>2253.8</ele>
        <time>2022-07-19T06:41:12Z</time>
      </trkpt>
      <trkpt lat="44.20566" lon="7.15212">
        <ele>2253.8</ele>
        <time>2022-07-19T06:41:13Z</time>
      </trkpt>
      <trkpt lat="44.20564" lon="7.15214">
        <ele>2254.2</ele>
        <time>2022-07-19T06:41:14Z</time>
      </trkpt>
      <trkpt lat="44.20561" lon="7.15214">
        <ele>2254.2</ele>
        <time>2022-07-19T06:41:15Z</time>
      </trkpt>
      <trkpt lat="44.20559" lon="7.15215">
        <ele>2254.4</ele>
        <time>2022-07-19T06:41:16Z</time>
      </trkpt>
      <trkpt lat="44.20556" lon="7.15215">
        <ele>2254.4</ele>
        <time>2022-07-19T06:41:17Z</time>
      </trkpt>
      <trkpt lat="44.20554" lon="7.15215">
        <ele>2254.4</ele>
        <time>2022-07-19T06:41:18Z</time>
      </trkpt>
      <trkpt lat="44.20552" lon="7.15215">
        <ele>2254.8</ele>
        <time>2022-07-19T06:41:19Z</time>
      </trkpt>
      <trkpt lat="44.20549" lon="7.15215">
        <ele>2254.8</ele>
        <time>2022-07-19T06:41:20Z</time>
      </trkpt>
      <trkpt lat="44.20547" lon="7.15214">
        <ele>2255.2</ele>
        <time>2022-07-19T06:41:21Z</time>
      </trkpt>
      <trkpt lat="44.20544" lon="7.15214">
        <ele>2255.2</ele>
        <time>2022-07-19T06:41:22Z</time>
      </trkpt>
      <trkpt lat="44.20542" lon="7.15213">
        <ele>2255.4</ele>
        <time>2022-07-19T06:41:23Z</time>
      </trkpt>
      <trkpt lat="44.2054" lon="7.15212">
        <ele>2255.4</ele>
        <time>2022-07-19T06:41:24Z</time>
      </trkpt>
      <trkpt lat="44.20537" lon="7.15212">
        <ele>2255.6</ele>
        <time>2022-07-19T06:41:25Z</time>
      </trkpt>
      <trkpt lat="44.20535" lon="7.15211">
        <ele>2255.6</ele>
        <time>2022-07-19T06:41:26Z</time>
      </trkpt>
      <trkpt lat="44.20533" lon="7.1521">
        <ele>2255.8</ele>
        <time>2022-07-19T06:41:28Z</time>
      </trkpt>
      <trkpt lat="44.20531" lon="7.15208">
        <ele>2256.2</ele>
        <time>2022-07-19T06:41:29Z</time>
      </trkpt>
      <trkpt lat="44.20529" lon="7.15207">
        <ele>2256.2</ele>
        <time>2022-07-19T06:41:30Z</time>
      </trkpt>
      <trkpt lat="44.20526" lon="7.15206">
        <ele>2256.6</ele>
        <time>2022-07-19T06:41:31Z</time>
      </trkpt>
      <trkpt lat="44.20524" lon="7.15204">
        <ele>2256.6</ele>
        <time>2022-07-19T06:41:32Z</time>
      </trkpt>
      <trkpt lat="44.20522" lon="7.15204">
        <ele>2256.8</ele>
        <time>2022-07-19T06:41:33Z</time>
      </trkpt>
      <trkpt lat="44.2052" lon="7.15203">
        <ele>2256.8</ele>
        <time>2022-07-19T06:41:34Z</time>
      </trkpt>
      <trkpt lat="44.20518" lon="7.15202">
        <ele>2256.8</ele>
        <time>2022-07-19T06:41:35Z</time>
      </trkpt>
      <trkpt lat="44.20515" lon="7.15201">
        <ele>2257</ele>
        <time>2022-07-19T06:41:36Z</time>
      </trkpt>
      <trkpt lat="44.20513" lon="7.15199">
        <ele>2257</ele>
        <time>2022-07-19T06:41:37Z</time>
      </trkpt>
      <trkpt lat="44.20511" lon="7.15199">
        <ele>2257.4</ele>
        <time>2022-07-19T06:41:38Z</time>
      </trkpt>
      <trkpt lat="44.20509" lon="7.15198">
        <ele>2257.4</ele>
        <time>2022-07-19T06:41:39Z</time>
      </trkpt>
      <trkpt lat="44.20507" lon="7.15197">
        <ele>2257.6</ele>
        <time>2022-07-19T06:41:40Z</time>
      </trkpt>
      <trkpt lat="44.20504" lon="7.15197">
        <ele>2257.6</ele>
        <time>2022-07-19T06:41:41Z</time>
      </trkpt>
      <trkpt lat="44.20502" lon="7.15196">
        <ele>2258</ele>
        <time>2022-07-19T06:41:42Z</time>
      </trkpt>
      <trkpt lat="44.205" lon="7.15196">
        <ele>2258</ele>
        <time>2022-07-19T06:41:43Z</time>
      </trkpt>
      <trkpt lat="44.20498" lon="7.15196">
        <ele>2258.2</ele>
        <time>2022-07-19T06:41:44Z</time>
      </trkpt>
      <trkpt lat="44.20496" lon="7.15196">
        <ele>2258.4</ele>
        <time>2022-07-19T06:41:45Z</time>
      </trkpt>
      <trkpt lat="44.20494" lon="7.15196">
        <ele>2258.4</ele>
        <time>2022-07-19T06:41:46Z</time>
      </trkpt>
      <trkpt lat="44.20492" lon="7.15196">
        <ele>2258.8</ele>
        <time>2022-07-19T06:41:47Z</time>
      </trkpt>
      <trkpt lat="44.2049" lon="7.15197">
        <ele>2258.8</ele>
        <time>2022-07-19T06:41:48Z</time>
      </trkpt>
      <trkpt lat="44.20488" lon="7.15197">
        <ele>2259</ele>
        <time>2022-07-19T06:41:49Z</time>
      </trkpt>
      <trkpt lat="44.20486" lon="7.15197">
        <ele>2259</ele>
        <time>2022-07-19T06:41:50Z</time>
      </trkpt>
      <trkpt lat="44.20484" lon="7.15198">
        <ele>2259.2</ele>
        <time>2022-07-19T06:41:51Z</time>
      </trkpt>
      <trkpt lat="44.20482" lon="7.15198">
        <ele>2259.2</ele>
        <time>2022-07-19T06:41:52Z</time>
      </trkpt>
      <trkpt lat="44.20481" lon="7.15198">
        <ele>2259.6</ele>
        <time>2022-07-19T06:41:53Z</time>
      </trkpt>
      <trkpt lat="44.20479" lon="7.15198">
        <ele>2259.6</ele>
        <time>2022-07-19T06:41:54Z</time>
      </trkpt>
      <trkpt lat="44.20476" lon="7.15198">
        <ele>2259.8</ele>
        <time>2022-07-19T06:41:55Z</time>
      </trkpt>
      <trkpt lat="44.20474" lon="7.15198">
        <ele>2259.8</ele>
        <time>2022-07-19T06:41:56Z</time>
      </trkpt>
      <trkpt lat="44.20472" lon="7.15197">
        <ele>2260</ele>
        <time>2022-07-19T06:41:57Z</time>
      </trkpt>
      <trkpt lat="44.2047" lon="7.15197">
        <ele>2260</ele>
        <time>2022-07-19T06:41:58Z</time>
      </trkpt>
      <trkpt lat="44.20468" lon="7.15197">
        <ele>2260.4</ele>
        <time>2022-07-19T06:41:59Z</time>
      </trkpt>
      <trkpt lat="44.20466" lon="7.15197">
        <ele>2260.4</ele>
        <time>2022-07-19T06:42:00Z</time>
      </trkpt>
      <trkpt lat="44.20464" lon="7.15197">
        <ele>2260.6</ele>
        <time>2022-07-19T06:42:01Z</time>
      </trkpt>
      <trkpt lat="44.20461" lon="7.15196">
        <ele>2260.6</ele>
        <time>2022-07-19T06:42:02Z</time>
      </trkpt>
      <trkpt lat="44.20459" lon="7.15195">
        <ele>2261</ele>
        <time>2022-07-19T06:42:03Z</time>
      </trkpt>
      <trkpt lat="44.20457" lon="7.15194">
        <ele>2261</ele>
        <time>2022-07-19T06:42:04Z</time>
      </trkpt>
      <trkpt lat="44.20456" lon="7.15192">
        <ele>2261.2</ele>
        <time>2022-07-19T06:42:05Z</time>
      </trkpt>
      <trkpt lat="44.20454" lon="7.1519">
        <ele>2261.2</ele>
        <time>2022-07-19T06:42:06Z</time>
      </trkpt>
      <trkpt lat="44.20453" lon="7.15188">
        <ele>2261.6</ele>
        <time>2022-07-19T06:42:07Z</time>
      </trkpt>
      <trkpt lat="44.20451" lon="7.15186">
        <ele>2261.8</ele>
        <time>2022-07-19T06:42:08Z</time>
      </trkpt>
      <trkpt lat="44.2045" lon="7.15184">
        <ele>2261.8</ele>
        <time>2022-07-19T06:42:09Z</time>
      </trkpt>
      <trkpt lat="44.20448" lon="7.15183">
        <ele>2262</ele>
        <time>2022-07-19T06:42:10Z</time>
      </trkpt>
      <trkpt lat="44.20447" lon="7.15181">
        <ele>2262.4</ele>
        <time>2022-07-19T06:42:11Z</time>
      </trkpt>
      <trkpt lat="44.20445" lon="7.15179">
        <ele>2262.4</ele>
        <time>2022-07-19T06:42:12Z</time>
      </trkpt>
      <trkpt lat="44.20443" lon="7.15177">
        <ele>2262.8</ele>
        <time>2022-07-19T06:42:13Z</time>
      </trkpt>
      <trkpt lat="44.20441" lon="7.15176">
        <ele>2262.8</ele>
        <time>2022-07-19T06:42:14Z</time>
      </trkpt>
      <trkpt lat="44.20439" lon="7.15175">
        <ele>2263</ele>
        <time>2022-07-19T06:42:15Z</time>
      </trkpt>
      <trkpt lat="44.20437" lon="7.15174">
        <ele>2263</ele>
        <time>2022-07-19T06:42:16Z</time>
      </trkpt>
      <trkpt lat="44.20435" lon="7.15173">
        <ele>2263.4</ele>
        <time>2022-07-19T06:42:17Z</time>
      </trkpt>
      <trkpt lat="44.20433" lon="7.15172">
        <ele>2263.4</ele>
        <time>2022-07-19T06:42:18Z</time>
      </trkpt>
      <trkpt lat="44.20431" lon="7.15171">
        <ele>2263.6</ele>
        <time>2022-07-19T06:42:19Z</time>
      </trkpt>
      <trkpt lat="44.2043" lon="7.1517">
        <ele>2263.6</ele>
        <time>2022-07-19T06:42:20Z</time>
      </trkpt>
      <trkpt lat="44.20428" lon="7.15169">
        <ele>2264</ele>
        <time>2022-07-19T06:42:21Z</time>
      </trkpt>
      <trkpt lat="44.20426" lon="7.15167">
        <ele>2264</ele>
        <time>2022-07-19T06:42:22Z</time>
      </trkpt>
      <trkpt lat="44.20425" lon="7.15166">
        <ele>2264.4</ele>
        <time>2022-07-19T06:42:23Z</time>
      </trkpt>
      <trkpt lat="44.20423" lon="7.15165">
        <ele>2264.4</ele>
        <time>2022-07-19T06:42:24Z</time>
      </trkpt>
      <trkpt lat="44.20421" lon="7.15165">
        <ele>2264.6</ele>
        <time>2022-07-19T06:42:25Z</time>
      </trkpt>
      <trkpt lat="44.20418" lon="7.15164">
        <ele>2264.6</ele>
        <time>2022-07-19T06:42:26Z</time>
      </trkpt>
      <trkpt lat="44.20416" lon="7.15164">
        <ele>2265</ele>
        <time>2022-07-19T06:42:27Z</time>
      </trkpt>
      <trkpt lat="44.20414" lon="7.15163">
        <ele>2265</ele>
        <time>2022-07-19T06:42:28Z</time>
      </trkpt>
      <trkpt lat="44.20411" lon="7.15162">
        <ele>2265.2</ele>
        <time>2022-07-19T06:42:29Z</time>
      </trkpt>
      <trkpt lat="44.20409" lon="7.15161">
        <ele>2265.2</ele>
        <time>2022-07-19T06:42:30Z</time>
      </trkpt>
      <trkpt lat="44.20406" lon="7.15159">
        <ele>2265.4</ele>
        <time>2022-07-19T06:42:31Z</time>
      </trkpt>
      <trkpt lat="44.20404" lon="7.15157">
        <ele>2265.4</ele>
        <time>2022-07-19T06:42:32Z</time>
      </trkpt>
      <trkpt lat="44.20402" lon="7.15155">
        <ele>2265.4</ele>
        <time>2022-07-19T06:42:33Z</time>
      </trkpt>
      <trkpt lat="44.20401" lon="7.15152">
        <ele>2265.8</ele>
        <time>2022-07-19T06:42:34Z</time>
      </trkpt>
      <trkpt lat="44.20399" lon="7.1515">
        <ele>2265.8</ele>
        <time>2022-07-19T06:42:35Z</time>
      </trkpt>
      <trkpt lat="44.20398" lon="7.15147">
        <ele>2266</ele>
        <time>2022-07-19T06:42:36Z</time>
      </trkpt>
      <trkpt lat="44.20397" lon="7.15145">
        <ele>2266</ele>
        <time>2022-07-19T06:42:37Z</time>
      </trkpt>
      <trkpt lat="44.20397" lon="7.15142">
        <ele>2266.4</ele>
        <time>2022-07-19T06:42:38Z</time>
      </trkpt>
      <trkpt lat="44.20396" lon="7.15138">
        <ele>2266.4</ele>
        <time>2022-07-19T06:42:39Z</time>
      </trkpt>
      <trkpt lat="44.20396" lon="7.15135">
        <ele>2266.4</ele>
        <time>2022-07-19T06:42:40Z</time>
      </trkpt>
      <trkpt lat="44.20396" lon="7.15132">
        <ele>2266.6</ele>
        <time>2022-07-19T06:42:41Z</time>
      </trkpt>
      <trkpt lat="44.20395" lon="7.15128">
        <ele>2266.6</ele>
        <time>2022-07-19T06:42:42Z</time>
      </trkpt>
      <trkpt lat="44.20395" lon="7.15125">
        <ele>2266.8</ele>
        <time>2022-07-19T06:42:43Z</time>
      </trkpt>
      <trkpt lat="44.20395" lon="7.15121">
        <ele>2266.8</ele>
        <time>2022-07-19T06:42:44Z</time>
      </trkpt>
      <trkpt lat="44.20395" lon="7.15118">
        <ele>2267.2</ele>
        <time>2022-07-19T06:42:45Z</time>
      </trkpt>
      <trkpt lat="44.20395" lon="7.15114">
        <ele>2267.4</ele>
        <time>2022-07-19T06:42:46Z</time>
      </trkpt>
      <trkpt lat="44.20394" lon="7.15111">
        <ele>2267.4</ele>
        <time>2022-07-19T06:42:47Z</time>
      </trkpt>
      <trkpt lat="44.20394" lon="7.15107">
        <ele>2267.4</ele>
        <time>2022-07-19T06:42:48Z</time>
      </trkpt>
      <trkpt lat="44.20393" lon="7.15104">
        <ele>2267.6</ele>
        <time>2022-07-19T06:42:49Z</time>
      </trkpt>
      <trkpt lat="44.20392" lon="7.151">
        <ele>2267.6</ele>
        <time>2022-07-19T06:42:50Z</time>
      </trkpt>
      <trkpt lat="44.20391" lon="7.15097">
        <ele>2267.8</ele>
        <time>2022-07-19T06:42:51Z</time>
      </trkpt>
      <trkpt lat="44.20389" lon="7.15094">
        <ele>2267.8</ele>
        <time>2022-07-19T06:42:52Z</time>
      </trkpt>
      <trkpt lat="44.20388" lon="7.15091">
        <ele>2268.2</ele>
        <time>2022-07-19T06:42:53Z</time>
      </trkpt>
      <trkpt lat="44.20386" lon="7.15089">
        <ele>2268.2</ele>
        <time>2022-07-19T06:42:54Z</time>
      </trkpt>
      <trkpt lat="44.20383" lon="7.15087">
        <ele>2268.4</ele>
        <time>2022-07-19T06:42:55Z</time>
      </trkpt>
      <trkpt lat="44.20381" lon="7.15086">
        <ele>2268.4</ele>
        <time>2022-07-19T06:42:56Z</time>
      </trkpt>
      <trkpt lat="44.20379" lon="7.15083">
        <ele>2268.6</ele>
        <time>2022-07-19T06:42:57Z</time>
      </trkpt>
      <trkpt lat="44.20377" lon="7.15081">
        <ele>2268.6</ele>
        <time>2022-07-19T06:42:58Z</time>
      </trkpt>
      <trkpt lat="44.20375" lon="7.15079">
        <ele>2269</ele>
        <time>2022-07-19T06:42:59Z</time>
      </trkpt>
      <trkpt lat="44.20373" lon="7.15077">
        <ele>2269</ele>
        <time>2022-07-19T06:43:00Z</time>
      </trkpt>
      <trkpt lat="44.20371" lon="7.15076">
        <ele>2269.4</ele>
        <time>2022-07-19T06:43:01Z</time>
      </trkpt>
      <trkpt lat="44.20369" lon="7.15075">
        <ele>2269.4</ele>
        <time>2022-07-19T06:43:02Z</time>
      </trkpt>
      <trkpt lat="44.20366" lon="7.15074">
        <ele>2269.6</ele>
        <time>2022-07-19T06:43:03Z</time>
      </trkpt>
      <trkpt lat="44.20364" lon="7.15073">
        <ele>2269.6</ele>
        <time>2022-07-19T06:43:04Z</time>
      </trkpt>
      <trkpt lat="44.20361" lon="7.15072">
        <ele>2269.6</ele>
        <time>2022-07-19T06:43:05Z</time>
      </trkpt>
      <trkpt lat="44.20359" lon="7.15071">
        <ele>2269.8</ele>
        <time>2022-07-19T06:43:06Z</time>
      </trkpt>
      <trkpt lat="44.20357" lon="7.15069">
        <ele>2269.8</ele>
        <time>2022-07-19T06:43:07Z</time>
      </trkpt>
      <trkpt lat="44.20355" lon="7.15068">
        <ele>2270.2</ele>
        <time>2022-07-19T06:43:08Z</time>
      </trkpt>
      <trkpt lat="44.20352" lon="7.15068">
        <ele>2270.2</ele>
        <time>2022-07-19T06:43:09Z</time>
      </trkpt>
      <trkpt lat="44.2035" lon="7.15067">
        <ele>2270.6</ele>
        <time>2022-07-19T06:43:10Z</time>
      </trkpt>
      <trkpt lat="44.20348" lon="7.15066">
        <ele>2270.8</ele>
        <time>2022-07-19T06:43:11Z</time>
      </trkpt>
      <trkpt lat="44.20346" lon="7.15065">
        <ele>2270.8</ele>
        <time>2022-07-19T06:43:12Z</time>
      </trkpt>
      <trkpt lat="44.20344" lon="7.15064">
        <ele>2271.2</ele>
        <time>2022-07-19T06:43:13Z</time>
      </trkpt>
      <trkpt lat="44.20341" lon="7.15063">
        <ele>2271.2</ele>
        <time>2022-07-19T06:43:14Z</time>
      </trkpt>
      <trkpt lat="44.2034" lon="7.15062">
        <ele>2271.6</ele>
        <time>2022-07-19T06:43:15Z</time>
      </trkpt>
      <trkpt lat="44.20337" lon="7.1506">
        <ele>2271.6</ele>
        <time>2022-07-19T06:43:16Z</time>
      </trkpt>
      <trkpt lat="44.20335" lon="7.15058">
        <ele>2271.6</ele>
        <time>2022-07-19T06:43:17Z</time>
      </trkpt>
      <trkpt lat="44.20334" lon="7.15056">
        <ele>2271.8</ele>
        <time>2022-07-19T06:43:18Z</time>
      </trkpt>
      <trkpt lat="44.20332" lon="7.15054">
        <ele>2271.8</ele>
        <time>2022-07-19T06:43:19Z</time>
      </trkpt>
      <trkpt lat="44.2033" lon="7.15052">
        <ele>2272.2</ele>
        <time>2022-07-19T06:43:20Z</time>
      </trkpt>
      <trkpt lat="44.20328" lon="7.1505">
        <ele>2272.4</ele>
        <time>2022-07-19T06:43:21Z</time>
      </trkpt>
      <trkpt lat="44.20327" lon="7.15047">
        <ele>2272.4</ele>
        <time>2022-07-19T06:43:22Z</time>
      </trkpt>
      <trkpt lat="44.20326" lon="7.15044">
        <ele>2272.8</ele>
        <time>2022-07-19T06:43:23Z</time>
      </trkpt>
      <trkpt lat="44.20324" lon="7.15041">
        <ele>2272.8</ele>
        <time>2022-07-19T06:43:24Z</time>
      </trkpt>
      <trkpt lat="44.20323" lon="7.15039">
        <ele>2272.8</ele>
        <time>2022-07-19T06:43:25Z</time>
      </trkpt>
      <trkpt lat="44.20321" lon="7.15036">
        <ele>2273.2</ele>
        <time>2022-07-19T06:43:26Z</time>
      </trkpt>
      <trkpt lat="44.20319" lon="7.15035">
        <ele>2273.2</ele>
        <time>2022-07-19T06:43:27Z</time>
      </trkpt>
      <trkpt lat="44.20317" lon="7.15033">
        <ele>2273.4</ele>
        <time>2022-07-19T06:43:28Z</time>
      </trkpt>
      <trkpt lat="44.20315" lon="7.15032">
        <ele>2273.4</ele>
        <time>2022-07-19T06:43:29Z</time>
      </trkpt>
      <trkpt lat="44.20313" lon="7.1503">
        <ele>2273.8</ele>
        <time>2022-07-19T06:43:30Z</time>
      </trkpt>
      <trkpt lat="44.20311" lon="7.15029">
        <ele>2273.8</ele>
        <time>2022-07-19T06:43:31Z</time>
      </trkpt>
      <trkpt lat="44.2031" lon="7.15027">
        <ele>2274</ele>
        <time>2022-07-19T06:43:32Z</time>
      </trkpt>
      <trkpt lat="44.20308" lon="7.15026">
        <ele>2274</ele>
        <time>2022-07-19T06:43:33Z</time>
      </trkpt>
      <trkpt lat="44.20305" lon="7.15025">
        <ele>2274.2</ele>
        <time>2022-07-19T06:43:34Z</time>
      </trkpt>
      <trkpt lat="44.20303" lon="7.15024">
        <ele>2274.2</ele>
        <time>2022-07-19T06:43:35Z</time>
      </trkpt>
      <trkpt lat="44.20301" lon="7.15023">
        <ele>2274.4</ele>
        <time>2022-07-19T06:43:36Z</time>
      </trkpt>
      <trkpt lat="44.20299" lon="7.15022">
        <ele>2274.4</ele>
        <time>2022-07-19T06:43:37Z</time>
      </trkpt>
      <trkpt lat="44.20297" lon="7.15021">
        <ele>2274.6</ele>
        <time>2022-07-19T06:43:38Z</time>
      </trkpt>
      <trkpt lat="44.20295" lon="7.15021">
        <ele>2274.6</ele>
        <time>2022-07-19T06:43:39Z</time>
      </trkpt>
      <trkpt lat="44.20293" lon="7.1502">
        <ele>2274.6</ele>
        <time>2022-07-19T06:43:40Z</time>
      </trkpt>
      <trkpt lat="44.20291" lon="7.1502">
        <ele>2275</ele>
        <time>2022-07-19T06:43:41Z</time>
      </trkpt>
      <trkpt lat="44.20289" lon="7.15019">
        <ele>2275</ele>
        <time>2022-07-19T06:43:42Z</time>
      </trkpt>
      <trkpt lat="44.20287" lon="7.15019">
        <ele>2275.2</ele>
        <time>2022-07-19T06:43:43Z</time>
      </trkpt>
      <trkpt lat="44.20285" lon="7.15018">
        <ele>2275.2</ele>
        <time>2022-07-19T06:43:44Z</time>
      </trkpt>
      <trkpt lat="44.20283" lon="7.15017">
        <ele>2275.4</ele>
        <time>2022-07-19T06:43:45Z</time>
      </trkpt>
      <trkpt lat="44.20281" lon="7.15017">
        <ele>2275.4</ele>
        <time>2022-07-19T06:43:46Z</time>
      </trkpt>
      <trkpt lat="44.20279" lon="7.15016">
        <ele>2275.4</ele>
        <time>2022-07-19T06:43:47Z</time>
      </trkpt>
      <trkpt lat="44.20277" lon="7.15015">
        <ele>2275.4</ele>
        <time>2022-07-19T06:43:48Z</time>
      </trkpt>
      <trkpt lat="44.20276" lon="7.15015">
        <ele>2275.6</ele>
        <time>2022-07-19T06:43:49Z</time>
      </trkpt>
      <trkpt lat="44.20276" lon="7.15014">
        <ele>2275.6</ele>
        <time>2022-07-19T06:43:50Z</time>
      </trkpt>
      <trkpt lat="44.20276" lon="7.15014">
        <ele>2275.6</ele>
        <time>2022-07-19T06:43:51Z</time>
      </trkpt>
      <trkpt lat="44.20275" lon="7.15014">
        <ele>2275.6</ele>
        <time>2022-07-19T06:43:52Z</time>
      </trkpt>
      <trkpt lat="44.20275" lon="7.15013">
        <ele>2275.6</ele>
        <time>2022-07-19T06:43:53Z</time>
      </trkpt>
      <trkpt lat="44.20274" lon="7.15013">
        <ele>2275.6</ele>
        <time>2022-07-19T06:43:54Z</time>
      </trkpt>
      <trkpt lat="44.20274" lon="7.15013">
        <ele>2275.6</ele>
        <time>2022-07-19T06:43:56Z</time>
      </trkpt>
      <trkpt lat="44.20274" lon="7.15013">
        <ele>2275.8</ele>
        <time>2022-07-19T06:43:57Z</time>
      </trkpt>
      <trkpt lat="44.20273" lon="7.15012">
        <ele>2275.8</ele>
        <time>2022-07-19T06:43:58Z</time>
      </trkpt>
      <trkpt lat="44.20273" lon="7.15012">
        <ele>2275.8</ele>
        <time>2022-07-19T06:43:59Z</time>
      </trkpt>
      <trkpt lat="44.20273" lon="7.15012">
        <ele>2275.8</ele>
        <time>2022-07-19T06:44:00Z</time>
      </trkpt>
      <trkpt lat="44.20272" lon="7.15011">
        <ele>2275.8</ele>
        <time>2022-07-19T06:44:01Z</time>
      </trkpt>
      <trkpt lat="44.20272" lon="7.15011">
        <ele>2275.6</ele>
        <time>2022-07-19T06:44:51Z</time>
      </trkpt>
      <trkpt lat="44.20272" lon="7.15011">
        <ele>2275.6</ele>
        <time>2022-07-19T06:44:52Z</time>
      </trkpt>
      <trkpt lat="44.20271" lon="7.1501">
        <ele>2275.6</ele>
        <time>2022-07-19T06:44:53Z</time>
      </trkpt>
      <trkpt lat="44.20271" lon="7.1501">
        <ele>2275.6</ele>
        <time>2022-07-19T06:44:54Z</time>
      </trkpt>
      <trkpt lat="44.2027" lon="7.1501">
        <ele>2275.8</ele>
        <time>2022-07-19T06:44:55Z</time>
      </trkpt>
      <trkpt lat="44.2027" lon="7.1501">
        <ele>2275.8</ele>
        <time>2022-07-19T06:44:56Z</time>
      </trkpt>
      <trkpt lat="44.2027" lon="7.15009">
        <ele>2275.8</ele>
        <time>2022-07-19T06:44:57Z</time>
      </trkpt>
      <trkpt lat="44.20269" lon="7.15009">
        <ele>2275.8</ele>
        <time>2022-07-19T06:44:59Z</time>
      </trkpt>
      <trkpt lat="44.20269" lon="7.15009">
        <ele>2276</ele>
        <time>2022-07-19T06:45:00Z</time>
      </trkpt>
      <trkpt lat="44.20269" lon="7.15008">
        <ele>2276</ele>
        <time>2022-07-19T06:45:01Z</time>
      </trkpt>
      <trkpt lat="44.20268" lon="7.15008">
        <ele>2276</ele>
        <time>2022-07-19T06:45:02Z</time>
      </trkpt>
      <trkpt lat="44.20268" lon="7.15008">
        <ele>2276</ele>
        <time>2022-07-19T06:45:04Z</time>
      </trkpt>
      <trkpt lat="44.20268" lon="7.15008">
        <ele>2276</ele>
        <time>2022-07-19T06:45:05Z</time>
      </trkpt>
      <trkpt lat="44.20267" lon="7.15007">
        <ele>2276</ele>
        <time>2022-07-19T06:46:55Z</time>
      </trkpt>
      <trkpt lat="44.20267" lon="7.15007">
        <ele>2276</ele>
        <time>2022-07-19T06:46:56Z</time>
      </trkpt>
      <trkpt lat="44.20266" lon="7.15007">
        <ele>2276</ele>
        <time>2022-07-19T06:46:57Z</time>
      </trkpt>
      <trkpt lat="44.20266" lon="7.15006">
        <ele>2276</ele>
        <time>2022-07-19T06:46:58Z</time>
      </trkpt>
      <trkpt lat="44.20266" lon="7.15006">
        <ele>2276</ele>
        <time>2022-07-19T06:46:59Z</time>
      </trkpt>
      <trkpt lat="44.20265" lon="7.15006">
        <ele>2276</ele>
        <time>2022-07-19T06:47:00Z</time>
      </trkpt>
      <trkpt lat="44.20265" lon="7.15005">
        <ele>2276</ele>
        <time>2022-07-19T06:47:01Z</time>
      </trkpt>
      <trkpt lat="44.20265" lon="7.15005">
        <ele>2276.2</ele>
        <time>2022-07-19T06:47:05Z</time>
      </trkpt>
      <trkpt lat="44.20264" lon="7.15005">
        <ele>2276.2</ele>
        <time>2022-07-19T06:47:06Z</time>
      </trkpt>
      <trkpt lat="44.20264" lon="7.15005">
        <ele>2276.2</ele>
        <time>2022-07-19T06:47:07Z</time>
      </trkpt>
      <trkpt lat="44.20263" lon="7.15005">
        <ele>2276</ele>
        <time>2022-07-19T06:47:08Z</time>
      </trkpt>
      <trkpt lat="44.20263" lon="7.15006">
        <ele>2276</ele>
        <time>2022-07-19T06:47:09Z</time>
      </trkpt>
      <trkpt lat="44.20262" lon="7.15006">
        <ele>2275.8</ele>
        <time>2022-07-19T06:47:10Z</time>
      </trkpt>
      <trkpt lat="44.20262" lon="7.15007">
        <ele>2275.8</ele>
        <time>2022-07-19T06:47:11Z</time>
      </trkpt>
      <trkpt lat="44.20262" lon="7.15007">
        <ele>2275.8</ele>
        <time>2022-07-19T06:47:12Z</time>
      </trkpt>
      <trkpt lat="44.20262" lon="7.15008">
        <ele>2275.8</ele>
        <time>2022-07-19T06:47:15Z</time>
      </trkpt>
      <trkpt lat="44.20261" lon="7.15008">
        <ele>2275.8</ele>
        <time>2022-07-19T06:47:16Z</time>
      </trkpt>
      <trkpt lat="44.20261" lon="7.15008">
        <ele>2275.8</ele>
        <time>2022-07-19T06:47:23Z</time>
      </trkpt>
      <trkpt lat="44.20261" lon="7.15009">
        <ele>2275.8</ele>
        <time>2022-07-19T06:47:24Z</time>
      </trkpt>
      <trkpt lat="44.20261" lon="7.15009">
        <ele>2275.8</ele>
        <time>2022-07-19T06:47:25Z</time>
      </trkpt>
      <trkpt lat="44.2026" lon="7.1501">
        <ele>2275.8</ele>
        <time>2022-07-19T06:47:26Z</time>
      </trkpt>
      <trkpt lat="44.2026" lon="7.1501">
        <ele>2275.8</ele>
        <time>2022-07-19T06:47:27Z</time>
      </trkpt>
      <trkpt lat="44.2026" lon="7.15011">
        <ele>2275.8</ele>
        <time>2022-07-19T06:47:28Z</time>
      </trkpt>
      <trkpt lat="44.2026" lon="7.15011">
        <ele>2275.8</ele>
        <time>2022-07-19T06:47:29Z</time>
      </trkpt>
      <trkpt lat="44.20259" lon="7.15012">
        <ele>2275.8</ele>
        <time>2022-07-19T06:47:30Z</time>
      </trkpt>
      <trkpt lat="44.20259" lon="7.15012">
        <ele>2275.8</ele>
        <time>2022-07-19T06:47:31Z</time>
      </trkpt>
      <trkpt lat="44.20259" lon="7.15013">
        <ele>2275.8</ele>
        <time>2022-07-19T06:47:33Z</time>
      </trkpt>
      <trkpt lat="44.20259" lon="7.15013">
        <ele>2275.4</ele>
        <time>2022-07-19T06:47:34Z</time>
      </trkpt>
      <trkpt lat="44.20258" lon="7.15014">
        <ele>2275.4</ele>
        <time>2022-07-19T06:47:35Z</time>
      </trkpt>
      <trkpt lat="44.20258" lon="7.15014">
        <ele>2275.4</ele>
        <time>2022-07-19T06:47:42Z</time>
      </trkpt>
      <trkpt lat="44.20258" lon="7.15015">
        <ele>2275.4</ele>
        <time>2022-07-19T06:47:43Z</time>
      </trkpt>
      <trkpt lat="44.20258" lon="7.15015">
        <ele>2275.4</ele>
        <time>2022-07-19T06:47:46Z</time>
      </trkpt>
      <trkpt lat="44.20257" lon="7.15016">
        <ele>2275.4</ele>
        <time>2022-07-19T06:47:47Z</time>
      </trkpt>
      <trkpt lat="44.20257" lon="7.15016">
        <ele>2275.4</ele>
        <time>2022-07-19T06:47:48Z</time>
      </trkpt>
      <trkpt lat="44.20257" lon="7.15017">
        <ele>2275.8</ele>
        <time>2022-07-19T06:48:01Z</time>
      </trkpt>
      <trkpt lat="44.20257" lon="7.15017">
        <ele>2275.8</ele>
        <time>2022-07-19T06:48:02Z</time>
      </trkpt>
      <trkpt lat="44.20257" lon="7.15018">
        <ele>2275.8</ele>
        <time>2022-07-19T06:48:03Z</time>
      </trkpt>
      <trkpt lat="44.20257" lon="7.15017">
        <ele>2275.8</ele>
        <time>2022-07-19T06:48:04Z</time>
      </trkpt>
      <trkpt lat="44.20257" lon="7.15017">
        <ele>2275.8</ele>
        <time>2022-07-19T06:48:05Z</time>
      </trkpt>
      <trkpt lat="44.20257" lon="7.15017">
        <ele>2275.8</ele>
        <time>2022-07-19T06:48:06Z</time>
      </trkpt>
      <trkpt lat="44.20257" lon="7.15016">
        <ele>2275.8</ele>
        <time>2022-07-19T06:48:07Z</time>
      </trkpt>
      <trkpt lat="44.20256" lon="7.15016">
        <ele>2275.8</ele>
        <time>2022-07-19T06:48:12Z</time>
      </trkpt>
      <trkpt lat="44.20256" lon="7.15015">
        <ele>2275.8</ele>
        <time>2022-07-19T06:48:13Z</time>
      </trkpt>
      <trkpt lat="44.20256" lon="7.15015">
        <ele>2275.8</ele>
        <time>2022-07-19T06:48:14Z</time>
      </trkpt>
      <trkpt lat="44.20256" lon="7.15015">
        <ele>2275.8</ele>
        <time>2022-07-19T06:48:15Z</time>
      </trkpt>
      <trkpt lat="44.20256" lon="7.15014">
        <ele>2275.8</ele>
        <time>2022-07-19T06:48:16Z</time>
      </trkpt>
      <trkpt lat="44.20256" lon="7.15014">
        <ele>2276</ele>
        <time>2022-07-19T06:55:01Z</time>
      </trkpt>
      <trkpt lat="44.20256" lon="7.15013">
        <ele>2276</ele>
        <time>2022-07-19T06:55:02Z</time>
      </trkpt>
      <trkpt lat="44.20256" lon="7.15013">
        <ele>2276</ele>
        <time>2022-07-19T06:55:03Z</time>
      </trkpt>
      <trkpt lat="44.20256" lon="7.15012">
        <ele>2276</ele>
        <time>2022-07-19T06:55:04Z</time>
      </trkpt>
      <trkpt lat="44.20256" lon="7.15012">
        <ele>2276</ele>
        <time>2022-07-19T06:55:05Z</time>
      </trkpt>
      <trkpt lat="44.20256" lon="7.15012">
        <ele>2276</ele>
        <time>2022-07-19T06:55:06Z</time>
      </trkpt>
      <trkpt lat="44.20256" lon="7.15011">
        <ele>2276</ele>
        <time>2022-07-19T06:55:12Z</time>
      </trkpt>
      <trkpt lat="44.20256" lon="7.15011">
        <ele>2276</ele>
        <time>2022-07-19T06:55:13Z</time>
      </trkpt>
      <trkpt lat="44.20256" lon="7.1501">
        <ele>2276</ele>
        <time>2022-07-19T06:55:14Z</time>
      </trkpt>
      <trkpt lat="44.20256" lon="7.1501">
        <ele>2276</ele>
        <time>2022-07-19T06:55:15Z</time>
      </trkpt>
      <trkpt lat="44.20255" lon="7.1501">
        <ele>2276</ele>
        <time>2022-07-19T06:55:16Z</time>
      </trkpt>
      <trkpt lat="44.20255" lon="7.15009">
        <ele>2276</ele>
        <time>2022-07-19T06:55:17Z</time>
      </trkpt>
      <trkpt lat="44.20254" lon="7.15008">
        <ele>2276</ele>
        <time>2022-07-19T06:55:18Z</time>
      </trkpt>
      <trkpt lat="44.20252" lon="7.15008">
        <ele>2276</ele>
        <time>2022-07-19T06:55:19Z</time>
      </trkpt>
      <trkpt lat="44.2025" lon="7.15008">
        <ele>2276</ele>
        <time>2022-07-19T06:55:20Z</time>
      </trkpt>
      <trkpt lat="44.20246" lon="7.15008">
        <ele>2275.8</ele>
        <time>2022-07-19T06:55:21Z</time>
      </trkpt>
      <trkpt lat="44.20243" lon="7.15009">
        <ele>2275.8</ele>
        <time>2022-07-19T06:55:22Z</time>
      </trkpt>
      <trkpt lat="44.20238" lon="7.15008">
        <ele>2275.4</ele>
        <time>2022-07-19T06:55:23Z</time>
      </trkpt>
      <trkpt lat="44.20233" lon="7.15008">
        <ele>2275</ele>
        <time>2022-07-19T06:55:24Z</time>
      </trkpt>
      <trkpt lat="44.20227" lon="7.15007">
        <ele>2274.6</ele>
        <time>2022-07-19T06:55:25Z</time>
      </trkpt>
      <trkpt lat="44.2022" lon="7.15006">
        <ele>2273.6</ele>
        <time>2022-07-19T06:55:27Z</time>
      </trkpt>
      <trkpt lat="44.20213" lon="7.15004">
        <ele>2273.2</ele>
        <time>2022-07-19T06:55:28Z</time>
      </trkpt>
      <trkpt lat="44.20206" lon="7.15">
        <ele>2272.4</ele>
        <time>2022-07-19T06:55:29Z</time>
      </trkpt>
      <trkpt lat="44.20201" lon="7.14996">
        <ele>2271.6</ele>
        <time>2022-07-19T06:55:30Z</time>
      </trkpt>
      <trkpt lat="44.20195" lon="7.14991">
        <ele>2271</ele>
        <time>2022-07-19T06:55:31Z</time>
      </trkpt>
      <trkpt lat="44.2019" lon="7.14988">
        <ele>2270.2</ele>
        <time>2022-07-19T06:55:32Z</time>
      </trkpt>
      <trkpt lat="44.20185" lon="7.14989">
        <ele>2269.4</ele>
        <time>2022-07-19T06:55:33Z</time>
      </trkpt>
      <trkpt lat="44.2018" lon="7.14991">
        <ele>2268.6</ele>
        <time>2022-07-19T06:55:34Z</time>
      </trkpt>
      <trkpt lat="44.20176" lon="7.14997">
        <ele>2268</ele>
        <time>2022-07-19T06:55:35Z</time>
      </trkpt>
      <trkpt lat="44.20174" lon="7.15004">
        <ele>2267.2</ele>
        <time>2022-07-19T06:55:36Z</time>
      </trkpt>
      <trkpt lat="44.20172" lon="7.15014">
        <ele>2266.6</ele>
        <time>2022-07-19T06:55:37Z</time>
      </trkpt>
      <trkpt lat="44.20172" lon="7.15024">
        <ele>2265.6</ele>
        <time>2022-07-19T06:55:38Z</time>
      </trkpt>
      <trkpt lat="44.20173" lon="7.15032">
        <ele>2264.8</ele>
        <time>2022-07-19T06:55:39Z</time>
      </trkpt>
      <trkpt lat="44.20175" lon="7.1504">
        <ele>2264</ele>
        <time>2022-07-19T06:55:40Z</time>
      </trkpt>
      <trkpt lat="44.20178" lon="7.15047">
        <ele>2263.4</ele>
        <time>2022-07-19T06:55:41Z</time>
      </trkpt>
      <trkpt lat="44.20182" lon="7.15051">
        <ele>2262.6</ele>
        <time>2022-07-19T06:55:42Z</time>
      </trkpt>
      <trkpt lat="44.20187" lon="7.15055">
        <ele>2262.2</ele>
        <time>2022-07-19T06:55:43Z</time>
      </trkpt>
      <trkpt lat="44.20191" lon="7.15056">
        <ele>2261.8</ele>
        <time>2022-07-19T06:55:44Z</time>
      </trkpt>
      <trkpt lat="44.20196" lon="7.15056">
        <ele>2261.4</ele>
        <time>2022-07-19T06:55:45Z</time>
      </trkpt>
      <trkpt lat="44.202" lon="7.15057">
        <ele>2261</ele>
        <time>2022-07-19T06:55:46Z</time>
      </trkpt>
      <trkpt lat="44.20204" lon="7.15059">
        <ele>2260.8</ele>
        <time>2022-07-19T06:55:47Z</time>
      </trkpt>
      <trkpt lat="44.20207" lon="7.15063">
        <ele>2260.4</ele>
        <time>2022-07-19T06:55:48Z</time>
      </trkpt>
      <trkpt lat="44.20208" lon="7.1507">
        <ele>2259.8</ele>
        <time>2022-07-19T06:55:49Z</time>
      </trkpt>
      <trkpt lat="44.20206" lon="7.15078">
        <ele>2259.2</ele>
        <time>2022-07-19T06:55:50Z</time>
      </trkpt>
      <trkpt lat="44.20202" lon="7.15085">
        <ele>2258.6</ele>
        <time>2022-07-19T06:55:51Z</time>
      </trkpt>
      <trkpt lat="44.20196" lon="7.15093">
        <ele>2257.8</ele>
        <time>2022-07-19T06:55:52Z</time>
      </trkpt>
      <trkpt lat="44.20192" lon="7.15101">
        <ele>2257.2</ele>
        <time>2022-07-19T06:55:53Z</time>
      </trkpt>
      <trkpt lat="44.20189" lon="7.15109">
        <ele>2256.4</ele>
        <time>2022-07-19T06:55:54Z</time>
      </trkpt>
      <trkpt lat="44.20187" lon="7.15118">
        <ele>2255.6</ele>
        <time>2022-07-19T06:55:55Z</time>
      </trkpt>
      <trkpt lat="44.20188" lon="7.15129">
        <ele>2254.8</ele>
        <time>2022-07-19T06:55:56Z</time>
      </trkpt>
      <trkpt lat="44.2019" lon="7.15139">
        <ele>2254.2</ele>
        <time>2022-07-19T06:55:57Z</time>
      </trkpt>
      <trkpt lat="44.20194" lon="7.15149">
        <ele>2253.4</ele>
        <time>2022-07-19T06:55:58Z</time>
      </trkpt>
      <trkpt lat="44.20197" lon="7.15159">
        <ele>2252.8</ele>
        <time>2022-07-19T06:55:59Z</time>
      </trkpt>
      <trkpt lat="44.20197" lon="7.15171">
        <ele>2252</ele>
        <time>2022-07-19T06:56:00Z</time>
      </trkpt>
      <trkpt lat="44.20195" lon="7.15183">
        <ele>2251.4</ele>
        <time>2022-07-19T06:56:01Z</time>
      </trkpt>
      <trkpt lat="44.20193" lon="7.15195">
        <ele>2250.8</ele>
        <time>2022-07-19T06:56:02Z</time>
      </trkpt>
      <trkpt lat="44.20191" lon="7.1521">
        <ele>2250</ele>
        <time>2022-07-19T06:56:03Z</time>
      </trkpt>
      <trkpt lat="44.2019" lon="7.15224">
        <ele>2249.2</ele>
        <time>2022-07-19T06:56:04Z</time>
      </trkpt>
      <trkpt lat="44.2019" lon="7.1524">
        <ele>2248.4</ele>
        <time>2022-07-19T06:56:05Z</time>
      </trkpt>
      <trkpt lat="44.20188" lon="7.15254">
        <ele>2247.6</ele>
        <time>2022-07-19T06:56:06Z</time>
      </trkpt>
      <trkpt lat="44.20184" lon="7.15267">
        <ele>2246.8</ele>
        <time>2022-07-19T06:56:07Z</time>
      </trkpt>
      <trkpt lat="44.20179" lon="7.15278">
        <ele>2246.2</ele>
        <time>2022-07-19T06:56:08Z</time>
      </trkpt>
      <trkpt lat="44.20172" lon="7.15289">
        <ele>2245.2</ele>
        <time>2022-07-19T06:56:09Z</time>
      </trkpt>
      <trkpt lat="44.20166" lon="7.153">
        <ele>2244.4</ele>
        <time>2022-07-19T06:56:10Z</time>
      </trkpt>
      <trkpt lat="44.20161" lon="7.15309">
        <ele>2243.6</ele>
        <time>2022-07-19T06:56:11Z</time>
      </trkpt>
      <trkpt lat="44.20157" lon="7.15319">
        <ele>2242.6</ele>
        <time>2022-07-19T06:56:12Z</time>
      </trkpt>
      <trkpt lat="44.20155" lon="7.15329">
        <ele>2241.8</ele>
        <time>2022-07-19T06:56:13Z</time>
      </trkpt>
      <trkpt lat="44.20155" lon="7.15341">
        <ele>2240.8</ele>
        <time>2022-07-19T06:56:14Z</time>
      </trkpt>
      <trkpt lat="44.20156" lon="7.15355">
        <ele>2239.8</ele>
        <time>2022-07-19T06:56:15Z</time>
      </trkpt>
      <trkpt lat="44.2016" lon="7.15371">
        <ele>2238.8</ele>
        <time>2022-07-19T06:56:16Z</time>
      </trkpt>
      <trkpt lat="44.20163" lon="7.15385">
        <ele>2238</ele>
        <time>2022-07-19T06:56:17Z</time>
      </trkpt>
      <trkpt lat="44.20163" lon="7.154">
        <ele>2237</ele>
        <time>2022-07-19T06:56:18Z</time>
      </trkpt>
      <trkpt lat="44.20161" lon="7.15414">
        <ele>2236</ele>
        <time>2022-07-19T06:56:19Z</time>
      </trkpt>
      <trkpt lat="44.20156" lon="7.15429">
        <ele>2235.2</ele>
        <time>2022-07-19T06:56:20Z</time>
      </trkpt>
      <trkpt lat="44.20151" lon="7.15444">
        <ele>2234.2</ele>
        <time>2022-07-19T06:56:21Z</time>
      </trkpt>
      <trkpt lat="44.20144" lon="7.15466">
        <ele>2233.4</ele>
        <time>2022-07-19T06:56:22Z</time>
      </trkpt>
      <trkpt lat="44.20142" lon="7.15472">
        <ele>2232.2</ele>
        <time>2022-07-19T06:56:23Z</time>
      </trkpt>
      <trkpt lat="44.20137" lon="7.15486">
        <ele>2231.2</ele>
        <time>2022-07-19T06:56:24Z</time>
      </trkpt>
      <trkpt lat="44.2013" lon="7.15496">
        <ele>2230.4</ele>
        <time>2022-07-19T06:56:25Z</time>
      </trkpt>
      <trkpt lat="44.20123" lon="7.15506">
        <ele>2229.4</ele>
        <time>2022-07-19T06:56:26Z</time>
      </trkpt>
      <trkpt lat="44.20116" lon="7.15514">
        <ele>2228.4</ele>
        <time>2022-07-19T06:56:27Z</time>
      </trkpt>
      <trkpt lat="44.20109" lon="7.15521">
        <ele>2227.6</ele>
        <time>2022-07-19T06:56:28Z</time>
      </trkpt>
      <trkpt lat="44.20101" lon="7.15524">
        <ele>2226.6</ele>
        <time>2022-07-19T06:56:29Z</time>
      </trkpt>
      <trkpt lat="44.20092" lon="7.15525">
        <ele>2225.8</ele>
        <time>2022-07-19T06:56:30Z</time>
      </trkpt>
      <trkpt lat="44.20085" lon="7.15523">
        <ele>2225</ele>
        <time>2022-07-19T06:56:31Z</time>
      </trkpt>
      <trkpt lat="44.20077" lon="7.15522">
        <ele>2224.4</ele>
        <time>2022-07-19T06:56:32Z</time>
      </trkpt>
      <trkpt lat="44.2007" lon="7.15523">
        <ele>2223.6</ele>
        <time>2022-07-19T06:56:33Z</time>
      </trkpt>
      <trkpt lat="44.20063" lon="7.15525">
        <ele>2223</ele>
        <time>2022-07-19T06:56:34Z</time>
      </trkpt>
      <trkpt lat="44.20056" lon="7.15529">
        <ele>2222.4</ele>
        <time>2022-07-19T06:56:35Z</time>
      </trkpt>
      <trkpt lat="44.2005" lon="7.15535">
        <ele>2221.8</ele>
        <time>2022-07-19T06:56:36Z</time>
      </trkpt>
      <trkpt lat="44.20044" lon="7.15542">
        <ele>2221</ele>
        <time>2022-07-19T06:56:37Z</time>
      </trkpt>
      <trkpt lat="44.20039" lon="7.1555">
        <ele>2220.2</ele>
        <time>2022-07-19T06:56:38Z</time>
      </trkpt>
      <trkpt lat="44.20035" lon="7.1556">
        <ele>2219.4</ele>
        <time>2022-07-19T06:56:39Z</time>
      </trkpt>
      <trkpt lat="44.20033" lon="7.15572">
        <ele>2218.6</ele>
        <time>2022-07-19T06:56:40Z</time>
      </trkpt>
      <trkpt lat="44.20031" lon="7.15583">
        <ele>2217.8</ele>
        <time>2022-07-19T06:56:41Z</time>
      </trkpt>
      <trkpt lat="44.20031" lon="7.15595">
        <ele>2217</ele>
        <time>2022-07-19T06:56:42Z</time>
      </trkpt>
      <trkpt lat="44.20031" lon="7.15606">
        <ele>2216.2</ele>
        <time>2022-07-19T06:56:43Z</time>
      </trkpt>
      <trkpt lat="44.20033" lon="7.15615">
        <ele>2215.6</ele>
        <time>2022-07-19T06:56:44Z</time>
      </trkpt>
      <trkpt lat="44.20034" lon="7.15623">
        <ele>2214.8</ele>
        <time>2022-07-19T06:56:45Z</time>
      </trkpt>
      <trkpt lat="44.20034" lon="7.1563">
        <ele>2214.2</ele>
        <time>2022-07-19T06:56:46Z</time>
      </trkpt>
      <trkpt lat="44.20032" lon="7.15634">
        <ele>2213.8</ele>
        <time>2022-07-19T06:56:47Z</time>
      </trkpt>
      <trkpt lat="44.20029" lon="7.15637">
        <ele>2213.4</ele>
        <time>2022-07-19T06:56:48Z</time>
      </trkpt>
      <trkpt lat="44.20025" lon="7.15635">
        <ele>2213</ele>
        <time>2022-07-19T06:56:49Z</time>
      </trkpt>
      <trkpt lat="44.20023" lon="7.15629">
        <ele>2212.6</ele>
        <time>2022-07-19T06:56:50Z</time>
      </trkpt>
      <trkpt lat="44.20021" lon="7.15622">
        <ele>2212.2</ele>
        <time>2022-07-19T06:56:51Z</time>
      </trkpt>
      <trkpt lat="44.20021" lon="7.15613">
        <ele>2211.6</ele>
        <time>2022-07-19T06:56:52Z</time>
      </trkpt>
      <trkpt lat="44.2002" lon="7.15604">
        <ele>2211.2</ele>
        <time>2022-07-19T06:56:53Z</time>
      </trkpt>
      <trkpt lat="44.20019" lon="7.15595">
        <ele>2210.6</ele>
        <time>2022-07-19T06:56:54Z</time>
      </trkpt>
      <trkpt lat="44.20018" lon="7.15586">
        <ele>2210.2</ele>
        <time>2022-07-19T06:56:55Z</time>
      </trkpt>
      <trkpt lat="44.20016" lon="7.15575">
        <ele>2209.6</ele>
        <time>2022-07-19T06:56:56Z</time>
      </trkpt>
      <trkpt lat="44.20015" lon="7.15563">
        <ele>2209</ele>
        <time>2022-07-19T06:56:57Z</time>
      </trkpt>
      <trkpt lat="44.20013" lon="7.15551">
        <ele>2208.4</ele>
        <time>2022-07-19T06:56:58Z</time>
      </trkpt>
      <trkpt lat="44.20011" lon="7.15538">
        <ele>2207.8</ele>
        <time>2022-07-19T06:56:59Z</time>
      </trkpt>
      <trkpt lat="44.20005" lon="7.15526">
        <ele>2207</ele>
        <time>2022-07-19T06:57:00Z</time>
      </trkpt>
      <trkpt lat="44.19999" lon="7.15515">
        <ele>2206.2</ele>
        <time>2022-07-19T06:57:01Z</time>
      </trkpt>
      <trkpt lat="44.19992" lon="7.15505">
        <ele>2205.6</ele>
        <time>2022-07-19T06:57:02Z</time>
      </trkpt>
      <trkpt lat="44.19985" lon="7.15496">
        <ele>2204.8</ele>
        <time>2022-07-19T06:57:03Z</time>
      </trkpt>
      <trkpt lat="44.19978" lon="7.15486">
        <ele>2204</ele>
        <time>2022-07-19T06:57:04Z</time>
      </trkpt>
      <trkpt lat="44.1997" lon="7.15478">
        <ele>2203</ele>
        <time>2022-07-19T06:57:05Z</time>
      </trkpt>
      <trkpt lat="44.19962" lon="7.15472">
        <ele>2202.2</ele>
        <time>2022-07-19T06:57:06Z</time>
      </trkpt>
      <trkpt lat="44.19953" lon="7.15467">
        <ele>2201.2</ele>
        <time>2022-07-19T06:57:07Z</time>
      </trkpt>
      <trkpt lat="44.19944" lon="7.15464">
        <ele>2200.4</ele>
        <time>2022-07-19T06:57:08Z</time>
      </trkpt>
      <trkpt lat="44.19936" lon="7.15461">
        <ele>2199.6</ele>
        <time>2022-07-19T06:57:09Z</time>
      </trkpt>
      <trkpt lat="44.19929" lon="7.15456">
        <ele>2198.6</ele>
        <time>2022-07-19T06:57:10Z</time>
      </trkpt>
      <trkpt lat="44.19924" lon="7.15449">
        <ele>2197.8</ele>
        <time>2022-07-19T06:57:11Z</time>
      </trkpt>
      <trkpt lat="44.19919" lon="7.15441">
        <ele>2197</ele>
        <time>2022-07-19T06:57:12Z</time>
      </trkpt>
      <trkpt lat="44.19915" lon="7.15432">
        <ele>2196.2</ele>
        <time>2022-07-19T06:57:13Z</time>
      </trkpt>
      <trkpt lat="44.19912" lon="7.15423">
        <ele>2195.6</ele>
        <time>2022-07-19T06:57:14Z</time>
      </trkpt>
      <trkpt lat="44.19908" lon="7.15413">
        <ele>2194.8</ele>
        <time>2022-07-19T06:57:15Z</time>
      </trkpt>
      <trkpt lat="44.19905" lon="7.15404">
        <ele>2194.2</ele>
        <time>2022-07-19T06:57:16Z</time>
      </trkpt>
      <trkpt lat="44.19901" lon="7.15398">
        <ele>2193.8</ele>
        <time>2022-07-19T06:57:17Z</time>
      </trkpt>
      <trkpt lat="44.19896" lon="7.15394">
        <ele>2193.2</ele>
        <time>2022-07-19T06:57:18Z</time>
      </trkpt>
      <trkpt lat="44.19892" lon="7.15394">
        <ele>2192.8</ele>
        <time>2022-07-19T06:57:19Z</time>
      </trkpt>
      <trkpt lat="44.19888" lon="7.15397">
        <ele>2192.4</ele>
        <time>2022-07-19T06:57:20Z</time>
      </trkpt>
      <trkpt lat="44.19885" lon="7.15402">
        <ele>2192</ele>
        <time>2022-07-19T06:57:21Z</time>
      </trkpt>
      <trkpt lat="44.19884" lon="7.15409">
        <ele>2191.6</ele>
        <time>2022-07-19T06:57:22Z</time>
      </trkpt>
      <trkpt lat="44.19883" lon="7.15415">
        <ele>2191.4</ele>
        <time>2022-07-19T06:57:23Z</time>
      </trkpt>
      <trkpt lat="44.19881" lon="7.15421">
        <ele>2191</ele>
        <time>2022-07-19T06:57:24Z</time>
      </trkpt>
      <trkpt lat="44.19881" lon="7.15427">
        <ele>2190.6</ele>
        <time>2022-07-19T06:57:25Z</time>
      </trkpt>
      <trkpt lat="44.1988" lon="7.15432">
        <ele>2190.2</ele>
        <time>2022-07-19T06:57:26Z</time>
      </trkpt>
      <trkpt lat="44.1988" lon="7.15436">
        <ele>2190</ele>
        <time>2022-07-19T06:57:27Z</time>
      </trkpt>
      <trkpt lat="44.19879" lon="7.15439">
        <ele>2189.8</ele>
        <time>2022-07-19T06:57:28Z</time>
      </trkpt>
      <trkpt lat="44.19879" lon="7.1544">
        <ele>2189.8</ele>
        <time>2022-07-19T06:57:29Z</time>
      </trkpt>
      <trkpt lat="44.19879" lon="7.1544">
        <ele>2189.4</ele>
        <time>2022-07-19T06:57:30Z</time>
      </trkpt>
      <trkpt lat="44.1988" lon="7.1544">
        <ele>2189.4</ele>
        <time>2022-07-19T06:57:31Z</time>
      </trkpt>
      <trkpt lat="44.1988" lon="7.1544">
        <ele>2189.2</ele>
        <time>2022-07-19T06:57:36Z</time>
      </trkpt>
      <trkpt lat="44.1988" lon="7.1544">
        <ele>2189</ele>
        <time>2022-07-19T06:57:44Z</time>
      </trkpt>
      <trkpt lat="44.1988" lon="7.15443">
        <ele>2189</ele>
        <time>2022-07-19T06:57:46Z</time>
      </trkpt>
      <trkpt lat="44.19881" lon="7.15445">
        <ele>2188.8</ele>
        <time>2022-07-19T06:57:47Z</time>
      </trkpt>
      <trkpt lat="44.19882" lon="7.15449">
        <ele>2188.8</ele>
        <time>2022-07-19T06:57:48Z</time>
      </trkpt>
      <trkpt lat="44.19883" lon="7.15454">
        <ele>2188.2</ele>
        <time>2022-07-19T06:57:49Z</time>
      </trkpt>
      <trkpt lat="44.19885" lon="7.15459">
        <ele>2188</ele>
        <time>2022-07-19T06:57:50Z</time>
      </trkpt>
      <trkpt lat="44.19887" lon="7.15465">
        <ele>2187.6</ele>
        <time>2022-07-19T06:57:51Z</time>
      </trkpt>
      <trkpt lat="44.1989" lon="7.15472">
        <ele>2187.2</ele>
        <time>2022-07-19T06:57:52Z</time>
      </trkpt>
      <trkpt lat="44.19894" lon="7.15479">
        <ele>2186.8</ele>
        <time>2022-07-19T06:57:53Z</time>
      </trkpt>
      <trkpt lat="44.19897" lon="7.15487">
        <ele>2186.4</ele>
        <time>2022-07-19T06:57:54Z</time>
      </trkpt>
      <trkpt lat="44.19902" lon="7.15496">
        <ele>2185.8</ele>
        <time>2022-07-19T06:57:55Z</time>
      </trkpt>
      <trkpt lat="44.19908" lon="7.15503">
        <ele>2185.4</ele>
        <time>2022-07-19T06:57:56Z</time>
      </trkpt>
      <trkpt lat="44.19914" lon="7.15509">
        <ele>2184.6</ele>
        <time>2022-07-19T06:57:57Z</time>
      </trkpt>
      <trkpt lat="44.19921" lon="7.15514">
        <ele>2184.2</ele>
        <time>2022-07-19T06:57:58Z</time>
      </trkpt>
      <trkpt lat="44.19926" lon="7.15519">
        <ele>2183.6</ele>
        <time>2022-07-19T06:57:59Z</time>
      </trkpt>
      <trkpt lat="44.19929" lon="7.15525">
        <ele>2183.4</ele>
        <time>2022-07-19T06:58:00Z</time>
      </trkpt>
      <trkpt lat="44.19929" lon="7.15531">
        <ele>2183</ele>
        <time>2022-07-19T06:58:01Z</time>
      </trkpt>
      <trkpt lat="44.19926" lon="7.15536">
        <ele>2182.6</ele>
        <time>2022-07-19T06:58:02Z</time>
      </trkpt>
      <trkpt lat="44.19921" lon="7.15538">
        <ele>2182.2</ele>
        <time>2022-07-19T06:58:03Z</time>
      </trkpt>
      <trkpt lat="44.19915" lon="7.15536">
        <ele>2182</ele>
        <time>2022-07-19T06:58:04Z</time>
      </trkpt>
      <trkpt lat="44.19911" lon="7.15532">
        <ele>2181.6</ele>
        <time>2022-07-19T06:58:05Z</time>
      </trkpt>
      <trkpt lat="44.19905" lon="7.15528">
        <ele>2181.2</ele>
        <time>2022-07-19T06:58:06Z</time>
      </trkpt>
      <trkpt lat="44.19899" lon="7.15523">
        <ele>2180.8</ele>
        <time>2022-07-19T06:58:07Z</time>
      </trkpt>
      <trkpt lat="44.19891" lon="7.15521">
        <ele>2180.2</ele>
        <time>2022-07-19T06:58:08Z</time>
      </trkpt>
      <trkpt lat="44.19883" lon="7.1552">
        <ele>2179.8</ele>
        <time>2022-07-19T06:58:09Z</time>
      </trkpt>
      <trkpt lat="44.19874" lon="7.1552">
        <ele>2179.2</ele>
        <time>2022-07-19T06:58:10Z</time>
      </trkpt>
      <trkpt lat="44.19865" lon="7.15523">
        <ele>2178.6</ele>
        <time>2022-07-19T06:58:11Z</time>
      </trkpt>
      <trkpt lat="44.19855" lon="7.15525">
        <ele>2177.8</ele>
        <time>2022-07-19T06:58:12Z</time>
      </trkpt>
      <trkpt lat="44.19845" lon="7.15523">
        <ele>2177.2</ele>
        <time>2022-07-19T06:58:13Z</time>
      </trkpt>
      <trkpt lat="44.19836" lon="7.15517">
        <ele>2176.4</ele>
        <time>2022-07-19T06:58:14Z</time>
      </trkpt>
      <trkpt lat="44.19826" lon="7.15511">
        <ele>2175.6</ele>
        <time>2022-07-19T06:58:15Z</time>
      </trkpt>
      <trkpt lat="44.19817" lon="7.15508">
        <ele>2174.6</ele>
        <time>2022-07-19T06:58:16Z</time>
      </trkpt>
      <trkpt lat="44.19806" lon="7.15508">
        <ele>2173.8</ele>
        <time>2022-07-19T06:58:17Z</time>
      </trkpt>
      <trkpt lat="44.19795" lon="7.15511">
        <ele>2173</ele>
        <time>2022-07-19T06:58:18Z</time>
      </trkpt>
      <trkpt lat="44.19784" lon="7.15515">
        <ele>2172</ele>
        <time>2022-07-19T06:58:19Z</time>
      </trkpt>
      <trkpt lat="44.19771" lon="7.15518">
        <ele>2171</ele>
        <time>2022-07-19T06:58:20Z</time>
      </trkpt>
      <trkpt lat="44.19759" lon="7.15521">
        <ele>2170</ele>
        <time>2022-07-19T06:58:21Z</time>
      </trkpt>
      <trkpt lat="44.19747" lon="7.15525">
        <ele>2169</ele>
        <time>2022-07-19T06:58:22Z</time>
      </trkpt>
      <trkpt lat="44.19735" lon="7.15529">
        <ele>2168</ele>
        <time>2022-07-19T06:58:23Z</time>
      </trkpt>
      <trkpt lat="44.19723" lon="7.15534">
        <ele>2167</ele>
        <time>2022-07-19T06:58:24Z</time>
      </trkpt>
      <trkpt lat="44.19712" lon="7.15539">
        <ele>2166</ele>
        <time>2022-07-19T06:58:25Z</time>
      </trkpt>
      <trkpt lat="44.19701" lon="7.15544">
        <ele>2164.8</ele>
        <time>2022-07-19T06:58:26Z</time>
      </trkpt>
      <trkpt lat="44.19691" lon="7.15548">
        <ele>2163.8</ele>
        <time>2022-07-19T06:58:27Z</time>
      </trkpt>
      <trkpt lat="44.19681" lon="7.15551">
        <ele>2162.8</ele>
        <time>2022-07-19T06:58:28Z</time>
      </trkpt>
      <trkpt lat="44.19673" lon="7.15552">
        <ele>2161.8</ele>
        <time>2022-07-19T06:58:29Z</time>
      </trkpt>
      <trkpt lat="44.19665" lon="7.15551">
        <ele>2161.2</ele>
        <time>2022-07-19T06:58:30Z</time>
      </trkpt>
      <trkpt lat="44.19658" lon="7.15548">
        <ele>2161.2</ele>
        <time>2022-07-19T06:58:31Z</time>
      </trkpt>
      <trkpt lat="44.19654" lon="7.15542">
        <ele>2160.6</ele>
        <time>2022-07-19T06:58:32Z</time>
      </trkpt>
      <trkpt lat="44.19652" lon="7.15536">
        <ele>2160</ele>
        <time>2022-07-19T06:58:33Z</time>
      </trkpt>
      <trkpt lat="44.19652" lon="7.1553">
        <ele>2159.4</ele>
        <time>2022-07-19T06:58:34Z</time>
      </trkpt>
      <trkpt lat="44.19655" lon="7.15524">
        <ele>2158.8</ele>
        <time>2022-07-19T06:58:35Z</time>
      </trkpt>
      <trkpt lat="44.1966" lon="7.15519">
        <ele>2158.4</ele>
        <time>2022-07-19T06:58:36Z</time>
      </trkpt>
      <trkpt lat="44.19665" lon="7.15514">
        <ele>2158</ele>
        <time>2022-07-19T06:58:37Z</time>
      </trkpt>
      <trkpt lat="44.1967" lon="7.15507">
        <ele>2157.6</ele>
        <time>2022-07-19T06:58:38Z</time>
      </trkpt>
      <trkpt lat="44.19675" lon="7.155">
        <ele>2157</ele>
        <time>2022-07-19T06:58:39Z</time>
      </trkpt>
      <trkpt lat="44.19678" lon="7.15491">
        <ele>2156.6</ele>
        <time>2022-07-19T06:58:40Z</time>
      </trkpt>
      <trkpt lat="44.19682" lon="7.15481">
        <ele>2156</ele>
        <time>2022-07-19T06:58:41Z</time>
      </trkpt>
      <trkpt lat="44.19686" lon="7.1547">
        <ele>2155.6</ele>
        <time>2022-07-19T06:58:42Z</time>
      </trkpt>
      <trkpt lat="44.1969" lon="7.15459">
        <ele>2155</ele>
        <time>2022-07-19T06:58:43Z</time>
      </trkpt>
      <trkpt lat="44.19693" lon="7.15448">
        <ele>2154.4</ele>
        <time>2022-07-19T06:58:44Z</time>
      </trkpt>
      <trkpt lat="44.19695" lon="7.15439">
        <ele>2153.8</ele>
        <time>2022-07-19T06:58:45Z</time>
      </trkpt>
      <trkpt lat="44.19697" lon="7.15432">
        <ele>2153.4</ele>
        <time>2022-07-19T06:58:46Z</time>
      </trkpt>
      <trkpt lat="44.19696" lon="7.15426">
        <ele>2153</ele>
        <time>2022-07-19T06:58:47Z</time>
      </trkpt>
      <trkpt lat="44.19694" lon="7.15424">
        <ele>2152.6</ele>
        <time>2022-07-19T06:58:48Z</time>
      </trkpt>
      <trkpt lat="44.1969" lon="7.15425">
        <ele>2152.4</ele>
        <time>2022-07-19T06:58:49Z</time>
      </trkpt>
      <trkpt lat="44.19686" lon="7.15429">
        <ele>2152</ele>
        <time>2022-07-19T06:58:50Z</time>
      </trkpt>
      <trkpt lat="44.19683" lon="7.15435">
        <ele>2151.6</ele>
        <time>2022-07-19T06:58:51Z</time>
      </trkpt>
      <trkpt lat="44.1968" lon="7.15443">
        <ele>2151.2</ele>
        <time>2022-07-19T06:58:52Z</time>
      </trkpt>
      <trkpt lat="44.19677" lon="7.15451">
        <ele>2150.8</ele>
        <time>2022-07-19T06:58:53Z</time>
      </trkpt>
      <trkpt lat="44.19673" lon="7.15459">
        <ele>2150.4</ele>
        <time>2022-07-19T06:58:54Z</time>
      </trkpt>
      <trkpt lat="44.19668" lon="7.15466">
        <ele>2150</ele>
        <time>2022-07-19T06:58:55Z</time>
      </trkpt>
      <trkpt lat="44.19662" lon="7.15473">
        <ele>2149.8</ele>
        <time>2022-07-19T06:58:56Z</time>
      </trkpt>
      <trkpt lat="44.19654" lon="7.15479">
        <ele>2149.2</ele>
        <time>2022-07-19T06:58:57Z</time>
      </trkpt>
      <trkpt lat="44.19646" lon="7.15483">
        <ele>2148.8</ele>
        <time>2022-07-19T06:58:58Z</time>
      </trkpt>
      <trkpt lat="44.19638" lon="7.15484">
        <ele>2148.2</ele>
        <time>2022-07-19T06:58:59Z</time>
      </trkpt>
      <trkpt lat="44.1963" lon="7.15485">
        <ele>2147.8</ele>
        <time>2022-07-19T06:59:00Z</time>
      </trkpt>
      <trkpt lat="44.19622" lon="7.15488">
        <ele>2147.2</ele>
        <time>2022-07-19T06:59:01Z</time>
      </trkpt>
      <trkpt lat="44.19615" lon="7.15492">
        <ele>2146.8</ele>
        <time>2022-07-19T06:59:02Z</time>
      </trkpt>
      <trkpt lat="44.19608" lon="7.155">
        <ele>2146</ele>
        <time>2022-07-19T06:59:03Z</time>
      </trkpt>
      <trkpt lat="44.19602" lon="7.15509">
        <ele>2145.2</ele>
        <time>2022-07-19T06:59:04Z</time>
      </trkpt>
      <trkpt lat="44.19595" lon="7.15519">
        <ele>2144.4</ele>
        <time>2022-07-19T06:59:05Z</time>
      </trkpt>
      <trkpt lat="44.19589" lon="7.15527">
        <ele>2143.8</ele>
        <time>2022-07-19T06:59:06Z</time>
      </trkpt>
      <trkpt lat="44.19584" lon="7.15533">
        <ele>2143</ele>
        <time>2022-07-19T06:59:07Z</time>
      </trkpt>
      <trkpt lat="44.19579" lon="7.15537">
        <ele>2142.4</ele>
        <time>2022-07-19T06:59:08Z</time>
      </trkpt>
      <trkpt lat="44.19574" lon="7.15538">
        <ele>2141.8</ele>
        <time>2022-07-19T06:59:09Z</time>
      </trkpt>
      <trkpt lat="44.1957" lon="7.15535">
        <ele>2141.4</ele>
        <time>2022-07-19T06:59:10Z</time>
      </trkpt>
      <trkpt lat="44.1957" lon="7.15528">
        <ele>2140.8</ele>
        <time>2022-07-19T06:59:11Z</time>
      </trkpt>
      <trkpt lat="44.19571" lon="7.1552">
        <ele>2140.2</ele>
        <time>2022-07-19T06:59:12Z</time>
      </trkpt>
      <trkpt lat="44.19574" lon="7.15513">
        <ele>2139.6</ele>
        <time>2022-07-19T06:59:13Z</time>
      </trkpt>
      <trkpt lat="44.19578" lon="7.15505">
        <ele>2139.2</ele>
        <time>2022-07-19T06:59:14Z</time>
      </trkpt>
      <trkpt lat="44.19582" lon="7.15497">
        <ele>2138.6</ele>
        <time>2022-07-19T06:59:15Z</time>
      </trkpt>
      <trkpt lat="44.19585" lon="7.15489">
        <ele>2138</ele>
        <time>2022-07-19T06:59:16Z</time>
      </trkpt>
      <trkpt lat="44.19584" lon="7.15479">
        <ele>2137.4</ele>
        <time>2022-07-19T06:59:17Z</time>
      </trkpt>
      <trkpt lat="44.19582" lon="7.15469">
        <ele>2137</ele>
        <time>2022-07-19T06:59:18Z</time>
      </trkpt>
      <trkpt lat="44.19578" lon="7.15459">
        <ele>2136.4</ele>
        <time>2022-07-19T06:59:19Z</time>
      </trkpt>
      <trkpt lat="44.19573" lon="7.1545">
        <ele>2135.8</ele>
        <time>2022-07-19T06:59:20Z</time>
      </trkpt>
      <trkpt lat="44.19568" lon="7.15442">
        <ele>2135</ele>
        <time>2022-07-19T06:59:21Z</time>
      </trkpt>
      <trkpt lat="44.19563" lon="7.15435">
        <ele>2134.4</ele>
        <time>2022-07-19T06:59:22Z</time>
      </trkpt>
      <trkpt lat="44.19558" lon="7.15431">
        <ele>2133.8</ele>
        <time>2022-07-19T06:59:23Z</time>
      </trkpt>
      <trkpt lat="44.19551" lon="7.1543">
        <ele>2133.2</ele>
        <time>2022-07-19T06:59:24Z</time>
      </trkpt>
      <trkpt lat="44.19544" lon="7.15433">
        <ele>2132.6</ele>
        <time>2022-07-19T06:59:25Z</time>
      </trkpt>
      <trkpt lat="44.19538" lon="7.15438">
        <ele>2132</ele>
        <time>2022-07-19T06:59:26Z</time>
      </trkpt>
      <trkpt lat="44.19534" lon="7.15446">
        <ele>2131.2</ele>
        <time>2022-07-19T06:59:27Z</time>
      </trkpt>
      <trkpt lat="44.19531" lon="7.15456">
        <ele>2130.6</ele>
        <time>2022-07-19T06:59:28Z</time>
      </trkpt>
      <trkpt lat="44.19529" lon="7.15468">
        <ele>2130</ele>
        <time>2022-07-19T06:59:29Z</time>
      </trkpt>
      <trkpt lat="44.19528" lon="7.15481">
        <ele>2129.2</ele>
        <time>2022-07-19T06:59:30Z</time>
      </trkpt>
      <trkpt lat="44.19527" lon="7.15497">
        <ele>2128.4</ele>
        <time>2022-07-19T06:59:31Z</time>
      </trkpt>
      <trkpt lat="44.19527" lon="7.15512">
        <ele>2127.8</ele>
        <time>2022-07-19T06:59:32Z</time>
      </trkpt>
      <trkpt lat="44.19527" lon="7.15526">
        <ele>2127</ele>
        <time>2022-07-19T06:59:33Z</time>
      </trkpt>
      <trkpt lat="44.19527" lon="7.15538">
        <ele>2126.2</ele>
        <time>2022-07-19T06:59:34Z</time>
      </trkpt>
      <trkpt lat="44.19525" lon="7.15548">
        <ele>2125.4</ele>
        <time>2022-07-19T06:59:35Z</time>
      </trkpt>
      <trkpt lat="44.19523" lon="7.15558">
        <ele>2124.6</ele>
        <time>2022-07-19T06:59:36Z</time>
      </trkpt>
      <trkpt lat="44.19518" lon="7.15567">
        <ele>2123.8</ele>
        <time>2022-07-19T06:59:37Z</time>
      </trkpt>
      <trkpt lat="44.19512" lon="7.15577">
        <ele>2123</ele>
        <time>2022-07-19T06:59:38Z</time>
      </trkpt>
      <trkpt lat="44.19504" lon="7.15586">
        <ele>2122.2</ele>
        <time>2022-07-19T06:59:39Z</time>
      </trkpt>
      <trkpt lat="44.19496" lon="7.15593">
        <ele>2121.4</ele>
        <time>2022-07-19T06:59:40Z</time>
      </trkpt>
      <trkpt lat="44.19486" lon="7.15601">
        <ele>2120.4</ele>
        <time>2022-07-19T06:59:41Z</time>
      </trkpt>
      <trkpt lat="44.19477" lon="7.15609">
        <ele>2119.4</ele>
        <time>2022-07-19T06:59:42Z</time>
      </trkpt>
      <trkpt lat="44.19468" lon="7.15618">
        <ele>2118.6</ele>
        <time>2022-07-19T06:59:43Z</time>
      </trkpt>
      <trkpt lat="44.19459" lon="7.15626">
        <ele>2117.6</ele>
        <time>2022-07-19T06:59:44Z</time>
      </trkpt>
      <trkpt lat="44.19451" lon="7.15634">
        <ele>2116.6</ele>
        <time>2022-07-19T06:59:45Z</time>
      </trkpt>
      <trkpt lat="44.19442" lon="7.15639">
        <ele>2115.6</ele>
        <time>2022-07-19T06:59:46Z</time>
      </trkpt>
      <trkpt lat="44.19433" lon="7.15642">
        <ele>2114.8</ele>
        <time>2022-07-19T06:59:47Z</time>
      </trkpt>
      <trkpt lat="44.19423" lon="7.15644">
        <ele>2113.8</ele>
        <time>2022-07-19T06:59:48Z</time>
      </trkpt>
      <trkpt lat="44.19414" lon="7.15642">
        <ele>2112.8</ele>
        <time>2022-07-19T06:59:49Z</time>
      </trkpt>
      <trkpt lat="44.19405" lon="7.15639">
        <ele>2111.6</ele>
        <time>2022-07-19T06:59:50Z</time>
      </trkpt>
      <trkpt lat="44.19396" lon="7.15634">
        <ele>2110.6</ele>
        <time>2022-07-19T06:59:51Z</time>
      </trkpt>
      <trkpt lat="44.19388" lon="7.15629">
        <ele>2109.6</ele>
        <time>2022-07-19T06:59:52Z</time>
      </trkpt>
      <trkpt lat="44.1938" lon="7.15626">
        <ele>2108.6</ele>
        <time>2022-07-19T06:59:53Z</time>
      </trkpt>
      <trkpt lat="44.19371" lon="7.15625">
        <ele>2107.8</ele>
        <time>2022-07-19T06:59:54Z</time>
      </trkpt>
      <trkpt lat="44.19362" lon="7.15625">
        <ele>2107.2</ele>
        <time>2022-07-19T06:59:55Z</time>
      </trkpt>
      <trkpt lat="44.19354" lon="7.15626">
        <ele>2106.6</ele>
        <time>2022-07-19T06:59:56Z</time>
      </trkpt>
      <trkpt lat="44.19346" lon="7.15629">
        <ele>2106</ele>
        <time>2022-07-19T06:59:57Z</time>
      </trkpt>
      <trkpt lat="44.1934" lon="7.15632">
        <ele>2105.4</ele>
        <time>2022-07-19T06:59:58Z</time>
      </trkpt>
      <trkpt lat="44.19335" lon="7.15633">
        <ele>2105</ele>
        <time>2022-07-19T06:59:59Z</time>
      </trkpt>
      <trkpt lat="44.19331" lon="7.15631">
        <ele>2104.6</ele>
        <time>2022-07-19T07:00:00Z</time>
      </trkpt>
      <trkpt lat="44.19328" lon="7.15627">
        <ele>2104.2</ele>
        <time>2022-07-19T07:00:01Z</time>
      </trkpt>
      <trkpt lat="44.19328" lon="7.15622">
        <ele>2103.8</ele>
        <time>2022-07-19T07:00:02Z</time>
      </trkpt>
      <trkpt lat="44.1933" lon="7.15617">
        <ele>2103.6</ele>
        <time>2022-07-19T07:00:03Z</time>
      </trkpt>
      <trkpt lat="44.19333" lon="7.15612">
        <ele>2103.6</ele>
        <time>2022-07-19T07:00:04Z</time>
      </trkpt>
      <trkpt lat="44.19338" lon="7.15608">
        <ele>2103.2</ele>
        <time>2022-07-19T07:00:05Z</time>
      </trkpt>
      <trkpt lat="44.19343" lon="7.15604">
        <ele>2102.8</ele>
        <time>2022-07-19T07:00:06Z</time>
      </trkpt>
      <trkpt lat="44.19348" lon="7.156">
        <ele>2102.6</ele>
        <time>2022-07-19T07:00:07Z</time>
      </trkpt>
      <trkpt lat="44.19354" lon="7.15595">
        <ele>2102.4</ele>
        <time>2022-07-19T07:00:08Z</time>
      </trkpt>
      <trkpt lat="44.1936" lon="7.15589">
        <ele>2102</ele>
        <time>2022-07-19T07:00:09Z</time>
      </trkpt>
      <trkpt lat="44.19366" lon="7.15582">
        <ele>2101.4</ele>
        <time>2022-07-19T07:00:10Z</time>
      </trkpt>
      <trkpt lat="44.19372" lon="7.15574">
        <ele>2101</ele>
        <time>2022-07-19T07:00:11Z</time>
      </trkpt>
      <trkpt lat="44.19378" lon="7.15566">
        <ele>2100.6</ele>
        <time>2022-07-19T07:00:12Z</time>
      </trkpt>
      <trkpt lat="44.19383" lon="7.15556">
        <ele>2100</ele>
        <time>2022-07-19T07:00:13Z</time>
      </trkpt>
      <trkpt lat="44.19387" lon="7.15546">
        <ele>2099.6</ele>
        <time>2022-07-19T07:00:14Z</time>
      </trkpt>
      <trkpt lat="44.19391" lon="7.15535">
        <ele>2099.2</ele>
        <time>2022-07-19T07:00:15Z</time>
      </trkpt>
      <trkpt lat="44.19395" lon="7.15523">
        <ele>2098.8</ele>
        <time>2022-07-19T07:00:16Z</time>
      </trkpt>
      <trkpt lat="44.19399" lon="7.15513">
        <ele>2098.2</ele>
        <time>2022-07-19T07:00:17Z</time>
      </trkpt>
      <trkpt lat="44.19404" lon="7.15503">
        <ele>2097.8</ele>
        <time>2022-07-19T07:00:18Z</time>
      </trkpt>
      <trkpt lat="44.1941" lon="7.15495">
        <ele>2097</ele>
        <time>2022-07-19T07:00:19Z</time>
      </trkpt>
      <trkpt lat="44.19417" lon="7.15488">
        <ele>2096.4</ele>
        <time>2022-07-19T07:00:20Z</time>
      </trkpt>
      <trkpt lat="44.19424" lon="7.15482">
        <ele>2095.6</ele>
        <time>2022-07-19T07:00:21Z</time>
      </trkpt>
      <trkpt lat="44.19429" lon="7.15477">
        <ele>2094.6</ele>
        <time>2022-07-19T07:00:22Z</time>
      </trkpt>
      <trkpt lat="44.19432" lon="7.15471">
        <ele>2093.8</ele>
        <time>2022-07-19T07:00:23Z</time>
      </trkpt>
      <trkpt lat="44.19433" lon="7.15465">
        <ele>2093</ele>
        <time>2022-07-19T07:00:24Z</time>
      </trkpt>
      <trkpt lat="44.19432" lon="7.15458">
        <ele>2091.8</ele>
        <time>2022-07-19T07:00:25Z</time>
      </trkpt>
      <trkpt lat="44.19429" lon="7.15454">
        <ele>2091.2</ele>
        <time>2022-07-19T07:00:26Z</time>
      </trkpt>
      <trkpt lat="44.19424" lon="7.15452">
        <ele>2090.6</ele>
        <time>2022-07-19T07:00:27Z</time>
      </trkpt>
      <trkpt lat="44.19417" lon="7.15453">
        <ele>2090</ele>
        <time>2022-07-19T07:00:28Z</time>
      </trkpt>
      <trkpt lat="44.1941" lon="7.15456">
        <ele>2089.2</ele>
        <time>2022-07-19T07:00:29Z</time>
      </trkpt>
      <trkpt lat="44.19402" lon="7.15459">
        <ele>2088.4</ele>
        <time>2022-07-19T07:00:30Z</time>
      </trkpt>
      <trkpt lat="44.19393" lon="7.15463">
        <ele>2087.4</ele>
        <time>2022-07-19T07:00:31Z</time>
      </trkpt>
      <trkpt lat="44.19384" lon="7.15467">
        <ele>2086.4</ele>
        <time>2022-07-19T07:00:32Z</time>
      </trkpt>
      <trkpt lat="44.19373" lon="7.15471">
        <ele>2085.4</ele>
        <time>2022-07-19T07:00:33Z</time>
      </trkpt>
      <trkpt lat="44.19363" lon="7.15475">
        <ele>2084.4</ele>
        <time>2022-07-19T07:00:34Z</time>
      </trkpt>
      <trkpt lat="44.19354" lon="7.15479">
        <ele>2083.2</ele>
        <time>2022-07-19T07:00:35Z</time>
      </trkpt>
      <trkpt lat="44.19344" lon="7.15484">
        <ele>2081.8</ele>
        <time>2022-07-19T07:00:36Z</time>
      </trkpt>
      <trkpt lat="44.19333" lon="7.15491">
        <ele>2080.4</ele>
        <time>2022-07-19T07:00:37Z</time>
      </trkpt>
      <trkpt lat="44.19322" lon="7.15499">
        <ele>2079</ele>
        <time>2022-07-19T07:00:38Z</time>
      </trkpt>
      <trkpt lat="44.19311" lon="7.15506">
        <ele>2077.6</ele>
        <time>2022-07-19T07:00:39Z</time>
      </trkpt>
      <trkpt lat="44.19302" lon="7.15515">
        <ele>2076.2</ele>
        <time>2022-07-19T07:00:40Z</time>
      </trkpt>
      <trkpt lat="44.19292" lon="7.15521">
        <ele>2074.6</ele>
        <time>2022-07-19T07:00:41Z</time>
      </trkpt>
      <trkpt lat="44.19284" lon="7.15528">
        <ele>2073.2</ele>
        <time>2022-07-19T07:00:42Z</time>
      </trkpt>
      <trkpt lat="44.19275" lon="7.15538">
        <ele>2072</ele>
        <time>2022-07-19T07:00:43Z</time>
      </trkpt>
      <trkpt lat="44.19267" lon="7.15549">
        <ele>2070.6</ele>
        <time>2022-07-19T07:00:44Z</time>
      </trkpt>
      <trkpt lat="44.19261" lon="7.15564">
        <ele>2069.4</ele>
        <time>2022-07-19T07:00:45Z</time>
      </trkpt>
      <trkpt lat="44.19255" lon="7.15577">
        <ele>2068</ele>
        <time>2022-07-19T07:00:46Z</time>
      </trkpt>
      <trkpt lat="44.19247" lon="7.15591">
        <ele>2066.6</ele>
        <time>2022-07-19T07:00:47Z</time>
      </trkpt>
      <trkpt lat="44.19238" lon="7.15603">
        <ele>2065.2</ele>
        <time>2022-07-19T07:00:48Z</time>
      </trkpt>
      <trkpt lat="44.19227" lon="7.15615">
        <ele>2063.8</ele>
        <time>2022-07-19T07:00:49Z</time>
      </trkpt>
      <trkpt lat="44.19217" lon="7.15627">
        <ele>2062.2</ele>
        <time>2022-07-19T07:00:50Z</time>
      </trkpt>
      <trkpt lat="44.19207" lon="7.15641">
        <ele>2060.8</ele>
        <time>2022-07-19T07:00:51Z</time>
      </trkpt>
      <trkpt lat="44.19196" lon="7.15655">
        <ele>2059</ele>
        <time>2022-07-19T07:00:52Z</time>
      </trkpt>
      <trkpt lat="44.19185" lon="7.15669">
        <ele>2057.2</ele>
        <time>2022-07-19T07:00:53Z</time>
      </trkpt>
      <trkpt lat="44.19174" lon="7.15683">
        <ele>2055.4</ele>
        <time>2022-07-19T07:00:54Z</time>
      </trkpt>
      <trkpt lat="44.19163" lon="7.15697">
        <ele>2053.8</ele>
        <time>2022-07-19T07:00:55Z</time>
      </trkpt>
      <trkpt lat="44.19151" lon="7.15711">
        <ele>2052.4</ele>
        <time>2022-07-19T07:00:56Z</time>
      </trkpt>
      <trkpt lat="44.19141" lon="7.15725">
        <ele>2051.2</ele>
        <time>2022-07-19T07:00:57Z</time>
      </trkpt>
      <trkpt lat="44.19131" lon="7.15738">
        <ele>2050.2</ele>
        <time>2022-07-19T07:00:58Z</time>
      </trkpt>
      <trkpt lat="44.19122" lon="7.15752">
        <ele>2048.8</ele>
        <time>2022-07-19T07:00:59Z</time>
      </trkpt>
      <trkpt lat="44.19112" lon="7.15766">
        <ele>2047.8</ele>
        <time>2022-07-19T07:01:00Z</time>
      </trkpt>
      <trkpt lat="44.19104" lon="7.1578">
        <ele>2046.6</ele>
        <time>2022-07-19T07:01:01Z</time>
      </trkpt>
      <trkpt lat="44.19096" lon="7.15794">
        <ele>2045.8</ele>
        <time>2022-07-19T07:01:02Z</time>
      </trkpt>
      <trkpt lat="44.19086" lon="7.15804">
        <ele>2045</ele>
        <time>2022-07-19T07:01:03Z</time>
      </trkpt>
      <trkpt lat="44.19076" lon="7.1581">
        <ele>2044.6</ele>
        <time>2022-07-19T07:01:04Z</time>
      </trkpt>
      <trkpt lat="44.19066" lon="7.15814">
        <ele>2044.2</ele>
        <time>2022-07-19T07:01:05Z</time>
      </trkpt>
      <trkpt lat="44.19056" lon="7.15818">
        <ele>2044</ele>
        <time>2022-07-19T07:01:06Z</time>
      </trkpt>
      <trkpt lat="44.19046" lon="7.15823">
        <ele>2043.6</ele>
        <time>2022-07-19T07:01:07Z</time>
      </trkpt>
      <trkpt lat="44.19037" lon="7.15828">
        <ele>2043.4</ele>
        <time>2022-07-19T07:01:08Z</time>
      </trkpt>
      <trkpt lat="44.19029" lon="7.15833">
        <ele>2043.4</ele>
        <time>2022-07-19T07:01:09Z</time>
      </trkpt>
      <trkpt lat="44.19022" lon="7.15839">
        <ele>2043</ele>
        <time>2022-07-19T07:01:10Z</time>
      </trkpt>
      <trkpt lat="44.19016" lon="7.15847">
        <ele>2042.8</ele>
        <time>2022-07-19T07:01:11Z</time>
      </trkpt>
      <trkpt lat="44.19011" lon="7.15857">
        <ele>2042.4</ele>
        <time>2022-07-19T07:01:12Z</time>
      </trkpt>
      <trkpt lat="44.19007" lon="7.15867">
        <ele>2042.2</ele>
        <time>2022-07-19T07:01:13Z</time>
      </trkpt>
      <trkpt lat="44.19003" lon="7.15879">
        <ele>2041.8</ele>
        <time>2022-07-19T07:01:14Z</time>
      </trkpt>
      <trkpt lat="44.18999" lon="7.15892">
        <ele>2041.4</ele>
        <time>2022-07-19T07:01:15Z</time>
      </trkpt>
      <trkpt lat="44.18995" lon="7.15905">
        <ele>2040.6</ele>
        <time>2022-07-19T07:01:16Z</time>
      </trkpt>
      <trkpt lat="44.1899" lon="7.15918">
        <ele>2040</ele>
        <time>2022-07-19T07:01:17Z</time>
      </trkpt>
      <trkpt lat="44.18985" lon="7.15928">
        <ele>2039.2</ele>
        <time>2022-07-19T07:01:18Z</time>
      </trkpt>
      <trkpt lat="44.18979" lon="7.15937">
        <ele>2038.8</ele>
        <time>2022-07-19T07:01:19Z</time>
      </trkpt>
      <trkpt lat="44.18972" lon="7.15944">
        <ele>2038.2</ele>
        <time>2022-07-19T07:01:20Z</time>
      </trkpt>
      <trkpt lat="44.18964" lon="7.15951">
        <ele>2037.8</ele>
        <time>2022-07-19T07:01:21Z</time>
      </trkpt>
      <trkpt lat="44.18957" lon="7.15956">
        <ele>2037.2</ele>
        <time>2022-07-19T07:01:22Z</time>
      </trkpt>
      <trkpt lat="44.18948" lon="7.15961">
        <ele>2036.6</ele>
        <time>2022-07-19T07:01:23Z</time>
      </trkpt>
      <trkpt lat="44.18939" lon="7.15966">
        <ele>2035.8</ele>
        <time>2022-07-19T07:01:24Z</time>
      </trkpt>
      <trkpt lat="44.1893" lon="7.1597">
        <ele>2035.2</ele>
        <time>2022-07-19T07:01:25Z</time>
      </trkpt>
      <trkpt lat="44.18923" lon="7.15974">
        <ele>2034.6</ele>
        <time>2022-07-19T07:01:26Z</time>
      </trkpt>
      <trkpt lat="44.18916" lon="7.15978">
        <ele>2034</ele>
        <time>2022-07-19T07:01:27Z</time>
      </trkpt>
      <trkpt lat="44.1891" lon="7.15981">
        <ele>2033.6</ele>
        <time>2022-07-19T07:01:28Z</time>
      </trkpt>
      <trkpt lat="44.18905" lon="7.15983">
        <ele>2032.6</ele>
        <time>2022-07-19T07:01:30Z</time>
      </trkpt>
      <trkpt lat="44.18901" lon="7.15985">
        <ele>2032.2</ele>
        <time>2022-07-19T07:01:31Z</time>
      </trkpt>
      <trkpt lat="44.18897" lon="7.15987">
        <ele>2031.8</ele>
        <time>2022-07-19T07:01:32Z</time>
      </trkpt>
      <trkpt lat="44.18893" lon="7.15989">
        <ele>2031.4</ele>
        <time>2022-07-19T07:01:33Z</time>
      </trkpt>
      <trkpt lat="44.18888" lon="7.15992">
        <ele>2030.8</ele>
        <time>2022-07-19T07:01:34Z</time>
      </trkpt>
      <trkpt lat="44.18883" lon="7.15996">
        <ele>2030.4</ele>
        <time>2022-07-19T07:01:35Z</time>
      </trkpt>
      <trkpt lat="44.18878" lon="7.16">
        <ele>2030</ele>
        <time>2022-07-19T07:01:36Z</time>
      </trkpt>
      <trkpt lat="44.18873" lon="7.16005">
        <ele>2029.6</ele>
        <time>2022-07-19T07:01:37Z</time>
      </trkpt>
      <trkpt lat="44.18868" lon="7.16009">
        <ele>2029.4</ele>
        <time>2022-07-19T07:01:38Z</time>
      </trkpt>
      <trkpt lat="44.18862" lon="7.16013">
        <ele>2029.4</ele>
        <time>2022-07-19T07:01:39Z</time>
      </trkpt>
      <trkpt lat="44.18856" lon="7.16016">
        <ele>2028.8</ele>
        <time>2022-07-19T07:01:40Z</time>
      </trkpt>
      <trkpt lat="44.18849" lon="7.16019">
        <ele>2028.4</ele>
        <time>2022-07-19T07:01:41Z</time>
      </trkpt>
      <trkpt lat="44.18842" lon="7.16022">
        <ele>2028.2</ele>
        <time>2022-07-19T07:01:42Z</time>
      </trkpt>
      <trkpt lat="44.18836" lon="7.16025">
        <ele>2027.8</ele>
        <time>2022-07-19T07:01:43Z</time>
      </trkpt>
      <trkpt lat="44.18829" lon="7.16027">
        <ele>2027.6</ele>
        <time>2022-07-19T07:01:44Z</time>
      </trkpt>
      <trkpt lat="44.18821" lon="7.16028">
        <ele>2027.2</ele>
        <time>2022-07-19T07:01:45Z</time>
      </trkpt>
      <trkpt lat="44.18814" lon="7.1603">
        <ele>2026.8</ele>
        <time>2022-07-19T07:01:46Z</time>
      </trkpt>
      <trkpt lat="44.18806" lon="7.16031">
        <ele>2026.6</ele>
        <time>2022-07-19T07:01:47Z</time>
      </trkpt>
      <trkpt lat="44.18798" lon="7.16033">
        <ele>2026.4</ele>
        <time>2022-07-19T07:01:48Z</time>
      </trkpt>
      <trkpt lat="44.1879" lon="7.16036">
        <ele>2026</ele>
        <time>2022-07-19T07:01:49Z</time>
      </trkpt>
      <trkpt lat="44.18781" lon="7.16038">
        <ele>2025.4</ele>
        <time>2022-07-19T07:01:50Z</time>
      </trkpt>
      <trkpt lat="44.18773" lon="7.16041">
        <ele>2025.2</ele>
        <time>2022-07-19T07:01:51Z</time>
      </trkpt>
      <trkpt lat="44.18765" lon="7.16044">
        <ele>2024.8</ele>
        <time>2022-07-19T07:01:52Z</time>
      </trkpt>
      <trkpt lat="44.18756" lon="7.16048">
        <ele>2024.4</ele>
        <time>2022-07-19T07:01:53Z</time>
      </trkpt>
      <trkpt lat="44.18747" lon="7.16051">
        <ele>2024</ele>
        <time>2022-07-19T07:01:54Z</time>
      </trkpt>
      <trkpt lat="44.18738" lon="7.16055">
        <ele>2023.6</ele>
        <time>2022-07-19T07:01:55Z</time>
      </trkpt>
      <trkpt lat="44.18728" lon="7.16058">
        <ele>2023.2</ele>
        <time>2022-07-19T07:01:56Z</time>
      </trkpt>
      <trkpt lat="44.18719" lon="7.16063">
        <ele>2022.8</ele>
        <time>2022-07-19T07:01:57Z</time>
      </trkpt>
      <trkpt lat="44.1871" lon="7.16068">
        <ele>2022.4</ele>
        <time>2022-07-19T07:01:58Z</time>
      </trkpt>
      <trkpt lat="44.18701" lon="7.16073">
        <ele>2021.8</ele>
        <time>2022-07-19T07:01:59Z</time>
      </trkpt>
      <trkpt lat="44.18693" lon="7.16079">
        <ele>2021.4</ele>
        <time>2022-07-19T07:02:00Z</time>
      </trkpt>
      <trkpt lat="44.18685" lon="7.16085">
        <ele>2020.8</ele>
        <time>2022-07-19T07:02:01Z</time>
      </trkpt>
      <trkpt lat="44.18677" lon="7.16091">
        <ele>2020.4</ele>
        <time>2022-07-19T07:02:02Z</time>
      </trkpt>
      <trkpt lat="44.1867" lon="7.16097">
        <ele>2019.8</ele>
        <time>2022-07-19T07:02:03Z</time>
      </trkpt>
      <trkpt lat="44.18663" lon="7.16104">
        <ele>2019.2</ele>
        <time>2022-07-19T07:02:04Z</time>
      </trkpt>
      <trkpt lat="44.18657" lon="7.1611">
        <ele>2018.6</ele>
        <time>2022-07-19T07:02:05Z</time>
      </trkpt>
      <trkpt lat="44.18651" lon="7.16116">
        <ele>2018.2</ele>
        <time>2022-07-19T07:02:06Z</time>
      </trkpt>
      <trkpt lat="44.18647" lon="7.16121">
        <ele>2017.6</ele>
        <time>2022-07-19T07:02:07Z</time>
      </trkpt>
      <trkpt lat="44.18644" lon="7.16125">
        <ele>2017.2</ele>
        <time>2022-07-19T07:02:08Z</time>
      </trkpt>
      <trkpt lat="44.1864" lon="7.16127">
        <ele>2016.8</ele>
        <time>2022-07-19T07:02:09Z</time>
      </trkpt>
      <trkpt lat="44.18637" lon="7.16125">
        <ele>2016.6</ele>
        <time>2022-07-19T07:02:10Z</time>
      </trkpt>
      <trkpt lat="44.18635" lon="7.16121">
        <ele>2016.2</ele>
        <time>2022-07-19T07:02:11Z</time>
      </trkpt>
      <trkpt lat="44.18635" lon="7.16115">
        <ele>2015.8</ele>
        <time>2022-07-19T07:02:12Z</time>
      </trkpt>
      <trkpt lat="44.18636" lon="7.16109">
        <ele>2015.4</ele>
        <time>2022-07-19T07:02:13Z</time>
      </trkpt>
      <trkpt lat="44.18639" lon="7.16103">
        <ele>2015.2</ele>
        <time>2022-07-19T07:02:14Z</time>
      </trkpt>
      <trkpt lat="44.18644" lon="7.16098">
        <ele>2014.8</ele>
        <time>2022-07-19T07:02:15Z</time>
      </trkpt>
      <trkpt lat="44.18649" lon="7.16093">
        <ele>2014.4</ele>
        <time>2022-07-19T07:02:16Z</time>
      </trkpt>
      <trkpt lat="44.18654" lon="7.16088">
        <ele>2014.2</ele>
        <time>2022-07-19T07:02:17Z</time>
      </trkpt>
      <trkpt lat="44.1866" lon="7.16082">
        <ele>2013.6</ele>
        <time>2022-07-19T07:02:18Z</time>
      </trkpt>
      <trkpt lat="44.18666" lon="7.16075">
        <ele>2013.2</ele>
        <time>2022-07-19T07:02:19Z</time>
      </trkpt>
      <trkpt lat="44.18673" lon="7.16068">
        <ele>2012.4</ele>
        <time>2022-07-19T07:02:20Z</time>
      </trkpt>
      <trkpt lat="44.1868" lon="7.16061">
        <ele>2011.8</ele>
        <time>2022-07-19T07:02:21Z</time>
      </trkpt>
      <trkpt lat="44.18687" lon="7.16054">
        <ele>2011.4</ele>
        <time>2022-07-19T07:02:22Z</time>
      </trkpt>
      <trkpt lat="44.18693" lon="7.16046">
        <ele>2010.8</ele>
        <time>2022-07-19T07:02:23Z</time>
      </trkpt>
      <trkpt lat="44.187" lon="7.16039">
        <ele>2010.2</ele>
        <time>2022-07-19T07:02:24Z</time>
      </trkpt>
      <trkpt lat="44.18706" lon="7.16031">
        <ele>2009.6</ele>
        <time>2022-07-19T07:02:25Z</time>
      </trkpt>
      <trkpt lat="44.18712" lon="7.16023">
        <ele>2009</ele>
        <time>2022-07-19T07:02:26Z</time>
      </trkpt>
      <trkpt lat="44.18718" lon="7.16015">
        <ele>2008.4</ele>
        <time>2022-07-19T07:02:27Z</time>
      </trkpt>
      <trkpt lat="44.18724" lon="7.16007">
        <ele>2007.8</ele>
        <time>2022-07-19T07:02:28Z</time>
      </trkpt>
      <trkpt lat="44.18729" lon="7.15999">
        <ele>2007.2</ele>
        <time>2022-07-19T07:02:29Z</time>
      </trkpt>
      <trkpt lat="44.18734" lon="7.15992">
        <ele>2006.6</ele>
        <time>2022-07-19T07:02:30Z</time>
      </trkpt>
      <trkpt lat="44.18738" lon="7.15986">
        <ele>2006.4</ele>
        <time>2022-07-19T07:02:31Z</time>
      </trkpt>
      <trkpt lat="44.1874" lon="7.15981">
        <ele>2006</ele>
        <time>2022-07-19T07:02:32Z</time>
      </trkpt>
      <trkpt lat="44.18741" lon="7.15977">
        <ele>2006</ele>
        <time>2022-07-19T07:02:33Z</time>
      </trkpt>
      <trkpt lat="44.1874" lon="7.15973">
        <ele>2005.6</ele>
        <time>2022-07-19T07:02:34Z</time>
      </trkpt>
      <trkpt lat="44.18737" lon="7.15972">
        <ele>2005.4</ele>
        <time>2022-07-19T07:02:35Z</time>
      </trkpt>
      <trkpt lat="44.18734" lon="7.15971">
        <ele>2005.4</ele>
        <time>2022-07-19T07:02:36Z</time>
      </trkpt>
      <trkpt lat="44.1873" lon="7.15972">
        <ele>2005</ele>
        <time>2022-07-19T07:02:37Z</time>
      </trkpt>
      <trkpt lat="44.18726" lon="7.15974">
        <ele>2005</ele>
        <time>2022-07-19T07:02:38Z</time>
      </trkpt>
      <trkpt lat="44.18722" lon="7.15976">
        <ele>2004.6</ele>
        <time>2022-07-19T07:02:39Z</time>
      </trkpt>
      <trkpt lat="44.18717" lon="7.15979">
        <ele>2004.4</ele>
        <time>2022-07-19T07:02:40Z</time>
      </trkpt>
      <trkpt lat="44.18712" lon="7.15984">
        <ele>2004</ele>
        <time>2022-07-19T07:02:41Z</time>
      </trkpt>
      <trkpt lat="44.18707" lon="7.15989">
        <ele>2003.6</ele>
        <time>2022-07-19T07:02:42Z</time>
      </trkpt>
      <trkpt lat="44.18702" lon="7.15994">
        <ele>2003.2</ele>
        <time>2022-07-19T07:02:43Z</time>
      </trkpt>
      <trkpt lat="44.18696" lon="7.15998">
        <ele>2002.6</ele>
        <time>2022-07-19T07:02:44Z</time>
      </trkpt>
      <trkpt lat="44.18689" lon="7.16004">
        <ele>2002</ele>
        <time>2022-07-19T07:02:45Z</time>
      </trkpt>
      <trkpt lat="44.18682" lon="7.16009">
        <ele>2001.6</ele>
        <time>2022-07-19T07:02:46Z</time>
      </trkpt>
      <trkpt lat="44.18674" lon="7.16014">
        <ele>2001</ele>
        <time>2022-07-19T07:02:47Z</time>
      </trkpt>
      <trkpt lat="44.18666" lon="7.1602">
        <ele>2000.4</ele>
        <time>2022-07-19T07:02:48Z</time>
      </trkpt>
      <trkpt lat="44.18656" lon="7.16026">
        <ele>1999.8</ele>
        <time>2022-07-19T07:02:49Z</time>
      </trkpt>
      <trkpt lat="44.18647" lon="7.16034">
        <ele>1999.2</ele>
        <time>2022-07-19T07:02:50Z</time>
      </trkpt>
      <trkpt lat="44.18638" lon="7.16042">
        <ele>1998.4</ele>
        <time>2022-07-19T07:02:51Z</time>
      </trkpt>
      <trkpt lat="44.18629" lon="7.1605">
        <ele>1997.8</ele>
        <time>2022-07-19T07:02:52Z</time>
      </trkpt>
      <trkpt lat="44.1862" lon="7.16057">
        <ele>1996.8</ele>
        <time>2022-07-19T07:02:53Z</time>
      </trkpt>
      <trkpt lat="44.1861" lon="7.16065">
        <ele>1996</ele>
        <time>2022-07-19T07:02:54Z</time>
      </trkpt>
      <trkpt lat="44.18601" lon="7.16073">
        <ele>1995.2</ele>
        <time>2022-07-19T07:02:55Z</time>
      </trkpt>
      <trkpt lat="44.18591" lon="7.16082">
        <ele>1994.4</ele>
        <time>2022-07-19T07:02:56Z</time>
      </trkpt>
      <trkpt lat="44.18581" lon="7.16092">
        <ele>1993.6</ele>
        <time>2022-07-19T07:02:57Z</time>
      </trkpt>
      <trkpt lat="44.18571" lon="7.16101">
        <ele>1992.8</ele>
        <time>2022-07-19T07:02:58Z</time>
      </trkpt>
      <trkpt lat="44.18562" lon="7.16111">
        <ele>1992</ele>
        <time>2022-07-19T07:02:59Z</time>
      </trkpt>
      <trkpt lat="44.18551" lon="7.1612">
        <ele>1991.2</ele>
        <time>2022-07-19T07:03:00Z</time>
      </trkpt>
      <trkpt lat="44.18541" lon="7.1613">
        <ele>1990.4</ele>
        <time>2022-07-19T07:03:01Z</time>
      </trkpt>
      <trkpt lat="44.18531" lon="7.16139">
        <ele>1989.4</ele>
        <time>2022-07-19T07:03:02Z</time>
      </trkpt>
      <trkpt lat="44.18521" lon="7.16147">
        <ele>1988.6</ele>
        <time>2022-07-19T07:03:03Z</time>
      </trkpt>
      <trkpt lat="44.18512" lon="7.16157">
        <ele>1987.8</ele>
        <time>2022-07-19T07:03:04Z</time>
      </trkpt>
      <trkpt lat="44.18503" lon="7.16166">
        <ele>1987</ele>
        <time>2022-07-19T07:03:05Z</time>
      </trkpt>
      <trkpt lat="44.18493" lon="7.16176">
        <ele>1986.2</ele>
        <time>2022-07-19T07:03:06Z</time>
      </trkpt>
      <trkpt lat="44.18484" lon="7.16186">
        <ele>1985.2</ele>
        <time>2022-07-19T07:03:07Z</time>
      </trkpt>
      <trkpt lat="44.18475" lon="7.16194">
        <ele>1984.4</ele>
        <time>2022-07-19T07:03:08Z</time>
      </trkpt>
      <trkpt lat="44.18466" lon="7.16202">
        <ele>1983.6</ele>
        <time>2022-07-19T07:03:09Z</time>
      </trkpt>
      <trkpt lat="44.18457" lon="7.16209">
        <ele>1983</ele>
        <time>2022-07-19T07:03:10Z</time>
      </trkpt>
      <trkpt lat="44.1845" lon="7.16215">
        <ele>1982.2</ele>
        <time>2022-07-19T07:03:11Z</time>
      </trkpt>
      <trkpt lat="44.18442" lon="7.16221">
        <ele>1981.8</ele>
        <time>2022-07-19T07:03:12Z</time>
      </trkpt>
      <trkpt lat="44.18435" lon="7.16226">
        <ele>1981.2</ele>
        <time>2022-07-19T07:03:13Z</time>
      </trkpt>
      <trkpt lat="44.18427" lon="7.16232">
        <ele>1980.6</ele>
        <time>2022-07-19T07:03:14Z</time>
      </trkpt>
      <trkpt lat="44.18419" lon="7.16237">
        <ele>1980</ele>
        <time>2022-07-19T07:03:15Z</time>
      </trkpt>
      <trkpt lat="44.18411" lon="7.16241">
        <ele>1979.4</ele>
        <time>2022-07-19T07:03:16Z</time>
      </trkpt>
      <trkpt lat="44.18402" lon="7.16244">
        <ele>1978.8</ele>
        <time>2022-07-19T07:03:17Z</time>
      </trkpt>
      <trkpt lat="44.18394" lon="7.16248">
        <ele>1978.4</ele>
        <time>2022-07-19T07:03:18Z</time>
      </trkpt>
      <trkpt lat="44.18386" lon="7.16252">
        <ele>1978</ele>
        <time>2022-07-19T07:03:19Z</time>
      </trkpt>
      <trkpt lat="44.18379" lon="7.16254">
        <ele>1977.6</ele>
        <time>2022-07-19T07:03:20Z</time>
      </trkpt>
      <trkpt lat="44.18373" lon="7.16256">
        <ele>1977.2</ele>
        <time>2022-07-19T07:03:21Z</time>
      </trkpt>
      <trkpt lat="44.18367" lon="7.16255">
        <ele>1976.8</ele>
        <time>2022-07-19T07:03:22Z</time>
      </trkpt>
      <trkpt lat="44.18362" lon="7.16252">
        <ele>1976.4</ele>
        <time>2022-07-19T07:03:23Z</time>
      </trkpt>
      <trkpt lat="44.1836" lon="7.16246">
        <ele>1976</ele>
        <time>2022-07-19T07:03:24Z</time>
      </trkpt>
      <trkpt lat="44.18359" lon="7.16239">
        <ele>1975.8</ele>
        <time>2022-07-19T07:03:25Z</time>
      </trkpt>
      <trkpt lat="44.18361" lon="7.16232">
        <ele>1975.4</ele>
        <time>2022-07-19T07:03:26Z</time>
      </trkpt>
      <trkpt lat="44.18365" lon="7.16226">
        <ele>1975.2</ele>
        <time>2022-07-19T07:03:27Z</time>
      </trkpt>
      <trkpt lat="44.18371" lon="7.16222">
        <ele>1974.8</ele>
        <time>2022-07-19T07:03:28Z</time>
      </trkpt>
      <trkpt lat="44.18377" lon="7.1622">
        <ele>1974.4</ele>
        <time>2022-07-19T07:03:29Z</time>
      </trkpt>
      <trkpt lat="44.18383" lon="7.16219">
        <ele>1974</ele>
        <time>2022-07-19T07:03:30Z</time>
      </trkpt>
      <trkpt lat="44.18391" lon="7.16218">
        <ele>1973.6</ele>
        <time>2022-07-19T07:03:31Z</time>
      </trkpt>
      <trkpt lat="44.18398" lon="7.16216">
        <ele>1973.2</ele>
        <time>2022-07-19T07:03:32Z</time>
      </trkpt>
      <trkpt lat="44.18406" lon="7.16213">
        <ele>1972.6</ele>
        <time>2022-07-19T07:03:33Z</time>
      </trkpt>
      <trkpt lat="44.18413" lon="7.16209">
        <ele>1972</ele>
        <time>2022-07-19T07:03:34Z</time>
      </trkpt>
      <trkpt lat="44.18421" lon="7.16204">
        <ele>1971.6</ele>
        <time>2022-07-19T07:03:35Z</time>
      </trkpt>
      <trkpt lat="44.18429" lon="7.16198">
        <ele>1971</ele>
        <time>2022-07-19T07:03:36Z</time>
      </trkpt>
      <trkpt lat="44.18436" lon="7.16191">
        <ele>1970.4</ele>
        <time>2022-07-19T07:03:37Z</time>
      </trkpt>
      <trkpt lat="44.18443" lon="7.16182">
        <ele>1969.8</ele>
        <time>2022-07-19T07:03:38Z</time>
      </trkpt>
      <trkpt lat="44.18449" lon="7.16172">
        <ele>1969.2</ele>
        <time>2022-07-19T07:03:39Z</time>
      </trkpt>
      <trkpt lat="44.18456" lon="7.16161">
        <ele>1968.6</ele>
        <time>2022-07-19T07:03:40Z</time>
      </trkpt>
      <trkpt lat="44.18462" lon="7.1615">
        <ele>1968</ele>
        <time>2022-07-19T07:03:41Z</time>
      </trkpt>
      <trkpt lat="44.18467" lon="7.16139">
        <ele>1967.4</ele>
        <time>2022-07-19T07:03:42Z</time>
      </trkpt>
      <trkpt lat="44.18472" lon="7.16128">
        <ele>1966.8</ele>
        <time>2022-07-19T07:03:43Z</time>
      </trkpt>
      <trkpt lat="44.18476" lon="7.16119">
        <ele>1966</ele>
        <time>2022-07-19T07:03:44Z</time>
      </trkpt>
      <trkpt lat="44.18481" lon="7.1611">
        <ele>1965.4</ele>
        <time>2022-07-19T07:03:45Z</time>
      </trkpt>
      <trkpt lat="44.18486" lon="7.16102">
        <ele>1964.8</ele>
        <time>2022-07-19T07:03:46Z</time>
      </trkpt>
      <trkpt lat="44.18491" lon="7.16093">
        <ele>1964</ele>
        <time>2022-07-19T07:03:47Z</time>
      </trkpt>
      <trkpt lat="44.18495" lon="7.16085">
        <ele>1963.4</ele>
        <time>2022-07-19T07:03:48Z</time>
      </trkpt>
      <trkpt lat="44.185" lon="7.16076">
        <ele>1962.6</ele>
        <time>2022-07-19T07:03:49Z</time>
      </trkpt>
      <trkpt lat="44.18505" lon="7.16067">
        <ele>1962</ele>
        <time>2022-07-19T07:03:50Z</time>
      </trkpt>
      <trkpt lat="44.18509" lon="7.16057">
        <ele>1961.4</ele>
        <time>2022-07-19T07:03:51Z</time>
      </trkpt>
      <trkpt lat="44.18514" lon="7.1605">
        <ele>1960.8</ele>
        <time>2022-07-19T07:03:52Z</time>
      </trkpt>
      <trkpt lat="44.18519" lon="7.16043">
        <ele>1960.2</ele>
        <time>2022-07-19T07:03:53Z</time>
      </trkpt>
      <trkpt lat="44.18523" lon="7.16034">
        <ele>1959.8</ele>
        <time>2022-07-19T07:03:54Z</time>
      </trkpt>
      <trkpt lat="44.18527" lon="7.16024">
        <ele>1959.2</ele>
        <time>2022-07-19T07:03:55Z</time>
      </trkpt>
      <trkpt lat="44.18532" lon="7.16016">
        <ele>1958.6</ele>
        <time>2022-07-19T07:03:56Z</time>
      </trkpt>
      <trkpt lat="44.18536" lon="7.16007">
        <ele>1958.2</ele>
        <time>2022-07-19T07:03:57Z</time>
      </trkpt>
      <trkpt lat="44.1854" lon="7.15998">
        <ele>1957.8</ele>
        <time>2022-07-19T07:03:58Z</time>
      </trkpt>
      <trkpt lat="44.18545" lon="7.15988">
        <ele>1957.4</ele>
        <time>2022-07-19T07:03:59Z</time>
      </trkpt>
      <trkpt lat="44.1855" lon="7.15979">
        <ele>1956.8</ele>
        <time>2022-07-19T07:04:00Z</time>
      </trkpt>
      <trkpt lat="44.18555" lon="7.1597">
        <ele>1956.2</ele>
        <time>2022-07-19T07:04:01Z</time>
      </trkpt>
      <trkpt lat="44.1856" lon="7.15961">
        <ele>1955.6</ele>
        <time>2022-07-19T07:04:02Z</time>
      </trkpt>
      <trkpt lat="44.18566" lon="7.15952">
        <ele>1955</ele>
        <time>2022-07-19T07:04:03Z</time>
      </trkpt>
      <trkpt lat="44.18571" lon="7.15942">
        <ele>1954.6</ele>
        <time>2022-07-19T07:04:04Z</time>
      </trkpt>
      <trkpt lat="44.18576" lon="7.15932">
        <ele>1954</ele>
        <time>2022-07-19T07:04:05Z</time>
      </trkpt>
      <trkpt lat="44.18583" lon="7.15921">
        <ele>1953.4</ele>
        <time>2022-07-19T07:04:06Z</time>
      </trkpt>
      <trkpt lat="44.18589" lon="7.15909">
        <ele>1952.8</ele>
        <time>2022-07-19T07:04:07Z</time>
      </trkpt>
      <trkpt lat="44.18597" lon="7.15898">
        <ele>1952</ele>
        <time>2022-07-19T07:04:08Z</time>
      </trkpt>
      <trkpt lat="44.18603" lon="7.15887">
        <ele>1951.4</ele>
        <time>2022-07-19T07:04:09Z</time>
      </trkpt>
      <trkpt lat="44.1861" lon="7.15876">
        <ele>1950.8</ele>
        <time>2022-07-19T07:04:10Z</time>
      </trkpt>
      <trkpt lat="44.18616" lon="7.15865">
        <ele>1950.4</ele>
        <time>2022-07-19T07:04:11Z</time>
      </trkpt>
      <trkpt lat="44.18622" lon="7.15855">
        <ele>1950.2</ele>
        <time>2022-07-19T07:04:12Z</time>
      </trkpt>
      <trkpt lat="44.18628" lon="7.15845">
        <ele>1949.8</ele>
        <time>2022-07-19T07:04:13Z</time>
      </trkpt>
      <trkpt lat="44.18633" lon="7.15837">
        <ele>1949.8</ele>
        <time>2022-07-19T07:04:14Z</time>
      </trkpt>
      <trkpt lat="44.18638" lon="7.15828">
        <ele>1949.6</ele>
        <time>2022-07-19T07:04:15Z</time>
      </trkpt>
      <trkpt lat="44.18643" lon="7.15821">
        <ele>1949.6</ele>
        <time>2022-07-19T07:04:16Z</time>
      </trkpt>
      <trkpt lat="44.18648" lon="7.15815">
        <ele>1949.6</ele>
        <time>2022-07-19T07:04:17Z</time>
      </trkpt>
      <trkpt lat="44.18653" lon="7.15811">
        <ele>1949.6</ele>
        <time>2022-07-19T07:04:18Z</time>
      </trkpt>
      <trkpt lat="44.18658" lon="7.15808">
        <ele>1949.6</ele>
        <time>2022-07-19T07:04:19Z</time>
      </trkpt>
      <trkpt lat="44.18663" lon="7.15805">
        <ele>1949.6</ele>
        <time>2022-07-19T07:04:20Z</time>
      </trkpt>
      <trkpt lat="44.18667" lon="7.15802">
        <ele>1950</ele>
        <time>2022-07-19T07:04:21Z</time>
      </trkpt>
      <trkpt lat="44.18671" lon="7.15798">
        <ele>1950</ele>
        <time>2022-07-19T07:04:22Z</time>
      </trkpt>
      <trkpt lat="44.18673" lon="7.15793">
        <ele>1950.2</ele>
        <time>2022-07-19T07:04:23Z</time>
      </trkpt>
      <trkpt lat="44.18674" lon="7.15788">
        <ele>1950.2</ele>
        <time>2022-07-19T07:04:24Z</time>
      </trkpt>
      <trkpt lat="44.18674" lon="7.15782">
        <ele>1950.2</ele>
        <time>2022-07-19T07:04:25Z</time>
      </trkpt>
      <trkpt lat="44.18675" lon="7.15775">
        <ele>1950.2</ele>
        <time>2022-07-19T07:04:26Z</time>
      </trkpt>
      <trkpt lat="44.18677" lon="7.15769">
        <ele>1950.2</ele>
        <time>2022-07-19T07:04:27Z</time>
      </trkpt>
      <trkpt lat="44.18681" lon="7.15764">
        <ele>1950</ele>
        <time>2022-07-19T07:04:28Z</time>
      </trkpt>
      <trkpt lat="44.18685" lon="7.15759">
        <ele>1949.6</ele>
        <time>2022-07-19T07:04:29Z</time>
      </trkpt>
      <trkpt lat="44.1869" lon="7.15755">
        <ele>1949.4</ele>
        <time>2022-07-19T07:04:30Z</time>
      </trkpt>
      <trkpt lat="44.18696" lon="7.1575">
        <ele>1949</ele>
        <time>2022-07-19T07:04:31Z</time>
      </trkpt>
      <trkpt lat="44.18702" lon="7.15744">
        <ele>1948.4</ele>
        <time>2022-07-19T07:04:32Z</time>
      </trkpt>
      <trkpt lat="44.18708" lon="7.15738">
        <ele>1947.8</ele>
        <time>2022-07-19T07:04:33Z</time>
      </trkpt>
      <trkpt lat="44.18715" lon="7.15732">
        <ele>1947.4</ele>
        <time>2022-07-19T07:04:34Z</time>
      </trkpt>
      <trkpt lat="44.18722" lon="7.15725">
        <ele>1946.8</ele>
        <time>2022-07-19T07:04:35Z</time>
      </trkpt>
      <trkpt lat="44.18728" lon="7.15718">
        <ele>1946.2</ele>
        <time>2022-07-19T07:04:36Z</time>
      </trkpt>
      <trkpt lat="44.18735" lon="7.1571">
        <ele>1945.6</ele>
        <time>2022-07-19T07:04:37Z</time>
      </trkpt>
      <trkpt lat="44.18742" lon="7.157">
        <ele>1945.2</ele>
        <time>2022-07-19T07:04:38Z</time>
      </trkpt>
      <trkpt lat="44.1875" lon="7.1569">
        <ele>1944.6</ele>
        <time>2022-07-19T07:04:39Z</time>
      </trkpt>
      <trkpt lat="44.18757" lon="7.1568">
        <ele>1944</ele>
        <time>2022-07-19T07:04:40Z</time>
      </trkpt>
      <trkpt lat="44.18765" lon="7.1567">
        <ele>1943.2</ele>
        <time>2022-07-19T07:04:41Z</time>
      </trkpt>
      <trkpt lat="44.18772" lon="7.15659">
        <ele>1942.4</ele>
        <time>2022-07-19T07:04:42Z</time>
      </trkpt>
      <trkpt lat="44.1878" lon="7.15648">
        <ele>1941.6</ele>
        <time>2022-07-19T07:04:43Z</time>
      </trkpt>
      <trkpt lat="44.18788" lon="7.15637">
        <ele>1940.8</ele>
        <time>2022-07-19T07:04:44Z</time>
      </trkpt>
      <trkpt lat="44.18795" lon="7.15626">
        <ele>1940</ele>
        <time>2022-07-19T07:04:45Z</time>
      </trkpt>
      <trkpt lat="44.18803" lon="7.15614">
        <ele>1939.2</ele>
        <time>2022-07-19T07:04:46Z</time>
      </trkpt>
      <trkpt lat="44.18811" lon="7.15602">
        <ele>1938.4</ele>
        <time>2022-07-19T07:04:47Z</time>
      </trkpt>
      <trkpt lat="44.18819" lon="7.15589">
        <ele>1937.4</ele>
        <time>2022-07-19T07:04:48Z</time>
      </trkpt>
      <trkpt lat="44.18827" lon="7.15577">
        <ele>1936.6</ele>
        <time>2022-07-19T07:04:49Z</time>
      </trkpt>
      <trkpt lat="44.18835" lon="7.15565">
        <ele>1935.8</ele>
        <time>2022-07-19T07:04:50Z</time>
      </trkpt>
      <trkpt lat="44.18843" lon="7.15554">
        <ele>1935</ele>
        <time>2022-07-19T07:04:51Z</time>
      </trkpt>
      <trkpt lat="44.18851" lon="7.15542">
        <ele>1934.2</ele>
        <time>2022-07-19T07:04:52Z</time>
      </trkpt>
      <trkpt lat="44.18859" lon="7.1553">
        <ele>1933.4</ele>
        <time>2022-07-19T07:04:53Z</time>
      </trkpt>
      <trkpt lat="44.18867" lon="7.15517">
        <ele>1932.4</ele>
        <time>2022-07-19T07:04:54Z</time>
      </trkpt>
      <trkpt lat="44.18875" lon="7.15504">
        <ele>1931.6</ele>
        <time>2022-07-19T07:04:55Z</time>
      </trkpt>
      <trkpt lat="44.18883" lon="7.15491">
        <ele>1930.6</ele>
        <time>2022-07-19T07:04:56Z</time>
      </trkpt>
      <trkpt lat="44.1889" lon="7.1548">
        <ele>1929.6</ele>
        <time>2022-07-19T07:04:57Z</time>
      </trkpt>
      <trkpt lat="44.18897" lon="7.15469">
        <ele>1928.8</ele>
        <time>2022-07-19T07:04:58Z</time>
      </trkpt>
      <trkpt lat="44.18904" lon="7.15458">
        <ele>1928</ele>
        <time>2022-07-19T07:04:59Z</time>
      </trkpt>
      <trkpt lat="44.18911" lon="7.15447">
        <ele>1927.2</ele>
        <time>2022-07-19T07:05:00Z</time>
      </trkpt>
      <trkpt lat="44.18918" lon="7.15436">
        <ele>1926.4</ele>
        <time>2022-07-19T07:05:01Z</time>
      </trkpt>
      <trkpt lat="44.18925" lon="7.15423">
        <ele>1925.6</ele>
        <time>2022-07-19T07:05:02Z</time>
      </trkpt>
      <trkpt lat="44.18933" lon="7.15411">
        <ele>1924.8</ele>
        <time>2022-07-19T07:05:03Z</time>
      </trkpt>
      <trkpt lat="44.18941" lon="7.15399">
        <ele>1924</ele>
        <time>2022-07-19T07:05:04Z</time>
      </trkpt>
      <trkpt lat="44.1895" lon="7.15387">
        <ele>1923.2</ele>
        <time>2022-07-19T07:05:05Z</time>
      </trkpt>
      <trkpt lat="44.18958" lon="7.15377">
        <ele>1922.4</ele>
        <time>2022-07-19T07:05:06Z</time>
      </trkpt>
      <trkpt lat="44.18967" lon="7.15365">
        <ele>1921.6</ele>
        <time>2022-07-19T07:05:07Z</time>
      </trkpt>
      <trkpt lat="44.18975" lon="7.15353">
        <ele>1920.8</ele>
        <time>2022-07-19T07:05:08Z</time>
      </trkpt>
      <trkpt lat="44.18983" lon="7.15343">
        <ele>1920</ele>
        <time>2022-07-19T07:05:09Z</time>
      </trkpt>
      <trkpt lat="44.18991" lon="7.15332">
        <ele>1919.2</ele>
        <time>2022-07-19T07:05:10Z</time>
      </trkpt>
      <trkpt lat="44.18998" lon="7.15321">
        <ele>1918.4</ele>
        <time>2022-07-19T07:05:11Z</time>
      </trkpt>
      <trkpt lat="44.19005" lon="7.15311">
        <ele>1917.4</ele>
        <time>2022-07-19T07:05:12Z</time>
      </trkpt>
      <trkpt lat="44.19012" lon="7.153">
        <ele>1916.8</ele>
        <time>2022-07-19T07:05:13Z</time>
      </trkpt>
      <trkpt lat="44.19019" lon="7.15288">
        <ele>1916</ele>
        <time>2022-07-19T07:05:14Z</time>
      </trkpt>
      <trkpt lat="44.19026" lon="7.15278">
        <ele>1915.2</ele>
        <time>2022-07-19T07:05:15Z</time>
      </trkpt>
      <trkpt lat="44.19032" lon="7.15269">
        <ele>1914.6</ele>
        <time>2022-07-19T07:05:16Z</time>
      </trkpt>
      <trkpt lat="44.19038" lon="7.15263">
        <ele>1913.8</ele>
        <time>2022-07-19T07:05:17Z</time>
      </trkpt>
      <trkpt lat="44.19045" lon="7.15259">
        <ele>1913.2</ele>
        <time>2022-07-19T07:05:18Z</time>
      </trkpt>
      <trkpt lat="44.19051" lon="7.15255">
        <ele>1912.4</ele>
        <time>2022-07-19T07:05:19Z</time>
      </trkpt>
      <trkpt lat="44.19055" lon="7.15251">
        <ele>1912</ele>
        <time>2022-07-19T07:05:20Z</time>
      </trkpt>
      <trkpt lat="44.19058" lon="7.15246">
        <ele>1911.4</ele>
        <time>2022-07-19T07:05:21Z</time>
      </trkpt>
      <trkpt lat="44.19058" lon="7.15241">
        <ele>1911</ele>
        <time>2022-07-19T07:05:22Z</time>
      </trkpt>
      <trkpt lat="44.19056" lon="7.15237">
        <ele>1910.8</ele>
        <time>2022-07-19T07:05:23Z</time>
      </trkpt>
      <trkpt lat="44.19053" lon="7.15234">
        <ele>1910.6</ele>
        <time>2022-07-19T07:05:24Z</time>
      </trkpt>
      <trkpt lat="44.19049" lon="7.15235">
        <ele>1910.4</ele>
        <time>2022-07-19T07:05:25Z</time>
      </trkpt>
      <trkpt lat="44.19043" lon="7.15238">
        <ele>1910</ele>
        <time>2022-07-19T07:05:26Z</time>
      </trkpt>
      <trkpt lat="44.19038" lon="7.15241">
        <ele>1909.8</ele>
        <time>2022-07-19T07:05:27Z</time>
      </trkpt>
      <trkpt lat="44.19032" lon="7.15245">
        <ele>1909.6</ele>
        <time>2022-07-19T07:05:28Z</time>
      </trkpt>
      <trkpt lat="44.19027" lon="7.1525">
        <ele>1909.2</ele>
        <time>2022-07-19T07:05:29Z</time>
      </trkpt>
      <trkpt lat="44.19021" lon="7.15256">
        <ele>1908.8</ele>
        <time>2022-07-19T07:05:30Z</time>
      </trkpt>
      <trkpt lat="44.19015" lon="7.15262">
        <ele>1908.2</ele>
        <time>2022-07-19T07:05:31Z</time>
      </trkpt>
      <trkpt lat="44.19008" lon="7.15269">
        <ele>1907.8</ele>
        <time>2022-07-19T07:05:32Z</time>
      </trkpt>
      <trkpt lat="44.19002" lon="7.15276">
        <ele>1907.4</ele>
        <time>2022-07-19T07:05:33Z</time>
      </trkpt>
      <trkpt lat="44.18995" lon="7.15283">
        <ele>1906.8</ele>
        <time>2022-07-19T07:05:34Z</time>
      </trkpt>
      <trkpt lat="44.18988" lon="7.1529">
        <ele>1906.2</ele>
        <time>2022-07-19T07:05:35Z</time>
      </trkpt>
      <trkpt lat="44.18982" lon="7.15297">
        <ele>1906</ele>
        <time>2022-07-19T07:05:36Z</time>
      </trkpt>
      <trkpt lat="44.18976" lon="7.15302">
        <ele>1905.6</ele>
        <time>2022-07-19T07:05:37Z</time>
      </trkpt>
      <trkpt lat="44.18972" lon="7.15304">
        <ele>1905</ele>
        <time>2022-07-19T07:05:38Z</time>
      </trkpt>
      <trkpt lat="44.18969" lon="7.15303">
        <ele>1904.8</ele>
        <time>2022-07-19T07:05:39Z</time>
      </trkpt>
      <trkpt lat="44.18968" lon="7.15299">
        <ele>1904.4</ele>
        <time>2022-07-19T07:05:40Z</time>
      </trkpt>
      <trkpt lat="44.18969" lon="7.15293">
        <ele>1904.2</ele>
        <time>2022-07-19T07:05:41Z</time>
      </trkpt>
      <trkpt lat="44.18971" lon="7.15287">
        <ele>1904</ele>
        <time>2022-07-19T07:05:42Z</time>
      </trkpt>
      <trkpt lat="44.18975" lon="7.15281">
        <ele>1903.4</ele>
        <time>2022-07-19T07:05:43Z</time>
      </trkpt>
      <trkpt lat="44.1898" lon="7.15276">
        <ele>1903.2</ele>
        <time>2022-07-19T07:05:44Z</time>
      </trkpt>
      <trkpt lat="44.18984" lon="7.15271">
        <ele>1902.8</ele>
        <time>2022-07-19T07:05:45Z</time>
      </trkpt>
      <trkpt lat="44.18989" lon="7.15265">
        <ele>1902.4</ele>
        <time>2022-07-19T07:05:46Z</time>
      </trkpt>
      <trkpt lat="44.18994" lon="7.15259">
        <ele>1902</ele>
        <time>2022-07-19T07:05:47Z</time>
      </trkpt>
      <trkpt lat="44.19" lon="7.15251">
        <ele>1901.4</ele>
        <time>2022-07-19T07:05:48Z</time>
      </trkpt>
      <trkpt lat="44.19005" lon="7.15243">
        <ele>1900.8</ele>
        <time>2022-07-19T07:05:49Z</time>
      </trkpt>
      <trkpt lat="44.19011" lon="7.15235">
        <ele>1900.2</ele>
        <time>2022-07-19T07:05:50Z</time>
      </trkpt>
      <trkpt lat="44.19017" lon="7.15226">
        <ele>1899.6</ele>
        <time>2022-07-19T07:05:51Z</time>
      </trkpt>
      <trkpt lat="44.19028" lon="7.15206">
        <ele>1899.2</ele>
        <time>2022-07-19T07:05:52Z</time>
      </trkpt>
      <trkpt lat="44.19034" lon="7.15195">
        <ele>1898.6</ele>
        <time>2022-07-19T07:05:53Z</time>
      </trkpt>
      <trkpt lat="44.19039" lon="7.15183">
        <ele>1898</ele>
        <time>2022-07-19T07:05:54Z</time>
      </trkpt>
      <trkpt lat="44.19046" lon="7.15172">
        <ele>1897.4</ele>
        <time>2022-07-19T07:05:55Z</time>
      </trkpt>
      <trkpt lat="44.19053" lon="7.15161">
        <ele>1896.6</ele>
        <time>2022-07-19T07:05:56Z</time>
      </trkpt>
      <trkpt lat="44.1906" lon="7.1515">
        <ele>1895.8</ele>
        <time>2022-07-19T07:05:57Z</time>
      </trkpt>
      <trkpt lat="44.19066" lon="7.15139">
        <ele>1895</ele>
        <time>2022-07-19T07:05:58Z</time>
      </trkpt>
      <trkpt lat="44.19072" lon="7.15127">
        <ele>1894.4</ele>
        <time>2022-07-19T07:05:59Z</time>
      </trkpt>
      <trkpt lat="44.19079" lon="7.15113">
        <ele>1893.6</ele>
        <time>2022-07-19T07:06:00Z</time>
      </trkpt>
      <trkpt lat="44.19085" lon="7.15099">
        <ele>1892.8</ele>
        <time>2022-07-19T07:06:01Z</time>
      </trkpt>
      <trkpt lat="44.19091" lon="7.15086">
        <ele>1892</ele>
        <time>2022-07-19T07:06:02Z</time>
      </trkpt>
      <trkpt lat="44.19096" lon="7.15073">
        <ele>1891.2</ele>
        <time>2022-07-19T07:06:03Z</time>
      </trkpt>
      <trkpt lat="44.191" lon="7.15059">
        <ele>1890.4</ele>
        <time>2022-07-19T07:06:04Z</time>
      </trkpt>
      <trkpt lat="44.19105" lon="7.15044">
        <ele>1889.6</ele>
        <time>2022-07-19T07:06:05Z</time>
      </trkpt>
      <trkpt lat="44.19109" lon="7.1503">
        <ele>1888.8</ele>
        <time>2022-07-19T07:06:06Z</time>
      </trkpt>
      <trkpt lat="44.19113" lon="7.15015">
        <ele>1888.2</ele>
        <time>2022-07-19T07:06:07Z</time>
      </trkpt>
      <trkpt lat="44.19117" lon="7.15">
        <ele>1887.4</ele>
        <time>2022-07-19T07:06:08Z</time>
      </trkpt>
      <trkpt lat="44.19122" lon="7.14986">
        <ele>1886.6</ele>
        <time>2022-07-19T07:06:09Z</time>
      </trkpt>
      <trkpt lat="44.19126" lon="7.14973">
        <ele>1885.8</ele>
        <time>2022-07-19T07:06:10Z</time>
      </trkpt>
      <trkpt lat="44.19131" lon="7.1496">
        <ele>1885</ele>
        <time>2022-07-19T07:06:11Z</time>
      </trkpt>
      <trkpt lat="44.19137" lon="7.14947">
        <ele>1884.2</ele>
        <time>2022-07-19T07:06:12Z</time>
      </trkpt>
      <trkpt lat="44.19142" lon="7.14934">
        <ele>1883.4</ele>
        <time>2022-07-19T07:06:13Z</time>
      </trkpt>
      <trkpt lat="44.19145" lon="7.14918">
        <ele>1882.6</ele>
        <time>2022-07-19T07:06:14Z</time>
      </trkpt>
      <trkpt lat="44.19148" lon="7.14903">
        <ele>1881.8</ele>
        <time>2022-07-19T07:06:15Z</time>
      </trkpt>
      <trkpt lat="44.1915" lon="7.14886">
        <ele>1881</ele>
        <time>2022-07-19T07:06:16Z</time>
      </trkpt>
      <trkpt lat="44.19152" lon="7.14869">
        <ele>1880</ele>
        <time>2022-07-19T07:06:17Z</time>
      </trkpt>
      <trkpt lat="44.19154" lon="7.14852">
        <ele>1879</ele>
        <time>2022-07-19T07:06:18Z</time>
      </trkpt>
      <trkpt lat="44.19156" lon="7.14836">
        <ele>1878.2</ele>
        <time>2022-07-19T07:06:19Z</time>
      </trkpt>
      <trkpt lat="44.19157" lon="7.1482">
        <ele>1877.4</ele>
        <time>2022-07-19T07:06:20Z</time>
      </trkpt>
      <trkpt lat="44.19159" lon="7.14803">
        <ele>1876.4</ele>
        <time>2022-07-19T07:06:21Z</time>
      </trkpt>
      <trkpt lat="44.19161" lon="7.14787">
        <ele>1875.6</ele>
        <time>2022-07-19T07:06:22Z</time>
      </trkpt>
      <trkpt lat="44.19163" lon="7.1477">
        <ele>1874.6</ele>
        <time>2022-07-19T07:06:23Z</time>
      </trkpt>
      <trkpt lat="44.19166" lon="7.14755">
        <ele>1873.6</ele>
        <time>2022-07-19T07:06:24Z</time>
      </trkpt>
      <trkpt lat="44.19167" lon="7.14739">
        <ele>1872.8</ele>
        <time>2022-07-19T07:06:25Z</time>
      </trkpt>
      <trkpt lat="44.19168" lon="7.14723">
        <ele>1872</ele>
        <time>2022-07-19T07:06:26Z</time>
      </trkpt>
      <trkpt lat="44.1917" lon="7.14707">
        <ele>1871.2</ele>
        <time>2022-07-19T07:06:27Z</time>
      </trkpt>
      <trkpt lat="44.19171" lon="7.14691">
        <ele>1870.2</ele>
        <time>2022-07-19T07:06:28Z</time>
      </trkpt>
      <trkpt lat="44.19171" lon="7.14675">
        <ele>1869.4</ele>
        <time>2022-07-19T07:06:29Z</time>
      </trkpt>
      <trkpt lat="44.19172" lon="7.14659">
        <ele>1868.6</ele>
        <time>2022-07-19T07:06:30Z</time>
      </trkpt>
      <trkpt lat="44.19171" lon="7.14644">
        <ele>1867.8</ele>
        <time>2022-07-19T07:06:31Z</time>
      </trkpt>
      <trkpt lat="44.19169" lon="7.14627">
        <ele>1867</ele>
        <time>2022-07-19T07:06:32Z</time>
      </trkpt>
      <trkpt lat="44.19167" lon="7.14612">
        <ele>1866.2</ele>
        <time>2022-07-19T07:06:33Z</time>
      </trkpt>
      <trkpt lat="44.19165" lon="7.14596">
        <ele>1865.2</ele>
        <time>2022-07-19T07:06:34Z</time>
      </trkpt>
      <trkpt lat="44.19165" lon="7.14581">
        <ele>1864.4</ele>
        <time>2022-07-19T07:06:35Z</time>
      </trkpt>
      <trkpt lat="44.19165" lon="7.14565">
        <ele>1863.4</ele>
        <time>2022-07-19T07:06:36Z</time>
      </trkpt>
      <trkpt lat="44.19166" lon="7.14549">
        <ele>1862.6</ele>
        <time>2022-07-19T07:06:37Z</time>
      </trkpt>
      <trkpt lat="44.19168" lon="7.14534">
        <ele>1861.8</ele>
        <time>2022-07-19T07:06:38Z</time>
      </trkpt>
      <trkpt lat="44.19169" lon="7.14519">
        <ele>1861</ele>
        <time>2022-07-19T07:06:39Z</time>
      </trkpt>
      <trkpt lat="44.1917" lon="7.14505">
        <ele>1860</ele>
        <time>2022-07-19T07:06:40Z</time>
      </trkpt>
      <trkpt lat="44.19173" lon="7.14491">
        <ele>1859</ele>
        <time>2022-07-19T07:06:41Z</time>
      </trkpt>
      <trkpt lat="44.19177" lon="7.14476">
        <ele>1858.4</ele>
        <time>2022-07-19T07:06:42Z</time>
      </trkpt>
      <trkpt lat="44.19181" lon="7.14462">
        <ele>1857.4</ele>
        <time>2022-07-19T07:06:43Z</time>
      </trkpt>
      <trkpt lat="44.19186" lon="7.14449">
        <ele>1856.6</ele>
        <time>2022-07-19T07:06:44Z</time>
      </trkpt>
      <trkpt lat="44.19191" lon="7.14437">
        <ele>1855.8</ele>
        <time>2022-07-19T07:06:45Z</time>
      </trkpt>
      <trkpt lat="44.19194" lon="7.14422">
        <ele>1855.2</ele>
        <time>2022-07-19T07:06:46Z</time>
      </trkpt>
      <trkpt lat="44.19196" lon="7.14406">
        <ele>1854.4</ele>
        <time>2022-07-19T07:06:47Z</time>
      </trkpt>
      <trkpt lat="44.19198" lon="7.14392">
        <ele>1853.8</ele>
        <time>2022-07-19T07:06:48Z</time>
      </trkpt>
      <trkpt lat="44.19198" lon="7.14377">
        <ele>1853.2</ele>
        <time>2022-07-19T07:06:49Z</time>
      </trkpt>
      <trkpt lat="44.19199" lon="7.14361">
        <ele>1852.4</ele>
        <time>2022-07-19T07:06:50Z</time>
      </trkpt>
      <trkpt lat="44.19199" lon="7.14346">
        <ele>1851.6</ele>
        <time>2022-07-19T07:06:51Z</time>
      </trkpt>
      <trkpt lat="44.19199" lon="7.14332">
        <ele>1850.8</ele>
        <time>2022-07-19T07:06:52Z</time>
      </trkpt>
      <trkpt lat="44.19198" lon="7.14318">
        <ele>1850.2</ele>
        <time>2022-07-19T07:06:53Z</time>
      </trkpt>
      <trkpt lat="44.19197" lon="7.14304">
        <ele>1849.4</ele>
        <time>2022-07-19T07:06:54Z</time>
      </trkpt>
      <trkpt lat="44.19197" lon="7.14288">
        <ele>1848.4</ele>
        <time>2022-07-19T07:06:55Z</time>
      </trkpt>
      <trkpt lat="44.192" lon="7.14273">
        <ele>1847.6</ele>
        <time>2022-07-19T07:06:56Z</time>
      </trkpt>
      <trkpt lat="44.19203" lon="7.14257">
        <ele>1846.8</ele>
        <time>2022-07-19T07:06:57Z</time>
      </trkpt>
      <trkpt lat="44.19206" lon="7.14241">
        <ele>1845.8</ele>
        <time>2022-07-19T07:06:58Z</time>
      </trkpt>
      <trkpt lat="44.19209" lon="7.14225">
        <ele>1845</ele>
        <time>2022-07-19T07:06:59Z</time>
      </trkpt>
      <trkpt lat="44.19211" lon="7.14208">
        <ele>1844.2</ele>
        <time>2022-07-19T07:07:00Z</time>
      </trkpt>
      <trkpt lat="44.19213" lon="7.14191">
        <ele>1843.4</ele>
        <time>2022-07-19T07:07:01Z</time>
      </trkpt>
      <trkpt lat="44.19214" lon="7.14174">
        <ele>1842.6</ele>
        <time>2022-07-19T07:07:02Z</time>
      </trkpt>
      <trkpt lat="44.19216" lon="7.14157">
        <ele>1841.6</ele>
        <time>2022-07-19T07:07:03Z</time>
      </trkpt>
      <trkpt lat="44.19217" lon="7.14138">
        <ele>1840.8</ele>
        <time>2022-07-19T07:07:04Z</time>
      </trkpt>
      <trkpt lat="44.19217" lon="7.1412">
        <ele>1839.8</ele>
        <time>2022-07-19T07:07:05Z</time>
      </trkpt>
      <trkpt lat="44.19218" lon="7.14101">
        <ele>1839</ele>
        <time>2022-07-19T07:07:06Z</time>
      </trkpt>
      <trkpt lat="44.19219" lon="7.14082">
        <ele>1838.2</ele>
        <time>2022-07-19T07:07:07Z</time>
      </trkpt>
      <trkpt lat="44.1922" lon="7.14063">
        <ele>1837.4</ele>
        <time>2022-07-19T07:07:08Z</time>
      </trkpt>
      <trkpt lat="44.1922" lon="7.14043">
        <ele>1836.4</ele>
        <time>2022-07-19T07:07:09Z</time>
      </trkpt>
      <trkpt lat="44.1922" lon="7.14024">
        <ele>1835.4</ele>
        <time>2022-07-19T07:07:10Z</time>
      </trkpt>
      <trkpt lat="44.19219" lon="7.14005">
        <ele>1834.4</ele>
        <time>2022-07-19T07:07:11Z</time>
      </trkpt>
      <trkpt lat="44.19218" lon="7.13985">
        <ele>1833.4</ele>
        <time>2022-07-19T07:07:12Z</time>
      </trkpt>
      <trkpt lat="44.19217" lon="7.13966">
        <ele>1832.6</ele>
        <time>2022-07-19T07:07:13Z</time>
      </trkpt>
      <trkpt lat="44.19216" lon="7.13947">
        <ele>1831.6</ele>
        <time>2022-07-19T07:07:14Z</time>
      </trkpt>
      <trkpt lat="44.19216" lon="7.13927">
        <ele>1830.6</ele>
        <time>2022-07-19T07:07:15Z</time>
      </trkpt>
      <trkpt lat="44.19215" lon="7.13908">
        <ele>1829.4</ele>
        <time>2022-07-19T07:07:16Z</time>
      </trkpt>
      <trkpt lat="44.19215" lon="7.13889">
        <ele>1828.4</ele>
        <time>2022-07-19T07:07:17Z</time>
      </trkpt>
      <trkpt lat="44.19216" lon="7.1387">
        <ele>1827.2</ele>
        <time>2022-07-19T07:07:18Z</time>
      </trkpt>
      <trkpt lat="44.19219" lon="7.1385">
        <ele>1826.2</ele>
        <time>2022-07-19T07:07:19Z</time>
      </trkpt>
      <trkpt lat="44.19221" lon="7.13831">
        <ele>1825.2</ele>
        <time>2022-07-19T07:07:20Z</time>
      </trkpt>
      <trkpt lat="44.19225" lon="7.13813">
        <ele>1824</ele>
        <time>2022-07-19T07:07:21Z</time>
      </trkpt>
      <trkpt lat="44.19229" lon="7.13795">
        <ele>1823</ele>
        <time>2022-07-19T07:07:22Z</time>
      </trkpt>
      <trkpt lat="44.19233" lon="7.13778">
        <ele>1822.2</ele>
        <time>2022-07-19T07:07:23Z</time>
      </trkpt>
      <trkpt lat="44.19238" lon="7.13761">
        <ele>1821.2</ele>
        <time>2022-07-19T07:07:24Z</time>
      </trkpt>
      <trkpt lat="44.19242" lon="7.13746">
        <ele>1820.4</ele>
        <time>2022-07-19T07:07:25Z</time>
      </trkpt>
      <trkpt lat="44.19246" lon="7.1373">
        <ele>1819.4</ele>
        <time>2022-07-19T07:07:26Z</time>
      </trkpt>
      <trkpt lat="44.1925" lon="7.13716">
        <ele>1818.6</ele>
        <time>2022-07-19T07:07:27Z</time>
      </trkpt>
      <trkpt lat="44.19253" lon="7.13703">
        <ele>1817.8</ele>
        <time>2022-07-19T07:07:28Z</time>
      </trkpt>
      <trkpt lat="44.19258" lon="7.13691">
        <ele>1817</ele>
        <time>2022-07-19T07:07:29Z</time>
      </trkpt>
      <trkpt lat="44.19264" lon="7.13681">
        <ele>1816.2</ele>
        <time>2022-07-19T07:07:30Z</time>
      </trkpt>
      <trkpt lat="44.19272" lon="7.13673">
        <ele>1815.4</ele>
        <time>2022-07-19T07:07:31Z</time>
      </trkpt>
      <trkpt lat="44.19281" lon="7.13666">
        <ele>1814.6</ele>
        <time>2022-07-19T07:07:32Z</time>
      </trkpt>
      <trkpt lat="44.1929" lon="7.13661">
        <ele>1813.8</ele>
        <time>2022-07-19T07:07:33Z</time>
      </trkpt>
      <trkpt lat="44.19301" lon="7.13656">
        <ele>1813.2</ele>
        <time>2022-07-19T07:07:34Z</time>
      </trkpt>
      <trkpt lat="44.19311" lon="7.1365">
        <ele>1812.4</ele>
        <time>2022-07-19T07:07:35Z</time>
      </trkpt>
      <trkpt lat="44.19321" lon="7.13643">
        <ele>1811.6</ele>
        <time>2022-07-19T07:07:36Z</time>
      </trkpt>
      <trkpt lat="44.1933" lon="7.13635">
        <ele>1810.8</ele>
        <time>2022-07-19T07:07:37Z</time>
      </trkpt>
      <trkpt lat="44.1934" lon="7.13627">
        <ele>1809.8</ele>
        <time>2022-07-19T07:07:38Z</time>
      </trkpt>
      <trkpt lat="44.1935" lon="7.13619">
        <ele>1809</ele>
        <time>2022-07-19T07:07:39Z</time>
      </trkpt>
      <trkpt lat="44.19359" lon="7.13612">
        <ele>1808</ele>
        <time>2022-07-19T07:07:40Z</time>
      </trkpt>
      <trkpt lat="44.19367" lon="7.13606">
        <ele>1807.4</ele>
        <time>2022-07-19T07:07:41Z</time>
      </trkpt>
      <trkpt lat="44.19375" lon="7.13601">
        <ele>1806.6</ele>
        <time>2022-07-19T07:07:42Z</time>
      </trkpt>
      <trkpt lat="44.19383" lon="7.13598">
        <ele>1806</ele>
        <time>2022-07-19T07:07:43Z</time>
      </trkpt>
      <trkpt lat="44.19389" lon="7.13596">
        <ele>1805.4</ele>
        <time>2022-07-19T07:07:44Z</time>
      </trkpt>
      <trkpt lat="44.19395" lon="7.13594">
        <ele>1804.8</ele>
        <time>2022-07-19T07:07:45Z</time>
      </trkpt>
      <trkpt lat="44.194" lon="7.13592">
        <ele>1804.4</ele>
        <time>2022-07-19T07:07:46Z</time>
      </trkpt>
      <trkpt lat="44.19404" lon="7.13589">
        <ele>1804</ele>
        <time>2022-07-19T07:07:47Z</time>
      </trkpt>
      <trkpt lat="44.19407" lon="7.13585">
        <ele>1803.6</ele>
        <time>2022-07-19T07:07:48Z</time>
      </trkpt>
      <trkpt lat="44.19406" lon="7.13581">
        <ele>1803.2</ele>
        <time>2022-07-19T07:07:49Z</time>
      </trkpt>
      <trkpt lat="44.19403" lon="7.13578">
        <ele>1803</ele>
        <time>2022-07-19T07:07:50Z</time>
      </trkpt>
      <trkpt lat="44.19398" lon="7.13577">
        <ele>1802.6</ele>
        <time>2022-07-19T07:07:51Z</time>
      </trkpt>
      <trkpt lat="44.19393" lon="7.13579">
        <ele>1802.4</ele>
        <time>2022-07-19T07:07:52Z</time>
      </trkpt>
      <trkpt lat="44.19387" lon="7.13581">
        <ele>1802</ele>
        <time>2022-07-19T07:07:53Z</time>
      </trkpt>
      <trkpt lat="44.19381" lon="7.13583">
        <ele>1801.6</ele>
        <time>2022-07-19T07:07:54Z</time>
      </trkpt>
      <trkpt lat="44.19374" lon="7.13586">
        <ele>1801</ele>
        <time>2022-07-19T07:07:55Z</time>
      </trkpt>
      <trkpt lat="44.19367" lon="7.13588">
        <ele>1800.6</ele>
        <time>2022-07-19T07:07:56Z</time>
      </trkpt>
      <trkpt lat="44.19359" lon="7.13591">
        <ele>1800</ele>
        <time>2022-07-19T07:07:57Z</time>
      </trkpt>
      <trkpt lat="44.19351" lon="7.13594">
        <ele>1799.6</ele>
        <time>2022-07-19T07:07:58Z</time>
      </trkpt>
      <trkpt lat="44.19342" lon="7.13596">
        <ele>1799</ele>
        <time>2022-07-19T07:07:59Z</time>
      </trkpt>
      <trkpt lat="44.19332" lon="7.13598">
        <ele>1798.6</ele>
        <time>2022-07-19T07:08:00Z</time>
      </trkpt>
      <trkpt lat="44.19323" lon="7.13601">
        <ele>1797.8</ele>
        <time>2022-07-19T07:08:01Z</time>
      </trkpt>
      <trkpt lat="44.19313" lon="7.13602">
        <ele>1797.2</ele>
        <time>2022-07-19T07:08:02Z</time>
      </trkpt>
      <trkpt lat="44.19303" lon="7.13602">
        <ele>1796.4</ele>
        <time>2022-07-19T07:08:03Z</time>
      </trkpt>
      <trkpt lat="44.19292" lon="7.13602">
        <ele>1795.8</ele>
        <time>2022-07-19T07:08:04Z</time>
      </trkpt>
      <trkpt lat="44.19282" lon="7.13601">
        <ele>1795</ele>
        <time>2022-07-19T07:08:05Z</time>
      </trkpt>
      <trkpt lat="44.19272" lon="7.13601">
        <ele>1794.4</ele>
        <time>2022-07-19T07:08:06Z</time>
      </trkpt>
      <trkpt lat="44.19262" lon="7.13601">
        <ele>1793.8</ele>
        <time>2022-07-19T07:08:07Z</time>
      </trkpt>
      <trkpt lat="44.19254" lon="7.13602">
        <ele>1793</ele>
        <time>2022-07-19T07:08:08Z</time>
      </trkpt>
      <trkpt lat="44.19245" lon="7.13604">
        <ele>1792.2</ele>
        <time>2022-07-19T07:08:09Z</time>
      </trkpt>
      <trkpt lat="44.19238" lon="7.1361">
        <ele>1791.4</ele>
        <time>2022-07-19T07:08:10Z</time>
      </trkpt>
      <trkpt lat="44.19232" lon="7.13617">
        <ele>1790.8</ele>
        <time>2022-07-19T07:08:11Z</time>
      </trkpt>
      <trkpt lat="44.19226" lon="7.13627">
        <ele>1790</ele>
        <time>2022-07-19T07:08:12Z</time>
      </trkpt>
      <trkpt lat="44.1922" lon="7.13635">
        <ele>1789.6</ele>
        <time>2022-07-19T07:08:13Z</time>
      </trkpt>
      <trkpt lat="44.19214" lon="7.13641">
        <ele>1789</ele>
        <time>2022-07-19T07:08:14Z</time>
      </trkpt>
      <trkpt lat="44.19207" lon="7.13646">
        <ele>1788.6</ele>
        <time>2022-07-19T07:08:15Z</time>
      </trkpt>
      <trkpt lat="44.192" lon="7.13646">
        <ele>1788</ele>
        <time>2022-07-19T07:08:16Z</time>
      </trkpt>
      <trkpt lat="44.19193" lon="7.13643">
        <ele>1787.6</ele>
        <time>2022-07-19T07:08:17Z</time>
      </trkpt>
      <trkpt lat="44.19187" lon="7.13638">
        <ele>1787</ele>
        <time>2022-07-19T07:08:18Z</time>
      </trkpt>
      <trkpt lat="44.19181" lon="7.1363">
        <ele>1786.6</ele>
        <time>2022-07-19T07:08:19Z</time>
      </trkpt>
      <trkpt lat="44.19175" lon="7.1362">
        <ele>1786</ele>
        <time>2022-07-19T07:08:20Z</time>
      </trkpt>
      <trkpt lat="44.19172" lon="7.13608">
        <ele>1785.4</ele>
        <time>2022-07-19T07:08:21Z</time>
      </trkpt>
      <trkpt lat="44.1917" lon="7.13595">
        <ele>1784.6</ele>
        <time>2022-07-19T07:08:22Z</time>
      </trkpt>
      <trkpt lat="44.19171" lon="7.13582">
        <ele>1784</ele>
        <time>2022-07-19T07:08:23Z</time>
      </trkpt>
      <trkpt lat="44.19174" lon="7.13568">
        <ele>1783.4</ele>
        <time>2022-07-19T07:08:24Z</time>
      </trkpt>
      <trkpt lat="44.19179" lon="7.13555">
        <ele>1782.6</ele>
        <time>2022-07-19T07:08:25Z</time>
      </trkpt>
      <trkpt lat="44.19183" lon="7.13543">
        <ele>1781.8</ele>
        <time>2022-07-19T07:08:26Z</time>
      </trkpt>
      <trkpt lat="44.19186" lon="7.1353">
        <ele>1781.2</ele>
        <time>2022-07-19T07:08:27Z</time>
      </trkpt>
      <trkpt lat="44.19189" lon="7.13516">
        <ele>1780.6</ele>
        <time>2022-07-19T07:08:29Z</time>
      </trkpt>
      <trkpt lat="44.19189" lon="7.13501">
        <ele>1779.8</ele>
        <time>2022-07-19T07:08:30Z</time>
      </trkpt>
      <trkpt lat="44.19186" lon="7.13487">
        <ele>1779</ele>
        <time>2022-07-19T07:08:31Z</time>
      </trkpt>
      <trkpt lat="44.19183" lon="7.13474">
        <ele>1778.2</ele>
        <time>2022-07-19T07:08:32Z</time>
      </trkpt>
      <trkpt lat="44.1918" lon="7.1346">
        <ele>1777.4</ele>
        <time>2022-07-19T07:08:33Z</time>
      </trkpt>
      <trkpt lat="44.1918" lon="7.13446">
        <ele>1776.6</ele>
        <time>2022-07-19T07:08:34Z</time>
      </trkpt>
      <trkpt lat="44.19182" lon="7.13432">
        <ele>1775.8</ele>
        <time>2022-07-19T07:08:35Z</time>
      </trkpt>
      <trkpt lat="44.19186" lon="7.1342">
        <ele>1775</ele>
        <time>2022-07-19T07:08:36Z</time>
      </trkpt>
      <trkpt lat="44.19191" lon="7.13407">
        <ele>1774.2</ele>
        <time>2022-07-19T07:08:37Z</time>
      </trkpt>
      <trkpt lat="44.19198" lon="7.13396">
        <ele>1773.4</ele>
        <time>2022-07-19T07:08:38Z</time>
      </trkpt>
      <trkpt lat="44.19205" lon="7.13385">
        <ele>1772.6</ele>
        <time>2022-07-19T07:08:39Z</time>
      </trkpt>
      <trkpt lat="44.19213" lon="7.13374">
        <ele>1771.8</ele>
        <time>2022-07-19T07:08:40Z</time>
      </trkpt>
      <trkpt lat="44.19222" lon="7.13363">
        <ele>1771</ele>
        <time>2022-07-19T07:08:41Z</time>
      </trkpt>
      <trkpt lat="44.19232" lon="7.13354">
        <ele>1770.2</ele>
        <time>2022-07-19T07:08:42Z</time>
      </trkpt>
      <trkpt lat="44.19242" lon="7.13347">
        <ele>1769.4</ele>
        <time>2022-07-19T07:08:43Z</time>
      </trkpt>
      <trkpt lat="44.19255" lon="7.13343">
        <ele>1768.6</ele>
        <time>2022-07-19T07:08:44Z</time>
      </trkpt>
      <trkpt lat="44.19269" lon="7.13342">
        <ele>1767.8</ele>
        <time>2022-07-19T07:08:45Z</time>
      </trkpt>
      <trkpt lat="44.19281" lon="7.13343">
        <ele>1767</ele>
        <time>2022-07-19T07:08:46Z</time>
      </trkpt>
      <trkpt lat="44.19292" lon="7.13343">
        <ele>1766.4</ele>
        <time>2022-07-19T07:08:47Z</time>
      </trkpt>
      <trkpt lat="44.19303" lon="7.13344">
        <ele>1766</ele>
        <time>2022-07-19T07:08:48Z</time>
      </trkpt>
      <trkpt lat="44.19314" lon="7.13343">
        <ele>1765.4</ele>
        <time>2022-07-19T07:08:49Z</time>
      </trkpt>
      <trkpt lat="44.19325" lon="7.13341">
        <ele>1765</ele>
        <time>2022-07-19T07:08:50Z</time>
      </trkpt>
      <trkpt lat="44.19334" lon="7.13337">
        <ele>1764.6</ele>
        <time>2022-07-19T07:08:51Z</time>
      </trkpt>
      <trkpt lat="44.19343" lon="7.1333">
        <ele>1764.2</ele>
        <time>2022-07-19T07:08:52Z</time>
      </trkpt>
      <trkpt lat="44.1935" lon="7.13319">
        <ele>1763.8</ele>
        <time>2022-07-19T07:08:53Z</time>
      </trkpt>
      <trkpt lat="44.19355" lon="7.13308">
        <ele>1763.6</ele>
        <time>2022-07-19T07:08:54Z</time>
      </trkpt>
      <trkpt lat="44.19361" lon="7.13295">
        <ele>1763.2</ele>
        <time>2022-07-19T07:08:55Z</time>
      </trkpt>
      <trkpt lat="44.19366" lon="7.13283">
        <ele>1762.8</ele>
        <time>2022-07-19T07:08:56Z</time>
      </trkpt>
      <trkpt lat="44.1937" lon="7.1327">
        <ele>1762.4</ele>
        <time>2022-07-19T07:08:57Z</time>
      </trkpt>
      <trkpt lat="44.19376" lon="7.13256">
        <ele>1761.8</ele>
        <time>2022-07-19T07:08:58Z</time>
      </trkpt>
      <trkpt lat="44.19382" lon="7.13242">
        <ele>1761.2</ele>
        <time>2022-07-19T07:08:59Z</time>
      </trkpt>
      <trkpt lat="44.19387" lon="7.13228">
        <ele>1760.6</ele>
        <time>2022-07-19T07:09:00Z</time>
      </trkpt>
      <trkpt lat="44.19394" lon="7.13215">
        <ele>1759.8</ele>
        <time>2022-07-19T07:09:01Z</time>
      </trkpt>
      <trkpt lat="44.19401" lon="7.13201">
        <ele>1759</ele>
        <time>2022-07-19T07:09:02Z</time>
      </trkpt>
      <trkpt lat="44.19407" lon="7.13188">
        <ele>1758</ele>
        <time>2022-07-19T07:09:03Z</time>
      </trkpt>
      <trkpt lat="44.19412" lon="7.13176">
        <ele>1757.2</ele>
        <time>2022-07-19T07:09:04Z</time>
      </trkpt>
      <trkpt lat="44.19416" lon="7.13162">
        <ele>1756.4</ele>
        <time>2022-07-19T07:09:05Z</time>
      </trkpt>
      <trkpt lat="44.1942" lon="7.13146">
        <ele>1755.4</ele>
        <time>2022-07-19T07:09:06Z</time>
      </trkpt>
      <trkpt lat="44.19422" lon="7.1313">
        <ele>1754.6</ele>
        <time>2022-07-19T07:09:07Z</time>
      </trkpt>
      <trkpt lat="44.19423" lon="7.13113">
        <ele>1753.6</ele>
        <time>2022-07-19T07:09:08Z</time>
      </trkpt>
      <trkpt lat="44.19423" lon="7.13096">
        <ele>1752.8</ele>
        <time>2022-07-19T07:09:09Z</time>
      </trkpt>
      <trkpt lat="44.19424" lon="7.13078">
        <ele>1751.8</ele>
        <time>2022-07-19T07:09:10Z</time>
      </trkpt>
      <trkpt lat="44.19428" lon="7.13059">
        <ele>1750.8</ele>
        <time>2022-07-19T07:09:11Z</time>
      </trkpt>
      <trkpt lat="44.19434" lon="7.13043">
        <ele>1749.8</ele>
        <time>2022-07-19T07:09:12Z</time>
      </trkpt>
      <trkpt lat="44.19441" lon="7.13027">
        <ele>1748.8</ele>
        <time>2022-07-19T07:09:13Z</time>
      </trkpt>
      <trkpt lat="44.19449" lon="7.13011">
        <ele>1747.8</ele>
        <time>2022-07-19T07:09:14Z</time>
      </trkpt>
      <trkpt lat="44.19458" lon="7.12996">
        <ele>1747</ele>
        <time>2022-07-19T07:09:15Z</time>
      </trkpt>
      <trkpt lat="44.19466" lon="7.12981">
        <ele>1746</ele>
        <time>2022-07-19T07:09:16Z</time>
      </trkpt>
      <trkpt lat="44.19475" lon="7.12967">
        <ele>1745</ele>
        <time>2022-07-19T07:09:17Z</time>
      </trkpt>
      <trkpt lat="44.19483" lon="7.12952">
        <ele>1744</ele>
        <time>2022-07-19T07:09:18Z</time>
      </trkpt>
      <trkpt lat="44.19492" lon="7.12938">
        <ele>1742.8</ele>
        <time>2022-07-19T07:09:19Z</time>
      </trkpt>
      <trkpt lat="44.195" lon="7.12923">
        <ele>1741.8</ele>
        <time>2022-07-19T07:09:20Z</time>
      </trkpt>
      <trkpt lat="44.19509" lon="7.12908">
        <ele>1740.6</ele>
        <time>2022-07-19T07:09:21Z</time>
      </trkpt>
      <trkpt lat="44.19518" lon="7.12893">
        <ele>1739.6</ele>
        <time>2022-07-19T07:09:22Z</time>
      </trkpt>
      <trkpt lat="44.19527" lon="7.12878">
        <ele>1738.6</ele>
        <time>2022-07-19T07:09:23Z</time>
      </trkpt>
      <trkpt lat="44.19537" lon="7.12864">
        <ele>1737.6</ele>
        <time>2022-07-19T07:09:24Z</time>
      </trkpt>
      <trkpt lat="44.19546" lon="7.1285">
        <ele>1736.6</ele>
        <time>2022-07-19T07:09:25Z</time>
      </trkpt>
      <trkpt lat="44.19555" lon="7.12837">
        <ele>1735.6</ele>
        <time>2022-07-19T07:09:26Z</time>
      </trkpt>
      <trkpt lat="44.19564" lon="7.12825">
        <ele>1734.6</ele>
        <time>2022-07-19T07:09:27Z</time>
      </trkpt>
      <trkpt lat="44.19575" lon="7.12813">
        <ele>1733.6</ele>
        <time>2022-07-19T07:09:28Z</time>
      </trkpt>
      <trkpt lat="44.19585" lon="7.12801">
        <ele>1732.6</ele>
        <time>2022-07-19T07:09:29Z</time>
      </trkpt>
      <trkpt lat="44.19596" lon="7.12789">
        <ele>1731.6</ele>
        <time>2022-07-19T07:09:30Z</time>
      </trkpt>
      <trkpt lat="44.19607" lon="7.12777">
        <ele>1730.6</ele>
        <time>2022-07-19T07:09:31Z</time>
      </trkpt>
      <trkpt lat="44.19617" lon="7.12764">
        <ele>1729.6</ele>
        <time>2022-07-19T07:09:32Z</time>
      </trkpt>
      <trkpt lat="44.19627" lon="7.12751">
        <ele>1728.6</ele>
        <time>2022-07-19T07:09:33Z</time>
      </trkpt>
      <trkpt lat="44.19636" lon="7.12738">
        <ele>1727.6</ele>
        <time>2022-07-19T07:09:34Z</time>
      </trkpt>
      <trkpt lat="44.19645" lon="7.12724">
        <ele>1726.6</ele>
        <time>2022-07-19T07:09:35Z</time>
      </trkpt>
      <trkpt lat="44.19655" lon="7.12712">
        <ele>1725.6</ele>
        <time>2022-07-19T07:09:36Z</time>
      </trkpt>
      <trkpt lat="44.19665" lon="7.12699">
        <ele>1724.6</ele>
        <time>2022-07-19T07:09:37Z</time>
      </trkpt>
      <trkpt lat="44.19675" lon="7.12686">
        <ele>1723.4</ele>
        <time>2022-07-19T07:09:38Z</time>
      </trkpt>
      <trkpt lat="44.19686" lon="7.12674">
        <ele>1722.2</ele>
        <time>2022-07-19T07:09:39Z</time>
      </trkpt>
      <trkpt lat="44.19697" lon="7.12664">
        <ele>1721</ele>
        <time>2022-07-19T07:09:40Z</time>
      </trkpt>
      <trkpt lat="44.19709" lon="7.12654">
        <ele>1720</ele>
        <time>2022-07-19T07:09:41Z</time>
      </trkpt>
      <trkpt lat="44.1972" lon="7.12644">
        <ele>1719</ele>
        <time>2022-07-19T07:09:42Z</time>
      </trkpt>
      <trkpt lat="44.19732" lon="7.12634">
        <ele>1718.2</ele>
        <time>2022-07-19T07:09:43Z</time>
      </trkpt>
      <trkpt lat="44.19744" lon="7.12625">
        <ele>1717.2</ele>
        <time>2022-07-19T07:09:44Z</time>
      </trkpt>
      <trkpt lat="44.19755" lon="7.12615">
        <ele>1716.4</ele>
        <time>2022-07-19T07:09:45Z</time>
      </trkpt>
      <trkpt lat="44.19766" lon="7.12607">
        <ele>1715.4</ele>
        <time>2022-07-19T07:09:46Z</time>
      </trkpt>
      <trkpt lat="44.19778" lon="7.12599">
        <ele>1714.6</ele>
        <time>2022-07-19T07:09:47Z</time>
      </trkpt>
      <trkpt lat="44.1979" lon="7.12593">
        <ele>1713.6</ele>
        <time>2022-07-19T07:09:48Z</time>
      </trkpt>
      <trkpt lat="44.19802" lon="7.12586">
        <ele>1712.8</ele>
        <time>2022-07-19T07:09:49Z</time>
      </trkpt>
      <trkpt lat="44.19813" lon="7.12579">
        <ele>1712</ele>
        <time>2022-07-19T07:09:50Z</time>
      </trkpt>
      <trkpt lat="44.19824" lon="7.12572">
        <ele>1711.2</ele>
        <time>2022-07-19T07:09:51Z</time>
      </trkpt>
      <trkpt lat="44.19835" lon="7.12567">
        <ele>1710.2</ele>
        <time>2022-07-19T07:09:52Z</time>
      </trkpt>
      <trkpt lat="44.19846" lon="7.12563">
        <ele>1709.4</ele>
        <time>2022-07-19T07:09:53Z</time>
      </trkpt>
      <trkpt lat="44.19858" lon="7.12561">
        <ele>1708.8</ele>
        <time>2022-07-19T07:09:54Z</time>
      </trkpt>
      <trkpt lat="44.19869" lon="7.1256">
        <ele>1708.2</ele>
        <time>2022-07-19T07:09:55Z</time>
      </trkpt>
      <trkpt lat="44.1988" lon="7.12561">
        <ele>1708</ele>
        <time>2022-07-19T07:09:56Z</time>
      </trkpt>
      <trkpt lat="44.19897" lon="7.12565">
        <ele>1708</ele>
        <time>2022-07-19T07:09:57Z</time>
      </trkpt>
      <trkpt lat="44.19904" lon="7.12567">
        <ele>1708.6</ele>
        <time>2022-07-19T07:09:58Z</time>
      </trkpt>
      <trkpt lat="44.19919" lon="7.1257">
        <ele>1708.6</ele>
        <time>2022-07-19T07:09:59Z</time>
      </trkpt>
      <trkpt lat="44.19927" lon="7.12571">
        <ele>1708.8</ele>
        <time>2022-07-19T07:10:00Z</time>
      </trkpt>
      <trkpt lat="44.19934" lon="7.1257">
        <ele>1709.2</ele>
        <time>2022-07-19T07:10:01Z</time>
      </trkpt>
      <trkpt lat="44.19941" lon="7.12569">
        <ele>1709.6</ele>
        <time>2022-07-19T07:10:02Z</time>
      </trkpt>
      <trkpt lat="44.19946" lon="7.12567">
        <ele>1709.8</ele>
        <time>2022-07-19T07:10:03Z</time>
      </trkpt>
      <trkpt lat="44.19952" lon="7.12564">
        <ele>1710.6</ele>
        <time>2022-07-19T07:10:05Z</time>
      </trkpt>
      <trkpt lat="44.1996" lon="7.12559">
        <ele>1711</ele>
        <time>2022-07-19T07:10:06Z</time>
      </trkpt>
      <trkpt lat="44.19962" lon="7.12558">
        <ele>1711.2</ele>
        <time>2022-07-19T07:10:07Z</time>
      </trkpt>
      <trkpt lat="44.19967" lon="7.12554">
        <ele>1711.2</ele>
        <time>2022-07-19T07:10:08Z</time>
      </trkpt>
      <trkpt lat="44.19971" lon="7.12549">
        <ele>1711.4</ele>
        <time>2022-07-19T07:10:09Z</time>
      </trkpt>
      <trkpt lat="44.19976" lon="7.12543">
        <ele>1711.4</ele>
        <time>2022-07-19T07:10:10Z</time>
      </trkpt>
      <trkpt lat="44.19979" lon="7.12537">
        <ele>1711.4</ele>
        <time>2022-07-19T07:10:11Z</time>
      </trkpt>
      <trkpt lat="44.19985" lon="7.12526">
        <ele>1711.4</ele>
        <time>2022-07-19T07:10:12Z</time>
      </trkpt>
      <trkpt lat="44.19987" lon="7.12523">
        <ele>1711.4</ele>
        <time>2022-07-19T07:10:13Z</time>
      </trkpt>
      <trkpt lat="44.19991" lon="7.12515">
        <ele>1711</ele>
        <time>2022-07-19T07:10:14Z</time>
      </trkpt>
      <trkpt lat="44.19995" lon="7.12507">
        <ele>1710.6</ele>
        <time>2022-07-19T07:10:15Z</time>
      </trkpt>
      <trkpt lat="44.19998" lon="7.12498">
        <ele>1710.4</ele>
        <time>2022-07-19T07:10:16Z</time>
      </trkpt>
      <trkpt lat="44.20002" lon="7.12488">
        <ele>1710</ele>
        <time>2022-07-19T07:10:17Z</time>
      </trkpt>
      <trkpt lat="44.20007" lon="7.12473">
        <ele>1709.6</ele>
        <time>2022-07-19T07:10:18Z</time>
      </trkpt>
      <trkpt lat="44.20008" lon="7.12467">
        <ele>1709.2</ele>
        <time>2022-07-19T07:10:19Z</time>
      </trkpt>
      <trkpt lat="44.20011" lon="7.12456">
        <ele>1708.6</ele>
        <time>2022-07-19T07:10:20Z</time>
      </trkpt>
      <trkpt lat="44.20013" lon="7.12444">
        <ele>1708.2</ele>
        <time>2022-07-19T07:10:21Z</time>
      </trkpt>
      <trkpt lat="44.20014" lon="7.12431">
        <ele>1707.8</ele>
        <time>2022-07-19T07:10:22Z</time>
      </trkpt>
      <trkpt lat="44.20015" lon="7.12418">
        <ele>1707.2</ele>
        <time>2022-07-19T07:10:23Z</time>
      </trkpt>
      <trkpt lat="44.20015" lon="7.12398">
        <ele>1706.8</ele>
        <time>2022-07-19T07:10:24Z</time>
      </trkpt>
      <trkpt lat="44.20016" lon="7.12391">
        <ele>1706.2</ele>
        <time>2022-07-19T07:10:25Z</time>
      </trkpt>
      <trkpt lat="44.20018" lon="7.12378">
        <ele>1705.8</ele>
        <time>2022-07-19T07:10:26Z</time>
      </trkpt>
      <trkpt lat="44.20022" lon="7.12365">
        <ele>1705.2</ele>
        <time>2022-07-19T07:10:27Z</time>
      </trkpt>
      <trkpt lat="44.20028" lon="7.12353">
        <ele>1704.6</ele>
        <time>2022-07-19T07:10:28Z</time>
      </trkpt>
      <trkpt lat="44.20036" lon="7.12342">
        <ele>1703.4</ele>
        <time>2022-07-19T07:10:29Z</time>
      </trkpt>
      <trkpt lat="44.20045" lon="7.12333">
        <ele>1702.6</ele>
        <time>2022-07-19T07:10:30Z</time>
      </trkpt>
      <trkpt lat="44.20055" lon="7.12325">
        <ele>1701.8</ele>
        <time>2022-07-19T07:10:31Z</time>
      </trkpt>
      <trkpt lat="44.20066" lon="7.12318">
        <ele>1700.8</ele>
        <time>2022-07-19T07:10:32Z</time>
      </trkpt>
      <trkpt lat="44.20077" lon="7.1231">
        <ele>1699.6</ele>
        <time>2022-07-19T07:10:33Z</time>
      </trkpt>
      <trkpt lat="44.20092" lon="7.12296">
        <ele>1698.6</ele>
        <time>2022-07-19T07:10:34Z</time>
      </trkpt>
      <trkpt lat="44.20098" lon="7.12291">
        <ele>1697.2</ele>
        <time>2022-07-19T07:10:35Z</time>
      </trkpt>
      <trkpt lat="44.20108" lon="7.12281">
        <ele>1695.8</ele>
        <time>2022-07-19T07:10:36Z</time>
      </trkpt>
      <trkpt lat="44.20123" lon="7.12262">
        <ele>1694.6</ele>
        <time>2022-07-19T07:10:37Z</time>
      </trkpt>
      <trkpt lat="44.20128" lon="7.12255">
        <ele>1693.6</ele>
        <time>2022-07-19T07:10:38Z</time>
      </trkpt>
      <trkpt lat="44.20138" lon="7.12241">
        <ele>1692.8</ele>
        <time>2022-07-19T07:10:39Z</time>
      </trkpt>
      <trkpt lat="44.20153" lon="7.1222">
        <ele>1692</ele>
        <time>2022-07-19T07:10:40Z</time>
      </trkpt>
      <trkpt lat="44.20157" lon="7.12213">
        <ele>1691.4</ele>
        <time>2022-07-19T07:10:41Z</time>
      </trkpt>
      <trkpt lat="44.20166" lon="7.12199">
        <ele>1690.8</ele>
        <time>2022-07-19T07:10:42Z</time>
      </trkpt>
      <trkpt lat="44.20175" lon="7.12184">
        <ele>1690</ele>
        <time>2022-07-19T07:10:43Z</time>
      </trkpt>
      <trkpt lat="44.20183" lon="7.1217">
        <ele>1689.6</ele>
        <time>2022-07-19T07:10:44Z</time>
      </trkpt>
      <trkpt lat="44.20192" lon="7.12156">
        <ele>1688.8</ele>
        <time>2022-07-19T07:10:45Z</time>
      </trkpt>
      <trkpt lat="44.20205" lon="7.12135">
        <ele>1688.2</ele>
        <time>2022-07-19T07:10:46Z</time>
      </trkpt>
      <trkpt lat="44.20209" lon="7.12128">
        <ele>1687.6</ele>
        <time>2022-07-19T07:10:47Z</time>
      </trkpt>
      <trkpt lat="44.20222" lon="7.12108">
        <ele>1687</ele>
        <time>2022-07-19T07:10:48Z</time>
      </trkpt>
      <trkpt lat="44.20226" lon="7.12101">
        <ele>1686.4</ele>
        <time>2022-07-19T07:10:49Z</time>
      </trkpt>
      <trkpt lat="44.20235" lon="7.12087">
        <ele>1685.6</ele>
        <time>2022-07-19T07:10:50Z</time>
      </trkpt>
      <trkpt lat="44.20244" lon="7.12073">
        <ele>1685.2</ele>
        <time>2022-07-19T07:10:51Z</time>
      </trkpt>
      <trkpt lat="44.20257" lon="7.12051">
        <ele>1684.6</ele>
        <time>2022-07-19T07:10:52Z</time>
      </trkpt>
      <trkpt lat="44.20261" lon="7.12044">
        <ele>1684</ele>
        <time>2022-07-19T07:10:53Z</time>
      </trkpt>
      <trkpt lat="44.2027" lon="7.1203">
        <ele>1683.4</ele>
        <time>2022-07-19T07:10:54Z</time>
      </trkpt>
      <trkpt lat="44.20278" lon="7.12016">
        <ele>1683</ele>
        <time>2022-07-19T07:10:55Z</time>
      </trkpt>
      <trkpt lat="44.20286" lon="7.12002">
        <ele>1682.4</ele>
        <time>2022-07-19T07:10:56Z</time>
      </trkpt>
      <trkpt lat="44.20295" lon="7.11988">
        <ele>1681.8</ele>
        <time>2022-07-19T07:10:57Z</time>
      </trkpt>
      <trkpt lat="44.20303" lon="7.11974">
        <ele>1681.2</ele>
        <time>2022-07-19T07:10:58Z</time>
      </trkpt>
      <trkpt lat="44.20316" lon="7.11954">
        <ele>1680.8</ele>
        <time>2022-07-19T07:10:59Z</time>
      </trkpt>
      <trkpt lat="44.2032" lon="7.11947">
        <ele>1680.2</ele>
        <time>2022-07-19T07:11:00Z</time>
      </trkpt>
      <trkpt lat="44.20329" lon="7.11934">
        <ele>1679.4</ele>
        <time>2022-07-19T07:11:01Z</time>
      </trkpt>
      <trkpt lat="44.20338" lon="7.1192">
        <ele>1678.8</ele>
        <time>2022-07-19T07:11:02Z</time>
      </trkpt>
      <trkpt lat="44.20351" lon="7.119">
        <ele>1678.2</ele>
        <time>2022-07-19T07:11:03Z</time>
      </trkpt>
      <trkpt lat="44.20356" lon="7.11894">
        <ele>1677.8</ele>
        <time>2022-07-19T07:11:04Z</time>
      </trkpt>
      <trkpt lat="44.2037" lon="7.11875">
        <ele>1677.2</ele>
        <time>2022-07-19T07:11:05Z</time>
      </trkpt>
      <trkpt lat="44.20374" lon="7.11869">
        <ele>1676.6</ele>
        <time>2022-07-19T07:11:06Z</time>
      </trkpt>
      <trkpt lat="44.20384" lon="7.11857">
        <ele>1676</ele>
        <time>2022-07-19T07:11:07Z</time>
      </trkpt>
      <trkpt lat="44.20393" lon="7.11845">
        <ele>1675.4</ele>
        <time>2022-07-19T07:11:08Z</time>
      </trkpt>
      <trkpt lat="44.20401" lon="7.11832">
        <ele>1674.8</ele>
        <time>2022-07-19T07:11:09Z</time>
      </trkpt>
      <trkpt lat="44.20414" lon="7.11813">
        <ele>1674.2</ele>
        <time>2022-07-19T07:11:10Z</time>
      </trkpt>
      <trkpt lat="44.20418" lon="7.11807">
        <ele>1673.6</ele>
        <time>2022-07-19T07:11:11Z</time>
      </trkpt>
      <trkpt lat="44.20427" lon="7.11795">
        <ele>1673.2</ele>
        <time>2022-07-19T07:11:12Z</time>
      </trkpt>
      <trkpt lat="44.20435" lon="7.11782">
        <ele>1672.6</ele>
        <time>2022-07-19T07:11:13Z</time>
      </trkpt>
      <trkpt lat="44.20443" lon="7.1177">
        <ele>1672.2</ele>
        <time>2022-07-19T07:11:14Z</time>
      </trkpt>
      <trkpt lat="44.20455" lon="7.11752">
        <ele>1671.8</ele>
        <time>2022-07-19T07:11:15Z</time>
      </trkpt>
      <trkpt lat="44.20459" lon="7.11745">
        <ele>1671.2</ele>
        <time>2022-07-19T07:11:16Z</time>
      </trkpt>
      <trkpt lat="44.20468" lon="7.11733">
        <ele>1670.8</ele>
        <time>2022-07-19T07:11:17Z</time>
      </trkpt>
      <trkpt lat="44.20475" lon="7.11719">
        <ele>1670.4</ele>
        <time>2022-07-19T07:11:18Z</time>
      </trkpt>
      <trkpt lat="44.20483" lon="7.11706">
        <ele>1669.8</ele>
        <time>2022-07-19T07:11:19Z</time>
      </trkpt>
      <trkpt lat="44.20494" lon="7.11685">
        <ele>1669.2</ele>
        <time>2022-07-19T07:11:20Z</time>
      </trkpt>
      <trkpt lat="44.20498" lon="7.11678">
        <ele>1668.6</ele>
        <time>2022-07-19T07:11:21Z</time>
      </trkpt>
      <trkpt lat="44.20505" lon="7.11665">
        <ele>1668</ele>
        <time>2022-07-19T07:11:22Z</time>
      </trkpt>
      <trkpt lat="44.20513" lon="7.11652">
        <ele>1667.6</ele>
        <time>2022-07-19T07:11:23Z</time>
      </trkpt>
      <trkpt lat="44.20522" lon="7.11639">
        <ele>1667.4</ele>
        <time>2022-07-19T07:11:24Z</time>
      </trkpt>
      <trkpt lat="44.2053" lon="7.11627">
        <ele>1666.8</ele>
        <time>2022-07-19T07:11:25Z</time>
      </trkpt>
      <trkpt lat="44.20544" lon="7.11609">
        <ele>1666.4</ele>
        <time>2022-07-19T07:11:26Z</time>
      </trkpt>
      <trkpt lat="44.20548" lon="7.11602">
        <ele>1666</ele>
        <time>2022-07-19T07:11:27Z</time>
      </trkpt>
      <trkpt lat="44.20562" lon="7.11584">
        <ele>1665.6</ele>
        <time>2022-07-19T07:11:28Z</time>
      </trkpt>
      <trkpt lat="44.20566" lon="7.11577">
        <ele>1665.2</ele>
        <time>2022-07-19T07:11:29Z</time>
      </trkpt>
      <trkpt lat="44.20575" lon="7.11565">
        <ele>1664.8</ele>
        <time>2022-07-19T07:11:30Z</time>
      </trkpt>
      <trkpt lat="44.20584" lon="7.11551">
        <ele>1664.4</ele>
        <time>2022-07-19T07:11:31Z</time>
      </trkpt>
      <trkpt lat="44.20592" lon="7.11538">
        <ele>1663.8</ele>
        <time>2022-07-19T07:11:32Z</time>
      </trkpt>
      <trkpt lat="44.206" lon="7.11524">
        <ele>1663.2</ele>
        <time>2022-07-19T07:11:33Z</time>
      </trkpt>
      <trkpt lat="44.20608" lon="7.1151">
        <ele>1662.8</ele>
        <time>2022-07-19T07:11:34Z</time>
      </trkpt>
      <trkpt lat="44.20616" lon="7.11497">
        <ele>1662.4</ele>
        <time>2022-07-19T07:11:35Z</time>
      </trkpt>
      <trkpt lat="44.20624" lon="7.11484">
        <ele>1661.8</ele>
        <time>2022-07-19T07:11:36Z</time>
      </trkpt>
      <trkpt lat="44.20631" lon="7.11471">
        <ele>1661.4</ele>
        <time>2022-07-19T07:11:37Z</time>
      </trkpt>
      <trkpt lat="44.2064" lon="7.11451">
        <ele>1660.8</ele>
        <time>2022-07-19T07:11:38Z</time>
      </trkpt>
      <trkpt lat="44.20643" lon="7.11444">
        <ele>1660.2</ele>
        <time>2022-07-19T07:11:39Z</time>
      </trkpt>
      <trkpt lat="44.2065" lon="7.11431">
        <ele>1659.6</ele>
        <time>2022-07-19T07:11:40Z</time>
      </trkpt>
      <trkpt lat="44.20657" lon="7.11417">
        <ele>1658.8</ele>
        <time>2022-07-19T07:11:41Z</time>
      </trkpt>
      <trkpt lat="44.20668" lon="7.11396">
        <ele>1658</ele>
        <time>2022-07-19T07:11:42Z</time>
      </trkpt>
      <trkpt lat="44.20672" lon="7.11388">
        <ele>1657.2</ele>
        <time>2022-07-19T07:11:43Z</time>
      </trkpt>
      <trkpt lat="44.20679" lon="7.11374">
        <ele>1656.4</ele>
        <time>2022-07-19T07:11:44Z</time>
      </trkpt>
      <trkpt lat="44.2069" lon="7.11353">
        <ele>1655.6</ele>
        <time>2022-07-19T07:11:45Z</time>
      </trkpt>
      <trkpt lat="44.20693" lon="7.11346">
        <ele>1654.6</ele>
        <time>2022-07-19T07:11:46Z</time>
      </trkpt>
      <trkpt lat="44.207" lon="7.11333">
        <ele>1653.8</ele>
        <time>2022-07-19T07:11:47Z</time>
      </trkpt>
      <trkpt lat="44.20709" lon="7.11313">
        <ele>1653</ele>
        <time>2022-07-19T07:11:48Z</time>
      </trkpt>
      <trkpt lat="44.20711" lon="7.11307">
        <ele>1652.2</ele>
        <time>2022-07-19T07:11:49Z</time>
      </trkpt>
      <trkpt lat="44.20717" lon="7.11295">
        <ele>1651.4</ele>
        <time>2022-07-19T07:11:50Z</time>
      </trkpt>
      <trkpt lat="44.2072" lon="7.11282">
        <ele>1650.8</ele>
        <time>2022-07-19T07:11:51Z</time>
      </trkpt>
      <trkpt lat="44.20722" lon="7.11268">
        <ele>1650</ele>
        <time>2022-07-19T07:11:52Z</time>
      </trkpt>
      <trkpt lat="44.20722" lon="7.11253">
        <ele>1649.4</ele>
        <time>2022-07-19T07:11:53Z</time>
      </trkpt>
      <trkpt lat="44.2072" lon="7.11237">
        <ele>1648.6</ele>
        <time>2022-07-19T07:11:54Z</time>
      </trkpt>
      <trkpt lat="44.20718" lon="7.11222">
        <ele>1647.8</ele>
        <time>2022-07-19T07:11:55Z</time>
      </trkpt>
      <trkpt lat="44.20712" lon="7.11199">
        <ele>1647</ele>
        <time>2022-07-19T07:11:56Z</time>
      </trkpt>
      <trkpt lat="44.20711" lon="7.11192">
        <ele>1646.4</ele>
        <time>2022-07-19T07:11:57Z</time>
      </trkpt>
      <trkpt lat="44.20708" lon="7.11177">
        <ele>1645.8</ele>
        <time>2022-07-19T07:11:58Z</time>
      </trkpt>
      <trkpt lat="44.20706" lon="7.11164">
        <ele>1645.4</ele>
        <time>2022-07-19T07:11:59Z</time>
      </trkpt>
      <trkpt lat="44.20704" lon="7.11151">
        <ele>1645</ele>
        <time>2022-07-19T07:12:00Z</time>
      </trkpt>
      <trkpt lat="44.207" lon="7.11133">
        <ele>1644.6</ele>
        <time>2022-07-19T07:12:01Z</time>
      </trkpt>
      <trkpt lat="44.20698" lon="7.11127">
        <ele>1644</ele>
        <time>2022-07-19T07:12:02Z</time>
      </trkpt>
      <trkpt lat="44.20695" lon="7.11115">
        <ele>1643.4</ele>
        <time>2022-07-19T07:12:03Z</time>
      </trkpt>
      <trkpt lat="44.20686" lon="7.11098">
        <ele>1643</ele>
        <time>2022-07-19T07:12:04Z</time>
      </trkpt>
      <trkpt lat="44.20684" lon="7.11091">
        <ele>1642.2</ele>
        <time>2022-07-19T07:12:05Z</time>
      </trkpt>
      <trkpt lat="44.20678" lon="7.11078">
        <ele>1641.6</ele>
        <time>2022-07-19T07:12:06Z</time>
      </trkpt>
      <trkpt lat="44.20673" lon="7.11066">
        <ele>1640.8</ele>
        <time>2022-07-19T07:12:07Z</time>
      </trkpt>
      <trkpt lat="44.2067" lon="7.11051">
        <ele>1640.2</ele>
        <time>2022-07-19T07:12:08Z</time>
      </trkpt>
      <trkpt lat="44.20668" lon="7.11037">
        <ele>1639.4</ele>
        <time>2022-07-19T07:12:09Z</time>
      </trkpt>
      <trkpt lat="44.20667" lon="7.11022">
        <ele>1638.6</ele>
        <time>2022-07-19T07:12:10Z</time>
      </trkpt>
      <trkpt lat="44.20669" lon="7.11001">
        <ele>1637.8</ele>
        <time>2022-07-19T07:12:11Z</time>
      </trkpt>
      <trkpt lat="44.2067" lon="7.10993">
        <ele>1637</ele>
        <time>2022-07-19T07:12:12Z</time>
      </trkpt>
      <trkpt lat="44.20674" lon="7.10979">
        <ele>1636.2</ele>
        <time>2022-07-19T07:12:13Z</time>
      </trkpt>
      <trkpt lat="44.20679" lon="7.10964">
        <ele>1635.4</ele>
        <time>2022-07-19T07:12:14Z</time>
      </trkpt>
      <trkpt lat="44.20685" lon="7.1095">
        <ele>1634.4</ele>
        <time>2022-07-19T07:12:15Z</time>
      </trkpt>
      <trkpt lat="44.20693" lon="7.10928">
        <ele>1633.6</ele>
        <time>2022-07-19T07:12:16Z</time>
      </trkpt>
      <trkpt lat="44.20695" lon="7.10921">
        <ele>1632.8</ele>
        <time>2022-07-19T07:12:17Z</time>
      </trkpt>
      <trkpt lat="44.207" lon="7.10907">
        <ele>1632</ele>
        <time>2022-07-19T07:12:18Z</time>
      </trkpt>
      <trkpt lat="44.20704" lon="7.10894">
        <ele>1631.4</ele>
        <time>2022-07-19T07:12:19Z</time>
      </trkpt>
      <trkpt lat="44.20708" lon="7.10881">
        <ele>1630.6</ele>
        <time>2022-07-19T07:12:20Z</time>
      </trkpt>
      <trkpt lat="44.20712" lon="7.1087">
        <ele>1630</ele>
        <time>2022-07-19T07:12:21Z</time>
      </trkpt>
      <trkpt lat="44.20722" lon="7.10858">
        <ele>1629.4</ele>
        <time>2022-07-19T07:12:22Z</time>
      </trkpt>
      <trkpt lat="44.20725" lon="7.10855">
        <ele>1628.8</ele>
        <time>2022-07-19T07:12:23Z</time>
      </trkpt>
      <trkpt lat="44.20733" lon="7.10848">
        <ele>1627.8</ele>
        <time>2022-07-19T07:12:24Z</time>
      </trkpt>
      <trkpt lat="44.20748" lon="7.10845">
        <ele>1627.2</ele>
        <time>2022-07-19T07:12:25Z</time>
      </trkpt>
      <trkpt lat="44.20753" lon="7.10844">
        <ele>1626.4</ele>
        <time>2022-07-19T07:12:26Z</time>
      </trkpt>
      <trkpt lat="44.20763" lon="7.10844">
        <ele>1625.6</ele>
        <time>2022-07-19T07:12:27Z</time>
      </trkpt>
      <trkpt lat="44.20772" lon="7.10844">
        <ele>1625</ele>
        <time>2022-07-19T07:12:28Z</time>
      </trkpt>
      <trkpt lat="44.20787" lon="7.10845">
        <ele>1624.4</ele>
        <time>2022-07-19T07:12:29Z</time>
      </trkpt>
      <trkpt lat="44.20792" lon="7.10845">
        <ele>1623.8</ele>
        <time>2022-07-19T07:12:30Z</time>
      </trkpt>
      <trkpt lat="44.20802" lon="7.10846">
        <ele>1623</ele>
        <time>2022-07-19T07:12:31Z</time>
      </trkpt>
      <trkpt lat="44.20811" lon="7.10846">
        <ele>1622.4</ele>
        <time>2022-07-19T07:12:32Z</time>
      </trkpt>
      <trkpt lat="44.20823" lon="7.10842">
        <ele>1621.6</ele>
        <time>2022-07-19T07:12:33Z</time>
      </trkpt>
      <trkpt lat="44.20827" lon="7.1084">
        <ele>1620.8</ele>
        <time>2022-07-19T07:12:34Z</time>
      </trkpt>
      <trkpt lat="44.20835" lon="7.10836">
        <ele>1620.2</ele>
        <time>2022-07-19T07:12:35Z</time>
      </trkpt>
      <trkpt lat="44.20842" lon="7.10827">
        <ele>1620.2</ele>
        <time>2022-07-19T07:12:36Z</time>
      </trkpt>
      <trkpt lat="44.2085" lon="7.10817">
        <ele>1619.4</ele>
        <time>2022-07-19T07:12:37Z</time>
      </trkpt>
      <trkpt lat="44.20857" lon="7.10807">
        <ele>1618.6</ele>
        <time>2022-07-19T07:12:38Z</time>
      </trkpt>
      <trkpt lat="44.20867" lon="7.10788">
        <ele>1618</ele>
        <time>2022-07-19T07:12:39Z</time>
      </trkpt>
      <trkpt lat="44.2087" lon="7.10782">
        <ele>1617.2</ele>
        <time>2022-07-19T07:12:40Z</time>
      </trkpt>
      <trkpt lat="44.20876" lon="7.10768">
        <ele>1616.4</ele>
        <time>2022-07-19T07:12:41Z</time>
      </trkpt>
      <trkpt lat="44.20883" lon="7.10755">
        <ele>1615.6</ele>
        <time>2022-07-19T07:12:42Z</time>
      </trkpt>
      <trkpt lat="44.20891" lon="7.10742">
        <ele>1614.6</ele>
        <time>2022-07-19T07:12:43Z</time>
      </trkpt>
      <trkpt lat="44.20899" lon="7.10729">
        <ele>1613.8</ele>
        <time>2022-07-19T07:12:44Z</time>
      </trkpt>
      <trkpt lat="44.20908" lon="7.10716">
        <ele>1612.8</ele>
        <time>2022-07-19T07:12:45Z</time>
      </trkpt>
      <trkpt lat="44.20916" lon="7.10703">
        <ele>1611.8</ele>
        <time>2022-07-19T07:12:46Z</time>
      </trkpt>
      <trkpt lat="44.20925" lon="7.1069">
        <ele>1611</ele>
        <time>2022-07-19T07:12:47Z</time>
      </trkpt>
      <trkpt lat="44.20932" lon="7.10677">
        <ele>1610.2</ele>
        <time>2022-07-19T07:12:48Z</time>
      </trkpt>
      <trkpt lat="44.20939" lon="7.10664">
        <ele>1609.4</ele>
        <time>2022-07-19T07:12:49Z</time>
      </trkpt>
      <trkpt lat="44.20946" lon="7.10652">
        <ele>1608.6</ele>
        <time>2022-07-19T07:12:50Z</time>
      </trkpt>
      <trkpt lat="44.20953" lon="7.10636">
        <ele>1607.8</ele>
        <time>2022-07-19T07:12:51Z</time>
      </trkpt>
      <trkpt lat="44.20955" lon="7.10632">
        <ele>1607.2</ele>
        <time>2022-07-19T07:12:52Z</time>
      </trkpt>
      <trkpt lat="44.20959" lon="7.10623">
        <ele>1606.6</ele>
        <time>2022-07-19T07:12:53Z</time>
      </trkpt>
      <trkpt lat="44.20961" lon="7.10614">
        <ele>1606</ele>
        <time>2022-07-19T07:12:54Z</time>
      </trkpt>
      <trkpt lat="44.20963" lon="7.10607">
        <ele>1605.6</ele>
        <time>2022-07-19T07:12:55Z</time>
      </trkpt>
      <trkpt lat="44.20962" lon="7.10601">
        <ele>1605.2</ele>
        <time>2022-07-19T07:12:56Z</time>
      </trkpt>
      <trkpt lat="44.20957" lon="7.10598">
        <ele>1605</ele>
        <time>2022-07-19T07:12:57Z</time>
      </trkpt>
      <trkpt lat="44.20956" lon="7.10598">
        <ele>1604.6</ele>
        <time>2022-07-19T07:12:58Z</time>
      </trkpt>
      <trkpt lat="44.2095" lon="7.10607">
        <ele>1604.4</ele>
        <time>2022-07-19T07:12:59Z</time>
      </trkpt>
      <trkpt lat="44.20947" lon="7.10611">
        <ele>1604</ele>
        <time>2022-07-19T07:13:00Z</time>
      </trkpt>
      <trkpt lat="44.20943" lon="7.10617">
        <ele>1603.8</ele>
        <time>2022-07-19T07:13:01Z</time>
      </trkpt>
      <trkpt lat="44.20939" lon="7.10625">
        <ele>1603.4</ele>
        <time>2022-07-19T07:13:02Z</time>
      </trkpt>
      <trkpt lat="44.20931" lon="7.10637">
        <ele>1602.8</ele>
        <time>2022-07-19T07:13:03Z</time>
      </trkpt>
      <trkpt lat="44.20927" lon="7.10641">
        <ele>1602.2</ele>
        <time>2022-07-19T07:13:04Z</time>
      </trkpt>
      <trkpt lat="44.20921" lon="7.10648">
        <ele>1601.8</ele>
        <time>2022-07-19T07:13:05Z</time>
      </trkpt>
      <trkpt lat="44.20914" lon="7.10655">
        <ele>1601</ele>
        <time>2022-07-19T07:13:06Z</time>
      </trkpt>
      <trkpt lat="44.20906" lon="7.10661">
        <ele>1600.4</ele>
        <time>2022-07-19T07:13:07Z</time>
      </trkpt>
      <trkpt lat="44.20897" lon="7.10666">
        <ele>1599.8</ele>
        <time>2022-07-19T07:13:08Z</time>
      </trkpt>
      <trkpt lat="44.20888" lon="7.10672">
        <ele>1599.2</ele>
        <time>2022-07-19T07:13:09Z</time>
      </trkpt>
      <trkpt lat="44.20879" lon="7.10679">
        <ele>1598.4</ele>
        <time>2022-07-19T07:13:10Z</time>
      </trkpt>
      <trkpt lat="44.2087" lon="7.10686">
        <ele>1597.8</ele>
        <time>2022-07-19T07:13:11Z</time>
      </trkpt>
      <trkpt lat="44.20862" lon="7.10693">
        <ele>1597.2</ele>
        <time>2022-07-19T07:13:12Z</time>
      </trkpt>
      <trkpt lat="44.20855" lon="7.107">
        <ele>1596.6</ele>
        <time>2022-07-19T07:13:13Z</time>
      </trkpt>
      <trkpt lat="44.20847" lon="7.10709">
        <ele>1596</ele>
        <time>2022-07-19T07:13:14Z</time>
      </trkpt>
      <trkpt lat="44.20845" lon="7.10711">
        <ele>1595.4</ele>
        <time>2022-07-19T07:13:15Z</time>
      </trkpt>
      <trkpt lat="44.20841" lon="7.10711">
        <ele>1595</ele>
        <time>2022-07-19T07:13:16Z</time>
      </trkpt>
      <trkpt lat="44.20837" lon="7.10708">
        <ele>1594.6</ele>
        <time>2022-07-19T07:13:17Z</time>
      </trkpt>
      <trkpt lat="44.20837" lon="7.10701">
        <ele>1594.2</ele>
        <time>2022-07-19T07:13:18Z</time>
      </trkpt>
      <trkpt lat="44.20838" lon="7.10695">
        <ele>1594</ele>
        <time>2022-07-19T07:13:19Z</time>
      </trkpt>
      <trkpt lat="44.20842" lon="7.10688">
        <ele>1593.6</ele>
        <time>2022-07-19T07:13:20Z</time>
      </trkpt>
      <trkpt lat="44.20847" lon="7.10683">
        <ele>1593.2</ele>
        <time>2022-07-19T07:13:21Z</time>
      </trkpt>
      <trkpt lat="44.20853" lon="7.10677">
        <ele>1592.8</ele>
        <time>2022-07-19T07:13:22Z</time>
      </trkpt>
      <trkpt lat="44.20862" lon="7.10666">
        <ele>1592.4</ele>
        <time>2022-07-19T07:13:23Z</time>
      </trkpt>
      <trkpt lat="44.20865" lon="7.10663">
        <ele>1592</ele>
        <time>2022-07-19T07:13:24Z</time>
      </trkpt>
      <trkpt lat="44.20871" lon="7.10655">
        <ele>1591.6</ele>
        <time>2022-07-19T07:13:25Z</time>
      </trkpt>
      <trkpt lat="44.20877" lon="7.10647">
        <ele>1591</ele>
        <time>2022-07-19T07:13:26Z</time>
      </trkpt>
      <trkpt lat="44.20883" lon="7.10638">
        <ele>1590.6</ele>
        <time>2022-07-19T07:13:27Z</time>
      </trkpt>
      <trkpt lat="44.20889" lon="7.10628">
        <ele>1590</ele>
        <time>2022-07-19T07:13:28Z</time>
      </trkpt>
      <trkpt lat="44.20894" lon="7.10617">
        <ele>1589.4</ele>
        <time>2022-07-19T07:13:29Z</time>
      </trkpt>
      <trkpt lat="44.20899" lon="7.10604">
        <ele>1588.8</ele>
        <time>2022-07-19T07:13:30Z</time>
      </trkpt>
      <trkpt lat="44.20903" lon="7.10591">
        <ele>1588</ele>
        <time>2022-07-19T07:13:31Z</time>
      </trkpt>
      <trkpt lat="44.20907" lon="7.10577">
        <ele>1587.4</ele>
        <time>2022-07-19T07:13:32Z</time>
      </trkpt>
      <trkpt lat="44.20911" lon="7.10563">
        <ele>1586.8</ele>
        <time>2022-07-19T07:13:33Z</time>
      </trkpt>
      <trkpt lat="44.20916" lon="7.10549">
        <ele>1586</ele>
        <time>2022-07-19T07:13:34Z</time>
      </trkpt>
      <trkpt lat="44.20922" lon="7.10535">
        <ele>1585.2</ele>
        <time>2022-07-19T07:13:35Z</time>
      </trkpt>
      <trkpt lat="44.20931" lon="7.10514">
        <ele>1584.4</ele>
        <time>2022-07-19T07:13:36Z</time>
      </trkpt>
      <trkpt lat="44.20935" lon="7.10508">
        <ele>1583.6</ele>
        <time>2022-07-19T07:13:37Z</time>
      </trkpt>
      <trkpt lat="44.20942" lon="7.10495">
        <ele>1582.6</ele>
        <time>2022-07-19T07:13:38Z</time>
      </trkpt>
      <trkpt lat="44.2095" lon="7.10471">
        <ele>1581.6</ele>
        <time>2022-07-19T07:13:39Z</time>
      </trkpt>
      <trkpt lat="44.20951" lon="7.1046">
        <ele>1580.8</ele>
        <time>2022-07-19T07:13:40Z</time>
      </trkpt>
      <trkpt lat="44.20954" lon="7.10439">
        <ele>1580</ele>
        <time>2022-07-19T07:13:41Z</time>
      </trkpt>
      <trkpt lat="44.20957" lon="7.10417">
        <ele>1579.2</ele>
        <time>2022-07-19T07:13:42Z</time>
      </trkpt>
      <trkpt lat="44.20957" lon="7.10399">
        <ele>1578.4</ele>
        <time>2022-07-19T07:13:43Z</time>
      </trkpt>
      <trkpt lat="44.20957" lon="7.10382">
        <ele>1577.8</ele>
        <time>2022-07-19T07:13:44Z</time>
      </trkpt>
      <trkpt lat="44.20957" lon="7.10364">
        <ele>1576.8</ele>
        <time>2022-07-19T07:13:45Z</time>
      </trkpt>
      <trkpt lat="44.20956" lon="7.10345">
        <ele>1575.8</ele>
        <time>2022-07-19T07:13:46Z</time>
      </trkpt>
      <trkpt lat="44.20956" lon="7.10327">
        <ele>1574.8</ele>
        <time>2022-07-19T07:13:47Z</time>
      </trkpt>
      <trkpt lat="44.20956" lon="7.10309">
        <ele>1573.6</ele>
        <time>2022-07-19T07:13:48Z</time>
      </trkpt>
      <trkpt lat="44.20956" lon="7.10291">
        <ele>1572.6</ele>
        <time>2022-07-19T07:13:49Z</time>
      </trkpt>
      <trkpt lat="44.20956" lon="7.10282">
        <ele>1571.4</ele>
        <time>2022-07-19T07:13:50Z</time>
      </trkpt>
      <trkpt lat="44.20955" lon="7.10273">
        <ele>1570.6</ele>
        <time>2022-07-19T07:13:51Z</time>
      </trkpt>
      <trkpt lat="44.20955" lon="7.10255">
        <ele>1569.4</ele>
        <time>2022-07-19T07:13:52Z</time>
      </trkpt>
      <trkpt lat="44.20954" lon="7.10237">
        <ele>1568.6</ele>
        <time>2022-07-19T07:13:53Z</time>
      </trkpt>
      <trkpt lat="44.20953" lon="7.10219">
        <ele>1567.6</ele>
        <time>2022-07-19T07:13:54Z</time>
      </trkpt>
      <trkpt lat="44.20952" lon="7.10201">
        <ele>1566.6</ele>
        <time>2022-07-19T07:13:55Z</time>
      </trkpt>
      <trkpt lat="44.20951" lon="7.10185">
        <ele>1565.8</ele>
        <time>2022-07-19T07:13:56Z</time>
      </trkpt>
      <trkpt lat="44.2095" lon="7.10169">
        <ele>1565</ele>
        <time>2022-07-19T07:13:57Z</time>
      </trkpt>
      <trkpt lat="44.20949" lon="7.10155">
        <ele>1564.2</ele>
        <time>2022-07-19T07:13:58Z</time>
      </trkpt>
      <trkpt lat="44.20947" lon="7.10141">
        <ele>1563.4</ele>
        <time>2022-07-19T07:13:59Z</time>
      </trkpt>
      <trkpt lat="44.20944" lon="7.10127">
        <ele>1562.8</ele>
        <time>2022-07-19T07:14:00Z</time>
      </trkpt>
      <trkpt lat="44.20941" lon="7.10115">
        <ele>1562</ele>
        <time>2022-07-19T07:14:01Z</time>
      </trkpt>
      <trkpt lat="44.20938" lon="7.10102">
        <ele>1561.2</ele>
        <time>2022-07-19T07:14:02Z</time>
      </trkpt>
      <trkpt lat="44.20935" lon="7.1009">
        <ele>1560.2</ele>
        <time>2022-07-19T07:14:03Z</time>
      </trkpt>
      <trkpt lat="44.20932" lon="7.10079">
        <ele>1559.4</ele>
        <time>2022-07-19T07:14:04Z</time>
      </trkpt>
      <trkpt lat="44.20929" lon="7.10067">
        <ele>1558.4</ele>
        <time>2022-07-19T07:14:05Z</time>
      </trkpt>
      <trkpt lat="44.20922" lon="7.10048">
        <ele>1557.6</ele>
        <time>2022-07-19T07:14:06Z</time>
      </trkpt>
      <trkpt lat="44.2092" lon="7.10042">
        <ele>1556.6</ele>
        <time>2022-07-19T07:14:07Z</time>
      </trkpt>
      <trkpt lat="44.20915" lon="7.1003">
        <ele>1555.6</ele>
        <time>2022-07-19T07:14:08Z</time>
      </trkpt>
      <trkpt lat="44.20909" lon="7.10018">
        <ele>1554.6</ele>
        <time>2022-07-19T07:14:09Z</time>
      </trkpt>
      <trkpt lat="44.20902" lon="7.10001">
        <ele>1553.8</ele>
        <time>2022-07-19T07:14:10Z</time>
      </trkpt>
      <trkpt lat="44.20895" lon="7.09985">
        <ele>1553</ele>
        <time>2022-07-19T07:14:11Z</time>
      </trkpt>
      <trkpt lat="44.20889" lon="7.09968">
        <ele>1552.2</ele>
        <time>2022-07-19T07:14:12Z</time>
      </trkpt>
      <trkpt lat="44.20882" lon="7.09953">
        <ele>1551.4</ele>
        <time>2022-07-19T07:14:13Z</time>
      </trkpt>
      <trkpt lat="44.20872" lon="7.09939">
        <ele>1550.6</ele>
        <time>2022-07-19T07:14:14Z</time>
      </trkpt>
      <trkpt lat="44.20862" lon="7.09926">
        <ele>1549.8</ele>
        <time>2022-07-19T07:14:15Z</time>
      </trkpt>
      <trkpt lat="44.20844" lon="7.09911">
        <ele>1549.2</ele>
        <time>2022-07-19T07:14:16Z</time>
      </trkpt>
      <trkpt lat="44.20837" lon="7.09906">
        <ele>1548.4</ele>
        <time>2022-07-19T07:14:17Z</time>
      </trkpt>
      <trkpt lat="44.20825" lon="7.09897">
        <ele>1547.6</ele>
        <time>2022-07-19T07:14:18Z</time>
      </trkpt>
      <trkpt lat="44.20812" lon="7.09887">
        <ele>1546.8</ele>
        <time>2022-07-19T07:14:19Z</time>
      </trkpt>
      <trkpt lat="44.208" lon="7.09877">
        <ele>1546</ele>
        <time>2022-07-19T07:14:20Z</time>
      </trkpt>
      <trkpt lat="44.20788" lon="7.09867">
        <ele>1545</ele>
        <time>2022-07-19T07:14:21Z</time>
      </trkpt>
      <trkpt lat="44.20777" lon="7.09856">
        <ele>1544.2</ele>
        <time>2022-07-19T07:14:22Z</time>
      </trkpt>
      <trkpt lat="44.20763" lon="7.09842">
        <ele>1543.4</ele>
        <time>2022-07-19T07:14:23Z</time>
      </trkpt>
      <trkpt lat="44.20759" lon="7.09837">
        <ele>1542.6</ele>
        <time>2022-07-19T07:14:24Z</time>
      </trkpt>
      <trkpt lat="44.20751" lon="7.09828">
        <ele>1541.8</ele>
        <time>2022-07-19T07:14:25Z</time>
      </trkpt>
      <trkpt lat="44.20745" lon="7.09819">
        <ele>1541</ele>
        <time>2022-07-19T07:14:26Z</time>
      </trkpt>
      <trkpt lat="44.2074" lon="7.0981">
        <ele>1540.2</ele>
        <time>2022-07-19T07:14:27Z</time>
      </trkpt>
      <trkpt lat="44.20737" lon="7.09801">
        <ele>1539.6</ele>
        <time>2022-07-19T07:14:28Z</time>
      </trkpt>
      <trkpt lat="44.20734" lon="7.09792">
        <ele>1539</ele>
        <time>2022-07-19T07:14:29Z</time>
      </trkpt>
      <trkpt lat="44.20732" lon="7.09785">
        <ele>1538.4</ele>
        <time>2022-07-19T07:14:30Z</time>
      </trkpt>
      <trkpt lat="44.20729" lon="7.0978">
        <ele>1538</ele>
        <time>2022-07-19T07:14:31Z</time>
      </trkpt>
      <trkpt lat="44.20724" lon="7.09776">
        <ele>1537.6</ele>
        <time>2022-07-19T07:14:32Z</time>
      </trkpt>
      <trkpt lat="44.20723" lon="7.09777">
        <ele>1537</ele>
        <time>2022-07-19T07:14:33Z</time>
      </trkpt>
      <trkpt lat="44.2072" lon="7.09786">
        <ele>1536.6</ele>
        <time>2022-07-19T07:14:34Z</time>
      </trkpt>
      <trkpt lat="44.2072" lon="7.0979">
        <ele>1536.4</ele>
        <time>2022-07-19T07:14:35Z</time>
      </trkpt>
      <trkpt lat="44.2072" lon="7.09797">
        <ele>1536</ele>
        <time>2022-07-19T07:14:36Z</time>
      </trkpt>
      <trkpt lat="44.20722" lon="7.09807">
        <ele>1535.8</ele>
        <time>2022-07-19T07:14:37Z</time>
      </trkpt>
      <trkpt lat="44.20724" lon="7.09816">
        <ele>1535.4</ele>
        <time>2022-07-19T07:14:38Z</time>
      </trkpt>
      <trkpt lat="44.20727" lon="7.09826">
        <ele>1535</ele>
        <time>2022-07-19T07:14:39Z</time>
      </trkpt>
      <trkpt lat="44.20732" lon="7.09842">
        <ele>1534.6</ele>
        <time>2022-07-19T07:14:40Z</time>
      </trkpt>
      <trkpt lat="44.20734" lon="7.09847">
        <ele>1534</ele>
        <time>2022-07-19T07:14:41Z</time>
      </trkpt>
      <trkpt lat="44.2074" lon="7.09863">
        <ele>1533.4</ele>
        <time>2022-07-19T07:14:42Z</time>
      </trkpt>
      <trkpt lat="44.20742" lon="7.09868">
        <ele>1533</ele>
        <time>2022-07-19T07:14:43Z</time>
      </trkpt>
      <trkpt lat="44.20747" lon="7.09878">
        <ele>1532.2</ele>
        <time>2022-07-19T07:14:44Z</time>
      </trkpt>
      <trkpt lat="44.20754" lon="7.09887">
        <ele>1531.6</ele>
        <time>2022-07-19T07:14:45Z</time>
      </trkpt>
      <trkpt lat="44.20761" lon="7.09895">
        <ele>1531.2</ele>
        <time>2022-07-19T07:14:46Z</time>
      </trkpt>
      <trkpt lat="44.20769" lon="7.09903">
        <ele>1530.8</ele>
        <time>2022-07-19T07:14:47Z</time>
      </trkpt>
      <trkpt lat="44.20777" lon="7.0991">
        <ele>1530.2</ele>
        <time>2022-07-19T07:14:48Z</time>
      </trkpt>
      <trkpt lat="44.20785" lon="7.09918">
        <ele>1529.4</ele>
        <time>2022-07-19T07:14:49Z</time>
      </trkpt>
      <trkpt lat="44.20792" lon="7.09928">
        <ele>1528.6</ele>
        <time>2022-07-19T07:14:50Z</time>
      </trkpt>
      <trkpt lat="44.20799" lon="7.09938">
        <ele>1527.8</ele>
        <time>2022-07-19T07:14:51Z</time>
      </trkpt>
      <trkpt lat="44.20807" lon="7.09955">
        <ele>1527.2</ele>
        <time>2022-07-19T07:14:52Z</time>
      </trkpt>
      <trkpt lat="44.20809" lon="7.09961">
        <ele>1526.2</ele>
        <time>2022-07-19T07:14:53Z</time>
      </trkpt>
      <trkpt lat="44.20814" lon="7.09973">
        <ele>1525.4</ele>
        <time>2022-07-19T07:14:54Z</time>
      </trkpt>
      <trkpt lat="44.20815" lon="7.09985">
        <ele>1524.6</ele>
        <time>2022-07-19T07:14:55Z</time>
      </trkpt>
      <trkpt lat="44.20816" lon="7.09997">
        <ele>1524</ele>
        <time>2022-07-19T07:14:56Z</time>
      </trkpt>
      <trkpt lat="44.20816" lon="7.10009">
        <ele>1523.4</ele>
        <time>2022-07-19T07:14:57Z</time>
      </trkpt>
      <trkpt lat="44.20814" lon="7.10023">
        <ele>1522.8</ele>
        <time>2022-07-19T07:14:58Z</time>
      </trkpt>
      <trkpt lat="44.20814" lon="7.10027">
        <ele>1522.2</ele>
        <time>2022-07-19T07:14:59Z</time>
      </trkpt>
      <trkpt lat="44.2081" lon="7.10032">
        <ele>1522</ele>
        <time>2022-07-19T07:15:00Z</time>
      </trkpt>
      <trkpt lat="44.20805" lon="7.10033">
        <ele>1521.6</ele>
        <time>2022-07-19T07:15:01Z</time>
      </trkpt>
      <trkpt lat="44.20801" lon="7.10031">
        <ele>1521.2</ele>
        <time>2022-07-19T07:15:02Z</time>
      </trkpt>
      <trkpt lat="44.20799" lon="7.10021">
        <ele>1520.8</ele>
        <time>2022-07-19T07:15:03Z</time>
      </trkpt>
      <trkpt lat="44.20799" lon="7.10017">
        <ele>1520.6</ele>
        <time>2022-07-19T07:15:04Z</time>
      </trkpt>
      <trkpt lat="44.20799" lon="7.10009">
        <ele>1520.2</ele>
        <time>2022-07-19T07:15:05Z</time>
      </trkpt>
      <trkpt lat="44.20799" lon="7.1">
        <ele>1519.8</ele>
        <time>2022-07-19T07:15:06Z</time>
      </trkpt>
      <trkpt lat="44.20798" lon="7.0999">
        <ele>1519.4</ele>
        <time>2022-07-19T07:15:07Z</time>
      </trkpt>
      <trkpt lat="44.20796" lon="7.0998">
        <ele>1519</ele>
        <time>2022-07-19T07:15:08Z</time>
      </trkpt>
      <trkpt lat="44.20792" lon="7.09969">
        <ele>1518.6</ele>
        <time>2022-07-19T07:15:09Z</time>
      </trkpt>
      <trkpt lat="44.20784" lon="7.09961">
        <ele>1518</ele>
        <time>2022-07-19T07:15:10Z</time>
      </trkpt>
      <trkpt lat="44.20777" lon="7.09953">
        <ele>1517.4</ele>
        <time>2022-07-19T07:15:11Z</time>
      </trkpt>
      <trkpt lat="44.20769" lon="7.09945">
        <ele>1517</ele>
        <time>2022-07-19T07:15:12Z</time>
      </trkpt>
      <trkpt lat="44.2076" lon="7.09937">
        <ele>1516.2</ele>
        <time>2022-07-19T07:15:13Z</time>
      </trkpt>
      <trkpt lat="44.2075" lon="7.0993">
        <ele>1515.6</ele>
        <time>2022-07-19T07:15:14Z</time>
      </trkpt>
      <trkpt lat="44.20741" lon="7.09922">
        <ele>1515</ele>
        <time>2022-07-19T07:15:15Z</time>
      </trkpt>
      <trkpt lat="44.20732" lon="7.09914">
        <ele>1514.4</ele>
        <time>2022-07-19T07:15:16Z</time>
      </trkpt>
      <trkpt lat="44.20723" lon="7.09903">
        <ele>1513.6</ele>
        <time>2022-07-19T07:15:17Z</time>
      </trkpt>
      <trkpt lat="44.20714" lon="7.09891">
        <ele>1512.8</ele>
        <time>2022-07-19T07:15:18Z</time>
      </trkpt>
      <trkpt lat="44.20706" lon="7.09878">
        <ele>1512</ele>
        <time>2022-07-19T07:15:19Z</time>
      </trkpt>
      <trkpt lat="44.20698" lon="7.09864">
        <ele>1511.2</ele>
        <time>2022-07-19T07:15:20Z</time>
      </trkpt>
      <trkpt lat="44.2069" lon="7.09849">
        <ele>1510.4</ele>
        <time>2022-07-19T07:15:21Z</time>
      </trkpt>
      <trkpt lat="44.20682" lon="7.09835">
        <ele>1509.4</ele>
        <time>2022-07-19T07:15:22Z</time>
      </trkpt>
      <trkpt lat="44.20674" lon="7.09822">
        <ele>1508.4</ele>
        <time>2022-07-19T07:15:23Z</time>
      </trkpt>
      <trkpt lat="44.20665" lon="7.0981">
        <ele>1507.4</ele>
        <time>2022-07-19T07:15:24Z</time>
      </trkpt>
      <trkpt lat="44.20658" lon="7.09798">
        <ele>1506.6</ele>
        <time>2022-07-19T07:15:25Z</time>
      </trkpt>
      <trkpt lat="44.20648" lon="7.09781">
        <ele>1505.8</ele>
        <time>2022-07-19T07:15:26Z</time>
      </trkpt>
      <trkpt lat="44.20646" lon="7.09776">
        <ele>1505</ele>
        <time>2022-07-19T07:15:27Z</time>
      </trkpt>
      <trkpt lat="44.2064" lon="7.09765">
        <ele>1504.2</ele>
        <time>2022-07-19T07:15:28Z</time>
      </trkpt>
      <trkpt lat="44.20636" lon="7.09756">
        <ele>1503.4</ele>
        <time>2022-07-19T07:15:29Z</time>
      </trkpt>
      <trkpt lat="44.20632" lon="7.09748">
        <ele>1502.6</ele>
        <time>2022-07-19T07:15:30Z</time>
      </trkpt>
      <trkpt lat="44.20629" lon="7.09743">
        <ele>1502.2</ele>
        <time>2022-07-19T07:15:31Z</time>
      </trkpt>
      <trkpt lat="44.20622" lon="7.09743">
        <ele>1501.8</ele>
        <time>2022-07-19T07:15:32Z</time>
      </trkpt>
      <trkpt lat="44.20621" lon="7.09745">
        <ele>1501.4</ele>
        <time>2022-07-19T07:15:33Z</time>
      </trkpt>
      <trkpt lat="44.20618" lon="7.09751">
        <ele>1501.2</ele>
        <time>2022-07-19T07:15:34Z</time>
      </trkpt>
      <trkpt lat="44.20618" lon="7.0976">
        <ele>1500.8</ele>
        <time>2022-07-19T07:15:35Z</time>
      </trkpt>
      <trkpt lat="44.2062" lon="7.09769">
        <ele>1500.6</ele>
        <time>2022-07-19T07:15:36Z</time>
      </trkpt>
      <trkpt lat="44.20623" lon="7.09776">
        <ele>1500.2</ele>
        <time>2022-07-19T07:15:37Z</time>
      </trkpt>
      <trkpt lat="44.20629" lon="7.09788">
        <ele>1499.8</ele>
        <time>2022-07-19T07:15:38Z</time>
      </trkpt>
      <trkpt lat="44.20631" lon="7.09792">
        <ele>1499.4</ele>
        <time>2022-07-19T07:15:39Z</time>
      </trkpt>
      <trkpt lat="44.20636" lon="7.098">
        <ele>1498.8</ele>
        <time>2022-07-19T07:15:40Z</time>
      </trkpt>
      <trkpt lat="44.20641" lon="7.09809">
        <ele>1498.4</ele>
        <time>2022-07-19T07:15:41Z</time>
      </trkpt>
      <trkpt lat="44.20645" lon="7.09819">
        <ele>1497.8</ele>
        <time>2022-07-19T07:15:42Z</time>
      </trkpt>
      <trkpt lat="44.20648" lon="7.0983">
        <ele>1497.2</ele>
        <time>2022-07-19T07:15:43Z</time>
      </trkpt>
      <trkpt lat="44.20649" lon="7.09846">
        <ele>1496.6</ele>
        <time>2022-07-19T07:15:44Z</time>
      </trkpt>
      <trkpt lat="44.20649" lon="7.09851">
        <ele>1496</ele>
        <time>2022-07-19T07:15:45Z</time>
      </trkpt>
      <trkpt lat="44.20648" lon="7.09861">
        <ele>1495.6</ele>
        <time>2022-07-19T07:15:46Z</time>
      </trkpt>
      <trkpt lat="44.20646" lon="7.0987">
        <ele>1495</ele>
        <time>2022-07-19T07:15:47Z</time>
      </trkpt>
      <trkpt lat="44.2064" lon="7.09876">
        <ele>1494.6</ele>
        <time>2022-07-19T07:15:48Z</time>
      </trkpt>
      <trkpt lat="44.20634" lon="7.0988">
        <ele>1494</ele>
        <time>2022-07-19T07:15:49Z</time>
      </trkpt>
      <trkpt lat="44.20627" lon="7.09881">
        <ele>1493.4</ele>
        <time>2022-07-19T07:15:50Z</time>
      </trkpt>
      <trkpt lat="44.2062" lon="7.09877">
        <ele>1492.8</ele>
        <time>2022-07-19T07:15:51Z</time>
      </trkpt>
      <trkpt lat="44.20609" lon="7.09867">
        <ele>1492.2</ele>
        <time>2022-07-19T07:15:52Z</time>
      </trkpt>
      <trkpt lat="44.20606" lon="7.09862">
        <ele>1491.6</ele>
        <time>2022-07-19T07:15:53Z</time>
      </trkpt>
      <trkpt lat="44.20599" lon="7.09853">
        <ele>1491.2</ele>
        <time>2022-07-19T07:15:54Z</time>
      </trkpt>
      <trkpt lat="44.20593" lon="7.09843">
        <ele>1490.6</ele>
        <time>2022-07-19T07:15:55Z</time>
      </trkpt>
      <trkpt lat="44.20583" lon="7.09827">
        <ele>1489.8</ele>
        <time>2022-07-19T07:15:56Z</time>
      </trkpt>
      <trkpt lat="44.2058" lon="7.09821">
        <ele>1489</ele>
        <time>2022-07-19T07:15:57Z</time>
      </trkpt>
      <trkpt lat="44.20573" lon="7.0981">
        <ele>1488</ele>
        <time>2022-07-19T07:15:58Z</time>
      </trkpt>
      <trkpt lat="44.20567" lon="7.09797">
        <ele>1487.2</ele>
        <time>2022-07-19T07:15:59Z</time>
      </trkpt>
      <trkpt lat="44.20559" lon="7.09785">
        <ele>1486.4</ele>
        <time>2022-07-19T07:16:00Z</time>
      </trkpt>
      <trkpt lat="44.20552" lon="7.09773">
        <ele>1485.4</ele>
        <time>2022-07-19T07:16:01Z</time>
      </trkpt>
      <trkpt lat="44.20544" lon="7.09761">
        <ele>1484.6</ele>
        <time>2022-07-19T07:16:02Z</time>
      </trkpt>
      <trkpt lat="44.20537" lon="7.09748">
        <ele>1483.6</ele>
        <time>2022-07-19T07:16:03Z</time>
      </trkpt>
      <trkpt lat="44.20529" lon="7.09735">
        <ele>1482.6</ele>
        <time>2022-07-19T07:16:04Z</time>
      </trkpt>
      <trkpt lat="44.20521" lon="7.09723">
        <ele>1481.8</ele>
        <time>2022-07-19T07:16:05Z</time>
      </trkpt>
      <trkpt lat="44.20514" lon="7.0971">
        <ele>1481</ele>
        <time>2022-07-19T07:16:06Z</time>
      </trkpt>
      <trkpt lat="44.20504" lon="7.0969">
        <ele>1480.2</ele>
        <time>2022-07-19T07:16:07Z</time>
      </trkpt>
      <trkpt lat="44.205" lon="7.09683">
        <ele>1479.4</ele>
        <time>2022-07-19T07:16:08Z</time>
      </trkpt>
      <trkpt lat="44.20493" lon="7.0967">
        <ele>1478.4</ele>
        <time>2022-07-19T07:16:09Z</time>
      </trkpt>
      <trkpt lat="44.20487" lon="7.09657">
        <ele>1477.4</ele>
        <time>2022-07-19T07:16:10Z</time>
      </trkpt>
      <trkpt lat="44.20476" lon="7.09644">
        <ele>1476.6</ele>
        <time>2022-07-19T07:16:11Z</time>
      </trkpt>
      <trkpt lat="44.20467" lon="7.09631">
        <ele>1475.8</ele>
        <time>2022-07-19T07:16:12Z</time>
      </trkpt>
      <trkpt lat="44.20458" lon="7.09618">
        <ele>1474.8</ele>
        <time>2022-07-19T07:16:13Z</time>
      </trkpt>
      <trkpt lat="44.20447" lon="7.096">
        <ele>1473.8</ele>
        <time>2022-07-19T07:16:14Z</time>
      </trkpt>
      <trkpt lat="44.20443" lon="7.09594">
        <ele>1472.8</ele>
        <time>2022-07-19T07:16:15Z</time>
      </trkpt>
      <trkpt lat="44.20432" lon="7.09575">
        <ele>1472</ele>
        <time>2022-07-19T07:16:16Z</time>
      </trkpt>
      <trkpt lat="44.20428" lon="7.09569">
        <ele>1471</ele>
        <time>2022-07-19T07:16:17Z</time>
      </trkpt>
      <trkpt lat="44.2042" lon="7.09557">
        <ele>1469.8</ele>
        <time>2022-07-19T07:16:18Z</time>
      </trkpt>
      <trkpt lat="44.20411" lon="7.09545">
        <ele>1468.8</ele>
        <time>2022-07-19T07:16:19Z</time>
      </trkpt>
      <trkpt lat="44.20403" lon="7.09533">
        <ele>1467.8</ele>
        <time>2022-07-19T07:16:20Z</time>
      </trkpt>
      <trkpt lat="44.2039" lon="7.09517">
        <ele>1467</ele>
        <time>2022-07-19T07:16:21Z</time>
      </trkpt>
      <trkpt lat="44.20385" lon="7.09512">
        <ele>1466</ele>
        <time>2022-07-19T07:16:22Z</time>
      </trkpt>
      <trkpt lat="44.20376" lon="7.09502">
        <ele>1465</ele>
        <time>2022-07-19T07:16:23Z</time>
      </trkpt>
      <trkpt lat="44.2036" lon="7.0949">
        <ele>1464.2</ele>
        <time>2022-07-19T07:16:24Z</time>
      </trkpt>
      <trkpt lat="44.20355" lon="7.09486">
        <ele>1463.2</ele>
        <time>2022-07-19T07:16:25Z</time>
      </trkpt>
      <trkpt lat="44.20345" lon="7.09478">
        <ele>1462.2</ele>
        <time>2022-07-19T07:16:26Z</time>
      </trkpt>
      <trkpt lat="44.20334" lon="7.09463">
        <ele>1461.4</ele>
        <time>2022-07-19T07:16:27Z</time>
      </trkpt>
      <trkpt lat="44.2033" lon="7.09457">
        <ele>1460.4</ele>
        <time>2022-07-19T07:16:28Z</time>
      </trkpt>
      <trkpt lat="44.20324" lon="7.09445">
        <ele>1459.6</ele>
        <time>2022-07-19T07:16:29Z</time>
      </trkpt>
      <trkpt lat="44.20319" lon="7.09432">
        <ele>1458.8</ele>
        <time>2022-07-19T07:16:30Z</time>
      </trkpt>
      <trkpt lat="44.20314" lon="7.0942">
        <ele>1458</ele>
        <time>2022-07-19T07:16:31Z</time>
      </trkpt>
      <trkpt lat="44.20309" lon="7.09408">
        <ele>1457</ele>
        <time>2022-07-19T07:16:32Z</time>
      </trkpt>
      <trkpt lat="44.20303" lon="7.09397">
        <ele>1456.8</ele>
        <time>2022-07-19T07:16:33Z</time>
      </trkpt>
      <trkpt lat="44.20295" lon="7.0938">
        <ele>1456</ele>
        <time>2022-07-19T07:16:34Z</time>
      </trkpt>
      <trkpt lat="44.20293" lon="7.09375">
        <ele>1455</ele>
        <time>2022-07-19T07:16:35Z</time>
      </trkpt>
      <trkpt lat="44.20285" lon="7.09359">
        <ele>1454</ele>
        <time>2022-07-19T07:16:36Z</time>
      </trkpt>
      <trkpt lat="44.20282" lon="7.09354">
        <ele>1453.6</ele>
        <time>2022-07-19T07:16:37Z</time>
      </trkpt>
      <trkpt lat="44.20277" lon="7.09344">
        <ele>1452.8</ele>
        <time>2022-07-19T07:16:38Z</time>
      </trkpt>
      <trkpt lat="44.20273" lon="7.09331">
        <ele>1452</ele>
        <time>2022-07-19T07:16:39Z</time>
      </trkpt>
      <trkpt lat="44.20273" lon="7.09316">
        <ele>1451.2</ele>
        <time>2022-07-19T07:16:40Z</time>
      </trkpt>
      <trkpt lat="44.20263" lon="7.09312">
        <ele>1450.4</ele>
        <time>2022-07-19T07:16:41Z</time>
      </trkpt>
      <trkpt lat="44.20254" lon="7.09297">
        <ele>1449.4</ele>
        <time>2022-07-19T07:16:42Z</time>
      </trkpt>
      <trkpt lat="44.20251" lon="7.09291">
        <ele>1448.6</ele>
        <time>2022-07-19T07:16:43Z</time>
      </trkpt>
      <trkpt lat="44.20245" lon="7.09279">
        <ele>1447.8</ele>
        <time>2022-07-19T07:16:44Z</time>
      </trkpt>
      <trkpt lat="44.20238" lon="7.09267">
        <ele>1446.8</ele>
        <time>2022-07-19T07:16:45Z</time>
      </trkpt>
      <trkpt lat="44.20231" lon="7.09255">
        <ele>1446.2</ele>
        <time>2022-07-19T07:16:46Z</time>
      </trkpt>
      <trkpt lat="44.20224" lon="7.09236">
        <ele>1445.2</ele>
        <time>2022-07-19T07:16:47Z</time>
      </trkpt>
      <trkpt lat="44.20221" lon="7.0923">
        <ele>1444.4</ele>
        <time>2022-07-19T07:16:48Z</time>
      </trkpt>
      <trkpt lat="44.20216" lon="7.09217">
        <ele>1443.6</ele>
        <time>2022-07-19T07:16:49Z</time>
      </trkpt>
      <trkpt lat="44.20212" lon="7.09204">
        <ele>1442.8</ele>
        <time>2022-07-19T07:16:50Z</time>
      </trkpt>
      <trkpt lat="44.20203" lon="7.09187">
        <ele>1442</ele>
        <time>2022-07-19T07:16:51Z</time>
      </trkpt>
      <trkpt lat="44.20199" lon="7.09181">
        <ele>1441.2</ele>
        <time>2022-07-19T07:16:52Z</time>
      </trkpt>
      <trkpt lat="44.20192" lon="7.0917">
        <ele>1440.6</ele>
        <time>2022-07-19T07:16:53Z</time>
      </trkpt>
      <trkpt lat="44.20184" lon="7.0916">
        <ele>1439.8</ele>
        <time>2022-07-19T07:16:54Z</time>
      </trkpt>
      <trkpt lat="44.20176" lon="7.09151">
        <ele>1439</ele>
        <time>2022-07-19T07:16:55Z</time>
      </trkpt>
      <trkpt lat="44.20167" lon="7.09141">
        <ele>1438</ele>
        <time>2022-07-19T07:16:56Z</time>
      </trkpt>
      <trkpt lat="44.2016" lon="7.09131">
        <ele>1437.2</ele>
        <time>2022-07-19T07:16:57Z</time>
      </trkpt>
      <trkpt lat="44.20153" lon="7.0912">
        <ele>1436.4</ele>
        <time>2022-07-19T07:16:58Z</time>
      </trkpt>
      <trkpt lat="44.20148" lon="7.09108">
        <ele>1435.4</ele>
        <time>2022-07-19T07:16:59Z</time>
      </trkpt>
      <trkpt lat="44.20144" lon="7.09094">
        <ele>1434.6</ele>
        <time>2022-07-19T07:17:00Z</time>
      </trkpt>
      <trkpt lat="44.20141" lon="7.0908">
        <ele>1433.6</ele>
        <time>2022-07-19T07:17:01Z</time>
      </trkpt>
      <trkpt lat="44.20139" lon="7.09065">
        <ele>1432.8</ele>
        <time>2022-07-19T07:17:02Z</time>
      </trkpt>
      <trkpt lat="44.20137" lon="7.09051">
        <ele>1432.2</ele>
        <time>2022-07-19T07:17:03Z</time>
      </trkpt>
      <trkpt lat="44.20135" lon="7.09031">
        <ele>1431.4</ele>
        <time>2022-07-19T07:17:04Z</time>
      </trkpt>
      <trkpt lat="44.20134" lon="7.09026">
        <ele>1430.6</ele>
        <time>2022-07-19T07:17:05Z</time>
      </trkpt>
      <trkpt lat="44.20132" lon="7.09014">
        <ele>1430</ele>
        <time>2022-07-19T07:17:06Z</time>
      </trkpt>
      <trkpt lat="44.20129" lon="7.09006">
        <ele>1429.4</ele>
        <time>2022-07-19T07:17:07Z</time>
      </trkpt>
      <trkpt lat="44.20128" lon="7.08999">
        <ele>1428.8</ele>
        <time>2022-07-19T07:17:08Z</time>
      </trkpt>
      <trkpt lat="44.2013" lon="7.08993">
        <ele>1428.2</ele>
        <time>2022-07-19T07:17:09Z</time>
      </trkpt>
      <trkpt lat="44.20135" lon="7.08989">
        <ele>1427.8</ele>
        <time>2022-07-19T07:17:10Z</time>
      </trkpt>
      <trkpt lat="44.20137" lon="7.08989">
        <ele>1427.4</ele>
        <time>2022-07-19T07:17:11Z</time>
      </trkpt>
      <trkpt lat="44.20141" lon="7.08992">
        <ele>1427</ele>
        <time>2022-07-19T07:17:12Z</time>
      </trkpt>
      <trkpt lat="44.20144" lon="7.08998">
        <ele>1426.4</ele>
        <time>2022-07-19T07:17:13Z</time>
      </trkpt>
      <trkpt lat="44.20147" lon="7.09006">
        <ele>1425.8</ele>
        <time>2022-07-19T07:17:14Z</time>
      </trkpt>
      <trkpt lat="44.20149" lon="7.09015">
        <ele>1425.2</ele>
        <time>2022-07-19T07:17:15Z</time>
      </trkpt>
      <trkpt lat="44.20151" lon="7.09025">
        <ele>1424.4</ele>
        <time>2022-07-19T07:17:16Z</time>
      </trkpt>
      <trkpt lat="44.20154" lon="7.09036">
        <ele>1423.6</ele>
        <time>2022-07-19T07:17:17Z</time>
      </trkpt>
      <trkpt lat="44.20157" lon="7.09048">
        <ele>1422.6</ele>
        <time>2022-07-19T07:17:18Z</time>
      </trkpt>
      <trkpt lat="44.20161" lon="7.0906">
        <ele>1421.8</ele>
        <time>2022-07-19T07:17:19Z</time>
      </trkpt>
      <trkpt lat="44.20164" lon="7.09072">
        <ele>1421</ele>
        <time>2022-07-19T07:17:20Z</time>
      </trkpt>
      <trkpt lat="44.20172" lon="7.09088">
        <ele>1420</ele>
        <time>2022-07-19T07:17:21Z</time>
      </trkpt>
      <trkpt lat="44.20175" lon="7.09092">
        <ele>1419.2</ele>
        <time>2022-07-19T07:17:22Z</time>
      </trkpt>
      <trkpt lat="44.20181" lon="7.09102">
        <ele>1418.2</ele>
        <time>2022-07-19T07:17:23Z</time>
      </trkpt>
      <trkpt lat="44.20188" lon="7.09109">
        <ele>1417</ele>
        <time>2022-07-19T07:17:24Z</time>
      </trkpt>
      <trkpt lat="44.20196" lon="7.09115">
        <ele>1416</ele>
        <time>2022-07-19T07:17:25Z</time>
      </trkpt>
      <trkpt lat="44.20202" lon="7.09119">
        <ele>1415.2</ele>
        <time>2022-07-19T07:17:26Z</time>
      </trkpt>
      <trkpt lat="44.20208" lon="7.09123">
        <ele>1413.6</ele>
        <time>2022-07-19T07:17:28Z</time>
      </trkpt>
      <trkpt lat="44.20217" lon="7.09127">
        <ele>1413</ele>
        <time>2022-07-19T07:17:29Z</time>
      </trkpt>
      <trkpt lat="44.2022" lon="7.09126">
        <ele>1412.6</ele>
        <time>2022-07-19T07:17:30Z</time>
      </trkpt>
      <trkpt lat="44.20222" lon="7.09121">
        <ele>1412</ele>
        <time>2022-07-19T07:17:31Z</time>
      </trkpt>
      <trkpt lat="44.20223" lon="7.09114">
        <ele>1411.4</ele>
        <time>2022-07-19T07:17:32Z</time>
      </trkpt>
      <trkpt lat="44.20218" lon="7.09105">
        <ele>1410.8</ele>
        <time>2022-07-19T07:17:33Z</time>
      </trkpt>
      <trkpt lat="44.20216" lon="7.09102">
        <ele>1410.2</ele>
        <time>2022-07-19T07:17:34Z</time>
      </trkpt>
      <trkpt lat="44.20211" lon="7.09095">
        <ele>1409.6</ele>
        <time>2022-07-19T07:17:35Z</time>
      </trkpt>
      <trkpt lat="44.20205" lon="7.09088">
        <ele>1408.8</ele>
        <time>2022-07-19T07:17:36Z</time>
      </trkpt>
      <trkpt lat="44.20201" lon="7.0908">
        <ele>1408.8</ele>
        <time>2022-07-19T07:17:37Z</time>
      </trkpt>
      <trkpt lat="44.20198" lon="7.09068">
        <ele>1408</ele>
        <time>2022-07-19T07:17:38Z</time>
      </trkpt>
      <trkpt lat="44.20197" lon="7.09049">
        <ele>1407.2</ele>
        <time>2022-07-19T07:17:39Z</time>
      </trkpt>
      <trkpt lat="44.20197" lon="7.09042">
        <ele>1406.2</ele>
        <time>2022-07-19T07:17:40Z</time>
      </trkpt>
      <trkpt lat="44.20197" lon="7.09028">
        <ele>1405.4</ele>
        <time>2022-07-19T07:17:41Z</time>
      </trkpt>
      <trkpt lat="44.20198" lon="7.09014">
        <ele>1404.4</ele>
        <time>2022-07-19T07:17:42Z</time>
      </trkpt>
      <trkpt lat="44.20197" lon="7.09001">
        <ele>1403.6</ele>
        <time>2022-07-19T07:17:43Z</time>
      </trkpt>
      <trkpt lat="44.20194" lon="7.08983">
        <ele>1402.8</ele>
        <time>2022-07-19T07:17:44Z</time>
      </trkpt>
      <trkpt lat="44.20193" lon="7.08978">
        <ele>1402</ele>
        <time>2022-07-19T07:17:45Z</time>
      </trkpt>
      <trkpt lat="44.20191" lon="7.08968">
        <ele>1401.2</ele>
        <time>2022-07-19T07:17:46Z</time>
      </trkpt>
      <trkpt lat="44.20188" lon="7.0896">
        <ele>1400.6</ele>
        <time>2022-07-19T07:17:47Z</time>
      </trkpt>
      <trkpt lat="44.20185" lon="7.08953">
        <ele>1400</ele>
        <time>2022-07-19T07:17:48Z</time>
      </trkpt>
      <trkpt lat="44.20182" lon="7.08947">
        <ele>1399.2</ele>
        <time>2022-07-19T07:17:49Z</time>
      </trkpt>
      <trkpt lat="44.20179" lon="7.08943">
        <ele>1398.6</ele>
        <time>2022-07-19T07:17:50Z</time>
      </trkpt>
      <trkpt lat="44.20177" lon="7.08939">
        <ele>1398.2</ele>
        <time>2022-07-19T07:17:51Z</time>
      </trkpt>
      <trkpt lat="44.20175" lon="7.08936">
        <ele>1397.8</ele>
        <time>2022-07-19T07:17:52Z</time>
      </trkpt>
      <trkpt lat="44.20174" lon="7.08935">
        <ele>1397.4</ele>
        <time>2022-07-19T07:17:53Z</time>
      </trkpt>
      <trkpt lat="44.20174" lon="7.08935">
        <ele>1397.2</ele>
        <time>2022-07-19T07:17:54Z</time>
      </trkpt>
      <trkpt lat="44.20173" lon="7.08935">
        <ele>1396.8</ele>
        <time>2022-07-19T07:17:55Z</time>
      </trkpt>
      <trkpt lat="44.20173" lon="7.08935">
        <ele>1396.8</ele>
        <time>2022-07-19T07:17:56Z</time>
      </trkpt>
      <trkpt lat="44.20172" lon="7.08934">
        <ele>1396.6</ele>
        <time>2022-07-19T07:17:57Z</time>
      </trkpt>
      <trkpt lat="44.20171" lon="7.08934">
        <ele>1396.6</ele>
        <time>2022-07-19T07:17:59Z</time>
      </trkpt>
      <trkpt lat="44.20171" lon="7.08934">
        <ele>1396.6</ele>
        <time>2022-07-19T07:18:00Z</time>
      </trkpt>
      <trkpt lat="44.2017" lon="7.08933">
        <ele>1396.4</ele>
        <time>2022-07-19T07:18:01Z</time>
      </trkpt>
      <trkpt lat="44.2017" lon="7.08933">
        <ele>1396.4</ele>
        <time>2022-07-19T07:18:02Z</time>
      </trkpt>
      <trkpt lat="44.20169" lon="7.08933">
        <ele>1396.4</ele>
        <time>2022-07-19T07:18:03Z</time>
      </trkpt>
      <trkpt lat="44.20169" lon="7.08933">
        <ele>1396.2</ele>
        <time>2022-07-19T07:18:15Z</time>
      </trkpt>
      <trkpt lat="44.20168" lon="7.08932">
        <ele>1396.2</ele>
        <time>2022-07-19T07:18:16Z</time>
      </trkpt>
      <trkpt lat="44.20167" lon="7.08932">
        <ele>1396.2</ele>
        <time>2022-07-19T07:18:17Z</time>
      </trkpt>
      <trkpt lat="44.20167" lon="7.08932">
        <ele>1396</ele>
        <time>2022-07-19T07:18:18Z</time>
      </trkpt>
      <trkpt lat="44.20165" lon="7.08929">
        <ele>1396</ele>
        <time>2022-07-19T07:18:19Z</time>
      </trkpt>
      <trkpt lat="44.20162" lon="7.08925">
        <ele>1395.6</ele>
        <time>2022-07-19T07:18:20Z</time>
      </trkpt>
      <trkpt lat="44.20159" lon="7.0892">
        <ele>1395.4</ele>
        <time>2022-07-19T07:18:21Z</time>
      </trkpt>
      <trkpt lat="44.20156" lon="7.08915">
        <ele>1395</ele>
        <time>2022-07-19T07:18:22Z</time>
      </trkpt>
      <trkpt lat="44.20153" lon="7.08908">
        <ele>1394.6</ele>
        <time>2022-07-19T07:18:23Z</time>
      </trkpt>
      <trkpt lat="44.20151" lon="7.08902">
        <ele>1394.4</ele>
        <time>2022-07-19T07:18:24Z</time>
      </trkpt>
      <trkpt lat="44.20148" lon="7.08894">
        <ele>1394</ele>
        <time>2022-07-19T07:18:25Z</time>
      </trkpt>
      <trkpt lat="44.20144" lon="7.08885">
        <ele>1393.4</ele>
        <time>2022-07-19T07:18:26Z</time>
      </trkpt>
      <trkpt lat="44.2014" lon="7.08876">
        <ele>1392.8</ele>
        <time>2022-07-19T07:18:27Z</time>
      </trkpt>
      <trkpt lat="44.20136" lon="7.08867">
        <ele>1392.2</ele>
        <time>2022-07-19T07:18:28Z</time>
      </trkpt>
      <trkpt lat="44.20132" lon="7.08857">
        <ele>1391.6</ele>
        <time>2022-07-19T07:18:29Z</time>
      </trkpt>
      <trkpt lat="44.20128" lon="7.08847">
        <ele>1391</ele>
        <time>2022-07-19T07:18:30Z</time>
      </trkpt>
      <trkpt lat="44.20124" lon="7.08836">
        <ele>1390.4</ele>
        <time>2022-07-19T07:18:31Z</time>
      </trkpt>
      <trkpt lat="44.20119" lon="7.08824">
        <ele>1389.6</ele>
        <time>2022-07-19T07:18:32Z</time>
      </trkpt>
      <trkpt lat="44.20114" lon="7.08812">
        <ele>1388.8</ele>
        <time>2022-07-19T07:18:33Z</time>
      </trkpt>
      <trkpt lat="44.20108" lon="7.088">
        <ele>1388</ele>
        <time>2022-07-19T07:18:34Z</time>
      </trkpt>
      <trkpt lat="44.20104" lon="7.08786">
        <ele>1387</ele>
        <time>2022-07-19T07:18:35Z</time>
      </trkpt>
      <trkpt lat="44.201" lon="7.08773">
        <ele>1386.4</ele>
        <time>2022-07-19T07:18:36Z</time>
      </trkpt>
      <trkpt lat="44.20095" lon="7.08761">
        <ele>1385.6</ele>
        <time>2022-07-19T07:18:37Z</time>
      </trkpt>
      <trkpt lat="44.2009" lon="7.0875">
        <ele>1384.8</ele>
        <time>2022-07-19T07:18:38Z</time>
      </trkpt>
      <trkpt lat="44.20088" lon="7.08735">
        <ele>1384.2</ele>
        <time>2022-07-19T07:18:39Z</time>
      </trkpt>
      <trkpt lat="44.20082" lon="7.08721">
        <ele>1383.4</ele>
        <time>2022-07-19T07:18:40Z</time>
      </trkpt>
      <trkpt lat="44.20076" lon="7.08708">
        <ele>1382.6</ele>
        <time>2022-07-19T07:18:41Z</time>
      </trkpt>
      <trkpt lat="44.2007" lon="7.08698">
        <ele>1381.8</ele>
        <time>2022-07-19T07:18:42Z</time>
      </trkpt>
      <trkpt lat="44.20063" lon="7.08687">
        <ele>1380.8</ele>
        <time>2022-07-19T07:18:43Z</time>
      </trkpt>
      <trkpt lat="44.20057" lon="7.08676">
        <ele>1380</ele>
        <time>2022-07-19T07:18:44Z</time>
      </trkpt>
      <trkpt lat="44.20051" lon="7.08665">
        <ele>1379.2</ele>
        <time>2022-07-19T07:18:45Z</time>
      </trkpt>
      <trkpt lat="44.20045" lon="7.08653">
        <ele>1378.4</ele>
        <time>2022-07-19T07:18:46Z</time>
      </trkpt>
      <trkpt lat="44.20041" lon="7.08641">
        <ele>1377.6</ele>
        <time>2022-07-19T07:18:47Z</time>
      </trkpt>
      <trkpt lat="44.20037" lon="7.0863">
        <ele>1377</ele>
        <time>2022-07-19T07:18:48Z</time>
      </trkpt>
      <trkpt lat="44.20035" lon="7.08618">
        <ele>1376.4</ele>
        <time>2022-07-19T07:18:49Z</time>
      </trkpt>
      <trkpt lat="44.20033" lon="7.08606">
        <ele>1375.8</ele>
        <time>2022-07-19T07:18:50Z</time>
      </trkpt>
      <trkpt lat="44.20032" lon="7.08595">
        <ele>1375</ele>
        <time>2022-07-19T07:18:51Z</time>
      </trkpt>
      <trkpt lat="44.20033" lon="7.08585">
        <ele>1374.6</ele>
        <time>2022-07-19T07:18:52Z</time>
      </trkpt>
      <trkpt lat="44.20034" lon="7.08578">
        <ele>1374</ele>
        <time>2022-07-19T07:18:53Z</time>
      </trkpt>
      <trkpt lat="44.20037" lon="7.08574">
        <ele>1373.4</ele>
        <time>2022-07-19T07:18:54Z</time>
      </trkpt>
      <trkpt lat="44.20041" lon="7.08574">
        <ele>1372.8</ele>
        <time>2022-07-19T07:18:55Z</time>
      </trkpt>
      <trkpt lat="44.20045" lon="7.08579">
        <ele>1372.4</ele>
        <time>2022-07-19T07:18:56Z</time>
      </trkpt>
      <trkpt lat="44.20048" lon="7.08586">
        <ele>1371.8</ele>
        <time>2022-07-19T07:18:57Z</time>
      </trkpt>
      <trkpt lat="44.20049" lon="7.08596">
        <ele>1371.4</ele>
        <time>2022-07-19T07:18:58Z</time>
      </trkpt>
      <trkpt lat="44.2005" lon="7.08606">
        <ele>1370.8</ele>
        <time>2022-07-19T07:18:59Z</time>
      </trkpt>
      <trkpt lat="44.20052" lon="7.08617">
        <ele>1370.2</ele>
        <time>2022-07-19T07:19:00Z</time>
      </trkpt>
      <trkpt lat="44.20055" lon="7.08628">
        <ele>1369.2</ele>
        <time>2022-07-19T07:19:01Z</time>
      </trkpt>
      <trkpt lat="44.20059" lon="7.08638">
        <ele>1368.4</ele>
        <time>2022-07-19T07:19:02Z</time>
      </trkpt>
      <trkpt lat="44.20065" lon="7.08648">
        <ele>1367.6</ele>
        <time>2022-07-19T07:19:03Z</time>
      </trkpt>
      <trkpt lat="44.20071" lon="7.08657">
        <ele>1366.6</ele>
        <time>2022-07-19T07:19:04Z</time>
      </trkpt>
      <trkpt lat="44.2008" lon="7.08663">
        <ele>1365.6</ele>
        <time>2022-07-19T07:19:05Z</time>
      </trkpt>
      <trkpt lat="44.20089" lon="7.08667">
        <ele>1364.6</ele>
        <time>2022-07-19T07:19:06Z</time>
      </trkpt>
      <trkpt lat="44.20099" lon="7.08671">
        <ele>1363.6</ele>
        <time>2022-07-19T07:19:07Z</time>
      </trkpt>
      <trkpt lat="44.20108" lon="7.08675">
        <ele>1362.6</ele>
        <time>2022-07-19T07:19:08Z</time>
      </trkpt>
      <trkpt lat="44.20117" lon="7.08679">
        <ele>1361.6</ele>
        <time>2022-07-19T07:19:09Z</time>
      </trkpt>
      <trkpt lat="44.20124" lon="7.08685">
        <ele>1360.4</ele>
        <time>2022-07-19T07:19:10Z</time>
      </trkpt>
      <trkpt lat="44.20131" lon="7.08691">
        <ele>1359.4</ele>
        <time>2022-07-19T07:19:11Z</time>
      </trkpt>
      <trkpt lat="44.20135" lon="7.087">
        <ele>1358.6</ele>
        <time>2022-07-19T07:19:12Z</time>
      </trkpt>
      <trkpt lat="44.20139" lon="7.08708">
        <ele>1357.6</ele>
        <time>2022-07-19T07:19:13Z</time>
      </trkpt>
      <trkpt lat="44.20142" lon="7.08714">
        <ele>1356.8</ele>
        <time>2022-07-19T07:19:14Z</time>
      </trkpt>
      <trkpt lat="44.20145" lon="7.08718">
        <ele>1356.2</ele>
        <time>2022-07-19T07:19:15Z</time>
      </trkpt>
      <trkpt lat="44.20149" lon="7.08718">
        <ele>1355.8</ele>
        <time>2022-07-19T07:19:16Z</time>
      </trkpt>
      <trkpt lat="44.20152" lon="7.08715">
        <ele>1355.2</ele>
        <time>2022-07-19T07:19:17Z</time>
      </trkpt>
      <trkpt lat="44.20154" lon="7.0871">
        <ele>1354.6</ele>
        <time>2022-07-19T07:19:18Z</time>
      </trkpt>
      <trkpt lat="44.20154" lon="7.08703">
        <ele>1354.2</ele>
        <time>2022-07-19T07:19:19Z</time>
      </trkpt>
      <trkpt lat="44.20152" lon="7.08696">
        <ele>1353.4</ele>
        <time>2022-07-19T07:19:20Z</time>
      </trkpt>
      <trkpt lat="44.20147" lon="7.08688">
        <ele>1352.8</ele>
        <time>2022-07-19T07:19:21Z</time>
      </trkpt>
      <trkpt lat="44.20143" lon="7.0868">
        <ele>1352.4</ele>
        <time>2022-07-19T07:19:22Z</time>
      </trkpt>
      <trkpt lat="44.20138" lon="7.08671">
        <ele>1351.8</ele>
        <time>2022-07-19T07:19:23Z</time>
      </trkpt>
      <trkpt lat="44.20132" lon="7.08662">
        <ele>1350.8</ele>
        <time>2022-07-19T07:19:24Z</time>
      </trkpt>
      <trkpt lat="44.20125" lon="7.08654">
        <ele>1350</ele>
        <time>2022-07-19T07:19:25Z</time>
      </trkpt>
      <trkpt lat="44.20118" lon="7.08646">
        <ele>1349.2</ele>
        <time>2022-07-19T07:19:26Z</time>
      </trkpt>
      <trkpt lat="44.20111" lon="7.08637">
        <ele>1348.2</ele>
        <time>2022-07-19T07:19:27Z</time>
      </trkpt>
      <trkpt lat="44.20104" lon="7.08627">
        <ele>1347.2</ele>
        <time>2022-07-19T07:19:28Z</time>
      </trkpt>
      <trkpt lat="44.20099" lon="7.08617">
        <ele>1346.2</ele>
        <time>2022-07-19T07:19:29Z</time>
      </trkpt>
      <trkpt lat="44.20094" lon="7.08606">
        <ele>1345.2</ele>
        <time>2022-07-19T07:19:30Z</time>
      </trkpt>
      <trkpt lat="44.20091" lon="7.08596">
        <ele>1344.2</ele>
        <time>2022-07-19T07:19:31Z</time>
      </trkpt>
      <trkpt lat="44.2009" lon="7.08587">
        <ele>1343.4</ele>
        <time>2022-07-19T07:19:32Z</time>
      </trkpt>
      <trkpt lat="44.20089" lon="7.08578">
        <ele>1342.6</ele>
        <time>2022-07-19T07:19:33Z</time>
      </trkpt>
      <trkpt lat="44.2009" lon="7.0857">
        <ele>1341.8</ele>
        <time>2022-07-19T07:19:34Z</time>
      </trkpt>
      <trkpt lat="44.20093" lon="7.08564">
        <ele>1341</ele>
        <time>2022-07-19T07:19:35Z</time>
      </trkpt>
      <trkpt lat="44.20097" lon="7.08562">
        <ele>1340.6</ele>
        <time>2022-07-19T07:19:36Z</time>
      </trkpt>
      <trkpt lat="44.201" lon="7.08563">
        <ele>1339.8</ele>
        <time>2022-07-19T07:19:37Z</time>
      </trkpt>
      <trkpt lat="44.20103" lon="7.08568">
        <ele>1339.4</ele>
        <time>2022-07-19T07:19:38Z</time>
      </trkpt>
      <trkpt lat="44.20104" lon="7.08575">
        <ele>1338.8</ele>
        <time>2022-07-19T07:19:39Z</time>
      </trkpt>
      <trkpt lat="44.20105" lon="7.08584">
        <ele>1338.4</ele>
        <time>2022-07-19T07:19:40Z</time>
      </trkpt>
      <trkpt lat="44.20106" lon="7.08593">
        <ele>1337.8</ele>
        <time>2022-07-19T07:19:41Z</time>
      </trkpt>
      <trkpt lat="44.20108" lon="7.08602">
        <ele>1337.4</ele>
        <time>2022-07-19T07:19:42Z</time>
      </trkpt>
      <trkpt lat="44.20112" lon="7.0861">
        <ele>1336.8</ele>
        <time>2022-07-19T07:19:43Z</time>
      </trkpt>
      <trkpt lat="44.20117" lon="7.08616">
        <ele>1336.2</ele>
        <time>2022-07-19T07:19:44Z</time>
      </trkpt>
      <trkpt lat="44.20122" lon="7.0862">
        <ele>1335.6</ele>
        <time>2022-07-19T07:19:45Z</time>
      </trkpt>
      <trkpt lat="44.20127" lon="7.08622">
        <ele>1335</ele>
        <time>2022-07-19T07:19:46Z</time>
      </trkpt>
      <trkpt lat="44.20132" lon="7.08622">
        <ele>1334.4</ele>
        <time>2022-07-19T07:19:47Z</time>
      </trkpt>
      <trkpt lat="44.20136" lon="7.08618">
        <ele>1333.6</ele>
        <time>2022-07-19T07:19:48Z</time>
      </trkpt>
      <trkpt lat="44.20139" lon="7.08611">
        <ele>1333</ele>
        <time>2022-07-19T07:19:49Z</time>
      </trkpt>
      <trkpt lat="44.20141" lon="7.08602">
        <ele>1332.4</ele>
        <time>2022-07-19T07:19:50Z</time>
      </trkpt>
      <trkpt lat="44.20139" lon="7.08592">
        <ele>1331.6</ele>
        <time>2022-07-19T07:19:51Z</time>
      </trkpt>
      <trkpt lat="44.20134" lon="7.08582">
        <ele>1331</ele>
        <time>2022-07-19T07:19:52Z</time>
      </trkpt>
      <trkpt lat="44.20129" lon="7.08572">
        <ele>1330.2</ele>
        <time>2022-07-19T07:19:53Z</time>
      </trkpt>
      <trkpt lat="44.20125" lon="7.08561">
        <ele>1329.6</ele>
        <time>2022-07-19T07:19:54Z</time>
      </trkpt>
      <trkpt lat="44.20121" lon="7.08549">
        <ele>1329</ele>
        <time>2022-07-19T07:19:55Z</time>
      </trkpt>
      <trkpt lat="44.20119" lon="7.08536">
        <ele>1328.4</ele>
        <time>2022-07-19T07:19:56Z</time>
      </trkpt>
      <trkpt lat="44.20116" lon="7.08522">
        <ele>1327.8</ele>
        <time>2022-07-19T07:19:57Z</time>
      </trkpt>
      <trkpt lat="44.20115" lon="7.08508">
        <ele>1327</ele>
        <time>2022-07-19T07:19:58Z</time>
      </trkpt>
      <trkpt lat="44.20113" lon="7.08493">
        <ele>1326.4</ele>
        <time>2022-07-19T07:19:59Z</time>
      </trkpt>
      <trkpt lat="44.20112" lon="7.08478">
        <ele>1325.6</ele>
        <time>2022-07-19T07:20:00Z</time>
      </trkpt>
      <trkpt lat="44.2011" lon="7.08462">
        <ele>1324.8</ele>
        <time>2022-07-19T07:20:01Z</time>
      </trkpt>
      <trkpt lat="44.20108" lon="7.08446">
        <ele>1323.8</ele>
        <time>2022-07-19T07:20:02Z</time>
      </trkpt>
      <trkpt lat="44.20104" lon="7.0843">
        <ele>1323</ele>
        <time>2022-07-19T07:20:03Z</time>
      </trkpt>
      <trkpt lat="44.20101" lon="7.08414">
        <ele>1322.2</ele>
        <time>2022-07-19T07:20:04Z</time>
      </trkpt>
      <trkpt lat="44.20097" lon="7.08398">
        <ele>1321.2</ele>
        <time>2022-07-19T07:20:05Z</time>
      </trkpt>
      <trkpt lat="44.20094" lon="7.08381">
        <ele>1320.4</ele>
        <time>2022-07-19T07:20:06Z</time>
      </trkpt>
      <trkpt lat="44.20091" lon="7.08364">
        <ele>1319.6</ele>
        <time>2022-07-19T07:20:07Z</time>
      </trkpt>
      <trkpt lat="44.2009" lon="7.08346">
        <ele>1318.6</ele>
        <time>2022-07-19T07:20:08Z</time>
      </trkpt>
      <trkpt lat="44.20089" lon="7.08328">
        <ele>1317.8</ele>
        <time>2022-07-19T07:20:09Z</time>
      </trkpt>
      <trkpt lat="44.20089" lon="7.0831">
        <ele>1316.8</ele>
        <time>2022-07-19T07:20:10Z</time>
      </trkpt>
      <trkpt lat="44.20089" lon="7.08291">
        <ele>1316</ele>
        <time>2022-07-19T07:20:11Z</time>
      </trkpt>
      <trkpt lat="44.20088" lon="7.08273">
        <ele>1315</ele>
        <time>2022-07-19T07:20:12Z</time>
      </trkpt>
      <trkpt lat="44.20088" lon="7.08253">
        <ele>1314</ele>
        <time>2022-07-19T07:20:13Z</time>
      </trkpt>
      <trkpt lat="44.20088" lon="7.08234">
        <ele>1313</ele>
        <time>2022-07-19T07:20:14Z</time>
      </trkpt>
      <trkpt lat="44.20088" lon="7.08215">
        <ele>1312</ele>
        <time>2022-07-19T07:20:15Z</time>
      </trkpt>
      <trkpt lat="44.20088" lon="7.08195">
        <ele>1311</ele>
        <time>2022-07-19T07:20:16Z</time>
      </trkpt>
      <trkpt lat="44.20087" lon="7.08175">
        <ele>1310</ele>
        <time>2022-07-19T07:20:17Z</time>
      </trkpt>
      <trkpt lat="44.20087" lon="7.08156">
        <ele>1309</ele>
        <time>2022-07-19T07:20:18Z</time>
      </trkpt>
      <trkpt lat="44.20087" lon="7.08138">
        <ele>1308.2</ele>
        <time>2022-07-19T07:20:19Z</time>
      </trkpt>
      <trkpt lat="44.20087" lon="7.0812">
        <ele>1307.2</ele>
        <time>2022-07-19T07:20:20Z</time>
      </trkpt>
      <trkpt lat="44.20087" lon="7.08104">
        <ele>1306.4</ele>
        <time>2022-07-19T07:20:21Z</time>
      </trkpt>
      <trkpt lat="44.20086" lon="7.08088">
        <ele>1305.6</ele>
        <time>2022-07-19T07:20:22Z</time>
      </trkpt>
      <trkpt lat="44.20086" lon="7.08074">
        <ele>1304.8</ele>
        <time>2022-07-19T07:20:23Z</time>
      </trkpt>
      <trkpt lat="44.20084" lon="7.0806">
        <ele>1303.2</ele>
        <time>2022-07-19T07:20:24Z</time>
      </trkpt>
      <trkpt lat="44.20077" lon="7.08047">
        <ele>1302.4</ele>
        <time>2022-07-19T07:20:25Z</time>
      </trkpt>
      <trkpt lat="44.20069" lon="7.08035">
        <ele>1301.6</ele>
        <time>2022-07-19T07:20:26Z</time>
      </trkpt>
      <trkpt lat="44.2006" lon="7.08023">
        <ele>1300.8</ele>
        <time>2022-07-19T07:20:27Z</time>
      </trkpt>
      <trkpt lat="44.20052" lon="7.08012">
        <ele>1299.8</ele>
        <time>2022-07-19T07:20:28Z</time>
      </trkpt>
      <trkpt lat="44.20044" lon="7.08002">
        <ele>1299</ele>
        <time>2022-07-19T07:20:29Z</time>
      </trkpt>
      <trkpt lat="44.20037" lon="7.07991">
        <ele>1298</ele>
        <time>2022-07-19T07:20:30Z</time>
      </trkpt>
      <trkpt lat="44.20031" lon="7.07978">
        <ele>1297.2</ele>
        <time>2022-07-19T07:20:31Z</time>
      </trkpt>
      <trkpt lat="44.20026" lon="7.07965">
        <ele>1296.4</ele>
        <time>2022-07-19T07:20:32Z</time>
      </trkpt>
      <trkpt lat="44.20023" lon="7.07951">
        <ele>1295.6</ele>
        <time>2022-07-19T07:20:33Z</time>
      </trkpt>
      <trkpt lat="44.20021" lon="7.07939">
        <ele>1295</ele>
        <time>2022-07-19T07:20:34Z</time>
      </trkpt>
      <trkpt lat="44.20019" lon="7.07928">
        <ele>1294.4</ele>
        <time>2022-07-19T07:20:35Z</time>
      </trkpt>
      <trkpt lat="44.20017" lon="7.0792">
        <ele>1293.8</ele>
        <time>2022-07-19T07:20:36Z</time>
      </trkpt>
      <trkpt lat="44.20016" lon="7.07912">
        <ele>1293.2</ele>
        <time>2022-07-19T07:20:37Z</time>
      </trkpt>
      <trkpt lat="44.20014" lon="7.07906">
        <ele>1292.8</ele>
        <time>2022-07-19T07:20:38Z</time>
      </trkpt>
      <trkpt lat="44.20014" lon="7.07901">
        <ele>1292.6</ele>
        <time>2022-07-19T07:20:39Z</time>
      </trkpt>
      <trkpt lat="44.20013" lon="7.07897">
        <ele>1292.2</ele>
        <time>2022-07-19T07:20:40Z</time>
      </trkpt>
      <trkpt lat="44.20012" lon="7.07895">
        <ele>1292</ele>
        <time>2022-07-19T07:20:41Z</time>
      </trkpt>
      <trkpt lat="44.20012" lon="7.07894">
        <ele>1291.6</ele>
        <time>2022-07-19T07:20:42Z</time>
      </trkpt>
      <trkpt lat="44.20012" lon="7.07893">
        <ele>1291.6</ele>
        <time>2022-07-19T07:20:43Z</time>
      </trkpt>
      <trkpt lat="44.20011" lon="7.07893">
        <ele>1291.4</ele>
        <time>2022-07-19T07:20:44Z</time>
      </trkpt>
      <trkpt lat="44.20011" lon="7.07893">
        <ele>1291.2</ele>
        <time>2022-07-19T07:20:48Z</time>
      </trkpt>
      <trkpt lat="44.20011" lon="7.07893">
        <ele>1291.2</ele>
        <time>2022-07-19T07:20:59Z</time>
      </trkpt>
      <trkpt lat="44.20011" lon="7.07893">
        <ele>1291.2</ele>
        <time>2022-07-19T07:21:03Z</time>
      </trkpt>
      <trkpt lat="44.20011" lon="7.07893">
        <ele>1291.2</ele>
        <time>2022-07-19T07:21:07Z</time>
      </trkpt>
      <trkpt lat="44.20011" lon="7.07893">
        <ele>1291.2</ele>
        <time>2022-07-19T07:21:14Z</time>
      </trkpt>
      <trkpt lat="44.20011" lon="7.07893">
        <ele>1291.2</ele>
        <time>2022-07-19T07:21:18Z</time>
      </trkpt>
      <trkpt lat="44.20011" lon="7.07893">
        <ele>1291.2</ele>
        <time>2022-07-19T07:21:22Z</time>
      </trkpt>
      <trkpt lat="44.20011" lon="7.07893">
        <ele>1291.2</ele>
        <time>2022-07-19T07:21:26Z</time>
      </trkpt>
      <trkpt lat="44.20011" lon="7.07893">
        <ele>1291.2</ele>
        <time>2022-07-19T07:21:30Z</time>
      </trkpt>
      <trkpt lat="44.20011" lon="7.07893">
        <ele>1291.2</ele>
        <time>2022-07-19T07:21:34Z</time>
      </trkpt>
      <trkpt lat="44.20011" lon="7.07893">
        <ele>1291.2</ele>
        <time>2022-07-19T07:21:38Z</time>
      </trkpt>
      <trkpt lat="44.20011" lon="7.07893">
        <ele>1291</ele>
        <time>2022-07-19T07:22:00Z</time>
      </trkpt>
      <trkpt lat="44.20011" lon="7.07893">
        <ele>1291</ele>
        <time>2022-07-19T07:22:09Z</time>
      </trkpt>
      <trkpt lat="44.20011" lon="7.07893">
        <ele>1290.8</ele>
        <time>2022-07-19T07:22:39Z</time>
      </trkpt>
      <trkpt lat="44.20011" lon="7.07893">
        <ele>1290.8</ele>
        <time>2022-07-19T07:23:00Z</time>
      </trkpt>
      <trkpt lat="44.20009" lon="7.0789">
        <ele>1290.6</ele>
        <time>2022-07-19T07:23:04Z</time>
      </trkpt>
      <trkpt lat="44.20008" lon="7.07886">
        <ele>1290.6</ele>
        <time>2022-07-19T07:23:05Z</time>
      </trkpt>
      <trkpt lat="44.20008" lon="7.07881">
        <ele>1290.2</ele>
        <time>2022-07-19T07:23:06Z</time>
      </trkpt>
      <trkpt lat="44.20008" lon="7.07876">
        <ele>1290</ele>
        <time>2022-07-19T07:23:07Z</time>
      </trkpt>
      <trkpt lat="44.20007" lon="7.07869">
        <ele>1289.8</ele>
        <time>2022-07-19T07:23:08Z</time>
      </trkpt>
      <trkpt lat="44.20007" lon="7.07862">
        <ele>1289.6</ele>
        <time>2022-07-19T07:23:09Z</time>
      </trkpt>
      <trkpt lat="44.20008" lon="7.07855">
        <ele>1289.4</ele>
        <time>2022-07-19T07:23:10Z</time>
      </trkpt>
      <trkpt lat="44.20008" lon="7.07847">
        <ele>1289</ele>
        <time>2022-07-19T07:23:11Z</time>
      </trkpt>
      <trkpt lat="44.20009" lon="7.0784">
        <ele>1288.6</ele>
        <time>2022-07-19T07:23:12Z</time>
      </trkpt>
      <trkpt lat="44.20009" lon="7.07831">
        <ele>1288.2</ele>
        <time>2022-07-19T07:23:13Z</time>
      </trkpt>
      <trkpt lat="44.20009" lon="7.07822">
        <ele>1287.8</ele>
        <time>2022-07-19T07:23:14Z</time>
      </trkpt>
      <trkpt lat="44.20008" lon="7.07813">
        <ele>1287.4</ele>
        <time>2022-07-19T07:23:15Z</time>
      </trkpt>
      <trkpt lat="44.20005" lon="7.07805">
        <ele>1287</ele>
        <time>2022-07-19T07:23:16Z</time>
      </trkpt>
      <trkpt lat="44.20002" lon="7.07797">
        <ele>1286.8</ele>
        <time>2022-07-19T07:23:17Z</time>
      </trkpt>
      <trkpt lat="44.20001" lon="7.0779">
        <ele>1286.4</ele>
        <time>2022-07-19T07:23:18Z</time>
      </trkpt>
      <trkpt lat="44.20001" lon="7.07783">
        <ele>1286</ele>
        <time>2022-07-19T07:23:19Z</time>
      </trkpt>
      <trkpt lat="44.20003" lon="7.07777">
        <ele>1285.8</ele>
        <time>2022-07-19T07:23:20Z</time>
      </trkpt>
      <trkpt lat="44.20007" lon="7.07773">
        <ele>1285.4</ele>
        <time>2022-07-19T07:23:21Z</time>
      </trkpt>
      <trkpt lat="44.20012" lon="7.07773">
        <ele>1285.2</ele>
        <time>2022-07-19T07:23:22Z</time>
      </trkpt>
      <trkpt lat="44.20015" lon="7.07778">
        <ele>1284.8</ele>
        <time>2022-07-19T07:23:23Z</time>
      </trkpt>
      <trkpt lat="44.20017" lon="7.07784">
        <ele>1284.6</ele>
        <time>2022-07-19T07:23:24Z</time>
      </trkpt>
      <trkpt lat="44.20017" lon="7.07792">
        <ele>1284.2</ele>
        <time>2022-07-19T07:23:25Z</time>
      </trkpt>
      <trkpt lat="44.20017" lon="7.078">
        <ele>1284</ele>
        <time>2022-07-19T07:23:26Z</time>
      </trkpt>
      <trkpt lat="44.20018" lon="7.07809">
        <ele>1283.6</ele>
        <time>2022-07-19T07:23:27Z</time>
      </trkpt>
      <trkpt lat="44.20019" lon="7.07818">
        <ele>1283.4</ele>
        <time>2022-07-19T07:23:28Z</time>
      </trkpt>
      <trkpt lat="44.2002" lon="7.07827">
        <ele>1283</ele>
        <time>2022-07-19T07:23:29Z</time>
      </trkpt>
      <trkpt lat="44.20021" lon="7.07837">
        <ele>1282.6</ele>
        <time>2022-07-19T07:23:30Z</time>
      </trkpt>
      <trkpt lat="44.20022" lon="7.07847">
        <ele>1282.2</ele>
        <time>2022-07-19T07:23:31Z</time>
      </trkpt>
      <trkpt lat="44.20023" lon="7.07857">
        <ele>1281.6</ele>
        <time>2022-07-19T07:23:32Z</time>
      </trkpt>
      <trkpt lat="44.20025" lon="7.07868">
        <ele>1281</ele>
        <time>2022-07-19T07:23:33Z</time>
      </trkpt>
      <trkpt lat="44.20028" lon="7.0788">
        <ele>1280.4</ele>
        <time>2022-07-19T07:23:34Z</time>
      </trkpt>
      <trkpt lat="44.20031" lon="7.07891">
        <ele>1280</ele>
        <time>2022-07-19T07:23:35Z</time>
      </trkpt>
      <trkpt lat="44.20034" lon="7.07903">
        <ele>1279.4</ele>
        <time>2022-07-19T07:23:36Z</time>
      </trkpt>
      <trkpt lat="44.20038" lon="7.07915">
        <ele>1278.8</ele>
        <time>2022-07-19T07:23:37Z</time>
      </trkpt>
      <trkpt lat="44.20043" lon="7.07927">
        <ele>1278.2</ele>
        <time>2022-07-19T07:23:38Z</time>
      </trkpt>
      <trkpt lat="44.20048" lon="7.07938">
        <ele>1277.6</ele>
        <time>2022-07-19T07:23:39Z</time>
      </trkpt>
      <trkpt lat="44.20053" lon="7.07949">
        <ele>1276.8</ele>
        <time>2022-07-19T07:23:40Z</time>
      </trkpt>
      <trkpt lat="44.20059" lon="7.07961">
        <ele>1275.8</ele>
        <time>2022-07-19T07:23:41Z</time>
      </trkpt>
      <trkpt lat="44.20066" lon="7.07971">
        <ele>1275.2</ele>
        <time>2022-07-19T07:23:42Z</time>
      </trkpt>
      <trkpt lat="44.20074" lon="7.0798">
        <ele>1274.4</ele>
        <time>2022-07-19T07:23:43Z</time>
      </trkpt>
      <trkpt lat="44.20083" lon="7.07987">
        <ele>1273.8</ele>
        <time>2022-07-19T07:23:44Z</time>
      </trkpt>
      <trkpt lat="44.20093" lon="7.07993">
        <ele>1273</ele>
        <time>2022-07-19T07:23:45Z</time>
      </trkpt>
      <trkpt lat="44.20103" lon="7.07998">
        <ele>1272.2</ele>
        <time>2022-07-19T07:23:46Z</time>
      </trkpt>
      <trkpt lat="44.20112" lon="7.08006">
        <ele>1271.6</ele>
        <time>2022-07-19T07:23:47Z</time>
      </trkpt>
      <trkpt lat="44.20119" lon="7.08015">
        <ele>1270.8</ele>
        <time>2022-07-19T07:23:48Z</time>
      </trkpt>
      <trkpt lat="44.20125" lon="7.08025">
        <ele>1270</ele>
        <time>2022-07-19T07:23:49Z</time>
      </trkpt>
      <trkpt lat="44.2013" lon="7.08037">
        <ele>1269.2</ele>
        <time>2022-07-19T07:23:50Z</time>
      </trkpt>
      <trkpt lat="44.20134" lon="7.0805">
        <ele>1268.6</ele>
        <time>2022-07-19T07:23:51Z</time>
      </trkpt>
      <trkpt lat="44.20136" lon="7.08063">
        <ele>1268</ele>
        <time>2022-07-19T07:23:52Z</time>
      </trkpt>
      <trkpt lat="44.20137" lon="7.08075">
        <ele>1267.2</ele>
        <time>2022-07-19T07:23:53Z</time>
      </trkpt>
      <trkpt lat="44.20137" lon="7.08086">
        <ele>1266.6</ele>
        <time>2022-07-19T07:23:54Z</time>
      </trkpt>
      <trkpt lat="44.20137" lon="7.08096">
        <ele>1266.2</ele>
        <time>2022-07-19T07:23:55Z</time>
      </trkpt>
      <trkpt lat="44.20137" lon="7.08104">
        <ele>1265.8</ele>
        <time>2022-07-19T07:23:56Z</time>
      </trkpt>
      <trkpt lat="44.2014" lon="7.08111">
        <ele>1265.2</ele>
        <time>2022-07-19T07:23:57Z</time>
      </trkpt>
      <trkpt lat="44.20144" lon="7.08117">
        <ele>1264.8</ele>
        <time>2022-07-19T07:23:58Z</time>
      </trkpt>
      <trkpt lat="44.2015" lon="7.08121">
        <ele>1264.6</ele>
        <time>2022-07-19T07:23:59Z</time>
      </trkpt>
      <trkpt lat="44.20157" lon="7.08123">
        <ele>1264.2</ele>
        <time>2022-07-19T07:24:00Z</time>
      </trkpt>
      <trkpt lat="44.20164" lon="7.08122">
        <ele>1263.8</ele>
        <time>2022-07-19T07:24:01Z</time>
      </trkpt>
      <trkpt lat="44.20171" lon="7.08119">
        <ele>1263.4</ele>
        <time>2022-07-19T07:24:02Z</time>
      </trkpt>
      <trkpt lat="44.20177" lon="7.08112">
        <ele>1263</ele>
        <time>2022-07-19T07:24:03Z</time>
      </trkpt>
      <trkpt lat="44.20182" lon="7.08104">
        <ele>1262.6</ele>
        <time>2022-07-19T07:24:04Z</time>
      </trkpt>
      <trkpt lat="44.20187" lon="7.08095">
        <ele>1262.2</ele>
        <time>2022-07-19T07:24:05Z</time>
      </trkpt>
      <trkpt lat="44.20191" lon="7.08083">
        <ele>1261.6</ele>
        <time>2022-07-19T07:24:06Z</time>
      </trkpt>
      <trkpt lat="44.20195" lon="7.08071">
        <ele>1261</ele>
        <time>2022-07-19T07:24:07Z</time>
      </trkpt>
      <trkpt lat="44.20198" lon="7.08058">
        <ele>1260.2</ele>
        <time>2022-07-19T07:24:08Z</time>
      </trkpt>
      <trkpt lat="44.202" lon="7.08044">
        <ele>1259.6</ele>
        <time>2022-07-19T07:24:09Z</time>
      </trkpt>
      <trkpt lat="44.20202" lon="7.0803">
        <ele>1258.8</ele>
        <time>2022-07-19T07:24:10Z</time>
      </trkpt>
      <trkpt lat="44.20203" lon="7.08014">
        <ele>1258</ele>
        <time>2022-07-19T07:24:11Z</time>
      </trkpt>
      <trkpt lat="44.20203" lon="7.07998">
        <ele>1257.2</ele>
        <time>2022-07-19T07:24:12Z</time>
      </trkpt>
      <trkpt lat="44.20202" lon="7.07982">
        <ele>1256.4</ele>
        <time>2022-07-19T07:24:13Z</time>
      </trkpt>
      <trkpt lat="44.20201" lon="7.07966">
        <ele>1255.6</ele>
        <time>2022-07-19T07:24:14Z</time>
      </trkpt>
      <trkpt lat="44.20198" lon="7.0795">
        <ele>1254.8</ele>
        <time>2022-07-19T07:24:15Z</time>
      </trkpt>
      <trkpt lat="44.20194" lon="7.07934">
        <ele>1253.8</ele>
        <time>2022-07-19T07:24:16Z</time>
      </trkpt>
      <trkpt lat="44.2019" lon="7.07917">
        <ele>1253</ele>
        <time>2022-07-19T07:24:17Z</time>
      </trkpt>
      <trkpt lat="44.20186" lon="7.07901">
        <ele>1252</ele>
        <time>2022-07-19T07:24:18Z</time>
      </trkpt>
      <trkpt lat="44.20183" lon="7.07885">
        <ele>1251.2</ele>
        <time>2022-07-19T07:24:19Z</time>
      </trkpt>
      <trkpt lat="44.20181" lon="7.07869">
        <ele>1250.2</ele>
        <time>2022-07-19T07:24:20Z</time>
      </trkpt>
      <trkpt lat="44.20181" lon="7.07851">
        <ele>1249.2</ele>
        <time>2022-07-19T07:24:21Z</time>
      </trkpt>
      <trkpt lat="44.20183" lon="7.07834">
        <ele>1248.4</ele>
        <time>2022-07-19T07:24:22Z</time>
      </trkpt>
      <trkpt lat="44.20186" lon="7.07816">
        <ele>1247.6</ele>
        <time>2022-07-19T07:24:23Z</time>
      </trkpt>
      <trkpt lat="44.2019" lon="7.07799">
        <ele>1246.8</ele>
        <time>2022-07-19T07:24:24Z</time>
      </trkpt>
      <trkpt lat="44.20194" lon="7.07782">
        <ele>1245.8</ele>
        <time>2022-07-19T07:24:25Z</time>
      </trkpt>
      <trkpt lat="44.20198" lon="7.07764">
        <ele>1244.8</ele>
        <time>2022-07-19T07:24:26Z</time>
      </trkpt>
      <trkpt lat="44.20201" lon="7.07746">
        <ele>1243.6</ele>
        <time>2022-07-19T07:24:27Z</time>
      </trkpt>
      <trkpt lat="44.20203" lon="7.07728">
        <ele>1242.6</ele>
        <time>2022-07-19T07:24:28Z</time>
      </trkpt>
      <trkpt lat="44.20204" lon="7.07709">
        <ele>1241.6</ele>
        <time>2022-07-19T07:24:29Z</time>
      </trkpt>
      <trkpt lat="44.20205" lon="7.0769">
        <ele>1240.8</ele>
        <time>2022-07-19T07:24:30Z</time>
      </trkpt>
      <trkpt lat="44.20208" lon="7.07671">
        <ele>1239.8</ele>
        <time>2022-07-19T07:24:31Z</time>
      </trkpt>
      <trkpt lat="44.20211" lon="7.07652">
        <ele>1238.8</ele>
        <time>2022-07-19T07:24:32Z</time>
      </trkpt>
      <trkpt lat="44.20214" lon="7.07633">
        <ele>1237.8</ele>
        <time>2022-07-19T07:24:33Z</time>
      </trkpt>
      <trkpt lat="44.20216" lon="7.07613">
        <ele>1236.8</ele>
        <time>2022-07-19T07:24:34Z</time>
      </trkpt>
      <trkpt lat="44.20218" lon="7.07594">
        <ele>1235.8</ele>
        <time>2022-07-19T07:24:35Z</time>
      </trkpt>
      <trkpt lat="44.20218" lon="7.07575">
        <ele>1234.8</ele>
        <time>2022-07-19T07:24:36Z</time>
      </trkpt>
      <trkpt lat="44.20218" lon="7.07557">
        <ele>1233.8</ele>
        <time>2022-07-19T07:24:37Z</time>
      </trkpt>
      <trkpt lat="44.20216" lon="7.07541">
        <ele>1232.8</ele>
        <time>2022-07-19T07:24:38Z</time>
      </trkpt>
      <trkpt lat="44.20213" lon="7.07527">
        <ele>1232</ele>
        <time>2022-07-19T07:24:39Z</time>
      </trkpt>
      <trkpt lat="44.20211" lon="7.07513">
        <ele>1231.2</ele>
        <time>2022-07-19T07:24:40Z</time>
      </trkpt>
      <trkpt lat="44.2021" lon="7.07501">
        <ele>1230.4</ele>
        <time>2022-07-19T07:24:41Z</time>
      </trkpt>
      <trkpt lat="44.2021" lon="7.0749">
        <ele>1229.8</ele>
        <time>2022-07-19T07:24:42Z</time>
      </trkpt>
      <trkpt lat="44.20213" lon="7.07482">
        <ele>1229.2</ele>
        <time>2022-07-19T07:24:43Z</time>
      </trkpt>
      <trkpt lat="44.20217" lon="7.07475">
        <ele>1228.6</ele>
        <time>2022-07-19T07:24:44Z</time>
      </trkpt>
      <trkpt lat="44.20218" lon="7.07469">
        <ele>1228</ele>
        <time>2022-07-19T07:24:45Z</time>
      </trkpt>
      <trkpt lat="44.20215" lon="7.07463">
        <ele>1227.6</ele>
        <time>2022-07-19T07:24:46Z</time>
      </trkpt>
      <trkpt lat="44.20211" lon="7.07462">
        <ele>1227.2</ele>
        <time>2022-07-19T07:24:47Z</time>
      </trkpt>
      <trkpt lat="44.20206" lon="7.07462">
        <ele>1226.8</ele>
        <time>2022-07-19T07:24:48Z</time>
      </trkpt>
      <trkpt lat="44.202" lon="7.07465">
        <ele>1226.4</ele>
        <time>2022-07-19T07:24:49Z</time>
      </trkpt>
      <trkpt lat="44.20196" lon="7.0747">
        <ele>1226.2</ele>
        <time>2022-07-19T07:24:50Z</time>
      </trkpt>
      <trkpt lat="44.20193" lon="7.07479">
        <ele>1225.8</ele>
        <time>2022-07-19T07:24:51Z</time>
      </trkpt>
      <trkpt lat="44.2019" lon="7.07489">
        <ele>1225.4</ele>
        <time>2022-07-19T07:24:52Z</time>
      </trkpt>
      <trkpt lat="44.20188" lon="7.075">
        <ele>1225</ele>
        <time>2022-07-19T07:24:53Z</time>
      </trkpt>
      <trkpt lat="44.20187" lon="7.07511">
        <ele>1224.8</ele>
        <time>2022-07-19T07:24:54Z</time>
      </trkpt>
      <trkpt lat="44.20185" lon="7.07523">
        <ele>1224.2</ele>
        <time>2022-07-19T07:24:55Z</time>
      </trkpt>
      <trkpt lat="44.20183" lon="7.07534">
        <ele>1223.8</ele>
        <time>2022-07-19T07:24:56Z</time>
      </trkpt>
      <trkpt lat="44.20181" lon="7.07546">
        <ele>1223.2</ele>
        <time>2022-07-19T07:24:57Z</time>
      </trkpt>
      <trkpt lat="44.20178" lon="7.07558">
        <ele>1222.4</ele>
        <time>2022-07-19T07:24:58Z</time>
      </trkpt>
      <trkpt lat="44.20175" lon="7.07571">
        <ele>1221.8</ele>
        <time>2022-07-19T07:24:59Z</time>
      </trkpt>
      <trkpt lat="44.20172" lon="7.07586">
        <ele>1221</ele>
        <time>2022-07-19T07:25:00Z</time>
      </trkpt>
      <trkpt lat="44.20168" lon="7.076">
        <ele>1220.4</ele>
        <time>2022-07-19T07:25:01Z</time>
      </trkpt>
      <trkpt lat="44.20164" lon="7.07614">
        <ele>1219.6</ele>
        <time>2022-07-19T07:25:02Z</time>
      </trkpt>
      <trkpt lat="44.2016" lon="7.07628">
        <ele>1218.8</ele>
        <time>2022-07-19T07:25:03Z</time>
      </trkpt>
      <trkpt lat="44.20155" lon="7.07642">
        <ele>1218.2</ele>
        <time>2022-07-19T07:25:04Z</time>
      </trkpt>
      <trkpt lat="44.20152" lon="7.07655">
        <ele>1217.4</ele>
        <time>2022-07-19T07:25:05Z</time>
      </trkpt>
      <trkpt lat="44.20149" lon="7.07669">
        <ele>1216.6</ele>
        <time>2022-07-19T07:25:06Z</time>
      </trkpt>
      <trkpt lat="44.20146" lon="7.07682">
        <ele>1216</ele>
        <time>2022-07-19T07:25:07Z</time>
      </trkpt>
      <trkpt lat="44.20144" lon="7.07694">
        <ele>1215.2</ele>
        <time>2022-07-19T07:25:08Z</time>
      </trkpt>
      <trkpt lat="44.20142" lon="7.07705">
        <ele>1214.6</ele>
        <time>2022-07-19T07:25:09Z</time>
      </trkpt>
      <trkpt lat="44.20141" lon="7.07714">
        <ele>1214.2</ele>
        <time>2022-07-19T07:25:10Z</time>
      </trkpt>
      <trkpt lat="44.20139" lon="7.07721">
        <ele>1213.8</ele>
        <time>2022-07-19T07:25:11Z</time>
      </trkpt>
      <trkpt lat="44.20135" lon="7.07726">
        <ele>1213.4</ele>
        <time>2022-07-19T07:25:12Z</time>
      </trkpt>
      <trkpt lat="44.2013" lon="7.07727">
        <ele>1213</ele>
        <time>2022-07-19T07:25:13Z</time>
      </trkpt>
      <trkpt lat="44.20126" lon="7.07724">
        <ele>1212.2</ele>
        <time>2022-07-19T07:25:14Z</time>
      </trkpt>
      <trkpt lat="44.20124" lon="7.07717">
        <ele>1212</ele>
        <time>2022-07-19T07:25:15Z</time>
      </trkpt>
      <trkpt lat="44.20124" lon="7.07709">
        <ele>1211.8</ele>
        <time>2022-07-19T07:25:16Z</time>
      </trkpt>
      <trkpt lat="44.20125" lon="7.07701">
        <ele>1211.4</ele>
        <time>2022-07-19T07:25:17Z</time>
      </trkpt>
      <trkpt lat="44.20127" lon="7.07692">
        <ele>1211</ele>
        <time>2022-07-19T07:25:18Z</time>
      </trkpt>
      <trkpt lat="44.2013" lon="7.07683">
        <ele>1210.6</ele>
        <time>2022-07-19T07:25:19Z</time>
      </trkpt>
      <trkpt lat="44.20132" lon="7.07673">
        <ele>1210.2</ele>
        <time>2022-07-19T07:25:20Z</time>
      </trkpt>
      <trkpt lat="44.20134" lon="7.07662">
        <ele>1209.8</ele>
        <time>2022-07-19T07:25:21Z</time>
      </trkpt>
      <trkpt lat="44.20136" lon="7.0765">
        <ele>1209</ele>
        <time>2022-07-19T07:25:22Z</time>
      </trkpt>
      <trkpt lat="44.20137" lon="7.07638">
        <ele>1208.6</ele>
        <time>2022-07-19T07:25:23Z</time>
      </trkpt>
      <trkpt lat="44.20137" lon="7.07625">
        <ele>1208</ele>
        <time>2022-07-19T07:25:24Z</time>
      </trkpt>
      <trkpt lat="44.20139" lon="7.07612">
        <ele>1207.2</ele>
        <time>2022-07-19T07:25:25Z</time>
      </trkpt>
      <trkpt lat="44.2014" lon="7.07598">
        <ele>1206.6</ele>
        <time>2022-07-19T07:25:26Z</time>
      </trkpt>
      <trkpt lat="44.20141" lon="7.07583">
        <ele>1206</ele>
        <time>2022-07-19T07:25:27Z</time>
      </trkpt>
      <trkpt lat="44.20142" lon="7.07569">
        <ele>1205.2</ele>
        <time>2022-07-19T07:25:28Z</time>
      </trkpt>
      <trkpt lat="44.20143" lon="7.07553">
        <ele>1204.4</ele>
        <time>2022-07-19T07:25:29Z</time>
      </trkpt>
      <trkpt lat="44.20143" lon="7.07538">
        <ele>1203.6</ele>
        <time>2022-07-19T07:25:30Z</time>
      </trkpt>
      <trkpt lat="44.20143" lon="7.07523">
        <ele>1202.8</ele>
        <time>2022-07-19T07:25:31Z</time>
      </trkpt>
      <trkpt lat="44.20141" lon="7.07508">
        <ele>1202</ele>
        <time>2022-07-19T07:25:32Z</time>
      </trkpt>
      <trkpt lat="44.2014" lon="7.07495">
        <ele>1201.2</ele>
        <time>2022-07-19T07:25:33Z</time>
      </trkpt>
      <trkpt lat="44.20139" lon="7.07483">
        <ele>1200.4</ele>
        <time>2022-07-19T07:25:34Z</time>
      </trkpt>
      <trkpt lat="44.20139" lon="7.07471">
        <ele>1199.8</ele>
        <time>2022-07-19T07:25:35Z</time>
      </trkpt>
      <trkpt lat="44.20142" lon="7.0746">
        <ele>1199.2</ele>
        <time>2022-07-19T07:25:36Z</time>
      </trkpt>
      <trkpt lat="44.20146" lon="7.0745">
        <ele>1198.6</ele>
        <time>2022-07-19T07:25:37Z</time>
      </trkpt>
      <trkpt lat="44.2015" lon="7.07442">
        <ele>1198</ele>
        <time>2022-07-19T07:25:38Z</time>
      </trkpt>
      <trkpt lat="44.20155" lon="7.07435">
        <ele>1197.4</ele>
        <time>2022-07-19T07:25:39Z</time>
      </trkpt>
      <trkpt lat="44.20158" lon="7.07429">
        <ele>1197</ele>
        <time>2022-07-19T07:25:40Z</time>
      </trkpt>
      <trkpt lat="44.2016" lon="7.07423">
        <ele>1196.6</ele>
        <time>2022-07-19T07:25:41Z</time>
      </trkpt>
      <trkpt lat="44.20161" lon="7.07417">
        <ele>1196</ele>
        <time>2022-07-19T07:25:42Z</time>
      </trkpt>
      <trkpt lat="44.20161" lon="7.07413">
        <ele>1195.8</ele>
        <time>2022-07-19T07:25:43Z</time>
      </trkpt>
      <trkpt lat="44.20157" lon="7.07412">
        <ele>1195.4</ele>
        <time>2022-07-19T07:25:44Z</time>
      </trkpt>
      <trkpt lat="44.20153" lon="7.07413">
        <ele>1195.2</ele>
        <time>2022-07-19T07:25:45Z</time>
      </trkpt>
      <trkpt lat="44.20149" lon="7.07417">
        <ele>1194.8</ele>
        <time>2022-07-19T07:25:46Z</time>
      </trkpt>
      <trkpt lat="44.20146" lon="7.07421">
        <ele>1194.6</ele>
        <time>2022-07-19T07:25:47Z</time>
      </trkpt>
      <trkpt lat="44.20142" lon="7.07428">
        <ele>1194.4</ele>
        <time>2022-07-19T07:25:48Z</time>
      </trkpt>
      <trkpt lat="44.2014" lon="7.07435">
        <ele>1194</ele>
        <time>2022-07-19T07:25:49Z</time>
      </trkpt>
      <trkpt lat="44.20137" lon="7.07443">
        <ele>1193.6</ele>
        <time>2022-07-19T07:25:50Z</time>
      </trkpt>
      <trkpt lat="44.20133" lon="7.07452">
        <ele>1192.6</ele>
        <time>2022-07-19T07:25:52Z</time>
      </trkpt>
      <trkpt lat="44.20129" lon="7.07461">
        <ele>1192</ele>
        <time>2022-07-19T07:25:53Z</time>
      </trkpt>
      <trkpt lat="44.20126" lon="7.07469">
        <ele>1191.4</ele>
        <time>2022-07-19T07:25:54Z</time>
      </trkpt>
      <trkpt lat="44.20123" lon="7.07479">
        <ele>1191</ele>
        <time>2022-07-19T07:25:55Z</time>
      </trkpt>
      <trkpt lat="44.2012" lon="7.07489">
        <ele>1190.4</ele>
        <time>2022-07-19T07:25:56Z</time>
      </trkpt>
      <trkpt lat="44.20118" lon="7.075">
        <ele>1189.8</ele>
        <time>2022-07-19T07:25:57Z</time>
      </trkpt>
      <trkpt lat="44.20116" lon="7.07523">
        <ele>1189.4</ele>
        <time>2022-07-19T07:25:58Z</time>
      </trkpt>
      <trkpt lat="44.20115" lon="7.07532">
        <ele>1189</ele>
        <time>2022-07-19T07:25:59Z</time>
      </trkpt>
      <trkpt lat="44.20113" lon="7.07537">
        <ele>1188.6</ele>
        <time>2022-07-19T07:26:00Z</time>
      </trkpt>
      <trkpt lat="44.20109" lon="7.07542">
        <ele>1188.2</ele>
        <time>2022-07-19T07:26:01Z</time>
      </trkpt>
      <trkpt lat="44.20105" lon="7.07543">
        <ele>1188</ele>
        <time>2022-07-19T07:26:02Z</time>
      </trkpt>
      <trkpt lat="44.20102" lon="7.07539">
        <ele>1187.6</ele>
        <time>2022-07-19T07:26:03Z</time>
      </trkpt>
      <trkpt lat="44.201" lon="7.07533">
        <ele>1187.2</ele>
        <time>2022-07-19T07:26:04Z</time>
      </trkpt>
      <trkpt lat="44.20099" lon="7.07525">
        <ele>1186.8</ele>
        <time>2022-07-19T07:26:05Z</time>
      </trkpt>
      <trkpt lat="44.20099" lon="7.07517">
        <ele>1186.6</ele>
        <time>2022-07-19T07:26:06Z</time>
      </trkpt>
      <trkpt lat="44.201" lon="7.07509">
        <ele>1186.2</ele>
        <time>2022-07-19T07:26:07Z</time>
      </trkpt>
      <trkpt lat="44.20102" lon="7.07499">
        <ele>1185.6</ele>
        <time>2022-07-19T07:26:08Z</time>
      </trkpt>
      <trkpt lat="44.20104" lon="7.0749">
        <ele>1185.2</ele>
        <time>2022-07-19T07:26:09Z</time>
      </trkpt>
      <trkpt lat="44.20106" lon="7.07479">
        <ele>1184.8</ele>
        <time>2022-07-19T07:26:10Z</time>
      </trkpt>
      <trkpt lat="44.20108" lon="7.07468">
        <ele>1184.2</ele>
        <time>2022-07-19T07:26:11Z</time>
      </trkpt>
      <trkpt lat="44.2011" lon="7.07456">
        <ele>1183.6</ele>
        <time>2022-07-19T07:26:12Z</time>
      </trkpt>
      <trkpt lat="44.20112" lon="7.07444">
        <ele>1183</ele>
        <time>2022-07-19T07:26:13Z</time>
      </trkpt>
      <trkpt lat="44.20114" lon="7.07431">
        <ele>1182.4</ele>
        <time>2022-07-19T07:26:14Z</time>
      </trkpt>
      <trkpt lat="44.20114" lon="7.07419">
        <ele>1181.6</ele>
        <time>2022-07-19T07:26:15Z</time>
      </trkpt>
      <trkpt lat="44.20112" lon="7.07407">
        <ele>1181.2</ele>
        <time>2022-07-19T07:26:16Z</time>
      </trkpt>
      <trkpt lat="44.20109" lon="7.07395">
        <ele>1180.6</ele>
        <time>2022-07-19T07:26:17Z</time>
      </trkpt>
      <trkpt lat="44.20104" lon="7.07383">
        <ele>1180.2</ele>
        <time>2022-07-19T07:26:18Z</time>
      </trkpt>
      <trkpt lat="44.20099" lon="7.0737">
        <ele>1179.4</ele>
        <time>2022-07-19T07:26:19Z</time>
      </trkpt>
      <trkpt lat="44.20096" lon="7.07356">
        <ele>1178.8</ele>
        <time>2022-07-19T07:26:20Z</time>
      </trkpt>
      <trkpt lat="44.20093" lon="7.07341">
        <ele>1178</ele>
        <time>2022-07-19T07:26:21Z</time>
      </trkpt>
      <trkpt lat="44.2009" lon="7.07326">
        <ele>1177.4</ele>
        <time>2022-07-19T07:26:22Z</time>
      </trkpt>
      <trkpt lat="44.20087" lon="7.07311">
        <ele>1176.6</ele>
        <time>2022-07-19T07:26:23Z</time>
      </trkpt>
      <trkpt lat="44.20082" lon="7.07296">
        <ele>1175.6</ele>
        <time>2022-07-19T07:26:24Z</time>
      </trkpt>
      <trkpt lat="44.20077" lon="7.07282">
        <ele>1174.8</ele>
        <time>2022-07-19T07:26:25Z</time>
      </trkpt>
      <trkpt lat="44.2007" lon="7.07269">
        <ele>1174.2</ele>
        <time>2022-07-19T07:26:26Z</time>
      </trkpt>
      <trkpt lat="44.20064" lon="7.07258">
        <ele>1173.4</ele>
        <time>2022-07-19T07:26:27Z</time>
      </trkpt>
      <trkpt lat="44.20058" lon="7.07247">
        <ele>1172.8</ele>
        <time>2022-07-19T07:26:28Z</time>
      </trkpt>
      <trkpt lat="44.20053" lon="7.07237">
        <ele>1172</ele>
        <time>2022-07-19T07:26:29Z</time>
      </trkpt>
      <trkpt lat="44.20049" lon="7.07227">
        <ele>1171.4</ele>
        <time>2022-07-19T07:26:30Z</time>
      </trkpt>
      <trkpt lat="44.20045" lon="7.07219">
        <ele>1170.8</ele>
        <time>2022-07-19T07:26:31Z</time>
      </trkpt>
      <trkpt lat="44.20042" lon="7.07211">
        <ele>1170.4</ele>
        <time>2022-07-19T07:26:32Z</time>
      </trkpt>
      <trkpt lat="44.20038" lon="7.07206">
        <ele>1169.8</ele>
        <time>2022-07-19T07:26:33Z</time>
      </trkpt>
      <trkpt lat="44.20035" lon="7.07204">
        <ele>1169.4</ele>
        <time>2022-07-19T07:26:34Z</time>
      </trkpt>
      <trkpt lat="44.20032" lon="7.07207">
        <ele>1169.2</ele>
        <time>2022-07-19T07:26:35Z</time>
      </trkpt>
      <trkpt lat="44.20031" lon="7.07214">
        <ele>1169</ele>
        <time>2022-07-19T07:26:36Z</time>
      </trkpt>
      <trkpt lat="44.2003" lon="7.07222">
        <ele>1168.6</ele>
        <time>2022-07-19T07:26:37Z</time>
      </trkpt>
      <trkpt lat="44.20032" lon="7.07229">
        <ele>1168.2</ele>
        <time>2022-07-19T07:26:38Z</time>
      </trkpt>
      <trkpt lat="44.20033" lon="7.07236">
        <ele>1167.8</ele>
        <time>2022-07-19T07:26:39Z</time>
      </trkpt>
      <trkpt lat="44.20036" lon="7.07244">
        <ele>1167.4</ele>
        <time>2022-07-19T07:26:40Z</time>
      </trkpt>
      <trkpt lat="44.20038" lon="7.07252">
        <ele>1166.8</ele>
        <time>2022-07-19T07:26:41Z</time>
      </trkpt>
      <trkpt lat="44.20041" lon="7.07262">
        <ele>1166.2</ele>
        <time>2022-07-19T07:26:42Z</time>
      </trkpt>
      <trkpt lat="44.20044" lon="7.07273">
        <ele>1165.4</ele>
        <time>2022-07-19T07:26:43Z</time>
      </trkpt>
      <trkpt lat="44.20046" lon="7.07284">
        <ele>1165.4</ele>
        <time>2022-07-19T07:26:44Z</time>
      </trkpt>
      <trkpt lat="44.20048" lon="7.07295">
        <ele>1164.6</ele>
        <time>2022-07-19T07:26:45Z</time>
      </trkpt>
      <trkpt lat="44.2005" lon="7.07305">
        <ele>1164</ele>
        <time>2022-07-19T07:26:46Z</time>
      </trkpt>
      <trkpt lat="44.2005" lon="7.07315">
        <ele>1163.2</ele>
        <time>2022-07-19T07:26:47Z</time>
      </trkpt>
      <trkpt lat="44.20048" lon="7.07323">
        <ele>1162.4</ele>
        <time>2022-07-19T07:26:48Z</time>
      </trkpt>
      <trkpt lat="44.20045" lon="7.0733">
        <ele>1161.8</ele>
        <time>2022-07-19T07:26:49Z</time>
      </trkpt>
      <trkpt lat="44.20041" lon="7.07334">
        <ele>1161.4</ele>
        <time>2022-07-19T07:26:50Z</time>
      </trkpt>
      <trkpt lat="44.20034" lon="7.07336">
        <ele>1160.8</ele>
        <time>2022-07-19T07:26:51Z</time>
      </trkpt>
      <trkpt lat="44.20028" lon="7.07336">
        <ele>1160.4</ele>
        <time>2022-07-19T07:26:52Z</time>
      </trkpt>
      <trkpt lat="44.20022" lon="7.07332">
        <ele>1159.8</ele>
        <time>2022-07-19T07:26:53Z</time>
      </trkpt>
      <trkpt lat="44.20018" lon="7.07325">
        <ele>1159.2</ele>
        <time>2022-07-19T07:26:54Z</time>
      </trkpt>
      <trkpt lat="44.20013" lon="7.07316">
        <ele>1158.4</ele>
        <time>2022-07-19T07:26:55Z</time>
      </trkpt>
      <trkpt lat="44.20008" lon="7.07307">
        <ele>1157.6</ele>
        <time>2022-07-19T07:26:56Z</time>
      </trkpt>
      <trkpt lat="44.20002" lon="7.07298">
        <ele>1156.8</ele>
        <time>2022-07-19T07:26:57Z</time>
      </trkpt>
      <trkpt lat="44.19994" lon="7.07289">
        <ele>1155.8</ele>
        <time>2022-07-19T07:26:58Z</time>
      </trkpt>
      <trkpt lat="44.19986" lon="7.07279">
        <ele>1154.8</ele>
        <time>2022-07-19T07:26:59Z</time>
      </trkpt>
      <trkpt lat="44.19978" lon="7.07269">
        <ele>1153.8</ele>
        <time>2022-07-19T07:27:00Z</time>
      </trkpt>
      <trkpt lat="44.19972" lon="7.07256">
        <ele>1152.6</ele>
        <time>2022-07-19T07:27:01Z</time>
      </trkpt>
      <trkpt lat="44.19965" lon="7.07243">
        <ele>1151.4</ele>
        <time>2022-07-19T07:27:02Z</time>
      </trkpt>
      <trkpt lat="44.1996" lon="7.07229">
        <ele>1150.4</ele>
        <time>2022-07-19T07:27:03Z</time>
      </trkpt>
      <trkpt lat="44.19954" lon="7.07214">
        <ele>1149</ele>
        <time>2022-07-19T07:27:04Z</time>
      </trkpt>
      <trkpt lat="44.19949" lon="7.07199">
        <ele>1147.8</ele>
        <time>2022-07-19T07:27:05Z</time>
      </trkpt>
      <trkpt lat="44.19943" lon="7.07184">
        <ele>1146.4</ele>
        <time>2022-07-19T07:27:06Z</time>
      </trkpt>
      <trkpt lat="44.19938" lon="7.07169">
        <ele>1145.2</ele>
        <time>2022-07-19T07:27:07Z</time>
      </trkpt>
      <trkpt lat="44.19934" lon="7.07154">
        <ele>1143.8</ele>
        <time>2022-07-19T07:27:08Z</time>
      </trkpt>
      <trkpt lat="44.19932" lon="7.0714">
        <ele>1142.6</ele>
        <time>2022-07-19T07:27:09Z</time>
      </trkpt>
      <trkpt lat="44.1993" lon="7.07126">
        <ele>1141.4</ele>
        <time>2022-07-19T07:27:10Z</time>
      </trkpt>
      <trkpt lat="44.19928" lon="7.07114">
        <ele>1140.4</ele>
        <time>2022-07-19T07:27:11Z</time>
      </trkpt>
      <trkpt lat="44.19926" lon="7.07104">
        <ele>1139.4</ele>
        <time>2022-07-19T07:27:12Z</time>
      </trkpt>
      <trkpt lat="44.19923" lon="7.07095">
        <ele>1138.6</ele>
        <time>2022-07-19T07:27:13Z</time>
      </trkpt>
      <trkpt lat="44.19918" lon="7.07086">
        <ele>1137.4</ele>
        <time>2022-07-19T07:27:14Z</time>
      </trkpt>
      <trkpt lat="44.19909" lon="7.0708">
        <ele>1136.4</ele>
        <time>2022-07-19T07:27:15Z</time>
      </trkpt>
      <trkpt lat="44.19901" lon="7.07074">
        <ele>1135.4</ele>
        <time>2022-07-19T07:27:16Z</time>
      </trkpt>
      <trkpt lat="44.19892" lon="7.0707">
        <ele>1134.4</ele>
        <time>2022-07-19T07:27:17Z</time>
      </trkpt>
      <trkpt lat="44.19884" lon="7.07066">
        <ele>1133.6</ele>
        <time>2022-07-19T07:27:18Z</time>
      </trkpt>
      <trkpt lat="44.19876" lon="7.07063">
        <ele>1132.8</ele>
        <time>2022-07-19T07:27:19Z</time>
      </trkpt>
      <trkpt lat="44.1987" lon="7.0706">
        <ele>1132</ele>
        <time>2022-07-19T07:27:20Z</time>
      </trkpt>
      <trkpt lat="44.19867" lon="7.07056">
        <ele>1131.4</ele>
        <time>2022-07-19T07:27:21Z</time>
      </trkpt>
      <trkpt lat="44.19866" lon="7.07051">
        <ele>1130.8</ele>
        <time>2022-07-19T07:27:22Z</time>
      </trkpt>
      <trkpt lat="44.19867" lon="7.07047">
        <ele>1130.2</ele>
        <time>2022-07-19T07:27:23Z</time>
      </trkpt>
      <trkpt lat="44.19871" lon="7.07044">
        <ele>1130</ele>
        <time>2022-07-19T07:27:24Z</time>
      </trkpt>
      <trkpt lat="44.19876" lon="7.07044">
        <ele>1129.4</ele>
        <time>2022-07-19T07:27:25Z</time>
      </trkpt>
      <trkpt lat="44.19881" lon="7.07048">
        <ele>1129</ele>
        <time>2022-07-19T07:27:26Z</time>
      </trkpt>
      <trkpt lat="44.19886" lon="7.07055">
        <ele>1128.4</ele>
        <time>2022-07-19T07:27:27Z</time>
      </trkpt>
      <trkpt lat="44.19891" lon="7.0706">
        <ele>1127.8</ele>
        <time>2022-07-19T07:27:28Z</time>
      </trkpt>
      <trkpt lat="44.19896" lon="7.07063">
        <ele>1127.4</ele>
        <time>2022-07-19T07:27:29Z</time>
      </trkpt>
      <trkpt lat="44.19902" lon="7.07062">
        <ele>1127</ele>
        <time>2022-07-19T07:27:30Z</time>
      </trkpt>
      <trkpt lat="44.19907" lon="7.07058">
        <ele>1126.4</ele>
        <time>2022-07-19T07:27:31Z</time>
      </trkpt>
      <trkpt lat="44.19912" lon="7.07054">
        <ele>1126.2</ele>
        <time>2022-07-19T07:27:32Z</time>
      </trkpt>
      <trkpt lat="44.19914" lon="7.07049">
        <ele>1126</ele>
        <time>2022-07-19T07:27:33Z</time>
      </trkpt>
      <trkpt lat="44.19915" lon="7.07042">
        <ele>1125.6</ele>
        <time>2022-07-19T07:27:34Z</time>
      </trkpt>
      <trkpt lat="44.19914" lon="7.07033">
        <ele>1125.4</ele>
        <time>2022-07-19T07:27:35Z</time>
      </trkpt>
      <trkpt lat="44.19912" lon="7.07023">
        <ele>1125</ele>
        <time>2022-07-19T07:27:36Z</time>
      </trkpt>
      <trkpt lat="44.19909" lon="7.07013">
        <ele>1124.4</ele>
        <time>2022-07-19T07:27:37Z</time>
      </trkpt>
      <trkpt lat="44.19904" lon="7.07002">
        <ele>1124</ele>
        <time>2022-07-19T07:27:38Z</time>
      </trkpt>
      <trkpt lat="44.19899" lon="7.06992">
        <ele>1123.2</ele>
        <time>2022-07-19T07:27:39Z</time>
      </trkpt>
      <trkpt lat="44.19894" lon="7.06982">
        <ele>1122.4</ele>
        <time>2022-07-19T07:27:40Z</time>
      </trkpt>
      <trkpt lat="44.19887" lon="7.06973">
        <ele>1121.4</ele>
        <time>2022-07-19T07:27:41Z</time>
      </trkpt>
      <trkpt lat="44.1988" lon="7.06965">
        <ele>1120.4</ele>
        <time>2022-07-19T07:27:42Z</time>
      </trkpt>
      <trkpt lat="44.19871" lon="7.06959">
        <ele>1119.6</ele>
        <time>2022-07-19T07:27:43Z</time>
      </trkpt>
      <trkpt lat="44.19862" lon="7.06955">
        <ele>1118.6</ele>
        <time>2022-07-19T07:27:44Z</time>
      </trkpt>
      <trkpt lat="44.19854" lon="7.06954">
        <ele>1117.8</ele>
        <time>2022-07-19T07:27:45Z</time>
      </trkpt>
      <trkpt lat="44.19846" lon="7.06953">
        <ele>1117.2</ele>
        <time>2022-07-19T07:27:46Z</time>
      </trkpt>
      <trkpt lat="44.1984" lon="7.0695">
        <ele>1116.4</ele>
        <time>2022-07-19T07:27:47Z</time>
      </trkpt>
      <trkpt lat="44.19835" lon="7.06943">
        <ele>1115.8</ele>
        <time>2022-07-19T07:27:48Z</time>
      </trkpt>
      <trkpt lat="44.19831" lon="7.06933">
        <ele>1115.2</ele>
        <time>2022-07-19T07:27:49Z</time>
      </trkpt>
      <trkpt lat="44.19827" lon="7.06922">
        <ele>1114.6</ele>
        <time>2022-07-19T07:27:50Z</time>
      </trkpt>
      <trkpt lat="44.19823" lon="7.0691">
        <ele>1113.6</ele>
        <time>2022-07-19T07:27:51Z</time>
      </trkpt>
      <trkpt lat="44.19818" lon="7.06898">
        <ele>1112.8</ele>
        <time>2022-07-19T07:27:52Z</time>
      </trkpt>
      <trkpt lat="44.19812" lon="7.06886">
        <ele>1111.8</ele>
        <time>2022-07-19T07:27:53Z</time>
      </trkpt>
      <trkpt lat="44.19805" lon="7.06875">
        <ele>1110.8</ele>
        <time>2022-07-19T07:27:54Z</time>
      </trkpt>
      <trkpt lat="44.19798" lon="7.06865">
        <ele>1110</ele>
        <time>2022-07-19T07:27:55Z</time>
      </trkpt>
      <trkpt lat="44.19791" lon="7.06856">
        <ele>1109</ele>
        <time>2022-07-19T07:27:56Z</time>
      </trkpt>
      <trkpt lat="44.19785" lon="7.06848">
        <ele>1108</ele>
        <time>2022-07-19T07:27:57Z</time>
      </trkpt>
      <trkpt lat="44.19779" lon="7.06842">
        <ele>1107</ele>
        <time>2022-07-19T07:27:58Z</time>
      </trkpt>
      <trkpt lat="44.19773" lon="7.06836">
        <ele>1106</ele>
        <time>2022-07-19T07:27:59Z</time>
      </trkpt>
      <trkpt lat="44.19769" lon="7.06831">
        <ele>1105.2</ele>
        <time>2022-07-19T07:28:00Z</time>
      </trkpt>
      <trkpt lat="44.19766" lon="7.06826">
        <ele>1104.4</ele>
        <time>2022-07-19T07:28:01Z</time>
      </trkpt>
      <trkpt lat="44.19765" lon="7.06821">
        <ele>1103.8</ele>
        <time>2022-07-19T07:28:02Z</time>
      </trkpt>
      <trkpt lat="44.19767" lon="7.06817">
        <ele>1103.4</ele>
        <time>2022-07-19T07:28:03Z</time>
      </trkpt>
      <trkpt lat="44.19771" lon="7.06816">
        <ele>1102.8</ele>
        <time>2022-07-19T07:28:04Z</time>
      </trkpt>
      <trkpt lat="44.19777" lon="7.06818">
        <ele>1102.2</ele>
        <time>2022-07-19T07:28:05Z</time>
      </trkpt>
      <trkpt lat="44.19782" lon="7.06824">
        <ele>1101.8</ele>
        <time>2022-07-19T07:28:06Z</time>
      </trkpt>
      <trkpt lat="44.19787" lon="7.0683">
        <ele>1101.4</ele>
        <time>2022-07-19T07:28:07Z</time>
      </trkpt>
      <trkpt lat="44.19794" lon="7.06834">
        <ele>1101</ele>
        <time>2022-07-19T07:28:08Z</time>
      </trkpt>
      <trkpt lat="44.19801" lon="7.06834">
        <ele>1100.4</ele>
        <time>2022-07-19T07:28:09Z</time>
      </trkpt>
      <trkpt lat="44.19808" lon="7.06832">
        <ele>1100</ele>
        <time>2022-07-19T07:28:10Z</time>
      </trkpt>
      <trkpt lat="44.19814" lon="7.06828">
        <ele>1099.6</ele>
        <time>2022-07-19T07:28:11Z</time>
      </trkpt>
      <trkpt lat="44.19819" lon="7.06823">
        <ele>1099.2</ele>
        <time>2022-07-19T07:28:12Z</time>
      </trkpt>
      <trkpt lat="44.19822" lon="7.06817">
        <ele>1099</ele>
        <time>2022-07-19T07:28:13Z</time>
      </trkpt>
      <trkpt lat="44.19823" lon="7.06811">
        <ele>1098.6</ele>
        <time>2022-07-19T07:28:14Z</time>
      </trkpt>
      <trkpt lat="44.19821" lon="7.06803">
        <ele>1098.4</ele>
        <time>2022-07-19T07:28:15Z</time>
      </trkpt>
      <trkpt lat="44.19819" lon="7.06796">
        <ele>1098</ele>
        <time>2022-07-19T07:28:16Z</time>
      </trkpt>
      <trkpt lat="44.19815" lon="7.06788">
        <ele>1097.6</ele>
        <time>2022-07-19T07:28:17Z</time>
      </trkpt>
      <trkpt lat="44.1981" lon="7.06779">
        <ele>1097</ele>
        <time>2022-07-19T07:28:18Z</time>
      </trkpt>
      <trkpt lat="44.19805" lon="7.06771">
        <ele>1096.2</ele>
        <time>2022-07-19T07:28:19Z</time>
      </trkpt>
      <trkpt lat="44.19799" lon="7.06763">
        <ele>1095.4</ele>
        <time>2022-07-19T07:28:20Z</time>
      </trkpt>
      <trkpt lat="44.19792" lon="7.06753">
        <ele>1094.6</ele>
        <time>2022-07-19T07:28:21Z</time>
      </trkpt>
      <trkpt lat="44.19786" lon="7.06743">
        <ele>1093.6</ele>
        <time>2022-07-19T07:28:22Z</time>
      </trkpt>
      <trkpt lat="44.19779" lon="7.06731">
        <ele>1092.6</ele>
        <time>2022-07-19T07:28:23Z</time>
      </trkpt>
      <trkpt lat="44.19773" lon="7.06719">
        <ele>1091.6</ele>
        <time>2022-07-19T07:28:24Z</time>
      </trkpt>
      <trkpt lat="44.19765" lon="7.06706">
        <ele>1090.6</ele>
        <time>2022-07-19T07:28:25Z</time>
      </trkpt>
      <trkpt lat="44.19757" lon="7.06693">
        <ele>1089.4</ele>
        <time>2022-07-19T07:28:26Z</time>
      </trkpt>
      <trkpt lat="44.1975" lon="7.06681">
        <ele>1088.2</ele>
        <time>2022-07-19T07:28:27Z</time>
      </trkpt>
      <trkpt lat="44.19744" lon="7.06669">
        <ele>1087</ele>
        <time>2022-07-19T07:28:28Z</time>
      </trkpt>
      <trkpt lat="44.19739" lon="7.06655">
        <ele>1086</ele>
        <time>2022-07-19T07:28:29Z</time>
      </trkpt>
      <trkpt lat="44.19735" lon="7.06642">
        <ele>1084.8</ele>
        <time>2022-07-19T07:28:30Z</time>
      </trkpt>
      <trkpt lat="44.19733" lon="7.06627">
        <ele>1082.6</ele>
        <time>2022-07-19T07:28:32Z</time>
      </trkpt>
      <trkpt lat="44.1973" lon="7.06615">
        <ele>1081.6</ele>
        <time>2022-07-19T07:28:33Z</time>
      </trkpt>
      <trkpt lat="44.19729" lon="7.06602">
        <ele>1080.6</ele>
        <time>2022-07-19T07:28:34Z</time>
      </trkpt>
      <trkpt lat="44.19727" lon="7.06592">
        <ele>1080</ele>
        <time>2022-07-19T07:28:35Z</time>
      </trkpt>
      <trkpt lat="44.19725" lon="7.06585">
        <ele>1079.2</ele>
        <time>2022-07-19T07:28:36Z</time>
      </trkpt>
      <trkpt lat="44.19721" lon="7.06581">
        <ele>1078.6</ele>
        <time>2022-07-19T07:28:37Z</time>
      </trkpt>
      <trkpt lat="44.19717" lon="7.0658">
        <ele>1078</ele>
        <time>2022-07-19T07:28:38Z</time>
      </trkpt>
      <trkpt lat="44.19713" lon="7.06584">
        <ele>1077.4</ele>
        <time>2022-07-19T07:28:39Z</time>
      </trkpt>
      <trkpt lat="44.1971" lon="7.06589">
        <ele>1077</ele>
        <time>2022-07-19T07:28:40Z</time>
      </trkpt>
      <trkpt lat="44.1971" lon="7.06596">
        <ele>1076.6</ele>
        <time>2022-07-19T07:28:41Z</time>
      </trkpt>
      <trkpt lat="44.19712" lon="7.06604">
        <ele>1076.2</ele>
        <time>2022-07-19T07:28:42Z</time>
      </trkpt>
      <trkpt lat="44.19714" lon="7.06611">
        <ele>1075.8</ele>
        <time>2022-07-19T07:28:43Z</time>
      </trkpt>
      <trkpt lat="44.19721" lon="7.06625">
        <ele>1075.4</ele>
        <time>2022-07-19T07:28:44Z</time>
      </trkpt>
      <trkpt lat="44.19722" lon="7.06631">
        <ele>1075.2</ele>
        <time>2022-07-19T07:28:45Z</time>
      </trkpt>
      <trkpt lat="44.19721" lon="7.06636">
        <ele>1074.8</ele>
        <time>2022-07-19T07:28:46Z</time>
      </trkpt>
      <trkpt lat="44.19717" lon="7.06639">
        <ele>1074.4</ele>
        <time>2022-07-19T07:28:47Z</time>
      </trkpt>
      <trkpt lat="44.19712" lon="7.06638">
        <ele>1074</ele>
        <time>2022-07-19T07:28:48Z</time>
      </trkpt>
      <trkpt lat="44.19707" lon="7.06634">
        <ele>1073.6</ele>
        <time>2022-07-19T07:28:49Z</time>
      </trkpt>
      <trkpt lat="44.19701" lon="7.06626">
        <ele>1073</ele>
        <time>2022-07-19T07:28:50Z</time>
      </trkpt>
      <trkpt lat="44.19697" lon="7.06617">
        <ele>1072.4</ele>
        <time>2022-07-19T07:28:51Z</time>
      </trkpt>
      <trkpt lat="44.19693" lon="7.06607">
        <ele>1071.8</ele>
        <time>2022-07-19T07:28:52Z</time>
      </trkpt>
      <trkpt lat="44.19691" lon="7.06595">
        <ele>1071</ele>
        <time>2022-07-19T07:28:53Z</time>
      </trkpt>
      <trkpt lat="44.19691" lon="7.06582">
        <ele>1070</ele>
        <time>2022-07-19T07:28:54Z</time>
      </trkpt>
      <trkpt lat="44.19694" lon="7.06567">
        <ele>1069.2</ele>
        <time>2022-07-19T07:28:55Z</time>
      </trkpt>
      <trkpt lat="44.19697" lon="7.06552">
        <ele>1068.2</ele>
        <time>2022-07-19T07:28:56Z</time>
      </trkpt>
      <trkpt lat="44.19699" lon="7.06537">
        <ele>1067.2</ele>
        <time>2022-07-19T07:28:57Z</time>
      </trkpt>
      <trkpt lat="44.197" lon="7.06521">
        <ele>1066.2</ele>
        <time>2022-07-19T07:28:58Z</time>
      </trkpt>
      <trkpt lat="44.197" lon="7.06506">
        <ele>1065</ele>
        <time>2022-07-19T07:28:59Z</time>
      </trkpt>
      <trkpt lat="44.19699" lon="7.06491">
        <ele>1064</ele>
        <time>2022-07-19T07:29:00Z</time>
      </trkpt>
      <trkpt lat="44.19696" lon="7.06478">
        <ele>1063</ele>
        <time>2022-07-19T07:29:01Z</time>
      </trkpt>
      <trkpt lat="44.19691" lon="7.06465">
        <ele>1061.8</ele>
        <time>2022-07-19T07:29:02Z</time>
      </trkpt>
      <trkpt lat="44.19686" lon="7.06453">
        <ele>1060.8</ele>
        <time>2022-07-19T07:29:03Z</time>
      </trkpt>
      <trkpt lat="44.19681" lon="7.06441">
        <ele>1059.6</ele>
        <time>2022-07-19T07:29:04Z</time>
      </trkpt>
      <trkpt lat="44.19674" lon="7.06431">
        <ele>1058.6</ele>
        <time>2022-07-19T07:29:05Z</time>
      </trkpt>
      <trkpt lat="44.19667" lon="7.06421">
        <ele>1057.6</ele>
        <time>2022-07-19T07:29:06Z</time>
      </trkpt>
      <trkpt lat="44.19662" lon="7.06411">
        <ele>1056.6</ele>
        <time>2022-07-19T07:29:07Z</time>
      </trkpt>
      <trkpt lat="44.19657" lon="7.06399">
        <ele>1055.6</ele>
        <time>2022-07-19T07:29:08Z</time>
      </trkpt>
      <trkpt lat="44.19655" lon="7.06385">
        <ele>1054.6</ele>
        <time>2022-07-19T07:29:09Z</time>
      </trkpt>
      <trkpt lat="44.19653" lon="7.0637">
        <ele>1053.4</ele>
        <time>2022-07-19T07:29:10Z</time>
      </trkpt>
      <trkpt lat="44.19648" lon="7.06352">
        <ele>1052.2</ele>
        <time>2022-07-19T07:29:11Z</time>
      </trkpt>
      <trkpt lat="44.19643" lon="7.06335">
        <ele>1051</ele>
        <time>2022-07-19T07:29:12Z</time>
      </trkpt>
      <trkpt lat="44.19639" lon="7.06318">
        <ele>1049.8</ele>
        <time>2022-07-19T07:29:13Z</time>
      </trkpt>
      <trkpt lat="44.19636" lon="7.06302">
        <ele>1048.6</ele>
        <time>2022-07-19T07:29:14Z</time>
      </trkpt>
      <trkpt lat="44.19631" lon="7.06286">
        <ele>1047.4</ele>
        <time>2022-07-19T07:29:15Z</time>
      </trkpt>
      <trkpt lat="44.19626" lon="7.06272">
        <ele>1046.2</ele>
        <time>2022-07-19T07:29:16Z</time>
      </trkpt>
      <trkpt lat="44.19621" lon="7.06259">
        <ele>1045</ele>
        <time>2022-07-19T07:29:17Z</time>
      </trkpt>
      <trkpt lat="44.19615" lon="7.06247">
        <ele>1043.8</ele>
        <time>2022-07-19T07:29:18Z</time>
      </trkpt>
      <trkpt lat="44.19611" lon="7.06234">
        <ele>1042.8</ele>
        <time>2022-07-19T07:29:19Z</time>
      </trkpt>
      <trkpt lat="44.19608" lon="7.06223">
        <ele>1041.6</ele>
        <time>2022-07-19T07:29:20Z</time>
      </trkpt>
      <trkpt lat="44.19605" lon="7.06212">
        <ele>1040.6</ele>
        <time>2022-07-19T07:29:21Z</time>
      </trkpt>
      <trkpt lat="44.19603" lon="7.06201">
        <ele>1039.6</ele>
        <time>2022-07-19T07:29:22Z</time>
      </trkpt>
      <trkpt lat="44.196" lon="7.06192">
        <ele>1038.6</ele>
        <time>2022-07-19T07:29:23Z</time>
      </trkpt>
      <trkpt lat="44.19596" lon="7.06183">
        <ele>1037.8</ele>
        <time>2022-07-19T07:29:24Z</time>
      </trkpt>
      <trkpt lat="44.19593" lon="7.06175">
        <ele>1037</ele>
        <time>2022-07-19T07:29:25Z</time>
      </trkpt>
      <trkpt lat="44.19589" lon="7.06171">
        <ele>1036.4</ele>
        <time>2022-07-19T07:29:26Z</time>
      </trkpt>
      <trkpt lat="44.19586" lon="7.06171">
        <ele>1035.8</ele>
        <time>2022-07-19T07:29:27Z</time>
      </trkpt>
      <trkpt lat="44.19583" lon="7.06171">
        <ele>1035.2</ele>
        <time>2022-07-19T07:29:28Z</time>
      </trkpt>
      <trkpt lat="44.19581" lon="7.06173">
        <ele>1034.8</ele>
        <time>2022-07-19T07:29:29Z</time>
      </trkpt>
      <trkpt lat="44.19579" lon="7.06178">
        <ele>1034.2</ele>
        <time>2022-07-19T07:29:30Z</time>
      </trkpt>
      <trkpt lat="44.1958" lon="7.06186">
        <ele>1034</ele>
        <time>2022-07-19T07:29:31Z</time>
      </trkpt>
      <trkpt lat="44.19583" lon="7.06192">
        <ele>1033.6</ele>
        <time>2022-07-19T07:29:32Z</time>
      </trkpt>
      <trkpt lat="44.19587" lon="7.06197">
        <ele>1033.4</ele>
        <time>2022-07-19T07:29:33Z</time>
      </trkpt>
      <trkpt lat="44.1959" lon="7.06204">
        <ele>1033.4</ele>
        <time>2022-07-19T07:29:34Z</time>
      </trkpt>
      <trkpt lat="44.19591" lon="7.0621">
        <ele>1033</ele>
        <time>2022-07-19T07:29:35Z</time>
      </trkpt>
      <trkpt lat="44.1959" lon="7.06215">
        <ele>1032.6</ele>
        <time>2022-07-19T07:29:36Z</time>
      </trkpt>
      <trkpt lat="44.19586" lon="7.06216">
        <ele>1032.4</ele>
        <time>2022-07-19T07:29:37Z</time>
      </trkpt>
      <trkpt lat="44.19582" lon="7.06213">
        <ele>1032.2</ele>
        <time>2022-07-19T07:29:38Z</time>
      </trkpt>
      <trkpt lat="44.19578" lon="7.06208">
        <ele>1032</ele>
        <time>2022-07-19T07:29:39Z</time>
      </trkpt>
      <trkpt lat="44.19575" lon="7.06202">
        <ele>1031.6</ele>
        <time>2022-07-19T07:29:40Z</time>
      </trkpt>
      <trkpt lat="44.19572" lon="7.06194">
        <ele>1031.2</ele>
        <time>2022-07-19T07:29:41Z</time>
      </trkpt>
      <trkpt lat="44.19569" lon="7.06184">
        <ele>1030.8</ele>
        <time>2022-07-19T07:29:42Z</time>
      </trkpt>
      <trkpt lat="44.19566" lon="7.06174">
        <ele>1030.2</ele>
        <time>2022-07-19T07:29:43Z</time>
      </trkpt>
      <trkpt lat="44.19562" lon="7.06163">
        <ele>1029.4</ele>
        <time>2022-07-19T07:29:44Z</time>
      </trkpt>
      <trkpt lat="44.19557" lon="7.06151">
        <ele>1028.8</ele>
        <time>2022-07-19T07:29:45Z</time>
      </trkpt>
      <trkpt lat="44.19551" lon="7.06139">
        <ele>1028</ele>
        <time>2022-07-19T07:29:46Z</time>
      </trkpt>
      <trkpt lat="44.19544" lon="7.06127">
        <ele>1027</ele>
        <time>2022-07-19T07:29:47Z</time>
      </trkpt>
      <trkpt lat="44.19536" lon="7.06115">
        <ele>1026</ele>
        <time>2022-07-19T07:29:48Z</time>
      </trkpt>
      <trkpt lat="44.19527" lon="7.06104">
        <ele>1024.8</ele>
        <time>2022-07-19T07:29:49Z</time>
      </trkpt>
      <trkpt lat="44.19518" lon="7.06093">
        <ele>1023.8</ele>
        <time>2022-07-19T07:29:50Z</time>
      </trkpt>
      <trkpt lat="44.19506" lon="7.06086">
        <ele>1022.6</ele>
        <time>2022-07-19T07:29:51Z</time>
      </trkpt>
      <trkpt lat="44.19495" lon="7.06077">
        <ele>1021.4</ele>
        <time>2022-07-19T07:29:52Z</time>
      </trkpt>
      <trkpt lat="44.19484" lon="7.06068">
        <ele>1020</ele>
        <time>2022-07-19T07:29:53Z</time>
      </trkpt>
      <trkpt lat="44.19473" lon="7.06061">
        <ele>1018.8</ele>
        <time>2022-07-19T07:29:54Z</time>
      </trkpt>
      <trkpt lat="44.19462" lon="7.06055">
        <ele>1017.4</ele>
        <time>2022-07-19T07:29:55Z</time>
      </trkpt>
      <trkpt lat="44.19452" lon="7.0605">
        <ele>1016</ele>
        <time>2022-07-19T07:29:56Z</time>
      </trkpt>
      <trkpt lat="44.1944" lon="7.06048">
        <ele>1014.8</ele>
        <time>2022-07-19T07:29:57Z</time>
      </trkpt>
      <trkpt lat="44.19428" lon="7.06048">
        <ele>1013.6</ele>
        <time>2022-07-19T07:29:58Z</time>
      </trkpt>
      <trkpt lat="44.19417" lon="7.06049">
        <ele>1012.4</ele>
        <time>2022-07-19T07:29:59Z</time>
      </trkpt>
      <trkpt lat="44.19407" lon="7.0605">
        <ele>1011.2</ele>
        <time>2022-07-19T07:30:00Z</time>
      </trkpt>
      <trkpt lat="44.19396" lon="7.06051">
        <ele>1010</ele>
        <time>2022-07-19T07:30:01Z</time>
      </trkpt>
      <trkpt lat="44.19386" lon="7.0605">
        <ele>1008.8</ele>
        <time>2022-07-19T07:30:02Z</time>
      </trkpt>
      <trkpt lat="44.19375" lon="7.0605">
        <ele>1007.8</ele>
        <time>2022-07-19T07:30:03Z</time>
      </trkpt>
      <trkpt lat="44.19364" lon="7.06047">
        <ele>1006.8</ele>
        <time>2022-07-19T07:30:05Z</time>
      </trkpt>
      <trkpt lat="44.19354" lon="7.06043">
        <ele>1005.8</ele>
        <time>2022-07-19T07:30:06Z</time>
      </trkpt>
      <trkpt lat="44.19345" lon="7.06034">
        <ele>1004.8</ele>
        <time>2022-07-19T07:30:07Z</time>
      </trkpt>
      <trkpt lat="44.19336" lon="7.06024">
        <ele>1003.8</ele>
        <time>2022-07-19T07:30:08Z</time>
      </trkpt>
      <trkpt lat="44.19328" lon="7.06012">
        <ele>1002.6</ele>
        <time>2022-07-19T07:30:09Z</time>
      </trkpt>
      <trkpt lat="44.1932" lon="7.05999">
        <ele>1001.4</ele>
        <time>2022-07-19T07:30:10Z</time>
      </trkpt>
      <trkpt lat="44.19313" lon="7.05984">
        <ele>1000.2</ele>
        <time>2022-07-19T07:30:11Z</time>
      </trkpt>
      <trkpt lat="44.19305" lon="7.0597">
        <ele>998.8</ele>
        <time>2022-07-19T07:30:12Z</time>
      </trkpt>
      <trkpt lat="44.19298" lon="7.05956">
        <ele>997.6</ele>
        <time>2022-07-19T07:30:13Z</time>
      </trkpt>
      <trkpt lat="44.1929" lon="7.05943">
        <ele>996.2</ele>
        <time>2022-07-19T07:30:14Z</time>
      </trkpt>
      <trkpt lat="44.19282" lon="7.0593">
        <ele>993.4</ele>
        <time>2022-07-19T07:30:15Z</time>
      </trkpt>
      <trkpt lat="44.19271" lon="7.05919">
        <ele>992.2</ele>
        <time>2022-07-19T07:30:16Z</time>
      </trkpt>
      <trkpt lat="44.19261" lon="7.05909">
        <ele>991</ele>
        <time>2022-07-19T07:30:17Z</time>
      </trkpt>
      <trkpt lat="44.1925" lon="7.05901">
        <ele>989.8</ele>
        <time>2022-07-19T07:30:18Z</time>
      </trkpt>
      <trkpt lat="44.19238" lon="7.05893">
        <ele>988.4</ele>
        <time>2022-07-19T07:30:19Z</time>
      </trkpt>
      <trkpt lat="44.19227" lon="7.05886">
        <ele>987.2</ele>
        <time>2022-07-19T07:30:20Z</time>
      </trkpt>
      <trkpt lat="44.19215" lon="7.0588">
        <ele>986</ele>
        <time>2022-07-19T07:30:21Z</time>
      </trkpt>
      <trkpt lat="44.19204" lon="7.05874">
        <ele>984.8</ele>
        <time>2022-07-19T07:30:22Z</time>
      </trkpt>
      <trkpt lat="44.19194" lon="7.05869">
        <ele>983.6</ele>
        <time>2022-07-19T07:30:23Z</time>
      </trkpt>
      <trkpt lat="44.19185" lon="7.05863">
        <ele>982.4</ele>
        <time>2022-07-19T07:30:24Z</time>
      </trkpt>
      <trkpt lat="44.19176" lon="7.05855">
        <ele>981.2</ele>
        <time>2022-07-19T07:30:25Z</time>
      </trkpt>
      <trkpt lat="44.1917" lon="7.05843">
        <ele>979.8</ele>
        <time>2022-07-19T07:30:26Z</time>
      </trkpt>
      <trkpt lat="44.19163" lon="7.05828">
        <ele>978.6</ele>
        <time>2022-07-19T07:30:27Z</time>
      </trkpt>
      <trkpt lat="44.19156" lon="7.05813">
        <ele>977.2</ele>
        <time>2022-07-19T07:30:28Z</time>
      </trkpt>
      <trkpt lat="44.19149" lon="7.05799">
        <ele>976</ele>
        <time>2022-07-19T07:30:29Z</time>
      </trkpt>
      <trkpt lat="44.19142" lon="7.05784">
        <ele>974.6</ele>
        <time>2022-07-19T07:30:30Z</time>
      </trkpt>
      <trkpt lat="44.19136" lon="7.05765">
        <ele>973.2</ele>
        <time>2022-07-19T07:30:31Z</time>
      </trkpt>
      <trkpt lat="44.1913" lon="7.05747">
        <ele>971.6</ele>
        <time>2022-07-19T07:30:32Z</time>
      </trkpt>
      <trkpt lat="44.19124" lon="7.05729">
        <ele>970</ele>
        <time>2022-07-19T07:30:33Z</time>
      </trkpt>
      <trkpt lat="44.19113" lon="7.05704">
        <ele>968.6</ele>
        <time>2022-07-19T07:30:34Z</time>
      </trkpt>
      <trkpt lat="44.19109" lon="7.05696">
        <ele>967.2</ele>
        <time>2022-07-19T07:30:35Z</time>
      </trkpt>
      <trkpt lat="44.19101" lon="7.0568">
        <ele>965.8</ele>
        <time>2022-07-19T07:30:36Z</time>
      </trkpt>
      <trkpt lat="44.19092" lon="7.05666">
        <ele>964.4</ele>
        <time>2022-07-19T07:30:37Z</time>
      </trkpt>
      <trkpt lat="44.19083" lon="7.05652">
        <ele>963</ele>
        <time>2022-07-19T07:30:38Z</time>
      </trkpt>
      <trkpt lat="44.19072" lon="7.0564">
        <ele>961.8</ele>
        <time>2022-07-19T07:30:39Z</time>
      </trkpt>
      <trkpt lat="44.19061" lon="7.0563">
        <ele>960.2</ele>
        <time>2022-07-19T07:30:40Z</time>
      </trkpt>
      <trkpt lat="44.19048" lon="7.0562">
        <ele>958.8</ele>
        <time>2022-07-19T07:30:41Z</time>
      </trkpt>
      <trkpt lat="44.19037" lon="7.05607">
        <ele>957.4</ele>
        <time>2022-07-19T07:30:42Z</time>
      </trkpt>
      <trkpt lat="44.19026" lon="7.05595">
        <ele>956</ele>
        <time>2022-07-19T07:30:43Z</time>
      </trkpt>
      <trkpt lat="44.19016" lon="7.0558">
        <ele>954.6</ele>
        <time>2022-07-19T07:30:44Z</time>
      </trkpt>
      <trkpt lat="44.19006" lon="7.05568">
        <ele>953.2</ele>
        <time>2022-07-19T07:30:45Z</time>
      </trkpt>
      <trkpt lat="44.18997" lon="7.05557">
        <ele>952</ele>
        <time>2022-07-19T07:30:46Z</time>
      </trkpt>
      <trkpt lat="44.18989" lon="7.05547">
        <ele>950.6</ele>
        <time>2022-07-19T07:30:47Z</time>
      </trkpt>
      <trkpt lat="44.18981" lon="7.05536">
        <ele>949.2</ele>
        <time>2022-07-19T07:30:48Z</time>
      </trkpt>
      <trkpt lat="44.18973" lon="7.05524">
        <ele>948</ele>
        <time>2022-07-19T07:30:49Z</time>
      </trkpt>
      <trkpt lat="44.18965" lon="7.05509">
        <ele>946.6</ele>
        <time>2022-07-19T07:30:50Z</time>
      </trkpt>
      <trkpt lat="44.18958" lon="7.05494">
        <ele>945.4</ele>
        <time>2022-07-19T07:30:51Z</time>
      </trkpt>
      <trkpt lat="44.18951" lon="7.05477">
        <ele>944.2</ele>
        <time>2022-07-19T07:30:52Z</time>
      </trkpt>
      <trkpt lat="44.18944" lon="7.05462">
        <ele>942.8</ele>
        <time>2022-07-19T07:30:53Z</time>
      </trkpt>
      <trkpt lat="44.18936" lon="7.05446">
        <ele>941.6</ele>
        <time>2022-07-19T07:30:54Z</time>
      </trkpt>
      <trkpt lat="44.18929" lon="7.05432">
        <ele>940.2</ele>
        <time>2022-07-19T07:30:55Z</time>
      </trkpt>
      <trkpt lat="44.18922" lon="7.05419">
        <ele>939</ele>
        <time>2022-07-19T07:30:56Z</time>
      </trkpt>
      <trkpt lat="44.18914" lon="7.05407">
        <ele>937.6</ele>
        <time>2022-07-19T07:30:57Z</time>
      </trkpt>
      <trkpt lat="44.18907" lon="7.05394">
        <ele>936.4</ele>
        <time>2022-07-19T07:30:58Z</time>
      </trkpt>
      <trkpt lat="44.18899" lon="7.05381">
        <ele>935</ele>
        <time>2022-07-19T07:30:59Z</time>
      </trkpt>
      <trkpt lat="44.1889" lon="7.0537">
        <ele>933.8</ele>
        <time>2022-07-19T07:31:00Z</time>
      </trkpt>
      <trkpt lat="44.18881" lon="7.0536">
        <ele>932.6</ele>
        <time>2022-07-19T07:31:01Z</time>
      </trkpt>
      <trkpt lat="44.18872" lon="7.05351">
        <ele>931.2</ele>
        <time>2022-07-19T07:31:02Z</time>
      </trkpt>
      <trkpt lat="44.18863" lon="7.05343">
        <ele>930</ele>
        <time>2022-07-19T07:31:03Z</time>
      </trkpt>
      <trkpt lat="44.18852" lon="7.05336">
        <ele>928.8</ele>
        <time>2022-07-19T07:31:04Z</time>
      </trkpt>
      <trkpt lat="44.18841" lon="7.05332">
        <ele>927.8</ele>
        <time>2022-07-19T07:31:05Z</time>
      </trkpt>
      <trkpt lat="44.1883" lon="7.05328">
        <ele>926.8</ele>
        <time>2022-07-19T07:31:06Z</time>
      </trkpt>
      <trkpt lat="44.1882" lon="7.05324">
        <ele>926</ele>
        <time>2022-07-19T07:31:07Z</time>
      </trkpt>
      <trkpt lat="44.1881" lon="7.05319">
        <ele>925.2</ele>
        <time>2022-07-19T07:31:08Z</time>
      </trkpt>
      <trkpt lat="44.188" lon="7.05314">
        <ele>924.6</ele>
        <time>2022-07-19T07:31:09Z</time>
      </trkpt>
      <trkpt lat="44.18792" lon="7.05307">
        <ele>924</ele>
        <time>2022-07-19T07:31:10Z</time>
      </trkpt>
      <trkpt lat="44.18784" lon="7.05299">
        <ele>923.6</ele>
        <time>2022-07-19T07:31:11Z</time>
      </trkpt>
      <trkpt lat="44.18778" lon="7.0529">
        <ele>923</ele>
        <time>2022-07-19T07:31:12Z</time>
      </trkpt>
      <trkpt lat="44.18771" lon="7.05281">
        <ele>922.2</ele>
        <time>2022-07-19T07:31:13Z</time>
      </trkpt>
      <trkpt lat="44.18766" lon="7.0527">
        <ele>921.4</ele>
        <time>2022-07-19T07:31:14Z</time>
      </trkpt>
      <trkpt lat="44.1876" lon="7.05257">
        <ele>920.6</ele>
        <time>2022-07-19T07:31:15Z</time>
      </trkpt>
      <trkpt lat="44.1875" lon="7.0523">
        <ele>919.6</ele>
        <time>2022-07-19T07:31:16Z</time>
      </trkpt>
      <trkpt lat="44.18744" lon="7.05215">
        <ele>918.4</ele>
        <time>2022-07-19T07:31:17Z</time>
      </trkpt>
      <trkpt lat="44.18739" lon="7.05201">
        <ele>917.2</ele>
        <time>2022-07-19T07:31:18Z</time>
      </trkpt>
      <trkpt lat="44.18734" lon="7.05188">
        <ele>916</ele>
        <time>2022-07-19T07:31:19Z</time>
      </trkpt>
      <trkpt lat="44.18729" lon="7.05175">
        <ele>914.6</ele>
        <time>2022-07-19T07:31:20Z</time>
      </trkpt>
      <trkpt lat="44.18724" lon="7.05163">
        <ele>913.4</ele>
        <time>2022-07-19T07:31:21Z</time>
      </trkpt>
      <trkpt lat="44.18721" lon="7.05151">
        <ele>912.4</ele>
        <time>2022-07-19T07:31:22Z</time>
      </trkpt>
      <trkpt lat="44.18719" lon="7.0514">
        <ele>911.4</ele>
        <time>2022-07-19T07:31:23Z</time>
      </trkpt>
      <trkpt lat="44.18719" lon="7.0513">
        <ele>910.6</ele>
        <time>2022-07-19T07:31:24Z</time>
      </trkpt>
      <trkpt lat="44.18719" lon="7.05121">
        <ele>909.8</ele>
        <time>2022-07-19T07:31:25Z</time>
      </trkpt>
      <trkpt lat="44.18719" lon="7.05115">
        <ele>909.2</ele>
        <time>2022-07-19T07:31:26Z</time>
      </trkpt>
      <trkpt lat="44.18718" lon="7.0511">
        <ele>908.6</ele>
        <time>2022-07-19T07:31:27Z</time>
      </trkpt>
      <trkpt lat="44.18715" lon="7.05106">
        <ele>908</ele>
        <time>2022-07-19T07:31:28Z</time>
      </trkpt>
      <trkpt lat="44.18712" lon="7.05109">
        <ele>907.6</ele>
        <time>2022-07-19T07:31:29Z</time>
      </trkpt>
      <trkpt lat="44.1871" lon="7.05113">
        <ele>907.2</ele>
        <time>2022-07-19T07:31:30Z</time>
      </trkpt>
      <trkpt lat="44.18708" lon="7.0512">
        <ele>906.8</ele>
        <time>2022-07-19T07:31:31Z</time>
      </trkpt>
      <trkpt lat="44.18709" lon="7.05129">
        <ele>906.6</ele>
        <time>2022-07-19T07:31:32Z</time>
      </trkpt>
      <trkpt lat="44.1871" lon="7.05138">
        <ele>906.2</ele>
        <time>2022-07-19T07:31:33Z</time>
      </trkpt>
      <trkpt lat="44.18712" lon="7.05148">
        <ele>905.6</ele>
        <time>2022-07-19T07:31:34Z</time>
      </trkpt>
      <trkpt lat="44.18713" lon="7.05158">
        <ele>905</ele>
        <time>2022-07-19T07:31:35Z</time>
      </trkpt>
      <trkpt lat="44.18713" lon="7.0517">
        <ele>904.2</ele>
        <time>2022-07-19T07:31:36Z</time>
      </trkpt>
      <trkpt lat="44.18714" lon="7.05183">
        <ele>903.4</ele>
        <time>2022-07-19T07:31:37Z</time>
      </trkpt>
      <trkpt lat="44.18716" lon="7.05196">
        <ele>902.6</ele>
        <time>2022-07-19T07:31:38Z</time>
      </trkpt>
      <trkpt lat="44.18719" lon="7.05209">
        <ele>901.6</ele>
        <time>2022-07-19T07:31:39Z</time>
      </trkpt>
      <trkpt lat="44.18721" lon="7.05223">
        <ele>900.6</ele>
        <time>2022-07-19T07:31:40Z</time>
      </trkpt>
      <trkpt lat="44.18723" lon="7.05238">
        <ele>899.4</ele>
        <time>2022-07-19T07:31:41Z</time>
      </trkpt>
      <trkpt lat="44.18724" lon="7.05253">
        <ele>897.2</ele>
        <time>2022-07-19T07:31:43Z</time>
      </trkpt>
      <trkpt lat="44.18725" lon="7.05267">
        <ele>896</ele>
        <time>2022-07-19T07:31:44Z</time>
      </trkpt>
      <trkpt lat="44.18725" lon="7.0528">
        <ele>895</ele>
        <time>2022-07-19T07:31:45Z</time>
      </trkpt>
      <trkpt lat="44.18726" lon="7.05293">
        <ele>894</ele>
        <time>2022-07-19T07:31:46Z</time>
      </trkpt>
      <trkpt lat="44.18728" lon="7.05304">
        <ele>893.2</ele>
        <time>2022-07-19T07:31:47Z</time>
      </trkpt>
      <trkpt lat="44.18731" lon="7.05314">
        <ele>892.2</ele>
        <time>2022-07-19T07:31:48Z</time>
      </trkpt>
      <trkpt lat="44.18735" lon="7.05323">
        <ele>891.4</ele>
        <time>2022-07-19T07:31:49Z</time>
      </trkpt>
      <trkpt lat="44.18738" lon="7.0533">
        <ele>890.6</ele>
        <time>2022-07-19T07:31:50Z</time>
      </trkpt>
      <trkpt lat="44.18742" lon="7.05336">
        <ele>890</ele>
        <time>2022-07-19T07:31:51Z</time>
      </trkpt>
      <trkpt lat="44.18745" lon="7.05341">
        <ele>889.4</ele>
        <time>2022-07-19T07:31:52Z</time>
      </trkpt>
      <trkpt lat="44.18745" lon="7.05346">
        <ele>888.8</ele>
        <time>2022-07-19T07:31:53Z</time>
      </trkpt>
      <trkpt lat="44.18743" lon="7.0535">
        <ele>888.2</ele>
        <time>2022-07-19T07:31:54Z</time>
      </trkpt>
      <trkpt lat="44.1874" lon="7.05353">
        <ele>887.8</ele>
        <time>2022-07-19T07:31:55Z</time>
      </trkpt>
      <trkpt lat="44.18735" lon="7.05355">
        <ele>887.2</ele>
        <time>2022-07-19T07:31:56Z</time>
      </trkpt>
      <trkpt lat="44.18729" lon="7.05355">
        <ele>886.6</ele>
        <time>2022-07-19T07:31:57Z</time>
      </trkpt>
      <trkpt lat="44.18723" lon="7.05354">
        <ele>886</ele>
        <time>2022-07-19T07:31:58Z</time>
      </trkpt>
      <trkpt lat="44.18716" lon="7.05353">
        <ele>885.2</ele>
        <time>2022-07-19T07:31:59Z</time>
      </trkpt>
      <trkpt lat="44.18709" lon="7.05352">
        <ele>884.6</ele>
        <time>2022-07-19T07:32:00Z</time>
      </trkpt>
      <trkpt lat="44.18701" lon="7.05351">
        <ele>883.6</ele>
        <time>2022-07-19T07:32:01Z</time>
      </trkpt>
      <trkpt lat="44.18694" lon="7.05349">
        <ele>882.8</ele>
        <time>2022-07-19T07:32:02Z</time>
      </trkpt>
      <trkpt lat="44.18687" lon="7.05348">
        <ele>882</ele>
        <time>2022-07-19T07:32:03Z</time>
      </trkpt>
      <trkpt lat="44.1868" lon="7.05345">
        <ele>881.2</ele>
        <time>2022-07-19T07:32:04Z</time>
      </trkpt>
      <trkpt lat="44.18674" lon="7.05341">
        <ele>880.4</ele>
        <time>2022-07-19T07:32:05Z</time>
      </trkpt>
      <trkpt lat="44.18667" lon="7.05336">
        <ele>879.4</ele>
        <time>2022-07-19T07:32:06Z</time>
      </trkpt>
      <trkpt lat="44.1866" lon="7.05331">
        <ele>878.6</ele>
        <time>2022-07-19T07:32:07Z</time>
      </trkpt>
      <trkpt lat="44.18653" lon="7.05327">
        <ele>877.6</ele>
        <time>2022-07-19T07:32:08Z</time>
      </trkpt>
      <trkpt lat="44.18647" lon="7.05325">
        <ele>876.8</ele>
        <time>2022-07-19T07:32:09Z</time>
      </trkpt>
      <trkpt lat="44.18641" lon="7.05324">
        <ele>876</ele>
        <time>2022-07-19T07:32:10Z</time>
      </trkpt>
      <trkpt lat="44.18635" lon="7.05324">
        <ele>875.4</ele>
        <time>2022-07-19T07:32:11Z</time>
      </trkpt>
      <trkpt lat="44.18631" lon="7.05323">
        <ele>875</ele>
        <time>2022-07-19T07:32:12Z</time>
      </trkpt>
      <trkpt lat="44.18628" lon="7.05322">
        <ele>874.6</ele>
        <time>2022-07-19T07:32:13Z</time>
      </trkpt>
      <trkpt lat="44.18626" lon="7.05321">
        <ele>874.4</ele>
        <time>2022-07-19T07:32:14Z</time>
      </trkpt>
      <trkpt lat="44.18624" lon="7.05319">
        <ele>874</ele>
        <time>2022-07-19T07:32:15Z</time>
      </trkpt>
      <trkpt lat="44.18622" lon="7.05316">
        <ele>874</ele>
        <time>2022-07-19T07:32:16Z</time>
      </trkpt>
      <trkpt lat="44.18621" lon="7.05313">
        <ele>873.8</ele>
        <time>2022-07-19T07:32:17Z</time>
      </trkpt>
      <trkpt lat="44.18621" lon="7.05309">
        <ele>873.8</ele>
        <time>2022-07-19T07:32:18Z</time>
      </trkpt>
      <trkpt lat="44.18621" lon="7.05304">
        <ele>873.4</ele>
        <time>2022-07-19T07:32:19Z</time>
      </trkpt>
      <trkpt lat="44.18622" lon="7.05301">
        <ele>873.4</ele>
        <time>2022-07-19T07:32:20Z</time>
      </trkpt>
      <trkpt lat="44.18623" lon="7.05297">
        <ele>873.4</ele>
        <time>2022-07-19T07:32:21Z</time>
      </trkpt>
      <trkpt lat="44.18625" lon="7.05293">
        <ele>873.4</ele>
        <time>2022-07-19T07:32:22Z</time>
      </trkpt>
      <trkpt lat="44.18626" lon="7.0529">
        <ele>873.2</ele>
        <time>2022-07-19T07:32:23Z</time>
      </trkpt>
      <trkpt lat="44.18628" lon="7.05287">
        <ele>873.2</ele>
        <time>2022-07-19T07:32:24Z</time>
      </trkpt>
      <trkpt lat="44.18629" lon="7.05284">
        <ele>873.2</ele>
        <time>2022-07-19T07:32:25Z</time>
      </trkpt>
      <trkpt lat="44.1863" lon="7.0528">
        <ele>873.2</ele>
        <time>2022-07-19T07:32:26Z</time>
      </trkpt>
      <trkpt lat="44.18631" lon="7.05277">
        <ele>873.2</ele>
        <time>2022-07-19T07:32:27Z</time>
      </trkpt>
      <trkpt lat="44.18633" lon="7.05275">
        <ele>873.2</ele>
        <time>2022-07-19T07:32:28Z</time>
      </trkpt>
      <trkpt lat="44.18634" lon="7.05272">
        <ele>873.2</ele>
        <time>2022-07-19T07:32:29Z</time>
      </trkpt>
      <trkpt lat="44.18634" lon="7.05269">
        <ele>873.2</ele>
        <time>2022-07-19T07:32:30Z</time>
      </trkpt>
      <trkpt lat="44.18634" lon="7.05269">
        <ele>873.2</ele>
        <time>2022-07-19T07:32:32Z</time>
      </trkpt>
      <trkpt lat="44.18634" lon="7.05269">
        <ele>873.2</ele>
        <time>2022-07-19T07:32:35Z</time>
      </trkpt>
      <trkpt lat="44.18634" lon="7.05269">
        <ele>873.2</ele>
        <time>2022-07-19T07:32:39Z</time>
      </trkpt>
      <trkpt lat="44.18635" lon="7.05269">
        <ele>873.2</ele>
        <time>2022-07-19T07:32:49Z</time>
      </trkpt>
      <trkpt lat="44.18635" lon="7.05269">
        <ele>873.2</ele>
        <time>2022-07-19T07:32:52Z</time>
      </trkpt>
      <trkpt lat="44.18635" lon="7.05269">
        <ele>873.2</ele>
        <time>2022-07-19T07:32:56Z</time>
      </trkpt>
      <trkpt lat="44.18635" lon="7.05269">
        <ele>873</ele>
        <time>2022-07-19T07:32:57Z</time>
      </trkpt>
      <trkpt lat="44.18635" lon="7.05269">
        <ele>873</ele>
        <time>2022-07-19T07:33:01Z</time>
      </trkpt>
      <trkpt lat="44.18635" lon="7.05269">
        <ele>873</ele>
        <time>2022-07-19T07:33:05Z</time>
      </trkpt>
      <trkpt lat="44.18635" lon="7.05269">
        <ele>873</ele>
        <time>2022-07-19T07:33:06Z</time>
      </trkpt>
      <trkpt lat="44.18635" lon="7.05269">
        <ele>873.2</ele>
        <time>2022-07-19T07:33:12Z</time>
      </trkpt>
      <trkpt lat="44.18635" lon="7.05269">
        <ele>873.2</ele>
        <time>2022-07-19T07:33:15Z</time>
      </trkpt>
      <trkpt lat="44.18635" lon="7.05269">
        <ele>873.2</ele>
        <time>2022-07-19T07:33:17Z</time>
      </trkpt>
      <trkpt lat="44.18635" lon="7.05269">
        <ele>873.2</ele>
        <time>2022-07-19T07:33:20Z</time>
      </trkpt>
      <trkpt lat="44.18635" lon="7.05269">
        <ele>873.2</ele>
        <time>2022-07-19T07:33:24Z</time>
      </trkpt>
      <trkpt lat="44.18635" lon="7.05269">
        <ele>873.2</ele>
        <time>2022-07-19T07:33:26Z</time>
      </trkpt>
      <trkpt lat="44.18635" lon="7.05269">
        <ele>873.2</ele>
        <time>2022-07-19T07:33:29Z</time>
      </trkpt>
      <trkpt lat="44.18635" lon="7.05269">
        <ele>873.2</ele>
        <time>2022-07-19T07:33:33Z</time>
      </trkpt>
      <trkpt lat="44.18635" lon="7.05269">
        <ele>873.2</ele>
        <time>2022-07-19T07:33:35Z</time>
      </trkpt>
      <trkpt lat="44.18635" lon="7.05269">
        <ele>873.2</ele>
        <time>2022-07-19T07:33:43Z</time>
      </trkpt>
      <trkpt lat="44.18635" lon="7.05269">
        <ele>873.2</ele>
        <time>2022-07-19T07:33:49Z</time>
      </trkpt>
      <trkpt lat="44.18635" lon="7.05269">
        <ele>873</ele>
        <time>2022-07-19T07:33:56Z</time>
      </trkpt>
      <trkpt lat="44.18635" lon="7.05269">
        <ele>873</ele>
        <time>2022-07-19T07:34:01Z</time>
      </trkpt>
      <trkpt lat="44.18635" lon="7.05269">
        <ele>873.2</ele>
        <time>2022-07-19T07:34:05Z</time>
      </trkpt>
      <trkpt lat="44.18635" lon="7.05269">
        <ele>873.2</ele>
        <time>2022-07-19T07:34:07Z</time>
      </trkpt>
      <trkpt lat="44.18635" lon="7.05269">
        <ele>873.2</ele>
        <time>2022-07-19T07:34:13Z</time>
      </trkpt>
      <trkpt lat="44.18635" lon="7.05269">
        <ele>873.2</ele>
        <time>2022-07-19T07:34:14Z</time>
      </trkpt>
      <trkpt lat="44.18635" lon="7.05269">
        <ele>873.2</ele>
        <time>2022-07-19T07:34:25Z</time>
      </trkpt>
      <trkpt lat="44.18635" lon="7.05269">
        <ele>873.2</ele>
        <time>2022-07-19T07:34:26Z</time>
      </trkpt>
      <trkpt lat="44.18635" lon="7.05269">
        <ele>873.2</ele>
        <time>2022-07-19T07:34:30Z</time>
      </trkpt>
      <trkpt lat="44.18635" lon="7.05269">
        <ele>873.2</ele>
        <time>2022-07-19T07:34:34Z</time>
      </trkpt>
      <trkpt lat="44.18635" lon="7.05269">
        <ele>873.2</ele>
        <time>2022-07-19T07:34:35Z</time>
      </trkpt>
      <trkpt lat="44.18635" lon="7.05269">
        <ele>873.2</ele>
        <time>2022-07-19T07:34:40Z</time>
      </trkpt>
      <trkpt lat="44.18636" lon="7.05269">
        <ele>873.2</ele>
        <time>2022-07-19T07:35:09Z</time>
      </trkpt>
      <trkpt lat="44.18636" lon="7.05269">
        <ele>873.2</ele>
        <time>2022-07-19T07:35:12Z</time>
      </trkpt>
      <trkpt lat="44.18636" lon="7.05269">
        <ele>873.2</ele>
        <time>2022-07-19T07:35:16Z</time>
      </trkpt>
      <trkpt lat="44.18636" lon="7.05269">
        <ele>873.2</ele>
        <time>2022-07-19T07:35:27Z</time>
      </trkpt>
      <trkpt lat="44.18636" lon="7.05269">
        <ele>873.2</ele>
        <time>2022-07-19T07:35:28Z</time>
      </trkpt>
      <trkpt lat="44.18636" lon="7.05269">
        <ele>873.2</ele>
        <time>2022-07-19T07:35:32Z</time>
      </trkpt>
      <trkpt lat="44.18636" lon="7.05269">
        <ele>873.2</ele>
        <time>2022-07-19T07:35:37Z</time>
      </trkpt>
      <trkpt lat="44.18636" lon="7.0527">
        <ele>873</ele>
        <time>2022-07-19T07:35:38Z</time>
      </trkpt>
      <trkpt lat="44.18636" lon="7.0527">
        <ele>873</ele>
        <time>2022-07-19T07:35:45Z</time>
      </trkpt>
      <trkpt lat="44.18636" lon="7.0527">
        <ele>873</ele>
        <time>2022-07-19T07:35:49Z</time>
      </trkpt>
      <trkpt lat="44.18636" lon="7.0527">
        <ele>873</ele>
        <time>2022-07-19T07:35:50Z</time>
      </trkpt>
      <trkpt lat="44.18636" lon="7.0527">
        <ele>873.2</ele>
        <time>2022-07-19T07:36:22Z</time>
      </trkpt>
      <trkpt lat="44.18636" lon="7.0527">
        <ele>873.2</ele>
        <time>2022-07-19T07:36:26Z</time>
      </trkpt>
      <trkpt lat="44.18636" lon="7.0527">
        <ele>873.2</ele>
        <time>2022-07-19T07:36:27Z</time>
      </trkpt>
      <trkpt lat="44.18636" lon="7.0527">
        <ele>873.2</ele>
        <time>2022-07-19T07:36:34Z</time>
      </trkpt>
      <trkpt lat="44.18636" lon="7.0527">
        <ele>873.2</ele>
        <time>2022-07-19T07:36:38Z</time>
      </trkpt>
      <trkpt lat="44.18636" lon="7.0527">
        <ele>873.2</ele>
        <time>2022-07-19T07:36:39Z</time>
      </trkpt>
      <trkpt lat="44.18636" lon="7.0527">
        <ele>873.2</ele>
        <time>2022-07-19T07:36:43Z</time>
      </trkpt>
      <trkpt lat="44.18636" lon="7.0527">
        <ele>873.2</ele>
        <time>2022-07-19T07:36:47Z</time>
      </trkpt>
      <trkpt lat="44.18636" lon="7.0527">
        <ele>873.2</ele>
        <time>2022-07-19T07:36:48Z</time>
      </trkpt>
      <trkpt lat="44.18636" lon="7.0527">
        <ele>873.2</ele>
        <time>2022-07-19T07:36:52Z</time>
      </trkpt>
      <trkpt lat="44.18636" lon="7.0527">
        <ele>873.2</ele>
        <time>2022-07-19T07:36:54Z</time>
      </trkpt>
      <trkpt lat="44.18636" lon="7.0527">
        <ele>873.2</ele>
        <time>2022-07-19T07:36:56Z</time>
      </trkpt>
      <trkpt lat="44.18636" lon="7.0527">
        <ele>873.2</ele>
        <time>2022-07-19T07:36:58Z</time>
      </trkpt>
      <trkpt lat="44.18636" lon="7.0527">
        <ele>873.2</ele>
        <time>2022-07-19T07:37:02Z</time>
      </trkpt>
      <trkpt lat="44.18636" lon="7.0527">
        <ele>873.2</ele>
        <time>2022-07-19T07:37:05Z</time>
      </trkpt>
      <trkpt lat="44.18636" lon="7.0527">
        <ele>873.2</ele>
        <time>2022-07-19T07:37:07Z</time>
      </trkpt>
      <trkpt lat="44.18636" lon="7.0527">
        <ele>873.2</ele>
        <time>2022-07-19T07:37:35Z</time>
      </trkpt>
      <trkpt lat="44.18636" lon="7.0527">
        <ele>873.2</ele>
        <time>2022-07-19T07:37:37Z</time>
      </trkpt>
      <trkpt lat="44.18636" lon="7.0527">
        <ele>873.2</ele>
        <time>2022-07-19T07:37:40Z</time>
      </trkpt>
      <trkpt lat="44.18636" lon="7.0527">
        <ele>873.2</ele>
        <time>2022-07-19T07:38:19Z</time>
      </trkpt>
      <trkpt lat="44.18637" lon="7.0527">
        <ele>873.2</ele>
        <time>2022-07-19T07:38:21Z</time>
      </trkpt>
      <trkpt lat="44.18637" lon="7.0527">
        <ele>873.2</ele>
        <time>2022-07-19T07:38:24Z</time>
      </trkpt>
      <trkpt lat="44.18637" lon="7.0527">
        <ele>873.2</ele>
        <time>2022-07-19T07:38:43Z</time>
      </trkpt>
      <trkpt lat="44.18637" lon="7.0527">
        <ele>873.2</ele>
        <time>2022-07-19T07:38:45Z</time>
      </trkpt>
      <trkpt lat="44.18637" lon="7.0527">
        <ele>873.2</ele>
        <time>2022-07-19T07:38:48Z</time>
      </trkpt>
      <trkpt lat="44.18637" lon="7.0527">
        <ele>873.2</ele>
        <time>2022-07-19T07:38:51Z</time>
      </trkpt>
      <trkpt lat="44.18637" lon="7.0527">
        <ele>873.2</ele>
        <time>2022-07-19T07:39:04Z</time>
      </trkpt>
      <trkpt lat="44.18637" lon="7.0527">
        <ele>873.2</ele>
        <time>2022-07-19T07:39:05Z</time>
      </trkpt>
      <trkpt lat="44.18637" lon="7.0527">
        <ele>873.2</ele>
        <time>2022-07-19T07:39:10Z</time>
      </trkpt>
      <trkpt lat="44.18637" lon="7.0527">
        <ele>873.2</ele>
        <time>2022-07-19T07:39:16Z</time>
      </trkpt>
      <trkpt lat="44.18637" lon="7.0527">
        <ele>873.2</ele>
        <time>2022-07-19T07:39:17Z</time>
      </trkpt>
      <trkpt lat="44.18637" lon="7.0527">
        <ele>873.2</ele>
        <time>2022-07-19T07:39:23Z</time>
      </trkpt>
      <trkpt lat="44.18637" lon="7.0527">
        <ele>873.2</ele>
        <time>2022-07-19T07:39:27Z</time>
      </trkpt>
      <trkpt lat="44.18637" lon="7.0527">
        <ele>873.2</ele>
        <time>2022-07-19T07:39:28Z</time>
      </trkpt>
      <trkpt lat="44.18637" lon="7.0527">
        <ele>873.2</ele>
        <time>2022-07-19T07:39:37Z</time>
      </trkpt>
      <trkpt lat="44.18637" lon="7.0527">
        <ele>873.2</ele>
        <time>2022-07-19T07:39:41Z</time>
      </trkpt>
      <trkpt lat="44.18637" lon="7.0527">
        <ele>873.2</ele>
        <time>2022-07-19T07:39:42Z</time>
      </trkpt>
      <trkpt lat="44.18637" lon="7.0527">
        <ele>873.2</ele>
        <time>2022-07-19T07:39:48Z</time>
      </trkpt>
      <trkpt lat="44.18637" lon="7.0527">
        <ele>873.2</ele>
        <time>2022-07-19T07:39:52Z</time>
      </trkpt>
      <trkpt lat="44.18637" lon="7.0527">
        <ele>873.2</ele>
        <time>2022-07-19T07:39:53Z</time>
      </trkpt>
      <trkpt lat="44.18637" lon="7.0527">
        <ele>873.2</ele>
        <time>2022-07-19T07:39:56Z</time>
      </trkpt>
      <trkpt lat="44.18637" lon="7.0527">
        <ele>873.4</ele>
        <time>2022-07-19T07:40:37Z</time>
      </trkpt>
      <trkpt lat="44.18637" lon="7.0527">
        <ele>873.4</ele>
        <time>2022-07-19T07:40:41Z</time>
      </trkpt>
      <trkpt lat="44.18637" lon="7.0527">
        <ele>873.4</ele>
        <time>2022-07-19T07:40:42Z</time>
      </trkpt>
      <trkpt lat="44.18637" lon="7.0527">
        <ele>873.4</ele>
        <time>2022-07-19T07:40:46Z</time>
      </trkpt>
      <trkpt lat="44.18637" lon="7.0527">
        <ele>873.4</ele>
        <time>2022-07-19T07:40:49Z</time>
      </trkpt>
      <trkpt lat="44.18637" lon="7.0527">
        <ele>873.4</ele>
        <time>2022-07-19T07:40:51Z</time>
      </trkpt>
      <trkpt lat="44.18637" lon="7.0527">
        <ele>873.4</ele>
        <time>2022-07-19T07:40:55Z</time>
      </trkpt>
      <trkpt lat="44.18637" lon="7.0527">
        <ele>873.6</ele>
        <time>2022-07-19T07:40:58Z</time>
      </trkpt>
      <trkpt lat="44.18637" lon="7.0527">
        <ele>873.6</ele>
        <time>2022-07-19T07:41:00Z</time>
      </trkpt>
      <trkpt lat="44.18637" lon="7.0527">
        <ele>873.6</ele>
        <time>2022-07-19T07:41:04Z</time>
      </trkpt>
      <trkpt lat="44.18638" lon="7.0527">
        <ele>873.6</ele>
        <time>2022-07-19T07:41:07Z</time>
      </trkpt>
      <trkpt lat="44.18638" lon="7.0527">
        <ele>873.6</ele>
        <time>2022-07-19T07:41:09Z</time>
      </trkpt>
      <trkpt lat="44.18638" lon="7.0527">
        <ele>873.6</ele>
        <time>2022-07-19T07:41:13Z</time>
      </trkpt>
      <trkpt lat="44.18638" lon="7.0527">
        <ele>873.6</ele>
        <time>2022-07-19T07:41:23Z</time>
      </trkpt>
      <trkpt lat="44.18638" lon="7.0527">
        <ele>873.6</ele>
        <time>2022-07-19T07:41:24Z</time>
      </trkpt>
      <trkpt lat="44.18638" lon="7.0527">
        <ele>873.6</ele>
        <time>2022-07-19T07:41:28Z</time>
      </trkpt>
      <trkpt lat="44.18638" lon="7.0527">
        <ele>873.6</ele>
        <time>2022-07-19T07:41:34Z</time>
      </trkpt>
      <trkpt lat="44.18638" lon="7.0527">
        <ele>873.6</ele>
        <time>2022-07-19T07:41:35Z</time>
      </trkpt>
      <trkpt lat="44.18638" lon="7.0527">
        <ele>873.6</ele>
        <time>2022-07-19T07:41:40Z</time>
      </trkpt>
      <trkpt lat="44.18638" lon="7.0527">
        <ele>873.8</ele>
        <time>2022-07-19T07:41:44Z</time>
      </trkpt>
      <trkpt lat="44.18638" lon="7.0527">
        <ele>873.8</ele>
        <time>2022-07-19T07:41:45Z</time>
      </trkpt>
      <trkpt lat="44.18638" lon="7.0527">
        <ele>873.8</ele>
        <time>2022-07-19T07:41:49Z</time>
      </trkpt>
      <trkpt lat="44.18638" lon="7.0527">
        <ele>873.8</ele>
        <time>2022-07-19T07:41:53Z</time>
      </trkpt>
      <trkpt lat="44.18638" lon="7.0527">
        <ele>873.8</ele>
        <time>2022-07-19T07:41:54Z</time>
      </trkpt>
      <trkpt lat="44.18638" lon="7.0527">
        <ele>873.8</ele>
        <time>2022-07-19T07:41:58Z</time>
      </trkpt>
      <trkpt lat="44.18638" lon="7.0527">
        <ele>873.8</ele>
        <time>2022-07-19T07:42:02Z</time>
      </trkpt>
      <trkpt lat="44.18638" lon="7.0527">
        <ele>873.8</ele>
        <time>2022-07-19T07:42:03Z</time>
      </trkpt>
      <trkpt lat="44.18638" lon="7.0527">
        <ele>873.8</ele>
        <time>2022-07-19T07:42:07Z</time>
      </trkpt>
      <trkpt lat="44.18638" lon="7.0527">
        <ele>873.8</ele>
        <time>2022-07-19T07:42:08Z</time>
      </trkpt>
      <trkpt lat="44.18638" lon="7.0527">
        <ele>873.8</ele>
        <time>2022-07-19T07:42:12Z</time>
      </trkpt>
      <trkpt lat="44.18638" lon="7.0527">
        <ele>873.8</ele>
        <time>2022-07-19T07:42:13Z</time>
      </trkpt>
      <trkpt lat="44.18638" lon="7.0527">
        <ele>873.8</ele>
        <time>2022-07-19T07:42:17Z</time>
      </trkpt>
      <trkpt lat="44.18638" lon="7.0527">
        <ele>873.8</ele>
        <time>2022-07-19T07:42:20Z</time>
      </trkpt>
      <trkpt lat="44.18638" lon="7.0527">
        <ele>873.8</ele>
        <time>2022-07-19T07:42:22Z</time>
      </trkpt>
      <trkpt lat="44.18638" lon="7.0527">
        <ele>873.8</ele>
        <time>2022-07-19T07:42:26Z</time>
      </trkpt>
      <trkpt lat="44.18638" lon="7.0527">
        <ele>873.8</ele>
        <time>2022-07-19T07:42:29Z</time>
      </trkpt>
      <trkpt lat="44.18638" lon="7.0527">
        <ele>873.8</ele>
        <time>2022-07-19T07:42:31Z</time>
      </trkpt>
      <trkpt lat="44.18638" lon="7.0527">
        <ele>873.8</ele>
        <time>2022-07-19T07:42:35Z</time>
      </trkpt>
      <trkpt lat="44.18638" lon="7.0527">
        <ele>873.8</ele>
        <time>2022-07-19T07:42:38Z</time>
      </trkpt>
      <trkpt lat="44.18638" lon="7.0527">
        <ele>873.8</ele>
        <time>2022-07-19T07:42:40Z</time>
      </trkpt>
      <trkpt lat="44.18638" lon="7.0527">
        <ele>873.8</ele>
        <time>2022-07-19T07:42:44Z</time>
      </trkpt>
      <trkpt lat="44.18639" lon="7.0527">
        <ele>873.8</ele>
        <time>2022-07-19T07:42:47Z</time>
      </trkpt>
      <trkpt lat="44.18639" lon="7.0527">
        <ele>873.8</ele>
        <time>2022-07-19T07:42:49Z</time>
      </trkpt>
      <trkpt lat="44.18639" lon="7.0527">
        <ele>873.8</ele>
        <time>2022-07-19T07:42:50Z</time>
      </trkpt>
      <trkpt lat="44.18639" lon="7.0527">
        <ele>873.8</ele>
        <time>2022-07-19T07:42:55Z</time>
      </trkpt>
      <trkpt lat="44.18639" lon="7.0527">
        <ele>873.8</ele>
        <time>2022-07-19T07:42:57Z</time>
      </trkpt>
      <trkpt lat="44.18639" lon="7.0527">
        <ele>873.8</ele>
        <time>2022-07-19T07:43:00Z</time>
      </trkpt>
      <trkpt lat="44.18639" lon="7.0527">
        <ele>873.8</ele>
        <time>2022-07-19T07:43:12Z</time>
      </trkpt>
      <trkpt lat="44.18639" lon="7.0527">
        <ele>873.8</ele>
        <time>2022-07-19T07:43:14Z</time>
      </trkpt>
      <trkpt lat="44.18639" lon="7.0527">
        <ele>873.8</ele>
        <time>2022-07-19T07:43:17Z</time>
      </trkpt>
      <trkpt lat="44.18639" lon="7.0527">
        <ele>873.6</ele>
        <time>2022-07-19T07:43:21Z</time>
      </trkpt>
      <trkpt lat="44.18639" lon="7.0527">
        <ele>873.6</ele>
        <time>2022-07-19T07:43:23Z</time>
      </trkpt>
      <trkpt lat="44.18639" lon="7.0527">
        <ele>873.8</ele>
        <time>2022-07-19T07:43:26Z</time>
      </trkpt>
      <trkpt lat="44.18639" lon="7.0527">
        <ele>873.8</ele>
        <time>2022-07-19T07:43:30Z</time>
      </trkpt>
      <trkpt lat="44.18639" lon="7.0527">
        <ele>873.8</ele>
        <time>2022-07-19T07:43:32Z</time>
      </trkpt>
      <trkpt lat="44.18639" lon="7.0527">
        <ele>873.8</ele>
        <time>2022-07-19T07:43:35Z</time>
      </trkpt>
      <trkpt lat="44.18639" lon="7.0527">
        <ele>873.8</ele>
        <time>2022-07-19T07:43:39Z</time>
      </trkpt>
      <trkpt lat="44.18639" lon="7.0527">
        <ele>873.8</ele>
        <time>2022-07-19T07:43:41Z</time>
      </trkpt>
      <trkpt lat="44.18639" lon="7.0527">
        <ele>873.8</ele>
        <time>2022-07-19T07:43:55Z</time>
      </trkpt>
      <trkpt lat="44.18639" lon="7.0527">
        <ele>873.8</ele>
        <time>2022-07-19T07:44:00Z</time>
      </trkpt>
      <trkpt lat="44.18639" lon="7.0527">
        <ele>873.8</ele>
        <time>2022-07-19T07:44:02Z</time>
      </trkpt>
      <trkpt lat="44.18639" lon="7.0527">
        <ele>873.8</ele>
        <time>2022-07-19T07:44:05Z</time>
      </trkpt>
      <trkpt lat="44.18639" lon="7.0527">
        <ele>873.8</ele>
        <time>2022-07-19T07:44:16Z</time>
      </trkpt>
      <trkpt lat="44.18639" lon="7.0527">
        <ele>873.8</ele>
        <time>2022-07-19T07:44:17Z</time>
      </trkpt>
      <trkpt lat="44.18639" lon="7.0527">
        <ele>873.8</ele>
        <time>2022-07-19T07:44:21Z</time>
      </trkpt>
      <trkpt lat="44.18639" lon="7.0527">
        <ele>873.8</ele>
        <time>2022-07-19T07:44:25Z</time>
      </trkpt>
      <trkpt lat="44.18639" lon="7.0527">
        <ele>873.8</ele>
        <time>2022-07-19T07:44:26Z</time>
      </trkpt>
      <trkpt lat="44.18639" lon="7.0527">
        <ele>874</ele>
        <time>2022-07-19T07:44:31Z</time>
      </trkpt>
      <trkpt lat="44.18639" lon="7.0527">
        <ele>873.8</ele>
        <time>2022-07-19T07:44:41Z</time>
      </trkpt>
      <trkpt lat="44.18639" lon="7.0527">
        <ele>873.8</ele>
        <time>2022-07-19T07:44:42Z</time>
      </trkpt>
      <trkpt lat="44.18639" lon="7.0527">
        <ele>873.8</ele>
        <time>2022-07-19T07:45:39Z</time>
      </trkpt>
      <trkpt lat="44.18639" lon="7.0527">
        <ele>873.8</ele>
        <time>2022-07-19T07:45:42Z</time>
      </trkpt>
      <trkpt lat="44.1864" lon="7.0527">
        <ele>873.8</ele>
        <time>2022-07-19T07:45:44Z</time>
      </trkpt>
      <trkpt lat="44.1864" lon="7.0527">
        <ele>873.8</ele>
        <time>2022-07-19T07:45:54Z</time>
      </trkpt>
      <trkpt lat="44.1864" lon="7.0527">
        <ele>873.8</ele>
        <time>2022-07-19T07:45:58Z</time>
      </trkpt>
      <trkpt lat="44.1864" lon="7.0527">
        <ele>873.8</ele>
        <time>2022-07-19T07:46:00Z</time>
      </trkpt>
      <trkpt lat="44.1864" lon="7.0527">
        <ele>873.8</ele>
        <time>2022-07-19T07:46:03Z</time>
      </trkpt>
      <trkpt lat="44.1864" lon="7.0527">
        <ele>873.8</ele>
        <time>2022-07-19T07:46:08Z</time>
      </trkpt>
      <trkpt lat="44.1864" lon="7.0527">
        <ele>874</ele>
        <time>2022-07-19T07:46:10Z</time>
      </trkpt>
      <trkpt lat="44.1864" lon="7.0527">
        <ele>874</ele>
        <time>2022-07-19T07:46:14Z</time>
      </trkpt>
      <trkpt lat="44.1864" lon="7.0527">
        <ele>874</ele>
        <time>2022-07-19T07:46:37Z</time>
      </trkpt>
      <trkpt lat="44.1864" lon="7.0527">
        <ele>874</ele>
        <time>2022-07-19T07:46:39Z</time>
      </trkpt>
      <trkpt lat="44.1864" lon="7.0527">
        <ele>873.8</ele>
        <time>2022-07-19T07:47:25Z</time>
      </trkpt>
      <trkpt lat="44.1864" lon="7.0527">
        <ele>873.8</ele>
        <time>2022-07-19T07:47:29Z</time>
      </trkpt>
      <trkpt lat="44.1864" lon="7.0527">
        <ele>873.8</ele>
        <time>2022-07-19T07:47:32Z</time>
      </trkpt>
      <trkpt lat="44.1864" lon="7.0527">
        <ele>874</ele>
        <time>2022-07-19T07:48:09Z</time>
      </trkpt>
      <trkpt lat="44.1864" lon="7.0527">
        <ele>874</ele>
        <time>2022-07-19T07:48:10Z</time>
      </trkpt>
      <trkpt lat="44.1864" lon="7.0527">
        <ele>874</ele>
        <time>2022-07-19T07:48:15Z</time>
      </trkpt>
      <trkpt lat="44.1864" lon="7.0527">
        <ele>874</ele>
        <time>2022-07-19T07:48:16Z</time>
      </trkpt>
      <trkpt lat="44.1864" lon="7.0527">
        <ele>874</ele>
        <time>2022-07-19T07:48:27Z</time>
      </trkpt>
      <trkpt lat="44.1864" lon="7.0527">
        <ele>874</ele>
        <time>2022-07-19T07:48:49Z</time>
      </trkpt>
      <trkpt lat="44.1864" lon="7.0527">
        <ele>874</ele>
        <time>2022-07-19T07:48:50Z</time>
      </trkpt>
      <trkpt lat="44.1864" lon="7.0527">
        <ele>874</ele>
        <time>2022-07-19T07:48:54Z</time>
      </trkpt>
      <trkpt lat="44.1864" lon="7.0527">
        <ele>874</ele>
        <time>2022-07-19T07:48:58Z</time>
      </trkpt>
      <trkpt lat="44.1864" lon="7.0527">
        <ele>874</ele>
        <time>2022-07-19T07:48:59Z</time>
      </trkpt>
      <trkpt lat="44.1864" lon="7.0527">
        <ele>874</ele>
        <time>2022-07-19T07:49:03Z</time>
      </trkpt>
      <trkpt lat="44.1864" lon="7.0527">
        <ele>874</ele>
        <time>2022-07-19T07:49:07Z</time>
      </trkpt>
      <trkpt lat="44.1864" lon="7.0527">
        <ele>874</ele>
        <time>2022-07-19T07:49:08Z</time>
      </trkpt>
      <trkpt lat="44.1864" lon="7.0527">
        <ele>874</ele>
        <time>2022-07-19T07:49:12Z</time>
      </trkpt>
      <trkpt lat="44.1864" lon="7.0527">
        <ele>874</ele>
        <time>2022-07-19T07:49:16Z</time>
      </trkpt>
      <trkpt lat="44.1864" lon="7.05271">
        <ele>874</ele>
        <time>2022-07-19T07:49:17Z</time>
      </trkpt>
      <trkpt lat="44.1864" lon="7.05271">
        <ele>874</ele>
        <time>2022-07-19T07:49:22Z</time>
      </trkpt>
      <trkpt lat="44.18641" lon="7.05271">
        <ele>874</ele>
        <time>2022-07-19T07:49:26Z</time>
      </trkpt>
      <trkpt lat="44.18641" lon="7.05271">
        <ele>874</ele>
        <time>2022-07-19T07:49:27Z</time>
      </trkpt>
      <trkpt lat="44.18641" lon="7.05271">
        <ele>874</ele>
        <time>2022-07-19T07:49:31Z</time>
      </trkpt>
      <trkpt lat="44.18641" lon="7.05271">
        <ele>874</ele>
        <time>2022-07-19T07:49:35Z</time>
      </trkpt>
      <trkpt lat="44.18641" lon="7.05271">
        <ele>874</ele>
        <time>2022-07-19T07:49:36Z</time>
      </trkpt>
      <trkpt lat="44.18641" lon="7.05271">
        <ele>874</ele>
        <time>2022-07-19T07:49:40Z</time>
      </trkpt>
      <trkpt lat="44.18641" lon="7.05271">
        <ele>874</ele>
        <time>2022-07-19T07:49:44Z</time>
      </trkpt>
      <trkpt lat="44.18641" lon="7.05271">
        <ele>874</ele>
        <time>2022-07-19T07:49:45Z</time>
      </trkpt>
      <trkpt lat="44.18641" lon="7.05271">
        <ele>874</ele>
        <time>2022-07-19T07:49:49Z</time>
      </trkpt>
      <trkpt lat="44.18641" lon="7.05271">
        <ele>874</ele>
        <time>2022-07-19T07:49:53Z</time>
      </trkpt>
      <trkpt lat="44.18641" lon="7.05271">
        <ele>874</ele>
        <time>2022-07-19T07:49:54Z</time>
      </trkpt>
      <trkpt lat="44.18641" lon="7.05271">
        <ele>874</ele>
        <time>2022-07-19T07:49:58Z</time>
      </trkpt>
      <trkpt lat="44.18641" lon="7.05271">
        <ele>874</ele>
        <time>2022-07-19T07:50:00Z</time>
      </trkpt>
      <trkpt lat="44.18641" lon="7.05271">
        <ele>874</ele>
        <time>2022-07-19T07:50:02Z</time>
      </trkpt>
      <trkpt lat="44.18641" lon="7.05271">
        <ele>874</ele>
        <time>2022-07-19T07:50:04Z</time>
      </trkpt>
      <trkpt lat="44.18641" lon="7.05271">
        <ele>874</ele>
        <time>2022-07-19T07:50:08Z</time>
      </trkpt>
      <trkpt lat="44.18641" lon="7.05271">
        <ele>874</ele>
        <time>2022-07-19T07:50:10Z</time>
      </trkpt>
      <trkpt lat="44.18641" lon="7.05271">
        <ele>874</ele>
        <time>2022-07-19T07:50:13Z</time>
      </trkpt>
      <trkpt lat="44.18641" lon="7.05271">
        <ele>874</ele>
        <time>2022-07-19T07:50:17Z</time>
      </trkpt>
      <trkpt lat="44.18641" lon="7.05271">
        <ele>874</ele>
        <time>2022-07-19T07:50:19Z</time>
      </trkpt>
      <trkpt lat="44.18641" lon="7.05271">
        <ele>874</ele>
        <time>2022-07-19T07:50:22Z</time>
      </trkpt>
      <trkpt lat="44.18641" lon="7.05271">
        <ele>874</ele>
        <time>2022-07-19T07:50:26Z</time>
      </trkpt>
      <trkpt lat="44.18641" lon="7.05271">
        <ele>874</ele>
        <time>2022-07-19T07:50:35Z</time>
      </trkpt>
      <trkpt lat="44.18641" lon="7.05271">
        <ele>874.2</ele>
        <time>2022-07-19T07:50:52Z</time>
      </trkpt>
      <trkpt lat="44.18641" lon="7.05271">
        <ele>874.2</ele>
        <time>2022-07-19T07:50:56Z</time>
      </trkpt>
      <trkpt lat="44.18641" lon="7.05271">
        <ele>874.2</ele>
        <time>2022-07-19T07:50:58Z</time>
      </trkpt>
      <trkpt lat="44.18641" lon="7.05271">
        <ele>874.2</ele>
        <time>2022-07-19T07:51:01Z</time>
      </trkpt>
      <trkpt lat="44.18641" lon="7.05271">
        <ele>874.2</ele>
        <time>2022-07-19T07:51:03Z</time>
      </trkpt>
      <trkpt lat="44.18641" lon="7.05271">
        <ele>874.2</ele>
        <time>2022-07-19T07:51:06Z</time>
      </trkpt>
      <trkpt lat="44.18641" lon="7.05271">
        <ele>874.2</ele>
        <time>2022-07-19T07:51:07Z</time>
      </trkpt>
      <trkpt lat="44.18641" lon="7.05271">
        <ele>874.2</ele>
        <time>2022-07-19T07:51:11Z</time>
      </trkpt>
      <trkpt lat="44.18641" lon="7.05271">
        <ele>874.2</ele>
        <time>2022-07-19T07:51:24Z</time>
      </trkpt>
      <trkpt lat="44.18642" lon="7.05271">
        <ele>874.2</ele>
        <time>2022-07-19T07:51:25Z</time>
      </trkpt>
      <trkpt lat="44.18642" lon="7.05271">
        <ele>874.2</ele>
        <time>2022-07-19T07:51:29Z</time>
      </trkpt>
      <trkpt lat="44.18642" lon="7.05271">
        <ele>874.2</ele>
        <time>2022-07-19T07:51:39Z</time>
      </trkpt>
      <trkpt lat="44.18642" lon="7.05271">
        <ele>874.2</ele>
        <time>2022-07-19T07:52:00Z</time>
      </trkpt>
      <trkpt lat="44.18642" lon="7.05271">
        <ele>874.2</ele>
        <time>2022-07-19T07:52:04Z</time>
      </trkpt>
      <trkpt lat="44.18642" lon="7.05271">
        <ele>874.2</ele>
        <time>2022-07-19T07:52:15Z</time>
      </trkpt>
      <trkpt lat="44.18642" lon="7.05271">
        <ele>874.2</ele>
        <time>2022-07-19T07:52:16Z</time>
      </trkpt>
      <trkpt lat="44.18642" lon="7.05271">
        <ele>874.4</ele>
        <time>2022-07-19T07:52:20Z</time>
      </trkpt>
      <trkpt lat="44.18642" lon="7.05271">
        <ele>874.4</ele>
        <time>2022-07-19T07:53:09Z</time>
      </trkpt>
      <trkpt lat="44.18642" lon="7.05271">
        <ele>874.4</ele>
        <time>2022-07-19T07:53:10Z</time>
      </trkpt>
      <trkpt lat="44.18642" lon="7.05271">
        <ele>874.4</ele>
        <time>2022-07-19T07:53:31Z</time>
      </trkpt>
      <trkpt lat="44.18642" lon="7.05271">
        <ele>874.4</ele>
        <time>2022-07-19T07:53:34Z</time>
      </trkpt>
      <trkpt lat="44.18642" lon="7.05271">
        <ele>874.4</ele>
        <time>2022-07-19T07:53:37Z</time>
      </trkpt>
      <trkpt lat="44.18642" lon="7.05271">
        <ele>874.4</ele>
        <time>2022-07-19T07:53:39Z</time>
      </trkpt>
      <trkpt lat="44.18642" lon="7.05271">
        <ele>874.4</ele>
        <time>2022-07-19T07:53:43Z</time>
      </trkpt>
      <trkpt lat="44.18642" lon="7.05271">
        <ele>874.4</ele>
        <time>2022-07-19T07:53:46Z</time>
      </trkpt>
      <trkpt lat="44.18642" lon="7.05271">
        <ele>874.4</ele>
        <time>2022-07-19T07:53:48Z</time>
      </trkpt>
      <trkpt lat="44.18642" lon="7.05271">
        <ele>874.4</ele>
        <time>2022-07-19T07:53:52Z</time>
      </trkpt>
      <trkpt lat="44.18642" lon="7.05271">
        <ele>874.4</ele>
        <time>2022-07-19T07:54:05Z</time>
      </trkpt>
      <trkpt lat="44.18642" lon="7.05271">
        <ele>874.4</ele>
        <time>2022-07-19T07:54:07Z</time>
      </trkpt>
      <trkpt lat="44.18642" lon="7.05271">
        <ele>874.4</ele>
        <time>2022-07-19T07:54:12Z</time>
      </trkpt>
      <trkpt lat="44.18642" lon="7.05271">
        <ele>874.4</ele>
        <time>2022-07-19T07:54:30Z</time>
      </trkpt>
      <trkpt lat="44.18642" lon="7.05271">
        <ele>874.4</ele>
        <time>2022-07-19T07:54:34Z</time>
      </trkpt>
      <trkpt lat="44.18642" lon="7.05271">
        <ele>874.4</ele>
        <time>2022-07-19T07:54:38Z</time>
      </trkpt>
      <trkpt lat="44.18642" lon="7.05271">
        <ele>874.4</ele>
        <time>2022-07-19T07:54:40Z</time>
      </trkpt>
      <trkpt lat="44.18642" lon="7.05271">
        <ele>874.4</ele>
        <time>2022-07-19T07:54:41Z</time>
      </trkpt>
      <trkpt lat="44.18642" lon="7.05271">
        <ele>874.4</ele>
        <time>2022-07-19T07:54:45Z</time>
      </trkpt>
      <trkpt lat="44.18642" lon="7.05271">
        <ele>874.6</ele>
        <time>2022-07-19T07:56:02Z</time>
      </trkpt>
      <trkpt lat="44.18642" lon="7.05271">
        <ele>874.6</ele>
        <time>2022-07-19T07:56:03Z</time>
      </trkpt>
      <trkpt lat="44.18642" lon="7.05271">
        <ele>874.6</ele>
        <time>2022-07-19T07:58:11Z</time>
      </trkpt>
      <trkpt lat="44.18642" lon="7.05271">
        <ele>874.6</ele>
        <time>2022-07-19T07:58:27Z</time>
      </trkpt>
      <trkpt lat="44.18643" lon="7.05271">
        <ele>874.6</ele>
        <time>2022-07-19T07:58:30Z</time>
      </trkpt>
      <trkpt lat="44.18643" lon="7.05271">
        <ele>875</ele>
        <time>2022-07-19T07:59:25Z</time>
      </trkpt>
      <trkpt lat="44.18643" lon="7.05271">
        <ele>875</ele>
        <time>2022-07-19T08:00:59Z</time>
      </trkpt>
      <trkpt lat="44.18643" lon="7.05271">
        <ele>875</ele>
        <time>2022-07-19T08:01:00Z</time>
      </trkpt>
      <trkpt lat="44.18643" lon="7.05271">
        <ele>875</ele>
        <time>2022-07-19T08:01:47Z</time>
      </trkpt>
      <trkpt lat="44.18643" lon="7.05271">
        <ele>875</ele>
        <time>2022-07-19T08:01:54Z</time>
      </trkpt>
      <trkpt lat="44.18643" lon="7.05271">
        <ele>875</ele>
        <time>2022-07-19T08:01:55Z</time>
      </trkpt>
      <trkpt lat="44.18643" lon="7.05271">
        <ele>875</ele>
        <time>2022-07-19T08:02:00Z</time>
      </trkpt>
      <trkpt lat="44.18643" lon="7.05271">
        <ele>875.2</ele>
        <time>2022-07-19T08:02:01Z</time>
      </trkpt>
      <trkpt lat="44.18643" lon="7.05271">
        <ele>875.2</ele>
        <time>2022-07-19T08:02:04Z</time>
      </trkpt>
      <trkpt lat="44.18643" lon="7.05271">
        <ele>875.2</ele>
        <time>2022-07-19T08:02:06Z</time>
      </trkpt>
      <trkpt lat="44.18643" lon="7.05271">
        <ele>875.2</ele>
        <time>2022-07-19T08:02:11Z</time>
      </trkpt>
      <trkpt lat="44.18643" lon="7.05271">
        <ele>875.2</ele>
        <time>2022-07-19T08:02:14Z</time>
      </trkpt>
      <trkpt lat="44.18643" lon="7.05271">
        <ele>875.2</ele>
        <time>2022-07-19T08:02:19Z</time>
      </trkpt>
      <trkpt lat="44.18643" lon="7.05271">
        <ele>875.2</ele>
        <time>2022-07-19T08:02:23Z</time>
      </trkpt>
      <trkpt lat="44.18643" lon="7.05271">
        <ele>875.2</ele>
        <time>2022-07-19T08:02:26Z</time>
      </trkpt>
      <trkpt lat="44.18643" lon="7.05271">
        <ele>875.2</ele>
        <time>2022-07-19T08:02:31Z</time>
      </trkpt>
      <trkpt lat="44.18643" lon="7.05271">
        <ele>875.6</ele>
        <time>2022-07-19T08:02:40Z</time>
      </trkpt>
      <trkpt lat="44.18643" lon="7.05271">
        <ele>875.6</ele>
        <time>2022-07-19T08:02:43Z</time>
      </trkpt>
      <trkpt lat="44.18643" lon="7.05271">
        <ele>875.6</ele>
        <time>2022-07-19T08:02:45Z</time>
      </trkpt>
      <trkpt lat="44.18643" lon="7.05271">
        <ele>875.8</ele>
        <time>2022-07-19T08:02:54Z</time>
      </trkpt>
      <trkpt lat="44.18643" lon="7.05271">
        <ele>875.8</ele>
        <time>2022-07-19T08:02:57Z</time>
      </trkpt>
      <trkpt lat="44.18643" lon="7.05271">
        <ele>875.8</ele>
        <time>2022-07-19T08:02:59Z</time>
      </trkpt>
      <trkpt lat="44.18643" lon="7.05271">
        <ele>875.8</ele>
        <time>2022-07-19T08:03:00Z</time>
      </trkpt>
      <trkpt lat="44.18643" lon="7.05271">
        <ele>875.8</ele>
        <time>2022-07-19T08:03:05Z</time>
      </trkpt>
      <trkpt lat="44.18643" lon="7.05271">
        <ele>875.8</ele>
        <time>2022-07-19T08:03:07Z</time>
      </trkpt>
      <trkpt lat="44.18643" lon="7.05271">
        <ele>875.8</ele>
        <time>2022-07-19T08:03:10Z</time>
      </trkpt>
      <trkpt lat="44.18643" lon="7.05271">
        <ele>875.8</ele>
        <time>2022-07-19T08:03:22Z</time>
      </trkpt>
      <trkpt lat="44.18643" lon="7.05271">
        <ele>875.8</ele>
        <time>2022-07-19T08:03:24Z</time>
      </trkpt>
      <trkpt lat="44.18643" lon="7.05271">
        <ele>875.8</ele>
        <time>2022-07-19T08:03:27Z</time>
      </trkpt>
      <trkpt lat="44.18643" lon="7.05271">
        <ele>875.8</ele>
        <time>2022-07-19T08:03:31Z</time>
      </trkpt>
      <trkpt lat="44.18644" lon="7.05271">
        <ele>875.8</ele>
        <time>2022-07-19T08:03:33Z</time>
      </trkpt>
      <trkpt lat="44.18644" lon="7.05271">
        <ele>875.8</ele>
        <time>2022-07-19T08:03:36Z</time>
      </trkpt>
      <trkpt lat="44.18644" lon="7.05271">
        <ele>875.8</ele>
        <time>2022-07-19T08:03:40Z</time>
      </trkpt>
      <trkpt lat="44.18644" lon="7.05271">
        <ele>875.8</ele>
        <time>2022-07-19T08:03:42Z</time>
      </trkpt>
      <trkpt lat="44.18644" lon="7.05271">
        <ele>875.8</ele>
        <time>2022-07-19T08:03:45Z</time>
      </trkpt>
      <trkpt lat="44.18644" lon="7.05271">
        <ele>875.8</ele>
        <time>2022-07-19T08:03:49Z</time>
      </trkpt>
      <trkpt lat="44.18644" lon="7.05271">
        <ele>875.8</ele>
        <time>2022-07-19T08:03:51Z</time>
      </trkpt>
      <trkpt lat="44.18644" lon="7.05271">
        <ele>875.8</ele>
        <time>2022-07-19T08:04:16Z</time>
      </trkpt>
      <trkpt lat="44.18644" lon="7.05271">
        <ele>875.8</ele>
        <time>2022-07-19T08:04:20Z</time>
      </trkpt>
      <trkpt lat="44.18644" lon="7.05271">
        <ele>875.8</ele>
        <time>2022-07-19T08:04:21Z</time>
      </trkpt>
      <trkpt lat="44.18644" lon="7.05271">
        <ele>875.8</ele>
        <time>2022-07-19T08:04:25Z</time>
      </trkpt>
      <trkpt lat="44.18644" lon="7.05271">
        <ele>875.8</ele>
        <time>2022-07-19T08:04:30Z</time>
      </trkpt>
      <trkpt lat="44.18644" lon="7.05271">
        <ele>875.8</ele>
        <time>2022-07-19T08:04:31Z</time>
      </trkpt>
      <trkpt lat="44.18644" lon="7.05271">
        <ele>876</ele>
        <time>2022-07-19T08:04:35Z</time>
      </trkpt>
      <trkpt lat="44.18644" lon="7.05271">
        <ele>876</ele>
        <time>2022-07-19T08:04:39Z</time>
      </trkpt>
      <trkpt lat="44.18644" lon="7.05271">
        <ele>876</ele>
        <time>2022-07-19T08:04:40Z</time>
      </trkpt>
      <trkpt lat="44.18644" lon="7.05271">
        <ele>876</ele>
        <time>2022-07-19T08:04:45Z</time>
      </trkpt>
      <trkpt lat="44.18644" lon="7.05271">
        <ele>876</ele>
        <time>2022-07-19T08:04:49Z</time>
      </trkpt>
      <trkpt lat="44.18644" lon="7.05271">
        <ele>876</ele>
        <time>2022-07-19T08:04:50Z</time>
      </trkpt>
      <trkpt lat="44.18644" lon="7.05271">
        <ele>876</ele>
        <time>2022-07-19T08:04:54Z</time>
      </trkpt>
      <trkpt lat="44.18644" lon="7.05271">
        <ele>876</ele>
        <time>2022-07-19T08:04:57Z</time>
      </trkpt>
      <trkpt lat="44.18644" lon="7.05271">
        <ele>876</ele>
        <time>2022-07-19T08:04:59Z</time>
      </trkpt>
      <trkpt lat="44.18644" lon="7.05271">
        <ele>876</ele>
        <time>2022-07-19T08:05:02Z</time>
      </trkpt>
      <trkpt lat="44.18644" lon="7.05271">
        <ele>876</ele>
        <time>2022-07-19T08:05:06Z</time>
      </trkpt>
      <trkpt lat="44.18644" lon="7.05271">
        <ele>876</ele>
        <time>2022-07-19T08:05:08Z</time>
      </trkpt>
      <trkpt lat="44.18644" lon="7.05271">
        <ele>876</ele>
        <time>2022-07-19T08:05:11Z</time>
      </trkpt>
      <trkpt lat="44.18644" lon="7.05271">
        <ele>876</ele>
        <time>2022-07-19T08:05:15Z</time>
      </trkpt>
      <trkpt lat="44.18644" lon="7.05271">
        <ele>876</ele>
        <time>2022-07-19T08:05:17Z</time>
      </trkpt>
      <trkpt lat="44.18644" lon="7.05271">
        <ele>876</ele>
        <time>2022-07-19T08:05:21Z</time>
      </trkpt>
      <trkpt lat="44.18644" lon="7.05271">
        <ele>876</ele>
        <time>2022-07-19T08:05:26Z</time>
      </trkpt>
      <trkpt lat="44.18645" lon="7.05271">
        <ele>876</ele>
        <time>2022-07-19T08:05:28Z</time>
      </trkpt>
      <trkpt lat="44.18645" lon="7.05271">
        <ele>876.2</ele>
        <time>2022-07-19T08:05:31Z</time>
      </trkpt>
      <trkpt lat="44.18644" lon="7.05271">
        <ele>876.2</ele>
        <time>2022-07-19T08:05:32Z</time>
      </trkpt>
      <trkpt lat="44.18644" lon="7.05271">
        <ele>876.2</ele>
        <time>2022-07-19T08:05:39Z</time>
      </trkpt>
      <trkpt lat="44.18644" lon="7.05271">
        <ele>876.2</ele>
        <time>2022-07-19T08:05:44Z</time>
      </trkpt>
      <trkpt lat="44.18644" lon="7.05271">
        <ele>876.2</ele>
        <time>2022-07-19T08:05:49Z</time>
      </trkpt>
      <trkpt lat="44.18644" lon="7.05271">
        <ele>876.2</ele>
        <time>2022-07-19T08:05:53Z</time>
      </trkpt>
      <trkpt lat="44.18644" lon="7.05271">
        <ele>876.2</ele>
        <time>2022-07-19T08:05:57Z</time>
      </trkpt>
      <trkpt lat="44.18644" lon="7.05271">
        <ele>876.4</ele>
        <time>2022-07-19T08:06:42Z</time>
      </trkpt>
      <trkpt lat="44.18644" lon="7.05271">
        <ele>876.4</ele>
        <time>2022-07-19T08:06:46Z</time>
      </trkpt>
      <trkpt lat="44.18644" lon="7.05271">
        <ele>876.4</ele>
        <time>2022-07-19T08:07:30Z</time>
      </trkpt>
      <trkpt lat="44.18642" lon="7.05268">
        <ele>876.4</ele>
        <time>2022-07-19T08:07:31Z</time>
      </trkpt>
      <trkpt lat="44.18642" lon="7.05267">
        <ele>876.4</ele>
        <time>2022-07-19T08:07:32Z</time>
      </trkpt>
      <trkpt lat="44.18642" lon="7.05265">
        <ele>876.4</ele>
        <time>2022-07-19T08:07:33Z</time>
      </trkpt>
      <trkpt lat="44.18642" lon="7.05264">
        <ele>876.4</ele>
        <time>2022-07-19T08:07:34Z</time>
      </trkpt>
      <trkpt lat="44.18643" lon="7.05262">
        <ele>876.4</ele>
        <time>2022-07-19T08:07:35Z</time>
      </trkpt>
      <trkpt lat="44.18643" lon="7.05261">
        <ele>876.4</ele>
        <time>2022-07-19T08:07:36Z</time>
      </trkpt>
      <trkpt lat="44.18643" lon="7.05259">
        <ele>876.4</ele>
        <time>2022-07-19T08:07:37Z</time>
      </trkpt>
      <trkpt lat="44.18643" lon="7.05257">
        <ele>876.4</ele>
        <time>2022-07-19T08:07:38Z</time>
      </trkpt>
      <trkpt lat="44.18643" lon="7.05257">
        <ele>876.4</ele>
        <time>2022-07-19T08:07:39Z</time>
      </trkpt>
      <trkpt lat="44.18642" lon="7.05257">
        <ele>876.6</ele>
        <time>2022-07-19T08:07:40Z</time>
      </trkpt>
      <trkpt lat="44.18643" lon="7.05257">
        <ele>876.6</ele>
        <time>2022-07-19T08:07:41Z</time>
      </trkpt>
      <trkpt lat="44.18643" lon="7.05257">
        <ele>876.6</ele>
        <time>2022-07-19T08:07:45Z</time>
      </trkpt>
      <trkpt lat="44.18643" lon="7.05257">
        <ele>876.8</ele>
        <time>2022-07-19T08:07:50Z</time>
      </trkpt>
      <trkpt lat="44.18643" lon="7.05257">
        <ele>876.8</ele>
        <time>2022-07-19T08:08:12Z</time>
      </trkpt>
      <trkpt lat="44.18643" lon="7.05257">
        <ele>876.6</ele>
        <time>2022-07-19T08:08:33Z</time>
      </trkpt>
      <trkpt lat="44.18643" lon="7.05257">
        <ele>876.6</ele>
        <time>2022-07-19T08:08:37Z</time>
      </trkpt>
      <trkpt lat="44.18643" lon="7.05257">
        <ele>876.6</ele>
        <time>2022-07-19T08:08:41Z</time>
      </trkpt>
      <trkpt lat="44.18643" lon="7.05257">
        <ele>876.6</ele>
        <time>2022-07-19T08:08:52Z</time>
      </trkpt>
      <trkpt lat="44.18643" lon="7.05257">
        <ele>876.6</ele>
        <time>2022-07-19T08:08:56Z</time>
      </trkpt>
      <trkpt lat="44.18643" lon="7.05253">
        <ele>876.6</ele>
        <time>2022-07-19T08:09:07Z</time>
      </trkpt>
      <trkpt lat="44.18642" lon="7.05251">
        <ele>876.6</ele>
        <time>2022-07-19T08:09:08Z</time>
      </trkpt>
      <trkpt lat="44.18642" lon="7.0525">
        <ele>876.6</ele>
        <time>2022-07-19T08:09:09Z</time>
      </trkpt>
      <trkpt lat="44.18642" lon="7.05248">
        <ele>876.6</ele>
        <time>2022-07-19T08:09:10Z</time>
      </trkpt>
      <trkpt lat="44.18643" lon="7.05246">
        <ele>876.6</ele>
        <time>2022-07-19T08:09:11Z</time>
      </trkpt>
      <trkpt lat="44.18643" lon="7.05244">
        <ele>876.6</ele>
        <time>2022-07-19T08:09:12Z</time>
      </trkpt>
      <trkpt lat="44.18643" lon="7.05241">
        <ele>876.6</ele>
        <time>2022-07-19T08:09:13Z</time>
      </trkpt>
      <trkpt lat="44.18643" lon="7.05239">
        <ele>876.6</ele>
        <time>2022-07-19T08:09:14Z</time>
      </trkpt>
      <trkpt lat="44.18642" lon="7.05237">
        <ele>876.6</ele>
        <time>2022-07-19T08:09:15Z</time>
      </trkpt>
      <trkpt lat="44.18642" lon="7.05233">
        <ele>876.6</ele>
        <time>2022-07-19T08:09:16Z</time>
      </trkpt>
      <trkpt lat="44.18642" lon="7.0523">
        <ele>876.6</ele>
        <time>2022-07-19T08:09:17Z</time>
      </trkpt>
      <trkpt lat="44.18641" lon="7.05228">
        <ele>876.6</ele>
        <time>2022-07-19T08:09:18Z</time>
      </trkpt>
      <trkpt lat="44.18641" lon="7.05225">
        <ele>876.6</ele>
        <time>2022-07-19T08:09:19Z</time>
      </trkpt>
      <trkpt lat="44.18642" lon="7.05221">
        <ele>876.6</ele>
        <time>2022-07-19T08:09:20Z</time>
      </trkpt>
      <trkpt lat="44.18643" lon="7.05218">
        <ele>876.4</ele>
        <time>2022-07-19T08:09:21Z</time>
      </trkpt>
      <trkpt lat="44.18644" lon="7.05214">
        <ele>876.4</ele>
        <time>2022-07-19T08:09:22Z</time>
      </trkpt>
      <trkpt lat="44.18646" lon="7.0521">
        <ele>876.4</ele>
        <time>2022-07-19T08:09:23Z</time>
      </trkpt>
      <trkpt lat="44.18647" lon="7.05207">
        <ele>876.4</ele>
        <time>2022-07-19T08:09:24Z</time>
      </trkpt>
      <trkpt lat="44.18648" lon="7.05204">
        <ele>876.4</ele>
        <time>2022-07-19T08:09:25Z</time>
      </trkpt>
      <trkpt lat="44.18649" lon="7.05201">
        <ele>876.4</ele>
        <time>2022-07-19T08:09:26Z</time>
      </trkpt>
      <trkpt lat="44.18649" lon="7.05197">
        <ele>876.6</ele>
        <time>2022-07-19T08:09:27Z</time>
      </trkpt>
      <trkpt lat="44.18648" lon="7.05194">
        <ele>876.6</ele>
        <time>2022-07-19T08:09:28Z</time>
      </trkpt>
      <trkpt lat="44.18648" lon="7.05192">
        <ele>876.6</ele>
        <time>2022-07-19T08:09:29Z</time>
      </trkpt>
      <trkpt lat="44.18646" lon="7.0519">
        <ele>876.6</ele>
        <time>2022-07-19T08:09:30Z</time>
      </trkpt>
      <trkpt lat="44.18644" lon="7.05188">
        <ele>876.8</ele>
        <time>2022-07-19T08:09:31Z</time>
      </trkpt>
      <trkpt lat="44.18644" lon="7.05185">
        <ele>876.8</ele>
        <time>2022-07-19T08:09:32Z</time>
      </trkpt>
      <trkpt lat="44.18642" lon="7.05182">
        <ele>876.8</ele>
        <time>2022-07-19T08:09:33Z</time>
      </trkpt>
      <trkpt lat="44.1864" lon="7.05179">
        <ele>876.8</ele>
        <time>2022-07-19T08:09:34Z</time>
      </trkpt>
      <trkpt lat="44.18639" lon="7.05176">
        <ele>876.8</ele>
        <time>2022-07-19T08:09:35Z</time>
      </trkpt>
      <trkpt lat="44.18637" lon="7.05173">
        <ele>877</ele>
        <time>2022-07-19T08:09:36Z</time>
      </trkpt>
      <trkpt lat="44.18635" lon="7.05169">
        <ele>877</ele>
        <time>2022-07-19T08:09:37Z</time>
      </trkpt>
      <trkpt lat="44.18632" lon="7.05165">
        <ele>877</ele>
        <time>2022-07-19T08:09:38Z</time>
      </trkpt>
      <trkpt lat="44.1863" lon="7.05161">
        <ele>877</ele>
        <time>2022-07-19T08:09:39Z</time>
      </trkpt>
      <trkpt lat="44.18627" lon="7.05158">
        <ele>876.8</ele>
        <time>2022-07-19T08:09:40Z</time>
      </trkpt>
      <trkpt lat="44.18625" lon="7.05152">
        <ele>876.8</ele>
        <time>2022-07-19T08:09:41Z</time>
      </trkpt>
      <trkpt lat="44.18623" lon="7.05148">
        <ele>876.6</ele>
        <time>2022-07-19T08:09:42Z</time>
      </trkpt>
      <trkpt lat="44.18621" lon="7.05144">
        <ele>876.6</ele>
        <time>2022-07-19T08:09:43Z</time>
      </trkpt>
      <trkpt lat="44.18618" lon="7.05141">
        <ele>876.6</ele>
        <time>2022-07-19T08:09:44Z</time>
      </trkpt>
      <trkpt lat="44.18616" lon="7.05137">
        <ele>876.6</ele>
        <time>2022-07-19T08:09:45Z</time>
      </trkpt>
      <trkpt lat="44.18615" lon="7.05134">
        <ele>876.4</ele>
        <time>2022-07-19T08:09:46Z</time>
      </trkpt>
      <trkpt lat="44.18614" lon="7.0513">
        <ele>876.4</ele>
        <time>2022-07-19T08:09:47Z</time>
      </trkpt>
      <trkpt lat="44.18613" lon="7.05126">
        <ele>876.4</ele>
        <time>2022-07-19T08:09:48Z</time>
      </trkpt>
      <trkpt lat="44.18612" lon="7.05122">
        <ele>876.4</ele>
        <time>2022-07-19T08:09:50Z</time>
      </trkpt>
      <trkpt lat="44.18612" lon="7.05118">
        <ele>876.4</ele>
        <time>2022-07-19T08:09:51Z</time>
      </trkpt>
      <trkpt lat="44.18611" lon="7.05114">
        <ele>876.4</ele>
        <time>2022-07-19T08:09:52Z</time>
      </trkpt>
      <trkpt lat="44.1861" lon="7.05111">
        <ele>876.6</ele>
        <time>2022-07-19T08:09:53Z</time>
      </trkpt>
      <trkpt lat="44.18609" lon="7.05107">
        <ele>876.6</ele>
        <time>2022-07-19T08:09:54Z</time>
      </trkpt>
      <trkpt lat="44.18609" lon="7.05103">
        <ele>876.8</ele>
        <time>2022-07-19T08:09:55Z</time>
      </trkpt>
      <trkpt lat="44.18608" lon="7.051">
        <ele>876.8</ele>
        <time>2022-07-19T08:09:56Z</time>
      </trkpt>
      <trkpt lat="44.18607" lon="7.05096">
        <ele>877</ele>
        <time>2022-07-19T08:09:57Z</time>
      </trkpt>
      <trkpt lat="44.18606" lon="7.05091">
        <ele>877</ele>
        <time>2022-07-19T08:09:58Z</time>
      </trkpt>
      <trkpt lat="44.18605" lon="7.05087">
        <ele>877.4</ele>
        <time>2022-07-19T08:09:59Z</time>
      </trkpt>
      <trkpt lat="44.18604" lon="7.05084">
        <ele>877.4</ele>
        <time>2022-07-19T08:10:00Z</time>
      </trkpt>
      <trkpt lat="44.18604" lon="7.0508">
        <ele>877.8</ele>
        <time>2022-07-19T08:10:01Z</time>
      </trkpt>
      <trkpt lat="44.18606" lon="7.05075">
        <ele>877.8</ele>
        <time>2022-07-19T08:10:02Z</time>
      </trkpt>
      <trkpt lat="44.18605" lon="7.05068">
        <ele>878</ele>
        <time>2022-07-19T08:10:03Z</time>
      </trkpt>
      <trkpt lat="44.18605" lon="7.05061">
        <ele>878</ele>
        <time>2022-07-19T08:10:04Z</time>
      </trkpt>
      <trkpt lat="44.18605" lon="7.05056">
        <ele>878</ele>
        <time>2022-07-19T08:10:05Z</time>
      </trkpt>
      <trkpt lat="44.18605" lon="7.05051">
        <ele>878.2</ele>
        <time>2022-07-19T08:10:06Z</time>
      </trkpt>
      <trkpt lat="44.18606" lon="7.05047">
        <ele>878.2</ele>
        <time>2022-07-19T08:10:07Z</time>
      </trkpt>
      <trkpt lat="44.18607" lon="7.05043">
        <ele>878.2</ele>
        <time>2022-07-19T08:10:08Z</time>
      </trkpt>
      <trkpt lat="44.18608" lon="7.05039">
        <ele>878.2</ele>
        <time>2022-07-19T08:10:09Z</time>
      </trkpt>
      <trkpt lat="44.18609" lon="7.05036">
        <ele>878.2</ele>
        <time>2022-07-19T08:10:10Z</time>
      </trkpt>
      <trkpt lat="44.18611" lon="7.05032">
        <ele>878.2</ele>
        <time>2022-07-19T08:10:11Z</time>
      </trkpt>
      <trkpt lat="44.18613" lon="7.05027">
        <ele>878.2</ele>
        <time>2022-07-19T08:10:12Z</time>
      </trkpt>
      <trkpt lat="44.18615" lon="7.05021">
        <ele>878.2</ele>
        <time>2022-07-19T08:10:13Z</time>
      </trkpt>
      <trkpt lat="44.18617" lon="7.05016">
        <ele>877.8</ele>
        <time>2022-07-19T08:10:14Z</time>
      </trkpt>
      <trkpt lat="44.18619" lon="7.0501">
        <ele>877.8</ele>
        <time>2022-07-19T08:10:15Z</time>
      </trkpt>
      <trkpt lat="44.18621" lon="7.05003">
        <ele>877.6</ele>
        <time>2022-07-19T08:10:16Z</time>
      </trkpt>
      <trkpt lat="44.18625" lon="7.04997">
        <ele>877.4</ele>
        <time>2022-07-19T08:10:17Z</time>
      </trkpt>
      <trkpt lat="44.18629" lon="7.04991">
        <ele>877</ele>
        <time>2022-07-19T08:10:18Z</time>
      </trkpt>
      <trkpt lat="44.18633" lon="7.04984">
        <ele>876.8</ele>
        <time>2022-07-19T08:10:19Z</time>
      </trkpt>
      <trkpt lat="44.18637" lon="7.04977">
        <ele>876.6</ele>
        <time>2022-07-19T08:10:20Z</time>
      </trkpt>
      <trkpt lat="44.18641" lon="7.04971">
        <ele>876.4</ele>
        <time>2022-07-19T08:10:21Z</time>
      </trkpt>
      <trkpt lat="44.18647" lon="7.04965">
        <ele>876.2</ele>
        <time>2022-07-19T08:10:22Z</time>
      </trkpt>
      <trkpt lat="44.18652" lon="7.04959">
        <ele>876.2</ele>
        <time>2022-07-19T08:10:23Z</time>
      </trkpt>
      <trkpt lat="44.18657" lon="7.04953">
        <ele>875.8</ele>
        <time>2022-07-19T08:10:24Z</time>
      </trkpt>
      <trkpt lat="44.18661" lon="7.04947">
        <ele>875.6</ele>
        <time>2022-07-19T08:10:25Z</time>
      </trkpt>
      <trkpt lat="44.18664" lon="7.0494">
        <ele>875.6</ele>
        <time>2022-07-19T08:10:26Z</time>
      </trkpt>
      <trkpt lat="44.18666" lon="7.04933">
        <ele>875.2</ele>
        <time>2022-07-19T08:10:27Z</time>
      </trkpt>
      <trkpt lat="44.1867" lon="7.04927">
        <ele>875.2</ele>
        <time>2022-07-19T08:10:28Z</time>
      </trkpt>
      <trkpt lat="44.18672" lon="7.0492">
        <ele>874.8</ele>
        <time>2022-07-19T08:10:29Z</time>
      </trkpt>
      <trkpt lat="44.18674" lon="7.04912">
        <ele>874.8</ele>
        <time>2022-07-19T08:10:30Z</time>
      </trkpt>
      <trkpt lat="44.18675" lon="7.04905">
        <ele>874.6</ele>
        <time>2022-07-19T08:10:31Z</time>
      </trkpt>
      <trkpt lat="44.18676" lon="7.04898">
        <ele>874.6</ele>
        <time>2022-07-19T08:10:32Z</time>
      </trkpt>
      <trkpt lat="44.18676" lon="7.0489">
        <ele>874.6</ele>
        <time>2022-07-19T08:10:33Z</time>
      </trkpt>
      <trkpt lat="44.18677" lon="7.04883">
        <ele>874.4</ele>
        <time>2022-07-19T08:10:34Z</time>
      </trkpt>
      <trkpt lat="44.18678" lon="7.04876">
        <ele>874.4</ele>
        <time>2022-07-19T08:10:35Z</time>
      </trkpt>
      <trkpt lat="44.18678" lon="7.0487">
        <ele>874.4</ele>
        <time>2022-07-19T08:10:36Z</time>
      </trkpt>
      <trkpt lat="44.18679" lon="7.04865">
        <ele>874.4</ele>
        <time>2022-07-19T08:10:37Z</time>
      </trkpt>
      <trkpt lat="44.18679" lon="7.04859">
        <ele>874.4</ele>
        <time>2022-07-19T08:10:38Z</time>
      </trkpt>
      <trkpt lat="44.18678" lon="7.04854">
        <ele>874.4</ele>
        <time>2022-07-19T08:10:39Z</time>
      </trkpt>
      <trkpt lat="44.18677" lon="7.04849">
        <ele>874.4</ele>
        <time>2022-07-19T08:10:40Z</time>
      </trkpt>
      <trkpt lat="44.18675" lon="7.04845">
        <ele>874.4</ele>
        <time>2022-07-19T08:10:41Z</time>
      </trkpt>
      <trkpt lat="44.18672" lon="7.04842">
        <ele>874.4</ele>
        <time>2022-07-19T08:10:42Z</time>
      </trkpt>
      <trkpt lat="44.18669" lon="7.04841">
        <ele>874.4</ele>
        <time>2022-07-19T08:10:43Z</time>
      </trkpt>
      <trkpt lat="44.18665" lon="7.04841">
        <ele>874.4</ele>
        <time>2022-07-19T08:10:44Z</time>
      </trkpt>
      <trkpt lat="44.18662" lon="7.0484">
        <ele>874.4</ele>
        <time>2022-07-19T08:10:45Z</time>
      </trkpt>
      <trkpt lat="44.18658" lon="7.04839">
        <ele>874.2</ele>
        <time>2022-07-19T08:10:46Z</time>
      </trkpt>
      <trkpt lat="44.18654" lon="7.04837">
        <ele>874.2</ele>
        <time>2022-07-19T08:10:47Z</time>
      </trkpt>
      <trkpt lat="44.18651" lon="7.04833">
        <ele>874.2</ele>
        <time>2022-07-19T08:10:48Z</time>
      </trkpt>
      <trkpt lat="44.18649" lon="7.04828">
        <ele>874.2</ele>
        <time>2022-07-19T08:10:49Z</time>
      </trkpt>
      <trkpt lat="44.18648" lon="7.04823">
        <ele>874</ele>
        <time>2022-07-19T08:10:50Z</time>
      </trkpt>
      <trkpt lat="44.18647" lon="7.04817">
        <ele>874</ele>
        <time>2022-07-19T08:10:51Z</time>
      </trkpt>
      <trkpt lat="44.18646" lon="7.0481">
        <ele>874</ele>
        <time>2022-07-19T08:10:52Z</time>
      </trkpt>
      <trkpt lat="44.18647" lon="7.04804">
        <ele>874</ele>
        <time>2022-07-19T08:10:53Z</time>
      </trkpt>
      <trkpt lat="44.18649" lon="7.04798">
        <ele>874</ele>
        <time>2022-07-19T08:10:54Z</time>
      </trkpt>
      <trkpt lat="44.1865" lon="7.04792">
        <ele>874</ele>
        <time>2022-07-19T08:10:55Z</time>
      </trkpt>
      <trkpt lat="44.18651" lon="7.04787">
        <ele>874</ele>
        <time>2022-07-19T08:10:56Z</time>
      </trkpt>
      <trkpt lat="44.18651" lon="7.04781">
        <ele>874</ele>
        <time>2022-07-19T08:10:57Z</time>
      </trkpt>
      <trkpt lat="44.1865" lon="7.04776">
        <ele>874</ele>
        <time>2022-07-19T08:10:58Z</time>
      </trkpt>
      <trkpt lat="44.18648" lon="7.04772">
        <ele>874</ele>
        <time>2022-07-19T08:10:59Z</time>
      </trkpt>
      <trkpt lat="44.18644" lon="7.04769">
        <ele>874</ele>
        <time>2022-07-19T08:11:00Z</time>
      </trkpt>
      <trkpt lat="44.18641" lon="7.04767">
        <ele>874</ele>
        <time>2022-07-19T08:11:01Z</time>
      </trkpt>
      <trkpt lat="44.18637" lon="7.04766">
        <ele>874</ele>
        <time>2022-07-19T08:11:02Z</time>
      </trkpt>
      <trkpt lat="44.18635" lon="7.04766">
        <ele>873.6</ele>
        <time>2022-07-19T08:11:03Z</time>
      </trkpt>
      <trkpt lat="44.18633" lon="7.04766">
        <ele>873.6</ele>
        <time>2022-07-19T08:11:04Z</time>
      </trkpt>
      <trkpt lat="44.18631" lon="7.04766">
        <ele>873.6</ele>
        <time>2022-07-19T08:11:05Z</time>
      </trkpt>
      <trkpt lat="44.1863" lon="7.04765">
        <ele>873.6</ele>
        <time>2022-07-19T08:11:06Z</time>
      </trkpt>
      <trkpt lat="44.18629" lon="7.04764">
        <ele>873.6</ele>
        <time>2022-07-19T08:11:07Z</time>
      </trkpt>
      <trkpt lat="44.18628" lon="7.04763">
        <ele>873.6</ele>
        <time>2022-07-19T08:11:08Z</time>
      </trkpt>
      <trkpt lat="44.18627" lon="7.04761">
        <ele>873.6</ele>
        <time>2022-07-19T08:11:09Z</time>
      </trkpt>
      <trkpt lat="44.18627" lon="7.04758">
        <ele>873.6</ele>
        <time>2022-07-19T08:11:10Z</time>
      </trkpt>
      <trkpt lat="44.18628" lon="7.04755">
        <ele>873.6</ele>
        <time>2022-07-19T08:11:11Z</time>
      </trkpt>
      <trkpt lat="44.18629" lon="7.0475">
        <ele>873.4</ele>
        <time>2022-07-19T08:11:12Z</time>
      </trkpt>
      <trkpt lat="44.1863" lon="7.04746">
        <ele>873.4</ele>
        <time>2022-07-19T08:11:13Z</time>
      </trkpt>
      <trkpt lat="44.18631" lon="7.0474">
        <ele>873.4</ele>
        <time>2022-07-19T08:11:14Z</time>
      </trkpt>
      <trkpt lat="44.18632" lon="7.04735">
        <ele>873.4</ele>
        <time>2022-07-19T08:11:15Z</time>
      </trkpt>
      <trkpt lat="44.18633" lon="7.04729">
        <ele>873.4</ele>
        <time>2022-07-19T08:11:16Z</time>
      </trkpt>
      <trkpt lat="44.18634" lon="7.04723">
        <ele>873.4</ele>
        <time>2022-07-19T08:11:17Z</time>
      </trkpt>
      <trkpt lat="44.18635" lon="7.04717">
        <ele>873.2</ele>
        <time>2022-07-19T08:11:18Z</time>
      </trkpt>
      <trkpt lat="44.18636" lon="7.04711">
        <ele>873.2</ele>
        <time>2022-07-19T08:11:19Z</time>
      </trkpt>
      <trkpt lat="44.18637" lon="7.04704">
        <ele>873.2</ele>
        <time>2022-07-19T08:11:20Z</time>
      </trkpt>
      <trkpt lat="44.18638" lon="7.04697">
        <ele>873.2</ele>
        <time>2022-07-19T08:11:21Z</time>
      </trkpt>
      <trkpt lat="44.18639" lon="7.04691">
        <ele>873.2</ele>
        <time>2022-07-19T08:11:22Z</time>
      </trkpt>
      <trkpt lat="44.1864" lon="7.04685">
        <ele>873.2</ele>
        <time>2022-07-19T08:11:23Z</time>
      </trkpt>
      <trkpt lat="44.18641" lon="7.04678">
        <ele>873.4</ele>
        <time>2022-07-19T08:11:24Z</time>
      </trkpt>
      <trkpt lat="44.18643" lon="7.04672">
        <ele>873.4</ele>
        <time>2022-07-19T08:11:25Z</time>
      </trkpt>
      <trkpt lat="44.18645" lon="7.04666">
        <ele>873.4</ele>
        <time>2022-07-19T08:11:26Z</time>
      </trkpt>
      <trkpt lat="44.18648" lon="7.04662">
        <ele>873.8</ele>
        <time>2022-07-19T08:11:27Z</time>
      </trkpt>
      <trkpt lat="44.18652" lon="7.04657">
        <ele>873.8</ele>
        <time>2022-07-19T08:11:28Z</time>
      </trkpt>
      <trkpt lat="44.18655" lon="7.04654">
        <ele>874.2</ele>
        <time>2022-07-19T08:11:29Z</time>
      </trkpt>
      <trkpt lat="44.1866" lon="7.04651">
        <ele>874.2</ele>
        <time>2022-07-19T08:11:30Z</time>
      </trkpt>
      <trkpt lat="44.18664" lon="7.04649">
        <ele>874.4</ele>
        <time>2022-07-19T08:11:31Z</time>
      </trkpt>
      <trkpt lat="44.18668" lon="7.04646">
        <ele>874.4</ele>
        <time>2022-07-19T08:11:32Z</time>
      </trkpt>
      <trkpt lat="44.18672" lon="7.04644">
        <ele>874.8</ele>
        <time>2022-07-19T08:11:33Z</time>
      </trkpt>
      <trkpt lat="44.18676" lon="7.04642">
        <ele>874.8</ele>
        <time>2022-07-19T08:11:34Z</time>
      </trkpt>
      <trkpt lat="44.18681" lon="7.0464">
        <ele>875.2</ele>
        <time>2022-07-19T08:11:35Z</time>
      </trkpt>
      <trkpt lat="44.18685" lon="7.04638">
        <ele>875.2</ele>
        <time>2022-07-19T08:11:36Z</time>
      </trkpt>
      <trkpt lat="44.18689" lon="7.04636">
        <ele>875.4</ele>
        <time>2022-07-19T08:11:37Z</time>
      </trkpt>
      <trkpt lat="44.18693" lon="7.04634">
        <ele>875.4</ele>
        <time>2022-07-19T08:11:38Z</time>
      </trkpt>
      <trkpt lat="44.18697" lon="7.04632">
        <ele>875.8</ele>
        <time>2022-07-19T08:11:39Z</time>
      </trkpt>
      <trkpt lat="44.18701" lon="7.0463">
        <ele>875.8</ele>
        <time>2022-07-19T08:11:40Z</time>
      </trkpt>
      <trkpt lat="44.18705" lon="7.04628">
        <ele>876</ele>
        <time>2022-07-19T08:11:41Z</time>
      </trkpt>
      <trkpt lat="44.18708" lon="7.04626">
        <ele>876</ele>
        <time>2022-07-19T08:11:42Z</time>
      </trkpt>
      <trkpt lat="44.18712" lon="7.04624">
        <ele>876.4</ele>
        <time>2022-07-19T08:11:43Z</time>
      </trkpt>
      <trkpt lat="44.18715" lon="7.04622">
        <ele>876.6</ele>
        <time>2022-07-19T08:11:44Z</time>
      </trkpt>
      <trkpt lat="44.18719" lon="7.04619">
        <ele>876.6</ele>
        <time>2022-07-19T08:11:45Z</time>
      </trkpt>
      <trkpt lat="44.18722" lon="7.04616">
        <ele>876.8</ele>
        <time>2022-07-19T08:11:46Z</time>
      </trkpt>
      <trkpt lat="44.18725" lon="7.04613">
        <ele>877.2</ele>
        <time>2022-07-19T08:11:47Z</time>
      </trkpt>
      <trkpt lat="44.18728" lon="7.04608">
        <ele>877.2</ele>
        <time>2022-07-19T08:11:48Z</time>
      </trkpt>
      <trkpt lat="44.1873" lon="7.04604">
        <ele>877.4</ele>
        <time>2022-07-19T08:11:49Z</time>
      </trkpt>
      <trkpt lat="44.18732" lon="7.04598">
        <ele>877.4</ele>
        <time>2022-07-19T08:11:50Z</time>
      </trkpt>
      <trkpt lat="44.18734" lon="7.04592">
        <ele>877.4</ele>
        <time>2022-07-19T08:11:51Z</time>
      </trkpt>
      <trkpt lat="44.18736" lon="7.04586">
        <ele>877.4</ele>
        <time>2022-07-19T08:11:52Z</time>
      </trkpt>
      <trkpt lat="44.18737" lon="7.0458">
        <ele>877.4</ele>
        <time>2022-07-19T08:11:53Z</time>
      </trkpt>
      <trkpt lat="44.18739" lon="7.04574">
        <ele>877.4</ele>
        <time>2022-07-19T08:11:54Z</time>
      </trkpt>
      <trkpt lat="44.18741" lon="7.04568">
        <ele>877.6</ele>
        <time>2022-07-19T08:11:55Z</time>
      </trkpt>
      <trkpt lat="44.18742" lon="7.04562">
        <ele>877.6</ele>
        <time>2022-07-19T08:11:56Z</time>
      </trkpt>
      <trkpt lat="44.18744" lon="7.04556">
        <ele>877.8</ele>
        <time>2022-07-19T08:11:57Z</time>
      </trkpt>
      <trkpt lat="44.18745" lon="7.04549">
        <ele>877.8</ele>
        <time>2022-07-19T08:11:58Z</time>
      </trkpt>
      <trkpt lat="44.18747" lon="7.04543">
        <ele>877.8</ele>
        <time>2022-07-19T08:11:59Z</time>
      </trkpt>
      <trkpt lat="44.18749" lon="7.04537">
        <ele>878.2</ele>
        <time>2022-07-19T08:12:00Z</time>
      </trkpt>
      <trkpt lat="44.1875" lon="7.04531">
        <ele>878.2</ele>
        <time>2022-07-19T08:12:01Z</time>
      </trkpt>
      <trkpt lat="44.18752" lon="7.04525">
        <ele>878.2</ele>
        <time>2022-07-19T08:12:02Z</time>
      </trkpt>
      <trkpt lat="44.18754" lon="7.0452">
        <ele>878.4</ele>
        <time>2022-07-19T08:12:03Z</time>
      </trkpt>
      <trkpt lat="44.18756" lon="7.04514">
        <ele>878.4</ele>
        <time>2022-07-19T08:12:04Z</time>
      </trkpt>
      <trkpt lat="44.18758" lon="7.04508">
        <ele>878.4</ele>
        <time>2022-07-19T08:12:05Z</time>
      </trkpt>
      <trkpt lat="44.1876" lon="7.04502">
        <ele>878.6</ele>
        <time>2022-07-19T08:12:06Z</time>
      </trkpt>
      <trkpt lat="44.18761" lon="7.04497">
        <ele>878.6</ele>
        <time>2022-07-19T08:12:07Z</time>
      </trkpt>
      <trkpt lat="44.18763" lon="7.04491">
        <ele>878.6</ele>
        <time>2022-07-19T08:12:08Z</time>
      </trkpt>
      <trkpt lat="44.18764" lon="7.04486">
        <ele>878.6</ele>
        <time>2022-07-19T08:12:09Z</time>
      </trkpt>
      <trkpt lat="44.18767" lon="7.0448">
        <ele>878.8</ele>
        <time>2022-07-19T08:12:10Z</time>
      </trkpt>
      <trkpt lat="44.18769" lon="7.04474">
        <ele>878.8</ele>
        <time>2022-07-19T08:12:11Z</time>
      </trkpt>
      <trkpt lat="44.18772" lon="7.04468">
        <ele>879.2</ele>
        <time>2022-07-19T08:12:12Z</time>
      </trkpt>
      <trkpt lat="44.18774" lon="7.04462">
        <ele>879.2</ele>
        <time>2022-07-19T08:12:13Z</time>
      </trkpt>
      <trkpt lat="44.18776" lon="7.04455">
        <ele>879.4</ele>
        <time>2022-07-19T08:12:14Z</time>
      </trkpt>
      <trkpt lat="44.18778" lon="7.0445">
        <ele>879.4</ele>
        <time>2022-07-19T08:12:15Z</time>
      </trkpt>
      <trkpt lat="44.1878" lon="7.04444">
        <ele>879.4</ele>
        <time>2022-07-19T08:12:16Z</time>
      </trkpt>
      <trkpt lat="44.18782" lon="7.04439">
        <ele>879.8</ele>
        <time>2022-07-19T08:12:17Z</time>
      </trkpt>
      <trkpt lat="44.18784" lon="7.04434">
        <ele>879.8</ele>
        <time>2022-07-19T08:12:18Z</time>
      </trkpt>
      <trkpt lat="44.18786" lon="7.04428">
        <ele>880</ele>
        <time>2022-07-19T08:12:19Z</time>
      </trkpt>
      <trkpt lat="44.18788" lon="7.04423">
        <ele>880</ele>
        <time>2022-07-19T08:12:20Z</time>
      </trkpt>
      <trkpt lat="44.18791" lon="7.04418">
        <ele>880.2</ele>
        <time>2022-07-19T08:12:21Z</time>
      </trkpt>
      <trkpt lat="44.18793" lon="7.04413">
        <ele>880.2</ele>
        <time>2022-07-19T08:12:22Z</time>
      </trkpt>
      <trkpt lat="44.18795" lon="7.04408">
        <ele>880.4</ele>
        <time>2022-07-19T08:12:23Z</time>
      </trkpt>
      <trkpt lat="44.18798" lon="7.04403">
        <ele>880.4</ele>
        <time>2022-07-19T08:12:24Z</time>
      </trkpt>
      <trkpt lat="44.188" lon="7.04398">
        <ele>880.6</ele>
        <time>2022-07-19T08:12:25Z</time>
      </trkpt>
      <trkpt lat="44.18802" lon="7.04393">
        <ele>880.6</ele>
        <time>2022-07-19T08:12:26Z</time>
      </trkpt>
      <trkpt lat="44.18805" lon="7.04388">
        <ele>881</ele>
        <time>2022-07-19T08:12:27Z</time>
      </trkpt>
      <trkpt lat="44.18808" lon="7.04383">
        <ele>881</ele>
        <time>2022-07-19T08:12:28Z</time>
      </trkpt>
      <trkpt lat="44.18811" lon="7.04378">
        <ele>881.2</ele>
        <time>2022-07-19T08:12:29Z</time>
      </trkpt>
      <trkpt lat="44.18814" lon="7.04373">
        <ele>881.2</ele>
        <time>2022-07-19T08:12:30Z</time>
      </trkpt>
      <trkpt lat="44.18817" lon="7.04367">
        <ele>881.4</ele>
        <time>2022-07-19T08:12:31Z</time>
      </trkpt>
      <trkpt lat="44.1882" lon="7.04361">
        <ele>881.4</ele>
        <time>2022-07-19T08:12:32Z</time>
      </trkpt>
      <trkpt lat="44.18823" lon="7.04356">
        <ele>881.6</ele>
        <time>2022-07-19T08:12:33Z</time>
      </trkpt>
      <trkpt lat="44.18825" lon="7.04351">
        <ele>881.6</ele>
        <time>2022-07-19T08:12:34Z</time>
      </trkpt>
      <trkpt lat="44.18828" lon="7.04345">
        <ele>881.6</ele>
        <time>2022-07-19T08:12:35Z</time>
      </trkpt>
      <trkpt lat="44.1883" lon="7.04339">
        <ele>882</ele>
        <time>2022-07-19T08:12:36Z</time>
      </trkpt>
      <trkpt lat="44.18832" lon="7.04333">
        <ele>882</ele>
        <time>2022-07-19T08:12:37Z</time>
      </trkpt>
      <trkpt lat="44.18835" lon="7.04327">
        <ele>882.2</ele>
        <time>2022-07-19T08:12:38Z</time>
      </trkpt>
      <trkpt lat="44.18837" lon="7.04321">
        <ele>882.2</ele>
        <time>2022-07-19T08:12:39Z</time>
      </trkpt>
      <trkpt lat="44.18839" lon="7.04316">
        <ele>882.4</ele>
        <time>2022-07-19T08:12:40Z</time>
      </trkpt>
      <trkpt lat="44.18841" lon="7.04311">
        <ele>882.4</ele>
        <time>2022-07-19T08:12:41Z</time>
      </trkpt>
      <trkpt lat="44.18844" lon="7.04307">
        <ele>882.8</ele>
        <time>2022-07-19T08:12:42Z</time>
      </trkpt>
      <trkpt lat="44.18845" lon="7.04302">
        <ele>882.8</ele>
        <time>2022-07-19T08:12:43Z</time>
      </trkpt>
      <trkpt lat="44.18847" lon="7.04296">
        <ele>882.8</ele>
        <time>2022-07-19T08:12:44Z</time>
      </trkpt>
      <trkpt lat="44.18849" lon="7.0429">
        <ele>883</ele>
        <time>2022-07-19T08:12:45Z</time>
      </trkpt>
      <trkpt lat="44.18851" lon="7.04285">
        <ele>883</ele>
        <time>2022-07-19T08:12:46Z</time>
      </trkpt>
      <trkpt lat="44.18852" lon="7.04279">
        <ele>883.2</ele>
        <time>2022-07-19T08:12:47Z</time>
      </trkpt>
      <trkpt lat="44.18854" lon="7.04273">
        <ele>883.2</ele>
        <time>2022-07-19T08:12:48Z</time>
      </trkpt>
      <trkpt lat="44.18855" lon="7.04267">
        <ele>883.4</ele>
        <time>2022-07-19T08:12:49Z</time>
      </trkpt>
      <trkpt lat="44.18857" lon="7.04261">
        <ele>883.4</ele>
        <time>2022-07-19T08:12:50Z</time>
      </trkpt>
      <trkpt lat="44.18858" lon="7.04254">
        <ele>883.8</ele>
        <time>2022-07-19T08:12:51Z</time>
      </trkpt>
      <trkpt lat="44.1886" lon="7.04248">
        <ele>883.8</ele>
        <time>2022-07-19T08:12:52Z</time>
      </trkpt>
      <trkpt lat="44.18861" lon="7.04242">
        <ele>884</ele>
        <time>2022-07-19T08:12:53Z</time>
      </trkpt>
      <trkpt lat="44.18862" lon="7.04236">
        <ele>884</ele>
        <time>2022-07-19T08:12:54Z</time>
      </trkpt>
      <trkpt lat="44.18863" lon="7.0423">
        <ele>884</ele>
        <time>2022-07-19T08:12:55Z</time>
      </trkpt>
      <trkpt lat="44.18864" lon="7.04224">
        <ele>884.2</ele>
        <time>2022-07-19T08:12:56Z</time>
      </trkpt>
      <trkpt lat="44.18866" lon="7.04218">
        <ele>884.2</ele>
        <time>2022-07-19T08:12:57Z</time>
      </trkpt>
      <trkpt lat="44.18867" lon="7.04213">
        <ele>884.2</ele>
        <time>2022-07-19T08:12:58Z</time>
      </trkpt>
      <trkpt lat="44.18868" lon="7.04207">
        <ele>884.4</ele>
        <time>2022-07-19T08:12:59Z</time>
      </trkpt>
      <trkpt lat="44.1887" lon="7.042">
        <ele>884.4</ele>
        <time>2022-07-19T08:13:00Z</time>
      </trkpt>
      <trkpt lat="44.18871" lon="7.04194">
        <ele>884.6</ele>
        <time>2022-07-19T08:13:01Z</time>
      </trkpt>
      <trkpt lat="44.18873" lon="7.04189">
        <ele>884.6</ele>
        <time>2022-07-19T08:13:02Z</time>
      </trkpt>
      <trkpt lat="44.18874" lon="7.04183">
        <ele>884.6</ele>
        <time>2022-07-19T08:13:03Z</time>
      </trkpt>
      <trkpt lat="44.18876" lon="7.04178">
        <ele>885</ele>
        <time>2022-07-19T08:13:04Z</time>
      </trkpt>
      <trkpt lat="44.18877" lon="7.04172">
        <ele>885</ele>
        <time>2022-07-19T08:13:05Z</time>
      </trkpt>
      <trkpt lat="44.18879" lon="7.04167">
        <ele>885.2</ele>
        <time>2022-07-19T08:13:06Z</time>
      </trkpt>
      <trkpt lat="44.1888" lon="7.04161">
        <ele>885.2</ele>
        <time>2022-07-19T08:13:07Z</time>
      </trkpt>
      <trkpt lat="44.18881" lon="7.04156">
        <ele>885.4</ele>
        <time>2022-07-19T08:13:08Z</time>
      </trkpt>
      <trkpt lat="44.18882" lon="7.0415">
        <ele>885.4</ele>
        <time>2022-07-19T08:13:09Z</time>
      </trkpt>
      <trkpt lat="44.18884" lon="7.04144">
        <ele>885.8</ele>
        <time>2022-07-19T08:13:10Z</time>
      </trkpt>
      <trkpt lat="44.18885" lon="7.04138">
        <ele>885.8</ele>
        <time>2022-07-19T08:13:11Z</time>
      </trkpt>
      <trkpt lat="44.18886" lon="7.04132">
        <ele>886</ele>
        <time>2022-07-19T08:13:12Z</time>
      </trkpt>
      <trkpt lat="44.18887" lon="7.04126">
        <ele>886</ele>
        <time>2022-07-19T08:13:13Z</time>
      </trkpt>
      <trkpt lat="44.18889" lon="7.0412">
        <ele>886</ele>
        <time>2022-07-19T08:13:14Z</time>
      </trkpt>
      <trkpt lat="44.1889" lon="7.04115">
        <ele>886.4</ele>
        <time>2022-07-19T08:13:15Z</time>
      </trkpt>
      <trkpt lat="44.18892" lon="7.04109">
        <ele>886.4</ele>
        <time>2022-07-19T08:13:16Z</time>
      </trkpt>
      <trkpt lat="44.18893" lon="7.04104">
        <ele>886.6</ele>
        <time>2022-07-19T08:13:17Z</time>
      </trkpt>
      <trkpt lat="44.18895" lon="7.04098">
        <ele>886.8</ele>
        <time>2022-07-19T08:13:18Z</time>
      </trkpt>
      <trkpt lat="44.18896" lon="7.04093">
        <ele>886.8</ele>
        <time>2022-07-19T08:13:19Z</time>
      </trkpt>
      <trkpt lat="44.18897" lon="7.04088">
        <ele>886.8</ele>
        <time>2022-07-19T08:13:20Z</time>
      </trkpt>
      <trkpt lat="44.18898" lon="7.04083">
        <ele>886.8</ele>
        <time>2022-07-19T08:13:21Z</time>
      </trkpt>
      <trkpt lat="44.189" lon="7.04078">
        <ele>887.2</ele>
        <time>2022-07-19T08:13:22Z</time>
      </trkpt>
      <trkpt lat="44.18901" lon="7.04073">
        <ele>887.2</ele>
        <time>2022-07-19T08:13:23Z</time>
      </trkpt>
      <trkpt lat="44.18902" lon="7.04067">
        <ele>887.4</ele>
        <time>2022-07-19T08:13:24Z</time>
      </trkpt>
      <trkpt lat="44.18903" lon="7.04062">
        <ele>887.4</ele>
        <time>2022-07-19T08:13:25Z</time>
      </trkpt>
      <trkpt lat="44.18904" lon="7.04058">
        <ele>887.8</ele>
        <time>2022-07-19T08:13:26Z</time>
      </trkpt>
      <trkpt lat="44.18905" lon="7.04052">
        <ele>887.8</ele>
        <time>2022-07-19T08:13:27Z</time>
      </trkpt>
      <trkpt lat="44.18906" lon="7.04047">
        <ele>887.8</ele>
        <time>2022-07-19T08:13:28Z</time>
      </trkpt>
      <trkpt lat="44.18907" lon="7.04042">
        <ele>888</ele>
        <time>2022-07-19T08:13:29Z</time>
      </trkpt>
      <trkpt lat="44.18907" lon="7.04037">
        <ele>888</ele>
        <time>2022-07-19T08:13:30Z</time>
      </trkpt>
      <trkpt lat="44.18908" lon="7.04032">
        <ele>888.4</ele>
        <time>2022-07-19T08:13:31Z</time>
      </trkpt>
      <trkpt lat="44.18908" lon="7.04026">
        <ele>888.4</ele>
        <time>2022-07-19T08:13:32Z</time>
      </trkpt>
      <trkpt lat="44.18908" lon="7.04021">
        <ele>888.6</ele>
        <time>2022-07-19T08:13:33Z</time>
      </trkpt>
      <trkpt lat="44.18909" lon="7.04015">
        <ele>888.6</ele>
        <time>2022-07-19T08:13:34Z</time>
      </trkpt>
      <trkpt lat="44.18909" lon="7.0401">
        <ele>889</ele>
        <time>2022-07-19T08:13:35Z</time>
      </trkpt>
      <trkpt lat="44.18909" lon="7.04004">
        <ele>889</ele>
        <time>2022-07-19T08:13:36Z</time>
      </trkpt>
      <trkpt lat="44.18909" lon="7.03999">
        <ele>889</ele>
        <time>2022-07-19T08:13:37Z</time>
      </trkpt>
      <trkpt lat="44.18909" lon="7.03993">
        <ele>889.2</ele>
        <time>2022-07-19T08:13:38Z</time>
      </trkpt>
      <trkpt lat="44.1891" lon="7.03987">
        <ele>889.2</ele>
        <time>2022-07-19T08:13:39Z</time>
      </trkpt>
      <trkpt lat="44.1891" lon="7.03982">
        <ele>889.4</ele>
        <time>2022-07-19T08:13:40Z</time>
      </trkpt>
      <trkpt lat="44.1891" lon="7.03977">
        <ele>889.4</ele>
        <time>2022-07-19T08:13:41Z</time>
      </trkpt>
      <trkpt lat="44.1891" lon="7.03972">
        <ele>889.8</ele>
        <time>2022-07-19T08:13:42Z</time>
      </trkpt>
      <trkpt lat="44.18911" lon="7.03966">
        <ele>889.8</ele>
        <time>2022-07-19T08:13:43Z</time>
      </trkpt>
      <trkpt lat="44.18911" lon="7.03961">
        <ele>889.8</ele>
        <time>2022-07-19T08:13:44Z</time>
      </trkpt>
      <trkpt lat="44.18911" lon="7.03955">
        <ele>890</ele>
        <time>2022-07-19T08:13:45Z</time>
      </trkpt>
      <trkpt lat="44.18912" lon="7.03949">
        <ele>890</ele>
        <time>2022-07-19T08:13:46Z</time>
      </trkpt>
      <trkpt lat="44.18913" lon="7.03944">
        <ele>890</ele>
        <time>2022-07-19T08:13:47Z</time>
      </trkpt>
      <trkpt lat="44.18914" lon="7.03938">
        <ele>890.4</ele>
        <time>2022-07-19T08:13:48Z</time>
      </trkpt>
      <trkpt lat="44.18915" lon="7.03932">
        <ele>890.4</ele>
        <time>2022-07-19T08:13:49Z</time>
      </trkpt>
      <trkpt lat="44.18916" lon="7.03926">
        <ele>890.4</ele>
        <time>2022-07-19T08:13:50Z</time>
      </trkpt>
      <trkpt lat="44.18918" lon="7.0392">
        <ele>890.6</ele>
        <time>2022-07-19T08:13:51Z</time>
      </trkpt>
      <trkpt lat="44.18919" lon="7.03915">
        <ele>890.6</ele>
        <time>2022-07-19T08:13:52Z</time>
      </trkpt>
      <trkpt lat="44.18921" lon="7.03909">
        <ele>890.6</ele>
        <time>2022-07-19T08:13:53Z</time>
      </trkpt>
      <trkpt lat="44.18922" lon="7.03904">
        <ele>890.8</ele>
        <time>2022-07-19T08:13:54Z</time>
      </trkpt>
      <trkpt lat="44.18924" lon="7.03898">
        <ele>890.8</ele>
        <time>2022-07-19T08:13:55Z</time>
      </trkpt>
      <trkpt lat="44.18925" lon="7.03892">
        <ele>890.8</ele>
        <time>2022-07-19T08:13:56Z</time>
      </trkpt>
      <trkpt lat="44.18926" lon="7.03886">
        <ele>890.8</ele>
        <time>2022-07-19T08:13:57Z</time>
      </trkpt>
      <trkpt lat="44.18927" lon="7.0388">
        <ele>890.8</ele>
        <time>2022-07-19T08:13:58Z</time>
      </trkpt>
      <trkpt lat="44.18928" lon="7.03874">
        <ele>890.8</ele>
        <time>2022-07-19T08:13:59Z</time>
      </trkpt>
      <trkpt lat="44.18929" lon="7.03868">
        <ele>890.8</ele>
        <time>2022-07-19T08:14:00Z</time>
      </trkpt>
      <trkpt lat="44.1893" lon="7.03862">
        <ele>891</ele>
        <time>2022-07-19T08:14:01Z</time>
      </trkpt>
      <trkpt lat="44.18931" lon="7.03856">
        <ele>891</ele>
        <time>2022-07-19T08:14:02Z</time>
      </trkpt>
      <trkpt lat="44.18932" lon="7.03851">
        <ele>891</ele>
        <time>2022-07-19T08:14:03Z</time>
      </trkpt>
      <trkpt lat="44.18934" lon="7.03845">
        <ele>891</ele>
        <time>2022-07-19T08:14:04Z</time>
      </trkpt>
      <trkpt lat="44.18935" lon="7.0384">
        <ele>891</ele>
        <time>2022-07-19T08:14:05Z</time>
      </trkpt>
      <trkpt lat="44.18936" lon="7.03834">
        <ele>891</ele>
        <time>2022-07-19T08:14:06Z</time>
      </trkpt>
      <trkpt lat="44.18938" lon="7.03829">
        <ele>891.2</ele>
        <time>2022-07-19T08:14:07Z</time>
      </trkpt>
      <trkpt lat="44.18939" lon="7.03823">
        <ele>891.2</ele>
        <time>2022-07-19T08:14:08Z</time>
      </trkpt>
      <trkpt lat="44.18941" lon="7.03818">
        <ele>891.2</ele>
        <time>2022-07-19T08:14:09Z</time>
      </trkpt>
      <trkpt lat="44.18942" lon="7.03813">
        <ele>891.2</ele>
        <time>2022-07-19T08:14:10Z</time>
      </trkpt>
      <trkpt lat="44.18944" lon="7.03808">
        <ele>891.2</ele>
        <time>2022-07-19T08:14:11Z</time>
      </trkpt>
      <trkpt lat="44.18946" lon="7.03802">
        <ele>891.2</ele>
        <time>2022-07-19T08:14:12Z</time>
      </trkpt>
      <trkpt lat="44.18948" lon="7.03797">
        <ele>891.4</ele>
        <time>2022-07-19T08:14:13Z</time>
      </trkpt>
      <trkpt lat="44.18949" lon="7.03792">
        <ele>891.4</ele>
        <time>2022-07-19T08:14:14Z</time>
      </trkpt>
      <trkpt lat="44.1895" lon="7.03787">
        <ele>891.4</ele>
        <time>2022-07-19T08:14:15Z</time>
      </trkpt>
      <trkpt lat="44.18952" lon="7.03781">
        <ele>891.8</ele>
        <time>2022-07-19T08:14:16Z</time>
      </trkpt>
      <trkpt lat="44.18954" lon="7.03776">
        <ele>891.8</ele>
        <time>2022-07-19T08:14:17Z</time>
      </trkpt>
      <trkpt lat="44.18955" lon="7.0377">
        <ele>891.8</ele>
        <time>2022-07-19T08:14:18Z</time>
      </trkpt>
      <trkpt lat="44.18957" lon="7.03764">
        <ele>892</ele>
        <time>2022-07-19T08:14:19Z</time>
      </trkpt>
      <trkpt lat="44.18958" lon="7.03759">
        <ele>892</ele>
        <time>2022-07-19T08:14:20Z</time>
      </trkpt>
      <trkpt lat="44.18959" lon="7.03753">
        <ele>892</ele>
        <time>2022-07-19T08:14:21Z</time>
      </trkpt>
      <trkpt lat="44.18959" lon="7.03746">
        <ele>892.4</ele>
        <time>2022-07-19T08:14:22Z</time>
      </trkpt>
      <trkpt lat="44.18961" lon="7.0374">
        <ele>892.4</ele>
        <time>2022-07-19T08:14:23Z</time>
      </trkpt>
      <trkpt lat="44.18962" lon="7.03735">
        <ele>892.6</ele>
        <time>2022-07-19T08:14:24Z</time>
      </trkpt>
      <trkpt lat="44.18963" lon="7.0373">
        <ele>892.6</ele>
        <time>2022-07-19T08:14:25Z</time>
      </trkpt>
      <trkpt lat="44.18965" lon="7.03724">
        <ele>892.8</ele>
        <time>2022-07-19T08:14:26Z</time>
      </trkpt>
      <trkpt lat="44.18966" lon="7.03719">
        <ele>892.8</ele>
        <time>2022-07-19T08:14:27Z</time>
      </trkpt>
      <trkpt lat="44.18967" lon="7.03714">
        <ele>893.2</ele>
        <time>2022-07-19T08:14:28Z</time>
      </trkpt>
      <trkpt lat="44.18968" lon="7.03708">
        <ele>893.2</ele>
        <time>2022-07-19T08:14:29Z</time>
      </trkpt>
      <trkpt lat="44.18969" lon="7.03703">
        <ele>893.4</ele>
        <time>2022-07-19T08:14:30Z</time>
      </trkpt>
      <trkpt lat="44.18971" lon="7.03698">
        <ele>893.4</ele>
        <time>2022-07-19T08:14:31Z</time>
      </trkpt>
      <trkpt lat="44.18972" lon="7.03693">
        <ele>893.8</ele>
        <time>2022-07-19T08:14:32Z</time>
      </trkpt>
      <trkpt lat="44.18972" lon="7.03687">
        <ele>893.8</ele>
        <time>2022-07-19T08:14:33Z</time>
      </trkpt>
      <trkpt lat="44.18973" lon="7.03682">
        <ele>894</ele>
        <time>2022-07-19T08:14:34Z</time>
      </trkpt>
      <trkpt lat="44.18974" lon="7.03677">
        <ele>894</ele>
        <time>2022-07-19T08:14:35Z</time>
      </trkpt>
      <trkpt lat="44.18975" lon="7.03671">
        <ele>894.2</ele>
        <time>2022-07-19T08:14:36Z</time>
      </trkpt>
      <trkpt lat="44.18976" lon="7.03666">
        <ele>894.2</ele>
        <time>2022-07-19T08:14:37Z</time>
      </trkpt>
      <trkpt lat="44.18977" lon="7.0366">
        <ele>894.6</ele>
        <time>2022-07-19T08:14:38Z</time>
      </trkpt>
      <trkpt lat="44.18978" lon="7.03654">
        <ele>894.6</ele>
        <time>2022-07-19T08:14:39Z</time>
      </trkpt>
      <trkpt lat="44.18979" lon="7.03649">
        <ele>894.8</ele>
        <time>2022-07-19T08:14:40Z</time>
      </trkpt>
      <trkpt lat="44.18981" lon="7.03644">
        <ele>894.8</ele>
        <time>2022-07-19T08:14:41Z</time>
      </trkpt>
      <trkpt lat="44.18982" lon="7.03639">
        <ele>895</ele>
        <time>2022-07-19T08:14:42Z</time>
      </trkpt>
      <trkpt lat="44.18984" lon="7.03634">
        <ele>895</ele>
        <time>2022-07-19T08:14:43Z</time>
      </trkpt>
      <trkpt lat="44.18985" lon="7.03629">
        <ele>895.4</ele>
        <time>2022-07-19T08:14:44Z</time>
      </trkpt>
      <trkpt lat="44.18986" lon="7.03623">
        <ele>895.4</ele>
        <time>2022-07-19T08:14:45Z</time>
      </trkpt>
      <trkpt lat="44.18987" lon="7.03618">
        <ele>895.4</ele>
        <time>2022-07-19T08:14:46Z</time>
      </trkpt>
      <trkpt lat="44.18988" lon="7.03612">
        <ele>895.6</ele>
        <time>2022-07-19T08:14:47Z</time>
      </trkpt>
      <trkpt lat="44.1899" lon="7.03607">
        <ele>895.6</ele>
        <time>2022-07-19T08:14:48Z</time>
      </trkpt>
      <trkpt lat="44.18991" lon="7.03601">
        <ele>895.8</ele>
        <time>2022-07-19T08:14:49Z</time>
      </trkpt>
      <trkpt lat="44.18992" lon="7.03596">
        <ele>895.8</ele>
        <time>2022-07-19T08:14:50Z</time>
      </trkpt>
      <trkpt lat="44.18993" lon="7.03591">
        <ele>896</ele>
        <time>2022-07-19T08:14:51Z</time>
      </trkpt>
      <trkpt lat="44.18993" lon="7.03586">
        <ele>896</ele>
        <time>2022-07-19T08:14:52Z</time>
      </trkpt>
      <trkpt lat="44.18994" lon="7.0358">
        <ele>896</ele>
        <time>2022-07-19T08:14:53Z</time>
      </trkpt>
      <trkpt lat="44.18994" lon="7.03574">
        <ele>896.2</ele>
        <time>2022-07-19T08:14:54Z</time>
      </trkpt>
      <trkpt lat="44.18995" lon="7.03569">
        <ele>896.4</ele>
        <time>2022-07-19T08:14:55Z</time>
      </trkpt>
      <trkpt lat="44.18995" lon="7.03563">
        <ele>896.4</ele>
        <time>2022-07-19T08:14:56Z</time>
      </trkpt>
      <trkpt lat="44.18996" lon="7.03558">
        <ele>896.8</ele>
        <time>2022-07-19T08:14:57Z</time>
      </trkpt>
      <trkpt lat="44.18996" lon="7.03553">
        <ele>896.8</ele>
        <time>2022-07-19T08:14:58Z</time>
      </trkpt>
      <trkpt lat="44.18996" lon="7.03548">
        <ele>897</ele>
        <time>2022-07-19T08:14:59Z</time>
      </trkpt>
      <trkpt lat="44.18996" lon="7.03542">
        <ele>897</ele>
        <time>2022-07-19T08:15:00Z</time>
      </trkpt>
      <trkpt lat="44.18997" lon="7.03536">
        <ele>897.2</ele>
        <time>2022-07-19T08:15:01Z</time>
      </trkpt>
      <trkpt lat="44.18997" lon="7.03531">
        <ele>897.2</ele>
        <time>2022-07-19T08:15:02Z</time>
      </trkpt>
      <trkpt lat="44.18998" lon="7.03525">
        <ele>897.2</ele>
        <time>2022-07-19T08:15:03Z</time>
      </trkpt>
      <trkpt lat="44.18998" lon="7.0352">
        <ele>897.4</ele>
        <time>2022-07-19T08:15:04Z</time>
      </trkpt>
      <trkpt lat="44.18999" lon="7.03515">
        <ele>897.6</ele>
        <time>2022-07-19T08:15:05Z</time>
      </trkpt>
      <trkpt lat="44.18999" lon="7.03509">
        <ele>897.6</ele>
        <time>2022-07-19T08:15:06Z</time>
      </trkpt>
      <trkpt lat="44.19" lon="7.03504">
        <ele>898</ele>
        <time>2022-07-19T08:15:07Z</time>
      </trkpt>
      <trkpt lat="44.19001" lon="7.03499">
        <ele>898</ele>
        <time>2022-07-19T08:15:08Z</time>
      </trkpt>
      <trkpt lat="44.19002" lon="7.03494">
        <ele>898</ele>
        <time>2022-07-19T08:15:09Z</time>
      </trkpt>
      <trkpt lat="44.19002" lon="7.03488">
        <ele>898.2</ele>
        <time>2022-07-19T08:15:10Z</time>
      </trkpt>
      <trkpt lat="44.19003" lon="7.03483">
        <ele>898.2</ele>
        <time>2022-07-19T08:15:11Z</time>
      </trkpt>
      <trkpt lat="44.19004" lon="7.03478">
        <ele>898.2</ele>
        <time>2022-07-19T08:15:12Z</time>
      </trkpt>
      <trkpt lat="44.19005" lon="7.03473">
        <ele>898.6</ele>
        <time>2022-07-19T08:15:13Z</time>
      </trkpt>
      <trkpt lat="44.19007" lon="7.03468">
        <ele>898.6</ele>
        <time>2022-07-19T08:15:14Z</time>
      </trkpt>
      <trkpt lat="44.19008" lon="7.03462">
        <ele>898.6</ele>
        <time>2022-07-19T08:15:15Z</time>
      </trkpt>
      <trkpt lat="44.19009" lon="7.03457">
        <ele>898.8</ele>
        <time>2022-07-19T08:15:16Z</time>
      </trkpt>
      <trkpt lat="44.19011" lon="7.03452">
        <ele>898.8</ele>
        <time>2022-07-19T08:15:17Z</time>
      </trkpt>
      <trkpt lat="44.19012" lon="7.03447">
        <ele>899.2</ele>
        <time>2022-07-19T08:15:18Z</time>
      </trkpt>
      <trkpt lat="44.19013" lon="7.03442">
        <ele>899.4</ele>
        <time>2022-07-19T08:15:19Z</time>
      </trkpt>
      <trkpt lat="44.19015" lon="7.03436">
        <ele>899.4</ele>
        <time>2022-07-19T08:15:20Z</time>
      </trkpt>
      <trkpt lat="44.19016" lon="7.03431">
        <ele>899.8</ele>
        <time>2022-07-19T08:15:21Z</time>
      </trkpt>
      <trkpt lat="44.19018" lon="7.03425">
        <ele>899.8</ele>
        <time>2022-07-19T08:15:22Z</time>
      </trkpt>
      <trkpt lat="44.19019" lon="7.03419">
        <ele>900</ele>
        <time>2022-07-19T08:15:23Z</time>
      </trkpt>
      <trkpt lat="44.1902" lon="7.03413">
        <ele>900</ele>
        <time>2022-07-19T08:15:24Z</time>
      </trkpt>
      <trkpt lat="44.19021" lon="7.03408">
        <ele>900.2</ele>
        <time>2022-07-19T08:15:25Z</time>
      </trkpt>
      <trkpt lat="44.19022" lon="7.03402">
        <ele>900.2</ele>
        <time>2022-07-19T08:15:26Z</time>
      </trkpt>
      <trkpt lat="44.19023" lon="7.03396">
        <ele>900.4</ele>
        <time>2022-07-19T08:15:27Z</time>
      </trkpt>
      <trkpt lat="44.19025" lon="7.03391">
        <ele>900.4</ele>
        <time>2022-07-19T08:15:28Z</time>
      </trkpt>
      <trkpt lat="44.19027" lon="7.03386">
        <ele>900.4</ele>
        <time>2022-07-19T08:15:29Z</time>
      </trkpt>
      <trkpt lat="44.19028" lon="7.0338">
        <ele>900.8</ele>
        <time>2022-07-19T08:15:30Z</time>
      </trkpt>
      <trkpt lat="44.1903" lon="7.03374">
        <ele>900.8</ele>
        <time>2022-07-19T08:15:31Z</time>
      </trkpt>
      <trkpt lat="44.19032" lon="7.03368">
        <ele>900.8</ele>
        <time>2022-07-19T08:15:32Z</time>
      </trkpt>
      <trkpt lat="44.19034" lon="7.03362">
        <ele>901</ele>
        <time>2022-07-19T08:15:33Z</time>
      </trkpt>
      <trkpt lat="44.19036" lon="7.03356">
        <ele>901</ele>
        <time>2022-07-19T08:15:34Z</time>
      </trkpt>
      <trkpt lat="44.19037" lon="7.0335">
        <ele>901</ele>
        <time>2022-07-19T08:15:35Z</time>
      </trkpt>
      <trkpt lat="44.19038" lon="7.03344">
        <ele>901</ele>
        <time>2022-07-19T08:15:36Z</time>
      </trkpt>
      <trkpt lat="44.19039" lon="7.03338">
        <ele>901.2</ele>
        <time>2022-07-19T08:15:37Z</time>
      </trkpt>
      <trkpt lat="44.1904" lon="7.03332">
        <ele>901.2</ele>
        <time>2022-07-19T08:15:38Z</time>
      </trkpt>
      <trkpt lat="44.19041" lon="7.03326">
        <ele>901.2</ele>
        <time>2022-07-19T08:15:39Z</time>
      </trkpt>
      <trkpt lat="44.19042" lon="7.0332">
        <ele>901.2</ele>
        <time>2022-07-19T08:15:40Z</time>
      </trkpt>
      <trkpt lat="44.19042" lon="7.03314">
        <ele>901.2</ele>
        <time>2022-07-19T08:15:41Z</time>
      </trkpt>
      <trkpt lat="44.19043" lon="7.03308">
        <ele>901.2</ele>
        <time>2022-07-19T08:15:42Z</time>
      </trkpt>
      <trkpt lat="44.19044" lon="7.03302">
        <ele>901.2</ele>
        <time>2022-07-19T08:15:43Z</time>
      </trkpt>
      <trkpt lat="44.19044" lon="7.03296">
        <ele>901.2</ele>
        <time>2022-07-19T08:15:44Z</time>
      </trkpt>
      <trkpt lat="44.19045" lon="7.0329">
        <ele>901.2</ele>
        <time>2022-07-19T08:15:45Z</time>
      </trkpt>
      <trkpt lat="44.19046" lon="7.03284">
        <ele>901.2</ele>
        <time>2022-07-19T08:15:46Z</time>
      </trkpt>
      <trkpt lat="44.19047" lon="7.03278">
        <ele>901.2</ele>
        <time>2022-07-19T08:15:47Z</time>
      </trkpt>
      <trkpt lat="44.19047" lon="7.03272">
        <ele>901.4</ele>
        <time>2022-07-19T08:15:48Z</time>
      </trkpt>
      <trkpt lat="44.19048" lon="7.03266">
        <ele>901.4</ele>
        <time>2022-07-19T08:15:49Z</time>
      </trkpt>
      <trkpt lat="44.19048" lon="7.03261">
        <ele>901.4</ele>
        <time>2022-07-19T08:15:50Z</time>
      </trkpt>
      <trkpt lat="44.19049" lon="7.03255">
        <ele>901.4</ele>
        <time>2022-07-19T08:15:51Z</time>
      </trkpt>
      <trkpt lat="44.1905" lon="7.03248">
        <ele>901.4</ele>
        <time>2022-07-19T08:15:52Z</time>
      </trkpt>
      <trkpt lat="44.19051" lon="7.03242">
        <ele>901.8</ele>
        <time>2022-07-19T08:15:53Z</time>
      </trkpt>
      <trkpt lat="44.19053" lon="7.03236">
        <ele>901.8</ele>
        <time>2022-07-19T08:15:54Z</time>
      </trkpt>
      <trkpt lat="44.19054" lon="7.0323">
        <ele>901.8</ele>
        <time>2022-07-19T08:15:55Z</time>
      </trkpt>
      <trkpt lat="44.19055" lon="7.03224">
        <ele>901.8</ele>
        <time>2022-07-19T08:15:56Z</time>
      </trkpt>
      <trkpt lat="44.19056" lon="7.03218">
        <ele>901.8</ele>
        <time>2022-07-19T08:15:57Z</time>
      </trkpt>
      <trkpt lat="44.19056" lon="7.03213">
        <ele>901.8</ele>
        <time>2022-07-19T08:15:58Z</time>
      </trkpt>
      <trkpt lat="44.19057" lon="7.03207">
        <ele>901.8</ele>
        <time>2022-07-19T08:15:59Z</time>
      </trkpt>
      <trkpt lat="44.19059" lon="7.03201">
        <ele>901.8</ele>
        <time>2022-07-19T08:16:00Z</time>
      </trkpt>
      <trkpt lat="44.19059" lon="7.03195">
        <ele>902</ele>
        <time>2022-07-19T08:16:01Z</time>
      </trkpt>
      <trkpt lat="44.19059" lon="7.03189">
        <ele>902</ele>
        <time>2022-07-19T08:16:02Z</time>
      </trkpt>
      <trkpt lat="44.1906" lon="7.03183">
        <ele>902</ele>
        <time>2022-07-19T08:16:03Z</time>
      </trkpt>
      <trkpt lat="44.1906" lon="7.03177">
        <ele>902</ele>
        <time>2022-07-19T08:16:04Z</time>
      </trkpt>
      <trkpt lat="44.1906" lon="7.03172">
        <ele>902.4</ele>
        <time>2022-07-19T08:16:05Z</time>
      </trkpt>
      <trkpt lat="44.1906" lon="7.03166">
        <ele>902.4</ele>
        <time>2022-07-19T08:16:06Z</time>
      </trkpt>
      <trkpt lat="44.19061" lon="7.03161">
        <ele>902.4</ele>
        <time>2022-07-19T08:16:07Z</time>
      </trkpt>
      <trkpt lat="44.19061" lon="7.03155">
        <ele>902.8</ele>
        <time>2022-07-19T08:16:08Z</time>
      </trkpt>
      <trkpt lat="44.19061" lon="7.0315">
        <ele>902.8</ele>
        <time>2022-07-19T08:16:09Z</time>
      </trkpt>
      <trkpt lat="44.19062" lon="7.03145">
        <ele>903</ele>
        <time>2022-07-19T08:16:10Z</time>
      </trkpt>
      <trkpt lat="44.19062" lon="7.03139">
        <ele>903</ele>
        <time>2022-07-19T08:16:11Z</time>
      </trkpt>
      <trkpt lat="44.19062" lon="7.03134">
        <ele>903</ele>
        <time>2022-07-19T08:16:12Z</time>
      </trkpt>
      <trkpt lat="44.19063" lon="7.03128">
        <ele>903.2</ele>
        <time>2022-07-19T08:16:13Z</time>
      </trkpt>
      <trkpt lat="44.19063" lon="7.03123">
        <ele>903.2</ele>
        <time>2022-07-19T08:16:14Z</time>
      </trkpt>
      <trkpt lat="44.19063" lon="7.03118">
        <ele>903.4</ele>
        <time>2022-07-19T08:16:15Z</time>
      </trkpt>
      <trkpt lat="44.19063" lon="7.03112">
        <ele>903.4</ele>
        <time>2022-07-19T08:16:16Z</time>
      </trkpt>
      <trkpt lat="44.19063" lon="7.03107">
        <ele>903.8</ele>
        <time>2022-07-19T08:16:17Z</time>
      </trkpt>
      <trkpt lat="44.19063" lon="7.03101">
        <ele>903.8</ele>
        <time>2022-07-19T08:16:18Z</time>
      </trkpt>
      <trkpt lat="44.19063" lon="7.03096">
        <ele>904</ele>
        <time>2022-07-19T08:16:19Z</time>
      </trkpt>
      <trkpt lat="44.19063" lon="7.0309">
        <ele>904</ele>
        <time>2022-07-19T08:16:20Z</time>
      </trkpt>
      <trkpt lat="44.19063" lon="7.03085">
        <ele>904.4</ele>
        <time>2022-07-19T08:16:21Z</time>
      </trkpt>
      <trkpt lat="44.19063" lon="7.03079">
        <ele>904.4</ele>
        <time>2022-07-19T08:16:22Z</time>
      </trkpt>
      <trkpt lat="44.19063" lon="7.03073">
        <ele>904.6</ele>
        <time>2022-07-19T08:16:23Z</time>
      </trkpt>
      <trkpt lat="44.19063" lon="7.03068">
        <ele>904.8</ele>
        <time>2022-07-19T08:16:24Z</time>
      </trkpt>
      <trkpt lat="44.19062" lon="7.03062">
        <ele>904.8</ele>
        <time>2022-07-19T08:16:25Z</time>
      </trkpt>
      <trkpt lat="44.19062" lon="7.03056">
        <ele>904.8</ele>
        <time>2022-07-19T08:16:26Z</time>
      </trkpt>
      <trkpt lat="44.19062" lon="7.03051">
        <ele>905.2</ele>
        <time>2022-07-19T08:16:27Z</time>
      </trkpt>
      <trkpt lat="44.19061" lon="7.03045">
        <ele>905.2</ele>
        <time>2022-07-19T08:16:28Z</time>
      </trkpt>
      <trkpt lat="44.19061" lon="7.03039">
        <ele>905.4</ele>
        <time>2022-07-19T08:16:29Z</time>
      </trkpt>
      <trkpt lat="44.19061" lon="7.03033">
        <ele>905.4</ele>
        <time>2022-07-19T08:16:30Z</time>
      </trkpt>
      <trkpt lat="44.1906" lon="7.03028">
        <ele>905.8</ele>
        <time>2022-07-19T08:16:31Z</time>
      </trkpt>
      <trkpt lat="44.1906" lon="7.03022">
        <ele>906</ele>
        <time>2022-07-19T08:16:32Z</time>
      </trkpt>
      <trkpt lat="44.19059" lon="7.03016">
        <ele>906</ele>
        <time>2022-07-19T08:16:33Z</time>
      </trkpt>
      <trkpt lat="44.19059" lon="7.03011">
        <ele>906.4</ele>
        <time>2022-07-19T08:16:34Z</time>
      </trkpt>
      <trkpt lat="44.19058" lon="7.03005">
        <ele>906.4</ele>
        <time>2022-07-19T08:16:35Z</time>
      </trkpt>
      <trkpt lat="44.19057" lon="7.02999">
        <ele>906.4</ele>
        <time>2022-07-19T08:16:36Z</time>
      </trkpt>
      <trkpt lat="44.19057" lon="7.02994">
        <ele>906.6</ele>
        <time>2022-07-19T08:16:37Z</time>
      </trkpt>
      <trkpt lat="44.19056" lon="7.02988">
        <ele>906.6</ele>
        <time>2022-07-19T08:16:38Z</time>
      </trkpt>
      <trkpt lat="44.19055" lon="7.02982">
        <ele>906.8</ele>
        <time>2022-07-19T08:16:39Z</time>
      </trkpt>
      <trkpt lat="44.19055" lon="7.02977">
        <ele>906.8</ele>
        <time>2022-07-19T08:16:40Z</time>
      </trkpt>
      <trkpt lat="44.19053" lon="7.02971">
        <ele>906.8</ele>
        <time>2022-07-19T08:16:41Z</time>
      </trkpt>
      <trkpt lat="44.19052" lon="7.02966">
        <ele>906.8</ele>
        <time>2022-07-19T08:16:42Z</time>
      </trkpt>
      <trkpt lat="44.19051" lon="7.0296">
        <ele>907.2</ele>
        <time>2022-07-19T08:16:43Z</time>
      </trkpt>
      <trkpt lat="44.1905" lon="7.02954">
        <ele>907.2</ele>
        <time>2022-07-19T08:16:44Z</time>
      </trkpt>
      <trkpt lat="44.19049" lon="7.02949">
        <ele>907.4</ele>
        <time>2022-07-19T08:16:45Z</time>
      </trkpt>
      <trkpt lat="44.19048" lon="7.02943">
        <ele>907.4</ele>
        <time>2022-07-19T08:16:46Z</time>
      </trkpt>
      <trkpt lat="44.19046" lon="7.02937">
        <ele>907.6</ele>
        <time>2022-07-19T08:16:47Z</time>
      </trkpt>
      <trkpt lat="44.19045" lon="7.02931">
        <ele>907.6</ele>
        <time>2022-07-19T08:16:48Z</time>
      </trkpt>
      <trkpt lat="44.19043" lon="7.02925">
        <ele>907.6</ele>
        <time>2022-07-19T08:16:49Z</time>
      </trkpt>
      <trkpt lat="44.19042" lon="7.02919">
        <ele>908</ele>
        <time>2022-07-19T08:16:50Z</time>
      </trkpt>
      <trkpt lat="44.19041" lon="7.02913">
        <ele>908</ele>
        <time>2022-07-19T08:16:51Z</time>
      </trkpt>
      <trkpt lat="44.19039" lon="7.02907">
        <ele>908</ele>
        <time>2022-07-19T08:16:52Z</time>
      </trkpt>
      <trkpt lat="44.19038" lon="7.02901">
        <ele>908</ele>
        <time>2022-07-19T08:16:53Z</time>
      </trkpt>
      <trkpt lat="44.19037" lon="7.02895">
        <ele>908.2</ele>
        <time>2022-07-19T08:16:54Z</time>
      </trkpt>
      <trkpt lat="44.19036" lon="7.02889">
        <ele>908.2</ele>
        <time>2022-07-19T08:16:55Z</time>
      </trkpt>
      <trkpt lat="44.19034" lon="7.02883">
        <ele>908.2</ele>
        <time>2022-07-19T08:16:56Z</time>
      </trkpt>
      <trkpt lat="44.19033" lon="7.02877">
        <ele>908.6</ele>
        <time>2022-07-19T08:16:57Z</time>
      </trkpt>
      <trkpt lat="44.19032" lon="7.02871">
        <ele>908.6</ele>
        <time>2022-07-19T08:16:58Z</time>
      </trkpt>
      <trkpt lat="44.19031" lon="7.02865">
        <ele>908.8</ele>
        <time>2022-07-19T08:16:59Z</time>
      </trkpt>
      <trkpt lat="44.1903" lon="7.02859">
        <ele>908.8</ele>
        <time>2022-07-19T08:17:00Z</time>
      </trkpt>
      <trkpt lat="44.19029" lon="7.02854">
        <ele>909</ele>
        <time>2022-07-19T08:17:01Z</time>
      </trkpt>
      <trkpt lat="44.19028" lon="7.02848">
        <ele>909</ele>
        <time>2022-07-19T08:17:02Z</time>
      </trkpt>
      <trkpt lat="44.19027" lon="7.02842">
        <ele>909</ele>
        <time>2022-07-19T08:17:03Z</time>
      </trkpt>
      <trkpt lat="44.19026" lon="7.02836">
        <ele>909.2</ele>
        <time>2022-07-19T08:17:04Z</time>
      </trkpt>
      <trkpt lat="44.19025" lon="7.0283">
        <ele>909.2</ele>
        <time>2022-07-19T08:17:05Z</time>
      </trkpt>
      <trkpt lat="44.19024" lon="7.02825">
        <ele>909.2</ele>
        <time>2022-07-19T08:17:06Z</time>
      </trkpt>
      <trkpt lat="44.19022" lon="7.02819">
        <ele>909.2</ele>
        <time>2022-07-19T08:17:07Z</time>
      </trkpt>
      <trkpt lat="44.19021" lon="7.02813">
        <ele>909.6</ele>
        <time>2022-07-19T08:17:08Z</time>
      </trkpt>
      <trkpt lat="44.1902" lon="7.02808">
        <ele>909.6</ele>
        <time>2022-07-19T08:17:09Z</time>
      </trkpt>
      <trkpt lat="44.19018" lon="7.02802">
        <ele>909.6</ele>
        <time>2022-07-19T08:17:10Z</time>
      </trkpt>
      <trkpt lat="44.19016" lon="7.02797">
        <ele>909.8</ele>
        <time>2022-07-19T08:17:11Z</time>
      </trkpt>
      <trkpt lat="44.19015" lon="7.02792">
        <ele>909.8</ele>
        <time>2022-07-19T08:17:12Z</time>
      </trkpt>
      <trkpt lat="44.19013" lon="7.02786">
        <ele>909.8</ele>
        <time>2022-07-19T08:17:13Z</time>
      </trkpt>
      <trkpt lat="44.19011" lon="7.0278">
        <ele>910</ele>
        <time>2022-07-19T08:17:14Z</time>
      </trkpt>
      <trkpt lat="44.19009" lon="7.02775">
        <ele>910</ele>
        <time>2022-07-19T08:17:15Z</time>
      </trkpt>
      <trkpt lat="44.19007" lon="7.0277">
        <ele>910</ele>
        <time>2022-07-19T08:17:16Z</time>
      </trkpt>
      <trkpt lat="44.19005" lon="7.02765">
        <ele>910.4</ele>
        <time>2022-07-19T08:17:17Z</time>
      </trkpt>
      <trkpt lat="44.19004" lon="7.0276">
        <ele>910.4</ele>
        <time>2022-07-19T08:17:18Z</time>
      </trkpt>
      <trkpt lat="44.19002" lon="7.02754">
        <ele>910.4</ele>
        <time>2022-07-19T08:17:19Z</time>
      </trkpt>
      <trkpt lat="44.19" lon="7.02749">
        <ele>910.6</ele>
        <time>2022-07-19T08:17:20Z</time>
      </trkpt>
      <trkpt lat="44.18998" lon="7.02744">
        <ele>910.6</ele>
        <time>2022-07-19T08:17:21Z</time>
      </trkpt>
      <trkpt lat="44.18996" lon="7.02739">
        <ele>910.8</ele>
        <time>2022-07-19T08:17:22Z</time>
      </trkpt>
      <trkpt lat="44.18994" lon="7.02733">
        <ele>911.2</ele>
        <time>2022-07-19T08:17:23Z</time>
      </trkpt>
      <trkpt lat="44.18992" lon="7.02728">
        <ele>911.2</ele>
        <time>2022-07-19T08:17:24Z</time>
      </trkpt>
      <trkpt lat="44.1899" lon="7.02722">
        <ele>911.2</ele>
        <time>2022-07-19T08:17:25Z</time>
      </trkpt>
      <trkpt lat="44.18988" lon="7.02717">
        <ele>911.6</ele>
        <time>2022-07-19T08:17:26Z</time>
      </trkpt>
      <trkpt lat="44.18986" lon="7.02712">
        <ele>911.6</ele>
        <time>2022-07-19T08:17:27Z</time>
      </trkpt>
      <trkpt lat="44.18984" lon="7.02706">
        <ele>911.8</ele>
        <time>2022-07-19T08:17:28Z</time>
      </trkpt>
      <trkpt lat="44.18981" lon="7.02701">
        <ele>911.8</ele>
        <time>2022-07-19T08:17:29Z</time>
      </trkpt>
      <trkpt lat="44.18979" lon="7.02696">
        <ele>911.8</ele>
        <time>2022-07-19T08:17:30Z</time>
      </trkpt>
      <trkpt lat="44.18976" lon="7.02686">
        <ele>912.2</ele>
        <time>2022-07-19T08:17:31Z</time>
      </trkpt>
      <trkpt lat="44.18974" lon="7.02681">
        <ele>912.2</ele>
        <time>2022-07-19T08:17:32Z</time>
      </trkpt>
      <trkpt lat="44.18972" lon="7.02676">
        <ele>912.2</ele>
        <time>2022-07-19T08:17:33Z</time>
      </trkpt>
      <trkpt lat="44.18969" lon="7.02671">
        <ele>912.2</ele>
        <time>2022-07-19T08:17:34Z</time>
      </trkpt>
      <trkpt lat="44.18968" lon="7.02666">
        <ele>912.4</ele>
        <time>2022-07-19T08:17:35Z</time>
      </trkpt>
      <trkpt lat="44.18966" lon="7.02661">
        <ele>912.4</ele>
        <time>2022-07-19T08:17:36Z</time>
      </trkpt>
      <trkpt lat="44.18964" lon="7.02657">
        <ele>912.8</ele>
        <time>2022-07-19T08:17:37Z</time>
      </trkpt>
      <trkpt lat="44.18962" lon="7.02652">
        <ele>912.8</ele>
        <time>2022-07-19T08:17:38Z</time>
      </trkpt>
      <trkpt lat="44.1896" lon="7.02647">
        <ele>912.8</ele>
        <time>2022-07-19T08:17:39Z</time>
      </trkpt>
      <trkpt lat="44.18958" lon="7.02642">
        <ele>913</ele>
        <time>2022-07-19T08:17:40Z</time>
      </trkpt>
      <trkpt lat="44.18956" lon="7.02637">
        <ele>913</ele>
        <time>2022-07-19T08:17:41Z</time>
      </trkpt>
      <trkpt lat="44.18954" lon="7.02632">
        <ele>913.2</ele>
        <time>2022-07-19T08:17:42Z</time>
      </trkpt>
      <trkpt lat="44.18952" lon="7.02627">
        <ele>913.2</ele>
        <time>2022-07-19T08:17:43Z</time>
      </trkpt>
      <trkpt lat="44.1895" lon="7.02622">
        <ele>913.6</ele>
        <time>2022-07-19T08:17:44Z</time>
      </trkpt>
      <trkpt lat="44.18948" lon="7.02617">
        <ele>913.6</ele>
        <time>2022-07-19T08:17:45Z</time>
      </trkpt>
      <trkpt lat="44.18946" lon="7.02612">
        <ele>913.6</ele>
        <time>2022-07-19T08:17:46Z</time>
      </trkpt>
      <trkpt lat="44.18944" lon="7.02607">
        <ele>913.8</ele>
        <time>2022-07-19T08:17:47Z</time>
      </trkpt>
      <trkpt lat="44.18942" lon="7.02602">
        <ele>913.8</ele>
        <time>2022-07-19T08:17:48Z</time>
      </trkpt>
      <trkpt lat="44.1894" lon="7.02597">
        <ele>914</ele>
        <time>2022-07-19T08:17:49Z</time>
      </trkpt>
      <trkpt lat="44.18939" lon="7.02591">
        <ele>914</ele>
        <time>2022-07-19T08:17:50Z</time>
      </trkpt>
      <trkpt lat="44.18937" lon="7.02586">
        <ele>914</ele>
        <time>2022-07-19T08:17:51Z</time>
      </trkpt>
      <trkpt lat="44.18935" lon="7.02581">
        <ele>914.2</ele>
        <time>2022-07-19T08:17:52Z</time>
      </trkpt>
      <trkpt lat="44.18934" lon="7.02575">
        <ele>914.2</ele>
        <time>2022-07-19T08:17:53Z</time>
      </trkpt>
      <trkpt lat="44.18932" lon="7.02569">
        <ele>914.4</ele>
        <time>2022-07-19T08:17:54Z</time>
      </trkpt>
      <trkpt lat="44.18931" lon="7.02563">
        <ele>914.4</ele>
        <time>2022-07-19T08:17:55Z</time>
      </trkpt>
      <trkpt lat="44.1893" lon="7.02557">
        <ele>914.4</ele>
        <time>2022-07-19T08:17:56Z</time>
      </trkpt>
      <trkpt lat="44.18929" lon="7.02551">
        <ele>914.8</ele>
        <time>2022-07-19T08:17:57Z</time>
      </trkpt>
      <trkpt lat="44.18928" lon="7.02545">
        <ele>914.8</ele>
        <time>2022-07-19T08:17:58Z</time>
      </trkpt>
      <trkpt lat="44.18928" lon="7.0254">
        <ele>915</ele>
        <time>2022-07-19T08:17:59Z</time>
      </trkpt>
      <trkpt lat="44.18927" lon="7.02534">
        <ele>915</ele>
        <time>2022-07-19T08:18:00Z</time>
      </trkpt>
      <trkpt lat="44.18926" lon="7.02528">
        <ele>915.4</ele>
        <time>2022-07-19T08:18:01Z</time>
      </trkpt>
      <trkpt lat="44.18926" lon="7.02522">
        <ele>915.4</ele>
        <time>2022-07-19T08:18:02Z</time>
      </trkpt>
      <trkpt lat="44.18926" lon="7.02516">
        <ele>915.6</ele>
        <time>2022-07-19T08:18:03Z</time>
      </trkpt>
      <trkpt lat="44.18926" lon="7.0251">
        <ele>915.6</ele>
        <time>2022-07-19T08:18:04Z</time>
      </trkpt>
      <trkpt lat="44.18927" lon="7.02505">
        <ele>915.6</ele>
        <time>2022-07-19T08:18:05Z</time>
      </trkpt>
      <trkpt lat="44.18927" lon="7.02499">
        <ele>915.8</ele>
        <time>2022-07-19T08:18:06Z</time>
      </trkpt>
      <trkpt lat="44.18928" lon="7.02493">
        <ele>915.8</ele>
        <time>2022-07-19T08:18:07Z</time>
      </trkpt>
      <trkpt lat="44.18928" lon="7.02488">
        <ele>916</ele>
        <time>2022-07-19T08:18:08Z</time>
      </trkpt>
      <trkpt lat="44.18929" lon="7.02482">
        <ele>916</ele>
        <time>2022-07-19T08:18:09Z</time>
      </trkpt>
      <trkpt lat="44.1893" lon="7.02477">
        <ele>916</ele>
        <time>2022-07-19T08:18:10Z</time>
      </trkpt>
      <trkpt lat="44.18931" lon="7.02472">
        <ele>916.4</ele>
        <time>2022-07-19T08:18:11Z</time>
      </trkpt>
      <trkpt lat="44.18932" lon="7.02467">
        <ele>916.4</ele>
        <time>2022-07-19T08:18:12Z</time>
      </trkpt>
      <trkpt lat="44.18933" lon="7.02461">
        <ele>916.4</ele>
        <time>2022-07-19T08:18:13Z</time>
      </trkpt>
      <trkpt lat="44.18934" lon="7.02456">
        <ele>916.6</ele>
        <time>2022-07-19T08:18:14Z</time>
      </trkpt>
      <trkpt lat="44.18935" lon="7.02451">
        <ele>916.6</ele>
        <time>2022-07-19T08:18:15Z</time>
      </trkpt>
      <trkpt lat="44.18935" lon="7.02445">
        <ele>917</ele>
        <time>2022-07-19T08:18:16Z</time>
      </trkpt>
      <trkpt lat="44.18936" lon="7.0244">
        <ele>917</ele>
        <time>2022-07-19T08:18:17Z</time>
      </trkpt>
      <trkpt lat="44.18937" lon="7.02434">
        <ele>917.2</ele>
        <time>2022-07-19T08:18:19Z</time>
      </trkpt>
      <trkpt lat="44.18939" lon="7.02428">
        <ele>917.2</ele>
        <time>2022-07-19T08:18:20Z</time>
      </trkpt>
      <trkpt lat="44.1894" lon="7.02423">
        <ele>917.4</ele>
        <time>2022-07-19T08:18:21Z</time>
      </trkpt>
      <trkpt lat="44.18941" lon="7.02417">
        <ele>917.4</ele>
        <time>2022-07-19T08:18:22Z</time>
      </trkpt>
      <trkpt lat="44.18943" lon="7.02412">
        <ele>917.8</ele>
        <time>2022-07-19T08:18:23Z</time>
      </trkpt>
      <trkpt lat="44.18944" lon="7.02406">
        <ele>917.8</ele>
        <time>2022-07-19T08:18:24Z</time>
      </trkpt>
      <trkpt lat="44.18946" lon="7.02395">
        <ele>918</ele>
        <time>2022-07-19T08:18:25Z</time>
      </trkpt>
      <trkpt lat="44.18948" lon="7.02389">
        <ele>918</ele>
        <time>2022-07-19T08:18:27Z</time>
      </trkpt>
      <trkpt lat="44.18949" lon="7.02382">
        <ele>918.4</ele>
        <time>2022-07-19T08:18:28Z</time>
      </trkpt>
      <trkpt lat="44.1895" lon="7.02377">
        <ele>918.4</ele>
        <time>2022-07-19T08:18:29Z</time>
      </trkpt>
      <trkpt lat="44.18951" lon="7.02371">
        <ele>918.4</ele>
        <time>2022-07-19T08:18:30Z</time>
      </trkpt>
      <trkpt lat="44.18953" lon="7.02366">
        <ele>918.6</ele>
        <time>2022-07-19T08:18:31Z</time>
      </trkpt>
      <trkpt lat="44.18954" lon="7.0236">
        <ele>918.8</ele>
        <time>2022-07-19T08:18:32Z</time>
      </trkpt>
      <trkpt lat="44.18955" lon="7.02355">
        <ele>918.8</ele>
        <time>2022-07-19T08:18:33Z</time>
      </trkpt>
      <trkpt lat="44.18956" lon="7.02349">
        <ele>918.8</ele>
        <time>2022-07-19T08:18:34Z</time>
      </trkpt>
      <trkpt lat="44.18957" lon="7.02344">
        <ele>919</ele>
        <time>2022-07-19T08:18:35Z</time>
      </trkpt>
      <trkpt lat="44.18958" lon="7.02338">
        <ele>919</ele>
        <time>2022-07-19T08:18:36Z</time>
      </trkpt>
      <trkpt lat="44.1896" lon="7.02332">
        <ele>919</ele>
        <time>2022-07-19T08:18:37Z</time>
      </trkpt>
      <trkpt lat="44.18961" lon="7.02327">
        <ele>919.2</ele>
        <time>2022-07-19T08:18:38Z</time>
      </trkpt>
      <trkpt lat="44.18962" lon="7.02322">
        <ele>919.2</ele>
        <time>2022-07-19T08:18:39Z</time>
      </trkpt>
      <trkpt lat="44.18963" lon="7.02316">
        <ele>919.6</ele>
        <time>2022-07-19T08:18:40Z</time>
      </trkpt>
      <trkpt lat="44.18964" lon="7.0231">
        <ele>919.6</ele>
        <time>2022-07-19T08:18:41Z</time>
      </trkpt>
      <trkpt lat="44.18965" lon="7.02305">
        <ele>919.6</ele>
        <time>2022-07-19T08:18:42Z</time>
      </trkpt>
      <trkpt lat="44.18966" lon="7.02299">
        <ele>919.8</ele>
        <time>2022-07-19T08:18:43Z</time>
      </trkpt>
      <trkpt lat="44.18967" lon="7.02293">
        <ele>919.8</ele>
        <time>2022-07-19T08:18:44Z</time>
      </trkpt>
      <trkpt lat="44.18968" lon="7.02287">
        <ele>919.8</ele>
        <time>2022-07-19T08:18:45Z</time>
      </trkpt>
      <trkpt lat="44.18969" lon="7.02281">
        <ele>920.2</ele>
        <time>2022-07-19T08:18:46Z</time>
      </trkpt>
      <trkpt lat="44.1897" lon="7.02276">
        <ele>920.2</ele>
        <time>2022-07-19T08:18:47Z</time>
      </trkpt>
      <trkpt lat="44.1897" lon="7.0227">
        <ele>920.2</ele>
        <time>2022-07-19T08:18:48Z</time>
      </trkpt>
      <trkpt lat="44.18971" lon="7.02264">
        <ele>920.4</ele>
        <time>2022-07-19T08:18:49Z</time>
      </trkpt>
      <trkpt lat="44.18972" lon="7.02258">
        <ele>920.4</ele>
        <time>2022-07-19T08:18:50Z</time>
      </trkpt>
      <trkpt lat="44.18972" lon="7.02252">
        <ele>920.4</ele>
        <time>2022-07-19T08:18:51Z</time>
      </trkpt>
      <trkpt lat="44.18973" lon="7.02246">
        <ele>920.6</ele>
        <time>2022-07-19T08:18:52Z</time>
      </trkpt>
      <trkpt lat="44.18973" lon="7.0224">
        <ele>920.6</ele>
        <time>2022-07-19T08:18:53Z</time>
      </trkpt>
      <trkpt lat="44.18974" lon="7.02234">
        <ele>920.6</ele>
        <time>2022-07-19T08:18:54Z</time>
      </trkpt>
      <trkpt lat="44.18975" lon="7.02228">
        <ele>920.8</ele>
        <time>2022-07-19T08:18:55Z</time>
      </trkpt>
      <trkpt lat="44.18975" lon="7.02223">
        <ele>920.8</ele>
        <time>2022-07-19T08:18:56Z</time>
      </trkpt>
      <trkpt lat="44.18975" lon="7.02217">
        <ele>921.2</ele>
        <time>2022-07-19T08:18:57Z</time>
      </trkpt>
      <trkpt lat="44.18976" lon="7.02211">
        <ele>921.2</ele>
        <time>2022-07-19T08:18:58Z</time>
      </trkpt>
      <trkpt lat="44.18976" lon="7.02205">
        <ele>921.4</ele>
        <time>2022-07-19T08:18:59Z</time>
      </trkpt>
      <trkpt lat="44.18976" lon="7.022">
        <ele>921.4</ele>
        <time>2022-07-19T08:19:00Z</time>
      </trkpt>
      <trkpt lat="44.18976" lon="7.02195">
        <ele>921.6</ele>
        <time>2022-07-19T08:19:01Z</time>
      </trkpt>
      <trkpt lat="44.18976" lon="7.02189">
        <ele>921.6</ele>
        <time>2022-07-19T08:19:02Z</time>
      </trkpt>
      <trkpt lat="44.18976" lon="7.02184">
        <ele>921.8</ele>
        <time>2022-07-19T08:19:03Z</time>
      </trkpt>
      <trkpt lat="44.18977" lon="7.02178">
        <ele>921.8</ele>
        <time>2022-07-19T08:19:04Z</time>
      </trkpt>
      <trkpt lat="44.18977" lon="7.02173">
        <ele>922.2</ele>
        <time>2022-07-19T08:19:05Z</time>
      </trkpt>
      <trkpt lat="44.18977" lon="7.02168">
        <ele>922.2</ele>
        <time>2022-07-19T08:19:06Z</time>
      </trkpt>
      <trkpt lat="44.18977" lon="7.02162">
        <ele>922.4</ele>
        <time>2022-07-19T08:19:07Z</time>
      </trkpt>
      <trkpt lat="44.18977" lon="7.02156">
        <ele>922.4</ele>
        <time>2022-07-19T08:19:08Z</time>
      </trkpt>
      <trkpt lat="44.18976" lon="7.02151">
        <ele>922.8</ele>
        <time>2022-07-19T08:19:09Z</time>
      </trkpt>
      <trkpt lat="44.18976" lon="7.02145">
        <ele>922.8</ele>
        <time>2022-07-19T08:19:10Z</time>
      </trkpt>
      <trkpt lat="44.18976" lon="7.0214">
        <ele>922.8</ele>
        <time>2022-07-19T08:19:11Z</time>
      </trkpt>
      <trkpt lat="44.18977" lon="7.02134">
        <ele>923</ele>
        <time>2022-07-19T08:19:12Z</time>
      </trkpt>
      <trkpt lat="44.18977" lon="7.02129">
        <ele>923.2</ele>
        <time>2022-07-19T08:19:13Z</time>
      </trkpt>
      <trkpt lat="44.18977" lon="7.02124">
        <ele>923.2</ele>
        <time>2022-07-19T08:19:14Z</time>
      </trkpt>
      <trkpt lat="44.18977" lon="7.02118">
        <ele>923.4</ele>
        <time>2022-07-19T08:19:15Z</time>
      </trkpt>
      <trkpt lat="44.18977" lon="7.02112">
        <ele>923.4</ele>
        <time>2022-07-19T08:19:16Z</time>
      </trkpt>
      <trkpt lat="44.18977" lon="7.02107">
        <ele>923.8</ele>
        <time>2022-07-19T08:19:17Z</time>
      </trkpt>
      <trkpt lat="44.18977" lon="7.02101">
        <ele>923.8</ele>
        <time>2022-07-19T08:19:18Z</time>
      </trkpt>
      <trkpt lat="44.18977" lon="7.02096">
        <ele>924.2</ele>
        <time>2022-07-19T08:19:19Z</time>
      </trkpt>
      <trkpt lat="44.18977" lon="7.0209">
        <ele>924.2</ele>
        <time>2022-07-19T08:19:20Z</time>
      </trkpt>
      <trkpt lat="44.18977" lon="7.02085">
        <ele>924.6</ele>
        <time>2022-07-19T08:19:21Z</time>
      </trkpt>
      <trkpt lat="44.18976" lon="7.0208">
        <ele>924.8</ele>
        <time>2022-07-19T08:19:22Z</time>
      </trkpt>
      <trkpt lat="44.18977" lon="7.02075">
        <ele>924.8</ele>
        <time>2022-07-19T08:19:23Z</time>
      </trkpt>
      <trkpt lat="44.18977" lon="7.02069">
        <ele>925</ele>
        <time>2022-07-19T08:19:24Z</time>
      </trkpt>
      <trkpt lat="44.18976" lon="7.02064">
        <ele>925</ele>
        <time>2022-07-19T08:19:25Z</time>
      </trkpt>
      <trkpt lat="44.18976" lon="7.02059">
        <ele>925.4</ele>
        <time>2022-07-19T08:19:26Z</time>
      </trkpt>
      <trkpt lat="44.18976" lon="7.02054">
        <ele>925.4</ele>
        <time>2022-07-19T08:19:27Z</time>
      </trkpt>
      <trkpt lat="44.18977" lon="7.02049">
        <ele>925.8</ele>
        <time>2022-07-19T08:19:28Z</time>
      </trkpt>
      <trkpt lat="44.18977" lon="7.02044">
        <ele>925.8</ele>
        <time>2022-07-19T08:19:29Z</time>
      </trkpt>
      <trkpt lat="44.18977" lon="7.02039">
        <ele>926.2</ele>
        <time>2022-07-19T08:19:30Z</time>
      </trkpt>
      <trkpt lat="44.18977" lon="7.02034">
        <ele>926.2</ele>
        <time>2022-07-19T08:19:31Z</time>
      </trkpt>
      <trkpt lat="44.18977" lon="7.02029">
        <ele>926.4</ele>
        <time>2022-07-19T08:19:32Z</time>
      </trkpt>
      <trkpt lat="44.18977" lon="7.02024">
        <ele>926.4</ele>
        <time>2022-07-19T08:19:33Z</time>
      </trkpt>
      <trkpt lat="44.18977" lon="7.02018">
        <ele>926.8</ele>
        <time>2022-07-19T08:19:34Z</time>
      </trkpt>
      <trkpt lat="44.18977" lon="7.02013">
        <ele>926.8</ele>
        <time>2022-07-19T08:19:35Z</time>
      </trkpt>
      <trkpt lat="44.18977" lon="7.02007">
        <ele>927</ele>
        <time>2022-07-19T08:19:36Z</time>
      </trkpt>
      <trkpt lat="44.18977" lon="7.02002">
        <ele>927</ele>
        <time>2022-07-19T08:19:37Z</time>
      </trkpt>
      <trkpt lat="44.18977" lon="7.01996">
        <ele>927.4</ele>
        <time>2022-07-19T08:19:38Z</time>
      </trkpt>
      <trkpt lat="44.18977" lon="7.01991">
        <ele>927.4</ele>
        <time>2022-07-19T08:19:39Z</time>
      </trkpt>
      <trkpt lat="44.18978" lon="7.01986">
        <ele>927.8</ele>
        <time>2022-07-19T08:19:40Z</time>
      </trkpt>
      <trkpt lat="44.18978" lon="7.01981">
        <ele>928</ele>
        <time>2022-07-19T08:19:41Z</time>
      </trkpt>
      <trkpt lat="44.18978" lon="7.01975">
        <ele>928</ele>
        <time>2022-07-19T08:19:42Z</time>
      </trkpt>
      <trkpt lat="44.18978" lon="7.0197">
        <ele>928.2</ele>
        <time>2022-07-19T08:19:43Z</time>
      </trkpt>
      <trkpt lat="44.18978" lon="7.01965">
        <ele>928.4</ele>
        <time>2022-07-19T08:19:44Z</time>
      </trkpt>
      <trkpt lat="44.18978" lon="7.0196">
        <ele>928.4</ele>
        <time>2022-07-19T08:19:45Z</time>
      </trkpt>
      <trkpt lat="44.18979" lon="7.01955">
        <ele>928.8</ele>
        <time>2022-07-19T08:19:46Z</time>
      </trkpt>
      <trkpt lat="44.18979" lon="7.01949">
        <ele>928.8</ele>
        <time>2022-07-19T08:19:47Z</time>
      </trkpt>
      <trkpt lat="44.18979" lon="7.01944">
        <ele>929</ele>
        <time>2022-07-19T08:19:48Z</time>
      </trkpt>
      <trkpt lat="44.1898" lon="7.01939">
        <ele>929</ele>
        <time>2022-07-19T08:19:49Z</time>
      </trkpt>
      <trkpt lat="44.18981" lon="7.01934">
        <ele>929.8</ele>
        <time>2022-07-19T08:19:50Z</time>
      </trkpt>
      <trkpt lat="44.18982" lon="7.01929">
        <ele>929.8</ele>
        <time>2022-07-19T08:19:51Z</time>
      </trkpt>
      <trkpt lat="44.18982" lon="7.01924">
        <ele>929.8</ele>
        <time>2022-07-19T08:19:52Z</time>
      </trkpt>
      <trkpt lat="44.18983" lon="7.01919">
        <ele>930</ele>
        <time>2022-07-19T08:19:53Z</time>
      </trkpt>
      <trkpt lat="44.18984" lon="7.01914">
        <ele>930</ele>
        <time>2022-07-19T08:19:54Z</time>
      </trkpt>
      <trkpt lat="44.18984" lon="7.0191">
        <ele>930.4</ele>
        <time>2022-07-19T08:19:55Z</time>
      </trkpt>
      <trkpt lat="44.18985" lon="7.01905">
        <ele>930.4</ele>
        <time>2022-07-19T08:19:56Z</time>
      </trkpt>
      <trkpt lat="44.18986" lon="7.019">
        <ele>930.8</ele>
        <time>2022-07-19T08:19:57Z</time>
      </trkpt>
      <trkpt lat="44.18987" lon="7.01895">
        <ele>931</ele>
        <time>2022-07-19T08:19:58Z</time>
      </trkpt>
      <trkpt lat="44.18988" lon="7.01891">
        <ele>931</ele>
        <time>2022-07-19T08:19:59Z</time>
      </trkpt>
      <trkpt lat="44.18989" lon="7.01886">
        <ele>931.4</ele>
        <time>2022-07-19T08:20:00Z</time>
      </trkpt>
      <trkpt lat="44.1899" lon="7.01881">
        <ele>931.4</ele>
        <time>2022-07-19T08:20:01Z</time>
      </trkpt>
      <trkpt lat="44.18991" lon="7.01876">
        <ele>931.6</ele>
        <time>2022-07-19T08:20:02Z</time>
      </trkpt>
      <trkpt lat="44.18992" lon="7.01872">
        <ele>931.6</ele>
        <time>2022-07-19T08:20:03Z</time>
      </trkpt>
      <trkpt lat="44.18994" lon="7.01867">
        <ele>932</ele>
        <time>2022-07-19T08:20:04Z</time>
      </trkpt>
      <trkpt lat="44.18995" lon="7.01862">
        <ele>932</ele>
        <time>2022-07-19T08:20:05Z</time>
      </trkpt>
      <trkpt lat="44.18997" lon="7.01857">
        <ele>932.4</ele>
        <time>2022-07-19T08:20:06Z</time>
      </trkpt>
      <trkpt lat="44.18999" lon="7.01852">
        <ele>932.4</ele>
        <time>2022-07-19T08:20:07Z</time>
      </trkpt>
      <trkpt lat="44.19001" lon="7.01847">
        <ele>932.6</ele>
        <time>2022-07-19T08:20:08Z</time>
      </trkpt>
      <trkpt lat="44.19003" lon="7.01842">
        <ele>932.6</ele>
        <time>2022-07-19T08:20:09Z</time>
      </trkpt>
      <trkpt lat="44.19005" lon="7.01837">
        <ele>932.8</ele>
        <time>2022-07-19T08:20:10Z</time>
      </trkpt>
      <trkpt lat="44.19007" lon="7.01832">
        <ele>932.8</ele>
        <time>2022-07-19T08:20:11Z</time>
      </trkpt>
      <trkpt lat="44.1901" lon="7.01827">
        <ele>933.2</ele>
        <time>2022-07-19T08:20:12Z</time>
      </trkpt>
      <trkpt lat="44.19012" lon="7.01822">
        <ele>933.2</ele>
        <time>2022-07-19T08:20:13Z</time>
      </trkpt>
      <trkpt lat="44.19014" lon="7.01817">
        <ele>933.2</ele>
        <time>2022-07-19T08:20:14Z</time>
      </trkpt>
      <trkpt lat="44.19016" lon="7.01812">
        <ele>933.4</ele>
        <time>2022-07-19T08:20:15Z</time>
      </trkpt>
      <trkpt lat="44.19019" lon="7.01807">
        <ele>933.4</ele>
        <time>2022-07-19T08:20:16Z</time>
      </trkpt>
      <trkpt lat="44.19021" lon="7.01803">
        <ele>933.4</ele>
        <time>2022-07-19T08:20:17Z</time>
      </trkpt>
      <trkpt lat="44.19024" lon="7.01798">
        <ele>933.6</ele>
        <time>2022-07-19T08:20:18Z</time>
      </trkpt>
      <trkpt lat="44.19027" lon="7.01794">
        <ele>934</ele>
        <time>2022-07-19T08:20:19Z</time>
      </trkpt>
      <trkpt lat="44.1903" lon="7.01789">
        <ele>934</ele>
        <time>2022-07-19T08:20:20Z</time>
      </trkpt>
      <trkpt lat="44.19033" lon="7.01785">
        <ele>934</ele>
        <time>2022-07-19T08:20:21Z</time>
      </trkpt>
      <trkpt lat="44.19036" lon="7.0178">
        <ele>934</ele>
        <time>2022-07-19T08:20:22Z</time>
      </trkpt>
      <trkpt lat="44.19038" lon="7.01776">
        <ele>934.2</ele>
        <time>2022-07-19T08:20:23Z</time>
      </trkpt>
      <trkpt lat="44.19041" lon="7.01772">
        <ele>934.2</ele>
        <time>2022-07-19T08:20:24Z</time>
      </trkpt>
      <trkpt lat="44.19044" lon="7.01767">
        <ele>934.4</ele>
        <time>2022-07-19T08:20:25Z</time>
      </trkpt>
      <trkpt lat="44.19047" lon="7.01763">
        <ele>934.4</ele>
        <time>2022-07-19T08:20:26Z</time>
      </trkpt>
      <trkpt lat="44.1905" lon="7.01759">
        <ele>934.4</ele>
        <time>2022-07-19T08:20:27Z</time>
      </trkpt>
      <trkpt lat="44.19053" lon="7.01755">
        <ele>934.8</ele>
        <time>2022-07-19T08:20:28Z</time>
      </trkpt>
      <trkpt lat="44.19055" lon="7.01751">
        <ele>934.8</ele>
        <time>2022-07-19T08:20:29Z</time>
      </trkpt>
      <trkpt lat="44.19058" lon="7.01747">
        <ele>934.8</ele>
        <time>2022-07-19T08:20:30Z</time>
      </trkpt>
      <trkpt lat="44.19061" lon="7.01743">
        <ele>935</ele>
        <time>2022-07-19T08:20:31Z</time>
      </trkpt>
      <trkpt lat="44.19063" lon="7.01739">
        <ele>935</ele>
        <time>2022-07-19T08:20:32Z</time>
      </trkpt>
      <trkpt lat="44.19066" lon="7.01735">
        <ele>935</ele>
        <time>2022-07-19T08:20:33Z</time>
      </trkpt>
      <trkpt lat="44.19069" lon="7.01731">
        <ele>935.2</ele>
        <time>2022-07-19T08:20:34Z</time>
      </trkpt>
      <trkpt lat="44.19072" lon="7.01727">
        <ele>935.2</ele>
        <time>2022-07-19T08:20:35Z</time>
      </trkpt>
      <trkpt lat="44.19074" lon="7.01723">
        <ele>935.6</ele>
        <time>2022-07-19T08:20:36Z</time>
      </trkpt>
      <trkpt lat="44.19077" lon="7.01719">
        <ele>935.6</ele>
        <time>2022-07-19T08:20:37Z</time>
      </trkpt>
      <trkpt lat="44.1908" lon="7.01715">
        <ele>935.8</ele>
        <time>2022-07-19T08:20:38Z</time>
      </trkpt>
      <trkpt lat="44.19083" lon="7.01711">
        <ele>935.8</ele>
        <time>2022-07-19T08:20:39Z</time>
      </trkpt>
      <trkpt lat="44.19086" lon="7.01707">
        <ele>935.8</ele>
        <time>2022-07-19T08:20:40Z</time>
      </trkpt>
      <trkpt lat="44.19088" lon="7.01703">
        <ele>936</ele>
        <time>2022-07-19T08:20:41Z</time>
      </trkpt>
      <trkpt lat="44.19091" lon="7.01698">
        <ele>936</ele>
        <time>2022-07-19T08:20:42Z</time>
      </trkpt>
      <trkpt lat="44.19093" lon="7.01694">
        <ele>936</ele>
        <time>2022-07-19T08:20:43Z</time>
      </trkpt>
      <trkpt lat="44.19096" lon="7.01689">
        <ele>936.2</ele>
        <time>2022-07-19T08:20:44Z</time>
      </trkpt>
      <trkpt lat="44.19098" lon="7.01684">
        <ele>936.2</ele>
        <time>2022-07-19T08:20:45Z</time>
      </trkpt>
      <trkpt lat="44.191" lon="7.01679">
        <ele>936.2</ele>
        <time>2022-07-19T08:20:46Z</time>
      </trkpt>
      <trkpt lat="44.19102" lon="7.01674">
        <ele>936.4</ele>
        <time>2022-07-19T08:20:47Z</time>
      </trkpt>
      <trkpt lat="44.19104" lon="7.01669">
        <ele>936.4</ele>
        <time>2022-07-19T08:20:48Z</time>
      </trkpt>
      <trkpt lat="44.19106" lon="7.01665">
        <ele>936.6</ele>
        <time>2022-07-19T08:20:49Z</time>
      </trkpt>
      <trkpt lat="44.19108" lon="7.0166">
        <ele>936.8</ele>
        <time>2022-07-19T08:20:50Z</time>
      </trkpt>
      <trkpt lat="44.1911" lon="7.01656">
        <ele>936.8</ele>
        <time>2022-07-19T08:20:51Z</time>
      </trkpt>
      <trkpt lat="44.19112" lon="7.01651">
        <ele>937.2</ele>
        <time>2022-07-19T08:20:52Z</time>
      </trkpt>
      <trkpt lat="44.19114" lon="7.01646">
        <ele>937.2</ele>
        <time>2022-07-19T08:20:53Z</time>
      </trkpt>
      <trkpt lat="44.19115" lon="7.0164">
        <ele>937.2</ele>
        <time>2022-07-19T08:20:54Z</time>
      </trkpt>
      <trkpt lat="44.19117" lon="7.01635">
        <ele>937.4</ele>
        <time>2022-07-19T08:20:55Z</time>
      </trkpt>
      <trkpt lat="44.19118" lon="7.01631">
        <ele>937.4</ele>
        <time>2022-07-19T08:20:56Z</time>
      </trkpt>
      <trkpt lat="44.1912" lon="7.01627">
        <ele>937.6</ele>
        <time>2022-07-19T08:20:57Z</time>
      </trkpt>
      <trkpt lat="44.19122" lon="7.01623">
        <ele>937.6</ele>
        <time>2022-07-19T08:20:58Z</time>
      </trkpt>
      <trkpt lat="44.19123" lon="7.01618">
        <ele>938</ele>
        <time>2022-07-19T08:20:59Z</time>
      </trkpt>
      <trkpt lat="44.19125" lon="7.01614">
        <ele>938</ele>
        <time>2022-07-19T08:21:00Z</time>
      </trkpt>
      <trkpt lat="44.19126" lon="7.0161">
        <ele>938.2</ele>
        <time>2022-07-19T08:21:01Z</time>
      </trkpt>
      <trkpt lat="44.19127" lon="7.01605">
        <ele>938.2</ele>
        <time>2022-07-19T08:21:02Z</time>
      </trkpt>
      <trkpt lat="44.19129" lon="7.01602">
        <ele>938.4</ele>
        <time>2022-07-19T08:21:03Z</time>
      </trkpt>
      <trkpt lat="44.19131" lon="7.01597">
        <ele>938.4</ele>
        <time>2022-07-19T08:21:04Z</time>
      </trkpt>
      <trkpt lat="44.19132" lon="7.01592">
        <ele>938.6</ele>
        <time>2022-07-19T08:21:05Z</time>
      </trkpt>
      <trkpt lat="44.19134" lon="7.01588">
        <ele>938.6</ele>
        <time>2022-07-19T08:21:06Z</time>
      </trkpt>
      <trkpt lat="44.19136" lon="7.01583">
        <ele>939</ele>
        <time>2022-07-19T08:21:07Z</time>
      </trkpt>
      <trkpt lat="44.19138" lon="7.01579">
        <ele>939</ele>
        <time>2022-07-19T08:21:08Z</time>
      </trkpt>
      <trkpt lat="44.19139" lon="7.01574">
        <ele>939.2</ele>
        <time>2022-07-19T08:21:09Z</time>
      </trkpt>
      <trkpt lat="44.19141" lon="7.0157">
        <ele>939.2</ele>
        <time>2022-07-19T08:21:10Z</time>
      </trkpt>
      <trkpt lat="44.19143" lon="7.01565">
        <ele>939.4</ele>
        <time>2022-07-19T08:21:11Z</time>
      </trkpt>
      <trkpt lat="44.19145" lon="7.0156">
        <ele>939.4</ele>
        <time>2022-07-19T08:21:12Z</time>
      </trkpt>
      <trkpt lat="44.19147" lon="7.01556">
        <ele>939.6</ele>
        <time>2022-07-19T08:21:13Z</time>
      </trkpt>
      <trkpt lat="44.19149" lon="7.01551">
        <ele>939.6</ele>
        <time>2022-07-19T08:21:14Z</time>
      </trkpt>
      <trkpt lat="44.19151" lon="7.01546">
        <ele>939.6</ele>
        <time>2022-07-19T08:21:15Z</time>
      </trkpt>
      <trkpt lat="44.19153" lon="7.01542">
        <ele>939.8</ele>
        <time>2022-07-19T08:21:16Z</time>
      </trkpt>
      <trkpt lat="44.19155" lon="7.01537">
        <ele>939.8</ele>
        <time>2022-07-19T08:21:17Z</time>
      </trkpt>
      <trkpt lat="44.19157" lon="7.01532">
        <ele>940.2</ele>
        <time>2022-07-19T08:21:18Z</time>
      </trkpt>
      <trkpt lat="44.19159" lon="7.01527">
        <ele>940.2</ele>
        <time>2022-07-19T08:21:19Z</time>
      </trkpt>
      <trkpt lat="44.19162" lon="7.01522">
        <ele>940.6</ele>
        <time>2022-07-19T08:21:20Z</time>
      </trkpt>
      <trkpt lat="44.19164" lon="7.01518">
        <ele>940.6</ele>
        <time>2022-07-19T08:21:21Z</time>
      </trkpt>
      <trkpt lat="44.19167" lon="7.01513">
        <ele>940.8</ele>
        <time>2022-07-19T08:21:22Z</time>
      </trkpt>
      <trkpt lat="44.1917" lon="7.01507">
        <ele>940.8</ele>
        <time>2022-07-19T08:21:23Z</time>
      </trkpt>
      <trkpt lat="44.19172" lon="7.01502">
        <ele>940.8</ele>
        <time>2022-07-19T08:21:24Z</time>
      </trkpt>
      <trkpt lat="44.19174" lon="7.01497">
        <ele>941.2</ele>
        <time>2022-07-19T08:21:25Z</time>
      </trkpt>
      <trkpt lat="44.19177" lon="7.01491">
        <ele>941.2</ele>
        <time>2022-07-19T08:21:26Z</time>
      </trkpt>
      <trkpt lat="44.1918" lon="7.01485">
        <ele>941.4</ele>
        <time>2022-07-19T08:21:27Z</time>
      </trkpt>
      <trkpt lat="44.19182" lon="7.0148">
        <ele>941.4</ele>
        <time>2022-07-19T08:21:28Z</time>
      </trkpt>
      <trkpt lat="44.19185" lon="7.01474">
        <ele>941.6</ele>
        <time>2022-07-19T08:21:29Z</time>
      </trkpt>
      <trkpt lat="44.19187" lon="7.01469">
        <ele>941.8</ele>
        <time>2022-07-19T08:21:30Z</time>
      </trkpt>
      <trkpt lat="44.1919" lon="7.01464">
        <ele>942</ele>
        <time>2022-07-19T08:21:31Z</time>
      </trkpt>
      <trkpt lat="44.19192" lon="7.01459">
        <ele>942</ele>
        <time>2022-07-19T08:21:32Z</time>
      </trkpt>
      <trkpt lat="44.19194" lon="7.01454">
        <ele>942.4</ele>
        <time>2022-07-19T08:21:33Z</time>
      </trkpt>
      <trkpt lat="44.19197" lon="7.01448">
        <ele>942.4</ele>
        <time>2022-07-19T08:21:34Z</time>
      </trkpt>
      <trkpt lat="44.19199" lon="7.01443">
        <ele>942.6</ele>
        <time>2022-07-19T08:21:35Z</time>
      </trkpt>
      <trkpt lat="44.19201" lon="7.01437">
        <ele>942.6</ele>
        <time>2022-07-19T08:21:36Z</time>
      </trkpt>
      <trkpt lat="44.19203" lon="7.01432">
        <ele>942.6</ele>
        <time>2022-07-19T08:21:37Z</time>
      </trkpt>
      <trkpt lat="44.19205" lon="7.01427">
        <ele>943</ele>
        <time>2022-07-19T08:21:38Z</time>
      </trkpt>
      <trkpt lat="44.19207" lon="7.01422">
        <ele>943</ele>
        <time>2022-07-19T08:21:39Z</time>
      </trkpt>
      <trkpt lat="44.19209" lon="7.01417">
        <ele>943.2</ele>
        <time>2022-07-19T08:21:40Z</time>
      </trkpt>
      <trkpt lat="44.19211" lon="7.01411">
        <ele>943.2</ele>
        <time>2022-07-19T08:21:41Z</time>
      </trkpt>
      <trkpt lat="44.19213" lon="7.01406">
        <ele>943.6</ele>
        <time>2022-07-19T08:21:42Z</time>
      </trkpt>
      <trkpt lat="44.19215" lon="7.01402">
        <ele>943.6</ele>
        <time>2022-07-19T08:21:43Z</time>
      </trkpt>
      <trkpt lat="44.19217" lon="7.01397">
        <ele>943.8</ele>
        <time>2022-07-19T08:21:44Z</time>
      </trkpt>
      <trkpt lat="44.1922" lon="7.01392">
        <ele>943.8</ele>
        <time>2022-07-19T08:21:45Z</time>
      </trkpt>
      <trkpt lat="44.19222" lon="7.01388">
        <ele>944</ele>
        <time>2022-07-19T08:21:46Z</time>
      </trkpt>
      <trkpt lat="44.19224" lon="7.01383">
        <ele>944</ele>
        <time>2022-07-19T08:21:47Z</time>
      </trkpt>
      <trkpt lat="44.19226" lon="7.01378">
        <ele>944.4</ele>
        <time>2022-07-19T08:21:48Z</time>
      </trkpt>
      <trkpt lat="44.19228" lon="7.01374">
        <ele>944.4</ele>
        <time>2022-07-19T08:21:49Z</time>
      </trkpt>
      <trkpt lat="44.1923" lon="7.01369">
        <ele>944.8</ele>
        <time>2022-07-19T08:21:50Z</time>
      </trkpt>
      <trkpt lat="44.19232" lon="7.01364">
        <ele>944.8</ele>
        <time>2022-07-19T08:21:51Z</time>
      </trkpt>
      <trkpt lat="44.19234" lon="7.0136">
        <ele>945</ele>
        <time>2022-07-19T08:21:52Z</time>
      </trkpt>
      <trkpt lat="44.19237" lon="7.01355">
        <ele>945</ele>
        <time>2022-07-19T08:21:53Z</time>
      </trkpt>
      <trkpt lat="44.19239" lon="7.0135">
        <ele>945.2</ele>
        <time>2022-07-19T08:21:54Z</time>
      </trkpt>
      <trkpt lat="44.19242" lon="7.01345">
        <ele>945.2</ele>
        <time>2022-07-19T08:21:55Z</time>
      </trkpt>
      <trkpt lat="44.19244" lon="7.01341">
        <ele>945.2</ele>
        <time>2022-07-19T08:21:56Z</time>
      </trkpt>
      <trkpt lat="44.19246" lon="7.01336">
        <ele>945.4</ele>
        <time>2022-07-19T08:21:57Z</time>
      </trkpt>
      <trkpt lat="44.19249" lon="7.01331">
        <ele>945.4</ele>
        <time>2022-07-19T08:21:58Z</time>
      </trkpt>
      <trkpt lat="44.19251" lon="7.01326">
        <ele>945.4</ele>
        <time>2022-07-19T08:21:59Z</time>
      </trkpt>
      <trkpt lat="44.19254" lon="7.01322">
        <ele>945.8</ele>
        <time>2022-07-19T08:22:00Z</time>
      </trkpt>
      <trkpt lat="44.19256" lon="7.01317">
        <ele>945.8</ele>
        <time>2022-07-19T08:22:01Z</time>
      </trkpt>
      <trkpt lat="44.19259" lon="7.01312">
        <ele>945.8</ele>
        <time>2022-07-19T08:22:02Z</time>
      </trkpt>
      <trkpt lat="44.19261" lon="7.01308">
        <ele>945.8</ele>
        <time>2022-07-19T08:22:03Z</time>
      </trkpt>
      <trkpt lat="44.19264" lon="7.01303">
        <ele>945.8</ele>
        <time>2022-07-19T08:22:04Z</time>
      </trkpt>
      <trkpt lat="44.19266" lon="7.01298">
        <ele>946</ele>
        <time>2022-07-19T08:22:05Z</time>
      </trkpt>
      <trkpt lat="44.19269" lon="7.01293">
        <ele>946</ele>
        <time>2022-07-19T08:22:06Z</time>
      </trkpt>
      <trkpt lat="44.19272" lon="7.01288">
        <ele>946</ele>
        <time>2022-07-19T08:22:07Z</time>
      </trkpt>
      <trkpt lat="44.19274" lon="7.01284">
        <ele>946.2</ele>
        <time>2022-07-19T08:22:08Z</time>
      </trkpt>
      <trkpt lat="44.19277" lon="7.01279">
        <ele>946.2</ele>
        <time>2022-07-19T08:22:09Z</time>
      </trkpt>
      <trkpt lat="44.19279" lon="7.01274">
        <ele>946.2</ele>
        <time>2022-07-19T08:22:10Z</time>
      </trkpt>
      <trkpt lat="44.19282" lon="7.0127">
        <ele>946.4</ele>
        <time>2022-07-19T08:22:11Z</time>
      </trkpt>
      <trkpt lat="44.19284" lon="7.01265">
        <ele>946.4</ele>
        <time>2022-07-19T08:22:12Z</time>
      </trkpt>
      <trkpt lat="44.19287" lon="7.0126">
        <ele>946.4</ele>
        <time>2022-07-19T08:22:13Z</time>
      </trkpt>
      <trkpt lat="44.1929" lon="7.01256">
        <ele>946.6</ele>
        <time>2022-07-19T08:22:14Z</time>
      </trkpt>
      <trkpt lat="44.19292" lon="7.01251">
        <ele>946.6</ele>
        <time>2022-07-19T08:22:15Z</time>
      </trkpt>
      <trkpt lat="44.19295" lon="7.01247">
        <ele>946.8</ele>
        <time>2022-07-19T08:22:16Z</time>
      </trkpt>
      <trkpt lat="44.19297" lon="7.01242">
        <ele>946.8</ele>
        <time>2022-07-19T08:22:17Z</time>
      </trkpt>
      <trkpt lat="44.193" lon="7.01237">
        <ele>946.8</ele>
        <time>2022-07-19T08:22:18Z</time>
      </trkpt>
      <trkpt lat="44.19303" lon="7.01233">
        <ele>946.8</ele>
        <time>2022-07-19T08:22:19Z</time>
      </trkpt>
      <trkpt lat="44.19305" lon="7.01228">
        <ele>947</ele>
        <time>2022-07-19T08:22:20Z</time>
      </trkpt>
      <trkpt lat="44.19308" lon="7.01224">
        <ele>947</ele>
        <time>2022-07-19T08:22:21Z</time>
      </trkpt>
      <trkpt lat="44.1931" lon="7.01219">
        <ele>947.4</ele>
        <time>2022-07-19T08:22:22Z</time>
      </trkpt>
      <trkpt lat="44.19313" lon="7.01215">
        <ele>947.4</ele>
        <time>2022-07-19T08:22:23Z</time>
      </trkpt>
      <trkpt lat="44.19315" lon="7.0121">
        <ele>947.6</ele>
        <time>2022-07-19T08:22:24Z</time>
      </trkpt>
      <trkpt lat="44.19318" lon="7.01206">
        <ele>947.6</ele>
        <time>2022-07-19T08:22:25Z</time>
      </trkpt>
      <trkpt lat="44.1932" lon="7.01201">
        <ele>947.8</ele>
        <time>2022-07-19T08:22:26Z</time>
      </trkpt>
      <trkpt lat="44.19323" lon="7.01197">
        <ele>947.8</ele>
        <time>2022-07-19T08:22:27Z</time>
      </trkpt>
      <trkpt lat="44.19325" lon="7.01192">
        <ele>947.8</ele>
        <time>2022-07-19T08:22:28Z</time>
      </trkpt>
      <trkpt lat="44.19327" lon="7.01188">
        <ele>948.2</ele>
        <time>2022-07-19T08:22:29Z</time>
      </trkpt>
      <trkpt lat="44.19329" lon="7.01184">
        <ele>948.2</ele>
        <time>2022-07-19T08:22:30Z</time>
      </trkpt>
      <trkpt lat="44.19332" lon="7.0118">
        <ele>948.2</ele>
        <time>2022-07-19T08:22:31Z</time>
      </trkpt>
      <trkpt lat="44.19334" lon="7.01176">
        <ele>948.6</ele>
        <time>2022-07-19T08:22:32Z</time>
      </trkpt>
      <trkpt lat="44.19337" lon="7.01171">
        <ele>948.6</ele>
        <time>2022-07-19T08:22:33Z</time>
      </trkpt>
      <trkpt lat="44.19339" lon="7.01167">
        <ele>948.6</ele>
        <time>2022-07-19T08:22:34Z</time>
      </trkpt>
      <trkpt lat="44.19342" lon="7.01163">
        <ele>948.8</ele>
        <time>2022-07-19T08:22:35Z</time>
      </trkpt>
      <trkpt lat="44.19344" lon="7.01159">
        <ele>948.8</ele>
        <time>2022-07-19T08:22:36Z</time>
      </trkpt>
      <trkpt lat="44.19347" lon="7.01154">
        <ele>949.2</ele>
        <time>2022-07-19T08:22:37Z</time>
      </trkpt>
      <trkpt lat="44.1935" lon="7.0115">
        <ele>949.2</ele>
        <time>2022-07-19T08:22:38Z</time>
      </trkpt>
      <trkpt lat="44.19353" lon="7.01146">
        <ele>949.4</ele>
        <time>2022-07-19T08:22:39Z</time>
      </trkpt>
      <trkpt lat="44.19355" lon="7.01142">
        <ele>949.4</ele>
        <time>2022-07-19T08:22:40Z</time>
      </trkpt>
      <trkpt lat="44.19358" lon="7.01138">
        <ele>949.8</ele>
        <time>2022-07-19T08:22:41Z</time>
      </trkpt>
      <trkpt lat="44.19361" lon="7.01135">
        <ele>949.8</ele>
        <time>2022-07-19T08:22:42Z</time>
      </trkpt>
      <trkpt lat="44.19363" lon="7.01131">
        <ele>950</ele>
        <time>2022-07-19T08:22:43Z</time>
      </trkpt>
      <trkpt lat="44.19366" lon="7.01127">
        <ele>950</ele>
        <time>2022-07-19T08:22:44Z</time>
      </trkpt>
      <trkpt lat="44.19368" lon="7.01124">
        <ele>950.4</ele>
        <time>2022-07-19T08:22:45Z</time>
      </trkpt>
      <trkpt lat="44.19371" lon="7.01121">
        <ele>951</ele>
        <time>2022-07-19T08:22:46Z</time>
      </trkpt>
      <trkpt lat="44.19373" lon="7.01117">
        <ele>951</ele>
        <time>2022-07-19T08:22:47Z</time>
      </trkpt>
      <trkpt lat="44.19376" lon="7.01113">
        <ele>951</ele>
        <time>2022-07-19T08:22:48Z</time>
      </trkpt>
      <trkpt lat="44.19378" lon="7.01108">
        <ele>951.4</ele>
        <time>2022-07-19T08:22:49Z</time>
      </trkpt>
      <trkpt lat="44.19381" lon="7.01104">
        <ele>951.4</ele>
        <time>2022-07-19T08:22:50Z</time>
      </trkpt>
      <trkpt lat="44.19384" lon="7.011">
        <ele>951.4</ele>
        <time>2022-07-19T08:22:51Z</time>
      </trkpt>
      <trkpt lat="44.19387" lon="7.01096">
        <ele>951.6</ele>
        <time>2022-07-19T08:22:52Z</time>
      </trkpt>
      <trkpt lat="44.19389" lon="7.01092">
        <ele>951.6</ele>
        <time>2022-07-19T08:22:53Z</time>
      </trkpt>
      <trkpt lat="44.19392" lon="7.01088">
        <ele>951.6</ele>
        <time>2022-07-19T08:22:54Z</time>
      </trkpt>
      <trkpt lat="44.19395" lon="7.01083">
        <ele>952</ele>
        <time>2022-07-19T08:22:55Z</time>
      </trkpt>
      <trkpt lat="44.19397" lon="7.01079">
        <ele>952</ele>
        <time>2022-07-19T08:22:56Z</time>
      </trkpt>
      <trkpt lat="44.194" lon="7.01075">
        <ele>952.4</ele>
        <time>2022-07-19T08:22:57Z</time>
      </trkpt>
      <trkpt lat="44.19402" lon="7.0107">
        <ele>952.4</ele>
        <time>2022-07-19T08:22:58Z</time>
      </trkpt>
      <trkpt lat="44.19405" lon="7.01066">
        <ele>952.6</ele>
        <time>2022-07-19T08:22:59Z</time>
      </trkpt>
      <trkpt lat="44.19408" lon="7.01063">
        <ele>952.6</ele>
        <time>2022-07-19T08:23:00Z</time>
      </trkpt>
      <trkpt lat="44.19411" lon="7.01058">
        <ele>953</ele>
        <time>2022-07-19T08:23:01Z</time>
      </trkpt>
      <trkpt lat="44.19413" lon="7.01054">
        <ele>953</ele>
        <time>2022-07-19T08:23:02Z</time>
      </trkpt>
      <trkpt lat="44.19415" lon="7.01049">
        <ele>953.2</ele>
        <time>2022-07-19T08:23:03Z</time>
      </trkpt>
      <trkpt lat="44.19417" lon="7.01043">
        <ele>953.2</ele>
        <time>2022-07-19T08:23:04Z</time>
      </trkpt>
      <trkpt lat="44.19419" lon="7.01038">
        <ele>953.4</ele>
        <time>2022-07-19T08:23:05Z</time>
      </trkpt>
      <trkpt lat="44.19421" lon="7.01033">
        <ele>953.4</ele>
        <time>2022-07-19T08:23:06Z</time>
      </trkpt>
      <trkpt lat="44.19423" lon="7.01028">
        <ele>953.8</ele>
        <time>2022-07-19T08:23:07Z</time>
      </trkpt>
      <trkpt lat="44.19424" lon="7.01023">
        <ele>953.8</ele>
        <time>2022-07-19T08:23:08Z</time>
      </trkpt>
      <trkpt lat="44.19426" lon="7.01019">
        <ele>954</ele>
        <time>2022-07-19T08:23:09Z</time>
      </trkpt>
      <trkpt lat="44.19427" lon="7.01013">
        <ele>954</ele>
        <time>2022-07-19T08:23:10Z</time>
      </trkpt>
      <trkpt lat="44.19428" lon="7.01008">
        <ele>954.4</ele>
        <time>2022-07-19T08:23:11Z</time>
      </trkpt>
      <trkpt lat="44.1943" lon="7.01003">
        <ele>954.4</ele>
        <time>2022-07-19T08:23:12Z</time>
      </trkpt>
      <trkpt lat="44.19431" lon="7.00998">
        <ele>954.8</ele>
        <time>2022-07-19T08:23:13Z</time>
      </trkpt>
      <trkpt lat="44.19432" lon="7.00992">
        <ele>954.8</ele>
        <time>2022-07-19T08:23:14Z</time>
      </trkpt>
      <trkpt lat="44.19433" lon="7.00987">
        <ele>955.2</ele>
        <time>2022-07-19T08:23:15Z</time>
      </trkpt>
      <trkpt lat="44.19434" lon="7.00982">
        <ele>955.2</ele>
        <time>2022-07-19T08:23:16Z</time>
      </trkpt>
      <trkpt lat="44.19435" lon="7.00976">
        <ele>955.4</ele>
        <time>2022-07-19T08:23:17Z</time>
      </trkpt>
      <trkpt lat="44.19436" lon="7.00971">
        <ele>955.6</ele>
        <time>2022-07-19T08:23:18Z</time>
      </trkpt>
      <trkpt lat="44.19438" lon="7.00965">
        <ele>955.6</ele>
        <time>2022-07-19T08:23:19Z</time>
      </trkpt>
      <trkpt lat="44.19439" lon="7.00959">
        <ele>955.6</ele>
        <time>2022-07-19T08:23:20Z</time>
      </trkpt>
      <trkpt lat="44.1944" lon="7.00953">
        <ele>955.6</ele>
        <time>2022-07-19T08:23:21Z</time>
      </trkpt>
      <trkpt lat="44.19442" lon="7.00947">
        <ele>955.8</ele>
        <time>2022-07-19T08:23:22Z</time>
      </trkpt>
      <trkpt lat="44.19443" lon="7.00941">
        <ele>955.8</ele>
        <time>2022-07-19T08:23:23Z</time>
      </trkpt>
      <trkpt lat="44.19444" lon="7.00935">
        <ele>955.8</ele>
        <time>2022-07-19T08:23:24Z</time>
      </trkpt>
      <trkpt lat="44.19445" lon="7.00928">
        <ele>956.2</ele>
        <time>2022-07-19T08:23:25Z</time>
      </trkpt>
      <trkpt lat="44.19447" lon="7.00922">
        <ele>956.2</ele>
        <time>2022-07-19T08:23:26Z</time>
      </trkpt>
      <trkpt lat="44.19448" lon="7.00915">
        <ele>956.2</ele>
        <time>2022-07-19T08:23:27Z</time>
      </trkpt>
      <trkpt lat="44.19449" lon="7.00909">
        <ele>956.2</ele>
        <time>2022-07-19T08:23:28Z</time>
      </trkpt>
      <trkpt lat="44.1945" lon="7.00903">
        <ele>956.2</ele>
        <time>2022-07-19T08:23:29Z</time>
      </trkpt>
      <trkpt lat="44.19451" lon="7.00897">
        <ele>956.4</ele>
        <time>2022-07-19T08:23:30Z</time>
      </trkpt>
      <trkpt lat="44.19453" lon="7.0089">
        <ele>956.4</ele>
        <time>2022-07-19T08:23:31Z</time>
      </trkpt>
      <trkpt lat="44.19454" lon="7.00884">
        <ele>956.4</ele>
        <time>2022-07-19T08:23:32Z</time>
      </trkpt>
      <trkpt lat="44.19455" lon="7.00878">
        <ele>956.6</ele>
        <time>2022-07-19T08:23:33Z</time>
      </trkpt>
      <trkpt lat="44.19457" lon="7.00872">
        <ele>956.6</ele>
        <time>2022-07-19T08:23:34Z</time>
      </trkpt>
      <trkpt lat="44.19458" lon="7.00867">
        <ele>956.6</ele>
        <time>2022-07-19T08:23:35Z</time>
      </trkpt>
      <trkpt lat="44.1946" lon="7.00861">
        <ele>956.8</ele>
        <time>2022-07-19T08:23:36Z</time>
      </trkpt>
      <trkpt lat="44.19462" lon="7.00855">
        <ele>956.8</ele>
        <time>2022-07-19T08:23:37Z</time>
      </trkpt>
      <trkpt lat="44.19464" lon="7.00849">
        <ele>956.8</ele>
        <time>2022-07-19T08:23:38Z</time>
      </trkpt>
      <trkpt lat="44.19466" lon="7.00844">
        <ele>956.8</ele>
        <time>2022-07-19T08:23:39Z</time>
      </trkpt>
      <trkpt lat="44.19469" lon="7.00839">
        <ele>957</ele>
        <time>2022-07-19T08:23:40Z</time>
      </trkpt>
      <trkpt lat="44.19472" lon="7.00834">
        <ele>957</ele>
        <time>2022-07-19T08:23:41Z</time>
      </trkpt>
      <trkpt lat="44.19474" lon="7.00829">
        <ele>957</ele>
        <time>2022-07-19T08:23:42Z</time>
      </trkpt>
      <trkpt lat="44.19477" lon="7.00824">
        <ele>957.2</ele>
        <time>2022-07-19T08:23:43Z</time>
      </trkpt>
      <trkpt lat="44.19479" lon="7.00819">
        <ele>957.2</ele>
        <time>2022-07-19T08:23:44Z</time>
      </trkpt>
      <trkpt lat="44.19482" lon="7.00814">
        <ele>957.4</ele>
        <time>2022-07-19T08:23:45Z</time>
      </trkpt>
      <trkpt lat="44.19485" lon="7.0081">
        <ele>957.4</ele>
        <time>2022-07-19T08:23:46Z</time>
      </trkpt>
      <trkpt lat="44.19488" lon="7.00806">
        <ele>957.8</ele>
        <time>2022-07-19T08:23:47Z</time>
      </trkpt>
      <trkpt lat="44.19491" lon="7.00802">
        <ele>957.8</ele>
        <time>2022-07-19T08:23:48Z</time>
      </trkpt>
      <trkpt lat="44.19495" lon="7.00799">
        <ele>957.8</ele>
        <time>2022-07-19T08:23:49Z</time>
      </trkpt>
      <trkpt lat="44.19498" lon="7.00795">
        <ele>958</ele>
        <time>2022-07-19T08:23:50Z</time>
      </trkpt>
      <trkpt lat="44.19502" lon="7.00792">
        <ele>958</ele>
        <time>2022-07-19T08:23:51Z</time>
      </trkpt>
      <trkpt lat="44.19505" lon="7.00789">
        <ele>958</ele>
        <time>2022-07-19T08:23:52Z</time>
      </trkpt>
      <trkpt lat="44.19509" lon="7.00785">
        <ele>958</ele>
        <time>2022-07-19T08:23:53Z</time>
      </trkpt>
      <trkpt lat="44.19512" lon="7.00782">
        <ele>958</ele>
        <time>2022-07-19T08:23:54Z</time>
      </trkpt>
      <trkpt lat="44.19516" lon="7.00779">
        <ele>958.2</ele>
        <time>2022-07-19T08:23:55Z</time>
      </trkpt>
      <trkpt lat="44.1952" lon="7.00776">
        <ele>958.2</ele>
        <time>2022-07-19T08:23:56Z</time>
      </trkpt>
      <trkpt lat="44.19524" lon="7.00773">
        <ele>958.4</ele>
        <time>2022-07-19T08:23:57Z</time>
      </trkpt>
      <trkpt lat="44.19528" lon="7.0077">
        <ele>958.4</ele>
        <time>2022-07-19T08:23:58Z</time>
      </trkpt>
      <trkpt lat="44.19532" lon="7.00766">
        <ele>958.4</ele>
        <time>2022-07-19T08:23:59Z</time>
      </trkpt>
      <trkpt lat="44.19535" lon="7.00763">
        <ele>958.6</ele>
        <time>2022-07-19T08:24:00Z</time>
      </trkpt>
      <trkpt lat="44.19539" lon="7.0076">
        <ele>958.6</ele>
        <time>2022-07-19T08:24:01Z</time>
      </trkpt>
      <trkpt lat="44.19543" lon="7.00757">
        <ele>958.8</ele>
        <time>2022-07-19T08:24:02Z</time>
      </trkpt>
      <trkpt lat="44.19547" lon="7.00755">
        <ele>958.8</ele>
        <time>2022-07-19T08:24:03Z</time>
      </trkpt>
      <trkpt lat="44.1955" lon="7.00752">
        <ele>959.2</ele>
        <time>2022-07-19T08:24:04Z</time>
      </trkpt>
      <trkpt lat="44.19554" lon="7.00749">
        <ele>959.2</ele>
        <time>2022-07-19T08:24:05Z</time>
      </trkpt>
      <trkpt lat="44.19558" lon="7.00746">
        <ele>959.4</ele>
        <time>2022-07-19T08:24:06Z</time>
      </trkpt>
      <trkpt lat="44.19561" lon="7.00743">
        <ele>959.4</ele>
        <time>2022-07-19T08:24:07Z</time>
      </trkpt>
      <trkpt lat="44.19565" lon="7.0074">
        <ele>959.4</ele>
        <time>2022-07-19T08:24:08Z</time>
      </trkpt>
      <trkpt lat="44.19569" lon="7.00737">
        <ele>959.6</ele>
        <time>2022-07-19T08:24:09Z</time>
      </trkpt>
      <trkpt lat="44.19573" lon="7.00734">
        <ele>959.6</ele>
        <time>2022-07-19T08:24:10Z</time>
      </trkpt>
      <trkpt lat="44.19576" lon="7.00731">
        <ele>959.6</ele>
        <time>2022-07-19T08:24:11Z</time>
      </trkpt>
      <trkpt lat="44.1958" lon="7.00728">
        <ele>959.6</ele>
        <time>2022-07-19T08:24:12Z</time>
      </trkpt>
      <trkpt lat="44.19584" lon="7.00725">
        <ele>959.8</ele>
        <time>2022-07-19T08:24:13Z</time>
      </trkpt>
      <trkpt lat="44.19588" lon="7.00722">
        <ele>959.8</ele>
        <time>2022-07-19T08:24:14Z</time>
      </trkpt>
      <trkpt lat="44.19592" lon="7.00718">
        <ele>959.8</ele>
        <time>2022-07-19T08:24:15Z</time>
      </trkpt>
      <trkpt lat="44.19595" lon="7.00715">
        <ele>959.8</ele>
        <time>2022-07-19T08:24:16Z</time>
      </trkpt>
      <trkpt lat="44.19599" lon="7.00712">
        <ele>960</ele>
        <time>2022-07-19T08:24:17Z</time>
      </trkpt>
      <trkpt lat="44.19602" lon="7.00708">
        <ele>960</ele>
        <time>2022-07-19T08:24:18Z</time>
      </trkpt>
      <trkpt lat="44.19605" lon="7.00705">
        <ele>960.2</ele>
        <time>2022-07-19T08:24:19Z</time>
      </trkpt>
      <trkpt lat="44.19608" lon="7.00701">
        <ele>960.2</ele>
        <time>2022-07-19T08:24:20Z</time>
      </trkpt>
      <trkpt lat="44.19612" lon="7.00697">
        <ele>960.4</ele>
        <time>2022-07-19T08:24:21Z</time>
      </trkpt>
      <trkpt lat="44.19615" lon="7.00694">
        <ele>960.4</ele>
        <time>2022-07-19T08:24:22Z</time>
      </trkpt>
      <trkpt lat="44.19618" lon="7.0069">
        <ele>960.8</ele>
        <time>2022-07-19T08:24:23Z</time>
      </trkpt>
      <trkpt lat="44.19621" lon="7.00686">
        <ele>960.8</ele>
        <time>2022-07-19T08:24:24Z</time>
      </trkpt>
      <trkpt lat="44.19624" lon="7.00682">
        <ele>961</ele>
        <time>2022-07-19T08:24:25Z</time>
      </trkpt>
      <trkpt lat="44.19627" lon="7.00678">
        <ele>961</ele>
        <time>2022-07-19T08:24:26Z</time>
      </trkpt>
      <trkpt lat="44.1963" lon="7.00674">
        <ele>961.2</ele>
        <time>2022-07-19T08:24:27Z</time>
      </trkpt>
      <trkpt lat="44.19633" lon="7.00671">
        <ele>961.2</ele>
        <time>2022-07-19T08:24:28Z</time>
      </trkpt>
      <trkpt lat="44.19636" lon="7.00667">
        <ele>961.6</ele>
        <time>2022-07-19T08:24:29Z</time>
      </trkpt>
      <trkpt lat="44.19638" lon="7.00664">
        <ele>961.6</ele>
        <time>2022-07-19T08:24:30Z</time>
      </trkpt>
      <trkpt lat="44.19641" lon="7.0066">
        <ele>961.6</ele>
        <time>2022-07-19T08:24:31Z</time>
      </trkpt>
      <trkpt lat="44.19644" lon="7.00656">
        <ele>961.8</ele>
        <time>2022-07-19T08:24:32Z</time>
      </trkpt>
      <trkpt lat="44.19647" lon="7.00651">
        <ele>961.8</ele>
        <time>2022-07-19T08:24:33Z</time>
      </trkpt>
      <trkpt lat="44.1965" lon="7.00648">
        <ele>962</ele>
        <time>2022-07-19T08:24:34Z</time>
      </trkpt>
      <trkpt lat="44.19653" lon="7.00644">
        <ele>962</ele>
        <time>2022-07-19T08:24:35Z</time>
      </trkpt>
      <trkpt lat="44.19656" lon="7.0064">
        <ele>962</ele>
        <time>2022-07-19T08:24:36Z</time>
      </trkpt>
      <trkpt lat="44.19659" lon="7.00636">
        <ele>962.4</ele>
        <time>2022-07-19T08:24:37Z</time>
      </trkpt>
      <trkpt lat="44.19663" lon="7.00632">
        <ele>962.4</ele>
        <time>2022-07-19T08:24:38Z</time>
      </trkpt>
      <trkpt lat="44.19666" lon="7.00627">
        <ele>962.4</ele>
        <time>2022-07-19T08:24:39Z</time>
      </trkpt>
      <trkpt lat="44.19669" lon="7.00623">
        <ele>962.6</ele>
        <time>2022-07-19T08:24:40Z</time>
      </trkpt>
      <trkpt lat="44.19672" lon="7.00619">
        <ele>962.6</ele>
        <time>2022-07-19T08:24:41Z</time>
      </trkpt>
      <trkpt lat="44.19675" lon="7.00615">
        <ele>962.6</ele>
        <time>2022-07-19T08:24:42Z</time>
      </trkpt>
      <trkpt lat="44.19679" lon="7.00611">
        <ele>962.6</ele>
        <time>2022-07-19T08:24:43Z</time>
      </trkpt>
      <trkpt lat="44.19682" lon="7.00607">
        <ele>962.6</ele>
        <time>2022-07-19T08:24:44Z</time>
      </trkpt>
      <trkpt lat="44.19685" lon="7.00602">
        <ele>963</ele>
        <time>2022-07-19T08:24:45Z</time>
      </trkpt>
      <trkpt lat="44.19688" lon="7.00598">
        <ele>963</ele>
        <time>2022-07-19T08:24:46Z</time>
      </trkpt>
      <trkpt lat="44.19691" lon="7.00594">
        <ele>963</ele>
        <time>2022-07-19T08:24:47Z</time>
      </trkpt>
      <trkpt lat="44.19694" lon="7.00589">
        <ele>963.2</ele>
        <time>2022-07-19T08:24:48Z</time>
      </trkpt>
      <trkpt lat="44.19698" lon="7.00585">
        <ele>963.2</ele>
        <time>2022-07-19T08:24:49Z</time>
      </trkpt>
      <trkpt lat="44.19701" lon="7.00581">
        <ele>963.2</ele>
        <time>2022-07-19T08:24:50Z</time>
      </trkpt>
      <trkpt lat="44.19704" lon="7.00576">
        <ele>963.4</ele>
        <time>2022-07-19T08:24:51Z</time>
      </trkpt>
      <trkpt lat="44.19707" lon="7.00571">
        <ele>963.4</ele>
        <time>2022-07-19T08:24:52Z</time>
      </trkpt>
      <trkpt lat="44.1971" lon="7.00567">
        <ele>963.6</ele>
        <time>2022-07-19T08:24:53Z</time>
      </trkpt>
      <trkpt lat="44.19713" lon="7.00562">
        <ele>963.6</ele>
        <time>2022-07-19T08:24:54Z</time>
      </trkpt>
      <trkpt lat="44.19717" lon="7.00558">
        <ele>963.6</ele>
        <time>2022-07-19T08:24:55Z</time>
      </trkpt>
      <trkpt lat="44.1972" lon="7.00553">
        <ele>964</ele>
        <time>2022-07-19T08:24:56Z</time>
      </trkpt>
      <trkpt lat="44.19723" lon="7.00549">
        <ele>964</ele>
        <time>2022-07-19T08:24:57Z</time>
      </trkpt>
      <trkpt lat="44.19726" lon="7.00545">
        <ele>964.2</ele>
        <time>2022-07-19T08:24:58Z</time>
      </trkpt>
      <trkpt lat="44.1973" lon="7.00541">
        <ele>964.2</ele>
        <time>2022-07-19T08:24:59Z</time>
      </trkpt>
      <trkpt lat="44.19732" lon="7.00537">
        <ele>964.2</ele>
        <time>2022-07-19T08:25:00Z</time>
      </trkpt>
      <trkpt lat="44.19735" lon="7.00533">
        <ele>964.4</ele>
        <time>2022-07-19T08:25:01Z</time>
      </trkpt>
      <trkpt lat="44.19738" lon="7.00528">
        <ele>964.4</ele>
        <time>2022-07-19T08:25:02Z</time>
      </trkpt>
      <trkpt lat="44.19741" lon="7.00524">
        <ele>964.4</ele>
        <time>2022-07-19T08:25:03Z</time>
      </trkpt>
      <trkpt lat="44.19744" lon="7.0052">
        <ele>964.6</ele>
        <time>2022-07-19T08:25:04Z</time>
      </trkpt>
      <trkpt lat="44.19747" lon="7.00515">
        <ele>964.6</ele>
        <time>2022-07-19T08:25:05Z</time>
      </trkpt>
      <trkpt lat="44.1975" lon="7.0051">
        <ele>964.6</ele>
        <time>2022-07-19T08:25:06Z</time>
      </trkpt>
      <trkpt lat="44.19753" lon="7.00506">
        <ele>965</ele>
        <time>2022-07-19T08:25:07Z</time>
      </trkpt>
      <trkpt lat="44.19755" lon="7.00501">
        <ele>965</ele>
        <time>2022-07-19T08:25:08Z</time>
      </trkpt>
      <trkpt lat="44.19758" lon="7.00496">
        <ele>965</ele>
        <time>2022-07-19T08:25:09Z</time>
      </trkpt>
      <trkpt lat="44.19761" lon="7.00491">
        <ele>965.2</ele>
        <time>2022-07-19T08:25:10Z</time>
      </trkpt>
      <trkpt lat="44.19764" lon="7.00485">
        <ele>965.2</ele>
        <time>2022-07-19T08:25:11Z</time>
      </trkpt>
      <trkpt lat="44.19766" lon="7.0048">
        <ele>965.2</ele>
        <time>2022-07-19T08:25:12Z</time>
      </trkpt>
      <trkpt lat="44.19769" lon="7.00475">
        <ele>965.4</ele>
        <time>2022-07-19T08:25:13Z</time>
      </trkpt>
      <trkpt lat="44.19771" lon="7.00469">
        <ele>965.4</ele>
        <time>2022-07-19T08:25:14Z</time>
      </trkpt>
      <trkpt lat="44.19774" lon="7.00464">
        <ele>965.4</ele>
        <time>2022-07-19T08:25:15Z</time>
      </trkpt>
      <trkpt lat="44.19776" lon="7.00459">
        <ele>965.6</ele>
        <time>2022-07-19T08:25:16Z</time>
      </trkpt>
      <trkpt lat="44.19778" lon="7.00454">
        <ele>965.6</ele>
        <time>2022-07-19T08:25:17Z</time>
      </trkpt>
      <trkpt lat="44.1978" lon="7.00449">
        <ele>965.6</ele>
        <time>2022-07-19T08:25:18Z</time>
      </trkpt>
      <trkpt lat="44.19782" lon="7.00443">
        <ele>965.6</ele>
        <time>2022-07-19T08:25:19Z</time>
      </trkpt>
      <trkpt lat="44.19784" lon="7.00438">
        <ele>966</ele>
        <time>2022-07-19T08:25:20Z</time>
      </trkpt>
      <trkpt lat="44.19786" lon="7.00433">
        <ele>966</ele>
        <time>2022-07-19T08:25:21Z</time>
      </trkpt>
      <trkpt lat="44.19788" lon="7.00427">
        <ele>966</ele>
        <time>2022-07-19T08:25:22Z</time>
      </trkpt>
      <trkpt lat="44.1979" lon="7.00422">
        <ele>966.2</ele>
        <time>2022-07-19T08:25:23Z</time>
      </trkpt>
      <trkpt lat="44.19791" lon="7.00416">
        <ele>966.2</ele>
        <time>2022-07-19T08:25:24Z</time>
      </trkpt>
      <trkpt lat="44.19793" lon="7.00411">
        <ele>966.2</ele>
        <time>2022-07-19T08:25:25Z</time>
      </trkpt>
      <trkpt lat="44.19795" lon="7.00405">
        <ele>966.2</ele>
        <time>2022-07-19T08:25:26Z</time>
      </trkpt>
      <trkpt lat="44.19796" lon="7.004">
        <ele>966.4</ele>
        <time>2022-07-19T08:25:27Z</time>
      </trkpt>
      <trkpt lat="44.19797" lon="7.00394">
        <ele>966.4</ele>
        <time>2022-07-19T08:25:28Z</time>
      </trkpt>
      <trkpt lat="44.19799" lon="7.00389">
        <ele>966.4</ele>
        <time>2022-07-19T08:25:29Z</time>
      </trkpt>
      <trkpt lat="44.198" lon="7.00383">
        <ele>966.8</ele>
        <time>2022-07-19T08:25:30Z</time>
      </trkpt>
      <trkpt lat="44.19801" lon="7.00378">
        <ele>966.8</ele>
        <time>2022-07-19T08:25:31Z</time>
      </trkpt>
      <trkpt lat="44.19802" lon="7.00372">
        <ele>967</ele>
        <time>2022-07-19T08:25:32Z</time>
      </trkpt>
      <trkpt lat="44.19804" lon="7.00367">
        <ele>967</ele>
        <time>2022-07-19T08:25:33Z</time>
      </trkpt>
      <trkpt lat="44.19805" lon="7.00361">
        <ele>967.2</ele>
        <time>2022-07-19T08:25:34Z</time>
      </trkpt>
      <trkpt lat="44.19806" lon="7.00355">
        <ele>967.2</ele>
        <time>2022-07-19T08:25:35Z</time>
      </trkpt>
      <trkpt lat="44.19806" lon="7.00349">
        <ele>967.2</ele>
        <time>2022-07-19T08:25:36Z</time>
      </trkpt>
      <trkpt lat="44.19807" lon="7.00343">
        <ele>967.6</ele>
        <time>2022-07-19T08:25:37Z</time>
      </trkpt>
      <trkpt lat="44.19808" lon="7.00338">
        <ele>967.6</ele>
        <time>2022-07-19T08:25:38Z</time>
      </trkpt>
      <trkpt lat="44.19809" lon="7.00332">
        <ele>967.6</ele>
        <time>2022-07-19T08:25:39Z</time>
      </trkpt>
      <trkpt lat="44.1981" lon="7.00326">
        <ele>967.6</ele>
        <time>2022-07-19T08:25:40Z</time>
      </trkpt>
      <trkpt lat="44.1981" lon="7.0032">
        <ele>967.6</ele>
        <time>2022-07-19T08:25:41Z</time>
      </trkpt>
      <trkpt lat="44.19811" lon="7.00314">
        <ele>967.8</ele>
        <time>2022-07-19T08:25:42Z</time>
      </trkpt>
      <trkpt lat="44.19812" lon="7.00308">
        <ele>967.8</ele>
        <time>2022-07-19T08:25:43Z</time>
      </trkpt>
      <trkpt lat="44.19813" lon="7.00302">
        <ele>967.8</ele>
        <time>2022-07-19T08:25:44Z</time>
      </trkpt>
      <trkpt lat="44.19814" lon="7.00296">
        <ele>967.8</ele>
        <time>2022-07-19T08:25:45Z</time>
      </trkpt>
      <trkpt lat="44.19814" lon="7.0029">
        <ele>968.2</ele>
        <time>2022-07-19T08:25:46Z</time>
      </trkpt>
      <trkpt lat="44.19815" lon="7.00284">
        <ele>968.2</ele>
        <time>2022-07-19T08:25:47Z</time>
      </trkpt>
      <trkpt lat="44.19816" lon="7.00278">
        <ele>968.2</ele>
        <time>2022-07-19T08:25:48Z</time>
      </trkpt>
      <trkpt lat="44.19817" lon="7.00272">
        <ele>968.2</ele>
        <time>2022-07-19T08:25:49Z</time>
      </trkpt>
      <trkpt lat="44.19818" lon="7.00267">
        <ele>968.2</ele>
        <time>2022-07-19T08:25:50Z</time>
      </trkpt>
      <trkpt lat="44.19819" lon="7.00255">
        <ele>968.2</ele>
        <time>2022-07-19T08:25:51Z</time>
      </trkpt>
      <trkpt lat="44.1982" lon="7.0025">
        <ele>968.6</ele>
        <time>2022-07-19T08:25:52Z</time>
      </trkpt>
      <trkpt lat="44.19821" lon="7.00244">
        <ele>968.6</ele>
        <time>2022-07-19T08:25:53Z</time>
      </trkpt>
      <trkpt lat="44.19822" lon="7.00238">
        <ele>968.6</ele>
        <time>2022-07-19T08:25:54Z</time>
      </trkpt>
      <trkpt lat="44.19823" lon="7.00232">
        <ele>968.8</ele>
        <time>2022-07-19T08:25:55Z</time>
      </trkpt>
      <trkpt lat="44.19824" lon="7.00227">
        <ele>968.8</ele>
        <time>2022-07-19T08:25:56Z</time>
      </trkpt>
      <trkpt lat="44.19825" lon="7.00221">
        <ele>968.8</ele>
        <time>2022-07-19T08:25:57Z</time>
      </trkpt>
      <trkpt lat="44.19826" lon="7.00215">
        <ele>969</ele>
        <time>2022-07-19T08:25:58Z</time>
      </trkpt>
      <trkpt lat="44.19827" lon="7.0021">
        <ele>969</ele>
        <time>2022-07-19T08:25:59Z</time>
      </trkpt>
      <trkpt lat="44.19828" lon="7.00204">
        <ele>969.2</ele>
        <time>2022-07-19T08:26:00Z</time>
      </trkpt>
      <trkpt lat="44.1983" lon="7.00199">
        <ele>969.2</ele>
        <time>2022-07-19T08:26:01Z</time>
      </trkpt>
      <trkpt lat="44.19831" lon="7.00194">
        <ele>969.2</ele>
        <time>2022-07-19T08:26:02Z</time>
      </trkpt>
      <trkpt lat="44.19832" lon="7.00189">
        <ele>969.6</ele>
        <time>2022-07-19T08:26:03Z</time>
      </trkpt>
      <trkpt lat="44.19834" lon="7.00183">
        <ele>969.6</ele>
        <time>2022-07-19T08:26:04Z</time>
      </trkpt>
      <trkpt lat="44.19835" lon="7.00178">
        <ele>969.8</ele>
        <time>2022-07-19T08:26:05Z</time>
      </trkpt>
      <trkpt lat="44.19837" lon="7.00172">
        <ele>969.8</ele>
        <time>2022-07-19T08:26:06Z</time>
      </trkpt>
      <trkpt lat="44.19839" lon="7.00167">
        <ele>970.2</ele>
        <time>2022-07-19T08:26:07Z</time>
      </trkpt>
      <trkpt lat="44.19841" lon="7.00161">
        <ele>970.2</ele>
        <time>2022-07-19T08:26:08Z</time>
      </trkpt>
      <trkpt lat="44.19843" lon="7.00156">
        <ele>970.2</ele>
        <time>2022-07-19T08:26:09Z</time>
      </trkpt>
      <trkpt lat="44.19845" lon="7.0015">
        <ele>970.4</ele>
        <time>2022-07-19T08:26:10Z</time>
      </trkpt>
      <trkpt lat="44.19847" lon="7.00145">
        <ele>970.6</ele>
        <time>2022-07-19T08:26:11Z</time>
      </trkpt>
      <trkpt lat="44.19849" lon="7.0014">
        <ele>970.6</ele>
        <time>2022-07-19T08:26:12Z</time>
      </trkpt>
      <trkpt lat="44.19852" lon="7.00135">
        <ele>971</ele>
        <time>2022-07-19T08:26:13Z</time>
      </trkpt>
      <trkpt lat="44.19854" lon="7.0013">
        <ele>971</ele>
        <time>2022-07-19T08:26:14Z</time>
      </trkpt>
      <trkpt lat="44.19857" lon="7.00125">
        <ele>971</ele>
        <time>2022-07-19T08:26:15Z</time>
      </trkpt>
      <trkpt lat="44.19859" lon="7.00121">
        <ele>971.2</ele>
        <time>2022-07-19T08:26:16Z</time>
      </trkpt>
      <trkpt lat="44.19861" lon="7.00116">
        <ele>971.2</ele>
        <time>2022-07-19T08:26:17Z</time>
      </trkpt>
      <trkpt lat="44.19864" lon="7.00111">
        <ele>971.4</ele>
        <time>2022-07-19T08:26:18Z</time>
      </trkpt>
      <trkpt lat="44.19866" lon="7.00107">
        <ele>971.4</ele>
        <time>2022-07-19T08:26:19Z</time>
      </trkpt>
      <trkpt lat="44.19868" lon="7.00102">
        <ele>971.6</ele>
        <time>2022-07-19T08:26:20Z</time>
      </trkpt>
      <trkpt lat="44.19871" lon="7.00098">
        <ele>971.6</ele>
        <time>2022-07-19T08:26:21Z</time>
      </trkpt>
      <trkpt lat="44.19873" lon="7.00093">
        <ele>971.6</ele>
        <time>2022-07-19T08:26:22Z</time>
      </trkpt>
      <trkpt lat="44.19876" lon="7.00088">
        <ele>972</ele>
        <time>2022-07-19T08:26:23Z</time>
      </trkpt>
      <trkpt lat="44.19879" lon="7.00084">
        <ele>972</ele>
        <time>2022-07-19T08:26:24Z</time>
      </trkpt>
      <trkpt lat="44.19881" lon="7.00079">
        <ele>972</ele>
        <time>2022-07-19T08:26:25Z</time>
      </trkpt>
      <trkpt lat="44.19884" lon="7.00075">
        <ele>972.2</ele>
        <time>2022-07-19T08:26:27Z</time>
      </trkpt>
      <trkpt lat="44.19887" lon="7.00071">
        <ele>972.2</ele>
        <time>2022-07-19T08:26:28Z</time>
      </trkpt>
      <trkpt lat="44.1989" lon="7.00066">
        <ele>972.6</ele>
        <time>2022-07-19T08:26:29Z</time>
      </trkpt>
      <trkpt lat="44.19892" lon="7.00062">
        <ele>972.6</ele>
        <time>2022-07-19T08:26:30Z</time>
      </trkpt>
      <trkpt lat="44.19895" lon="7.00058">
        <ele>973</ele>
        <time>2022-07-19T08:26:31Z</time>
      </trkpt>
      <trkpt lat="44.19898" lon="7.00054">
        <ele>973</ele>
        <time>2022-07-19T08:26:32Z</time>
      </trkpt>
      <trkpt lat="44.19901" lon="7.0005">
        <ele>973.2</ele>
        <time>2022-07-19T08:26:33Z</time>
      </trkpt>
      <trkpt lat="44.19903" lon="7.00046">
        <ele>973.2</ele>
        <time>2022-07-19T08:26:34Z</time>
      </trkpt>
      <trkpt lat="44.19906" lon="7.00041">
        <ele>973.2</ele>
        <time>2022-07-19T08:26:35Z</time>
      </trkpt>
      <trkpt lat="44.19909" lon="7.00037">
        <ele>973.4</ele>
        <time>2022-07-19T08:26:36Z</time>
      </trkpt>
      <trkpt lat="44.19912" lon="7.00033">
        <ele>973.4</ele>
        <time>2022-07-19T08:26:37Z</time>
      </trkpt>
      <trkpt lat="44.19914" lon="7.00029">
        <ele>973.4</ele>
        <time>2022-07-19T08:26:38Z</time>
      </trkpt>
      <trkpt lat="44.19917" lon="7.00025">
        <ele>973.8</ele>
        <time>2022-07-19T08:26:39Z</time>
      </trkpt>
      <trkpt lat="44.1992" lon="7.0002">
        <ele>973.8</ele>
        <time>2022-07-19T08:26:40Z</time>
      </trkpt>
      <trkpt lat="44.19923" lon="7.00016">
        <ele>973.8</ele>
        <time>2022-07-19T08:26:41Z</time>
      </trkpt>
      <trkpt lat="44.19925" lon="7.00011">
        <ele>974</ele>
        <time>2022-07-19T08:26:42Z</time>
      </trkpt>
      <trkpt lat="44.19928" lon="7.00007">
        <ele>974</ele>
        <time>2022-07-19T08:26:43Z</time>
      </trkpt>
      <trkpt lat="44.19931" lon="7.00002">
        <ele>974</ele>
        <time>2022-07-19T08:26:44Z</time>
      </trkpt>
      <trkpt lat="44.19934" lon="6.99998">
        <ele>974.2</ele>
        <time>2022-07-19T08:26:45Z</time>
      </trkpt>
      <trkpt lat="44.19936" lon="6.99993">
        <ele>974.2</ele>
        <time>2022-07-19T08:26:46Z</time>
      </trkpt>
      <trkpt lat="44.19939" lon="6.99989">
        <ele>974.4</ele>
        <time>2022-07-19T08:26:47Z</time>
      </trkpt>
      <trkpt lat="44.19942" lon="6.99984">
        <ele>974.4</ele>
        <time>2022-07-19T08:26:48Z</time>
      </trkpt>
      <trkpt lat="44.19945" lon="6.9998">
        <ele>974.8</ele>
        <time>2022-07-19T08:26:49Z</time>
      </trkpt>
      <trkpt lat="44.19948" lon="6.99975">
        <ele>975</ele>
        <time>2022-07-19T08:26:50Z</time>
      </trkpt>
      <trkpt lat="44.1995" lon="6.99971">
        <ele>975</ele>
        <time>2022-07-19T08:26:51Z</time>
      </trkpt>
      <trkpt lat="44.19953" lon="6.99966">
        <ele>975.4</ele>
        <time>2022-07-19T08:26:52Z</time>
      </trkpt>
      <trkpt lat="44.19956" lon="6.99962">
        <ele>975.4</ele>
        <time>2022-07-19T08:26:53Z</time>
      </trkpt>
      <trkpt lat="44.19958" lon="6.99957">
        <ele>975.4</ele>
        <time>2022-07-19T08:26:54Z</time>
      </trkpt>
      <trkpt lat="44.1996" lon="6.99953">
        <ele>975.4</ele>
        <time>2022-07-19T08:26:55Z</time>
      </trkpt>
      <trkpt lat="44.19963" lon="6.99948">
        <ele>975.6</ele>
        <time>2022-07-19T08:26:56Z</time>
      </trkpt>
      <trkpt lat="44.19966" lon="6.99943">
        <ele>975.6</ele>
        <time>2022-07-19T08:26:57Z</time>
      </trkpt>
      <trkpt lat="44.19968" lon="6.99939">
        <ele>976</ele>
        <time>2022-07-19T08:26:58Z</time>
      </trkpt>
      <trkpt lat="44.19971" lon="6.99934">
        <ele>976</ele>
        <time>2022-07-19T08:26:59Z</time>
      </trkpt>
      <trkpt lat="44.19973" lon="6.99929">
        <ele>976.2</ele>
        <time>2022-07-19T08:27:00Z</time>
      </trkpt>
      <trkpt lat="44.19975" lon="6.99924">
        <ele>976.2</ele>
        <time>2022-07-19T08:27:01Z</time>
      </trkpt>
      <trkpt lat="44.19977" lon="6.99919">
        <ele>976.2</ele>
        <time>2022-07-19T08:27:02Z</time>
      </trkpt>
      <trkpt lat="44.19979" lon="6.99914">
        <ele>976.4</ele>
        <time>2022-07-19T08:27:03Z</time>
      </trkpt>
      <trkpt lat="44.19981" lon="6.99909">
        <ele>976.4</ele>
        <time>2022-07-19T08:27:04Z</time>
      </trkpt>
      <trkpt lat="44.19983" lon="6.99903">
        <ele>976.4</ele>
        <time>2022-07-19T08:27:05Z</time>
      </trkpt>
      <trkpt lat="44.19985" lon="6.99898">
        <ele>976.8</ele>
        <time>2022-07-19T08:27:06Z</time>
      </trkpt>
      <trkpt lat="44.19987" lon="6.99893">
        <ele>976.8</ele>
        <time>2022-07-19T08:27:07Z</time>
      </trkpt>
      <trkpt lat="44.19989" lon="6.99888">
        <ele>977</ele>
        <time>2022-07-19T08:27:08Z</time>
      </trkpt>
      <trkpt lat="44.19991" lon="6.99883">
        <ele>977</ele>
        <time>2022-07-19T08:27:09Z</time>
      </trkpt>
      <trkpt lat="44.19992" lon="6.99878">
        <ele>977.2</ele>
        <time>2022-07-19T08:27:10Z</time>
      </trkpt>
      <trkpt lat="44.19994" lon="6.99873">
        <ele>977.2</ele>
        <time>2022-07-19T08:27:11Z</time>
      </trkpt>
      <trkpt lat="44.19995" lon="6.99867">
        <ele>977.2</ele>
        <time>2022-07-19T08:27:12Z</time>
      </trkpt>
      <trkpt lat="44.19997" lon="6.99862">
        <ele>977.6</ele>
        <time>2022-07-19T08:27:13Z</time>
      </trkpt>
      <trkpt lat="44.19998" lon="6.99856">
        <ele>977.6</ele>
        <time>2022-07-19T08:27:14Z</time>
      </trkpt>
      <trkpt lat="44.2" lon="6.99851">
        <ele>977.6</ele>
        <time>2022-07-19T08:27:15Z</time>
      </trkpt>
      <trkpt lat="44.20001" lon="6.99845">
        <ele>977.8</ele>
        <time>2022-07-19T08:27:16Z</time>
      </trkpt>
      <trkpt lat="44.20002" lon="6.99839">
        <ele>977.8</ele>
        <time>2022-07-19T08:27:17Z</time>
      </trkpt>
      <trkpt lat="44.20003" lon="6.99834">
        <ele>977.8</ele>
        <time>2022-07-19T08:27:18Z</time>
      </trkpt>
      <trkpt lat="44.20004" lon="6.99828">
        <ele>978</ele>
        <time>2022-07-19T08:27:19Z</time>
      </trkpt>
      <trkpt lat="44.20005" lon="6.99822">
        <ele>978</ele>
        <time>2022-07-19T08:27:20Z</time>
      </trkpt>
      <trkpt lat="44.20006" lon="6.99817">
        <ele>978.2</ele>
        <time>2022-07-19T08:27:21Z</time>
      </trkpt>
      <trkpt lat="44.20007" lon="6.99811">
        <ele>978.2</ele>
        <time>2022-07-19T08:27:22Z</time>
      </trkpt>
      <trkpt lat="44.20008" lon="6.99806">
        <ele>978.2</ele>
        <time>2022-07-19T08:27:23Z</time>
      </trkpt>
      <trkpt lat="44.20009" lon="6.998">
        <ele>978.4</ele>
        <time>2022-07-19T08:27:24Z</time>
      </trkpt>
      <trkpt lat="44.2001" lon="6.99795">
        <ele>978.4</ele>
        <time>2022-07-19T08:27:25Z</time>
      </trkpt>
      <trkpt lat="44.20011" lon="6.9979">
        <ele>978.8</ele>
        <time>2022-07-19T08:27:26Z</time>
      </trkpt>
      <trkpt lat="44.20012" lon="6.99784">
        <ele>978.8</ele>
        <time>2022-07-19T08:27:27Z</time>
      </trkpt>
      <trkpt lat="44.20012" lon="6.99779">
        <ele>978.8</ele>
        <time>2022-07-19T08:27:28Z</time>
      </trkpt>
      <trkpt lat="44.20013" lon="6.99773">
        <ele>979</ele>
        <time>2022-07-19T08:27:29Z</time>
      </trkpt>
      <trkpt lat="44.20014" lon="6.99767">
        <ele>979</ele>
        <time>2022-07-19T08:27:30Z</time>
      </trkpt>
      <trkpt lat="44.20014" lon="6.99762">
        <ele>979</ele>
        <time>2022-07-19T08:27:31Z</time>
      </trkpt>
      <trkpt lat="44.20015" lon="6.99756">
        <ele>979.2</ele>
        <time>2022-07-19T08:27:32Z</time>
      </trkpt>
      <trkpt lat="44.20016" lon="6.99751">
        <ele>979.2</ele>
        <time>2022-07-19T08:27:33Z</time>
      </trkpt>
      <trkpt lat="44.20017" lon="6.99745">
        <ele>979.2</ele>
        <time>2022-07-19T08:27:34Z</time>
      </trkpt>
      <trkpt lat="44.20018" lon="6.99739">
        <ele>979.2</ele>
        <time>2022-07-19T08:27:35Z</time>
      </trkpt>
      <trkpt lat="44.20018" lon="6.99734">
        <ele>979.4</ele>
        <time>2022-07-19T08:27:36Z</time>
      </trkpt>
      <trkpt lat="44.20019" lon="6.99728">
        <ele>979.4</ele>
        <time>2022-07-19T08:27:37Z</time>
      </trkpt>
      <trkpt lat="44.2002" lon="6.99722">
        <ele>979.8</ele>
        <time>2022-07-19T08:27:38Z</time>
      </trkpt>
      <trkpt lat="44.20021" lon="6.99716">
        <ele>979.8</ele>
        <time>2022-07-19T08:27:39Z</time>
      </trkpt>
      <trkpt lat="44.20022" lon="6.9971">
        <ele>979.8</ele>
        <time>2022-07-19T08:27:40Z</time>
      </trkpt>
      <trkpt lat="44.20022" lon="6.99704">
        <ele>980</ele>
        <time>2022-07-19T08:27:41Z</time>
      </trkpt>
      <trkpt lat="44.20023" lon="6.99698">
        <ele>980</ele>
        <time>2022-07-19T08:27:42Z</time>
      </trkpt>
      <trkpt lat="44.20024" lon="6.99693">
        <ele>980.2</ele>
        <time>2022-07-19T08:27:43Z</time>
      </trkpt>
      <trkpt lat="44.20025" lon="6.99687">
        <ele>980.2</ele>
        <time>2022-07-19T08:27:44Z</time>
      </trkpt>
      <trkpt lat="44.20026" lon="6.99682">
        <ele>980.2</ele>
        <time>2022-07-19T08:27:45Z</time>
      </trkpt>
      <trkpt lat="44.20027" lon="6.99677">
        <ele>980.4</ele>
        <time>2022-07-19T08:27:46Z</time>
      </trkpt>
      <trkpt lat="44.20029" lon="6.99671">
        <ele>980.4</ele>
        <time>2022-07-19T08:27:47Z</time>
      </trkpt>
      <trkpt lat="44.2003" lon="6.99666">
        <ele>980.4</ele>
        <time>2022-07-19T08:27:48Z</time>
      </trkpt>
      <trkpt lat="44.20031" lon="6.9966">
        <ele>980.4</ele>
        <time>2022-07-19T08:27:49Z</time>
      </trkpt>
      <trkpt lat="44.20032" lon="6.99655">
        <ele>980.8</ele>
        <time>2022-07-19T08:27:50Z</time>
      </trkpt>
      <trkpt lat="44.20034" lon="6.9965">
        <ele>980.8</ele>
        <time>2022-07-19T08:27:51Z</time>
      </trkpt>
      <trkpt lat="44.20036" lon="6.99645">
        <ele>981</ele>
        <time>2022-07-19T08:27:52Z</time>
      </trkpt>
      <trkpt lat="44.20037" lon="6.99639">
        <ele>981</ele>
        <time>2022-07-19T08:27:53Z</time>
      </trkpt>
      <trkpt lat="44.20039" lon="6.99633">
        <ele>981</ele>
        <time>2022-07-19T08:27:54Z</time>
      </trkpt>
      <trkpt lat="44.20041" lon="6.99628">
        <ele>981.2</ele>
        <time>2022-07-19T08:27:55Z</time>
      </trkpt>
      <trkpt lat="44.20043" lon="6.99623">
        <ele>981.2</ele>
        <time>2022-07-19T08:27:56Z</time>
      </trkpt>
      <trkpt lat="44.20045" lon="6.99617">
        <ele>981.2</ele>
        <time>2022-07-19T08:27:57Z</time>
      </trkpt>
      <trkpt lat="44.20048" lon="6.99612">
        <ele>981.6</ele>
        <time>2022-07-19T08:27:58Z</time>
      </trkpt>
      <trkpt lat="44.2005" lon="6.99607">
        <ele>981.6</ele>
        <time>2022-07-19T08:27:59Z</time>
      </trkpt>
      <trkpt lat="44.20052" lon="6.99602">
        <ele>981.8</ele>
        <time>2022-07-19T08:28:00Z</time>
      </trkpt>
      <trkpt lat="44.20054" lon="6.99597">
        <ele>981.8</ele>
        <time>2022-07-19T08:28:01Z</time>
      </trkpt>
      <trkpt lat="44.20056" lon="6.99592">
        <ele>982</ele>
        <time>2022-07-19T08:28:02Z</time>
      </trkpt>
      <trkpt lat="44.20059" lon="6.99587">
        <ele>982</ele>
        <time>2022-07-19T08:28:03Z</time>
      </trkpt>
      <trkpt lat="44.20061" lon="6.99583">
        <ele>982.4</ele>
        <time>2022-07-19T08:28:04Z</time>
      </trkpt>
      <trkpt lat="44.20064" lon="6.99578">
        <ele>982.4</ele>
        <time>2022-07-19T08:28:05Z</time>
      </trkpt>
      <trkpt lat="44.20066" lon="6.99573">
        <ele>982.6</ele>
        <time>2022-07-19T08:28:06Z</time>
      </trkpt>
      <trkpt lat="44.20069" lon="6.99569">
        <ele>982.6</ele>
        <time>2022-07-19T08:28:07Z</time>
      </trkpt>
      <trkpt lat="44.20072" lon="6.99564">
        <ele>982.8</ele>
        <time>2022-07-19T08:28:08Z</time>
      </trkpt>
      <trkpt lat="44.20075" lon="6.99559">
        <ele>982.8</ele>
        <time>2022-07-19T08:28:09Z</time>
      </trkpt>
      <trkpt lat="44.20077" lon="6.99555">
        <ele>983.2</ele>
        <time>2022-07-19T08:28:10Z</time>
      </trkpt>
      <trkpt lat="44.2008" lon="6.9955">
        <ele>983.2</ele>
        <time>2022-07-19T08:28:11Z</time>
      </trkpt>
      <trkpt lat="44.20083" lon="6.99545">
        <ele>983.4</ele>
        <time>2022-07-19T08:28:12Z</time>
      </trkpt>
      <trkpt lat="44.20086" lon="6.99541">
        <ele>983.4</ele>
        <time>2022-07-19T08:28:13Z</time>
      </trkpt>
      <trkpt lat="44.20089" lon="6.99536">
        <ele>983.6</ele>
        <time>2022-07-19T08:28:14Z</time>
      </trkpt>
      <trkpt lat="44.20091" lon="6.99532">
        <ele>983.8</ele>
        <time>2022-07-19T08:28:15Z</time>
      </trkpt>
      <trkpt lat="44.20094" lon="6.99528">
        <ele>983.8</ele>
        <time>2022-07-19T08:28:16Z</time>
      </trkpt>
      <trkpt lat="44.20096" lon="6.99524">
        <ele>984</ele>
        <time>2022-07-19T08:28:17Z</time>
      </trkpt>
      <trkpt lat="44.20099" lon="6.99519">
        <ele>984</ele>
        <time>2022-07-19T08:28:18Z</time>
      </trkpt>
      <trkpt lat="44.20101" lon="6.99515">
        <ele>984.4</ele>
        <time>2022-07-19T08:28:19Z</time>
      </trkpt>
      <trkpt lat="44.20104" lon="6.9951">
        <ele>984.4</ele>
        <time>2022-07-19T08:28:20Z</time>
      </trkpt>
      <trkpt lat="44.20106" lon="6.99506">
        <ele>984.4</ele>
        <time>2022-07-19T08:28:21Z</time>
      </trkpt>
      <trkpt lat="44.20108" lon="6.99501">
        <ele>984.6</ele>
        <time>2022-07-19T08:28:22Z</time>
      </trkpt>
      <trkpt lat="44.20113" lon="6.99491">
        <ele>984.8</ele>
        <time>2022-07-19T08:28:24Z</time>
      </trkpt>
      <trkpt lat="44.20115" lon="6.99486">
        <ele>985.2</ele>
        <time>2022-07-19T08:28:25Z</time>
      </trkpt>
      <trkpt lat="44.20117" lon="6.99482">
        <ele>985.2</ele>
        <time>2022-07-19T08:28:26Z</time>
      </trkpt>
      <trkpt lat="44.20119" lon="6.99476">
        <ele>985.4</ele>
        <time>2022-07-19T08:28:27Z</time>
      </trkpt>
      <trkpt lat="44.20121" lon="6.99471">
        <ele>985.4</ele>
        <time>2022-07-19T08:28:28Z</time>
      </trkpt>
      <trkpt lat="44.20123" lon="6.99466">
        <ele>985.6</ele>
        <time>2022-07-19T08:28:29Z</time>
      </trkpt>
      <trkpt lat="44.20125" lon="6.99462">
        <ele>985.6</ele>
        <time>2022-07-19T08:28:30Z</time>
      </trkpt>
      <trkpt lat="44.20127" lon="6.99457">
        <ele>986</ele>
        <time>2022-07-19T08:28:31Z</time>
      </trkpt>
      <trkpt lat="44.20128" lon="6.99452">
        <ele>986</ele>
        <time>2022-07-19T08:28:32Z</time>
      </trkpt>
      <trkpt lat="44.20129" lon="6.99446">
        <ele>986</ele>
        <time>2022-07-19T08:28:33Z</time>
      </trkpt>
      <trkpt lat="44.2013" lon="6.9944">
        <ele>986.2</ele>
        <time>2022-07-19T08:28:34Z</time>
      </trkpt>
      <trkpt lat="44.20132" lon="6.99434">
        <ele>986.2</ele>
        <time>2022-07-19T08:28:35Z</time>
      </trkpt>
      <trkpt lat="44.20133" lon="6.99429">
        <ele>986.2</ele>
        <time>2022-07-19T08:28:36Z</time>
      </trkpt>
      <trkpt lat="44.20134" lon="6.99423">
        <ele>986.2</ele>
        <time>2022-07-19T08:28:37Z</time>
      </trkpt>
      <trkpt lat="44.20135" lon="6.99417">
        <ele>986.4</ele>
        <time>2022-07-19T08:28:38Z</time>
      </trkpt>
      <trkpt lat="44.20135" lon="6.99411">
        <ele>986.4</ele>
        <time>2022-07-19T08:28:39Z</time>
      </trkpt>
      <trkpt lat="44.20136" lon="6.99405">
        <ele>986.4</ele>
        <time>2022-07-19T08:28:40Z</time>
      </trkpt>
      <trkpt lat="44.20136" lon="6.99399">
        <ele>986.6</ele>
        <time>2022-07-19T08:28:41Z</time>
      </trkpt>
      <trkpt lat="44.20137" lon="6.99393">
        <ele>986.6</ele>
        <time>2022-07-19T08:28:42Z</time>
      </trkpt>
      <trkpt lat="44.20137" lon="6.99387">
        <ele>986.6</ele>
        <time>2022-07-19T08:28:43Z</time>
      </trkpt>
      <trkpt lat="44.20138" lon="6.99381">
        <ele>986.6</ele>
        <time>2022-07-19T08:28:44Z</time>
      </trkpt>
      <trkpt lat="44.20138" lon="6.99375">
        <ele>986.8</ele>
        <time>2022-07-19T08:28:45Z</time>
      </trkpt>
      <trkpt lat="44.20139" lon="6.99368">
        <ele>986.8</ele>
        <time>2022-07-19T08:28:46Z</time>
      </trkpt>
      <trkpt lat="44.20139" lon="6.99362">
        <ele>986.8</ele>
        <time>2022-07-19T08:28:47Z</time>
      </trkpt>
      <trkpt lat="44.20139" lon="6.99356">
        <ele>987.2</ele>
        <time>2022-07-19T08:28:48Z</time>
      </trkpt>
      <trkpt lat="44.20139" lon="6.9935">
        <ele>987.2</ele>
        <time>2022-07-19T08:28:49Z</time>
      </trkpt>
      <trkpt lat="44.20139" lon="6.99344">
        <ele>987.2</ele>
        <time>2022-07-19T08:28:50Z</time>
      </trkpt>
      <trkpt lat="44.2014" lon="6.99338">
        <ele>987.4</ele>
        <time>2022-07-19T08:28:51Z</time>
      </trkpt>
      <trkpt lat="44.2014" lon="6.99333">
        <ele>987.4</ele>
        <time>2022-07-19T08:28:52Z</time>
      </trkpt>
      <trkpt lat="44.2014" lon="6.99327">
        <ele>987.4</ele>
        <time>2022-07-19T08:28:53Z</time>
      </trkpt>
      <trkpt lat="44.2014" lon="6.99321">
        <ele>987.6</ele>
        <time>2022-07-19T08:28:54Z</time>
      </trkpt>
      <trkpt lat="44.20141" lon="6.99316">
        <ele>987.6</ele>
        <time>2022-07-19T08:28:55Z</time>
      </trkpt>
      <trkpt lat="44.20141" lon="6.9931">
        <ele>987.6</ele>
        <time>2022-07-19T08:28:56Z</time>
      </trkpt>
      <trkpt lat="44.20141" lon="6.99304">
        <ele>987.8</ele>
        <time>2022-07-19T08:28:57Z</time>
      </trkpt>
      <trkpt lat="44.20141" lon="6.99298">
        <ele>987.8</ele>
        <time>2022-07-19T08:28:58Z</time>
      </trkpt>
      <trkpt lat="44.20141" lon="6.99292">
        <ele>987.8</ele>
        <time>2022-07-19T08:28:59Z</time>
      </trkpt>
      <trkpt lat="44.20141" lon="6.99286">
        <ele>988.2</ele>
        <time>2022-07-19T08:29:00Z</time>
      </trkpt>
      <trkpt lat="44.20141" lon="6.99281">
        <ele>988.2</ele>
        <time>2022-07-19T08:29:01Z</time>
      </trkpt>
      <trkpt lat="44.20142" lon="6.99275">
        <ele>988.4</ele>
        <time>2022-07-19T08:29:02Z</time>
      </trkpt>
      <trkpt lat="44.20142" lon="6.99269">
        <ele>988.4</ele>
        <time>2022-07-19T08:29:03Z</time>
      </trkpt>
      <trkpt lat="44.20142" lon="6.99263">
        <ele>988.6</ele>
        <time>2022-07-19T08:29:04Z</time>
      </trkpt>
      <trkpt lat="44.20142" lon="6.99257">
        <ele>988.6</ele>
        <time>2022-07-19T08:29:05Z</time>
      </trkpt>
      <trkpt lat="44.20142" lon="6.99252">
        <ele>988.8</ele>
        <time>2022-07-19T08:29:06Z</time>
      </trkpt>
      <trkpt lat="44.20143" lon="6.99246">
        <ele>988.8</ele>
        <time>2022-07-19T08:29:07Z</time>
      </trkpt>
      <trkpt lat="44.20143" lon="6.99241">
        <ele>989.2</ele>
        <time>2022-07-19T08:29:08Z</time>
      </trkpt>
      <trkpt lat="44.20144" lon="6.99236">
        <ele>989.2</ele>
        <time>2022-07-19T08:29:09Z</time>
      </trkpt>
      <trkpt lat="44.20144" lon="6.9923">
        <ele>989.4</ele>
        <time>2022-07-19T08:29:10Z</time>
      </trkpt>
      <trkpt lat="44.20144" lon="6.99225">
        <ele>989.4</ele>
        <time>2022-07-19T08:29:11Z</time>
      </trkpt>
      <trkpt lat="44.20145" lon="6.99219">
        <ele>989.8</ele>
        <time>2022-07-19T08:29:12Z</time>
      </trkpt>
      <trkpt lat="44.20145" lon="6.99214">
        <ele>989.8</ele>
        <time>2022-07-19T08:29:13Z</time>
      </trkpt>
      <trkpt lat="44.20145" lon="6.99209">
        <ele>989.8</ele>
        <time>2022-07-19T08:29:14Z</time>
      </trkpt>
      <trkpt lat="44.20146" lon="6.99204">
        <ele>990</ele>
        <time>2022-07-19T08:29:15Z</time>
      </trkpt>
      <trkpt lat="44.20147" lon="6.99198">
        <ele>990</ele>
        <time>2022-07-19T08:29:16Z</time>
      </trkpt>
      <trkpt lat="44.20147" lon="6.99193">
        <ele>990.2</ele>
        <time>2022-07-19T08:29:17Z</time>
      </trkpt>
      <trkpt lat="44.20148" lon="6.99188">
        <ele>990.2</ele>
        <time>2022-07-19T08:29:18Z</time>
      </trkpt>
      <trkpt lat="44.20148" lon="6.99182">
        <ele>990.4</ele>
        <time>2022-07-19T08:29:19Z</time>
      </trkpt>
      <trkpt lat="44.20149" lon="6.99177">
        <ele>990.4</ele>
        <time>2022-07-19T08:29:20Z</time>
      </trkpt>
      <trkpt lat="44.2015" lon="6.99171">
        <ele>990.8</ele>
        <time>2022-07-19T08:29:21Z</time>
      </trkpt>
      <trkpt lat="44.20151" lon="6.99165">
        <ele>990.8</ele>
        <time>2022-07-19T08:29:22Z</time>
      </trkpt>
      <trkpt lat="44.20152" lon="6.99159">
        <ele>990.8</ele>
        <time>2022-07-19T08:29:23Z</time>
      </trkpt>
      <trkpt lat="44.20154" lon="6.99154">
        <ele>990.8</ele>
        <time>2022-07-19T08:29:24Z</time>
      </trkpt>
      <trkpt lat="44.20155" lon="6.99148">
        <ele>991</ele>
        <time>2022-07-19T08:29:25Z</time>
      </trkpt>
      <trkpt lat="44.20156" lon="6.99143">
        <ele>991</ele>
        <time>2022-07-19T08:29:26Z</time>
      </trkpt>
      <trkpt lat="44.20158" lon="6.99137">
        <ele>991</ele>
        <time>2022-07-19T08:29:27Z</time>
      </trkpt>
      <trkpt lat="44.2016" lon="6.99132">
        <ele>991.2</ele>
        <time>2022-07-19T08:29:28Z</time>
      </trkpt>
      <trkpt lat="44.20162" lon="6.99126">
        <ele>991.2</ele>
        <time>2022-07-19T08:29:29Z</time>
      </trkpt>
      <trkpt lat="44.20164" lon="6.99121">
        <ele>991.2</ele>
        <time>2022-07-19T08:29:30Z</time>
      </trkpt>
      <trkpt lat="44.20167" lon="6.99115">
        <ele>991.2</ele>
        <time>2022-07-19T08:29:31Z</time>
      </trkpt>
      <trkpt lat="44.20169" lon="6.99109">
        <ele>991.4</ele>
        <time>2022-07-19T08:29:32Z</time>
      </trkpt>
      <trkpt lat="44.20171" lon="6.99103">
        <ele>991.4</ele>
        <time>2022-07-19T08:29:33Z</time>
      </trkpt>
      <trkpt lat="44.20173" lon="6.99097">
        <ele>991.4</ele>
        <time>2022-07-19T08:29:34Z</time>
      </trkpt>
      <trkpt lat="44.20176" lon="6.99092">
        <ele>991.4</ele>
        <time>2022-07-19T08:29:35Z</time>
      </trkpt>
      <trkpt lat="44.20179" lon="6.99086">
        <ele>991.8</ele>
        <time>2022-07-19T08:29:36Z</time>
      </trkpt>
      <trkpt lat="44.20181" lon="6.9908">
        <ele>991.8</ele>
        <time>2022-07-19T08:29:37Z</time>
      </trkpt>
      <trkpt lat="44.20183" lon="6.99074">
        <ele>992</ele>
        <time>2022-07-19T08:29:38Z</time>
      </trkpt>
      <trkpt lat="44.20186" lon="6.99068">
        <ele>992</ele>
        <time>2022-07-19T08:29:39Z</time>
      </trkpt>
      <trkpt lat="44.20189" lon="6.99063">
        <ele>992</ele>
        <time>2022-07-19T08:29:40Z</time>
      </trkpt>
      <trkpt lat="44.20192" lon="6.99057">
        <ele>992</ele>
        <time>2022-07-19T08:29:41Z</time>
      </trkpt>
      <trkpt lat="44.20195" lon="6.99052">
        <ele>992.2</ele>
        <time>2022-07-19T08:29:42Z</time>
      </trkpt>
      <trkpt lat="44.20198" lon="6.99047">
        <ele>992.2</ele>
        <time>2022-07-19T08:29:43Z</time>
      </trkpt>
      <trkpt lat="44.20201" lon="6.99042">
        <ele>992.2</ele>
        <time>2022-07-19T08:29:44Z</time>
      </trkpt>
      <trkpt lat="44.20205" lon="6.99038">
        <ele>992.4</ele>
        <time>2022-07-19T08:29:45Z</time>
      </trkpt>
      <trkpt lat="44.20208" lon="6.99033">
        <ele>992.4</ele>
        <time>2022-07-19T08:29:46Z</time>
      </trkpt>
      <trkpt lat="44.20212" lon="6.99029">
        <ele>992.4</ele>
        <time>2022-07-19T08:29:47Z</time>
      </trkpt>
      <trkpt lat="44.20216" lon="6.99024">
        <ele>992.4</ele>
        <time>2022-07-19T08:29:48Z</time>
      </trkpt>
      <trkpt lat="44.2022" lon="6.9902">
        <ele>992.6</ele>
        <time>2022-07-19T08:29:49Z</time>
      </trkpt>
      <trkpt lat="44.20224" lon="6.99017">
        <ele>992.6</ele>
        <time>2022-07-19T08:29:50Z</time>
      </trkpt>
      <trkpt lat="44.20228" lon="6.99013">
        <ele>992.6</ele>
        <time>2022-07-19T08:29:51Z</time>
      </trkpt>
      <trkpt lat="44.20232" lon="6.99009">
        <ele>992.6</ele>
        <time>2022-07-19T08:29:52Z</time>
      </trkpt>
      <trkpt lat="44.20235" lon="6.99006">
        <ele>992.6</ele>
        <time>2022-07-19T08:29:53Z</time>
      </trkpt>
      <trkpt lat="44.2024" lon="6.99002">
        <ele>992.6</ele>
        <time>2022-07-19T08:29:54Z</time>
      </trkpt>
      <trkpt lat="44.20244" lon="6.98999">
        <ele>992.6</ele>
        <time>2022-07-19T08:29:55Z</time>
      </trkpt>
      <trkpt lat="44.20248" lon="6.98995">
        <ele>992.6</ele>
        <time>2022-07-19T08:29:56Z</time>
      </trkpt>
      <trkpt lat="44.20252" lon="6.98991">
        <ele>992.6</ele>
        <time>2022-07-19T08:29:57Z</time>
      </trkpt>
      <trkpt lat="44.20256" lon="6.98987">
        <ele>992.6</ele>
        <time>2022-07-19T08:29:58Z</time>
      </trkpt>
      <trkpt lat="44.20259" lon="6.98983">
        <ele>992.6</ele>
        <time>2022-07-19T08:29:59Z</time>
      </trkpt>
      <trkpt lat="44.20263" lon="6.9898">
        <ele>992.6</ele>
        <time>2022-07-19T08:30:00Z</time>
      </trkpt>
      <trkpt lat="44.20267" lon="6.98975">
        <ele>992.6</ele>
        <time>2022-07-19T08:30:01Z</time>
      </trkpt>
      <trkpt lat="44.20271" lon="6.98971">
        <ele>992.6</ele>
        <time>2022-07-19T08:30:02Z</time>
      </trkpt>
      <trkpt lat="44.20275" lon="6.98967">
        <ele>992.6</ele>
        <time>2022-07-19T08:30:03Z</time>
      </trkpt>
      <trkpt lat="44.20279" lon="6.98963">
        <ele>992.6</ele>
        <time>2022-07-19T08:30:04Z</time>
      </trkpt>
      <trkpt lat="44.20283" lon="6.98958">
        <ele>992.6</ele>
        <time>2022-07-19T08:30:05Z</time>
      </trkpt>
      <trkpt lat="44.20286" lon="6.98954">
        <ele>992.6</ele>
        <time>2022-07-19T08:30:06Z</time>
      </trkpt>
      <trkpt lat="44.20289" lon="6.98949">
        <ele>992.6</ele>
        <time>2022-07-19T08:30:07Z</time>
      </trkpt>
      <trkpt lat="44.20293" lon="6.98945">
        <ele>992.6</ele>
        <time>2022-07-19T08:30:08Z</time>
      </trkpt>
      <trkpt lat="44.20296" lon="6.98941">
        <ele>992.6</ele>
        <time>2022-07-19T08:30:09Z</time>
      </trkpt>
      <trkpt lat="44.20299" lon="6.98937">
        <ele>992.6</ele>
        <time>2022-07-19T08:30:10Z</time>
      </trkpt>
      <trkpt lat="44.20302" lon="6.98932">
        <ele>992.8</ele>
        <time>2022-07-19T08:30:11Z</time>
      </trkpt>
      <trkpt lat="44.20305" lon="6.98927">
        <ele>992.8</ele>
        <time>2022-07-19T08:30:12Z</time>
      </trkpt>
      <trkpt lat="44.20308" lon="6.98922">
        <ele>992.8</ele>
        <time>2022-07-19T08:30:13Z</time>
      </trkpt>
      <trkpt lat="44.20311" lon="6.98917">
        <ele>992.8</ele>
        <time>2022-07-19T08:30:14Z</time>
      </trkpt>
      <trkpt lat="44.20313" lon="6.98913">
        <ele>992.8</ele>
        <time>2022-07-19T08:30:15Z</time>
      </trkpt>
      <trkpt lat="44.20316" lon="6.98908">
        <ele>992.8</ele>
        <time>2022-07-19T08:30:16Z</time>
      </trkpt>
      <trkpt lat="44.20319" lon="6.98903">
        <ele>993.2</ele>
        <time>2022-07-19T08:30:17Z</time>
      </trkpt>
      <trkpt lat="44.20322" lon="6.98898">
        <ele>993.2</ele>
        <time>2022-07-19T08:30:18Z</time>
      </trkpt>
      <trkpt lat="44.20324" lon="6.98893">
        <ele>993.2</ele>
        <time>2022-07-19T08:30:19Z</time>
      </trkpt>
      <trkpt lat="44.20327" lon="6.98887">
        <ele>993.2</ele>
        <time>2022-07-19T08:30:20Z</time>
      </trkpt>
      <trkpt lat="44.2033" lon="6.98882">
        <ele>993.2</ele>
        <time>2022-07-19T08:30:21Z</time>
      </trkpt>
      <trkpt lat="44.20333" lon="6.98877">
        <ele>993.2</ele>
        <time>2022-07-19T08:30:22Z</time>
      </trkpt>
      <trkpt lat="44.20336" lon="6.98872">
        <ele>993.2</ele>
        <time>2022-07-19T08:30:23Z</time>
      </trkpt>
      <trkpt lat="44.20338" lon="6.98867">
        <ele>993.4</ele>
        <time>2022-07-19T08:30:24Z</time>
      </trkpt>
      <trkpt lat="44.20341" lon="6.98862">
        <ele>993.4</ele>
        <time>2022-07-19T08:30:25Z</time>
      </trkpt>
      <trkpt lat="44.20344" lon="6.98857">
        <ele>993.4</ele>
        <time>2022-07-19T08:30:26Z</time>
      </trkpt>
      <trkpt lat="44.20347" lon="6.98852">
        <ele>993.4</ele>
        <time>2022-07-19T08:30:27Z</time>
      </trkpt>
      <trkpt lat="44.2035" lon="6.98847">
        <ele>993.6</ele>
        <time>2022-07-19T08:30:28Z</time>
      </trkpt>
      <trkpt lat="44.20353" lon="6.98842">
        <ele>993.6</ele>
        <time>2022-07-19T08:30:29Z</time>
      </trkpt>
      <trkpt lat="44.20356" lon="6.98837">
        <ele>993.6</ele>
        <time>2022-07-19T08:30:30Z</time>
      </trkpt>
      <trkpt lat="44.20358" lon="6.98832">
        <ele>993.8</ele>
        <time>2022-07-19T08:30:31Z</time>
      </trkpt>
      <trkpt lat="44.20361" lon="6.98827">
        <ele>993.8</ele>
        <time>2022-07-19T08:30:32Z</time>
      </trkpt>
      <trkpt lat="44.20364" lon="6.98822">
        <ele>993.8</ele>
        <time>2022-07-19T08:30:33Z</time>
      </trkpt>
      <trkpt lat="44.20366" lon="6.98817">
        <ele>994.2</ele>
        <time>2022-07-19T08:30:34Z</time>
      </trkpt>
      <trkpt lat="44.20369" lon="6.98813">
        <ele>994.2</ele>
        <time>2022-07-19T08:30:35Z</time>
      </trkpt>
      <trkpt lat="44.20372" lon="6.98808">
        <ele>994.2</ele>
        <time>2022-07-19T08:30:36Z</time>
      </trkpt>
      <trkpt lat="44.20375" lon="6.98803">
        <ele>994.4</ele>
        <time>2022-07-19T08:30:37Z</time>
      </trkpt>
      <trkpt lat="44.20377" lon="6.98798">
        <ele>994.4</ele>
        <time>2022-07-19T08:30:38Z</time>
      </trkpt>
      <trkpt lat="44.2038" lon="6.98794">
        <ele>994.6</ele>
        <time>2022-07-19T08:30:39Z</time>
      </trkpt>
      <trkpt lat="44.20382" lon="6.98789">
        <ele>994.6</ele>
        <time>2022-07-19T08:30:40Z</time>
      </trkpt>
      <trkpt lat="44.20385" lon="6.98784">
        <ele>994.6</ele>
        <time>2022-07-19T08:30:41Z</time>
      </trkpt>
      <trkpt lat="44.20388" lon="6.98779">
        <ele>994.6</ele>
        <time>2022-07-19T08:30:42Z</time>
      </trkpt>
      <trkpt lat="44.2039" lon="6.98774">
        <ele>994.6</ele>
        <time>2022-07-19T08:30:43Z</time>
      </trkpt>
      <trkpt lat="44.20393" lon="6.9877">
        <ele>994.8</ele>
        <time>2022-07-19T08:30:44Z</time>
      </trkpt>
      <trkpt lat="44.20396" lon="6.98765">
        <ele>994.8</ele>
        <time>2022-07-19T08:30:45Z</time>
      </trkpt>
      <trkpt lat="44.20398" lon="6.98759">
        <ele>994.8</ele>
        <time>2022-07-19T08:30:46Z</time>
      </trkpt>
      <trkpt lat="44.204" lon="6.98754">
        <ele>995</ele>
        <time>2022-07-19T08:30:47Z</time>
      </trkpt>
      <trkpt lat="44.20402" lon="6.98748">
        <ele>995</ele>
        <time>2022-07-19T08:30:48Z</time>
      </trkpt>
      <trkpt lat="44.20405" lon="6.98743">
        <ele>995</ele>
        <time>2022-07-19T08:30:49Z</time>
      </trkpt>
      <trkpt lat="44.20407" lon="6.98738">
        <ele>995</ele>
        <time>2022-07-19T08:30:50Z</time>
      </trkpt>
      <trkpt lat="44.2041" lon="6.98733">
        <ele>995</ele>
        <time>2022-07-19T08:30:51Z</time>
      </trkpt>
      <trkpt lat="44.20412" lon="6.98728">
        <ele>995</ele>
        <time>2022-07-19T08:30:52Z</time>
      </trkpt>
      <trkpt lat="44.20414" lon="6.98723">
        <ele>995</ele>
        <time>2022-07-19T08:30:53Z</time>
      </trkpt>
      <trkpt lat="44.20416" lon="6.98717">
        <ele>995.2</ele>
        <time>2022-07-19T08:30:54Z</time>
      </trkpt>
      <trkpt lat="44.20419" lon="6.98712">
        <ele>995.2</ele>
        <time>2022-07-19T08:30:55Z</time>
      </trkpt>
      <trkpt lat="44.20421" lon="6.98707">
        <ele>995.2</ele>
        <time>2022-07-19T08:30:56Z</time>
      </trkpt>
      <trkpt lat="44.20423" lon="6.98701">
        <ele>995.4</ele>
        <time>2022-07-19T08:30:57Z</time>
      </trkpt>
      <trkpt lat="44.20425" lon="6.98696">
        <ele>995.4</ele>
        <time>2022-07-19T08:30:58Z</time>
      </trkpt>
      <trkpt lat="44.20428" lon="6.9869">
        <ele>995.4</ele>
        <time>2022-07-19T08:30:59Z</time>
      </trkpt>
      <trkpt lat="44.2043" lon="6.98685">
        <ele>995.6</ele>
        <time>2022-07-19T08:31:00Z</time>
      </trkpt>
      <trkpt lat="44.20432" lon="6.9868">
        <ele>995.6</ele>
        <time>2022-07-19T08:31:01Z</time>
      </trkpt>
      <trkpt lat="44.20434" lon="6.98675">
        <ele>995.6</ele>
        <time>2022-07-19T08:31:02Z</time>
      </trkpt>
      <trkpt lat="44.20436" lon="6.98669">
        <ele>995.8</ele>
        <time>2022-07-19T08:31:03Z</time>
      </trkpt>
      <trkpt lat="44.20438" lon="6.98664">
        <ele>995.8</ele>
        <time>2022-07-19T08:31:04Z</time>
      </trkpt>
      <trkpt lat="44.2044" lon="6.98659">
        <ele>995.8</ele>
        <time>2022-07-19T08:31:05Z</time>
      </trkpt>
      <trkpt lat="44.20443" lon="6.98654">
        <ele>995.8</ele>
        <time>2022-07-19T08:31:06Z</time>
      </trkpt>
      <trkpt lat="44.20445" lon="6.98649">
        <ele>996.2</ele>
        <time>2022-07-19T08:31:07Z</time>
      </trkpt>
      <trkpt lat="44.20447" lon="6.98643">
        <ele>996.2</ele>
        <time>2022-07-19T08:31:08Z</time>
      </trkpt>
      <trkpt lat="44.20449" lon="6.98638">
        <ele>996.2</ele>
        <time>2022-07-19T08:31:09Z</time>
      </trkpt>
      <trkpt lat="44.20451" lon="6.98633">
        <ele>996.4</ele>
        <time>2022-07-19T08:31:10Z</time>
      </trkpt>
      <trkpt lat="44.20453" lon="6.98627">
        <ele>996.4</ele>
        <time>2022-07-19T08:31:11Z</time>
      </trkpt>
      <trkpt lat="44.20456" lon="6.98622">
        <ele>996.4</ele>
        <time>2022-07-19T08:31:12Z</time>
      </trkpt>
      <trkpt lat="44.20458" lon="6.98617">
        <ele>996.6</ele>
        <time>2022-07-19T08:31:13Z</time>
      </trkpt>
      <trkpt lat="44.2046" lon="6.98612">
        <ele>996.6</ele>
        <time>2022-07-19T08:31:14Z</time>
      </trkpt>
      <trkpt lat="44.20462" lon="6.98607">
        <ele>996.6</ele>
        <time>2022-07-19T08:31:15Z</time>
      </trkpt>
      <trkpt lat="44.20464" lon="6.98602">
        <ele>996.8</ele>
        <time>2022-07-19T08:31:16Z</time>
      </trkpt>
      <trkpt lat="44.20466" lon="6.98597">
        <ele>996.8</ele>
        <time>2022-07-19T08:31:17Z</time>
      </trkpt>
      <trkpt lat="44.20469" lon="6.98592">
        <ele>996.8</ele>
        <time>2022-07-19T08:31:18Z</time>
      </trkpt>
      <trkpt lat="44.20472" lon="6.98587">
        <ele>997</ele>
        <time>2022-07-19T08:31:19Z</time>
      </trkpt>
      <trkpt lat="44.20475" lon="6.98582">
        <ele>997</ele>
        <time>2022-07-19T08:31:20Z</time>
      </trkpt>
      <trkpt lat="44.20479" lon="6.98578">
        <ele>997</ele>
        <time>2022-07-19T08:31:21Z</time>
      </trkpt>
      <trkpt lat="44.20482" lon="6.98574">
        <ele>997</ele>
        <time>2022-07-19T08:31:22Z</time>
      </trkpt>
      <trkpt lat="44.20486" lon="6.9857">
        <ele>997</ele>
        <time>2022-07-19T08:31:23Z</time>
      </trkpt>
      <trkpt lat="44.20489" lon="6.98566">
        <ele>997</ele>
        <time>2022-07-19T08:31:24Z</time>
      </trkpt>
      <trkpt lat="44.20493" lon="6.98561">
        <ele>997.2</ele>
        <time>2022-07-19T08:31:25Z</time>
      </trkpt>
      <trkpt lat="44.20496" lon="6.98557">
        <ele>997.2</ele>
        <time>2022-07-19T08:31:26Z</time>
      </trkpt>
      <trkpt lat="44.20499" lon="6.98552">
        <ele>997.2</ele>
        <time>2022-07-19T08:31:27Z</time>
      </trkpt>
      <trkpt lat="44.20503" lon="6.98549">
        <ele>997.6</ele>
        <time>2022-07-19T08:31:28Z</time>
      </trkpt>
      <trkpt lat="44.20506" lon="6.98546">
        <ele>997.6</ele>
        <time>2022-07-19T08:31:29Z</time>
      </trkpt>
      <trkpt lat="44.2051" lon="6.98542">
        <ele>998</ele>
        <time>2022-07-19T08:31:30Z</time>
      </trkpt>
      <trkpt lat="44.20513" lon="6.98539">
        <ele>998</ele>
        <time>2022-07-19T08:31:31Z</time>
      </trkpt>
      <trkpt lat="44.20517" lon="6.98536">
        <ele>998.2</ele>
        <time>2022-07-19T08:31:32Z</time>
      </trkpt>
      <trkpt lat="44.20521" lon="6.98533">
        <ele>998.2</ele>
        <time>2022-07-19T08:31:33Z</time>
      </trkpt>
      <trkpt lat="44.20524" lon="6.9853">
        <ele>998.4</ele>
        <time>2022-07-19T08:31:34Z</time>
      </trkpt>
      <trkpt lat="44.20528" lon="6.98527">
        <ele>998.4</ele>
        <time>2022-07-19T08:31:35Z</time>
      </trkpt>
      <trkpt lat="44.20531" lon="6.98524">
        <ele>998.8</ele>
        <time>2022-07-19T08:31:36Z</time>
      </trkpt>
      <trkpt lat="44.20535" lon="6.98521">
        <ele>998.8</ele>
        <time>2022-07-19T08:31:37Z</time>
      </trkpt>
      <trkpt lat="44.20538" lon="6.98518">
        <ele>998.8</ele>
        <time>2022-07-19T08:31:38Z</time>
      </trkpt>
      <trkpt lat="44.20542" lon="6.98515">
        <ele>998.8</ele>
        <time>2022-07-19T08:31:39Z</time>
      </trkpt>
      <trkpt lat="44.20546" lon="6.98512">
        <ele>999</ele>
        <time>2022-07-19T08:31:40Z</time>
      </trkpt>
      <trkpt lat="44.2055" lon="6.98509">
        <ele>999</ele>
        <time>2022-07-19T08:31:41Z</time>
      </trkpt>
      <trkpt lat="44.20553" lon="6.98505">
        <ele>999</ele>
        <time>2022-07-19T08:31:42Z</time>
      </trkpt>
      <trkpt lat="44.20557" lon="6.98502">
        <ele>999.2</ele>
        <time>2022-07-19T08:31:43Z</time>
      </trkpt>
      <trkpt lat="44.20561" lon="6.98498">
        <ele>999.2</ele>
        <time>2022-07-19T08:31:44Z</time>
      </trkpt>
      <trkpt lat="44.20564" lon="6.98494">
        <ele>999.2</ele>
        <time>2022-07-19T08:31:45Z</time>
      </trkpt>
      <trkpt lat="44.20567" lon="6.9849">
        <ele>999.4</ele>
        <time>2022-07-19T08:31:46Z</time>
      </trkpt>
      <trkpt lat="44.20571" lon="6.98486">
        <ele>999.4</ele>
        <time>2022-07-19T08:31:47Z</time>
      </trkpt>
      <trkpt lat="44.20574" lon="6.98481">
        <ele>999.4</ele>
        <time>2022-07-19T08:31:48Z</time>
      </trkpt>
      <trkpt lat="44.20577" lon="6.98476">
        <ele>999.6</ele>
        <time>2022-07-19T08:31:49Z</time>
      </trkpt>
      <trkpt lat="44.2058" lon="6.98471">
        <ele>999.6</ele>
        <time>2022-07-19T08:31:50Z</time>
      </trkpt>
      <trkpt lat="44.20582" lon="6.98465">
        <ele>1000</ele>
        <time>2022-07-19T08:31:51Z</time>
      </trkpt>
      <trkpt lat="44.20585" lon="6.9846">
        <ele>1000</ele>
        <time>2022-07-19T08:31:52Z</time>
      </trkpt>
      <trkpt lat="44.20588" lon="6.98456">
        <ele>1000.2</ele>
        <time>2022-07-19T08:31:53Z</time>
      </trkpt>
      <trkpt lat="44.20592" lon="6.98451">
        <ele>1000.2</ele>
        <time>2022-07-19T08:31:54Z</time>
      </trkpt>
      <trkpt lat="44.20595" lon="6.98447">
        <ele>1000.2</ele>
        <time>2022-07-19T08:31:55Z</time>
      </trkpt>
      <trkpt lat="44.20598" lon="6.98442">
        <ele>1000.4</ele>
        <time>2022-07-19T08:31:56Z</time>
      </trkpt>
      <trkpt lat="44.20601" lon="6.98437">
        <ele>1000.4</ele>
        <time>2022-07-19T08:31:57Z</time>
      </trkpt>
      <trkpt lat="44.20604" lon="6.98433">
        <ele>1000.4</ele>
        <time>2022-07-19T08:31:58Z</time>
      </trkpt>
      <trkpt lat="44.20607" lon="6.98428">
        <ele>1000.6</ele>
        <time>2022-07-19T08:31:59Z</time>
      </trkpt>
      <trkpt lat="44.20611" lon="6.98423">
        <ele>1000.6</ele>
        <time>2022-07-19T08:32:00Z</time>
      </trkpt>
      <trkpt lat="44.20614" lon="6.9842">
        <ele>1001</ele>
        <time>2022-07-19T08:32:01Z</time>
      </trkpt>
      <trkpt lat="44.20617" lon="6.98415">
        <ele>1001</ele>
        <time>2022-07-19T08:32:02Z</time>
      </trkpt>
      <trkpt lat="44.20621" lon="6.98411">
        <ele>1001</ele>
        <time>2022-07-19T08:32:03Z</time>
      </trkpt>
      <trkpt lat="44.20624" lon="6.98407">
        <ele>1001</ele>
        <time>2022-07-19T08:32:04Z</time>
      </trkpt>
      <trkpt lat="44.20627" lon="6.98403">
        <ele>1001.4</ele>
        <time>2022-07-19T08:32:05Z</time>
      </trkpt>
      <trkpt lat="44.20631" lon="6.98399">
        <ele>1001.4</ele>
        <time>2022-07-19T08:32:06Z</time>
      </trkpt>
      <trkpt lat="44.20634" lon="6.98394">
        <ele>1001.4</ele>
        <time>2022-07-19T08:32:07Z</time>
      </trkpt>
      <trkpt lat="44.20637" lon="6.9839">
        <ele>1001.6</ele>
        <time>2022-07-19T08:32:08Z</time>
      </trkpt>
      <trkpt lat="44.20641" lon="6.98386">
        <ele>1001.6</ele>
        <time>2022-07-19T08:32:09Z</time>
      </trkpt>
      <trkpt lat="44.20644" lon="6.98382">
        <ele>1001.8</ele>
        <time>2022-07-19T08:32:10Z</time>
      </trkpt>
      <trkpt lat="44.20647" lon="6.98378">
        <ele>1001.8</ele>
        <time>2022-07-19T08:32:11Z</time>
      </trkpt>
      <trkpt lat="44.2065" lon="6.98374">
        <ele>1002</ele>
        <time>2022-07-19T08:32:12Z</time>
      </trkpt>
      <trkpt lat="44.20653" lon="6.98369">
        <ele>1002</ele>
        <time>2022-07-19T08:32:13Z</time>
      </trkpt>
      <trkpt lat="44.20656" lon="6.98365">
        <ele>1002</ele>
        <time>2022-07-19T08:32:14Z</time>
      </trkpt>
      <trkpt lat="44.20659" lon="6.98361">
        <ele>1002.2</ele>
        <time>2022-07-19T08:32:15Z</time>
      </trkpt>
      <trkpt lat="44.20662" lon="6.98356">
        <ele>1002.2</ele>
        <time>2022-07-19T08:32:16Z</time>
      </trkpt>
      <trkpt lat="44.20664" lon="6.98352">
        <ele>1002.6</ele>
        <time>2022-07-19T08:32:17Z</time>
      </trkpt>
      <trkpt lat="44.20667" lon="6.98348">
        <ele>1002.8</ele>
        <time>2022-07-19T08:32:18Z</time>
      </trkpt>
      <trkpt lat="44.20669" lon="6.98343">
        <ele>1002.8</ele>
        <time>2022-07-19T08:32:19Z</time>
      </trkpt>
      <trkpt lat="44.20671" lon="6.98339">
        <ele>1003</ele>
        <time>2022-07-19T08:32:20Z</time>
      </trkpt>
      <trkpt lat="44.20673" lon="6.98334">
        <ele>1003</ele>
        <time>2022-07-19T08:32:21Z</time>
      </trkpt>
      <trkpt lat="44.20675" lon="6.98329">
        <ele>1003.2</ele>
        <time>2022-07-19T08:32:22Z</time>
      </trkpt>
      <trkpt lat="44.20677" lon="6.98324">
        <ele>1003.2</ele>
        <time>2022-07-19T08:32:23Z</time>
      </trkpt>
      <trkpt lat="44.20679" lon="6.98319">
        <ele>1003.4</ele>
        <time>2022-07-19T08:32:24Z</time>
      </trkpt>
      <trkpt lat="44.2068" lon="6.98313">
        <ele>1003.4</ele>
        <time>2022-07-19T08:32:25Z</time>
      </trkpt>
      <trkpt lat="44.20682" lon="6.98308">
        <ele>1003.8</ele>
        <time>2022-07-19T08:32:26Z</time>
      </trkpt>
      <trkpt lat="44.20683" lon="6.98302">
        <ele>1003.8</ele>
        <time>2022-07-19T08:32:27Z</time>
      </trkpt>
      <trkpt lat="44.20684" lon="6.98297">
        <ele>1004</ele>
        <time>2022-07-19T08:32:28Z</time>
      </trkpt>
      <trkpt lat="44.20685" lon="6.98291">
        <ele>1004</ele>
        <time>2022-07-19T08:32:29Z</time>
      </trkpt>
      <trkpt lat="44.20686" lon="6.98286">
        <ele>1004.4</ele>
        <time>2022-07-19T08:32:30Z</time>
      </trkpt>
      <trkpt lat="44.20687" lon="6.9828">
        <ele>1004.4</ele>
        <time>2022-07-19T08:32:31Z</time>
      </trkpt>
      <trkpt lat="44.20687" lon="6.98274">
        <ele>1004.8</ele>
        <time>2022-07-19T08:32:32Z</time>
      </trkpt>
      <trkpt lat="44.20687" lon="6.98268">
        <ele>1004.8</ele>
        <time>2022-07-19T08:32:33Z</time>
      </trkpt>
      <trkpt lat="44.20688" lon="6.98262">
        <ele>1005.2</ele>
        <time>2022-07-19T08:32:34Z</time>
      </trkpt>
      <trkpt lat="44.20688" lon="6.98256">
        <ele>1005.2</ele>
        <time>2022-07-19T08:32:35Z</time>
      </trkpt>
      <trkpt lat="44.20689" lon="6.9825">
        <ele>1005.4</ele>
        <time>2022-07-19T08:32:36Z</time>
      </trkpt>
      <trkpt lat="44.20689" lon="6.98244">
        <ele>1005.4</ele>
        <time>2022-07-19T08:32:37Z</time>
      </trkpt>
      <trkpt lat="44.20688" lon="6.98238">
        <ele>1005.6</ele>
        <time>2022-07-19T08:32:38Z</time>
      </trkpt>
      <trkpt lat="44.20689" lon="6.98232">
        <ele>1005.6</ele>
        <time>2022-07-19T08:32:39Z</time>
      </trkpt>
      <trkpt lat="44.20689" lon="6.98226">
        <ele>1006</ele>
        <time>2022-07-19T08:32:40Z</time>
      </trkpt>
      <trkpt lat="44.20689" lon="6.98221">
        <ele>1006</ele>
        <time>2022-07-19T08:32:41Z</time>
      </trkpt>
      <trkpt lat="44.20689" lon="6.98215">
        <ele>1006.2</ele>
        <time>2022-07-19T08:32:42Z</time>
      </trkpt>
      <trkpt lat="44.20689" lon="6.98209">
        <ele>1006.2</ele>
        <time>2022-07-19T08:32:43Z</time>
      </trkpt>
      <trkpt lat="44.2069" lon="6.98203">
        <ele>1006.6</ele>
        <time>2022-07-19T08:32:44Z</time>
      </trkpt>
      <trkpt lat="44.2069" lon="6.98197">
        <ele>1006.6</ele>
        <time>2022-07-19T08:32:45Z</time>
      </trkpt>
      <trkpt lat="44.2069" lon="6.98191">
        <ele>1007</ele>
        <time>2022-07-19T08:32:46Z</time>
      </trkpt>
      <trkpt lat="44.2069" lon="6.98185">
        <ele>1007</ele>
        <time>2022-07-19T08:32:47Z</time>
      </trkpt>
      <trkpt lat="44.2069" lon="6.98179">
        <ele>1007.2</ele>
        <time>2022-07-19T08:32:48Z</time>
      </trkpt>
      <trkpt lat="44.2069" lon="6.98173">
        <ele>1007.2</ele>
        <time>2022-07-19T08:32:49Z</time>
      </trkpt>
      <trkpt lat="44.20691" lon="6.98167">
        <ele>1007.4</ele>
        <time>2022-07-19T08:32:50Z</time>
      </trkpt>
      <trkpt lat="44.20691" lon="6.98161">
        <ele>1007.4</ele>
        <time>2022-07-19T08:32:51Z</time>
      </trkpt>
      <trkpt lat="44.20692" lon="6.98156">
        <ele>1007.8</ele>
        <time>2022-07-19T08:32:52Z</time>
      </trkpt>
      <trkpt lat="44.20692" lon="6.9815">
        <ele>1008</ele>
        <time>2022-07-19T08:32:53Z</time>
      </trkpt>
      <trkpt lat="44.20693" lon="6.98145">
        <ele>1008</ele>
        <time>2022-07-19T08:32:54Z</time>
      </trkpt>
      <trkpt lat="44.20693" lon="6.98139">
        <ele>1008.2</ele>
        <time>2022-07-19T08:32:55Z</time>
      </trkpt>
      <trkpt lat="44.20694" lon="6.98134">
        <ele>1008.2</ele>
        <time>2022-07-19T08:32:56Z</time>
      </trkpt>
      <trkpt lat="44.20694" lon="6.98128">
        <ele>1008.4</ele>
        <time>2022-07-19T08:32:57Z</time>
      </trkpt>
      <trkpt lat="44.20695" lon="6.98123">
        <ele>1008.4</ele>
        <time>2022-07-19T08:32:58Z</time>
      </trkpt>
      <trkpt lat="44.20695" lon="6.98117">
        <ele>1008.8</ele>
        <time>2022-07-19T08:32:59Z</time>
      </trkpt>
      <trkpt lat="44.20696" lon="6.98112">
        <ele>1008.8</ele>
        <time>2022-07-19T08:33:00Z</time>
      </trkpt>
      <trkpt lat="44.20696" lon="6.98106">
        <ele>1009</ele>
        <time>2022-07-19T08:33:01Z</time>
      </trkpt>
      <trkpt lat="44.20696" lon="6.981">
        <ele>1009</ele>
        <time>2022-07-19T08:33:02Z</time>
      </trkpt>
      <trkpt lat="44.20697" lon="6.98095">
        <ele>1009.4</ele>
        <time>2022-07-19T08:33:03Z</time>
      </trkpt>
      <trkpt lat="44.20697" lon="6.9809">
        <ele>1009.4</ele>
        <time>2022-07-19T08:33:04Z</time>
      </trkpt>
      <trkpt lat="44.20698" lon="6.98084">
        <ele>1009.8</ele>
        <time>2022-07-19T08:33:05Z</time>
      </trkpt>
      <trkpt lat="44.20699" lon="6.98079">
        <ele>1009.8</ele>
        <time>2022-07-19T08:33:06Z</time>
      </trkpt>
      <trkpt lat="44.207" lon="6.98073">
        <ele>1010</ele>
        <time>2022-07-19T08:33:07Z</time>
      </trkpt>
      <trkpt lat="44.20701" lon="6.98068">
        <ele>1010.2</ele>
        <time>2022-07-19T08:33:08Z</time>
      </trkpt>
      <trkpt lat="44.20703" lon="6.98063">
        <ele>1010.2</ele>
        <time>2022-07-19T08:33:09Z</time>
      </trkpt>
      <trkpt lat="44.20704" lon="6.98057">
        <ele>1010.2</ele>
        <time>2022-07-19T08:33:10Z</time>
      </trkpt>
      <trkpt lat="44.20706" lon="6.98052">
        <ele>1010.6</ele>
        <time>2022-07-19T08:33:11Z</time>
      </trkpt>
      <trkpt lat="44.20707" lon="6.98046">
        <ele>1010.6</ele>
        <time>2022-07-19T08:33:12Z</time>
      </trkpt>
      <trkpt lat="44.20709" lon="6.98041">
        <ele>1010.8</ele>
        <time>2022-07-19T08:33:13Z</time>
      </trkpt>
      <trkpt lat="44.2071" lon="6.98036">
        <ele>1010.8</ele>
        <time>2022-07-19T08:33:14Z</time>
      </trkpt>
      <trkpt lat="44.20712" lon="6.9803">
        <ele>1011</ele>
        <time>2022-07-19T08:33:15Z</time>
      </trkpt>
      <trkpt lat="44.20714" lon="6.98025">
        <ele>1011</ele>
        <time>2022-07-19T08:33:16Z</time>
      </trkpt>
      <trkpt lat="44.20716" lon="6.98019">
        <ele>1011</ele>
        <time>2022-07-19T08:33:17Z</time>
      </trkpt>
      <trkpt lat="44.20718" lon="6.98014">
        <ele>1011</ele>
        <time>2022-07-19T08:33:18Z</time>
      </trkpt>
      <trkpt lat="44.20721" lon="6.98008">
        <ele>1011.2</ele>
        <time>2022-07-19T08:33:19Z</time>
      </trkpt>
      <trkpt lat="44.20723" lon="6.98003">
        <ele>1011.2</ele>
        <time>2022-07-19T08:33:20Z</time>
      </trkpt>
      <trkpt lat="44.20726" lon="6.97997">
        <ele>1011.2</ele>
        <time>2022-07-19T08:33:21Z</time>
      </trkpt>
      <trkpt lat="44.20729" lon="6.97992">
        <ele>1011.4</ele>
        <time>2022-07-19T08:33:22Z</time>
      </trkpt>
      <trkpt lat="44.20732" lon="6.97986">
        <ele>1011.4</ele>
        <time>2022-07-19T08:33:23Z</time>
      </trkpt>
      <trkpt lat="44.20735" lon="6.97981">
        <ele>1011.4</ele>
        <time>2022-07-19T08:33:24Z</time>
      </trkpt>
      <trkpt lat="44.20738" lon="6.97976">
        <ele>1011.4</ele>
        <time>2022-07-19T08:33:25Z</time>
      </trkpt>
      <trkpt lat="44.20742" lon="6.9797">
        <ele>1011.4</ele>
        <time>2022-07-19T08:33:26Z</time>
      </trkpt>
      <trkpt lat="44.20745" lon="6.97966">
        <ele>1011.4</ele>
        <time>2022-07-19T08:33:27Z</time>
      </trkpt>
      <trkpt lat="44.20749" lon="6.97961">
        <ele>1011.4</ele>
        <time>2022-07-19T08:33:28Z</time>
      </trkpt>
      <trkpt lat="44.20753" lon="6.97957">
        <ele>1011.4</ele>
        <time>2022-07-19T08:33:29Z</time>
      </trkpt>
      <trkpt lat="44.20757" lon="6.97953">
        <ele>1011.4</ele>
        <time>2022-07-19T08:33:30Z</time>
      </trkpt>
      <trkpt lat="44.20761" lon="6.97949">
        <ele>1011.4</ele>
        <time>2022-07-19T08:33:31Z</time>
      </trkpt>
      <trkpt lat="44.20765" lon="6.97945">
        <ele>1011.4</ele>
        <time>2022-07-19T08:33:32Z</time>
      </trkpt>
      <trkpt lat="44.20769" lon="6.97941">
        <ele>1011.4</ele>
        <time>2022-07-19T08:33:33Z</time>
      </trkpt>
      <trkpt lat="44.20773" lon="6.97935">
        <ele>1011.4</ele>
        <time>2022-07-19T08:33:34Z</time>
      </trkpt>
      <trkpt lat="44.20777" lon="6.97931">
        <ele>1011.4</ele>
        <time>2022-07-19T08:33:35Z</time>
      </trkpt>
      <trkpt lat="44.20782" lon="6.97927">
        <ele>1011.4</ele>
        <time>2022-07-19T08:33:36Z</time>
      </trkpt>
      <trkpt lat="44.20786" lon="6.97922">
        <ele>1011.4</ele>
        <time>2022-07-19T08:33:37Z</time>
      </trkpt>
      <trkpt lat="44.2079" lon="6.97917">
        <ele>1011.4</ele>
        <time>2022-07-19T08:33:38Z</time>
      </trkpt>
      <trkpt lat="44.20795" lon="6.97912">
        <ele>1011.4</ele>
        <time>2022-07-19T08:33:39Z</time>
      </trkpt>
      <trkpt lat="44.208" lon="6.97906">
        <ele>1011.4</ele>
        <time>2022-07-19T08:33:40Z</time>
      </trkpt>
      <trkpt lat="44.20805" lon="6.97901">
        <ele>1011.2</ele>
        <time>2022-07-19T08:33:41Z</time>
      </trkpt>
      <trkpt lat="44.20809" lon="6.97895">
        <ele>1011.2</ele>
        <time>2022-07-19T08:33:42Z</time>
      </trkpt>
      <trkpt lat="44.20814" lon="6.97889">
        <ele>1010.8</ele>
        <time>2022-07-19T08:33:43Z</time>
      </trkpt>
      <trkpt lat="44.20819" lon="6.97882">
        <ele>1010.8</ele>
        <time>2022-07-19T08:33:44Z</time>
      </trkpt>
      <trkpt lat="44.20824" lon="6.97875">
        <ele>1010.6</ele>
        <time>2022-07-19T08:33:45Z</time>
      </trkpt>
      <trkpt lat="44.20828" lon="6.97868">
        <ele>1010.6</ele>
        <time>2022-07-19T08:33:46Z</time>
      </trkpt>
      <trkpt lat="44.20833" lon="6.97861">
        <ele>1010.2</ele>
        <time>2022-07-19T08:33:47Z</time>
      </trkpt>
      <trkpt lat="44.20837" lon="6.97853">
        <ele>1010.2</ele>
        <time>2022-07-19T08:33:48Z</time>
      </trkpt>
      <trkpt lat="44.20842" lon="6.97846">
        <ele>1009.8</ele>
        <time>2022-07-19T08:33:49Z</time>
      </trkpt>
      <trkpt lat="44.20847" lon="6.97838">
        <ele>1009.6</ele>
        <time>2022-07-19T08:33:50Z</time>
      </trkpt>
      <trkpt lat="44.20851" lon="6.97831">
        <ele>1009.6</ele>
        <time>2022-07-19T08:33:51Z</time>
      </trkpt>
      <trkpt lat="44.20855" lon="6.97823">
        <ele>1009.4</ele>
        <time>2022-07-19T08:33:52Z</time>
      </trkpt>
      <trkpt lat="44.2086" lon="6.97815">
        <ele>1009.4</ele>
        <time>2022-07-19T08:33:53Z</time>
      </trkpt>
      <trkpt lat="44.20864" lon="6.97808">
        <ele>1009</ele>
        <time>2022-07-19T08:33:54Z</time>
      </trkpt>
      <trkpt lat="44.20869" lon="6.978">
        <ele>1009</ele>
        <time>2022-07-19T08:33:55Z</time>
      </trkpt>
      <trkpt lat="44.20873" lon="6.97793">
        <ele>1008.8</ele>
        <time>2022-07-19T08:33:56Z</time>
      </trkpt>
      <trkpt lat="44.20878" lon="6.97786">
        <ele>1008.8</ele>
        <time>2022-07-19T08:33:57Z</time>
      </trkpt>
      <trkpt lat="44.20882" lon="6.97779">
        <ele>1008.8</ele>
        <time>2022-07-19T08:33:58Z</time>
      </trkpt>
      <trkpt lat="44.20887" lon="6.97772">
        <ele>1008.6</ele>
        <time>2022-07-19T08:33:59Z</time>
      </trkpt>
      <trkpt lat="44.20891" lon="6.97766">
        <ele>1008.6</ele>
        <time>2022-07-19T08:34:00Z</time>
      </trkpt>
      <trkpt lat="44.20895" lon="6.97759">
        <ele>1008.6</ele>
        <time>2022-07-19T08:34:01Z</time>
      </trkpt>
      <trkpt lat="44.20899" lon="6.97753">
        <ele>1008.6</ele>
        <time>2022-07-19T08:34:02Z</time>
      </trkpt>
      <trkpt lat="44.20903" lon="6.97746">
        <ele>1008.6</ele>
        <time>2022-07-19T08:34:03Z</time>
      </trkpt>
      <trkpt lat="44.20907" lon="6.9774">
        <ele>1008.6</ele>
        <time>2022-07-19T08:34:04Z</time>
      </trkpt>
      <trkpt lat="44.20911" lon="6.97734">
        <ele>1008.6</ele>
        <time>2022-07-19T08:34:05Z</time>
      </trkpt>
      <trkpt lat="44.20916" lon="6.97728">
        <ele>1008.8</ele>
        <time>2022-07-19T08:34:06Z</time>
      </trkpt>
      <trkpt lat="44.2092" lon="6.97723">
        <ele>1008.8</ele>
        <time>2022-07-19T08:34:07Z</time>
      </trkpt>
      <trkpt lat="44.20924" lon="6.97717">
        <ele>1008.8</ele>
        <time>2022-07-19T08:34:08Z</time>
      </trkpt>
      <trkpt lat="44.20928" lon="6.97712">
        <ele>1009</ele>
        <time>2022-07-19T08:34:09Z</time>
      </trkpt>
      <trkpt lat="44.20932" lon="6.97707">
        <ele>1009</ele>
        <time>2022-07-19T08:34:10Z</time>
      </trkpt>
      <trkpt lat="44.20936" lon="6.97702">
        <ele>1009</ele>
        <time>2022-07-19T08:34:11Z</time>
      </trkpt>
      <trkpt lat="44.20941" lon="6.97698">
        <ele>1009.2</ele>
        <time>2022-07-19T08:34:12Z</time>
      </trkpt>
      <trkpt lat="44.20945" lon="6.97694">
        <ele>1009.2</ele>
        <time>2022-07-19T08:34:13Z</time>
      </trkpt>
      <trkpt lat="44.2095" lon="6.97691">
        <ele>1009.2</ele>
        <time>2022-07-19T08:34:14Z</time>
      </trkpt>
      <trkpt lat="44.20954" lon="6.97687">
        <ele>1009.6</ele>
        <time>2022-07-19T08:34:15Z</time>
      </trkpt>
      <trkpt lat="44.20958" lon="6.97684">
        <ele>1009.6</ele>
        <time>2022-07-19T08:34:16Z</time>
      </trkpt>
      <trkpt lat="44.20963" lon="6.9768">
        <ele>1009.8</ele>
        <time>2022-07-19T08:34:17Z</time>
      </trkpt>
      <trkpt lat="44.20967" lon="6.97678">
        <ele>1010</ele>
        <time>2022-07-19T08:34:18Z</time>
      </trkpt>
      <trkpt lat="44.20971" lon="6.97674">
        <ele>1010.2</ele>
        <time>2022-07-19T08:34:19Z</time>
      </trkpt>
      <trkpt lat="44.20975" lon="6.97671">
        <ele>1010.2</ele>
        <time>2022-07-19T08:34:20Z</time>
      </trkpt>
      <trkpt lat="44.20979" lon="6.97667">
        <ele>1010.6</ele>
        <time>2022-07-19T08:34:21Z</time>
      </trkpt>
      <trkpt lat="44.20982" lon="6.97664">
        <ele>1010.8</ele>
        <time>2022-07-19T08:34:22Z</time>
      </trkpt>
      <trkpt lat="44.20986" lon="6.9766">
        <ele>1011</ele>
        <time>2022-07-19T08:34:23Z</time>
      </trkpt>
      <trkpt lat="44.20989" lon="6.97657">
        <ele>1011</ele>
        <time>2022-07-19T08:34:24Z</time>
      </trkpt>
      <trkpt lat="44.20993" lon="6.97653">
        <ele>1011.2</ele>
        <time>2022-07-19T08:34:25Z</time>
      </trkpt>
      <trkpt lat="44.20997" lon="6.9765">
        <ele>1011.2</ele>
        <time>2022-07-19T08:34:26Z</time>
      </trkpt>
      <trkpt lat="44.21" lon="6.97646">
        <ele>1011.6</ele>
        <time>2022-07-19T08:34:27Z</time>
      </trkpt>
      <trkpt lat="44.21004" lon="6.97643">
        <ele>1011.6</ele>
        <time>2022-07-19T08:34:28Z</time>
      </trkpt>
      <trkpt lat="44.21007" lon="6.97639">
        <ele>1011.8</ele>
        <time>2022-07-19T08:34:29Z</time>
      </trkpt>
      <trkpt lat="44.21011" lon="6.97635">
        <ele>1011.8</ele>
        <time>2022-07-19T08:34:30Z</time>
      </trkpt>
      <trkpt lat="44.21014" lon="6.97631">
        <ele>1012</ele>
        <time>2022-07-19T08:34:31Z</time>
      </trkpt>
      <trkpt lat="44.21017" lon="6.97627">
        <ele>1012</ele>
        <time>2022-07-19T08:34:32Z</time>
      </trkpt>
      <trkpt lat="44.21019" lon="6.97622">
        <ele>1012.2</ele>
        <time>2022-07-19T08:34:33Z</time>
      </trkpt>
      <trkpt lat="44.21022" lon="6.97617">
        <ele>1012.2</ele>
        <time>2022-07-19T08:34:34Z</time>
      </trkpt>
      <trkpt lat="44.21025" lon="6.97613">
        <ele>1012.6</ele>
        <time>2022-07-19T08:34:35Z</time>
      </trkpt>
      <trkpt lat="44.21027" lon="6.97608">
        <ele>1012.6</ele>
        <time>2022-07-19T08:34:36Z</time>
      </trkpt>
      <trkpt lat="44.2103" lon="6.97604">
        <ele>1012.6</ele>
        <time>2022-07-19T08:34:37Z</time>
      </trkpt>
      <trkpt lat="44.21033" lon="6.97599">
        <ele>1012.8</ele>
        <time>2022-07-19T08:34:38Z</time>
      </trkpt>
      <trkpt lat="44.21036" lon="6.97595">
        <ele>1012.8</ele>
        <time>2022-07-19T08:34:39Z</time>
      </trkpt>
      <trkpt lat="44.21039" lon="6.97591">
        <ele>1012.8</ele>
        <time>2022-07-19T08:34:40Z</time>
      </trkpt>
      <trkpt lat="44.21042" lon="6.97587">
        <ele>1013.2</ele>
        <time>2022-07-19T08:34:41Z</time>
      </trkpt>
      <trkpt lat="44.21045" lon="6.97583">
        <ele>1013.2</ele>
        <time>2022-07-19T08:34:42Z</time>
      </trkpt>
      <trkpt lat="44.21048" lon="6.97578">
        <ele>1013.4</ele>
        <time>2022-07-19T08:34:43Z</time>
      </trkpt>
      <trkpt lat="44.21051" lon="6.97574">
        <ele>1013.4</ele>
        <time>2022-07-19T08:34:44Z</time>
      </trkpt>
      <trkpt lat="44.21054" lon="6.9757">
        <ele>1013.6</ele>
        <time>2022-07-19T08:34:45Z</time>
      </trkpt>
      <trkpt lat="44.21057" lon="6.97567">
        <ele>1013.6</ele>
        <time>2022-07-19T08:34:46Z</time>
      </trkpt>
      <trkpt lat="44.21061" lon="6.97564">
        <ele>1013.6</ele>
        <time>2022-07-19T08:34:47Z</time>
      </trkpt>
      <trkpt lat="44.21065" lon="6.9756">
        <ele>1013.8</ele>
        <time>2022-07-19T08:34:48Z</time>
      </trkpt>
      <trkpt lat="44.21068" lon="6.97557">
        <ele>1013.8</ele>
        <time>2022-07-19T08:34:49Z</time>
      </trkpt>
      <trkpt lat="44.21072" lon="6.97554">
        <ele>1014.2</ele>
        <time>2022-07-19T08:34:50Z</time>
      </trkpt>
      <trkpt lat="44.21076" lon="6.97551">
        <ele>1014.2</ele>
        <time>2022-07-19T08:34:51Z</time>
      </trkpt>
      <trkpt lat="44.2108" lon="6.97547">
        <ele>1014.4</ele>
        <time>2022-07-19T08:34:52Z</time>
      </trkpt>
      <trkpt lat="44.21083" lon="6.97543">
        <ele>1014.4</ele>
        <time>2022-07-19T08:34:53Z</time>
      </trkpt>
      <trkpt lat="44.21087" lon="6.9754">
        <ele>1014.4</ele>
        <time>2022-07-19T08:34:54Z</time>
      </trkpt>
      <trkpt lat="44.21091" lon="6.97536">
        <ele>1014.6</ele>
        <time>2022-07-19T08:34:55Z</time>
      </trkpt>
      <trkpt lat="44.21095" lon="6.97533">
        <ele>1014.6</ele>
        <time>2022-07-19T08:34:56Z</time>
      </trkpt>
      <trkpt lat="44.21099" lon="6.9753">
        <ele>1014.6</ele>
        <time>2022-07-19T08:34:57Z</time>
      </trkpt>
      <trkpt lat="44.21103" lon="6.97527">
        <ele>1014.8</ele>
        <time>2022-07-19T08:34:58Z</time>
      </trkpt>
      <trkpt lat="44.21107" lon="6.97524">
        <ele>1014.8</ele>
        <time>2022-07-19T08:34:59Z</time>
      </trkpt>
      <trkpt lat="44.2111" lon="6.9752">
        <ele>1015</ele>
        <time>2022-07-19T08:35:00Z</time>
      </trkpt>
      <trkpt lat="44.21114" lon="6.97517">
        <ele>1015</ele>
        <time>2022-07-19T08:35:01Z</time>
      </trkpt>
      <trkpt lat="44.21118" lon="6.97514">
        <ele>1015</ele>
        <time>2022-07-19T08:35:02Z</time>
      </trkpt>
      <trkpt lat="44.21123" lon="6.97511">
        <ele>1015</ele>
        <time>2022-07-19T08:35:03Z</time>
      </trkpt>
      <trkpt lat="44.21127" lon="6.97508">
        <ele>1015</ele>
        <time>2022-07-19T08:35:04Z</time>
      </trkpt>
      <trkpt lat="44.21131" lon="6.97505">
        <ele>1015.4</ele>
        <time>2022-07-19T08:35:05Z</time>
      </trkpt>
      <trkpt lat="44.21136" lon="6.97502">
        <ele>1015.4</ele>
        <time>2022-07-19T08:35:06Z</time>
      </trkpt>
      <trkpt lat="44.2114" lon="6.97499">
        <ele>1015.4</ele>
        <time>2022-07-19T08:35:07Z</time>
      </trkpt>
      <trkpt lat="44.21144" lon="6.97495">
        <ele>1015.4</ele>
        <time>2022-07-19T08:35:08Z</time>
      </trkpt>
      <trkpt lat="44.21148" lon="6.97492">
        <ele>1015.4</ele>
        <time>2022-07-19T08:35:09Z</time>
      </trkpt>
      <trkpt lat="44.21152" lon="6.97489">
        <ele>1015.6</ele>
        <time>2022-07-19T08:35:10Z</time>
      </trkpt>
      <trkpt lat="44.21156" lon="6.97486">
        <ele>1015.6</ele>
        <time>2022-07-19T08:35:11Z</time>
      </trkpt>
      <trkpt lat="44.2116" lon="6.97483">
        <ele>1015.8</ele>
        <time>2022-07-19T08:35:12Z</time>
      </trkpt>
      <trkpt lat="44.21164" lon="6.97481">
        <ele>1015.8</ele>
        <time>2022-07-19T08:35:13Z</time>
      </trkpt>
      <trkpt lat="44.21168" lon="6.97478">
        <ele>1016</ele>
        <time>2022-07-19T08:35:14Z</time>
      </trkpt>
      <trkpt lat="44.21172" lon="6.97476">
        <ele>1016</ele>
        <time>2022-07-19T08:35:15Z</time>
      </trkpt>
      <trkpt lat="44.21176" lon="6.97474">
        <ele>1016</ele>
        <time>2022-07-19T08:35:16Z</time>
      </trkpt>
      <trkpt lat="44.2118" lon="6.97471">
        <ele>1016.4</ele>
        <time>2022-07-19T08:35:17Z</time>
      </trkpt>
      <trkpt lat="44.21184" lon="6.97469">
        <ele>1016.4</ele>
        <time>2022-07-19T08:35:18Z</time>
      </trkpt>
      <trkpt lat="44.21188" lon="6.97467">
        <ele>1016.4</ele>
        <time>2022-07-19T08:35:19Z</time>
      </trkpt>
      <trkpt lat="44.21192" lon="6.97464">
        <ele>1016.6</ele>
        <time>2022-07-19T08:35:20Z</time>
      </trkpt>
      <trkpt lat="44.21196" lon="6.97462">
        <ele>1016.6</ele>
        <time>2022-07-19T08:35:21Z</time>
      </trkpt>
      <trkpt lat="44.212" lon="6.9746">
        <ele>1016.6</ele>
        <time>2022-07-19T08:35:22Z</time>
      </trkpt>
      <trkpt lat="44.21204" lon="6.97458">
        <ele>1016.8</ele>
        <time>2022-07-19T08:35:23Z</time>
      </trkpt>
      <trkpt lat="44.21208" lon="6.97455">
        <ele>1016.8</ele>
        <time>2022-07-19T08:35:24Z</time>
      </trkpt>
      <trkpt lat="44.21216" lon="6.97451">
        <ele>1017</ele>
        <time>2022-07-19T08:35:25Z</time>
      </trkpt>
      <trkpt lat="44.2122" lon="6.97449">
        <ele>1017</ele>
        <time>2022-07-19T08:35:26Z</time>
      </trkpt>
      <trkpt lat="44.21224" lon="6.97448">
        <ele>1017.4</ele>
        <time>2022-07-19T08:35:27Z</time>
      </trkpt>
      <trkpt lat="44.21228" lon="6.97446">
        <ele>1017.4</ele>
        <time>2022-07-19T08:35:28Z</time>
      </trkpt>
      <trkpt lat="44.21232" lon="6.97444">
        <ele>1017.4</ele>
        <time>2022-07-19T08:35:29Z</time>
      </trkpt>
      <trkpt lat="44.21236" lon="6.97443">
        <ele>1017.4</ele>
        <time>2022-07-19T08:35:30Z</time>
      </trkpt>
      <trkpt lat="44.2124" lon="6.97441">
        <ele>1017.8</ele>
        <time>2022-07-19T08:35:31Z</time>
      </trkpt>
      <trkpt lat="44.21243" lon="6.97439">
        <ele>1018</ele>
        <time>2022-07-19T08:35:32Z</time>
      </trkpt>
      <trkpt lat="44.21248" lon="6.97438">
        <ele>1018.2</ele>
        <time>2022-07-19T08:35:33Z</time>
      </trkpt>
      <trkpt lat="44.21251" lon="6.97436">
        <ele>1018.2</ele>
        <time>2022-07-19T08:35:34Z</time>
      </trkpt>
      <trkpt lat="44.21255" lon="6.97434">
        <ele>1018.2</ele>
        <time>2022-07-19T08:35:35Z</time>
      </trkpt>
      <trkpt lat="44.21259" lon="6.97432">
        <ele>1018.6</ele>
        <time>2022-07-19T08:35:36Z</time>
      </trkpt>
      <trkpt lat="44.21263" lon="6.97429">
        <ele>1018.6</ele>
        <time>2022-07-19T08:35:37Z</time>
      </trkpt>
      <trkpt lat="44.21267" lon="6.97427">
        <ele>1018.8</ele>
        <time>2022-07-19T08:35:38Z</time>
      </trkpt>
      <trkpt lat="44.21271" lon="6.97424">
        <ele>1018.8</ele>
        <time>2022-07-19T08:35:39Z</time>
      </trkpt>
      <trkpt lat="44.21275" lon="6.97422">
        <ele>1018.8</ele>
        <time>2022-07-19T08:35:40Z</time>
      </trkpt>
      <trkpt lat="44.21279" lon="6.9742">
        <ele>1019.2</ele>
        <time>2022-07-19T08:35:41Z</time>
      </trkpt>
      <trkpt lat="44.21283" lon="6.97417">
        <ele>1019.2</ele>
        <time>2022-07-19T08:35:42Z</time>
      </trkpt>
      <trkpt lat="44.21286" lon="6.97415">
        <ele>1019.2</ele>
        <time>2022-07-19T08:35:43Z</time>
      </trkpt>
      <trkpt lat="44.2129" lon="6.97412">
        <ele>1019.4</ele>
        <time>2022-07-19T08:35:44Z</time>
      </trkpt>
      <trkpt lat="44.21294" lon="6.97409">
        <ele>1019.4</ele>
        <time>2022-07-19T08:35:45Z</time>
      </trkpt>
      <trkpt lat="44.21298" lon="6.97406">
        <ele>1019.4</ele>
        <time>2022-07-19T08:35:46Z</time>
      </trkpt>
      <trkpt lat="44.21302" lon="6.97403">
        <ele>1019.6</ele>
        <time>2022-07-19T08:35:47Z</time>
      </trkpt>
      <trkpt lat="44.21305" lon="6.974">
        <ele>1019.6</ele>
        <time>2022-07-19T08:35:48Z</time>
      </trkpt>
      <trkpt lat="44.21309" lon="6.97397">
        <ele>1019.8</ele>
        <time>2022-07-19T08:35:49Z</time>
      </trkpt>
      <trkpt lat="44.21313" lon="6.97394">
        <ele>1019.8</ele>
        <time>2022-07-19T08:35:50Z</time>
      </trkpt>
      <trkpt lat="44.21317" lon="6.97391">
        <ele>1019.8</ele>
        <time>2022-07-19T08:35:51Z</time>
      </trkpt>
      <trkpt lat="44.2132" lon="6.97388">
        <ele>1020.2</ele>
        <time>2022-07-19T08:35:52Z</time>
      </trkpt>
      <trkpt lat="44.21324" lon="6.97384">
        <ele>1020.2</ele>
        <time>2022-07-19T08:35:53Z</time>
      </trkpt>
      <trkpt lat="44.21327" lon="6.9738">
        <ele>1020.4</ele>
        <time>2022-07-19T08:35:54Z</time>
      </trkpt>
      <trkpt lat="44.2133" lon="6.97377">
        <ele>1020.4</ele>
        <time>2022-07-19T08:35:55Z</time>
      </trkpt>
      <trkpt lat="44.21334" lon="6.97373">
        <ele>1020.6</ele>
        <time>2022-07-19T08:35:56Z</time>
      </trkpt>
      <trkpt lat="44.21337" lon="6.97369">
        <ele>1020.6</ele>
        <time>2022-07-19T08:35:57Z</time>
      </trkpt>
      <trkpt lat="44.2134" lon="6.97365">
        <ele>1020.8</ele>
        <time>2022-07-19T08:35:58Z</time>
      </trkpt>
      <trkpt lat="44.21343" lon="6.97361">
        <ele>1020.8</ele>
        <time>2022-07-19T08:35:59Z</time>
      </trkpt>
      <trkpt lat="44.21346" lon="6.97357">
        <ele>1021.2</ele>
        <time>2022-07-19T08:36:00Z</time>
      </trkpt>
      <trkpt lat="44.21349" lon="6.97353">
        <ele>1021.2</ele>
        <time>2022-07-19T08:36:01Z</time>
      </trkpt>
      <trkpt lat="44.21352" lon="6.97349">
        <ele>1021.4</ele>
        <time>2022-07-19T08:36:02Z</time>
      </trkpt>
      <trkpt lat="44.21355" lon="6.97345">
        <ele>1021.4</ele>
        <time>2022-07-19T08:36:03Z</time>
      </trkpt>
      <trkpt lat="44.21358" lon="6.97341">
        <ele>1021.4</ele>
        <time>2022-07-19T08:36:04Z</time>
      </trkpt>
      <trkpt lat="44.21361" lon="6.97337">
        <ele>1021.6</ele>
        <time>2022-07-19T08:36:05Z</time>
      </trkpt>
      <trkpt lat="44.21364" lon="6.97333">
        <ele>1021.8</ele>
        <time>2022-07-19T08:36:07Z</time>
      </trkpt>
      <trkpt lat="44.21367" lon="6.97329">
        <ele>1021.8</ele>
        <time>2022-07-19T08:36:08Z</time>
      </trkpt>
      <trkpt lat="44.2137" lon="6.97325">
        <ele>1022.2</ele>
        <time>2022-07-19T08:36:09Z</time>
      </trkpt>
      <trkpt lat="44.21373" lon="6.97321">
        <ele>1022.2</ele>
        <time>2022-07-19T08:36:10Z</time>
      </trkpt>
      <trkpt lat="44.21376" lon="6.97317">
        <ele>1022.4</ele>
        <time>2022-07-19T08:36:11Z</time>
      </trkpt>
      <trkpt lat="44.21378" lon="6.97314">
        <ele>1022.4</ele>
        <time>2022-07-19T08:36:12Z</time>
      </trkpt>
      <trkpt lat="44.21381" lon="6.9731">
        <ele>1022.6</ele>
        <time>2022-07-19T08:36:13Z</time>
      </trkpt>
      <trkpt lat="44.21384" lon="6.97305">
        <ele>1022.6</ele>
        <time>2022-07-19T08:36:14Z</time>
      </trkpt>
      <trkpt lat="44.21387" lon="6.97302">
        <ele>1022.6</ele>
        <time>2022-07-19T08:36:15Z</time>
      </trkpt>
      <trkpt lat="44.2139" lon="6.97298">
        <ele>1022.6</ele>
        <time>2022-07-19T08:36:16Z</time>
      </trkpt>
      <trkpt lat="44.21393" lon="6.97294">
        <ele>1023</ele>
        <time>2022-07-19T08:36:17Z</time>
      </trkpt>
      <trkpt lat="44.21396" lon="6.9729">
        <ele>1023</ele>
        <time>2022-07-19T08:36:18Z</time>
      </trkpt>
      <trkpt lat="44.21399" lon="6.97287">
        <ele>1023.2</ele>
        <time>2022-07-19T08:36:19Z</time>
      </trkpt>
      <trkpt lat="44.21402" lon="6.97283">
        <ele>1023.2</ele>
        <time>2022-07-19T08:36:20Z</time>
      </trkpt>
      <trkpt lat="44.21405" lon="6.97279">
        <ele>1023.2</ele>
        <time>2022-07-19T08:36:21Z</time>
      </trkpt>
      <trkpt lat="44.21408" lon="6.97275">
        <ele>1023.6</ele>
        <time>2022-07-19T08:36:22Z</time>
      </trkpt>
      <trkpt lat="44.21411" lon="6.97271">
        <ele>1023.6</ele>
        <time>2022-07-19T08:36:23Z</time>
      </trkpt>
      <trkpt lat="44.21414" lon="6.97267">
        <ele>1023.8</ele>
        <time>2022-07-19T08:36:24Z</time>
      </trkpt>
      <trkpt lat="44.21417" lon="6.97264">
        <ele>1023.8</ele>
        <time>2022-07-19T08:36:25Z</time>
      </trkpt>
      <trkpt lat="44.2142" lon="6.9726">
        <ele>1023.8</ele>
        <time>2022-07-19T08:36:26Z</time>
      </trkpt>
      <trkpt lat="44.21423" lon="6.97257">
        <ele>1024</ele>
        <time>2022-07-19T08:36:27Z</time>
      </trkpt>
      <trkpt lat="44.21426" lon="6.97253">
        <ele>1024</ele>
        <time>2022-07-19T08:36:28Z</time>
      </trkpt>
      <trkpt lat="44.21429" lon="6.97249">
        <ele>1024.4</ele>
        <time>2022-07-19T08:36:29Z</time>
      </trkpt>
      <trkpt lat="44.21432" lon="6.97245">
        <ele>1024.4</ele>
        <time>2022-07-19T08:36:30Z</time>
      </trkpt>
      <trkpt lat="44.21435" lon="6.97241">
        <ele>1024.6</ele>
        <time>2022-07-19T08:36:31Z</time>
      </trkpt>
      <trkpt lat="44.21438" lon="6.97238">
        <ele>1024.6</ele>
        <time>2022-07-19T08:36:32Z</time>
      </trkpt>
      <trkpt lat="44.21441" lon="6.97234">
        <ele>1024.8</ele>
        <time>2022-07-19T08:36:33Z</time>
      </trkpt>
      <trkpt lat="44.21444" lon="6.9723">
        <ele>1024.8</ele>
        <time>2022-07-19T08:36:34Z</time>
      </trkpt>
      <trkpt lat="44.21448" lon="6.97226">
        <ele>1024.8</ele>
        <time>2022-07-19T08:36:35Z</time>
      </trkpt>
      <trkpt lat="44.21451" lon="6.97222">
        <ele>1025.2</ele>
        <time>2022-07-19T08:36:36Z</time>
      </trkpt>
      <trkpt lat="44.21454" lon="6.97219">
        <ele>1025.2</ele>
        <time>2022-07-19T08:36:37Z</time>
      </trkpt>
      <trkpt lat="44.21457" lon="6.97215">
        <ele>1025.4</ele>
        <time>2022-07-19T08:36:38Z</time>
      </trkpt>
      <trkpt lat="44.21461" lon="6.97212">
        <ele>1025.4</ele>
        <time>2022-07-19T08:36:39Z</time>
      </trkpt>
      <trkpt lat="44.21464" lon="6.97208">
        <ele>1025.6</ele>
        <time>2022-07-19T08:36:40Z</time>
      </trkpt>
      <trkpt lat="44.21467" lon="6.97204">
        <ele>1025.6</ele>
        <time>2022-07-19T08:36:41Z</time>
      </trkpt>
      <trkpt lat="44.2147" lon="6.97201">
        <ele>1026</ele>
        <time>2022-07-19T08:36:42Z</time>
      </trkpt>
      <trkpt lat="44.21473" lon="6.97197">
        <ele>1026</ele>
        <time>2022-07-19T08:36:43Z</time>
      </trkpt>
      <trkpt lat="44.21476" lon="6.97193">
        <ele>1026.2</ele>
        <time>2022-07-19T08:36:44Z</time>
      </trkpt>
      <trkpt lat="44.21479" lon="6.97189">
        <ele>1026.2</ele>
        <time>2022-07-19T08:36:45Z</time>
      </trkpt>
      <trkpt lat="44.21482" lon="6.97185">
        <ele>1026.2</ele>
        <time>2022-07-19T08:36:46Z</time>
      </trkpt>
      <trkpt lat="44.21485" lon="6.97181">
        <ele>1026.4</ele>
        <time>2022-07-19T08:36:47Z</time>
      </trkpt>
      <trkpt lat="44.21488" lon="6.97177">
        <ele>1026.4</ele>
        <time>2022-07-19T08:36:48Z</time>
      </trkpt>
      <trkpt lat="44.21492" lon="6.97174">
        <ele>1026.4</ele>
        <time>2022-07-19T08:36:49Z</time>
      </trkpt>
      <trkpt lat="44.21495" lon="6.9717">
        <ele>1026.4</ele>
        <time>2022-07-19T08:36:50Z</time>
      </trkpt>
      <trkpt lat="44.21498" lon="6.97167">
        <ele>1026.6</ele>
        <time>2022-07-19T08:36:51Z</time>
      </trkpt>
      <trkpt lat="44.21502" lon="6.97164">
        <ele>1026.6</ele>
        <time>2022-07-19T08:36:52Z</time>
      </trkpt>
      <trkpt lat="44.21505" lon="6.9716">
        <ele>1027</ele>
        <time>2022-07-19T08:36:53Z</time>
      </trkpt>
      <trkpt lat="44.21509" lon="6.97157">
        <ele>1027</ele>
        <time>2022-07-19T08:36:54Z</time>
      </trkpt>
      <trkpt lat="44.21512" lon="6.97154">
        <ele>1027.2</ele>
        <time>2022-07-19T08:36:55Z</time>
      </trkpt>
      <trkpt lat="44.21515" lon="6.97151">
        <ele>1027.2</ele>
        <time>2022-07-19T08:36:56Z</time>
      </trkpt>
      <trkpt lat="44.21519" lon="6.97149">
        <ele>1027.6</ele>
        <time>2022-07-19T08:36:57Z</time>
      </trkpt>
      <trkpt lat="44.21523" lon="6.97146">
        <ele>1027.6</ele>
        <time>2022-07-19T08:36:58Z</time>
      </trkpt>
      <trkpt lat="44.21526" lon="6.97144">
        <ele>1027.8</ele>
        <time>2022-07-19T08:36:59Z</time>
      </trkpt>
      <trkpt lat="44.2153" lon="6.97142">
        <ele>1027.8</ele>
        <time>2022-07-19T08:37:00Z</time>
      </trkpt>
      <trkpt lat="44.21534" lon="6.97139">
        <ele>1028.2</ele>
        <time>2022-07-19T08:37:01Z</time>
      </trkpt>
      <trkpt lat="44.21537" lon="6.97137">
        <ele>1028.2</ele>
        <time>2022-07-19T08:37:02Z</time>
      </trkpt>
      <trkpt lat="44.2154" lon="6.97135">
        <ele>1028.4</ele>
        <time>2022-07-19T08:37:03Z</time>
      </trkpt>
      <trkpt lat="44.21544" lon="6.97133">
        <ele>1028.8</ele>
        <time>2022-07-19T08:37:04Z</time>
      </trkpt>
      <trkpt lat="44.21547" lon="6.97131">
        <ele>1028.8</ele>
        <time>2022-07-19T08:37:05Z</time>
      </trkpt>
      <trkpt lat="44.21551" lon="6.97129">
        <ele>1029.2</ele>
        <time>2022-07-19T08:37:06Z</time>
      </trkpt>
      <trkpt lat="44.21555" lon="6.97127">
        <ele>1029.2</ele>
        <time>2022-07-19T08:37:07Z</time>
      </trkpt>
      <trkpt lat="44.21558" lon="6.97125">
        <ele>1029.6</ele>
        <time>2022-07-19T08:37:08Z</time>
      </trkpt>
      <trkpt lat="44.21562" lon="6.97124">
        <ele>1029.8</ele>
        <time>2022-07-19T08:37:09Z</time>
      </trkpt>
      <trkpt lat="44.21565" lon="6.97122">
        <ele>1029.8</ele>
        <time>2022-07-19T08:37:10Z</time>
      </trkpt>
      <trkpt lat="44.21568" lon="6.97121">
        <ele>1030</ele>
        <time>2022-07-19T08:37:11Z</time>
      </trkpt>
      <trkpt lat="44.21572" lon="6.9712">
        <ele>1030.2</ele>
        <time>2022-07-19T08:37:12Z</time>
      </trkpt>
      <trkpt lat="44.21575" lon="6.97118">
        <ele>1030.2</ele>
        <time>2022-07-19T08:37:13Z</time>
      </trkpt>
      <trkpt lat="44.21579" lon="6.97117">
        <ele>1030.6</ele>
        <time>2022-07-19T08:37:14Z</time>
      </trkpt>
      <trkpt lat="44.21582" lon="6.97116">
        <ele>1030.6</ele>
        <time>2022-07-19T08:37:15Z</time>
      </trkpt>
      <trkpt lat="44.21586" lon="6.97115">
        <ele>1030.6</ele>
        <time>2022-07-19T08:37:16Z</time>
      </trkpt>
      <trkpt lat="44.2159" lon="6.97115">
        <ele>1030.8</ele>
        <time>2022-07-19T08:37:17Z</time>
      </trkpt>
      <trkpt lat="44.21594" lon="6.97114">
        <ele>1030.8</ele>
        <time>2022-07-19T08:37:18Z</time>
      </trkpt>
      <trkpt lat="44.21598" lon="6.97113">
        <ele>1030.8</ele>
        <time>2022-07-19T08:37:19Z</time>
      </trkpt>
      <trkpt lat="44.21602" lon="6.97112">
        <ele>1031</ele>
        <time>2022-07-19T08:37:20Z</time>
      </trkpt>
      <trkpt lat="44.21606" lon="6.97111">
        <ele>1031</ele>
        <time>2022-07-19T08:37:21Z</time>
      </trkpt>
      <trkpt lat="44.2161" lon="6.9711">
        <ele>1031</ele>
        <time>2022-07-19T08:37:22Z</time>
      </trkpt>
      <trkpt lat="44.21614" lon="6.97108">
        <ele>1031.4</ele>
        <time>2022-07-19T08:37:23Z</time>
      </trkpt>
      <trkpt lat="44.21618" lon="6.97107">
        <ele>1031.4</ele>
        <time>2022-07-19T08:37:24Z</time>
      </trkpt>
      <trkpt lat="44.21622" lon="6.97105">
        <ele>1031.4</ele>
        <time>2022-07-19T08:37:25Z</time>
      </trkpt>
      <trkpt lat="44.21626" lon="6.97103">
        <ele>1031.6</ele>
        <time>2022-07-19T08:37:26Z</time>
      </trkpt>
      <trkpt lat="44.2163" lon="6.97101">
        <ele>1031.6</ele>
        <time>2022-07-19T08:37:27Z</time>
      </trkpt>
      <trkpt lat="44.21633" lon="6.97099">
        <ele>1031.6</ele>
        <time>2022-07-19T08:37:28Z</time>
      </trkpt>
      <trkpt lat="44.21637" lon="6.97096">
        <ele>1032</ele>
        <time>2022-07-19T08:37:29Z</time>
      </trkpt>
      <trkpt lat="44.21641" lon="6.97094">
        <ele>1032</ele>
        <time>2022-07-19T08:37:30Z</time>
      </trkpt>
      <trkpt lat="44.21645" lon="6.97091">
        <ele>1032.2</ele>
        <time>2022-07-19T08:37:31Z</time>
      </trkpt>
      <trkpt lat="44.21649" lon="6.97089">
        <ele>1032.2</ele>
        <time>2022-07-19T08:37:32Z</time>
      </trkpt>
      <trkpt lat="44.21652" lon="6.97086">
        <ele>1032.2</ele>
        <time>2022-07-19T08:37:33Z</time>
      </trkpt>
      <trkpt lat="44.21656" lon="6.97083">
        <ele>1032.4</ele>
        <time>2022-07-19T08:37:34Z</time>
      </trkpt>
      <trkpt lat="44.2166" lon="6.9708">
        <ele>1032.8</ele>
        <time>2022-07-19T08:37:35Z</time>
      </trkpt>
      <trkpt lat="44.21663" lon="6.97077">
        <ele>1032.8</ele>
        <time>2022-07-19T08:37:36Z</time>
      </trkpt>
      <trkpt lat="44.21667" lon="6.97074">
        <ele>1032.8</ele>
        <time>2022-07-19T08:37:37Z</time>
      </trkpt>
      <trkpt lat="44.2167" lon="6.9707">
        <ele>1033</ele>
        <time>2022-07-19T08:37:38Z</time>
      </trkpt>
      <trkpt lat="44.21673" lon="6.97067">
        <ele>1033</ele>
        <time>2022-07-19T08:37:39Z</time>
      </trkpt>
      <trkpt lat="44.21676" lon="6.97064">
        <ele>1033.2</ele>
        <time>2022-07-19T08:37:40Z</time>
      </trkpt>
      <trkpt lat="44.2168" lon="6.97061">
        <ele>1033.2</ele>
        <time>2022-07-19T08:37:41Z</time>
      </trkpt>
      <trkpt lat="44.21683" lon="6.97058">
        <ele>1033.4</ele>
        <time>2022-07-19T08:37:42Z</time>
      </trkpt>
      <trkpt lat="44.21686" lon="6.97055">
        <ele>1033.4</ele>
        <time>2022-07-19T08:37:43Z</time>
      </trkpt>
      <trkpt lat="44.21689" lon="6.97052">
        <ele>1033.8</ele>
        <time>2022-07-19T08:37:44Z</time>
      </trkpt>
      <trkpt lat="44.21692" lon="6.97049">
        <ele>1033.8</ele>
        <time>2022-07-19T08:37:45Z</time>
      </trkpt>
      <trkpt lat="44.21696" lon="6.97045">
        <ele>1034</ele>
        <time>2022-07-19T08:37:46Z</time>
      </trkpt>
      <trkpt lat="44.21699" lon="6.97042">
        <ele>1034</ele>
        <time>2022-07-19T08:37:47Z</time>
      </trkpt>
      <trkpt lat="44.21702" lon="6.97039">
        <ele>1034</ele>
        <time>2022-07-19T08:37:48Z</time>
      </trkpt>
      <trkpt lat="44.21705" lon="6.97035">
        <ele>1034</ele>
        <time>2022-07-19T08:37:49Z</time>
      </trkpt>
      <trkpt lat="44.21708" lon="6.97032">
        <ele>1034.2</ele>
        <time>2022-07-19T08:37:50Z</time>
      </trkpt>
      <trkpt lat="44.21711" lon="6.97028">
        <ele>1034.2</ele>
        <time>2022-07-19T08:37:51Z</time>
      </trkpt>
      <trkpt lat="44.21713" lon="6.97024">
        <ele>1034.2</ele>
        <time>2022-07-19T08:37:52Z</time>
      </trkpt>
      <trkpt lat="44.21716" lon="6.9702">
        <ele>1034.6</ele>
        <time>2022-07-19T08:37:53Z</time>
      </trkpt>
      <trkpt lat="44.21719" lon="6.97016">
        <ele>1034.6</ele>
        <time>2022-07-19T08:37:54Z</time>
      </trkpt>
      <trkpt lat="44.21722" lon="6.97012">
        <ele>1034.8</ele>
        <time>2022-07-19T08:37:55Z</time>
      </trkpt>
      <trkpt lat="44.21725" lon="6.97008">
        <ele>1034.8</ele>
        <time>2022-07-19T08:37:56Z</time>
      </trkpt>
      <trkpt lat="44.21727" lon="6.97004">
        <ele>1035</ele>
        <time>2022-07-19T08:37:57Z</time>
      </trkpt>
      <trkpt lat="44.2173" lon="6.97">
        <ele>1035</ele>
        <time>2022-07-19T08:37:58Z</time>
      </trkpt>
      <trkpt lat="44.21733" lon="6.96995">
        <ele>1035</ele>
        <time>2022-07-19T08:37:59Z</time>
      </trkpt>
      <trkpt lat="44.21736" lon="6.96991">
        <ele>1035.4</ele>
        <time>2022-07-19T08:38:00Z</time>
      </trkpt>
      <trkpt lat="44.21738" lon="6.96986">
        <ele>1035.4</ele>
        <time>2022-07-19T08:38:01Z</time>
      </trkpt>
      <trkpt lat="44.21741" lon="6.96982">
        <ele>1035.6</ele>
        <time>2022-07-19T08:38:02Z</time>
      </trkpt>
      <trkpt lat="44.21744" lon="6.96978">
        <ele>1035.6</ele>
        <time>2022-07-19T08:38:03Z</time>
      </trkpt>
      <trkpt lat="44.21746" lon="6.96973">
        <ele>1035.8</ele>
        <time>2022-07-19T08:38:04Z</time>
      </trkpt>
      <trkpt lat="44.21749" lon="6.96968">
        <ele>1035.8</ele>
        <time>2022-07-19T08:38:05Z</time>
      </trkpt>
      <trkpt lat="44.21753" lon="6.96965">
        <ele>1035.8</ele>
        <time>2022-07-19T08:38:06Z</time>
      </trkpt>
      <trkpt lat="44.21756" lon="6.9696">
        <ele>1036</ele>
        <time>2022-07-19T08:38:07Z</time>
      </trkpt>
      <trkpt lat="44.21759" lon="6.96956">
        <ele>1036</ele>
        <time>2022-07-19T08:38:08Z</time>
      </trkpt>
      <trkpt lat="44.21763" lon="6.96952">
        <ele>1036</ele>
        <time>2022-07-19T08:38:09Z</time>
      </trkpt>
      <trkpt lat="44.21766" lon="6.96947">
        <ele>1036</ele>
        <time>2022-07-19T08:38:10Z</time>
      </trkpt>
      <trkpt lat="44.21769" lon="6.96943">
        <ele>1036.4</ele>
        <time>2022-07-19T08:38:11Z</time>
      </trkpt>
      <trkpt lat="44.21773" lon="6.96939">
        <ele>1036.4</ele>
        <time>2022-07-19T08:38:12Z</time>
      </trkpt>
      <trkpt lat="44.21776" lon="6.96935">
        <ele>1036.6</ele>
        <time>2022-07-19T08:38:13Z</time>
      </trkpt>
      <trkpt lat="44.21779" lon="6.96931">
        <ele>1036.6</ele>
        <time>2022-07-19T08:38:14Z</time>
      </trkpt>
      <trkpt lat="44.21783" lon="6.96927">
        <ele>1036.6</ele>
        <time>2022-07-19T08:38:15Z</time>
      </trkpt>
      <trkpt lat="44.21787" lon="6.96924">
        <ele>1036.8</ele>
        <time>2022-07-19T08:38:16Z</time>
      </trkpt>
      <trkpt lat="44.2179" lon="6.96921">
        <ele>1036.8</ele>
        <time>2022-07-19T08:38:17Z</time>
      </trkpt>
      <trkpt lat="44.21794" lon="6.96917">
        <ele>1036.8</ele>
        <time>2022-07-19T08:38:18Z</time>
      </trkpt>
      <trkpt lat="44.21797" lon="6.96913">
        <ele>1037.2</ele>
        <time>2022-07-19T08:38:19Z</time>
      </trkpt>
      <trkpt lat="44.218" lon="6.96909">
        <ele>1037.2</ele>
        <time>2022-07-19T08:38:20Z</time>
      </trkpt>
      <trkpt lat="44.21804" lon="6.96906">
        <ele>1037.4</ele>
        <time>2022-07-19T08:38:21Z</time>
      </trkpt>
      <trkpt lat="44.21808" lon="6.96903">
        <ele>1037.4</ele>
        <time>2022-07-19T08:38:22Z</time>
      </trkpt>
      <trkpt lat="44.21812" lon="6.96901">
        <ele>1037.4</ele>
        <time>2022-07-19T08:38:23Z</time>
      </trkpt>
      <trkpt lat="44.21816" lon="6.96898">
        <ele>1037.4</ele>
        <time>2022-07-19T08:38:24Z</time>
      </trkpt>
      <trkpt lat="44.21819" lon="6.96895">
        <ele>1037.6</ele>
        <time>2022-07-19T08:38:25Z</time>
      </trkpt>
      <trkpt lat="44.21823" lon="6.96892">
        <ele>1037.6</ele>
        <time>2022-07-19T08:38:26Z</time>
      </trkpt>
      <trkpt lat="44.21827" lon="6.96889">
        <ele>1038</ele>
        <time>2022-07-19T08:38:27Z</time>
      </trkpt>
      <trkpt lat="44.2183" lon="6.96886">
        <ele>1038</ele>
        <time>2022-07-19T08:38:28Z</time>
      </trkpt>
      <trkpt lat="44.21834" lon="6.96882">
        <ele>1038.2</ele>
        <time>2022-07-19T08:38:29Z</time>
      </trkpt>
      <trkpt lat="44.21838" lon="6.96879">
        <ele>1038.2</ele>
        <time>2022-07-19T08:38:30Z</time>
      </trkpt>
      <trkpt lat="44.21842" lon="6.96875">
        <ele>1038.2</ele>
        <time>2022-07-19T08:38:31Z</time>
      </trkpt>
      <trkpt lat="44.21845" lon="6.96871">
        <ele>1038.4</ele>
        <time>2022-07-19T08:38:32Z</time>
      </trkpt>
      <trkpt lat="44.21849" lon="6.96866">
        <ele>1038.4</ele>
        <time>2022-07-19T08:38:33Z</time>
      </trkpt>
      <trkpt lat="44.21853" lon="6.96862">
        <ele>1038.4</ele>
        <time>2022-07-19T08:38:34Z</time>
      </trkpt>
      <trkpt lat="44.21856" lon="6.96857">
        <ele>1038.6</ele>
        <time>2022-07-19T08:38:35Z</time>
      </trkpt>
      <trkpt lat="44.2186" lon="6.96853">
        <ele>1038.6</ele>
        <time>2022-07-19T08:38:36Z</time>
      </trkpt>
      <trkpt lat="44.21863" lon="6.96849">
        <ele>1039</ele>
        <time>2022-07-19T08:38:37Z</time>
      </trkpt>
      <trkpt lat="44.21867" lon="6.96844">
        <ele>1039</ele>
        <time>2022-07-19T08:38:38Z</time>
      </trkpt>
      <trkpt lat="44.2187" lon="6.96839">
        <ele>1039.2</ele>
        <time>2022-07-19T08:38:39Z</time>
      </trkpt>
      <trkpt lat="44.21874" lon="6.96835">
        <ele>1039.2</ele>
        <time>2022-07-19T08:38:40Z</time>
      </trkpt>
      <trkpt lat="44.21877" lon="6.96832">
        <ele>1039.4</ele>
        <time>2022-07-19T08:38:41Z</time>
      </trkpt>
      <trkpt lat="44.21881" lon="6.96828">
        <ele>1039.4</ele>
        <time>2022-07-19T08:38:42Z</time>
      </trkpt>
      <trkpt lat="44.21885" lon="6.96824">
        <ele>1039.4</ele>
        <time>2022-07-19T08:38:43Z</time>
      </trkpt>
      <trkpt lat="44.21889" lon="6.96821">
        <ele>1039.6</ele>
        <time>2022-07-19T08:38:44Z</time>
      </trkpt>
      <trkpt lat="44.21893" lon="6.96818">
        <ele>1039.6</ele>
        <time>2022-07-19T08:38:45Z</time>
      </trkpt>
      <trkpt lat="44.21896" lon="6.96815">
        <ele>1040</ele>
        <time>2022-07-19T08:38:46Z</time>
      </trkpt>
      <trkpt lat="44.21901" lon="6.96813">
        <ele>1040</ele>
        <time>2022-07-19T08:38:47Z</time>
      </trkpt>
      <trkpt lat="44.21904" lon="6.96811">
        <ele>1040.4</ele>
        <time>2022-07-19T08:38:48Z</time>
      </trkpt>
      <trkpt lat="44.21908" lon="6.96809">
        <ele>1040.4</ele>
        <time>2022-07-19T08:38:49Z</time>
      </trkpt>
      <trkpt lat="44.21912" lon="6.96805">
        <ele>1040.6</ele>
        <time>2022-07-19T08:38:50Z</time>
      </trkpt>
      <trkpt lat="44.21916" lon="6.96802">
        <ele>1040.6</ele>
        <time>2022-07-19T08:38:51Z</time>
      </trkpt>
      <trkpt lat="44.21919" lon="6.968">
        <ele>1040.8</ele>
        <time>2022-07-19T08:38:52Z</time>
      </trkpt>
      <trkpt lat="44.21923" lon="6.96797">
        <ele>1040.8</ele>
        <time>2022-07-19T08:38:53Z</time>
      </trkpt>
      <trkpt lat="44.21926" lon="6.96794">
        <ele>1041.2</ele>
        <time>2022-07-19T08:38:54Z</time>
      </trkpt>
      <trkpt lat="44.2193" lon="6.96792">
        <ele>1041.2</ele>
        <time>2022-07-19T08:38:55Z</time>
      </trkpt>
      <trkpt lat="44.21933" lon="6.96789">
        <ele>1041.4</ele>
        <time>2022-07-19T08:38:56Z</time>
      </trkpt>
      <trkpt lat="44.21936" lon="6.96785">
        <ele>1041.4</ele>
        <time>2022-07-19T08:38:57Z</time>
      </trkpt>
      <trkpt lat="44.2194" lon="6.96781">
        <ele>1041.6</ele>
        <time>2022-07-19T08:38:58Z</time>
      </trkpt>
      <trkpt lat="44.21943" lon="6.96777">
        <ele>1041.6</ele>
        <time>2022-07-19T08:38:59Z</time>
      </trkpt>
      <trkpt lat="44.21946" lon="6.96773">
        <ele>1041.8</ele>
        <time>2022-07-19T08:39:00Z</time>
      </trkpt>
      <trkpt lat="44.2195" lon="6.9677">
        <ele>1041.8</ele>
        <time>2022-07-19T08:39:01Z</time>
      </trkpt>
      <trkpt lat="44.21953" lon="6.96765">
        <ele>1042</ele>
        <time>2022-07-19T08:39:02Z</time>
      </trkpt>
      <trkpt lat="44.21956" lon="6.96762">
        <ele>1042</ele>
        <time>2022-07-19T08:39:03Z</time>
      </trkpt>
      <trkpt lat="44.21958" lon="6.96758">
        <ele>1042</ele>
        <time>2022-07-19T08:39:04Z</time>
      </trkpt>
      <trkpt lat="44.21961" lon="6.96754">
        <ele>1042.4</ele>
        <time>2022-07-19T08:39:05Z</time>
      </trkpt>
      <trkpt lat="44.21964" lon="6.9675">
        <ele>1042.4</ele>
        <time>2022-07-19T08:39:06Z</time>
      </trkpt>
      <trkpt lat="44.21967" lon="6.96746">
        <ele>1042.6</ele>
        <time>2022-07-19T08:39:07Z</time>
      </trkpt>
      <trkpt lat="44.2197" lon="6.96742">
        <ele>1042.6</ele>
        <time>2022-07-19T08:39:08Z</time>
      </trkpt>
      <trkpt lat="44.21973" lon="6.96738">
        <ele>1042.8</ele>
        <time>2022-07-19T08:39:09Z</time>
      </trkpt>
      <trkpt lat="44.21976" lon="6.96734">
        <ele>1042.8</ele>
        <time>2022-07-19T08:39:10Z</time>
      </trkpt>
      <trkpt lat="44.21979" lon="6.96729">
        <ele>1042.8</ele>
        <time>2022-07-19T08:39:11Z</time>
      </trkpt>
      <trkpt lat="44.21982" lon="6.96725">
        <ele>1043</ele>
        <time>2022-07-19T08:39:12Z</time>
      </trkpt>
      <trkpt lat="44.21984" lon="6.96721">
        <ele>1043</ele>
        <time>2022-07-19T08:39:13Z</time>
      </trkpt>
      <trkpt lat="44.21987" lon="6.96717">
        <ele>1043.2</ele>
        <time>2022-07-19T08:39:14Z</time>
      </trkpt>
      <trkpt lat="44.2199" lon="6.96713">
        <ele>1043.2</ele>
        <time>2022-07-19T08:39:15Z</time>
      </trkpt>
      <trkpt lat="44.21993" lon="6.96709">
        <ele>1043.6</ele>
        <time>2022-07-19T08:39:16Z</time>
      </trkpt>
      <trkpt lat="44.21997" lon="6.96705">
        <ele>1043.6</ele>
        <time>2022-07-19T08:39:17Z</time>
      </trkpt>
      <trkpt lat="44.22" lon="6.96701">
        <ele>1043.6</ele>
        <time>2022-07-19T08:39:18Z</time>
      </trkpt>
      <trkpt lat="44.22003" lon="6.96698">
        <ele>1043.8</ele>
        <time>2022-07-19T08:39:19Z</time>
      </trkpt>
      <trkpt lat="44.22006" lon="6.96693">
        <ele>1043.8</ele>
        <time>2022-07-19T08:39:20Z</time>
      </trkpt>
      <trkpt lat="44.22009" lon="6.96689">
        <ele>1043.8</ele>
        <time>2022-07-19T08:39:21Z</time>
      </trkpt>
      <trkpt lat="44.22012" lon="6.96685">
        <ele>1044</ele>
        <time>2022-07-19T08:39:22Z</time>
      </trkpt>
      <trkpt lat="44.22015" lon="6.9668">
        <ele>1044</ele>
        <time>2022-07-19T08:39:23Z</time>
      </trkpt>
      <trkpt lat="44.22018" lon="6.96676">
        <ele>1044</ele>
        <time>2022-07-19T08:39:24Z</time>
      </trkpt>
      <trkpt lat="44.22022" lon="6.96672">
        <ele>1044.4</ele>
        <time>2022-07-19T08:39:25Z</time>
      </trkpt>
      <trkpt lat="44.22025" lon="6.96668">
        <ele>1044.4</ele>
        <time>2022-07-19T08:39:26Z</time>
      </trkpt>
      <trkpt lat="44.22029" lon="6.96664">
        <ele>1044.4</ele>
        <time>2022-07-19T08:39:27Z</time>
      </trkpt>
      <trkpt lat="44.22033" lon="6.96661">
        <ele>1044.6</ele>
        <time>2022-07-19T08:39:28Z</time>
      </trkpt>
      <trkpt lat="44.22037" lon="6.96657">
        <ele>1044.6</ele>
        <time>2022-07-19T08:39:29Z</time>
      </trkpt>
      <trkpt lat="44.22041" lon="6.96654">
        <ele>1044.6</ele>
        <time>2022-07-19T08:39:30Z</time>
      </trkpt>
      <trkpt lat="44.22045" lon="6.96651">
        <ele>1044.6</ele>
        <time>2022-07-19T08:39:31Z</time>
      </trkpt>
      <trkpt lat="44.22049" lon="6.96647">
        <ele>1044.8</ele>
        <time>2022-07-19T08:39:32Z</time>
      </trkpt>
      <trkpt lat="44.22053" lon="6.96644">
        <ele>1044.8</ele>
        <time>2022-07-19T08:39:33Z</time>
      </trkpt>
      <trkpt lat="44.22057" lon="6.96641">
        <ele>1044.8</ele>
        <time>2022-07-19T08:39:34Z</time>
      </trkpt>
      <trkpt lat="44.22061" lon="6.96638">
        <ele>1045.2</ele>
        <time>2022-07-19T08:39:35Z</time>
      </trkpt>
      <trkpt lat="44.22065" lon="6.96636">
        <ele>1045.2</ele>
        <time>2022-07-19T08:39:36Z</time>
      </trkpt>
      <trkpt lat="44.22068" lon="6.96633">
        <ele>1045.2</ele>
        <time>2022-07-19T08:39:37Z</time>
      </trkpt>
      <trkpt lat="44.22072" lon="6.9663">
        <ele>1045.4</ele>
        <time>2022-07-19T08:39:38Z</time>
      </trkpt>
      <trkpt lat="44.22076" lon="6.96627">
        <ele>1045.4</ele>
        <time>2022-07-19T08:39:39Z</time>
      </trkpt>
      <trkpt lat="44.2208" lon="6.96624">
        <ele>1045.4</ele>
        <time>2022-07-19T08:39:40Z</time>
      </trkpt>
      <trkpt lat="44.22084" lon="6.96621">
        <ele>1045.6</ele>
        <time>2022-07-19T08:39:41Z</time>
      </trkpt>
      <trkpt lat="44.22088" lon="6.96618">
        <ele>1045.6</ele>
        <time>2022-07-19T08:39:42Z</time>
      </trkpt>
      <trkpt lat="44.22092" lon="6.96615">
        <ele>1045.6</ele>
        <time>2022-07-19T08:39:43Z</time>
      </trkpt>
      <trkpt lat="44.22096" lon="6.96612">
        <ele>1045.8</ele>
        <time>2022-07-19T08:39:44Z</time>
      </trkpt>
      <trkpt lat="44.221" lon="6.96609">
        <ele>1045.8</ele>
        <time>2022-07-19T08:39:45Z</time>
      </trkpt>
      <trkpt lat="44.22104" lon="6.96605">
        <ele>1045.8</ele>
        <time>2022-07-19T08:39:46Z</time>
      </trkpt>
      <trkpt lat="44.22108" lon="6.96602">
        <ele>1045.8</ele>
        <time>2022-07-19T08:39:47Z</time>
      </trkpt>
      <trkpt lat="44.22112" lon="6.96599">
        <ele>1045.8</ele>
        <time>2022-07-19T08:39:48Z</time>
      </trkpt>
      <trkpt lat="44.22117" lon="6.96596">
        <ele>1046</ele>
        <time>2022-07-19T08:39:49Z</time>
      </trkpt>
      <trkpt lat="44.2212" lon="6.96593">
        <ele>1046</ele>
        <time>2022-07-19T08:39:50Z</time>
      </trkpt>
      <trkpt lat="44.22124" lon="6.96589">
        <ele>1046</ele>
        <time>2022-07-19T08:39:51Z</time>
      </trkpt>
      <trkpt lat="44.22128" lon="6.96586">
        <ele>1046</ele>
        <time>2022-07-19T08:39:52Z</time>
      </trkpt>
      <trkpt lat="44.22132" lon="6.96583">
        <ele>1046</ele>
        <time>2022-07-19T08:39:53Z</time>
      </trkpt>
      <trkpt lat="44.22137" lon="6.9658">
        <ele>1046</ele>
        <time>2022-07-19T08:39:54Z</time>
      </trkpt>
      <trkpt lat="44.22141" lon="6.96576">
        <ele>1046</ele>
        <time>2022-07-19T08:39:55Z</time>
      </trkpt>
      <trkpt lat="44.22145" lon="6.96573">
        <ele>1046</ele>
        <time>2022-07-19T08:39:56Z</time>
      </trkpt>
      <trkpt lat="44.2215" lon="6.96569">
        <ele>1046</ele>
        <time>2022-07-19T08:39:57Z</time>
      </trkpt>
      <trkpt lat="44.22154" lon="6.96566">
        <ele>1046</ele>
        <time>2022-07-19T08:39:58Z</time>
      </trkpt>
      <trkpt lat="44.22159" lon="6.96562">
        <ele>1046</ele>
        <time>2022-07-19T08:39:59Z</time>
      </trkpt>
      <trkpt lat="44.22163" lon="6.96558">
        <ele>1045.8</ele>
        <time>2022-07-19T08:40:00Z</time>
      </trkpt>
      <trkpt lat="44.22168" lon="6.96555">
        <ele>1045.8</ele>
        <time>2022-07-19T08:40:01Z</time>
      </trkpt>
      <trkpt lat="44.22173" lon="6.96551">
        <ele>1045.8</ele>
        <time>2022-07-19T08:40:02Z</time>
      </trkpt>
      <trkpt lat="44.22178" lon="6.96548">
        <ele>1045.8</ele>
        <time>2022-07-19T08:40:03Z</time>
      </trkpt>
      <trkpt lat="44.22183" lon="6.96544">
        <ele>1045.6</ele>
        <time>2022-07-19T08:40:04Z</time>
      </trkpt>
      <trkpt lat="44.22188" lon="6.9654">
        <ele>1045.6</ele>
        <time>2022-07-19T08:40:05Z</time>
      </trkpt>
      <trkpt lat="44.22194" lon="6.96536">
        <ele>1045.6</ele>
        <time>2022-07-19T08:40:06Z</time>
      </trkpt>
      <trkpt lat="44.22199" lon="6.96532">
        <ele>1045.6</ele>
        <time>2022-07-19T08:40:07Z</time>
      </trkpt>
      <trkpt lat="44.22205" lon="6.96528">
        <ele>1045.6</ele>
        <time>2022-07-19T08:40:08Z</time>
      </trkpt>
      <trkpt lat="44.2221" lon="6.96524">
        <ele>1045.4</ele>
        <time>2022-07-19T08:40:09Z</time>
      </trkpt>
      <trkpt lat="44.22215" lon="6.9652">
        <ele>1045.4</ele>
        <time>2022-07-19T08:40:10Z</time>
      </trkpt>
      <trkpt lat="44.22221" lon="6.96516">
        <ele>1045.4</ele>
        <time>2022-07-19T08:40:11Z</time>
      </trkpt>
      <trkpt lat="44.22226" lon="6.96512">
        <ele>1045.4</ele>
        <time>2022-07-19T08:40:12Z</time>
      </trkpt>
      <trkpt lat="44.22232" lon="6.96508">
        <ele>1045.4</ele>
        <time>2022-07-19T08:40:13Z</time>
      </trkpt>
      <trkpt lat="44.22237" lon="6.96504">
        <ele>1045.2</ele>
        <time>2022-07-19T08:40:14Z</time>
      </trkpt>
      <trkpt lat="44.22242" lon="6.965">
        <ele>1045.2</ele>
        <time>2022-07-19T08:40:15Z</time>
      </trkpt>
      <trkpt lat="44.22247" lon="6.96497">
        <ele>1045.2</ele>
        <time>2022-07-19T08:40:16Z</time>
      </trkpt>
      <trkpt lat="44.22252" lon="6.96493">
        <ele>1045.2</ele>
        <time>2022-07-19T08:40:17Z</time>
      </trkpt>
      <trkpt lat="44.22257" lon="6.96489">
        <ele>1045</ele>
        <time>2022-07-19T08:40:18Z</time>
      </trkpt>
      <trkpt lat="44.22263" lon="6.96486">
        <ele>1045</ele>
        <time>2022-07-19T08:40:19Z</time>
      </trkpt>
      <trkpt lat="44.22268" lon="6.96482">
        <ele>1045</ele>
        <time>2022-07-19T08:40:20Z</time>
      </trkpt>
      <trkpt lat="44.22273" lon="6.96478">
        <ele>1045</ele>
        <time>2022-07-19T08:40:21Z</time>
      </trkpt>
      <trkpt lat="44.22278" lon="6.96474">
        <ele>1045</ele>
        <time>2022-07-19T08:40:22Z</time>
      </trkpt>
      <trkpt lat="44.22283" lon="6.9647">
        <ele>1045</ele>
        <time>2022-07-19T08:40:23Z</time>
      </trkpt>
      <trkpt lat="44.22288" lon="6.96466">
        <ele>1045.2</ele>
        <time>2022-07-19T08:40:24Z</time>
      </trkpt>
      <trkpt lat="44.22293" lon="6.96462">
        <ele>1045.2</ele>
        <time>2022-07-19T08:40:25Z</time>
      </trkpt>
      <trkpt lat="44.22298" lon="6.96459">
        <ele>1045.2</ele>
        <time>2022-07-19T08:40:26Z</time>
      </trkpt>
      <trkpt lat="44.22303" lon="6.96455">
        <ele>1045.2</ele>
        <time>2022-07-19T08:40:27Z</time>
      </trkpt>
      <trkpt lat="44.22307" lon="6.96451">
        <ele>1045.2</ele>
        <time>2022-07-19T08:40:28Z</time>
      </trkpt>
      <trkpt lat="44.22312" lon="6.96448">
        <ele>1045.2</ele>
        <time>2022-07-19T08:40:29Z</time>
      </trkpt>
      <trkpt lat="44.22317" lon="6.96444">
        <ele>1045.2</ele>
        <time>2022-07-19T08:40:30Z</time>
      </trkpt>
      <trkpt lat="44.22322" lon="6.96441">
        <ele>1045.2</ele>
        <time>2022-07-19T08:40:31Z</time>
      </trkpt>
      <trkpt lat="44.22326" lon="6.96437">
        <ele>1045.4</ele>
        <time>2022-07-19T08:40:32Z</time>
      </trkpt>
      <trkpt lat="44.22331" lon="6.96433">
        <ele>1045.4</ele>
        <time>2022-07-19T08:40:33Z</time>
      </trkpt>
      <trkpt lat="44.22335" lon="6.9643">
        <ele>1045.4</ele>
        <time>2022-07-19T08:40:34Z</time>
      </trkpt>
      <trkpt lat="44.2234" lon="6.96426">
        <ele>1045.4</ele>
        <time>2022-07-19T08:40:35Z</time>
      </trkpt>
      <trkpt lat="44.22344" lon="6.96423">
        <ele>1045.8</ele>
        <time>2022-07-19T08:40:36Z</time>
      </trkpt>
      <trkpt lat="44.22349" lon="6.96419">
        <ele>1045.8</ele>
        <time>2022-07-19T08:40:37Z</time>
      </trkpt>
      <trkpt lat="44.22354" lon="6.96416">
        <ele>1045.8</ele>
        <time>2022-07-19T08:40:38Z</time>
      </trkpt>
      <trkpt lat="44.22358" lon="6.96412">
        <ele>1045.8</ele>
        <time>2022-07-19T08:40:39Z</time>
      </trkpt>
      <trkpt lat="44.22363" lon="6.96409">
        <ele>1045.8</ele>
        <time>2022-07-19T08:40:40Z</time>
      </trkpt>
      <trkpt lat="44.22367" lon="6.96405">
        <ele>1046</ele>
        <time>2022-07-19T08:40:41Z</time>
      </trkpt>
      <trkpt lat="44.22372" lon="6.96402">
        <ele>1046</ele>
        <time>2022-07-19T08:40:42Z</time>
      </trkpt>
      <trkpt lat="44.22377" lon="6.96398">
        <ele>1046.2</ele>
        <time>2022-07-19T08:40:43Z</time>
      </trkpt>
      <trkpt lat="44.22382" lon="6.96395">
        <ele>1046.2</ele>
        <time>2022-07-19T08:40:44Z</time>
      </trkpt>
      <trkpt lat="44.22386" lon="6.96391">
        <ele>1046.2</ele>
        <time>2022-07-19T08:40:45Z</time>
      </trkpt>
      <trkpt lat="44.22391" lon="6.96388">
        <ele>1046.4</ele>
        <time>2022-07-19T08:40:46Z</time>
      </trkpt>
      <trkpt lat="44.22395" lon="6.96385">
        <ele>1046.4</ele>
        <time>2022-07-19T08:40:47Z</time>
      </trkpt>
      <trkpt lat="44.224" lon="6.96381">
        <ele>1046.4</ele>
        <time>2022-07-19T08:40:48Z</time>
      </trkpt>
      <trkpt lat="44.22404" lon="6.96378">
        <ele>1046.6</ele>
        <time>2022-07-19T08:40:49Z</time>
      </trkpt>
      <trkpt lat="44.22409" lon="6.96375">
        <ele>1046.6</ele>
        <time>2022-07-19T08:40:50Z</time>
      </trkpt>
      <trkpt lat="44.22413" lon="6.96372">
        <ele>1046.6</ele>
        <time>2022-07-19T08:40:51Z</time>
      </trkpt>
      <trkpt lat="44.22418" lon="6.96369">
        <ele>1046.8</ele>
        <time>2022-07-19T08:40:52Z</time>
      </trkpt>
      <trkpt lat="44.22423" lon="6.96366">
        <ele>1046.8</ele>
        <time>2022-07-19T08:40:53Z</time>
      </trkpt>
      <trkpt lat="44.22427" lon="6.96363">
        <ele>1046.8</ele>
        <time>2022-07-19T08:40:54Z</time>
      </trkpt>
      <trkpt lat="44.22432" lon="6.9636">
        <ele>1046.8</ele>
        <time>2022-07-19T08:40:55Z</time>
      </trkpt>
      <trkpt lat="44.22437" lon="6.96356">
        <ele>1046.8</ele>
        <time>2022-07-19T08:40:56Z</time>
      </trkpt>
      <trkpt lat="44.22441" lon="6.96353">
        <ele>1046.8</ele>
        <time>2022-07-19T08:40:57Z</time>
      </trkpt>
      <trkpt lat="44.22446" lon="6.9635">
        <ele>1046.8</ele>
        <time>2022-07-19T08:40:58Z</time>
      </trkpt>
      <trkpt lat="44.22451" lon="6.96347">
        <ele>1047</ele>
        <time>2022-07-19T08:40:59Z</time>
      </trkpt>
      <trkpt lat="44.22455" lon="6.96344">
        <ele>1047</ele>
        <time>2022-07-19T08:41:00Z</time>
      </trkpt>
      <trkpt lat="44.2246" lon="6.9634">
        <ele>1047</ele>
        <time>2022-07-19T08:41:01Z</time>
      </trkpt>
      <trkpt lat="44.22464" lon="6.96336">
        <ele>1047</ele>
        <time>2022-07-19T08:41:02Z</time>
      </trkpt>
      <trkpt lat="44.22469" lon="6.96332">
        <ele>1047</ele>
        <time>2022-07-19T08:41:03Z</time>
      </trkpt>
      <trkpt lat="44.22473" lon="6.96328">
        <ele>1047</ele>
        <time>2022-07-19T08:41:04Z</time>
      </trkpt>
      <trkpt lat="44.22477" lon="6.96323">
        <ele>1047</ele>
        <time>2022-07-19T08:41:05Z</time>
      </trkpt>
      <trkpt lat="44.22481" lon="6.96318">
        <ele>1047</ele>
        <time>2022-07-19T08:41:06Z</time>
      </trkpt>
      <trkpt lat="44.22484" lon="6.96313">
        <ele>1047</ele>
        <time>2022-07-19T08:41:07Z</time>
      </trkpt>
      <trkpt lat="44.22488" lon="6.96307">
        <ele>1047</ele>
        <time>2022-07-19T08:41:08Z</time>
      </trkpt>
      <trkpt lat="44.22492" lon="6.96302">
        <ele>1047</ele>
        <time>2022-07-19T08:41:09Z</time>
      </trkpt>
      <trkpt lat="44.22494" lon="6.96295">
        <ele>1047</ele>
        <time>2022-07-19T08:41:10Z</time>
      </trkpt>
      <trkpt lat="44.22497" lon="6.96288">
        <ele>1047.2</ele>
        <time>2022-07-19T08:41:11Z</time>
      </trkpt>
      <trkpt lat="44.22499" lon="6.9628">
        <ele>1047.2</ele>
        <time>2022-07-19T08:41:12Z</time>
      </trkpt>
      <trkpt lat="44.22502" lon="6.96273">
        <ele>1047.2</ele>
        <time>2022-07-19T08:41:13Z</time>
      </trkpt>
      <trkpt lat="44.22504" lon="6.96266">
        <ele>1047.2</ele>
        <time>2022-07-19T08:41:14Z</time>
      </trkpt>
      <trkpt lat="44.22506" lon="6.96259">
        <ele>1047.2</ele>
        <time>2022-07-19T08:41:15Z</time>
      </trkpt>
      <trkpt lat="44.22507" lon="6.96252">
        <ele>1047.2</ele>
        <time>2022-07-19T08:41:16Z</time>
      </trkpt>
      <trkpt lat="44.22509" lon="6.96245">
        <ele>1047.6</ele>
        <time>2022-07-19T08:41:17Z</time>
      </trkpt>
      <trkpt lat="44.2251" lon="6.96238">
        <ele>1047.6</ele>
        <time>2022-07-19T08:41:18Z</time>
      </trkpt>
      <trkpt lat="44.22511" lon="6.96231">
        <ele>1047.6</ele>
        <time>2022-07-19T08:41:19Z</time>
      </trkpt>
      <trkpt lat="44.22512" lon="6.96225">
        <ele>1047.6</ele>
        <time>2022-07-19T08:41:20Z</time>
      </trkpt>
      <trkpt lat="44.22514" lon="6.96218">
        <ele>1047.6</ele>
        <time>2022-07-19T08:41:21Z</time>
      </trkpt>
      <trkpt lat="44.22515" lon="6.96211">
        <ele>1047.8</ele>
        <time>2022-07-19T08:41:22Z</time>
      </trkpt>
      <trkpt lat="44.22516" lon="6.96204">
        <ele>1047.8</ele>
        <time>2022-07-19T08:41:23Z</time>
      </trkpt>
      <trkpt lat="44.22517" lon="6.96197">
        <ele>1047.8</ele>
        <time>2022-07-19T08:41:24Z</time>
      </trkpt>
      <trkpt lat="44.22518" lon="6.96191">
        <ele>1047.8</ele>
        <time>2022-07-19T08:41:25Z</time>
      </trkpt>
      <trkpt lat="44.2252" lon="6.96184">
        <ele>1048</ele>
        <time>2022-07-19T08:41:26Z</time>
      </trkpt>
      <trkpt lat="44.22521" lon="6.96178">
        <ele>1048</ele>
        <time>2022-07-19T08:41:27Z</time>
      </trkpt>
      <trkpt lat="44.22522" lon="6.96171">
        <ele>1048</ele>
        <time>2022-07-19T08:41:28Z</time>
      </trkpt>
      <trkpt lat="44.22523" lon="6.96165">
        <ele>1048.2</ele>
        <time>2022-07-19T08:41:29Z</time>
      </trkpt>
      <trkpt lat="44.22524" lon="6.96158">
        <ele>1048.2</ele>
        <time>2022-07-19T08:41:30Z</time>
      </trkpt>
      <trkpt lat="44.22526" lon="6.96152">
        <ele>1048.2</ele>
        <time>2022-07-19T08:41:31Z</time>
      </trkpt>
      <trkpt lat="44.22527" lon="6.96146">
        <ele>1048.6</ele>
        <time>2022-07-19T08:41:32Z</time>
      </trkpt>
      <trkpt lat="44.22528" lon="6.9614">
        <ele>1048.6</ele>
        <time>2022-07-19T08:41:33Z</time>
      </trkpt>
      <trkpt lat="44.22529" lon="6.96134">
        <ele>1048.6</ele>
        <time>2022-07-19T08:41:34Z</time>
      </trkpt>
      <trkpt lat="44.2253" lon="6.96128">
        <ele>1048.8</ele>
        <time>2022-07-19T08:41:35Z</time>
      </trkpt>
      <trkpt lat="44.2253" lon="6.96122">
        <ele>1048.8</ele>
        <time>2022-07-19T08:41:36Z</time>
      </trkpt>
      <trkpt lat="44.2253" lon="6.96115">
        <ele>1048.8</ele>
        <time>2022-07-19T08:41:37Z</time>
      </trkpt>
      <trkpt lat="44.2253" lon="6.96109">
        <ele>1048.8</ele>
        <time>2022-07-19T08:41:38Z</time>
      </trkpt>
      <trkpt lat="44.22531" lon="6.96103">
        <ele>1048.8</ele>
        <time>2022-07-19T08:41:39Z</time>
      </trkpt>
      <trkpt lat="44.22531" lon="6.96096">
        <ele>1048.8</ele>
        <time>2022-07-19T08:41:40Z</time>
      </trkpt>
      <trkpt lat="44.22531" lon="6.9609">
        <ele>1049</ele>
        <time>2022-07-19T08:41:41Z</time>
      </trkpt>
      <trkpt lat="44.22531" lon="6.96084">
        <ele>1049</ele>
        <time>2022-07-19T08:41:42Z</time>
      </trkpt>
      <trkpt lat="44.22531" lon="6.96077">
        <ele>1049.4</ele>
        <time>2022-07-19T08:41:43Z</time>
      </trkpt>
      <trkpt lat="44.22532" lon="6.96071">
        <ele>1049.4</ele>
        <time>2022-07-19T08:41:44Z</time>
      </trkpt>
      <trkpt lat="44.22533" lon="6.96065">
        <ele>1049.6</ele>
        <time>2022-07-19T08:41:45Z</time>
      </trkpt>
      <trkpt lat="44.22534" lon="6.96059">
        <ele>1049.6</ele>
        <time>2022-07-19T08:41:46Z</time>
      </trkpt>
      <trkpt lat="44.22535" lon="6.96053">
        <ele>1050</ele>
        <time>2022-07-19T08:41:47Z</time>
      </trkpt>
      <trkpt lat="44.22537" lon="6.96048">
        <ele>1050</ele>
        <time>2022-07-19T08:41:48Z</time>
      </trkpt>
      <trkpt lat="44.22538" lon="6.96042">
        <ele>1050</ele>
        <time>2022-07-19T08:41:49Z</time>
      </trkpt>
      <trkpt lat="44.2254" lon="6.96036">
        <ele>1050.2</ele>
        <time>2022-07-19T08:41:50Z</time>
      </trkpt>
      <trkpt lat="44.22541" lon="6.9603">
        <ele>1050.2</ele>
        <time>2022-07-19T08:41:51Z</time>
      </trkpt>
      <trkpt lat="44.22543" lon="6.96025">
        <ele>1050.4</ele>
        <time>2022-07-19T08:41:52Z</time>
      </trkpt>
      <trkpt lat="44.22546" lon="6.9602">
        <ele>1050.4</ele>
        <time>2022-07-19T08:41:53Z</time>
      </trkpt>
      <trkpt lat="44.22548" lon="6.96014">
        <ele>1050.4</ele>
        <time>2022-07-19T08:41:54Z</time>
      </trkpt>
      <trkpt lat="44.2255" lon="6.96009">
        <ele>1050.8</ele>
        <time>2022-07-19T08:41:55Z</time>
      </trkpt>
      <trkpt lat="44.22553" lon="6.96004">
        <ele>1050.8</ele>
        <time>2022-07-19T08:41:56Z</time>
      </trkpt>
      <trkpt lat="44.22556" lon="6.96">
        <ele>1051</ele>
        <time>2022-07-19T08:41:57Z</time>
      </trkpt>
      <trkpt lat="44.22559" lon="6.95995">
        <ele>1051</ele>
        <time>2022-07-19T08:41:58Z</time>
      </trkpt>
      <trkpt lat="44.22562" lon="6.95991">
        <ele>1051.2</ele>
        <time>2022-07-19T08:41:59Z</time>
      </trkpt>
      <trkpt lat="44.22565" lon="6.95987">
        <ele>1051.2</ele>
        <time>2022-07-19T08:42:00Z</time>
      </trkpt>
      <trkpt lat="44.22569" lon="6.95984">
        <ele>1051.6</ele>
        <time>2022-07-19T08:42:01Z</time>
      </trkpt>
      <trkpt lat="44.22573" lon="6.95981">
        <ele>1051.6</ele>
        <time>2022-07-19T08:42:02Z</time>
      </trkpt>
      <trkpt lat="44.22576" lon="6.95978">
        <ele>1051.8</ele>
        <time>2022-07-19T08:42:03Z</time>
      </trkpt>
      <trkpt lat="44.2258" lon="6.95975">
        <ele>1051.8</ele>
        <time>2022-07-19T08:42:04Z</time>
      </trkpt>
      <trkpt lat="44.22584" lon="6.95972">
        <ele>1052</ele>
        <time>2022-07-19T08:42:05Z</time>
      </trkpt>
      <trkpt lat="44.22588" lon="6.95969">
        <ele>1052</ele>
        <time>2022-07-19T08:42:06Z</time>
      </trkpt>
      <trkpt lat="44.22592" lon="6.95967">
        <ele>1052</ele>
        <time>2022-07-19T08:42:07Z</time>
      </trkpt>
      <trkpt lat="44.22596" lon="6.95965">
        <ele>1052.2</ele>
        <time>2022-07-19T08:42:08Z</time>
      </trkpt>
      <trkpt lat="44.226" lon="6.95963">
        <ele>1052.2</ele>
        <time>2022-07-19T08:42:09Z</time>
      </trkpt>
      <trkpt lat="44.22604" lon="6.95961">
        <ele>1052.4</ele>
        <time>2022-07-19T08:42:10Z</time>
      </trkpt>
      <trkpt lat="44.22608" lon="6.95959">
        <ele>1052.4</ele>
        <time>2022-07-19T08:42:11Z</time>
      </trkpt>
      <trkpt lat="44.22612" lon="6.95956">
        <ele>1052.4</ele>
        <time>2022-07-19T08:42:12Z</time>
      </trkpt>
      <trkpt lat="44.22616" lon="6.95954">
        <ele>1052.8</ele>
        <time>2022-07-19T08:42:13Z</time>
      </trkpt>
      <trkpt lat="44.2262" lon="6.95952">
        <ele>1052.8</ele>
        <time>2022-07-19T08:42:14Z</time>
      </trkpt>
      <trkpt lat="44.22624" lon="6.9595">
        <ele>1052.8</ele>
        <time>2022-07-19T08:42:15Z</time>
      </trkpt>
      <trkpt lat="44.22628" lon="6.95947">
        <ele>1053</ele>
        <time>2022-07-19T08:42:16Z</time>
      </trkpt>
      <trkpt lat="44.22632" lon="6.95945">
        <ele>1053</ele>
        <time>2022-07-19T08:42:17Z</time>
      </trkpt>
      <trkpt lat="44.22636" lon="6.95943">
        <ele>1053</ele>
        <time>2022-07-19T08:42:18Z</time>
      </trkpt>
      <trkpt lat="44.2264" lon="6.95941">
        <ele>1053</ele>
        <time>2022-07-19T08:42:19Z</time>
      </trkpt>
      <trkpt lat="44.22645" lon="6.95938">
        <ele>1053</ele>
        <time>2022-07-19T08:42:20Z</time>
      </trkpt>
      <trkpt lat="44.22649" lon="6.95936">
        <ele>1053</ele>
        <time>2022-07-19T08:42:21Z</time>
      </trkpt>
      <trkpt lat="44.22654" lon="6.95934">
        <ele>1053.2</ele>
        <time>2022-07-19T08:42:22Z</time>
      </trkpt>
      <trkpt lat="44.22658" lon="6.95931">
        <ele>1053.2</ele>
        <time>2022-07-19T08:42:23Z</time>
      </trkpt>
      <trkpt lat="44.22663" lon="6.95929">
        <ele>1053.2</ele>
        <time>2022-07-19T08:42:24Z</time>
      </trkpt>
      <trkpt lat="44.22667" lon="6.95926">
        <ele>1053.2</ele>
        <time>2022-07-19T08:42:25Z</time>
      </trkpt>
      <trkpt lat="44.22672" lon="6.95924">
        <ele>1053.2</ele>
        <time>2022-07-19T08:42:26Z</time>
      </trkpt>
      <trkpt lat="44.22677" lon="6.95921">
        <ele>1053.2</ele>
        <time>2022-07-19T08:42:27Z</time>
      </trkpt>
      <trkpt lat="44.22682" lon="6.95919">
        <ele>1053.2</ele>
        <time>2022-07-19T08:42:28Z</time>
      </trkpt>
      <trkpt lat="44.22687" lon="6.95916">
        <ele>1053.2</ele>
        <time>2022-07-19T08:42:29Z</time>
      </trkpt>
      <trkpt lat="44.22691" lon="6.95914">
        <ele>1053.6</ele>
        <time>2022-07-19T08:42:30Z</time>
      </trkpt>
      <trkpt lat="44.22696" lon="6.95911">
        <ele>1053.6</ele>
        <time>2022-07-19T08:42:31Z</time>
      </trkpt>
      <trkpt lat="44.22701" lon="6.95908">
        <ele>1053.6</ele>
        <time>2022-07-19T08:42:32Z</time>
      </trkpt>
      <trkpt lat="44.22705" lon="6.95904">
        <ele>1053.6</ele>
        <time>2022-07-19T08:42:33Z</time>
      </trkpt>
      <trkpt lat="44.2271" lon="6.95901">
        <ele>1053.6</ele>
        <time>2022-07-19T08:42:34Z</time>
      </trkpt>
      <trkpt lat="44.22714" lon="6.95898">
        <ele>1053.6</ele>
        <time>2022-07-19T08:42:35Z</time>
      </trkpt>
      <trkpt lat="44.22718" lon="6.95895">
        <ele>1053.6</ele>
        <time>2022-07-19T08:42:36Z</time>
      </trkpt>
      <trkpt lat="44.22722" lon="6.95891">
        <ele>1053.6</ele>
        <time>2022-07-19T08:42:37Z</time>
      </trkpt>
      <trkpt lat="44.22726" lon="6.95888">
        <ele>1053.6</ele>
        <time>2022-07-19T08:42:38Z</time>
      </trkpt>
      <trkpt lat="44.22731" lon="6.95884">
        <ele>1053.6</ele>
        <time>2022-07-19T08:42:39Z</time>
      </trkpt>
      <trkpt lat="44.22735" lon="6.95881">
        <ele>1053.6</ele>
        <time>2022-07-19T08:42:40Z</time>
      </trkpt>
      <trkpt lat="44.22739" lon="6.95878">
        <ele>1053.6</ele>
        <time>2022-07-19T08:42:41Z</time>
      </trkpt>
      <trkpt lat="44.22743" lon="6.95875">
        <ele>1053.6</ele>
        <time>2022-07-19T08:42:42Z</time>
      </trkpt>
      <trkpt lat="44.22748" lon="6.95871">
        <ele>1053.8</ele>
        <time>2022-07-19T08:42:43Z</time>
      </trkpt>
      <trkpt lat="44.22752" lon="6.95868">
        <ele>1053.8</ele>
        <time>2022-07-19T08:42:44Z</time>
      </trkpt>
      <trkpt lat="44.22756" lon="6.95864">
        <ele>1054</ele>
        <time>2022-07-19T08:42:45Z</time>
      </trkpt>
      <trkpt lat="44.2276" lon="6.95861">
        <ele>1054</ele>
        <time>2022-07-19T08:42:46Z</time>
      </trkpt>
      <trkpt lat="44.22764" lon="6.95857">
        <ele>1054</ele>
        <time>2022-07-19T08:42:47Z</time>
      </trkpt>
      <trkpt lat="44.22768" lon="6.95854">
        <ele>1054.2</ele>
        <time>2022-07-19T08:42:48Z</time>
      </trkpt>
      <trkpt lat="44.22776" lon="6.95847">
        <ele>1054.2</ele>
        <time>2022-07-19T08:42:49Z</time>
      </trkpt>
      <trkpt lat="44.2278" lon="6.95844">
        <ele>1054.2</ele>
        <time>2022-07-19T08:42:50Z</time>
      </trkpt>
      <trkpt lat="44.22784" lon="6.9584">
        <ele>1054.2</ele>
        <time>2022-07-19T08:42:51Z</time>
      </trkpt>
      <trkpt lat="44.22789" lon="6.95837">
        <ele>1054.6</ele>
        <time>2022-07-19T08:42:52Z</time>
      </trkpt>
      <trkpt lat="44.22793" lon="6.95834">
        <ele>1054.6</ele>
        <time>2022-07-19T08:42:54Z</time>
      </trkpt>
      <trkpt lat="44.22797" lon="6.95832">
        <ele>1054.6</ele>
        <time>2022-07-19T08:42:55Z</time>
      </trkpt>
      <trkpt lat="44.22802" lon="6.95829">
        <ele>1054.6</ele>
        <time>2022-07-19T08:42:56Z</time>
      </trkpt>
      <trkpt lat="44.22806" lon="6.95827">
        <ele>1054.8</ele>
        <time>2022-07-19T08:42:57Z</time>
      </trkpt>
      <trkpt lat="44.22811" lon="6.95825">
        <ele>1054.8</ele>
        <time>2022-07-19T08:42:58Z</time>
      </trkpt>
      <trkpt lat="44.22816" lon="6.95823">
        <ele>1054.8</ele>
        <time>2022-07-19T08:42:59Z</time>
      </trkpt>
      <trkpt lat="44.22822" lon="6.95821">
        <ele>1054.8</ele>
        <time>2022-07-19T08:43:00Z</time>
      </trkpt>
      <trkpt lat="44.22827" lon="6.95819">
        <ele>1054.8</ele>
        <time>2022-07-19T08:43:01Z</time>
      </trkpt>
      <trkpt lat="44.22832" lon="6.95817">
        <ele>1054.8</ele>
        <time>2022-07-19T08:43:02Z</time>
      </trkpt>
      <trkpt lat="44.22837" lon="6.95816">
        <ele>1054.8</ele>
        <time>2022-07-19T08:43:03Z</time>
      </trkpt>
      <trkpt lat="44.22842" lon="6.95814">
        <ele>1054.8</ele>
        <time>2022-07-19T08:43:04Z</time>
      </trkpt>
      <trkpt lat="44.22847" lon="6.95812">
        <ele>1055</ele>
        <time>2022-07-19T08:43:05Z</time>
      </trkpt>
      <trkpt lat="44.22853" lon="6.9581">
        <ele>1055</ele>
        <time>2022-07-19T08:43:06Z</time>
      </trkpt>
      <trkpt lat="44.22858" lon="6.95808">
        <ele>1055</ele>
        <time>2022-07-19T08:43:07Z</time>
      </trkpt>
      <trkpt lat="44.22863" lon="6.95807">
        <ele>1055</ele>
        <time>2022-07-19T08:43:08Z</time>
      </trkpt>
      <trkpt lat="44.22868" lon="6.95805">
        <ele>1055</ele>
        <time>2022-07-19T08:43:09Z</time>
      </trkpt>
      <trkpt lat="44.22872" lon="6.95804">
        <ele>1055</ele>
        <time>2022-07-19T08:43:10Z</time>
      </trkpt>
      <trkpt lat="44.22877" lon="6.95802">
        <ele>1055</ele>
        <time>2022-07-19T08:43:11Z</time>
      </trkpt>
      <trkpt lat="44.22881" lon="6.958">
        <ele>1055</ele>
        <time>2022-07-19T08:43:12Z</time>
      </trkpt>
      <trkpt lat="44.22886" lon="6.95798">
        <ele>1055.4</ele>
        <time>2022-07-19T08:43:13Z</time>
      </trkpt>
      <trkpt lat="44.2289" lon="6.95796">
        <ele>1055.4</ele>
        <time>2022-07-19T08:43:14Z</time>
      </trkpt>
      <trkpt lat="44.22894" lon="6.95794">
        <ele>1055.4</ele>
        <time>2022-07-19T08:43:15Z</time>
      </trkpt>
      <trkpt lat="44.22899" lon="6.95792">
        <ele>1055.4</ele>
        <time>2022-07-19T08:43:16Z</time>
      </trkpt>
      <trkpt lat="44.22902" lon="6.9579">
        <ele>1055.6</ele>
        <time>2022-07-19T08:43:17Z</time>
      </trkpt>
      <trkpt lat="44.22906" lon="6.95788">
        <ele>1055.6</ele>
        <time>2022-07-19T08:43:18Z</time>
      </trkpt>
      <trkpt lat="44.2291" lon="6.95785">
        <ele>1055.6</ele>
        <time>2022-07-19T08:43:19Z</time>
      </trkpt>
      <trkpt lat="44.22914" lon="6.95782">
        <ele>1055.6</ele>
        <time>2022-07-19T08:43:20Z</time>
      </trkpt>
      <trkpt lat="44.22918" lon="6.95778">
        <ele>1055.8</ele>
        <time>2022-07-19T08:43:21Z</time>
      </trkpt>
      <trkpt lat="44.22922" lon="6.95774">
        <ele>1055.8</ele>
        <time>2022-07-19T08:43:22Z</time>
      </trkpt>
      <trkpt lat="44.22925" lon="6.95771">
        <ele>1055.8</ele>
        <time>2022-07-19T08:43:23Z</time>
      </trkpt>
      <trkpt lat="44.22929" lon="6.95767">
        <ele>1055.8</ele>
        <time>2022-07-19T08:43:24Z</time>
      </trkpt>
      <trkpt lat="44.22933" lon="6.95763">
        <ele>1056</ele>
        <time>2022-07-19T08:43:25Z</time>
      </trkpt>
      <trkpt lat="44.22936" lon="6.95759">
        <ele>1056</ele>
        <time>2022-07-19T08:43:26Z</time>
      </trkpt>
      <trkpt lat="44.2294" lon="6.95755">
        <ele>1056.2</ele>
        <time>2022-07-19T08:43:27Z</time>
      </trkpt>
      <trkpt lat="44.22943" lon="6.95751">
        <ele>1056.2</ele>
        <time>2022-07-19T08:43:28Z</time>
      </trkpt>
      <trkpt lat="44.22947" lon="6.95746">
        <ele>1056.2</ele>
        <time>2022-07-19T08:43:29Z</time>
      </trkpt>
      <trkpt lat="44.2295" lon="6.95742">
        <ele>1056.2</ele>
        <time>2022-07-19T08:43:30Z</time>
      </trkpt>
      <trkpt lat="44.22954" lon="6.95738">
        <ele>1056.6</ele>
        <time>2022-07-19T08:43:31Z</time>
      </trkpt>
      <trkpt lat="44.22957" lon="6.95733">
        <ele>1056.6</ele>
        <time>2022-07-19T08:43:32Z</time>
      </trkpt>
      <trkpt lat="44.22961" lon="6.95729">
        <ele>1056.6</ele>
        <time>2022-07-19T08:43:33Z</time>
      </trkpt>
      <trkpt lat="44.22965" lon="6.95725">
        <ele>1056.8</ele>
        <time>2022-07-19T08:43:34Z</time>
      </trkpt>
      <trkpt lat="44.22968" lon="6.9572">
        <ele>1056.8</ele>
        <time>2022-07-19T08:43:35Z</time>
      </trkpt>
      <trkpt lat="44.22971" lon="6.95715">
        <ele>1056.8</ele>
        <time>2022-07-19T08:43:36Z</time>
      </trkpt>
      <trkpt lat="44.22975" lon="6.95711">
        <ele>1056.8</ele>
        <time>2022-07-19T08:43:37Z</time>
      </trkpt>
      <trkpt lat="44.22978" lon="6.95706">
        <ele>1056.8</ele>
        <time>2022-07-19T08:43:38Z</time>
      </trkpt>
      <trkpt lat="44.22981" lon="6.95701">
        <ele>1057</ele>
        <time>2022-07-19T08:43:39Z</time>
      </trkpt>
      <trkpt lat="44.22984" lon="6.95696">
        <ele>1057</ele>
        <time>2022-07-19T08:43:40Z</time>
      </trkpt>
      <trkpt lat="44.22987" lon="6.95691">
        <ele>1057.2</ele>
        <time>2022-07-19T08:43:41Z</time>
      </trkpt>
      <trkpt lat="44.2299" lon="6.95686">
        <ele>1057.2</ele>
        <time>2022-07-19T08:43:42Z</time>
      </trkpt>
      <trkpt lat="44.22992" lon="6.95681">
        <ele>1057.2</ele>
        <time>2022-07-19T08:43:43Z</time>
      </trkpt>
      <trkpt lat="44.22995" lon="6.95677">
        <ele>1057.6</ele>
        <time>2022-07-19T08:43:44Z</time>
      </trkpt>
      <trkpt lat="44.22998" lon="6.95672">
        <ele>1057.6</ele>
        <time>2022-07-19T08:43:45Z</time>
      </trkpt>
      <trkpt lat="44.23001" lon="6.95667">
        <ele>1057.8</ele>
        <time>2022-07-19T08:43:46Z</time>
      </trkpt>
      <trkpt lat="44.23007" lon="6.95657">
        <ele>1057.8</ele>
        <time>2022-07-19T08:43:47Z</time>
      </trkpt>
      <trkpt lat="44.2301" lon="6.95652">
        <ele>1057.8</ele>
        <time>2022-07-19T08:43:48Z</time>
      </trkpt>
      <trkpt lat="44.23012" lon="6.95646">
        <ele>1057.8</ele>
        <time>2022-07-19T08:43:49Z</time>
      </trkpt>
      <trkpt lat="44.23015" lon="6.95641">
        <ele>1057.8</ele>
        <time>2022-07-19T08:43:50Z</time>
      </trkpt>
      <trkpt lat="44.23018" lon="6.95636">
        <ele>1057.8</ele>
        <time>2022-07-19T08:43:51Z</time>
      </trkpt>
      <trkpt lat="44.2302" lon="6.9563">
        <ele>1057.8</ele>
        <time>2022-07-19T08:43:52Z</time>
      </trkpt>
      <trkpt lat="44.23023" lon="6.95625">
        <ele>1057.8</ele>
        <time>2022-07-19T08:43:53Z</time>
      </trkpt>
      <trkpt lat="44.23025" lon="6.95619">
        <ele>1057.8</ele>
        <time>2022-07-19T08:43:54Z</time>
      </trkpt>
      <trkpt lat="44.23027" lon="6.95614">
        <ele>1058</ele>
        <time>2022-07-19T08:43:55Z</time>
      </trkpt>
      <trkpt lat="44.23029" lon="6.95609">
        <ele>1058</ele>
        <time>2022-07-19T08:43:56Z</time>
      </trkpt>
      <trkpt lat="44.23031" lon="6.95604">
        <ele>1058</ele>
        <time>2022-07-19T08:43:57Z</time>
      </trkpt>
      <trkpt lat="44.23034" lon="6.95599">
        <ele>1058</ele>
        <time>2022-07-19T08:43:58Z</time>
      </trkpt>
      <trkpt lat="44.23036" lon="6.95593">
        <ele>1058</ele>
        <time>2022-07-19T08:43:59Z</time>
      </trkpt>
      <trkpt lat="44.23039" lon="6.95588">
        <ele>1058</ele>
        <time>2022-07-19T08:44:00Z</time>
      </trkpt>
      <trkpt lat="44.23042" lon="6.95582">
        <ele>1058</ele>
        <time>2022-07-19T08:44:01Z</time>
      </trkpt>
      <trkpt lat="44.23046" lon="6.95577">
        <ele>1058</ele>
        <time>2022-07-19T08:44:02Z</time>
      </trkpt>
      <trkpt lat="44.23049" lon="6.95572">
        <ele>1058</ele>
        <time>2022-07-19T08:44:03Z</time>
      </trkpt>
      <trkpt lat="44.23053" lon="6.95567">
        <ele>1058</ele>
        <time>2022-07-19T08:44:04Z</time>
      </trkpt>
      <trkpt lat="44.23056" lon="6.95563">
        <ele>1058</ele>
        <time>2022-07-19T08:44:05Z</time>
      </trkpt>
      <trkpt lat="44.2306" lon="6.95558">
        <ele>1058</ele>
        <time>2022-07-19T08:44:06Z</time>
      </trkpt>
      <trkpt lat="44.23063" lon="6.95553">
        <ele>1058</ele>
        <time>2022-07-19T08:44:07Z</time>
      </trkpt>
      <trkpt lat="44.23067" lon="6.95548">
        <ele>1058</ele>
        <time>2022-07-19T08:44:08Z</time>
      </trkpt>
      <trkpt lat="44.2307" lon="6.95543">
        <ele>1058</ele>
        <time>2022-07-19T08:44:09Z</time>
      </trkpt>
      <trkpt lat="44.23074" lon="6.95539">
        <ele>1058</ele>
        <time>2022-07-19T08:44:10Z</time>
      </trkpt>
      <trkpt lat="44.23077" lon="6.95535">
        <ele>1058.2</ele>
        <time>2022-07-19T08:44:12Z</time>
      </trkpt>
      <trkpt lat="44.2308" lon="6.9553">
        <ele>1058.4</ele>
        <time>2022-07-19T08:44:13Z</time>
      </trkpt>
      <trkpt lat="44.23083" lon="6.95525">
        <ele>1058.4</ele>
        <time>2022-07-19T08:44:14Z</time>
      </trkpt>
      <trkpt lat="44.23087" lon="6.95521">
        <ele>1058.4</ele>
        <time>2022-07-19T08:44:15Z</time>
      </trkpt>
      <trkpt lat="44.2309" lon="6.95516">
        <ele>1058.8</ele>
        <time>2022-07-19T08:44:16Z</time>
      </trkpt>
      <trkpt lat="44.23093" lon="6.95511">
        <ele>1058.8</ele>
        <time>2022-07-19T08:44:17Z</time>
      </trkpt>
      <trkpt lat="44.23096" lon="6.95507">
        <ele>1058.8</ele>
        <time>2022-07-19T08:44:18Z</time>
      </trkpt>
      <trkpt lat="44.23099" lon="6.95502">
        <ele>1059</ele>
        <time>2022-07-19T08:44:19Z</time>
      </trkpt>
      <trkpt lat="44.23102" lon="6.95498">
        <ele>1059</ele>
        <time>2022-07-19T08:44:20Z</time>
      </trkpt>
      <trkpt lat="44.23105" lon="6.95493">
        <ele>1059.2</ele>
        <time>2022-07-19T08:44:21Z</time>
      </trkpt>
      <trkpt lat="44.23108" lon="6.95488">
        <ele>1059.2</ele>
        <time>2022-07-19T08:44:22Z</time>
      </trkpt>
      <trkpt lat="44.23111" lon="6.95484">
        <ele>1059.2</ele>
        <time>2022-07-19T08:44:23Z</time>
      </trkpt>
      <trkpt lat="44.23114" lon="6.95479">
        <ele>1059.4</ele>
        <time>2022-07-19T08:44:24Z</time>
      </trkpt>
      <trkpt lat="44.23117" lon="6.95474">
        <ele>1059.4</ele>
        <time>2022-07-19T08:44:25Z</time>
      </trkpt>
      <trkpt lat="44.2312" lon="6.95469">
        <ele>1059.4</ele>
        <time>2022-07-19T08:44:26Z</time>
      </trkpt>
      <trkpt lat="44.23123" lon="6.95464">
        <ele>1059.8</ele>
        <time>2022-07-19T08:44:27Z</time>
      </trkpt>
      <trkpt lat="44.23126" lon="6.95459">
        <ele>1059.8</ele>
        <time>2022-07-19T08:44:28Z</time>
      </trkpt>
      <trkpt lat="44.2313" lon="6.95454">
        <ele>1059.8</ele>
        <time>2022-07-19T08:44:29Z</time>
      </trkpt>
      <trkpt lat="44.23133" lon="6.9545">
        <ele>1060</ele>
        <time>2022-07-19T08:44:30Z</time>
      </trkpt>
      <trkpt lat="44.23136" lon="6.95445">
        <ele>1060</ele>
        <time>2022-07-19T08:44:31Z</time>
      </trkpt>
      <trkpt lat="44.23139" lon="6.9544">
        <ele>1060</ele>
        <time>2022-07-19T08:44:32Z</time>
      </trkpt>
      <trkpt lat="44.23142" lon="6.95435">
        <ele>1060.2</ele>
        <time>2022-07-19T08:44:33Z</time>
      </trkpt>
      <trkpt lat="44.23145" lon="6.95431">
        <ele>1060.2</ele>
        <time>2022-07-19T08:44:34Z</time>
      </trkpt>
      <trkpt lat="44.23148" lon="6.95426">
        <ele>1060.4</ele>
        <time>2022-07-19T08:44:35Z</time>
      </trkpt>
      <trkpt lat="44.23151" lon="6.95422">
        <ele>1060.4</ele>
        <time>2022-07-19T08:44:36Z</time>
      </trkpt>
      <trkpt lat="44.23153" lon="6.95418">
        <ele>1060.6</ele>
        <time>2022-07-19T08:44:37Z</time>
      </trkpt>
      <trkpt lat="44.23156" lon="6.95414">
        <ele>1060.6</ele>
        <time>2022-07-19T08:44:38Z</time>
      </trkpt>
      <trkpt lat="44.23159" lon="6.95411">
        <ele>1061</ele>
        <time>2022-07-19T08:44:39Z</time>
      </trkpt>
      <trkpt lat="44.23161" lon="6.95407">
        <ele>1061</ele>
        <time>2022-07-19T08:44:40Z</time>
      </trkpt>
      <trkpt lat="44.23163" lon="6.95402">
        <ele>1061.2</ele>
        <time>2022-07-19T08:44:41Z</time>
      </trkpt>
      <trkpt lat="44.23165" lon="6.95398">
        <ele>1061.2</ele>
        <time>2022-07-19T08:44:42Z</time>
      </trkpt>
      <trkpt lat="44.23167" lon="6.95394">
        <ele>1061.4</ele>
        <time>2022-07-19T08:44:43Z</time>
      </trkpt>
      <trkpt lat="44.2317" lon="6.9539">
        <ele>1061.4</ele>
        <time>2022-07-19T08:44:44Z</time>
      </trkpt>
      <trkpt lat="44.23172" lon="6.95385">
        <ele>1061.6</ele>
        <time>2022-07-19T08:44:45Z</time>
      </trkpt>
      <trkpt lat="44.23174" lon="6.95381">
        <ele>1061.6</ele>
        <time>2022-07-19T08:44:46Z</time>
      </trkpt>
      <trkpt lat="44.23177" lon="6.95376">
        <ele>1062</ele>
        <time>2022-07-19T08:44:47Z</time>
      </trkpt>
      <trkpt lat="44.23179" lon="6.95372">
        <ele>1062</ele>
        <time>2022-07-19T08:44:48Z</time>
      </trkpt>
      <trkpt lat="44.23181" lon="6.95367">
        <ele>1062</ele>
        <time>2022-07-19T08:44:49Z</time>
      </trkpt>
      <trkpt lat="44.23184" lon="6.95362">
        <ele>1062.2</ele>
        <time>2022-07-19T08:44:50Z</time>
      </trkpt>
      <trkpt lat="44.23188" lon="6.95355">
        <ele>1062.2</ele>
        <time>2022-07-19T08:44:51Z</time>
      </trkpt>
      <trkpt lat="44.23189" lon="6.95353">
        <ele>1062.2</ele>
        <time>2022-07-19T08:44:52Z</time>
      </trkpt>
      <trkpt lat="44.23192" lon="6.95348">
        <ele>1062.4</ele>
        <time>2022-07-19T08:44:53Z</time>
      </trkpt>
      <trkpt lat="44.23194" lon="6.95342">
        <ele>1062.4</ele>
        <time>2022-07-19T08:44:54Z</time>
      </trkpt>
      <trkpt lat="44.23196" lon="6.95336">
        <ele>1062.4</ele>
        <time>2022-07-19T08:44:55Z</time>
      </trkpt>
      <trkpt lat="44.23199" lon="6.9533">
        <ele>1062.4</ele>
        <time>2022-07-19T08:44:56Z</time>
      </trkpt>
      <trkpt lat="44.23201" lon="6.95325">
        <ele>1062.6</ele>
        <time>2022-07-19T08:44:57Z</time>
      </trkpt>
      <trkpt lat="44.23203" lon="6.95319">
        <ele>1062.6</ele>
        <time>2022-07-19T08:44:58Z</time>
      </trkpt>
      <trkpt lat="44.23205" lon="6.95313">
        <ele>1062.6</ele>
        <time>2022-07-19T08:44:59Z</time>
      </trkpt>
      <trkpt lat="44.23207" lon="6.95307">
        <ele>1062.8</ele>
        <time>2022-07-19T08:45:00Z</time>
      </trkpt>
      <trkpt lat="44.23209" lon="6.95302">
        <ele>1062.8</ele>
        <time>2022-07-19T08:45:01Z</time>
      </trkpt>
      <trkpt lat="44.23211" lon="6.95296">
        <ele>1063</ele>
        <time>2022-07-19T08:45:02Z</time>
      </trkpt>
      <trkpt lat="44.23213" lon="6.9529">
        <ele>1063</ele>
        <time>2022-07-19T08:45:03Z</time>
      </trkpt>
      <trkpt lat="44.23215" lon="6.95284">
        <ele>1063</ele>
        <time>2022-07-19T08:45:04Z</time>
      </trkpt>
      <trkpt lat="44.23218" lon="6.95278">
        <ele>1063.2</ele>
        <time>2022-07-19T08:45:05Z</time>
      </trkpt>
      <trkpt lat="44.2322" lon="6.95272">
        <ele>1063.2</ele>
        <time>2022-07-19T08:45:06Z</time>
      </trkpt>
      <trkpt lat="44.23222" lon="6.95266">
        <ele>1063.6</ele>
        <time>2022-07-19T08:45:07Z</time>
      </trkpt>
      <trkpt lat="44.23224" lon="6.95261">
        <ele>1063.6</ele>
        <time>2022-07-19T08:45:08Z</time>
      </trkpt>
      <trkpt lat="44.23226" lon="6.95255">
        <ele>1063.6</ele>
        <time>2022-07-19T08:45:09Z</time>
      </trkpt>
      <trkpt lat="44.23228" lon="6.95249">
        <ele>1063.8</ele>
        <time>2022-07-19T08:45:10Z</time>
      </trkpt>
      <trkpt lat="44.2323" lon="6.95244">
        <ele>1063.8</ele>
        <time>2022-07-19T08:45:11Z</time>
      </trkpt>
      <trkpt lat="44.23232" lon="6.95239">
        <ele>1063.8</ele>
        <time>2022-07-19T08:45:12Z</time>
      </trkpt>
      <trkpt lat="44.23234" lon="6.95234">
        <ele>1064</ele>
        <time>2022-07-19T08:45:13Z</time>
      </trkpt>
      <trkpt lat="44.23236" lon="6.95228">
        <ele>1064</ele>
        <time>2022-07-19T08:45:14Z</time>
      </trkpt>
      <trkpt lat="44.23238" lon="6.95223">
        <ele>1064</ele>
        <time>2022-07-19T08:45:15Z</time>
      </trkpt>
      <trkpt lat="44.2324" lon="6.95218">
        <ele>1064.2</ele>
        <time>2022-07-19T08:45:16Z</time>
      </trkpt>
      <trkpt lat="44.23242" lon="6.95212">
        <ele>1064.2</ele>
        <time>2022-07-19T08:45:17Z</time>
      </trkpt>
      <trkpt lat="44.23244" lon="6.95207">
        <ele>1064.2</ele>
        <time>2022-07-19T08:45:18Z</time>
      </trkpt>
      <trkpt lat="44.23246" lon="6.95202">
        <ele>1064.4</ele>
        <time>2022-07-19T08:45:19Z</time>
      </trkpt>
      <trkpt lat="44.23248" lon="6.95196">
        <ele>1064.4</ele>
        <time>2022-07-19T08:45:20Z</time>
      </trkpt>
      <trkpt lat="44.2325" lon="6.95191">
        <ele>1064.4</ele>
        <time>2022-07-19T08:45:21Z</time>
      </trkpt>
      <trkpt lat="44.23252" lon="6.95186">
        <ele>1064.4</ele>
        <time>2022-07-19T08:45:22Z</time>
      </trkpt>
      <trkpt lat="44.23254" lon="6.95181">
        <ele>1064.6</ele>
        <time>2022-07-19T08:45:23Z</time>
      </trkpt>
      <trkpt lat="44.23256" lon="6.95176">
        <ele>1064.6</ele>
        <time>2022-07-19T08:45:24Z</time>
      </trkpt>
      <trkpt lat="44.23258" lon="6.95172">
        <ele>1064.6</ele>
        <time>2022-07-19T08:45:25Z</time>
      </trkpt>
      <trkpt lat="44.2326" lon="6.95167">
        <ele>1065</ele>
        <time>2022-07-19T08:45:26Z</time>
      </trkpt>
      <trkpt lat="44.23262" lon="6.95163">
        <ele>1065</ele>
        <time>2022-07-19T08:45:27Z</time>
      </trkpt>
      <trkpt lat="44.23264" lon="6.95159">
        <ele>1065</ele>
        <time>2022-07-19T08:45:28Z</time>
      </trkpt>
      <trkpt lat="44.23266" lon="6.95155">
        <ele>1065.4</ele>
        <time>2022-07-19T08:45:29Z</time>
      </trkpt>
      <trkpt lat="44.23268" lon="6.95152">
        <ele>1065.4</ele>
        <time>2022-07-19T08:45:30Z</time>
      </trkpt>
      <trkpt lat="44.23272" lon="6.95149">
        <ele>1065.6</ele>
        <time>2022-07-19T08:45:31Z</time>
      </trkpt>
      <trkpt lat="44.23276" lon="6.95146">
        <ele>1065.6</ele>
        <time>2022-07-19T08:45:32Z</time>
      </trkpt>
      <trkpt lat="44.23279" lon="6.95143">
        <ele>1065.8</ele>
        <time>2022-07-19T08:45:33Z</time>
      </trkpt>
      <trkpt lat="44.23283" lon="6.9514">
        <ele>1065.8</ele>
        <time>2022-07-19T08:45:34Z</time>
      </trkpt>
      <trkpt lat="44.23286" lon="6.95135">
        <ele>1065.8</ele>
        <time>2022-07-19T08:45:35Z</time>
      </trkpt>
      <trkpt lat="44.23288" lon="6.95131">
        <ele>1065.8</ele>
        <time>2022-07-19T08:45:36Z</time>
      </trkpt>
      <trkpt lat="44.2329" lon="6.95126">
        <ele>1065.8</ele>
        <time>2022-07-19T08:45:37Z</time>
      </trkpt>
      <trkpt lat="44.23293" lon="6.95121">
        <ele>1065.8</ele>
        <time>2022-07-19T08:45:38Z</time>
      </trkpt>
      <trkpt lat="44.23295" lon="6.95116">
        <ele>1065.8</ele>
        <time>2022-07-19T08:45:39Z</time>
      </trkpt>
      <trkpt lat="44.23297" lon="6.95111">
        <ele>1066</ele>
        <time>2022-07-19T08:45:40Z</time>
      </trkpt>
      <trkpt lat="44.23299" lon="6.95106">
        <ele>1066</ele>
        <time>2022-07-19T08:45:41Z</time>
      </trkpt>
      <trkpt lat="44.23301" lon="6.95101">
        <ele>1066.4</ele>
        <time>2022-07-19T08:45:42Z</time>
      </trkpt>
      <trkpt lat="44.23304" lon="6.95096">
        <ele>1066.4</ele>
        <time>2022-07-19T08:45:43Z</time>
      </trkpt>
      <trkpt lat="44.23306" lon="6.9509">
        <ele>1066.4</ele>
        <time>2022-07-19T08:45:44Z</time>
      </trkpt>
      <trkpt lat="44.23308" lon="6.95085">
        <ele>1066.6</ele>
        <time>2022-07-19T08:45:45Z</time>
      </trkpt>
      <trkpt lat="44.23311" lon="6.9508">
        <ele>1066.6</ele>
        <time>2022-07-19T08:45:46Z</time>
      </trkpt>
      <trkpt lat="44.23313" lon="6.95075">
        <ele>1066.6</ele>
        <time>2022-07-19T08:45:47Z</time>
      </trkpt>
      <trkpt lat="44.23315" lon="6.9507">
        <ele>1066.8</ele>
        <time>2022-07-19T08:45:48Z</time>
      </trkpt>
      <trkpt lat="44.23317" lon="6.95065">
        <ele>1066.8</ele>
        <time>2022-07-19T08:45:49Z</time>
      </trkpt>
      <trkpt lat="44.2332" lon="6.95059">
        <ele>1066.8</ele>
        <time>2022-07-19T08:45:50Z</time>
      </trkpt>
      <trkpt lat="44.23322" lon="6.95054">
        <ele>1067.2</ele>
        <time>2022-07-19T08:45:51Z</time>
      </trkpt>
      <trkpt lat="44.23324" lon="6.95049">
        <ele>1067.2</ele>
        <time>2022-07-19T08:45:52Z</time>
      </trkpt>
      <trkpt lat="44.23326" lon="6.95044">
        <ele>1067.2</ele>
        <time>2022-07-19T08:45:53Z</time>
      </trkpt>
      <trkpt lat="44.23329" lon="6.95038">
        <ele>1067.4</ele>
        <time>2022-07-19T08:45:54Z</time>
      </trkpt>
      <trkpt lat="44.23331" lon="6.95033">
        <ele>1067.4</ele>
        <time>2022-07-19T08:45:55Z</time>
      </trkpt>
      <trkpt lat="44.23333" lon="6.95028">
        <ele>1067.4</ele>
        <time>2022-07-19T08:45:56Z</time>
      </trkpt>
      <trkpt lat="44.23335" lon="6.95022">
        <ele>1067.6</ele>
        <time>2022-07-19T08:45:57Z</time>
      </trkpt>
      <trkpt lat="44.23338" lon="6.95017">
        <ele>1067.6</ele>
        <time>2022-07-19T08:45:58Z</time>
      </trkpt>
      <trkpt lat="44.2334" lon="6.95012">
        <ele>1067.6</ele>
        <time>2022-07-19T08:45:59Z</time>
      </trkpt>
      <trkpt lat="44.23342" lon="6.95006">
        <ele>1068</ele>
        <time>2022-07-19T08:46:00Z</time>
      </trkpt>
      <trkpt lat="44.23345" lon="6.95001">
        <ele>1068</ele>
        <time>2022-07-19T08:46:01Z</time>
      </trkpt>
      <trkpt lat="44.23347" lon="6.94996">
        <ele>1068</ele>
        <time>2022-07-19T08:46:02Z</time>
      </trkpt>
      <trkpt lat="44.23349" lon="6.9499">
        <ele>1068.2</ele>
        <time>2022-07-19T08:46:03Z</time>
      </trkpt>
      <trkpt lat="44.23352" lon="6.94985">
        <ele>1068.2</ele>
        <time>2022-07-19T08:46:04Z</time>
      </trkpt>
      <trkpt lat="44.23354" lon="6.9498">
        <ele>1068.4</ele>
        <time>2022-07-19T08:46:05Z</time>
      </trkpt>
      <trkpt lat="44.23356" lon="6.94975">
        <ele>1068.4</ele>
        <time>2022-07-19T08:46:06Z</time>
      </trkpt>
      <trkpt lat="44.23358" lon="6.94969">
        <ele>1068.6</ele>
        <time>2022-07-19T08:46:07Z</time>
      </trkpt>
      <trkpt lat="44.23361" lon="6.94964">
        <ele>1068.6</ele>
        <time>2022-07-19T08:46:08Z</time>
      </trkpt>
      <trkpt lat="44.23363" lon="6.94959">
        <ele>1068.6</ele>
        <time>2022-07-19T08:46:09Z</time>
      </trkpt>
      <trkpt lat="44.23365" lon="6.94954">
        <ele>1069</ele>
        <time>2022-07-19T08:46:10Z</time>
      </trkpt>
      <trkpt lat="44.23368" lon="6.94949">
        <ele>1069</ele>
        <time>2022-07-19T08:46:11Z</time>
      </trkpt>
      <trkpt lat="44.2337" lon="6.94944">
        <ele>1069.2</ele>
        <time>2022-07-19T08:46:12Z</time>
      </trkpt>
      <trkpt lat="44.23373" lon="6.94939">
        <ele>1069.2</ele>
        <time>2022-07-19T08:46:13Z</time>
      </trkpt>
      <trkpt lat="44.23378" lon="6.94934">
        <ele>1069.2</ele>
        <time>2022-07-19T08:46:14Z</time>
      </trkpt>
      <trkpt lat="44.23379" lon="6.94932">
        <ele>1069.4</ele>
        <time>2022-07-19T08:46:15Z</time>
      </trkpt>
      <trkpt lat="44.23383" lon="6.94927">
        <ele>1069.4</ele>
        <time>2022-07-19T08:46:16Z</time>
      </trkpt>
      <trkpt lat="44.23386" lon="6.94923">
        <ele>1069.4</ele>
        <time>2022-07-19T08:46:17Z</time>
      </trkpt>
      <trkpt lat="44.23389" lon="6.94919">
        <ele>1069.8</ele>
        <time>2022-07-19T08:46:18Z</time>
      </trkpt>
      <trkpt lat="44.23392" lon="6.94915">
        <ele>1069.8</ele>
        <time>2022-07-19T08:46:19Z</time>
      </trkpt>
      <trkpt lat="44.23395" lon="6.9491">
        <ele>1069.8</ele>
        <time>2022-07-19T08:46:20Z</time>
      </trkpt>
      <trkpt lat="44.23399" lon="6.94907">
        <ele>1070</ele>
        <time>2022-07-19T08:46:21Z</time>
      </trkpt>
      <trkpt lat="44.23402" lon="6.94903">
        <ele>1070</ele>
        <time>2022-07-19T08:46:22Z</time>
      </trkpt>
      <trkpt lat="44.23405" lon="6.94898">
        <ele>1070</ele>
        <time>2022-07-19T08:46:23Z</time>
      </trkpt>
      <trkpt lat="44.23408" lon="6.94894">
        <ele>1070.2</ele>
        <time>2022-07-19T08:46:24Z</time>
      </trkpt>
      <trkpt lat="44.23411" lon="6.94889">
        <ele>1070.2</ele>
        <time>2022-07-19T08:46:25Z</time>
      </trkpt>
      <trkpt lat="44.23415" lon="6.94885">
        <ele>1070.4</ele>
        <time>2022-07-19T08:46:26Z</time>
      </trkpt>
      <trkpt lat="44.23418" lon="6.94881">
        <ele>1070.4</ele>
        <time>2022-07-19T08:46:27Z</time>
      </trkpt>
      <trkpt lat="44.23421" lon="6.94877">
        <ele>1070.4</ele>
        <time>2022-07-19T08:46:28Z</time>
      </trkpt>
      <trkpt lat="44.23424" lon="6.94873">
        <ele>1070.4</ele>
        <time>2022-07-19T08:46:29Z</time>
      </trkpt>
      <trkpt lat="44.23428" lon="6.94869">
        <ele>1070.4</ele>
        <time>2022-07-19T08:46:30Z</time>
      </trkpt>
      <trkpt lat="44.23431" lon="6.94866">
        <ele>1070.6</ele>
        <time>2022-07-19T08:46:31Z</time>
      </trkpt>
      <trkpt lat="44.23435" lon="6.94862">
        <ele>1070.6</ele>
        <time>2022-07-19T08:46:32Z</time>
      </trkpt>
      <trkpt lat="44.23438" lon="6.94859">
        <ele>1071</ele>
        <time>2022-07-19T08:46:33Z</time>
      </trkpt>
      <trkpt lat="44.23442" lon="6.94857">
        <ele>1071</ele>
        <time>2022-07-19T08:46:34Z</time>
      </trkpt>
      <trkpt lat="44.23446" lon="6.94854">
        <ele>1071.4</ele>
        <time>2022-07-19T08:46:35Z</time>
      </trkpt>
      <trkpt lat="44.2345" lon="6.94852">
        <ele>1071.4</ele>
        <time>2022-07-19T08:46:36Z</time>
      </trkpt>
      <trkpt lat="44.23453" lon="6.9485">
        <ele>1071.6</ele>
        <time>2022-07-19T08:46:37Z</time>
      </trkpt>
      <trkpt lat="44.23458" lon="6.94848">
        <ele>1071.6</ele>
        <time>2022-07-19T08:46:38Z</time>
      </trkpt>
      <trkpt lat="44.23462" lon="6.94847">
        <ele>1071.6</ele>
        <time>2022-07-19T08:46:39Z</time>
      </trkpt>
      <trkpt lat="44.23466" lon="6.94846">
        <ele>1071.8</ele>
        <time>2022-07-19T08:46:40Z</time>
      </trkpt>
      <trkpt lat="44.2347" lon="6.94843">
        <ele>1071.8</ele>
        <time>2022-07-19T08:46:41Z</time>
      </trkpt>
      <trkpt lat="44.23473" lon="6.9484">
        <ele>1072.2</ele>
        <time>2022-07-19T08:46:42Z</time>
      </trkpt>
      <trkpt lat="44.23476" lon="6.94836">
        <ele>1072.2</ele>
        <time>2022-07-19T08:46:43Z</time>
      </trkpt>
      <trkpt lat="44.23478" lon="6.94832">
        <ele>1072.4</ele>
        <time>2022-07-19T08:46:44Z</time>
      </trkpt>
      <trkpt lat="44.2348" lon="6.94826">
        <ele>1072.4</ele>
        <time>2022-07-19T08:46:45Z</time>
      </trkpt>
      <trkpt lat="44.23483" lon="6.94821">
        <ele>1072.4</ele>
        <time>2022-07-19T08:46:46Z</time>
      </trkpt>
      <trkpt lat="44.23486" lon="6.94815">
        <ele>1072.4</ele>
        <time>2022-07-19T08:46:47Z</time>
      </trkpt>
      <trkpt lat="44.2349" lon="6.9481">
        <ele>1072.4</ele>
        <time>2022-07-19T08:46:48Z</time>
      </trkpt>
      <trkpt lat="44.23494" lon="6.94806">
        <ele>1072.4</ele>
        <time>2022-07-19T08:46:49Z</time>
      </trkpt>
      <trkpt lat="44.23499" lon="6.94801">
        <ele>1072</ele>
        <time>2022-07-19T08:46:50Z</time>
      </trkpt>
      <trkpt lat="44.23505" lon="6.94795">
        <ele>1072</ele>
        <time>2022-07-19T08:46:51Z</time>
      </trkpt>
      <trkpt lat="44.2351" lon="6.9479">
        <ele>1071.6</ele>
        <time>2022-07-19T08:46:52Z</time>
      </trkpt>
      <trkpt lat="44.23516" lon="6.94785">
        <ele>1071.2</ele>
        <time>2022-07-19T08:46:53Z</time>
      </trkpt>
      <trkpt lat="44.23522" lon="6.94779">
        <ele>1071</ele>
        <time>2022-07-19T08:46:54Z</time>
      </trkpt>
      <trkpt lat="44.23529" lon="6.94772">
        <ele>1070.6</ele>
        <time>2022-07-19T08:46:55Z</time>
      </trkpt>
      <trkpt lat="44.23534" lon="6.94766">
        <ele>1070.4</ele>
        <time>2022-07-19T08:46:56Z</time>
      </trkpt>
      <trkpt lat="44.2354" lon="6.94759">
        <ele>1070.2</ele>
        <time>2022-07-19T08:46:57Z</time>
      </trkpt>
      <trkpt lat="44.23546" lon="6.94753">
        <ele>1070.2</ele>
        <time>2022-07-19T08:46:58Z</time>
      </trkpt>
      <trkpt lat="44.23552" lon="6.94746">
        <ele>1069.8</ele>
        <time>2022-07-19T08:46:59Z</time>
      </trkpt>
      <trkpt lat="44.23558" lon="6.94739">
        <ele>1069.8</ele>
        <time>2022-07-19T08:47:00Z</time>
      </trkpt>
      <trkpt lat="44.23563" lon="6.94733">
        <ele>1069.8</ele>
        <time>2022-07-19T08:47:01Z</time>
      </trkpt>
      <trkpt lat="44.23567" lon="6.94726">
        <ele>1069.8</ele>
        <time>2022-07-19T08:47:02Z</time>
      </trkpt>
      <trkpt lat="44.23571" lon="6.9472">
        <ele>1069.8</ele>
        <time>2022-07-19T08:47:03Z</time>
      </trkpt>
      <trkpt lat="44.23575" lon="6.94714">
        <ele>1069.8</ele>
        <time>2022-07-19T08:47:04Z</time>
      </trkpt>
      <trkpt lat="44.23578" lon="6.94708">
        <ele>1070.2</ele>
        <time>2022-07-19T08:47:05Z</time>
      </trkpt>
      <trkpt lat="44.23581" lon="6.94702">
        <ele>1070.4</ele>
        <time>2022-07-19T08:47:06Z</time>
      </trkpt>
      <trkpt lat="44.23584" lon="6.94697">
        <ele>1070.6</ele>
        <time>2022-07-19T08:47:07Z</time>
      </trkpt>
      <trkpt lat="44.23587" lon="6.94691">
        <ele>1070.6</ele>
        <time>2022-07-19T08:47:08Z</time>
      </trkpt>
      <trkpt lat="44.23589" lon="6.94686">
        <ele>1070.8</ele>
        <time>2022-07-19T08:47:09Z</time>
      </trkpt>
      <trkpt lat="44.23592" lon="6.94681">
        <ele>1071</ele>
        <time>2022-07-19T08:47:10Z</time>
      </trkpt>
      <trkpt lat="44.23595" lon="6.94676">
        <ele>1071</ele>
        <time>2022-07-19T08:47:11Z</time>
      </trkpt>
      <trkpt lat="44.23598" lon="6.94671">
        <ele>1071.4</ele>
        <time>2022-07-19T08:47:12Z</time>
      </trkpt>
      <trkpt lat="44.23603" lon="6.94664">
        <ele>1071.6</ele>
        <time>2022-07-19T08:47:13Z</time>
      </trkpt>
      <trkpt lat="44.23604" lon="6.94662">
        <ele>1071.6</ele>
        <time>2022-07-19T08:47:14Z</time>
      </trkpt>
      <trkpt lat="44.23607" lon="6.94659">
        <ele>1071.8</ele>
        <time>2022-07-19T08:47:15Z</time>
      </trkpt>
      <trkpt lat="44.2361" lon="6.94654">
        <ele>1072.2</ele>
        <time>2022-07-19T08:47:16Z</time>
      </trkpt>
      <trkpt lat="44.23613" lon="6.9465">
        <ele>1072.2</ele>
        <time>2022-07-19T08:47:17Z</time>
      </trkpt>
      <trkpt lat="44.23616" lon="6.94647">
        <ele>1072.4</ele>
        <time>2022-07-19T08:47:18Z</time>
      </trkpt>
      <trkpt lat="44.23619" lon="6.94643">
        <ele>1072.4</ele>
        <time>2022-07-19T08:47:19Z</time>
      </trkpt>
      <trkpt lat="44.23622" lon="6.94639">
        <ele>1072.8</ele>
        <time>2022-07-19T08:47:20Z</time>
      </trkpt>
      <trkpt lat="44.23625" lon="6.94636">
        <ele>1072.8</ele>
        <time>2022-07-19T08:47:21Z</time>
      </trkpt>
      <trkpt lat="44.23628" lon="6.94631">
        <ele>1073</ele>
        <time>2022-07-19T08:47:22Z</time>
      </trkpt>
      <trkpt lat="44.23631" lon="6.94627">
        <ele>1073</ele>
        <time>2022-07-19T08:47:23Z</time>
      </trkpt>
      <trkpt lat="44.23634" lon="6.94624">
        <ele>1073</ele>
        <time>2022-07-19T08:47:24Z</time>
      </trkpt>
      <trkpt lat="44.23637" lon="6.94619">
        <ele>1073.2</ele>
        <time>2022-07-19T08:47:25Z</time>
      </trkpt>
      <trkpt lat="44.2364" lon="6.94615">
        <ele>1073.2</ele>
        <time>2022-07-19T08:47:26Z</time>
      </trkpt>
      <trkpt lat="44.23643" lon="6.94611">
        <ele>1073.2</ele>
        <time>2022-07-19T08:47:27Z</time>
      </trkpt>
      <trkpt lat="44.23651" lon="6.94604">
        <ele>1073.2</ele>
        <time>2022-07-19T08:47:28Z</time>
      </trkpt>
      <trkpt lat="44.23655" lon="6.94601">
        <ele>1073.4</ele>
        <time>2022-07-19T08:47:29Z</time>
      </trkpt>
      <trkpt lat="44.23659" lon="6.94598">
        <ele>1073.4</ele>
        <time>2022-07-19T08:47:30Z</time>
      </trkpt>
      <trkpt lat="44.23664" lon="6.94594">
        <ele>1073.4</ele>
        <time>2022-07-19T08:47:31Z</time>
      </trkpt>
      <trkpt lat="44.23668" lon="6.94591">
        <ele>1073.4</ele>
        <time>2022-07-19T08:47:32Z</time>
      </trkpt>
      <trkpt lat="44.23672" lon="6.94588">
        <ele>1073.4</ele>
        <time>2022-07-19T08:47:33Z</time>
      </trkpt>
      <trkpt lat="44.23676" lon="6.94585">
        <ele>1073.4</ele>
        <time>2022-07-19T08:47:34Z</time>
      </trkpt>
      <trkpt lat="44.2368" lon="6.94581">
        <ele>1073.4</ele>
        <time>2022-07-19T08:47:35Z</time>
      </trkpt>
      <trkpt lat="44.23685" lon="6.94578">
        <ele>1073.6</ele>
        <time>2022-07-19T08:47:36Z</time>
      </trkpt>
      <trkpt lat="44.23689" lon="6.94575">
        <ele>1073.6</ele>
        <time>2022-07-19T08:47:37Z</time>
      </trkpt>
      <trkpt lat="44.23693" lon="6.94571">
        <ele>1073.6</ele>
        <time>2022-07-19T08:47:38Z</time>
      </trkpt>
      <trkpt lat="44.23697" lon="6.94568">
        <ele>1073.6</ele>
        <time>2022-07-19T08:47:39Z</time>
      </trkpt>
      <trkpt lat="44.23701" lon="6.94564">
        <ele>1073.6</ele>
        <time>2022-07-19T08:47:40Z</time>
      </trkpt>
      <trkpt lat="44.23705" lon="6.94561">
        <ele>1073.6</ele>
        <time>2022-07-19T08:47:41Z</time>
      </trkpt>
      <trkpt lat="44.23709" lon="6.94556">
        <ele>1073.6</ele>
        <time>2022-07-19T08:47:42Z</time>
      </trkpt>
      <trkpt lat="44.23713" lon="6.94552">
        <ele>1073.6</ele>
        <time>2022-07-19T08:47:43Z</time>
      </trkpt>
      <trkpt lat="44.23717" lon="6.94548">
        <ele>1073.6</ele>
        <time>2022-07-19T08:47:44Z</time>
      </trkpt>
      <trkpt lat="44.23722" lon="6.94546">
        <ele>1073.6</ele>
        <time>2022-07-19T08:47:45Z</time>
      </trkpt>
      <trkpt lat="44.23727" lon="6.94543">
        <ele>1073.6</ele>
        <time>2022-07-19T08:47:46Z</time>
      </trkpt>
      <trkpt lat="44.23731" lon="6.94541">
        <ele>1073.6</ele>
        <time>2022-07-19T08:47:47Z</time>
      </trkpt>
      <trkpt lat="44.23736" lon="6.9454">
        <ele>1073.6</ele>
        <time>2022-07-19T08:47:48Z</time>
      </trkpt>
      <trkpt lat="44.23741" lon="6.94539">
        <ele>1073.8</ele>
        <time>2022-07-19T08:47:49Z</time>
      </trkpt>
      <trkpt lat="44.23746" lon="6.94538">
        <ele>1073.8</ele>
        <time>2022-07-19T08:47:50Z</time>
      </trkpt>
      <trkpt lat="44.2375" lon="6.94538">
        <ele>1073.8</ele>
        <time>2022-07-19T08:47:51Z</time>
      </trkpt>
      <trkpt lat="44.23755" lon="6.94537">
        <ele>1074.2</ele>
        <time>2022-07-19T08:47:52Z</time>
      </trkpt>
      <trkpt lat="44.2376" lon="6.94537">
        <ele>1074.2</ele>
        <time>2022-07-19T08:47:53Z</time>
      </trkpt>
      <trkpt lat="44.23765" lon="6.94537">
        <ele>1074.4</ele>
        <time>2022-07-19T08:47:55Z</time>
      </trkpt>
      <trkpt lat="44.23769" lon="6.94537">
        <ele>1074.6</ele>
        <time>2022-07-19T08:47:56Z</time>
      </trkpt>
      <trkpt lat="44.23774" lon="6.94537">
        <ele>1074.6</ele>
        <time>2022-07-19T08:47:57Z</time>
      </trkpt>
      <trkpt lat="44.23778" lon="6.94537">
        <ele>1074.6</ele>
        <time>2022-07-19T08:47:58Z</time>
      </trkpt>
      <trkpt lat="44.23783" lon="6.94537">
        <ele>1074.8</ele>
        <time>2022-07-19T08:47:59Z</time>
      </trkpt>
      <trkpt lat="44.23787" lon="6.94536">
        <ele>1074.8</ele>
        <time>2022-07-19T08:48:00Z</time>
      </trkpt>
      <trkpt lat="44.23792" lon="6.94536">
        <ele>1074.8</ele>
        <time>2022-07-19T08:48:01Z</time>
      </trkpt>
      <trkpt lat="44.23797" lon="6.94535">
        <ele>1075</ele>
        <time>2022-07-19T08:48:02Z</time>
      </trkpt>
      <trkpt lat="44.23801" lon="6.94534">
        <ele>1075</ele>
        <time>2022-07-19T08:48:03Z</time>
      </trkpt>
      <trkpt lat="44.23805" lon="6.94534">
        <ele>1075</ele>
        <time>2022-07-19T08:48:04Z</time>
      </trkpt>
      <trkpt lat="44.2381" lon="6.94534">
        <ele>1075</ele>
        <time>2022-07-19T08:48:05Z</time>
      </trkpt>
      <trkpt lat="44.23815" lon="6.94534">
        <ele>1075.2</ele>
        <time>2022-07-19T08:48:06Z</time>
      </trkpt>
      <trkpt lat="44.23819" lon="6.94534">
        <ele>1075.2</ele>
        <time>2022-07-19T08:48:07Z</time>
      </trkpt>
      <trkpt lat="44.23824" lon="6.94535">
        <ele>1075.2</ele>
        <time>2022-07-19T08:48:08Z</time>
      </trkpt>
      <trkpt lat="44.23829" lon="6.94535">
        <ele>1075.4</ele>
        <time>2022-07-19T08:48:09Z</time>
      </trkpt>
      <trkpt lat="44.23833" lon="6.94536">
        <ele>1075.4</ele>
        <time>2022-07-19T08:48:10Z</time>
      </trkpt>
      <trkpt lat="44.23838" lon="6.94536">
        <ele>1075.4</ele>
        <time>2022-07-19T08:48:11Z</time>
      </trkpt>
      <trkpt lat="44.23842" lon="6.94535">
        <ele>1075.6</ele>
        <time>2022-07-19T08:48:12Z</time>
      </trkpt>
      <trkpt lat="44.23847" lon="6.94534">
        <ele>1075.6</ele>
        <time>2022-07-19T08:48:13Z</time>
      </trkpt>
      <trkpt lat="44.23851" lon="6.94534">
        <ele>1075.8</ele>
        <time>2022-07-19T08:48:14Z</time>
      </trkpt>
      <trkpt lat="44.23856" lon="6.94532">
        <ele>1075.8</ele>
        <time>2022-07-19T08:48:15Z</time>
      </trkpt>
      <trkpt lat="44.23861" lon="6.94531">
        <ele>1075.8</ele>
        <time>2022-07-19T08:48:16Z</time>
      </trkpt>
      <trkpt lat="44.23865" lon="6.9453">
        <ele>1076</ele>
        <time>2022-07-19T08:48:17Z</time>
      </trkpt>
      <trkpt lat="44.2387" lon="6.94529">
        <ele>1076</ele>
        <time>2022-07-19T08:48:18Z</time>
      </trkpt>
      <trkpt lat="44.23874" lon="6.94528">
        <ele>1076.2</ele>
        <time>2022-07-19T08:48:19Z</time>
      </trkpt>
      <trkpt lat="44.23879" lon="6.94526">
        <ele>1076.2</ele>
        <time>2022-07-19T08:48:20Z</time>
      </trkpt>
      <trkpt lat="44.23883" lon="6.94524">
        <ele>1076.6</ele>
        <time>2022-07-19T08:48:21Z</time>
      </trkpt>
      <trkpt lat="44.23888" lon="6.94523">
        <ele>1076.6</ele>
        <time>2022-07-19T08:48:22Z</time>
      </trkpt>
      <trkpt lat="44.23892" lon="6.94521">
        <ele>1076.6</ele>
        <time>2022-07-19T08:48:23Z</time>
      </trkpt>
      <trkpt lat="44.23897" lon="6.94519">
        <ele>1076.8</ele>
        <time>2022-07-19T08:48:24Z</time>
      </trkpt>
      <trkpt lat="44.23901" lon="6.94517">
        <ele>1076.8</ele>
        <time>2022-07-19T08:48:25Z</time>
      </trkpt>
      <trkpt lat="44.23905" lon="6.94515">
        <ele>1076.8</ele>
        <time>2022-07-19T08:48:26Z</time>
      </trkpt>
      <trkpt lat="44.23909" lon="6.94513">
        <ele>1077.2</ele>
        <time>2022-07-19T08:48:27Z</time>
      </trkpt>
      <trkpt lat="44.23913" lon="6.94511">
        <ele>1077.2</ele>
        <time>2022-07-19T08:48:28Z</time>
      </trkpt>
      <trkpt lat="44.23916" lon="6.94508">
        <ele>1077.6</ele>
        <time>2022-07-19T08:48:29Z</time>
      </trkpt>
      <trkpt lat="44.23921" lon="6.94504">
        <ele>1077.6</ele>
        <time>2022-07-19T08:48:30Z</time>
      </trkpt>
      <trkpt lat="44.23923" lon="6.94503">
        <ele>1078</ele>
        <time>2022-07-19T08:48:31Z</time>
      </trkpt>
      <trkpt lat="44.23926" lon="6.945">
        <ele>1078</ele>
        <time>2022-07-19T08:48:32Z</time>
      </trkpt>
      <trkpt lat="44.23929" lon="6.94497">
        <ele>1078.4</ele>
        <time>2022-07-19T08:48:33Z</time>
      </trkpt>
      <trkpt lat="44.23932" lon="6.94493">
        <ele>1078.4</ele>
        <time>2022-07-19T08:48:34Z</time>
      </trkpt>
      <trkpt lat="44.23934" lon="6.94489">
        <ele>1078.6</ele>
        <time>2022-07-19T08:48:35Z</time>
      </trkpt>
      <trkpt lat="44.23937" lon="6.94485">
        <ele>1078.6</ele>
        <time>2022-07-19T08:48:36Z</time>
      </trkpt>
      <trkpt lat="44.2394" lon="6.9448">
        <ele>1078.8</ele>
        <time>2022-07-19T08:48:37Z</time>
      </trkpt>
      <trkpt lat="44.23942" lon="6.94475">
        <ele>1079</ele>
        <time>2022-07-19T08:48:38Z</time>
      </trkpt>
      <trkpt lat="44.23944" lon="6.9447">
        <ele>1079</ele>
        <time>2022-07-19T08:48:39Z</time>
      </trkpt>
      <trkpt lat="44.23945" lon="6.94465">
        <ele>1079.4</ele>
        <time>2022-07-19T08:48:40Z</time>
      </trkpt>
      <trkpt lat="44.23946" lon="6.9446">
        <ele>1079.4</ele>
        <time>2022-07-19T08:48:41Z</time>
      </trkpt>
      <trkpt lat="44.23946" lon="6.94454">
        <ele>1079.6</ele>
        <time>2022-07-19T08:48:42Z</time>
      </trkpt>
      <trkpt lat="44.23946" lon="6.94449">
        <ele>1079.6</ele>
        <time>2022-07-19T08:48:43Z</time>
      </trkpt>
      <trkpt lat="44.23945" lon="6.94443">
        <ele>1080</ele>
        <time>2022-07-19T08:48:44Z</time>
      </trkpt>
      <trkpt lat="44.23944" lon="6.94438">
        <ele>1080</ele>
        <time>2022-07-19T08:48:45Z</time>
      </trkpt>
      <trkpt lat="44.23944" lon="6.94433">
        <ele>1080.4</ele>
        <time>2022-07-19T08:48:46Z</time>
      </trkpt>
      <trkpt lat="44.23943" lon="6.94428">
        <ele>1080.6</ele>
        <time>2022-07-19T08:48:47Z</time>
      </trkpt>
      <trkpt lat="44.23942" lon="6.94423">
        <ele>1080.8</ele>
        <time>2022-07-19T08:48:48Z</time>
      </trkpt>
      <trkpt lat="44.23942" lon="6.94418">
        <ele>1081</ele>
        <time>2022-07-19T08:48:49Z</time>
      </trkpt>
      <trkpt lat="44.23941" lon="6.94413">
        <ele>1081.2</ele>
        <time>2022-07-19T08:48:50Z</time>
      </trkpt>
      <trkpt lat="44.23941" lon="6.94408">
        <ele>1081.6</ele>
        <time>2022-07-19T08:48:51Z</time>
      </trkpt>
      <trkpt lat="44.2394" lon="6.94404">
        <ele>1081.8</ele>
        <time>2022-07-19T08:48:52Z</time>
      </trkpt>
      <trkpt lat="44.23939" lon="6.94399">
        <ele>1082.2</ele>
        <time>2022-07-19T08:48:53Z</time>
      </trkpt>
      <trkpt lat="44.23939" lon="6.94395">
        <ele>1082.6</ele>
        <time>2022-07-19T08:48:54Z</time>
      </trkpt>
      <trkpt lat="44.23939" lon="6.94391">
        <ele>1082.8</ele>
        <time>2022-07-19T08:48:55Z</time>
      </trkpt>
      <trkpt lat="44.23938" lon="6.94388">
        <ele>1083.2</ele>
        <time>2022-07-19T08:48:56Z</time>
      </trkpt>
      <trkpt lat="44.23938" lon="6.94384">
        <ele>1083.6</ele>
        <time>2022-07-19T08:48:57Z</time>
      </trkpt>
      <trkpt lat="44.23938" lon="6.94381">
        <ele>1084</ele>
        <time>2022-07-19T08:48:58Z</time>
      </trkpt>
      <trkpt lat="44.23939" lon="6.94377">
        <ele>1084.2</ele>
        <time>2022-07-19T08:48:59Z</time>
      </trkpt>
      <trkpt lat="44.2394" lon="6.94374">
        <ele>1084.2</ele>
        <time>2022-07-19T08:49:00Z</time>
      </trkpt>
      <trkpt lat="44.23942" lon="6.94371">
        <ele>1084.4</ele>
        <time>2022-07-19T08:49:01Z</time>
      </trkpt>
      <trkpt lat="44.23943" lon="6.94368">
        <ele>1084.4</ele>
        <time>2022-07-19T08:49:02Z</time>
      </trkpt>
      <trkpt lat="44.23946" lon="6.94366">
        <ele>1084.4</ele>
        <time>2022-07-19T08:49:03Z</time>
      </trkpt>
      <trkpt lat="44.23949" lon="6.94365">
        <ele>1084.8</ele>
        <time>2022-07-19T08:49:04Z</time>
      </trkpt>
      <trkpt lat="44.23953" lon="6.94364">
        <ele>1084.8</ele>
        <time>2022-07-19T08:49:05Z</time>
      </trkpt>
      <trkpt lat="44.23957" lon="6.94363">
        <ele>1084.8</ele>
        <time>2022-07-19T08:49:06Z</time>
      </trkpt>
      <trkpt lat="44.23961" lon="6.94362">
        <ele>1084.8</ele>
        <time>2022-07-19T08:49:07Z</time>
      </trkpt>
      <trkpt lat="44.23966" lon="6.9436">
        <ele>1084.8</ele>
        <time>2022-07-19T08:49:08Z</time>
      </trkpt>
      <trkpt lat="44.2397" lon="6.94358">
        <ele>1084.8</ele>
        <time>2022-07-19T08:49:09Z</time>
      </trkpt>
      <trkpt lat="44.23974" lon="6.94356">
        <ele>1084.6</ele>
        <time>2022-07-19T08:49:10Z</time>
      </trkpt>
      <trkpt lat="44.23978" lon="6.94354">
        <ele>1084.6</ele>
        <time>2022-07-19T08:49:11Z</time>
      </trkpt>
      <trkpt lat="44.23983" lon="6.94351">
        <ele>1084.6</ele>
        <time>2022-07-19T08:49:12Z</time>
      </trkpt>
      <trkpt lat="44.23987" lon="6.94348">
        <ele>1084.6</ele>
        <time>2022-07-19T08:49:13Z</time>
      </trkpt>
      <trkpt lat="44.23992" lon="6.94344">
        <ele>1084.6</ele>
        <time>2022-07-19T08:49:14Z</time>
      </trkpt>
      <trkpt lat="44.23996" lon="6.94341">
        <ele>1084.6</ele>
        <time>2022-07-19T08:49:15Z</time>
      </trkpt>
      <trkpt lat="44.24001" lon="6.94337">
        <ele>1084.6</ele>
        <time>2022-07-19T08:49:16Z</time>
      </trkpt>
      <trkpt lat="44.24006" lon="6.94333">
        <ele>1084.6</ele>
        <time>2022-07-19T08:49:17Z</time>
      </trkpt>
      <trkpt lat="44.24011" lon="6.9433">
        <ele>1084.6</ele>
        <time>2022-07-19T08:49:18Z</time>
      </trkpt>
      <trkpt lat="44.24015" lon="6.94325">
        <ele>1084.6</ele>
        <time>2022-07-19T08:49:19Z</time>
      </trkpt>
      <trkpt lat="44.24019" lon="6.94321">
        <ele>1084.6</ele>
        <time>2022-07-19T08:49:20Z</time>
      </trkpt>
      <trkpt lat="44.24023" lon="6.94318">
        <ele>1084.6</ele>
        <time>2022-07-19T08:49:21Z</time>
      </trkpt>
      <trkpt lat="44.24026" lon="6.94315">
        <ele>1084.6</ele>
        <time>2022-07-19T08:49:22Z</time>
      </trkpt>
      <trkpt lat="44.2403" lon="6.94312">
        <ele>1084.6</ele>
        <time>2022-07-19T08:49:23Z</time>
      </trkpt>
      <trkpt lat="44.24033" lon="6.94309">
        <ele>1084.6</ele>
        <time>2022-07-19T08:49:24Z</time>
      </trkpt>
      <trkpt lat="44.24036" lon="6.94304">
        <ele>1084.8</ele>
        <time>2022-07-19T08:49:25Z</time>
      </trkpt>
      <trkpt lat="44.24038" lon="6.943">
        <ele>1084.8</ele>
        <time>2022-07-19T08:49:26Z</time>
      </trkpt>
      <trkpt lat="44.2404" lon="6.94295">
        <ele>1085.2</ele>
        <time>2022-07-19T08:49:27Z</time>
      </trkpt>
      <trkpt lat="44.24042" lon="6.94291">
        <ele>1085.2</ele>
        <time>2022-07-19T08:49:28Z</time>
      </trkpt>
      <trkpt lat="44.24044" lon="6.94286">
        <ele>1085.6</ele>
        <time>2022-07-19T08:49:29Z</time>
      </trkpt>
      <trkpt lat="44.24047" lon="6.94282">
        <ele>1085.6</ele>
        <time>2022-07-19T08:49:30Z</time>
      </trkpt>
      <trkpt lat="44.24049" lon="6.94278">
        <ele>1085.8</ele>
        <time>2022-07-19T08:49:31Z</time>
      </trkpt>
      <trkpt lat="44.24051" lon="6.94273">
        <ele>1085.8</ele>
        <time>2022-07-19T08:49:32Z</time>
      </trkpt>
      <trkpt lat="44.24053" lon="6.94269">
        <ele>1086.2</ele>
        <time>2022-07-19T08:49:33Z</time>
      </trkpt>
      <trkpt lat="44.24055" lon="6.94265">
        <ele>1086.2</ele>
        <time>2022-07-19T08:49:34Z</time>
      </trkpt>
      <trkpt lat="44.24057" lon="6.94261">
        <ele>1086.4</ele>
        <time>2022-07-19T08:49:35Z</time>
      </trkpt>
      <trkpt lat="44.24059" lon="6.94257">
        <ele>1086.4</ele>
        <time>2022-07-19T08:49:36Z</time>
      </trkpt>
      <trkpt lat="44.24062" lon="6.9425">
        <ele>1086.6</ele>
        <time>2022-07-19T08:49:37Z</time>
      </trkpt>
      <trkpt lat="44.24063" lon="6.94248">
        <ele>1086.6</ele>
        <time>2022-07-19T08:49:38Z</time>
      </trkpt>
      <trkpt lat="44.24065" lon="6.94244">
        <ele>1086.6</ele>
        <time>2022-07-19T08:49:39Z</time>
      </trkpt>
      <trkpt lat="44.24068" lon="6.9424">
        <ele>1087</ele>
        <time>2022-07-19T08:49:40Z</time>
      </trkpt>
      <trkpt lat="44.24071" lon="6.94237">
        <ele>1087</ele>
        <time>2022-07-19T08:49:41Z</time>
      </trkpt>
      <trkpt lat="44.24074" lon="6.94233">
        <ele>1087</ele>
        <time>2022-07-19T08:49:42Z</time>
      </trkpt>
      <trkpt lat="44.24078" lon="6.94229">
        <ele>1087</ele>
        <time>2022-07-19T08:49:43Z</time>
      </trkpt>
      <trkpt lat="44.24081" lon="6.94225">
        <ele>1087</ele>
        <time>2022-07-19T08:49:44Z</time>
      </trkpt>
      <trkpt lat="44.24084" lon="6.94222">
        <ele>1087.2</ele>
        <time>2022-07-19T08:49:45Z</time>
      </trkpt>
      <trkpt lat="44.24088" lon="6.94219">
        <ele>1087.2</ele>
        <time>2022-07-19T08:49:46Z</time>
      </trkpt>
      <trkpt lat="44.24091" lon="6.94216">
        <ele>1087.2</ele>
        <time>2022-07-19T08:49:47Z</time>
      </trkpt>
      <trkpt lat="44.24095" lon="6.94213">
        <ele>1087.2</ele>
        <time>2022-07-19T08:49:48Z</time>
      </trkpt>
      <trkpt lat="44.24099" lon="6.94209">
        <ele>1087.4</ele>
        <time>2022-07-19T08:49:49Z</time>
      </trkpt>
      <trkpt lat="44.24102" lon="6.94206">
        <ele>1087.4</ele>
        <time>2022-07-19T08:49:50Z</time>
      </trkpt>
      <trkpt lat="44.24106" lon="6.94202">
        <ele>1087.4</ele>
        <time>2022-07-19T08:49:51Z</time>
      </trkpt>
      <trkpt lat="44.24109" lon="6.94198">
        <ele>1087.4</ele>
        <time>2022-07-19T08:49:52Z</time>
      </trkpt>
      <trkpt lat="44.24113" lon="6.94195">
        <ele>1087.6</ele>
        <time>2022-07-19T08:49:53Z</time>
      </trkpt>
      <trkpt lat="44.24117" lon="6.94192">
        <ele>1087.6</ele>
        <time>2022-07-19T08:49:54Z</time>
      </trkpt>
      <trkpt lat="44.2412" lon="6.94188">
        <ele>1087.6</ele>
        <time>2022-07-19T08:49:55Z</time>
      </trkpt>
      <trkpt lat="44.24124" lon="6.94185">
        <ele>1087.8</ele>
        <time>2022-07-19T08:49:56Z</time>
      </trkpt>
      <trkpt lat="44.24127" lon="6.94182">
        <ele>1087.8</ele>
        <time>2022-07-19T08:49:57Z</time>
      </trkpt>
      <trkpt lat="44.24131" lon="6.94179">
        <ele>1087.8</ele>
        <time>2022-07-19T08:49:58Z</time>
      </trkpt>
      <trkpt lat="44.24134" lon="6.94175">
        <ele>1087.8</ele>
        <time>2022-07-19T08:49:59Z</time>
      </trkpt>
      <trkpt lat="44.24137" lon="6.94171">
        <ele>1087.8</ele>
        <time>2022-07-19T08:50:00Z</time>
      </trkpt>
      <trkpt lat="44.24141" lon="6.94167">
        <ele>1087.8</ele>
        <time>2022-07-19T08:50:01Z</time>
      </trkpt>
      <trkpt lat="44.24144" lon="6.94163">
        <ele>1087.8</ele>
        <time>2022-07-19T08:50:02Z</time>
      </trkpt>
      <trkpt lat="44.24148" lon="6.94159">
        <ele>1088.2</ele>
        <time>2022-07-19T08:50:03Z</time>
      </trkpt>
      <trkpt lat="44.24152" lon="6.94155">
        <ele>1088.2</ele>
        <time>2022-07-19T08:50:04Z</time>
      </trkpt>
      <trkpt lat="44.24156" lon="6.94151">
        <ele>1088.2</ele>
        <time>2022-07-19T08:50:05Z</time>
      </trkpt>
      <trkpt lat="44.2416" lon="6.94148">
        <ele>1088.2</ele>
        <time>2022-07-19T08:50:06Z</time>
      </trkpt>
      <trkpt lat="44.24164" lon="6.94144">
        <ele>1088.4</ele>
        <time>2022-07-19T08:50:07Z</time>
      </trkpt>
      <trkpt lat="44.24168" lon="6.94141">
        <ele>1088.4</ele>
        <time>2022-07-19T08:50:08Z</time>
      </trkpt>
      <trkpt lat="44.24172" lon="6.94137">
        <ele>1088.4</ele>
        <time>2022-07-19T08:50:09Z</time>
      </trkpt>
      <trkpt lat="44.24176" lon="6.94134">
        <ele>1088.6</ele>
        <time>2022-07-19T08:50:10Z</time>
      </trkpt>
      <trkpt lat="44.2418" lon="6.9413">
        <ele>1088.6</ele>
        <time>2022-07-19T08:50:11Z</time>
      </trkpt>
      <trkpt lat="44.24184" lon="6.94127">
        <ele>1088.8</ele>
        <time>2022-07-19T08:50:12Z</time>
      </trkpt>
      <trkpt lat="44.24187" lon="6.94124">
        <ele>1088.8</ele>
        <time>2022-07-19T08:50:13Z</time>
      </trkpt>
      <trkpt lat="44.24191" lon="6.9412">
        <ele>1088.8</ele>
        <time>2022-07-19T08:50:14Z</time>
      </trkpt>
      <trkpt lat="44.24195" lon="6.94118">
        <ele>1089</ele>
        <time>2022-07-19T08:50:15Z</time>
      </trkpt>
      <trkpt lat="44.24198" lon="6.94115">
        <ele>1089</ele>
        <time>2022-07-19T08:50:16Z</time>
      </trkpt>
      <trkpt lat="44.24201" lon="6.94111">
        <ele>1089</ele>
        <time>2022-07-19T08:50:17Z</time>
      </trkpt>
      <trkpt lat="44.24204" lon="6.94107">
        <ele>1089.4</ele>
        <time>2022-07-19T08:50:18Z</time>
      </trkpt>
      <trkpt lat="44.24207" lon="6.94102">
        <ele>1089.4</ele>
        <time>2022-07-19T08:50:19Z</time>
      </trkpt>
      <trkpt lat="44.2421" lon="6.94099">
        <ele>1089.6</ele>
        <time>2022-07-19T08:50:20Z</time>
      </trkpt>
      <trkpt lat="44.24213" lon="6.94095">
        <ele>1089.6</ele>
        <time>2022-07-19T08:50:21Z</time>
      </trkpt>
      <trkpt lat="44.24216" lon="6.94092">
        <ele>1089.8</ele>
        <time>2022-07-19T08:50:22Z</time>
      </trkpt>
      <trkpt lat="44.24219" lon="6.94088">
        <ele>1089.8</ele>
        <time>2022-07-19T08:50:23Z</time>
      </trkpt>
      <trkpt lat="44.24222" lon="6.94083">
        <ele>1089.8</ele>
        <time>2022-07-19T08:50:24Z</time>
      </trkpt>
      <trkpt lat="44.24225" lon="6.94078">
        <ele>1089.8</ele>
        <time>2022-07-19T08:50:25Z</time>
      </trkpt>
      <trkpt lat="44.24228" lon="6.94073">
        <ele>1089.8</ele>
        <time>2022-07-19T08:50:26Z</time>
      </trkpt>
      <trkpt lat="44.24231" lon="6.94069">
        <ele>1090.2</ele>
        <time>2022-07-19T08:50:27Z</time>
      </trkpt>
      <trkpt lat="44.24234" lon="6.94065">
        <ele>1090.2</ele>
        <time>2022-07-19T08:50:28Z</time>
      </trkpt>
      <trkpt lat="44.24238" lon="6.94061">
        <ele>1090.2</ele>
        <time>2022-07-19T08:50:29Z</time>
      </trkpt>
      <trkpt lat="44.24241" lon="6.94058">
        <ele>1090.4</ele>
        <time>2022-07-19T08:50:30Z</time>
      </trkpt>
      <trkpt lat="44.24244" lon="6.94054">
        <ele>1090.4</ele>
        <time>2022-07-19T08:50:31Z</time>
      </trkpt>
      <trkpt lat="44.24247" lon="6.9405">
        <ele>1090.6</ele>
        <time>2022-07-19T08:50:32Z</time>
      </trkpt>
      <trkpt lat="44.2425" lon="6.94046">
        <ele>1090.6</ele>
        <time>2022-07-19T08:50:33Z</time>
      </trkpt>
      <trkpt lat="44.24253" lon="6.94043">
        <ele>1091</ele>
        <time>2022-07-19T08:50:34Z</time>
      </trkpt>
      <trkpt lat="44.24256" lon="6.94039">
        <ele>1091.2</ele>
        <time>2022-07-19T08:50:35Z</time>
      </trkpt>
      <trkpt lat="44.24259" lon="6.94036">
        <ele>1091.2</ele>
        <time>2022-07-19T08:50:36Z</time>
      </trkpt>
      <trkpt lat="44.24262" lon="6.94033">
        <ele>1091.6</ele>
        <time>2022-07-19T08:50:37Z</time>
      </trkpt>
      <trkpt lat="44.24265" lon="6.94031">
        <ele>1091.8</ele>
        <time>2022-07-19T08:50:38Z</time>
      </trkpt>
      <trkpt lat="44.24268" lon="6.94029">
        <ele>1092</ele>
        <time>2022-07-19T08:50:39Z</time>
      </trkpt>
      <trkpt lat="44.24271" lon="6.94026">
        <ele>1092</ele>
        <time>2022-07-19T08:50:40Z</time>
      </trkpt>
      <trkpt lat="44.24273" lon="6.94023">
        <ele>1092.2</ele>
        <time>2022-07-19T08:50:41Z</time>
      </trkpt>
      <trkpt lat="44.24276" lon="6.9402">
        <ele>1092.2</ele>
        <time>2022-07-19T08:50:42Z</time>
      </trkpt>
      <trkpt lat="44.24279" lon="6.94017">
        <ele>1092.6</ele>
        <time>2022-07-19T08:50:43Z</time>
      </trkpt>
      <trkpt lat="44.24282" lon="6.94015">
        <ele>1092.8</ele>
        <time>2022-07-19T08:50:44Z</time>
      </trkpt>
      <trkpt lat="44.24286" lon="6.94012">
        <ele>1092.8</ele>
        <time>2022-07-19T08:50:45Z</time>
      </trkpt>
      <trkpt lat="44.2429" lon="6.94009">
        <ele>1093</ele>
        <time>2022-07-19T08:50:46Z</time>
      </trkpt>
      <trkpt lat="44.24294" lon="6.94007">
        <ele>1093</ele>
        <time>2022-07-19T08:50:47Z</time>
      </trkpt>
      <trkpt lat="44.24298" lon="6.94004">
        <ele>1093.4</ele>
        <time>2022-07-19T08:50:48Z</time>
      </trkpt>
      <trkpt lat="44.24302" lon="6.94001">
        <ele>1093.6</ele>
        <time>2022-07-19T08:50:49Z</time>
      </trkpt>
      <trkpt lat="44.24305" lon="6.93998">
        <ele>1093.6</ele>
        <time>2022-07-19T08:50:50Z</time>
      </trkpt>
      <trkpt lat="44.24309" lon="6.93996">
        <ele>1094</ele>
        <time>2022-07-19T08:50:51Z</time>
      </trkpt>
      <trkpt lat="44.24312" lon="6.93993">
        <ele>1094</ele>
        <time>2022-07-19T08:50:52Z</time>
      </trkpt>
      <trkpt lat="44.24315" lon="6.9399">
        <ele>1094.2</ele>
        <time>2022-07-19T08:50:53Z</time>
      </trkpt>
      <trkpt lat="44.24319" lon="6.93987">
        <ele>1094.2</ele>
        <time>2022-07-19T08:50:54Z</time>
      </trkpt>
      <trkpt lat="44.24322" lon="6.93983">
        <ele>1094.6</ele>
        <time>2022-07-19T08:50:55Z</time>
      </trkpt>
      <trkpt lat="44.24325" lon="6.9398">
        <ele>1094.6</ele>
        <time>2022-07-19T08:50:56Z</time>
      </trkpt>
      <trkpt lat="44.24328" lon="6.93977">
        <ele>1095</ele>
        <time>2022-07-19T08:50:57Z</time>
      </trkpt>
      <trkpt lat="44.24331" lon="6.93975">
        <ele>1095</ele>
        <time>2022-07-19T08:50:58Z</time>
      </trkpt>
      <trkpt lat="44.24335" lon="6.93972">
        <ele>1095.2</ele>
        <time>2022-07-19T08:50:59Z</time>
      </trkpt>
      <trkpt lat="44.24338" lon="6.9397">
        <ele>1095.2</ele>
        <time>2022-07-19T08:51:00Z</time>
      </trkpt>
      <trkpt lat="44.24341" lon="6.93967">
        <ele>1095.4</ele>
        <time>2022-07-19T08:51:01Z</time>
      </trkpt>
      <trkpt lat="44.24344" lon="6.93965">
        <ele>1095.4</ele>
        <time>2022-07-19T08:51:02Z</time>
      </trkpt>
      <trkpt lat="44.24346" lon="6.93962">
        <ele>1095.8</ele>
        <time>2022-07-19T08:51:03Z</time>
      </trkpt>
      <trkpt lat="44.24349" lon="6.93959">
        <ele>1095.8</ele>
        <time>2022-07-19T08:51:04Z</time>
      </trkpt>
      <trkpt lat="44.24351" lon="6.93957">
        <ele>1096</ele>
        <time>2022-07-19T08:51:05Z</time>
      </trkpt>
      <trkpt lat="44.24354" lon="6.93954">
        <ele>1096</ele>
        <time>2022-07-19T08:51:06Z</time>
      </trkpt>
      <trkpt lat="44.24357" lon="6.93952">
        <ele>1096</ele>
        <time>2022-07-19T08:51:07Z</time>
      </trkpt>
      <trkpt lat="44.24359" lon="6.93949">
        <ele>1096.2</ele>
        <time>2022-07-19T08:51:08Z</time>
      </trkpt>
      <trkpt lat="44.24362" lon="6.93946">
        <ele>1096.2</ele>
        <time>2022-07-19T08:51:09Z</time>
      </trkpt>
      <trkpt lat="44.24365" lon="6.93943">
        <ele>1096.6</ele>
        <time>2022-07-19T08:51:10Z</time>
      </trkpt>
      <trkpt lat="44.24367" lon="6.9394">
        <ele>1096.6</ele>
        <time>2022-07-19T08:51:11Z</time>
      </trkpt>
      <trkpt lat="44.24369" lon="6.93937">
        <ele>1096.8</ele>
        <time>2022-07-19T08:51:12Z</time>
      </trkpt>
      <trkpt lat="44.24372" lon="6.93934">
        <ele>1096.8</ele>
        <time>2022-07-19T08:51:13Z</time>
      </trkpt>
      <trkpt lat="44.24374" lon="6.93931">
        <ele>1096.8</ele>
        <time>2022-07-19T08:51:14Z</time>
      </trkpt>
      <trkpt lat="44.24376" lon="6.93928">
        <ele>1097.2</ele>
        <time>2022-07-19T08:51:15Z</time>
      </trkpt>
      <trkpt lat="44.24379" lon="6.93926">
        <ele>1097.2</ele>
        <time>2022-07-19T08:51:16Z</time>
      </trkpt>
      <trkpt lat="44.24381" lon="6.93922">
        <ele>1097.4</ele>
        <time>2022-07-19T08:51:17Z</time>
      </trkpt>
      <trkpt lat="44.24383" lon="6.93919">
        <ele>1097.4</ele>
        <time>2022-07-19T08:51:18Z</time>
      </trkpt>
      <trkpt lat="44.24385" lon="6.93916">
        <ele>1097.8</ele>
        <time>2022-07-19T08:51:19Z</time>
      </trkpt>
      <trkpt lat="44.24387" lon="6.93913">
        <ele>1097.8</ele>
        <time>2022-07-19T08:51:20Z</time>
      </trkpt>
      <trkpt lat="44.24389" lon="6.9391">
        <ele>1098</ele>
        <time>2022-07-19T08:51:21Z</time>
      </trkpt>
      <trkpt lat="44.24391" lon="6.93907">
        <ele>1098</ele>
        <time>2022-07-19T08:51:22Z</time>
      </trkpt>
      <trkpt lat="44.24393" lon="6.93905">
        <ele>1098.4</ele>
        <time>2022-07-19T08:51:23Z</time>
      </trkpt>
      <trkpt lat="44.24395" lon="6.93902">
        <ele>1098.4</ele>
        <time>2022-07-19T08:51:24Z</time>
      </trkpt>
      <trkpt lat="44.24397" lon="6.93899">
        <ele>1098.4</ele>
        <time>2022-07-19T08:51:25Z</time>
      </trkpt>
      <trkpt lat="44.24399" lon="6.93897">
        <ele>1098.6</ele>
        <time>2022-07-19T08:51:26Z</time>
      </trkpt>
      <trkpt lat="44.24401" lon="6.93893">
        <ele>1098.6</ele>
        <time>2022-07-19T08:51:27Z</time>
      </trkpt>
      <trkpt lat="44.24403" lon="6.9389">
        <ele>1099</ele>
        <time>2022-07-19T08:51:28Z</time>
      </trkpt>
      <trkpt lat="44.24405" lon="6.93888">
        <ele>1099</ele>
        <time>2022-07-19T08:51:29Z</time>
      </trkpt>
      <trkpt lat="44.24407" lon="6.93886">
        <ele>1099.2</ele>
        <time>2022-07-19T08:51:30Z</time>
      </trkpt>
      <trkpt lat="44.2441" lon="6.93883">
        <ele>1099.2</ele>
        <time>2022-07-19T08:51:31Z</time>
      </trkpt>
      <trkpt lat="44.24412" lon="6.9388">
        <ele>1099.4</ele>
        <time>2022-07-19T08:51:32Z</time>
      </trkpt>
      <trkpt lat="44.24413" lon="6.93877">
        <ele>1099.4</ele>
        <time>2022-07-19T08:51:33Z</time>
      </trkpt>
      <trkpt lat="44.24415" lon="6.93874">
        <ele>1099.8</ele>
        <time>2022-07-19T08:51:34Z</time>
      </trkpt>
      <trkpt lat="44.24417" lon="6.93871">
        <ele>1099.8</ele>
        <time>2022-07-19T08:51:35Z</time>
      </trkpt>
      <trkpt lat="44.24419" lon="6.93869">
        <ele>1100.2</ele>
        <time>2022-07-19T08:51:36Z</time>
      </trkpt>
      <trkpt lat="44.2442" lon="6.93866">
        <ele>1100.4</ele>
        <time>2022-07-19T08:51:37Z</time>
      </trkpt>
      <trkpt lat="44.24422" lon="6.93863">
        <ele>1100.4</ele>
        <time>2022-07-19T08:51:38Z</time>
      </trkpt>
      <trkpt lat="44.24423" lon="6.93861">
        <ele>1100.8</ele>
        <time>2022-07-19T08:51:39Z</time>
      </trkpt>
      <trkpt lat="44.24425" lon="6.93858">
        <ele>1101</ele>
        <time>2022-07-19T08:51:40Z</time>
      </trkpt>
      <trkpt lat="44.24426" lon="6.93855">
        <ele>1101.4</ele>
        <time>2022-07-19T08:51:41Z</time>
      </trkpt>
      <trkpt lat="44.24428" lon="6.93852">
        <ele>1101.6</ele>
        <time>2022-07-19T08:51:42Z</time>
      </trkpt>
      <trkpt lat="44.24429" lon="6.9385">
        <ele>1101.8</ele>
        <time>2022-07-19T08:51:43Z</time>
      </trkpt>
      <trkpt lat="44.24431" lon="6.93847">
        <ele>1102.2</ele>
        <time>2022-07-19T08:51:44Z</time>
      </trkpt>
      <trkpt lat="44.24433" lon="6.93845">
        <ele>1102.4</ele>
        <time>2022-07-19T08:51:45Z</time>
      </trkpt>
      <trkpt lat="44.24435" lon="6.93843">
        <ele>1102.6</ele>
        <time>2022-07-19T08:51:46Z</time>
      </trkpt>
      <trkpt lat="44.24437" lon="6.93842">
        <ele>1102.6</ele>
        <time>2022-07-19T08:51:47Z</time>
      </trkpt>
      <trkpt lat="44.24438" lon="6.9384">
        <ele>1103</ele>
        <time>2022-07-19T08:51:48Z</time>
      </trkpt>
      <trkpt lat="44.24439" lon="6.93838">
        <ele>1103.2</ele>
        <time>2022-07-19T08:51:49Z</time>
      </trkpt>
      <trkpt lat="44.24441" lon="6.93836">
        <ele>1103.4</ele>
        <time>2022-07-19T08:51:50Z</time>
      </trkpt>
      <trkpt lat="44.24443" lon="6.93834">
        <ele>1103.4</ele>
        <time>2022-07-19T08:51:51Z</time>
      </trkpt>
      <trkpt lat="44.24444" lon="6.93832">
        <ele>1103.8</ele>
        <time>2022-07-19T08:51:52Z</time>
      </trkpt>
      <trkpt lat="44.24446" lon="6.9383">
        <ele>1104</ele>
        <time>2022-07-19T08:51:53Z</time>
      </trkpt>
      <trkpt lat="44.24448" lon="6.93828">
        <ele>1104.2</ele>
        <time>2022-07-19T08:51:54Z</time>
      </trkpt>
      <trkpt lat="44.24449" lon="6.93826">
        <ele>1104.2</ele>
        <time>2022-07-19T08:51:55Z</time>
      </trkpt>
      <trkpt lat="44.24451" lon="6.93824">
        <ele>1104.6</ele>
        <time>2022-07-19T08:51:56Z</time>
      </trkpt>
      <trkpt lat="44.24453" lon="6.93822">
        <ele>1104.6</ele>
        <time>2022-07-19T08:51:57Z</time>
      </trkpt>
      <trkpt lat="44.24454" lon="6.9382">
        <ele>1104.8</ele>
        <time>2022-07-19T08:51:58Z</time>
      </trkpt>
      <trkpt lat="44.24456" lon="6.93818">
        <ele>1104.8</ele>
        <time>2022-07-19T08:51:59Z</time>
      </trkpt>
      <trkpt lat="44.24458" lon="6.93816">
        <ele>1105.2</ele>
        <time>2022-07-19T08:52:00Z</time>
      </trkpt>
      <trkpt lat="44.24459" lon="6.93814">
        <ele>1105.4</ele>
        <time>2022-07-19T08:52:01Z</time>
      </trkpt>
      <trkpt lat="44.24461" lon="6.93811">
        <ele>1105.4</ele>
        <time>2022-07-19T08:52:02Z</time>
      </trkpt>
      <trkpt lat="44.24462" lon="6.93808">
        <ele>1105.8</ele>
        <time>2022-07-19T08:52:03Z</time>
      </trkpt>
      <trkpt lat="44.24463" lon="6.93805">
        <ele>1105.8</ele>
        <time>2022-07-19T08:52:04Z</time>
      </trkpt>
      <trkpt lat="44.24464" lon="6.93802">
        <ele>1106.2</ele>
        <time>2022-07-19T08:52:05Z</time>
      </trkpt>
      <trkpt lat="44.24465" lon="6.938">
        <ele>1106.4</ele>
        <time>2022-07-19T08:52:06Z</time>
      </trkpt>
      <trkpt lat="44.24466" lon="6.93798">
        <ele>1106.4</ele>
        <time>2022-07-19T08:52:07Z</time>
      </trkpt>
      <trkpt lat="44.24467" lon="6.93795">
        <ele>1106.8</ele>
        <time>2022-07-19T08:52:08Z</time>
      </trkpt>
      <trkpt lat="44.24469" lon="6.93793">
        <ele>1107</ele>
        <time>2022-07-19T08:52:09Z</time>
      </trkpt>
      <trkpt lat="44.2447" lon="6.93791">
        <ele>1107.2</ele>
        <time>2022-07-19T08:52:10Z</time>
      </trkpt>
      <trkpt lat="44.24471" lon="6.9379">
        <ele>1107.4</ele>
        <time>2022-07-19T08:52:11Z</time>
      </trkpt>
      <trkpt lat="44.24473" lon="6.93788">
        <ele>1107.8</ele>
        <time>2022-07-19T08:52:12Z</time>
      </trkpt>
      <trkpt lat="44.24474" lon="6.93785">
        <ele>1108</ele>
        <time>2022-07-19T08:52:13Z</time>
      </trkpt>
      <trkpt lat="44.24475" lon="6.93783">
        <ele>1108.2</ele>
        <time>2022-07-19T08:52:14Z</time>
      </trkpt>
      <trkpt lat="44.24476" lon="6.93781">
        <ele>1108.4</ele>
        <time>2022-07-19T08:52:15Z</time>
      </trkpt>
      <trkpt lat="44.24477" lon="6.93778">
        <ele>1108.4</ele>
        <time>2022-07-19T08:52:16Z</time>
      </trkpt>
      <trkpt lat="44.24478" lon="6.93776">
        <ele>1109</ele>
        <time>2022-07-19T08:52:17Z</time>
      </trkpt>
      <trkpt lat="44.24479" lon="6.93775">
        <ele>1109.2</ele>
        <time>2022-07-19T08:52:18Z</time>
      </trkpt>
      <trkpt lat="44.2448" lon="6.93773">
        <ele>1109.4</ele>
        <time>2022-07-19T08:52:19Z</time>
      </trkpt>
      <trkpt lat="44.24481" lon="6.93771">
        <ele>1109.8</ele>
        <time>2022-07-19T08:52:20Z</time>
      </trkpt>
      <trkpt lat="44.24482" lon="6.93768">
        <ele>1110</ele>
        <time>2022-07-19T08:52:21Z</time>
      </trkpt>
      <trkpt lat="44.24483" lon="6.93766">
        <ele>1110.2</ele>
        <time>2022-07-19T08:52:22Z</time>
      </trkpt>
      <trkpt lat="44.24484" lon="6.93763">
        <ele>1110.6</ele>
        <time>2022-07-19T08:52:23Z</time>
      </trkpt>
      <trkpt lat="44.24485" lon="6.93761">
        <ele>1110.8</ele>
        <time>2022-07-19T08:52:24Z</time>
      </trkpt>
      <trkpt lat="44.24486" lon="6.93759">
        <ele>1110.8</ele>
        <time>2022-07-19T08:52:25Z</time>
      </trkpt>
      <trkpt lat="44.24487" lon="6.93758">
        <ele>1111.4</ele>
        <time>2022-07-19T08:52:26Z</time>
      </trkpt>
      <trkpt lat="44.24489" lon="6.93756">
        <ele>1111.6</ele>
        <time>2022-07-19T08:52:27Z</time>
      </trkpt>
      <trkpt lat="44.2449" lon="6.93754">
        <ele>1111.8</ele>
        <time>2022-07-19T08:52:28Z</time>
      </trkpt>
      <trkpt lat="44.24491" lon="6.93753">
        <ele>1112.2</ele>
        <time>2022-07-19T08:52:29Z</time>
      </trkpt>
      <trkpt lat="44.24492" lon="6.9375">
        <ele>1112.4</ele>
        <time>2022-07-19T08:52:30Z</time>
      </trkpt>
      <trkpt lat="44.24493" lon="6.93748">
        <ele>1112.6</ele>
        <time>2022-07-19T08:52:31Z</time>
      </trkpt>
      <trkpt lat="44.24494" lon="6.93745">
        <ele>1113</ele>
        <time>2022-07-19T08:52:32Z</time>
      </trkpt>
      <trkpt lat="44.24495" lon="6.93743">
        <ele>1113.2</ele>
        <time>2022-07-19T08:52:33Z</time>
      </trkpt>
      <trkpt lat="44.24497" lon="6.93741">
        <ele>1113.6</ele>
        <time>2022-07-19T08:52:34Z</time>
      </trkpt>
      <trkpt lat="44.24498" lon="6.93739">
        <ele>1114</ele>
        <time>2022-07-19T08:52:35Z</time>
      </trkpt>
      <trkpt lat="44.24499" lon="6.93737">
        <ele>1114.2</ele>
        <time>2022-07-19T08:52:36Z</time>
      </trkpt>
      <trkpt lat="44.24501" lon="6.93735">
        <ele>1114.6</ele>
        <time>2022-07-19T08:52:37Z</time>
      </trkpt>
      <trkpt lat="44.24502" lon="6.93734">
        <ele>1114.8</ele>
        <time>2022-07-19T08:52:38Z</time>
      </trkpt>
      <trkpt lat="44.24503" lon="6.93732">
        <ele>1115</ele>
        <time>2022-07-19T08:52:39Z</time>
      </trkpt>
      <trkpt lat="44.24505" lon="6.9373">
        <ele>1115.2</ele>
        <time>2022-07-19T08:52:40Z</time>
      </trkpt>
      <trkpt lat="44.24506" lon="6.93729">
        <ele>1115.6</ele>
        <time>2022-07-19T08:52:41Z</time>
      </trkpt>
      <trkpt lat="44.24507" lon="6.93727">
        <ele>1115.8</ele>
        <time>2022-07-19T08:52:42Z</time>
      </trkpt>
      <trkpt lat="44.24508" lon="6.93725">
        <ele>1116</ele>
        <time>2022-07-19T08:52:43Z</time>
      </trkpt>
      <trkpt lat="44.24509" lon="6.93723">
        <ele>1116.4</ele>
        <time>2022-07-19T08:52:44Z</time>
      </trkpt>
      <trkpt lat="44.2451" lon="6.93722">
        <ele>1116.6</ele>
        <time>2022-07-19T08:52:45Z</time>
      </trkpt>
      <trkpt lat="44.24511" lon="6.9372">
        <ele>1116.6</ele>
        <time>2022-07-19T08:52:46Z</time>
      </trkpt>
      <trkpt lat="44.24513" lon="6.93719">
        <ele>1117</ele>
        <time>2022-07-19T08:52:47Z</time>
      </trkpt>
      <trkpt lat="44.24514" lon="6.93717">
        <ele>1117.2</ele>
        <time>2022-07-19T08:52:48Z</time>
      </trkpt>
      <trkpt lat="44.24516" lon="6.93715">
        <ele>1117.4</ele>
        <time>2022-07-19T08:52:49Z</time>
      </trkpt>
      <trkpt lat="44.24517" lon="6.93714">
        <ele>1117.4</ele>
        <time>2022-07-19T08:52:50Z</time>
      </trkpt>
      <trkpt lat="44.24519" lon="6.93711">
        <ele>1118</ele>
        <time>2022-07-19T08:52:51Z</time>
      </trkpt>
      <trkpt lat="44.2452" lon="6.9371">
        <ele>1118.2</ele>
        <time>2022-07-19T08:52:52Z</time>
      </trkpt>
      <trkpt lat="44.24522" lon="6.93708">
        <ele>1118.4</ele>
        <time>2022-07-19T08:52:53Z</time>
      </trkpt>
      <trkpt lat="44.24523" lon="6.93707">
        <ele>1118.6</ele>
        <time>2022-07-19T08:52:54Z</time>
      </trkpt>
      <trkpt lat="44.24525" lon="6.93705">
        <ele>1119</ele>
        <time>2022-07-19T08:52:55Z</time>
      </trkpt>
      <trkpt lat="44.24527" lon="6.93704">
        <ele>1119.2</ele>
        <time>2022-07-19T08:52:56Z</time>
      </trkpt>
      <trkpt lat="44.24529" lon="6.93703">
        <ele>1119.4</ele>
        <time>2022-07-19T08:52:57Z</time>
      </trkpt>
      <trkpt lat="44.2453" lon="6.93701">
        <ele>1119.6</ele>
        <time>2022-07-19T08:52:58Z</time>
      </trkpt>
      <trkpt lat="44.24532" lon="6.93699">
        <ele>1119.8</ele>
        <time>2022-07-19T08:52:59Z</time>
      </trkpt>
      <trkpt lat="44.24533" lon="6.93698">
        <ele>1120.2</ele>
        <time>2022-07-19T08:53:00Z</time>
      </trkpt>
      <trkpt lat="44.24535" lon="6.93696">
        <ele>1120.4</ele>
        <time>2022-07-19T08:53:01Z</time>
      </trkpt>
      <trkpt lat="44.24537" lon="6.93694">
        <ele>1120.6</ele>
        <time>2022-07-19T08:53:02Z</time>
      </trkpt>
      <trkpt lat="44.24538" lon="6.93692">
        <ele>1120.8</ele>
        <time>2022-07-19T08:53:03Z</time>
      </trkpt>
      <trkpt lat="44.2454" lon="6.9369">
        <ele>1121</ele>
        <time>2022-07-19T08:53:04Z</time>
      </trkpt>
      <trkpt lat="44.24542" lon="6.93689">
        <ele>1121.2</ele>
        <time>2022-07-19T08:53:05Z</time>
      </trkpt>
      <trkpt lat="44.24544" lon="6.93688">
        <ele>1121.6</ele>
        <time>2022-07-19T08:53:06Z</time>
      </trkpt>
      <trkpt lat="44.24545" lon="6.93687">
        <ele>1121.8</ele>
        <time>2022-07-19T08:53:07Z</time>
      </trkpt>
      <trkpt lat="44.24547" lon="6.93686">
        <ele>1122.2</ele>
        <time>2022-07-19T08:53:08Z</time>
      </trkpt>
      <trkpt lat="44.24549" lon="6.93685">
        <ele>1122.4</ele>
        <time>2022-07-19T08:53:09Z</time>
      </trkpt>
      <trkpt lat="44.2455" lon="6.93683">
        <ele>1122.8</ele>
        <time>2022-07-19T08:53:10Z</time>
      </trkpt>
      <trkpt lat="44.24551" lon="6.93682">
        <ele>1123</ele>
        <time>2022-07-19T08:53:11Z</time>
      </trkpt>
      <trkpt lat="44.24553" lon="6.9368">
        <ele>1123.2</ele>
        <time>2022-07-19T08:53:12Z</time>
      </trkpt>
      <trkpt lat="44.24554" lon="6.93678">
        <ele>1123.4</ele>
        <time>2022-07-19T08:53:13Z</time>
      </trkpt>
      <trkpt lat="44.24555" lon="6.93676">
        <ele>1123.6</ele>
        <time>2022-07-19T08:53:14Z</time>
      </trkpt>
      <trkpt lat="44.24556" lon="6.93674">
        <ele>1124</ele>
        <time>2022-07-19T08:53:15Z</time>
      </trkpt>
      <trkpt lat="44.24557" lon="6.93671">
        <ele>1124.2</ele>
        <time>2022-07-19T08:53:16Z</time>
      </trkpt>
      <trkpt lat="44.24557" lon="6.93669">
        <ele>1124.4</ele>
        <time>2022-07-19T08:53:17Z</time>
      </trkpt>
      <trkpt lat="44.24558" lon="6.93667">
        <ele>1124.6</ele>
        <time>2022-07-19T08:53:18Z</time>
      </trkpt>
      <trkpt lat="44.24559" lon="6.93664">
        <ele>1124.8</ele>
        <time>2022-07-19T08:53:19Z</time>
      </trkpt>
      <trkpt lat="44.2456" lon="6.93662">
        <ele>1124.8</ele>
        <time>2022-07-19T08:53:20Z</time>
      </trkpt>
      <trkpt lat="44.2456" lon="6.9366">
        <ele>1125.2</ele>
        <time>2022-07-19T08:53:21Z</time>
      </trkpt>
      <trkpt lat="44.2456" lon="6.93657">
        <ele>1125.2</ele>
        <time>2022-07-19T08:53:22Z</time>
      </trkpt>
      <trkpt lat="44.24561" lon="6.93655">
        <ele>1125.6</ele>
        <time>2022-07-19T08:53:23Z</time>
      </trkpt>
      <trkpt lat="44.24562" lon="6.93653">
        <ele>1125.8</ele>
        <time>2022-07-19T08:53:24Z</time>
      </trkpt>
      <trkpt lat="44.24562" lon="6.93651">
        <ele>1125.8</ele>
        <time>2022-07-19T08:53:25Z</time>
      </trkpt>
      <trkpt lat="44.24563" lon="6.93649">
        <ele>1126.2</ele>
        <time>2022-07-19T08:53:26Z</time>
      </trkpt>
      <trkpt lat="44.24564" lon="6.93647">
        <ele>1126.2</ele>
        <time>2022-07-19T08:53:27Z</time>
      </trkpt>
      <trkpt lat="44.24564" lon="6.93644">
        <ele>1126.4</ele>
        <time>2022-07-19T08:53:28Z</time>
      </trkpt>
      <trkpt lat="44.24565" lon="6.93641">
        <ele>1126.4</ele>
        <time>2022-07-19T08:53:29Z</time>
      </trkpt>
      <trkpt lat="44.24566" lon="6.93639">
        <ele>1126.6</ele>
        <time>2022-07-19T08:53:30Z</time>
      </trkpt>
      <trkpt lat="44.24567" lon="6.93636">
        <ele>1126.6</ele>
        <time>2022-07-19T08:53:31Z</time>
      </trkpt>
      <trkpt lat="44.24568" lon="6.93634">
        <ele>1126.6</ele>
        <time>2022-07-19T08:53:32Z</time>
      </trkpt>
      <trkpt lat="44.2457" lon="6.93633">
        <ele>1127</ele>
        <time>2022-07-19T08:53:33Z</time>
      </trkpt>
      <trkpt lat="44.24571" lon="6.93632">
        <ele>1127</ele>
        <time>2022-07-19T08:53:34Z</time>
      </trkpt>
      <trkpt lat="44.24572" lon="6.9363">
        <ele>1127.4</ele>
        <time>2022-07-19T08:53:35Z</time>
      </trkpt>
      <trkpt lat="44.24574" lon="6.93629">
        <ele>1127.8</ele>
        <time>2022-07-19T08:53:36Z</time>
      </trkpt>
      <trkpt lat="44.24575" lon="6.93628">
        <ele>1128</ele>
        <time>2022-07-19T08:53:37Z</time>
      </trkpt>
      <trkpt lat="44.24577" lon="6.93627">
        <ele>1128.2</ele>
        <time>2022-07-19T08:53:38Z</time>
      </trkpt>
      <trkpt lat="44.24578" lon="6.93627">
        <ele>1128.6</ele>
        <time>2022-07-19T08:53:39Z</time>
      </trkpt>
      <trkpt lat="44.2458" lon="6.93627">
        <ele>1128.8</ele>
        <time>2022-07-19T08:53:40Z</time>
      </trkpt>
      <trkpt lat="44.24582" lon="6.93626">
        <ele>1129</ele>
        <time>2022-07-19T08:53:41Z</time>
      </trkpt>
      <trkpt lat="44.24583" lon="6.93626">
        <ele>1129</ele>
        <time>2022-07-19T08:53:42Z</time>
      </trkpt>
      <trkpt lat="44.24585" lon="6.93625">
        <ele>1129.4</ele>
        <time>2022-07-19T08:53:43Z</time>
      </trkpt>
      <trkpt lat="44.24587" lon="6.93624">
        <ele>1129.4</ele>
        <time>2022-07-19T08:53:44Z</time>
      </trkpt>
      <trkpt lat="44.24588" lon="6.93623">
        <ele>1130</ele>
        <time>2022-07-19T08:53:45Z</time>
      </trkpt>
      <trkpt lat="44.2459" lon="6.93622">
        <ele>1130.2</ele>
        <time>2022-07-19T08:53:46Z</time>
      </trkpt>
      <trkpt lat="44.24591" lon="6.93621">
        <ele>1130.4</ele>
        <time>2022-07-19T08:53:47Z</time>
      </trkpt>
      <trkpt lat="44.24593" lon="6.9362">
        <ele>1130.6</ele>
        <time>2022-07-19T08:53:48Z</time>
      </trkpt>
      <trkpt lat="44.24595" lon="6.93619">
        <ele>1131</ele>
        <time>2022-07-19T08:53:49Z</time>
      </trkpt>
      <trkpt lat="44.24596" lon="6.93618">
        <ele>1131</ele>
        <time>2022-07-19T08:53:50Z</time>
      </trkpt>
      <trkpt lat="44.24598" lon="6.93616">
        <ele>1131.4</ele>
        <time>2022-07-19T08:53:51Z</time>
      </trkpt>
      <trkpt lat="44.24599" lon="6.93615">
        <ele>1131.6</ele>
        <time>2022-07-19T08:53:52Z</time>
      </trkpt>
      <trkpt lat="44.24601" lon="6.93613">
        <ele>1131.8</ele>
        <time>2022-07-19T08:53:53Z</time>
      </trkpt>
      <trkpt lat="44.24602" lon="6.93612">
        <ele>1131.8</ele>
        <time>2022-07-19T08:53:54Z</time>
      </trkpt>
      <trkpt lat="44.24604" lon="6.93611">
        <ele>1132</ele>
        <time>2022-07-19T08:53:55Z</time>
      </trkpt>
      <trkpt lat="44.24605" lon="6.93609">
        <ele>1132</ele>
        <time>2022-07-19T08:53:56Z</time>
      </trkpt>
      <trkpt lat="44.24606" lon="6.93607">
        <ele>1132.4</ele>
        <time>2022-07-19T08:53:57Z</time>
      </trkpt>
      <trkpt lat="44.24608" lon="6.93606">
        <ele>1132.4</ele>
        <time>2022-07-19T08:53:58Z</time>
      </trkpt>
      <trkpt lat="44.24609" lon="6.93605">
        <ele>1132.4</ele>
        <time>2022-07-19T08:53:59Z</time>
      </trkpt>
      <trkpt lat="44.2461" lon="6.93603">
        <ele>1132.6</ele>
        <time>2022-07-19T08:54:00Z</time>
      </trkpt>
      <trkpt lat="44.24612" lon="6.936">
        <ele>1132.6</ele>
        <time>2022-07-19T08:54:01Z</time>
      </trkpt>
      <trkpt lat="44.24613" lon="6.93598">
        <ele>1132.6</ele>
        <time>2022-07-19T08:54:02Z</time>
      </trkpt>
      <trkpt lat="44.24615" lon="6.93596">
        <ele>1133</ele>
        <time>2022-07-19T08:54:03Z</time>
      </trkpt>
      <trkpt lat="44.24616" lon="6.93594">
        <ele>1133</ele>
        <time>2022-07-19T08:54:04Z</time>
      </trkpt>
      <trkpt lat="44.24617" lon="6.93592">
        <ele>1133</ele>
        <time>2022-07-19T08:54:05Z</time>
      </trkpt>
      <trkpt lat="44.24619" lon="6.9359">
        <ele>1133.2</ele>
        <time>2022-07-19T08:54:06Z</time>
      </trkpt>
      <trkpt lat="44.24621" lon="6.93587">
        <ele>1133.2</ele>
        <time>2022-07-19T08:54:07Z</time>
      </trkpt>
      <trkpt lat="44.24622" lon="6.93585">
        <ele>1133.2</ele>
        <time>2022-07-19T08:54:08Z</time>
      </trkpt>
      <trkpt lat="44.24624" lon="6.93582">
        <ele>1133.4</ele>
        <time>2022-07-19T08:54:09Z</time>
      </trkpt>
      <trkpt lat="44.24625" lon="6.93579">
        <ele>1133.4</ele>
        <time>2022-07-19T08:54:10Z</time>
      </trkpt>
      <trkpt lat="44.24626" lon="6.93576">
        <ele>1133.4</ele>
        <time>2022-07-19T08:54:11Z</time>
      </trkpt>
      <trkpt lat="44.24627" lon="6.93573">
        <ele>1133.4</ele>
        <time>2022-07-19T08:54:12Z</time>
      </trkpt>
      <trkpt lat="44.24628" lon="6.93569">
        <ele>1133.4</ele>
        <time>2022-07-19T08:54:13Z</time>
      </trkpt>
      <trkpt lat="44.24629" lon="6.93566">
        <ele>1133.4</ele>
        <time>2022-07-19T08:54:14Z</time>
      </trkpt>
      <trkpt lat="44.2463" lon="6.93563">
        <ele>1133.4</ele>
        <time>2022-07-19T08:54:15Z</time>
      </trkpt>
      <trkpt lat="44.24632" lon="6.9356">
        <ele>1133.4</ele>
        <time>2022-07-19T08:54:16Z</time>
      </trkpt>
      <trkpt lat="44.24633" lon="6.93556">
        <ele>1133.4</ele>
        <time>2022-07-19T08:54:17Z</time>
      </trkpt>
      <trkpt lat="44.24634" lon="6.93552">
        <ele>1133.4</ele>
        <time>2022-07-19T08:54:18Z</time>
      </trkpt>
      <trkpt lat="44.24635" lon="6.93547">
        <ele>1133.4</ele>
        <time>2022-07-19T08:54:19Z</time>
      </trkpt>
      <trkpt lat="44.24637" lon="6.93542">
        <ele>1133.2</ele>
        <time>2022-07-19T08:54:20Z</time>
      </trkpt>
      <trkpt lat="44.24639" lon="6.93537">
        <ele>1133.2</ele>
        <time>2022-07-19T08:54:21Z</time>
      </trkpt>
      <trkpt lat="44.24641" lon="6.93531">
        <ele>1132.8</ele>
        <time>2022-07-19T08:54:22Z</time>
      </trkpt>
      <trkpt lat="44.24644" lon="6.93524">
        <ele>1132.6</ele>
        <time>2022-07-19T08:54:23Z</time>
      </trkpt>
      <trkpt lat="44.24649" lon="6.93518">
        <ele>1132.2</ele>
        <time>2022-07-19T08:54:24Z</time>
      </trkpt>
      <trkpt lat="44.24654" lon="6.93512">
        <ele>1131.8</ele>
        <time>2022-07-19T08:54:25Z</time>
      </trkpt>
      <trkpt lat="44.2466" lon="6.93506">
        <ele>1131.4</ele>
        <time>2022-07-19T08:54:26Z</time>
      </trkpt>
      <trkpt lat="44.24665" lon="6.93498">
        <ele>1130.8</ele>
        <time>2022-07-19T08:54:27Z</time>
      </trkpt>
      <trkpt lat="44.24672" lon="6.9349">
        <ele>1130.2</ele>
        <time>2022-07-19T08:54:28Z</time>
      </trkpt>
      <trkpt lat="44.24679" lon="6.93482">
        <ele>1129.2</ele>
        <time>2022-07-19T08:54:29Z</time>
      </trkpt>
      <trkpt lat="44.24688" lon="6.93472">
        <ele>1128.2</ele>
        <time>2022-07-19T08:54:30Z</time>
      </trkpt>
      <trkpt lat="44.24696" lon="6.93463">
        <ele>1127.2</ele>
        <time>2022-07-19T08:54:31Z</time>
      </trkpt>
      <trkpt lat="44.24703" lon="6.93454">
        <ele>1126</ele>
        <time>2022-07-19T08:54:32Z</time>
      </trkpt>
      <trkpt lat="44.2471" lon="6.93445">
        <ele>1125</ele>
        <time>2022-07-19T08:54:33Z</time>
      </trkpt>
      <trkpt lat="44.24717" lon="6.93438">
        <ele>1123.8</ele>
        <time>2022-07-19T08:54:34Z</time>
      </trkpt>
      <trkpt lat="44.24725" lon="6.9343">
        <ele>1122.6</ele>
        <time>2022-07-19T08:54:35Z</time>
      </trkpt>
      <trkpt lat="44.24733" lon="6.93422">
        <ele>1121.6</ele>
        <time>2022-07-19T08:54:36Z</time>
      </trkpt>
      <trkpt lat="44.24741" lon="6.93413">
        <ele>1120.6</ele>
        <time>2022-07-19T08:54:37Z</time>
      </trkpt>
      <trkpt lat="44.24746" lon="6.934">
        <ele>1119.6</ele>
        <time>2022-07-19T08:54:38Z</time>
      </trkpt>
      <trkpt lat="44.24751" lon="6.93388">
        <ele>1118.8</ele>
        <time>2022-07-19T08:54:39Z</time>
      </trkpt>
      <trkpt lat="44.24756" lon="6.93377">
        <ele>1117.8</ele>
        <time>2022-07-19T08:54:40Z</time>
      </trkpt>
      <trkpt lat="44.24762" lon="6.93367">
        <ele>1116.8</ele>
        <time>2022-07-19T08:54:41Z</time>
      </trkpt>
      <trkpt lat="44.24769" lon="6.93359">
        <ele>1115.8</ele>
        <time>2022-07-19T08:54:42Z</time>
      </trkpt>
      <trkpt lat="44.24776" lon="6.93353">
        <ele>1115</ele>
        <time>2022-07-19T08:54:43Z</time>
      </trkpt>
      <trkpt lat="44.24783" lon="6.93349">
        <ele>1114</ele>
        <time>2022-07-19T08:54:44Z</time>
      </trkpt>
      <trkpt lat="44.2479" lon="6.9335">
        <ele>1113.2</ele>
        <time>2022-07-19T08:54:45Z</time>
      </trkpt>
      <trkpt lat="44.24798" lon="6.93352">
        <ele>1112.4</ele>
        <time>2022-07-19T08:54:46Z</time>
      </trkpt>
      <trkpt lat="44.24806" lon="6.93355">
        <ele>1111.6</ele>
        <time>2022-07-19T08:54:47Z</time>
      </trkpt>
      <trkpt lat="44.24812" lon="6.93358">
        <ele>1111.2</ele>
        <time>2022-07-19T08:54:48Z</time>
      </trkpt>
      <trkpt lat="44.24819" lon="6.9336">
        <ele>1110.8</ele>
        <time>2022-07-19T08:54:49Z</time>
      </trkpt>
      <trkpt lat="44.24826" lon="6.9336">
        <ele>1110.4</ele>
        <time>2022-07-19T08:54:50Z</time>
      </trkpt>
      <trkpt lat="44.24833" lon="6.93359">
        <ele>1110.4</ele>
        <time>2022-07-19T08:54:51Z</time>
      </trkpt>
      <trkpt lat="44.24839" lon="6.93356">
        <ele>1110.2</ele>
        <time>2022-07-19T08:54:52Z</time>
      </trkpt>
      <trkpt lat="44.24845" lon="6.93351">
        <ele>1110.2</ele>
        <time>2022-07-19T08:54:53Z</time>
      </trkpt>
      <trkpt lat="44.24849" lon="6.93345">
        <ele>1110.2</ele>
        <time>2022-07-19T08:54:54Z</time>
      </trkpt>
      <trkpt lat="44.24854" lon="6.93339">
        <ele>1110.2</ele>
        <time>2022-07-19T08:54:55Z</time>
      </trkpt>
      <trkpt lat="44.24858" lon="6.93332">
        <ele>1110.2</ele>
        <time>2022-07-19T08:54:56Z</time>
      </trkpt>
      <trkpt lat="44.24862" lon="6.93325">
        <ele>1110.2</ele>
        <time>2022-07-19T08:54:57Z</time>
      </trkpt>
      <trkpt lat="44.24866" lon="6.9332">
        <ele>1110.4</ele>
        <time>2022-07-19T08:54:58Z</time>
      </trkpt>
      <trkpt lat="44.2487" lon="6.93315">
        <ele>1110.4</ele>
        <time>2022-07-19T08:54:59Z</time>
      </trkpt>
      <trkpt lat="44.24875" lon="6.93307">
        <ele>1110.6</ele>
        <time>2022-07-19T08:55:00Z</time>
      </trkpt>
      <trkpt lat="44.24877" lon="6.93304">
        <ele>1110.6</ele>
        <time>2022-07-19T08:55:01Z</time>
      </trkpt>
      <trkpt lat="44.24881" lon="6.93299">
        <ele>1110.8</ele>
        <time>2022-07-19T08:55:02Z</time>
      </trkpt>
      <trkpt lat="44.24885" lon="6.93295">
        <ele>1111</ele>
        <time>2022-07-19T08:55:03Z</time>
      </trkpt>
      <trkpt lat="44.24888" lon="6.9329">
        <ele>1111</ele>
        <time>2022-07-19T08:55:04Z</time>
      </trkpt>
      <trkpt lat="44.24891" lon="6.93286">
        <ele>1111.4</ele>
        <time>2022-07-19T08:55:05Z</time>
      </trkpt>
      <trkpt lat="44.24894" lon="6.93282">
        <ele>1111.6</ele>
        <time>2022-07-19T08:55:06Z</time>
      </trkpt>
      <trkpt lat="44.24897" lon="6.93277">
        <ele>1112</ele>
        <time>2022-07-19T08:55:07Z</time>
      </trkpt>
      <trkpt lat="44.24899" lon="6.93273">
        <ele>1112.2</ele>
        <time>2022-07-19T08:55:08Z</time>
      </trkpt>
      <trkpt lat="44.24902" lon="6.9327">
        <ele>1112.2</ele>
        <time>2022-07-19T08:55:09Z</time>
      </trkpt>
      <trkpt lat="44.24905" lon="6.93266">
        <ele>1112.6</ele>
        <time>2022-07-19T08:55:10Z</time>
      </trkpt>
      <trkpt lat="44.24907" lon="6.93262">
        <ele>1112.6</ele>
        <time>2022-07-19T08:55:11Z</time>
      </trkpt>
      <trkpt lat="44.2491" lon="6.93259">
        <ele>1112.8</ele>
        <time>2022-07-19T08:55:12Z</time>
      </trkpt>
      <trkpt lat="44.24912" lon="6.93255">
        <ele>1112.8</ele>
        <time>2022-07-19T08:55:13Z</time>
      </trkpt>
      <trkpt lat="44.24915" lon="6.93252">
        <ele>1113.2</ele>
        <time>2022-07-19T08:55:14Z</time>
      </trkpt>
      <trkpt lat="44.24917" lon="6.93248">
        <ele>1113.2</ele>
        <time>2022-07-19T08:55:15Z</time>
      </trkpt>
      <trkpt lat="44.2492" lon="6.93244">
        <ele>1113.4</ele>
        <time>2022-07-19T08:55:16Z</time>
      </trkpt>
      <trkpt lat="44.24923" lon="6.9324">
        <ele>1113.4</ele>
        <time>2022-07-19T08:55:17Z</time>
      </trkpt>
      <trkpt lat="44.24925" lon="6.93236">
        <ele>1113.6</ele>
        <time>2022-07-19T08:55:18Z</time>
      </trkpt>
      <trkpt lat="44.24928" lon="6.93232">
        <ele>1113.8</ele>
        <time>2022-07-19T08:55:19Z</time>
      </trkpt>
      <trkpt lat="44.24931" lon="6.93228">
        <ele>1114</ele>
        <time>2022-07-19T08:55:20Z</time>
      </trkpt>
      <trkpt lat="44.24934" lon="6.93225">
        <ele>1114.4</ele>
        <time>2022-07-19T08:55:21Z</time>
      </trkpt>
      <trkpt lat="44.24936" lon="6.93222">
        <ele>1114.6</ele>
        <time>2022-07-19T08:55:22Z</time>
      </trkpt>
      <trkpt lat="44.24939" lon="6.93219">
        <ele>1115</ele>
        <time>2022-07-19T08:55:23Z</time>
      </trkpt>
      <trkpt lat="44.24942" lon="6.93217">
        <ele>1115</ele>
        <time>2022-07-19T08:55:24Z</time>
      </trkpt>
      <trkpt lat="44.24944" lon="6.93215">
        <ele>1115.4</ele>
        <time>2022-07-19T08:55:25Z</time>
      </trkpt>
      <trkpt lat="44.24947" lon="6.93213">
        <ele>1115.6</ele>
        <time>2022-07-19T08:55:26Z</time>
      </trkpt>
      <trkpt lat="44.2495" lon="6.93211">
        <ele>1116</ele>
        <time>2022-07-19T08:55:27Z</time>
      </trkpt>
      <trkpt lat="44.24952" lon="6.93208">
        <ele>1116.2</ele>
        <time>2022-07-19T08:55:28Z</time>
      </trkpt>
      <trkpt lat="44.24955" lon="6.93206">
        <ele>1116.2</ele>
        <time>2022-07-19T08:55:29Z</time>
      </trkpt>
      <trkpt lat="44.24958" lon="6.93204">
        <ele>1116.6</ele>
        <time>2022-07-19T08:55:30Z</time>
      </trkpt>
      <trkpt lat="44.24961" lon="6.93202">
        <ele>1116.6</ele>
        <time>2022-07-19T08:55:31Z</time>
      </trkpt>
      <trkpt lat="44.24964" lon="6.93199">
        <ele>1116.8</ele>
        <time>2022-07-19T08:55:32Z</time>
      </trkpt>
      <trkpt lat="44.24967" lon="6.93197">
        <ele>1116.8</ele>
        <time>2022-07-19T08:55:33Z</time>
      </trkpt>
      <trkpt lat="44.2497" lon="6.93195">
        <ele>1117</ele>
        <time>2022-07-19T08:55:34Z</time>
      </trkpt>
      <trkpt lat="44.24973" lon="6.93193">
        <ele>1117</ele>
        <time>2022-07-19T08:55:35Z</time>
      </trkpt>
      <trkpt lat="44.24975" lon="6.9319">
        <ele>1117.4</ele>
        <time>2022-07-19T08:55:36Z</time>
      </trkpt>
      <trkpt lat="44.24978" lon="6.93188">
        <ele>1117.4</ele>
        <time>2022-07-19T08:55:37Z</time>
      </trkpt>
      <trkpt lat="44.24981" lon="6.93186">
        <ele>1117.6</ele>
        <time>2022-07-19T08:55:38Z</time>
      </trkpt>
      <trkpt lat="44.24983" lon="6.93184">
        <ele>1117.6</ele>
        <time>2022-07-19T08:55:39Z</time>
      </trkpt>
      <trkpt lat="44.24986" lon="6.93182">
        <ele>1118</ele>
        <time>2022-07-19T08:55:40Z</time>
      </trkpt>
      <trkpt lat="44.24989" lon="6.9318">
        <ele>1118</ele>
        <time>2022-07-19T08:55:41Z</time>
      </trkpt>
      <trkpt lat="44.24991" lon="6.93178">
        <ele>1118.2</ele>
        <time>2022-07-19T08:55:42Z</time>
      </trkpt>
      <trkpt lat="44.24994" lon="6.93177">
        <ele>1118.2</ele>
        <time>2022-07-19T08:55:43Z</time>
      </trkpt>
      <trkpt lat="44.24996" lon="6.93175">
        <ele>1118.2</ele>
        <time>2022-07-19T08:55:44Z</time>
      </trkpt>
      <trkpt lat="44.24999" lon="6.93173">
        <ele>1118.6</ele>
        <time>2022-07-19T08:55:45Z</time>
      </trkpt>
      <trkpt lat="44.25001" lon="6.9317">
        <ele>1118.6</ele>
        <time>2022-07-19T08:55:46Z</time>
      </trkpt>
      <trkpt lat="44.25004" lon="6.93168">
        <ele>1119</ele>
        <time>2022-07-19T08:55:47Z</time>
      </trkpt>
      <trkpt lat="44.25009" lon="6.93164">
        <ele>1119</ele>
        <time>2022-07-19T08:55:48Z</time>
      </trkpt>
      <trkpt lat="44.25012" lon="6.93162">
        <ele>1119.4</ele>
        <time>2022-07-19T08:55:49Z</time>
      </trkpt>
      <trkpt lat="44.25014" lon="6.93161">
        <ele>1119.4</ele>
        <time>2022-07-19T08:55:50Z</time>
      </trkpt>
      <trkpt lat="44.25017" lon="6.93161">
        <ele>1119.6</ele>
        <time>2022-07-19T08:55:51Z</time>
      </trkpt>
      <trkpt lat="44.2502" lon="6.93162">
        <ele>1119.6</ele>
        <time>2022-07-19T08:55:52Z</time>
      </trkpt>
      <trkpt lat="44.25023" lon="6.93163">
        <ele>1119.6</ele>
        <time>2022-07-19T08:55:53Z</time>
      </trkpt>
      <trkpt lat="44.25026" lon="6.93166">
        <ele>1120</ele>
        <time>2022-07-19T08:55:54Z</time>
      </trkpt>
      <trkpt lat="44.25029" lon="6.93169">
        <ele>1120</ele>
        <time>2022-07-19T08:55:55Z</time>
      </trkpt>
      <trkpt lat="44.25032" lon="6.93173">
        <ele>1120</ele>
        <time>2022-07-19T08:55:56Z</time>
      </trkpt>
      <trkpt lat="44.25035" lon="6.93176">
        <ele>1120</ele>
        <time>2022-07-19T08:55:57Z</time>
      </trkpt>
      <trkpt lat="44.25038" lon="6.93179">
        <ele>1120</ele>
        <time>2022-07-19T08:55:58Z</time>
      </trkpt>
      <trkpt lat="44.25042" lon="6.93183">
        <ele>1120</ele>
        <time>2022-07-19T08:55:59Z</time>
      </trkpt>
      <trkpt lat="44.25046" lon="6.93187">
        <ele>1119.8</ele>
        <time>2022-07-19T08:56:00Z</time>
      </trkpt>
      <trkpt lat="44.2505" lon="6.93191">
        <ele>1119.8</ele>
        <time>2022-07-19T08:56:01Z</time>
      </trkpt>
      <trkpt lat="44.25054" lon="6.93196">
        <ele>1119.4</ele>
        <time>2022-07-19T08:56:02Z</time>
      </trkpt>
      <trkpt lat="44.25058" lon="6.93202">
        <ele>1119.2</ele>
        <time>2022-07-19T08:56:03Z</time>
      </trkpt>
      <trkpt lat="44.25062" lon="6.93208">
        <ele>1118.8</ele>
        <time>2022-07-19T08:56:04Z</time>
      </trkpt>
      <trkpt lat="44.25066" lon="6.93214">
        <ele>1118.4</ele>
        <time>2022-07-19T08:56:05Z</time>
      </trkpt>
      <trkpt lat="44.2507" lon="6.93217">
        <ele>1118.2</ele>
        <time>2022-07-19T08:56:06Z</time>
      </trkpt>
      <trkpt lat="44.25075" lon="6.93216">
        <ele>1117.8</ele>
        <time>2022-07-19T08:56:07Z</time>
      </trkpt>
      <trkpt lat="44.25079" lon="6.93212">
        <ele>1117.4</ele>
        <time>2022-07-19T08:56:08Z</time>
      </trkpt>
      <trkpt lat="44.25083" lon="6.93206">
        <ele>1117.2</ele>
        <time>2022-07-19T08:56:09Z</time>
      </trkpt>
      <trkpt lat="44.25086" lon="6.93198">
        <ele>1116.8</ele>
        <time>2022-07-19T08:56:10Z</time>
      </trkpt>
      <trkpt lat="44.25089" lon="6.9319">
        <ele>1116.6</ele>
        <time>2022-07-19T08:56:11Z</time>
      </trkpt>
      <trkpt lat="44.25092" lon="6.93182">
        <ele>1116.4</ele>
        <time>2022-07-19T08:56:12Z</time>
      </trkpt>
      <trkpt lat="44.25095" lon="6.93174">
        <ele>1116.4</ele>
        <time>2022-07-19T08:56:13Z</time>
      </trkpt>
      <trkpt lat="44.25098" lon="6.93167">
        <ele>1116.4</ele>
        <time>2022-07-19T08:56:14Z</time>
      </trkpt>
      <trkpt lat="44.25101" lon="6.93161">
        <ele>1116.4</ele>
        <time>2022-07-19T08:56:15Z</time>
      </trkpt>
      <trkpt lat="44.25104" lon="6.93155">
        <ele>1116.4</ele>
        <time>2022-07-19T08:56:16Z</time>
      </trkpt>
      <trkpt lat="44.25106" lon="6.93149">
        <ele>1116.4</ele>
        <time>2022-07-19T08:56:17Z</time>
      </trkpt>
      <trkpt lat="44.25108" lon="6.93143">
        <ele>1116.6</ele>
        <time>2022-07-19T08:56:19Z</time>
      </trkpt>
      <trkpt lat="44.2511" lon="6.93138">
        <ele>1117</ele>
        <time>2022-07-19T08:56:20Z</time>
      </trkpt>
      <trkpt lat="44.25113" lon="6.93133">
        <ele>1117</ele>
        <time>2022-07-19T08:56:21Z</time>
      </trkpt>
      <trkpt lat="44.25115" lon="6.93129">
        <ele>1117.4</ele>
        <time>2022-07-19T08:56:22Z</time>
      </trkpt>
      <trkpt lat="44.25118" lon="6.93125">
        <ele>1117.4</ele>
        <time>2022-07-19T08:56:23Z</time>
      </trkpt>
      <trkpt lat="44.2512" lon="6.93121">
        <ele>1117.6</ele>
        <time>2022-07-19T08:56:24Z</time>
      </trkpt>
      <trkpt lat="44.25123" lon="6.93116">
        <ele>1117.6</ele>
        <time>2022-07-19T08:56:25Z</time>
      </trkpt>
      <trkpt lat="44.25125" lon="6.93113">
        <ele>1118</ele>
        <time>2022-07-19T08:56:26Z</time>
      </trkpt>
      <trkpt lat="44.25127" lon="6.93109">
        <ele>1118</ele>
        <time>2022-07-19T08:56:27Z</time>
      </trkpt>
      <trkpt lat="44.25129" lon="6.93105">
        <ele>1118.4</ele>
        <time>2022-07-19T08:56:28Z</time>
      </trkpt>
      <trkpt lat="44.25131" lon="6.93101">
        <ele>1118.4</ele>
        <time>2022-07-19T08:56:29Z</time>
      </trkpt>
      <trkpt lat="44.25133" lon="6.93097">
        <ele>1118.8</ele>
        <time>2022-07-19T08:56:30Z</time>
      </trkpt>
      <trkpt lat="44.25136" lon="6.93094">
        <ele>1119</ele>
        <time>2022-07-19T08:56:31Z</time>
      </trkpt>
      <trkpt lat="44.25138" lon="6.9309">
        <ele>1119.2</ele>
        <time>2022-07-19T08:56:32Z</time>
      </trkpt>
      <trkpt lat="44.25141" lon="6.93086">
        <ele>1119.2</ele>
        <time>2022-07-19T08:56:33Z</time>
      </trkpt>
      <trkpt lat="44.25144" lon="6.93083">
        <ele>1119.6</ele>
        <time>2022-07-19T08:56:34Z</time>
      </trkpt>
      <trkpt lat="44.25146" lon="6.93079">
        <ele>1119.8</ele>
        <time>2022-07-19T08:56:35Z</time>
      </trkpt>
      <trkpt lat="44.25149" lon="6.93075">
        <ele>1120</ele>
        <time>2022-07-19T08:56:36Z</time>
      </trkpt>
      <trkpt lat="44.25151" lon="6.93071">
        <ele>1120</ele>
        <time>2022-07-19T08:56:37Z</time>
      </trkpt>
      <trkpt lat="44.25154" lon="6.93067">
        <ele>1120.4</ele>
        <time>2022-07-19T08:56:38Z</time>
      </trkpt>
      <trkpt lat="44.25157" lon="6.93063">
        <ele>1120.4</ele>
        <time>2022-07-19T08:56:39Z</time>
      </trkpt>
      <trkpt lat="44.25159" lon="6.93059">
        <ele>1120.8</ele>
        <time>2022-07-19T08:56:40Z</time>
      </trkpt>
      <trkpt lat="44.25162" lon="6.93055">
        <ele>1120.8</ele>
        <time>2022-07-19T08:56:41Z</time>
      </trkpt>
      <trkpt lat="44.25164" lon="6.9305">
        <ele>1121.2</ele>
        <time>2022-07-19T08:56:42Z</time>
      </trkpt>
      <trkpt lat="44.25166" lon="6.93045">
        <ele>1121.4</ele>
        <time>2022-07-19T08:56:43Z</time>
      </trkpt>
      <trkpt lat="44.25167" lon="6.93039">
        <ele>1121.4</ele>
        <time>2022-07-19T08:56:44Z</time>
      </trkpt>
      <trkpt lat="44.25169" lon="6.93034">
        <ele>1121.8</ele>
        <time>2022-07-19T08:56:45Z</time>
      </trkpt>
      <trkpt lat="44.25171" lon="6.93028">
        <ele>1121.8</ele>
        <time>2022-07-19T08:56:46Z</time>
      </trkpt>
      <trkpt lat="44.25173" lon="6.93023">
        <ele>1122.2</ele>
        <time>2022-07-19T08:56:47Z</time>
      </trkpt>
      <trkpt lat="44.25176" lon="6.93018">
        <ele>1122.2</ele>
        <time>2022-07-19T08:56:48Z</time>
      </trkpt>
      <trkpt lat="44.25178" lon="6.93014">
        <ele>1122.6</ele>
        <time>2022-07-19T08:56:49Z</time>
      </trkpt>
      <trkpt lat="44.25181" lon="6.9301">
        <ele>1122.6</ele>
        <time>2022-07-19T08:56:50Z</time>
      </trkpt>
      <trkpt lat="44.25184" lon="6.93007">
        <ele>1123</ele>
        <time>2022-07-19T08:56:51Z</time>
      </trkpt>
      <trkpt lat="44.25187" lon="6.93003">
        <ele>1123</ele>
        <time>2022-07-19T08:56:52Z</time>
      </trkpt>
      <trkpt lat="44.2519" lon="6.92999">
        <ele>1123.2</ele>
        <time>2022-07-19T08:56:53Z</time>
      </trkpt>
      <trkpt lat="44.25192" lon="6.92995">
        <ele>1123.2</ele>
        <time>2022-07-19T08:56:54Z</time>
      </trkpt>
      <trkpt lat="44.25195" lon="6.92992">
        <ele>1123.6</ele>
        <time>2022-07-19T08:56:55Z</time>
      </trkpt>
      <trkpt lat="44.25198" lon="6.92989">
        <ele>1123.8</ele>
        <time>2022-07-19T08:56:56Z</time>
      </trkpt>
      <trkpt lat="44.252" lon="6.92986">
        <ele>1123.8</ele>
        <time>2022-07-19T08:56:57Z</time>
      </trkpt>
      <trkpt lat="44.25203" lon="6.92982">
        <ele>1124.2</ele>
        <time>2022-07-19T08:56:58Z</time>
      </trkpt>
      <trkpt lat="44.25206" lon="6.92979">
        <ele>1124.2</ele>
        <time>2022-07-19T08:56:59Z</time>
      </trkpt>
      <trkpt lat="44.25208" lon="6.92975">
        <ele>1124.6</ele>
        <time>2022-07-19T08:57:00Z</time>
      </trkpt>
      <trkpt lat="44.25211" lon="6.92972">
        <ele>1124.6</ele>
        <time>2022-07-19T08:57:01Z</time>
      </trkpt>
      <trkpt lat="44.25213" lon="6.92968">
        <ele>1124.8</ele>
        <time>2022-07-19T08:57:02Z</time>
      </trkpt>
      <trkpt lat="44.25216" lon="6.92965">
        <ele>1125</ele>
        <time>2022-07-19T08:57:03Z</time>
      </trkpt>
      <trkpt lat="44.25218" lon="6.92961">
        <ele>1125</ele>
        <time>2022-07-19T08:57:04Z</time>
      </trkpt>
      <trkpt lat="44.25219" lon="6.92956">
        <ele>1125.4</ele>
        <time>2022-07-19T08:57:05Z</time>
      </trkpt>
      <trkpt lat="44.25221" lon="6.92952">
        <ele>1125.6</ele>
        <time>2022-07-19T08:57:06Z</time>
      </trkpt>
      <trkpt lat="44.25223" lon="6.92947">
        <ele>1125.6</ele>
        <time>2022-07-19T08:57:07Z</time>
      </trkpt>
      <trkpt lat="44.25224" lon="6.92942">
        <ele>1125.8</ele>
        <time>2022-07-19T08:57:08Z</time>
      </trkpt>
      <trkpt lat="44.25226" lon="6.92938">
        <ele>1125.8</ele>
        <time>2022-07-19T08:57:09Z</time>
      </trkpt>
      <trkpt lat="44.25228" lon="6.92933">
        <ele>1126.2</ele>
        <time>2022-07-19T08:57:10Z</time>
      </trkpt>
      <trkpt lat="44.25231" lon="6.92929">
        <ele>1126.2</ele>
        <time>2022-07-19T08:57:11Z</time>
      </trkpt>
      <trkpt lat="44.25233" lon="6.92925">
        <ele>1126.4</ele>
        <time>2022-07-19T08:57:12Z</time>
      </trkpt>
      <trkpt lat="44.25236" lon="6.92922">
        <ele>1126.4</ele>
        <time>2022-07-19T08:57:13Z</time>
      </trkpt>
      <trkpt lat="44.25239" lon="6.92918">
        <ele>1126.6</ele>
        <time>2022-07-19T08:57:14Z</time>
      </trkpt>
      <trkpt lat="44.25241" lon="6.92914">
        <ele>1126.8</ele>
        <time>2022-07-19T08:57:15Z</time>
      </trkpt>
      <trkpt lat="44.25244" lon="6.92911">
        <ele>1126.8</ele>
        <time>2022-07-19T08:57:16Z</time>
      </trkpt>
      <trkpt lat="44.25247" lon="6.92908">
        <ele>1127.2</ele>
        <time>2022-07-19T08:57:17Z</time>
      </trkpt>
      <trkpt lat="44.2525" lon="6.92905">
        <ele>1127.2</ele>
        <time>2022-07-19T08:57:18Z</time>
      </trkpt>
      <trkpt lat="44.25253" lon="6.92902">
        <ele>1127.6</ele>
        <time>2022-07-19T08:57:19Z</time>
      </trkpt>
      <trkpt lat="44.25255" lon="6.929">
        <ele>1127.6</ele>
        <time>2022-07-19T08:57:20Z</time>
      </trkpt>
      <trkpt lat="44.25258" lon="6.92897">
        <ele>1127.8</ele>
        <time>2022-07-19T08:57:21Z</time>
      </trkpt>
      <trkpt lat="44.2526" lon="6.92895">
        <ele>1127.8</ele>
        <time>2022-07-19T08:57:22Z</time>
      </trkpt>
      <trkpt lat="44.25263" lon="6.92893">
        <ele>1128.2</ele>
        <time>2022-07-19T08:57:23Z</time>
      </trkpt>
      <trkpt lat="44.25265" lon="6.92891">
        <ele>1128.4</ele>
        <time>2022-07-19T08:57:24Z</time>
      </trkpt>
      <trkpt lat="44.25268" lon="6.92888">
        <ele>1128.4</ele>
        <time>2022-07-19T08:57:25Z</time>
      </trkpt>
      <trkpt lat="44.2527" lon="6.92885">
        <ele>1128.6</ele>
        <time>2022-07-19T08:57:26Z</time>
      </trkpt>
      <trkpt lat="44.25272" lon="6.92883">
        <ele>1128.6</ele>
        <time>2022-07-19T08:57:27Z</time>
      </trkpt>
      <trkpt lat="44.25274" lon="6.9288">
        <ele>1129</ele>
        <time>2022-07-19T08:57:28Z</time>
      </trkpt>
      <trkpt lat="44.25276" lon="6.92877">
        <ele>1129</ele>
        <time>2022-07-19T08:57:29Z</time>
      </trkpt>
      <trkpt lat="44.25278" lon="6.92874">
        <ele>1129.2</ele>
        <time>2022-07-19T08:57:30Z</time>
      </trkpt>
      <trkpt lat="44.25281" lon="6.92871">
        <ele>1129.2</ele>
        <time>2022-07-19T08:57:31Z</time>
      </trkpt>
      <trkpt lat="44.25283" lon="6.92868">
        <ele>1129.6</ele>
        <time>2022-07-19T08:57:32Z</time>
      </trkpt>
      <trkpt lat="44.25285" lon="6.92865">
        <ele>1129.6</ele>
        <time>2022-07-19T08:57:33Z</time>
      </trkpt>
      <trkpt lat="44.25288" lon="6.92861">
        <ele>1129.8</ele>
        <time>2022-07-19T08:57:34Z</time>
      </trkpt>
      <trkpt lat="44.2529" lon="6.92858">
        <ele>1130</ele>
        <time>2022-07-19T08:57:35Z</time>
      </trkpt>
      <trkpt lat="44.25292" lon="6.92854">
        <ele>1130</ele>
        <time>2022-07-19T08:57:36Z</time>
      </trkpt>
      <trkpt lat="44.25294" lon="6.9285">
        <ele>1130.2</ele>
        <time>2022-07-19T08:57:37Z</time>
      </trkpt>
      <trkpt lat="44.25296" lon="6.92847">
        <ele>1130.2</ele>
        <time>2022-07-19T08:57:38Z</time>
      </trkpt>
      <trkpt lat="44.25298" lon="6.92843">
        <ele>1130.4</ele>
        <time>2022-07-19T08:57:39Z</time>
      </trkpt>
      <trkpt lat="44.253" lon="6.9284">
        <ele>1130.4</ele>
        <time>2022-07-19T08:57:40Z</time>
      </trkpt>
      <trkpt lat="44.25303" lon="6.92836">
        <ele>1130.6</ele>
        <time>2022-07-19T08:57:41Z</time>
      </trkpt>
      <trkpt lat="44.25305" lon="6.92832">
        <ele>1130.6</ele>
        <time>2022-07-19T08:57:42Z</time>
      </trkpt>
      <trkpt lat="44.25307" lon="6.92829">
        <ele>1130.6</ele>
        <time>2022-07-19T08:57:43Z</time>
      </trkpt>
      <trkpt lat="44.25309" lon="6.92825">
        <ele>1131</ele>
        <time>2022-07-19T08:57:44Z</time>
      </trkpt>
      <trkpt lat="44.25311" lon="6.92821">
        <ele>1131</ele>
        <time>2022-07-19T08:57:45Z</time>
      </trkpt>
      <trkpt lat="44.25314" lon="6.92818">
        <ele>1131</ele>
        <time>2022-07-19T08:57:46Z</time>
      </trkpt>
      <trkpt lat="44.25317" lon="6.92815">
        <ele>1131.2</ele>
        <time>2022-07-19T08:57:47Z</time>
      </trkpt>
      <trkpt lat="44.25319" lon="6.92811">
        <ele>1131.2</ele>
        <time>2022-07-19T08:57:48Z</time>
      </trkpt>
      <trkpt lat="44.25322" lon="6.92808">
        <ele>1131.2</ele>
        <time>2022-07-19T08:57:49Z</time>
      </trkpt>
      <trkpt lat="44.25325" lon="6.92805">
        <ele>1131.4</ele>
        <time>2022-07-19T08:57:50Z</time>
      </trkpt>
      <trkpt lat="44.25328" lon="6.92801">
        <ele>1131.4</ele>
        <time>2022-07-19T08:57:51Z</time>
      </trkpt>
      <trkpt lat="44.2533" lon="6.92797">
        <ele>1131.4</ele>
        <time>2022-07-19T08:57:52Z</time>
      </trkpt>
      <trkpt lat="44.25333" lon="6.92794">
        <ele>1131.4</ele>
        <time>2022-07-19T08:57:53Z</time>
      </trkpt>
      <trkpt lat="44.25336" lon="6.9279">
        <ele>1131.8</ele>
        <time>2022-07-19T08:57:54Z</time>
      </trkpt>
      <trkpt lat="44.25339" lon="6.92786">
        <ele>1131.8</ele>
        <time>2022-07-19T08:57:55Z</time>
      </trkpt>
      <trkpt lat="44.25342" lon="6.92783">
        <ele>1131.8</ele>
        <time>2022-07-19T08:57:56Z</time>
      </trkpt>
      <trkpt lat="44.25345" lon="6.92779">
        <ele>1132</ele>
        <time>2022-07-19T08:57:57Z</time>
      </trkpt>
      <trkpt lat="44.25348" lon="6.92776">
        <ele>1132</ele>
        <time>2022-07-19T08:57:58Z</time>
      </trkpt>
      <trkpt lat="44.25351" lon="6.92773">
        <ele>1132</ele>
        <time>2022-07-19T08:57:59Z</time>
      </trkpt>
      <trkpt lat="44.25354" lon="6.9277">
        <ele>1132.2</ele>
        <time>2022-07-19T08:58:00Z</time>
      </trkpt>
      <trkpt lat="44.25358" lon="6.92768">
        <ele>1132.2</ele>
        <time>2022-07-19T08:58:01Z</time>
      </trkpt>
      <trkpt lat="44.25362" lon="6.92766">
        <ele>1132.2</ele>
        <time>2022-07-19T08:58:02Z</time>
      </trkpt>
      <trkpt lat="44.25366" lon="6.92764">
        <ele>1132.2</ele>
        <time>2022-07-19T08:58:03Z</time>
      </trkpt>
      <trkpt lat="44.2537" lon="6.92762">
        <ele>1132.2</ele>
        <time>2022-07-19T08:58:04Z</time>
      </trkpt>
      <trkpt lat="44.25373" lon="6.92761">
        <ele>1132.2</ele>
        <time>2022-07-19T08:58:05Z</time>
      </trkpt>
      <trkpt lat="44.25377" lon="6.92759">
        <ele>1132.4</ele>
        <time>2022-07-19T08:58:06Z</time>
      </trkpt>
      <trkpt lat="44.25381" lon="6.92758">
        <ele>1132.4</ele>
        <time>2022-07-19T08:58:07Z</time>
      </trkpt>
      <trkpt lat="44.25385" lon="6.92757">
        <ele>1132.4</ele>
        <time>2022-07-19T08:58:08Z</time>
      </trkpt>
      <trkpt lat="44.25389" lon="6.92756">
        <ele>1132.8</ele>
        <time>2022-07-19T08:58:09Z</time>
      </trkpt>
      <trkpt lat="44.25393" lon="6.92756">
        <ele>1132.8</ele>
        <time>2022-07-19T08:58:10Z</time>
      </trkpt>
      <trkpt lat="44.25398" lon="6.92755">
        <ele>1132.8</ele>
        <time>2022-07-19T08:58:11Z</time>
      </trkpt>
      <trkpt lat="44.25401" lon="6.92754">
        <ele>1132.8</ele>
        <time>2022-07-19T08:58:12Z</time>
      </trkpt>
      <trkpt lat="44.25405" lon="6.92754">
        <ele>1132.8</ele>
        <time>2022-07-19T08:58:13Z</time>
      </trkpt>
      <trkpt lat="44.25409" lon="6.92752">
        <ele>1133</ele>
        <time>2022-07-19T08:58:14Z</time>
      </trkpt>
      <trkpt lat="44.25413" lon="6.92751">
        <ele>1133</ele>
        <time>2022-07-19T08:58:15Z</time>
      </trkpt>
      <trkpt lat="44.25417" lon="6.92749">
        <ele>1133</ele>
        <time>2022-07-19T08:58:16Z</time>
      </trkpt>
      <trkpt lat="44.25421" lon="6.92747">
        <ele>1133</ele>
        <time>2022-07-19T08:58:17Z</time>
      </trkpt>
      <trkpt lat="44.25425" lon="6.92745">
        <ele>1133.2</ele>
        <time>2022-07-19T08:58:18Z</time>
      </trkpt>
      <trkpt lat="44.25429" lon="6.92742">
        <ele>1133.2</ele>
        <time>2022-07-19T08:58:19Z</time>
      </trkpt>
      <trkpt lat="44.25433" lon="6.9274">
        <ele>1133.2</ele>
        <time>2022-07-19T08:58:20Z</time>
      </trkpt>
      <trkpt lat="44.25437" lon="6.92737">
        <ele>1133.2</ele>
        <time>2022-07-19T08:58:21Z</time>
      </trkpt>
      <trkpt lat="44.25441" lon="6.92734">
        <ele>1133.2</ele>
        <time>2022-07-19T08:58:22Z</time>
      </trkpt>
      <trkpt lat="44.25444" lon="6.92731">
        <ele>1133.2</ele>
        <time>2022-07-19T08:58:23Z</time>
      </trkpt>
      <trkpt lat="44.25448" lon="6.92728">
        <ele>1133.4</ele>
        <time>2022-07-19T08:58:24Z</time>
      </trkpt>
      <trkpt lat="44.25451" lon="6.92725">
        <ele>1133.4</ele>
        <time>2022-07-19T08:58:25Z</time>
      </trkpt>
      <trkpt lat="44.25455" lon="6.92722">
        <ele>1133.4</ele>
        <time>2022-07-19T08:58:26Z</time>
      </trkpt>
      <trkpt lat="44.25458" lon="6.9272">
        <ele>1133.8</ele>
        <time>2022-07-19T08:58:27Z</time>
      </trkpt>
      <trkpt lat="44.25461" lon="6.92716">
        <ele>1133.8</ele>
        <time>2022-07-19T08:58:28Z</time>
      </trkpt>
      <trkpt lat="44.25464" lon="6.92713">
        <ele>1134</ele>
        <time>2022-07-19T08:58:29Z</time>
      </trkpt>
      <trkpt lat="44.25467" lon="6.92711">
        <ele>1134</ele>
        <time>2022-07-19T08:58:30Z</time>
      </trkpt>
      <trkpt lat="44.2547" lon="6.92708">
        <ele>1134</ele>
        <time>2022-07-19T08:58:31Z</time>
      </trkpt>
      <trkpt lat="44.25473" lon="6.92705">
        <ele>1134.4</ele>
        <time>2022-07-19T08:58:32Z</time>
      </trkpt>
      <trkpt lat="44.25475" lon="6.92702">
        <ele>1134.4</ele>
        <time>2022-07-19T08:58:33Z</time>
      </trkpt>
      <trkpt lat="44.25478" lon="6.92699">
        <ele>1134.8</ele>
        <time>2022-07-19T08:58:34Z</time>
      </trkpt>
      <trkpt lat="44.25481" lon="6.92696">
        <ele>1134.8</ele>
        <time>2022-07-19T08:58:35Z</time>
      </trkpt>
      <trkpt lat="44.25484" lon="6.92693">
        <ele>1134.8</ele>
        <time>2022-07-19T08:58:36Z</time>
      </trkpt>
      <trkpt lat="44.25487" lon="6.92691">
        <ele>1135</ele>
        <time>2022-07-19T08:58:37Z</time>
      </trkpt>
      <trkpt lat="44.2549" lon="6.92688">
        <ele>1135</ele>
        <time>2022-07-19T08:58:38Z</time>
      </trkpt>
      <trkpt lat="44.25493" lon="6.92685">
        <ele>1135.4</ele>
        <time>2022-07-19T08:58:39Z</time>
      </trkpt>
      <trkpt lat="44.25496" lon="6.92682">
        <ele>1135.4</ele>
        <time>2022-07-19T08:58:40Z</time>
      </trkpt>
      <trkpt lat="44.25499" lon="6.92679">
        <ele>1135.6</ele>
        <time>2022-07-19T08:58:41Z</time>
      </trkpt>
      <trkpt lat="44.25502" lon="6.92676">
        <ele>1135.6</ele>
        <time>2022-07-19T08:58:42Z</time>
      </trkpt>
      <trkpt lat="44.25505" lon="6.92674">
        <ele>1135.6</ele>
        <time>2022-07-19T08:58:43Z</time>
      </trkpt>
      <trkpt lat="44.25508" lon="6.92671">
        <ele>1135.8</ele>
        <time>2022-07-19T08:58:44Z</time>
      </trkpt>
      <trkpt lat="44.2551" lon="6.92667">
        <ele>1135.8</ele>
        <time>2022-07-19T08:58:45Z</time>
      </trkpt>
      <trkpt lat="44.25513" lon="6.92664">
        <ele>1136.2</ele>
        <time>2022-07-19T08:58:46Z</time>
      </trkpt>
      <trkpt lat="44.25516" lon="6.92662">
        <ele>1136.2</ele>
        <time>2022-07-19T08:58:47Z</time>
      </trkpt>
      <trkpt lat="44.25519" lon="6.9266">
        <ele>1136.4</ele>
        <time>2022-07-19T08:58:48Z</time>
      </trkpt>
      <trkpt lat="44.25522" lon="6.92658">
        <ele>1136.4</ele>
        <time>2022-07-19T08:58:49Z</time>
      </trkpt>
      <trkpt lat="44.25525" lon="6.92654">
        <ele>1136.6</ele>
        <time>2022-07-19T08:58:50Z</time>
      </trkpt>
      <trkpt lat="44.25528" lon="6.92652">
        <ele>1136.6</ele>
        <time>2022-07-19T08:58:51Z</time>
      </trkpt>
      <trkpt lat="44.2553" lon="6.92649">
        <ele>1136.6</ele>
        <time>2022-07-19T08:58:52Z</time>
      </trkpt>
      <trkpt lat="44.25533" lon="6.92645">
        <ele>1137</ele>
        <time>2022-07-19T08:58:53Z</time>
      </trkpt>
      <trkpt lat="44.25535" lon="6.92642">
        <ele>1137</ele>
        <time>2022-07-19T08:58:54Z</time>
      </trkpt>
      <trkpt lat="44.25537" lon="6.92638">
        <ele>1137.2</ele>
        <time>2022-07-19T08:58:55Z</time>
      </trkpt>
      <trkpt lat="44.2554" lon="6.92634">
        <ele>1137.2</ele>
        <time>2022-07-19T08:58:56Z</time>
      </trkpt>
      <trkpt lat="44.25542" lon="6.9263">
        <ele>1137.4</ele>
        <time>2022-07-19T08:58:57Z</time>
      </trkpt>
      <trkpt lat="44.25544" lon="6.92626">
        <ele>1137.4</ele>
        <time>2022-07-19T08:58:58Z</time>
      </trkpt>
      <trkpt lat="44.25546" lon="6.92622">
        <ele>1137.8</ele>
        <time>2022-07-19T08:58:59Z</time>
      </trkpt>
      <trkpt lat="44.25547" lon="6.92618">
        <ele>1138</ele>
        <time>2022-07-19T08:59:00Z</time>
      </trkpt>
      <trkpt lat="44.25549" lon="6.92614">
        <ele>1138</ele>
        <time>2022-07-19T08:59:01Z</time>
      </trkpt>
      <trkpt lat="44.2555" lon="6.9261">
        <ele>1138.2</ele>
        <time>2022-07-19T08:59:02Z</time>
      </trkpt>
      <trkpt lat="44.25551" lon="6.92606">
        <ele>1138.2</ele>
        <time>2022-07-19T08:59:03Z</time>
      </trkpt>
      <trkpt lat="44.25553" lon="6.92603">
        <ele>1138.6</ele>
        <time>2022-07-19T08:59:04Z</time>
      </trkpt>
      <trkpt lat="44.25554" lon="6.92599">
        <ele>1138.6</ele>
        <time>2022-07-19T08:59:05Z</time>
      </trkpt>
      <trkpt lat="44.25555" lon="6.92596">
        <ele>1138.8</ele>
        <time>2022-07-19T08:59:06Z</time>
      </trkpt>
      <trkpt lat="44.25556" lon="6.92593">
        <ele>1138.8</ele>
        <time>2022-07-19T08:59:07Z</time>
      </trkpt>
      <trkpt lat="44.25558" lon="6.9259">
        <ele>1138.8</ele>
        <time>2022-07-19T08:59:08Z</time>
      </trkpt>
      <trkpt lat="44.25559" lon="6.92587">
        <ele>1139.2</ele>
        <time>2022-07-19T08:59:09Z</time>
      </trkpt>
      <trkpt lat="44.2556" lon="6.92585">
        <ele>1139.2</ele>
        <time>2022-07-19T08:59:10Z</time>
      </trkpt>
      <trkpt lat="44.25562" lon="6.92583">
        <ele>1139.2</ele>
        <time>2022-07-19T08:59:11Z</time>
      </trkpt>
      <trkpt lat="44.25564" lon="6.92581">
        <ele>1139.4</ele>
        <time>2022-07-19T08:59:12Z</time>
      </trkpt>
      <trkpt lat="44.25565" lon="6.92579">
        <ele>1139.4</ele>
        <time>2022-07-19T08:59:13Z</time>
      </trkpt>
      <trkpt lat="44.25567" lon="6.92579">
        <ele>1139.4</ele>
        <time>2022-07-19T08:59:14Z</time>
      </trkpt>
      <trkpt lat="44.25569" lon="6.92579">
        <ele>1139.6</ele>
        <time>2022-07-19T08:59:15Z</time>
      </trkpt>
      <trkpt lat="44.25571" lon="6.9258">
        <ele>1139.6</ele>
        <time>2022-07-19T08:59:16Z</time>
      </trkpt>
      <trkpt lat="44.25573" lon="6.92581">
        <ele>1139.6</ele>
        <time>2022-07-19T08:59:17Z</time>
      </trkpt>
      <trkpt lat="44.25575" lon="6.92582">
        <ele>1139.6</ele>
        <time>2022-07-19T08:59:18Z</time>
      </trkpt>
      <trkpt lat="44.25577" lon="6.92582">
        <ele>1139.6</ele>
        <time>2022-07-19T08:59:19Z</time>
      </trkpt>
      <trkpt lat="44.25578" lon="6.92582">
        <ele>1139.6</ele>
        <time>2022-07-19T08:59:20Z</time>
      </trkpt>
      <trkpt lat="44.2558" lon="6.92583">
        <ele>1139.6</ele>
        <time>2022-07-19T08:59:21Z</time>
      </trkpt>
      <trkpt lat="44.25581" lon="6.92584">
        <ele>1139.6</ele>
        <time>2022-07-19T08:59:22Z</time>
      </trkpt>
      <trkpt lat="44.25582" lon="6.92584">
        <ele>1139.6</ele>
        <time>2022-07-19T08:59:23Z</time>
      </trkpt>
      <trkpt lat="44.25583" lon="6.92585">
        <ele>1139.6</ele>
        <time>2022-07-19T08:59:24Z</time>
      </trkpt>
      <trkpt lat="44.25584" lon="6.92587">
        <ele>1139.6</ele>
        <time>2022-07-19T08:59:25Z</time>
      </trkpt>
      <trkpt lat="44.25586" lon="6.92588">
        <ele>1139.6</ele>
        <time>2022-07-19T08:59:26Z</time>
      </trkpt>
      <trkpt lat="44.25587" lon="6.92589">
        <ele>1139.6</ele>
        <time>2022-07-19T08:59:27Z</time>
      </trkpt>
      <trkpt lat="44.25589" lon="6.92591">
        <ele>1139.6</ele>
        <time>2022-07-19T08:59:28Z</time>
      </trkpt>
      <trkpt lat="44.25589" lon="6.92591">
        <ele>1139.6</ele>
        <time>2022-07-19T08:59:32Z</time>
      </trkpt>
      <trkpt lat="44.25589" lon="6.92591">
        <ele>1139.4</ele>
        <time>2022-07-19T08:59:33Z</time>
      </trkpt>
      <trkpt lat="44.25589" lon="6.92591">
        <ele>1139.4</ele>
        <time>2022-07-19T08:59:35Z</time>
      </trkpt>
      <trkpt lat="44.25589" lon="6.92591">
        <ele>1139.2</ele>
        <time>2022-07-19T08:59:38Z</time>
      </trkpt>
      <trkpt lat="44.25589" lon="6.92591">
        <ele>1139.2</ele>
        <time>2022-07-19T08:59:39Z</time>
      </trkpt>
      <trkpt lat="44.25589" lon="6.92591">
        <ele>1139.2</ele>
        <time>2022-07-19T08:59:42Z</time>
      </trkpt>
      <trkpt lat="44.25589" lon="6.92591">
        <ele>1139.2</ele>
        <time>2022-07-19T08:59:44Z</time>
      </trkpt>
      <trkpt lat="44.25589" lon="6.92591">
        <ele>1139.2</ele>
        <time>2022-07-19T08:59:46Z</time>
      </trkpt>
      <trkpt lat="44.25589" lon="6.92592">
        <ele>1139.2</ele>
        <time>2022-07-19T08:59:54Z</time>
      </trkpt>
      <trkpt lat="44.25589" lon="6.92592">
        <ele>1139.2</ele>
        <time>2022-07-19T08:59:55Z</time>
      </trkpt>
      <trkpt lat="44.25589" lon="6.92592">
        <ele>1139.2</ele>
        <time>2022-07-19T08:59:56Z</time>
      </trkpt>
      <trkpt lat="44.25589" lon="6.92592">
        <ele>1139.2</ele>
        <time>2022-07-19T08:59:57Z</time>
      </trkpt>
      <trkpt lat="44.2559" lon="6.92592">
        <ele>1139.2</ele>
        <time>2022-07-19T09:00:00Z</time>
      </trkpt>
      <trkpt lat="44.2559" lon="6.92592">
        <ele>1139.2</ele>
        <time>2022-07-19T09:00:02Z</time>
      </trkpt>
      <trkpt lat="44.2559" lon="6.92592">
        <ele>1139.2</ele>
        <time>2022-07-19T09:00:04Z</time>
      </trkpt>
      <trkpt lat="44.2559" lon="6.92592">
        <ele>1139.2</ele>
        <time>2022-07-19T09:00:08Z</time>
      </trkpt>
      <trkpt lat="44.2559" lon="6.92592">
        <ele>1139.2</ele>
        <time>2022-07-19T09:00:16Z</time>
      </trkpt>
      <trkpt lat="44.2559" lon="6.92592">
        <ele>1139.6</ele>
        <time>2022-07-19T09:00:22Z</time>
      </trkpt>
      <trkpt lat="44.2559" lon="6.92592">
        <ele>1139.6</ele>
        <time>2022-07-19T09:00:25Z</time>
      </trkpt>
      <trkpt lat="44.2559" lon="6.92592">
        <ele>1139.6</ele>
        <time>2022-07-19T09:00:27Z</time>
      </trkpt>
      <trkpt lat="44.2559" lon="6.92592">
        <ele>1139.8</ele>
        <time>2022-07-19T09:00:35Z</time>
      </trkpt>
      <trkpt lat="44.2559" lon="6.92592">
        <ele>1139.8</ele>
        <time>2022-07-19T09:00:41Z</time>
      </trkpt>
      <trkpt lat="44.2559" lon="6.92592">
        <ele>1139.8</ele>
        <time>2022-07-19T09:00:42Z</time>
      </trkpt>
      <trkpt lat="44.2559" lon="6.92592">
        <ele>1139.8</ele>
        <time>2022-07-19T09:00:43Z</time>
      </trkpt>
      <trkpt lat="44.2559" lon="6.92592">
        <ele>1140</ele>
        <time>2022-07-19T09:00:45Z</time>
      </trkpt>
      <trkpt lat="44.2559" lon="6.92592">
        <ele>1140</ele>
        <time>2022-07-19T09:00:47Z</time>
      </trkpt>
      <trkpt lat="44.2559" lon="6.92593">
        <ele>1140</ele>
        <time>2022-07-19T09:00:48Z</time>
      </trkpt>
      <trkpt lat="44.2559" lon="6.92593">
        <ele>1140</ele>
        <time>2022-07-19T09:00:52Z</time>
      </trkpt>
      <trkpt lat="44.2559" lon="6.92593">
        <ele>1140</ele>
        <time>2022-07-19T09:00:53Z</time>
      </trkpt>
      <trkpt lat="44.2559" lon="6.92593">
        <ele>1140</ele>
        <time>2022-07-19T09:00:55Z</time>
      </trkpt>
      <trkpt lat="44.2559" lon="6.92593">
        <ele>1140</ele>
        <time>2022-07-19T09:00:56Z</time>
      </trkpt>
      <trkpt lat="44.2559" lon="6.92593">
        <ele>1140</ele>
        <time>2022-07-19T09:00:58Z</time>
      </trkpt>
      <trkpt lat="44.2559" lon="6.92593">
        <ele>1140.2</ele>
        <time>2022-07-19T09:01:00Z</time>
      </trkpt>
      <trkpt lat="44.2559" lon="6.92593">
        <ele>1140.2</ele>
        <time>2022-07-19T09:01:02Z</time>
      </trkpt>
      <trkpt lat="44.25591" lon="6.92593">
        <ele>1140.2</ele>
        <time>2022-07-19T09:01:05Z</time>
      </trkpt>
      <trkpt lat="44.25591" lon="6.92593">
        <ele>1140.2</ele>
        <time>2022-07-19T09:01:06Z</time>
      </trkpt>
      <trkpt lat="44.25591" lon="6.92593">
        <ele>1140.2</ele>
        <time>2022-07-19T09:01:08Z</time>
      </trkpt>
      <trkpt lat="44.25591" lon="6.92593">
        <ele>1140.2</ele>
        <time>2022-07-19T09:01:09Z</time>
      </trkpt>
      <trkpt lat="44.25591" lon="6.92593">
        <ele>1140.2</ele>
        <time>2022-07-19T09:01:11Z</time>
      </trkpt>
      <trkpt lat="44.25591" lon="6.92593">
        <ele>1140.2</ele>
        <time>2022-07-19T09:01:13Z</time>
      </trkpt>
      <trkpt lat="44.25591" lon="6.92593">
        <ele>1140.2</ele>
        <time>2022-07-19T09:01:15Z</time>
      </trkpt>
      <trkpt lat="44.25591" lon="6.92593">
        <ele>1140.2</ele>
        <time>2022-07-19T09:01:17Z</time>
      </trkpt>
      <trkpt lat="44.25591" lon="6.92593">
        <ele>1140.2</ele>
        <time>2022-07-19T09:01:18Z</time>
      </trkpt>
      <trkpt lat="44.25591" lon="6.92594">
        <ele>1140.2</ele>
        <time>2022-07-19T09:01:21Z</time>
      </trkpt>
      <trkpt lat="44.25591" lon="6.92594">
        <ele>1140.2</ele>
        <time>2022-07-19T09:01:22Z</time>
      </trkpt>
      <trkpt lat="44.25591" lon="6.92594">
        <ele>1140.2</ele>
        <time>2022-07-19T09:01:24Z</time>
      </trkpt>
      <trkpt lat="44.25591" lon="6.92594">
        <ele>1140.2</ele>
        <time>2022-07-19T09:01:26Z</time>
      </trkpt>
      <trkpt lat="44.25591" lon="6.92594">
        <ele>1140.2</ele>
        <time>2022-07-19T09:01:28Z</time>
      </trkpt>
      <trkpt lat="44.25591" lon="6.92594">
        <ele>1140.2</ele>
        <time>2022-07-19T09:01:30Z</time>
      </trkpt>
      <trkpt lat="44.25591" lon="6.92594">
        <ele>1140.2</ele>
        <time>2022-07-19T09:01:31Z</time>
      </trkpt>
      <trkpt lat="44.25591" lon="6.92594">
        <ele>1140</ele>
        <time>2022-07-19T09:01:43Z</time>
      </trkpt>
      <trkpt lat="44.25591" lon="6.92594">
        <ele>1140</ele>
        <time>2022-07-19T09:01:45Z</time>
      </trkpt>
      <trkpt lat="44.25591" lon="6.92594">
        <ele>1140</ele>
        <time>2022-07-19T09:01:46Z</time>
      </trkpt>
      <trkpt lat="44.25591" lon="6.92594">
        <ele>1140.4</ele>
        <time>2022-07-19T09:01:48Z</time>
      </trkpt>
      <trkpt lat="44.25591" lon="6.92594">
        <ele>1140.4</ele>
        <time>2022-07-19T09:01:50Z</time>
      </trkpt>
      <trkpt lat="44.25591" lon="6.92594">
        <ele>1140.4</ele>
        <time>2022-07-19T09:01:52Z</time>
      </trkpt>
      <trkpt lat="44.25591" lon="6.92594">
        <ele>1140.4</ele>
        <time>2022-07-19T09:01:53Z</time>
      </trkpt>
      <trkpt lat="44.25592" lon="6.92594">
        <ele>1140.4</ele>
        <time>2022-07-19T09:01:56Z</time>
      </trkpt>
      <trkpt lat="44.25592" lon="6.92594">
        <ele>1140.4</ele>
        <time>2022-07-19T09:02:24Z</time>
      </trkpt>
      <trkpt lat="44.25592" lon="6.92594">
        <ele>1140.4</ele>
        <time>2022-07-19T09:02:25Z</time>
      </trkpt>
      <trkpt lat="44.25592" lon="6.92594">
        <ele>1140.4</ele>
        <time>2022-07-19T09:02:26Z</time>
      </trkpt>
      <trkpt lat="44.25592" lon="6.92595">
        <ele>1140.4</ele>
        <time>2022-07-19T09:02:29Z</time>
      </trkpt>
      <trkpt lat="44.25592" lon="6.92595">
        <ele>1140.4</ele>
        <time>2022-07-19T09:02:31Z</time>
      </trkpt>
      <trkpt lat="44.25592" lon="6.92595">
        <ele>1140.4</ele>
        <time>2022-07-19T09:02:32Z</time>
      </trkpt>
      <trkpt lat="44.25592" lon="6.92595">
        <ele>1140.4</ele>
        <time>2022-07-19T09:02:35Z</time>
      </trkpt>
      <trkpt lat="44.25592" lon="6.92595">
        <ele>1140.4</ele>
        <time>2022-07-19T09:02:37Z</time>
      </trkpt>
      <trkpt lat="44.25592" lon="6.92595">
        <ele>1140.4</ele>
        <time>2022-07-19T09:02:38Z</time>
      </trkpt>
      <trkpt lat="44.25592" lon="6.92595">
        <ele>1140.4</ele>
        <time>2022-07-19T09:02:39Z</time>
      </trkpt>
      <trkpt lat="44.25592" lon="6.92595">
        <ele>1140.4</ele>
        <time>2022-07-19T09:02:45Z</time>
      </trkpt>
      <trkpt lat="44.25592" lon="6.92595">
        <ele>1140.4</ele>
        <time>2022-07-19T09:02:47Z</time>
      </trkpt>
      <trkpt lat="44.25592" lon="6.92595">
        <ele>1140.4</ele>
        <time>2022-07-19T09:02:48Z</time>
      </trkpt>
      <trkpt lat="44.25592" lon="6.92595">
        <ele>1140.4</ele>
        <time>2022-07-19T09:02:51Z</time>
      </trkpt>
      <trkpt lat="44.25592" lon="6.92595">
        <ele>1140.4</ele>
        <time>2022-07-19T09:02:53Z</time>
      </trkpt>
      <trkpt lat="44.25592" lon="6.92595">
        <ele>1140.4</ele>
        <time>2022-07-19T09:02:54Z</time>
      </trkpt>
      <trkpt lat="44.25592" lon="6.92595">
        <ele>1140.4</ele>
        <time>2022-07-19T09:02:55Z</time>
      </trkpt>
      <trkpt lat="44.25592" lon="6.92595">
        <ele>1140.4</ele>
        <time>2022-07-19T09:02:58Z</time>
      </trkpt>
      <trkpt lat="44.25592" lon="6.92595">
        <ele>1140.4</ele>
        <time>2022-07-19T09:02:59Z</time>
      </trkpt>
      <trkpt lat="44.25592" lon="6.92595">
        <ele>1140.4</ele>
        <time>2022-07-19T09:03:01Z</time>
      </trkpt>
      <trkpt lat="44.25592" lon="6.92596">
        <ele>1140.4</ele>
        <time>2022-07-19T09:03:04Z</time>
      </trkpt>
      <trkpt lat="44.25592" lon="6.92596">
        <ele>1140.4</ele>
        <time>2022-07-19T09:03:05Z</time>
      </trkpt>
      <trkpt lat="44.25593" lon="6.92596">
        <ele>1140.4</ele>
        <time>2022-07-19T09:03:16Z</time>
      </trkpt>
      <trkpt lat="44.25593" lon="6.92596">
        <ele>1140.4</ele>
        <time>2022-07-19T09:03:18Z</time>
      </trkpt>
      <trkpt lat="44.25593" lon="6.92596">
        <ele>1140.4</ele>
        <time>2022-07-19T09:03:19Z</time>
      </trkpt>
      <trkpt lat="44.25593" lon="6.92596">
        <ele>1140.4</ele>
        <time>2022-07-19T09:03:20Z</time>
      </trkpt>
      <trkpt lat="44.25593" lon="6.92596">
        <ele>1140.4</ele>
        <time>2022-07-19T09:03:22Z</time>
      </trkpt>
      <trkpt lat="44.25593" lon="6.92596">
        <ele>1140.4</ele>
        <time>2022-07-19T09:03:24Z</time>
      </trkpt>
      <trkpt lat="44.25593" lon="6.92596">
        <ele>1140.4</ele>
        <time>2022-07-19T09:03:25Z</time>
      </trkpt>
      <trkpt lat="44.25593" lon="6.92596">
        <ele>1140.4</ele>
        <time>2022-07-19T09:03:29Z</time>
      </trkpt>
      <trkpt lat="44.25593" lon="6.92596">
        <ele>1140.4</ele>
        <time>2022-07-19T09:03:30Z</time>
      </trkpt>
      <trkpt lat="44.25593" lon="6.92596">
        <ele>1140.4</ele>
        <time>2022-07-19T09:03:32Z</time>
      </trkpt>
      <trkpt lat="44.25593" lon="6.92596">
        <ele>1140.4</ele>
        <time>2022-07-19T09:03:33Z</time>
      </trkpt>
      <trkpt lat="44.25593" lon="6.92596">
        <ele>1140.6</ele>
        <time>2022-07-19T09:03:35Z</time>
      </trkpt>
      <trkpt lat="44.25593" lon="6.92596">
        <ele>1140.6</ele>
        <time>2022-07-19T09:03:37Z</time>
      </trkpt>
      <trkpt lat="44.25593" lon="6.92596">
        <ele>1140.6</ele>
        <time>2022-07-19T09:03:38Z</time>
      </trkpt>
      <trkpt lat="44.25593" lon="6.92596">
        <ele>1140.6</ele>
        <time>2022-07-19T09:03:42Z</time>
      </trkpt>
      <trkpt lat="44.25593" lon="6.92596">
        <ele>1140.6</ele>
        <time>2022-07-19T09:03:43Z</time>
      </trkpt>
      <trkpt lat="44.25593" lon="6.92597">
        <ele>1140.6</ele>
        <time>2022-07-19T09:03:45Z</time>
      </trkpt>
      <trkpt lat="44.25593" lon="6.92597">
        <ele>1140.6</ele>
        <time>2022-07-19T09:03:46Z</time>
      </trkpt>
      <trkpt lat="44.25595" lon="6.92584">
        <ele>1140.6</ele>
        <time>2022-07-19T09:03:47Z</time>
      </trkpt>
      <trkpt lat="44.25595" lon="6.92584">
        <ele>1140.6</ele>
        <time>2022-07-19T09:03:48Z</time>
      </trkpt>
      <trkpt lat="44.25595" lon="6.92583">
        <ele>1140.6</ele>
        <time>2022-07-19T09:03:49Z</time>
      </trkpt>
      <trkpt lat="44.25596" lon="6.92583">
        <ele>1140.6</ele>
        <time>2022-07-19T09:03:50Z</time>
      </trkpt>
      <trkpt lat="44.25596" lon="6.92583">
        <ele>1140.6</ele>
        <time>2022-07-19T09:03:51Z</time>
      </trkpt>
      <trkpt lat="44.25596" lon="6.92583">
        <ele>1140.6</ele>
        <time>2022-07-19T09:03:52Z</time>
      </trkpt>
      <trkpt lat="44.25597" lon="6.92582">
        <ele>1140.6</ele>
        <time>2022-07-19T09:03:53Z</time>
      </trkpt>
      <trkpt lat="44.25597" lon="6.92582">
        <ele>1140.6</ele>
        <time>2022-07-19T09:04:02Z</time>
      </trkpt>
      <trkpt lat="44.25597" lon="6.92582">
        <ele>1140.6</ele>
        <time>2022-07-19T09:04:03Z</time>
      </trkpt>
      <trkpt lat="44.25598" lon="6.92582">
        <ele>1140.6</ele>
        <time>2022-07-19T09:04:04Z</time>
      </trkpt>
      <trkpt lat="44.25598" lon="6.92582">
        <ele>1140.6</ele>
        <time>2022-07-19T09:04:05Z</time>
      </trkpt>
      <trkpt lat="44.25598" lon="6.92581">
        <ele>1140.6</ele>
        <time>2022-07-19T09:04:06Z</time>
      </trkpt>
      <trkpt lat="44.25599" lon="6.92581">
        <ele>1140.6</ele>
        <time>2022-07-19T09:04:07Z</time>
      </trkpt>
      <trkpt lat="44.25599" lon="6.92581">
        <ele>1140.6</ele>
        <time>2022-07-19T09:04:08Z</time>
      </trkpt>
      <trkpt lat="44.25599" lon="6.92581">
        <ele>1140.8</ele>
        <time>2022-07-19T09:04:09Z</time>
      </trkpt>
      <trkpt lat="44.256" lon="6.9258">
        <ele>1140.8</ele>
        <time>2022-07-19T09:04:11Z</time>
      </trkpt>
      <trkpt lat="44.256" lon="6.9258">
        <ele>1140.8</ele>
        <time>2022-07-19T09:04:12Z</time>
      </trkpt>
      <trkpt lat="44.256" lon="6.9258">
        <ele>1140.8</ele>
        <time>2022-07-19T09:04:13Z</time>
      </trkpt>
      <trkpt lat="44.256" lon="6.9258">
        <ele>1140.8</ele>
        <time>2022-07-19T09:04:14Z</time>
      </trkpt>
      <trkpt lat="44.25601" lon="6.9258">
        <ele>1140.8</ele>
        <time>2022-07-19T09:04:15Z</time>
      </trkpt>
      <trkpt lat="44.25601" lon="6.92579">
        <ele>1140.8</ele>
        <time>2022-07-19T09:04:16Z</time>
      </trkpt>
      <trkpt lat="44.25601" lon="6.92579">
        <ele>1140.8</ele>
        <time>2022-07-19T09:04:17Z</time>
      </trkpt>
      <trkpt lat="44.25602" lon="6.92579">
        <ele>1140.8</ele>
        <time>2022-07-19T09:04:18Z</time>
      </trkpt>
      <trkpt lat="44.25602" lon="6.92579">
        <ele>1140.8</ele>
        <time>2022-07-19T09:04:19Z</time>
      </trkpt>
      <trkpt lat="44.25602" lon="6.92578">
        <ele>1140.8</ele>
        <time>2022-07-19T09:04:20Z</time>
      </trkpt>
      <trkpt lat="44.25603" lon="6.92578">
        <ele>1140.8</ele>
        <time>2022-07-19T09:04:21Z</time>
      </trkpt>
      <trkpt lat="44.25603" lon="6.92578">
        <ele>1140.8</ele>
        <time>2022-07-19T09:04:22Z</time>
      </trkpt>
      <trkpt lat="44.25603" lon="6.92578">
        <ele>1140.8</ele>
        <time>2022-07-19T09:04:23Z</time>
      </trkpt>
      <trkpt lat="44.25604" lon="6.92578">
        <ele>1140.8</ele>
        <time>2022-07-19T09:04:24Z</time>
      </trkpt>
      <trkpt lat="44.25604" lon="6.92577">
        <ele>1140.8</ele>
        <time>2022-07-19T09:04:26Z</time>
      </trkpt>
      <trkpt lat="44.25604" lon="6.92577">
        <ele>1140.8</ele>
        <time>2022-07-19T09:04:29Z</time>
      </trkpt>
      <trkpt lat="44.25604" lon="6.92577">
        <ele>1140.8</ele>
        <time>2022-07-19T09:04:33Z</time>
      </trkpt>
      <trkpt lat="44.25604" lon="6.92577">
        <ele>1140.8</ele>
        <time>2022-07-19T09:04:36Z</time>
      </trkpt>
      <trkpt lat="44.25604" lon="6.92577">
        <ele>1140.8</ele>
        <time>2022-07-19T09:04:38Z</time>
      </trkpt>
      <trkpt lat="44.25604" lon="6.92577">
        <ele>1140.8</ele>
        <time>2022-07-19T09:04:43Z</time>
      </trkpt>
      <trkpt lat="44.25604" lon="6.92577">
        <ele>1141</ele>
        <time>2022-07-19T09:04:45Z</time>
      </trkpt>
      <trkpt lat="44.25604" lon="6.92577">
        <ele>1141</ele>
        <time>2022-07-19T09:04:48Z</time>
      </trkpt>
      <trkpt lat="44.25604" lon="6.92577">
        <ele>1141</ele>
        <time>2022-07-19T09:04:50Z</time>
      </trkpt>
      <trkpt lat="44.25604" lon="6.92577">
        <ele>1141</ele>
        <time>2022-07-19T09:04:55Z</time>
      </trkpt>
      <trkpt lat="44.25604" lon="6.92577">
        <ele>1141</ele>
        <time>2022-07-19T09:04:57Z</time>
      </trkpt>
      <trkpt lat="44.25604" lon="6.92577">
        <ele>1141</ele>
        <time>2022-07-19T09:05:00Z</time>
      </trkpt>
      <trkpt lat="44.25604" lon="6.92577">
        <ele>1141</ele>
        <time>2022-07-19T09:05:02Z</time>
      </trkpt>
      <trkpt lat="44.25604" lon="6.92577">
        <ele>1141</ele>
        <time>2022-07-19T09:05:05Z</time>
      </trkpt>
      <trkpt lat="44.25604" lon="6.92577">
        <ele>1141</ele>
        <time>2022-07-19T09:05:07Z</time>
      </trkpt>
      <trkpt lat="44.25604" lon="6.92577">
        <ele>1140.8</ele>
        <time>2022-07-19T09:05:10Z</time>
      </trkpt>
      <trkpt lat="44.25602" lon="6.92564">
        <ele>1140.8</ele>
        <time>2022-07-19T09:05:12Z</time>
      </trkpt>
      <trkpt lat="44.25602" lon="6.92564">
        <ele>1140.8</ele>
        <time>2022-07-19T09:05:14Z</time>
      </trkpt>
      <trkpt lat="44.25602" lon="6.92564">
        <ele>1140.8</ele>
        <time>2022-07-19T09:05:16Z</time>
      </trkpt>
      <trkpt lat="44.25602" lon="6.92564">
        <ele>1140.8</ele>
        <time>2022-07-19T09:05:18Z</time>
      </trkpt>
      <trkpt lat="44.25602" lon="6.92564">
        <ele>1141</ele>
        <time>2022-07-19T09:05:22Z</time>
      </trkpt>
      <trkpt lat="44.25602" lon="6.92564">
        <ele>1141</ele>
        <time>2022-07-19T09:05:23Z</time>
      </trkpt>
      <trkpt lat="44.25601" lon="6.92564">
        <ele>1141</ele>
        <time>2022-07-19T09:05:26Z</time>
      </trkpt>
      <trkpt lat="44.25601" lon="6.92564">
        <ele>1141</ele>
        <time>2022-07-19T09:05:28Z</time>
      </trkpt>
      <trkpt lat="44.25601" lon="6.92565">
        <ele>1141</ele>
        <time>2022-07-19T09:05:29Z</time>
      </trkpt>
      <trkpt lat="44.25601" lon="6.92565">
        <ele>1141</ele>
        <time>2022-07-19T09:05:30Z</time>
      </trkpt>
      <trkpt lat="44.25601" lon="6.92565">
        <ele>1141</ele>
        <time>2022-07-19T09:05:33Z</time>
      </trkpt>
      <trkpt lat="44.25601" lon="6.92565">
        <ele>1141</ele>
        <time>2022-07-19T09:05:36Z</time>
      </trkpt>
      <trkpt lat="44.25601" lon="6.92565">
        <ele>1141</ele>
        <time>2022-07-19T09:05:39Z</time>
      </trkpt>
      <trkpt lat="44.25601" lon="6.92565">
        <ele>1141</ele>
        <time>2022-07-19T09:05:42Z</time>
      </trkpt>
      <trkpt lat="44.25601" lon="6.92565">
        <ele>1141</ele>
        <time>2022-07-19T09:05:43Z</time>
      </trkpt>
      <trkpt lat="44.25601" lon="6.92565">
        <ele>1141</ele>
        <time>2022-07-19T09:05:45Z</time>
      </trkpt>
      <trkpt lat="44.25601" lon="6.92565">
        <ele>1141</ele>
        <time>2022-07-19T09:05:46Z</time>
      </trkpt>
      <trkpt lat="44.25601" lon="6.92565">
        <ele>1141</ele>
        <time>2022-07-19T09:06:05Z</time>
      </trkpt>
      <trkpt lat="44.25601" lon="6.92565">
        <ele>1141</ele>
        <time>2022-07-19T09:06:06Z</time>
      </trkpt>
      <trkpt lat="44.25601" lon="6.92565">
        <ele>1141</ele>
        <time>2022-07-19T09:06:08Z</time>
      </trkpt>
      <trkpt lat="44.25601" lon="6.92565">
        <ele>1141</ele>
        <time>2022-07-19T09:06:24Z</time>
      </trkpt>
      <trkpt lat="44.25601" lon="6.92565">
        <ele>1141</ele>
        <time>2022-07-19T09:06:25Z</time>
      </trkpt>
      <trkpt lat="44.25601" lon="6.92565">
        <ele>1141</ele>
        <time>2022-07-19T09:06:27Z</time>
      </trkpt>
      <trkpt lat="44.25601" lon="6.92565">
        <ele>1141</ele>
        <time>2022-07-19T09:06:28Z</time>
      </trkpt>
      <trkpt lat="44.256" lon="6.92565">
        <ele>1141.2</ele>
        <time>2022-07-19T09:06:41Z</time>
      </trkpt>
      <trkpt lat="44.256" lon="6.92565">
        <ele>1141.2</ele>
        <time>2022-07-19T09:06:42Z</time>
      </trkpt>
      <trkpt lat="44.256" lon="6.92565">
        <ele>1141.2</ele>
        <time>2022-07-19T09:06:45Z</time>
      </trkpt>
      <trkpt lat="44.256" lon="6.92565">
        <ele>1141</ele>
        <time>2022-07-19T09:07:19Z</time>
      </trkpt>
      <trkpt lat="44.256" lon="6.92565">
        <ele>1141</ele>
        <time>2022-07-19T09:07:20Z</time>
      </trkpt>
      <trkpt lat="44.256" lon="6.92565">
        <ele>1140.8</ele>
        <time>2022-07-19T09:07:22Z</time>
      </trkpt>
      <trkpt lat="44.256" lon="6.92565">
        <ele>1140.8</ele>
        <time>2022-07-19T09:07:24Z</time>
      </trkpt>
      <trkpt lat="44.256" lon="6.92565">
        <ele>1140.8</ele>
        <time>2022-07-19T09:07:26Z</time>
      </trkpt>
      <trkpt lat="44.256" lon="6.92565">
        <ele>1140.8</ele>
        <time>2022-07-19T09:07:33Z</time>
      </trkpt>
      <trkpt lat="44.256" lon="6.92565">
        <ele>1141</ele>
        <time>2022-07-19T09:07:44Z</time>
      </trkpt>
      <trkpt lat="44.256" lon="6.92565">
        <ele>1141</ele>
        <time>2022-07-19T09:07:45Z</time>
      </trkpt>
      <trkpt lat="44.256" lon="6.92565">
        <ele>1141</ele>
        <time>2022-07-19T09:07:48Z</time>
      </trkpt>
      <trkpt lat="44.256" lon="6.92565">
        <ele>1141</ele>
        <time>2022-07-19T09:07:49Z</time>
      </trkpt>
      <trkpt lat="44.256" lon="6.92565">
        <ele>1141</ele>
        <time>2022-07-19T09:07:51Z</time>
      </trkpt>
      <trkpt lat="44.256" lon="6.92565">
        <ele>1141</ele>
        <time>2022-07-19T09:07:58Z</time>
      </trkpt>
      <trkpt lat="44.256" lon="6.92565">
        <ele>1141</ele>
        <time>2022-07-19T09:07:59Z</time>
      </trkpt>
      <trkpt lat="44.256" lon="6.92565">
        <ele>1141</ele>
        <time>2022-07-19T09:08:09Z</time>
      </trkpt>
      <trkpt lat="44.256" lon="6.92565">
        <ele>1141</ele>
        <time>2022-07-19T09:08:11Z</time>
      </trkpt>
      <trkpt lat="44.25599" lon="6.92565">
        <ele>1141</ele>
        <time>2022-07-19T09:08:13Z</time>
      </trkpt>
      <trkpt lat="44.25599" lon="6.92565">
        <ele>1141</ele>
        <time>2022-07-19T09:08:14Z</time>
      </trkpt>
      <trkpt lat="44.25599" lon="6.92565">
        <ele>1141</ele>
        <time>2022-07-19T09:08:18Z</time>
      </trkpt>
      <trkpt lat="44.25599" lon="6.92565">
        <ele>1141</ele>
        <time>2022-07-19T09:08:21Z</time>
      </trkpt>
      <trkpt lat="44.25599" lon="6.92565">
        <ele>1141</ele>
        <time>2022-07-19T09:08:26Z</time>
      </trkpt>
      <trkpt lat="44.25599" lon="6.92565">
        <ele>1141</ele>
        <time>2022-07-19T09:08:30Z</time>
      </trkpt>
      <trkpt lat="44.25599" lon="6.92565">
        <ele>1141</ele>
        <time>2022-07-19T09:08:31Z</time>
      </trkpt>
      <trkpt lat="44.25599" lon="6.92565">
        <ele>1141</ele>
        <time>2022-07-19T09:08:33Z</time>
      </trkpt>
      <trkpt lat="44.25599" lon="6.92565">
        <ele>1141</ele>
        <time>2022-07-19T09:08:34Z</time>
      </trkpt>
      <trkpt lat="44.25599" lon="6.92565">
        <ele>1141</ele>
        <time>2022-07-19T09:08:38Z</time>
      </trkpt>
      <trkpt lat="44.25599" lon="6.92565">
        <ele>1141</ele>
        <time>2022-07-19T09:08:50Z</time>
      </trkpt>
      <trkpt lat="44.25599" lon="6.92565">
        <ele>1141</ele>
        <time>2022-07-19T09:08:55Z</time>
      </trkpt>
      <trkpt lat="44.25599" lon="6.92565">
        <ele>1141</ele>
        <time>2022-07-19T09:09:09Z</time>
      </trkpt>
      <trkpt lat="44.25599" lon="6.92565">
        <ele>1141</ele>
        <time>2022-07-19T09:09:10Z</time>
      </trkpt>
      <trkpt lat="44.25599" lon="6.92565">
        <ele>1141</ele>
        <time>2022-07-19T09:09:13Z</time>
      </trkpt>
      <trkpt lat="44.25599" lon="6.92565">
        <ele>1141</ele>
        <time>2022-07-19T09:09:18Z</time>
      </trkpt>
      <trkpt lat="44.25599" lon="6.92565">
        <ele>1141</ele>
        <time>2022-07-19T09:09:19Z</time>
      </trkpt>
      <trkpt lat="44.25598" lon="6.92565">
        <ele>1141</ele>
        <time>2022-07-19T09:09:24Z</time>
      </trkpt>
      <trkpt lat="44.25598" lon="6.92565">
        <ele>1141</ele>
        <time>2022-07-19T09:09:25Z</time>
      </trkpt>
      <trkpt lat="44.25598" lon="6.92565">
        <ele>1141</ele>
        <time>2022-07-19T09:09:34Z</time>
      </trkpt>
      <trkpt lat="44.25598" lon="6.92565">
        <ele>1141</ele>
        <time>2022-07-19T09:09:36Z</time>
      </trkpt>
      <trkpt lat="44.25598" lon="6.92565">
        <ele>1141</ele>
        <time>2022-07-19T09:09:37Z</time>
      </trkpt>
      <trkpt lat="44.25598" lon="6.92565">
        <ele>1141.2</ele>
        <time>2022-07-19T09:09:50Z</time>
      </trkpt>
      <trkpt lat="44.25598" lon="6.92565">
        <ele>1141.2</ele>
        <time>2022-07-19T09:09:51Z</time>
      </trkpt>
      <trkpt lat="44.25598" lon="6.92565">
        <ele>1141.2</ele>
        <time>2022-07-19T09:09:53Z</time>
      </trkpt>
      <trkpt lat="44.25598" lon="6.92565">
        <ele>1141.2</ele>
        <time>2022-07-19T09:09:56Z</time>
      </trkpt>
      <trkpt lat="44.25598" lon="6.92565">
        <ele>1141.2</ele>
        <time>2022-07-19T09:09:57Z</time>
      </trkpt>
      <trkpt lat="44.25598" lon="6.92565">
        <ele>1141.2</ele>
        <time>2022-07-19T09:09:59Z</time>
      </trkpt>
      <trkpt lat="44.25598" lon="6.92565">
        <ele>1141.2</ele>
        <time>2022-07-19T09:10:01Z</time>
      </trkpt>
      <trkpt lat="44.25598" lon="6.92565">
        <ele>1141.2</ele>
        <time>2022-07-19T09:10:06Z</time>
      </trkpt>
      <trkpt lat="44.25598" lon="6.92565">
        <ele>1141.2</ele>
        <time>2022-07-19T09:10:07Z</time>
      </trkpt>
      <trkpt lat="44.25598" lon="6.92565">
        <ele>1141.2</ele>
        <time>2022-07-19T09:10:11Z</time>
      </trkpt>
      <trkpt lat="44.25598" lon="6.92565">
        <ele>1141.2</ele>
        <time>2022-07-19T09:10:12Z</time>
      </trkpt>
      <trkpt lat="44.25598" lon="6.92565">
        <ele>1141.2</ele>
        <time>2022-07-19T09:10:21Z</time>
      </trkpt>
      <trkpt lat="44.25598" lon="6.92566">
        <ele>1141.4</ele>
        <time>2022-07-19T09:10:35Z</time>
      </trkpt>
      <trkpt lat="44.25597" lon="6.92566">
        <ele>1141.4</ele>
        <time>2022-07-19T09:10:37Z</time>
      </trkpt>
      <trkpt lat="44.25597" lon="6.92566">
        <ele>1141.4</ele>
        <time>2022-07-19T09:10:40Z</time>
      </trkpt>
      <trkpt lat="44.25597" lon="6.92566">
        <ele>1141.4</ele>
        <time>2022-07-19T09:10:41Z</time>
      </trkpt>
      <trkpt lat="44.25597" lon="6.92566">
        <ele>1141.4</ele>
        <time>2022-07-19T09:10:44Z</time>
      </trkpt>
      <trkpt lat="44.25597" lon="6.92566">
        <ele>1141.8</ele>
        <time>2022-07-19T09:10:54Z</time>
      </trkpt>
      <trkpt lat="44.25597" lon="6.92566">
        <ele>1141.8</ele>
        <time>2022-07-19T09:10:56Z</time>
      </trkpt>
      <trkpt lat="44.25597" lon="6.92566">
        <ele>1141.8</ele>
        <time>2022-07-19T09:10:57Z</time>
      </trkpt>
      <trkpt lat="44.25597" lon="6.92566">
        <ele>1141.8</ele>
        <time>2022-07-19T09:11:00Z</time>
      </trkpt>
      <trkpt lat="44.25597" lon="6.92566">
        <ele>1141.6</ele>
        <time>2022-07-19T09:12:15Z</time>
      </trkpt>
      <trkpt lat="44.25597" lon="6.92566">
        <ele>1141.6</ele>
        <time>2022-07-19T09:12:16Z</time>
      </trkpt>
      <trkpt lat="44.25597" lon="6.92566">
        <ele>1141.6</ele>
        <time>2022-07-19T09:12:20Z</time>
      </trkpt>
      <trkpt lat="44.25597" lon="6.92566">
        <ele>1141.6</ele>
        <time>2022-07-19T09:12:21Z</time>
      </trkpt>
      <trkpt lat="44.25597" lon="6.92566">
        <ele>1141.8</ele>
        <time>2022-07-19T09:12:23Z</time>
      </trkpt>
      <trkpt lat="44.25597" lon="6.92566">
        <ele>1141.8</ele>
        <time>2022-07-19T09:12:25Z</time>
      </trkpt>
      <trkpt lat="44.25597" lon="6.92566">
        <ele>1141.8</ele>
        <time>2022-07-19T09:12:28Z</time>
      </trkpt>
      <trkpt lat="44.25597" lon="6.92566">
        <ele>1141.8</ele>
        <time>2022-07-19T09:12:30Z</time>
      </trkpt>
      <trkpt lat="44.25597" lon="6.92566">
        <ele>1141.8</ele>
        <time>2022-07-19T09:12:32Z</time>
      </trkpt>
      <trkpt lat="44.25596" lon="6.92566">
        <ele>1141.8</ele>
        <time>2022-07-19T09:12:38Z</time>
      </trkpt>
      <trkpt lat="44.25596" lon="6.92566">
        <ele>1141.8</ele>
        <time>2022-07-19T09:12:39Z</time>
      </trkpt>
      <trkpt lat="44.25596" lon="6.92566">
        <ele>1141.8</ele>
        <time>2022-07-19T09:12:42Z</time>
      </trkpt>
      <trkpt lat="44.25596" lon="6.92566">
        <ele>1141.8</ele>
        <time>2022-07-19T09:12:44Z</time>
      </trkpt>
      <trkpt lat="44.25596" lon="6.92566">
        <ele>1141.8</ele>
        <time>2022-07-19T09:12:48Z</time>
      </trkpt>
      <trkpt lat="44.25596" lon="6.92566">
        <ele>1141.8</ele>
        <time>2022-07-19T09:12:52Z</time>
      </trkpt>
      <trkpt lat="44.25596" lon="6.92566">
        <ele>1141.8</ele>
        <time>2022-07-19T09:12:53Z</time>
      </trkpt>
      <trkpt lat="44.25596" lon="6.92566">
        <ele>1142</ele>
        <time>2022-07-19T09:13:25Z</time>
      </trkpt>
      <trkpt lat="44.25596" lon="6.92566">
        <ele>1142</ele>
        <time>2022-07-19T09:13:34Z</time>
      </trkpt>
      <trkpt lat="44.25596" lon="6.92566">
        <ele>1142</ele>
        <time>2022-07-19T09:13:35Z</time>
      </trkpt>
      <trkpt lat="44.25596" lon="6.92566">
        <ele>1142</ele>
        <time>2022-07-19T09:13:52Z</time>
      </trkpt>
      <trkpt lat="44.25596" lon="6.92566">
        <ele>1142</ele>
        <time>2022-07-19T09:13:53Z</time>
      </trkpt>
      <trkpt lat="44.25596" lon="6.92566">
        <ele>1142</ele>
        <time>2022-07-19T09:13:55Z</time>
      </trkpt>
      <trkpt lat="44.25596" lon="6.92566">
        <ele>1142</ele>
        <time>2022-07-19T09:13:58Z</time>
      </trkpt>
      <trkpt lat="44.25596" lon="6.92566">
        <ele>1142</ele>
        <time>2022-07-19T09:13:59Z</time>
      </trkpt>
      <trkpt lat="44.25596" lon="6.92566">
        <ele>1142</ele>
        <time>2022-07-19T09:14:02Z</time>
      </trkpt>
      <trkpt lat="44.25596" lon="6.92566">
        <ele>1142</ele>
        <time>2022-07-19T09:14:03Z</time>
      </trkpt>
      <trkpt lat="44.25595" lon="6.92566">
        <ele>1142</ele>
        <time>2022-07-19T09:14:11Z</time>
      </trkpt>
      <trkpt lat="44.25595" lon="6.92566">
        <ele>1141.8</ele>
        <time>2022-07-19T09:14:13Z</time>
      </trkpt>
      <trkpt lat="44.25595" lon="6.92566">
        <ele>1141.8</ele>
        <time>2022-07-19T09:14:15Z</time>
      </trkpt>
      <trkpt lat="44.25595" lon="6.92566">
        <ele>1141.8</ele>
        <time>2022-07-19T09:14:29Z</time>
      </trkpt>
      <trkpt lat="44.25595" lon="6.92566">
        <ele>1141.8</ele>
        <time>2022-07-19T09:14:30Z</time>
      </trkpt>
      <trkpt lat="44.25595" lon="6.92566">
        <ele>1141.8</ele>
        <time>2022-07-19T09:14:32Z</time>
      </trkpt>
      <trkpt lat="44.25595" lon="6.92566">
        <ele>1141.8</ele>
        <time>2022-07-19T09:14:33Z</time>
      </trkpt>
      <trkpt lat="44.25595" lon="6.92566">
        <ele>1141.6</ele>
        <time>2022-07-19T09:14:41Z</time>
      </trkpt>
      <trkpt lat="44.25595" lon="6.92566">
        <ele>1141.6</ele>
        <time>2022-07-19T09:14:42Z</time>
      </trkpt>
      <trkpt lat="44.25595" lon="6.92566">
        <ele>1141.6</ele>
        <time>2022-07-19T09:14:44Z</time>
      </trkpt>
      <trkpt lat="44.25595" lon="6.92566">
        <ele>1141.8</ele>
        <time>2022-07-19T09:15:01Z</time>
      </trkpt>
      <trkpt lat="44.25595" lon="6.92566">
        <ele>1141.8</ele>
        <time>2022-07-19T09:15:02Z</time>
      </trkpt>
      <trkpt lat="44.25595" lon="6.92566">
        <ele>1141.8</ele>
        <time>2022-07-19T09:15:04Z</time>
      </trkpt>
      <trkpt lat="44.25595" lon="6.92566">
        <ele>1141.8</ele>
        <time>2022-07-19T09:15:05Z</time>
      </trkpt>
      <trkpt lat="44.25595" lon="6.92566">
        <ele>1142</ele>
        <time>2022-07-19T09:15:28Z</time>
      </trkpt>
      <trkpt lat="44.25595" lon="6.92566">
        <ele>1142</ele>
        <time>2022-07-19T09:15:29Z</time>
      </trkpt>
      <trkpt lat="44.25595" lon="6.92566">
        <ele>1142</ele>
        <time>2022-07-19T09:15:42Z</time>
      </trkpt>
      <trkpt lat="44.25595" lon="6.92566">
        <ele>1142</ele>
        <time>2022-07-19T09:15:44Z</time>
      </trkpt>
      <trkpt lat="44.25594" lon="6.92566">
        <ele>1142</ele>
        <time>2022-07-19T09:15:45Z</time>
      </trkpt>
      <trkpt lat="44.25594" lon="6.92566">
        <ele>1142</ele>
        <time>2022-07-19T09:15:46Z</time>
      </trkpt>
      <trkpt lat="44.25594" lon="6.92566">
        <ele>1142</ele>
        <time>2022-07-19T09:15:49Z</time>
      </trkpt>
      <trkpt lat="44.25594" lon="6.92566">
        <ele>1142</ele>
        <time>2022-07-19T09:15:51Z</time>
      </trkpt>
      <trkpt lat="44.25594" lon="6.92566">
        <ele>1142</ele>
        <time>2022-07-19T09:15:52Z</time>
      </trkpt>
      <trkpt lat="44.25594" lon="6.92566">
        <ele>1142</ele>
        <time>2022-07-19T09:15:56Z</time>
      </trkpt>
      <trkpt lat="44.25594" lon="6.92566">
        <ele>1142</ele>
        <time>2022-07-19T09:15:57Z</time>
      </trkpt>
      <trkpt lat="44.25594" lon="6.92566">
        <ele>1142</ele>
        <time>2022-07-19T09:16:00Z</time>
      </trkpt>
      <trkpt lat="44.25594" lon="6.92566">
        <ele>1142</ele>
        <time>2022-07-19T09:16:02Z</time>
      </trkpt>
      <trkpt lat="44.25594" lon="6.92566">
        <ele>1142</ele>
        <time>2022-07-19T09:16:03Z</time>
      </trkpt>
      <trkpt lat="44.25594" lon="6.92566">
        <ele>1142</ele>
        <time>2022-07-19T09:16:07Z</time>
      </trkpt>
      <trkpt lat="44.25594" lon="6.92566">
        <ele>1142</ele>
        <time>2022-07-19T09:16:08Z</time>
      </trkpt>
      <trkpt lat="44.25594" lon="6.92566">
        <ele>1142</ele>
        <time>2022-07-19T09:16:10Z</time>
      </trkpt>
      <trkpt lat="44.25594" lon="6.92566">
        <ele>1141.8</ele>
        <time>2022-07-19T09:16:13Z</time>
      </trkpt>
      <trkpt lat="44.25594" lon="6.92567">
        <ele>1141.8</ele>
        <time>2022-07-19T09:16:14Z</time>
      </trkpt>
      <trkpt lat="44.25594" lon="6.92567">
        <ele>1141.8</ele>
        <time>2022-07-19T09:16:18Z</time>
      </trkpt>
      <trkpt lat="44.25594" lon="6.92567">
        <ele>1141.8</ele>
        <time>2022-07-19T09:16:19Z</time>
      </trkpt>
      <trkpt lat="44.25593" lon="6.92567">
        <ele>1141.8</ele>
        <time>2022-07-19T09:16:21Z</time>
      </trkpt>
      <trkpt lat="44.25593" lon="6.92567">
        <ele>1141.8</ele>
        <time>2022-07-19T09:16:27Z</time>
      </trkpt>
      <trkpt lat="44.25593" lon="6.92567">
        <ele>1141.8</ele>
        <time>2022-07-19T09:16:28Z</time>
      </trkpt>
      <trkpt lat="44.25593" lon="6.92567">
        <ele>1141.8</ele>
        <time>2022-07-19T09:16:31Z</time>
      </trkpt>
      <trkpt lat="44.25593" lon="6.92567">
        <ele>1141.8</ele>
        <time>2022-07-19T09:16:33Z</time>
      </trkpt>
      <trkpt lat="44.25593" lon="6.92567">
        <ele>1141.8</ele>
        <time>2022-07-19T09:16:35Z</time>
      </trkpt>
      <trkpt lat="44.25593" lon="6.92567">
        <ele>1142</ele>
        <time>2022-07-19T09:16:42Z</time>
      </trkpt>
      <trkpt lat="44.25593" lon="6.92567">
        <ele>1142</ele>
        <time>2022-07-19T09:16:43Z</time>
      </trkpt>
      <trkpt lat="44.25593" lon="6.92567">
        <ele>1142</ele>
        <time>2022-07-19T09:16:46Z</time>
      </trkpt>
      <trkpt lat="44.25593" lon="6.92567">
        <ele>1142</ele>
        <time>2022-07-19T09:16:48Z</time>
      </trkpt>
      <trkpt lat="44.25593" lon="6.92567">
        <ele>1142</ele>
        <time>2022-07-19T09:16:49Z</time>
      </trkpt>
      <trkpt lat="44.25593" lon="6.92567">
        <ele>1142</ele>
        <time>2022-07-19T09:16:50Z</time>
      </trkpt>
      <trkpt lat="44.25593" lon="6.92567">
        <ele>1142</ele>
        <time>2022-07-19T09:16:53Z</time>
      </trkpt>
      <trkpt lat="44.25593" lon="6.92567">
        <ele>1142</ele>
        <time>2022-07-19T09:16:55Z</time>
      </trkpt>
      <trkpt lat="44.25593" lon="6.92567">
        <ele>1142</ele>
        <time>2022-07-19T09:16:59Z</time>
      </trkpt>
      <trkpt lat="44.25593" lon="6.92567">
        <ele>1142</ele>
        <time>2022-07-19T09:17:12Z</time>
      </trkpt>
      <trkpt lat="44.25593" lon="6.92567">
        <ele>1142</ele>
        <time>2022-07-19T09:17:16Z</time>
      </trkpt>
      <trkpt lat="44.25593" lon="6.92567">
        <ele>1142</ele>
        <time>2022-07-19T09:17:32Z</time>
      </trkpt>
      <trkpt lat="44.25593" lon="6.92567">
        <ele>1142</ele>
        <time>2022-07-19T09:17:37Z</time>
      </trkpt>
      <trkpt lat="44.25593" lon="6.92567">
        <ele>1141.8</ele>
        <time>2022-07-19T09:17:41Z</time>
      </trkpt>
      <trkpt lat="44.25587" lon="6.92577">
        <ele>1141.8</ele>
        <time>2022-07-19T09:17:44Z</time>
      </trkpt>
      <trkpt lat="44.25587" lon="6.92579">
        <ele>1141.8</ele>
        <time>2022-07-19T09:17:45Z</time>
      </trkpt>
      <trkpt lat="44.25588" lon="6.92579">
        <ele>1141.8</ele>
        <time>2022-07-19T09:17:46Z</time>
      </trkpt>
      <trkpt lat="44.25589" lon="6.9258">
        <ele>1141.6</ele>
        <time>2022-07-19T09:17:47Z</time>
      </trkpt>
      <trkpt lat="44.25589" lon="6.92581">
        <ele>1141.6</ele>
        <time>2022-07-19T09:17:48Z</time>
      </trkpt>
      <trkpt lat="44.2559" lon="6.92582">
        <ele>1141.4</ele>
        <time>2022-07-19T09:17:56Z</time>
      </trkpt>
      <trkpt lat="44.2559" lon="6.92583">
        <ele>1141.4</ele>
        <time>2022-07-19T09:17:57Z</time>
      </trkpt>
      <trkpt lat="44.25591" lon="6.92584">
        <ele>1141.4</ele>
        <time>2022-07-19T09:17:58Z</time>
      </trkpt>
      <trkpt lat="44.25592" lon="6.92585">
        <ele>1141.4</ele>
        <time>2022-07-19T09:17:59Z</time>
      </trkpt>
      <trkpt lat="44.25592" lon="6.92586">
        <ele>1141.4</ele>
        <time>2022-07-19T09:18:01Z</time>
      </trkpt>
      <trkpt lat="44.25593" lon="6.92587">
        <ele>1141.4</ele>
        <time>2022-07-19T09:18:02Z</time>
      </trkpt>
      <trkpt lat="44.25593" lon="6.92587">
        <ele>1141.4</ele>
        <time>2022-07-19T09:18:03Z</time>
      </trkpt>
      <trkpt lat="44.25594" lon="6.92588">
        <ele>1141.4</ele>
        <time>2022-07-19T09:18:04Z</time>
      </trkpt>
      <trkpt lat="44.25594" lon="6.92588">
        <ele>1141.4</ele>
        <time>2022-07-19T09:18:05Z</time>
      </trkpt>
      <trkpt lat="44.25594" lon="6.92588">
        <ele>1141.4</ele>
        <time>2022-07-19T09:18:06Z</time>
      </trkpt>
      <trkpt lat="44.25594" lon="6.92587">
        <ele>1141.4</ele>
        <time>2022-07-19T09:18:07Z</time>
      </trkpt>
      <trkpt lat="44.25594" lon="6.92587">
        <ele>1141.4</ele>
        <time>2022-07-19T09:18:08Z</time>
      </trkpt>
      <trkpt lat="44.25594" lon="6.92587">
        <ele>1141.4</ele>
        <time>2022-07-19T09:18:09Z</time>
      </trkpt>
      <trkpt lat="44.25593" lon="6.92587">
        <ele>1141.4</ele>
        <time>2022-07-19T09:18:10Z</time>
      </trkpt>
      <trkpt lat="44.25593" lon="6.92587">
        <ele>1141.4</ele>
        <time>2022-07-19T09:18:13Z</time>
      </trkpt>
      <trkpt lat="44.25593" lon="6.92587">
        <ele>1141.4</ele>
        <time>2022-07-19T09:18:14Z</time>
      </trkpt>
      <trkpt lat="44.25593" lon="6.92586">
        <ele>1141.4</ele>
        <time>2022-07-19T09:18:15Z</time>
      </trkpt>
      <trkpt lat="44.25593" lon="6.92586">
        <ele>1141.4</ele>
        <time>2022-07-19T09:18:16Z</time>
      </trkpt>
      <trkpt lat="44.25592" lon="6.92586">
        <ele>1141.4</ele>
        <time>2022-07-19T09:18:26Z</time>
      </trkpt>
      <trkpt lat="44.25592" lon="6.92586">
        <ele>1141.4</ele>
        <time>2022-07-19T09:18:27Z</time>
      </trkpt>
      <trkpt lat="44.25592" lon="6.92586">
        <ele>1141.4</ele>
        <time>2022-07-19T09:18:30Z</time>
      </trkpt>
      <trkpt lat="44.25592" lon="6.92586">
        <ele>1141.4</ele>
        <time>2022-07-19T09:18:31Z</time>
      </trkpt>
      <trkpt lat="44.25592" lon="6.92585">
        <ele>1141.4</ele>
        <time>2022-07-19T09:18:32Z</time>
      </trkpt>
      <trkpt lat="44.25591" lon="6.92585">
        <ele>1141.4</ele>
        <time>2022-07-19T09:18:33Z</time>
      </trkpt>
      <trkpt lat="44.25591" lon="6.92585">
        <ele>1141.4</ele>
        <time>2022-07-19T09:18:34Z</time>
      </trkpt>
      <trkpt lat="44.25591" lon="6.92585">
        <ele>1141.4</ele>
        <time>2022-07-19T09:19:09Z</time>
      </trkpt>
      <trkpt lat="44.25591" lon="6.92585">
        <ele>1141.4</ele>
        <time>2022-07-19T09:19:10Z</time>
      </trkpt>
      <trkpt lat="44.25591" lon="6.92585">
        <ele>1141.4</ele>
        <time>2022-07-19T09:19:11Z</time>
      </trkpt>
      <trkpt lat="44.2559" lon="6.92584">
        <ele>1141.4</ele>
        <time>2022-07-19T09:19:12Z</time>
      </trkpt>
      <trkpt lat="44.2559" lon="6.92584">
        <ele>1141.4</ele>
        <time>2022-07-19T09:19:13Z</time>
      </trkpt>
      <trkpt lat="44.2559" lon="6.92584">
        <ele>1141.4</ele>
        <time>2022-07-19T09:19:14Z</time>
      </trkpt>
      <trkpt lat="44.2559" lon="6.92584">
        <ele>1141.4</ele>
        <time>2022-07-19T09:19:15Z</time>
      </trkpt>
      <trkpt lat="44.25589" lon="6.92584">
        <ele>1141.4</ele>
        <time>2022-07-19T09:19:16Z</time>
      </trkpt>
      <trkpt lat="44.25589" lon="6.92584">
        <ele>1141.4</ele>
        <time>2022-07-19T09:19:17Z</time>
      </trkpt>
      <trkpt lat="44.25589" lon="6.92584">
        <ele>1141.4</ele>
        <time>2022-07-19T09:19:18Z</time>
      </trkpt>
      <trkpt lat="44.25589" lon="6.92583">
        <ele>1141.4</ele>
        <time>2022-07-19T09:19:19Z</time>
      </trkpt>
      <trkpt lat="44.25589" lon="6.92583">
        <ele>1141.4</ele>
        <time>2022-07-19T09:19:20Z</time>
      </trkpt>
      <trkpt lat="44.25588" lon="6.92583">
        <ele>1141.4</ele>
        <time>2022-07-19T09:19:21Z</time>
      </trkpt>
      <trkpt lat="44.25588" lon="6.92583">
        <ele>1141.4</ele>
        <time>2022-07-19T09:19:22Z</time>
      </trkpt>
      <trkpt lat="44.25587" lon="6.92582">
        <ele>1141.4</ele>
        <time>2022-07-19T09:19:23Z</time>
      </trkpt>
      <trkpt lat="44.25587" lon="6.92581">
        <ele>1141.4</ele>
        <time>2022-07-19T09:19:24Z</time>
      </trkpt>
      <trkpt lat="44.25587" lon="6.9258">
        <ele>1141.4</ele>
        <time>2022-07-19T09:19:25Z</time>
      </trkpt>
      <trkpt lat="44.25587" lon="6.92579">
        <ele>1141.4</ele>
        <time>2022-07-19T09:19:26Z</time>
      </trkpt>
      <trkpt lat="44.25587" lon="6.92579">
        <ele>1141.4</ele>
        <time>2022-07-19T09:19:27Z</time>
      </trkpt>
      <trkpt lat="44.25588" lon="6.92578">
        <ele>1141.4</ele>
        <time>2022-07-19T09:19:28Z</time>
      </trkpt>
      <trkpt lat="44.25588" lon="6.92577">
        <ele>1141.4</ele>
        <time>2022-07-19T09:19:29Z</time>
      </trkpt>
      <trkpt lat="44.25588" lon="6.92576">
        <ele>1141.4</ele>
        <time>2022-07-19T09:19:30Z</time>
      </trkpt>
      <trkpt lat="44.25588" lon="6.92575">
        <ele>1141.4</ele>
        <time>2022-07-19T09:19:31Z</time>
      </trkpt>
      <trkpt lat="44.25588" lon="6.92574">
        <ele>1141.4</ele>
        <time>2022-07-19T09:19:32Z</time>
      </trkpt>
      <trkpt lat="44.25588" lon="6.92573">
        <ele>1141.4</ele>
        <time>2022-07-19T09:19:37Z</time>
      </trkpt>
      <trkpt lat="44.25588" lon="6.92573">
        <ele>1141.4</ele>
        <time>2022-07-19T09:19:38Z</time>
      </trkpt>
      <trkpt lat="44.25588" lon="6.92572">
        <ele>1141.4</ele>
        <time>2022-07-19T09:19:41Z</time>
      </trkpt>
      <trkpt lat="44.25588" lon="6.92571">
        <ele>1141.4</ele>
        <time>2022-07-19T09:19:42Z</time>
      </trkpt>
      <trkpt lat="44.25588" lon="6.9257">
        <ele>1141.4</ele>
        <time>2022-07-19T09:19:43Z</time>
      </trkpt>
      <trkpt lat="44.25588" lon="6.92569">
        <ele>1141.4</ele>
        <time>2022-07-19T09:19:44Z</time>
      </trkpt>
      <trkpt lat="44.25589" lon="6.92568">
        <ele>1141.4</ele>
        <time>2022-07-19T09:19:45Z</time>
      </trkpt>
      <trkpt lat="44.25589" lon="6.92568">
        <ele>1141.4</ele>
        <time>2022-07-19T09:19:46Z</time>
      </trkpt>
      <trkpt lat="44.25589" lon="6.92567">
        <ele>1141.6</ele>
        <time>2022-07-19T09:19:54Z</time>
      </trkpt>
      <trkpt lat="44.25589" lon="6.92566">
        <ele>1141.6</ele>
        <time>2022-07-19T09:19:55Z</time>
      </trkpt>
      <trkpt lat="44.25589" lon="6.92565">
        <ele>1141.6</ele>
        <time>2022-07-19T09:19:56Z</time>
      </trkpt>
      <trkpt lat="44.2559" lon="6.92563">
        <ele>1141.6</ele>
        <time>2022-07-19T09:19:57Z</time>
      </trkpt>
      <trkpt lat="44.2559" lon="6.92562">
        <ele>1141.6</ele>
        <time>2022-07-19T09:19:58Z</time>
      </trkpt>
      <trkpt lat="44.2559" lon="6.92562">
        <ele>1141.6</ele>
        <time>2022-07-19T09:19:59Z</time>
      </trkpt>
      <trkpt lat="44.25591" lon="6.92561">
        <ele>1141.6</ele>
        <time>2022-07-19T09:20:00Z</time>
      </trkpt>
      <trkpt lat="44.25591" lon="6.9256">
        <ele>1141.8</ele>
        <time>2022-07-19T09:20:02Z</time>
      </trkpt>
      <trkpt lat="44.25592" lon="6.92559">
        <ele>1141.8</ele>
        <time>2022-07-19T09:20:03Z</time>
      </trkpt>
      <trkpt lat="44.25592" lon="6.92558">
        <ele>1141.8</ele>
        <time>2022-07-19T09:20:04Z</time>
      </trkpt>
      <trkpt lat="44.25592" lon="6.92558">
        <ele>1141.8</ele>
        <time>2022-07-19T09:20:05Z</time>
      </trkpt>
      <trkpt lat="44.25593" lon="6.92557">
        <ele>1141.8</ele>
        <time>2022-07-19T09:20:06Z</time>
      </trkpt>
      <trkpt lat="44.25593" lon="6.92556">
        <ele>1141.8</ele>
        <time>2022-07-19T09:20:07Z</time>
      </trkpt>
      <trkpt lat="44.25594" lon="6.92555">
        <ele>1141.8</ele>
        <time>2022-07-19T09:20:08Z</time>
      </trkpt>
      <trkpt lat="44.25594" lon="6.92554">
        <ele>1141.8</ele>
        <time>2022-07-19T09:20:09Z</time>
      </trkpt>
      <trkpt lat="44.25594" lon="6.92554">
        <ele>1141.8</ele>
        <time>2022-07-19T09:20:10Z</time>
      </trkpt>
      <trkpt lat="44.25595" lon="6.92553">
        <ele>1142</ele>
        <time>2022-07-19T09:20:11Z</time>
      </trkpt>
      <trkpt lat="44.25595" lon="6.92552">
        <ele>1142</ele>
        <time>2022-07-19T09:20:12Z</time>
      </trkpt>
      <trkpt lat="44.25597" lon="6.9255">
        <ele>1142</ele>
        <time>2022-07-19T09:20:13Z</time>
      </trkpt>
      <trkpt lat="44.25597" lon="6.9255">
        <ele>1142.2</ele>
        <time>2022-07-19T09:20:14Z</time>
      </trkpt>
      <trkpt lat="44.25598" lon="6.92549">
        <ele>1142.2</ele>
        <time>2022-07-19T09:20:15Z</time>
      </trkpt>
      <trkpt lat="44.25599" lon="6.92548">
        <ele>1142.2</ele>
        <time>2022-07-19T09:20:16Z</time>
      </trkpt>
      <trkpt lat="44.25599" lon="6.92548">
        <ele>1142.2</ele>
        <time>2022-07-19T09:20:17Z</time>
      </trkpt>
      <trkpt lat="44.256" lon="6.92547">
        <ele>1142.2</ele>
        <time>2022-07-19T09:20:18Z</time>
      </trkpt>
      <trkpt lat="44.25601" lon="6.92546">
        <ele>1142.6</ele>
        <time>2022-07-19T09:20:19Z</time>
      </trkpt>
      <trkpt lat="44.25602" lon="6.92546">
        <ele>1142.6</ele>
        <time>2022-07-19T09:20:20Z</time>
      </trkpt>
      <trkpt lat="44.25602" lon="6.92545">
        <ele>1142.6</ele>
        <time>2022-07-19T09:20:21Z</time>
      </trkpt>
      <trkpt lat="44.25603" lon="6.92544">
        <ele>1142.6</ele>
        <time>2022-07-19T09:20:22Z</time>
      </trkpt>
      <trkpt lat="44.25604" lon="6.92544">
        <ele>1142.8</ele>
        <time>2022-07-19T09:20:25Z</time>
      </trkpt>
      <trkpt lat="44.25604" lon="6.92543">
        <ele>1142.8</ele>
        <time>2022-07-19T09:20:26Z</time>
      </trkpt>
      <trkpt lat="44.25605" lon="6.92542">
        <ele>1142.8</ele>
        <time>2022-07-19T09:20:27Z</time>
      </trkpt>
      <trkpt lat="44.25606" lon="6.92542">
        <ele>1142.8</ele>
        <time>2022-07-19T09:20:28Z</time>
      </trkpt>
      <trkpt lat="44.25606" lon="6.92542">
        <ele>1143</ele>
        <time>2022-07-19T09:20:30Z</time>
      </trkpt>
      <trkpt lat="44.25606" lon="6.92542">
        <ele>1143</ele>
        <time>2022-07-19T09:20:32Z</time>
      </trkpt>
      <trkpt lat="44.25606" lon="6.92542">
        <ele>1143.2</ele>
        <time>2022-07-19T09:20:34Z</time>
      </trkpt>
      <trkpt lat="44.25606" lon="6.92542">
        <ele>1143.2</ele>
        <time>2022-07-19T09:20:35Z</time>
      </trkpt>
      <trkpt lat="44.25606" lon="6.92542">
        <ele>1143.2</ele>
        <time>2022-07-19T09:20:41Z</time>
      </trkpt>
      <trkpt lat="44.25606" lon="6.92542">
        <ele>1143.4</ele>
        <time>2022-07-19T09:20:48Z</time>
      </trkpt>
      <trkpt lat="44.25606" lon="6.92542">
        <ele>1143.4</ele>
        <time>2022-07-19T09:20:49Z</time>
      </trkpt>
      <trkpt lat="44.25606" lon="6.92542">
        <ele>1143.4</ele>
        <time>2022-07-19T09:20:50Z</time>
      </trkpt>
      <trkpt lat="44.25606" lon="6.92542">
        <ele>1143.4</ele>
        <time>2022-07-19T09:20:53Z</time>
      </trkpt>
      <trkpt lat="44.25606" lon="6.92543">
        <ele>1143.4</ele>
        <time>2022-07-19T09:20:55Z</time>
      </trkpt>
      <trkpt lat="44.25606" lon="6.92543">
        <ele>1143.4</ele>
        <time>2022-07-19T09:20:59Z</time>
      </trkpt>
      <trkpt lat="44.25606" lon="6.92543">
        <ele>1143.4</ele>
        <time>2022-07-19T09:21:00Z</time>
      </trkpt>
      <trkpt lat="44.25606" lon="6.92543">
        <ele>1143.4</ele>
        <time>2022-07-19T09:21:01Z</time>
      </trkpt>
      <trkpt lat="44.25606" lon="6.92543">
        <ele>1143.4</ele>
        <time>2022-07-19T09:21:04Z</time>
      </trkpt>
      <trkpt lat="44.25606" lon="6.92543">
        <ele>1143.4</ele>
        <time>2022-07-19T09:21:06Z</time>
      </trkpt>
      <trkpt lat="44.25606" lon="6.92543">
        <ele>1143.4</ele>
        <time>2022-07-19T09:21:09Z</time>
      </trkpt>
      <trkpt lat="44.25606" lon="6.92543">
        <ele>1143.4</ele>
        <time>2022-07-19T09:21:10Z</time>
      </trkpt>
      <trkpt lat="44.25606" lon="6.92543">
        <ele>1143.4</ele>
        <time>2022-07-19T09:21:11Z</time>
      </trkpt>
      <trkpt lat="44.25606" lon="6.92543">
        <ele>1143.4</ele>
        <time>2022-07-19T09:21:14Z</time>
      </trkpt>
      <trkpt lat="44.25606" lon="6.92543">
        <ele>1143.4</ele>
        <time>2022-07-19T09:21:19Z</time>
      </trkpt>
      <trkpt lat="44.25606" lon="6.92543">
        <ele>1143.4</ele>
        <time>2022-07-19T09:21:24Z</time>
      </trkpt>
      <trkpt lat="44.25606" lon="6.92543">
        <ele>1143.4</ele>
        <time>2022-07-19T09:21:25Z</time>
      </trkpt>
      <trkpt lat="44.25606" lon="6.92544">
        <ele>1143.4</ele>
        <time>2022-07-19T09:21:26Z</time>
      </trkpt>
      <trkpt lat="44.25606" lon="6.92544">
        <ele>1143.4</ele>
        <time>2022-07-19T09:21:29Z</time>
      </trkpt>
      <trkpt lat="44.25606" lon="6.92544">
        <ele>1143.4</ele>
        <time>2022-07-19T09:21:31Z</time>
      </trkpt>
      <trkpt lat="44.25606" lon="6.92544">
        <ele>1143.4</ele>
        <time>2022-07-19T09:21:34Z</time>
      </trkpt>
      <trkpt lat="44.25606" lon="6.92544">
        <ele>1143.4</ele>
        <time>2022-07-19T09:21:35Z</time>
      </trkpt>
      <trkpt lat="44.25606" lon="6.92544">
        <ele>1143.4</ele>
        <time>2022-07-19T09:21:36Z</time>
      </trkpt>
      <trkpt lat="44.25606" lon="6.92544">
        <ele>1143.4</ele>
        <time>2022-07-19T09:21:39Z</time>
      </trkpt>
      <trkpt lat="44.25606" lon="6.92544">
        <ele>1143.4</ele>
        <time>2022-07-19T09:21:41Z</time>
      </trkpt>
      <trkpt lat="44.25606" lon="6.92544">
        <ele>1143.4</ele>
        <time>2022-07-19T09:21:44Z</time>
      </trkpt>
      <trkpt lat="44.25606" lon="6.92544">
        <ele>1143.4</ele>
        <time>2022-07-19T09:21:45Z</time>
      </trkpt>
      <trkpt lat="44.25606" lon="6.92544">
        <ele>1143.4</ele>
        <time>2022-07-19T09:21:48Z</time>
      </trkpt>
      <trkpt lat="44.25606" lon="6.92544">
        <ele>1143.4</ele>
        <time>2022-07-19T09:21:51Z</time>
      </trkpt>
      <trkpt lat="44.25606" lon="6.92545">
        <ele>1143.4</ele>
        <time>2022-07-19T09:21:53Z</time>
      </trkpt>
      <trkpt lat="44.25606" lon="6.92545">
        <ele>1143.4</ele>
        <time>2022-07-19T09:21:56Z</time>
      </trkpt>
      <trkpt lat="44.25606" lon="6.92545">
        <ele>1143.4</ele>
        <time>2022-07-19T09:21:57Z</time>
      </trkpt>
      <trkpt lat="44.25606" lon="6.92545">
        <ele>1143.4</ele>
        <time>2022-07-19T09:21:58Z</time>
      </trkpt>
      <trkpt lat="44.25606" lon="6.92545">
        <ele>1143.4</ele>
        <time>2022-07-19T09:22:04Z</time>
      </trkpt>
      <trkpt lat="44.25606" lon="6.92545">
        <ele>1143.4</ele>
        <time>2022-07-19T09:22:06Z</time>
      </trkpt>
      <trkpt lat="44.25606" lon="6.92545">
        <ele>1143.4</ele>
        <time>2022-07-19T09:22:09Z</time>
      </trkpt>
      <trkpt lat="44.25606" lon="6.92545">
        <ele>1143.4</ele>
        <time>2022-07-19T09:22:10Z</time>
      </trkpt>
      <trkpt lat="44.25606" lon="6.92545">
        <ele>1143.4</ele>
        <time>2022-07-19T09:22:11Z</time>
      </trkpt>
      <trkpt lat="44.25606" lon="6.92545">
        <ele>1143.4</ele>
        <time>2022-07-19T09:22:14Z</time>
      </trkpt>
      <trkpt lat="44.25606" lon="6.92545">
        <ele>1143.2</ele>
        <time>2022-07-19T09:22:16Z</time>
      </trkpt>
      <trkpt lat="44.25606" lon="6.92545">
        <ele>1143.2</ele>
        <time>2022-07-19T09:22:21Z</time>
      </trkpt>
      <trkpt lat="44.25606" lon="6.92545">
        <ele>1143.2</ele>
        <time>2022-07-19T09:22:22Z</time>
      </trkpt>
      <trkpt lat="44.25606" lon="6.92546">
        <ele>1143.2</ele>
        <time>2022-07-19T09:22:23Z</time>
      </trkpt>
      <trkpt lat="44.25606" lon="6.92546">
        <ele>1143.6</ele>
        <time>2022-07-19T09:22:26Z</time>
      </trkpt>
      <trkpt lat="44.25606" lon="6.92546">
        <ele>1143.6</ele>
        <time>2022-07-19T09:22:28Z</time>
      </trkpt>
      <trkpt lat="44.25606" lon="6.92546">
        <ele>1143.6</ele>
        <time>2022-07-19T09:22:31Z</time>
      </trkpt>
      <trkpt lat="44.25606" lon="6.92546">
        <ele>1143.6</ele>
        <time>2022-07-19T09:22:32Z</time>
      </trkpt>
      <trkpt lat="44.25606" lon="6.92546">
        <ele>1143.6</ele>
        <time>2022-07-19T09:22:33Z</time>
      </trkpt>
      <trkpt lat="44.25606" lon="6.92546">
        <ele>1143.6</ele>
        <time>2022-07-19T09:22:36Z</time>
      </trkpt>
      <trkpt lat="44.25606" lon="6.92546">
        <ele>1143.6</ele>
        <time>2022-07-19T09:22:38Z</time>
      </trkpt>
      <trkpt lat="44.25606" lon="6.92546">
        <ele>1143.6</ele>
        <time>2022-07-19T09:22:41Z</time>
      </trkpt>
      <trkpt lat="44.25606" lon="6.92546">
        <ele>1143.6</ele>
        <time>2022-07-19T09:22:42Z</time>
      </trkpt>
      <trkpt lat="44.25606" lon="6.92546">
        <ele>1143.6</ele>
        <time>2022-07-19T09:22:43Z</time>
      </trkpt>
      <trkpt lat="44.25606" lon="6.92546">
        <ele>1143.6</ele>
        <time>2022-07-19T09:22:53Z</time>
      </trkpt>
      <trkpt lat="44.25606" lon="6.92547">
        <ele>1143.6</ele>
        <time>2022-07-19T09:22:55Z</time>
      </trkpt>
      <trkpt lat="44.25606" lon="6.92547">
        <ele>1143.6</ele>
        <time>2022-07-19T09:22:59Z</time>
      </trkpt>
      <trkpt lat="44.25606" lon="6.92547">
        <ele>1143.6</ele>
        <time>2022-07-19T09:23:00Z</time>
      </trkpt>
      <trkpt lat="44.25606" lon="6.92547">
        <ele>1143.6</ele>
        <time>2022-07-19T09:23:01Z</time>
      </trkpt>
      <trkpt lat="44.25606" lon="6.92547">
        <ele>1143.6</ele>
        <time>2022-07-19T09:23:05Z</time>
      </trkpt>
      <trkpt lat="44.25606" lon="6.92547">
        <ele>1143.6</ele>
        <time>2022-07-19T09:23:07Z</time>
      </trkpt>
      <trkpt lat="44.25606" lon="6.92547">
        <ele>1143.8</ele>
        <time>2022-07-19T09:23:10Z</time>
      </trkpt>
      <trkpt lat="44.25606" lon="6.92547">
        <ele>1143.8</ele>
        <time>2022-07-19T09:23:11Z</time>
      </trkpt>
      <trkpt lat="44.25606" lon="6.92547">
        <ele>1143.8</ele>
        <time>2022-07-19T09:23:12Z</time>
      </trkpt>
      <trkpt lat="44.25606" lon="6.92547">
        <ele>1143.8</ele>
        <time>2022-07-19T09:23:17Z</time>
      </trkpt>
      <trkpt lat="44.25606" lon="6.92547">
        <ele>1143.8</ele>
        <time>2022-07-19T09:23:19Z</time>
      </trkpt>
      <trkpt lat="44.25606" lon="6.92547">
        <ele>1143.8</ele>
        <time>2022-07-19T09:23:22Z</time>
      </trkpt>
      <trkpt lat="44.25606" lon="6.92547">
        <ele>1143.8</ele>
        <time>2022-07-19T09:23:23Z</time>
      </trkpt>
      <trkpt lat="44.25606" lon="6.92548">
        <ele>1143.8</ele>
        <time>2022-07-19T09:23:24Z</time>
      </trkpt>
      <trkpt lat="44.25606" lon="6.92548">
        <ele>1143.8</ele>
        <time>2022-07-19T09:23:27Z</time>
      </trkpt>
      <trkpt lat="44.25606" lon="6.92548">
        <ele>1143.8</ele>
        <time>2022-07-19T09:23:29Z</time>
      </trkpt>
      <trkpt lat="44.25606" lon="6.92548">
        <ele>1143.8</ele>
        <time>2022-07-19T09:23:35Z</time>
      </trkpt>
      <trkpt lat="44.25606" lon="6.92548">
        <ele>1143.8</ele>
        <time>2022-07-19T09:23:36Z</time>
      </trkpt>
      <trkpt lat="44.25606" lon="6.92548">
        <ele>1143.8</ele>
        <time>2022-07-19T09:23:37Z</time>
      </trkpt>
      <trkpt lat="44.25606" lon="6.92548">
        <ele>1143.8</ele>
        <time>2022-07-19T09:23:44Z</time>
      </trkpt>
      <trkpt lat="44.25606" lon="6.92548">
        <ele>1143.8</ele>
        <time>2022-07-19T09:23:48Z</time>
      </trkpt>
      <trkpt lat="44.25606" lon="6.92548">
        <ele>1143.8</ele>
        <time>2022-07-19T09:23:51Z</time>
      </trkpt>
      <trkpt lat="44.25606" lon="6.92548">
        <ele>1143.8</ele>
        <time>2022-07-19T09:23:52Z</time>
      </trkpt>
      <trkpt lat="44.25606" lon="6.92548">
        <ele>1143.8</ele>
        <time>2022-07-19T09:23:55Z</time>
      </trkpt>
      <trkpt lat="44.25606" lon="6.92548">
        <ele>1143.8</ele>
        <time>2022-07-19T09:23:58Z</time>
      </trkpt>
      <trkpt lat="44.25606" lon="6.92549">
        <ele>1143.8</ele>
        <time>2022-07-19T09:24:00Z</time>
      </trkpt>
      <trkpt lat="44.25606" lon="6.92549">
        <ele>1143.8</ele>
        <time>2022-07-19T09:24:06Z</time>
      </trkpt>
      <trkpt lat="44.25606" lon="6.92549">
        <ele>1143.8</ele>
        <time>2022-07-19T09:24:07Z</time>
      </trkpt>
      <trkpt lat="44.25606" lon="6.92549">
        <ele>1143.8</ele>
        <time>2022-07-19T09:24:08Z</time>
      </trkpt>
      <trkpt lat="44.25606" lon="6.92549">
        <ele>1143.8</ele>
        <time>2022-07-19T09:24:11Z</time>
      </trkpt>
      <trkpt lat="44.25606" lon="6.92549">
        <ele>1143.8</ele>
        <time>2022-07-19T09:24:23Z</time>
      </trkpt>
      <trkpt lat="44.25606" lon="6.92549">
        <ele>1143.8</ele>
        <time>2022-07-19T09:24:26Z</time>
      </trkpt>
      <trkpt lat="44.25606" lon="6.92549">
        <ele>1143.8</ele>
        <time>2022-07-19T09:24:27Z</time>
      </trkpt>
      <trkpt lat="44.25606" lon="6.92549">
        <ele>1143.8</ele>
        <time>2022-07-19T09:24:28Z</time>
      </trkpt>
      <trkpt lat="44.25606" lon="6.92549">
        <ele>1143.8</ele>
        <time>2022-07-19T09:24:31Z</time>
      </trkpt>
      <trkpt lat="44.25606" lon="6.92549">
        <ele>1143.8</ele>
        <time>2022-07-19T09:24:33Z</time>
      </trkpt>
      <trkpt lat="44.25606" lon="6.92549">
        <ele>1143.8</ele>
        <time>2022-07-19T09:24:36Z</time>
      </trkpt>
      <trkpt lat="44.25606" lon="6.92549">
        <ele>1143.8</ele>
        <time>2022-07-19T09:24:37Z</time>
      </trkpt>
      <trkpt lat="44.25606" lon="6.9255">
        <ele>1143.8</ele>
        <time>2022-07-19T09:24:38Z</time>
      </trkpt>
      <trkpt lat="44.25606" lon="6.9255">
        <ele>1143.6</ele>
        <time>2022-07-19T09:24:42Z</time>
      </trkpt>
      <trkpt lat="44.25606" lon="6.9255">
        <ele>1143.6</ele>
        <time>2022-07-19T09:24:44Z</time>
      </trkpt>
      <trkpt lat="44.25606" lon="6.9255">
        <ele>1143.6</ele>
        <time>2022-07-19T09:24:47Z</time>
      </trkpt>
      <trkpt lat="44.25606" lon="6.9255">
        <ele>1143.6</ele>
        <time>2022-07-19T09:24:48Z</time>
      </trkpt>
      <trkpt lat="44.25606" lon="6.9255">
        <ele>1143.6</ele>
        <time>2022-07-19T09:24:49Z</time>
      </trkpt>
      <trkpt lat="44.25606" lon="6.9255">
        <ele>1143.8</ele>
        <time>2022-07-19T09:24:54Z</time>
      </trkpt>
      <trkpt lat="44.25606" lon="6.9255">
        <ele>1143.8</ele>
        <time>2022-07-19T09:24:56Z</time>
      </trkpt>
      <trkpt lat="44.25606" lon="6.9255">
        <ele>1143.8</ele>
        <time>2022-07-19T09:24:59Z</time>
      </trkpt>
      <trkpt lat="44.25606" lon="6.9255">
        <ele>1143.8</ele>
        <time>2022-07-19T09:25:00Z</time>
      </trkpt>
      <trkpt lat="44.25606" lon="6.9255">
        <ele>1143.8</ele>
        <time>2022-07-19T09:25:01Z</time>
      </trkpt>
      <trkpt lat="44.25606" lon="6.9255">
        <ele>1143.8</ele>
        <time>2022-07-19T09:25:04Z</time>
      </trkpt>
      <trkpt lat="44.25606" lon="6.92551">
        <ele>1143.8</ele>
        <time>2022-07-19T09:25:06Z</time>
      </trkpt>
      <trkpt lat="44.25606" lon="6.92551">
        <ele>1143.8</ele>
        <time>2022-07-19T09:25:09Z</time>
      </trkpt>
      <trkpt lat="44.25606" lon="6.92551">
        <ele>1143.8</ele>
        <time>2022-07-19T09:25:10Z</time>
      </trkpt>
      <trkpt lat="44.25606" lon="6.92551">
        <ele>1143.8</ele>
        <time>2022-07-19T09:25:11Z</time>
      </trkpt>
      <trkpt lat="44.25606" lon="6.92551">
        <ele>1143.8</ele>
        <time>2022-07-19T09:25:14Z</time>
      </trkpt>
      <trkpt lat="44.25606" lon="6.92551">
        <ele>1143.8</ele>
        <time>2022-07-19T09:25:28Z</time>
      </trkpt>
      <trkpt lat="44.25606" lon="6.92551">
        <ele>1143.8</ele>
        <time>2022-07-19T09:25:31Z</time>
      </trkpt>
      <trkpt lat="44.25606" lon="6.92551">
        <ele>1143.8</ele>
        <time>2022-07-19T09:25:32Z</time>
      </trkpt>
      <trkpt lat="44.25606" lon="6.92551">
        <ele>1143.8</ele>
        <time>2022-07-19T09:25:33Z</time>
      </trkpt>
      <trkpt lat="44.25606" lon="6.92551">
        <ele>1143.8</ele>
        <time>2022-07-19T09:25:36Z</time>
      </trkpt>
      <trkpt lat="44.25606" lon="6.92551">
        <ele>1143.8</ele>
        <time>2022-07-19T09:25:38Z</time>
      </trkpt>
      <trkpt lat="44.25606" lon="6.92551">
        <ele>1143.8</ele>
        <time>2022-07-19T09:25:41Z</time>
      </trkpt>
      <trkpt lat="44.25606" lon="6.92551">
        <ele>1143.8</ele>
        <time>2022-07-19T09:25:42Z</time>
      </trkpt>
      <trkpt lat="44.25606" lon="6.92552">
        <ele>1143.8</ele>
        <time>2022-07-19T09:25:45Z</time>
      </trkpt>
      <trkpt lat="44.25606" lon="6.92552">
        <ele>1143.8</ele>
        <time>2022-07-19T09:25:48Z</time>
      </trkpt>
      <trkpt lat="44.25606" lon="6.92552">
        <ele>1143.8</ele>
        <time>2022-07-19T09:25:49Z</time>
      </trkpt>
      <trkpt lat="44.25606" lon="6.92552">
        <ele>1143.8</ele>
        <time>2022-07-19T09:25:50Z</time>
      </trkpt>
      <trkpt lat="44.25606" lon="6.92552">
        <ele>1143.8</ele>
        <time>2022-07-19T09:25:53Z</time>
      </trkpt>
      <trkpt lat="44.25606" lon="6.92552">
        <ele>1143.8</ele>
        <time>2022-07-19T09:25:55Z</time>
      </trkpt>
      <trkpt lat="44.25606" lon="6.92552">
        <ele>1143.8</ele>
        <time>2022-07-19T09:25:58Z</time>
      </trkpt>
      <trkpt lat="44.25606" lon="6.92552">
        <ele>1143.8</ele>
        <time>2022-07-19T09:25:59Z</time>
      </trkpt>
      <trkpt lat="44.25606" lon="6.92552">
        <ele>1143.8</ele>
        <time>2022-07-19T09:26:00Z</time>
      </trkpt>
      <trkpt lat="44.25606" lon="6.92552">
        <ele>1143.8</ele>
        <time>2022-07-19T09:26:03Z</time>
      </trkpt>
      <trkpt lat="44.25606" lon="6.92552">
        <ele>1143.8</ele>
        <time>2022-07-19T09:26:05Z</time>
      </trkpt>
      <trkpt lat="44.25606" lon="6.92552">
        <ele>1143.8</ele>
        <time>2022-07-19T09:26:08Z</time>
      </trkpt>
      <trkpt lat="44.25606" lon="6.92552">
        <ele>1143.8</ele>
        <time>2022-07-19T09:26:09Z</time>
      </trkpt>
      <trkpt lat="44.25606" lon="6.92553">
        <ele>1143.8</ele>
        <time>2022-07-19T09:26:10Z</time>
      </trkpt>
      <trkpt lat="44.25606" lon="6.92553">
        <ele>1143.8</ele>
        <time>2022-07-19T09:26:13Z</time>
      </trkpt>
      <trkpt lat="44.25606" lon="6.92553">
        <ele>1143.8</ele>
        <time>2022-07-19T09:26:15Z</time>
      </trkpt>
      <trkpt lat="44.25606" lon="6.92553">
        <ele>1143.8</ele>
        <time>2022-07-19T09:26:17Z</time>
      </trkpt>
      <trkpt lat="44.25606" lon="6.92553">
        <ele>1143.8</ele>
        <time>2022-07-19T09:26:19Z</time>
      </trkpt>
      <trkpt lat="44.25606" lon="6.92553">
        <ele>1143.8</ele>
        <time>2022-07-19T09:26:20Z</time>
      </trkpt>
      <trkpt lat="44.25606" lon="6.92553">
        <ele>1143.8</ele>
        <time>2022-07-19T09:26:21Z</time>
      </trkpt>
      <trkpt lat="44.25606" lon="6.92553">
        <ele>1143.8</ele>
        <time>2022-07-19T09:26:22Z</time>
      </trkpt>
      <trkpt lat="44.25606" lon="6.92553">
        <ele>1143.8</ele>
        <time>2022-07-19T09:26:23Z</time>
      </trkpt>
      <trkpt lat="44.25606" lon="6.92553">
        <ele>1143.6</ele>
        <time>2022-07-19T09:26:26Z</time>
      </trkpt>
      <trkpt lat="44.25606" lon="6.92553">
        <ele>1143.6</ele>
        <time>2022-07-19T09:26:28Z</time>
      </trkpt>
      <trkpt lat="44.25607" lon="6.92553">
        <ele>1143.6</ele>
        <time>2022-07-19T09:26:30Z</time>
      </trkpt>
      <trkpt lat="44.25607" lon="6.92553">
        <ele>1143.6</ele>
        <time>2022-07-19T09:26:32Z</time>
      </trkpt>
      <trkpt lat="44.25607" lon="6.92553">
        <ele>1143.6</ele>
        <time>2022-07-19T09:26:33Z</time>
      </trkpt>
      <trkpt lat="44.25607" lon="6.92553">
        <ele>1143.6</ele>
        <time>2022-07-19T09:26:34Z</time>
      </trkpt>
      <trkpt lat="44.25607" lon="6.92553">
        <ele>1143.6</ele>
        <time>2022-07-19T09:26:35Z</time>
      </trkpt>
      <trkpt lat="44.25607" lon="6.92554">
        <ele>1143.2</ele>
        <time>2022-07-19T09:26:38Z</time>
      </trkpt>
      <trkpt lat="44.25605" lon="6.92561">
        <ele>1142.8</ele>
        <time>2022-07-19T09:26:40Z</time>
      </trkpt>
      <trkpt lat="44.25603" lon="6.92562">
        <ele>1142.8</ele>
        <time>2022-07-19T09:26:41Z</time>
      </trkpt>
      <trkpt lat="44.25601" lon="6.92564">
        <ele>1142.6</ele>
        <time>2022-07-19T09:26:42Z</time>
      </trkpt>
      <trkpt lat="44.256" lon="6.92566">
        <ele>1142.6</ele>
        <time>2022-07-19T09:26:43Z</time>
      </trkpt>
      <trkpt lat="44.25599" lon="6.92568">
        <ele>1142.6</ele>
        <time>2022-07-19T09:26:44Z</time>
      </trkpt>
      <trkpt lat="44.25597" lon="6.92569">
        <ele>1142.4</ele>
        <time>2022-07-19T09:26:45Z</time>
      </trkpt>
      <trkpt lat="44.25595" lon="6.92571">
        <ele>1142.4</ele>
        <time>2022-07-19T09:26:46Z</time>
      </trkpt>
      <trkpt lat="44.25593" lon="6.92572">
        <ele>1142.4</ele>
        <time>2022-07-19T09:26:47Z</time>
      </trkpt>
      <trkpt lat="44.25592" lon="6.92574">
        <ele>1142</ele>
        <time>2022-07-19T09:26:48Z</time>
      </trkpt>
      <trkpt lat="44.25591" lon="6.92576">
        <ele>1142</ele>
        <time>2022-07-19T09:26:49Z</time>
      </trkpt>
      <trkpt lat="44.25591" lon="6.92577">
        <ele>1141.8</ele>
        <time>2022-07-19T09:26:50Z</time>
      </trkpt>
      <trkpt lat="44.2559" lon="6.92577">
        <ele>1141.8</ele>
        <time>2022-07-19T09:26:51Z</time>
      </trkpt>
      <trkpt lat="44.2559" lon="6.92577">
        <ele>1141.8</ele>
        <time>2022-07-19T09:26:52Z</time>
      </trkpt>
      <trkpt lat="44.25589" lon="6.92577">
        <ele>1141.8</ele>
        <time>2022-07-19T09:26:53Z</time>
      </trkpt>
      <trkpt lat="44.25589" lon="6.92577">
        <ele>1141.6</ele>
        <time>2022-07-19T09:26:57Z</time>
      </trkpt>
      <trkpt lat="44.25589" lon="6.92577">
        <ele>1141.6</ele>
        <time>2022-07-19T09:27:02Z</time>
      </trkpt>
      <trkpt lat="44.25589" lon="6.92577">
        <ele>1141.6</ele>
        <time>2022-07-19T09:27:06Z</time>
      </trkpt>
      <trkpt lat="44.25597" lon="6.92583">
        <ele>1141.6</ele>
        <time>2022-07-19T09:27:13Z</time>
      </trkpt>
      <trkpt lat="44.25599" lon="6.92584">
        <ele>1141.6</ele>
        <time>2022-07-19T09:27:14Z</time>
      </trkpt>
      <trkpt lat="44.25601" lon="6.92586">
        <ele>1141.6</ele>
        <time>2022-07-19T09:27:15Z</time>
      </trkpt>
      <trkpt lat="44.25603" lon="6.92588">
        <ele>1141.6</ele>
        <time>2022-07-19T09:27:16Z</time>
      </trkpt>
      <trkpt lat="44.25605" lon="6.9259">
        <ele>1141.6</ele>
        <time>2022-07-19T09:27:17Z</time>
      </trkpt>
      <trkpt lat="44.25607" lon="6.92593">
        <ele>1141.6</ele>
        <time>2022-07-19T09:27:18Z</time>
      </trkpt>
      <trkpt lat="44.25607" lon="6.92597">
        <ele>1141.6</ele>
        <time>2022-07-19T09:27:19Z</time>
      </trkpt>
      <trkpt lat="44.25608" lon="6.92601">
        <ele>1141.4</ele>
        <time>2022-07-19T09:27:20Z</time>
      </trkpt>
      <trkpt lat="44.25609" lon="6.92603">
        <ele>1141.4</ele>
        <time>2022-07-19T09:27:21Z</time>
      </trkpt>
      <trkpt lat="44.2561" lon="6.92605">
        <ele>1141.4</ele>
        <time>2022-07-19T09:27:22Z</time>
      </trkpt>
      <trkpt lat="44.25612" lon="6.92606">
        <ele>1141.4</ele>
        <time>2022-07-19T09:27:23Z</time>
      </trkpt>
      <trkpt lat="44.25613" lon="6.92607">
        <ele>1141.4</ele>
        <time>2022-07-19T09:27:24Z</time>
      </trkpt>
      <trkpt lat="44.25614" lon="6.92607">
        <ele>1141.2</ele>
        <time>2022-07-19T09:27:25Z</time>
      </trkpt>
      <trkpt lat="44.25615" lon="6.92608">
        <ele>1141.2</ele>
        <time>2022-07-19T09:27:26Z</time>
      </trkpt>
      <trkpt lat="44.25617" lon="6.92609">
        <ele>1141.2</ele>
        <time>2022-07-19T09:27:27Z</time>
      </trkpt>
      <trkpt lat="44.25618" lon="6.92612">
        <ele>1141.2</ele>
        <time>2022-07-19T09:27:28Z</time>
      </trkpt>
      <trkpt lat="44.2562" lon="6.92614">
        <ele>1141</ele>
        <time>2022-07-19T09:27:29Z</time>
      </trkpt>
      <trkpt lat="44.25622" lon="6.92616">
        <ele>1141</ele>
        <time>2022-07-19T09:27:30Z</time>
      </trkpt>
      <trkpt lat="44.25624" lon="6.92618">
        <ele>1141</ele>
        <time>2022-07-19T09:27:31Z</time>
      </trkpt>
      <trkpt lat="44.25625" lon="6.92619">
        <ele>1141</ele>
        <time>2022-07-19T09:27:32Z</time>
      </trkpt>
      <trkpt lat="44.25627" lon="6.9262">
        <ele>1140.6</ele>
        <time>2022-07-19T09:27:33Z</time>
      </trkpt>
      <trkpt lat="44.25629" lon="6.92622">
        <ele>1140.6</ele>
        <time>2022-07-19T09:27:34Z</time>
      </trkpt>
      <trkpt lat="44.2563" lon="6.92622">
        <ele>1140.6</ele>
        <time>2022-07-19T09:27:35Z</time>
      </trkpt>
      <trkpt lat="44.25632" lon="6.92622">
        <ele>1140.4</ele>
        <time>2022-07-19T09:27:36Z</time>
      </trkpt>
      <trkpt lat="44.25634" lon="6.92622">
        <ele>1140.4</ele>
        <time>2022-07-19T09:27:37Z</time>
      </trkpt>
      <trkpt lat="44.25637" lon="6.92622">
        <ele>1140.4</ele>
        <time>2022-07-19T09:27:38Z</time>
      </trkpt>
      <trkpt lat="44.2564" lon="6.92621">
        <ele>1140.4</ele>
        <time>2022-07-19T09:27:39Z</time>
      </trkpt>
      <trkpt lat="44.25643" lon="6.92621">
        <ele>1140.2</ele>
        <time>2022-07-19T09:27:40Z</time>
      </trkpt>
      <trkpt lat="44.25647" lon="6.92621">
        <ele>1140.2</ele>
        <time>2022-07-19T09:27:41Z</time>
      </trkpt>
      <trkpt lat="44.25651" lon="6.9262">
        <ele>1140.2</ele>
        <time>2022-07-19T09:27:42Z</time>
      </trkpt>
      <trkpt lat="44.25654" lon="6.9262">
        <ele>1140</ele>
        <time>2022-07-19T09:27:43Z</time>
      </trkpt>
      <trkpt lat="44.25658" lon="6.9262">
        <ele>1140</ele>
        <time>2022-07-19T09:27:45Z</time>
      </trkpt>
      <trkpt lat="44.25662" lon="6.9262">
        <ele>1139.8</ele>
        <time>2022-07-19T09:27:46Z</time>
      </trkpt>
      <trkpt lat="44.25666" lon="6.92619">
        <ele>1139.8</ele>
        <time>2022-07-19T09:27:47Z</time>
      </trkpt>
      <trkpt lat="44.25671" lon="6.92618">
        <ele>1139.8</ele>
        <time>2022-07-19T09:27:48Z</time>
      </trkpt>
      <trkpt lat="44.25675" lon="6.92617">
        <ele>1139.8</ele>
        <time>2022-07-19T09:27:49Z</time>
      </trkpt>
      <trkpt lat="44.25679" lon="6.92617">
        <ele>1139.4</ele>
        <time>2022-07-19T09:27:50Z</time>
      </trkpt>
      <trkpt lat="44.25684" lon="6.92616">
        <ele>1139.4</ele>
        <time>2022-07-19T09:27:51Z</time>
      </trkpt>
      <trkpt lat="44.25687" lon="6.92615">
        <ele>1139.4</ele>
        <time>2022-07-19T09:27:52Z</time>
      </trkpt>
      <trkpt lat="44.25692" lon="6.92613">
        <ele>1139.2</ele>
        <time>2022-07-19T09:27:53Z</time>
      </trkpt>
      <trkpt lat="44.25695" lon="6.92611">
        <ele>1139.2</ele>
        <time>2022-07-19T09:27:54Z</time>
      </trkpt>
      <trkpt lat="44.25699" lon="6.92609">
        <ele>1139.2</ele>
        <time>2022-07-19T09:27:55Z</time>
      </trkpt>
      <trkpt lat="44.25704" lon="6.92607">
        <ele>1139</ele>
        <time>2022-07-19T09:27:56Z</time>
      </trkpt>
      <trkpt lat="44.25708" lon="6.92604">
        <ele>1139</ele>
        <time>2022-07-19T09:27:57Z</time>
      </trkpt>
      <trkpt lat="44.25712" lon="6.92602">
        <ele>1138.6</ele>
        <time>2022-07-19T09:27:58Z</time>
      </trkpt>
      <trkpt lat="44.25716" lon="6.92599">
        <ele>1138.6</ele>
        <time>2022-07-19T09:27:59Z</time>
      </trkpt>
      <trkpt lat="44.25721" lon="6.92596">
        <ele>1138.6</ele>
        <time>2022-07-19T09:28:00Z</time>
      </trkpt>
      <trkpt lat="44.25725" lon="6.92592">
        <ele>1138.4</ele>
        <time>2022-07-19T09:28:01Z</time>
      </trkpt>
      <trkpt lat="44.25728" lon="6.92589">
        <ele>1138.4</ele>
        <time>2022-07-19T09:28:02Z</time>
      </trkpt>
      <trkpt lat="44.25732" lon="6.92584">
        <ele>1138.2</ele>
        <time>2022-07-19T09:28:03Z</time>
      </trkpt>
      <trkpt lat="44.25735" lon="6.9258">
        <ele>1138.2</ele>
        <time>2022-07-19T09:28:04Z</time>
      </trkpt>
      <trkpt lat="44.25738" lon="6.92575">
        <ele>1138</ele>
        <time>2022-07-19T09:28:05Z</time>
      </trkpt>
      <trkpt lat="44.25742" lon="6.92571">
        <ele>1138</ele>
        <time>2022-07-19T09:28:06Z</time>
      </trkpt>
      <trkpt lat="44.25746" lon="6.92567">
        <ele>1137.6</ele>
        <time>2022-07-19T09:28:07Z</time>
      </trkpt>
      <trkpt lat="44.2575" lon="6.92562">
        <ele>1137.6</ele>
        <time>2022-07-19T09:28:08Z</time>
      </trkpt>
      <trkpt lat="44.25753" lon="6.92558">
        <ele>1137.4</ele>
        <time>2022-07-19T09:28:09Z</time>
      </trkpt>
      <trkpt lat="44.25757" lon="6.92554">
        <ele>1137.4</ele>
        <time>2022-07-19T09:28:10Z</time>
      </trkpt>
      <trkpt lat="44.25761" lon="6.92549">
        <ele>1137.4</ele>
        <time>2022-07-19T09:28:11Z</time>
      </trkpt>
      <trkpt lat="44.25765" lon="6.92545">
        <ele>1137.2</ele>
        <time>2022-07-19T09:28:12Z</time>
      </trkpt>
      <trkpt lat="44.25769" lon="6.9254">
        <ele>1137.2</ele>
        <time>2022-07-19T09:28:13Z</time>
      </trkpt>
      <trkpt lat="44.25772" lon="6.92534">
        <ele>1136.8</ele>
        <time>2022-07-19T09:28:14Z</time>
      </trkpt>
      <trkpt lat="44.25775" lon="6.9253">
        <ele>1136.8</ele>
        <time>2022-07-19T09:28:15Z</time>
      </trkpt>
      <trkpt lat="44.25778" lon="6.92526">
        <ele>1136.8</ele>
        <time>2022-07-19T09:28:16Z</time>
      </trkpt>
      <trkpt lat="44.2578" lon="6.92524">
        <ele>1136.8</ele>
        <time>2022-07-19T09:28:17Z</time>
      </trkpt>
      <trkpt lat="44.25782" lon="6.92522">
        <ele>1136.8</ele>
        <time>2022-07-19T09:28:18Z</time>
      </trkpt>
      <trkpt lat="44.25784" lon="6.9252">
        <ele>1137.2</ele>
        <time>2022-07-19T09:28:19Z</time>
      </trkpt>
      <trkpt lat="44.25786" lon="6.92517">
        <ele>1137.2</ele>
        <time>2022-07-19T09:28:20Z</time>
      </trkpt>
      <trkpt lat="44.25787" lon="6.92515">
        <ele>1137.4</ele>
        <time>2022-07-19T09:28:21Z</time>
      </trkpt>
      <trkpt lat="44.25789" lon="6.92513">
        <ele>1137.4</ele>
        <time>2022-07-19T09:28:22Z</time>
      </trkpt>
      <trkpt lat="44.25791" lon="6.92512">
        <ele>1137.6</ele>
        <time>2022-07-19T09:28:23Z</time>
      </trkpt>
      <trkpt lat="44.25793" lon="6.9251">
        <ele>1137.6</ele>
        <time>2022-07-19T09:28:24Z</time>
      </trkpt>
      <trkpt lat="44.25796" lon="6.92509">
        <ele>1137.6</ele>
        <time>2022-07-19T09:28:25Z</time>
      </trkpt>
      <trkpt lat="44.25798" lon="6.92508">
        <ele>1137.8</ele>
        <time>2022-07-19T09:28:26Z</time>
      </trkpt>
      <trkpt lat="44.25801" lon="6.92508">
        <ele>1137.8</ele>
        <time>2022-07-19T09:28:27Z</time>
      </trkpt>
      <trkpt lat="44.25804" lon="6.9251">
        <ele>1137.8</ele>
        <time>2022-07-19T09:28:28Z</time>
      </trkpt>
      <trkpt lat="44.25807" lon="6.92513">
        <ele>1137.8</ele>
        <time>2022-07-19T09:28:29Z</time>
      </trkpt>
      <trkpt lat="44.25809" lon="6.92517">
        <ele>1137.8</ele>
        <time>2022-07-19T09:28:30Z</time>
      </trkpt>
      <trkpt lat="44.25811" lon="6.92521">
        <ele>1137.8</ele>
        <time>2022-07-19T09:28:31Z</time>
      </trkpt>
      <trkpt lat="44.25814" lon="6.92525">
        <ele>1137.8</ele>
        <time>2022-07-19T09:28:32Z</time>
      </trkpt>
      <trkpt lat="44.25816" lon="6.92529">
        <ele>1137.8</ele>
        <time>2022-07-19T09:28:33Z</time>
      </trkpt>
      <trkpt lat="44.25819" lon="6.92533">
        <ele>1137.8</ele>
        <time>2022-07-19T09:28:34Z</time>
      </trkpt>
      <trkpt lat="44.25821" lon="6.92537">
        <ele>1137.8</ele>
        <time>2022-07-19T09:28:35Z</time>
      </trkpt>
      <trkpt lat="44.25823" lon="6.9254">
        <ele>1137.8</ele>
        <time>2022-07-19T09:28:36Z</time>
      </trkpt>
      <trkpt lat="44.25825" lon="6.92544">
        <ele>1137.8</ele>
        <time>2022-07-19T09:28:37Z</time>
      </trkpt>
      <trkpt lat="44.25826" lon="6.92547">
        <ele>1138.2</ele>
        <time>2022-07-19T09:28:38Z</time>
      </trkpt>
      <trkpt lat="44.25828" lon="6.9255">
        <ele>1138.2</ele>
        <time>2022-07-19T09:28:39Z</time>
      </trkpt>
      <trkpt lat="44.2583" lon="6.92554">
        <ele>1138.2</ele>
        <time>2022-07-19T09:28:40Z</time>
      </trkpt>
      <trkpt lat="44.25831" lon="6.92557">
        <ele>1138.2</ele>
        <time>2022-07-19T09:28:41Z</time>
      </trkpt>
      <trkpt lat="44.25833" lon="6.92561">
        <ele>1138.2</ele>
        <time>2022-07-19T09:28:42Z</time>
      </trkpt>
      <trkpt lat="44.25836" lon="6.92565">
        <ele>1138.4</ele>
        <time>2022-07-19T09:28:43Z</time>
      </trkpt>
      <trkpt lat="44.25838" lon="6.92569">
        <ele>1138.4</ele>
        <time>2022-07-19T09:28:44Z</time>
      </trkpt>
      <trkpt lat="44.2584" lon="6.92573">
        <ele>1138.4</ele>
        <time>2022-07-19T09:28:45Z</time>
      </trkpt>
      <trkpt lat="44.25842" lon="6.92576">
        <ele>1138.4</ele>
        <time>2022-07-19T09:28:46Z</time>
      </trkpt>
      <trkpt lat="44.25844" lon="6.9258">
        <ele>1138.4</ele>
        <time>2022-07-19T09:28:47Z</time>
      </trkpt>
      <trkpt lat="44.25846" lon="6.92584">
        <ele>1138.4</ele>
        <time>2022-07-19T09:28:48Z</time>
      </trkpt>
      <trkpt lat="44.25849" lon="6.92588">
        <ele>1138.4</ele>
        <time>2022-07-19T09:28:49Z</time>
      </trkpt>
      <trkpt lat="44.25851" lon="6.92591">
        <ele>1138.4</ele>
        <time>2022-07-19T09:28:50Z</time>
      </trkpt>
      <trkpt lat="44.25853" lon="6.92595">
        <ele>1138.4</ele>
        <time>2022-07-19T09:28:51Z</time>
      </trkpt>
      <trkpt lat="44.25855" lon="6.92598">
        <ele>1138.4</ele>
        <time>2022-07-19T09:28:52Z</time>
      </trkpt>
      <trkpt lat="44.25857" lon="6.92601">
        <ele>1138.4</ele>
        <time>2022-07-19T09:28:53Z</time>
      </trkpt>
      <trkpt lat="44.25859" lon="6.92603">
        <ele>1138.4</ele>
        <time>2022-07-19T09:28:54Z</time>
      </trkpt>
      <trkpt lat="44.25862" lon="6.92604">
        <ele>1138.6</ele>
        <time>2022-07-19T09:28:55Z</time>
      </trkpt>
      <trkpt lat="44.25864" lon="6.92604">
        <ele>1138.6</ele>
        <time>2022-07-19T09:28:56Z</time>
      </trkpt>
      <trkpt lat="44.25867" lon="6.92603">
        <ele>1139</ele>
        <time>2022-07-19T09:28:57Z</time>
      </trkpt>
      <trkpt lat="44.25869" lon="6.92601">
        <ele>1139</ele>
        <time>2022-07-19T09:28:58Z</time>
      </trkpt>
      <trkpt lat="44.25872" lon="6.92599">
        <ele>1139.2</ele>
        <time>2022-07-19T09:28:59Z</time>
      </trkpt>
      <trkpt lat="44.25874" lon="6.92597">
        <ele>1139.2</ele>
        <time>2022-07-19T09:29:00Z</time>
      </trkpt>
      <trkpt lat="44.25876" lon="6.92595">
        <ele>1139.6</ele>
        <time>2022-07-19T09:29:01Z</time>
      </trkpt>
      <trkpt lat="44.25878" lon="6.92592">
        <ele>1139.6</ele>
        <time>2022-07-19T09:29:02Z</time>
      </trkpt>
      <trkpt lat="44.2588" lon="6.9259">
        <ele>1140</ele>
        <time>2022-07-19T09:29:03Z</time>
      </trkpt>
      <trkpt lat="44.25882" lon="6.92587">
        <ele>1140</ele>
        <time>2022-07-19T09:29:04Z</time>
      </trkpt>
      <trkpt lat="44.25884" lon="6.92585">
        <ele>1140.2</ele>
        <time>2022-07-19T09:29:05Z</time>
      </trkpt>
      <trkpt lat="44.25886" lon="6.92583">
        <ele>1140.2</ele>
        <time>2022-07-19T09:29:06Z</time>
      </trkpt>
      <trkpt lat="44.25888" lon="6.92581">
        <ele>1140.6</ele>
        <time>2022-07-19T09:29:07Z</time>
      </trkpt>
      <trkpt lat="44.25889" lon="6.92579">
        <ele>1140.6</ele>
        <time>2022-07-19T09:29:08Z</time>
      </trkpt>
      <trkpt lat="44.25891" lon="6.92577">
        <ele>1140.8</ele>
        <time>2022-07-19T09:29:09Z</time>
      </trkpt>
      <trkpt lat="44.25893" lon="6.92575">
        <ele>1140.8</ele>
        <time>2022-07-19T09:29:10Z</time>
      </trkpt>
      <trkpt lat="44.25895" lon="6.92572">
        <ele>1140.8</ele>
        <time>2022-07-19T09:29:11Z</time>
      </trkpt>
      <trkpt lat="44.25897" lon="6.9257">
        <ele>1141</ele>
        <time>2022-07-19T09:29:12Z</time>
      </trkpt>
      <trkpt lat="44.25898" lon="6.92567">
        <ele>1141</ele>
        <time>2022-07-19T09:29:13Z</time>
      </trkpt>
      <trkpt lat="44.259" lon="6.92565">
        <ele>1141.2</ele>
        <time>2022-07-19T09:29:14Z</time>
      </trkpt>
      <trkpt lat="44.25902" lon="6.92562">
        <ele>1141.2</ele>
        <time>2022-07-19T09:29:15Z</time>
      </trkpt>
      <trkpt lat="44.25903" lon="6.9256">
        <ele>1141.6</ele>
        <time>2022-07-19T09:29:16Z</time>
      </trkpt>
      <trkpt lat="44.25905" lon="6.92557">
        <ele>1141.6</ele>
        <time>2022-07-19T09:29:17Z</time>
      </trkpt>
      <trkpt lat="44.25907" lon="6.92555">
        <ele>1141.8</ele>
        <time>2022-07-19T09:29:18Z</time>
      </trkpt>
      <trkpt lat="44.25908" lon="6.92553">
        <ele>1141.8</ele>
        <time>2022-07-19T09:29:19Z</time>
      </trkpt>
      <trkpt lat="44.2591" lon="6.9255">
        <ele>1142</ele>
        <time>2022-07-19T09:29:20Z</time>
      </trkpt>
      <trkpt lat="44.25911" lon="6.92548">
        <ele>1142</ele>
        <time>2022-07-19T09:29:21Z</time>
      </trkpt>
      <trkpt lat="44.25913" lon="6.92546">
        <ele>1142.4</ele>
        <time>2022-07-19T09:29:22Z</time>
      </trkpt>
      <trkpt lat="44.25914" lon="6.92543">
        <ele>1142.4</ele>
        <time>2022-07-19T09:29:23Z</time>
      </trkpt>
      <trkpt lat="44.25916" lon="6.92541">
        <ele>1142.8</ele>
        <time>2022-07-19T09:29:24Z</time>
      </trkpt>
      <trkpt lat="44.25917" lon="6.92538">
        <ele>1142.8</ele>
        <time>2022-07-19T09:29:25Z</time>
      </trkpt>
      <trkpt lat="44.25919" lon="6.92535">
        <ele>1143</ele>
        <time>2022-07-19T09:29:26Z</time>
      </trkpt>
      <trkpt lat="44.2592" lon="6.92533">
        <ele>1143</ele>
        <time>2022-07-19T09:29:27Z</time>
      </trkpt>
      <trkpt lat="44.25922" lon="6.9253">
        <ele>1143.4</ele>
        <time>2022-07-19T09:29:28Z</time>
      </trkpt>
      <trkpt lat="44.25924" lon="6.92527">
        <ele>1143.4</ele>
        <time>2022-07-19T09:29:29Z</time>
      </trkpt>
      <trkpt lat="44.25925" lon="6.92525">
        <ele>1143.6</ele>
        <time>2022-07-19T09:29:30Z</time>
      </trkpt>
      <trkpt lat="44.25927" lon="6.92522">
        <ele>1143.6</ele>
        <time>2022-07-19T09:29:31Z</time>
      </trkpt>
      <trkpt lat="44.25929" lon="6.9252">
        <ele>1144</ele>
        <time>2022-07-19T09:29:32Z</time>
      </trkpt>
      <trkpt lat="44.2593" lon="6.92518">
        <ele>1144</ele>
        <time>2022-07-19T09:29:33Z</time>
      </trkpt>
      <trkpt lat="44.25932" lon="6.92515">
        <ele>1144.2</ele>
        <time>2022-07-19T09:29:34Z</time>
      </trkpt>
      <trkpt lat="44.25933" lon="6.92513">
        <ele>1144.2</ele>
        <time>2022-07-19T09:29:35Z</time>
      </trkpt>
      <trkpt lat="44.25934" lon="6.9251">
        <ele>1144.4</ele>
        <time>2022-07-19T09:29:36Z</time>
      </trkpt>
      <trkpt lat="44.25935" lon="6.92508">
        <ele>1144.4</ele>
        <time>2022-07-19T09:29:37Z</time>
      </trkpt>
      <trkpt lat="44.25937" lon="6.92505">
        <ele>1144.8</ele>
        <time>2022-07-19T09:29:38Z</time>
      </trkpt>
      <trkpt lat="44.25938" lon="6.92503">
        <ele>1144.8</ele>
        <time>2022-07-19T09:29:39Z</time>
      </trkpt>
      <trkpt lat="44.25939" lon="6.925">
        <ele>1145</ele>
        <time>2022-07-19T09:29:40Z</time>
      </trkpt>
      <trkpt lat="44.2594" lon="6.92498">
        <ele>1145</ele>
        <time>2022-07-19T09:29:41Z</time>
      </trkpt>
      <trkpt lat="44.25941" lon="6.92495">
        <ele>1145.4</ele>
        <time>2022-07-19T09:29:42Z</time>
      </trkpt>
      <trkpt lat="44.25941" lon="6.92492">
        <ele>1145.4</ele>
        <time>2022-07-19T09:29:43Z</time>
      </trkpt>
      <trkpt lat="44.25942" lon="6.92489">
        <ele>1145.6</ele>
        <time>2022-07-19T09:29:44Z</time>
      </trkpt>
      <trkpt lat="44.25942" lon="6.92486">
        <ele>1145.6</ele>
        <time>2022-07-19T09:29:45Z</time>
      </trkpt>
      <trkpt lat="44.25943" lon="6.92483">
        <ele>1145.6</ele>
        <time>2022-07-19T09:29:46Z</time>
      </trkpt>
      <trkpt lat="44.25943" lon="6.9248">
        <ele>1146.2</ele>
        <time>2022-07-19T09:29:47Z</time>
      </trkpt>
      <trkpt lat="44.25943" lon="6.92476">
        <ele>1146.2</ele>
        <time>2022-07-19T09:29:48Z</time>
      </trkpt>
      <trkpt lat="44.25943" lon="6.92473">
        <ele>1146.4</ele>
        <time>2022-07-19T09:29:49Z</time>
      </trkpt>
      <trkpt lat="44.25943" lon="6.9247">
        <ele>1146.4</ele>
        <time>2022-07-19T09:29:50Z</time>
      </trkpt>
      <trkpt lat="44.25943" lon="6.92467">
        <ele>1146.6</ele>
        <time>2022-07-19T09:29:51Z</time>
      </trkpt>
      <trkpt lat="44.25944" lon="6.92464">
        <ele>1146.6</ele>
        <time>2022-07-19T09:29:52Z</time>
      </trkpt>
      <trkpt lat="44.25944" lon="6.92461">
        <ele>1147</ele>
        <time>2022-07-19T09:29:53Z</time>
      </trkpt>
      <trkpt lat="44.25944" lon="6.92458">
        <ele>1147</ele>
        <time>2022-07-19T09:29:54Z</time>
      </trkpt>
      <trkpt lat="44.25944" lon="6.92455">
        <ele>1147.4</ele>
        <time>2022-07-19T09:29:55Z</time>
      </trkpt>
      <trkpt lat="44.25944" lon="6.92452">
        <ele>1147.6</ele>
        <time>2022-07-19T09:29:56Z</time>
      </trkpt>
      <trkpt lat="44.25944" lon="6.92449">
        <ele>1147.6</ele>
        <time>2022-07-19T09:29:57Z</time>
      </trkpt>
      <trkpt lat="44.25944" lon="6.92446">
        <ele>1147.8</ele>
        <time>2022-07-19T09:29:58Z</time>
      </trkpt>
      <trkpt lat="44.25945" lon="6.92443">
        <ele>1147.8</ele>
        <time>2022-07-19T09:29:59Z</time>
      </trkpt>
      <trkpt lat="44.25945" lon="6.9244">
        <ele>1147.8</ele>
        <time>2022-07-19T09:30:00Z</time>
      </trkpt>
      <trkpt lat="44.25946" lon="6.92437">
        <ele>1148.2</ele>
        <time>2022-07-19T09:30:01Z</time>
      </trkpt>
      <trkpt lat="44.25947" lon="6.92434">
        <ele>1148.2</ele>
        <time>2022-07-19T09:30:02Z</time>
      </trkpt>
      <trkpt lat="44.25948" lon="6.92432">
        <ele>1148.4</ele>
        <time>2022-07-19T09:30:03Z</time>
      </trkpt>
      <trkpt lat="44.25949" lon="6.92429">
        <ele>1148.4</ele>
        <time>2022-07-19T09:30:04Z</time>
      </trkpt>
      <trkpt lat="44.2595" lon="6.92426">
        <ele>1148.8</ele>
        <time>2022-07-19T09:30:05Z</time>
      </trkpt>
      <trkpt lat="44.25951" lon="6.92423">
        <ele>1148.8</ele>
        <time>2022-07-19T09:30:06Z</time>
      </trkpt>
      <trkpt lat="44.25952" lon="6.9242">
        <ele>1149.2</ele>
        <time>2022-07-19T09:30:07Z</time>
      </trkpt>
      <trkpt lat="44.25953" lon="6.92417">
        <ele>1149.2</ele>
        <time>2022-07-19T09:30:08Z</time>
      </trkpt>
      <trkpt lat="44.25954" lon="6.92415">
        <ele>1149.4</ele>
        <time>2022-07-19T09:30:09Z</time>
      </trkpt>
      <trkpt lat="44.25955" lon="6.92412">
        <ele>1149.4</ele>
        <time>2022-07-19T09:30:10Z</time>
      </trkpt>
      <trkpt lat="44.25956" lon="6.9241">
        <ele>1149.8</ele>
        <time>2022-07-19T09:30:11Z</time>
      </trkpt>
      <trkpt lat="44.25957" lon="6.92407">
        <ele>1149.8</ele>
        <time>2022-07-19T09:30:12Z</time>
      </trkpt>
      <trkpt lat="44.25958" lon="6.92404">
        <ele>1150</ele>
        <time>2022-07-19T09:30:13Z</time>
      </trkpt>
      <trkpt lat="44.25959" lon="6.92402">
        <ele>1150</ele>
        <time>2022-07-19T09:30:14Z</time>
      </trkpt>
      <trkpt lat="44.2596" lon="6.924">
        <ele>1150.4</ele>
        <time>2022-07-19T09:30:15Z</time>
      </trkpt>
      <trkpt lat="44.25961" lon="6.92397">
        <ele>1150.4</ele>
        <time>2022-07-19T09:30:16Z</time>
      </trkpt>
      <trkpt lat="44.25961" lon="6.92394">
        <ele>1150.6</ele>
        <time>2022-07-19T09:30:17Z</time>
      </trkpt>
      <trkpt lat="44.25962" lon="6.92391">
        <ele>1150.6</ele>
        <time>2022-07-19T09:30:18Z</time>
      </trkpt>
      <trkpt lat="44.25962" lon="6.92388">
        <ele>1150.8</ele>
        <time>2022-07-19T09:30:19Z</time>
      </trkpt>
      <trkpt lat="44.25963" lon="6.92385">
        <ele>1150.8</ele>
        <time>2022-07-19T09:30:20Z</time>
      </trkpt>
      <trkpt lat="44.25963" lon="6.92382">
        <ele>1151.2</ele>
        <time>2022-07-19T09:30:21Z</time>
      </trkpt>
      <trkpt lat="44.25963" lon="6.92379">
        <ele>1151.2</ele>
        <time>2022-07-19T09:30:22Z</time>
      </trkpt>
      <trkpt lat="44.25963" lon="6.92376">
        <ele>1151.6</ele>
        <time>2022-07-19T09:30:23Z</time>
      </trkpt>
      <trkpt lat="44.25963" lon="6.92373">
        <ele>1151.6</ele>
        <time>2022-07-19T09:30:24Z</time>
      </trkpt>
      <trkpt lat="44.25964" lon="6.9237">
        <ele>1151.8</ele>
        <time>2022-07-19T09:30:25Z</time>
      </trkpt>
      <trkpt lat="44.25964" lon="6.92367">
        <ele>1151.8</ele>
        <time>2022-07-19T09:30:26Z</time>
      </trkpt>
      <trkpt lat="44.25964" lon="6.92364">
        <ele>1152</ele>
        <time>2022-07-19T09:30:27Z</time>
      </trkpt>
      <trkpt lat="44.25964" lon="6.92361">
        <ele>1152</ele>
        <time>2022-07-19T09:30:28Z</time>
      </trkpt>
      <trkpt lat="44.25965" lon="6.92358">
        <ele>1152.2</ele>
        <time>2022-07-19T09:30:29Z</time>
      </trkpt>
      <trkpt lat="44.25965" lon="6.92356">
        <ele>1152.2</ele>
        <time>2022-07-19T09:30:30Z</time>
      </trkpt>
      <trkpt lat="44.25966" lon="6.92353">
        <ele>1152.6</ele>
        <time>2022-07-19T09:30:31Z</time>
      </trkpt>
      <trkpt lat="44.25967" lon="6.92351">
        <ele>1152.6</ele>
        <time>2022-07-19T09:30:32Z</time>
      </trkpt>
      <trkpt lat="44.25968" lon="6.92348">
        <ele>1152.8</ele>
        <time>2022-07-19T09:30:33Z</time>
      </trkpt>
      <trkpt lat="44.25969" lon="6.92346">
        <ele>1152.8</ele>
        <time>2022-07-19T09:30:34Z</time>
      </trkpt>
      <trkpt lat="44.2597" lon="6.92343">
        <ele>1153.2</ele>
        <time>2022-07-19T09:30:35Z</time>
      </trkpt>
      <trkpt lat="44.25971" lon="6.9234">
        <ele>1153.2</ele>
        <time>2022-07-19T09:30:36Z</time>
      </trkpt>
      <trkpt lat="44.25972" lon="6.92338">
        <ele>1153.6</ele>
        <time>2022-07-19T09:30:37Z</time>
      </trkpt>
      <trkpt lat="44.25973" lon="6.92335">
        <ele>1153.6</ele>
        <time>2022-07-19T09:30:38Z</time>
      </trkpt>
      <trkpt lat="44.25975" lon="6.92333">
        <ele>1153.8</ele>
        <time>2022-07-19T09:30:39Z</time>
      </trkpt>
      <trkpt lat="44.25976" lon="6.9233">
        <ele>1153.8</ele>
        <time>2022-07-19T09:30:40Z</time>
      </trkpt>
      <trkpt lat="44.25976" lon="6.92327">
        <ele>1154</ele>
        <time>2022-07-19T09:30:41Z</time>
      </trkpt>
      <trkpt lat="44.25977" lon="6.92324">
        <ele>1154.2</ele>
        <time>2022-07-19T09:30:42Z</time>
      </trkpt>
      <trkpt lat="44.25978" lon="6.92321">
        <ele>1154.2</ele>
        <time>2022-07-19T09:30:43Z</time>
      </trkpt>
      <trkpt lat="44.25979" lon="6.92318">
        <ele>1154.6</ele>
        <time>2022-07-19T09:30:44Z</time>
      </trkpt>
      <trkpt lat="44.2598" lon="6.92316">
        <ele>1154.6</ele>
        <time>2022-07-19T09:30:45Z</time>
      </trkpt>
      <trkpt lat="44.25981" lon="6.92313">
        <ele>1155</ele>
        <time>2022-07-19T09:30:46Z</time>
      </trkpt>
      <trkpt lat="44.25982" lon="6.92311">
        <ele>1155</ele>
        <time>2022-07-19T09:30:47Z</time>
      </trkpt>
      <trkpt lat="44.25984" lon="6.92308">
        <ele>1155.2</ele>
        <time>2022-07-19T09:30:48Z</time>
      </trkpt>
      <trkpt lat="44.25985" lon="6.92306">
        <ele>1155.2</ele>
        <time>2022-07-19T09:30:49Z</time>
      </trkpt>
      <trkpt lat="44.25985" lon="6.92303">
        <ele>1155.4</ele>
        <time>2022-07-19T09:30:50Z</time>
      </trkpt>
      <trkpt lat="44.25986" lon="6.92301">
        <ele>1155.6</ele>
        <time>2022-07-19T09:30:51Z</time>
      </trkpt>
      <trkpt lat="44.25987" lon="6.92298">
        <ele>1155.8</ele>
        <time>2022-07-19T09:30:52Z</time>
      </trkpt>
      <trkpt lat="44.25988" lon="6.92296">
        <ele>1155.8</ele>
        <time>2022-07-19T09:30:53Z</time>
      </trkpt>
      <trkpt lat="44.25988" lon="6.92293">
        <ele>1156.2</ele>
        <time>2022-07-19T09:30:54Z</time>
      </trkpt>
      <trkpt lat="44.2599" lon="6.92291">
        <ele>1156.2</ele>
        <time>2022-07-19T09:30:55Z</time>
      </trkpt>
      <trkpt lat="44.25991" lon="6.92289">
        <ele>1156.2</ele>
        <time>2022-07-19T09:30:56Z</time>
      </trkpt>
      <trkpt lat="44.25992" lon="6.92286">
        <ele>1156.4</ele>
        <time>2022-07-19T09:30:57Z</time>
      </trkpt>
      <trkpt lat="44.25993" lon="6.92284">
        <ele>1156.4</ele>
        <time>2022-07-19T09:30:58Z</time>
      </trkpt>
      <trkpt lat="44.25994" lon="6.92282">
        <ele>1156.6</ele>
        <time>2022-07-19T09:30:59Z</time>
      </trkpt>
      <trkpt lat="44.25995" lon="6.92279">
        <ele>1156.6</ele>
        <time>2022-07-19T09:31:00Z</time>
      </trkpt>
      <trkpt lat="44.25996" lon="6.92277">
        <ele>1157</ele>
        <time>2022-07-19T09:31:01Z</time>
      </trkpt>
      <trkpt lat="44.25996" lon="6.92274">
        <ele>1157</ele>
        <time>2022-07-19T09:31:02Z</time>
      </trkpt>
      <trkpt lat="44.25998" lon="6.92272">
        <ele>1157.2</ele>
        <time>2022-07-19T09:31:03Z</time>
      </trkpt>
      <trkpt lat="44.25999" lon="6.9227">
        <ele>1157.2</ele>
        <time>2022-07-19T09:31:04Z</time>
      </trkpt>
      <trkpt lat="44.26" lon="6.92267">
        <ele>1157.6</ele>
        <time>2022-07-19T09:31:05Z</time>
      </trkpt>
      <trkpt lat="44.26001" lon="6.92265">
        <ele>1157.6</ele>
        <time>2022-07-19T09:31:06Z</time>
      </trkpt>
      <trkpt lat="44.26003" lon="6.92263">
        <ele>1157.8</ele>
        <time>2022-07-19T09:31:07Z</time>
      </trkpt>
      <trkpt lat="44.26004" lon="6.92261">
        <ele>1157.8</ele>
        <time>2022-07-19T09:31:08Z</time>
      </trkpt>
      <trkpt lat="44.26005" lon="6.92259">
        <ele>1158</ele>
        <time>2022-07-19T09:31:09Z</time>
      </trkpt>
      <trkpt lat="44.26006" lon="6.92257">
        <ele>1158</ele>
        <time>2022-07-19T09:31:10Z</time>
      </trkpt>
      <trkpt lat="44.26008" lon="6.92255">
        <ele>1158.2</ele>
        <time>2022-07-19T09:31:11Z</time>
      </trkpt>
      <trkpt lat="44.26009" lon="6.92253">
        <ele>1158.2</ele>
        <time>2022-07-19T09:31:12Z</time>
      </trkpt>
      <trkpt lat="44.2601" lon="6.92251">
        <ele>1158.6</ele>
        <time>2022-07-19T09:31:13Z</time>
      </trkpt>
      <trkpt lat="44.26011" lon="6.92249">
        <ele>1158.6</ele>
        <time>2022-07-19T09:31:14Z</time>
      </trkpt>
      <trkpt lat="44.26013" lon="6.92248">
        <ele>1158.8</ele>
        <time>2022-07-19T09:31:15Z</time>
      </trkpt>
      <trkpt lat="44.26014" lon="6.92246">
        <ele>1158.8</ele>
        <time>2022-07-19T09:31:16Z</time>
      </trkpt>
      <trkpt lat="44.26015" lon="6.92244">
        <ele>1159</ele>
        <time>2022-07-19T09:31:17Z</time>
      </trkpt>
      <trkpt lat="44.26016" lon="6.92242">
        <ele>1159</ele>
        <time>2022-07-19T09:31:18Z</time>
      </trkpt>
      <trkpt lat="44.26018" lon="6.9224">
        <ele>1159</ele>
        <time>2022-07-19T09:31:19Z</time>
      </trkpt>
      <trkpt lat="44.26019" lon="6.92238">
        <ele>1159.4</ele>
        <time>2022-07-19T09:31:20Z</time>
      </trkpt>
      <trkpt lat="44.26021" lon="6.92236">
        <ele>1159.4</ele>
        <time>2022-07-19T09:31:21Z</time>
      </trkpt>
      <trkpt lat="44.26022" lon="6.92234">
        <ele>1159.8</ele>
        <time>2022-07-19T09:31:22Z</time>
      </trkpt>
      <trkpt lat="44.26023" lon="6.92232">
        <ele>1159.8</ele>
        <time>2022-07-19T09:31:23Z</time>
      </trkpt>
      <trkpt lat="44.26025" lon="6.9223">
        <ele>1160</ele>
        <time>2022-07-19T09:31:24Z</time>
      </trkpt>
      <trkpt lat="44.26026" lon="6.92228">
        <ele>1160</ele>
        <time>2022-07-19T09:31:25Z</time>
      </trkpt>
      <trkpt lat="44.26027" lon="6.92226">
        <ele>1160.2</ele>
        <time>2022-07-19T09:31:26Z</time>
      </trkpt>
      <trkpt lat="44.26028" lon="6.92224">
        <ele>1160.2</ele>
        <time>2022-07-19T09:31:27Z</time>
      </trkpt>
      <trkpt lat="44.26029" lon="6.92222">
        <ele>1160.6</ele>
        <time>2022-07-19T09:31:28Z</time>
      </trkpt>
      <trkpt lat="44.2603" lon="6.92219">
        <ele>1160.6</ele>
        <time>2022-07-19T09:31:29Z</time>
      </trkpt>
      <trkpt lat="44.26031" lon="6.92217">
        <ele>1160.8</ele>
        <time>2022-07-19T09:31:30Z</time>
      </trkpt>
      <trkpt lat="44.26033" lon="6.92215">
        <ele>1160.8</ele>
        <time>2022-07-19T09:31:31Z</time>
      </trkpt>
      <trkpt lat="44.26034" lon="6.92213">
        <ele>1161</ele>
        <time>2022-07-19T09:31:32Z</time>
      </trkpt>
      <trkpt lat="44.26036" lon="6.92211">
        <ele>1161</ele>
        <time>2022-07-19T09:31:33Z</time>
      </trkpt>
      <trkpt lat="44.26038" lon="6.92209">
        <ele>1161.4</ele>
        <time>2022-07-19T09:31:34Z</time>
      </trkpt>
      <trkpt lat="44.2604" lon="6.92207">
        <ele>1161.6</ele>
        <time>2022-07-19T09:31:35Z</time>
      </trkpt>
      <trkpt lat="44.26041" lon="6.92206">
        <ele>1161.6</ele>
        <time>2022-07-19T09:31:36Z</time>
      </trkpt>
      <trkpt lat="44.26043" lon="6.92204">
        <ele>1162</ele>
        <time>2022-07-19T09:31:37Z</time>
      </trkpt>
      <trkpt lat="44.26044" lon="6.92203">
        <ele>1162.2</ele>
        <time>2022-07-19T09:31:38Z</time>
      </trkpt>
      <trkpt lat="44.26046" lon="6.92202">
        <ele>1162.2</ele>
        <time>2022-07-19T09:31:39Z</time>
      </trkpt>
      <trkpt lat="44.26048" lon="6.92201">
        <ele>1162.4</ele>
        <time>2022-07-19T09:31:40Z</time>
      </trkpt>
      <trkpt lat="44.26051" lon="6.92201">
        <ele>1162.6</ele>
        <time>2022-07-19T09:31:41Z</time>
      </trkpt>
      <trkpt lat="44.26053" lon="6.922">
        <ele>1162.6</ele>
        <time>2022-07-19T09:31:42Z</time>
      </trkpt>
      <trkpt lat="44.26055" lon="6.922">
        <ele>1163</ele>
        <time>2022-07-19T09:31:43Z</time>
      </trkpt>
      <trkpt lat="44.26057" lon="6.92199">
        <ele>1163</ele>
        <time>2022-07-19T09:31:44Z</time>
      </trkpt>
      <trkpt lat="44.26059" lon="6.92198">
        <ele>1163.4</ele>
        <time>2022-07-19T09:31:45Z</time>
      </trkpt>
      <trkpt lat="44.26061" lon="6.92197">
        <ele>1163.4</ele>
        <time>2022-07-19T09:31:46Z</time>
      </trkpt>
      <trkpt lat="44.26063" lon="6.92196">
        <ele>1163.8</ele>
        <time>2022-07-19T09:31:47Z</time>
      </trkpt>
      <trkpt lat="44.26065" lon="6.92195">
        <ele>1163.8</ele>
        <time>2022-07-19T09:31:48Z</time>
      </trkpt>
      <trkpt lat="44.26067" lon="6.92193">
        <ele>1164</ele>
        <time>2022-07-19T09:31:49Z</time>
      </trkpt>
      <trkpt lat="44.26069" lon="6.92192">
        <ele>1164</ele>
        <time>2022-07-19T09:31:50Z</time>
      </trkpt>
      <trkpt lat="44.26071" lon="6.9219">
        <ele>1164.4</ele>
        <time>2022-07-19T09:31:51Z</time>
      </trkpt>
      <trkpt lat="44.26073" lon="6.92189">
        <ele>1164.4</ele>
        <time>2022-07-19T09:31:52Z</time>
      </trkpt>
      <trkpt lat="44.26075" lon="6.92187">
        <ele>1164.8</ele>
        <time>2022-07-19T09:31:53Z</time>
      </trkpt>
      <trkpt lat="44.26077" lon="6.92186">
        <ele>1164.8</ele>
        <time>2022-07-19T09:31:54Z</time>
      </trkpt>
      <trkpt lat="44.26079" lon="6.92184">
        <ele>1164.8</ele>
        <time>2022-07-19T09:31:55Z</time>
      </trkpt>
      <trkpt lat="44.26081" lon="6.92182">
        <ele>1165</ele>
        <time>2022-07-19T09:31:56Z</time>
      </trkpt>
      <trkpt lat="44.26083" lon="6.9218">
        <ele>1165</ele>
        <time>2022-07-19T09:31:57Z</time>
      </trkpt>
      <trkpt lat="44.26085" lon="6.92179">
        <ele>1165.4</ele>
        <time>2022-07-19T09:31:58Z</time>
      </trkpt>
      <trkpt lat="44.26087" lon="6.92177">
        <ele>1165.4</ele>
        <time>2022-07-19T09:31:59Z</time>
      </trkpt>
      <trkpt lat="44.26088" lon="6.92176">
        <ele>1165.6</ele>
        <time>2022-07-19T09:32:00Z</time>
      </trkpt>
      <trkpt lat="44.2609" lon="6.92174">
        <ele>1165.6</ele>
        <time>2022-07-19T09:32:01Z</time>
      </trkpt>
      <trkpt lat="44.26092" lon="6.92172">
        <ele>1166</ele>
        <time>2022-07-19T09:32:02Z</time>
      </trkpt>
      <trkpt lat="44.26094" lon="6.92171">
        <ele>1166</ele>
        <time>2022-07-19T09:32:03Z</time>
      </trkpt>
      <trkpt lat="44.26096" lon="6.9217">
        <ele>1166.2</ele>
        <time>2022-07-19T09:32:04Z</time>
      </trkpt>
      <trkpt lat="44.26098" lon="6.92168">
        <ele>1166.2</ele>
        <time>2022-07-19T09:32:05Z</time>
      </trkpt>
      <trkpt lat="44.261" lon="6.92167">
        <ele>1166.4</ele>
        <time>2022-07-19T09:32:06Z</time>
      </trkpt>
      <trkpt lat="44.26102" lon="6.92166">
        <ele>1166.4</ele>
        <time>2022-07-19T09:32:07Z</time>
      </trkpt>
      <trkpt lat="44.26104" lon="6.92164">
        <ele>1166.8</ele>
        <time>2022-07-19T09:32:08Z</time>
      </trkpt>
      <trkpt lat="44.26106" lon="6.92164">
        <ele>1166.8</ele>
        <time>2022-07-19T09:32:09Z</time>
      </trkpt>
      <trkpt lat="44.26108" lon="6.92163">
        <ele>1167</ele>
        <time>2022-07-19T09:32:10Z</time>
      </trkpt>
      <trkpt lat="44.2611" lon="6.92163">
        <ele>1167</ele>
        <time>2022-07-19T09:32:11Z</time>
      </trkpt>
      <trkpt lat="44.26112" lon="6.92163">
        <ele>1167.2</ele>
        <time>2022-07-19T09:32:12Z</time>
      </trkpt>
      <trkpt lat="44.26114" lon="6.92163">
        <ele>1167.2</ele>
        <time>2022-07-19T09:32:13Z</time>
      </trkpt>
      <trkpt lat="44.26117" lon="6.92163">
        <ele>1167.6</ele>
        <time>2022-07-19T09:32:14Z</time>
      </trkpt>
      <trkpt lat="44.26119" lon="6.92163">
        <ele>1167.6</ele>
        <time>2022-07-19T09:32:15Z</time>
      </trkpt>
      <trkpt lat="44.26122" lon="6.92164">
        <ele>1168</ele>
        <time>2022-07-19T09:32:16Z</time>
      </trkpt>
      <trkpt lat="44.26124" lon="6.92165">
        <ele>1168</ele>
        <time>2022-07-19T09:32:17Z</time>
      </trkpt>
      <trkpt lat="44.26127" lon="6.92166">
        <ele>1168.4</ele>
        <time>2022-07-19T09:32:18Z</time>
      </trkpt>
      <trkpt lat="44.26129" lon="6.92166">
        <ele>1168.4</ele>
        <time>2022-07-19T09:32:19Z</time>
      </trkpt>
      <trkpt lat="44.26131" lon="6.92167">
        <ele>1168.6</ele>
        <time>2022-07-19T09:32:20Z</time>
      </trkpt>
      <trkpt lat="44.26133" lon="6.92167">
        <ele>1168.6</ele>
        <time>2022-07-19T09:32:21Z</time>
      </trkpt>
      <trkpt lat="44.26135" lon="6.92167">
        <ele>1169</ele>
        <time>2022-07-19T09:32:22Z</time>
      </trkpt>
      <trkpt lat="44.26137" lon="6.92166">
        <ele>1169</ele>
        <time>2022-07-19T09:32:23Z</time>
      </trkpt>
      <trkpt lat="44.26139" lon="6.92167">
        <ele>1169.2</ele>
        <time>2022-07-19T09:32:24Z</time>
      </trkpt>
      <trkpt lat="44.26141" lon="6.92167">
        <ele>1169.2</ele>
        <time>2022-07-19T09:32:25Z</time>
      </trkpt>
      <trkpt lat="44.26143" lon="6.92167">
        <ele>1169.6</ele>
        <time>2022-07-19T09:32:26Z</time>
      </trkpt>
      <trkpt lat="44.26145" lon="6.92167">
        <ele>1169.6</ele>
        <time>2022-07-19T09:32:27Z</time>
      </trkpt>
      <trkpt lat="44.26147" lon="6.92166">
        <ele>1169.8</ele>
        <time>2022-07-19T09:32:28Z</time>
      </trkpt>
      <trkpt lat="44.26149" lon="6.92166">
        <ele>1169.8</ele>
        <time>2022-07-19T09:32:29Z</time>
      </trkpt>
      <trkpt lat="44.26151" lon="6.92165">
        <ele>1170</ele>
        <time>2022-07-19T09:32:30Z</time>
      </trkpt>
      <trkpt lat="44.26153" lon="6.92164">
        <ele>1170</ele>
        <time>2022-07-19T09:32:31Z</time>
      </trkpt>
      <trkpt lat="44.26155" lon="6.92162">
        <ele>1170.4</ele>
        <time>2022-07-19T09:32:32Z</time>
      </trkpt>
      <trkpt lat="44.26157" lon="6.92161">
        <ele>1170.4</ele>
        <time>2022-07-19T09:32:33Z</time>
      </trkpt>
      <trkpt lat="44.26158" lon="6.92158">
        <ele>1170.6</ele>
        <time>2022-07-19T09:32:34Z</time>
      </trkpt>
      <trkpt lat="44.2616" lon="6.92156">
        <ele>1170.6</ele>
        <time>2022-07-19T09:32:35Z</time>
      </trkpt>
      <trkpt lat="44.26161" lon="6.92153">
        <ele>1171</ele>
        <time>2022-07-19T09:32:36Z</time>
      </trkpt>
      <trkpt lat="44.26163" lon="6.92151">
        <ele>1171</ele>
        <time>2022-07-19T09:32:37Z</time>
      </trkpt>
      <trkpt lat="44.26164" lon="6.92148">
        <ele>1171.2</ele>
        <time>2022-07-19T09:32:38Z</time>
      </trkpt>
      <trkpt lat="44.26166" lon="6.92146">
        <ele>1171.2</ele>
        <time>2022-07-19T09:32:39Z</time>
      </trkpt>
      <trkpt lat="44.26168" lon="6.92144">
        <ele>1171.4</ele>
        <time>2022-07-19T09:32:40Z</time>
      </trkpt>
      <trkpt lat="44.2617" lon="6.92142">
        <ele>1171.4</ele>
        <time>2022-07-19T09:32:41Z</time>
      </trkpt>
      <trkpt lat="44.26171" lon="6.92141">
        <ele>1171.8</ele>
        <time>2022-07-19T09:32:42Z</time>
      </trkpt>
      <trkpt lat="44.26173" lon="6.9214">
        <ele>1172</ele>
        <time>2022-07-19T09:32:43Z</time>
      </trkpt>
      <trkpt lat="44.26175" lon="6.92139">
        <ele>1172</ele>
        <time>2022-07-19T09:32:44Z</time>
      </trkpt>
      <trkpt lat="44.26177" lon="6.92139">
        <ele>1172.4</ele>
        <time>2022-07-19T09:32:45Z</time>
      </trkpt>
      <trkpt lat="44.26179" lon="6.92139">
        <ele>1172.4</ele>
        <time>2022-07-19T09:32:46Z</time>
      </trkpt>
      <trkpt lat="44.26182" lon="6.9214">
        <ele>1172.6</ele>
        <time>2022-07-19T09:32:47Z</time>
      </trkpt>
      <trkpt lat="44.26184" lon="6.9214">
        <ele>1172.6</ele>
        <time>2022-07-19T09:32:48Z</time>
      </trkpt>
      <trkpt lat="44.26186" lon="6.9214">
        <ele>1173</ele>
        <time>2022-07-19T09:32:49Z</time>
      </trkpt>
      <trkpt lat="44.26189" lon="6.9214">
        <ele>1173</ele>
        <time>2022-07-19T09:32:50Z</time>
      </trkpt>
      <trkpt lat="44.26191" lon="6.9214">
        <ele>1173.2</ele>
        <time>2022-07-19T09:32:51Z</time>
      </trkpt>
      <trkpt lat="44.26193" lon="6.9214">
        <ele>1173.2</ele>
        <time>2022-07-19T09:32:52Z</time>
      </trkpt>
      <trkpt lat="44.26196" lon="6.9214">
        <ele>1173.6</ele>
        <time>2022-07-19T09:32:53Z</time>
      </trkpt>
      <trkpt lat="44.26198" lon="6.9214">
        <ele>1173.6</ele>
        <time>2022-07-19T09:32:54Z</time>
      </trkpt>
      <trkpt lat="44.26201" lon="6.92141">
        <ele>1173.8</ele>
        <time>2022-07-19T09:32:55Z</time>
      </trkpt>
      <trkpt lat="44.26203" lon="6.92141">
        <ele>1173.8</ele>
        <time>2022-07-19T09:32:56Z</time>
      </trkpt>
      <trkpt lat="44.26206" lon="6.92142">
        <ele>1174</ele>
        <time>2022-07-19T09:32:57Z</time>
      </trkpt>
      <trkpt lat="44.26208" lon="6.92143">
        <ele>1174</ele>
        <time>2022-07-19T09:32:58Z</time>
      </trkpt>
      <trkpt lat="44.2621" lon="6.92143">
        <ele>1174.4</ele>
        <time>2022-07-19T09:32:59Z</time>
      </trkpt>
      <trkpt lat="44.26213" lon="6.92144">
        <ele>1174.4</ele>
        <time>2022-07-19T09:33:00Z</time>
      </trkpt>
      <trkpt lat="44.26215" lon="6.92144">
        <ele>1174.8</ele>
        <time>2022-07-19T09:33:01Z</time>
      </trkpt>
      <trkpt lat="44.26217" lon="6.92145">
        <ele>1174.8</ele>
        <time>2022-07-19T09:33:02Z</time>
      </trkpt>
      <trkpt lat="44.2622" lon="6.92146">
        <ele>1175</ele>
        <time>2022-07-19T09:33:03Z</time>
      </trkpt>
      <trkpt lat="44.26222" lon="6.92146">
        <ele>1175</ele>
        <time>2022-07-19T09:33:04Z</time>
      </trkpt>
      <trkpt lat="44.26224" lon="6.92147">
        <ele>1175.4</ele>
        <time>2022-07-19T09:33:05Z</time>
      </trkpt>
      <trkpt lat="44.26226" lon="6.92148">
        <ele>1175.4</ele>
        <time>2022-07-19T09:33:06Z</time>
      </trkpt>
      <trkpt lat="44.26228" lon="6.92149">
        <ele>1175.6</ele>
        <time>2022-07-19T09:33:07Z</time>
      </trkpt>
      <trkpt lat="44.26231" lon="6.92151">
        <ele>1175.6</ele>
        <time>2022-07-19T09:33:08Z</time>
      </trkpt>
      <trkpt lat="44.26232" lon="6.92151">
        <ele>1176</ele>
        <time>2022-07-19T09:33:09Z</time>
      </trkpt>
      <trkpt lat="44.26234" lon="6.92151">
        <ele>1176</ele>
        <time>2022-07-19T09:33:10Z</time>
      </trkpt>
      <trkpt lat="44.26235" lon="6.92152">
        <ele>1176.2</ele>
        <time>2022-07-19T09:33:11Z</time>
      </trkpt>
      <trkpt lat="44.26238" lon="6.92153">
        <ele>1176.2</ele>
        <time>2022-07-19T09:33:12Z</time>
      </trkpt>
      <trkpt lat="44.26239" lon="6.92154">
        <ele>1176.6</ele>
        <time>2022-07-19T09:33:13Z</time>
      </trkpt>
      <trkpt lat="44.26241" lon="6.92155">
        <ele>1176.8</ele>
        <time>2022-07-19T09:33:14Z</time>
      </trkpt>
      <trkpt lat="44.26243" lon="6.92155">
        <ele>1176.8</ele>
        <time>2022-07-19T09:33:15Z</time>
      </trkpt>
      <trkpt lat="44.26245" lon="6.92156">
        <ele>1177</ele>
        <time>2022-07-19T09:33:16Z</time>
      </trkpt>
      <trkpt lat="44.26247" lon="6.92158">
        <ele>1177</ele>
        <time>2022-07-19T09:33:17Z</time>
      </trkpt>
      <trkpt lat="44.26249" lon="6.92159">
        <ele>1177.2</ele>
        <time>2022-07-19T09:33:18Z</time>
      </trkpt>
      <trkpt lat="44.26252" lon="6.9216">
        <ele>1177.2</ele>
        <time>2022-07-19T09:33:19Z</time>
      </trkpt>
      <trkpt lat="44.26254" lon="6.92161">
        <ele>1177.6</ele>
        <time>2022-07-19T09:33:20Z</time>
      </trkpt>
      <trkpt lat="44.26256" lon="6.92162">
        <ele>1177.6</ele>
        <time>2022-07-19T09:33:21Z</time>
      </trkpt>
      <trkpt lat="44.26259" lon="6.92163">
        <ele>1177.6</ele>
        <time>2022-07-19T09:33:22Z</time>
      </trkpt>
      <trkpt lat="44.26261" lon="6.92164">
        <ele>1177.8</ele>
        <time>2022-07-19T09:33:23Z</time>
      </trkpt>
      <trkpt lat="44.26263" lon="6.92165">
        <ele>1177.8</ele>
        <time>2022-07-19T09:33:24Z</time>
      </trkpt>
      <trkpt lat="44.26265" lon="6.92166">
        <ele>1177.8</ele>
        <time>2022-07-19T09:33:25Z</time>
      </trkpt>
      <trkpt lat="44.26267" lon="6.92166">
        <ele>1178.2</ele>
        <time>2022-07-19T09:33:26Z</time>
      </trkpt>
      <trkpt lat="44.26269" lon="6.92166">
        <ele>1178.2</ele>
        <time>2022-07-19T09:33:27Z</time>
      </trkpt>
      <trkpt lat="44.26271" lon="6.92167">
        <ele>1178.4</ele>
        <time>2022-07-19T09:33:28Z</time>
      </trkpt>
      <trkpt lat="44.26273" lon="6.92167">
        <ele>1178.4</ele>
        <time>2022-07-19T09:33:29Z</time>
      </trkpt>
      <trkpt lat="44.26275" lon="6.92167">
        <ele>1178.6</ele>
        <time>2022-07-19T09:33:30Z</time>
      </trkpt>
      <trkpt lat="44.26278" lon="6.92167">
        <ele>1178.6</ele>
        <time>2022-07-19T09:33:31Z</time>
      </trkpt>
      <trkpt lat="44.2628" lon="6.92167">
        <ele>1178.8</ele>
        <time>2022-07-19T09:33:32Z</time>
      </trkpt>
      <trkpt lat="44.26282" lon="6.92167">
        <ele>1178.8</ele>
        <time>2022-07-19T09:33:33Z</time>
      </trkpt>
      <trkpt lat="44.26284" lon="6.92165">
        <ele>1179.2</ele>
        <time>2022-07-19T09:33:34Z</time>
      </trkpt>
      <trkpt lat="44.26287" lon="6.92165">
        <ele>1179.2</ele>
        <time>2022-07-19T09:33:35Z</time>
      </trkpt>
      <trkpt lat="44.26289" lon="6.92165">
        <ele>1179.4</ele>
        <time>2022-07-19T09:33:36Z</time>
      </trkpt>
      <trkpt lat="44.26292" lon="6.92164">
        <ele>1179.4</ele>
        <time>2022-07-19T09:33:37Z</time>
      </trkpt>
      <trkpt lat="44.26294" lon="6.92163">
        <ele>1179.4</ele>
        <time>2022-07-19T09:33:38Z</time>
      </trkpt>
      <trkpt lat="44.26297" lon="6.92162">
        <ele>1179.6</ele>
        <time>2022-07-19T09:33:39Z</time>
      </trkpt>
      <trkpt lat="44.26299" lon="6.92161">
        <ele>1179.6</ele>
        <time>2022-07-19T09:33:40Z</time>
      </trkpt>
      <trkpt lat="44.26302" lon="6.9216">
        <ele>1179.8</ele>
        <time>2022-07-19T09:33:41Z</time>
      </trkpt>
      <trkpt lat="44.26304" lon="6.92159">
        <ele>1179.8</ele>
        <time>2022-07-19T09:33:42Z</time>
      </trkpt>
      <trkpt lat="44.26307" lon="6.92158">
        <ele>1179.8</ele>
        <time>2022-07-19T09:33:43Z</time>
      </trkpt>
      <trkpt lat="44.26309" lon="6.92157">
        <ele>1180.2</ele>
        <time>2022-07-19T09:33:44Z</time>
      </trkpt>
      <trkpt lat="44.26311" lon="6.92156">
        <ele>1180.2</ele>
        <time>2022-07-19T09:33:45Z</time>
      </trkpt>
      <trkpt lat="44.26314" lon="6.92155">
        <ele>1180.6</ele>
        <time>2022-07-19T09:33:46Z</time>
      </trkpt>
      <trkpt lat="44.26316" lon="6.92153">
        <ele>1180.6</ele>
        <time>2022-07-19T09:33:47Z</time>
      </trkpt>
      <trkpt lat="44.26318" lon="6.92152">
        <ele>1181</ele>
        <time>2022-07-19T09:33:48Z</time>
      </trkpt>
      <trkpt lat="44.26321" lon="6.9215">
        <ele>1181</ele>
        <time>2022-07-19T09:33:49Z</time>
      </trkpt>
      <trkpt lat="44.26323" lon="6.92148">
        <ele>1181</ele>
        <time>2022-07-19T09:33:50Z</time>
      </trkpt>
      <trkpt lat="44.26326" lon="6.92147">
        <ele>1181.2</ele>
        <time>2022-07-19T09:33:51Z</time>
      </trkpt>
      <trkpt lat="44.26328" lon="6.92146">
        <ele>1181.2</ele>
        <time>2022-07-19T09:33:52Z</time>
      </trkpt>
      <trkpt lat="44.26331" lon="6.92145">
        <ele>1181.4</ele>
        <time>2022-07-19T09:33:53Z</time>
      </trkpt>
      <trkpt lat="44.26333" lon="6.92143">
        <ele>1181.4</ele>
        <time>2022-07-19T09:33:54Z</time>
      </trkpt>
      <trkpt lat="44.26336" lon="6.92142">
        <ele>1181.8</ele>
        <time>2022-07-19T09:33:55Z</time>
      </trkpt>
      <trkpt lat="44.26338" lon="6.92141">
        <ele>1181.8</ele>
        <time>2022-07-19T09:33:56Z</time>
      </trkpt>
      <trkpt lat="44.26341" lon="6.9214">
        <ele>1182</ele>
        <time>2022-07-19T09:33:57Z</time>
      </trkpt>
      <trkpt lat="44.26343" lon="6.92139">
        <ele>1182</ele>
        <time>2022-07-19T09:33:58Z</time>
      </trkpt>
      <trkpt lat="44.26345" lon="6.92137">
        <ele>1182.2</ele>
        <time>2022-07-19T09:33:59Z</time>
      </trkpt>
      <trkpt lat="44.26348" lon="6.92137">
        <ele>1182.2</ele>
        <time>2022-07-19T09:34:00Z</time>
      </trkpt>
      <trkpt lat="44.2635" lon="6.92136">
        <ele>1182.6</ele>
        <time>2022-07-19T09:34:01Z</time>
      </trkpt>
      <trkpt lat="44.26353" lon="6.92136">
        <ele>1182.6</ele>
        <time>2022-07-19T09:34:02Z</time>
      </trkpt>
      <trkpt lat="44.26355" lon="6.92137">
        <ele>1183</ele>
        <time>2022-07-19T09:34:03Z</time>
      </trkpt>
      <trkpt lat="44.26358" lon="6.92137">
        <ele>1183.2</ele>
        <time>2022-07-19T09:34:04Z</time>
      </trkpt>
      <trkpt lat="44.2636" lon="6.92138">
        <ele>1183.2</ele>
        <time>2022-07-19T09:34:05Z</time>
      </trkpt>
      <trkpt lat="44.26362" lon="6.92138">
        <ele>1183.6</ele>
        <time>2022-07-19T09:34:06Z</time>
      </trkpt>
      <trkpt lat="44.26365" lon="6.92138">
        <ele>1183.6</ele>
        <time>2022-07-19T09:34:07Z</time>
      </trkpt>
      <trkpt lat="44.26367" lon="6.92138">
        <ele>1184</ele>
        <time>2022-07-19T09:34:08Z</time>
      </trkpt>
      <trkpt lat="44.26369" lon="6.92138">
        <ele>1184</ele>
        <time>2022-07-19T09:34:09Z</time>
      </trkpt>
      <trkpt lat="44.26371" lon="6.92138">
        <ele>1184.2</ele>
        <time>2022-07-19T09:34:10Z</time>
      </trkpt>
      <trkpt lat="44.26373" lon="6.92138">
        <ele>1184.2</ele>
        <time>2022-07-19T09:34:11Z</time>
      </trkpt>
      <trkpt lat="44.26376" lon="6.92138">
        <ele>1184.6</ele>
        <time>2022-07-19T09:34:12Z</time>
      </trkpt>
      <trkpt lat="44.26378" lon="6.92138">
        <ele>1184.6</ele>
        <time>2022-07-19T09:34:13Z</time>
      </trkpt>
      <trkpt lat="44.2638" lon="6.92137">
        <ele>1184.8</ele>
        <time>2022-07-19T09:34:14Z</time>
      </trkpt>
      <trkpt lat="44.26382" lon="6.92137">
        <ele>1184.8</ele>
        <time>2022-07-19T09:34:15Z</time>
      </trkpt>
      <trkpt lat="44.26384" lon="6.92136">
        <ele>1185.2</ele>
        <time>2022-07-19T09:34:16Z</time>
      </trkpt>
      <trkpt lat="44.26386" lon="6.92135">
        <ele>1185.2</ele>
        <time>2022-07-19T09:34:17Z</time>
      </trkpt>
      <trkpt lat="44.26388" lon="6.92135">
        <ele>1185.6</ele>
        <time>2022-07-19T09:34:18Z</time>
      </trkpt>
      <trkpt lat="44.2639" lon="6.92135">
        <ele>1185.6</ele>
        <time>2022-07-19T09:34:19Z</time>
      </trkpt>
      <trkpt lat="44.26392" lon="6.92134">
        <ele>1185.8</ele>
        <time>2022-07-19T09:34:20Z</time>
      </trkpt>
      <trkpt lat="44.26394" lon="6.92134">
        <ele>1185.8</ele>
        <time>2022-07-19T09:34:21Z</time>
      </trkpt>
      <trkpt lat="44.26396" lon="6.92133">
        <ele>1186.2</ele>
        <time>2022-07-19T09:34:22Z</time>
      </trkpt>
      <trkpt lat="44.26399" lon="6.92133">
        <ele>1186.4</ele>
        <time>2022-07-19T09:34:23Z</time>
      </trkpt>
      <trkpt lat="44.26401" lon="6.92133">
        <ele>1186.6</ele>
        <time>2022-07-19T09:34:24Z</time>
      </trkpt>
      <trkpt lat="44.26403" lon="6.92133">
        <ele>1186.6</ele>
        <time>2022-07-19T09:34:25Z</time>
      </trkpt>
      <trkpt lat="44.26405" lon="6.92133">
        <ele>1186.8</ele>
        <time>2022-07-19T09:34:26Z</time>
      </trkpt>
      <trkpt lat="44.26407" lon="6.92133">
        <ele>1186.8</ele>
        <time>2022-07-19T09:34:27Z</time>
      </trkpt>
      <trkpt lat="44.26409" lon="6.92134">
        <ele>1186.8</ele>
        <time>2022-07-19T09:34:28Z</time>
      </trkpt>
      <trkpt lat="44.26411" lon="6.92134">
        <ele>1187.2</ele>
        <time>2022-07-19T09:34:29Z</time>
      </trkpt>
      <trkpt lat="44.26414" lon="6.92134">
        <ele>1187.2</ele>
        <time>2022-07-19T09:34:30Z</time>
      </trkpt>
      <trkpt lat="44.26416" lon="6.92135">
        <ele>1187.4</ele>
        <time>2022-07-19T09:34:31Z</time>
      </trkpt>
      <trkpt lat="44.26418" lon="6.92135">
        <ele>1187.4</ele>
        <time>2022-07-19T09:34:32Z</time>
      </trkpt>
      <trkpt lat="44.26419" lon="6.92134">
        <ele>1187.4</ele>
        <time>2022-07-19T09:34:33Z</time>
      </trkpt>
      <trkpt lat="44.26422" lon="6.92134">
        <ele>1187.8</ele>
        <time>2022-07-19T09:34:34Z</time>
      </trkpt>
      <trkpt lat="44.26424" lon="6.92134">
        <ele>1187.8</ele>
        <time>2022-07-19T09:34:35Z</time>
      </trkpt>
      <trkpt lat="44.26426" lon="6.92134">
        <ele>1188</ele>
        <time>2022-07-19T09:34:36Z</time>
      </trkpt>
      <trkpt lat="44.26428" lon="6.92134">
        <ele>1188</ele>
        <time>2022-07-19T09:34:37Z</time>
      </trkpt>
      <trkpt lat="44.2643" lon="6.92134">
        <ele>1188.4</ele>
        <time>2022-07-19T09:34:38Z</time>
      </trkpt>
      <trkpt lat="44.26432" lon="6.92133">
        <ele>1188.4</ele>
        <time>2022-07-19T09:34:39Z</time>
      </trkpt>
      <trkpt lat="44.26434" lon="6.92133">
        <ele>1188.6</ele>
        <time>2022-07-19T09:34:40Z</time>
      </trkpt>
      <trkpt lat="44.26436" lon="6.92132">
        <ele>1188.6</ele>
        <time>2022-07-19T09:34:41Z</time>
      </trkpt>
      <trkpt lat="44.26438" lon="6.92132">
        <ele>1189</ele>
        <time>2022-07-19T09:34:42Z</time>
      </trkpt>
      <trkpt lat="44.2644" lon="6.92132">
        <ele>1189</ele>
        <time>2022-07-19T09:34:43Z</time>
      </trkpt>
      <trkpt lat="44.26442" lon="6.92131">
        <ele>1189.2</ele>
        <time>2022-07-19T09:34:44Z</time>
      </trkpt>
      <trkpt lat="44.26444" lon="6.92131">
        <ele>1189.2</ele>
        <time>2022-07-19T09:34:45Z</time>
      </trkpt>
      <trkpt lat="44.26446" lon="6.9213">
        <ele>1189.6</ele>
        <time>2022-07-19T09:34:46Z</time>
      </trkpt>
      <trkpt lat="44.26448" lon="6.9213">
        <ele>1189.6</ele>
        <time>2022-07-19T09:34:47Z</time>
      </trkpt>
      <trkpt lat="44.2645" lon="6.92129">
        <ele>1189.8</ele>
        <time>2022-07-19T09:34:48Z</time>
      </trkpt>
      <trkpt lat="44.26452" lon="6.92129">
        <ele>1190</ele>
        <time>2022-07-19T09:34:49Z</time>
      </trkpt>
      <trkpt lat="44.26454" lon="6.92128">
        <ele>1190</ele>
        <time>2022-07-19T09:34:50Z</time>
      </trkpt>
      <trkpt lat="44.26455" lon="6.92127">
        <ele>1190.4</ele>
        <time>2022-07-19T09:34:51Z</time>
      </trkpt>
      <trkpt lat="44.26457" lon="6.92126">
        <ele>1190.4</ele>
        <time>2022-07-19T09:34:52Z</time>
      </trkpt>
      <trkpt lat="44.26459" lon="6.92126">
        <ele>1190.6</ele>
        <time>2022-07-19T09:34:53Z</time>
      </trkpt>
      <trkpt lat="44.26461" lon="6.92125">
        <ele>1190.6</ele>
        <time>2022-07-19T09:34:54Z</time>
      </trkpt>
      <trkpt lat="44.26463" lon="6.92124">
        <ele>1191</ele>
        <time>2022-07-19T09:34:55Z</time>
      </trkpt>
      <trkpt lat="44.26465" lon="6.92124">
        <ele>1191</ele>
        <time>2022-07-19T09:34:56Z</time>
      </trkpt>
      <trkpt lat="44.26467" lon="6.92124">
        <ele>1191.2</ele>
        <time>2022-07-19T09:34:57Z</time>
      </trkpt>
      <trkpt lat="44.26469" lon="6.92123">
        <ele>1191.2</ele>
        <time>2022-07-19T09:34:58Z</time>
      </trkpt>
      <trkpt lat="44.26471" lon="6.92123">
        <ele>1191.6</ele>
        <time>2022-07-19T09:34:59Z</time>
      </trkpt>
      <trkpt lat="44.26473" lon="6.92122">
        <ele>1191.6</ele>
        <time>2022-07-19T09:35:00Z</time>
      </trkpt>
      <trkpt lat="44.26475" lon="6.92122">
        <ele>1192</ele>
        <time>2022-07-19T09:35:01Z</time>
      </trkpt>
      <trkpt lat="44.26477" lon="6.92122">
        <ele>1192</ele>
        <time>2022-07-19T09:35:02Z</time>
      </trkpt>
      <trkpt lat="44.26479" lon="6.92121">
        <ele>1192.2</ele>
        <time>2022-07-19T09:35:03Z</time>
      </trkpt>
      <trkpt lat="44.2648" lon="6.92121">
        <ele>1192.2</ele>
        <time>2022-07-19T09:35:04Z</time>
      </trkpt>
      <trkpt lat="44.26482" lon="6.9212">
        <ele>1192.6</ele>
        <time>2022-07-19T09:35:05Z</time>
      </trkpt>
      <trkpt lat="44.26485" lon="6.9212">
        <ele>1192.8</ele>
        <time>2022-07-19T09:35:06Z</time>
      </trkpt>
      <trkpt lat="44.26487" lon="6.9212">
        <ele>1192.8</ele>
        <time>2022-07-19T09:35:07Z</time>
      </trkpt>
      <trkpt lat="44.26489" lon="6.9212">
        <ele>1193</ele>
        <time>2022-07-19T09:35:08Z</time>
      </trkpt>
      <trkpt lat="44.26491" lon="6.92119">
        <ele>1193</ele>
        <time>2022-07-19T09:35:09Z</time>
      </trkpt>
      <trkpt lat="44.26493" lon="6.92119">
        <ele>1193.4</ele>
        <time>2022-07-19T09:35:10Z</time>
      </trkpt>
      <trkpt lat="44.26495" lon="6.92119">
        <ele>1193.4</ele>
        <time>2022-07-19T09:35:11Z</time>
      </trkpt>
      <trkpt lat="44.26497" lon="6.92119">
        <ele>1193.6</ele>
        <time>2022-07-19T09:35:12Z</time>
      </trkpt>
      <trkpt lat="44.26499" lon="6.92118">
        <ele>1193.8</ele>
        <time>2022-07-19T09:35:13Z</time>
      </trkpt>
      <trkpt lat="44.26501" lon="6.92118">
        <ele>1193.8</ele>
        <time>2022-07-19T09:35:14Z</time>
      </trkpt>
      <trkpt lat="44.26503" lon="6.92118">
        <ele>1194.2</ele>
        <time>2022-07-19T09:35:15Z</time>
      </trkpt>
      <trkpt lat="44.26505" lon="6.92117">
        <ele>1194.2</ele>
        <time>2022-07-19T09:35:16Z</time>
      </trkpt>
      <trkpt lat="44.26507" lon="6.92117">
        <ele>1194.6</ele>
        <time>2022-07-19T09:35:17Z</time>
      </trkpt>
      <trkpt lat="44.26509" lon="6.92117">
        <ele>1194.6</ele>
        <time>2022-07-19T09:35:18Z</time>
      </trkpt>
      <trkpt lat="44.26511" lon="6.92117">
        <ele>1195</ele>
        <time>2022-07-19T09:35:19Z</time>
      </trkpt>
      <trkpt lat="44.26513" lon="6.92117">
        <ele>1195</ele>
        <time>2022-07-19T09:35:20Z</time>
      </trkpt>
      <trkpt lat="44.26516" lon="6.92117">
        <ele>1195.2</ele>
        <time>2022-07-19T09:35:21Z</time>
      </trkpt>
      <trkpt lat="44.26518" lon="6.92117">
        <ele>1195.2</ele>
        <time>2022-07-19T09:35:22Z</time>
      </trkpt>
      <trkpt lat="44.2652" lon="6.92116">
        <ele>1195.6</ele>
        <time>2022-07-19T09:35:23Z</time>
      </trkpt>
      <trkpt lat="44.26523" lon="6.92117">
        <ele>1195.6</ele>
        <time>2022-07-19T09:35:24Z</time>
      </trkpt>
      <trkpt lat="44.26527" lon="6.92116">
        <ele>1195.8</ele>
        <time>2022-07-19T09:35:25Z</time>
      </trkpt>
      <trkpt lat="44.26529" lon="6.92116">
        <ele>1195.8</ele>
        <time>2022-07-19T09:35:26Z</time>
      </trkpt>
      <trkpt lat="44.26531" lon="6.92115">
        <ele>1195.8</ele>
        <time>2022-07-19T09:35:27Z</time>
      </trkpt>
      <trkpt lat="44.26533" lon="6.92115">
        <ele>1196</ele>
        <time>2022-07-19T09:35:28Z</time>
      </trkpt>
      <trkpt lat="44.26535" lon="6.92115">
        <ele>1196</ele>
        <time>2022-07-19T09:35:29Z</time>
      </trkpt>
      <trkpt lat="44.26537" lon="6.92114">
        <ele>1196.4</ele>
        <time>2022-07-19T09:35:30Z</time>
      </trkpt>
      <trkpt lat="44.2654" lon="6.92114">
        <ele>1196.4</ele>
        <time>2022-07-19T09:35:31Z</time>
      </trkpt>
      <trkpt lat="44.26542" lon="6.92113">
        <ele>1196.6</ele>
        <time>2022-07-19T09:35:32Z</time>
      </trkpt>
      <trkpt lat="44.26545" lon="6.92114">
        <ele>1196.6</ele>
        <time>2022-07-19T09:35:33Z</time>
      </trkpt>
      <trkpt lat="44.26547" lon="6.92112">
        <ele>1197</ele>
        <time>2022-07-19T09:35:34Z</time>
      </trkpt>
      <trkpt lat="44.26549" lon="6.92111">
        <ele>1197</ele>
        <time>2022-07-19T09:35:35Z</time>
      </trkpt>
      <trkpt lat="44.26551" lon="6.9211">
        <ele>1197.2</ele>
        <time>2022-07-19T09:35:36Z</time>
      </trkpt>
      <trkpt lat="44.26554" lon="6.92108">
        <ele>1197.2</ele>
        <time>2022-07-19T09:35:37Z</time>
      </trkpt>
      <trkpt lat="44.26556" lon="6.92107">
        <ele>1197.4</ele>
        <time>2022-07-19T09:35:38Z</time>
      </trkpt>
      <trkpt lat="44.26558" lon="6.92106">
        <ele>1197.4</ele>
        <time>2022-07-19T09:35:39Z</time>
      </trkpt>
      <trkpt lat="44.2656" lon="6.92105">
        <ele>1197.8</ele>
        <time>2022-07-19T09:35:40Z</time>
      </trkpt>
      <trkpt lat="44.26562" lon="6.92104">
        <ele>1198</ele>
        <time>2022-07-19T09:35:42Z</time>
      </trkpt>
      <trkpt lat="44.26564" lon="6.92103">
        <ele>1198</ele>
        <time>2022-07-19T09:35:43Z</time>
      </trkpt>
      <trkpt lat="44.26566" lon="6.92102">
        <ele>1198.4</ele>
        <time>2022-07-19T09:35:44Z</time>
      </trkpt>
      <trkpt lat="44.26569" lon="6.92102">
        <ele>1198.4</ele>
        <time>2022-07-19T09:35:45Z</time>
      </trkpt>
      <trkpt lat="44.26571" lon="6.92101">
        <ele>1198.6</ele>
        <time>2022-07-19T09:35:46Z</time>
      </trkpt>
      <trkpt lat="44.26573" lon="6.921">
        <ele>1198.6</ele>
        <time>2022-07-19T09:35:47Z</time>
      </trkpt>
      <trkpt lat="44.26575" lon="6.92099">
        <ele>1199</ele>
        <time>2022-07-19T09:35:48Z</time>
      </trkpt>
      <trkpt lat="44.26577" lon="6.92099">
        <ele>1199</ele>
        <time>2022-07-19T09:35:49Z</time>
      </trkpt>
      <trkpt lat="44.26579" lon="6.92098">
        <ele>1199.2</ele>
        <time>2022-07-19T09:35:50Z</time>
      </trkpt>
      <trkpt lat="44.26582" lon="6.92098">
        <ele>1199.2</ele>
        <time>2022-07-19T09:35:51Z</time>
      </trkpt>
      <trkpt lat="44.26584" lon="6.92097">
        <ele>1199.6</ele>
        <time>2022-07-19T09:35:52Z</time>
      </trkpt>
      <trkpt lat="44.26586" lon="6.92097">
        <ele>1199.6</ele>
        <time>2022-07-19T09:35:53Z</time>
      </trkpt>
      <trkpt lat="44.26588" lon="6.92096">
        <ele>1199.8</ele>
        <time>2022-07-19T09:35:54Z</time>
      </trkpt>
      <trkpt lat="44.2659" lon="6.92096">
        <ele>1199.8</ele>
        <time>2022-07-19T09:35:55Z</time>
      </trkpt>
      <trkpt lat="44.26593" lon="6.92095">
        <ele>1200.2</ele>
        <time>2022-07-19T09:35:56Z</time>
      </trkpt>
      <trkpt lat="44.26595" lon="6.92094">
        <ele>1200.2</ele>
        <time>2022-07-19T09:35:57Z</time>
      </trkpt>
      <trkpt lat="44.26597" lon="6.92093">
        <ele>1200.4</ele>
        <time>2022-07-19T09:35:58Z</time>
      </trkpt>
      <trkpt lat="44.26599" lon="6.92092">
        <ele>1200.4</ele>
        <time>2022-07-19T09:35:59Z</time>
      </trkpt>
      <trkpt lat="44.26601" lon="6.92091">
        <ele>1200.6</ele>
        <time>2022-07-19T09:36:00Z</time>
      </trkpt>
      <trkpt lat="44.26604" lon="6.9209">
        <ele>1200.6</ele>
        <time>2022-07-19T09:36:01Z</time>
      </trkpt>
      <trkpt lat="44.26606" lon="6.92089">
        <ele>1201</ele>
        <time>2022-07-19T09:36:02Z</time>
      </trkpt>
      <trkpt lat="44.26608" lon="6.92088">
        <ele>1201</ele>
        <time>2022-07-19T09:36:03Z</time>
      </trkpt>
      <trkpt lat="44.26611" lon="6.92087">
        <ele>1201.2</ele>
        <time>2022-07-19T09:36:04Z</time>
      </trkpt>
      <trkpt lat="44.26613" lon="6.92087">
        <ele>1201.2</ele>
        <time>2022-07-19T09:36:05Z</time>
      </trkpt>
      <trkpt lat="44.26615" lon="6.92086">
        <ele>1201.6</ele>
        <time>2022-07-19T09:36:06Z</time>
      </trkpt>
      <trkpt lat="44.26618" lon="6.92086">
        <ele>1201.6</ele>
        <time>2022-07-19T09:36:07Z</time>
      </trkpt>
      <trkpt lat="44.26621" lon="6.92085">
        <ele>1201.8</ele>
        <time>2022-07-19T09:36:08Z</time>
      </trkpt>
      <trkpt lat="44.26623" lon="6.92085">
        <ele>1201.8</ele>
        <time>2022-07-19T09:36:09Z</time>
      </trkpt>
      <trkpt lat="44.26626" lon="6.92085">
        <ele>1201.8</ele>
        <time>2022-07-19T09:36:10Z</time>
      </trkpt>
      <trkpt lat="44.26628" lon="6.92084">
        <ele>1202.2</ele>
        <time>2022-07-19T09:36:11Z</time>
      </trkpt>
      <trkpt lat="44.26631" lon="6.92083">
        <ele>1202.2</ele>
        <time>2022-07-19T09:36:12Z</time>
      </trkpt>
      <trkpt lat="44.26634" lon="6.92083">
        <ele>1202.2</ele>
        <time>2022-07-19T09:36:13Z</time>
      </trkpt>
      <trkpt lat="44.26636" lon="6.92082">
        <ele>1202.4</ele>
        <time>2022-07-19T09:36:14Z</time>
      </trkpt>
      <trkpt lat="44.26639" lon="6.92081">
        <ele>1202.4</ele>
        <time>2022-07-19T09:36:15Z</time>
      </trkpt>
      <trkpt lat="44.26642" lon="6.9208">
        <ele>1202.8</ele>
        <time>2022-07-19T09:36:16Z</time>
      </trkpt>
      <trkpt lat="44.26644" lon="6.9208">
        <ele>1202.8</ele>
        <time>2022-07-19T09:36:17Z</time>
      </trkpt>
      <trkpt lat="44.26647" lon="6.92079">
        <ele>1203</ele>
        <time>2022-07-19T09:36:18Z</time>
      </trkpt>
      <trkpt lat="44.26649" lon="6.92078">
        <ele>1203</ele>
        <time>2022-07-19T09:36:19Z</time>
      </trkpt>
      <trkpt lat="44.26652" lon="6.92078">
        <ele>1203.4</ele>
        <time>2022-07-19T09:36:20Z</time>
      </trkpt>
      <trkpt lat="44.26654" lon="6.92077">
        <ele>1203.4</ele>
        <time>2022-07-19T09:36:21Z</time>
      </trkpt>
      <trkpt lat="44.26657" lon="6.92077">
        <ele>1203.8</ele>
        <time>2022-07-19T09:36:22Z</time>
      </trkpt>
      <trkpt lat="44.26659" lon="6.92077">
        <ele>1203.8</ele>
        <time>2022-07-19T09:36:23Z</time>
      </trkpt>
      <trkpt lat="44.26662" lon="6.92076">
        <ele>1204.2</ele>
        <time>2022-07-19T09:36:24Z</time>
      </trkpt>
      <trkpt lat="44.26664" lon="6.92076">
        <ele>1204.2</ele>
        <time>2022-07-19T09:36:25Z</time>
      </trkpt>
      <trkpt lat="44.26667" lon="6.92075">
        <ele>1204.4</ele>
        <time>2022-07-19T09:36:26Z</time>
      </trkpt>
      <trkpt lat="44.26669" lon="6.92074">
        <ele>1204.6</ele>
        <time>2022-07-19T09:36:27Z</time>
      </trkpt>
      <trkpt lat="44.26672" lon="6.92074">
        <ele>1204.6</ele>
        <time>2022-07-19T09:36:28Z</time>
      </trkpt>
      <trkpt lat="44.26674" lon="6.92074">
        <ele>1205</ele>
        <time>2022-07-19T09:36:29Z</time>
      </trkpt>
      <trkpt lat="44.26677" lon="6.92074">
        <ele>1205</ele>
        <time>2022-07-19T09:36:30Z</time>
      </trkpt>
      <trkpt lat="44.26679" lon="6.92073">
        <ele>1205.2</ele>
        <time>2022-07-19T09:36:31Z</time>
      </trkpt>
      <trkpt lat="44.26682" lon="6.92073">
        <ele>1205.2</ele>
        <time>2022-07-19T09:36:32Z</time>
      </trkpt>
      <trkpt lat="44.26684" lon="6.92072">
        <ele>1205.4</ele>
        <time>2022-07-19T09:36:33Z</time>
      </trkpt>
      <trkpt lat="44.26687" lon="6.92071">
        <ele>1205.4</ele>
        <time>2022-07-19T09:36:34Z</time>
      </trkpt>
      <trkpt lat="44.26689" lon="6.9207">
        <ele>1205.8</ele>
        <time>2022-07-19T09:36:35Z</time>
      </trkpt>
      <trkpt lat="44.26692" lon="6.92069">
        <ele>1205.8</ele>
        <time>2022-07-19T09:36:36Z</time>
      </trkpt>
      <trkpt lat="44.26694" lon="6.92068">
        <ele>1206</ele>
        <time>2022-07-19T09:36:37Z</time>
      </trkpt>
      <trkpt lat="44.26696" lon="6.92067">
        <ele>1206</ele>
        <time>2022-07-19T09:36:38Z</time>
      </trkpt>
      <trkpt lat="44.26699" lon="6.9207">
        <ele>1206.2</ele>
        <time>2022-07-19T09:36:39Z</time>
      </trkpt>
      <trkpt lat="44.26702" lon="6.92071">
        <ele>1206.2</ele>
        <time>2022-07-19T09:36:40Z</time>
      </trkpt>
      <trkpt lat="44.26704" lon="6.9207">
        <ele>1206.6</ele>
        <time>2022-07-19T09:36:41Z</time>
      </trkpt>
      <trkpt lat="44.26707" lon="6.92068">
        <ele>1206.6</ele>
        <time>2022-07-19T09:36:42Z</time>
      </trkpt>
      <trkpt lat="44.2671" lon="6.92067">
        <ele>1206.6</ele>
        <time>2022-07-19T09:36:43Z</time>
      </trkpt>
      <trkpt lat="44.26713" lon="6.92066">
        <ele>1206.8</ele>
        <time>2022-07-19T09:36:44Z</time>
      </trkpt>
      <trkpt lat="44.26716" lon="6.92065">
        <ele>1206.8</ele>
        <time>2022-07-19T09:36:45Z</time>
      </trkpt>
      <trkpt lat="44.2672" lon="6.92065">
        <ele>1206.8</ele>
        <time>2022-07-19T09:36:46Z</time>
      </trkpt>
      <trkpt lat="44.26723" lon="6.92064">
        <ele>1206.8</ele>
        <time>2022-07-19T09:36:47Z</time>
      </trkpt>
      <trkpt lat="44.26727" lon="6.92064">
        <ele>1206.8</ele>
        <time>2022-07-19T09:36:48Z</time>
      </trkpt>
      <trkpt lat="44.2673" lon="6.92062">
        <ele>1206.8</ele>
        <time>2022-07-19T09:36:49Z</time>
      </trkpt>
      <trkpt lat="44.26734" lon="6.92061">
        <ele>1206.8</ele>
        <time>2022-07-19T09:36:50Z</time>
      </trkpt>
      <trkpt lat="44.26738" lon="6.92062">
        <ele>1207.2</ele>
        <time>2022-07-19T09:36:51Z</time>
      </trkpt>
      <trkpt lat="44.26742" lon="6.92062">
        <ele>1207.2</ele>
        <time>2022-07-19T09:36:52Z</time>
      </trkpt>
      <trkpt lat="44.26746" lon="6.92063">
        <ele>1207.2</ele>
        <time>2022-07-19T09:36:53Z</time>
      </trkpt>
      <trkpt lat="44.2675" lon="6.92063">
        <ele>1207.2</ele>
        <time>2022-07-19T09:36:54Z</time>
      </trkpt>
      <trkpt lat="44.26753" lon="6.92063">
        <ele>1207.2</ele>
        <time>2022-07-19T09:36:55Z</time>
      </trkpt>
      <trkpt lat="44.26757" lon="6.92063">
        <ele>1207.2</ele>
        <time>2022-07-19T09:36:56Z</time>
      </trkpt>
      <trkpt lat="44.26761" lon="6.92062">
        <ele>1207.2</ele>
        <time>2022-07-19T09:36:57Z</time>
      </trkpt>
      <trkpt lat="44.26766" lon="6.92062">
        <ele>1207.2</ele>
        <time>2022-07-19T09:36:58Z</time>
      </trkpt>
      <trkpt lat="44.2677" lon="6.92062">
        <ele>1207.4</ele>
        <time>2022-07-19T09:36:59Z</time>
      </trkpt>
      <trkpt lat="44.26775" lon="6.92062">
        <ele>1207.4</ele>
        <time>2022-07-19T09:37:00Z</time>
      </trkpt>
      <trkpt lat="44.2678" lon="6.92063">
        <ele>1207.4</ele>
        <time>2022-07-19T09:37:01Z</time>
      </trkpt>
      <trkpt lat="44.26785" lon="6.92065">
        <ele>1207.4</ele>
        <time>2022-07-19T09:37:02Z</time>
      </trkpt>
      <trkpt lat="44.26789" lon="6.92066">
        <ele>1207.4</ele>
        <time>2022-07-19T09:37:03Z</time>
      </trkpt>
      <trkpt lat="44.26794" lon="6.92068">
        <ele>1207.4</ele>
        <time>2022-07-19T09:37:04Z</time>
      </trkpt>
      <trkpt lat="44.26799" lon="6.92073">
        <ele>1207.6</ele>
        <time>2022-07-19T09:37:05Z</time>
      </trkpt>
      <trkpt lat="44.26805" lon="6.92077">
        <ele>1207.6</ele>
        <time>2022-07-19T09:37:06Z</time>
      </trkpt>
      <trkpt lat="44.2681" lon="6.92081">
        <ele>1207.6</ele>
        <time>2022-07-19T09:37:07Z</time>
      </trkpt>
      <trkpt lat="44.26814" lon="6.92084">
        <ele>1207.6</ele>
        <time>2022-07-19T09:37:08Z</time>
      </trkpt>
      <trkpt lat="44.26819" lon="6.92087">
        <ele>1207.6</ele>
        <time>2022-07-19T09:37:09Z</time>
      </trkpt>
      <trkpt lat="44.26824" lon="6.92089">
        <ele>1207.8</ele>
        <time>2022-07-19T09:37:10Z</time>
      </trkpt>
      <trkpt lat="44.26829" lon="6.92091">
        <ele>1207.8</ele>
        <time>2022-07-19T09:37:11Z</time>
      </trkpt>
      <trkpt lat="44.26834" lon="6.92093">
        <ele>1207.8</ele>
        <time>2022-07-19T09:37:12Z</time>
      </trkpt>
      <trkpt lat="44.26839" lon="6.92095">
        <ele>1207.8</ele>
        <time>2022-07-19T09:37:13Z</time>
      </trkpt>
      <trkpt lat="44.26843" lon="6.92098">
        <ele>1207.8</ele>
        <time>2022-07-19T09:37:14Z</time>
      </trkpt>
      <trkpt lat="44.26847" lon="6.921">
        <ele>1207.8</ele>
        <time>2022-07-19T09:37:15Z</time>
      </trkpt>
      <trkpt lat="44.26852" lon="6.92102">
        <ele>1208</ele>
        <time>2022-07-19T09:37:16Z</time>
      </trkpt>
      <trkpt lat="44.26856" lon="6.92104">
        <ele>1208</ele>
        <time>2022-07-19T09:37:17Z</time>
      </trkpt>
      <trkpt lat="44.26861" lon="6.92105">
        <ele>1208</ele>
        <time>2022-07-19T09:37:18Z</time>
      </trkpt>
      <trkpt lat="44.26866" lon="6.92107">
        <ele>1208</ele>
        <time>2022-07-19T09:37:19Z</time>
      </trkpt>
      <trkpt lat="44.26871" lon="6.92107">
        <ele>1208</ele>
        <time>2022-07-19T09:37:20Z</time>
      </trkpt>
      <trkpt lat="44.26875" lon="6.92108">
        <ele>1208</ele>
        <time>2022-07-19T09:37:21Z</time>
      </trkpt>
      <trkpt lat="44.26879" lon="6.92109">
        <ele>1208</ele>
        <time>2022-07-19T09:37:22Z</time>
      </trkpt>
      <trkpt lat="44.26884" lon="6.9211">
        <ele>1208.2</ele>
        <time>2022-07-19T09:37:23Z</time>
      </trkpt>
      <trkpt lat="44.26888" lon="6.92111">
        <ele>1208.2</ele>
        <time>2022-07-19T09:37:24Z</time>
      </trkpt>
      <trkpt lat="44.26893" lon="6.92112">
        <ele>1208.2</ele>
        <time>2022-07-19T09:37:25Z</time>
      </trkpt>
      <trkpt lat="44.26897" lon="6.92113">
        <ele>1208.2</ele>
        <time>2022-07-19T09:37:26Z</time>
      </trkpt>
      <trkpt lat="44.26902" lon="6.92114">
        <ele>1208.4</ele>
        <time>2022-07-19T09:37:27Z</time>
      </trkpt>
      <trkpt lat="44.26906" lon="6.92114">
        <ele>1208.4</ele>
        <time>2022-07-19T09:37:28Z</time>
      </trkpt>
      <trkpt lat="44.2691" lon="6.92115">
        <ele>1208.4</ele>
        <time>2022-07-19T09:37:29Z</time>
      </trkpt>
      <trkpt lat="44.26915" lon="6.92115">
        <ele>1208.4</ele>
        <time>2022-07-19T09:37:30Z</time>
      </trkpt>
      <trkpt lat="44.26919" lon="6.92115">
        <ele>1208.6</ele>
        <time>2022-07-19T09:37:31Z</time>
      </trkpt>
      <trkpt lat="44.26923" lon="6.92115">
        <ele>1208.6</ele>
        <time>2022-07-19T09:37:32Z</time>
      </trkpt>
      <trkpt lat="44.26928" lon="6.92115">
        <ele>1208.6</ele>
        <time>2022-07-19T09:37:33Z</time>
      </trkpt>
      <trkpt lat="44.26933" lon="6.92115">
        <ele>1208.8</ele>
        <time>2022-07-19T09:37:34Z</time>
      </trkpt>
      <trkpt lat="44.26938" lon="6.92114">
        <ele>1208.8</ele>
        <time>2022-07-19T09:37:35Z</time>
      </trkpt>
      <trkpt lat="44.26943" lon="6.92114">
        <ele>1208.8</ele>
        <time>2022-07-19T09:37:36Z</time>
      </trkpt>
      <trkpt lat="44.26948" lon="6.92114">
        <ele>1208.8</ele>
        <time>2022-07-19T09:37:37Z</time>
      </trkpt>
      <trkpt lat="44.26952" lon="6.92114">
        <ele>1209.2</ele>
        <time>2022-07-19T09:37:38Z</time>
      </trkpt>
      <trkpt lat="44.26957" lon="6.92113">
        <ele>1209.2</ele>
        <time>2022-07-19T09:37:39Z</time>
      </trkpt>
      <trkpt lat="44.26961" lon="6.92112">
        <ele>1209.2</ele>
        <time>2022-07-19T09:37:40Z</time>
      </trkpt>
      <trkpt lat="44.26965" lon="6.92111">
        <ele>1209.2</ele>
        <time>2022-07-19T09:37:41Z</time>
      </trkpt>
      <trkpt lat="44.26969" lon="6.92111">
        <ele>1209.2</ele>
        <time>2022-07-19T09:37:42Z</time>
      </trkpt>
      <trkpt lat="44.26973" lon="6.9211">
        <ele>1209.4</ele>
        <time>2022-07-19T09:37:43Z</time>
      </trkpt>
      <trkpt lat="44.26977" lon="6.92109">
        <ele>1209.4</ele>
        <time>2022-07-19T09:37:44Z</time>
      </trkpt>
      <trkpt lat="44.26981" lon="6.92107">
        <ele>1209.4</ele>
        <time>2022-07-19T09:37:45Z</time>
      </trkpt>
      <trkpt lat="44.26986" lon="6.92106">
        <ele>1209.4</ele>
        <time>2022-07-19T09:37:46Z</time>
      </trkpt>
      <trkpt lat="44.2699" lon="6.92105">
        <ele>1209.4</ele>
        <time>2022-07-19T09:37:47Z</time>
      </trkpt>
      <trkpt lat="44.26995" lon="6.92103">
        <ele>1209.4</ele>
        <time>2022-07-19T09:37:48Z</time>
      </trkpt>
      <trkpt lat="44.26999" lon="6.92101">
        <ele>1209.6</ele>
        <time>2022-07-19T09:37:49Z</time>
      </trkpt>
      <trkpt lat="44.27003" lon="6.921">
        <ele>1209.6</ele>
        <time>2022-07-19T09:37:50Z</time>
      </trkpt>
      <trkpt lat="44.27008" lon="6.92098">
        <ele>1209.6</ele>
        <time>2022-07-19T09:37:51Z</time>
      </trkpt>
      <trkpt lat="44.27012" lon="6.92097">
        <ele>1209.6</ele>
        <time>2022-07-19T09:37:52Z</time>
      </trkpt>
      <trkpt lat="44.27017" lon="6.92095">
        <ele>1209.8</ele>
        <time>2022-07-19T09:37:53Z</time>
      </trkpt>
      <trkpt lat="44.27021" lon="6.92093">
        <ele>1209.8</ele>
        <time>2022-07-19T09:37:54Z</time>
      </trkpt>
      <trkpt lat="44.27025" lon="6.9209">
        <ele>1209.8</ele>
        <time>2022-07-19T09:37:55Z</time>
      </trkpt>
      <trkpt lat="44.27029" lon="6.92087">
        <ele>1209.8</ele>
        <time>2022-07-19T09:37:56Z</time>
      </trkpt>
      <trkpt lat="44.27033" lon="6.92083">
        <ele>1209.8</ele>
        <time>2022-07-19T09:37:57Z</time>
      </trkpt>
      <trkpt lat="44.27037" lon="6.92079">
        <ele>1209.8</ele>
        <time>2022-07-19T09:37:58Z</time>
      </trkpt>
      <trkpt lat="44.2704" lon="6.92075">
        <ele>1210</ele>
        <time>2022-07-19T09:37:59Z</time>
      </trkpt>
      <trkpt lat="44.27043" lon="6.92071">
        <ele>1210</ele>
        <time>2022-07-19T09:38:00Z</time>
      </trkpt>
      <trkpt lat="44.27046" lon="6.92067">
        <ele>1210</ele>
        <time>2022-07-19T09:38:01Z</time>
      </trkpt>
      <trkpt lat="44.27049" lon="6.92063">
        <ele>1210.4</ele>
        <time>2022-07-19T09:38:02Z</time>
      </trkpt>
      <trkpt lat="44.27052" lon="6.92059">
        <ele>1210.4</ele>
        <time>2022-07-19T09:38:03Z</time>
      </trkpt>
      <trkpt lat="44.27055" lon="6.92055">
        <ele>1210.4</ele>
        <time>2022-07-19T09:38:04Z</time>
      </trkpt>
      <trkpt lat="44.27057" lon="6.92051">
        <ele>1210.4</ele>
        <time>2022-07-19T09:38:05Z</time>
      </trkpt>
      <trkpt lat="44.2706" lon="6.92048">
        <ele>1210.6</ele>
        <time>2022-07-19T09:38:06Z</time>
      </trkpt>
      <trkpt lat="44.27063" lon="6.92043">
        <ele>1210.6</ele>
        <time>2022-07-19T09:38:07Z</time>
      </trkpt>
      <trkpt lat="44.27066" lon="6.92039">
        <ele>1210.8</ele>
        <time>2022-07-19T09:38:08Z</time>
      </trkpt>
      <trkpt lat="44.27068" lon="6.92035">
        <ele>1210.8</ele>
        <time>2022-07-19T09:38:09Z</time>
      </trkpt>
      <trkpt lat="44.27071" lon="6.92031">
        <ele>1211</ele>
        <time>2022-07-19T09:38:10Z</time>
      </trkpt>
      <trkpt lat="44.27073" lon="6.92027">
        <ele>1211</ele>
        <time>2022-07-19T09:38:11Z</time>
      </trkpt>
      <trkpt lat="44.27075" lon="6.92023">
        <ele>1211.4</ele>
        <time>2022-07-19T09:38:12Z</time>
      </trkpt>
      <trkpt lat="44.27077" lon="6.92019">
        <ele>1211.4</ele>
        <time>2022-07-19T09:38:13Z</time>
      </trkpt>
      <trkpt lat="44.27079" lon="6.92015">
        <ele>1211.6</ele>
        <time>2022-07-19T09:38:14Z</time>
      </trkpt>
      <trkpt lat="44.27081" lon="6.92011">
        <ele>1211.6</ele>
        <time>2022-07-19T09:38:15Z</time>
      </trkpt>
      <trkpt lat="44.27084" lon="6.92007">
        <ele>1211.6</ele>
        <time>2022-07-19T09:38:16Z</time>
      </trkpt>
      <trkpt lat="44.27086" lon="6.92003">
        <ele>1211.8</ele>
        <time>2022-07-19T09:38:17Z</time>
      </trkpt>
      <trkpt lat="44.27088" lon="6.91999">
        <ele>1211.8</ele>
        <time>2022-07-19T09:38:18Z</time>
      </trkpt>
      <trkpt lat="44.2709" lon="6.91995">
        <ele>1212</ele>
        <time>2022-07-19T09:38:19Z</time>
      </trkpt>
      <trkpt lat="44.27092" lon="6.91992">
        <ele>1212</ele>
        <time>2022-07-19T09:38:20Z</time>
      </trkpt>
      <trkpt lat="44.27094" lon="6.91988">
        <ele>1212.4</ele>
        <time>2022-07-19T09:38:21Z</time>
      </trkpt>
      <trkpt lat="44.27096" lon="6.91984">
        <ele>1212.4</ele>
        <time>2022-07-19T09:38:22Z</time>
      </trkpt>
      <trkpt lat="44.27099" lon="6.9198">
        <ele>1212.6</ele>
        <time>2022-07-19T09:38:23Z</time>
      </trkpt>
      <trkpt lat="44.27101" lon="6.91977">
        <ele>1212.6</ele>
        <time>2022-07-19T09:38:24Z</time>
      </trkpt>
      <trkpt lat="44.27103" lon="6.91973">
        <ele>1212.8</ele>
        <time>2022-07-19T09:38:25Z</time>
      </trkpt>
      <trkpt lat="44.27105" lon="6.91969">
        <ele>1212.8</ele>
        <time>2022-07-19T09:38:26Z</time>
      </trkpt>
      <trkpt lat="44.27107" lon="6.91964">
        <ele>1212.8</ele>
        <time>2022-07-19T09:38:27Z</time>
      </trkpt>
      <trkpt lat="44.27109" lon="6.9196">
        <ele>1213</ele>
        <time>2022-07-19T09:38:28Z</time>
      </trkpt>
      <trkpt lat="44.27111" lon="6.91956">
        <ele>1213</ele>
        <time>2022-07-19T09:38:29Z</time>
      </trkpt>
      <trkpt lat="44.27113" lon="6.91952">
        <ele>1213.2</ele>
        <time>2022-07-19T09:38:30Z</time>
      </trkpt>
      <trkpt lat="44.27115" lon="6.91948">
        <ele>1213.2</ele>
        <time>2022-07-19T09:38:31Z</time>
      </trkpt>
      <trkpt lat="44.27118" lon="6.91944">
        <ele>1213.6</ele>
        <time>2022-07-19T09:38:32Z</time>
      </trkpt>
      <trkpt lat="44.2712" lon="6.9194">
        <ele>1213.6</ele>
        <time>2022-07-19T09:38:33Z</time>
      </trkpt>
      <trkpt lat="44.27121" lon="6.91935">
        <ele>1213.8</ele>
        <time>2022-07-19T09:38:34Z</time>
      </trkpt>
      <trkpt lat="44.27123" lon="6.91931">
        <ele>1213.8</ele>
        <time>2022-07-19T09:38:35Z</time>
      </trkpt>
      <trkpt lat="44.27125" lon="6.91928">
        <ele>1214</ele>
        <time>2022-07-19T09:38:36Z</time>
      </trkpt>
      <trkpt lat="44.27127" lon="6.91924">
        <ele>1214</ele>
        <time>2022-07-19T09:38:37Z</time>
      </trkpt>
      <trkpt lat="44.27129" lon="6.91921">
        <ele>1214.4</ele>
        <time>2022-07-19T09:38:38Z</time>
      </trkpt>
      <trkpt lat="44.27131" lon="6.91917">
        <ele>1214.4</ele>
        <time>2022-07-19T09:38:39Z</time>
      </trkpt>
      <trkpt lat="44.27132" lon="6.91912">
        <ele>1214.6</ele>
        <time>2022-07-19T09:38:40Z</time>
      </trkpt>
      <trkpt lat="44.27134" lon="6.91908">
        <ele>1214.6</ele>
        <time>2022-07-19T09:38:41Z</time>
      </trkpt>
      <trkpt lat="44.27135" lon="6.91904">
        <ele>1214.8</ele>
        <time>2022-07-19T09:38:42Z</time>
      </trkpt>
      <trkpt lat="44.27137" lon="6.919">
        <ele>1214.8</ele>
        <time>2022-07-19T09:38:43Z</time>
      </trkpt>
      <trkpt lat="44.27138" lon="6.91897">
        <ele>1215</ele>
        <time>2022-07-19T09:38:44Z</time>
      </trkpt>
      <trkpt lat="44.2714" lon="6.91893">
        <ele>1215</ele>
        <time>2022-07-19T09:38:45Z</time>
      </trkpt>
      <trkpt lat="44.27141" lon="6.91889">
        <ele>1215</ele>
        <time>2022-07-19T09:38:46Z</time>
      </trkpt>
      <trkpt lat="44.27143" lon="6.91884">
        <ele>1215.4</ele>
        <time>2022-07-19T09:38:47Z</time>
      </trkpt>
      <trkpt lat="44.27144" lon="6.9188">
        <ele>1215.4</ele>
        <time>2022-07-19T09:38:48Z</time>
      </trkpt>
      <trkpt lat="44.27145" lon="6.91876">
        <ele>1215.6</ele>
        <time>2022-07-19T09:38:49Z</time>
      </trkpt>
      <trkpt lat="44.27147" lon="6.91872">
        <ele>1215.6</ele>
        <time>2022-07-19T09:38:50Z</time>
      </trkpt>
      <trkpt lat="44.27148" lon="6.91868">
        <ele>1215.6</ele>
        <time>2022-07-19T09:38:51Z</time>
      </trkpt>
      <trkpt lat="44.27149" lon="6.91864">
        <ele>1215.8</ele>
        <time>2022-07-19T09:38:52Z</time>
      </trkpt>
      <trkpt lat="44.2715" lon="6.9186">
        <ele>1216</ele>
        <time>2022-07-19T09:38:53Z</time>
      </trkpt>
      <trkpt lat="44.27151" lon="6.91855">
        <ele>1216</ele>
        <time>2022-07-19T09:38:54Z</time>
      </trkpt>
      <trkpt lat="44.27152" lon="6.91851">
        <ele>1216</ele>
        <time>2022-07-19T09:38:55Z</time>
      </trkpt>
      <trkpt lat="44.27154" lon="6.91847">
        <ele>1216.2</ele>
        <time>2022-07-19T09:38:56Z</time>
      </trkpt>
      <trkpt lat="44.27155" lon="6.91843">
        <ele>1216.2</ele>
        <time>2022-07-19T09:38:57Z</time>
      </trkpt>
      <trkpt lat="44.27157" lon="6.91839">
        <ele>1216.6</ele>
        <time>2022-07-19T09:38:58Z</time>
      </trkpt>
      <trkpt lat="44.27158" lon="6.91835">
        <ele>1216.6</ele>
        <time>2022-07-19T09:38:59Z</time>
      </trkpt>
      <trkpt lat="44.27159" lon="6.9183">
        <ele>1216.8</ele>
        <time>2022-07-19T09:39:00Z</time>
      </trkpt>
      <trkpt lat="44.27162" lon="6.91822">
        <ele>1217</ele>
        <time>2022-07-19T09:39:01Z</time>
      </trkpt>
      <trkpt lat="44.27163" lon="6.91817">
        <ele>1217</ele>
        <time>2022-07-19T09:39:02Z</time>
      </trkpt>
      <trkpt lat="44.27164" lon="6.91813">
        <ele>1217.2</ele>
        <time>2022-07-19T09:39:03Z</time>
      </trkpt>
      <trkpt lat="44.27166" lon="6.91809">
        <ele>1217.2</ele>
        <time>2022-07-19T09:39:04Z</time>
      </trkpt>
      <trkpt lat="44.27167" lon="6.91805">
        <ele>1217.4</ele>
        <time>2022-07-19T09:39:05Z</time>
      </trkpt>
      <trkpt lat="44.27169" lon="6.91801">
        <ele>1217.8</ele>
        <time>2022-07-19T09:39:06Z</time>
      </trkpt>
      <trkpt lat="44.27171" lon="6.91798">
        <ele>1217.8</ele>
        <time>2022-07-19T09:39:07Z</time>
      </trkpt>
      <trkpt lat="44.27173" lon="6.91795">
        <ele>1218</ele>
        <time>2022-07-19T09:39:08Z</time>
      </trkpt>
      <trkpt lat="44.27175" lon="6.91791">
        <ele>1218.2</ele>
        <time>2022-07-19T09:39:09Z</time>
      </trkpt>
      <trkpt lat="44.27177" lon="6.91788">
        <ele>1218.2</ele>
        <time>2022-07-19T09:39:10Z</time>
      </trkpt>
      <trkpt lat="44.27179" lon="6.91785">
        <ele>1218.6</ele>
        <time>2022-07-19T09:39:11Z</time>
      </trkpt>
      <trkpt lat="44.2718" lon="6.91781">
        <ele>1218.6</ele>
        <time>2022-07-19T09:39:12Z</time>
      </trkpt>
      <trkpt lat="44.27181" lon="6.91778">
        <ele>1218.8</ele>
        <time>2022-07-19T09:39:13Z</time>
      </trkpt>
      <trkpt lat="44.27183" lon="6.91775">
        <ele>1218.8</ele>
        <time>2022-07-19T09:39:14Z</time>
      </trkpt>
      <trkpt lat="44.27186" lon="6.91772">
        <ele>1219</ele>
        <time>2022-07-19T09:39:15Z</time>
      </trkpt>
      <trkpt lat="44.27189" lon="6.91769">
        <ele>1219</ele>
        <time>2022-07-19T09:39:16Z</time>
      </trkpt>
      <trkpt lat="44.27191" lon="6.91767">
        <ele>1219.4</ele>
        <time>2022-07-19T09:39:17Z</time>
      </trkpt>
      <trkpt lat="44.27193" lon="6.91764">
        <ele>1219.4</ele>
        <time>2022-07-19T09:39:18Z</time>
      </trkpt>
      <trkpt lat="44.27195" lon="6.91761">
        <ele>1219.8</ele>
        <time>2022-07-19T09:39:19Z</time>
      </trkpt>
      <trkpt lat="44.27197" lon="6.91759">
        <ele>1219.8</ele>
        <time>2022-07-19T09:39:20Z</time>
      </trkpt>
      <trkpt lat="44.272" lon="6.91756">
        <ele>1220</ele>
        <time>2022-07-19T09:39:21Z</time>
      </trkpt>
      <trkpt lat="44.27203" lon="6.91754">
        <ele>1220</ele>
        <time>2022-07-19T09:39:22Z</time>
      </trkpt>
      <trkpt lat="44.27205" lon="6.91752">
        <ele>1220.2</ele>
        <time>2022-07-19T09:39:23Z</time>
      </trkpt>
      <trkpt lat="44.27208" lon="6.91749">
        <ele>1220.2</ele>
        <time>2022-07-19T09:39:24Z</time>
      </trkpt>
      <trkpt lat="44.27211" lon="6.91747">
        <ele>1220.2</ele>
        <time>2022-07-19T09:39:25Z</time>
      </trkpt>
      <trkpt lat="44.27214" lon="6.91745">
        <ele>1220.4</ele>
        <time>2022-07-19T09:39:26Z</time>
      </trkpt>
      <trkpt lat="44.27217" lon="6.91743">
        <ele>1220.4</ele>
        <time>2022-07-19T09:39:27Z</time>
      </trkpt>
      <trkpt lat="44.27222" lon="6.91741">
        <ele>1220.6</ele>
        <time>2022-07-19T09:39:28Z</time>
      </trkpt>
      <trkpt lat="44.27226" lon="6.91739">
        <ele>1220.6</ele>
        <time>2022-07-19T09:39:29Z</time>
      </trkpt>
      <trkpt lat="44.27229" lon="6.91737">
        <ele>1220.6</ele>
        <time>2022-07-19T09:39:30Z</time>
      </trkpt>
      <trkpt lat="44.27232" lon="6.91735">
        <ele>1221</ele>
        <time>2022-07-19T09:39:31Z</time>
      </trkpt>
      <trkpt lat="44.27237" lon="6.91733">
        <ele>1221</ele>
        <time>2022-07-19T09:39:32Z</time>
      </trkpt>
      <trkpt lat="44.2724" lon="6.91732">
        <ele>1221.2</ele>
        <time>2022-07-19T09:39:33Z</time>
      </trkpt>
      <trkpt lat="44.27244" lon="6.91731">
        <ele>1221.2</ele>
        <time>2022-07-19T09:39:34Z</time>
      </trkpt>
      <trkpt lat="44.27248" lon="6.9173">
        <ele>1221.6</ele>
        <time>2022-07-19T09:39:35Z</time>
      </trkpt>
      <trkpt lat="44.27251" lon="6.91728">
        <ele>1221.6</ele>
        <time>2022-07-19T09:39:36Z</time>
      </trkpt>
      <trkpt lat="44.27255" lon="6.91727">
        <ele>1221.8</ele>
        <time>2022-07-19T09:39:37Z</time>
      </trkpt>
      <trkpt lat="44.27259" lon="6.91726">
        <ele>1221.8</ele>
        <time>2022-07-19T09:39:38Z</time>
      </trkpt>
      <trkpt lat="44.27262" lon="6.91725">
        <ele>1222</ele>
        <time>2022-07-19T09:39:39Z</time>
      </trkpt>
      <trkpt lat="44.27266" lon="6.91724">
        <ele>1222</ele>
        <time>2022-07-19T09:39:40Z</time>
      </trkpt>
      <trkpt lat="44.2727" lon="6.91724">
        <ele>1222.2</ele>
        <time>2022-07-19T09:39:41Z</time>
      </trkpt>
      <trkpt lat="44.27273" lon="6.91722">
        <ele>1222.2</ele>
        <time>2022-07-19T09:39:42Z</time>
      </trkpt>
      <trkpt lat="44.27277" lon="6.91721">
        <ele>1222.6</ele>
        <time>2022-07-19T09:39:43Z</time>
      </trkpt>
      <trkpt lat="44.2728" lon="6.9172">
        <ele>1222.6</ele>
        <time>2022-07-19T09:39:44Z</time>
      </trkpt>
      <trkpt lat="44.27283" lon="6.91719">
        <ele>1222.8</ele>
        <time>2022-07-19T09:39:45Z</time>
      </trkpt>
      <trkpt lat="44.27287" lon="6.91718">
        <ele>1222.8</ele>
        <time>2022-07-19T09:39:46Z</time>
      </trkpt>
      <trkpt lat="44.2729" lon="6.91716">
        <ele>1223.2</ele>
        <time>2022-07-19T09:39:47Z</time>
      </trkpt>
      <trkpt lat="44.27294" lon="6.91715">
        <ele>1223.2</ele>
        <time>2022-07-19T09:39:48Z</time>
      </trkpt>
      <trkpt lat="44.27297" lon="6.91714">
        <ele>1223.4</ele>
        <time>2022-07-19T09:39:49Z</time>
      </trkpt>
      <trkpt lat="44.27301" lon="6.91713">
        <ele>1223.4</ele>
        <time>2022-07-19T09:39:50Z</time>
      </trkpt>
      <trkpt lat="44.27304" lon="6.91712">
        <ele>1223.8</ele>
        <time>2022-07-19T09:39:51Z</time>
      </trkpt>
      <trkpt lat="44.27307" lon="6.91711">
        <ele>1223.8</ele>
        <time>2022-07-19T09:39:52Z</time>
      </trkpt>
      <trkpt lat="44.2731" lon="6.9171">
        <ele>1224</ele>
        <time>2022-07-19T09:39:53Z</time>
      </trkpt>
      <trkpt lat="44.27313" lon="6.91708">
        <ele>1224</ele>
        <time>2022-07-19T09:39:54Z</time>
      </trkpt>
      <trkpt lat="44.27317" lon="6.91707">
        <ele>1224.4</ele>
        <time>2022-07-19T09:39:55Z</time>
      </trkpt>
      <trkpt lat="44.2732" lon="6.91705">
        <ele>1224.4</ele>
        <time>2022-07-19T09:39:56Z</time>
      </trkpt>
      <trkpt lat="44.27323" lon="6.91704">
        <ele>1224.6</ele>
        <time>2022-07-19T09:39:57Z</time>
      </trkpt>
      <trkpt lat="44.27326" lon="6.91702">
        <ele>1224.6</ele>
        <time>2022-07-19T09:39:58Z</time>
      </trkpt>
      <trkpt lat="44.2733" lon="6.91701">
        <ele>1224.8</ele>
        <time>2022-07-19T09:39:59Z</time>
      </trkpt>
      <trkpt lat="44.27333" lon="6.91699">
        <ele>1224.8</ele>
        <time>2022-07-19T09:40:00Z</time>
      </trkpt>
      <trkpt lat="44.27336" lon="6.91697">
        <ele>1225</ele>
        <time>2022-07-19T09:40:01Z</time>
      </trkpt>
      <trkpt lat="44.27339" lon="6.91695">
        <ele>1225</ele>
        <time>2022-07-19T09:40:02Z</time>
      </trkpt>
      <trkpt lat="44.27342" lon="6.91693">
        <ele>1225</ele>
        <time>2022-07-19T09:40:03Z</time>
      </trkpt>
      <trkpt lat="44.27345" lon="6.91691">
        <ele>1225.4</ele>
        <time>2022-07-19T09:40:04Z</time>
      </trkpt>
      <trkpt lat="44.27348" lon="6.91688">
        <ele>1225.4</ele>
        <time>2022-07-19T09:40:05Z</time>
      </trkpt>
      <trkpt lat="44.2735" lon="6.91685">
        <ele>1225.6</ele>
        <time>2022-07-19T09:40:06Z</time>
      </trkpt>
      <trkpt lat="44.27353" lon="6.91683">
        <ele>1225.6</ele>
        <time>2022-07-19T09:40:07Z</time>
      </trkpt>
      <trkpt lat="44.27356" lon="6.9168">
        <ele>1225.6</ele>
        <time>2022-07-19T09:40:08Z</time>
      </trkpt>
      <trkpt lat="44.27359" lon="6.91677">
        <ele>1225.8</ele>
        <time>2022-07-19T09:40:09Z</time>
      </trkpt>
      <trkpt lat="44.27361" lon="6.91674">
        <ele>1225.8</ele>
        <time>2022-07-19T09:40:10Z</time>
      </trkpt>
      <trkpt lat="44.27364" lon="6.91671">
        <ele>1225.8</ele>
        <time>2022-07-19T09:40:11Z</time>
      </trkpt>
      <trkpt lat="44.27366" lon="6.91667">
        <ele>1225.8</ele>
        <time>2022-07-19T09:40:12Z</time>
      </trkpt>
      <trkpt lat="44.27368" lon="6.91664">
        <ele>1226.2</ele>
        <time>2022-07-19T09:40:13Z</time>
      </trkpt>
      <trkpt lat="44.27371" lon="6.91661">
        <ele>1226.2</ele>
        <time>2022-07-19T09:40:14Z</time>
      </trkpt>
      <trkpt lat="44.27373" lon="6.91657">
        <ele>1226.2</ele>
        <time>2022-07-19T09:40:15Z</time>
      </trkpt>
      <trkpt lat="44.27375" lon="6.91654">
        <ele>1226.4</ele>
        <time>2022-07-19T09:40:16Z</time>
      </trkpt>
      <trkpt lat="44.27377" lon="6.9165">
        <ele>1226.4</ele>
        <time>2022-07-19T09:40:17Z</time>
      </trkpt>
      <trkpt lat="44.27379" lon="6.91646">
        <ele>1226.4</ele>
        <time>2022-07-19T09:40:18Z</time>
      </trkpt>
      <trkpt lat="44.2738" lon="6.9164">
        <ele>1226.6</ele>
        <time>2022-07-19T09:40:19Z</time>
      </trkpt>
      <trkpt lat="44.27382" lon="6.91635">
        <ele>1226.6</ele>
        <time>2022-07-19T09:40:20Z</time>
      </trkpt>
      <trkpt lat="44.27383" lon="6.9163">
        <ele>1227</ele>
        <time>2022-07-19T09:40:21Z</time>
      </trkpt>
      <trkpt lat="44.27384" lon="6.91626">
        <ele>1227</ele>
        <time>2022-07-19T09:40:22Z</time>
      </trkpt>
      <trkpt lat="44.27386" lon="6.91622">
        <ele>1227.2</ele>
        <time>2022-07-19T09:40:23Z</time>
      </trkpt>
      <trkpt lat="44.27387" lon="6.91618">
        <ele>1227.2</ele>
        <time>2022-07-19T09:40:24Z</time>
      </trkpt>
      <trkpt lat="44.27388" lon="6.91614">
        <ele>1227.6</ele>
        <time>2022-07-19T09:40:25Z</time>
      </trkpt>
      <trkpt lat="44.2739" lon="6.9161">
        <ele>1227.6</ele>
        <time>2022-07-19T09:40:26Z</time>
      </trkpt>
      <trkpt lat="44.27391" lon="6.91607">
        <ele>1228</ele>
        <time>2022-07-19T09:40:27Z</time>
      </trkpt>
      <trkpt lat="44.27392" lon="6.91603">
        <ele>1228</ele>
        <time>2022-07-19T09:40:28Z</time>
      </trkpt>
      <trkpt lat="44.27393" lon="6.91599">
        <ele>1228.4</ele>
        <time>2022-07-19T09:40:29Z</time>
      </trkpt>
      <trkpt lat="44.27394" lon="6.91595">
        <ele>1228.6</ele>
        <time>2022-07-19T09:40:30Z</time>
      </trkpt>
      <trkpt lat="44.27395" lon="6.91592">
        <ele>1229</ele>
        <time>2022-07-19T09:40:31Z</time>
      </trkpt>
      <trkpt lat="44.27396" lon="6.91589">
        <ele>1229</ele>
        <time>2022-07-19T09:40:32Z</time>
      </trkpt>
      <trkpt lat="44.27397" lon="6.91586">
        <ele>1229.4</ele>
        <time>2022-07-19T09:40:33Z</time>
      </trkpt>
      <trkpt lat="44.27398" lon="6.91582">
        <ele>1229.6</ele>
        <time>2022-07-19T09:40:34Z</time>
      </trkpt>
      <trkpt lat="44.27399" lon="6.91579">
        <ele>1229.8</ele>
        <time>2022-07-19T09:40:35Z</time>
      </trkpt>
      <trkpt lat="44.27399" lon="6.91576">
        <ele>1230</ele>
        <time>2022-07-19T09:40:36Z</time>
      </trkpt>
      <trkpt lat="44.274" lon="6.91574">
        <ele>1230</ele>
        <time>2022-07-19T09:40:37Z</time>
      </trkpt>
      <trkpt lat="44.27401" lon="6.91571">
        <ele>1230.4</ele>
        <time>2022-07-19T09:40:38Z</time>
      </trkpt>
      <trkpt lat="44.27402" lon="6.91568">
        <ele>1230.4</ele>
        <time>2022-07-19T09:40:39Z</time>
      </trkpt>
      <trkpt lat="44.27403" lon="6.91565">
        <ele>1230.8</ele>
        <time>2022-07-19T09:40:40Z</time>
      </trkpt>
      <trkpt lat="44.27404" lon="6.91562">
        <ele>1230.8</ele>
        <time>2022-07-19T09:40:41Z</time>
      </trkpt>
      <trkpt lat="44.27405" lon="6.91559">
        <ele>1231.2</ele>
        <time>2022-07-19T09:40:42Z</time>
      </trkpt>
      <trkpt lat="44.27406" lon="6.91555">
        <ele>1231.4</ele>
        <time>2022-07-19T09:40:43Z</time>
      </trkpt>
      <trkpt lat="44.27406" lon="6.91551">
        <ele>1231.4</ele>
        <time>2022-07-19T09:40:44Z</time>
      </trkpt>
      <trkpt lat="44.27407" lon="6.91548">
        <ele>1231.8</ele>
        <time>2022-07-19T09:40:45Z</time>
      </trkpt>
      <trkpt lat="44.27409" lon="6.91544">
        <ele>1232</ele>
        <time>2022-07-19T09:40:46Z</time>
      </trkpt>
      <trkpt lat="44.2741" lon="6.91541">
        <ele>1232.2</ele>
        <time>2022-07-19T09:40:47Z</time>
      </trkpt>
      <trkpt lat="44.27411" lon="6.91538">
        <ele>1232.6</ele>
        <time>2022-07-19T09:40:48Z</time>
      </trkpt>
      <trkpt lat="44.27412" lon="6.91535">
        <ele>1232.6</ele>
        <time>2022-07-19T09:40:49Z</time>
      </trkpt>
      <trkpt lat="44.27414" lon="6.91532">
        <ele>1233</ele>
        <time>2022-07-19T09:40:50Z</time>
      </trkpt>
      <trkpt lat="44.27416" lon="6.91529">
        <ele>1233</ele>
        <time>2022-07-19T09:40:51Z</time>
      </trkpt>
      <trkpt lat="44.27417" lon="6.91526">
        <ele>1233.4</ele>
        <time>2022-07-19T09:40:52Z</time>
      </trkpt>
      <trkpt lat="44.27419" lon="6.91523">
        <ele>1233.6</ele>
        <time>2022-07-19T09:40:53Z</time>
      </trkpt>
      <trkpt lat="44.27421" lon="6.91521">
        <ele>1233.6</ele>
        <time>2022-07-19T09:40:54Z</time>
      </trkpt>
      <trkpt lat="44.27422" lon="6.91518">
        <ele>1234</ele>
        <time>2022-07-19T09:40:55Z</time>
      </trkpt>
      <trkpt lat="44.27424" lon="6.91516">
        <ele>1234.2</ele>
        <time>2022-07-19T09:40:56Z</time>
      </trkpt>
      <trkpt lat="44.27426" lon="6.91513">
        <ele>1234.4</ele>
        <time>2022-07-19T09:40:57Z</time>
      </trkpt>
      <trkpt lat="44.27429" lon="6.91511">
        <ele>1234.4</ele>
        <time>2022-07-19T09:40:58Z</time>
      </trkpt>
      <trkpt lat="44.27431" lon="6.91508">
        <ele>1234.6</ele>
        <time>2022-07-19T09:40:59Z</time>
      </trkpt>
      <trkpt lat="44.27433" lon="6.91506">
        <ele>1234.6</ele>
        <time>2022-07-19T09:41:00Z</time>
      </trkpt>
      <trkpt lat="44.27435" lon="6.91503">
        <ele>1235</ele>
        <time>2022-07-19T09:41:01Z</time>
      </trkpt>
      <trkpt lat="44.27437" lon="6.915">
        <ele>1235</ele>
        <time>2022-07-19T09:41:02Z</time>
      </trkpt>
      <trkpt lat="44.27439" lon="6.91497">
        <ele>1235</ele>
        <time>2022-07-19T09:41:03Z</time>
      </trkpt>
      <trkpt lat="44.27441" lon="6.91493">
        <ele>1235</ele>
        <time>2022-07-19T09:41:04Z</time>
      </trkpt>
      <trkpt lat="44.27444" lon="6.9149">
        <ele>1235.2</ele>
        <time>2022-07-19T09:41:05Z</time>
      </trkpt>
      <trkpt lat="44.27446" lon="6.91487">
        <ele>1235.2</ele>
        <time>2022-07-19T09:41:06Z</time>
      </trkpt>
      <trkpt lat="44.27449" lon="6.91484">
        <ele>1235.2</ele>
        <time>2022-07-19T09:41:07Z</time>
      </trkpt>
      <trkpt lat="44.27452" lon="6.9148">
        <ele>1235.2</ele>
        <time>2022-07-19T09:41:08Z</time>
      </trkpt>
      <trkpt lat="44.27455" lon="6.91476">
        <ele>1235.2</ele>
        <time>2022-07-19T09:41:09Z</time>
      </trkpt>
      <trkpt lat="44.27458" lon="6.91472">
        <ele>1235.2</ele>
        <time>2022-07-19T09:41:10Z</time>
      </trkpt>
      <trkpt lat="44.27461" lon="6.91468">
        <ele>1235.2</ele>
        <time>2022-07-19T09:41:11Z</time>
      </trkpt>
      <trkpt lat="44.27464" lon="6.91464">
        <ele>1235.2</ele>
        <time>2022-07-19T09:41:12Z</time>
      </trkpt>
      <trkpt lat="44.27467" lon="6.91459">
        <ele>1235.2</ele>
        <time>2022-07-19T09:41:13Z</time>
      </trkpt>
      <trkpt lat="44.2747" lon="6.91454">
        <ele>1235.2</ele>
        <time>2022-07-19T09:41:14Z</time>
      </trkpt>
      <trkpt lat="44.27474" lon="6.9145">
        <ele>1235.2</ele>
        <time>2022-07-19T09:41:15Z</time>
      </trkpt>
      <trkpt lat="44.27477" lon="6.91446">
        <ele>1235.2</ele>
        <time>2022-07-19T09:41:16Z</time>
      </trkpt>
      <trkpt lat="44.2748" lon="6.91441">
        <ele>1235.2</ele>
        <time>2022-07-19T09:41:17Z</time>
      </trkpt>
      <trkpt lat="44.27484" lon="6.91436">
        <ele>1235</ele>
        <time>2022-07-19T09:41:18Z</time>
      </trkpt>
      <trkpt lat="44.27487" lon="6.91431">
        <ele>1235</ele>
        <time>2022-07-19T09:41:19Z</time>
      </trkpt>
      <trkpt lat="44.2749" lon="6.91426">
        <ele>1235</ele>
        <time>2022-07-19T09:41:20Z</time>
      </trkpt>
      <trkpt lat="44.27494" lon="6.91421">
        <ele>1235</ele>
        <time>2022-07-19T09:41:21Z</time>
      </trkpt>
      <trkpt lat="44.27497" lon="6.91415">
        <ele>1235</ele>
        <time>2022-07-19T09:41:22Z</time>
      </trkpt>
      <trkpt lat="44.275" lon="6.9141">
        <ele>1235</ele>
        <time>2022-07-19T09:41:23Z</time>
      </trkpt>
      <trkpt lat="44.27503" lon="6.91405">
        <ele>1235</ele>
        <time>2022-07-19T09:41:24Z</time>
      </trkpt>
      <trkpt lat="44.27507" lon="6.914">
        <ele>1235</ele>
        <time>2022-07-19T09:41:25Z</time>
      </trkpt>
      <trkpt lat="44.2751" lon="6.91395">
        <ele>1235</ele>
        <time>2022-07-19T09:41:26Z</time>
      </trkpt>
      <trkpt lat="44.27513" lon="6.9139">
        <ele>1235</ele>
        <time>2022-07-19T09:41:27Z</time>
      </trkpt>
      <trkpt lat="44.27516" lon="6.91385">
        <ele>1235.2</ele>
        <time>2022-07-19T09:41:28Z</time>
      </trkpt>
      <trkpt lat="44.27519" lon="6.9138">
        <ele>1235.2</ele>
        <time>2022-07-19T09:41:29Z</time>
      </trkpt>
      <trkpt lat="44.27522" lon="6.91374">
        <ele>1235.4</ele>
        <time>2022-07-19T09:41:30Z</time>
      </trkpt>
      <trkpt lat="44.27525" lon="6.91369">
        <ele>1235.4</ele>
        <time>2022-07-19T09:41:31Z</time>
      </trkpt>
      <trkpt lat="44.27528" lon="6.91365">
        <ele>1235.4</ele>
        <time>2022-07-19T09:41:32Z</time>
      </trkpt>
      <trkpt lat="44.27531" lon="6.9136">
        <ele>1235.4</ele>
        <time>2022-07-19T09:41:33Z</time>
      </trkpt>
      <trkpt lat="44.27534" lon="6.91355">
        <ele>1235.8</ele>
        <time>2022-07-19T09:41:34Z</time>
      </trkpt>
      <trkpt lat="44.27537" lon="6.91351">
        <ele>1235.8</ele>
        <time>2022-07-19T09:41:35Z</time>
      </trkpt>
      <trkpt lat="44.27539" lon="6.91346">
        <ele>1235.8</ele>
        <time>2022-07-19T09:41:36Z</time>
      </trkpt>
      <trkpt lat="44.27542" lon="6.91341">
        <ele>1235.8</ele>
        <time>2022-07-19T09:41:37Z</time>
      </trkpt>
      <trkpt lat="44.27545" lon="6.91337">
        <ele>1236</ele>
        <time>2022-07-19T09:41:38Z</time>
      </trkpt>
      <trkpt lat="44.27548" lon="6.91332">
        <ele>1236</ele>
        <time>2022-07-19T09:41:39Z</time>
      </trkpt>
      <trkpt lat="44.2755" lon="6.91328">
        <ele>1236</ele>
        <time>2022-07-19T09:41:40Z</time>
      </trkpt>
      <trkpt lat="44.27553" lon="6.91323">
        <ele>1236</ele>
        <time>2022-07-19T09:41:41Z</time>
      </trkpt>
      <trkpt lat="44.27556" lon="6.91318">
        <ele>1236</ele>
        <time>2022-07-19T09:41:42Z</time>
      </trkpt>
      <trkpt lat="44.27559" lon="6.91314">
        <ele>1236</ele>
        <time>2022-07-19T09:41:43Z</time>
      </trkpt>
      <trkpt lat="44.27561" lon="6.91309">
        <ele>1236.2</ele>
        <time>2022-07-19T09:41:44Z</time>
      </trkpt>
      <trkpt lat="44.27564" lon="6.91305">
        <ele>1236.2</ele>
        <time>2022-07-19T09:41:45Z</time>
      </trkpt>
      <trkpt lat="44.27567" lon="6.91301">
        <ele>1236.4</ele>
        <time>2022-07-19T09:41:46Z</time>
      </trkpt>
      <trkpt lat="44.27569" lon="6.91297">
        <ele>1236.4</ele>
        <time>2022-07-19T09:41:47Z</time>
      </trkpt>
      <trkpt lat="44.27571" lon="6.91293">
        <ele>1236.4</ele>
        <time>2022-07-19T09:41:48Z</time>
      </trkpt>
      <trkpt lat="44.27574" lon="6.91288">
        <ele>1236.4</ele>
        <time>2022-07-19T09:41:49Z</time>
      </trkpt>
      <trkpt lat="44.27576" lon="6.91284">
        <ele>1236.8</ele>
        <time>2022-07-19T09:41:50Z</time>
      </trkpt>
      <trkpt lat="44.27578" lon="6.9128">
        <ele>1236.8</ele>
        <time>2022-07-19T09:41:51Z</time>
      </trkpt>
      <trkpt lat="44.2758" lon="6.91276">
        <ele>1237</ele>
        <time>2022-07-19T09:41:52Z</time>
      </trkpt>
      <trkpt lat="44.27582" lon="6.91272">
        <ele>1237</ele>
        <time>2022-07-19T09:41:53Z</time>
      </trkpt>
      <trkpt lat="44.27584" lon="6.91267">
        <ele>1237.4</ele>
        <time>2022-07-19T09:41:54Z</time>
      </trkpt>
      <trkpt lat="44.27586" lon="6.91263">
        <ele>1237.4</ele>
        <time>2022-07-19T09:41:55Z</time>
      </trkpt>
      <trkpt lat="44.27589" lon="6.91259">
        <ele>1237.6</ele>
        <time>2022-07-19T09:41:56Z</time>
      </trkpt>
      <trkpt lat="44.27591" lon="6.91255">
        <ele>1237.6</ele>
        <time>2022-07-19T09:41:57Z</time>
      </trkpt>
      <trkpt lat="44.27593" lon="6.91251">
        <ele>1237.8</ele>
        <time>2022-07-19T09:41:58Z</time>
      </trkpt>
      <trkpt lat="44.27595" lon="6.91246">
        <ele>1237.8</ele>
        <time>2022-07-19T09:41:59Z</time>
      </trkpt>
      <trkpt lat="44.27596" lon="6.91242">
        <ele>1238.2</ele>
        <time>2022-07-19T09:42:00Z</time>
      </trkpt>
      <trkpt lat="44.27598" lon="6.91238">
        <ele>1238.2</ele>
        <time>2022-07-19T09:42:01Z</time>
      </trkpt>
      <trkpt lat="44.27599" lon="6.91233">
        <ele>1238.4</ele>
        <time>2022-07-19T09:42:02Z</time>
      </trkpt>
      <trkpt lat="44.27601" lon="6.91229">
        <ele>1238.4</ele>
        <time>2022-07-19T09:42:03Z</time>
      </trkpt>
      <trkpt lat="44.27602" lon="6.91225">
        <ele>1238.6</ele>
        <time>2022-07-19T09:42:04Z</time>
      </trkpt>
      <trkpt lat="44.27604" lon="6.91221">
        <ele>1238.6</ele>
        <time>2022-07-19T09:42:05Z</time>
      </trkpt>
      <trkpt lat="44.27605" lon="6.91216">
        <ele>1239</ele>
        <time>2022-07-19T09:42:06Z</time>
      </trkpt>
      <trkpt lat="44.27606" lon="6.91212">
        <ele>1239</ele>
        <time>2022-07-19T09:42:07Z</time>
      </trkpt>
      <trkpt lat="44.27607" lon="6.91208">
        <ele>1239.4</ele>
        <time>2022-07-19T09:42:08Z</time>
      </trkpt>
      <trkpt lat="44.27608" lon="6.91205">
        <ele>1239.4</ele>
        <time>2022-07-19T09:42:09Z</time>
      </trkpt>
      <trkpt lat="44.27609" lon="6.91201">
        <ele>1239.8</ele>
        <time>2022-07-19T09:42:10Z</time>
      </trkpt>
      <trkpt lat="44.27611" lon="6.91197">
        <ele>1240</ele>
        <time>2022-07-19T09:42:11Z</time>
      </trkpt>
      <trkpt lat="44.27612" lon="6.91193">
        <ele>1240.2</ele>
        <time>2022-07-19T09:42:12Z</time>
      </trkpt>
      <trkpt lat="44.27613" lon="6.91189">
        <ele>1240.2</ele>
        <time>2022-07-19T09:42:13Z</time>
      </trkpt>
      <trkpt lat="44.27613" lon="6.91185">
        <ele>1240.6</ele>
        <time>2022-07-19T09:42:14Z</time>
      </trkpt>
      <trkpt lat="44.27614" lon="6.91181">
        <ele>1240.6</ele>
        <time>2022-07-19T09:42:15Z</time>
      </trkpt>
      <trkpt lat="44.27615" lon="6.91177">
        <ele>1240.8</ele>
        <time>2022-07-19T09:42:16Z</time>
      </trkpt>
      <trkpt lat="44.27616" lon="6.91173">
        <ele>1240.8</ele>
        <time>2022-07-19T09:42:17Z</time>
      </trkpt>
      <trkpt lat="44.27617" lon="6.91169">
        <ele>1241.2</ele>
        <time>2022-07-19T09:42:18Z</time>
      </trkpt>
      <trkpt lat="44.27618" lon="6.91165">
        <ele>1241.2</ele>
        <time>2022-07-19T09:42:19Z</time>
      </trkpt>
      <trkpt lat="44.27619" lon="6.91161">
        <ele>1241.6</ele>
        <time>2022-07-19T09:42:20Z</time>
      </trkpt>
      <trkpt lat="44.27621" lon="6.91157">
        <ele>1241.6</ele>
        <time>2022-07-19T09:42:21Z</time>
      </trkpt>
      <trkpt lat="44.27622" lon="6.91153">
        <ele>1241.8</ele>
        <time>2022-07-19T09:42:22Z</time>
      </trkpt>
      <trkpt lat="44.27623" lon="6.91149">
        <ele>1241.8</ele>
        <time>2022-07-19T09:42:23Z</time>
      </trkpt>
      <trkpt lat="44.27624" lon="6.91146">
        <ele>1242.2</ele>
        <time>2022-07-19T09:42:24Z</time>
      </trkpt>
      <trkpt lat="44.27625" lon="6.91142">
        <ele>1242.2</ele>
        <time>2022-07-19T09:42:25Z</time>
      </trkpt>
      <trkpt lat="44.27626" lon="6.91138">
        <ele>1242.4</ele>
        <time>2022-07-19T09:42:26Z</time>
      </trkpt>
      <trkpt lat="44.27627" lon="6.91134">
        <ele>1242.6</ele>
        <time>2022-07-19T09:42:27Z</time>
      </trkpt>
      <trkpt lat="44.27628" lon="6.9113">
        <ele>1242.6</ele>
        <time>2022-07-19T09:42:28Z</time>
      </trkpt>
      <trkpt lat="44.27629" lon="6.91127">
        <ele>1243</ele>
        <time>2022-07-19T09:42:29Z</time>
      </trkpt>
      <trkpt lat="44.2763" lon="6.91123">
        <ele>1243</ele>
        <time>2022-07-19T09:42:30Z</time>
      </trkpt>
      <trkpt lat="44.27631" lon="6.91119">
        <ele>1243.4</ele>
        <time>2022-07-19T09:42:31Z</time>
      </trkpt>
      <trkpt lat="44.27632" lon="6.91116">
        <ele>1243.6</ele>
        <time>2022-07-19T09:42:32Z</time>
      </trkpt>
      <trkpt lat="44.27633" lon="6.91112">
        <ele>1243.6</ele>
        <time>2022-07-19T09:42:33Z</time>
      </trkpt>
      <trkpt lat="44.27634" lon="6.91109">
        <ele>1244</ele>
        <time>2022-07-19T09:42:34Z</time>
      </trkpt>
      <trkpt lat="44.27635" lon="6.91105">
        <ele>1244</ele>
        <time>2022-07-19T09:42:35Z</time>
      </trkpt>
      <trkpt lat="44.27636" lon="6.91102">
        <ele>1244.2</ele>
        <time>2022-07-19T09:42:36Z</time>
      </trkpt>
      <trkpt lat="44.27637" lon="6.91098">
        <ele>1244.2</ele>
        <time>2022-07-19T09:42:37Z</time>
      </trkpt>
      <trkpt lat="44.27638" lon="6.91094">
        <ele>1244.4</ele>
        <time>2022-07-19T09:42:38Z</time>
      </trkpt>
      <trkpt lat="44.27639" lon="6.91091">
        <ele>1244.8</ele>
        <time>2022-07-19T09:42:39Z</time>
      </trkpt>
      <trkpt lat="44.2764" lon="6.91087">
        <ele>1245</ele>
        <time>2022-07-19T09:42:41Z</time>
      </trkpt>
      <trkpt lat="44.27641" lon="6.91084">
        <ele>1245</ele>
        <time>2022-07-19T09:42:42Z</time>
      </trkpt>
      <trkpt lat="44.27643" lon="6.9108">
        <ele>1245.4</ele>
        <time>2022-07-19T09:42:43Z</time>
      </trkpt>
      <trkpt lat="44.27644" lon="6.91077">
        <ele>1245.6</ele>
        <time>2022-07-19T09:42:44Z</time>
      </trkpt>
      <trkpt lat="44.27646" lon="6.91074">
        <ele>1245.6</ele>
        <time>2022-07-19T09:42:45Z</time>
      </trkpt>
      <trkpt lat="44.27648" lon="6.91072">
        <ele>1245.8</ele>
        <time>2022-07-19T09:42:46Z</time>
      </trkpt>
      <trkpt lat="44.2765" lon="6.91069">
        <ele>1246</ele>
        <time>2022-07-19T09:42:47Z</time>
      </trkpt>
      <trkpt lat="44.27652" lon="6.91066">
        <ele>1246.2</ele>
        <time>2022-07-19T09:42:48Z</time>
      </trkpt>
      <trkpt lat="44.27655" lon="6.91064">
        <ele>1246.2</ele>
        <time>2022-07-19T09:42:49Z</time>
      </trkpt>
      <trkpt lat="44.27657" lon="6.91062">
        <ele>1246.6</ele>
        <time>2022-07-19T09:42:50Z</time>
      </trkpt>
      <trkpt lat="44.27659" lon="6.9106">
        <ele>1247</ele>
        <time>2022-07-19T09:42:51Z</time>
      </trkpt>
      <trkpt lat="44.27661" lon="6.91058">
        <ele>1247</ele>
        <time>2022-07-19T09:42:52Z</time>
      </trkpt>
      <trkpt lat="44.27663" lon="6.91056">
        <ele>1247.2</ele>
        <time>2022-07-19T09:42:53Z</time>
      </trkpt>
      <trkpt lat="44.27666" lon="6.91054">
        <ele>1247.6</ele>
        <time>2022-07-19T09:42:54Z</time>
      </trkpt>
      <trkpt lat="44.27668" lon="6.91052">
        <ele>1247.8</ele>
        <time>2022-07-19T09:42:55Z</time>
      </trkpt>
      <trkpt lat="44.2767" lon="6.9105">
        <ele>1248</ele>
        <time>2022-07-19T09:42:56Z</time>
      </trkpt>
      <trkpt lat="44.27673" lon="6.91048">
        <ele>1248</ele>
        <time>2022-07-19T09:42:57Z</time>
      </trkpt>
      <trkpt lat="44.27675" lon="6.91046">
        <ele>1248.2</ele>
        <time>2022-07-19T09:42:58Z</time>
      </trkpt>
      <trkpt lat="44.27677" lon="6.91044">
        <ele>1248.2</ele>
        <time>2022-07-19T09:42:59Z</time>
      </trkpt>
      <trkpt lat="44.2768" lon="6.91043">
        <ele>1248.4</ele>
        <time>2022-07-19T09:43:00Z</time>
      </trkpt>
      <trkpt lat="44.27682" lon="6.91041">
        <ele>1248.4</ele>
        <time>2022-07-19T09:43:01Z</time>
      </trkpt>
      <trkpt lat="44.27684" lon="6.9104">
        <ele>1248.8</ele>
        <time>2022-07-19T09:43:02Z</time>
      </trkpt>
      <trkpt lat="44.27686" lon="6.91039">
        <ele>1249.2</ele>
        <time>2022-07-19T09:43:03Z</time>
      </trkpt>
      <trkpt lat="44.27689" lon="6.91038">
        <ele>1249.4</ele>
        <time>2022-07-19T09:43:04Z</time>
      </trkpt>
      <trkpt lat="44.27691" lon="6.91037">
        <ele>1249.4</ele>
        <time>2022-07-19T09:43:05Z</time>
      </trkpt>
      <trkpt lat="44.27694" lon="6.91036">
        <ele>1249.8</ele>
        <time>2022-07-19T09:43:06Z</time>
      </trkpt>
      <trkpt lat="44.27696" lon="6.91036">
        <ele>1249.8</ele>
        <time>2022-07-19T09:43:07Z</time>
      </trkpt>
      <trkpt lat="44.27698" lon="6.91035">
        <ele>1250</ele>
        <time>2022-07-19T09:43:08Z</time>
      </trkpt>
      <trkpt lat="44.277" lon="6.91033">
        <ele>1250</ele>
        <time>2022-07-19T09:43:09Z</time>
      </trkpt>
      <trkpt lat="44.27702" lon="6.91032">
        <ele>1250.4</ele>
        <time>2022-07-19T09:43:10Z</time>
      </trkpt>
      <trkpt lat="44.27704" lon="6.9103">
        <ele>1250.4</ele>
        <time>2022-07-19T09:43:11Z</time>
      </trkpt>
      <trkpt lat="44.27706" lon="6.91028">
        <ele>1250.6</ele>
        <time>2022-07-19T09:43:12Z</time>
      </trkpt>
      <trkpt lat="44.27708" lon="6.91027">
        <ele>1250.6</ele>
        <time>2022-07-19T09:43:13Z</time>
      </trkpt>
      <trkpt lat="44.2771" lon="6.91026">
        <ele>1251</ele>
        <time>2022-07-19T09:43:14Z</time>
      </trkpt>
      <trkpt lat="44.27713" lon="6.91024">
        <ele>1251</ele>
        <time>2022-07-19T09:43:15Z</time>
      </trkpt>
      <trkpt lat="44.27715" lon="6.91022">
        <ele>1251.2</ele>
        <time>2022-07-19T09:43:16Z</time>
      </trkpt>
      <trkpt lat="44.27717" lon="6.9102">
        <ele>1251.2</ele>
        <time>2022-07-19T09:43:17Z</time>
      </trkpt>
      <trkpt lat="44.27719" lon="6.91018">
        <ele>1251.4</ele>
        <time>2022-07-19T09:43:18Z</time>
      </trkpt>
      <trkpt lat="44.27721" lon="6.91016">
        <ele>1251.6</ele>
        <time>2022-07-19T09:43:19Z</time>
      </trkpt>
      <trkpt lat="44.27723" lon="6.91014">
        <ele>1251.6</ele>
        <time>2022-07-19T09:43:20Z</time>
      </trkpt>
      <trkpt lat="44.27725" lon="6.91013">
        <ele>1251.8</ele>
        <time>2022-07-19T09:43:21Z</time>
      </trkpt>
      <trkpt lat="44.27727" lon="6.91011">
        <ele>1251.8</ele>
        <time>2022-07-19T09:43:22Z</time>
      </trkpt>
      <trkpt lat="44.27729" lon="6.91009">
        <ele>1252.2</ele>
        <time>2022-07-19T09:43:23Z</time>
      </trkpt>
      <trkpt lat="44.2773" lon="6.91007">
        <ele>1252.2</ele>
        <time>2022-07-19T09:43:24Z</time>
      </trkpt>
      <trkpt lat="44.27732" lon="6.91005">
        <ele>1252.6</ele>
        <time>2022-07-19T09:43:25Z</time>
      </trkpt>
      <trkpt lat="44.27734" lon="6.91003">
        <ele>1252.6</ele>
        <time>2022-07-19T09:43:26Z</time>
      </trkpt>
      <trkpt lat="44.27735" lon="6.91">
        <ele>1252.8</ele>
        <time>2022-07-19T09:43:27Z</time>
      </trkpt>
      <trkpt lat="44.27737" lon="6.90998">
        <ele>1252.8</ele>
        <time>2022-07-19T09:43:28Z</time>
      </trkpt>
      <trkpt lat="44.27739" lon="6.90996">
        <ele>1253.2</ele>
        <time>2022-07-19T09:43:29Z</time>
      </trkpt>
      <trkpt lat="44.2774" lon="6.90994">
        <ele>1253.2</ele>
        <time>2022-07-19T09:43:30Z</time>
      </trkpt>
      <trkpt lat="44.27742" lon="6.90992">
        <ele>1253.4</ele>
        <time>2022-07-19T09:43:31Z</time>
      </trkpt>
      <trkpt lat="44.27744" lon="6.9099">
        <ele>1253.4</ele>
        <time>2022-07-19T09:43:32Z</time>
      </trkpt>
      <trkpt lat="44.27745" lon="6.90988">
        <ele>1253.8</ele>
        <time>2022-07-19T09:43:33Z</time>
      </trkpt>
      <trkpt lat="44.27747" lon="6.90986">
        <ele>1253.8</ele>
        <time>2022-07-19T09:43:34Z</time>
      </trkpt>
      <trkpt lat="44.27748" lon="6.90984">
        <ele>1254</ele>
        <time>2022-07-19T09:43:35Z</time>
      </trkpt>
      <trkpt lat="44.27751" lon="6.90979">
        <ele>1254</ele>
        <time>2022-07-19T09:43:36Z</time>
      </trkpt>
      <trkpt lat="44.27752" lon="6.90976">
        <ele>1254.2</ele>
        <time>2022-07-19T09:43:37Z</time>
      </trkpt>
      <trkpt lat="44.27753" lon="6.90973">
        <ele>1254.2</ele>
        <time>2022-07-19T09:43:38Z</time>
      </trkpt>
      <trkpt lat="44.27755" lon="6.90971">
        <ele>1254.6</ele>
        <time>2022-07-19T09:43:39Z</time>
      </trkpt>
      <trkpt lat="44.27757" lon="6.90969">
        <ele>1254.6</ele>
        <time>2022-07-19T09:43:40Z</time>
      </trkpt>
      <trkpt lat="44.27759" lon="6.90966">
        <ele>1254.8</ele>
        <time>2022-07-19T09:43:41Z</time>
      </trkpt>
      <trkpt lat="44.2776" lon="6.90964">
        <ele>1254.8</ele>
        <time>2022-07-19T09:43:42Z</time>
      </trkpt>
      <trkpt lat="44.27761" lon="6.90962">
        <ele>1255.2</ele>
        <time>2022-07-19T09:43:43Z</time>
      </trkpt>
      <trkpt lat="44.27763" lon="6.90959">
        <ele>1255.2</ele>
        <time>2022-07-19T09:43:44Z</time>
      </trkpt>
      <trkpt lat="44.27764" lon="6.90957">
        <ele>1255.4</ele>
        <time>2022-07-19T09:43:45Z</time>
      </trkpt>
      <trkpt lat="44.27766" lon="6.90954">
        <ele>1255.4</ele>
        <time>2022-07-19T09:43:46Z</time>
      </trkpt>
      <trkpt lat="44.27767" lon="6.90952">
        <ele>1255.6</ele>
        <time>2022-07-19T09:43:47Z</time>
      </trkpt>
      <trkpt lat="44.27768" lon="6.9095">
        <ele>1255.6</ele>
        <time>2022-07-19T09:43:48Z</time>
      </trkpt>
      <trkpt lat="44.2777" lon="6.90947">
        <ele>1256</ele>
        <time>2022-07-19T09:43:49Z</time>
      </trkpt>
      <trkpt lat="44.27771" lon="6.90944">
        <ele>1256</ele>
        <time>2022-07-19T09:43:50Z</time>
      </trkpt>
      <trkpt lat="44.27772" lon="6.90942">
        <ele>1256.4</ele>
        <time>2022-07-19T09:43:51Z</time>
      </trkpt>
      <trkpt lat="44.27773" lon="6.90939">
        <ele>1256.4</ele>
        <time>2022-07-19T09:43:52Z</time>
      </trkpt>
      <trkpt lat="44.27775" lon="6.90935">
        <ele>1256.6</ele>
        <time>2022-07-19T09:43:53Z</time>
      </trkpt>
      <trkpt lat="44.27776" lon="6.90932">
        <ele>1256.6</ele>
        <time>2022-07-19T09:43:54Z</time>
      </trkpt>
      <trkpt lat="44.27777" lon="6.90928">
        <ele>1257</ele>
        <time>2022-07-19T09:43:55Z</time>
      </trkpt>
      <trkpt lat="44.27779" lon="6.90925">
        <ele>1257.2</ele>
        <time>2022-07-19T09:43:56Z</time>
      </trkpt>
      <trkpt lat="44.2778" lon="6.90922">
        <ele>1257.2</ele>
        <time>2022-07-19T09:43:57Z</time>
      </trkpt>
      <trkpt lat="44.27782" lon="6.90919">
        <ele>1257.6</ele>
        <time>2022-07-19T09:43:58Z</time>
      </trkpt>
      <trkpt lat="44.27783" lon="6.90915">
        <ele>1257.8</ele>
        <time>2022-07-19T09:43:59Z</time>
      </trkpt>
      <trkpt lat="44.27784" lon="6.90912">
        <ele>1257.8</ele>
        <time>2022-07-19T09:44:00Z</time>
      </trkpt>
      <trkpt lat="44.27785" lon="6.90909">
        <ele>1258.2</ele>
        <time>2022-07-19T09:44:01Z</time>
      </trkpt>
      <trkpt lat="44.27786" lon="6.90905">
        <ele>1258.6</ele>
        <time>2022-07-19T09:44:02Z</time>
      </trkpt>
      <trkpt lat="44.27787" lon="6.90902">
        <ele>1258.6</ele>
        <time>2022-07-19T09:44:03Z</time>
      </trkpt>
      <trkpt lat="44.27788" lon="6.90899">
        <ele>1258.8</ele>
        <time>2022-07-19T09:44:04Z</time>
      </trkpt>
      <trkpt lat="44.27789" lon="6.90896">
        <ele>1258.8</ele>
        <time>2022-07-19T09:44:05Z</time>
      </trkpt>
      <trkpt lat="44.2779" lon="6.90893">
        <ele>1259.2</ele>
        <time>2022-07-19T09:44:06Z</time>
      </trkpt>
      <trkpt lat="44.2779" lon="6.90889">
        <ele>1259.2</ele>
        <time>2022-07-19T09:44:07Z</time>
      </trkpt>
      <trkpt lat="44.27791" lon="6.90886">
        <ele>1259.4</ele>
        <time>2022-07-19T09:44:08Z</time>
      </trkpt>
      <trkpt lat="44.27792" lon="6.90884">
        <ele>1259.4</ele>
        <time>2022-07-19T09:44:09Z</time>
      </trkpt>
      <trkpt lat="44.27793" lon="6.9088">
        <ele>1259.6</ele>
        <time>2022-07-19T09:44:10Z</time>
      </trkpt>
      <trkpt lat="44.27794" lon="6.90877">
        <ele>1259.6</ele>
        <time>2022-07-19T09:44:11Z</time>
      </trkpt>
      <trkpt lat="44.27794" lon="6.90874">
        <ele>1260</ele>
        <time>2022-07-19T09:44:12Z</time>
      </trkpt>
      <trkpt lat="44.27795" lon="6.90871">
        <ele>1260</ele>
        <time>2022-07-19T09:44:13Z</time>
      </trkpt>
      <trkpt lat="44.27796" lon="6.90868">
        <ele>1260.4</ele>
        <time>2022-07-19T09:44:14Z</time>
      </trkpt>
      <trkpt lat="44.27797" lon="6.90865">
        <ele>1260.4</ele>
        <time>2022-07-19T09:44:15Z</time>
      </trkpt>
      <trkpt lat="44.27798" lon="6.90862">
        <ele>1260.6</ele>
        <time>2022-07-19T09:44:16Z</time>
      </trkpt>
      <trkpt lat="44.27799" lon="6.90859">
        <ele>1260.6</ele>
        <time>2022-07-19T09:44:17Z</time>
      </trkpt>
      <trkpt lat="44.278" lon="6.90855">
        <ele>1260.8</ele>
        <time>2022-07-19T09:44:18Z</time>
      </trkpt>
      <trkpt lat="44.278" lon="6.90852">
        <ele>1260.8</ele>
        <time>2022-07-19T09:44:19Z</time>
      </trkpt>
      <trkpt lat="44.27801" lon="6.90849">
        <ele>1261.2</ele>
        <time>2022-07-19T09:44:20Z</time>
      </trkpt>
      <trkpt lat="44.27801" lon="6.90846">
        <ele>1261.2</ele>
        <time>2022-07-19T09:44:21Z</time>
      </trkpt>
      <trkpt lat="44.27802" lon="6.90843">
        <ele>1261.4</ele>
        <time>2022-07-19T09:44:22Z</time>
      </trkpt>
      <trkpt lat="44.27803" lon="6.9084">
        <ele>1261.6</ele>
        <time>2022-07-19T09:44:23Z</time>
      </trkpt>
      <trkpt lat="44.27804" lon="6.90837">
        <ele>1261.6</ele>
        <time>2022-07-19T09:44:24Z</time>
      </trkpt>
      <trkpt lat="44.27804" lon="6.90834">
        <ele>1261.8</ele>
        <time>2022-07-19T09:44:25Z</time>
      </trkpt>
      <trkpt lat="44.27805" lon="6.90831">
        <ele>1261.8</ele>
        <time>2022-07-19T09:44:26Z</time>
      </trkpt>
      <trkpt lat="44.27807" lon="6.90828">
        <ele>1262</ele>
        <time>2022-07-19T09:44:27Z</time>
      </trkpt>
      <trkpt lat="44.27808" lon="6.90826">
        <ele>1262</ele>
        <time>2022-07-19T09:44:28Z</time>
      </trkpt>
      <trkpt lat="44.2781" lon="6.90823">
        <ele>1262.4</ele>
        <time>2022-07-19T09:44:29Z</time>
      </trkpt>
      <trkpt lat="44.27811" lon="6.90821">
        <ele>1262.4</ele>
        <time>2022-07-19T09:44:30Z</time>
      </trkpt>
      <trkpt lat="44.27813" lon="6.90819">
        <ele>1262.8</ele>
        <time>2022-07-19T09:44:31Z</time>
      </trkpt>
      <trkpt lat="44.27815" lon="6.90817">
        <ele>1263</ele>
        <time>2022-07-19T09:44:32Z</time>
      </trkpt>
      <trkpt lat="44.27817" lon="6.90816">
        <ele>1263</ele>
        <time>2022-07-19T09:44:33Z</time>
      </trkpt>
      <trkpt lat="44.27819" lon="6.90814">
        <ele>1263.4</ele>
        <time>2022-07-19T09:44:34Z</time>
      </trkpt>
      <trkpt lat="44.27821" lon="6.90812">
        <ele>1263.4</ele>
        <time>2022-07-19T09:44:35Z</time>
      </trkpt>
      <trkpt lat="44.27823" lon="6.9081">
        <ele>1263.6</ele>
        <time>2022-07-19T09:44:36Z</time>
      </trkpt>
      <trkpt lat="44.27825" lon="6.90808">
        <ele>1263.6</ele>
        <time>2022-07-19T09:44:37Z</time>
      </trkpt>
      <trkpt lat="44.27827" lon="6.90806">
        <ele>1264</ele>
        <time>2022-07-19T09:44:38Z</time>
      </trkpt>
      <trkpt lat="44.27829" lon="6.90804">
        <ele>1264</ele>
        <time>2022-07-19T09:44:39Z</time>
      </trkpt>
      <trkpt lat="44.27831" lon="6.90801">
        <ele>1264.4</ele>
        <time>2022-07-19T09:44:40Z</time>
      </trkpt>
      <trkpt lat="44.27833" lon="6.90799">
        <ele>1264.6</ele>
        <time>2022-07-19T09:44:41Z</time>
      </trkpt>
      <trkpt lat="44.27835" lon="6.90796">
        <ele>1264.6</ele>
        <time>2022-07-19T09:44:42Z</time>
      </trkpt>
      <trkpt lat="44.27837" lon="6.90793">
        <ele>1264.8</ele>
        <time>2022-07-19T09:44:43Z</time>
      </trkpt>
      <trkpt lat="44.27839" lon="6.9079">
        <ele>1264.8</ele>
        <time>2022-07-19T09:44:44Z</time>
      </trkpt>
      <trkpt lat="44.27841" lon="6.90788">
        <ele>1265</ele>
        <time>2022-07-19T09:44:45Z</time>
      </trkpt>
      <trkpt lat="44.27843" lon="6.90785">
        <ele>1265</ele>
        <time>2022-07-19T09:44:46Z</time>
      </trkpt>
      <trkpt lat="44.27845" lon="6.90783">
        <ele>1265.4</ele>
        <time>2022-07-19T09:44:47Z</time>
      </trkpt>
      <trkpt lat="44.27846" lon="6.9078">
        <ele>1265.4</ele>
        <time>2022-07-19T09:44:48Z</time>
      </trkpt>
      <trkpt lat="44.27848" lon="6.90778">
        <ele>1265.6</ele>
        <time>2022-07-19T09:44:49Z</time>
      </trkpt>
      <trkpt lat="44.2785" lon="6.90776">
        <ele>1265.8</ele>
        <time>2022-07-19T09:44:50Z</time>
      </trkpt>
      <trkpt lat="44.27852" lon="6.90773">
        <ele>1265.8</ele>
        <time>2022-07-19T09:44:51Z</time>
      </trkpt>
      <trkpt lat="44.27854" lon="6.90771">
        <ele>1266.2</ele>
        <time>2022-07-19T09:44:52Z</time>
      </trkpt>
      <trkpt lat="44.27857" lon="6.90769">
        <ele>1266.2</ele>
        <time>2022-07-19T09:44:53Z</time>
      </trkpt>
      <trkpt lat="44.27859" lon="6.90767">
        <ele>1266.4</ele>
        <time>2022-07-19T09:44:54Z</time>
      </trkpt>
      <trkpt lat="44.2786" lon="6.90765">
        <ele>1266.4</ele>
        <time>2022-07-19T09:44:55Z</time>
      </trkpt>
      <trkpt lat="44.27862" lon="6.90763">
        <ele>1266.8</ele>
        <time>2022-07-19T09:44:56Z</time>
      </trkpt>
      <trkpt lat="44.27864" lon="6.90761">
        <ele>1266.8</ele>
        <time>2022-07-19T09:44:57Z</time>
      </trkpt>
      <trkpt lat="44.27866" lon="6.90759">
        <ele>1267</ele>
        <time>2022-07-19T09:44:58Z</time>
      </trkpt>
      <trkpt lat="44.27868" lon="6.90756">
        <ele>1267</ele>
        <time>2022-07-19T09:44:59Z</time>
      </trkpt>
      <trkpt lat="44.2787" lon="6.90753">
        <ele>1267.4</ele>
        <time>2022-07-19T09:45:00Z</time>
      </trkpt>
      <trkpt lat="44.27872" lon="6.90751">
        <ele>1267.4</ele>
        <time>2022-07-19T09:45:01Z</time>
      </trkpt>
      <trkpt lat="44.27873" lon="6.90748">
        <ele>1267.8</ele>
        <time>2022-07-19T09:45:02Z</time>
      </trkpt>
      <trkpt lat="44.27875" lon="6.90745">
        <ele>1267.8</ele>
        <time>2022-07-19T09:45:03Z</time>
      </trkpt>
      <trkpt lat="44.27877" lon="6.90742">
        <ele>1268.2</ele>
        <time>2022-07-19T09:45:04Z</time>
      </trkpt>
      <trkpt lat="44.27878" lon="6.9074">
        <ele>1268.2</ele>
        <time>2022-07-19T09:45:05Z</time>
      </trkpt>
      <trkpt lat="44.2788" lon="6.90737">
        <ele>1268.4</ele>
        <time>2022-07-19T09:45:06Z</time>
      </trkpt>
      <trkpt lat="44.27881" lon="6.90735">
        <ele>1268.4</ele>
        <time>2022-07-19T09:45:07Z</time>
      </trkpt>
      <trkpt lat="44.27883" lon="6.90732">
        <ele>1268.8</ele>
        <time>2022-07-19T09:45:08Z</time>
      </trkpt>
      <trkpt lat="44.27884" lon="6.90729">
        <ele>1268.8</ele>
        <time>2022-07-19T09:45:09Z</time>
      </trkpt>
      <trkpt lat="44.27886" lon="6.90727">
        <ele>1269.2</ele>
        <time>2022-07-19T09:45:10Z</time>
      </trkpt>
      <trkpt lat="44.27888" lon="6.90724">
        <ele>1269.2</ele>
        <time>2022-07-19T09:45:11Z</time>
      </trkpt>
      <trkpt lat="44.27889" lon="6.90721">
        <ele>1269.4</ele>
        <time>2022-07-19T09:45:12Z</time>
      </trkpt>
      <trkpt lat="44.27891" lon="6.90718">
        <ele>1269.4</ele>
        <time>2022-07-19T09:45:13Z</time>
      </trkpt>
      <trkpt lat="44.27893" lon="6.90715">
        <ele>1269.8</ele>
        <time>2022-07-19T09:45:14Z</time>
      </trkpt>
      <trkpt lat="44.27895" lon="6.90712">
        <ele>1269.8</ele>
        <time>2022-07-19T09:45:15Z</time>
      </trkpt>
      <trkpt lat="44.27897" lon="6.9071">
        <ele>1269.8</ele>
        <time>2022-07-19T09:45:16Z</time>
      </trkpt>
      <trkpt lat="44.27898" lon="6.90707">
        <ele>1270</ele>
        <time>2022-07-19T09:45:17Z</time>
      </trkpt>
      <trkpt lat="44.279" lon="6.90704">
        <ele>1270</ele>
        <time>2022-07-19T09:45:18Z</time>
      </trkpt>
      <trkpt lat="44.27902" lon="6.90701">
        <ele>1270.2</ele>
        <time>2022-07-19T09:45:19Z</time>
      </trkpt>
      <trkpt lat="44.27904" lon="6.90698">
        <ele>1270.2</ele>
        <time>2022-07-19T09:45:20Z</time>
      </trkpt>
      <trkpt lat="44.27906" lon="6.90696">
        <ele>1270.2</ele>
        <time>2022-07-19T09:45:21Z</time>
      </trkpt>
      <trkpt lat="44.27907" lon="6.90693">
        <ele>1270.6</ele>
        <time>2022-07-19T09:45:22Z</time>
      </trkpt>
      <trkpt lat="44.27909" lon="6.9069">
        <ele>1270.6</ele>
        <time>2022-07-19T09:45:23Z</time>
      </trkpt>
      <trkpt lat="44.27911" lon="6.90687">
        <ele>1270.8</ele>
        <time>2022-07-19T09:45:24Z</time>
      </trkpt>
      <trkpt lat="44.27912" lon="6.90684">
        <ele>1270.8</ele>
        <time>2022-07-19T09:45:25Z</time>
      </trkpt>
      <trkpt lat="44.27914" lon="6.90681">
        <ele>1271</ele>
        <time>2022-07-19T09:45:26Z</time>
      </trkpt>
      <trkpt lat="44.27916" lon="6.90678">
        <ele>1271</ele>
        <time>2022-07-19T09:45:27Z</time>
      </trkpt>
      <trkpt lat="44.27918" lon="6.90675">
        <ele>1271</ele>
        <time>2022-07-19T09:45:28Z</time>
      </trkpt>
      <trkpt lat="44.27919" lon="6.90672">
        <ele>1271.4</ele>
        <time>2022-07-19T09:45:29Z</time>
      </trkpt>
      <trkpt lat="44.27921" lon="6.90669">
        <ele>1271.4</ele>
        <time>2022-07-19T09:45:30Z</time>
      </trkpt>
      <trkpt lat="44.27922" lon="6.90666">
        <ele>1271.6</ele>
        <time>2022-07-19T09:45:31Z</time>
      </trkpt>
      <trkpt lat="44.27924" lon="6.90663">
        <ele>1271.6</ele>
        <time>2022-07-19T09:45:32Z</time>
      </trkpt>
      <trkpt lat="44.27925" lon="6.9066">
        <ele>1271.6</ele>
        <time>2022-07-19T09:45:33Z</time>
      </trkpt>
      <trkpt lat="44.27927" lon="6.90657">
        <ele>1271.8</ele>
        <time>2022-07-19T09:45:34Z</time>
      </trkpt>
      <trkpt lat="44.27928" lon="6.90654">
        <ele>1271.8</ele>
        <time>2022-07-19T09:45:35Z</time>
      </trkpt>
      <trkpt lat="44.2793" lon="6.90651">
        <ele>1271.8</ele>
        <time>2022-07-19T09:45:36Z</time>
      </trkpt>
      <trkpt lat="44.27932" lon="6.90647">
        <ele>1272.2</ele>
        <time>2022-07-19T09:45:37Z</time>
      </trkpt>
      <trkpt lat="44.27933" lon="6.90644">
        <ele>1272.2</ele>
        <time>2022-07-19T09:45:38Z</time>
      </trkpt>
      <trkpt lat="44.27935" lon="6.90641">
        <ele>1272.2</ele>
        <time>2022-07-19T09:45:39Z</time>
      </trkpt>
      <trkpt lat="44.27936" lon="6.90638">
        <ele>1272.4</ele>
        <time>2022-07-19T09:45:40Z</time>
      </trkpt>
      <trkpt lat="44.27937" lon="6.90634">
        <ele>1272.4</ele>
        <time>2022-07-19T09:45:41Z</time>
      </trkpt>
      <trkpt lat="44.27939" lon="6.90631">
        <ele>1272.4</ele>
        <time>2022-07-19T09:45:42Z</time>
      </trkpt>
      <trkpt lat="44.2794" lon="6.90627">
        <ele>1272.6</ele>
        <time>2022-07-19T09:45:43Z</time>
      </trkpt>
      <trkpt lat="44.27942" lon="6.90624">
        <ele>1272.6</ele>
        <time>2022-07-19T09:45:44Z</time>
      </trkpt>
      <trkpt lat="44.27943" lon="6.9062">
        <ele>1272.6</ele>
        <time>2022-07-19T09:45:45Z</time>
      </trkpt>
      <trkpt lat="44.27944" lon="6.90616">
        <ele>1273</ele>
        <time>2022-07-19T09:45:46Z</time>
      </trkpt>
      <trkpt lat="44.27945" lon="6.90612">
        <ele>1273</ele>
        <time>2022-07-19T09:45:47Z</time>
      </trkpt>
      <trkpt lat="44.27946" lon="6.90608">
        <ele>1273.2</ele>
        <time>2022-07-19T09:45:48Z</time>
      </trkpt>
      <trkpt lat="44.27947" lon="6.90604">
        <ele>1273.2</ele>
        <time>2022-07-19T09:45:49Z</time>
      </trkpt>
      <trkpt lat="44.27948" lon="6.906">
        <ele>1273.2</ele>
        <time>2022-07-19T09:45:50Z</time>
      </trkpt>
      <trkpt lat="44.27949" lon="6.90596">
        <ele>1273.2</ele>
        <time>2022-07-19T09:45:51Z</time>
      </trkpt>
      <trkpt lat="44.2795" lon="6.90592">
        <ele>1273.4</ele>
        <time>2022-07-19T09:45:52Z</time>
      </trkpt>
      <trkpt lat="44.27951" lon="6.90588">
        <ele>1273.4</ele>
        <time>2022-07-19T09:45:53Z</time>
      </trkpt>
      <trkpt lat="44.27952" lon="6.90584">
        <ele>1273.4</ele>
        <time>2022-07-19T09:45:54Z</time>
      </trkpt>
      <trkpt lat="44.27953" lon="6.9058">
        <ele>1273.6</ele>
        <time>2022-07-19T09:45:55Z</time>
      </trkpt>
      <trkpt lat="44.27954" lon="6.90576">
        <ele>1273.6</ele>
        <time>2022-07-19T09:45:56Z</time>
      </trkpt>
      <trkpt lat="44.27955" lon="6.90572">
        <ele>1274</ele>
        <time>2022-07-19T09:45:57Z</time>
      </trkpt>
      <trkpt lat="44.27956" lon="6.90568">
        <ele>1274</ele>
        <time>2022-07-19T09:45:58Z</time>
      </trkpt>
      <trkpt lat="44.27957" lon="6.90564">
        <ele>1274.2</ele>
        <time>2022-07-19T09:45:59Z</time>
      </trkpt>
      <trkpt lat="44.27958" lon="6.9056">
        <ele>1274.2</ele>
        <time>2022-07-19T09:46:00Z</time>
      </trkpt>
      <trkpt lat="44.27959" lon="6.90556">
        <ele>1274.4</ele>
        <time>2022-07-19T09:46:01Z</time>
      </trkpt>
      <trkpt lat="44.27961" lon="6.90553">
        <ele>1274.4</ele>
        <time>2022-07-19T09:46:02Z</time>
      </trkpt>
      <trkpt lat="44.27962" lon="6.90549">
        <ele>1274.6</ele>
        <time>2022-07-19T09:46:03Z</time>
      </trkpt>
      <trkpt lat="44.27964" lon="6.90546">
        <ele>1274.6</ele>
        <time>2022-07-19T09:46:04Z</time>
      </trkpt>
      <trkpt lat="44.27965" lon="6.90543">
        <ele>1275</ele>
        <time>2022-07-19T09:46:05Z</time>
      </trkpt>
      <trkpt lat="44.27967" lon="6.9054">
        <ele>1275</ele>
        <time>2022-07-19T09:46:06Z</time>
      </trkpt>
      <trkpt lat="44.27968" lon="6.90537">
        <ele>1275.2</ele>
        <time>2022-07-19T09:46:07Z</time>
      </trkpt>
      <trkpt lat="44.2797" lon="6.90534">
        <ele>1275.2</ele>
        <time>2022-07-19T09:46:08Z</time>
      </trkpt>
      <trkpt lat="44.27972" lon="6.90531">
        <ele>1275.2</ele>
        <time>2022-07-19T09:46:09Z</time>
      </trkpt>
      <trkpt lat="44.27973" lon="6.90528">
        <ele>1275.4</ele>
        <time>2022-07-19T09:46:10Z</time>
      </trkpt>
      <trkpt lat="44.27975" lon="6.90525">
        <ele>1275.4</ele>
        <time>2022-07-19T09:46:11Z</time>
      </trkpt>
      <trkpt lat="44.27977" lon="6.90522">
        <ele>1275.8</ele>
        <time>2022-07-19T09:46:12Z</time>
      </trkpt>
      <trkpt lat="44.27978" lon="6.90519">
        <ele>1275.8</ele>
        <time>2022-07-19T09:46:13Z</time>
      </trkpt>
      <trkpt lat="44.2798" lon="6.90517">
        <ele>1276</ele>
        <time>2022-07-19T09:46:14Z</time>
      </trkpt>
      <trkpt lat="44.27982" lon="6.90514">
        <ele>1276</ele>
        <time>2022-07-19T09:46:15Z</time>
      </trkpt>
      <trkpt lat="44.27984" lon="6.90511">
        <ele>1276.4</ele>
        <time>2022-07-19T09:46:16Z</time>
      </trkpt>
      <trkpt lat="44.27986" lon="6.90508">
        <ele>1276.4</ele>
        <time>2022-07-19T09:46:17Z</time>
      </trkpt>
      <trkpt lat="44.27987" lon="6.90505">
        <ele>1276.6</ele>
        <time>2022-07-19T09:46:18Z</time>
      </trkpt>
      <trkpt lat="44.27989" lon="6.90503">
        <ele>1276.6</ele>
        <time>2022-07-19T09:46:19Z</time>
      </trkpt>
      <trkpt lat="44.27991" lon="6.905">
        <ele>1276.8</ele>
        <time>2022-07-19T09:46:20Z</time>
      </trkpt>
      <trkpt lat="44.27993" lon="6.90498">
        <ele>1276.8</ele>
        <time>2022-07-19T09:46:21Z</time>
      </trkpt>
      <trkpt lat="44.27995" lon="6.90495">
        <ele>1277.2</ele>
        <time>2022-07-19T09:46:22Z</time>
      </trkpt>
      <trkpt lat="44.27997" lon="6.90492">
        <ele>1277.2</ele>
        <time>2022-07-19T09:46:23Z</time>
      </trkpt>
      <trkpt lat="44.27998" lon="6.9049">
        <ele>1277.6</ele>
        <time>2022-07-19T09:46:24Z</time>
      </trkpt>
      <trkpt lat="44.28" lon="6.90487">
        <ele>1277.8</ele>
        <time>2022-07-19T09:46:25Z</time>
      </trkpt>
      <trkpt lat="44.28002" lon="6.90484">
        <ele>1277.8</ele>
        <time>2022-07-19T09:46:26Z</time>
      </trkpt>
      <trkpt lat="44.28003" lon="6.90481">
        <ele>1278</ele>
        <time>2022-07-19T09:46:27Z</time>
      </trkpt>
      <trkpt lat="44.28005" lon="6.90478">
        <ele>1278</ele>
        <time>2022-07-19T09:46:28Z</time>
      </trkpt>
      <trkpt lat="44.28007" lon="6.90476">
        <ele>1278.4</ele>
        <time>2022-07-19T09:46:29Z</time>
      </trkpt>
      <trkpt lat="44.28009" lon="6.90473">
        <ele>1278.4</ele>
        <time>2022-07-19T09:46:30Z</time>
      </trkpt>
      <trkpt lat="44.28011" lon="6.9047">
        <ele>1278.6</ele>
        <time>2022-07-19T09:46:31Z</time>
      </trkpt>
      <trkpt lat="44.28013" lon="6.90467">
        <ele>1278.6</ele>
        <time>2022-07-19T09:46:32Z</time>
      </trkpt>
      <trkpt lat="44.28015" lon="6.90464">
        <ele>1279</ele>
        <time>2022-07-19T09:46:33Z</time>
      </trkpt>
      <trkpt lat="44.28017" lon="6.90461">
        <ele>1279</ele>
        <time>2022-07-19T09:46:34Z</time>
      </trkpt>
      <trkpt lat="44.28019" lon="6.90458">
        <ele>1279.2</ele>
        <time>2022-07-19T09:46:35Z</time>
      </trkpt>
      <trkpt lat="44.28021" lon="6.90456">
        <ele>1279.2</ele>
        <time>2022-07-19T09:46:36Z</time>
      </trkpt>
      <trkpt lat="44.28023" lon="6.90453">
        <ele>1279.4</ele>
        <time>2022-07-19T09:46:37Z</time>
      </trkpt>
      <trkpt lat="44.28025" lon="6.90449">
        <ele>1279.4</ele>
        <time>2022-07-19T09:46:38Z</time>
      </trkpt>
      <trkpt lat="44.28027" lon="6.90446">
        <ele>1279.8</ele>
        <time>2022-07-19T09:46:39Z</time>
      </trkpt>
      <trkpt lat="44.28028" lon="6.90443">
        <ele>1279.8</ele>
        <time>2022-07-19T09:46:40Z</time>
      </trkpt>
      <trkpt lat="44.2803" lon="6.9044">
        <ele>1280</ele>
        <time>2022-07-19T09:46:41Z</time>
      </trkpt>
      <trkpt lat="44.28032" lon="6.90437">
        <ele>1280</ele>
        <time>2022-07-19T09:46:42Z</time>
      </trkpt>
      <trkpt lat="44.28034" lon="6.90434">
        <ele>1280.4</ele>
        <time>2022-07-19T09:46:43Z</time>
      </trkpt>
      <trkpt lat="44.28036" lon="6.9043">
        <ele>1280.6</ele>
        <time>2022-07-19T09:46:44Z</time>
      </trkpt>
      <trkpt lat="44.28038" lon="6.90427">
        <ele>1280.8</ele>
        <time>2022-07-19T09:46:45Z</time>
      </trkpt>
      <trkpt lat="44.2804" lon="6.90424">
        <ele>1281</ele>
        <time>2022-07-19T09:46:46Z</time>
      </trkpt>
      <trkpt lat="44.28042" lon="6.90421">
        <ele>1281</ele>
        <time>2022-07-19T09:46:47Z</time>
      </trkpt>
      <trkpt lat="44.28044" lon="6.90418">
        <ele>1281.4</ele>
        <time>2022-07-19T09:46:48Z</time>
      </trkpt>
      <trkpt lat="44.28046" lon="6.90415">
        <ele>1281.4</ele>
        <time>2022-07-19T09:46:49Z</time>
      </trkpt>
      <trkpt lat="44.28047" lon="6.90412">
        <ele>1281.6</ele>
        <time>2022-07-19T09:46:50Z</time>
      </trkpt>
      <trkpt lat="44.28049" lon="6.90409">
        <ele>1281.6</ele>
        <time>2022-07-19T09:46:51Z</time>
      </trkpt>
      <trkpt lat="44.28051" lon="6.90405">
        <ele>1282</ele>
        <time>2022-07-19T09:46:52Z</time>
      </trkpt>
      <trkpt lat="44.28053" lon="6.90403">
        <ele>1282</ele>
        <time>2022-07-19T09:46:53Z</time>
      </trkpt>
      <trkpt lat="44.28054" lon="6.904">
        <ele>1282.2</ele>
        <time>2022-07-19T09:46:54Z</time>
      </trkpt>
      <trkpt lat="44.28056" lon="6.90397">
        <ele>1282.2</ele>
        <time>2022-07-19T09:46:55Z</time>
      </trkpt>
      <trkpt lat="44.28058" lon="6.90394">
        <ele>1282.6</ele>
        <time>2022-07-19T09:46:56Z</time>
      </trkpt>
      <trkpt lat="44.2806" lon="6.90391">
        <ele>1282.6</ele>
        <time>2022-07-19T09:46:57Z</time>
      </trkpt>
      <trkpt lat="44.28062" lon="6.90389">
        <ele>1282.8</ele>
        <time>2022-07-19T09:46:58Z</time>
      </trkpt>
      <trkpt lat="44.28064" lon="6.90386">
        <ele>1282.8</ele>
        <time>2022-07-19T09:46:59Z</time>
      </trkpt>
      <trkpt lat="44.28066" lon="6.90383">
        <ele>1283.2</ele>
        <time>2022-07-19T09:47:00Z</time>
      </trkpt>
      <trkpt lat="44.28068" lon="6.90381">
        <ele>1283.2</ele>
        <time>2022-07-19T09:47:01Z</time>
      </trkpt>
      <trkpt lat="44.28069" lon="6.90378">
        <ele>1283.4</ele>
        <time>2022-07-19T09:47:02Z</time>
      </trkpt>
      <trkpt lat="44.28072" lon="6.90376">
        <ele>1283.4</ele>
        <time>2022-07-19T09:47:03Z</time>
      </trkpt>
      <trkpt lat="44.28074" lon="6.90374">
        <ele>1283.8</ele>
        <time>2022-07-19T09:47:04Z</time>
      </trkpt>
      <trkpt lat="44.28076" lon="6.90373">
        <ele>1283.8</ele>
        <time>2022-07-19T09:47:05Z</time>
      </trkpt>
      <trkpt lat="44.28079" lon="6.90371">
        <ele>1284.2</ele>
        <time>2022-07-19T09:47:06Z</time>
      </trkpt>
      <trkpt lat="44.28081" lon="6.9037">
        <ele>1284.2</ele>
        <time>2022-07-19T09:47:07Z</time>
      </trkpt>
      <trkpt lat="44.28084" lon="6.90368">
        <ele>1284.4</ele>
        <time>2022-07-19T09:47:08Z</time>
      </trkpt>
      <trkpt lat="44.28086" lon="6.90366">
        <ele>1284.4</ele>
        <time>2022-07-19T09:47:09Z</time>
      </trkpt>
      <trkpt lat="44.28089" lon="6.90365">
        <ele>1284.8</ele>
        <time>2022-07-19T09:47:10Z</time>
      </trkpt>
      <trkpt lat="44.28091" lon="6.90363">
        <ele>1285</ele>
        <time>2022-07-19T09:47:11Z</time>
      </trkpt>
      <trkpt lat="44.28094" lon="6.90362">
        <ele>1285</ele>
        <time>2022-07-19T09:47:12Z</time>
      </trkpt>
      <trkpt lat="44.28096" lon="6.90361">
        <ele>1285.2</ele>
        <time>2022-07-19T09:47:13Z</time>
      </trkpt>
      <trkpt lat="44.28099" lon="6.9036">
        <ele>1285.2</ele>
        <time>2022-07-19T09:47:14Z</time>
      </trkpt>
      <trkpt lat="44.28101" lon="6.90358">
        <ele>1285.6</ele>
        <time>2022-07-19T09:47:15Z</time>
      </trkpt>
      <trkpt lat="44.28104" lon="6.90357">
        <ele>1285.6</ele>
        <time>2022-07-19T09:47:16Z</time>
      </trkpt>
      <trkpt lat="44.28106" lon="6.90356">
        <ele>1285.8</ele>
        <time>2022-07-19T09:47:17Z</time>
      </trkpt>
      <trkpt lat="44.28109" lon="6.90355">
        <ele>1286.2</ele>
        <time>2022-07-19T09:47:19Z</time>
      </trkpt>
      <trkpt lat="44.28112" lon="6.90354">
        <ele>1286.2</ele>
        <time>2022-07-19T09:47:20Z</time>
      </trkpt>
      <trkpt lat="44.28114" lon="6.90353">
        <ele>1286.4</ele>
        <time>2022-07-19T09:47:21Z</time>
      </trkpt>
      <trkpt lat="44.28116" lon="6.90351">
        <ele>1286.4</ele>
        <time>2022-07-19T09:47:22Z</time>
      </trkpt>
      <trkpt lat="44.28119" lon="6.9035">
        <ele>1286.8</ele>
        <time>2022-07-19T09:47:23Z</time>
      </trkpt>
      <trkpt lat="44.28121" lon="6.90348">
        <ele>1286.8</ele>
        <time>2022-07-19T09:47:24Z</time>
      </trkpt>
      <trkpt lat="44.28124" lon="6.90347">
        <ele>1287.2</ele>
        <time>2022-07-19T09:47:25Z</time>
      </trkpt>
      <trkpt lat="44.28126" lon="6.90346">
        <ele>1287.2</ele>
        <time>2022-07-19T09:47:26Z</time>
      </trkpt>
      <trkpt lat="44.28129" lon="6.90345">
        <ele>1287.4</ele>
        <time>2022-07-19T09:47:27Z</time>
      </trkpt>
      <trkpt lat="44.28132" lon="6.90343">
        <ele>1287.4</ele>
        <time>2022-07-19T09:47:28Z</time>
      </trkpt>
      <trkpt lat="44.28134" lon="6.90342">
        <ele>1287.6</ele>
        <time>2022-07-19T09:47:29Z</time>
      </trkpt>
      <trkpt lat="44.28136" lon="6.90341">
        <ele>1287.6</ele>
        <time>2022-07-19T09:47:30Z</time>
      </trkpt>
      <trkpt lat="44.28139" lon="6.90339">
        <ele>1288</ele>
        <time>2022-07-19T09:47:31Z</time>
      </trkpt>
      <trkpt lat="44.28141" lon="6.90338">
        <ele>1288</ele>
        <time>2022-07-19T09:47:32Z</time>
      </trkpt>
      <trkpt lat="44.28144" lon="6.90337">
        <ele>1288.2</ele>
        <time>2022-07-19T09:47:33Z</time>
      </trkpt>
      <trkpt lat="44.28146" lon="6.90336">
        <ele>1288.2</ele>
        <time>2022-07-19T09:47:34Z</time>
      </trkpt>
      <trkpt lat="44.28148" lon="6.90334">
        <ele>1288.6</ele>
        <time>2022-07-19T09:47:35Z</time>
      </trkpt>
      <trkpt lat="44.2815" lon="6.90332">
        <ele>1288.6</ele>
        <time>2022-07-19T09:47:36Z</time>
      </trkpt>
      <trkpt lat="44.28152" lon="6.90331">
        <ele>1289</ele>
        <time>2022-07-19T09:47:37Z</time>
      </trkpt>
      <trkpt lat="44.28154" lon="6.90329">
        <ele>1289</ele>
        <time>2022-07-19T09:47:38Z</time>
      </trkpt>
      <trkpt lat="44.28157" lon="6.90328">
        <ele>1289.2</ele>
        <time>2022-07-19T09:47:39Z</time>
      </trkpt>
      <trkpt lat="44.28159" lon="6.90326">
        <ele>1289.2</ele>
        <time>2022-07-19T09:47:40Z</time>
      </trkpt>
      <trkpt lat="44.28161" lon="6.90324">
        <ele>1289.4</ele>
        <time>2022-07-19T09:47:41Z</time>
      </trkpt>
      <trkpt lat="44.28163" lon="6.90323">
        <ele>1289.4</ele>
        <time>2022-07-19T09:47:42Z</time>
      </trkpt>
      <trkpt lat="44.28165" lon="6.90321">
        <ele>1289.8</ele>
        <time>2022-07-19T09:47:43Z</time>
      </trkpt>
      <trkpt lat="44.28167" lon="6.9032">
        <ele>1289.8</ele>
        <time>2022-07-19T09:47:44Z</time>
      </trkpt>
      <trkpt lat="44.28169" lon="6.90318">
        <ele>1289.8</ele>
        <time>2022-07-19T09:47:45Z</time>
      </trkpt>
      <trkpt lat="44.28171" lon="6.90316">
        <ele>1290.2</ele>
        <time>2022-07-19T09:47:46Z</time>
      </trkpt>
      <trkpt lat="44.28174" lon="6.90315">
        <ele>1290.2</ele>
        <time>2022-07-19T09:47:47Z</time>
      </trkpt>
      <trkpt lat="44.28175" lon="6.90313">
        <ele>1290.6</ele>
        <time>2022-07-19T09:47:48Z</time>
      </trkpt>
      <trkpt lat="44.28177" lon="6.9031">
        <ele>1290.6</ele>
        <time>2022-07-19T09:47:49Z</time>
      </trkpt>
      <trkpt lat="44.28179" lon="6.90309">
        <ele>1290.8</ele>
        <time>2022-07-19T09:47:50Z</time>
      </trkpt>
      <trkpt lat="44.28181" lon="6.90307">
        <ele>1291</ele>
        <time>2022-07-19T09:47:51Z</time>
      </trkpt>
      <trkpt lat="44.28183" lon="6.90305">
        <ele>1291.2</ele>
        <time>2022-07-19T09:47:52Z</time>
      </trkpt>
      <trkpt lat="44.28185" lon="6.90303">
        <ele>1291.2</ele>
        <time>2022-07-19T09:47:53Z</time>
      </trkpt>
      <trkpt lat="44.28187" lon="6.90301">
        <ele>1291.4</ele>
        <time>2022-07-19T09:47:54Z</time>
      </trkpt>
      <trkpt lat="44.28189" lon="6.90299">
        <ele>1291.4</ele>
        <time>2022-07-19T09:47:55Z</time>
      </trkpt>
      <trkpt lat="44.28191" lon="6.90298">
        <ele>1291.8</ele>
        <time>2022-07-19T09:47:56Z</time>
      </trkpt>
      <trkpt lat="44.28193" lon="6.90296">
        <ele>1291.8</ele>
        <time>2022-07-19T09:47:57Z</time>
      </trkpt>
      <trkpt lat="44.28195" lon="6.90294">
        <ele>1292.2</ele>
        <time>2022-07-19T09:47:58Z</time>
      </trkpt>
      <trkpt lat="44.28197" lon="6.90293">
        <ele>1292.2</ele>
        <time>2022-07-19T09:47:59Z</time>
      </trkpt>
      <trkpt lat="44.282" lon="6.90291">
        <ele>1292.4</ele>
        <time>2022-07-19T09:48:00Z</time>
      </trkpt>
      <trkpt lat="44.28202" lon="6.9029">
        <ele>1292.4</ele>
        <time>2022-07-19T09:48:01Z</time>
      </trkpt>
      <trkpt lat="44.28204" lon="6.90288">
        <ele>1292.4</ele>
        <time>2022-07-19T09:48:02Z</time>
      </trkpt>
      <trkpt lat="44.28206" lon="6.90287">
        <ele>1292.8</ele>
        <time>2022-07-19T09:48:03Z</time>
      </trkpt>
      <trkpt lat="44.28208" lon="6.90285">
        <ele>1293</ele>
        <time>2022-07-19T09:48:04Z</time>
      </trkpt>
      <trkpt lat="44.2821" lon="6.90282">
        <ele>1293</ele>
        <time>2022-07-19T09:48:05Z</time>
      </trkpt>
      <trkpt lat="44.28212" lon="6.9028">
        <ele>1293.4</ele>
        <time>2022-07-19T09:48:06Z</time>
      </trkpt>
      <trkpt lat="44.28214" lon="6.90278">
        <ele>1293.4</ele>
        <time>2022-07-19T09:48:07Z</time>
      </trkpt>
      <trkpt lat="44.28216" lon="6.90276">
        <ele>1293.6</ele>
        <time>2022-07-19T09:48:08Z</time>
      </trkpt>
      <trkpt lat="44.28218" lon="6.90275">
        <ele>1293.6</ele>
        <time>2022-07-19T09:48:09Z</time>
      </trkpt>
      <trkpt lat="44.2822" lon="6.90272">
        <ele>1294</ele>
        <time>2022-07-19T09:48:10Z</time>
      </trkpt>
      <trkpt lat="44.28222" lon="6.9027">
        <ele>1294.2</ele>
        <time>2022-07-19T09:48:11Z</time>
      </trkpt>
      <trkpt lat="44.28224" lon="6.90268">
        <ele>1294.2</ele>
        <time>2022-07-19T09:48:12Z</time>
      </trkpt>
      <trkpt lat="44.28226" lon="6.90266">
        <ele>1294.4</ele>
        <time>2022-07-19T09:48:13Z</time>
      </trkpt>
      <trkpt lat="44.28228" lon="6.90263">
        <ele>1294.4</ele>
        <time>2022-07-19T09:48:14Z</time>
      </trkpt>
      <trkpt lat="44.2823" lon="6.90261">
        <ele>1294.8</ele>
        <time>2022-07-19T09:48:15Z</time>
      </trkpt>
      <trkpt lat="44.28232" lon="6.90259">
        <ele>1294.8</ele>
        <time>2022-07-19T09:48:16Z</time>
      </trkpt>
      <trkpt lat="44.28234" lon="6.90256">
        <ele>1295.2</ele>
        <time>2022-07-19T09:48:17Z</time>
      </trkpt>
      <trkpt lat="44.28236" lon="6.90254">
        <ele>1295.4</ele>
        <time>2022-07-19T09:48:18Z</time>
      </trkpt>
      <trkpt lat="44.28238" lon="6.90252">
        <ele>1295.4</ele>
        <time>2022-07-19T09:48:19Z</time>
      </trkpt>
      <trkpt lat="44.28239" lon="6.9025">
        <ele>1295.6</ele>
        <time>2022-07-19T09:48:20Z</time>
      </trkpt>
      <trkpt lat="44.28241" lon="6.90247">
        <ele>1295.6</ele>
        <time>2022-07-19T09:48:21Z</time>
      </trkpt>
      <trkpt lat="44.28243" lon="6.90245">
        <ele>1296</ele>
        <time>2022-07-19T09:48:22Z</time>
      </trkpt>
      <trkpt lat="44.28245" lon="6.90242">
        <ele>1296</ele>
        <time>2022-07-19T09:48:23Z</time>
      </trkpt>
      <trkpt lat="44.28247" lon="6.90238">
        <ele>1296</ele>
        <time>2022-07-19T09:48:24Z</time>
      </trkpt>
      <trkpt lat="44.28249" lon="6.90236">
        <ele>1296.2</ele>
        <time>2022-07-19T09:48:25Z</time>
      </trkpt>
      <trkpt lat="44.28251" lon="6.90234">
        <ele>1296.2</ele>
        <time>2022-07-19T09:48:26Z</time>
      </trkpt>
      <trkpt lat="44.28253" lon="6.90232">
        <ele>1296.4</ele>
        <time>2022-07-19T09:48:27Z</time>
      </trkpt>
      <trkpt lat="44.28254" lon="6.90229">
        <ele>1296.4</ele>
        <time>2022-07-19T09:48:28Z</time>
      </trkpt>
      <trkpt lat="44.28256" lon="6.90227">
        <ele>1296.8</ele>
        <time>2022-07-19T09:48:29Z</time>
      </trkpt>
      <trkpt lat="44.28259" lon="6.90225">
        <ele>1296.8</ele>
        <time>2022-07-19T09:48:30Z</time>
      </trkpt>
      <trkpt lat="44.28261" lon="6.90224">
        <ele>1297</ele>
        <time>2022-07-19T09:48:31Z</time>
      </trkpt>
      <trkpt lat="44.28263" lon="6.90222">
        <ele>1297</ele>
        <time>2022-07-19T09:48:32Z</time>
      </trkpt>
      <trkpt lat="44.28265" lon="6.90221">
        <ele>1297.4</ele>
        <time>2022-07-19T09:48:33Z</time>
      </trkpt>
      <trkpt lat="44.28268" lon="6.9022">
        <ele>1297.4</ele>
        <time>2022-07-19T09:48:34Z</time>
      </trkpt>
      <trkpt lat="44.2827" lon="6.90219">
        <ele>1297.8</ele>
        <time>2022-07-19T09:48:35Z</time>
      </trkpt>
      <trkpt lat="44.28272" lon="6.90218">
        <ele>1297.8</ele>
        <time>2022-07-19T09:48:36Z</time>
      </trkpt>
      <trkpt lat="44.28275" lon="6.90217">
        <ele>1298</ele>
        <time>2022-07-19T09:48:37Z</time>
      </trkpt>
      <trkpt lat="44.28277" lon="6.90216">
        <ele>1298</ele>
        <time>2022-07-19T09:48:38Z</time>
      </trkpt>
      <trkpt lat="44.28279" lon="6.90215">
        <ele>1298.4</ele>
        <time>2022-07-19T09:48:39Z</time>
      </trkpt>
      <trkpt lat="44.28282" lon="6.90214">
        <ele>1298.4</ele>
        <time>2022-07-19T09:48:40Z</time>
      </trkpt>
      <trkpt lat="44.28284" lon="6.90213">
        <ele>1298.6</ele>
        <time>2022-07-19T09:48:41Z</time>
      </trkpt>
      <trkpt lat="44.28286" lon="6.90213">
        <ele>1298.8</ele>
        <time>2022-07-19T09:48:42Z</time>
      </trkpt>
      <trkpt lat="44.28288" lon="6.90212">
        <ele>1299.2</ele>
        <time>2022-07-19T09:48:43Z</time>
      </trkpt>
      <trkpt lat="44.2829" lon="6.90211">
        <ele>1299.2</ele>
        <time>2022-07-19T09:48:44Z</time>
      </trkpt>
      <trkpt lat="44.28292" lon="6.9021">
        <ele>1299.4</ele>
        <time>2022-07-19T09:48:45Z</time>
      </trkpt>
      <trkpt lat="44.28295" lon="6.90209">
        <ele>1299.6</ele>
        <time>2022-07-19T09:48:46Z</time>
      </trkpt>
      <trkpt lat="44.28297" lon="6.90208">
        <ele>1299.8</ele>
        <time>2022-07-19T09:48:47Z</time>
      </trkpt>
      <trkpt lat="44.28299" lon="6.90208">
        <ele>1299.8</ele>
        <time>2022-07-19T09:48:48Z</time>
      </trkpt>
      <trkpt lat="44.28301" lon="6.90207">
        <ele>1300</ele>
        <time>2022-07-19T09:48:49Z</time>
      </trkpt>
      <trkpt lat="44.28303" lon="6.90206">
        <ele>1300</ele>
        <time>2022-07-19T09:48:50Z</time>
      </trkpt>
      <trkpt lat="44.28305" lon="6.90205">
        <ele>1300.4</ele>
        <time>2022-07-19T09:48:51Z</time>
      </trkpt>
      <trkpt lat="44.28308" lon="6.90204">
        <ele>1300.6</ele>
        <time>2022-07-19T09:48:52Z</time>
      </trkpt>
      <trkpt lat="44.2831" lon="6.90204">
        <ele>1300.6</ele>
        <time>2022-07-19T09:48:53Z</time>
      </trkpt>
      <trkpt lat="44.28312" lon="6.90204">
        <ele>1301</ele>
        <time>2022-07-19T09:48:54Z</time>
      </trkpt>
      <trkpt lat="44.28315" lon="6.90204">
        <ele>1301</ele>
        <time>2022-07-19T09:48:55Z</time>
      </trkpt>
      <trkpt lat="44.28317" lon="6.90203">
        <ele>1301.2</ele>
        <time>2022-07-19T09:48:56Z</time>
      </trkpt>
      <trkpt lat="44.28319" lon="6.90203">
        <ele>1301.2</ele>
        <time>2022-07-19T09:48:57Z</time>
      </trkpt>
      <trkpt lat="44.28321" lon="6.90203">
        <ele>1301.6</ele>
        <time>2022-07-19T09:48:58Z</time>
      </trkpt>
      <trkpt lat="44.28324" lon="6.90204">
        <ele>1301.6</ele>
        <time>2022-07-19T09:48:59Z</time>
      </trkpt>
      <trkpt lat="44.28326" lon="6.90204">
        <ele>1301.8</ele>
        <time>2022-07-19T09:49:00Z</time>
      </trkpt>
      <trkpt lat="44.28328" lon="6.90205">
        <ele>1301.8</ele>
        <time>2022-07-19T09:49:01Z</time>
      </trkpt>
      <trkpt lat="44.2833" lon="6.90205">
        <ele>1302.2</ele>
        <time>2022-07-19T09:49:02Z</time>
      </trkpt>
      <trkpt lat="44.28332" lon="6.90205">
        <ele>1302.2</ele>
        <time>2022-07-19T09:49:03Z</time>
      </trkpt>
      <trkpt lat="44.28335" lon="6.90206">
        <ele>1302.6</ele>
        <time>2022-07-19T09:49:04Z</time>
      </trkpt>
      <trkpt lat="44.28337" lon="6.90206">
        <ele>1302.6</ele>
        <time>2022-07-19T09:49:05Z</time>
      </trkpt>
      <trkpt lat="44.28339" lon="6.90206">
        <ele>1302.8</ele>
        <time>2022-07-19T09:49:06Z</time>
      </trkpt>
      <trkpt lat="44.2834" lon="6.90206">
        <ele>1302.8</ele>
        <time>2022-07-19T09:49:07Z</time>
      </trkpt>
      <trkpt lat="44.28342" lon="6.90206">
        <ele>1303.2</ele>
        <time>2022-07-19T09:49:08Z</time>
      </trkpt>
      <trkpt lat="44.28344" lon="6.90206">
        <ele>1303.2</ele>
        <time>2022-07-19T09:49:09Z</time>
      </trkpt>
      <trkpt lat="44.28345" lon="6.90205">
        <ele>1303.4</ele>
        <time>2022-07-19T09:49:10Z</time>
      </trkpt>
      <trkpt lat="44.28347" lon="6.90205">
        <ele>1303.4</ele>
        <time>2022-07-19T09:49:11Z</time>
      </trkpt>
      <trkpt lat="44.28348" lon="6.90204">
        <ele>1303.8</ele>
        <time>2022-07-19T09:49:12Z</time>
      </trkpt>
      <trkpt lat="44.2835" lon="6.90203">
        <ele>1304</ele>
        <time>2022-07-19T09:49:13Z</time>
      </trkpt>
      <trkpt lat="44.28353" lon="6.90202">
        <ele>1304</ele>
        <time>2022-07-19T09:49:14Z</time>
      </trkpt>
      <trkpt lat="44.28354" lon="6.90201">
        <ele>1304.4</ele>
        <time>2022-07-19T09:49:15Z</time>
      </trkpt>
      <trkpt lat="44.28356" lon="6.902">
        <ele>1304.4</ele>
        <time>2022-07-19T09:49:16Z</time>
      </trkpt>
      <trkpt lat="44.28358" lon="6.90198">
        <ele>1304.6</ele>
        <time>2022-07-19T09:49:17Z</time>
      </trkpt>
      <trkpt lat="44.28359" lon="6.90196">
        <ele>1304.6</ele>
        <time>2022-07-19T09:49:18Z</time>
      </trkpt>
      <trkpt lat="44.28361" lon="6.90194">
        <ele>1304.8</ele>
        <time>2022-07-19T09:49:19Z</time>
      </trkpt>
      <trkpt lat="44.28362" lon="6.90192">
        <ele>1304.8</ele>
        <time>2022-07-19T09:49:20Z</time>
      </trkpt>
      <trkpt lat="44.28364" lon="6.9019">
        <ele>1304.8</ele>
        <time>2022-07-19T09:49:21Z</time>
      </trkpt>
      <trkpt lat="44.28365" lon="6.90188">
        <ele>1305.2</ele>
        <time>2022-07-19T09:49:22Z</time>
      </trkpt>
      <trkpt lat="44.28366" lon="6.90186">
        <ele>1305.2</ele>
        <time>2022-07-19T09:49:23Z</time>
      </trkpt>
      <trkpt lat="44.28368" lon="6.90184">
        <ele>1305.4</ele>
        <time>2022-07-19T09:49:24Z</time>
      </trkpt>
      <trkpt lat="44.28369" lon="6.90181">
        <ele>1305.4</ele>
        <time>2022-07-19T09:49:25Z</time>
      </trkpt>
      <trkpt lat="44.28371" lon="6.90179">
        <ele>1305.6</ele>
        <time>2022-07-19T09:49:26Z</time>
      </trkpt>
      <trkpt lat="44.28373" lon="6.90176">
        <ele>1305.6</ele>
        <time>2022-07-19T09:49:27Z</time>
      </trkpt>
      <trkpt lat="44.28374" lon="6.90174">
        <ele>1305.6</ele>
        <time>2022-07-19T09:49:28Z</time>
      </trkpt>
      <trkpt lat="44.28376" lon="6.90171">
        <ele>1305.8</ele>
        <time>2022-07-19T09:49:29Z</time>
      </trkpt>
      <trkpt lat="44.28378" lon="6.90168">
        <ele>1305.8</ele>
        <time>2022-07-19T09:49:30Z</time>
      </trkpt>
      <trkpt lat="44.2838" lon="6.90165">
        <ele>1305.8</ele>
        <time>2022-07-19T09:49:31Z</time>
      </trkpt>
      <trkpt lat="44.28382" lon="6.90163">
        <ele>1306.2</ele>
        <time>2022-07-19T09:49:32Z</time>
      </trkpt>
      <trkpt lat="44.28384" lon="6.9016">
        <ele>1306.2</ele>
        <time>2022-07-19T09:49:33Z</time>
      </trkpt>
      <trkpt lat="44.28386" lon="6.90158">
        <ele>1306.2</ele>
        <time>2022-07-19T09:49:34Z</time>
      </trkpt>
      <trkpt lat="44.28388" lon="6.90155">
        <ele>1306.4</ele>
        <time>2022-07-19T09:49:35Z</time>
      </trkpt>
      <trkpt lat="44.2839" lon="6.90153">
        <ele>1306.4</ele>
        <time>2022-07-19T09:49:36Z</time>
      </trkpt>
      <trkpt lat="44.28392" lon="6.90151">
        <ele>1306.6</ele>
        <time>2022-07-19T09:49:37Z</time>
      </trkpt>
      <trkpt lat="44.28394" lon="6.90149">
        <ele>1306.6</ele>
        <time>2022-07-19T09:49:38Z</time>
      </trkpt>
      <trkpt lat="44.28397" lon="6.90147">
        <ele>1307</ele>
        <time>2022-07-19T09:49:39Z</time>
      </trkpt>
      <trkpt lat="44.28398" lon="6.90146">
        <ele>1307</ele>
        <time>2022-07-19T09:49:40Z</time>
      </trkpt>
      <trkpt lat="44.284" lon="6.90144">
        <ele>1307.2</ele>
        <time>2022-07-19T09:49:41Z</time>
      </trkpt>
      <trkpt lat="44.28402" lon="6.90142">
        <ele>1307.2</ele>
        <time>2022-07-19T09:49:42Z</time>
      </trkpt>
      <trkpt lat="44.28404" lon="6.90141">
        <ele>1307.4</ele>
        <time>2022-07-19T09:49:43Z</time>
      </trkpt>
      <trkpt lat="44.28407" lon="6.90139">
        <ele>1307.4</ele>
        <time>2022-07-19T09:49:44Z</time>
      </trkpt>
      <trkpt lat="44.28409" lon="6.90138">
        <ele>1307.8</ele>
        <time>2022-07-19T09:49:45Z</time>
      </trkpt>
      <trkpt lat="44.28412" lon="6.90137">
        <ele>1307.8</ele>
        <time>2022-07-19T09:49:46Z</time>
      </trkpt>
      <trkpt lat="44.28414" lon="6.90135">
        <ele>1308</ele>
        <time>2022-07-19T09:49:47Z</time>
      </trkpt>
      <trkpt lat="44.28417" lon="6.90134">
        <ele>1308</ele>
        <time>2022-07-19T09:49:48Z</time>
      </trkpt>
      <trkpt lat="44.28419" lon="6.90132">
        <ele>1308.4</ele>
        <time>2022-07-19T09:49:49Z</time>
      </trkpt>
      <trkpt lat="44.28421" lon="6.90131">
        <ele>1308.4</ele>
        <time>2022-07-19T09:49:50Z</time>
      </trkpt>
      <trkpt lat="44.28424" lon="6.9013">
        <ele>1308.8</ele>
        <time>2022-07-19T09:49:51Z</time>
      </trkpt>
      <trkpt lat="44.28426" lon="6.90128">
        <ele>1309</ele>
        <time>2022-07-19T09:49:52Z</time>
      </trkpt>
      <trkpt lat="44.28429" lon="6.90127">
        <ele>1309</ele>
        <time>2022-07-19T09:49:53Z</time>
      </trkpt>
      <trkpt lat="44.28431" lon="6.90126">
        <ele>1309.4</ele>
        <time>2022-07-19T09:49:54Z</time>
      </trkpt>
      <trkpt lat="44.28433" lon="6.90124">
        <ele>1309.6</ele>
        <time>2022-07-19T09:49:55Z</time>
      </trkpt>
      <trkpt lat="44.28435" lon="6.90123">
        <ele>1309.6</ele>
        <time>2022-07-19T09:49:56Z</time>
      </trkpt>
      <trkpt lat="44.28438" lon="6.90122">
        <ele>1309.8</ele>
        <time>2022-07-19T09:49:57Z</time>
      </trkpt>
      <trkpt lat="44.2844" lon="6.90121">
        <ele>1309.8</ele>
        <time>2022-07-19T09:49:58Z</time>
      </trkpt>
      <trkpt lat="44.28442" lon="6.9012">
        <ele>1310.2</ele>
        <time>2022-07-19T09:49:59Z</time>
      </trkpt>
      <trkpt lat="44.28445" lon="6.90118">
        <ele>1310.4</ele>
        <time>2022-07-19T09:50:00Z</time>
      </trkpt>
      <trkpt lat="44.28447" lon="6.90117">
        <ele>1310.4</ele>
        <time>2022-07-19T09:50:01Z</time>
      </trkpt>
      <trkpt lat="44.28449" lon="6.90117">
        <ele>1310.6</ele>
        <time>2022-07-19T09:50:02Z</time>
      </trkpt>
      <trkpt lat="44.28451" lon="6.90115">
        <ele>1310.6</ele>
        <time>2022-07-19T09:50:03Z</time>
      </trkpt>
      <trkpt lat="44.28453" lon="6.90114">
        <ele>1311</ele>
        <time>2022-07-19T09:50:04Z</time>
      </trkpt>
      <trkpt lat="44.28455" lon="6.90113">
        <ele>1311</ele>
        <time>2022-07-19T09:50:05Z</time>
      </trkpt>
      <trkpt lat="44.28457" lon="6.90112">
        <ele>1311.2</ele>
        <time>2022-07-19T09:50:06Z</time>
      </trkpt>
      <trkpt lat="44.28459" lon="6.9011">
        <ele>1311.2</ele>
        <time>2022-07-19T09:50:07Z</time>
      </trkpt>
      <trkpt lat="44.28461" lon="6.90109">
        <ele>1311.6</ele>
        <time>2022-07-19T09:50:08Z</time>
      </trkpt>
      <trkpt lat="44.28463" lon="6.90108">
        <ele>1311.6</ele>
        <time>2022-07-19T09:50:09Z</time>
      </trkpt>
      <trkpt lat="44.28465" lon="6.90107">
        <ele>1312</ele>
        <time>2022-07-19T09:50:10Z</time>
      </trkpt>
      <trkpt lat="44.28467" lon="6.90105">
        <ele>1312</ele>
        <time>2022-07-19T09:50:11Z</time>
      </trkpt>
      <trkpt lat="44.28469" lon="6.90104">
        <ele>1312.2</ele>
        <time>2022-07-19T09:50:12Z</time>
      </trkpt>
      <trkpt lat="44.28471" lon="6.90102">
        <ele>1312.4</ele>
        <time>2022-07-19T09:50:13Z</time>
      </trkpt>
      <trkpt lat="44.28473" lon="6.90101">
        <ele>1312.6</ele>
        <time>2022-07-19T09:50:14Z</time>
      </trkpt>
      <trkpt lat="44.28475" lon="6.90099">
        <ele>1312.8</ele>
        <time>2022-07-19T09:50:15Z</time>
      </trkpt>
      <trkpt lat="44.28477" lon="6.90097">
        <ele>1312.8</ele>
        <time>2022-07-19T09:50:16Z</time>
      </trkpt>
      <trkpt lat="44.28479" lon="6.90096">
        <ele>1313.2</ele>
        <time>2022-07-19T09:50:17Z</time>
      </trkpt>
      <trkpt lat="44.28481" lon="6.90094">
        <ele>1313.4</ele>
        <time>2022-07-19T09:50:18Z</time>
      </trkpt>
      <trkpt lat="44.28483" lon="6.90093">
        <ele>1313.4</ele>
        <time>2022-07-19T09:50:19Z</time>
      </trkpt>
      <trkpt lat="44.28485" lon="6.90091">
        <ele>1313.6</ele>
        <time>2022-07-19T09:50:20Z</time>
      </trkpt>
      <trkpt lat="44.28487" lon="6.9009">
        <ele>1314</ele>
        <time>2022-07-19T09:50:21Z</time>
      </trkpt>
      <trkpt lat="44.28488" lon="6.90088">
        <ele>1314</ele>
        <time>2022-07-19T09:50:22Z</time>
      </trkpt>
      <trkpt lat="44.2849" lon="6.90086">
        <ele>1314.2</ele>
        <time>2022-07-19T09:50:23Z</time>
      </trkpt>
      <trkpt lat="44.28492" lon="6.90085">
        <ele>1314.2</ele>
        <time>2022-07-19T09:50:24Z</time>
      </trkpt>
      <trkpt lat="44.28494" lon="6.90083">
        <ele>1314.4</ele>
        <time>2022-07-19T09:50:25Z</time>
      </trkpt>
      <trkpt lat="44.28496" lon="6.90082">
        <ele>1314.6</ele>
        <time>2022-07-19T09:50:26Z</time>
      </trkpt>
      <trkpt lat="44.28498" lon="6.9008">
        <ele>1314.6</ele>
        <time>2022-07-19T09:50:27Z</time>
      </trkpt>
      <trkpt lat="44.285" lon="6.90079">
        <ele>1315</ele>
        <time>2022-07-19T09:50:28Z</time>
      </trkpt>
      <trkpt lat="44.28502" lon="6.90077">
        <ele>1315</ele>
        <time>2022-07-19T09:50:29Z</time>
      </trkpt>
      <trkpt lat="44.28504" lon="6.90075">
        <ele>1315.2</ele>
        <time>2022-07-19T09:50:30Z</time>
      </trkpt>
      <trkpt lat="44.28505" lon="6.90074">
        <ele>1315.2</ele>
        <time>2022-07-19T09:50:31Z</time>
      </trkpt>
      <trkpt lat="44.28507" lon="6.90072">
        <ele>1315.4</ele>
        <time>2022-07-19T09:50:32Z</time>
      </trkpt>
      <trkpt lat="44.28509" lon="6.9007">
        <ele>1315.4</ele>
        <time>2022-07-19T09:50:33Z</time>
      </trkpt>
      <trkpt lat="44.28511" lon="6.90067">
        <ele>1315.6</ele>
        <time>2022-07-19T09:50:34Z</time>
      </trkpt>
      <trkpt lat="44.28513" lon="6.90066">
        <ele>1315.6</ele>
        <time>2022-07-19T09:50:35Z</time>
      </trkpt>
      <trkpt lat="44.28515" lon="6.90064">
        <ele>1316</ele>
        <time>2022-07-19T09:50:36Z</time>
      </trkpt>
      <trkpt lat="44.28517" lon="6.90063">
        <ele>1316.2</ele>
        <time>2022-07-19T09:50:37Z</time>
      </trkpt>
      <trkpt lat="44.28519" lon="6.90061">
        <ele>1316.2</ele>
        <time>2022-07-19T09:50:38Z</time>
      </trkpt>
      <trkpt lat="44.28521" lon="6.90059">
        <ele>1316.6</ele>
        <time>2022-07-19T09:50:39Z</time>
      </trkpt>
      <trkpt lat="44.28523" lon="6.90058">
        <ele>1316.8</ele>
        <time>2022-07-19T09:50:40Z</time>
      </trkpt>
      <trkpt lat="44.28525" lon="6.90056">
        <ele>1316.8</ele>
        <time>2022-07-19T09:50:41Z</time>
      </trkpt>
      <trkpt lat="44.28527" lon="6.90055">
        <ele>1317</ele>
        <time>2022-07-19T09:50:42Z</time>
      </trkpt>
      <trkpt lat="44.28529" lon="6.90054">
        <ele>1317</ele>
        <time>2022-07-19T09:50:43Z</time>
      </trkpt>
      <trkpt lat="44.28531" lon="6.90053">
        <ele>1317.4</ele>
        <time>2022-07-19T09:50:44Z</time>
      </trkpt>
      <trkpt lat="44.28533" lon="6.90053">
        <ele>1317.4</ele>
        <time>2022-07-19T09:50:45Z</time>
      </trkpt>
      <trkpt lat="44.28535" lon="6.90052">
        <ele>1317.8</ele>
        <time>2022-07-19T09:50:46Z</time>
      </trkpt>
      <trkpt lat="44.28537" lon="6.90051">
        <ele>1317.8</ele>
        <time>2022-07-19T09:50:47Z</time>
      </trkpt>
      <trkpt lat="44.28539" lon="6.9005">
        <ele>1318</ele>
        <time>2022-07-19T09:50:48Z</time>
      </trkpt>
      <trkpt lat="44.28541" lon="6.9005">
        <ele>1318</ele>
        <time>2022-07-19T09:50:49Z</time>
      </trkpt>
      <trkpt lat="44.28543" lon="6.9005">
        <ele>1318.4</ele>
        <time>2022-07-19T09:50:50Z</time>
      </trkpt>
      <trkpt lat="44.28545" lon="6.9005">
        <ele>1318.4</ele>
        <time>2022-07-19T09:50:51Z</time>
      </trkpt>
      <trkpt lat="44.28547" lon="6.90049">
        <ele>1318.8</ele>
        <time>2022-07-19T09:50:52Z</time>
      </trkpt>
      <trkpt lat="44.28549" lon="6.90049">
        <ele>1319</ele>
        <time>2022-07-19T09:50:53Z</time>
      </trkpt>
      <trkpt lat="44.28551" lon="6.90049">
        <ele>1319</ele>
        <time>2022-07-19T09:50:54Z</time>
      </trkpt>
      <trkpt lat="44.28553" lon="6.90049">
        <ele>1319.2</ele>
        <time>2022-07-19T09:50:55Z</time>
      </trkpt>
      <trkpt lat="44.28555" lon="6.9005">
        <ele>1319.2</ele>
        <time>2022-07-19T09:50:56Z</time>
      </trkpt>
      <trkpt lat="44.28557" lon="6.90051">
        <ele>1319.6</ele>
        <time>2022-07-19T09:50:57Z</time>
      </trkpt>
      <trkpt lat="44.28559" lon="6.90052">
        <ele>1319.6</ele>
        <time>2022-07-19T09:50:58Z</time>
      </trkpt>
      <trkpt lat="44.28562" lon="6.90052">
        <ele>1320</ele>
        <time>2022-07-19T09:50:59Z</time>
      </trkpt>
      <trkpt lat="44.28564" lon="6.90053">
        <ele>1320</ele>
        <time>2022-07-19T09:51:00Z</time>
      </trkpt>
      <trkpt lat="44.28566" lon="6.90053">
        <ele>1320.4</ele>
        <time>2022-07-19T09:51:01Z</time>
      </trkpt>
      <trkpt lat="44.2857" lon="6.90054">
        <ele>1320.6</ele>
        <time>2022-07-19T09:51:02Z</time>
      </trkpt>
      <trkpt lat="44.28572" lon="6.90054">
        <ele>1320.6</ele>
        <time>2022-07-19T09:51:03Z</time>
      </trkpt>
      <trkpt lat="44.28574" lon="6.90054">
        <ele>1321</ele>
        <time>2022-07-19T09:51:04Z</time>
      </trkpt>
      <trkpt lat="44.28576" lon="6.90053">
        <ele>1321</ele>
        <time>2022-07-19T09:51:05Z</time>
      </trkpt>
      <trkpt lat="44.28578" lon="6.90053">
        <ele>1321.2</ele>
        <time>2022-07-19T09:51:06Z</time>
      </trkpt>
      <trkpt lat="44.2858" lon="6.90053">
        <ele>1321.2</ele>
        <time>2022-07-19T09:51:07Z</time>
      </trkpt>
      <trkpt lat="44.28582" lon="6.90052">
        <ele>1321.6</ele>
        <time>2022-07-19T09:51:08Z</time>
      </trkpt>
      <trkpt lat="44.28584" lon="6.90051">
        <ele>1321.6</ele>
        <time>2022-07-19T09:51:09Z</time>
      </trkpt>
      <trkpt lat="44.28586" lon="6.9005">
        <ele>1321.8</ele>
        <time>2022-07-19T09:51:10Z</time>
      </trkpt>
      <trkpt lat="44.28588" lon="6.90047">
        <ele>1321.8</ele>
        <time>2022-07-19T09:51:11Z</time>
      </trkpt>
      <trkpt lat="44.2859" lon="6.90045">
        <ele>1322</ele>
        <time>2022-07-19T09:51:12Z</time>
      </trkpt>
      <trkpt lat="44.28592" lon="6.90044">
        <ele>1322</ele>
        <time>2022-07-19T09:51:13Z</time>
      </trkpt>
      <trkpt lat="44.28594" lon="6.90042">
        <ele>1322.2</ele>
        <time>2022-07-19T09:51:14Z</time>
      </trkpt>
      <trkpt lat="44.28596" lon="6.90041">
        <ele>1322.2</ele>
        <time>2022-07-19T09:51:15Z</time>
      </trkpt>
      <trkpt lat="44.28598" lon="6.9004">
        <ele>1322.6</ele>
        <time>2022-07-19T09:51:16Z</time>
      </trkpt>
      <trkpt lat="44.28601" lon="6.90039">
        <ele>1322.8</ele>
        <time>2022-07-19T09:51:17Z</time>
      </trkpt>
      <trkpt lat="44.28604" lon="6.90039">
        <ele>1322.8</ele>
        <time>2022-07-19T09:51:18Z</time>
      </trkpt>
      <trkpt lat="44.28606" lon="6.90038">
        <ele>1323.2</ele>
        <time>2022-07-19T09:51:19Z</time>
      </trkpt>
      <trkpt lat="44.28608" lon="6.90038">
        <ele>1323.2</ele>
        <time>2022-07-19T09:51:20Z</time>
      </trkpt>
      <trkpt lat="44.2861" lon="6.90039">
        <ele>1323.4</ele>
        <time>2022-07-19T09:51:21Z</time>
      </trkpt>
      <trkpt lat="44.28612" lon="6.9004">
        <ele>1323.4</ele>
        <time>2022-07-19T09:51:22Z</time>
      </trkpt>
      <trkpt lat="44.28614" lon="6.9004">
        <ele>1323.8</ele>
        <time>2022-07-19T09:51:23Z</time>
      </trkpt>
      <trkpt lat="44.28616" lon="6.90041">
        <ele>1323.8</ele>
        <time>2022-07-19T09:51:24Z</time>
      </trkpt>
      <trkpt lat="44.28618" lon="6.90042">
        <ele>1324</ele>
        <time>2022-07-19T09:51:25Z</time>
      </trkpt>
      <trkpt lat="44.28619" lon="6.90042">
        <ele>1324</ele>
        <time>2022-07-19T09:51:26Z</time>
      </trkpt>
      <trkpt lat="44.28621" lon="6.90043">
        <ele>1324.4</ele>
        <time>2022-07-19T09:51:27Z</time>
      </trkpt>
      <trkpt lat="44.28623" lon="6.90043">
        <ele>1324.6</ele>
        <time>2022-07-19T09:51:28Z</time>
      </trkpt>
      <trkpt lat="44.28625" lon="6.90043">
        <ele>1324.6</ele>
        <time>2022-07-19T09:51:29Z</time>
      </trkpt>
      <trkpt lat="44.28627" lon="6.90043">
        <ele>1325</ele>
        <time>2022-07-19T09:51:30Z</time>
      </trkpt>
      <trkpt lat="44.2863" lon="6.90042">
        <ele>1325</ele>
        <time>2022-07-19T09:51:31Z</time>
      </trkpt>
      <trkpt lat="44.28632" lon="6.90042">
        <ele>1325.2</ele>
        <time>2022-07-19T09:51:32Z</time>
      </trkpt>
      <trkpt lat="44.28634" lon="6.90041">
        <ele>1325.2</ele>
        <time>2022-07-19T09:51:33Z</time>
      </trkpt>
      <trkpt lat="44.28637" lon="6.9004">
        <ele>1325.4</ele>
        <time>2022-07-19T09:51:34Z</time>
      </trkpt>
      <trkpt lat="44.28639" lon="6.90039">
        <ele>1325.4</ele>
        <time>2022-07-19T09:51:35Z</time>
      </trkpt>
      <trkpt lat="44.2864" lon="6.90038">
        <ele>1325.8</ele>
        <time>2022-07-19T09:51:36Z</time>
      </trkpt>
      <trkpt lat="44.28643" lon="6.90036">
        <ele>1325.8</ele>
        <time>2022-07-19T09:51:37Z</time>
      </trkpt>
      <trkpt lat="44.28645" lon="6.90035">
        <ele>1326.2</ele>
        <time>2022-07-19T09:51:38Z</time>
      </trkpt>
      <trkpt lat="44.28647" lon="6.90033">
        <ele>1326.2</ele>
        <time>2022-07-19T09:51:39Z</time>
      </trkpt>
      <trkpt lat="44.28649" lon="6.90031">
        <ele>1326.4</ele>
        <time>2022-07-19T09:51:40Z</time>
      </trkpt>
      <trkpt lat="44.28651" lon="6.9003">
        <ele>1326.4</ele>
        <time>2022-07-19T09:51:41Z</time>
      </trkpt>
      <trkpt lat="44.28653" lon="6.90028">
        <ele>1326.6</ele>
        <time>2022-07-19T09:51:42Z</time>
      </trkpt>
      <trkpt lat="44.28655" lon="6.90026">
        <ele>1326.6</ele>
        <time>2022-07-19T09:51:43Z</time>
      </trkpt>
      <trkpt lat="44.28657" lon="6.90024">
        <ele>1327</ele>
        <time>2022-07-19T09:51:44Z</time>
      </trkpt>
      <trkpt lat="44.28658" lon="6.90022">
        <ele>1327</ele>
        <time>2022-07-19T09:51:45Z</time>
      </trkpt>
      <trkpt lat="44.2866" lon="6.9002">
        <ele>1327.4</ele>
        <time>2022-07-19T09:51:46Z</time>
      </trkpt>
      <trkpt lat="44.28662" lon="6.90018">
        <ele>1327.4</ele>
        <time>2022-07-19T09:51:47Z</time>
      </trkpt>
      <trkpt lat="44.28663" lon="6.90015">
        <ele>1327.6</ele>
        <time>2022-07-19T09:51:48Z</time>
      </trkpt>
      <trkpt lat="44.28664" lon="6.90012">
        <ele>1327.6</ele>
        <time>2022-07-19T09:51:49Z</time>
      </trkpt>
      <trkpt lat="44.28665" lon="6.90008">
        <ele>1327.6</ele>
        <time>2022-07-19T09:51:50Z</time>
      </trkpt>
      <trkpt lat="44.28666" lon="6.90005">
        <ele>1327.8</ele>
        <time>2022-07-19T09:51:51Z</time>
      </trkpt>
      <trkpt lat="44.28667" lon="6.90002">
        <ele>1327.8</ele>
        <time>2022-07-19T09:51:52Z</time>
      </trkpt>
      <trkpt lat="44.28667" lon="6.89999">
        <ele>1328.2</ele>
        <time>2022-07-19T09:51:53Z</time>
      </trkpt>
      <trkpt lat="44.28669" lon="6.89996">
        <ele>1328.2</ele>
        <time>2022-07-19T09:51:54Z</time>
      </trkpt>
      <trkpt lat="44.2867" lon="6.89994">
        <ele>1328.2</ele>
        <time>2022-07-19T09:51:55Z</time>
      </trkpt>
      <trkpt lat="44.2867" lon="6.89991">
        <ele>1328.2</ele>
        <time>2022-07-19T09:51:56Z</time>
      </trkpt>
      <trkpt lat="44.28671" lon="6.89988">
        <ele>1328.2</ele>
        <time>2022-07-19T09:51:57Z</time>
      </trkpt>
      <trkpt lat="44.28672" lon="6.89985">
        <ele>1328.4</ele>
        <time>2022-07-19T09:51:58Z</time>
      </trkpt>
      <trkpt lat="44.28673" lon="6.89982">
        <ele>1328.4</ele>
        <time>2022-07-19T09:51:59Z</time>
      </trkpt>
      <trkpt lat="44.28674" lon="6.89979">
        <ele>1328.4</ele>
        <time>2022-07-19T09:52:00Z</time>
      </trkpt>
      <trkpt lat="44.28675" lon="6.89977">
        <ele>1328.4</ele>
        <time>2022-07-19T09:52:01Z</time>
      </trkpt>
      <trkpt lat="44.28676" lon="6.89974">
        <ele>1328.6</ele>
        <time>2022-07-19T09:52:02Z</time>
      </trkpt>
      <trkpt lat="44.28677" lon="6.89971">
        <ele>1328.6</ele>
        <time>2022-07-19T09:52:03Z</time>
      </trkpt>
      <trkpt lat="44.28677" lon="6.89968">
        <ele>1328.6</ele>
        <time>2022-07-19T09:52:04Z</time>
      </trkpt>
      <trkpt lat="44.28678" lon="6.89964">
        <ele>1328.8</ele>
        <time>2022-07-19T09:52:05Z</time>
      </trkpt>
      <trkpt lat="44.28678" lon="6.89961">
        <ele>1328.8</ele>
        <time>2022-07-19T09:52:06Z</time>
      </trkpt>
      <trkpt lat="44.28679" lon="6.89958">
        <ele>1328.8</ele>
        <time>2022-07-19T09:52:07Z</time>
      </trkpt>
      <trkpt lat="44.2868" lon="6.89955">
        <ele>1329.2</ele>
        <time>2022-07-19T09:52:08Z</time>
      </trkpt>
      <trkpt lat="44.2868" lon="6.89952">
        <ele>1329.2</ele>
        <time>2022-07-19T09:52:09Z</time>
      </trkpt>
      <trkpt lat="44.28681" lon="6.89948">
        <ele>1329.2</ele>
        <time>2022-07-19T09:52:10Z</time>
      </trkpt>
      <trkpt lat="44.28681" lon="6.89945">
        <ele>1329.4</ele>
        <time>2022-07-19T09:52:11Z</time>
      </trkpt>
      <trkpt lat="44.28682" lon="6.89941">
        <ele>1329.4</ele>
        <time>2022-07-19T09:52:12Z</time>
      </trkpt>
      <trkpt lat="44.28683" lon="6.89938">
        <ele>1329.8</ele>
        <time>2022-07-19T09:52:13Z</time>
      </trkpt>
      <trkpt lat="44.28684" lon="6.89935">
        <ele>1329.8</ele>
        <time>2022-07-19T09:52:14Z</time>
      </trkpt>
      <trkpt lat="44.28685" lon="6.89932">
        <ele>1330.2</ele>
        <time>2022-07-19T09:52:15Z</time>
      </trkpt>
      <trkpt lat="44.28686" lon="6.89929">
        <ele>1330.2</ele>
        <time>2022-07-19T09:52:16Z</time>
      </trkpt>
      <trkpt lat="44.28688" lon="6.89926">
        <ele>1330.4</ele>
        <time>2022-07-19T09:52:17Z</time>
      </trkpt>
      <trkpt lat="44.2869" lon="6.89924">
        <ele>1330.6</ele>
        <time>2022-07-19T09:52:18Z</time>
      </trkpt>
      <trkpt lat="44.28691" lon="6.89923">
        <ele>1330.6</ele>
        <time>2022-07-19T09:52:19Z</time>
      </trkpt>
      <trkpt lat="44.28694" lon="6.89923">
        <ele>1330.8</ele>
        <time>2022-07-19T09:52:20Z</time>
      </trkpt>
      <trkpt lat="44.28696" lon="6.89923">
        <ele>1330.8</ele>
        <time>2022-07-19T09:52:21Z</time>
      </trkpt>
      <trkpt lat="44.28698" lon="6.89923">
        <ele>1331.2</ele>
        <time>2022-07-19T09:52:22Z</time>
      </trkpt>
      <trkpt lat="44.287" lon="6.89923">
        <ele>1331.2</ele>
        <time>2022-07-19T09:52:23Z</time>
      </trkpt>
      <trkpt lat="44.28703" lon="6.89924">
        <ele>1331.2</ele>
        <time>2022-07-19T09:52:24Z</time>
      </trkpt>
      <trkpt lat="44.28706" lon="6.89925">
        <ele>1331.4</ele>
        <time>2022-07-19T09:52:25Z</time>
      </trkpt>
      <trkpt lat="44.28708" lon="6.89926">
        <ele>1331.4</ele>
        <time>2022-07-19T09:52:26Z</time>
      </trkpt>
      <trkpt lat="44.28711" lon="6.89928">
        <ele>1331.8</ele>
        <time>2022-07-19T09:52:27Z</time>
      </trkpt>
      <trkpt lat="44.28713" lon="6.8993">
        <ele>1331.8</ele>
        <time>2022-07-19T09:52:28Z</time>
      </trkpt>
      <trkpt lat="44.28715" lon="6.89933">
        <ele>1332</ele>
        <time>2022-07-19T09:52:29Z</time>
      </trkpt>
      <trkpt lat="44.28717" lon="6.89936">
        <ele>1332</ele>
        <time>2022-07-19T09:52:30Z</time>
      </trkpt>
      <trkpt lat="44.28719" lon="6.89938">
        <ele>1332.4</ele>
        <time>2022-07-19T09:52:31Z</time>
      </trkpt>
      <trkpt lat="44.28721" lon="6.89941">
        <ele>1332.6</ele>
        <time>2022-07-19T09:52:32Z</time>
      </trkpt>
      <trkpt lat="44.28723" lon="6.89943">
        <ele>1332.8</ele>
        <time>2022-07-19T09:52:33Z</time>
      </trkpt>
      <trkpt lat="44.28725" lon="6.89944">
        <ele>1333</ele>
        <time>2022-07-19T09:52:34Z</time>
      </trkpt>
      <trkpt lat="44.28728" lon="6.89945">
        <ele>1333.2</ele>
        <time>2022-07-19T09:52:35Z</time>
      </trkpt>
      <trkpt lat="44.2873" lon="6.89946">
        <ele>1333.6</ele>
        <time>2022-07-19T09:52:36Z</time>
      </trkpt>
      <trkpt lat="44.28733" lon="6.89947">
        <ele>1333.6</ele>
        <time>2022-07-19T09:52:37Z</time>
      </trkpt>
      <trkpt lat="44.28735" lon="6.89947">
        <ele>1333.8</ele>
        <time>2022-07-19T09:52:38Z</time>
      </trkpt>
      <trkpt lat="44.28738" lon="6.89948">
        <ele>1334</ele>
        <time>2022-07-19T09:52:39Z</time>
      </trkpt>
      <trkpt lat="44.28741" lon="6.89948">
        <ele>1334</ele>
        <time>2022-07-19T09:52:40Z</time>
      </trkpt>
      <trkpt lat="44.28743" lon="6.89948">
        <ele>1334.4</ele>
        <time>2022-07-19T09:52:41Z</time>
      </trkpt>
      <trkpt lat="44.28746" lon="6.89948">
        <ele>1334.4</ele>
        <time>2022-07-19T09:52:42Z</time>
      </trkpt>
      <trkpt lat="44.28748" lon="6.89948">
        <ele>1334.8</ele>
        <time>2022-07-19T09:52:43Z</time>
      </trkpt>
      <trkpt lat="44.2875" lon="6.89948">
        <ele>1335</ele>
        <time>2022-07-19T09:52:44Z</time>
      </trkpt>
      <trkpt lat="44.28753" lon="6.89948">
        <ele>1335</ele>
        <time>2022-07-19T09:52:45Z</time>
      </trkpt>
      <trkpt lat="44.28755" lon="6.89947">
        <ele>1335.2</ele>
        <time>2022-07-19T09:52:46Z</time>
      </trkpt>
      <trkpt lat="44.28757" lon="6.89947">
        <ele>1335.2</ele>
        <time>2022-07-19T09:52:47Z</time>
      </trkpt>
      <trkpt lat="44.28759" lon="6.89946">
        <ele>1335.6</ele>
        <time>2022-07-19T09:52:48Z</time>
      </trkpt>
      <trkpt lat="44.28761" lon="6.89945">
        <ele>1335.6</ele>
        <time>2022-07-19T09:52:49Z</time>
      </trkpt>
      <trkpt lat="44.28763" lon="6.89944">
        <ele>1335.8</ele>
        <time>2022-07-19T09:52:50Z</time>
      </trkpt>
      <trkpt lat="44.28765" lon="6.89943">
        <ele>1336</ele>
        <time>2022-07-19T09:52:51Z</time>
      </trkpt>
      <trkpt lat="44.28767" lon="6.89942">
        <ele>1336</ele>
        <time>2022-07-19T09:52:52Z</time>
      </trkpt>
      <trkpt lat="44.28769" lon="6.89941">
        <ele>1336.4</ele>
        <time>2022-07-19T09:52:53Z</time>
      </trkpt>
      <trkpt lat="44.28771" lon="6.89939">
        <ele>1336.4</ele>
        <time>2022-07-19T09:52:54Z</time>
      </trkpt>
      <trkpt lat="44.28774" lon="6.89938">
        <ele>1336.6</ele>
        <time>2022-07-19T09:52:55Z</time>
      </trkpt>
      <trkpt lat="44.28776" lon="6.89937">
        <ele>1336.6</ele>
        <time>2022-07-19T09:52:56Z</time>
      </trkpt>
      <trkpt lat="44.28778" lon="6.89935">
        <ele>1337</ele>
        <time>2022-07-19T09:52:57Z</time>
      </trkpt>
      <trkpt lat="44.2878" lon="6.89934">
        <ele>1337</ele>
        <time>2022-07-19T09:52:58Z</time>
      </trkpt>
      <trkpt lat="44.28781" lon="6.89933">
        <ele>1337.2</ele>
        <time>2022-07-19T09:52:59Z</time>
      </trkpt>
      <trkpt lat="44.28783" lon="6.89931">
        <ele>1337.2</ele>
        <time>2022-07-19T09:53:00Z</time>
      </trkpt>
      <trkpt lat="44.28785" lon="6.8993">
        <ele>1337.6</ele>
        <time>2022-07-19T09:53:01Z</time>
      </trkpt>
      <trkpt lat="44.28787" lon="6.89929">
        <ele>1337.6</ele>
        <time>2022-07-19T09:53:02Z</time>
      </trkpt>
      <trkpt lat="44.28789" lon="6.89928">
        <ele>1338</ele>
        <time>2022-07-19T09:53:03Z</time>
      </trkpt>
      <trkpt lat="44.28792" lon="6.89927">
        <ele>1338</ele>
        <time>2022-07-19T09:53:04Z</time>
      </trkpt>
      <trkpt lat="44.28794" lon="6.89927">
        <ele>1338.2</ele>
        <time>2022-07-19T09:53:05Z</time>
      </trkpt>
      <trkpt lat="44.28796" lon="6.89927">
        <ele>1338.6</ele>
        <time>2022-07-19T09:53:06Z</time>
      </trkpt>
      <trkpt lat="44.28798" lon="6.89928">
        <ele>1338.6</ele>
        <time>2022-07-19T09:53:07Z</time>
      </trkpt>
      <trkpt lat="44.288" lon="6.8993">
        <ele>1338.8</ele>
        <time>2022-07-19T09:53:08Z</time>
      </trkpt>
      <trkpt lat="44.28802" lon="6.89932">
        <ele>1338.8</ele>
        <time>2022-07-19T09:53:09Z</time>
      </trkpt>
      <trkpt lat="44.28803" lon="6.89935">
        <ele>1339.2</ele>
        <time>2022-07-19T09:53:10Z</time>
      </trkpt>
      <trkpt lat="44.28805" lon="6.89937">
        <ele>1339.2</ele>
        <time>2022-07-19T09:53:11Z</time>
      </trkpt>
      <trkpt lat="44.28806" lon="6.89939">
        <ele>1339.6</ele>
        <time>2022-07-19T09:53:12Z</time>
      </trkpt>
      <trkpt lat="44.28808" lon="6.89941">
        <ele>1339.6</ele>
        <time>2022-07-19T09:53:13Z</time>
      </trkpt>
      <trkpt lat="44.2881" lon="6.89943">
        <ele>1339.8</ele>
        <time>2022-07-19T09:53:14Z</time>
      </trkpt>
      <trkpt lat="44.28812" lon="6.89945">
        <ele>1339.8</ele>
        <time>2022-07-19T09:53:15Z</time>
      </trkpt>
      <trkpt lat="44.28814" lon="6.89946">
        <ele>1340.2</ele>
        <time>2022-07-19T09:53:16Z</time>
      </trkpt>
      <trkpt lat="44.28815" lon="6.89948">
        <ele>1340.2</ele>
        <time>2022-07-19T09:53:17Z</time>
      </trkpt>
      <trkpt lat="44.28817" lon="6.8995">
        <ele>1340.4</ele>
        <time>2022-07-19T09:53:18Z</time>
      </trkpt>
      <trkpt lat="44.28819" lon="6.89951">
        <ele>1340.4</ele>
        <time>2022-07-19T09:53:19Z</time>
      </trkpt>
      <trkpt lat="44.28821" lon="6.89952">
        <ele>1340.8</ele>
        <time>2022-07-19T09:53:20Z</time>
      </trkpt>
      <trkpt lat="44.28823" lon="6.89953">
        <ele>1340.8</ele>
        <time>2022-07-19T09:53:21Z</time>
      </trkpt>
      <trkpt lat="44.28825" lon="6.89954">
        <ele>1340.8</ele>
        <time>2022-07-19T09:53:22Z</time>
      </trkpt>
      <trkpt lat="44.28827" lon="6.89955">
        <ele>1341</ele>
        <time>2022-07-19T09:53:23Z</time>
      </trkpt>
      <trkpt lat="44.28829" lon="6.89956">
        <ele>1341</ele>
        <time>2022-07-19T09:53:24Z</time>
      </trkpt>
      <trkpt lat="44.28831" lon="6.89957">
        <ele>1341.2</ele>
        <time>2022-07-19T09:53:25Z</time>
      </trkpt>
      <trkpt lat="44.28833" lon="6.89959">
        <ele>1341.4</ele>
        <time>2022-07-19T09:53:26Z</time>
      </trkpt>
      <trkpt lat="44.28835" lon="6.8996">
        <ele>1341.4</ele>
        <time>2022-07-19T09:53:27Z</time>
      </trkpt>
      <trkpt lat="44.28837" lon="6.89961">
        <ele>1341.8</ele>
        <time>2022-07-19T09:53:28Z</time>
      </trkpt>
      <trkpt lat="44.28839" lon="6.89961">
        <ele>1341.8</ele>
        <time>2022-07-19T09:53:29Z</time>
      </trkpt>
      <trkpt lat="44.28841" lon="6.89962">
        <ele>1342</ele>
        <time>2022-07-19T09:53:30Z</time>
      </trkpt>
      <trkpt lat="44.28844" lon="6.89962">
        <ele>1342</ele>
        <time>2022-07-19T09:53:31Z</time>
      </trkpt>
      <trkpt lat="44.28846" lon="6.89963">
        <ele>1342.4</ele>
        <time>2022-07-19T09:53:32Z</time>
      </trkpt>
      <trkpt lat="44.28848" lon="6.89963">
        <ele>1342.6</ele>
        <time>2022-07-19T09:53:33Z</time>
      </trkpt>
      <trkpt lat="44.28851" lon="6.89963">
        <ele>1342.6</ele>
        <time>2022-07-19T09:53:34Z</time>
      </trkpt>
      <trkpt lat="44.28853" lon="6.89963">
        <ele>1343</ele>
        <time>2022-07-19T09:53:35Z</time>
      </trkpt>
      <trkpt lat="44.28855" lon="6.89962">
        <ele>1343</ele>
        <time>2022-07-19T09:53:36Z</time>
      </trkpt>
      <trkpt lat="44.28857" lon="6.89961">
        <ele>1343.2</ele>
        <time>2022-07-19T09:53:37Z</time>
      </trkpt>
      <trkpt lat="44.28859" lon="6.8996">
        <ele>1343.2</ele>
        <time>2022-07-19T09:53:38Z</time>
      </trkpt>
      <trkpt lat="44.28861" lon="6.89959">
        <ele>1343.6</ele>
        <time>2022-07-19T09:53:39Z</time>
      </trkpt>
      <trkpt lat="44.28863" lon="6.89958">
        <ele>1343.8</ele>
        <time>2022-07-19T09:53:40Z</time>
      </trkpt>
      <trkpt lat="44.28865" lon="6.89957">
        <ele>1343.8</ele>
        <time>2022-07-19T09:53:41Z</time>
      </trkpt>
      <trkpt lat="44.28866" lon="6.89956">
        <ele>1344.2</ele>
        <time>2022-07-19T09:53:42Z</time>
      </trkpt>
      <trkpt lat="44.28868" lon="6.89955">
        <ele>1344.2</ele>
        <time>2022-07-19T09:53:43Z</time>
      </trkpt>
      <trkpt lat="44.2887" lon="6.89954">
        <ele>1344.4</ele>
        <time>2022-07-19T09:53:44Z</time>
      </trkpt>
      <trkpt lat="44.28872" lon="6.89953">
        <ele>1344.8</ele>
        <time>2022-07-19T09:53:45Z</time>
      </trkpt>
      <trkpt lat="44.28874" lon="6.89952">
        <ele>1344.8</ele>
        <time>2022-07-19T09:53:46Z</time>
      </trkpt>
      <trkpt lat="44.28875" lon="6.8995">
        <ele>1345</ele>
        <time>2022-07-19T09:53:47Z</time>
      </trkpt>
      <trkpt lat="44.28876" lon="6.89949">
        <ele>1345.2</ele>
        <time>2022-07-19T09:53:48Z</time>
      </trkpt>
      <trkpt lat="44.28878" lon="6.89947">
        <ele>1345.2</ele>
        <time>2022-07-19T09:53:49Z</time>
      </trkpt>
      <trkpt lat="44.2888" lon="6.89945">
        <ele>1345.4</ele>
        <time>2022-07-19T09:53:50Z</time>
      </trkpt>
      <trkpt lat="44.28881" lon="6.89943">
        <ele>1345.8</ele>
        <time>2022-07-19T09:53:51Z</time>
      </trkpt>
      <trkpt lat="44.28883" lon="6.89943">
        <ele>1345.8</ele>
        <time>2022-07-19T09:53:52Z</time>
      </trkpt>
      <trkpt lat="44.28885" lon="6.89942">
        <ele>1346</ele>
        <time>2022-07-19T09:53:53Z</time>
      </trkpt>
      <trkpt lat="44.28887" lon="6.89941">
        <ele>1346</ele>
        <time>2022-07-19T09:53:54Z</time>
      </trkpt>
      <trkpt lat="44.28889" lon="6.89941">
        <ele>1346.4</ele>
        <time>2022-07-19T09:53:55Z</time>
      </trkpt>
      <trkpt lat="44.28891" lon="6.89941">
        <ele>1346.4</ele>
        <time>2022-07-19T09:53:56Z</time>
      </trkpt>
      <trkpt lat="44.28893" lon="6.89942">
        <ele>1346.6</ele>
        <time>2022-07-19T09:53:57Z</time>
      </trkpt>
      <trkpt lat="44.28896" lon="6.89943">
        <ele>1346.6</ele>
        <time>2022-07-19T09:53:58Z</time>
      </trkpt>
      <trkpt lat="44.28898" lon="6.89945">
        <ele>1346.8</ele>
        <time>2022-07-19T09:53:59Z</time>
      </trkpt>
      <trkpt lat="44.28899" lon="6.89946">
        <ele>1346.8</ele>
        <time>2022-07-19T09:54:00Z</time>
      </trkpt>
      <trkpt lat="44.28901" lon="6.89947">
        <ele>1347.2</ele>
        <time>2022-07-19T09:54:01Z</time>
      </trkpt>
      <trkpt lat="44.28904" lon="6.89948">
        <ele>1347.2</ele>
        <time>2022-07-19T09:54:02Z</time>
      </trkpt>
      <trkpt lat="44.28906" lon="6.8995">
        <ele>1347.4</ele>
        <time>2022-07-19T09:54:03Z</time>
      </trkpt>
      <trkpt lat="44.28908" lon="6.89952">
        <ele>1347.4</ele>
        <time>2022-07-19T09:54:04Z</time>
      </trkpt>
      <trkpt lat="44.2891" lon="6.89954">
        <ele>1347.8</ele>
        <time>2022-07-19T09:54:05Z</time>
      </trkpt>
      <trkpt lat="44.28911" lon="6.89956">
        <ele>1347.8</ele>
        <time>2022-07-19T09:54:06Z</time>
      </trkpt>
      <trkpt lat="44.28913" lon="6.89958">
        <ele>1348</ele>
        <time>2022-07-19T09:54:07Z</time>
      </trkpt>
      <trkpt lat="44.28915" lon="6.89959">
        <ele>1348</ele>
        <time>2022-07-19T09:54:08Z</time>
      </trkpt>
      <trkpt lat="44.28917" lon="6.8996">
        <ele>1348.2</ele>
        <time>2022-07-19T09:54:09Z</time>
      </trkpt>
      <trkpt lat="44.28919" lon="6.89961">
        <ele>1348.2</ele>
        <time>2022-07-19T09:54:10Z</time>
      </trkpt>
      <trkpt lat="44.28922" lon="6.89961">
        <ele>1348.6</ele>
        <time>2022-07-19T09:54:11Z</time>
      </trkpt>
      <trkpt lat="44.28924" lon="6.89961">
        <ele>1348.6</ele>
        <time>2022-07-19T09:54:12Z</time>
      </trkpt>
      <trkpt lat="44.28927" lon="6.89961">
        <ele>1349</ele>
        <time>2022-07-19T09:54:13Z</time>
      </trkpt>
      <trkpt lat="44.28929" lon="6.89962">
        <ele>1349</ele>
        <time>2022-07-19T09:54:14Z</time>
      </trkpt>
      <trkpt lat="44.28932" lon="6.89963">
        <ele>1349.2</ele>
        <time>2022-07-19T09:54:15Z</time>
      </trkpt>
      <trkpt lat="44.28934" lon="6.89963">
        <ele>1349.2</ele>
        <time>2022-07-19T09:54:16Z</time>
      </trkpt>
      <trkpt lat="44.28936" lon="6.89964">
        <ele>1349.6</ele>
        <time>2022-07-19T09:54:17Z</time>
      </trkpt>
      <trkpt lat="44.28938" lon="6.89964">
        <ele>1349.6</ele>
        <time>2022-07-19T09:54:18Z</time>
      </trkpt>
      <trkpt lat="44.28939" lon="6.89966">
        <ele>1350</ele>
        <time>2022-07-19T09:54:19Z</time>
      </trkpt>
      <trkpt lat="44.28941" lon="6.89968">
        <ele>1350</ele>
        <time>2022-07-19T09:54:20Z</time>
      </trkpt>
      <trkpt lat="44.28942" lon="6.8997">
        <ele>1350.4</ele>
        <time>2022-07-19T09:54:21Z</time>
      </trkpt>
      <trkpt lat="44.28944" lon="6.89971">
        <ele>1350.4</ele>
        <time>2022-07-19T09:54:22Z</time>
      </trkpt>
      <trkpt lat="44.28946" lon="6.89972">
        <ele>1350.6</ele>
        <time>2022-07-19T09:54:23Z</time>
      </trkpt>
      <trkpt lat="44.28948" lon="6.89974">
        <ele>1350.6</ele>
        <time>2022-07-19T09:54:24Z</time>
      </trkpt>
      <trkpt lat="44.28949" lon="6.89976">
        <ele>1351</ele>
        <time>2022-07-19T09:54:25Z</time>
      </trkpt>
      <trkpt lat="44.28951" lon="6.89976">
        <ele>1351</ele>
        <time>2022-07-19T09:54:26Z</time>
      </trkpt>
      <trkpt lat="44.28953" lon="6.89977">
        <ele>1351.4</ele>
        <time>2022-07-19T09:54:27Z</time>
      </trkpt>
      <trkpt lat="44.28955" lon="6.89978">
        <ele>1351.4</ele>
        <time>2022-07-19T09:54:28Z</time>
      </trkpt>
      <trkpt lat="44.28957" lon="6.89979">
        <ele>1351.6</ele>
        <time>2022-07-19T09:54:29Z</time>
      </trkpt>
      <trkpt lat="44.28959" lon="6.8998">
        <ele>1351.6</ele>
        <time>2022-07-19T09:54:30Z</time>
      </trkpt>
      <trkpt lat="44.28961" lon="6.8998">
        <ele>1351.8</ele>
        <time>2022-07-19T09:54:31Z</time>
      </trkpt>
      <trkpt lat="44.28963" lon="6.89981">
        <ele>1351.8</ele>
        <time>2022-07-19T09:54:32Z</time>
      </trkpt>
      <trkpt lat="44.28965" lon="6.89983">
        <ele>1352.2</ele>
        <time>2022-07-19T09:54:33Z</time>
      </trkpt>
      <trkpt lat="44.28967" lon="6.89986">
        <ele>1352.2</ele>
        <time>2022-07-19T09:54:34Z</time>
      </trkpt>
      <trkpt lat="44.28968" lon="6.89988">
        <ele>1352.4</ele>
        <time>2022-07-19T09:54:35Z</time>
      </trkpt>
      <trkpt lat="44.2897" lon="6.8999">
        <ele>1352.6</ele>
        <time>2022-07-19T09:54:36Z</time>
      </trkpt>
      <trkpt lat="44.28972" lon="6.89993">
        <ele>1352.8</ele>
        <time>2022-07-19T09:54:37Z</time>
      </trkpt>
      <trkpt lat="44.28974" lon="6.89995">
        <ele>1352.8</ele>
        <time>2022-07-19T09:54:38Z</time>
      </trkpt>
      <trkpt lat="44.28976" lon="6.89996">
        <ele>1353.4</ele>
        <time>2022-07-19T09:54:39Z</time>
      </trkpt>
      <trkpt lat="44.28978" lon="6.89997">
        <ele>1353.6</ele>
        <time>2022-07-19T09:54:40Z</time>
      </trkpt>
      <trkpt lat="44.2898" lon="6.89999">
        <ele>1353.8</ele>
        <time>2022-07-19T09:54:41Z</time>
      </trkpt>
      <trkpt lat="44.28982" lon="6.9">
        <ele>1354</ele>
        <time>2022-07-19T09:54:42Z</time>
      </trkpt>
      <trkpt lat="44.28984" lon="6.90001">
        <ele>1354</ele>
        <time>2022-07-19T09:54:43Z</time>
      </trkpt>
      <trkpt lat="44.28986" lon="6.90002">
        <ele>1354.4</ele>
        <time>2022-07-19T09:54:44Z</time>
      </trkpt>
      <trkpt lat="44.28988" lon="6.90003">
        <ele>1354.4</ele>
        <time>2022-07-19T09:54:45Z</time>
      </trkpt>
      <trkpt lat="44.2899" lon="6.90003">
        <ele>1354.8</ele>
        <time>2022-07-19T09:54:46Z</time>
      </trkpt>
      <trkpt lat="44.28992" lon="6.90004">
        <ele>1354.8</ele>
        <time>2022-07-19T09:54:47Z</time>
      </trkpt>
      <trkpt lat="44.28994" lon="6.90004">
        <ele>1355</ele>
        <time>2022-07-19T09:54:48Z</time>
      </trkpt>
      <trkpt lat="44.28996" lon="6.90004">
        <ele>1355</ele>
        <time>2022-07-19T09:54:49Z</time>
      </trkpt>
      <trkpt lat="44.28997" lon="6.90005">
        <ele>1355.2</ele>
        <time>2022-07-19T09:54:50Z</time>
      </trkpt>
      <trkpt lat="44.28999" lon="6.90004">
        <ele>1355.2</ele>
        <time>2022-07-19T09:54:51Z</time>
      </trkpt>
      <trkpt lat="44.29" lon="6.90004">
        <ele>1355.6</ele>
        <time>2022-07-19T09:54:52Z</time>
      </trkpt>
      <trkpt lat="44.29003" lon="6.90003">
        <ele>1355.6</ele>
        <time>2022-07-19T09:54:53Z</time>
      </trkpt>
      <trkpt lat="44.29005" lon="6.90003">
        <ele>1356</ele>
        <time>2022-07-19T09:54:54Z</time>
      </trkpt>
      <trkpt lat="44.29007" lon="6.90002">
        <ele>1356</ele>
        <time>2022-07-19T09:54:55Z</time>
      </trkpt>
      <trkpt lat="44.29009" lon="6.90001">
        <ele>1356.2</ele>
        <time>2022-07-19T09:54:56Z</time>
      </trkpt>
      <trkpt lat="44.29012" lon="6.90001">
        <ele>1356.2</ele>
        <time>2022-07-19T09:54:57Z</time>
      </trkpt>
      <trkpt lat="44.29014" lon="6.9">
        <ele>1356.4</ele>
        <time>2022-07-19T09:54:58Z</time>
      </trkpt>
      <trkpt lat="44.29017" lon="6.89999">
        <ele>1356.4</ele>
        <time>2022-07-19T09:54:59Z</time>
      </trkpt>
      <trkpt lat="44.29019" lon="6.89998">
        <ele>1356.8</ele>
        <time>2022-07-19T09:55:00Z</time>
      </trkpt>
      <trkpt lat="44.29021" lon="6.89997">
        <ele>1357</ele>
        <time>2022-07-19T09:55:01Z</time>
      </trkpt>
      <trkpt lat="44.29024" lon="6.89996">
        <ele>1357</ele>
        <time>2022-07-19T09:55:02Z</time>
      </trkpt>
      <trkpt lat="44.29026" lon="6.89995">
        <ele>1357.4</ele>
        <time>2022-07-19T09:55:03Z</time>
      </trkpt>
      <trkpt lat="44.29028" lon="6.89994">
        <ele>1357.4</ele>
        <time>2022-07-19T09:55:04Z</time>
      </trkpt>
      <trkpt lat="44.2903" lon="6.89993">
        <ele>1357.6</ele>
        <time>2022-07-19T09:55:05Z</time>
      </trkpt>
      <trkpt lat="44.29032" lon="6.89992">
        <ele>1357.8</ele>
        <time>2022-07-19T09:55:06Z</time>
      </trkpt>
      <trkpt lat="44.29035" lon="6.89991">
        <ele>1357.8</ele>
        <time>2022-07-19T09:55:07Z</time>
      </trkpt>
      <trkpt lat="44.29037" lon="6.8999">
        <ele>1358.2</ele>
        <time>2022-07-19T09:55:08Z</time>
      </trkpt>
      <trkpt lat="44.29039" lon="6.89989">
        <ele>1358.2</ele>
        <time>2022-07-19T09:55:09Z</time>
      </trkpt>
      <trkpt lat="44.29041" lon="6.89988">
        <ele>1358.4</ele>
        <time>2022-07-19T09:55:10Z</time>
      </trkpt>
      <trkpt lat="44.29043" lon="6.89987">
        <ele>1358.4</ele>
        <time>2022-07-19T09:55:11Z</time>
      </trkpt>
      <trkpt lat="44.29046" lon="6.89986">
        <ele>1358.8</ele>
        <time>2022-07-19T09:55:12Z</time>
      </trkpt>
      <trkpt lat="44.29048" lon="6.89985">
        <ele>1358.8</ele>
        <time>2022-07-19T09:55:13Z</time>
      </trkpt>
      <trkpt lat="44.29049" lon="6.89985">
        <ele>1359</ele>
        <time>2022-07-19T09:55:14Z</time>
      </trkpt>
      <trkpt lat="44.29051" lon="6.89986">
        <ele>1359</ele>
        <time>2022-07-19T09:55:15Z</time>
      </trkpt>
      <trkpt lat="44.29053" lon="6.89986">
        <ele>1359</ele>
        <time>2022-07-19T09:55:16Z</time>
      </trkpt>
      <trkpt lat="44.29056" lon="6.89986">
        <ele>1359.2</ele>
        <time>2022-07-19T09:55:17Z</time>
      </trkpt>
      <trkpt lat="44.29058" lon="6.89986">
        <ele>1359.2</ele>
        <time>2022-07-19T09:55:18Z</time>
      </trkpt>
      <trkpt lat="44.2906" lon="6.89987">
        <ele>1359.6</ele>
        <time>2022-07-19T09:55:19Z</time>
      </trkpt>
      <trkpt lat="44.29063" lon="6.89989">
        <ele>1359.6</ele>
        <time>2022-07-19T09:55:20Z</time>
      </trkpt>
      <trkpt lat="44.29064" lon="6.89991">
        <ele>1360</ele>
        <time>2022-07-19T09:55:22Z</time>
      </trkpt>
      <trkpt lat="44.29066" lon="6.89992">
        <ele>1360.4</ele>
        <time>2022-07-19T09:55:23Z</time>
      </trkpt>
      <trkpt lat="44.29068" lon="6.89994">
        <ele>1360.4</ele>
        <time>2022-07-19T09:55:24Z</time>
      </trkpt>
      <trkpt lat="44.2907" lon="6.89996">
        <ele>1360.6</ele>
        <time>2022-07-19T09:55:25Z</time>
      </trkpt>
      <trkpt lat="44.29072" lon="6.89998">
        <ele>1360.6</ele>
        <time>2022-07-19T09:55:26Z</time>
      </trkpt>
      <trkpt lat="44.29073" lon="6.9">
        <ele>1360.8</ele>
        <time>2022-07-19T09:55:27Z</time>
      </trkpt>
      <trkpt lat="44.29074" lon="6.90002">
        <ele>1360.8</ele>
        <time>2022-07-19T09:55:28Z</time>
      </trkpt>
      <trkpt lat="44.29075" lon="6.90006">
        <ele>1361.2</ele>
        <time>2022-07-19T09:55:29Z</time>
      </trkpt>
      <trkpt lat="44.29075" lon="6.90011">
        <ele>1361.2</ele>
        <time>2022-07-19T09:55:30Z</time>
      </trkpt>
      <trkpt lat="44.29076" lon="6.90015">
        <ele>1361.6</ele>
        <time>2022-07-19T09:55:31Z</time>
      </trkpt>
      <trkpt lat="44.29076" lon="6.90018">
        <ele>1361.6</ele>
        <time>2022-07-19T09:55:32Z</time>
      </trkpt>
      <trkpt lat="44.29075" lon="6.90021">
        <ele>1361.8</ele>
        <time>2022-07-19T09:55:33Z</time>
      </trkpt>
      <trkpt lat="44.29076" lon="6.90024">
        <ele>1361.8</ele>
        <time>2022-07-19T09:55:34Z</time>
      </trkpt>
      <trkpt lat="44.29076" lon="6.90027">
        <ele>1362.2</ele>
        <time>2022-07-19T09:55:35Z</time>
      </trkpt>
      <trkpt lat="44.29076" lon="6.9003">
        <ele>1362.2</ele>
        <time>2022-07-19T09:55:36Z</time>
      </trkpt>
      <trkpt lat="44.29076" lon="6.90033">
        <ele>1362.4</ele>
        <time>2022-07-19T09:55:37Z</time>
      </trkpt>
      <trkpt lat="44.29076" lon="6.90036">
        <ele>1362.4</ele>
        <time>2022-07-19T09:55:38Z</time>
      </trkpt>
      <trkpt lat="44.29076" lon="6.90039">
        <ele>1362.8</ele>
        <time>2022-07-19T09:55:39Z</time>
      </trkpt>
      <trkpt lat="44.29076" lon="6.90042">
        <ele>1362.8</ele>
        <time>2022-07-19T09:55:40Z</time>
      </trkpt>
      <trkpt lat="44.29077" lon="6.90045">
        <ele>1363</ele>
        <time>2022-07-19T09:55:41Z</time>
      </trkpt>
      <trkpt lat="44.29077" lon="6.90048">
        <ele>1363.2</ele>
        <time>2022-07-19T09:55:42Z</time>
      </trkpt>
      <trkpt lat="44.29078" lon="6.90051">
        <ele>1363.2</ele>
        <time>2022-07-19T09:55:43Z</time>
      </trkpt>
      <trkpt lat="44.29078" lon="6.90055">
        <ele>1363.6</ele>
        <time>2022-07-19T09:55:44Z</time>
      </trkpt>
      <trkpt lat="44.29079" lon="6.90057">
        <ele>1363.6</ele>
        <time>2022-07-19T09:55:45Z</time>
      </trkpt>
      <trkpt lat="44.2908" lon="6.9006">
        <ele>1363.8</ele>
        <time>2022-07-19T09:55:46Z</time>
      </trkpt>
      <trkpt lat="44.29082" lon="6.90062">
        <ele>1363.8</ele>
        <time>2022-07-19T09:55:47Z</time>
      </trkpt>
      <trkpt lat="44.29083" lon="6.90065">
        <ele>1363.8</ele>
        <time>2022-07-19T09:55:48Z</time>
      </trkpt>
      <trkpt lat="44.29084" lon="6.90067">
        <ele>1364.2</ele>
        <time>2022-07-19T09:55:49Z</time>
      </trkpt>
      <trkpt lat="44.29086" lon="6.9007">
        <ele>1364.2</ele>
        <time>2022-07-19T09:55:50Z</time>
      </trkpt>
      <trkpt lat="44.29087" lon="6.90072">
        <ele>1364.2</ele>
        <time>2022-07-19T09:55:51Z</time>
      </trkpt>
      <trkpt lat="44.29089" lon="6.90074">
        <ele>1364.4</ele>
        <time>2022-07-19T09:55:52Z</time>
      </trkpt>
      <trkpt lat="44.29091" lon="6.90076">
        <ele>1364.4</ele>
        <time>2022-07-19T09:55:53Z</time>
      </trkpt>
      <trkpt lat="44.29093" lon="6.90078">
        <ele>1364.6</ele>
        <time>2022-07-19T09:55:54Z</time>
      </trkpt>
      <trkpt lat="44.29095" lon="6.90081">
        <ele>1364.8</ele>
        <time>2022-07-19T09:55:55Z</time>
      </trkpt>
      <trkpt lat="44.29097" lon="6.90083">
        <ele>1364.8</ele>
        <time>2022-07-19T09:55:56Z</time>
      </trkpt>
      <trkpt lat="44.29098" lon="6.90085">
        <ele>1365</ele>
        <time>2022-07-19T09:55:57Z</time>
      </trkpt>
      <trkpt lat="44.291" lon="6.90087">
        <ele>1365</ele>
        <time>2022-07-19T09:55:58Z</time>
      </trkpt>
      <trkpt lat="44.29102" lon="6.90089">
        <ele>1365</ele>
        <time>2022-07-19T09:55:59Z</time>
      </trkpt>
      <trkpt lat="44.29104" lon="6.90091">
        <ele>1365.4</ele>
        <time>2022-07-19T09:56:00Z</time>
      </trkpt>
      <trkpt lat="44.29105" lon="6.90093">
        <ele>1365.4</ele>
        <time>2022-07-19T09:56:01Z</time>
      </trkpt>
      <trkpt lat="44.29107" lon="6.90094">
        <ele>1365.6</ele>
        <time>2022-07-19T09:56:02Z</time>
      </trkpt>
      <trkpt lat="44.29109" lon="6.90096">
        <ele>1365.6</ele>
        <time>2022-07-19T09:56:03Z</time>
      </trkpt>
      <trkpt lat="44.29111" lon="6.90098">
        <ele>1365.6</ele>
        <time>2022-07-19T09:56:04Z</time>
      </trkpt>
      <trkpt lat="44.29113" lon="6.90099">
        <ele>1365.8</ele>
        <time>2022-07-19T09:56:05Z</time>
      </trkpt>
      <trkpt lat="44.29115" lon="6.90101">
        <ele>1365.8</ele>
        <time>2022-07-19T09:56:06Z</time>
      </trkpt>
      <trkpt lat="44.29117" lon="6.90102">
        <ele>1366.2</ele>
        <time>2022-07-19T09:56:07Z</time>
      </trkpt>
      <trkpt lat="44.29119" lon="6.90104">
        <ele>1366.2</ele>
        <time>2022-07-19T09:56:08Z</time>
      </trkpt>
      <trkpt lat="44.29122" lon="6.90106">
        <ele>1366.6</ele>
        <time>2022-07-19T09:56:09Z</time>
      </trkpt>
      <trkpt lat="44.29124" lon="6.90106">
        <ele>1366.6</ele>
        <time>2022-07-19T09:56:10Z</time>
      </trkpt>
      <trkpt lat="44.29126" lon="6.90107">
        <ele>1366.8</ele>
        <time>2022-07-19T09:56:11Z</time>
      </trkpt>
      <trkpt lat="44.29128" lon="6.90108">
        <ele>1366.8</ele>
        <time>2022-07-19T09:56:12Z</time>
      </trkpt>
      <trkpt lat="44.2913" lon="6.90109">
        <ele>1367.2</ele>
        <time>2022-07-19T09:56:13Z</time>
      </trkpt>
      <trkpt lat="44.29131" lon="6.9011">
        <ele>1367.2</ele>
        <time>2022-07-19T09:56:14Z</time>
      </trkpt>
      <trkpt lat="44.29133" lon="6.90111">
        <ele>1367.4</ele>
        <time>2022-07-19T09:56:15Z</time>
      </trkpt>
      <trkpt lat="44.29135" lon="6.90112">
        <ele>1367.4</ele>
        <time>2022-07-19T09:56:16Z</time>
      </trkpt>
      <trkpt lat="44.29137" lon="6.90112">
        <ele>1367.6</ele>
        <time>2022-07-19T09:56:17Z</time>
      </trkpt>
      <trkpt lat="44.29139" lon="6.90113">
        <ele>1367.6</ele>
        <time>2022-07-19T09:56:18Z</time>
      </trkpt>
      <trkpt lat="44.29141" lon="6.90113">
        <ele>1368</ele>
        <time>2022-07-19T09:56:19Z</time>
      </trkpt>
      <trkpt lat="44.29142" lon="6.90113">
        <ele>1368</ele>
        <time>2022-07-19T09:56:20Z</time>
      </trkpt>
      <trkpt lat="44.29145" lon="6.90113">
        <ele>1368.2</ele>
        <time>2022-07-19T09:56:21Z</time>
      </trkpt>
      <trkpt lat="44.29146" lon="6.90114">
        <ele>1368.2</ele>
        <time>2022-07-19T09:56:22Z</time>
      </trkpt>
      <trkpt lat="44.29149" lon="6.90114">
        <ele>1368.4</ele>
        <time>2022-07-19T09:56:23Z</time>
      </trkpt>
      <trkpt lat="44.29151" lon="6.90114">
        <ele>1368.4</ele>
        <time>2022-07-19T09:56:24Z</time>
      </trkpt>
      <trkpt lat="44.29154" lon="6.90114">
        <ele>1368.4</ele>
        <time>2022-07-19T09:56:25Z</time>
      </trkpt>
      <trkpt lat="44.29156" lon="6.90113">
        <ele>1368.6</ele>
        <time>2022-07-19T09:56:26Z</time>
      </trkpt>
      <trkpt lat="44.29159" lon="6.90113">
        <ele>1368.6</ele>
        <time>2022-07-19T09:56:27Z</time>
      </trkpt>
      <trkpt lat="44.29161" lon="6.90113">
        <ele>1368.8</ele>
        <time>2022-07-19T09:56:28Z</time>
      </trkpt>
      <trkpt lat="44.29163" lon="6.90113">
        <ele>1368.8</ele>
        <time>2022-07-19T09:56:29Z</time>
      </trkpt>
      <trkpt lat="44.29165" lon="6.90112">
        <ele>1369.2</ele>
        <time>2022-07-19T09:56:30Z</time>
      </trkpt>
      <trkpt lat="44.29168" lon="6.90112">
        <ele>1369.2</ele>
        <time>2022-07-19T09:56:31Z</time>
      </trkpt>
      <trkpt lat="44.2917" lon="6.90112">
        <ele>1369.6</ele>
        <time>2022-07-19T09:56:32Z</time>
      </trkpt>
      <trkpt lat="44.29172" lon="6.90111">
        <ele>1369.6</ele>
        <time>2022-07-19T09:56:33Z</time>
      </trkpt>
      <trkpt lat="44.29174" lon="6.9011">
        <ele>1369.8</ele>
        <time>2022-07-19T09:56:34Z</time>
      </trkpt>
      <trkpt lat="44.29176" lon="6.90109">
        <ele>1369.8</ele>
        <time>2022-07-19T09:56:35Z</time>
      </trkpt>
      <trkpt lat="44.29178" lon="6.90108">
        <ele>1370</ele>
        <time>2022-07-19T09:56:36Z</time>
      </trkpt>
      <trkpt lat="44.2918" lon="6.90108">
        <ele>1370</ele>
        <time>2022-07-19T09:56:37Z</time>
      </trkpt>
      <trkpt lat="44.29183" lon="6.90108">
        <ele>1370.4</ele>
        <time>2022-07-19T09:56:38Z</time>
      </trkpt>
      <trkpt lat="44.29185" lon="6.90107">
        <ele>1370.4</ele>
        <time>2022-07-19T09:56:39Z</time>
      </trkpt>
      <trkpt lat="44.29188" lon="6.90107">
        <ele>1370.6</ele>
        <time>2022-07-19T09:56:40Z</time>
      </trkpt>
      <trkpt lat="44.2919" lon="6.90107">
        <ele>1370.6</ele>
        <time>2022-07-19T09:56:41Z</time>
      </trkpt>
      <trkpt lat="44.29192" lon="6.90106">
        <ele>1371</ele>
        <time>2022-07-19T09:56:42Z</time>
      </trkpt>
      <trkpt lat="44.29194" lon="6.90106">
        <ele>1371</ele>
        <time>2022-07-19T09:56:43Z</time>
      </trkpt>
      <trkpt lat="44.29196" lon="6.90105">
        <ele>1371.4</ele>
        <time>2022-07-19T09:56:44Z</time>
      </trkpt>
      <trkpt lat="44.29197" lon="6.90104">
        <ele>1371.4</ele>
        <time>2022-07-19T09:56:45Z</time>
      </trkpt>
      <trkpt lat="44.29199" lon="6.90104">
        <ele>1371.6</ele>
        <time>2022-07-19T09:56:46Z</time>
      </trkpt>
      <trkpt lat="44.29202" lon="6.90103">
        <ele>1371.6</ele>
        <time>2022-07-19T09:56:47Z</time>
      </trkpt>
      <trkpt lat="44.29204" lon="6.90103">
        <ele>1372</ele>
        <time>2022-07-19T09:56:48Z</time>
      </trkpt>
      <trkpt lat="44.29206" lon="6.90103">
        <ele>1372</ele>
        <time>2022-07-19T09:56:49Z</time>
      </trkpt>
      <trkpt lat="44.29208" lon="6.90103">
        <ele>1372.4</ele>
        <time>2022-07-19T09:56:50Z</time>
      </trkpt>
      <trkpt lat="44.2921" lon="6.90103">
        <ele>1372.4</ele>
        <time>2022-07-19T09:56:51Z</time>
      </trkpt>
      <trkpt lat="44.29212" lon="6.90103">
        <ele>1372.6</ele>
        <time>2022-07-19T09:56:52Z</time>
      </trkpt>
      <trkpt lat="44.29214" lon="6.90104">
        <ele>1372.8</ele>
        <time>2022-07-19T09:56:53Z</time>
      </trkpt>
      <trkpt lat="44.29215" lon="6.90105">
        <ele>1372.8</ele>
        <time>2022-07-19T09:56:54Z</time>
      </trkpt>
      <trkpt lat="44.29217" lon="6.90106">
        <ele>1373.2</ele>
        <time>2022-07-19T09:56:55Z</time>
      </trkpt>
      <trkpt lat="44.29219" lon="6.90107">
        <ele>1373.2</ele>
        <time>2022-07-19T09:56:56Z</time>
      </trkpt>
      <trkpt lat="44.29221" lon="6.90109">
        <ele>1373.4</ele>
        <time>2022-07-19T09:56:57Z</time>
      </trkpt>
      <trkpt lat="44.29222" lon="6.90111">
        <ele>1373.4</ele>
        <time>2022-07-19T09:56:58Z</time>
      </trkpt>
      <trkpt lat="44.29224" lon="6.90114">
        <ele>1373.6</ele>
        <time>2022-07-19T09:56:59Z</time>
      </trkpt>
      <trkpt lat="44.29225" lon="6.90116">
        <ele>1373.6</ele>
        <time>2022-07-19T09:57:00Z</time>
      </trkpt>
      <trkpt lat="44.29226" lon="6.90119">
        <ele>1374</ele>
        <time>2022-07-19T09:57:01Z</time>
      </trkpt>
      <trkpt lat="44.29227" lon="6.90122">
        <ele>1374</ele>
        <time>2022-07-19T09:57:02Z</time>
      </trkpt>
      <trkpt lat="44.29228" lon="6.90124">
        <ele>1374.2</ele>
        <time>2022-07-19T09:57:03Z</time>
      </trkpt>
      <trkpt lat="44.29229" lon="6.90126">
        <ele>1374.2</ele>
        <time>2022-07-19T09:57:04Z</time>
      </trkpt>
      <trkpt lat="44.29231" lon="6.90129">
        <ele>1374.4</ele>
        <time>2022-07-19T09:57:05Z</time>
      </trkpt>
      <trkpt lat="44.29233" lon="6.9013">
        <ele>1374.4</ele>
        <time>2022-07-19T09:57:06Z</time>
      </trkpt>
      <trkpt lat="44.29235" lon="6.90132">
        <ele>1374.8</ele>
        <time>2022-07-19T09:57:07Z</time>
      </trkpt>
      <trkpt lat="44.29237" lon="6.90133">
        <ele>1374.8</ele>
        <time>2022-07-19T09:57:08Z</time>
      </trkpt>
      <trkpt lat="44.29239" lon="6.90133">
        <ele>1375</ele>
        <time>2022-07-19T09:57:09Z</time>
      </trkpt>
      <trkpt lat="44.29241" lon="6.90133">
        <ele>1375</ele>
        <time>2022-07-19T09:57:10Z</time>
      </trkpt>
      <trkpt lat="44.29243" lon="6.90133">
        <ele>1375.2</ele>
        <time>2022-07-19T09:57:11Z</time>
      </trkpt>
      <trkpt lat="44.29246" lon="6.90133">
        <ele>1375.2</ele>
        <time>2022-07-19T09:57:12Z</time>
      </trkpt>
      <trkpt lat="44.29248" lon="6.90133">
        <ele>1375.4</ele>
        <time>2022-07-19T09:57:13Z</time>
      </trkpt>
      <trkpt lat="44.2925" lon="6.90132">
        <ele>1375.4</ele>
        <time>2022-07-19T09:57:14Z</time>
      </trkpt>
      <trkpt lat="44.29252" lon="6.90132">
        <ele>1375.6</ele>
        <time>2022-07-19T09:57:15Z</time>
      </trkpt>
      <trkpt lat="44.29254" lon="6.90132">
        <ele>1375.6</ele>
        <time>2022-07-19T09:57:16Z</time>
      </trkpt>
      <trkpt lat="44.29257" lon="6.90132">
        <ele>1376</ele>
        <time>2022-07-19T09:57:17Z</time>
      </trkpt>
      <trkpt lat="44.29259" lon="6.90133">
        <ele>1376</ele>
        <time>2022-07-19T09:57:18Z</time>
      </trkpt>
      <trkpt lat="44.29261" lon="6.90134">
        <ele>1376</ele>
        <time>2022-07-19T09:57:19Z</time>
      </trkpt>
      <trkpt lat="44.29263" lon="6.90135">
        <ele>1376.2</ele>
        <time>2022-07-19T09:57:20Z</time>
      </trkpt>
      <trkpt lat="44.29265" lon="6.90136">
        <ele>1376.2</ele>
        <time>2022-07-19T09:57:21Z</time>
      </trkpt>
      <trkpt lat="44.29267" lon="6.90137">
        <ele>1376.6</ele>
        <time>2022-07-19T09:57:22Z</time>
      </trkpt>
      <trkpt lat="44.29269" lon="6.90137">
        <ele>1376.6</ele>
        <time>2022-07-19T09:57:23Z</time>
      </trkpt>
      <trkpt lat="44.29271" lon="6.90138">
        <ele>1376.8</ele>
        <time>2022-07-19T09:57:24Z</time>
      </trkpt>
      <trkpt lat="44.29273" lon="6.90139">
        <ele>1376.8</ele>
        <time>2022-07-19T09:57:25Z</time>
      </trkpt>
      <trkpt lat="44.29275" lon="6.9014">
        <ele>1377</ele>
        <time>2022-07-19T09:57:26Z</time>
      </trkpt>
      <trkpt lat="44.29277" lon="6.90141">
        <ele>1377</ele>
        <time>2022-07-19T09:57:27Z</time>
      </trkpt>
      <trkpt lat="44.29279" lon="6.90142">
        <ele>1377.2</ele>
        <time>2022-07-19T09:57:28Z</time>
      </trkpt>
      <trkpt lat="44.29281" lon="6.90143">
        <ele>1377.2</ele>
        <time>2022-07-19T09:57:29Z</time>
      </trkpt>
      <trkpt lat="44.29282" lon="6.90144">
        <ele>1377.4</ele>
        <time>2022-07-19T09:57:30Z</time>
      </trkpt>
      <trkpt lat="44.29284" lon="6.90145">
        <ele>1377.4</ele>
        <time>2022-07-19T09:57:31Z</time>
      </trkpt>
      <trkpt lat="44.29285" lon="6.90145">
        <ele>1377.8</ele>
        <time>2022-07-19T09:57:32Z</time>
      </trkpt>
      <trkpt lat="44.29287" lon="6.90146">
        <ele>1377.8</ele>
        <time>2022-07-19T09:57:33Z</time>
      </trkpt>
      <trkpt lat="44.29289" lon="6.90147">
        <ele>1378</ele>
        <time>2022-07-19T09:57:34Z</time>
      </trkpt>
      <trkpt lat="44.29291" lon="6.90147">
        <ele>1378</ele>
        <time>2022-07-19T09:57:35Z</time>
      </trkpt>
      <trkpt lat="44.29293" lon="6.90148">
        <ele>1378.4</ele>
        <time>2022-07-19T09:57:36Z</time>
      </trkpt>
      <trkpt lat="44.29295" lon="6.90148">
        <ele>1378.4</ele>
        <time>2022-07-19T09:57:37Z</time>
      </trkpt>
      <trkpt lat="44.29297" lon="6.90149">
        <ele>1378.4</ele>
        <time>2022-07-19T09:57:38Z</time>
      </trkpt>
      <trkpt lat="44.29299" lon="6.90151">
        <ele>1378.6</ele>
        <time>2022-07-19T09:57:39Z</time>
      </trkpt>
      <trkpt lat="44.29301" lon="6.90152">
        <ele>1378.6</ele>
        <time>2022-07-19T09:57:40Z</time>
      </trkpt>
      <trkpt lat="44.29304" lon="6.90154">
        <ele>1378.8</ele>
        <time>2022-07-19T09:57:41Z</time>
      </trkpt>
      <trkpt lat="44.29306" lon="6.90156">
        <ele>1378.8</ele>
        <time>2022-07-19T09:57:42Z</time>
      </trkpt>
      <trkpt lat="44.29308" lon="6.90157">
        <ele>1379.2</ele>
        <time>2022-07-19T09:57:43Z</time>
      </trkpt>
      <trkpt lat="44.29311" lon="6.90158">
        <ele>1379.4</ele>
        <time>2022-07-19T09:57:44Z</time>
      </trkpt>
      <trkpt lat="44.29313" lon="6.90159">
        <ele>1379.4</ele>
        <time>2022-07-19T09:57:45Z</time>
      </trkpt>
      <trkpt lat="44.29316" lon="6.9016">
        <ele>1379.6</ele>
        <time>2022-07-19T09:57:46Z</time>
      </trkpt>
      <trkpt lat="44.29318" lon="6.90161">
        <ele>1379.6</ele>
        <time>2022-07-19T09:57:47Z</time>
      </trkpt>
      <trkpt lat="44.29321" lon="6.90163">
        <ele>1380</ele>
        <time>2022-07-19T09:57:48Z</time>
      </trkpt>
      <trkpt lat="44.29323" lon="6.90164">
        <ele>1380</ele>
        <time>2022-07-19T09:57:49Z</time>
      </trkpt>
      <trkpt lat="44.29326" lon="6.90166">
        <ele>1380.2</ele>
        <time>2022-07-19T09:57:50Z</time>
      </trkpt>
      <trkpt lat="44.29328" lon="6.90167">
        <ele>1380.2</ele>
        <time>2022-07-19T09:57:51Z</time>
      </trkpt>
      <trkpt lat="44.2933" lon="6.90169">
        <ele>1380.6</ele>
        <time>2022-07-19T09:57:52Z</time>
      </trkpt>
      <trkpt lat="44.29332" lon="6.9017">
        <ele>1380.6</ele>
        <time>2022-07-19T09:57:53Z</time>
      </trkpt>
      <trkpt lat="44.29335" lon="6.90171">
        <ele>1380.8</ele>
        <time>2022-07-19T09:57:54Z</time>
      </trkpt>
      <trkpt lat="44.29337" lon="6.90172">
        <ele>1380.8</ele>
        <time>2022-07-19T09:57:55Z</time>
      </trkpt>
      <trkpt lat="44.29339" lon="6.90172">
        <ele>1380.8</ele>
        <time>2022-07-19T09:57:56Z</time>
      </trkpt>
      <trkpt lat="44.29341" lon="6.90172">
        <ele>1381.2</ele>
        <time>2022-07-19T09:57:57Z</time>
      </trkpt>
      <trkpt lat="44.29343" lon="6.90172">
        <ele>1381.2</ele>
        <time>2022-07-19T09:57:58Z</time>
      </trkpt>
      <trkpt lat="44.29344" lon="6.90172">
        <ele>1381.6</ele>
        <time>2022-07-19T09:57:59Z</time>
      </trkpt>
      <trkpt lat="44.29347" lon="6.90171">
        <ele>1381.6</ele>
        <time>2022-07-19T09:58:00Z</time>
      </trkpt>
      <trkpt lat="44.29349" lon="6.90171">
        <ele>1381.6</ele>
        <time>2022-07-19T09:58:01Z</time>
      </trkpt>
      <trkpt lat="44.29352" lon="6.90171">
        <ele>1381.8</ele>
        <time>2022-07-19T09:58:02Z</time>
      </trkpt>
      <trkpt lat="44.29355" lon="6.90171">
        <ele>1381.8</ele>
        <time>2022-07-19T09:58:03Z</time>
      </trkpt>
      <trkpt lat="44.29359" lon="6.90171">
        <ele>1381.8</ele>
        <time>2022-07-19T09:58:04Z</time>
      </trkpt>
      <trkpt lat="44.29361" lon="6.90171">
        <ele>1382</ele>
        <time>2022-07-19T09:58:05Z</time>
      </trkpt>
      <trkpt lat="44.29363" lon="6.90171">
        <ele>1382</ele>
        <time>2022-07-19T09:58:06Z</time>
      </trkpt>
      <trkpt lat="44.29366" lon="6.90171">
        <ele>1382</ele>
        <time>2022-07-19T09:58:07Z</time>
      </trkpt>
      <trkpt lat="44.29368" lon="6.90171">
        <ele>1382.2</ele>
        <time>2022-07-19T09:58:08Z</time>
      </trkpt>
      <trkpt lat="44.29371" lon="6.90172">
        <ele>1382.2</ele>
        <time>2022-07-19T09:58:09Z</time>
      </trkpt>
      <trkpt lat="44.29374" lon="6.90172">
        <ele>1382.6</ele>
        <time>2022-07-19T09:58:10Z</time>
      </trkpt>
      <trkpt lat="44.29377" lon="6.90173">
        <ele>1382.6</ele>
        <time>2022-07-19T09:58:11Z</time>
      </trkpt>
      <trkpt lat="44.29379" lon="6.90173">
        <ele>1382.8</ele>
        <time>2022-07-19T09:58:12Z</time>
      </trkpt>
      <trkpt lat="44.29382" lon="6.90174">
        <ele>1382.8</ele>
        <time>2022-07-19T09:58:13Z</time>
      </trkpt>
      <trkpt lat="44.29385" lon="6.90174">
        <ele>1383</ele>
        <time>2022-07-19T09:58:14Z</time>
      </trkpt>
      <trkpt lat="44.29388" lon="6.90174">
        <ele>1383</ele>
        <time>2022-07-19T09:58:15Z</time>
      </trkpt>
      <trkpt lat="44.2939" lon="6.90174">
        <ele>1383.4</ele>
        <time>2022-07-19T09:58:16Z</time>
      </trkpt>
      <trkpt lat="44.29393" lon="6.90174">
        <ele>1383.4</ele>
        <time>2022-07-19T09:58:17Z</time>
      </trkpt>
      <trkpt lat="44.29396" lon="6.90174">
        <ele>1383.6</ele>
        <time>2022-07-19T09:58:18Z</time>
      </trkpt>
      <trkpt lat="44.29398" lon="6.90174">
        <ele>1383.6</ele>
        <time>2022-07-19T09:58:19Z</time>
      </trkpt>
      <trkpt lat="44.29401" lon="6.90174">
        <ele>1383.8</ele>
        <time>2022-07-19T09:58:20Z</time>
      </trkpt>
      <trkpt lat="44.29404" lon="6.90174">
        <ele>1384</ele>
        <time>2022-07-19T09:58:21Z</time>
      </trkpt>
      <trkpt lat="44.29406" lon="6.90174">
        <ele>1384</ele>
        <time>2022-07-19T09:58:22Z</time>
      </trkpt>
      <trkpt lat="44.29409" lon="6.90174">
        <ele>1384</ele>
        <time>2022-07-19T09:58:23Z</time>
      </trkpt>
      <trkpt lat="44.29412" lon="6.90174">
        <ele>1384.4</ele>
        <time>2022-07-19T09:58:24Z</time>
      </trkpt>
      <trkpt lat="44.29414" lon="6.90174">
        <ele>1384.4</ele>
        <time>2022-07-19T09:58:25Z</time>
      </trkpt>
      <trkpt lat="44.29417" lon="6.90174">
        <ele>1384.6</ele>
        <time>2022-07-19T09:58:26Z</time>
      </trkpt>
      <trkpt lat="44.2942" lon="6.90174">
        <ele>1384.6</ele>
        <time>2022-07-19T09:58:27Z</time>
      </trkpt>
      <trkpt lat="44.29423" lon="6.90174">
        <ele>1384.6</ele>
        <time>2022-07-19T09:58:28Z</time>
      </trkpt>
      <trkpt lat="44.29426" lon="6.90174">
        <ele>1385</ele>
        <time>2022-07-19T09:58:29Z</time>
      </trkpt>
      <trkpt lat="44.29428" lon="6.90174">
        <ele>1385.4</ele>
        <time>2022-07-19T09:58:30Z</time>
      </trkpt>
      <trkpt lat="44.29431" lon="6.90174">
        <ele>1385.4</ele>
        <time>2022-07-19T09:58:31Z</time>
      </trkpt>
      <trkpt lat="44.29433" lon="6.90174">
        <ele>1385.6</ele>
        <time>2022-07-19T09:58:32Z</time>
      </trkpt>
      <trkpt lat="44.29436" lon="6.90174">
        <ele>1385.6</ele>
        <time>2022-07-19T09:58:33Z</time>
      </trkpt>
      <trkpt lat="44.29439" lon="6.90175">
        <ele>1386</ele>
        <time>2022-07-19T09:58:34Z</time>
      </trkpt>
      <trkpt lat="44.29441" lon="6.90175">
        <ele>1386</ele>
        <time>2022-07-19T09:58:35Z</time>
      </trkpt>
      <trkpt lat="44.29443" lon="6.90175">
        <ele>1386.2</ele>
        <time>2022-07-19T09:58:36Z</time>
      </trkpt>
      <trkpt lat="44.29446" lon="6.90174">
        <ele>1386.2</ele>
        <time>2022-07-19T09:58:37Z</time>
      </trkpt>
      <trkpt lat="44.29449" lon="6.90175">
        <ele>1386.4</ele>
        <time>2022-07-19T09:58:38Z</time>
      </trkpt>
      <trkpt lat="44.29451" lon="6.90175">
        <ele>1386.4</ele>
        <time>2022-07-19T09:58:39Z</time>
      </trkpt>
      <trkpt lat="44.29453" lon="6.90176">
        <ele>1386.8</ele>
        <time>2022-07-19T09:58:40Z</time>
      </trkpt>
      <trkpt lat="44.29456" lon="6.90176">
        <ele>1386.8</ele>
        <time>2022-07-19T09:58:41Z</time>
      </trkpt>
      <trkpt lat="44.29459" lon="6.90177">
        <ele>1387</ele>
        <time>2022-07-19T09:58:42Z</time>
      </trkpt>
      <trkpt lat="44.29461" lon="6.90177">
        <ele>1387</ele>
        <time>2022-07-19T09:58:43Z</time>
      </trkpt>
      <trkpt lat="44.29463" lon="6.90177">
        <ele>1387.4</ele>
        <time>2022-07-19T09:58:44Z</time>
      </trkpt>
      <trkpt lat="44.29466" lon="6.90177">
        <ele>1387.4</ele>
        <time>2022-07-19T09:58:45Z</time>
      </trkpt>
      <trkpt lat="44.29468" lon="6.90176">
        <ele>1387.6</ele>
        <time>2022-07-19T09:58:46Z</time>
      </trkpt>
      <trkpt lat="44.2947" lon="6.90176">
        <ele>1387.6</ele>
        <time>2022-07-19T09:58:47Z</time>
      </trkpt>
      <trkpt lat="44.29473" lon="6.90176">
        <ele>1388</ele>
        <time>2022-07-19T09:58:48Z</time>
      </trkpt>
      <trkpt lat="44.29475" lon="6.90177">
        <ele>1388</ele>
        <time>2022-07-19T09:58:49Z</time>
      </trkpt>
      <trkpt lat="44.29478" lon="6.90177">
        <ele>1388.2</ele>
        <time>2022-07-19T09:58:50Z</time>
      </trkpt>
      <trkpt lat="44.2948" lon="6.90178">
        <ele>1388.2</ele>
        <time>2022-07-19T09:58:51Z</time>
      </trkpt>
      <trkpt lat="44.29483" lon="6.90178">
        <ele>1388.6</ele>
        <time>2022-07-19T09:58:52Z</time>
      </trkpt>
      <trkpt lat="44.29486" lon="6.90178">
        <ele>1388.6</ele>
        <time>2022-07-19T09:58:53Z</time>
      </trkpt>
      <trkpt lat="44.29488" lon="6.90178">
        <ele>1388.8</ele>
        <time>2022-07-19T09:58:54Z</time>
      </trkpt>
      <trkpt lat="44.2949" lon="6.90178">
        <ele>1388.8</ele>
        <time>2022-07-19T09:58:55Z</time>
      </trkpt>
      <trkpt lat="44.29493" lon="6.90179">
        <ele>1389</ele>
        <time>2022-07-19T09:58:56Z</time>
      </trkpt>
      <trkpt lat="44.29498" lon="6.90179">
        <ele>1389</ele>
        <time>2022-07-19T09:58:57Z</time>
      </trkpt>
      <trkpt lat="44.295" lon="6.9018">
        <ele>1389.4</ele>
        <time>2022-07-19T09:58:58Z</time>
      </trkpt>
      <trkpt lat="44.29503" lon="6.9018">
        <ele>1389.4</ele>
        <time>2022-07-19T09:58:59Z</time>
      </trkpt>
      <trkpt lat="44.29505" lon="6.9018">
        <ele>1389.6</ele>
        <time>2022-07-19T09:59:00Z</time>
      </trkpt>
      <trkpt lat="44.29508" lon="6.90181">
        <ele>1389.6</ele>
        <time>2022-07-19T09:59:01Z</time>
      </trkpt>
      <trkpt lat="44.2951" lon="6.90181">
        <ele>1390</ele>
        <time>2022-07-19T09:59:02Z</time>
      </trkpt>
      <trkpt lat="44.29512" lon="6.90181">
        <ele>1390</ele>
        <time>2022-07-19T09:59:03Z</time>
      </trkpt>
      <trkpt lat="44.29515" lon="6.9018">
        <ele>1390.2</ele>
        <time>2022-07-19T09:59:04Z</time>
      </trkpt>
      <trkpt lat="44.29517" lon="6.9018">
        <ele>1390.2</ele>
        <time>2022-07-19T09:59:05Z</time>
      </trkpt>
      <trkpt lat="44.29519" lon="6.9018">
        <ele>1390.6</ele>
        <time>2022-07-19T09:59:06Z</time>
      </trkpt>
      <trkpt lat="44.29521" lon="6.90179">
        <ele>1390.6</ele>
        <time>2022-07-19T09:59:07Z</time>
      </trkpt>
      <trkpt lat="44.29523" lon="6.90178">
        <ele>1390.8</ele>
        <time>2022-07-19T09:59:08Z</time>
      </trkpt>
      <trkpt lat="44.29526" lon="6.90177">
        <ele>1391</ele>
        <time>2022-07-19T09:59:09Z</time>
      </trkpt>
      <trkpt lat="44.29528" lon="6.90177">
        <ele>1391</ele>
        <time>2022-07-19T09:59:10Z</time>
      </trkpt>
      <trkpt lat="44.2953" lon="6.90177">
        <ele>1391.4</ele>
        <time>2022-07-19T09:59:11Z</time>
      </trkpt>
      <trkpt lat="44.29532" lon="6.90176">
        <ele>1391.4</ele>
        <time>2022-07-19T09:59:12Z</time>
      </trkpt>
      <trkpt lat="44.29534" lon="6.90176">
        <ele>1391.6</ele>
        <time>2022-07-19T09:59:13Z</time>
      </trkpt>
      <trkpt lat="44.29536" lon="6.90176">
        <ele>1391.6</ele>
        <time>2022-07-19T09:59:14Z</time>
      </trkpt>
      <trkpt lat="44.29538" lon="6.90176">
        <ele>1391.8</ele>
        <time>2022-07-19T09:59:15Z</time>
      </trkpt>
      <trkpt lat="44.2954" lon="6.90176">
        <ele>1392</ele>
        <time>2022-07-19T09:59:16Z</time>
      </trkpt>
      <trkpt lat="44.29543" lon="6.90175">
        <ele>1392</ele>
        <time>2022-07-19T09:59:17Z</time>
      </trkpt>
      <trkpt lat="44.29545" lon="6.90175">
        <ele>1392.4</ele>
        <time>2022-07-19T09:59:18Z</time>
      </trkpt>
      <trkpt lat="44.29547" lon="6.90176">
        <ele>1392.4</ele>
        <time>2022-07-19T09:59:19Z</time>
      </trkpt>
      <trkpt lat="44.29548" lon="6.90176">
        <ele>1392.6</ele>
        <time>2022-07-19T09:59:20Z</time>
      </trkpt>
      <trkpt lat="44.2955" lon="6.90175">
        <ele>1392.6</ele>
        <time>2022-07-19T09:59:21Z</time>
      </trkpt>
      <trkpt lat="44.29552" lon="6.90174">
        <ele>1393</ele>
        <time>2022-07-19T09:59:22Z</time>
      </trkpt>
      <trkpt lat="44.29553" lon="6.90173">
        <ele>1393</ele>
        <time>2022-07-19T09:59:23Z</time>
      </trkpt>
      <trkpt lat="44.29555" lon="6.90172">
        <ele>1393</ele>
        <time>2022-07-19T09:59:24Z</time>
      </trkpt>
      <trkpt lat="44.29557" lon="6.90171">
        <ele>1393.4</ele>
        <time>2022-07-19T09:59:25Z</time>
      </trkpt>
      <trkpt lat="44.2956" lon="6.9017">
        <ele>1393.4</ele>
        <time>2022-07-19T09:59:26Z</time>
      </trkpt>
      <trkpt lat="44.29562" lon="6.90169">
        <ele>1393.8</ele>
        <time>2022-07-19T09:59:27Z</time>
      </trkpt>
      <trkpt lat="44.29565" lon="6.90168">
        <ele>1394</ele>
        <time>2022-07-19T09:59:28Z</time>
      </trkpt>
      <trkpt lat="44.29568" lon="6.90167">
        <ele>1394</ele>
        <time>2022-07-19T09:59:29Z</time>
      </trkpt>
      <trkpt lat="44.29571" lon="6.90167">
        <ele>1394.2</ele>
        <time>2022-07-19T09:59:30Z</time>
      </trkpt>
      <trkpt lat="44.29574" lon="6.90168">
        <ele>1394.4</ele>
        <time>2022-07-19T09:59:31Z</time>
      </trkpt>
      <trkpt lat="44.29577" lon="6.90168">
        <ele>1394.4</ele>
        <time>2022-07-19T09:59:32Z</time>
      </trkpt>
      <trkpt lat="44.29579" lon="6.90169">
        <ele>1394.8</ele>
        <time>2022-07-19T09:59:33Z</time>
      </trkpt>
      <trkpt lat="44.29582" lon="6.9017">
        <ele>1394.8</ele>
        <time>2022-07-19T09:59:34Z</time>
      </trkpt>
      <trkpt lat="44.29584" lon="6.90171">
        <ele>1395</ele>
        <time>2022-07-19T09:59:35Z</time>
      </trkpt>
      <trkpt lat="44.29586" lon="6.90172">
        <ele>1395.2</ele>
        <time>2022-07-19T09:59:36Z</time>
      </trkpt>
      <trkpt lat="44.29589" lon="6.90173">
        <ele>1395.6</ele>
        <time>2022-07-19T09:59:37Z</time>
      </trkpt>
      <trkpt lat="44.29591" lon="6.90174">
        <ele>1395.6</ele>
        <time>2022-07-19T09:59:38Z</time>
      </trkpt>
      <trkpt lat="44.29593" lon="6.90174">
        <ele>1395.8</ele>
        <time>2022-07-19T09:59:39Z</time>
      </trkpt>
      <trkpt lat="44.29595" lon="6.90174">
        <ele>1395.8</ele>
        <time>2022-07-19T09:59:40Z</time>
      </trkpt>
      <trkpt lat="44.29597" lon="6.90174">
        <ele>1396.2</ele>
        <time>2022-07-19T09:59:41Z</time>
      </trkpt>
      <trkpt lat="44.296" lon="6.90173">
        <ele>1396.2</ele>
        <time>2022-07-19T09:59:42Z</time>
      </trkpt>
      <trkpt lat="44.29602" lon="6.90172">
        <ele>1396.2</ele>
        <time>2022-07-19T09:59:43Z</time>
      </trkpt>
      <trkpt lat="44.29604" lon="6.9017">
        <ele>1396.6</ele>
        <time>2022-07-19T09:59:44Z</time>
      </trkpt>
      <trkpt lat="44.29606" lon="6.90168">
        <ele>1396.6</ele>
        <time>2022-07-19T09:59:45Z</time>
      </trkpt>
      <trkpt lat="44.29608" lon="6.90167">
        <ele>1396.8</ele>
        <time>2022-07-19T09:59:46Z</time>
      </trkpt>
      <trkpt lat="44.2961" lon="6.90166">
        <ele>1396.8</ele>
        <time>2022-07-19T09:59:47Z</time>
      </trkpt>
      <trkpt lat="44.29613" lon="6.90165">
        <ele>1397</ele>
        <time>2022-07-19T09:59:48Z</time>
      </trkpt>
      <trkpt lat="44.29615" lon="6.90164">
        <ele>1397</ele>
        <time>2022-07-19T09:59:49Z</time>
      </trkpt>
      <trkpt lat="44.29617" lon="6.90164">
        <ele>1397.4</ele>
        <time>2022-07-19T09:59:50Z</time>
      </trkpt>
      <trkpt lat="44.29619" lon="6.90164">
        <ele>1397.4</ele>
        <time>2022-07-19T09:59:51Z</time>
      </trkpt>
      <trkpt lat="44.29622" lon="6.90164">
        <ele>1397.6</ele>
        <time>2022-07-19T09:59:52Z</time>
      </trkpt>
      <trkpt lat="44.29625" lon="6.90164">
        <ele>1397.6</ele>
        <time>2022-07-19T09:59:53Z</time>
      </trkpt>
      <trkpt lat="44.29627" lon="6.90163">
        <ele>1397.6</ele>
        <time>2022-07-19T09:59:54Z</time>
      </trkpt>
      <trkpt lat="44.2963" lon="6.90163">
        <ele>1397.8</ele>
        <time>2022-07-19T09:59:55Z</time>
      </trkpt>
      <trkpt lat="44.29632" lon="6.90163">
        <ele>1397.8</ele>
        <time>2022-07-19T09:59:56Z</time>
      </trkpt>
      <trkpt lat="44.29635" lon="6.90164">
        <ele>1398</ele>
        <time>2022-07-19T09:59:57Z</time>
      </trkpt>
      <trkpt lat="44.29637" lon="6.90165">
        <ele>1398</ele>
        <time>2022-07-19T09:59:58Z</time>
      </trkpt>
      <trkpt lat="44.29639" lon="6.90166">
        <ele>1398</ele>
        <time>2022-07-19T09:59:59Z</time>
      </trkpt>
      <trkpt lat="44.29642" lon="6.90167">
        <ele>1398.4</ele>
        <time>2022-07-19T10:00:00Z</time>
      </trkpt>
      <trkpt lat="44.29644" lon="6.90168">
        <ele>1398.4</ele>
        <time>2022-07-19T10:00:01Z</time>
      </trkpt>
      <trkpt lat="44.29647" lon="6.9017">
        <ele>1398.6</ele>
        <time>2022-07-19T10:00:02Z</time>
      </trkpt>
      <trkpt lat="44.29649" lon="6.90171">
        <ele>1398.6</ele>
        <time>2022-07-19T10:00:03Z</time>
      </trkpt>
      <trkpt lat="44.29652" lon="6.90172">
        <ele>1399</ele>
        <time>2022-07-19T10:00:04Z</time>
      </trkpt>
      <trkpt lat="44.29654" lon="6.90173">
        <ele>1399</ele>
        <time>2022-07-19T10:00:05Z</time>
      </trkpt>
      <trkpt lat="44.29656" lon="6.90173">
        <ele>1399.2</ele>
        <time>2022-07-19T10:00:06Z</time>
      </trkpt>
      <trkpt lat="44.29658" lon="6.90173">
        <ele>1399.4</ele>
        <time>2022-07-19T10:00:07Z</time>
      </trkpt>
      <trkpt lat="44.29661" lon="6.90173">
        <ele>1399.4</ele>
        <time>2022-07-19T10:00:08Z</time>
      </trkpt>
      <trkpt lat="44.29663" lon="6.90173">
        <ele>1399.8</ele>
        <time>2022-07-19T10:00:09Z</time>
      </trkpt>
      <trkpt lat="44.29665" lon="6.90173">
        <ele>1399.8</ele>
        <time>2022-07-19T10:00:10Z</time>
      </trkpt>
      <trkpt lat="44.29668" lon="6.90172">
        <ele>1400</ele>
        <time>2022-07-19T10:00:11Z</time>
      </trkpt>
      <trkpt lat="44.2967" lon="6.90171">
        <ele>1400</ele>
        <time>2022-07-19T10:00:12Z</time>
      </trkpt>
      <trkpt lat="44.29672" lon="6.9017">
        <ele>1400</ele>
        <time>2022-07-19T10:00:13Z</time>
      </trkpt>
      <trkpt lat="44.29675" lon="6.90168">
        <ele>1400.2</ele>
        <time>2022-07-19T10:00:14Z</time>
      </trkpt>
      <trkpt lat="44.29677" lon="6.90166">
        <ele>1400.2</ele>
        <time>2022-07-19T10:00:15Z</time>
      </trkpt>
      <trkpt lat="44.29679" lon="6.90165">
        <ele>1400.4</ele>
        <time>2022-07-19T10:00:16Z</time>
      </trkpt>
      <trkpt lat="44.29682" lon="6.90164">
        <ele>1400.4</ele>
        <time>2022-07-19T10:00:17Z</time>
      </trkpt>
      <trkpt lat="44.29685" lon="6.90163">
        <ele>1400.4</ele>
        <time>2022-07-19T10:00:18Z</time>
      </trkpt>
      <trkpt lat="44.29687" lon="6.90163">
        <ele>1400.8</ele>
        <time>2022-07-19T10:00:19Z</time>
      </trkpt>
      <trkpt lat="44.2969" lon="6.90162">
        <ele>1400.8</ele>
        <time>2022-07-19T10:00:20Z</time>
      </trkpt>
      <trkpt lat="44.29692" lon="6.90162">
        <ele>1400.8</ele>
        <time>2022-07-19T10:00:21Z</time>
      </trkpt>
      <trkpt lat="44.29695" lon="6.90161">
        <ele>1400.8</ele>
        <time>2022-07-19T10:00:22Z</time>
      </trkpt>
      <trkpt lat="44.29698" lon="6.9016">
        <ele>1401</ele>
        <time>2022-07-19T10:00:23Z</time>
      </trkpt>
      <trkpt lat="44.29701" lon="6.9016">
        <ele>1401</ele>
        <time>2022-07-19T10:00:24Z</time>
      </trkpt>
      <trkpt lat="44.29703" lon="6.9016">
        <ele>1401.2</ele>
        <time>2022-07-19T10:00:25Z</time>
      </trkpt>
      <trkpt lat="44.29706" lon="6.90159">
        <ele>1401.2</ele>
        <time>2022-07-19T10:00:26Z</time>
      </trkpt>
      <trkpt lat="44.29708" lon="6.90159">
        <ele>1401.6</ele>
        <time>2022-07-19T10:00:27Z</time>
      </trkpt>
      <trkpt lat="44.29711" lon="6.90158">
        <ele>1401.6</ele>
        <time>2022-07-19T10:00:28Z</time>
      </trkpt>
      <trkpt lat="44.29714" lon="6.90158">
        <ele>1401.6</ele>
        <time>2022-07-19T10:00:29Z</time>
      </trkpt>
      <trkpt lat="44.29716" lon="6.90158">
        <ele>1401.8</ele>
        <time>2022-07-19T10:00:30Z</time>
      </trkpt>
      <trkpt lat="44.29719" lon="6.90158">
        <ele>1401.8</ele>
        <time>2022-07-19T10:00:31Z</time>
      </trkpt>
      <trkpt lat="44.29721" lon="6.90157">
        <ele>1402</ele>
        <time>2022-07-19T10:00:32Z</time>
      </trkpt>
      <trkpt lat="44.29724" lon="6.90157">
        <ele>1402</ele>
        <time>2022-07-19T10:00:33Z</time>
      </trkpt>
      <trkpt lat="44.29726" lon="6.90157">
        <ele>1402.4</ele>
        <time>2022-07-19T10:00:34Z</time>
      </trkpt>
      <trkpt lat="44.29729" lon="6.90156">
        <ele>1402.4</ele>
        <time>2022-07-19T10:00:35Z</time>
      </trkpt>
      <trkpt lat="44.29732" lon="6.90156">
        <ele>1402.4</ele>
        <time>2022-07-19T10:00:36Z</time>
      </trkpt>
      <trkpt lat="44.29735" lon="6.90156">
        <ele>1402.6</ele>
        <time>2022-07-19T10:00:37Z</time>
      </trkpt>
      <trkpt lat="44.29737" lon="6.90156">
        <ele>1402.6</ele>
        <time>2022-07-19T10:00:38Z</time>
      </trkpt>
      <trkpt lat="44.2974" lon="6.90156">
        <ele>1402.8</ele>
        <time>2022-07-19T10:00:39Z</time>
      </trkpt>
      <trkpt lat="44.29742" lon="6.90157">
        <ele>1402.8</ele>
        <time>2022-07-19T10:00:40Z</time>
      </trkpt>
      <trkpt lat="44.29744" lon="6.90157">
        <ele>1403.2</ele>
        <time>2022-07-19T10:00:41Z</time>
      </trkpt>
      <trkpt lat="44.29746" lon="6.90158">
        <ele>1403.2</ele>
        <time>2022-07-19T10:00:42Z</time>
      </trkpt>
      <trkpt lat="44.29749" lon="6.90159">
        <ele>1403.4</ele>
        <time>2022-07-19T10:00:43Z</time>
      </trkpt>
      <trkpt lat="44.29751" lon="6.90159">
        <ele>1403.4</ele>
        <time>2022-07-19T10:00:44Z</time>
      </trkpt>
      <trkpt lat="44.29754" lon="6.90159">
        <ele>1403.6</ele>
        <time>2022-07-19T10:00:45Z</time>
      </trkpt>
      <trkpt lat="44.29756" lon="6.90159">
        <ele>1403.6</ele>
        <time>2022-07-19T10:00:46Z</time>
      </trkpt>
      <trkpt lat="44.29759" lon="6.90159">
        <ele>1404</ele>
        <time>2022-07-19T10:00:47Z</time>
      </trkpt>
      <trkpt lat="44.29761" lon="6.90159">
        <ele>1404</ele>
        <time>2022-07-19T10:00:48Z</time>
      </trkpt>
      <trkpt lat="44.29764" lon="6.90158">
        <ele>1404.2</ele>
        <time>2022-07-19T10:00:49Z</time>
      </trkpt>
      <trkpt lat="44.29766" lon="6.90158">
        <ele>1404.2</ele>
        <time>2022-07-19T10:00:50Z</time>
      </trkpt>
      <trkpt lat="44.29768" lon="6.90157">
        <ele>1404.2</ele>
        <time>2022-07-19T10:00:51Z</time>
      </trkpt>
      <trkpt lat="44.29771" lon="6.90156">
        <ele>1404.4</ele>
        <time>2022-07-19T10:00:52Z</time>
      </trkpt>
      <trkpt lat="44.29773" lon="6.90155">
        <ele>1404.4</ele>
        <time>2022-07-19T10:00:53Z</time>
      </trkpt>
      <trkpt lat="44.29775" lon="6.90154">
        <ele>1404.8</ele>
        <time>2022-07-19T10:00:54Z</time>
      </trkpt>
      <trkpt lat="44.29778" lon="6.90153">
        <ele>1404.8</ele>
        <time>2022-07-19T10:00:55Z</time>
      </trkpt>
      <trkpt lat="44.29781" lon="6.90153">
        <ele>1404.8</ele>
        <time>2022-07-19T10:00:56Z</time>
      </trkpt>
      <trkpt lat="44.29784" lon="6.90152">
        <ele>1405</ele>
        <time>2022-07-19T10:00:57Z</time>
      </trkpt>
      <trkpt lat="44.29786" lon="6.90153">
        <ele>1405</ele>
        <time>2022-07-19T10:00:58Z</time>
      </trkpt>
      <trkpt lat="44.29789" lon="6.90153">
        <ele>1405.4</ele>
        <time>2022-07-19T10:00:59Z</time>
      </trkpt>
      <trkpt lat="44.29791" lon="6.90153">
        <ele>1405.4</ele>
        <time>2022-07-19T10:01:00Z</time>
      </trkpt>
      <trkpt lat="44.29794" lon="6.90154">
        <ele>1405.6</ele>
        <time>2022-07-19T10:01:01Z</time>
      </trkpt>
      <trkpt lat="44.29797" lon="6.90154">
        <ele>1405.6</ele>
        <time>2022-07-19T10:01:02Z</time>
      </trkpt>
      <trkpt lat="44.298" lon="6.90155">
        <ele>1406</ele>
        <time>2022-07-19T10:01:03Z</time>
      </trkpt>
      <trkpt lat="44.29802" lon="6.90155">
        <ele>1406</ele>
        <time>2022-07-19T10:01:04Z</time>
      </trkpt>
      <trkpt lat="44.29805" lon="6.90156">
        <ele>1406.4</ele>
        <time>2022-07-19T10:01:05Z</time>
      </trkpt>
      <trkpt lat="44.29808" lon="6.90157">
        <ele>1406.4</ele>
        <time>2022-07-19T10:01:06Z</time>
      </trkpt>
      <trkpt lat="44.29811" lon="6.90158">
        <ele>1406.4</ele>
        <time>2022-07-19T10:01:07Z</time>
      </trkpt>
      <trkpt lat="44.29814" lon="6.90158">
        <ele>1406.6</ele>
        <time>2022-07-19T10:01:08Z</time>
      </trkpt>
      <trkpt lat="44.29816" lon="6.90159">
        <ele>1406.6</ele>
        <time>2022-07-19T10:01:09Z</time>
      </trkpt>
      <trkpt lat="44.29819" lon="6.9016">
        <ele>1406.8</ele>
        <time>2022-07-19T10:01:10Z</time>
      </trkpt>
      <trkpt lat="44.29821" lon="6.90161">
        <ele>1406.8</ele>
        <time>2022-07-19T10:01:11Z</time>
      </trkpt>
      <trkpt lat="44.29824" lon="6.90162">
        <ele>1406.8</ele>
        <time>2022-07-19T10:01:12Z</time>
      </trkpt>
      <trkpt lat="44.29826" lon="6.90163">
        <ele>1407</ele>
        <time>2022-07-19T10:01:13Z</time>
      </trkpt>
      <trkpt lat="44.29829" lon="6.90163">
        <ele>1407</ele>
        <time>2022-07-19T10:01:14Z</time>
      </trkpt>
      <trkpt lat="44.29832" lon="6.90164">
        <ele>1407</ele>
        <time>2022-07-19T10:01:15Z</time>
      </trkpt>
      <trkpt lat="44.29835" lon="6.90165">
        <ele>1407</ele>
        <time>2022-07-19T10:01:16Z</time>
      </trkpt>
      <trkpt lat="44.29838" lon="6.90165">
        <ele>1407.4</ele>
        <time>2022-07-19T10:01:17Z</time>
      </trkpt>
      <trkpt lat="44.29841" lon="6.90165">
        <ele>1407.4</ele>
        <time>2022-07-19T10:01:18Z</time>
      </trkpt>
      <trkpt lat="44.29844" lon="6.90165">
        <ele>1407.4</ele>
        <time>2022-07-19T10:01:19Z</time>
      </trkpt>
      <trkpt lat="44.29847" lon="6.90165">
        <ele>1407.6</ele>
        <time>2022-07-19T10:01:20Z</time>
      </trkpt>
      <trkpt lat="44.2985" lon="6.90166">
        <ele>1407.6</ele>
        <time>2022-07-19T10:01:21Z</time>
      </trkpt>
      <trkpt lat="44.29852" lon="6.90166">
        <ele>1407.8</ele>
        <time>2022-07-19T10:01:22Z</time>
      </trkpt>
      <trkpt lat="44.29855" lon="6.90167">
        <ele>1407.8</ele>
        <time>2022-07-19T10:01:23Z</time>
      </trkpt>
      <trkpt lat="44.29858" lon="6.90166">
        <ele>1408.2</ele>
        <time>2022-07-19T10:01:24Z</time>
      </trkpt>
      <trkpt lat="44.29861" lon="6.90167">
        <ele>1408.4</ele>
        <time>2022-07-19T10:01:25Z</time>
      </trkpt>
      <trkpt lat="44.29863" lon="6.90167">
        <ele>1408.4</ele>
        <time>2022-07-19T10:01:26Z</time>
      </trkpt>
      <trkpt lat="44.29866" lon="6.90167">
        <ele>1408.6</ele>
        <time>2022-07-19T10:01:27Z</time>
      </trkpt>
      <trkpt lat="44.29868" lon="6.90167">
        <ele>1408.6</ele>
        <time>2022-07-19T10:01:28Z</time>
      </trkpt>
      <trkpt lat="44.29871" lon="6.90168">
        <ele>1408.6</ele>
        <time>2022-07-19T10:01:29Z</time>
      </trkpt>
      <trkpt lat="44.29873" lon="6.9017">
        <ele>1409</ele>
        <time>2022-07-19T10:01:30Z</time>
      </trkpt>
      <trkpt lat="44.29875" lon="6.9017">
        <ele>1409</ele>
        <time>2022-07-19T10:01:31Z</time>
      </trkpt>
      <trkpt lat="44.29878" lon="6.90171">
        <ele>1409.2</ele>
        <time>2022-07-19T10:01:32Z</time>
      </trkpt>
      <trkpt lat="44.29881" lon="6.90172">
        <ele>1409.2</ele>
        <time>2022-07-19T10:01:33Z</time>
      </trkpt>
      <trkpt lat="44.29883" lon="6.90173">
        <ele>1409.6</ele>
        <time>2022-07-19T10:01:34Z</time>
      </trkpt>
      <trkpt lat="44.29886" lon="6.90175">
        <ele>1409.8</ele>
        <time>2022-07-19T10:01:35Z</time>
      </trkpt>
      <trkpt lat="44.29889" lon="6.90178">
        <ele>1409.8</ele>
        <time>2022-07-19T10:01:36Z</time>
      </trkpt>
      <trkpt lat="44.29892" lon="6.9018">
        <ele>1409.8</ele>
        <time>2022-07-19T10:01:37Z</time>
      </trkpt>
      <trkpt lat="44.29895" lon="6.90182">
        <ele>1410.2</ele>
        <time>2022-07-19T10:01:38Z</time>
      </trkpt>
      <trkpt lat="44.29898" lon="6.90184">
        <ele>1410.2</ele>
        <time>2022-07-19T10:01:39Z</time>
      </trkpt>
      <trkpt lat="44.29901" lon="6.90186">
        <ele>1410.4</ele>
        <time>2022-07-19T10:01:40Z</time>
      </trkpt>
      <trkpt lat="44.29903" lon="6.90188">
        <ele>1410.4</ele>
        <time>2022-07-19T10:01:41Z</time>
      </trkpt>
      <trkpt lat="44.29906" lon="6.9019">
        <ele>1410.6</ele>
        <time>2022-07-19T10:01:42Z</time>
      </trkpt>
      <trkpt lat="44.29909" lon="6.90192">
        <ele>1410.6</ele>
        <time>2022-07-19T10:01:43Z</time>
      </trkpt>
      <trkpt lat="44.29912" lon="6.90193">
        <ele>1410.8</ele>
        <time>2022-07-19T10:01:44Z</time>
      </trkpt>
      <trkpt lat="44.29915" lon="6.90194">
        <ele>1410.8</ele>
        <time>2022-07-19T10:01:45Z</time>
      </trkpt>
      <trkpt lat="44.29918" lon="6.90194">
        <ele>1411.2</ele>
        <time>2022-07-19T10:01:46Z</time>
      </trkpt>
      <trkpt lat="44.29921" lon="6.90194">
        <ele>1411.2</ele>
        <time>2022-07-19T10:01:47Z</time>
      </trkpt>
      <trkpt lat="44.29924" lon="6.90193">
        <ele>1411.4</ele>
        <time>2022-07-19T10:01:48Z</time>
      </trkpt>
      <trkpt lat="44.29926" lon="6.90193">
        <ele>1411.4</ele>
        <time>2022-07-19T10:01:49Z</time>
      </trkpt>
      <trkpt lat="44.29929" lon="6.90193">
        <ele>1411.8</ele>
        <time>2022-07-19T10:01:50Z</time>
      </trkpt>
      <trkpt lat="44.29931" lon="6.90192">
        <ele>1411.8</ele>
        <time>2022-07-19T10:01:51Z</time>
      </trkpt>
      <trkpt lat="44.29934" lon="6.90192">
        <ele>1412</ele>
        <time>2022-07-19T10:01:52Z</time>
      </trkpt>
      <trkpt lat="44.29936" lon="6.90191">
        <ele>1412.2</ele>
        <time>2022-07-19T10:01:53Z</time>
      </trkpt>
      <trkpt lat="44.29939" lon="6.9019">
        <ele>1412.4</ele>
        <time>2022-07-19T10:01:54Z</time>
      </trkpt>
      <trkpt lat="44.29941" lon="6.9019">
        <ele>1412.4</ele>
        <time>2022-07-19T10:01:55Z</time>
      </trkpt>
      <trkpt lat="44.29944" lon="6.90189">
        <ele>1412.4</ele>
        <time>2022-07-19T10:01:56Z</time>
      </trkpt>
      <trkpt lat="44.29946" lon="6.90189">
        <ele>1412.8</ele>
        <time>2022-07-19T10:01:57Z</time>
      </trkpt>
      <trkpt lat="44.29949" lon="6.90189">
        <ele>1412.8</ele>
        <time>2022-07-19T10:01:58Z</time>
      </trkpt>
      <trkpt lat="44.29951" lon="6.90188">
        <ele>1413</ele>
        <time>2022-07-19T10:01:59Z</time>
      </trkpt>
      <trkpt lat="44.29953" lon="6.90188">
        <ele>1413</ele>
        <time>2022-07-19T10:02:00Z</time>
      </trkpt>
      <trkpt lat="44.29955" lon="6.90187">
        <ele>1413.2</ele>
        <time>2022-07-19T10:02:01Z</time>
      </trkpt>
      <trkpt lat="44.29957" lon="6.90186">
        <ele>1413.2</ele>
        <time>2022-07-19T10:02:02Z</time>
      </trkpt>
      <trkpt lat="44.2996" lon="6.90185">
        <ele>1413.4</ele>
        <time>2022-07-19T10:02:03Z</time>
      </trkpt>
      <trkpt lat="44.29962" lon="6.90184">
        <ele>1413.4</ele>
        <time>2022-07-19T10:02:04Z</time>
      </trkpt>
      <trkpt lat="44.29965" lon="6.90182">
        <ele>1413.6</ele>
        <time>2022-07-19T10:02:05Z</time>
      </trkpt>
      <trkpt lat="44.29967" lon="6.90181">
        <ele>1413.6</ele>
        <time>2022-07-19T10:02:06Z</time>
      </trkpt>
      <trkpt lat="44.2997" lon="6.9018">
        <ele>1414</ele>
        <time>2022-07-19T10:02:07Z</time>
      </trkpt>
      <trkpt lat="44.29972" lon="6.9018">
        <ele>1414</ele>
        <time>2022-07-19T10:02:08Z</time>
      </trkpt>
      <trkpt lat="44.29975" lon="6.90179">
        <ele>1414</ele>
        <time>2022-07-19T10:02:09Z</time>
      </trkpt>
      <trkpt lat="44.29977" lon="6.90178">
        <ele>1414.2</ele>
        <time>2022-07-19T10:02:10Z</time>
      </trkpt>
      <trkpt lat="44.2998" lon="6.90178">
        <ele>1414.2</ele>
        <time>2022-07-19T10:02:11Z</time>
      </trkpt>
      <trkpt lat="44.29983" lon="6.90178">
        <ele>1414.2</ele>
        <time>2022-07-19T10:02:12Z</time>
      </trkpt>
      <trkpt lat="44.29986" lon="6.90179">
        <ele>1414.4</ele>
        <time>2022-07-19T10:02:13Z</time>
      </trkpt>
      <trkpt lat="44.29989" lon="6.9018">
        <ele>1414.4</ele>
        <time>2022-07-19T10:02:14Z</time>
      </trkpt>
      <trkpt lat="44.29992" lon="6.90181">
        <ele>1414.6</ele>
        <time>2022-07-19T10:02:15Z</time>
      </trkpt>
      <trkpt lat="44.29995" lon="6.90183">
        <ele>1414.6</ele>
        <time>2022-07-19T10:02:16Z</time>
      </trkpt>
      <trkpt lat="44.29997" lon="6.90185">
        <ele>1414.8</ele>
        <time>2022-07-19T10:02:17Z</time>
      </trkpt>
      <trkpt lat="44.3" lon="6.90188">
        <ele>1414.8</ele>
        <time>2022-07-19T10:02:18Z</time>
      </trkpt>
      <trkpt lat="44.30003" lon="6.9019">
        <ele>1415.2</ele>
        <time>2022-07-19T10:02:19Z</time>
      </trkpt>
      <trkpt lat="44.30006" lon="6.90192">
        <ele>1415.2</ele>
        <time>2022-07-19T10:02:20Z</time>
      </trkpt>
      <trkpt lat="44.30008" lon="6.90194">
        <ele>1415.2</ele>
        <time>2022-07-19T10:02:21Z</time>
      </trkpt>
      <trkpt lat="44.30011" lon="6.90196">
        <ele>1415.4</ele>
        <time>2022-07-19T10:02:22Z</time>
      </trkpt>
      <trkpt lat="44.30014" lon="6.90198">
        <ele>1415.4</ele>
        <time>2022-07-19T10:02:23Z</time>
      </trkpt>
      <trkpt lat="44.30017" lon="6.902">
        <ele>1415.6</ele>
        <time>2022-07-19T10:02:24Z</time>
      </trkpt>
      <trkpt lat="44.3002" lon="6.90202">
        <ele>1415.6</ele>
        <time>2022-07-19T10:02:25Z</time>
      </trkpt>
      <trkpt lat="44.30023" lon="6.90204">
        <ele>1415.6</ele>
        <time>2022-07-19T10:02:26Z</time>
      </trkpt>
      <trkpt lat="44.30025" lon="6.90205">
        <ele>1415.8</ele>
        <time>2022-07-19T10:02:27Z</time>
      </trkpt>
      <trkpt lat="44.30028" lon="6.90207">
        <ele>1415.8</ele>
        <time>2022-07-19T10:02:28Z</time>
      </trkpt>
      <trkpt lat="44.30031" lon="6.90209">
        <ele>1415.8</ele>
        <time>2022-07-19T10:02:29Z</time>
      </trkpt>
      <trkpt lat="44.30034" lon="6.9021">
        <ele>1416.2</ele>
        <time>2022-07-19T10:02:30Z</time>
      </trkpt>
      <trkpt lat="44.30037" lon="6.90212">
        <ele>1416.2</ele>
        <time>2022-07-19T10:02:31Z</time>
      </trkpt>
      <trkpt lat="44.30039" lon="6.90213">
        <ele>1416.2</ele>
        <time>2022-07-19T10:02:32Z</time>
      </trkpt>
      <trkpt lat="44.30042" lon="6.90215">
        <ele>1416.4</ele>
        <time>2022-07-19T10:02:33Z</time>
      </trkpt>
      <trkpt lat="44.30045" lon="6.90216">
        <ele>1416.4</ele>
        <time>2022-07-19T10:02:34Z</time>
      </trkpt>
      <trkpt lat="44.30048" lon="6.90217">
        <ele>1416.8</ele>
        <time>2022-07-19T10:02:35Z</time>
      </trkpt>
      <trkpt lat="44.3005" lon="6.90218">
        <ele>1416.8</ele>
        <time>2022-07-19T10:02:36Z</time>
      </trkpt>
      <trkpt lat="44.30053" lon="6.9022">
        <ele>1417</ele>
        <time>2022-07-19T10:02:37Z</time>
      </trkpt>
      <trkpt lat="44.30056" lon="6.90221">
        <ele>1417</ele>
        <time>2022-07-19T10:02:38Z</time>
      </trkpt>
      <trkpt lat="44.30058" lon="6.90223">
        <ele>1417.4</ele>
        <time>2022-07-19T10:02:39Z</time>
      </trkpt>
      <trkpt lat="44.30061" lon="6.90224">
        <ele>1417.6</ele>
        <time>2022-07-19T10:02:40Z</time>
      </trkpt>
      <trkpt lat="44.30063" lon="6.90226">
        <ele>1417.6</ele>
        <time>2022-07-19T10:02:41Z</time>
      </trkpt>
      <trkpt lat="44.30065" lon="6.90228">
        <ele>1418</ele>
        <time>2022-07-19T10:02:42Z</time>
      </trkpt>
      <trkpt lat="44.30067" lon="6.90229">
        <ele>1418</ele>
        <time>2022-07-19T10:02:43Z</time>
      </trkpt>
      <trkpt lat="44.3007" lon="6.90231">
        <ele>1418.2</ele>
        <time>2022-07-19T10:02:44Z</time>
      </trkpt>
      <trkpt lat="44.30072" lon="6.90233">
        <ele>1418.4</ele>
        <time>2022-07-19T10:02:45Z</time>
      </trkpt>
      <trkpt lat="44.30074" lon="6.90234">
        <ele>1418.4</ele>
        <time>2022-07-19T10:02:46Z</time>
      </trkpt>
      <trkpt lat="44.30077" lon="6.90235">
        <ele>1418.8</ele>
        <time>2022-07-19T10:02:47Z</time>
      </trkpt>
      <trkpt lat="44.30079" lon="6.90236">
        <ele>1418.8</ele>
        <time>2022-07-19T10:02:48Z</time>
      </trkpt>
      <trkpt lat="44.30081" lon="6.90238">
        <ele>1419</ele>
        <time>2022-07-19T10:02:49Z</time>
      </trkpt>
      <trkpt lat="44.30084" lon="6.90239">
        <ele>1419.4</ele>
        <time>2022-07-19T10:02:50Z</time>
      </trkpt>
      <trkpt lat="44.30086" lon="6.9024">
        <ele>1419.4</ele>
        <time>2022-07-19T10:02:51Z</time>
      </trkpt>
      <trkpt lat="44.30089" lon="6.90241">
        <ele>1419.6</ele>
        <time>2022-07-19T10:02:52Z</time>
      </trkpt>
      <trkpt lat="44.30091" lon="6.90241">
        <ele>1419.8</ele>
        <time>2022-07-19T10:02:53Z</time>
      </trkpt>
      <trkpt lat="44.30094" lon="6.90242">
        <ele>1419.8</ele>
        <time>2022-07-19T10:02:54Z</time>
      </trkpt>
      <trkpt lat="44.30096" lon="6.90243">
        <ele>1420.2</ele>
        <time>2022-07-19T10:02:55Z</time>
      </trkpt>
      <trkpt lat="44.30098" lon="6.90244">
        <ele>1420.2</ele>
        <time>2022-07-19T10:02:56Z</time>
      </trkpt>
      <trkpt lat="44.30101" lon="6.90245">
        <ele>1420.4</ele>
        <time>2022-07-19T10:02:57Z</time>
      </trkpt>
      <trkpt lat="44.30103" lon="6.90246">
        <ele>1420.4</ele>
        <time>2022-07-19T10:02:58Z</time>
      </trkpt>
      <trkpt lat="44.30105" lon="6.90247">
        <ele>1420.6</ele>
        <time>2022-07-19T10:02:59Z</time>
      </trkpt>
      <trkpt lat="44.30108" lon="6.90249">
        <ele>1420.6</ele>
        <time>2022-07-19T10:03:00Z</time>
      </trkpt>
      <trkpt lat="44.3011" lon="6.9025">
        <ele>1420.8</ele>
        <time>2022-07-19T10:03:01Z</time>
      </trkpt>
      <trkpt lat="44.30112" lon="6.90251">
        <ele>1420.8</ele>
        <time>2022-07-19T10:03:02Z</time>
      </trkpt>
      <trkpt lat="44.30114" lon="6.90253">
        <ele>1421.2</ele>
        <time>2022-07-19T10:03:03Z</time>
      </trkpt>
      <trkpt lat="44.30116" lon="6.90255">
        <ele>1421.2</ele>
        <time>2022-07-19T10:03:04Z</time>
      </trkpt>
      <trkpt lat="44.30118" lon="6.90257">
        <ele>1421.4</ele>
        <time>2022-07-19T10:03:05Z</time>
      </trkpt>
      <trkpt lat="44.3012" lon="6.90259">
        <ele>1421.4</ele>
        <time>2022-07-19T10:03:06Z</time>
      </trkpt>
      <trkpt lat="44.30122" lon="6.90261">
        <ele>1421.6</ele>
        <time>2022-07-19T10:03:07Z</time>
      </trkpt>
      <trkpt lat="44.30123" lon="6.90263">
        <ele>1421.6</ele>
        <time>2022-07-19T10:03:08Z</time>
      </trkpt>
      <trkpt lat="44.30125" lon="6.90265">
        <ele>1422</ele>
        <time>2022-07-19T10:03:09Z</time>
      </trkpt>
      <trkpt lat="44.30126" lon="6.90267">
        <ele>1422.2</ele>
        <time>2022-07-19T10:03:10Z</time>
      </trkpt>
      <trkpt lat="44.30127" lon="6.9027">
        <ele>1422.2</ele>
        <time>2022-07-19T10:03:11Z</time>
      </trkpt>
      <trkpt lat="44.30128" lon="6.90272">
        <ele>1422.6</ele>
        <time>2022-07-19T10:03:12Z</time>
      </trkpt>
      <trkpt lat="44.30129" lon="6.90274">
        <ele>1422.6</ele>
        <time>2022-07-19T10:03:13Z</time>
      </trkpt>
      <trkpt lat="44.3013" lon="6.90277">
        <ele>1422.8</ele>
        <time>2022-07-19T10:03:14Z</time>
      </trkpt>
      <trkpt lat="44.30131" lon="6.9028">
        <ele>1423</ele>
        <time>2022-07-19T10:03:15Z</time>
      </trkpt>
      <trkpt lat="44.30132" lon="6.90282">
        <ele>1423</ele>
        <time>2022-07-19T10:03:16Z</time>
      </trkpt>
      <trkpt lat="44.30133" lon="6.90285">
        <ele>1423.4</ele>
        <time>2022-07-19T10:03:17Z</time>
      </trkpt>
      <trkpt lat="44.30134" lon="6.90288">
        <ele>1423.4</ele>
        <time>2022-07-19T10:03:18Z</time>
      </trkpt>
      <trkpt lat="44.30135" lon="6.90291">
        <ele>1423.6</ele>
        <time>2022-07-19T10:03:19Z</time>
      </trkpt>
      <trkpt lat="44.30136" lon="6.90294">
        <ele>1423.6</ele>
        <time>2022-07-19T10:03:20Z</time>
      </trkpt>
      <trkpt lat="44.30136" lon="6.90296">
        <ele>1424</ele>
        <time>2022-07-19T10:03:21Z</time>
      </trkpt>
      <trkpt lat="44.30137" lon="6.90299">
        <ele>1424</ele>
        <time>2022-07-19T10:03:22Z</time>
      </trkpt>
      <trkpt lat="44.30138" lon="6.90301">
        <ele>1424.2</ele>
        <time>2022-07-19T10:03:23Z</time>
      </trkpt>
      <trkpt lat="44.30139" lon="6.90304">
        <ele>1424.2</ele>
        <time>2022-07-19T10:03:24Z</time>
      </trkpt>
      <trkpt lat="44.3014" lon="6.90307">
        <ele>1424.6</ele>
        <time>2022-07-19T10:03:25Z</time>
      </trkpt>
      <trkpt lat="44.30141" lon="6.90309">
        <ele>1424.6</ele>
        <time>2022-07-19T10:03:26Z</time>
      </trkpt>
      <trkpt lat="44.30142" lon="6.90312">
        <ele>1424.8</ele>
        <time>2022-07-19T10:03:27Z</time>
      </trkpt>
      <trkpt lat="44.30143" lon="6.90314">
        <ele>1424.8</ele>
        <time>2022-07-19T10:03:28Z</time>
      </trkpt>
      <trkpt lat="44.30145" lon="6.90317">
        <ele>1425.2</ele>
        <time>2022-07-19T10:03:29Z</time>
      </trkpt>
      <trkpt lat="44.30146" lon="6.90319">
        <ele>1425.4</ele>
        <time>2022-07-19T10:03:30Z</time>
      </trkpt>
      <trkpt lat="44.30148" lon="6.90321">
        <ele>1425.4</ele>
        <time>2022-07-19T10:03:31Z</time>
      </trkpt>
      <trkpt lat="44.3015" lon="6.90323">
        <ele>1425.6</ele>
        <time>2022-07-19T10:03:32Z</time>
      </trkpt>
      <trkpt lat="44.30151" lon="6.90325">
        <ele>1425.6</ele>
        <time>2022-07-19T10:03:33Z</time>
      </trkpt>
      <trkpt lat="44.30153" lon="6.90326">
        <ele>1426</ele>
        <time>2022-07-19T10:03:34Z</time>
      </trkpt>
      <trkpt lat="44.30154" lon="6.90327">
        <ele>1426</ele>
        <time>2022-07-19T10:03:35Z</time>
      </trkpt>
      <trkpt lat="44.30156" lon="6.90328">
        <ele>1426.2</ele>
        <time>2022-07-19T10:03:36Z</time>
      </trkpt>
      <trkpt lat="44.30158" lon="6.90328">
        <ele>1426.2</ele>
        <time>2022-07-19T10:03:37Z</time>
      </trkpt>
      <trkpt lat="44.3016" lon="6.90329">
        <ele>1426.6</ele>
        <time>2022-07-19T10:03:38Z</time>
      </trkpt>
      <trkpt lat="44.30162" lon="6.9033">
        <ele>1426.6</ele>
        <time>2022-07-19T10:03:39Z</time>
      </trkpt>
      <trkpt lat="44.30164" lon="6.90331">
        <ele>1426.8</ele>
        <time>2022-07-19T10:03:40Z</time>
      </trkpt>
      <trkpt lat="44.30165" lon="6.90331">
        <ele>1426.8</ele>
        <time>2022-07-19T10:03:41Z</time>
      </trkpt>
      <trkpt lat="44.30167" lon="6.90332">
        <ele>1427.2</ele>
        <time>2022-07-19T10:03:42Z</time>
      </trkpt>
      <trkpt lat="44.30169" lon="6.90333">
        <ele>1427.4</ele>
        <time>2022-07-19T10:03:43Z</time>
      </trkpt>
      <trkpt lat="44.30171" lon="6.90334">
        <ele>1427.4</ele>
        <time>2022-07-19T10:03:44Z</time>
      </trkpt>
      <trkpt lat="44.30173" lon="6.90334">
        <ele>1427.8</ele>
        <time>2022-07-19T10:03:45Z</time>
      </trkpt>
      <trkpt lat="44.30175" lon="6.90335">
        <ele>1427.8</ele>
        <time>2022-07-19T10:03:46Z</time>
      </trkpt>
      <trkpt lat="44.30178" lon="6.90336">
        <ele>1428.2</ele>
        <time>2022-07-19T10:03:47Z</time>
      </trkpt>
      <trkpt lat="44.3018" lon="6.90337">
        <ele>1428.2</ele>
        <time>2022-07-19T10:03:48Z</time>
      </trkpt>
      <trkpt lat="44.30182" lon="6.90338">
        <ele>1428.4</ele>
        <time>2022-07-19T10:03:49Z</time>
      </trkpt>
      <trkpt lat="44.30184" lon="6.90339">
        <ele>1428.4</ele>
        <time>2022-07-19T10:03:50Z</time>
      </trkpt>
      <trkpt lat="44.30185" lon="6.90339">
        <ele>1428.6</ele>
        <time>2022-07-19T10:03:51Z</time>
      </trkpt>
      <trkpt lat="44.30187" lon="6.9034">
        <ele>1428.6</ele>
        <time>2022-07-19T10:03:52Z</time>
      </trkpt>
      <trkpt lat="44.30189" lon="6.9034">
        <ele>1429</ele>
        <time>2022-07-19T10:03:53Z</time>
      </trkpt>
      <trkpt lat="44.30191" lon="6.9034">
        <ele>1429.2</ele>
        <time>2022-07-19T10:03:54Z</time>
      </trkpt>
      <trkpt lat="44.30193" lon="6.9034">
        <ele>1429.6</ele>
        <time>2022-07-19T10:03:55Z</time>
      </trkpt>
      <trkpt lat="44.30195" lon="6.90341">
        <ele>1429.6</ele>
        <time>2022-07-19T10:03:56Z</time>
      </trkpt>
      <trkpt lat="44.30197" lon="6.90341">
        <ele>1429.6</ele>
        <time>2022-07-19T10:03:57Z</time>
      </trkpt>
      <trkpt lat="44.302" lon="6.90341">
        <ele>1429.8</ele>
        <time>2022-07-19T10:03:58Z</time>
      </trkpt>
      <trkpt lat="44.30201" lon="6.90341">
        <ele>1429.8</ele>
        <time>2022-07-19T10:03:59Z</time>
      </trkpt>
      <trkpt lat="44.30203" lon="6.90341">
        <ele>1430</ele>
        <time>2022-07-19T10:04:00Z</time>
      </trkpt>
      <trkpt lat="44.30206" lon="6.90341">
        <ele>1430</ele>
        <time>2022-07-19T10:04:01Z</time>
      </trkpt>
      <trkpt lat="44.30208" lon="6.90342">
        <ele>1430.4</ele>
        <time>2022-07-19T10:04:02Z</time>
      </trkpt>
      <trkpt lat="44.3021" lon="6.90342">
        <ele>1430.4</ele>
        <time>2022-07-19T10:04:03Z</time>
      </trkpt>
      <trkpt lat="44.30212" lon="6.90342">
        <ele>1430.8</ele>
        <time>2022-07-19T10:04:04Z</time>
      </trkpt>
      <trkpt lat="44.30214" lon="6.90341">
        <ele>1430.8</ele>
        <time>2022-07-19T10:04:05Z</time>
      </trkpt>
      <trkpt lat="44.30217" lon="6.90341">
        <ele>1431</ele>
        <time>2022-07-19T10:04:06Z</time>
      </trkpt>
      <trkpt lat="44.30219" lon="6.90341">
        <ele>1431</ele>
        <time>2022-07-19T10:04:07Z</time>
      </trkpt>
      <trkpt lat="44.30221" lon="6.9034">
        <ele>1431.4</ele>
        <time>2022-07-19T10:04:08Z</time>
      </trkpt>
      <trkpt lat="44.30224" lon="6.9034">
        <ele>1431.4</ele>
        <time>2022-07-19T10:04:09Z</time>
      </trkpt>
      <trkpt lat="44.30226" lon="6.9034">
        <ele>1431.6</ele>
        <time>2022-07-19T10:04:10Z</time>
      </trkpt>
      <trkpt lat="44.30228" lon="6.90339">
        <ele>1431.6</ele>
        <time>2022-07-19T10:04:11Z</time>
      </trkpt>
      <trkpt lat="44.3023" lon="6.90339">
        <ele>1432</ele>
        <time>2022-07-19T10:04:12Z</time>
      </trkpt>
      <trkpt lat="44.30232" lon="6.90339">
        <ele>1432</ele>
        <time>2022-07-19T10:04:13Z</time>
      </trkpt>
      <trkpt lat="44.30234" lon="6.90339">
        <ele>1432.2</ele>
        <time>2022-07-19T10:04:14Z</time>
      </trkpt>
      <trkpt lat="44.30236" lon="6.90339">
        <ele>1432.2</ele>
        <time>2022-07-19T10:04:15Z</time>
      </trkpt>
      <trkpt lat="44.30238" lon="6.90338">
        <ele>1432.4</ele>
        <time>2022-07-19T10:04:16Z</time>
      </trkpt>
      <trkpt lat="44.30239" lon="6.90338">
        <ele>1432.4</ele>
        <time>2022-07-19T10:04:17Z</time>
      </trkpt>
      <trkpt lat="44.30241" lon="6.90338">
        <ele>1432.8</ele>
        <time>2022-07-19T10:04:18Z</time>
      </trkpt>
      <trkpt lat="44.30243" lon="6.90337">
        <ele>1433</ele>
        <time>2022-07-19T10:04:19Z</time>
      </trkpt>
      <trkpt lat="44.30245" lon="6.90337">
        <ele>1433</ele>
        <time>2022-07-19T10:04:20Z</time>
      </trkpt>
      <trkpt lat="44.30247" lon="6.90336">
        <ele>1433.2</ele>
        <time>2022-07-19T10:04:21Z</time>
      </trkpt>
      <trkpt lat="44.30249" lon="6.90335">
        <ele>1433.2</ele>
        <time>2022-07-19T10:04:22Z</time>
      </trkpt>
      <trkpt lat="44.30252" lon="6.90335">
        <ele>1433.6</ele>
        <time>2022-07-19T10:04:23Z</time>
      </trkpt>
      <trkpt lat="44.30254" lon="6.90335">
        <ele>1433.6</ele>
        <time>2022-07-19T10:04:24Z</time>
      </trkpt>
      <trkpt lat="44.30256" lon="6.90334">
        <ele>1434</ele>
        <time>2022-07-19T10:04:25Z</time>
      </trkpt>
      <trkpt lat="44.30258" lon="6.90333">
        <ele>1434</ele>
        <time>2022-07-19T10:04:26Z</time>
      </trkpt>
      <trkpt lat="44.3026" lon="6.90333">
        <ele>1434.2</ele>
        <time>2022-07-19T10:04:27Z</time>
      </trkpt>
      <trkpt lat="44.30262" lon="6.90332">
        <ele>1434.2</ele>
        <time>2022-07-19T10:04:28Z</time>
      </trkpt>
      <trkpt lat="44.30264" lon="6.90331">
        <ele>1434.6</ele>
        <time>2022-07-19T10:04:29Z</time>
      </trkpt>
      <trkpt lat="44.30266" lon="6.9033">
        <ele>1434.6</ele>
        <time>2022-07-19T10:04:30Z</time>
      </trkpt>
      <trkpt lat="44.30268" lon="6.90328">
        <ele>1434.8</ele>
        <time>2022-07-19T10:04:31Z</time>
      </trkpt>
      <trkpt lat="44.3027" lon="6.90327">
        <ele>1434.8</ele>
        <time>2022-07-19T10:04:32Z</time>
      </trkpt>
      <trkpt lat="44.30272" lon="6.90325">
        <ele>1435.2</ele>
        <time>2022-07-19T10:04:33Z</time>
      </trkpt>
      <trkpt lat="44.30273" lon="6.90323">
        <ele>1435.4</ele>
        <time>2022-07-19T10:04:34Z</time>
      </trkpt>
      <trkpt lat="44.30275" lon="6.90323">
        <ele>1435.4</ele>
        <time>2022-07-19T10:04:35Z</time>
      </trkpt>
      <trkpt lat="44.30277" lon="6.90321">
        <ele>1435.6</ele>
        <time>2022-07-19T10:04:36Z</time>
      </trkpt>
      <trkpt lat="44.30278" lon="6.90319">
        <ele>1435.6</ele>
        <time>2022-07-19T10:04:37Z</time>
      </trkpt>
      <trkpt lat="44.30279" lon="6.90318">
        <ele>1436</ele>
        <time>2022-07-19T10:04:38Z</time>
      </trkpt>
      <trkpt lat="44.30281" lon="6.90318">
        <ele>1436</ele>
        <time>2022-07-19T10:04:39Z</time>
      </trkpt>
      <trkpt lat="44.30283" lon="6.90318">
        <ele>1436.2</ele>
        <time>2022-07-19T10:04:40Z</time>
      </trkpt>
      <trkpt lat="44.30285" lon="6.90318">
        <ele>1436.2</ele>
        <time>2022-07-19T10:04:41Z</time>
      </trkpt>
      <trkpt lat="44.30286" lon="6.90318">
        <ele>1436.6</ele>
        <time>2022-07-19T10:04:42Z</time>
      </trkpt>
      <trkpt lat="44.30288" lon="6.90318">
        <ele>1436.6</ele>
        <time>2022-07-19T10:04:43Z</time>
      </trkpt>
      <trkpt lat="44.30289" lon="6.90316">
        <ele>1436.8</ele>
        <time>2022-07-19T10:04:44Z</time>
      </trkpt>
      <trkpt lat="44.30291" lon="6.90316">
        <ele>1437</ele>
        <time>2022-07-19T10:04:45Z</time>
      </trkpt>
      <trkpt lat="44.30292" lon="6.90315">
        <ele>1437</ele>
        <time>2022-07-19T10:04:46Z</time>
      </trkpt>
      <trkpt lat="44.30294" lon="6.90316">
        <ele>1437.2</ele>
        <time>2022-07-19T10:04:47Z</time>
      </trkpt>
      <trkpt lat="44.30296" lon="6.90316">
        <ele>1437.6</ele>
        <time>2022-07-19T10:04:48Z</time>
      </trkpt>
      <trkpt lat="44.30298" lon="6.90316">
        <ele>1437.8</ele>
        <time>2022-07-19T10:04:49Z</time>
      </trkpt>
      <trkpt lat="44.30299" lon="6.90316">
        <ele>1437.8</ele>
        <time>2022-07-19T10:04:50Z</time>
      </trkpt>
      <trkpt lat="44.30301" lon="6.90315">
        <ele>1438</ele>
        <time>2022-07-19T10:04:51Z</time>
      </trkpt>
      <trkpt lat="44.30303" lon="6.90315">
        <ele>1438.2</ele>
        <time>2022-07-19T10:04:52Z</time>
      </trkpt>
      <trkpt lat="44.30305" lon="6.90316">
        <ele>1438.6</ele>
        <time>2022-07-19T10:04:53Z</time>
      </trkpt>
      <trkpt lat="44.30307" lon="6.90317">
        <ele>1438.6</ele>
        <time>2022-07-19T10:04:54Z</time>
      </trkpt>
      <trkpt lat="44.30309" lon="6.90318">
        <ele>1438.8</ele>
        <time>2022-07-19T10:04:55Z</time>
      </trkpt>
      <trkpt lat="44.30311" lon="6.90319">
        <ele>1438.8</ele>
        <time>2022-07-19T10:04:56Z</time>
      </trkpt>
      <trkpt lat="44.30313" lon="6.90319">
        <ele>1439</ele>
        <time>2022-07-19T10:04:57Z</time>
      </trkpt>
      <trkpt lat="44.30314" lon="6.90319">
        <ele>1439.2</ele>
        <time>2022-07-19T10:04:58Z</time>
      </trkpt>
      <trkpt lat="44.30316" lon="6.90321">
        <ele>1439.2</ele>
        <time>2022-07-19T10:04:59Z</time>
      </trkpt>
      <trkpt lat="44.30317" lon="6.90321">
        <ele>1439.6</ele>
        <time>2022-07-19T10:05:00Z</time>
      </trkpt>
      <trkpt lat="44.30319" lon="6.90321">
        <ele>1439.6</ele>
        <time>2022-07-19T10:05:01Z</time>
      </trkpt>
      <trkpt lat="44.3032" lon="6.90322">
        <ele>1440</ele>
        <time>2022-07-19T10:05:02Z</time>
      </trkpt>
      <trkpt lat="44.30322" lon="6.90323">
        <ele>1440</ele>
        <time>2022-07-19T10:05:03Z</time>
      </trkpt>
      <trkpt lat="44.30324" lon="6.90323">
        <ele>1440.2</ele>
        <time>2022-07-19T10:05:04Z</time>
      </trkpt>
      <trkpt lat="44.30325" lon="6.90324">
        <ele>1440.2</ele>
        <time>2022-07-19T10:05:05Z</time>
      </trkpt>
      <trkpt lat="44.30327" lon="6.90325">
        <ele>1440.6</ele>
        <time>2022-07-19T10:05:06Z</time>
      </trkpt>
      <trkpt lat="44.30329" lon="6.90326">
        <ele>1440.6</ele>
        <time>2022-07-19T10:05:07Z</time>
      </trkpt>
      <trkpt lat="44.30331" lon="6.90327">
        <ele>1441</ele>
        <time>2022-07-19T10:05:08Z</time>
      </trkpt>
      <trkpt lat="44.30333" lon="6.90328">
        <ele>1441.2</ele>
        <time>2022-07-19T10:05:09Z</time>
      </trkpt>
      <trkpt lat="44.30336" lon="6.90328">
        <ele>1441.2</ele>
        <time>2022-07-19T10:05:10Z</time>
      </trkpt>
      <trkpt lat="44.30338" lon="6.90329">
        <ele>1441.6</ele>
        <time>2022-07-19T10:05:11Z</time>
      </trkpt>
      <trkpt lat="44.3034" lon="6.9033">
        <ele>1441.6</ele>
        <time>2022-07-19T10:05:12Z</time>
      </trkpt>
      <trkpt lat="44.30341" lon="6.90331">
        <ele>1441.8</ele>
        <time>2022-07-19T10:05:13Z</time>
      </trkpt>
      <trkpt lat="44.30343" lon="6.90332">
        <ele>1441.8</ele>
        <time>2022-07-19T10:05:14Z</time>
      </trkpt>
      <trkpt lat="44.30345" lon="6.90333">
        <ele>1442.2</ele>
        <time>2022-07-19T10:05:15Z</time>
      </trkpt>
      <trkpt lat="44.30347" lon="6.90333">
        <ele>1442.2</ele>
        <time>2022-07-19T10:05:16Z</time>
      </trkpt>
      <trkpt lat="44.30349" lon="6.90333">
        <ele>1442.6</ele>
        <time>2022-07-19T10:05:17Z</time>
      </trkpt>
      <trkpt lat="44.30351" lon="6.90334">
        <ele>1442.6</ele>
        <time>2022-07-19T10:05:18Z</time>
      </trkpt>
      <trkpt lat="44.30352" lon="6.90334">
        <ele>1442.8</ele>
        <time>2022-07-19T10:05:19Z</time>
      </trkpt>
      <trkpt lat="44.30354" lon="6.90334">
        <ele>1443</ele>
        <time>2022-07-19T10:05:21Z</time>
      </trkpt>
      <trkpt lat="44.30356" lon="6.90333">
        <ele>1443.2</ele>
        <time>2022-07-19T10:05:22Z</time>
      </trkpt>
      <trkpt lat="44.30358" lon="6.90333">
        <ele>1443.2</ele>
        <time>2022-07-19T10:05:23Z</time>
      </trkpt>
      <trkpt lat="44.30359" lon="6.90334">
        <ele>1443.6</ele>
        <time>2022-07-19T10:05:24Z</time>
      </trkpt>
      <trkpt lat="44.30361" lon="6.90334">
        <ele>1443.6</ele>
        <time>2022-07-19T10:05:25Z</time>
      </trkpt>
      <trkpt lat="44.30362" lon="6.90334">
        <ele>1444</ele>
        <time>2022-07-19T10:05:26Z</time>
      </trkpt>
      <trkpt lat="44.30364" lon="6.90334">
        <ele>1444</ele>
        <time>2022-07-19T10:05:27Z</time>
      </trkpt>
      <trkpt lat="44.30366" lon="6.90334">
        <ele>1444.2</ele>
        <time>2022-07-19T10:05:28Z</time>
      </trkpt>
      <trkpt lat="44.30367" lon="6.90333">
        <ele>1444.2</ele>
        <time>2022-07-19T10:05:29Z</time>
      </trkpt>
      <trkpt lat="44.30369" lon="6.90333">
        <ele>1444.4</ele>
        <time>2022-07-19T10:05:30Z</time>
      </trkpt>
      <trkpt lat="44.30371" lon="6.90333">
        <ele>1444.4</ele>
        <time>2022-07-19T10:05:31Z</time>
      </trkpt>
      <trkpt lat="44.30373" lon="6.90333">
        <ele>1444.8</ele>
        <time>2022-07-19T10:05:32Z</time>
      </trkpt>
      <trkpt lat="44.30374" lon="6.90332">
        <ele>1444.8</ele>
        <time>2022-07-19T10:05:33Z</time>
      </trkpt>
      <trkpt lat="44.30376" lon="6.90332">
        <ele>1445</ele>
        <time>2022-07-19T10:05:34Z</time>
      </trkpt>
      <trkpt lat="44.30377" lon="6.90332">
        <ele>1445</ele>
        <time>2022-07-19T10:05:35Z</time>
      </trkpt>
      <trkpt lat="44.30379" lon="6.90332">
        <ele>1445.4</ele>
        <time>2022-07-19T10:05:36Z</time>
      </trkpt>
      <trkpt lat="44.30382" lon="6.90332">
        <ele>1445.4</ele>
        <time>2022-07-19T10:05:37Z</time>
      </trkpt>
      <trkpt lat="44.30384" lon="6.90333">
        <ele>1445.6</ele>
        <time>2022-07-19T10:05:38Z</time>
      </trkpt>
      <trkpt lat="44.30386" lon="6.90333">
        <ele>1445.6</ele>
        <time>2022-07-19T10:05:39Z</time>
      </trkpt>
      <trkpt lat="44.30388" lon="6.90333">
        <ele>1445.8</ele>
        <time>2022-07-19T10:05:40Z</time>
      </trkpt>
      <trkpt lat="44.3039" lon="6.90335">
        <ele>1445.8</ele>
        <time>2022-07-19T10:05:41Z</time>
      </trkpt>
      <trkpt lat="44.30392" lon="6.90336">
        <ele>1446.2</ele>
        <time>2022-07-19T10:05:42Z</time>
      </trkpt>
      <trkpt lat="44.30396" lon="6.90339">
        <ele>1446.2</ele>
        <time>2022-07-19T10:05:43Z</time>
      </trkpt>
      <trkpt lat="44.30398" lon="6.90341">
        <ele>1446.4</ele>
        <time>2022-07-19T10:05:44Z</time>
      </trkpt>
      <trkpt lat="44.304" lon="6.90344">
        <ele>1446.4</ele>
        <time>2022-07-19T10:05:45Z</time>
      </trkpt>
      <trkpt lat="44.30403" lon="6.90346">
        <ele>1446.8</ele>
        <time>2022-07-19T10:05:46Z</time>
      </trkpt>
      <trkpt lat="44.30405" lon="6.90348">
        <ele>1446.8</ele>
        <time>2022-07-19T10:05:47Z</time>
      </trkpt>
      <trkpt lat="44.30408" lon="6.9035">
        <ele>1447</ele>
        <time>2022-07-19T10:05:48Z</time>
      </trkpt>
      <trkpt lat="44.3041" lon="6.90351">
        <ele>1447</ele>
        <time>2022-07-19T10:05:49Z</time>
      </trkpt>
      <trkpt lat="44.30412" lon="6.90353">
        <ele>1447.4</ele>
        <time>2022-07-19T10:05:50Z</time>
      </trkpt>
      <trkpt lat="44.30414" lon="6.90355">
        <ele>1447.4</ele>
        <time>2022-07-19T10:05:51Z</time>
      </trkpt>
      <trkpt lat="44.30416" lon="6.90356">
        <ele>1447.6</ele>
        <time>2022-07-19T10:05:52Z</time>
      </trkpt>
      <trkpt lat="44.30418" lon="6.90357">
        <ele>1447.8</ele>
        <time>2022-07-19T10:05:53Z</time>
      </trkpt>
      <trkpt lat="44.30419" lon="6.90359">
        <ele>1447.8</ele>
        <time>2022-07-19T10:05:54Z</time>
      </trkpt>
      <trkpt lat="44.30421" lon="6.9036">
        <ele>1448.2</ele>
        <time>2022-07-19T10:05:55Z</time>
      </trkpt>
      <trkpt lat="44.30423" lon="6.90362">
        <ele>1448.2</ele>
        <time>2022-07-19T10:05:56Z</time>
      </trkpt>
      <trkpt lat="44.30425" lon="6.90363">
        <ele>1448.4</ele>
        <time>2022-07-19T10:05:57Z</time>
      </trkpt>
      <trkpt lat="44.30426" lon="6.90364">
        <ele>1448.4</ele>
        <time>2022-07-19T10:05:58Z</time>
      </trkpt>
      <trkpt lat="44.30428" lon="6.90366">
        <ele>1448.8</ele>
        <time>2022-07-19T10:05:59Z</time>
      </trkpt>
      <trkpt lat="44.30429" lon="6.90368">
        <ele>1448.8</ele>
        <time>2022-07-19T10:06:00Z</time>
      </trkpt>
      <trkpt lat="44.30431" lon="6.90369">
        <ele>1449</ele>
        <time>2022-07-19T10:06:01Z</time>
      </trkpt>
      <trkpt lat="44.30432" lon="6.9037">
        <ele>1449</ele>
        <time>2022-07-19T10:06:02Z</time>
      </trkpt>
      <trkpt lat="44.30434" lon="6.90372">
        <ele>1449.4</ele>
        <time>2022-07-19T10:06:03Z</time>
      </trkpt>
      <trkpt lat="44.30436" lon="6.90373">
        <ele>1449.4</ele>
        <time>2022-07-19T10:06:04Z</time>
      </trkpt>
      <trkpt lat="44.30438" lon="6.90374">
        <ele>1449.6</ele>
        <time>2022-07-19T10:06:05Z</time>
      </trkpt>
      <trkpt lat="44.3044" lon="6.90375">
        <ele>1449.6</ele>
        <time>2022-07-19T10:06:06Z</time>
      </trkpt>
      <trkpt lat="44.30442" lon="6.90376">
        <ele>1450</ele>
        <time>2022-07-19T10:06:07Z</time>
      </trkpt>
      <trkpt lat="44.30444" lon="6.90377">
        <ele>1450</ele>
        <time>2022-07-19T10:06:08Z</time>
      </trkpt>
      <trkpt lat="44.30445" lon="6.90378">
        <ele>1450.2</ele>
        <time>2022-07-19T10:06:09Z</time>
      </trkpt>
      <trkpt lat="44.30448" lon="6.90379">
        <ele>1450.2</ele>
        <time>2022-07-19T10:06:10Z</time>
      </trkpt>
      <trkpt lat="44.3045" lon="6.90381">
        <ele>1450.6</ele>
        <time>2022-07-19T10:06:11Z</time>
      </trkpt>
      <trkpt lat="44.30452" lon="6.90382">
        <ele>1450.6</ele>
        <time>2022-07-19T10:06:12Z</time>
      </trkpt>
      <trkpt lat="44.30453" lon="6.90383">
        <ele>1451</ele>
        <time>2022-07-19T10:06:13Z</time>
      </trkpt>
      <trkpt lat="44.30455" lon="6.90385">
        <ele>1451</ele>
        <time>2022-07-19T10:06:14Z</time>
      </trkpt>
      <trkpt lat="44.30457" lon="6.90386">
        <ele>1451.2</ele>
        <time>2022-07-19T10:06:15Z</time>
      </trkpt>
      <trkpt lat="44.30459" lon="6.90387">
        <ele>1451.2</ele>
        <time>2022-07-19T10:06:16Z</time>
      </trkpt>
      <trkpt lat="44.3046" lon="6.90389">
        <ele>1451.6</ele>
        <time>2022-07-19T10:06:17Z</time>
      </trkpt>
      <trkpt lat="44.30461" lon="6.90391">
        <ele>1451.6</ele>
        <time>2022-07-19T10:06:18Z</time>
      </trkpt>
      <trkpt lat="44.30463" lon="6.90393">
        <ele>1451.8</ele>
        <time>2022-07-19T10:06:19Z</time>
      </trkpt>
      <trkpt lat="44.30464" lon="6.90395">
        <ele>1451.8</ele>
        <time>2022-07-19T10:06:20Z</time>
      </trkpt>
      <trkpt lat="44.30466" lon="6.90396">
        <ele>1452.2</ele>
        <time>2022-07-19T10:06:21Z</time>
      </trkpt>
      <trkpt lat="44.30468" lon="6.90398">
        <ele>1452.2</ele>
        <time>2022-07-19T10:06:22Z</time>
      </trkpt>
      <trkpt lat="44.30469" lon="6.90401">
        <ele>1452.4</ele>
        <time>2022-07-19T10:06:23Z</time>
      </trkpt>
      <trkpt lat="44.30471" lon="6.90403">
        <ele>1452.4</ele>
        <time>2022-07-19T10:06:24Z</time>
      </trkpt>
      <trkpt lat="44.30473" lon="6.90406">
        <ele>1452.8</ele>
        <time>2022-07-19T10:06:25Z</time>
      </trkpt>
      <trkpt lat="44.30474" lon="6.90409">
        <ele>1452.8</ele>
        <time>2022-07-19T10:06:26Z</time>
      </trkpt>
      <trkpt lat="44.30475" lon="6.90412">
        <ele>1453</ele>
        <time>2022-07-19T10:06:27Z</time>
      </trkpt>
      <trkpt lat="44.30477" lon="6.90415">
        <ele>1453.4</ele>
        <time>2022-07-19T10:06:28Z</time>
      </trkpt>
      <trkpt lat="44.30478" lon="6.90418">
        <ele>1453.6</ele>
        <time>2022-07-19T10:06:29Z</time>
      </trkpt>
      <trkpt lat="44.30479" lon="6.90421">
        <ele>1453.6</ele>
        <time>2022-07-19T10:06:30Z</time>
      </trkpt>
      <trkpt lat="44.30481" lon="6.90424">
        <ele>1454</ele>
        <time>2022-07-19T10:06:31Z</time>
      </trkpt>
      <trkpt lat="44.30482" lon="6.90427">
        <ele>1454</ele>
        <time>2022-07-19T10:06:32Z</time>
      </trkpt>
      <trkpt lat="44.30484" lon="6.90429">
        <ele>1454.4</ele>
        <time>2022-07-19T10:06:33Z</time>
      </trkpt>
      <trkpt lat="44.30485" lon="6.90431">
        <ele>1454.6</ele>
        <time>2022-07-19T10:06:34Z</time>
      </trkpt>
      <trkpt lat="44.30487" lon="6.90433">
        <ele>1454.6</ele>
        <time>2022-07-19T10:06:35Z</time>
      </trkpt>
      <trkpt lat="44.30488" lon="6.90435">
        <ele>1455</ele>
        <time>2022-07-19T10:06:36Z</time>
      </trkpt>
      <trkpt lat="44.30489" lon="6.90437">
        <ele>1455</ele>
        <time>2022-07-19T10:06:37Z</time>
      </trkpt>
      <trkpt lat="44.30491" lon="6.90439">
        <ele>1455.4</ele>
        <time>2022-07-19T10:06:38Z</time>
      </trkpt>
      <trkpt lat="44.30492" lon="6.9044">
        <ele>1455.4</ele>
        <time>2022-07-19T10:06:39Z</time>
      </trkpt>
      <trkpt lat="44.30493" lon="6.90442">
        <ele>1455.6</ele>
        <time>2022-07-19T10:06:40Z</time>
      </trkpt>
      <trkpt lat="44.30495" lon="6.90443">
        <ele>1455.6</ele>
        <time>2022-07-19T10:06:41Z</time>
      </trkpt>
      <trkpt lat="44.30496" lon="6.90444">
        <ele>1455.8</ele>
        <time>2022-07-19T10:06:42Z</time>
      </trkpt>
      <trkpt lat="44.30498" lon="6.90445">
        <ele>1455.8</ele>
        <time>2022-07-19T10:06:43Z</time>
      </trkpt>
      <trkpt lat="44.30499" lon="6.90447">
        <ele>1456</ele>
        <time>2022-07-19T10:06:44Z</time>
      </trkpt>
      <trkpt lat="44.30501" lon="6.90448">
        <ele>1456</ele>
        <time>2022-07-19T10:06:45Z</time>
      </trkpt>
      <trkpt lat="44.30502" lon="6.90449">
        <ele>1456.4</ele>
        <time>2022-07-19T10:06:46Z</time>
      </trkpt>
      <trkpt lat="44.30503" lon="6.90451">
        <ele>1456.4</ele>
        <time>2022-07-19T10:06:47Z</time>
      </trkpt>
      <trkpt lat="44.30505" lon="6.90452">
        <ele>1456.8</ele>
        <time>2022-07-19T10:06:48Z</time>
      </trkpt>
      <trkpt lat="44.30506" lon="6.90453">
        <ele>1456.8</ele>
        <time>2022-07-19T10:06:49Z</time>
      </trkpt>
      <trkpt lat="44.30508" lon="6.90455">
        <ele>1457</ele>
        <time>2022-07-19T10:06:50Z</time>
      </trkpt>
      <trkpt lat="44.30509" lon="6.90456">
        <ele>1457</ele>
        <time>2022-07-19T10:06:51Z</time>
      </trkpt>
      <trkpt lat="44.3051" lon="6.90457">
        <ele>1457.4</ele>
        <time>2022-07-19T10:06:52Z</time>
      </trkpt>
      <trkpt lat="44.30512" lon="6.90458">
        <ele>1457.6</ele>
        <time>2022-07-19T10:06:53Z</time>
      </trkpt>
      <trkpt lat="44.30513" lon="6.90459">
        <ele>1457.8</ele>
        <time>2022-07-19T10:06:54Z</time>
      </trkpt>
      <trkpt lat="44.30515" lon="6.9046">
        <ele>1458</ele>
        <time>2022-07-19T10:06:55Z</time>
      </trkpt>
      <trkpt lat="44.30516" lon="6.90461">
        <ele>1458</ele>
        <time>2022-07-19T10:06:56Z</time>
      </trkpt>
      <trkpt lat="44.30518" lon="6.90462">
        <ele>1458.4</ele>
        <time>2022-07-19T10:06:57Z</time>
      </trkpt>
      <trkpt lat="44.3052" lon="6.90463">
        <ele>1458.4</ele>
        <time>2022-07-19T10:06:58Z</time>
      </trkpt>
      <trkpt lat="44.30522" lon="6.90465">
        <ele>1458.6</ele>
        <time>2022-07-19T10:06:59Z</time>
      </trkpt>
      <trkpt lat="44.30522" lon="6.90465">
        <ele>1458.6</ele>
        <time>2022-07-19T10:07:00Z</time>
      </trkpt>
      <trkpt lat="44.30522" lon="6.90465">
        <ele>1459</ele>
        <time>2022-07-19T10:07:01Z</time>
      </trkpt>
      <trkpt lat="44.30522" lon="6.90464">
        <ele>1459</ele>
        <time>2022-07-19T10:07:02Z</time>
      </trkpt>
      <trkpt lat="44.30522" lon="6.90464">
        <ele>1459</ele>
        <time>2022-07-19T10:07:03Z</time>
      </trkpt>
      <trkpt lat="44.30522" lon="6.90464">
        <ele>1459</ele>
        <time>2022-07-19T10:07:05Z</time>
      </trkpt>
      <trkpt lat="44.30522" lon="6.90464">
        <ele>1459</ele>
        <time>2022-07-19T10:07:06Z</time>
      </trkpt>
      <trkpt lat="44.30523" lon="6.90464">
        <ele>1459</ele>
        <time>2022-07-19T10:07:07Z</time>
      </trkpt>
      <trkpt lat="44.30523" lon="6.90464">
        <ele>1459.2</ele>
        <time>2022-07-19T10:07:08Z</time>
      </trkpt>
      <trkpt lat="44.30523" lon="6.90464">
        <ele>1459.2</ele>
        <time>2022-07-19T10:07:09Z</time>
      </trkpt>
      <trkpt lat="44.30523" lon="6.90464">
        <ele>1459.2</ele>
        <time>2022-07-19T10:07:10Z</time>
      </trkpt>
      <trkpt lat="44.30523" lon="6.90464">
        <ele>1459.2</ele>
        <time>2022-07-19T10:07:11Z</time>
      </trkpt>
      <trkpt lat="44.30523" lon="6.90464">
        <ele>1459.2</ele>
        <time>2022-07-19T10:07:12Z</time>
      </trkpt>
      <trkpt lat="44.30523" lon="6.90464">
        <ele>1459.2</ele>
        <time>2022-07-19T10:07:13Z</time>
      </trkpt>
      <trkpt lat="44.30523" lon="6.90464">
        <ele>1459.2</ele>
        <time>2022-07-19T10:07:14Z</time>
      </trkpt>
      <trkpt lat="44.30523" lon="6.90464">
        <ele>1459.2</ele>
        <time>2022-07-19T10:07:15Z</time>
      </trkpt>
      <trkpt lat="44.30523" lon="6.90464">
        <ele>1459.2</ele>
        <time>2022-07-19T10:07:16Z</time>
      </trkpt>
      <trkpt lat="44.30524" lon="6.90464">
        <ele>1459.2</ele>
        <time>2022-07-19T10:07:17Z</time>
      </trkpt>
      <trkpt lat="44.30524" lon="6.90464">
        <ele>1459.2</ele>
        <time>2022-07-19T10:07:18Z</time>
      </trkpt>
      <trkpt lat="44.30524" lon="6.90464">
        <ele>1459.2</ele>
        <time>2022-07-19T10:07:19Z</time>
      </trkpt>
      <trkpt lat="44.30524" lon="6.90464">
        <ele>1459.2</ele>
        <time>2022-07-19T10:07:20Z</time>
      </trkpt>
      <trkpt lat="44.30524" lon="6.90464">
        <ele>1459.2</ele>
        <time>2022-07-19T10:07:21Z</time>
      </trkpt>
      <trkpt lat="44.30524" lon="6.90464">
        <ele>1459.2</ele>
        <time>2022-07-19T10:07:24Z</time>
      </trkpt>
      <trkpt lat="44.30524" lon="6.90464">
        <ele>1459.2</ele>
        <time>2022-07-19T10:07:25Z</time>
      </trkpt>
      <trkpt lat="44.30524" lon="6.90464">
        <ele>1459.6</ele>
        <time>2022-07-19T10:08:01Z</time>
      </trkpt>
      <trkpt lat="44.30524" lon="6.90464">
        <ele>1459.6</ele>
        <time>2022-07-19T10:08:02Z</time>
      </trkpt>
      <trkpt lat="44.30525" lon="6.90464">
        <ele>1459.6</ele>
        <time>2022-07-19T10:08:06Z</time>
      </trkpt>
      <trkpt lat="44.30525" lon="6.90464">
        <ele>1459.6</ele>
        <time>2022-07-19T10:08:07Z</time>
      </trkpt>
      <trkpt lat="44.30525" lon="6.90464">
        <ele>1459.6</ele>
        <time>2022-07-19T10:08:10Z</time>
      </trkpt>
      <trkpt lat="44.30525" lon="6.90464">
        <ele>1459.6</ele>
        <time>2022-07-19T10:08:11Z</time>
      </trkpt>
      <trkpt lat="44.30525" lon="6.90464">
        <ele>1459.6</ele>
        <time>2022-07-19T10:08:15Z</time>
      </trkpt>
      <trkpt lat="44.30525" lon="6.90464">
        <ele>1459.6</ele>
        <time>2022-07-19T10:08:16Z</time>
      </trkpt>
      <trkpt lat="44.30525" lon="6.90464">
        <ele>1459.6</ele>
        <time>2022-07-19T10:08:20Z</time>
      </trkpt>
      <trkpt lat="44.30525" lon="6.90464">
        <ele>1459.6</ele>
        <time>2022-07-19T10:08:21Z</time>
      </trkpt>
      <trkpt lat="44.30525" lon="6.90464">
        <ele>1459.6</ele>
        <time>2022-07-19T10:08:26Z</time>
      </trkpt>
      <trkpt lat="44.30525" lon="6.90464">
        <ele>1459.6</ele>
        <time>2022-07-19T10:08:27Z</time>
      </trkpt>
      <trkpt lat="44.30526" lon="6.90464">
        <ele>1459.6</ele>
        <time>2022-07-19T10:08:28Z</time>
      </trkpt>
      <trkpt lat="44.30526" lon="6.90464">
        <ele>1459.6</ele>
        <time>2022-07-19T10:08:29Z</time>
      </trkpt>
      <trkpt lat="44.30526" lon="6.90464">
        <ele>1459.6</ele>
        <time>2022-07-19T10:08:30Z</time>
      </trkpt>
      <trkpt lat="44.30526" lon="6.90464">
        <ele>1459.6</ele>
        <time>2022-07-19T10:08:31Z</time>
      </trkpt>
      <trkpt lat="44.30526" lon="6.90464">
        <ele>1459.6</ele>
        <time>2022-07-19T10:08:32Z</time>
      </trkpt>
      <trkpt lat="44.30526" lon="6.90464">
        <ele>1459.6</ele>
        <time>2022-07-19T10:08:33Z</time>
      </trkpt>
      <trkpt lat="44.30526" lon="6.90464">
        <ele>1459.8</ele>
        <time>2022-07-19T10:09:22Z</time>
      </trkpt>
      <trkpt lat="44.30526" lon="6.90464">
        <ele>1459.8</ele>
        <time>2022-07-19T10:09:23Z</time>
      </trkpt>
      <trkpt lat="44.30526" lon="6.90464">
        <ele>1459.8</ele>
        <time>2022-07-19T10:09:24Z</time>
      </trkpt>
      <trkpt lat="44.30526" lon="6.90464">
        <ele>1459.8</ele>
        <time>2022-07-19T10:09:26Z</time>
      </trkpt>
      <trkpt lat="44.30527" lon="6.90464">
        <ele>1459.8</ele>
        <time>2022-07-19T10:09:27Z</time>
      </trkpt>
      <trkpt lat="44.30527" lon="6.90464">
        <ele>1459.8</ele>
        <time>2022-07-19T10:09:28Z</time>
      </trkpt>
      <trkpt lat="44.30527" lon="6.90464">
        <ele>1459.8</ele>
        <time>2022-07-19T10:09:29Z</time>
      </trkpt>
      <trkpt lat="44.30527" lon="6.90464">
        <ele>1459.8</ele>
        <time>2022-07-19T10:09:30Z</time>
      </trkpt>
      <trkpt lat="44.30527" lon="6.90464">
        <ele>1459.8</ele>
        <time>2022-07-19T10:09:31Z</time>
      </trkpt>
      <trkpt lat="44.30527" lon="6.90464">
        <ele>1459.8</ele>
        <time>2022-07-19T10:09:32Z</time>
      </trkpt>
      <trkpt lat="44.30527" lon="6.90464">
        <ele>1459.8</ele>
        <time>2022-07-19T10:09:34Z</time>
      </trkpt>
      <trkpt lat="44.30527" lon="6.90464">
        <ele>1459.8</ele>
        <time>2022-07-19T10:09:35Z</time>
      </trkpt>
      <trkpt lat="44.30527" lon="6.90464">
        <ele>1459.8</ele>
        <time>2022-07-19T10:09:38Z</time>
      </trkpt>
      <trkpt lat="44.30528" lon="6.90464">
        <ele>1459.8</ele>
        <time>2022-07-19T10:09:39Z</time>
      </trkpt>
      <trkpt lat="44.30528" lon="6.90464">
        <ele>1459.8</ele>
        <time>2022-07-19T10:09:41Z</time>
      </trkpt>
      <trkpt lat="44.30528" lon="6.90464">
        <ele>1459.8</ele>
        <time>2022-07-19T10:09:42Z</time>
      </trkpt>
      <trkpt lat="44.30528" lon="6.90464">
        <ele>1459.8</ele>
        <time>2022-07-19T10:09:43Z</time>
      </trkpt>
      <trkpt lat="44.30528" lon="6.90464">
        <ele>1459.8</ele>
        <time>2022-07-19T10:09:44Z</time>
      </trkpt>
      <trkpt lat="44.30528" lon="6.90464">
        <ele>1459.6</ele>
        <time>2022-07-19T10:10:00Z</time>
      </trkpt>
      <trkpt lat="44.30528" lon="6.90464">
        <ele>1459.6</ele>
        <time>2022-07-19T10:10:01Z</time>
      </trkpt>
      <trkpt lat="44.30528" lon="6.90464">
        <ele>1459.6</ele>
        <time>2022-07-19T10:10:02Z</time>
      </trkpt>
      <trkpt lat="44.30528" lon="6.90464">
        <ele>1459.8</ele>
        <time>2022-07-19T10:10:04Z</time>
      </trkpt>
      <trkpt lat="44.30528" lon="6.90464">
        <ele>1459.8</ele>
        <time>2022-07-19T10:10:05Z</time>
      </trkpt>
      <trkpt lat="44.30529" lon="6.90464">
        <ele>1459.6</ele>
        <time>2022-07-19T10:10:26Z</time>
      </trkpt>
      <trkpt lat="44.30529" lon="6.90464">
        <ele>1459.6</ele>
        <time>2022-07-19T10:10:27Z</time>
      </trkpt>
      <trkpt lat="44.30529" lon="6.90464">
        <ele>1459.6</ele>
        <time>2022-07-19T10:10:28Z</time>
      </trkpt>
      <trkpt lat="44.30529" lon="6.90464">
        <ele>1459.8</ele>
        <time>2022-07-19T10:10:29Z</time>
      </trkpt>
      <trkpt lat="44.30529" lon="6.90464">
        <ele>1459.8</ele>
        <time>2022-07-19T10:10:30Z</time>
      </trkpt>
      <trkpt lat="44.30529" lon="6.90464">
        <ele>1459.8</ele>
        <time>2022-07-19T10:10:31Z</time>
      </trkpt>
      <trkpt lat="44.30529" lon="6.90464">
        <ele>1459.8</ele>
        <time>2022-07-19T10:10:32Z</time>
      </trkpt>
      <trkpt lat="44.30529" lon="6.90464">
        <ele>1459.8</ele>
        <time>2022-07-19T10:10:33Z</time>
      </trkpt>
      <trkpt lat="44.30529" lon="6.90464">
        <ele>1459.8</ele>
        <time>2022-07-19T10:10:34Z</time>
      </trkpt>
      <trkpt lat="44.3053" lon="6.90464">
        <ele>1459.8</ele>
        <time>2022-07-19T10:10:35Z</time>
      </trkpt>
      <trkpt lat="44.3053" lon="6.90464">
        <ele>1460</ele>
        <time>2022-07-19T10:10:36Z</time>
      </trkpt>
      <trkpt lat="44.3053" lon="6.90464">
        <ele>1460</ele>
        <time>2022-07-19T10:10:37Z</time>
      </trkpt>
      <trkpt lat="44.30531" lon="6.90463">
        <ele>1460</ele>
        <time>2022-07-19T10:10:38Z</time>
      </trkpt>
      <trkpt lat="44.30532" lon="6.90462">
        <ele>1460</ele>
        <time>2022-07-19T10:10:39Z</time>
      </trkpt>
      <trkpt lat="44.30533" lon="6.90461">
        <ele>1460</ele>
        <time>2022-07-19T10:10:40Z</time>
      </trkpt>
      <trkpt lat="44.30535" lon="6.90459">
        <ele>1460</ele>
        <time>2022-07-19T10:10:41Z</time>
      </trkpt>
      <trkpt lat="44.30536" lon="6.90458">
        <ele>1460</ele>
        <time>2022-07-19T10:10:42Z</time>
      </trkpt>
      <trkpt lat="44.30537" lon="6.90456">
        <ele>1460.2</ele>
        <time>2022-07-19T10:10:43Z</time>
      </trkpt>
      <trkpt lat="44.30538" lon="6.90455">
        <ele>1460.2</ele>
        <time>2022-07-19T10:10:44Z</time>
      </trkpt>
      <trkpt lat="44.30539" lon="6.90452">
        <ele>1460.4</ele>
        <time>2022-07-19T10:10:45Z</time>
      </trkpt>
      <trkpt lat="44.3054" lon="6.9045">
        <ele>1460.4</ele>
        <time>2022-07-19T10:10:46Z</time>
      </trkpt>
      <trkpt lat="44.3054" lon="6.90447">
        <ele>1460.4</ele>
        <time>2022-07-19T10:10:47Z</time>
      </trkpt>
      <trkpt lat="44.3054" lon="6.90445">
        <ele>1460.4</ele>
        <time>2022-07-19T10:10:48Z</time>
      </trkpt>
      <trkpt lat="44.30541" lon="6.90442">
        <ele>1460.8</ele>
        <time>2022-07-19T10:10:49Z</time>
      </trkpt>
      <trkpt lat="44.30541" lon="6.90439">
        <ele>1460.8</ele>
        <time>2022-07-19T10:10:50Z</time>
      </trkpt>
      <trkpt lat="44.30541" lon="6.90437">
        <ele>1461.2</ele>
        <time>2022-07-19T10:10:51Z</time>
      </trkpt>
      <trkpt lat="44.30541" lon="6.90435">
        <ele>1461.2</ele>
        <time>2022-07-19T10:10:52Z</time>
      </trkpt>
      <trkpt lat="44.30541" lon="6.90432">
        <ele>1461.4</ele>
        <time>2022-07-19T10:10:53Z</time>
      </trkpt>
      <trkpt lat="44.3054" lon="6.9043">
        <ele>1461.4</ele>
        <time>2022-07-19T10:10:54Z</time>
      </trkpt>
      <trkpt lat="44.3054" lon="6.90427">
        <ele>1461.4</ele>
        <time>2022-07-19T10:10:55Z</time>
      </trkpt>
      <trkpt lat="44.3054" lon="6.90425">
        <ele>1461.6</ele>
        <time>2022-07-19T10:10:56Z</time>
      </trkpt>
      <trkpt lat="44.3054" lon="6.90422">
        <ele>1461.8</ele>
        <time>2022-07-19T10:10:57Z</time>
      </trkpt>
      <trkpt lat="44.3054" lon="6.90419">
        <ele>1461.8</ele>
        <time>2022-07-19T10:10:58Z</time>
      </trkpt>
      <trkpt lat="44.3054" lon="6.90416">
        <ele>1462</ele>
        <time>2022-07-19T10:10:59Z</time>
      </trkpt>
      <trkpt lat="44.3054" lon="6.90413">
        <ele>1462</ele>
        <time>2022-07-19T10:11:00Z</time>
      </trkpt>
      <trkpt lat="44.3054" lon="6.9041">
        <ele>1462.4</ele>
        <time>2022-07-19T10:11:01Z</time>
      </trkpt>
      <trkpt lat="44.3054" lon="6.90407">
        <ele>1462.4</ele>
        <time>2022-07-19T10:11:02Z</time>
      </trkpt>
      <trkpt lat="44.3054" lon="6.90404">
        <ele>1462.6</ele>
        <time>2022-07-19T10:11:03Z</time>
      </trkpt>
      <trkpt lat="44.3054" lon="6.90401">
        <ele>1462.6</ele>
        <time>2022-07-19T10:11:04Z</time>
      </trkpt>
      <trkpt lat="44.30541" lon="6.90399">
        <ele>1462.8</ele>
        <time>2022-07-19T10:11:05Z</time>
      </trkpt>
      <trkpt lat="44.30541" lon="6.90396">
        <ele>1462.8</ele>
        <time>2022-07-19T10:11:06Z</time>
      </trkpt>
      <trkpt lat="44.30542" lon="6.90393">
        <ele>1463</ele>
        <time>2022-07-19T10:11:07Z</time>
      </trkpt>
      <trkpt lat="44.30543" lon="6.9039">
        <ele>1463</ele>
        <time>2022-07-19T10:11:08Z</time>
      </trkpt>
      <trkpt lat="44.30544" lon="6.90388">
        <ele>1463</ele>
        <time>2022-07-19T10:11:09Z</time>
      </trkpt>
      <trkpt lat="44.30544" lon="6.90385">
        <ele>1463.4</ele>
        <time>2022-07-19T10:11:10Z</time>
      </trkpt>
      <trkpt lat="44.30545" lon="6.90382">
        <ele>1463.4</ele>
        <time>2022-07-19T10:11:11Z</time>
      </trkpt>
      <trkpt lat="44.30546" lon="6.9038">
        <ele>1463.6</ele>
        <time>2022-07-19T10:11:12Z</time>
      </trkpt>
      <trkpt lat="44.30548" lon="6.90377">
        <ele>1463.8</ele>
        <time>2022-07-19T10:11:13Z</time>
      </trkpt>
      <trkpt lat="44.30549" lon="6.90375">
        <ele>1464</ele>
        <time>2022-07-19T10:11:14Z</time>
      </trkpt>
      <trkpt lat="44.3055" lon="6.90372">
        <ele>1464</ele>
        <time>2022-07-19T10:11:15Z</time>
      </trkpt>
      <trkpt lat="44.30551" lon="6.9037">
        <ele>1464.4</ele>
        <time>2022-07-19T10:11:16Z</time>
      </trkpt>
      <trkpt lat="44.30552" lon="6.90368">
        <ele>1464.4</ele>
        <time>2022-07-19T10:11:17Z</time>
      </trkpt>
      <trkpt lat="44.30553" lon="6.90365">
        <ele>1464.6</ele>
        <time>2022-07-19T10:11:18Z</time>
      </trkpt>
      <trkpt lat="44.30554" lon="6.90363">
        <ele>1464.6</ele>
        <time>2022-07-19T10:11:19Z</time>
      </trkpt>
      <trkpt lat="44.30555" lon="6.9036">
        <ele>1464.6</ele>
        <time>2022-07-19T10:11:20Z</time>
      </trkpt>
      <trkpt lat="44.30555" lon="6.90357">
        <ele>1465</ele>
        <time>2022-07-19T10:11:21Z</time>
      </trkpt>
      <trkpt lat="44.30556" lon="6.90355">
        <ele>1465</ele>
        <time>2022-07-19T10:11:22Z</time>
      </trkpt>
      <trkpt lat="44.30557" lon="6.90352">
        <ele>1465.2</ele>
        <time>2022-07-19T10:11:23Z</time>
      </trkpt>
      <trkpt lat="44.30558" lon="6.9035">
        <ele>1465.2</ele>
        <time>2022-07-19T10:11:24Z</time>
      </trkpt>
      <trkpt lat="44.30559" lon="6.90348">
        <ele>1465.2</ele>
        <time>2022-07-19T10:11:25Z</time>
      </trkpt>
      <trkpt lat="44.3056" lon="6.90346">
        <ele>1465.6</ele>
        <time>2022-07-19T10:11:26Z</time>
      </trkpt>
      <trkpt lat="44.3056" lon="6.90344">
        <ele>1465.6</ele>
        <time>2022-07-19T10:11:27Z</time>
      </trkpt>
      <trkpt lat="44.30561" lon="6.90341">
        <ele>1465.8</ele>
        <time>2022-07-19T10:11:28Z</time>
      </trkpt>
      <trkpt lat="44.30562" lon="6.90338">
        <ele>1465.8</ele>
        <time>2022-07-19T10:11:29Z</time>
      </trkpt>
      <trkpt lat="44.30563" lon="6.90336">
        <ele>1466</ele>
        <time>2022-07-19T10:11:30Z</time>
      </trkpt>
      <trkpt lat="44.30564" lon="6.90334">
        <ele>1466</ele>
        <time>2022-07-19T10:11:31Z</time>
      </trkpt>
      <trkpt lat="44.30565" lon="6.90331">
        <ele>1466.2</ele>
        <time>2022-07-19T10:11:32Z</time>
      </trkpt>
      <trkpt lat="44.30566" lon="6.90329">
        <ele>1466.2</ele>
        <time>2022-07-19T10:11:33Z</time>
      </trkpt>
      <trkpt lat="44.30568" lon="6.90328">
        <ele>1466.6</ele>
        <time>2022-07-19T10:11:34Z</time>
      </trkpt>
      <trkpt lat="44.3057" lon="6.90328">
        <ele>1466.6</ele>
        <time>2022-07-19T10:11:35Z</time>
      </trkpt>
      <trkpt lat="44.30572" lon="6.90329">
        <ele>1467</ele>
        <time>2022-07-19T10:11:36Z</time>
      </trkpt>
      <trkpt lat="44.30573" lon="6.90331">
        <ele>1467</ele>
        <time>2022-07-19T10:11:37Z</time>
      </trkpt>
      <trkpt lat="44.30574" lon="6.90333">
        <ele>1467.4</ele>
        <time>2022-07-19T10:11:38Z</time>
      </trkpt>
      <trkpt lat="44.30574" lon="6.90336">
        <ele>1467.4</ele>
        <time>2022-07-19T10:11:39Z</time>
      </trkpt>
      <trkpt lat="44.30574" lon="6.90339">
        <ele>1467.6</ele>
        <time>2022-07-19T10:11:40Z</time>
      </trkpt>
      <trkpt lat="44.30574" lon="6.90341">
        <ele>1467.6</ele>
        <time>2022-07-19T10:11:41Z</time>
      </trkpt>
      <trkpt lat="44.30573" lon="6.90344">
        <ele>1468</ele>
        <time>2022-07-19T10:11:42Z</time>
      </trkpt>
      <trkpt lat="44.30572" lon="6.90346">
        <ele>1468</ele>
        <time>2022-07-19T10:11:43Z</time>
      </trkpt>
      <trkpt lat="44.30572" lon="6.90349">
        <ele>1468.2</ele>
        <time>2022-07-19T10:11:44Z</time>
      </trkpt>
      <trkpt lat="44.30571" lon="6.90352">
        <ele>1468.2</ele>
        <time>2022-07-19T10:11:45Z</time>
      </trkpt>
      <trkpt lat="44.30571" lon="6.90354">
        <ele>1468.4</ele>
        <time>2022-07-19T10:11:46Z</time>
      </trkpt>
      <trkpt lat="44.3057" lon="6.90356">
        <ele>1468.4</ele>
        <time>2022-07-19T10:11:47Z</time>
      </trkpt>
      <trkpt lat="44.3057" lon="6.90359">
        <ele>1468.8</ele>
        <time>2022-07-19T10:11:48Z</time>
      </trkpt>
      <trkpt lat="44.30569" lon="6.90362">
        <ele>1468.8</ele>
        <time>2022-07-19T10:11:49Z</time>
      </trkpt>
      <trkpt lat="44.30569" lon="6.90365">
        <ele>1469</ele>
        <time>2022-07-19T10:11:50Z</time>
      </trkpt>
      <trkpt lat="44.30568" lon="6.90368">
        <ele>1469</ele>
        <time>2022-07-19T10:11:51Z</time>
      </trkpt>
      <trkpt lat="44.30568" lon="6.90371">
        <ele>1469.4</ele>
        <time>2022-07-19T10:11:52Z</time>
      </trkpt>
      <trkpt lat="44.30568" lon="6.90375">
        <ele>1469.4</ele>
        <time>2022-07-19T10:11:53Z</time>
      </trkpt>
      <trkpt lat="44.30567" lon="6.90378">
        <ele>1469.6</ele>
        <time>2022-07-19T10:11:54Z</time>
      </trkpt>
      <trkpt lat="44.30567" lon="6.90381">
        <ele>1469.6</ele>
        <time>2022-07-19T10:11:55Z</time>
      </trkpt>
      <trkpt lat="44.30568" lon="6.90384">
        <ele>1470</ele>
        <time>2022-07-19T10:11:56Z</time>
      </trkpt>
      <trkpt lat="44.30567" lon="6.90387">
        <ele>1470</ele>
        <time>2022-07-19T10:11:57Z</time>
      </trkpt>
      <trkpt lat="44.30567" lon="6.9039">
        <ele>1470.2</ele>
        <time>2022-07-19T10:11:58Z</time>
      </trkpt>
      <trkpt lat="44.30567" lon="6.90393">
        <ele>1470.2</ele>
        <time>2022-07-19T10:11:59Z</time>
      </trkpt>
      <trkpt lat="44.30567" lon="6.90396">
        <ele>1470.4</ele>
        <time>2022-07-19T10:12:00Z</time>
      </trkpt>
      <trkpt lat="44.30567" lon="6.90399">
        <ele>1470.4</ele>
        <time>2022-07-19T10:12:01Z</time>
      </trkpt>
      <trkpt lat="44.30567" lon="6.90401">
        <ele>1470.6</ele>
        <time>2022-07-19T10:12:02Z</time>
      </trkpt>
      <trkpt lat="44.30568" lon="6.90404">
        <ele>1470.6</ele>
        <time>2022-07-19T10:12:03Z</time>
      </trkpt>
      <trkpt lat="44.30569" lon="6.90407">
        <ele>1471</ele>
        <time>2022-07-19T10:12:04Z</time>
      </trkpt>
      <trkpt lat="44.30569" lon="6.9041">
        <ele>1471.2</ele>
        <time>2022-07-19T10:12:05Z</time>
      </trkpt>
      <trkpt lat="44.30569" lon="6.90413">
        <ele>1471.2</ele>
        <time>2022-07-19T10:12:06Z</time>
      </trkpt>
      <trkpt lat="44.30569" lon="6.90415">
        <ele>1471.6</ele>
        <time>2022-07-19T10:12:07Z</time>
      </trkpt>
      <trkpt lat="44.30569" lon="6.90418">
        <ele>1471.6</ele>
        <time>2022-07-19T10:12:08Z</time>
      </trkpt>
      <trkpt lat="44.30569" lon="6.90421">
        <ele>1471.8</ele>
        <time>2022-07-19T10:12:09Z</time>
      </trkpt>
      <trkpt lat="44.30569" lon="6.90424">
        <ele>1471.8</ele>
        <time>2022-07-19T10:12:10Z</time>
      </trkpt>
      <trkpt lat="44.30569" lon="6.90428">
        <ele>1472.2</ele>
        <time>2022-07-19T10:12:11Z</time>
      </trkpt>
      <trkpt lat="44.30569" lon="6.90431">
        <ele>1472.2</ele>
        <time>2022-07-19T10:12:12Z</time>
      </trkpt>
      <trkpt lat="44.30569" lon="6.90434">
        <ele>1472.4</ele>
        <time>2022-07-19T10:12:13Z</time>
      </trkpt>
      <trkpt lat="44.30569" lon="6.90437">
        <ele>1472.4</ele>
        <time>2022-07-19T10:12:14Z</time>
      </trkpt>
      <trkpt lat="44.3057" lon="6.9044">
        <ele>1472.8</ele>
        <time>2022-07-19T10:12:15Z</time>
      </trkpt>
      <trkpt lat="44.3057" lon="6.90442">
        <ele>1472.8</ele>
        <time>2022-07-19T10:12:16Z</time>
      </trkpt>
      <trkpt lat="44.30571" lon="6.90445">
        <ele>1473.2</ele>
        <time>2022-07-19T10:12:17Z</time>
      </trkpt>
      <trkpt lat="44.30571" lon="6.90448">
        <ele>1473.2</ele>
        <time>2022-07-19T10:12:18Z</time>
      </trkpt>
      <trkpt lat="44.3057" lon="6.90451">
        <ele>1473.6</ele>
        <time>2022-07-19T10:12:19Z</time>
      </trkpt>
      <trkpt lat="44.3057" lon="6.90453">
        <ele>1473.6</ele>
        <time>2022-07-19T10:12:20Z</time>
      </trkpt>
      <trkpt lat="44.30569" lon="6.90456">
        <ele>1473.8</ele>
        <time>2022-07-19T10:12:21Z</time>
      </trkpt>
      <trkpt lat="44.30569" lon="6.90458">
        <ele>1473.8</ele>
        <time>2022-07-19T10:12:22Z</time>
      </trkpt>
      <trkpt lat="44.30568" lon="6.90461">
        <ele>1474.2</ele>
        <time>2022-07-19T10:12:23Z</time>
      </trkpt>
      <trkpt lat="44.30568" lon="6.90464">
        <ele>1474.2</ele>
        <time>2022-07-19T10:12:24Z</time>
      </trkpt>
      <trkpt lat="44.30568" lon="6.90466">
        <ele>1474.4</ele>
        <time>2022-07-19T10:12:25Z</time>
      </trkpt>
      <trkpt lat="44.30567" lon="6.90469">
        <ele>1474.4</ele>
        <time>2022-07-19T10:12:26Z</time>
      </trkpt>
      <trkpt lat="44.30567" lon="6.90471">
        <ele>1474.8</ele>
        <time>2022-07-19T10:12:27Z</time>
      </trkpt>
      <trkpt lat="44.30567" lon="6.90474">
        <ele>1474.8</ele>
        <time>2022-07-19T10:12:28Z</time>
      </trkpt>
      <trkpt lat="44.30566" lon="6.90477">
        <ele>1475</ele>
        <time>2022-07-19T10:12:29Z</time>
      </trkpt>
      <trkpt lat="44.30565" lon="6.90479">
        <ele>1475</ele>
        <time>2022-07-19T10:12:30Z</time>
      </trkpt>
      <trkpt lat="44.30564" lon="6.90482">
        <ele>1475.4</ele>
        <time>2022-07-19T10:12:31Z</time>
      </trkpt>
      <trkpt lat="44.30563" lon="6.90485">
        <ele>1475.4</ele>
        <time>2022-07-19T10:12:32Z</time>
      </trkpt>
      <trkpt lat="44.30563" lon="6.90488">
        <ele>1475.6</ele>
        <time>2022-07-19T10:12:33Z</time>
      </trkpt>
      <trkpt lat="44.30562" lon="6.90491">
        <ele>1475.8</ele>
        <time>2022-07-19T10:12:34Z</time>
      </trkpt>
      <trkpt lat="44.30561" lon="6.90493">
        <ele>1475.8</ele>
        <time>2022-07-19T10:12:35Z</time>
      </trkpt>
      <trkpt lat="44.30561" lon="6.90496">
        <ele>1476.2</ele>
        <time>2022-07-19T10:12:36Z</time>
      </trkpt>
      <trkpt lat="44.30561" lon="6.90498">
        <ele>1476.2</ele>
        <time>2022-07-19T10:12:37Z</time>
      </trkpt>
      <trkpt lat="44.30561" lon="6.90501">
        <ele>1476.6</ele>
        <time>2022-07-19T10:12:38Z</time>
      </trkpt>
      <trkpt lat="44.30562" lon="6.90503">
        <ele>1476.6</ele>
        <time>2022-07-19T10:12:39Z</time>
      </trkpt>
      <trkpt lat="44.30563" lon="6.90505">
        <ele>1477</ele>
        <time>2022-07-19T10:12:40Z</time>
      </trkpt>
      <trkpt lat="44.30565" lon="6.90506">
        <ele>1477</ele>
        <time>2022-07-19T10:12:41Z</time>
      </trkpt>
      <trkpt lat="44.30567" lon="6.90506">
        <ele>1477</ele>
        <time>2022-07-19T10:12:42Z</time>
      </trkpt>
      <trkpt lat="44.30569" lon="6.90506">
        <ele>1477.2</ele>
        <time>2022-07-19T10:12:43Z</time>
      </trkpt>
      <trkpt lat="44.30572" lon="6.90505">
        <ele>1477.2</ele>
        <time>2022-07-19T10:12:44Z</time>
      </trkpt>
      <trkpt lat="44.30573" lon="6.90503">
        <ele>1477.6</ele>
        <time>2022-07-19T10:12:45Z</time>
      </trkpt>
      <trkpt lat="44.30575" lon="6.90501">
        <ele>1477.6</ele>
        <time>2022-07-19T10:12:46Z</time>
      </trkpt>
      <trkpt lat="44.30577" lon="6.90498">
        <ele>1477.6</ele>
        <time>2022-07-19T10:12:47Z</time>
      </trkpt>
      <trkpt lat="44.30578" lon="6.90495">
        <ele>1477.8</ele>
        <time>2022-07-19T10:12:48Z</time>
      </trkpt>
      <trkpt lat="44.30578" lon="6.90491">
        <ele>1477.8</ele>
        <time>2022-07-19T10:12:49Z</time>
      </trkpt>
      <trkpt lat="44.30579" lon="6.90488">
        <ele>1477.8</ele>
        <time>2022-07-19T10:12:50Z</time>
      </trkpt>
      <trkpt lat="44.30579" lon="6.90484">
        <ele>1478</ele>
        <time>2022-07-19T10:12:51Z</time>
      </trkpt>
      <trkpt lat="44.30579" lon="6.9048">
        <ele>1478</ele>
        <time>2022-07-19T10:12:52Z</time>
      </trkpt>
      <trkpt lat="44.30579" lon="6.90476">
        <ele>1478</ele>
        <time>2022-07-19T10:12:53Z</time>
      </trkpt>
      <trkpt lat="44.3058" lon="6.90472">
        <ele>1478.4</ele>
        <time>2022-07-19T10:12:54Z</time>
      </trkpt>
      <trkpt lat="44.3058" lon="6.90468">
        <ele>1478.4</ele>
        <time>2022-07-19T10:12:55Z</time>
      </trkpt>
      <trkpt lat="44.3058" lon="6.90465">
        <ele>1478.6</ele>
        <time>2022-07-19T10:12:56Z</time>
      </trkpt>
      <trkpt lat="44.30581" lon="6.90461">
        <ele>1478.6</ele>
        <time>2022-07-19T10:12:57Z</time>
      </trkpt>
      <trkpt lat="44.30581" lon="6.90457">
        <ele>1478.6</ele>
        <time>2022-07-19T10:12:58Z</time>
      </trkpt>
      <trkpt lat="44.30582" lon="6.90454">
        <ele>1479</ele>
        <time>2022-07-19T10:12:59Z</time>
      </trkpt>
      <trkpt lat="44.30583" lon="6.9045">
        <ele>1479</ele>
        <time>2022-07-19T10:13:00Z</time>
      </trkpt>
      <trkpt lat="44.30584" lon="6.90447">
        <ele>1479</ele>
        <time>2022-07-19T10:13:01Z</time>
      </trkpt>
      <trkpt lat="44.30585" lon="6.90444">
        <ele>1479.2</ele>
        <time>2022-07-19T10:13:02Z</time>
      </trkpt>
      <trkpt lat="44.30586" lon="6.90441">
        <ele>1479.2</ele>
        <time>2022-07-19T10:13:03Z</time>
      </trkpt>
      <trkpt lat="44.30587" lon="6.90438">
        <ele>1479.2</ele>
        <time>2022-07-19T10:13:04Z</time>
      </trkpt>
      <trkpt lat="44.30588" lon="6.90434">
        <ele>1479.6</ele>
        <time>2022-07-19T10:13:05Z</time>
      </trkpt>
      <trkpt lat="44.30589" lon="6.90431">
        <ele>1479.6</ele>
        <time>2022-07-19T10:13:06Z</time>
      </trkpt>
      <trkpt lat="44.3059" lon="6.90428">
        <ele>1479.8</ele>
        <time>2022-07-19T10:13:07Z</time>
      </trkpt>
      <trkpt lat="44.30591" lon="6.90425">
        <ele>1479.8</ele>
        <time>2022-07-19T10:13:08Z</time>
      </trkpt>
      <trkpt lat="44.30592" lon="6.90422">
        <ele>1480</ele>
        <time>2022-07-19T10:13:09Z</time>
      </trkpt>
      <trkpt lat="44.30593" lon="6.90418">
        <ele>1480</ele>
        <time>2022-07-19T10:13:10Z</time>
      </trkpt>
      <trkpt lat="44.30594" lon="6.90415">
        <ele>1480</ele>
        <time>2022-07-19T10:13:11Z</time>
      </trkpt>
      <trkpt lat="44.30595" lon="6.90411">
        <ele>1480.4</ele>
        <time>2022-07-19T10:13:12Z</time>
      </trkpt>
      <trkpt lat="44.30597" lon="6.90408">
        <ele>1480.4</ele>
        <time>2022-07-19T10:13:13Z</time>
      </trkpt>
      <trkpt lat="44.30598" lon="6.90405">
        <ele>1480.6</ele>
        <time>2022-07-19T10:13:14Z</time>
      </trkpt>
      <trkpt lat="44.30599" lon="6.90401">
        <ele>1480.6</ele>
        <time>2022-07-19T10:13:15Z</time>
      </trkpt>
      <trkpt lat="44.306" lon="6.90398">
        <ele>1480.8</ele>
        <time>2022-07-19T10:13:16Z</time>
      </trkpt>
      <trkpt lat="44.30601" lon="6.90394">
        <ele>1481.2</ele>
        <time>2022-07-19T10:13:17Z</time>
      </trkpt>
      <trkpt lat="44.30601" lon="6.90391">
        <ele>1481.2</ele>
        <time>2022-07-19T10:13:18Z</time>
      </trkpt>
      <trkpt lat="44.30602" lon="6.90387">
        <ele>1481.2</ele>
        <time>2022-07-19T10:13:19Z</time>
      </trkpt>
      <trkpt lat="44.30603" lon="6.90383">
        <ele>1481.6</ele>
        <time>2022-07-19T10:13:20Z</time>
      </trkpt>
      <trkpt lat="44.30604" lon="6.9038">
        <ele>1481.6</ele>
        <time>2022-07-19T10:13:21Z</time>
      </trkpt>
      <trkpt lat="44.30605" lon="6.90376">
        <ele>1481.8</ele>
        <time>2022-07-19T10:13:22Z</time>
      </trkpt>
      <trkpt lat="44.30605" lon="6.90373">
        <ele>1481.8</ele>
        <time>2022-07-19T10:13:23Z</time>
      </trkpt>
      <trkpt lat="44.30606" lon="6.9037">
        <ele>1482.2</ele>
        <time>2022-07-19T10:13:24Z</time>
      </trkpt>
      <trkpt lat="44.30607" lon="6.90367">
        <ele>1482.2</ele>
        <time>2022-07-19T10:13:25Z</time>
      </trkpt>
      <trkpt lat="44.30608" lon="6.90364">
        <ele>1482.4</ele>
        <time>2022-07-19T10:13:26Z</time>
      </trkpt>
      <trkpt lat="44.3061" lon="6.90361">
        <ele>1482.4</ele>
        <time>2022-07-19T10:13:27Z</time>
      </trkpt>
      <trkpt lat="44.30611" lon="6.90358">
        <ele>1482.6</ele>
        <time>2022-07-19T10:13:28Z</time>
      </trkpt>
      <trkpt lat="44.30612" lon="6.90355">
        <ele>1482.6</ele>
        <time>2022-07-19T10:13:29Z</time>
      </trkpt>
      <trkpt lat="44.30613" lon="6.90352">
        <ele>1483</ele>
        <time>2022-07-19T10:13:30Z</time>
      </trkpt>
      <trkpt lat="44.30613" lon="6.90349">
        <ele>1483</ele>
        <time>2022-07-19T10:13:31Z</time>
      </trkpt>
      <trkpt lat="44.30614" lon="6.90346">
        <ele>1483.2</ele>
        <time>2022-07-19T10:13:32Z</time>
      </trkpt>
      <trkpt lat="44.30615" lon="6.90343">
        <ele>1483.2</ele>
        <time>2022-07-19T10:13:33Z</time>
      </trkpt>
      <trkpt lat="44.30616" lon="6.9034">
        <ele>1483.6</ele>
        <time>2022-07-19T10:13:34Z</time>
      </trkpt>
      <trkpt lat="44.30618" lon="6.90337">
        <ele>1483.6</ele>
        <time>2022-07-19T10:13:35Z</time>
      </trkpt>
      <trkpt lat="44.30619" lon="6.90334">
        <ele>1483.8</ele>
        <time>2022-07-19T10:13:36Z</time>
      </trkpt>
      <trkpt lat="44.30621" lon="6.90331">
        <ele>1483.8</ele>
        <time>2022-07-19T10:13:37Z</time>
      </trkpt>
      <trkpt lat="44.30622" lon="6.90328">
        <ele>1484</ele>
        <time>2022-07-19T10:13:38Z</time>
      </trkpt>
      <trkpt lat="44.30624" lon="6.90326">
        <ele>1484</ele>
        <time>2022-07-19T10:13:39Z</time>
      </trkpt>
      <trkpt lat="44.30625" lon="6.90324">
        <ele>1484.2</ele>
        <time>2022-07-19T10:13:40Z</time>
      </trkpt>
      <trkpt lat="44.30627" lon="6.90322">
        <ele>1484.2</ele>
        <time>2022-07-19T10:13:41Z</time>
      </trkpt>
      <trkpt lat="44.30629" lon="6.9032">
        <ele>1484.2</ele>
        <time>2022-07-19T10:13:42Z</time>
      </trkpt>
      <trkpt lat="44.30631" lon="6.90318">
        <ele>1484.6</ele>
        <time>2022-07-19T10:13:43Z</time>
      </trkpt>
      <trkpt lat="44.30633" lon="6.90316">
        <ele>1484.6</ele>
        <time>2022-07-19T10:13:44Z</time>
      </trkpt>
      <trkpt lat="44.30635" lon="6.90315">
        <ele>1484.8</ele>
        <time>2022-07-19T10:13:45Z</time>
      </trkpt>
      <trkpt lat="44.30638" lon="6.90313">
        <ele>1484.8</ele>
        <time>2022-07-19T10:13:46Z</time>
      </trkpt>
      <trkpt lat="44.3064" lon="6.90312">
        <ele>1485.2</ele>
        <time>2022-07-19T10:13:47Z</time>
      </trkpt>
      <trkpt lat="44.30642" lon="6.90311">
        <ele>1485.2</ele>
        <time>2022-07-19T10:13:48Z</time>
      </trkpt>
      <trkpt lat="44.30644" lon="6.9031">
        <ele>1485.4</ele>
        <time>2022-07-19T10:13:49Z</time>
      </trkpt>
      <trkpt lat="44.30646" lon="6.90309">
        <ele>1485.4</ele>
        <time>2022-07-19T10:13:50Z</time>
      </trkpt>
      <trkpt lat="44.30648" lon="6.90308">
        <ele>1485.8</ele>
        <time>2022-07-19T10:13:51Z</time>
      </trkpt>
      <trkpt lat="44.3065" lon="6.90307">
        <ele>1486</ele>
        <time>2022-07-19T10:13:52Z</time>
      </trkpt>
      <trkpt lat="44.30652" lon="6.90306">
        <ele>1486.2</ele>
        <time>2022-07-19T10:13:53Z</time>
      </trkpt>
      <trkpt lat="44.30654" lon="6.90306">
        <ele>1486.2</ele>
        <time>2022-07-19T10:13:54Z</time>
      </trkpt>
      <trkpt lat="44.30657" lon="6.90305">
        <ele>1486.6</ele>
        <time>2022-07-19T10:13:55Z</time>
      </trkpt>
      <trkpt lat="44.30659" lon="6.90305">
        <ele>1486.6</ele>
        <time>2022-07-19T10:13:56Z</time>
      </trkpt>
      <trkpt lat="44.30661" lon="6.90303">
        <ele>1486.8</ele>
        <time>2022-07-19T10:13:57Z</time>
      </trkpt>
      <trkpt lat="44.30663" lon="6.90303">
        <ele>1486.8</ele>
        <time>2022-07-19T10:13:58Z</time>
      </trkpt>
      <trkpt lat="44.30666" lon="6.90302">
        <ele>1487</ele>
        <time>2022-07-19T10:13:59Z</time>
      </trkpt>
      <trkpt lat="44.30668" lon="6.90301">
        <ele>1487</ele>
        <time>2022-07-19T10:14:00Z</time>
      </trkpt>
      <trkpt lat="44.3067" lon="6.90301">
        <ele>1487.4</ele>
        <time>2022-07-19T10:14:01Z</time>
      </trkpt>
      <trkpt lat="44.30673" lon="6.903">
        <ele>1487.4</ele>
        <time>2022-07-19T10:14:02Z</time>
      </trkpt>
      <trkpt lat="44.30675" lon="6.903">
        <ele>1487.6</ele>
        <time>2022-07-19T10:14:03Z</time>
      </trkpt>
      <trkpt lat="44.30677" lon="6.90299">
        <ele>1487.6</ele>
        <time>2022-07-19T10:14:04Z</time>
      </trkpt>
      <trkpt lat="44.30679" lon="6.90298">
        <ele>1487.8</ele>
        <time>2022-07-19T10:14:05Z</time>
      </trkpt>
      <trkpt lat="44.30682" lon="6.90298">
        <ele>1487.8</ele>
        <time>2022-07-19T10:14:06Z</time>
      </trkpt>
      <trkpt lat="44.30684" lon="6.90297">
        <ele>1488.2</ele>
        <time>2022-07-19T10:14:07Z</time>
      </trkpt>
      <trkpt lat="44.30686" lon="6.90296">
        <ele>1488.2</ele>
        <time>2022-07-19T10:14:08Z</time>
      </trkpt>
      <trkpt lat="44.30688" lon="6.90295">
        <ele>1488.6</ele>
        <time>2022-07-19T10:14:09Z</time>
      </trkpt>
      <trkpt lat="44.30691" lon="6.90294">
        <ele>1488.6</ele>
        <time>2022-07-19T10:14:10Z</time>
      </trkpt>
      <trkpt lat="44.30693" lon="6.90293">
        <ele>1488.8</ele>
        <time>2022-07-19T10:14:11Z</time>
      </trkpt>
      <trkpt lat="44.30695" lon="6.90292">
        <ele>1488.8</ele>
        <time>2022-07-19T10:14:12Z</time>
      </trkpt>
      <trkpt lat="44.30697" lon="6.9029">
        <ele>1489.2</ele>
        <time>2022-07-19T10:14:13Z</time>
      </trkpt>
      <trkpt lat="44.30699" lon="6.90289">
        <ele>1489.2</ele>
        <time>2022-07-19T10:14:14Z</time>
      </trkpt>
      <trkpt lat="44.30701" lon="6.90287">
        <ele>1489.6</ele>
        <time>2022-07-19T10:14:15Z</time>
      </trkpt>
      <trkpt lat="44.30702" lon="6.90285">
        <ele>1489.6</ele>
        <time>2022-07-19T10:14:16Z</time>
      </trkpt>
      <trkpt lat="44.30704" lon="6.90283">
        <ele>1489.8</ele>
        <time>2022-07-19T10:14:17Z</time>
      </trkpt>
      <trkpt lat="44.30706" lon="6.90281">
        <ele>1489.8</ele>
        <time>2022-07-19T10:14:18Z</time>
      </trkpt>
      <trkpt lat="44.30707" lon="6.90279">
        <ele>1490.2</ele>
        <time>2022-07-19T10:14:19Z</time>
      </trkpt>
      <trkpt lat="44.30709" lon="6.90278">
        <ele>1490.2</ele>
        <time>2022-07-19T10:14:20Z</time>
      </trkpt>
      <trkpt lat="44.30711" lon="6.90276">
        <ele>1490.6</ele>
        <time>2022-07-19T10:14:21Z</time>
      </trkpt>
      <trkpt lat="44.30713" lon="6.90274">
        <ele>1490.8</ele>
        <time>2022-07-19T10:14:22Z</time>
      </trkpt>
      <trkpt lat="44.30715" lon="6.90272">
        <ele>1491</ele>
        <time>2022-07-19T10:14:23Z</time>
      </trkpt>
      <trkpt lat="44.30717" lon="6.9027">
        <ele>1491</ele>
        <time>2022-07-19T10:14:24Z</time>
      </trkpt>
      <trkpt lat="44.30718" lon="6.90268">
        <ele>1491.4</ele>
        <time>2022-07-19T10:14:25Z</time>
      </trkpt>
      <trkpt lat="44.3072" lon="6.90267">
        <ele>1491.4</ele>
        <time>2022-07-19T10:14:26Z</time>
      </trkpt>
      <trkpt lat="44.30721" lon="6.90265">
        <ele>1491.6</ele>
        <time>2022-07-19T10:14:27Z</time>
      </trkpt>
      <trkpt lat="44.30723" lon="6.90264">
        <ele>1491.6</ele>
        <time>2022-07-19T10:14:28Z</time>
      </trkpt>
      <trkpt lat="44.30725" lon="6.90262">
        <ele>1492</ele>
        <time>2022-07-19T10:14:29Z</time>
      </trkpt>
      <trkpt lat="44.30727" lon="6.9026">
        <ele>1492</ele>
        <time>2022-07-19T10:14:30Z</time>
      </trkpt>
      <trkpt lat="44.30729" lon="6.90259">
        <ele>1492</ele>
        <time>2022-07-19T10:14:31Z</time>
      </trkpt>
      <trkpt lat="44.30731" lon="6.90257">
        <ele>1492.2</ele>
        <time>2022-07-19T10:14:32Z</time>
      </trkpt>
      <trkpt lat="44.30732" lon="6.90256">
        <ele>1492.2</ele>
        <time>2022-07-19T10:14:33Z</time>
      </trkpt>
      <trkpt lat="44.30734" lon="6.90255">
        <ele>1492.6</ele>
        <time>2022-07-19T10:14:34Z</time>
      </trkpt>
      <trkpt lat="44.30736" lon="6.90253">
        <ele>1492.6</ele>
        <time>2022-07-19T10:14:35Z</time>
      </trkpt>
      <trkpt lat="44.30738" lon="6.90252">
        <ele>1493</ele>
        <time>2022-07-19T10:14:36Z</time>
      </trkpt>
      <trkpt lat="44.3074" lon="6.90252">
        <ele>1493</ele>
        <time>2022-07-19T10:14:37Z</time>
      </trkpt>
      <trkpt lat="44.30742" lon="6.90251">
        <ele>1493.2</ele>
        <time>2022-07-19T10:14:38Z</time>
      </trkpt>
      <trkpt lat="44.30744" lon="6.9025">
        <ele>1493.2</ele>
        <time>2022-07-19T10:14:39Z</time>
      </trkpt>
      <trkpt lat="44.30746" lon="6.90249">
        <ele>1493.6</ele>
        <time>2022-07-19T10:14:40Z</time>
      </trkpt>
      <trkpt lat="44.30748" lon="6.90249">
        <ele>1493.6</ele>
        <time>2022-07-19T10:14:41Z</time>
      </trkpt>
      <trkpt lat="44.30749" lon="6.90248">
        <ele>1493.8</ele>
        <time>2022-07-19T10:14:42Z</time>
      </trkpt>
      <trkpt lat="44.30751" lon="6.90248">
        <ele>1493.8</ele>
        <time>2022-07-19T10:14:43Z</time>
      </trkpt>
      <trkpt lat="44.30753" lon="6.90248">
        <ele>1494.2</ele>
        <time>2022-07-19T10:14:44Z</time>
      </trkpt>
      <trkpt lat="44.30755" lon="6.90248">
        <ele>1494.2</ele>
        <time>2022-07-19T10:14:45Z</time>
      </trkpt>
      <trkpt lat="44.30757" lon="6.90249">
        <ele>1494.4</ele>
        <time>2022-07-19T10:14:46Z</time>
      </trkpt>
      <trkpt lat="44.30759" lon="6.90249">
        <ele>1494.4</ele>
        <time>2022-07-19T10:14:47Z</time>
      </trkpt>
      <trkpt lat="44.30761" lon="6.90249">
        <ele>1494.6</ele>
        <time>2022-07-19T10:14:48Z</time>
      </trkpt>
      <trkpt lat="44.30763" lon="6.90248">
        <ele>1494.6</ele>
        <time>2022-07-19T10:14:49Z</time>
      </trkpt>
      <trkpt lat="44.30765" lon="6.90248">
        <ele>1495</ele>
        <time>2022-07-19T10:14:50Z</time>
      </trkpt>
      <trkpt lat="44.30768" lon="6.90247">
        <ele>1495</ele>
        <time>2022-07-19T10:14:51Z</time>
      </trkpt>
      <trkpt lat="44.3077" lon="6.90247">
        <ele>1495.2</ele>
        <time>2022-07-19T10:14:52Z</time>
      </trkpt>
      <trkpt lat="44.30772" lon="6.90246">
        <ele>1495.2</ele>
        <time>2022-07-19T10:14:53Z</time>
      </trkpt>
      <trkpt lat="44.30774" lon="6.90245">
        <ele>1495.6</ele>
        <time>2022-07-19T10:14:54Z</time>
      </trkpt>
      <trkpt lat="44.30776" lon="6.90244">
        <ele>1495.6</ele>
        <time>2022-07-19T10:14:55Z</time>
      </trkpt>
      <trkpt lat="44.30778" lon="6.90244">
        <ele>1495.8</ele>
        <time>2022-07-19T10:14:56Z</time>
      </trkpt>
      <trkpt lat="44.3078" lon="6.90242">
        <ele>1495.8</ele>
        <time>2022-07-19T10:14:57Z</time>
      </trkpt>
      <trkpt lat="44.30782" lon="6.90241">
        <ele>1496.2</ele>
        <time>2022-07-19T10:14:58Z</time>
      </trkpt>
      <trkpt lat="44.30784" lon="6.9024">
        <ele>1496.2</ele>
        <time>2022-07-19T10:14:59Z</time>
      </trkpt>
      <trkpt lat="44.30786" lon="6.90238">
        <ele>1496.6</ele>
        <time>2022-07-19T10:15:00Z</time>
      </trkpt>
      <trkpt lat="44.30788" lon="6.90237">
        <ele>1496.6</ele>
        <time>2022-07-19T10:15:01Z</time>
      </trkpt>
      <trkpt lat="44.3079" lon="6.90236">
        <ele>1497</ele>
        <time>2022-07-19T10:15:02Z</time>
      </trkpt>
      <trkpt lat="44.30792" lon="6.90235">
        <ele>1497</ele>
        <time>2022-07-19T10:15:03Z</time>
      </trkpt>
      <trkpt lat="44.30794" lon="6.90234">
        <ele>1497.2</ele>
        <time>2022-07-19T10:15:04Z</time>
      </trkpt>
      <trkpt lat="44.30796" lon="6.90232">
        <ele>1497.2</ele>
        <time>2022-07-19T10:15:05Z</time>
      </trkpt>
      <trkpt lat="44.30798" lon="6.90231">
        <ele>1497.6</ele>
        <time>2022-07-19T10:15:06Z</time>
      </trkpt>
      <trkpt lat="44.308" lon="6.9023">
        <ele>1497.6</ele>
        <time>2022-07-19T10:15:07Z</time>
      </trkpt>
      <trkpt lat="44.30802" lon="6.90229">
        <ele>1497.8</ele>
        <time>2022-07-19T10:15:08Z</time>
      </trkpt>
      <trkpt lat="44.30804" lon="6.90228">
        <ele>1497.8</ele>
        <time>2022-07-19T10:15:09Z</time>
      </trkpt>
      <trkpt lat="44.30806" lon="6.90227">
        <ele>1498.2</ele>
        <time>2022-07-19T10:15:10Z</time>
      </trkpt>
      <trkpt lat="44.30808" lon="6.90225">
        <ele>1498.4</ele>
        <time>2022-07-19T10:15:11Z</time>
      </trkpt>
      <trkpt lat="44.30809" lon="6.90224">
        <ele>1498.4</ele>
        <time>2022-07-19T10:15:12Z</time>
      </trkpt>
      <trkpt lat="44.30811" lon="6.90223">
        <ele>1498.6</ele>
        <time>2022-07-19T10:15:13Z</time>
      </trkpt>
      <trkpt lat="44.30813" lon="6.90222">
        <ele>1498.6</ele>
        <time>2022-07-19T10:15:14Z</time>
      </trkpt>
      <trkpt lat="44.30815" lon="6.9022">
        <ele>1498.8</ele>
        <time>2022-07-19T10:15:15Z</time>
      </trkpt>
      <trkpt lat="44.30817" lon="6.90219">
        <ele>1498.8</ele>
        <time>2022-07-19T10:15:16Z</time>
      </trkpt>
      <trkpt lat="44.30819" lon="6.90218">
        <ele>1499.2</ele>
        <time>2022-07-19T10:15:17Z</time>
      </trkpt>
      <trkpt lat="44.30821" lon="6.90217">
        <ele>1499.2</ele>
        <time>2022-07-19T10:15:18Z</time>
      </trkpt>
      <trkpt lat="44.30823" lon="6.90216">
        <ele>1499.6</ele>
        <time>2022-07-19T10:15:19Z</time>
      </trkpt>
      <trkpt lat="44.30824" lon="6.90215">
        <ele>1499.6</ele>
        <time>2022-07-19T10:15:20Z</time>
      </trkpt>
      <trkpt lat="44.30826" lon="6.90214">
        <ele>1500</ele>
        <time>2022-07-19T10:15:21Z</time>
      </trkpt>
      <trkpt lat="44.30828" lon="6.90213">
        <ele>1500</ele>
        <time>2022-07-19T10:15:22Z</time>
      </trkpt>
      <trkpt lat="44.3083" lon="6.90212">
        <ele>1500.2</ele>
        <time>2022-07-19T10:15:23Z</time>
      </trkpt>
      <trkpt lat="44.30832" lon="6.90211">
        <ele>1500.2</ele>
        <time>2022-07-19T10:15:24Z</time>
      </trkpt>
      <trkpt lat="44.30834" lon="6.9021">
        <ele>1500.6</ele>
        <time>2022-07-19T10:15:25Z</time>
      </trkpt>
      <trkpt lat="44.30836" lon="6.90209">
        <ele>1500.6</ele>
        <time>2022-07-19T10:15:26Z</time>
      </trkpt>
      <trkpt lat="44.30838" lon="6.90208">
        <ele>1500.8</ele>
        <time>2022-07-19T10:15:27Z</time>
      </trkpt>
      <trkpt lat="44.30839" lon="6.90207">
        <ele>1500.8</ele>
        <time>2022-07-19T10:15:28Z</time>
      </trkpt>
      <trkpt lat="44.30841" lon="6.90206">
        <ele>1501.2</ele>
        <time>2022-07-19T10:15:29Z</time>
      </trkpt>
      <trkpt lat="44.30843" lon="6.90206">
        <ele>1501.4</ele>
        <time>2022-07-19T10:15:30Z</time>
      </trkpt>
      <trkpt lat="44.30845" lon="6.90206">
        <ele>1501.4</ele>
        <time>2022-07-19T10:15:31Z</time>
      </trkpt>
      <trkpt lat="44.30847" lon="6.90205">
        <ele>1501.8</ele>
        <time>2022-07-19T10:15:32Z</time>
      </trkpt>
      <trkpt lat="44.30848" lon="6.90205">
        <ele>1501.8</ele>
        <time>2022-07-19T10:15:33Z</time>
      </trkpt>
      <trkpt lat="44.3085" lon="6.90204">
        <ele>1502.2</ele>
        <time>2022-07-19T10:15:34Z</time>
      </trkpt>
      <trkpt lat="44.30852" lon="6.90204">
        <ele>1502.2</ele>
        <time>2022-07-19T10:15:35Z</time>
      </trkpt>
      <trkpt lat="44.30854" lon="6.90204">
        <ele>1502.4</ele>
        <time>2022-07-19T10:15:36Z</time>
      </trkpt>
      <trkpt lat="44.30856" lon="6.90204">
        <ele>1502.4</ele>
        <time>2022-07-19T10:15:37Z</time>
      </trkpt>
      <trkpt lat="44.30858" lon="6.90203">
        <ele>1502.8</ele>
        <time>2022-07-19T10:15:38Z</time>
      </trkpt>
      <trkpt lat="44.3086" lon="6.90203">
        <ele>1502.8</ele>
        <time>2022-07-19T10:15:39Z</time>
      </trkpt>
      <trkpt lat="44.30862" lon="6.90203">
        <ele>1503.2</ele>
        <time>2022-07-19T10:15:40Z</time>
      </trkpt>
      <trkpt lat="44.30864" lon="6.90203">
        <ele>1503.2</ele>
        <time>2022-07-19T10:15:41Z</time>
      </trkpt>
      <trkpt lat="44.30866" lon="6.90203">
        <ele>1503.4</ele>
        <time>2022-07-19T10:15:42Z</time>
      </trkpt>
      <trkpt lat="44.30868" lon="6.90202">
        <ele>1503.4</ele>
        <time>2022-07-19T10:15:43Z</time>
      </trkpt>
      <trkpt lat="44.3087" lon="6.90203">
        <ele>1503.8</ele>
        <time>2022-07-19T10:15:44Z</time>
      </trkpt>
      <trkpt lat="44.30872" lon="6.90203">
        <ele>1503.8</ele>
        <time>2022-07-19T10:15:45Z</time>
      </trkpt>
      <trkpt lat="44.30874" lon="6.90203">
        <ele>1504</ele>
        <time>2022-07-19T10:15:46Z</time>
      </trkpt>
      <trkpt lat="44.30876" lon="6.90202">
        <ele>1504</ele>
        <time>2022-07-19T10:15:47Z</time>
      </trkpt>
      <trkpt lat="44.30878" lon="6.90201">
        <ele>1504.4</ele>
        <time>2022-07-19T10:15:48Z</time>
      </trkpt>
      <trkpt lat="44.3088" lon="6.902">
        <ele>1504.4</ele>
        <time>2022-07-19T10:15:49Z</time>
      </trkpt>
      <trkpt lat="44.30882" lon="6.90199">
        <ele>1504.8</ele>
        <time>2022-07-19T10:15:50Z</time>
      </trkpt>
      <trkpt lat="44.30883" lon="6.90198">
        <ele>1504.8</ele>
        <time>2022-07-19T10:15:51Z</time>
      </trkpt>
      <trkpt lat="44.30885" lon="6.90197">
        <ele>1505</ele>
        <time>2022-07-19T10:15:52Z</time>
      </trkpt>
      <trkpt lat="44.30887" lon="6.90196">
        <ele>1505</ele>
        <time>2022-07-19T10:15:53Z</time>
      </trkpt>
      <trkpt lat="44.30889" lon="6.90195">
        <ele>1505.4</ele>
        <time>2022-07-19T10:15:54Z</time>
      </trkpt>
      <trkpt lat="44.30892" lon="6.90194">
        <ele>1505.4</ele>
        <time>2022-07-19T10:15:55Z</time>
      </trkpt>
      <trkpt lat="44.30894" lon="6.90193">
        <ele>1505.4</ele>
        <time>2022-07-19T10:15:56Z</time>
      </trkpt>
      <trkpt lat="44.30896" lon="6.90192">
        <ele>1505.6</ele>
        <time>2022-07-19T10:15:57Z</time>
      </trkpt>
      <trkpt lat="44.30898" lon="6.90191">
        <ele>1505.6</ele>
        <time>2022-07-19T10:15:58Z</time>
      </trkpt>
      <trkpt lat="44.309" lon="6.9019">
        <ele>1506</ele>
        <time>2022-07-19T10:15:59Z</time>
      </trkpt>
      <trkpt lat="44.30902" lon="6.90188">
        <ele>1506</ele>
        <time>2022-07-19T10:16:00Z</time>
      </trkpt>
      <trkpt lat="44.30904" lon="6.90187">
        <ele>1506.2</ele>
        <time>2022-07-19T10:16:01Z</time>
      </trkpt>
      <trkpt lat="44.30907" lon="6.90185">
        <ele>1506.2</ele>
        <time>2022-07-19T10:16:02Z</time>
      </trkpt>
      <trkpt lat="44.30909" lon="6.90184">
        <ele>1506.6</ele>
        <time>2022-07-19T10:16:03Z</time>
      </trkpt>
      <trkpt lat="44.30911" lon="6.90183">
        <ele>1506.6</ele>
        <time>2022-07-19T10:16:04Z</time>
      </trkpt>
      <trkpt lat="44.30913" lon="6.90181">
        <ele>1506.8</ele>
        <time>2022-07-19T10:16:05Z</time>
      </trkpt>
      <trkpt lat="44.30915" lon="6.9018">
        <ele>1506.8</ele>
        <time>2022-07-19T10:16:06Z</time>
      </trkpt>
      <trkpt lat="44.30918" lon="6.90179">
        <ele>1507.2</ele>
        <time>2022-07-19T10:16:07Z</time>
      </trkpt>
      <trkpt lat="44.3092" lon="6.90177">
        <ele>1507.2</ele>
        <time>2022-07-19T10:16:08Z</time>
      </trkpt>
      <trkpt lat="44.30922" lon="6.90176">
        <ele>1507.4</ele>
        <time>2022-07-19T10:16:09Z</time>
      </trkpt>
      <trkpt lat="44.30924" lon="6.90175">
        <ele>1507.4</ele>
        <time>2022-07-19T10:16:10Z</time>
      </trkpt>
      <trkpt lat="44.30926" lon="6.90173">
        <ele>1507.8</ele>
        <time>2022-07-19T10:16:11Z</time>
      </trkpt>
      <trkpt lat="44.30928" lon="6.90172">
        <ele>1507.8</ele>
        <time>2022-07-19T10:16:12Z</time>
      </trkpt>
      <trkpt lat="44.30929" lon="6.9017">
        <ele>1508</ele>
        <time>2022-07-19T10:16:13Z</time>
      </trkpt>
      <trkpt lat="44.30931" lon="6.90168">
        <ele>1508.2</ele>
        <time>2022-07-19T10:16:14Z</time>
      </trkpt>
      <trkpt lat="44.30933" lon="6.90167">
        <ele>1508.2</ele>
        <time>2022-07-19T10:16:15Z</time>
      </trkpt>
      <trkpt lat="44.30935" lon="6.90166">
        <ele>1508.6</ele>
        <time>2022-07-19T10:16:16Z</time>
      </trkpt>
      <trkpt lat="44.30937" lon="6.90165">
        <ele>1508.6</ele>
        <time>2022-07-19T10:16:17Z</time>
      </trkpt>
      <trkpt lat="44.30939" lon="6.90163">
        <ele>1508.8</ele>
        <time>2022-07-19T10:16:18Z</time>
      </trkpt>
      <trkpt lat="44.3094" lon="6.90162">
        <ele>1508.8</ele>
        <time>2022-07-19T10:16:19Z</time>
      </trkpt>
      <trkpt lat="44.30942" lon="6.90161">
        <ele>1509.2</ele>
        <time>2022-07-19T10:16:20Z</time>
      </trkpt>
      <trkpt lat="44.30944" lon="6.9016">
        <ele>1509.4</ele>
        <time>2022-07-19T10:16:21Z</time>
      </trkpt>
      <trkpt lat="44.30945" lon="6.90158">
        <ele>1509.4</ele>
        <time>2022-07-19T10:16:22Z</time>
      </trkpt>
      <trkpt lat="44.30947" lon="6.90157">
        <ele>1509.6</ele>
        <time>2022-07-19T10:16:23Z</time>
      </trkpt>
      <trkpt lat="44.30949" lon="6.90155">
        <ele>1509.6</ele>
        <time>2022-07-19T10:16:24Z</time>
      </trkpt>
      <trkpt lat="44.3095" lon="6.90154">
        <ele>1510</ele>
        <time>2022-07-19T10:16:25Z</time>
      </trkpt>
      <trkpt lat="44.30952" lon="6.90153">
        <ele>1510</ele>
        <time>2022-07-19T10:16:26Z</time>
      </trkpt>
      <trkpt lat="44.30954" lon="6.90151">
        <ele>1510.2</ele>
        <time>2022-07-19T10:16:27Z</time>
      </trkpt>
      <trkpt lat="44.30955" lon="6.9015">
        <ele>1510.4</ele>
        <time>2022-07-19T10:16:28Z</time>
      </trkpt>
      <trkpt lat="44.30957" lon="6.90148">
        <ele>1510.4</ele>
        <time>2022-07-19T10:16:29Z</time>
      </trkpt>
      <trkpt lat="44.30958" lon="6.90147">
        <ele>1510.6</ele>
        <time>2022-07-19T10:16:30Z</time>
      </trkpt>
      <trkpt lat="44.3096" lon="6.90145">
        <ele>1510.6</ele>
        <time>2022-07-19T10:16:31Z</time>
      </trkpt>
      <trkpt lat="44.30962" lon="6.90144">
        <ele>1511</ele>
        <time>2022-07-19T10:16:32Z</time>
      </trkpt>
      <trkpt lat="44.30964" lon="6.90143">
        <ele>1511</ele>
        <time>2022-07-19T10:16:33Z</time>
      </trkpt>
      <trkpt lat="44.30966" lon="6.90141">
        <ele>1511.2</ele>
        <time>2022-07-19T10:16:34Z</time>
      </trkpt>
      <trkpt lat="44.30968" lon="6.9014">
        <ele>1511.2</ele>
        <time>2022-07-19T10:16:35Z</time>
      </trkpt>
      <trkpt lat="44.30969" lon="6.90139">
        <ele>1511.6</ele>
        <time>2022-07-19T10:16:36Z</time>
      </trkpt>
      <trkpt lat="44.30971" lon="6.90137">
        <ele>1511.6</ele>
        <time>2022-07-19T10:16:37Z</time>
      </trkpt>
      <trkpt lat="44.30973" lon="6.90136">
        <ele>1511.8</ele>
        <time>2022-07-19T10:16:38Z</time>
      </trkpt>
      <trkpt lat="44.30974" lon="6.90134">
        <ele>1511.8</ele>
        <time>2022-07-19T10:16:39Z</time>
      </trkpt>
      <trkpt lat="44.30976" lon="6.90133">
        <ele>1512</ele>
        <time>2022-07-19T10:16:40Z</time>
      </trkpt>
      <trkpt lat="44.30978" lon="6.90132">
        <ele>1512</ele>
        <time>2022-07-19T10:16:41Z</time>
      </trkpt>
      <trkpt lat="44.3098" lon="6.90131">
        <ele>1512.4</ele>
        <time>2022-07-19T10:16:42Z</time>
      </trkpt>
      <trkpt lat="44.30982" lon="6.90129">
        <ele>1512.4</ele>
        <time>2022-07-19T10:16:43Z</time>
      </trkpt>
      <trkpt lat="44.30984" lon="6.90128">
        <ele>1512.8</ele>
        <time>2022-07-19T10:16:45Z</time>
      </trkpt>
      <trkpt lat="44.30985" lon="6.90126">
        <ele>1512.8</ele>
        <time>2022-07-19T10:16:46Z</time>
      </trkpt>
      <trkpt lat="44.30987" lon="6.90125">
        <ele>1513.2</ele>
        <time>2022-07-19T10:16:47Z</time>
      </trkpt>
      <trkpt lat="44.30989" lon="6.90124">
        <ele>1513.2</ele>
        <time>2022-07-19T10:16:48Z</time>
      </trkpt>
      <trkpt lat="44.30991" lon="6.90122">
        <ele>1513.6</ele>
        <time>2022-07-19T10:16:49Z</time>
      </trkpt>
      <trkpt lat="44.30993" lon="6.9012">
        <ele>1513.6</ele>
        <time>2022-07-19T10:16:50Z</time>
      </trkpt>
      <trkpt lat="44.30995" lon="6.90119">
        <ele>1513.6</ele>
        <time>2022-07-19T10:16:51Z</time>
      </trkpt>
      <trkpt lat="44.30997" lon="6.90118">
        <ele>1514</ele>
        <time>2022-07-19T10:16:52Z</time>
      </trkpt>
      <trkpt lat="44.30999" lon="6.90117">
        <ele>1514</ele>
        <time>2022-07-19T10:16:53Z</time>
      </trkpt>
      <trkpt lat="44.31001" lon="6.90115">
        <ele>1514.4</ele>
        <time>2022-07-19T10:16:54Z</time>
      </trkpt>
      <trkpt lat="44.31003" lon="6.90114">
        <ele>1514.4</ele>
        <time>2022-07-19T10:16:55Z</time>
      </trkpt>
      <trkpt lat="44.31005" lon="6.90113">
        <ele>1514.6</ele>
        <time>2022-07-19T10:16:56Z</time>
      </trkpt>
      <trkpt lat="44.31007" lon="6.90112">
        <ele>1514.6</ele>
        <time>2022-07-19T10:16:57Z</time>
      </trkpt>
      <trkpt lat="44.31009" lon="6.90111">
        <ele>1515</ele>
        <time>2022-07-19T10:16:58Z</time>
      </trkpt>
      <trkpt lat="44.31011" lon="6.9011">
        <ele>1515</ele>
        <time>2022-07-19T10:16:59Z</time>
      </trkpt>
      <trkpt lat="44.31013" lon="6.90109">
        <ele>1515.2</ele>
        <time>2022-07-19T10:17:00Z</time>
      </trkpt>
      <trkpt lat="44.31015" lon="6.90108">
        <ele>1515.2</ele>
        <time>2022-07-19T10:17:01Z</time>
      </trkpt>
      <trkpt lat="44.31017" lon="6.90107">
        <ele>1515.4</ele>
        <time>2022-07-19T10:17:02Z</time>
      </trkpt>
      <trkpt lat="44.31019" lon="6.90106">
        <ele>1515.4</ele>
        <time>2022-07-19T10:17:03Z</time>
      </trkpt>
      <trkpt lat="44.31021" lon="6.90106">
        <ele>1515.8</ele>
        <time>2022-07-19T10:17:04Z</time>
      </trkpt>
      <trkpt lat="44.31023" lon="6.90105">
        <ele>1515.8</ele>
        <time>2022-07-19T10:17:05Z</time>
      </trkpt>
      <trkpt lat="44.31025" lon="6.90104">
        <ele>1516</ele>
        <time>2022-07-19T10:17:06Z</time>
      </trkpt>
      <trkpt lat="44.31027" lon="6.90103">
        <ele>1516</ele>
        <time>2022-07-19T10:17:07Z</time>
      </trkpt>
      <trkpt lat="44.31029" lon="6.90102">
        <ele>1516.4</ele>
        <time>2022-07-19T10:17:08Z</time>
      </trkpt>
      <trkpt lat="44.31031" lon="6.90101">
        <ele>1516.4</ele>
        <time>2022-07-19T10:17:09Z</time>
      </trkpt>
      <trkpt lat="44.31033" lon="6.901">
        <ele>1516.8</ele>
        <time>2022-07-19T10:17:10Z</time>
      </trkpt>
      <trkpt lat="44.31035" lon="6.901">
        <ele>1516.8</ele>
        <time>2022-07-19T10:17:11Z</time>
      </trkpt>
      <trkpt lat="44.31037" lon="6.90099">
        <ele>1517</ele>
        <time>2022-07-19T10:17:12Z</time>
      </trkpt>
      <trkpt lat="44.31039" lon="6.90098">
        <ele>1517</ele>
        <time>2022-07-19T10:17:13Z</time>
      </trkpt>
      <trkpt lat="44.31041" lon="6.90097">
        <ele>1517</ele>
        <time>2022-07-19T10:17:14Z</time>
      </trkpt>
      <trkpt lat="44.31042" lon="6.90096">
        <ele>1517.2</ele>
        <time>2022-07-19T10:17:15Z</time>
      </trkpt>
      <trkpt lat="44.31044" lon="6.90095">
        <ele>1517.2</ele>
        <time>2022-07-19T10:17:16Z</time>
      </trkpt>
      <trkpt lat="44.31046" lon="6.90094">
        <ele>1517.2</ele>
        <time>2022-07-19T10:17:17Z</time>
      </trkpt>
      <trkpt lat="44.31048" lon="6.90094">
        <ele>1517.6</ele>
        <time>2022-07-19T10:17:18Z</time>
      </trkpt>
      <trkpt lat="44.3105" lon="6.90094">
        <ele>1517.6</ele>
        <time>2022-07-19T10:17:19Z</time>
      </trkpt>
      <trkpt lat="44.31052" lon="6.90094">
        <ele>1517.8</ele>
        <time>2022-07-19T10:17:20Z</time>
      </trkpt>
      <trkpt lat="44.31054" lon="6.90094">
        <ele>1517.8</ele>
        <time>2022-07-19T10:17:21Z</time>
      </trkpt>
      <trkpt lat="44.31056" lon="6.90094">
        <ele>1518.2</ele>
        <time>2022-07-19T10:17:22Z</time>
      </trkpt>
      <trkpt lat="44.31057" lon="6.90094">
        <ele>1518.2</ele>
        <time>2022-07-19T10:17:23Z</time>
      </trkpt>
      <trkpt lat="44.31059" lon="6.90094">
        <ele>1518.4</ele>
        <time>2022-07-19T10:17:24Z</time>
      </trkpt>
      <trkpt lat="44.31061" lon="6.90094">
        <ele>1518.4</ele>
        <time>2022-07-19T10:17:25Z</time>
      </trkpt>
      <trkpt lat="44.31063" lon="6.90094">
        <ele>1518.8</ele>
        <time>2022-07-19T10:17:26Z</time>
      </trkpt>
      <trkpt lat="44.31064" lon="6.90093">
        <ele>1518.8</ele>
        <time>2022-07-19T10:17:27Z</time>
      </trkpt>
      <trkpt lat="44.31066" lon="6.90093">
        <ele>1519</ele>
        <time>2022-07-19T10:17:28Z</time>
      </trkpt>
      <trkpt lat="44.31068" lon="6.90093">
        <ele>1519</ele>
        <time>2022-07-19T10:17:29Z</time>
      </trkpt>
      <trkpt lat="44.3107" lon="6.90092">
        <ele>1519.4</ele>
        <time>2022-07-19T10:17:30Z</time>
      </trkpt>
      <trkpt lat="44.31072" lon="6.90092">
        <ele>1519.4</ele>
        <time>2022-07-19T10:17:31Z</time>
      </trkpt>
      <trkpt lat="44.31073" lon="6.90092">
        <ele>1519.6</ele>
        <time>2022-07-19T10:17:32Z</time>
      </trkpt>
      <trkpt lat="44.31075" lon="6.90091">
        <ele>1519.6</ele>
        <time>2022-07-19T10:17:33Z</time>
      </trkpt>
      <trkpt lat="44.31076" lon="6.90092">
        <ele>1520</ele>
        <time>2022-07-19T10:17:34Z</time>
      </trkpt>
      <trkpt lat="44.31078" lon="6.90092">
        <ele>1520</ele>
        <time>2022-07-19T10:17:35Z</time>
      </trkpt>
      <trkpt lat="44.3108" lon="6.90092">
        <ele>1520.2</ele>
        <time>2022-07-19T10:17:36Z</time>
      </trkpt>
      <trkpt lat="44.31081" lon="6.90092">
        <ele>1520.2</ele>
        <time>2022-07-19T10:17:37Z</time>
      </trkpt>
      <trkpt lat="44.31083" lon="6.90093">
        <ele>1520.6</ele>
        <time>2022-07-19T10:17:38Z</time>
      </trkpt>
      <trkpt lat="44.31085" lon="6.90093">
        <ele>1520.6</ele>
        <time>2022-07-19T10:17:39Z</time>
      </trkpt>
      <trkpt lat="44.31086" lon="6.90093">
        <ele>1520.8</ele>
        <time>2022-07-19T10:17:40Z</time>
      </trkpt>
      <trkpt lat="44.31088" lon="6.90093">
        <ele>1520.8</ele>
        <time>2022-07-19T10:17:41Z</time>
      </trkpt>
      <trkpt lat="44.3109" lon="6.90093">
        <ele>1521</ele>
        <time>2022-07-19T10:17:42Z</time>
      </trkpt>
      <trkpt lat="44.31091" lon="6.90093">
        <ele>1521</ele>
        <time>2022-07-19T10:17:43Z</time>
      </trkpt>
      <trkpt lat="44.31093" lon="6.90093">
        <ele>1521.4</ele>
        <time>2022-07-19T10:17:44Z</time>
      </trkpt>
      <trkpt lat="44.31095" lon="6.90093">
        <ele>1521.4</ele>
        <time>2022-07-19T10:17:45Z</time>
      </trkpt>
      <trkpt lat="44.31096" lon="6.90093">
        <ele>1521.6</ele>
        <time>2022-07-19T10:17:46Z</time>
      </trkpt>
      <trkpt lat="44.31098" lon="6.90094">
        <ele>1521.6</ele>
        <time>2022-07-19T10:17:47Z</time>
      </trkpt>
      <trkpt lat="44.31099" lon="6.90094">
        <ele>1521.6</ele>
        <time>2022-07-19T10:17:48Z</time>
      </trkpt>
      <trkpt lat="44.31101" lon="6.90094">
        <ele>1521.8</ele>
        <time>2022-07-19T10:17:49Z</time>
      </trkpt>
      <trkpt lat="44.31102" lon="6.90093">
        <ele>1521.8</ele>
        <time>2022-07-19T10:17:50Z</time>
      </trkpt>
      <trkpt lat="44.31104" lon="6.90092">
        <ele>1522.2</ele>
        <time>2022-07-19T10:17:51Z</time>
      </trkpt>
      <trkpt lat="44.31106" lon="6.90091">
        <ele>1522.2</ele>
        <time>2022-07-19T10:17:52Z</time>
      </trkpt>
      <trkpt lat="44.31108" lon="6.9009">
        <ele>1522.4</ele>
        <time>2022-07-19T10:17:53Z</time>
      </trkpt>
      <trkpt lat="44.3111" lon="6.90089">
        <ele>1522.4</ele>
        <time>2022-07-19T10:17:54Z</time>
      </trkpt>
      <trkpt lat="44.31112" lon="6.90088">
        <ele>1522.6</ele>
        <time>2022-07-19T10:17:55Z</time>
      </trkpt>
      <trkpt lat="44.31113" lon="6.90087">
        <ele>1522.6</ele>
        <time>2022-07-19T10:17:56Z</time>
      </trkpt>
      <trkpt lat="44.31115" lon="6.90085">
        <ele>1522.8</ele>
        <time>2022-07-19T10:17:57Z</time>
      </trkpt>
      <trkpt lat="44.31117" lon="6.90085">
        <ele>1522.8</ele>
        <time>2022-07-19T10:17:58Z</time>
      </trkpt>
      <trkpt lat="44.31119" lon="6.90083">
        <ele>1523.2</ele>
        <time>2022-07-19T10:17:59Z</time>
      </trkpt>
      <trkpt lat="44.31121" lon="6.90082">
        <ele>1523.2</ele>
        <time>2022-07-19T10:18:00Z</time>
      </trkpt>
      <trkpt lat="44.31122" lon="6.90081">
        <ele>1523.4</ele>
        <time>2022-07-19T10:18:01Z</time>
      </trkpt>
      <trkpt lat="44.31124" lon="6.9008">
        <ele>1523.4</ele>
        <time>2022-07-19T10:18:02Z</time>
      </trkpt>
      <trkpt lat="44.31126" lon="6.90079">
        <ele>1523.6</ele>
        <time>2022-07-19T10:18:03Z</time>
      </trkpt>
      <trkpt lat="44.31128" lon="6.90077">
        <ele>1523.6</ele>
        <time>2022-07-19T10:18:04Z</time>
      </trkpt>
      <trkpt lat="44.3113" lon="6.90076">
        <ele>1524</ele>
        <time>2022-07-19T10:18:05Z</time>
      </trkpt>
      <trkpt lat="44.31132" lon="6.90076">
        <ele>1524.2</ele>
        <time>2022-07-19T10:18:06Z</time>
      </trkpt>
      <trkpt lat="44.31135" lon="6.90075">
        <ele>1524.2</ele>
        <time>2022-07-19T10:18:07Z</time>
      </trkpt>
      <trkpt lat="44.31137" lon="6.90074">
        <ele>1524.4</ele>
        <time>2022-07-19T10:18:08Z</time>
      </trkpt>
      <trkpt lat="44.31139" lon="6.90073">
        <ele>1524.4</ele>
        <time>2022-07-19T10:18:09Z</time>
      </trkpt>
      <trkpt lat="44.31141" lon="6.90073">
        <ele>1524.6</ele>
        <time>2022-07-19T10:18:10Z</time>
      </trkpt>
      <trkpt lat="44.31143" lon="6.90072">
        <ele>1524.6</ele>
        <time>2022-07-19T10:18:11Z</time>
      </trkpt>
      <trkpt lat="44.31146" lon="6.90072">
        <ele>1525</ele>
        <time>2022-07-19T10:18:12Z</time>
      </trkpt>
      <trkpt lat="44.31148" lon="6.90071">
        <ele>1525</ele>
        <time>2022-07-19T10:18:13Z</time>
      </trkpt>
      <trkpt lat="44.3115" lon="6.90071">
        <ele>1525.4</ele>
        <time>2022-07-19T10:18:14Z</time>
      </trkpt>
      <trkpt lat="44.31152" lon="6.9007">
        <ele>1525.4</ele>
        <time>2022-07-19T10:18:15Z</time>
      </trkpt>
      <trkpt lat="44.31154" lon="6.9007">
        <ele>1525.8</ele>
        <time>2022-07-19T10:18:16Z</time>
      </trkpt>
      <trkpt lat="44.31156" lon="6.90069">
        <ele>1525.8</ele>
        <time>2022-07-19T10:18:17Z</time>
      </trkpt>
      <trkpt lat="44.31158" lon="6.90068">
        <ele>1526</ele>
        <time>2022-07-19T10:18:18Z</time>
      </trkpt>
      <trkpt lat="44.3116" lon="6.90068">
        <ele>1526</ele>
        <time>2022-07-19T10:18:19Z</time>
      </trkpt>
      <trkpt lat="44.31164" lon="6.90067">
        <ele>1526.4</ele>
        <time>2022-07-19T10:18:20Z</time>
      </trkpt>
      <trkpt lat="44.31166" lon="6.90067">
        <ele>1526.4</ele>
        <time>2022-07-19T10:18:21Z</time>
      </trkpt>
      <trkpt lat="44.31168" lon="6.90066">
        <ele>1526.4</ele>
        <time>2022-07-19T10:18:22Z</time>
      </trkpt>
      <trkpt lat="44.3117" lon="6.90065">
        <ele>1526.6</ele>
        <time>2022-07-19T10:18:23Z</time>
      </trkpt>
      <trkpt lat="44.31172" lon="6.90065">
        <ele>1526.6</ele>
        <time>2022-07-19T10:18:24Z</time>
      </trkpt>
      <trkpt lat="44.31175" lon="6.90065">
        <ele>1526.6</ele>
        <time>2022-07-19T10:18:25Z</time>
      </trkpt>
      <trkpt lat="44.31177" lon="6.90065">
        <ele>1527</ele>
        <time>2022-07-19T10:18:26Z</time>
      </trkpt>
      <trkpt lat="44.31179" lon="6.90065">
        <ele>1527</ele>
        <time>2022-07-19T10:18:27Z</time>
      </trkpt>
      <trkpt lat="44.31181" lon="6.90065">
        <ele>1527.2</ele>
        <time>2022-07-19T10:18:28Z</time>
      </trkpt>
      <trkpt lat="44.31183" lon="6.90065">
        <ele>1527.2</ele>
        <time>2022-07-19T10:18:29Z</time>
      </trkpt>
      <trkpt lat="44.31185" lon="6.90064">
        <ele>1527.6</ele>
        <time>2022-07-19T10:18:30Z</time>
      </trkpt>
      <trkpt lat="44.31187" lon="6.90064">
        <ele>1527.6</ele>
        <time>2022-07-19T10:18:31Z</time>
      </trkpt>
      <trkpt lat="44.31189" lon="6.90064">
        <ele>1527.8</ele>
        <time>2022-07-19T10:18:32Z</time>
      </trkpt>
      <trkpt lat="44.31191" lon="6.90064">
        <ele>1527.8</ele>
        <time>2022-07-19T10:18:33Z</time>
      </trkpt>
      <trkpt lat="44.31193" lon="6.90063">
        <ele>1528.2</ele>
        <time>2022-07-19T10:18:34Z</time>
      </trkpt>
      <trkpt lat="44.31195" lon="6.90063">
        <ele>1528.2</ele>
        <time>2022-07-19T10:18:35Z</time>
      </trkpt>
      <trkpt lat="44.31198" lon="6.90062">
        <ele>1528.6</ele>
        <time>2022-07-19T10:18:36Z</time>
      </trkpt>
      <trkpt lat="44.31199" lon="6.90061">
        <ele>1528.6</ele>
        <time>2022-07-19T10:18:37Z</time>
      </trkpt>
      <trkpt lat="44.31201" lon="6.9006">
        <ele>1528.8</ele>
        <time>2022-07-19T10:18:38Z</time>
      </trkpt>
      <trkpt lat="44.31204" lon="6.90059">
        <ele>1528.8</ele>
        <time>2022-07-19T10:18:39Z</time>
      </trkpt>
      <trkpt lat="44.31206" lon="6.90058">
        <ele>1528.8</ele>
        <time>2022-07-19T10:18:40Z</time>
      </trkpt>
      <trkpt lat="44.31208" lon="6.90056">
        <ele>1529.2</ele>
        <time>2022-07-19T10:18:41Z</time>
      </trkpt>
      <trkpt lat="44.3121" lon="6.90055">
        <ele>1529.2</ele>
        <time>2022-07-19T10:18:42Z</time>
      </trkpt>
      <trkpt lat="44.31212" lon="6.90053">
        <ele>1529.4</ele>
        <time>2022-07-19T10:18:43Z</time>
      </trkpt>
      <trkpt lat="44.31214" lon="6.90052">
        <ele>1529.4</ele>
        <time>2022-07-19T10:18:44Z</time>
      </trkpt>
      <trkpt lat="44.31216" lon="6.9005">
        <ele>1529.8</ele>
        <time>2022-07-19T10:18:45Z</time>
      </trkpt>
      <trkpt lat="44.31218" lon="6.90049">
        <ele>1529.8</ele>
        <time>2022-07-19T10:18:46Z</time>
      </trkpt>
      <trkpt lat="44.3122" lon="6.90048">
        <ele>1530.2</ele>
        <time>2022-07-19T10:18:47Z</time>
      </trkpt>
      <trkpt lat="44.31222" lon="6.90047">
        <ele>1530.6</ele>
        <time>2022-07-19T10:18:48Z</time>
      </trkpt>
      <trkpt lat="44.31224" lon="6.90046">
        <ele>1530.6</ele>
        <time>2022-07-19T10:18:49Z</time>
      </trkpt>
      <trkpt lat="44.31226" lon="6.90045">
        <ele>1530.8</ele>
        <time>2022-07-19T10:18:50Z</time>
      </trkpt>
      <trkpt lat="44.31227" lon="6.90044">
        <ele>1531</ele>
        <time>2022-07-19T10:18:51Z</time>
      </trkpt>
      <trkpt lat="44.31229" lon="6.90044">
        <ele>1531.2</ele>
        <time>2022-07-19T10:18:52Z</time>
      </trkpt>
      <trkpt lat="44.31231" lon="6.90044">
        <ele>1531.2</ele>
        <time>2022-07-19T10:18:53Z</time>
      </trkpt>
      <trkpt lat="44.31233" lon="6.90044">
        <ele>1531.2</ele>
        <time>2022-07-19T10:18:54Z</time>
      </trkpt>
      <trkpt lat="44.31235" lon="6.90044">
        <ele>1531.6</ele>
        <time>2022-07-19T10:18:55Z</time>
      </trkpt>
      <trkpt lat="44.31237" lon="6.90044">
        <ele>1531.6</ele>
        <time>2022-07-19T10:18:56Z</time>
      </trkpt>
      <trkpt lat="44.31239" lon="6.90044">
        <ele>1532</ele>
        <time>2022-07-19T10:18:57Z</time>
      </trkpt>
      <trkpt lat="44.31241" lon="6.90044">
        <ele>1532</ele>
        <time>2022-07-19T10:18:58Z</time>
      </trkpt>
      <trkpt lat="44.31243" lon="6.90045">
        <ele>1532.2</ele>
        <time>2022-07-19T10:18:59Z</time>
      </trkpt>
      <trkpt lat="44.31246" lon="6.90046">
        <ele>1532.4</ele>
        <time>2022-07-19T10:19:00Z</time>
      </trkpt>
      <trkpt lat="44.31248" lon="6.90046">
        <ele>1532.4</ele>
        <time>2022-07-19T10:19:01Z</time>
      </trkpt>
      <trkpt lat="44.3125" lon="6.90047">
        <ele>1532.8</ele>
        <time>2022-07-19T10:19:02Z</time>
      </trkpt>
      <trkpt lat="44.31252" lon="6.90048">
        <ele>1532.8</ele>
        <time>2022-07-19T10:19:03Z</time>
      </trkpt>
      <trkpt lat="44.31255" lon="6.90048">
        <ele>1533</ele>
        <time>2022-07-19T10:19:04Z</time>
      </trkpt>
      <trkpt lat="44.31257" lon="6.90049">
        <ele>1533.4</ele>
        <time>2022-07-19T10:19:05Z</time>
      </trkpt>
      <trkpt lat="44.31259" lon="6.9005">
        <ele>1533.4</ele>
        <time>2022-07-19T10:19:06Z</time>
      </trkpt>
      <trkpt lat="44.31261" lon="6.90051">
        <ele>1533.6</ele>
        <time>2022-07-19T10:19:07Z</time>
      </trkpt>
      <trkpt lat="44.31263" lon="6.90052">
        <ele>1533.6</ele>
        <time>2022-07-19T10:19:08Z</time>
      </trkpt>
      <trkpt lat="44.31266" lon="6.90053">
        <ele>1534</ele>
        <time>2022-07-19T10:19:09Z</time>
      </trkpt>
      <trkpt lat="44.31268" lon="6.90054">
        <ele>1534</ele>
        <time>2022-07-19T10:19:10Z</time>
      </trkpt>
      <trkpt lat="44.3127" lon="6.90055">
        <ele>1534.2</ele>
        <time>2022-07-19T10:19:11Z</time>
      </trkpt>
      <trkpt lat="44.31272" lon="6.90056">
        <ele>1534.2</ele>
        <time>2022-07-19T10:19:12Z</time>
      </trkpt>
      <trkpt lat="44.31274" lon="6.90057">
        <ele>1534.6</ele>
        <time>2022-07-19T10:19:13Z</time>
      </trkpt>
      <trkpt lat="44.31276" lon="6.90059">
        <ele>1534.8</ele>
        <time>2022-07-19T10:19:14Z</time>
      </trkpt>
      <trkpt lat="44.31278" lon="6.9006">
        <ele>1534.8</ele>
        <time>2022-07-19T10:19:15Z</time>
      </trkpt>
      <trkpt lat="44.3128" lon="6.90061">
        <ele>1535</ele>
        <time>2022-07-19T10:19:16Z</time>
      </trkpt>
      <trkpt lat="44.31283" lon="6.90062">
        <ele>1535</ele>
        <time>2022-07-19T10:19:17Z</time>
      </trkpt>
      <trkpt lat="44.31284" lon="6.90063">
        <ele>1535.4</ele>
        <time>2022-07-19T10:19:18Z</time>
      </trkpt>
      <trkpt lat="44.31287" lon="6.90063">
        <ele>1535.4</ele>
        <time>2022-07-19T10:19:19Z</time>
      </trkpt>
      <trkpt lat="44.31289" lon="6.90064">
        <ele>1535.8</ele>
        <time>2022-07-19T10:19:20Z</time>
      </trkpt>
      <trkpt lat="44.31291" lon="6.90064">
        <ele>1535.8</ele>
        <time>2022-07-19T10:19:21Z</time>
      </trkpt>
      <trkpt lat="44.31293" lon="6.90065">
        <ele>1536.2</ele>
        <time>2022-07-19T10:19:22Z</time>
      </trkpt>
      <trkpt lat="44.31295" lon="6.90066">
        <ele>1536.2</ele>
        <time>2022-07-19T10:19:23Z</time>
      </trkpt>
      <trkpt lat="44.31297" lon="6.90066">
        <ele>1536.4</ele>
        <time>2022-07-19T10:19:24Z</time>
      </trkpt>
      <trkpt lat="44.31299" lon="6.90067">
        <ele>1536.4</ele>
        <time>2022-07-19T10:19:25Z</time>
      </trkpt>
      <trkpt lat="44.31301" lon="6.90068">
        <ele>1536.6</ele>
        <time>2022-07-19T10:19:26Z</time>
      </trkpt>
      <trkpt lat="44.31303" lon="6.90068">
        <ele>1536.6</ele>
        <time>2022-07-19T10:19:27Z</time>
      </trkpt>
      <trkpt lat="44.31304" lon="6.90069">
        <ele>1537</ele>
        <time>2022-07-19T10:19:28Z</time>
      </trkpt>
      <trkpt lat="44.31307" lon="6.9007">
        <ele>1537</ele>
        <time>2022-07-19T10:19:29Z</time>
      </trkpt>
      <trkpt lat="44.31309" lon="6.9007">
        <ele>1537</ele>
        <time>2022-07-19T10:19:30Z</time>
      </trkpt>
      <trkpt lat="44.31311" lon="6.90071">
        <ele>1537.2</ele>
        <time>2022-07-19T10:19:31Z</time>
      </trkpt>
      <trkpt lat="44.31313" lon="6.90071">
        <ele>1537.2</ele>
        <time>2022-07-19T10:19:32Z</time>
      </trkpt>
      <trkpt lat="44.31314" lon="6.90072">
        <ele>1537.6</ele>
        <time>2022-07-19T10:19:33Z</time>
      </trkpt>
      <trkpt lat="44.31316" lon="6.90072">
        <ele>1537.8</ele>
        <time>2022-07-19T10:19:34Z</time>
      </trkpt>
      <trkpt lat="44.31318" lon="6.90072">
        <ele>1537.8</ele>
        <time>2022-07-19T10:19:35Z</time>
      </trkpt>
      <trkpt lat="44.3132" lon="6.90073">
        <ele>1538.2</ele>
        <time>2022-07-19T10:19:36Z</time>
      </trkpt>
      <trkpt lat="44.31322" lon="6.90072">
        <ele>1538.2</ele>
        <time>2022-07-19T10:19:37Z</time>
      </trkpt>
      <trkpt lat="44.31324" lon="6.90073">
        <ele>1538.4</ele>
        <time>2022-07-19T10:19:38Z</time>
      </trkpt>
      <trkpt lat="44.31326" lon="6.90073">
        <ele>1538.4</ele>
        <time>2022-07-19T10:19:39Z</time>
      </trkpt>
      <trkpt lat="44.31327" lon="6.90073">
        <ele>1538.8</ele>
        <time>2022-07-19T10:19:40Z</time>
      </trkpt>
      <trkpt lat="44.31329" lon="6.90073">
        <ele>1538.8</ele>
        <time>2022-07-19T10:19:41Z</time>
      </trkpt>
      <trkpt lat="44.3133" lon="6.90074">
        <ele>1539</ele>
        <time>2022-07-19T10:19:42Z</time>
      </trkpt>
      <trkpt lat="44.31332" lon="6.90074">
        <ele>1539</ele>
        <time>2022-07-19T10:19:43Z</time>
      </trkpt>
      <trkpt lat="44.31334" lon="6.90075">
        <ele>1539.2</ele>
        <time>2022-07-19T10:19:44Z</time>
      </trkpt>
      <trkpt lat="44.31336" lon="6.90076">
        <ele>1539.2</ele>
        <time>2022-07-19T10:19:45Z</time>
      </trkpt>
      <trkpt lat="44.31337" lon="6.90076">
        <ele>1539.4</ele>
        <time>2022-07-19T10:19:46Z</time>
      </trkpt>
      <trkpt lat="44.31339" lon="6.90077">
        <ele>1539.4</ele>
        <time>2022-07-19T10:19:47Z</time>
      </trkpt>
      <trkpt lat="44.31341" lon="6.90077">
        <ele>1539.8</ele>
        <time>2022-07-19T10:19:48Z</time>
      </trkpt>
      <trkpt lat="44.31343" lon="6.90078">
        <ele>1539.8</ele>
        <time>2022-07-19T10:19:49Z</time>
      </trkpt>
      <trkpt lat="44.31345" lon="6.90079">
        <ele>1540.2</ele>
        <time>2022-07-19T10:19:50Z</time>
      </trkpt>
      <trkpt lat="44.31347" lon="6.90079">
        <ele>1540.2</ele>
        <time>2022-07-19T10:19:51Z</time>
      </trkpt>
      <trkpt lat="44.31349" lon="6.90079">
        <ele>1540.6</ele>
        <time>2022-07-19T10:19:52Z</time>
      </trkpt>
      <trkpt lat="44.31352" lon="6.9008">
        <ele>1540.6</ele>
        <time>2022-07-19T10:19:53Z</time>
      </trkpt>
      <trkpt lat="44.31354" lon="6.9008">
        <ele>1540.8</ele>
        <time>2022-07-19T10:19:54Z</time>
      </trkpt>
      <trkpt lat="44.31356" lon="6.90081">
        <ele>1540.8</ele>
        <time>2022-07-19T10:19:55Z</time>
      </trkpt>
      <trkpt lat="44.31359" lon="6.90082">
        <ele>1540.8</ele>
        <time>2022-07-19T10:19:56Z</time>
      </trkpt>
      <trkpt lat="44.31361" lon="6.90083">
        <ele>1541.2</ele>
        <time>2022-07-19T10:19:57Z</time>
      </trkpt>
      <trkpt lat="44.31362" lon="6.90084">
        <ele>1541.2</ele>
        <time>2022-07-19T10:19:58Z</time>
      </trkpt>
      <trkpt lat="44.31364" lon="6.90085">
        <ele>1541.4</ele>
        <time>2022-07-19T10:19:59Z</time>
      </trkpt>
      <trkpt lat="44.31366" lon="6.90085">
        <ele>1541.6</ele>
        <time>2022-07-19T10:20:00Z</time>
      </trkpt>
      <trkpt lat="44.31367" lon="6.90086">
        <ele>1541.6</ele>
        <time>2022-07-19T10:20:01Z</time>
      </trkpt>
      <trkpt lat="44.31369" lon="6.90086">
        <ele>1542</ele>
        <time>2022-07-19T10:20:02Z</time>
      </trkpt>
      <trkpt lat="44.31371" lon="6.90086">
        <ele>1542</ele>
        <time>2022-07-19T10:20:03Z</time>
      </trkpt>
      <trkpt lat="44.31373" lon="6.90087">
        <ele>1542.2</ele>
        <time>2022-07-19T10:20:04Z</time>
      </trkpt>
      <trkpt lat="44.31375" lon="6.90087">
        <ele>1542.2</ele>
        <time>2022-07-19T10:20:05Z</time>
      </trkpt>
      <trkpt lat="44.31377" lon="6.90087">
        <ele>1542.6</ele>
        <time>2022-07-19T10:20:06Z</time>
      </trkpt>
      <trkpt lat="44.31378" lon="6.90087">
        <ele>1542.6</ele>
        <time>2022-07-19T10:20:07Z</time>
      </trkpt>
      <trkpt lat="44.31381" lon="6.90087">
        <ele>1543</ele>
        <time>2022-07-19T10:20:08Z</time>
      </trkpt>
      <trkpt lat="44.31383" lon="6.90087">
        <ele>1543</ele>
        <time>2022-07-19T10:20:09Z</time>
      </trkpt>
      <trkpt lat="44.31385" lon="6.90087">
        <ele>1543.2</ele>
        <time>2022-07-19T10:20:10Z</time>
      </trkpt>
      <trkpt lat="44.31387" lon="6.90087">
        <ele>1543.2</ele>
        <time>2022-07-19T10:20:11Z</time>
      </trkpt>
      <trkpt lat="44.31389" lon="6.90087">
        <ele>1543.4</ele>
        <time>2022-07-19T10:20:12Z</time>
      </trkpt>
      <trkpt lat="44.31391" lon="6.90087">
        <ele>1543.4</ele>
        <time>2022-07-19T10:20:13Z</time>
      </trkpt>
      <trkpt lat="44.31392" lon="6.90087">
        <ele>1543.8</ele>
        <time>2022-07-19T10:20:14Z</time>
      </trkpt>
      <trkpt lat="44.31394" lon="6.90087">
        <ele>1543.8</ele>
        <time>2022-07-19T10:20:15Z</time>
      </trkpt>
      <trkpt lat="44.31396" lon="6.90087">
        <ele>1544</ele>
        <time>2022-07-19T10:20:16Z</time>
      </trkpt>
      <trkpt lat="44.31398" lon="6.90088">
        <ele>1544</ele>
        <time>2022-07-19T10:20:17Z</time>
      </trkpt>
      <trkpt lat="44.314" lon="6.90088">
        <ele>1544.4</ele>
        <time>2022-07-19T10:20:18Z</time>
      </trkpt>
      <trkpt lat="44.31401" lon="6.90088">
        <ele>1544.4</ele>
        <time>2022-07-19T10:20:19Z</time>
      </trkpt>
      <trkpt lat="44.31403" lon="6.90088">
        <ele>1544.6</ele>
        <time>2022-07-19T10:20:20Z</time>
      </trkpt>
      <trkpt lat="44.31405" lon="6.90089">
        <ele>1544.6</ele>
        <time>2022-07-19T10:20:21Z</time>
      </trkpt>
      <trkpt lat="44.31407" lon="6.90088">
        <ele>1545</ele>
        <time>2022-07-19T10:20:22Z</time>
      </trkpt>
      <trkpt lat="44.31409" lon="6.90088">
        <ele>1545</ele>
        <time>2022-07-19T10:20:23Z</time>
      </trkpt>
      <trkpt lat="44.31411" lon="6.90088">
        <ele>1545.4</ele>
        <time>2022-07-19T10:20:24Z</time>
      </trkpt>
      <trkpt lat="44.31414" lon="6.90088">
        <ele>1545.4</ele>
        <time>2022-07-19T10:20:25Z</time>
      </trkpt>
      <trkpt lat="44.31416" lon="6.90087">
        <ele>1545.6</ele>
        <time>2022-07-19T10:20:26Z</time>
      </trkpt>
      <trkpt lat="44.31418" lon="6.90087">
        <ele>1545.6</ele>
        <time>2022-07-19T10:20:27Z</time>
      </trkpt>
      <trkpt lat="44.31421" lon="6.90086">
        <ele>1546</ele>
        <time>2022-07-19T10:20:28Z</time>
      </trkpt>
      <trkpt lat="44.31423" lon="6.90086">
        <ele>1546</ele>
        <time>2022-07-19T10:20:29Z</time>
      </trkpt>
      <trkpt lat="44.31425" lon="6.90086">
        <ele>1546.2</ele>
        <time>2022-07-19T10:20:30Z</time>
      </trkpt>
      <trkpt lat="44.31428" lon="6.90085">
        <ele>1546.4</ele>
        <time>2022-07-19T10:20:31Z</time>
      </trkpt>
      <trkpt lat="44.3143" lon="6.90084">
        <ele>1546.4</ele>
        <time>2022-07-19T10:20:32Z</time>
      </trkpt>
      <trkpt lat="44.31431" lon="6.90083">
        <ele>1546.8</ele>
        <time>2022-07-19T10:20:33Z</time>
      </trkpt>
      <trkpt lat="44.31433" lon="6.90082">
        <ele>1546.8</ele>
        <time>2022-07-19T10:20:34Z</time>
      </trkpt>
      <trkpt lat="44.31435" lon="6.90081">
        <ele>1547.2</ele>
        <time>2022-07-19T10:20:35Z</time>
      </trkpt>
      <trkpt lat="44.31437" lon="6.9008">
        <ele>1547.2</ele>
        <time>2022-07-19T10:20:36Z</time>
      </trkpt>
      <trkpt lat="44.31439" lon="6.90078">
        <ele>1547.4</ele>
        <time>2022-07-19T10:20:37Z</time>
      </trkpt>
      <trkpt lat="44.31441" lon="6.90077">
        <ele>1547.4</ele>
        <time>2022-07-19T10:20:38Z</time>
      </trkpt>
      <trkpt lat="44.31443" lon="6.90076">
        <ele>1547.6</ele>
        <time>2022-07-19T10:20:39Z</time>
      </trkpt>
      <trkpt lat="44.31445" lon="6.90075">
        <ele>1548</ele>
        <time>2022-07-19T10:20:40Z</time>
      </trkpt>
      <trkpt lat="44.31447" lon="6.90073">
        <ele>1548</ele>
        <time>2022-07-19T10:20:41Z</time>
      </trkpt>
      <trkpt lat="44.31449" lon="6.90072">
        <ele>1548.2</ele>
        <time>2022-07-19T10:20:42Z</time>
      </trkpt>
      <trkpt lat="44.31451" lon="6.9007">
        <ele>1548.2</ele>
        <time>2022-07-19T10:20:43Z</time>
      </trkpt>
      <trkpt lat="44.31453" lon="6.90069">
        <ele>1548.4</ele>
        <time>2022-07-19T10:20:44Z</time>
      </trkpt>
      <trkpt lat="44.31455" lon="6.90069">
        <ele>1548.4</ele>
        <time>2022-07-19T10:20:45Z</time>
      </trkpt>
      <trkpt lat="44.31457" lon="6.90067">
        <ele>1548.8</ele>
        <time>2022-07-19T10:20:46Z</time>
      </trkpt>
      <trkpt lat="44.31459" lon="6.90066">
        <ele>1548.8</ele>
        <time>2022-07-19T10:20:47Z</time>
      </trkpt>
      <trkpt lat="44.31461" lon="6.90065">
        <ele>1549</ele>
        <time>2022-07-19T10:20:48Z</time>
      </trkpt>
      <trkpt lat="44.31464" lon="6.90064">
        <ele>1549</ele>
        <time>2022-07-19T10:20:49Z</time>
      </trkpt>
      <trkpt lat="44.31466" lon="6.90063">
        <ele>1549.2</ele>
        <time>2022-07-19T10:20:50Z</time>
      </trkpt>
      <trkpt lat="44.31468" lon="6.90062">
        <ele>1549.2</ele>
        <time>2022-07-19T10:20:51Z</time>
      </trkpt>
      <trkpt lat="44.3147" lon="6.90061">
        <ele>1549.2</ele>
        <time>2022-07-19T10:20:52Z</time>
      </trkpt>
      <trkpt lat="44.31472" lon="6.90061">
        <ele>1549.6</ele>
        <time>2022-07-19T10:20:53Z</time>
      </trkpt>
      <trkpt lat="44.31474" lon="6.9006">
        <ele>1549.6</ele>
        <time>2022-07-19T10:20:54Z</time>
      </trkpt>
      <trkpt lat="44.31476" lon="6.9006">
        <ele>1550</ele>
        <time>2022-07-19T10:20:55Z</time>
      </trkpt>
      <trkpt lat="44.31478" lon="6.90059">
        <ele>1550</ele>
        <time>2022-07-19T10:20:56Z</time>
      </trkpt>
      <trkpt lat="44.3148" lon="6.90058">
        <ele>1550.2</ele>
        <time>2022-07-19T10:20:57Z</time>
      </trkpt>
      <trkpt lat="44.31482" lon="6.90057">
        <ele>1550.2</ele>
        <time>2022-07-19T10:20:58Z</time>
      </trkpt>
      <trkpt lat="44.31484" lon="6.90057">
        <ele>1550.4</ele>
        <time>2022-07-19T10:20:59Z</time>
      </trkpt>
      <trkpt lat="44.31486" lon="6.90057">
        <ele>1550.4</ele>
        <time>2022-07-19T10:21:00Z</time>
      </trkpt>
      <trkpt lat="44.31489" lon="6.90056">
        <ele>1550.8</ele>
        <time>2022-07-19T10:21:01Z</time>
      </trkpt>
      <trkpt lat="44.31491" lon="6.90055">
        <ele>1550.8</ele>
        <time>2022-07-19T10:21:02Z</time>
      </trkpt>
      <trkpt lat="44.31493" lon="6.90053">
        <ele>1551</ele>
        <time>2022-07-19T10:21:03Z</time>
      </trkpt>
      <trkpt lat="44.31495" lon="6.90052">
        <ele>1551.2</ele>
        <time>2022-07-19T10:21:04Z</time>
      </trkpt>
      <trkpt lat="44.31497" lon="6.90052">
        <ele>1551.2</ele>
        <time>2022-07-19T10:21:05Z</time>
      </trkpt>
      <trkpt lat="44.31499" lon="6.90051">
        <ele>1551.2</ele>
        <time>2022-07-19T10:21:06Z</time>
      </trkpt>
      <trkpt lat="44.31501" lon="6.9005">
        <ele>1551.6</ele>
        <time>2022-07-19T10:21:07Z</time>
      </trkpt>
      <trkpt lat="44.31503" lon="6.90049">
        <ele>1551.6</ele>
        <time>2022-07-19T10:21:08Z</time>
      </trkpt>
      <trkpt lat="44.31506" lon="6.90049">
        <ele>1552</ele>
        <time>2022-07-19T10:21:09Z</time>
      </trkpt>
      <trkpt lat="44.31508" lon="6.90048">
        <ele>1552</ele>
        <time>2022-07-19T10:21:10Z</time>
      </trkpt>
      <trkpt lat="44.3151" lon="6.90048">
        <ele>1552.4</ele>
        <time>2022-07-19T10:21:11Z</time>
      </trkpt>
      <trkpt lat="44.31513" lon="6.90047">
        <ele>1552.6</ele>
        <time>2022-07-19T10:21:12Z</time>
      </trkpt>
      <trkpt lat="44.31515" lon="6.90047">
        <ele>1552.6</ele>
        <time>2022-07-19T10:21:13Z</time>
      </trkpt>
      <trkpt lat="44.31517" lon="6.90048">
        <ele>1553</ele>
        <time>2022-07-19T10:21:14Z</time>
      </trkpt>
      <trkpt lat="44.31519" lon="6.90048">
        <ele>1553</ele>
        <time>2022-07-19T10:21:15Z</time>
      </trkpt>
      <trkpt lat="44.31521" lon="6.90048">
        <ele>1553.2</ele>
        <time>2022-07-19T10:21:16Z</time>
      </trkpt>
      <trkpt lat="44.31523" lon="6.90047">
        <ele>1553.2</ele>
        <time>2022-07-19T10:21:17Z</time>
      </trkpt>
      <trkpt lat="44.31525" lon="6.90047">
        <ele>1553.6</ele>
        <time>2022-07-19T10:21:18Z</time>
      </trkpt>
      <trkpt lat="44.31527" lon="6.90047">
        <ele>1553.6</ele>
        <time>2022-07-19T10:21:19Z</time>
      </trkpt>
      <trkpt lat="44.31529" lon="6.90047">
        <ele>1554</ele>
        <time>2022-07-19T10:21:20Z</time>
      </trkpt>
      <trkpt lat="44.31532" lon="6.90047">
        <ele>1554</ele>
        <time>2022-07-19T10:21:21Z</time>
      </trkpt>
      <trkpt lat="44.31534" lon="6.90047">
        <ele>1554.4</ele>
        <time>2022-07-19T10:21:22Z</time>
      </trkpt>
      <trkpt lat="44.31536" lon="6.90046">
        <ele>1554.4</ele>
        <time>2022-07-19T10:21:23Z</time>
      </trkpt>
      <trkpt lat="44.31538" lon="6.90046">
        <ele>1554.6</ele>
        <time>2022-07-19T10:21:24Z</time>
      </trkpt>
      <trkpt lat="44.31541" lon="6.90046">
        <ele>1554.6</ele>
        <time>2022-07-19T10:21:25Z</time>
      </trkpt>
      <trkpt lat="44.31543" lon="6.90047">
        <ele>1555</ele>
        <time>2022-07-19T10:21:26Z</time>
      </trkpt>
      <trkpt lat="44.31546" lon="6.90047">
        <ele>1555</ele>
        <time>2022-07-19T10:21:27Z</time>
      </trkpt>
      <trkpt lat="44.31548" lon="6.90047">
        <ele>1555.2</ele>
        <time>2022-07-19T10:21:28Z</time>
      </trkpt>
      <trkpt lat="44.3155" lon="6.90047">
        <ele>1555.2</ele>
        <time>2022-07-19T10:21:29Z</time>
      </trkpt>
      <trkpt lat="44.31553" lon="6.90047">
        <ele>1555.4</ele>
        <time>2022-07-19T10:21:30Z</time>
      </trkpt>
      <trkpt lat="44.31555" lon="6.90047">
        <ele>1555.4</ele>
        <time>2022-07-19T10:21:31Z</time>
      </trkpt>
      <trkpt lat="44.31557" lon="6.90047">
        <ele>1555.8</ele>
        <time>2022-07-19T10:21:32Z</time>
      </trkpt>
      <trkpt lat="44.31558" lon="6.90046">
        <ele>1555.8</ele>
        <time>2022-07-19T10:21:33Z</time>
      </trkpt>
      <trkpt lat="44.31561" lon="6.90046">
        <ele>1556.2</ele>
        <time>2022-07-19T10:21:34Z</time>
      </trkpt>
      <trkpt lat="44.31563" lon="6.90046">
        <ele>1556.2</ele>
        <time>2022-07-19T10:21:35Z</time>
      </trkpt>
      <trkpt lat="44.31565" lon="6.90046">
        <ele>1556.4</ele>
        <time>2022-07-19T10:21:36Z</time>
      </trkpt>
      <trkpt lat="44.31567" lon="6.90045">
        <ele>1556.6</ele>
        <time>2022-07-19T10:21:37Z</time>
      </trkpt>
      <trkpt lat="44.31569" lon="6.90045">
        <ele>1556.6</ele>
        <time>2022-07-19T10:21:38Z</time>
      </trkpt>
      <trkpt lat="44.31571" lon="6.90045">
        <ele>1556.6</ele>
        <time>2022-07-19T10:21:39Z</time>
      </trkpt>
      <trkpt lat="44.31573" lon="6.90045">
        <ele>1557</ele>
        <time>2022-07-19T10:21:40Z</time>
      </trkpt>
      <trkpt lat="44.31576" lon="6.90044">
        <ele>1557</ele>
        <time>2022-07-19T10:21:41Z</time>
      </trkpt>
      <trkpt lat="44.31577" lon="6.90043">
        <ele>1557.2</ele>
        <time>2022-07-19T10:21:42Z</time>
      </trkpt>
      <trkpt lat="44.31579" lon="6.90041">
        <ele>1557.2</ele>
        <time>2022-07-19T10:21:43Z</time>
      </trkpt>
      <trkpt lat="44.31582" lon="6.9004">
        <ele>1557.6</ele>
        <time>2022-07-19T10:21:44Z</time>
      </trkpt>
      <trkpt lat="44.31584" lon="6.90039">
        <ele>1557.6</ele>
        <time>2022-07-19T10:21:45Z</time>
      </trkpt>
      <trkpt lat="44.31586" lon="6.90038">
        <ele>1557.8</ele>
        <time>2022-07-19T10:21:46Z</time>
      </trkpt>
      <trkpt lat="44.31588" lon="6.90037">
        <ele>1557.8</ele>
        <time>2022-07-19T10:21:47Z</time>
      </trkpt>
      <trkpt lat="44.3159" lon="6.90036">
        <ele>1558.2</ele>
        <time>2022-07-19T10:21:48Z</time>
      </trkpt>
      <trkpt lat="44.31592" lon="6.90035">
        <ele>1558.2</ele>
        <time>2022-07-19T10:21:49Z</time>
      </trkpt>
      <trkpt lat="44.31594" lon="6.90034">
        <ele>1558.4</ele>
        <time>2022-07-19T10:21:50Z</time>
      </trkpt>
      <trkpt lat="44.31596" lon="6.90033">
        <ele>1558.4</ele>
        <time>2022-07-19T10:21:51Z</time>
      </trkpt>
      <trkpt lat="44.31598" lon="6.90032">
        <ele>1558.6</ele>
        <time>2022-07-19T10:21:52Z</time>
      </trkpt>
      <trkpt lat="44.316" lon="6.90031">
        <ele>1558.6</ele>
        <time>2022-07-19T10:21:53Z</time>
      </trkpt>
      <trkpt lat="44.31602" lon="6.9003">
        <ele>1559</ele>
        <time>2022-07-19T10:21:54Z</time>
      </trkpt>
      <trkpt lat="44.31603" lon="6.90028">
        <ele>1559</ele>
        <time>2022-07-19T10:21:55Z</time>
      </trkpt>
      <trkpt lat="44.31605" lon="6.90027">
        <ele>1559.2</ele>
        <time>2022-07-19T10:21:56Z</time>
      </trkpt>
      <trkpt lat="44.31607" lon="6.90026">
        <ele>1559.2</ele>
        <time>2022-07-19T10:21:57Z</time>
      </trkpt>
      <trkpt lat="44.31609" lon="6.90025">
        <ele>1559.6</ele>
        <time>2022-07-19T10:21:58Z</time>
      </trkpt>
      <trkpt lat="44.31611" lon="6.90024">
        <ele>1559.6</ele>
        <time>2022-07-19T10:21:59Z</time>
      </trkpt>
      <trkpt lat="44.31613" lon="6.90022">
        <ele>1559.8</ele>
        <time>2022-07-19T10:22:00Z</time>
      </trkpt>
      <trkpt lat="44.31614" lon="6.90021">
        <ele>1559.8</ele>
        <time>2022-07-19T10:22:01Z</time>
      </trkpt>
      <trkpt lat="44.31616" lon="6.90019">
        <ele>1560.2</ele>
        <time>2022-07-19T10:22:02Z</time>
      </trkpt>
      <trkpt lat="44.31617" lon="6.90018">
        <ele>1560.4</ele>
        <time>2022-07-19T10:22:03Z</time>
      </trkpt>
      <trkpt lat="44.31619" lon="6.90016">
        <ele>1560.6</ele>
        <time>2022-07-19T10:22:04Z</time>
      </trkpt>
      <trkpt lat="44.3162" lon="6.90014">
        <ele>1560.6</ele>
        <time>2022-07-19T10:22:05Z</time>
      </trkpt>
      <trkpt lat="44.31621" lon="6.90012">
        <ele>1560.8</ele>
        <time>2022-07-19T10:22:06Z</time>
      </trkpt>
      <trkpt lat="44.31623" lon="6.90011">
        <ele>1560.8</ele>
        <time>2022-07-19T10:22:07Z</time>
      </trkpt>
      <trkpt lat="44.31624" lon="6.90009">
        <ele>1561.2</ele>
        <time>2022-07-19T10:22:08Z</time>
      </trkpt>
      <trkpt lat="44.31625" lon="6.90007">
        <ele>1561.2</ele>
        <time>2022-07-19T10:22:09Z</time>
      </trkpt>
      <trkpt lat="44.31627" lon="6.90005">
        <ele>1561.4</ele>
        <time>2022-07-19T10:22:10Z</time>
      </trkpt>
      <trkpt lat="44.31629" lon="6.90003">
        <ele>1561.4</ele>
        <time>2022-07-19T10:22:11Z</time>
      </trkpt>
      <trkpt lat="44.3163" lon="6.90001">
        <ele>1561.8</ele>
        <time>2022-07-19T10:22:12Z</time>
      </trkpt>
      <trkpt lat="44.31632" lon="6.89999">
        <ele>1561.8</ele>
        <time>2022-07-19T10:22:13Z</time>
      </trkpt>
      <trkpt lat="44.31634" lon="6.89998">
        <ele>1562</ele>
        <time>2022-07-19T10:22:14Z</time>
      </trkpt>
      <trkpt lat="44.31636" lon="6.89996">
        <ele>1562</ele>
        <time>2022-07-19T10:22:15Z</time>
      </trkpt>
      <trkpt lat="44.31637" lon="6.89994">
        <ele>1562.4</ele>
        <time>2022-07-19T10:22:16Z</time>
      </trkpt>
      <trkpt lat="44.31639" lon="6.89992">
        <ele>1562.4</ele>
        <time>2022-07-19T10:22:17Z</time>
      </trkpt>
      <trkpt lat="44.31641" lon="6.8999">
        <ele>1562.6</ele>
        <time>2022-07-19T10:22:18Z</time>
      </trkpt>
      <trkpt lat="44.31642" lon="6.89989">
        <ele>1562.6</ele>
        <time>2022-07-19T10:22:19Z</time>
      </trkpt>
      <trkpt lat="44.31644" lon="6.89988">
        <ele>1563</ele>
        <time>2022-07-19T10:22:20Z</time>
      </trkpt>
      <trkpt lat="44.31646" lon="6.89987">
        <ele>1563</ele>
        <time>2022-07-19T10:22:21Z</time>
      </trkpt>
      <trkpt lat="44.31648" lon="6.89986">
        <ele>1563.2</ele>
        <time>2022-07-19T10:22:22Z</time>
      </trkpt>
      <trkpt lat="44.3165" lon="6.89985">
        <ele>1563.2</ele>
        <time>2022-07-19T10:22:23Z</time>
      </trkpt>
      <trkpt lat="44.31652" lon="6.89984">
        <ele>1563.6</ele>
        <time>2022-07-19T10:22:24Z</time>
      </trkpt>
      <trkpt lat="44.31654" lon="6.89983">
        <ele>1563.6</ele>
        <time>2022-07-19T10:22:25Z</time>
      </trkpt>
      <trkpt lat="44.31656" lon="6.89982">
        <ele>1564</ele>
        <time>2022-07-19T10:22:26Z</time>
      </trkpt>
      <trkpt lat="44.31657" lon="6.89981">
        <ele>1564</ele>
        <time>2022-07-19T10:22:27Z</time>
      </trkpt>
      <trkpt lat="44.31659" lon="6.89979">
        <ele>1564.2</ele>
        <time>2022-07-19T10:22:28Z</time>
      </trkpt>
      <trkpt lat="44.31661" lon="6.89979">
        <ele>1564.2</ele>
        <time>2022-07-19T10:22:29Z</time>
      </trkpt>
      <trkpt lat="44.31663" lon="6.89978">
        <ele>1564.2</ele>
        <time>2022-07-19T10:22:30Z</time>
      </trkpt>
      <trkpt lat="44.31665" lon="6.89977">
        <ele>1564.6</ele>
        <time>2022-07-19T10:22:31Z</time>
      </trkpt>
      <trkpt lat="44.31667" lon="6.89976">
        <ele>1564.6</ele>
        <time>2022-07-19T10:22:32Z</time>
      </trkpt>
      <trkpt lat="44.31669" lon="6.89975">
        <ele>1564.8</ele>
        <time>2022-07-19T10:22:33Z</time>
      </trkpt>
      <trkpt lat="44.31671" lon="6.89974">
        <ele>1564.8</ele>
        <time>2022-07-19T10:22:34Z</time>
      </trkpt>
      <trkpt lat="44.31672" lon="6.89973">
        <ele>1565</ele>
        <time>2022-07-19T10:22:35Z</time>
      </trkpt>
      <trkpt lat="44.31674" lon="6.89973">
        <ele>1565</ele>
        <time>2022-07-19T10:22:36Z</time>
      </trkpt>
      <trkpt lat="44.31676" lon="6.89972">
        <ele>1565.4</ele>
        <time>2022-07-19T10:22:37Z</time>
      </trkpt>
      <trkpt lat="44.31678" lon="6.89971">
        <ele>1565.4</ele>
        <time>2022-07-19T10:22:38Z</time>
      </trkpt>
      <trkpt lat="44.31679" lon="6.8997">
        <ele>1565.6</ele>
        <time>2022-07-19T10:22:39Z</time>
      </trkpt>
      <trkpt lat="44.31681" lon="6.8997">
        <ele>1565.6</ele>
        <time>2022-07-19T10:22:40Z</time>
      </trkpt>
      <trkpt lat="44.31683" lon="6.89968">
        <ele>1566</ele>
        <time>2022-07-19T10:22:41Z</time>
      </trkpt>
      <trkpt lat="44.31685" lon="6.89968">
        <ele>1566</ele>
        <time>2022-07-19T10:22:42Z</time>
      </trkpt>
      <trkpt lat="44.31687" lon="6.89967">
        <ele>1566.4</ele>
        <time>2022-07-19T10:22:43Z</time>
      </trkpt>
      <trkpt lat="44.31689" lon="6.89966">
        <ele>1566.4</ele>
        <time>2022-07-19T10:22:44Z</time>
      </trkpt>
      <trkpt lat="44.31691" lon="6.89965">
        <ele>1566.6</ele>
        <time>2022-07-19T10:22:45Z</time>
      </trkpt>
      <trkpt lat="44.31692" lon="6.89963">
        <ele>1566.6</ele>
        <time>2022-07-19T10:22:46Z</time>
      </trkpt>
      <trkpt lat="44.31694" lon="6.89962">
        <ele>1566.6</ele>
        <time>2022-07-19T10:22:47Z</time>
      </trkpt>
      <trkpt lat="44.31695" lon="6.89961">
        <ele>1567</ele>
        <time>2022-07-19T10:22:48Z</time>
      </trkpt>
      <trkpt lat="44.31697" lon="6.8996">
        <ele>1567</ele>
        <time>2022-07-19T10:22:49Z</time>
      </trkpt>
      <trkpt lat="44.31699" lon="6.89958">
        <ele>1567.4</ele>
        <time>2022-07-19T10:22:50Z</time>
      </trkpt>
      <trkpt lat="44.317" lon="6.89957">
        <ele>1567.6</ele>
        <time>2022-07-19T10:22:51Z</time>
      </trkpt>
      <trkpt lat="44.31702" lon="6.89955">
        <ele>1567.6</ele>
        <time>2022-07-19T10:22:52Z</time>
      </trkpt>
      <trkpt lat="44.31704" lon="6.89953">
        <ele>1567.8</ele>
        <time>2022-07-19T10:22:53Z</time>
      </trkpt>
      <trkpt lat="44.31705" lon="6.89951">
        <ele>1567.8</ele>
        <time>2022-07-19T10:22:54Z</time>
      </trkpt>
      <trkpt lat="44.31707" lon="6.89949">
        <ele>1568.2</ele>
        <time>2022-07-19T10:22:55Z</time>
      </trkpt>
      <trkpt lat="44.31708" lon="6.89947">
        <ele>1568.2</ele>
        <time>2022-07-19T10:22:56Z</time>
      </trkpt>
      <trkpt lat="44.31709" lon="6.89945">
        <ele>1568.4</ele>
        <time>2022-07-19T10:22:57Z</time>
      </trkpt>
      <trkpt lat="44.31711" lon="6.89943">
        <ele>1568.4</ele>
        <time>2022-07-19T10:22:58Z</time>
      </trkpt>
      <trkpt lat="44.31712" lon="6.89942">
        <ele>1568.8</ele>
        <time>2022-07-19T10:22:59Z</time>
      </trkpt>
      <trkpt lat="44.31714" lon="6.8994">
        <ele>1568.8</ele>
        <time>2022-07-19T10:23:00Z</time>
      </trkpt>
      <trkpt lat="44.31715" lon="6.89938">
        <ele>1569</ele>
        <time>2022-07-19T10:23:01Z</time>
      </trkpt>
      <trkpt lat="44.31717" lon="6.89937">
        <ele>1569</ele>
        <time>2022-07-19T10:23:02Z</time>
      </trkpt>
      <trkpt lat="44.31718" lon="6.89935">
        <ele>1569.2</ele>
        <time>2022-07-19T10:23:03Z</time>
      </trkpt>
      <trkpt lat="44.31719" lon="6.89933">
        <ele>1569.2</ele>
        <time>2022-07-19T10:23:04Z</time>
      </trkpt>
      <trkpt lat="44.3172" lon="6.89931">
        <ele>1569.4</ele>
        <time>2022-07-19T10:23:05Z</time>
      </trkpt>
      <trkpt lat="44.31722" lon="6.89929">
        <ele>1569.4</ele>
        <time>2022-07-19T10:23:06Z</time>
      </trkpt>
      <trkpt lat="44.31723" lon="6.89928">
        <ele>1569.8</ele>
        <time>2022-07-19T10:23:07Z</time>
      </trkpt>
      <trkpt lat="44.31725" lon="6.89926">
        <ele>1569.8</ele>
        <time>2022-07-19T10:23:08Z</time>
      </trkpt>
      <trkpt lat="44.31726" lon="6.89925">
        <ele>1570</ele>
        <time>2022-07-19T10:23:09Z</time>
      </trkpt>
      <trkpt lat="44.31728" lon="6.89923">
        <ele>1570</ele>
        <time>2022-07-19T10:23:10Z</time>
      </trkpt>
      <trkpt lat="44.31729" lon="6.89921">
        <ele>1570.2</ele>
        <time>2022-07-19T10:23:11Z</time>
      </trkpt>
      <trkpt lat="44.3173" lon="6.8992">
        <ele>1570.2</ele>
        <time>2022-07-19T10:23:12Z</time>
      </trkpt>
      <trkpt lat="44.31731" lon="6.89918">
        <ele>1570.6</ele>
        <time>2022-07-19T10:23:13Z</time>
      </trkpt>
      <trkpt lat="44.31733" lon="6.89917">
        <ele>1570.6</ele>
        <time>2022-07-19T10:23:14Z</time>
      </trkpt>
      <trkpt lat="44.31734" lon="6.89915">
        <ele>1570.8</ele>
        <time>2022-07-19T10:23:15Z</time>
      </trkpt>
      <trkpt lat="44.31736" lon="6.89914">
        <ele>1570.8</ele>
        <time>2022-07-19T10:23:16Z</time>
      </trkpt>
      <trkpt lat="44.31737" lon="6.89912">
        <ele>1571.2</ele>
        <time>2022-07-19T10:23:17Z</time>
      </trkpt>
      <trkpt lat="44.31738" lon="6.8991">
        <ele>1571.2</ele>
        <time>2022-07-19T10:23:18Z</time>
      </trkpt>
      <trkpt lat="44.31739" lon="6.89909">
        <ele>1571.2</ele>
        <time>2022-07-19T10:23:19Z</time>
      </trkpt>
      <trkpt lat="44.3174" lon="6.89908">
        <ele>1571.4</ele>
        <time>2022-07-19T10:23:20Z</time>
      </trkpt>
      <trkpt lat="44.31741" lon="6.89906">
        <ele>1571.4</ele>
        <time>2022-07-19T10:23:21Z</time>
      </trkpt>
      <trkpt lat="44.31743" lon="6.89904">
        <ele>1571.8</ele>
        <time>2022-07-19T10:23:22Z</time>
      </trkpt>
      <trkpt lat="44.31744" lon="6.89903">
        <ele>1571.8</ele>
        <time>2022-07-19T10:23:23Z</time>
      </trkpt>
      <trkpt lat="44.31746" lon="6.89901">
        <ele>1571.8</ele>
        <time>2022-07-19T10:23:24Z</time>
      </trkpt>
      <trkpt lat="44.31747" lon="6.899">
        <ele>1572</ele>
        <time>2022-07-19T10:23:25Z</time>
      </trkpt>
      <trkpt lat="44.31749" lon="6.89898">
        <ele>1572</ele>
        <time>2022-07-19T10:23:26Z</time>
      </trkpt>
      <trkpt lat="44.3175" lon="6.89897">
        <ele>1572.4</ele>
        <time>2022-07-19T10:23:27Z</time>
      </trkpt>
      <trkpt lat="44.31752" lon="6.89895">
        <ele>1572.4</ele>
        <time>2022-07-19T10:23:28Z</time>
      </trkpt>
      <trkpt lat="44.31753" lon="6.89893">
        <ele>1572.8</ele>
        <time>2022-07-19T10:23:29Z</time>
      </trkpt>
      <trkpt lat="44.31754" lon="6.89891">
        <ele>1572.8</ele>
        <time>2022-07-19T10:23:30Z</time>
      </trkpt>
      <trkpt lat="44.31756" lon="6.89889">
        <ele>1573</ele>
        <time>2022-07-19T10:23:31Z</time>
      </trkpt>
      <trkpt lat="44.31757" lon="6.89888">
        <ele>1573</ele>
        <time>2022-07-19T10:23:32Z</time>
      </trkpt>
      <trkpt lat="44.31758" lon="6.89886">
        <ele>1573.4</ele>
        <time>2022-07-19T10:23:33Z</time>
      </trkpt>
      <trkpt lat="44.31759" lon="6.89884">
        <ele>1573.4</ele>
        <time>2022-07-19T10:23:34Z</time>
      </trkpt>
      <trkpt lat="44.3176" lon="6.89882">
        <ele>1573.6</ele>
        <time>2022-07-19T10:23:35Z</time>
      </trkpt>
      <trkpt lat="44.31761" lon="6.8988">
        <ele>1573.6</ele>
        <time>2022-07-19T10:23:36Z</time>
      </trkpt>
      <trkpt lat="44.31762" lon="6.89878">
        <ele>1574</ele>
        <time>2022-07-19T10:23:37Z</time>
      </trkpt>
      <trkpt lat="44.31763" lon="6.89876">
        <ele>1574</ele>
        <time>2022-07-19T10:23:38Z</time>
      </trkpt>
      <trkpt lat="44.31764" lon="6.89874">
        <ele>1574.2</ele>
        <time>2022-07-19T10:23:39Z</time>
      </trkpt>
      <trkpt lat="44.31765" lon="6.89872">
        <ele>1574.2</ele>
        <time>2022-07-19T10:23:40Z</time>
      </trkpt>
      <trkpt lat="44.31766" lon="6.8987">
        <ele>1574.4</ele>
        <time>2022-07-19T10:23:41Z</time>
      </trkpt>
      <trkpt lat="44.31768" lon="6.89868">
        <ele>1574.4</ele>
        <time>2022-07-19T10:23:42Z</time>
      </trkpt>
      <trkpt lat="44.31769" lon="6.89866">
        <ele>1574.8</ele>
        <time>2022-07-19T10:23:43Z</time>
      </trkpt>
      <trkpt lat="44.3177" lon="6.89864">
        <ele>1574.8</ele>
        <time>2022-07-19T10:23:44Z</time>
      </trkpt>
      <trkpt lat="44.31771" lon="6.89862">
        <ele>1575</ele>
        <time>2022-07-19T10:23:45Z</time>
      </trkpt>
      <trkpt lat="44.31773" lon="6.8986">
        <ele>1575</ele>
        <time>2022-07-19T10:23:46Z</time>
      </trkpt>
      <trkpt lat="44.31774" lon="6.89857">
        <ele>1575.2</ele>
        <time>2022-07-19T10:23:47Z</time>
      </trkpt>
      <trkpt lat="44.31775" lon="6.89855">
        <ele>1575.2</ele>
        <time>2022-07-19T10:23:48Z</time>
      </trkpt>
      <trkpt lat="44.31776" lon="6.89853">
        <ele>1575.6</ele>
        <time>2022-07-19T10:23:49Z</time>
      </trkpt>
      <trkpt lat="44.31777" lon="6.89851">
        <ele>1575.8</ele>
        <time>2022-07-19T10:23:50Z</time>
      </trkpt>
      <trkpt lat="44.31777" lon="6.89848">
        <ele>1575.8</ele>
        <time>2022-07-19T10:23:51Z</time>
      </trkpt>
      <trkpt lat="44.31778" lon="6.89846">
        <ele>1576</ele>
        <time>2022-07-19T10:23:52Z</time>
      </trkpt>
      <trkpt lat="44.31779" lon="6.89843">
        <ele>1576</ele>
        <time>2022-07-19T10:23:53Z</time>
      </trkpt>
      <trkpt lat="44.31779" lon="6.89841">
        <ele>1576.2</ele>
        <time>2022-07-19T10:23:54Z</time>
      </trkpt>
      <trkpt lat="44.3178" lon="6.89838">
        <ele>1576.2</ele>
        <time>2022-07-19T10:23:55Z</time>
      </trkpt>
      <trkpt lat="44.31781" lon="6.89836">
        <ele>1576.4</ele>
        <time>2022-07-19T10:23:56Z</time>
      </trkpt>
      <trkpt lat="44.31782" lon="6.89833">
        <ele>1576.4</ele>
        <time>2022-07-19T10:23:57Z</time>
      </trkpt>
      <trkpt lat="44.31783" lon="6.89831">
        <ele>1576.8</ele>
        <time>2022-07-19T10:23:58Z</time>
      </trkpt>
      <trkpt lat="44.31784" lon="6.89829">
        <ele>1576.8</ele>
        <time>2022-07-19T10:23:59Z</time>
      </trkpt>
      <trkpt lat="44.31785" lon="6.89826">
        <ele>1577</ele>
        <time>2022-07-19T10:24:00Z</time>
      </trkpt>
      <trkpt lat="44.31786" lon="6.89824">
        <ele>1577</ele>
        <time>2022-07-19T10:24:01Z</time>
      </trkpt>
      <trkpt lat="44.31787" lon="6.89821">
        <ele>1577.2</ele>
        <time>2022-07-19T10:24:02Z</time>
      </trkpt>
      <trkpt lat="44.31789" lon="6.89819">
        <ele>1577.2</ele>
        <time>2022-07-19T10:24:03Z</time>
      </trkpt>
      <trkpt lat="44.3179" lon="6.89817">
        <ele>1577.4</ele>
        <time>2022-07-19T10:24:04Z</time>
      </trkpt>
      <trkpt lat="44.31791" lon="6.89815">
        <ele>1577.4</ele>
        <time>2022-07-19T10:24:05Z</time>
      </trkpt>
      <trkpt lat="44.31792" lon="6.89813">
        <ele>1577.8</ele>
        <time>2022-07-19T10:24:06Z</time>
      </trkpt>
      <trkpt lat="44.31793" lon="6.8981">
        <ele>1577.8</ele>
        <time>2022-07-19T10:24:07Z</time>
      </trkpt>
      <trkpt lat="44.31794" lon="6.89808">
        <ele>1578</ele>
        <time>2022-07-19T10:24:08Z</time>
      </trkpt>
      <trkpt lat="44.31795" lon="6.89806">
        <ele>1578</ele>
        <time>2022-07-19T10:24:09Z</time>
      </trkpt>
      <trkpt lat="44.31796" lon="6.89803">
        <ele>1578.4</ele>
        <time>2022-07-19T10:24:10Z</time>
      </trkpt>
      <trkpt lat="44.31797" lon="6.89801">
        <ele>1578.4</ele>
        <time>2022-07-19T10:24:11Z</time>
      </trkpt>
      <trkpt lat="44.31798" lon="6.89799">
        <ele>1578.6</ele>
        <time>2022-07-19T10:24:12Z</time>
      </trkpt>
      <trkpt lat="44.31799" lon="6.89797">
        <ele>1578.6</ele>
        <time>2022-07-19T10:24:13Z</time>
      </trkpt>
      <trkpt lat="44.31801" lon="6.89795">
        <ele>1578.8</ele>
        <time>2022-07-19T10:24:15Z</time>
      </trkpt>
      <trkpt lat="44.31802" lon="6.89793">
        <ele>1579.2</ele>
        <time>2022-07-19T10:24:16Z</time>
      </trkpt>
      <trkpt lat="44.31804" lon="6.89791">
        <ele>1579.2</ele>
        <time>2022-07-19T10:24:17Z</time>
      </trkpt>
      <trkpt lat="44.31805" lon="6.89789">
        <ele>1579.4</ele>
        <time>2022-07-19T10:24:18Z</time>
      </trkpt>
      <trkpt lat="44.31805" lon="6.89786">
        <ele>1579.4</ele>
        <time>2022-07-19T10:24:19Z</time>
      </trkpt>
      <trkpt lat="44.31807" lon="6.89784">
        <ele>1579.6</ele>
        <time>2022-07-19T10:24:20Z</time>
      </trkpt>
      <trkpt lat="44.31808" lon="6.89782">
        <ele>1579.6</ele>
        <time>2022-07-19T10:24:21Z</time>
      </trkpt>
      <trkpt lat="44.31809" lon="6.89781">
        <ele>1580</ele>
        <time>2022-07-19T10:24:22Z</time>
      </trkpt>
      <trkpt lat="44.3181" lon="6.89779">
        <ele>1580</ele>
        <time>2022-07-19T10:24:23Z</time>
      </trkpt>
      <trkpt lat="44.31812" lon="6.89777">
        <ele>1580.4</ele>
        <time>2022-07-19T10:24:24Z</time>
      </trkpt>
      <trkpt lat="44.31813" lon="6.89775">
        <ele>1580.4</ele>
        <time>2022-07-19T10:24:25Z</time>
      </trkpt>
      <trkpt lat="44.31814" lon="6.89773">
        <ele>1580.6</ele>
        <time>2022-07-19T10:24:26Z</time>
      </trkpt>
      <trkpt lat="44.31815" lon="6.89771">
        <ele>1580.6</ele>
        <time>2022-07-19T10:24:27Z</time>
      </trkpt>
      <trkpt lat="44.31817" lon="6.89769">
        <ele>1580.8</ele>
        <time>2022-07-19T10:24:28Z</time>
      </trkpt>
      <trkpt lat="44.31818" lon="6.89767">
        <ele>1580.8</ele>
        <time>2022-07-19T10:24:29Z</time>
      </trkpt>
      <trkpt lat="44.31819" lon="6.89766">
        <ele>1581.2</ele>
        <time>2022-07-19T10:24:30Z</time>
      </trkpt>
      <trkpt lat="44.31821" lon="6.89764">
        <ele>1581.2</ele>
        <time>2022-07-19T10:24:31Z</time>
      </trkpt>
      <trkpt lat="44.31823" lon="6.89763">
        <ele>1581.6</ele>
        <time>2022-07-19T10:24:32Z</time>
      </trkpt>
      <trkpt lat="44.31824" lon="6.89761">
        <ele>1581.6</ele>
        <time>2022-07-19T10:24:33Z</time>
      </trkpt>
      <trkpt lat="44.31826" lon="6.89759">
        <ele>1581.8</ele>
        <time>2022-07-19T10:24:34Z</time>
      </trkpt>
      <trkpt lat="44.31827" lon="6.89757">
        <ele>1581.8</ele>
        <time>2022-07-19T10:24:35Z</time>
      </trkpt>
      <trkpt lat="44.31828" lon="6.89755">
        <ele>1582</ele>
        <time>2022-07-19T10:24:36Z</time>
      </trkpt>
      <trkpt lat="44.3183" lon="6.89753">
        <ele>1582.2</ele>
        <time>2022-07-19T10:24:37Z</time>
      </trkpt>
      <trkpt lat="44.31831" lon="6.89751">
        <ele>1582.2</ele>
        <time>2022-07-19T10:24:38Z</time>
      </trkpt>
      <trkpt lat="44.31832" lon="6.89749">
        <ele>1582.6</ele>
        <time>2022-07-19T10:24:39Z</time>
      </trkpt>
      <trkpt lat="44.31834" lon="6.89747">
        <ele>1582.6</ele>
        <time>2022-07-19T10:24:40Z</time>
      </trkpt>
      <trkpt lat="44.31836" lon="6.89746">
        <ele>1582.6</ele>
        <time>2022-07-19T10:24:41Z</time>
      </trkpt>
      <trkpt lat="44.31837" lon="6.89744">
        <ele>1582.8</ele>
        <time>2022-07-19T10:24:42Z</time>
      </trkpt>
      <trkpt lat="44.31839" lon="6.89743">
        <ele>1582.8</ele>
        <time>2022-07-19T10:24:43Z</time>
      </trkpt>
      <trkpt lat="44.3184" lon="6.89741">
        <ele>1583.2</ele>
        <time>2022-07-19T10:24:44Z</time>
      </trkpt>
      <trkpt lat="44.31841" lon="6.89739">
        <ele>1583.2</ele>
        <time>2022-07-19T10:24:45Z</time>
      </trkpt>
      <trkpt lat="44.31843" lon="6.89737">
        <ele>1583.4</ele>
        <time>2022-07-19T10:24:46Z</time>
      </trkpt>
      <trkpt lat="44.31844" lon="6.89735">
        <ele>1583.4</ele>
        <time>2022-07-19T10:24:47Z</time>
      </trkpt>
      <trkpt lat="44.31846" lon="6.89733">
        <ele>1583.8</ele>
        <time>2022-07-19T10:24:48Z</time>
      </trkpt>
      <trkpt lat="44.31848" lon="6.89732">
        <ele>1583.8</ele>
        <time>2022-07-19T10:24:49Z</time>
      </trkpt>
      <trkpt lat="44.31849" lon="6.8973">
        <ele>1584</ele>
        <time>2022-07-19T10:24:50Z</time>
      </trkpt>
      <trkpt lat="44.31851" lon="6.89728">
        <ele>1584</ele>
        <time>2022-07-19T10:24:51Z</time>
      </trkpt>
      <trkpt lat="44.31852" lon="6.89726">
        <ele>1584.2</ele>
        <time>2022-07-19T10:24:52Z</time>
      </trkpt>
      <trkpt lat="44.31854" lon="6.89724">
        <ele>1584.2</ele>
        <time>2022-07-19T10:24:53Z</time>
      </trkpt>
      <trkpt lat="44.31855" lon="6.89722">
        <ele>1584.6</ele>
        <time>2022-07-19T10:24:54Z</time>
      </trkpt>
      <trkpt lat="44.31857" lon="6.8972">
        <ele>1584.8</ele>
        <time>2022-07-19T10:24:55Z</time>
      </trkpt>
      <trkpt lat="44.31859" lon="6.89718">
        <ele>1585</ele>
        <time>2022-07-19T10:24:56Z</time>
      </trkpt>
      <trkpt lat="44.3186" lon="6.89716">
        <ele>1585.2</ele>
        <time>2022-07-19T10:24:57Z</time>
      </trkpt>
      <trkpt lat="44.31862" lon="6.89714">
        <ele>1585.2</ele>
        <time>2022-07-19T10:24:58Z</time>
      </trkpt>
      <trkpt lat="44.31863" lon="6.89711">
        <ele>1585.6</ele>
        <time>2022-07-19T10:24:59Z</time>
      </trkpt>
      <trkpt lat="44.31864" lon="6.89709">
        <ele>1585.6</ele>
        <time>2022-07-19T10:25:00Z</time>
      </trkpt>
      <trkpt lat="44.31865" lon="6.89706">
        <ele>1585.8</ele>
        <time>2022-07-19T10:25:01Z</time>
      </trkpt>
      <trkpt lat="44.31866" lon="6.89704">
        <ele>1585.8</ele>
        <time>2022-07-19T10:25:02Z</time>
      </trkpt>
      <trkpt lat="44.31867" lon="6.89701">
        <ele>1586</ele>
        <time>2022-07-19T10:25:03Z</time>
      </trkpt>
      <trkpt lat="44.31868" lon="6.89699">
        <ele>1586</ele>
        <time>2022-07-19T10:25:04Z</time>
      </trkpt>
      <trkpt lat="44.31869" lon="6.89696">
        <ele>1586.2</ele>
        <time>2022-07-19T10:25:05Z</time>
      </trkpt>
      <trkpt lat="44.3187" lon="6.89694">
        <ele>1586.2</ele>
        <time>2022-07-19T10:25:06Z</time>
      </trkpt>
      <trkpt lat="44.31871" lon="6.89692">
        <ele>1586.4</ele>
        <time>2022-07-19T10:25:07Z</time>
      </trkpt>
      <trkpt lat="44.31871" lon="6.89689">
        <ele>1586.4</ele>
        <time>2022-07-19T10:25:08Z</time>
      </trkpt>
      <trkpt lat="44.31872" lon="6.89687">
        <ele>1586.6</ele>
        <time>2022-07-19T10:25:09Z</time>
      </trkpt>
      <trkpt lat="44.31873" lon="6.89685">
        <ele>1586.6</ele>
        <time>2022-07-19T10:25:10Z</time>
      </trkpt>
      <trkpt lat="44.31873" lon="6.89682">
        <ele>1587</ele>
        <time>2022-07-19T10:25:11Z</time>
      </trkpt>
      <trkpt lat="44.31874" lon="6.8968">
        <ele>1587</ele>
        <time>2022-07-19T10:25:12Z</time>
      </trkpt>
      <trkpt lat="44.31875" lon="6.89677">
        <ele>1587.2</ele>
        <time>2022-07-19T10:25:13Z</time>
      </trkpt>
      <trkpt lat="44.31876" lon="6.89675">
        <ele>1587.2</ele>
        <time>2022-07-19T10:25:14Z</time>
      </trkpt>
      <trkpt lat="44.31876" lon="6.89673">
        <ele>1587.6</ele>
        <time>2022-07-19T10:25:15Z</time>
      </trkpt>
      <trkpt lat="44.31876" lon="6.8967">
        <ele>1587.6</ele>
        <time>2022-07-19T10:25:16Z</time>
      </trkpt>
      <trkpt lat="44.31877" lon="6.89667">
        <ele>1587.8</ele>
        <time>2022-07-19T10:25:17Z</time>
      </trkpt>
      <trkpt lat="44.31877" lon="6.89664">
        <ele>1587.8</ele>
        <time>2022-07-19T10:25:18Z</time>
      </trkpt>
      <trkpt lat="44.31877" lon="6.89662">
        <ele>1588</ele>
        <time>2022-07-19T10:25:19Z</time>
      </trkpt>
      <trkpt lat="44.31877" lon="6.89659">
        <ele>1588</ele>
        <time>2022-07-19T10:25:20Z</time>
      </trkpt>
      <trkpt lat="44.31878" lon="6.89656">
        <ele>1588</ele>
        <time>2022-07-19T10:25:21Z</time>
      </trkpt>
      <trkpt lat="44.31878" lon="6.89654">
        <ele>1588.4</ele>
        <time>2022-07-19T10:25:22Z</time>
      </trkpt>
      <trkpt lat="44.31879" lon="6.89651">
        <ele>1588.4</ele>
        <time>2022-07-19T10:25:23Z</time>
      </trkpt>
      <trkpt lat="44.3188" lon="6.89648">
        <ele>1588.6</ele>
        <time>2022-07-19T10:25:24Z</time>
      </trkpt>
      <trkpt lat="44.3188" lon="6.89646">
        <ele>1588.6</ele>
        <time>2022-07-19T10:25:25Z</time>
      </trkpt>
      <trkpt lat="44.3188" lon="6.89643">
        <ele>1588.6</ele>
        <time>2022-07-19T10:25:26Z</time>
      </trkpt>
      <trkpt lat="44.31881" lon="6.8964">
        <ele>1588.8</ele>
        <time>2022-07-19T10:25:27Z</time>
      </trkpt>
      <trkpt lat="44.31881" lon="6.89637">
        <ele>1588.8</ele>
        <time>2022-07-19T10:25:28Z</time>
      </trkpt>
      <trkpt lat="44.31882" lon="6.89634">
        <ele>1589</ele>
        <time>2022-07-19T10:25:29Z</time>
      </trkpt>
      <trkpt lat="44.31882" lon="6.89632">
        <ele>1589</ele>
        <time>2022-07-19T10:25:30Z</time>
      </trkpt>
      <trkpt lat="44.31883" lon="6.89628">
        <ele>1589</ele>
        <time>2022-07-19T10:25:31Z</time>
      </trkpt>
      <trkpt lat="44.31883" lon="6.89626">
        <ele>1589.4</ele>
        <time>2022-07-19T10:25:32Z</time>
      </trkpt>
      <trkpt lat="44.31884" lon="6.89623">
        <ele>1589.4</ele>
        <time>2022-07-19T10:25:33Z</time>
      </trkpt>
      <trkpt lat="44.31884" lon="6.8962">
        <ele>1589.6</ele>
        <time>2022-07-19T10:25:34Z</time>
      </trkpt>
      <trkpt lat="44.31884" lon="6.89617">
        <ele>1589.6</ele>
        <time>2022-07-19T10:25:35Z</time>
      </trkpt>
      <trkpt lat="44.31885" lon="6.89614">
        <ele>1589.8</ele>
        <time>2022-07-19T10:25:36Z</time>
      </trkpt>
      <trkpt lat="44.31885" lon="6.89611">
        <ele>1589.8</ele>
        <time>2022-07-19T10:25:37Z</time>
      </trkpt>
      <trkpt lat="44.31886" lon="6.89609">
        <ele>1590.2</ele>
        <time>2022-07-19T10:25:38Z</time>
      </trkpt>
      <trkpt lat="44.31887" lon="6.89606">
        <ele>1590.2</ele>
        <time>2022-07-19T10:25:39Z</time>
      </trkpt>
      <trkpt lat="44.31887" lon="6.89603">
        <ele>1590.6</ele>
        <time>2022-07-19T10:25:40Z</time>
      </trkpt>
      <trkpt lat="44.31888" lon="6.896">
        <ele>1590.6</ele>
        <time>2022-07-19T10:25:41Z</time>
      </trkpt>
      <trkpt lat="44.31889" lon="6.89597">
        <ele>1590.8</ele>
        <time>2022-07-19T10:25:42Z</time>
      </trkpt>
      <trkpt lat="44.3189" lon="6.89594">
        <ele>1590.8</ele>
        <time>2022-07-19T10:25:43Z</time>
      </trkpt>
      <trkpt lat="44.3189" lon="6.89592">
        <ele>1591.2</ele>
        <time>2022-07-19T10:25:44Z</time>
      </trkpt>
      <trkpt lat="44.31891" lon="6.89589">
        <ele>1591.2</ele>
        <time>2022-07-19T10:25:45Z</time>
      </trkpt>
      <trkpt lat="44.31892" lon="6.89586">
        <ele>1591.4</ele>
        <time>2022-07-19T10:25:46Z</time>
      </trkpt>
      <trkpt lat="44.31893" lon="6.89583">
        <ele>1591.4</ele>
        <time>2022-07-19T10:25:47Z</time>
      </trkpt>
      <trkpt lat="44.31894" lon="6.8958">
        <ele>1591.6</ele>
        <time>2022-07-19T10:25:48Z</time>
      </trkpt>
      <trkpt lat="44.31896" lon="6.89575">
        <ele>1591.6</ele>
        <time>2022-07-19T10:25:49Z</time>
      </trkpt>
      <trkpt lat="44.31897" lon="6.89572">
        <ele>1592</ele>
        <time>2022-07-19T10:25:50Z</time>
      </trkpt>
      <trkpt lat="44.31898" lon="6.8957">
        <ele>1592</ele>
        <time>2022-07-19T10:25:51Z</time>
      </trkpt>
      <trkpt lat="44.31899" lon="6.89567">
        <ele>1592.4</ele>
        <time>2022-07-19T10:25:52Z</time>
      </trkpt>
      <trkpt lat="44.319" lon="6.89564">
        <ele>1592.4</ele>
        <time>2022-07-19T10:25:53Z</time>
      </trkpt>
      <trkpt lat="44.319" lon="6.89561">
        <ele>1592.6</ele>
        <time>2022-07-19T10:25:54Z</time>
      </trkpt>
      <trkpt lat="44.31901" lon="6.89558">
        <ele>1592.6</ele>
        <time>2022-07-19T10:25:55Z</time>
      </trkpt>
      <trkpt lat="44.31902" lon="6.89555">
        <ele>1592.6</ele>
        <time>2022-07-19T10:25:56Z</time>
      </trkpt>
      <trkpt lat="44.31903" lon="6.89553">
        <ele>1593</ele>
        <time>2022-07-19T10:25:57Z</time>
      </trkpt>
      <trkpt lat="44.31904" lon="6.8955">
        <ele>1593</ele>
        <time>2022-07-19T10:25:58Z</time>
      </trkpt>
      <trkpt lat="44.31905" lon="6.89548">
        <ele>1593.2</ele>
        <time>2022-07-19T10:25:59Z</time>
      </trkpt>
      <trkpt lat="44.31906" lon="6.89546">
        <ele>1593.2</ele>
        <time>2022-07-19T10:26:00Z</time>
      </trkpt>
      <trkpt lat="44.31907" lon="6.89543">
        <ele>1593.4</ele>
        <time>2022-07-19T10:26:01Z</time>
      </trkpt>
      <trkpt lat="44.31907" lon="6.8954">
        <ele>1593.4</ele>
        <time>2022-07-19T10:26:02Z</time>
      </trkpt>
      <trkpt lat="44.31908" lon="6.89538">
        <ele>1593.6</ele>
        <time>2022-07-19T10:26:03Z</time>
      </trkpt>
      <trkpt lat="44.31909" lon="6.89535">
        <ele>1593.6</ele>
        <time>2022-07-19T10:26:04Z</time>
      </trkpt>
      <trkpt lat="44.3191" lon="6.89533">
        <ele>1593.8</ele>
        <time>2022-07-19T10:26:05Z</time>
      </trkpt>
      <trkpt lat="44.31911" lon="6.8953">
        <ele>1593.8</ele>
        <time>2022-07-19T10:26:06Z</time>
      </trkpt>
      <trkpt lat="44.31912" lon="6.89528">
        <ele>1593.8</ele>
        <time>2022-07-19T10:26:07Z</time>
      </trkpt>
      <trkpt lat="44.31913" lon="6.89525">
        <ele>1594.2</ele>
        <time>2022-07-19T10:26:08Z</time>
      </trkpt>
      <trkpt lat="44.31914" lon="6.89522">
        <ele>1594.2</ele>
        <time>2022-07-19T10:26:09Z</time>
      </trkpt>
      <trkpt lat="44.31916" lon="6.89519">
        <ele>1594.6</ele>
        <time>2022-07-19T10:26:10Z</time>
      </trkpt>
      <trkpt lat="44.31917" lon="6.89516">
        <ele>1594.6</ele>
        <time>2022-07-19T10:26:11Z</time>
      </trkpt>
      <trkpt lat="44.31919" lon="6.89514">
        <ele>1594.8</ele>
        <time>2022-07-19T10:26:12Z</time>
      </trkpt>
      <trkpt lat="44.31921" lon="6.89511">
        <ele>1594.8</ele>
        <time>2022-07-19T10:26:13Z</time>
      </trkpt>
      <trkpt lat="44.31923" lon="6.89509">
        <ele>1594.8</ele>
        <time>2022-07-19T10:26:14Z</time>
      </trkpt>
      <trkpt lat="44.31924" lon="6.89506">
        <ele>1595</ele>
        <time>2022-07-19T10:26:15Z</time>
      </trkpt>
      <trkpt lat="44.31926" lon="6.89504">
        <ele>1595</ele>
        <time>2022-07-19T10:26:16Z</time>
      </trkpt>
      <trkpt lat="44.31928" lon="6.89502">
        <ele>1595</ele>
        <time>2022-07-19T10:26:17Z</time>
      </trkpt>
      <trkpt lat="44.3193" lon="6.895">
        <ele>1595.4</ele>
        <time>2022-07-19T10:26:18Z</time>
      </trkpt>
      <trkpt lat="44.31931" lon="6.89497">
        <ele>1595.4</ele>
        <time>2022-07-19T10:26:19Z</time>
      </trkpt>
      <trkpt lat="44.31933" lon="6.89494">
        <ele>1595.4</ele>
        <time>2022-07-19T10:26:20Z</time>
      </trkpt>
      <trkpt lat="44.31935" lon="6.89491">
        <ele>1595.8</ele>
        <time>2022-07-19T10:26:21Z</time>
      </trkpt>
      <trkpt lat="44.31937" lon="6.89487">
        <ele>1595.8</ele>
        <time>2022-07-19T10:26:22Z</time>
      </trkpt>
      <trkpt lat="44.31938" lon="6.89484">
        <ele>1596</ele>
        <time>2022-07-19T10:26:23Z</time>
      </trkpt>
      <trkpt lat="44.3194" lon="6.8948">
        <ele>1596</ele>
        <time>2022-07-19T10:26:24Z</time>
      </trkpt>
      <trkpt lat="44.31941" lon="6.89477">
        <ele>1596.2</ele>
        <time>2022-07-19T10:26:25Z</time>
      </trkpt>
      <trkpt lat="44.31943" lon="6.89474">
        <ele>1596.2</ele>
        <time>2022-07-19T10:26:26Z</time>
      </trkpt>
      <trkpt lat="44.31944" lon="6.89471">
        <ele>1596.4</ele>
        <time>2022-07-19T10:26:27Z</time>
      </trkpt>
      <trkpt lat="44.31946" lon="6.89468">
        <ele>1596.4</ele>
        <time>2022-07-19T10:26:28Z</time>
      </trkpt>
      <trkpt lat="44.31947" lon="6.89464">
        <ele>1596.8</ele>
        <time>2022-07-19T10:26:29Z</time>
      </trkpt>
      <trkpt lat="44.31948" lon="6.89461">
        <ele>1596.8</ele>
        <time>2022-07-19T10:26:30Z</time>
      </trkpt>
      <trkpt lat="44.3195" lon="6.89458">
        <ele>1597</ele>
        <time>2022-07-19T10:26:31Z</time>
      </trkpt>
      <trkpt lat="44.31951" lon="6.89455">
        <ele>1597</ele>
        <time>2022-07-19T10:26:32Z</time>
      </trkpt>
      <trkpt lat="44.31952" lon="6.89451">
        <ele>1597.4</ele>
        <time>2022-07-19T10:26:33Z</time>
      </trkpt>
      <trkpt lat="44.31953" lon="6.89448">
        <ele>1597.4</ele>
        <time>2022-07-19T10:26:34Z</time>
      </trkpt>
      <trkpt lat="44.31954" lon="6.89444">
        <ele>1597.6</ele>
        <time>2022-07-19T10:26:35Z</time>
      </trkpt>
      <trkpt lat="44.31955" lon="6.8944">
        <ele>1597.6</ele>
        <time>2022-07-19T10:26:36Z</time>
      </trkpt>
      <trkpt lat="44.31956" lon="6.89437">
        <ele>1598</ele>
        <time>2022-07-19T10:26:37Z</time>
      </trkpt>
      <trkpt lat="44.31956" lon="6.89433">
        <ele>1598</ele>
        <time>2022-07-19T10:26:38Z</time>
      </trkpt>
      <trkpt lat="44.31957" lon="6.8943">
        <ele>1598.2</ele>
        <time>2022-07-19T10:26:39Z</time>
      </trkpt>
      <trkpt lat="44.31958" lon="6.89426">
        <ele>1598.2</ele>
        <time>2022-07-19T10:26:40Z</time>
      </trkpt>
      <trkpt lat="44.31959" lon="6.89422">
        <ele>1598.6</ele>
        <time>2022-07-19T10:26:41Z</time>
      </trkpt>
      <trkpt lat="44.3196" lon="6.89419">
        <ele>1598.6</ele>
        <time>2022-07-19T10:26:42Z</time>
      </trkpt>
      <trkpt lat="44.31961" lon="6.89415">
        <ele>1598.6</ele>
        <time>2022-07-19T10:26:43Z</time>
      </trkpt>
      <trkpt lat="44.31962" lon="6.89412">
        <ele>1598.8</ele>
        <time>2022-07-19T10:26:44Z</time>
      </trkpt>
      <trkpt lat="44.31963" lon="6.89408">
        <ele>1598.8</ele>
        <time>2022-07-19T10:26:45Z</time>
      </trkpt>
      <trkpt lat="44.31964" lon="6.89405">
        <ele>1599.2</ele>
        <time>2022-07-19T10:26:46Z</time>
      </trkpt>
      <trkpt lat="44.31966" lon="6.89402">
        <ele>1599.2</ele>
        <time>2022-07-19T10:26:47Z</time>
      </trkpt>
      <trkpt lat="44.31967" lon="6.89399">
        <ele>1599.2</ele>
        <time>2022-07-19T10:26:48Z</time>
      </trkpt>
      <trkpt lat="44.31969" lon="6.89397">
        <ele>1599.6</ele>
        <time>2022-07-19T10:26:49Z</time>
      </trkpt>
      <trkpt lat="44.31971" lon="6.89395">
        <ele>1599.6</ele>
        <time>2022-07-19T10:26:50Z</time>
      </trkpt>
      <trkpt lat="44.31974" lon="6.89393">
        <ele>1599.8</ele>
        <time>2022-07-19T10:26:51Z</time>
      </trkpt>
      <trkpt lat="44.31976" lon="6.89391">
        <ele>1599.8</ele>
        <time>2022-07-19T10:26:52Z</time>
      </trkpt>
      <trkpt lat="44.31978" lon="6.89389">
        <ele>1600.2</ele>
        <time>2022-07-19T10:26:53Z</time>
      </trkpt>
      <trkpt lat="44.3198" lon="6.89388">
        <ele>1600.2</ele>
        <time>2022-07-19T10:26:54Z</time>
      </trkpt>
      <trkpt lat="44.31982" lon="6.89386">
        <ele>1600.4</ele>
        <time>2022-07-19T10:26:55Z</time>
      </trkpt>
      <trkpt lat="44.31984" lon="6.89383">
        <ele>1600.4</ele>
        <time>2022-07-19T10:26:56Z</time>
      </trkpt>
      <trkpt lat="44.31986" lon="6.8938">
        <ele>1600.8</ele>
        <time>2022-07-19T10:26:57Z</time>
      </trkpt>
      <trkpt lat="44.31987" lon="6.89377">
        <ele>1600.8</ele>
        <time>2022-07-19T10:26:58Z</time>
      </trkpt>
      <trkpt lat="44.31989" lon="6.89374">
        <ele>1601</ele>
        <time>2022-07-19T10:26:59Z</time>
      </trkpt>
      <trkpt lat="44.3199" lon="6.89372">
        <ele>1601</ele>
        <time>2022-07-19T10:27:00Z</time>
      </trkpt>
      <trkpt lat="44.31992" lon="6.8937">
        <ele>1601.4</ele>
        <time>2022-07-19T10:27:01Z</time>
      </trkpt>
      <trkpt lat="44.31994" lon="6.89368">
        <ele>1601.4</ele>
        <time>2022-07-19T10:27:02Z</time>
      </trkpt>
      <trkpt lat="44.31996" lon="6.89365">
        <ele>1601.8</ele>
        <time>2022-07-19T10:27:03Z</time>
      </trkpt>
      <trkpt lat="44.31997" lon="6.89363">
        <ele>1601.8</ele>
        <time>2022-07-19T10:27:04Z</time>
      </trkpt>
      <trkpt lat="44.31999" lon="6.89359">
        <ele>1602</ele>
        <time>2022-07-19T10:27:05Z</time>
      </trkpt>
      <trkpt lat="44.32" lon="6.89356">
        <ele>1602</ele>
        <time>2022-07-19T10:27:06Z</time>
      </trkpt>
      <trkpt lat="44.32001" lon="6.89353">
        <ele>1602.4</ele>
        <time>2022-07-19T10:27:07Z</time>
      </trkpt>
      <trkpt lat="44.32003" lon="6.89351">
        <ele>1602.6</ele>
        <time>2022-07-19T10:27:08Z</time>
      </trkpt>
      <trkpt lat="44.32004" lon="6.89348">
        <ele>1602.6</ele>
        <time>2022-07-19T10:27:09Z</time>
      </trkpt>
      <trkpt lat="44.32005" lon="6.89345">
        <ele>1603</ele>
        <time>2022-07-19T10:27:10Z</time>
      </trkpt>
      <trkpt lat="44.32006" lon="6.89342">
        <ele>1603</ele>
        <time>2022-07-19T10:27:11Z</time>
      </trkpt>
      <trkpt lat="44.32007" lon="6.89339">
        <ele>1603.2</ele>
        <time>2022-07-19T10:27:12Z</time>
      </trkpt>
      <trkpt lat="44.32008" lon="6.89336">
        <ele>1603.2</ele>
        <time>2022-07-19T10:27:13Z</time>
      </trkpt>
      <trkpt lat="44.32009" lon="6.89333">
        <ele>1603.2</ele>
        <time>2022-07-19T10:27:14Z</time>
      </trkpt>
      <trkpt lat="44.3201" lon="6.8933">
        <ele>1603.4</ele>
        <time>2022-07-19T10:27:15Z</time>
      </trkpt>
      <trkpt lat="44.32012" lon="6.89327">
        <ele>1603.4</ele>
        <time>2022-07-19T10:27:16Z</time>
      </trkpt>
      <trkpt lat="44.32013" lon="6.89325">
        <ele>1603.6</ele>
        <time>2022-07-19T10:27:17Z</time>
      </trkpt>
      <trkpt lat="44.32015" lon="6.89322">
        <ele>1603.6</ele>
        <time>2022-07-19T10:27:18Z</time>
      </trkpt>
      <trkpt lat="44.32016" lon="6.89319">
        <ele>1604</ele>
        <time>2022-07-19T10:27:19Z</time>
      </trkpt>
      <trkpt lat="44.32017" lon="6.89316">
        <ele>1604</ele>
        <time>2022-07-19T10:27:20Z</time>
      </trkpt>
      <trkpt lat="44.32018" lon="6.89313">
        <ele>1604.2</ele>
        <time>2022-07-19T10:27:21Z</time>
      </trkpt>
      <trkpt lat="44.32019" lon="6.8931">
        <ele>1604.4</ele>
        <time>2022-07-19T10:27:22Z</time>
      </trkpt>
      <trkpt lat="44.32021" lon="6.89307">
        <ele>1604.4</ele>
        <time>2022-07-19T10:27:23Z</time>
      </trkpt>
      <trkpt lat="44.32022" lon="6.89304">
        <ele>1604.8</ele>
        <time>2022-07-19T10:27:24Z</time>
      </trkpt>
      <trkpt lat="44.32023" lon="6.89301">
        <ele>1604.8</ele>
        <time>2022-07-19T10:27:25Z</time>
      </trkpt>
      <trkpt lat="44.32025" lon="6.89299">
        <ele>1605.2</ele>
        <time>2022-07-19T10:27:26Z</time>
      </trkpt>
      <trkpt lat="44.32026" lon="6.89295">
        <ele>1605.2</ele>
        <time>2022-07-19T10:27:27Z</time>
      </trkpt>
      <trkpt lat="44.32027" lon="6.89292">
        <ele>1605.4</ele>
        <time>2022-07-19T10:27:28Z</time>
      </trkpt>
      <trkpt lat="44.32028" lon="6.89289">
        <ele>1605.4</ele>
        <time>2022-07-19T10:27:29Z</time>
      </trkpt>
      <trkpt lat="44.32029" lon="6.89286">
        <ele>1605.8</ele>
        <time>2022-07-19T10:27:30Z</time>
      </trkpt>
      <trkpt lat="44.3203" lon="6.89283">
        <ele>1605.8</ele>
        <time>2022-07-19T10:27:31Z</time>
      </trkpt>
      <trkpt lat="44.32031" lon="6.8928">
        <ele>1606</ele>
        <time>2022-07-19T10:27:32Z</time>
      </trkpt>
      <trkpt lat="44.32032" lon="6.89277">
        <ele>1606</ele>
        <time>2022-07-19T10:27:33Z</time>
      </trkpt>
      <trkpt lat="44.32033" lon="6.89274">
        <ele>1606.4</ele>
        <time>2022-07-19T10:27:34Z</time>
      </trkpt>
      <trkpt lat="44.32034" lon="6.89271">
        <ele>1606.4</ele>
        <time>2022-07-19T10:27:35Z</time>
      </trkpt>
      <trkpt lat="44.32035" lon="6.89268">
        <ele>1606.8</ele>
        <time>2022-07-19T10:27:36Z</time>
      </trkpt>
      <trkpt lat="44.32035" lon="6.89264">
        <ele>1606.8</ele>
        <time>2022-07-19T10:27:37Z</time>
      </trkpt>
      <trkpt lat="44.32036" lon="6.89261">
        <ele>1607</ele>
        <time>2022-07-19T10:27:38Z</time>
      </trkpt>
      <trkpt lat="44.32036" lon="6.89258">
        <ele>1607</ele>
        <time>2022-07-19T10:27:39Z</time>
      </trkpt>
      <trkpt lat="44.32037" lon="6.89254">
        <ele>1607.2</ele>
        <time>2022-07-19T10:27:40Z</time>
      </trkpt>
      <trkpt lat="44.32037" lon="6.89251">
        <ele>1607.2</ele>
        <time>2022-07-19T10:27:41Z</time>
      </trkpt>
      <trkpt lat="44.32037" lon="6.89247">
        <ele>1607.6</ele>
        <time>2022-07-19T10:27:42Z</time>
      </trkpt>
      <trkpt lat="44.32038" lon="6.89244">
        <ele>1607.6</ele>
        <time>2022-07-19T10:27:43Z</time>
      </trkpt>
      <trkpt lat="44.32038" lon="6.89241">
        <ele>1608</ele>
        <time>2022-07-19T10:27:44Z</time>
      </trkpt>
      <trkpt lat="44.32038" lon="6.89238">
        <ele>1608</ele>
        <time>2022-07-19T10:27:45Z</time>
      </trkpt>
      <trkpt lat="44.32039" lon="6.89234">
        <ele>1608.2</ele>
        <time>2022-07-19T10:27:46Z</time>
      </trkpt>
      <trkpt lat="44.32039" lon="6.89231">
        <ele>1608.2</ele>
        <time>2022-07-19T10:27:47Z</time>
      </trkpt>
      <trkpt lat="44.3204" lon="6.89228">
        <ele>1608.4</ele>
        <time>2022-07-19T10:27:48Z</time>
      </trkpt>
      <trkpt lat="44.3204" lon="6.89225">
        <ele>1608.4</ele>
        <time>2022-07-19T10:27:49Z</time>
      </trkpt>
      <trkpt lat="44.3204" lon="6.89222">
        <ele>1608.8</ele>
        <time>2022-07-19T10:27:50Z</time>
      </trkpt>
      <trkpt lat="44.32041" lon="6.89219">
        <ele>1608.8</ele>
        <time>2022-07-19T10:27:51Z</time>
      </trkpt>
      <trkpt lat="44.32042" lon="6.89216">
        <ele>1609.2</ele>
        <time>2022-07-19T10:27:52Z</time>
      </trkpt>
      <trkpt lat="44.32042" lon="6.89213">
        <ele>1609.2</ele>
        <time>2022-07-19T10:27:53Z</time>
      </trkpt>
      <trkpt lat="44.32043" lon="6.89209">
        <ele>1609.4</ele>
        <time>2022-07-19T10:27:54Z</time>
      </trkpt>
      <trkpt lat="44.32043" lon="6.89206">
        <ele>1609.4</ele>
        <time>2022-07-19T10:27:55Z</time>
      </trkpt>
      <trkpt lat="44.32044" lon="6.89202">
        <ele>1609.6</ele>
        <time>2022-07-19T10:27:56Z</time>
      </trkpt>
      <trkpt lat="44.32044" lon="6.89199">
        <ele>1609.6</ele>
        <time>2022-07-19T10:27:57Z</time>
      </trkpt>
      <trkpt lat="44.32044" lon="6.89195">
        <ele>1610</ele>
        <time>2022-07-19T10:27:58Z</time>
      </trkpt>
      <trkpt lat="44.32045" lon="6.89192">
        <ele>1610</ele>
        <time>2022-07-19T10:27:59Z</time>
      </trkpt>
      <trkpt lat="44.32045" lon="6.89189">
        <ele>1610.4</ele>
        <time>2022-07-19T10:28:00Z</time>
      </trkpt>
      <trkpt lat="44.32046" lon="6.89185">
        <ele>1610.4</ele>
        <time>2022-07-19T10:28:01Z</time>
      </trkpt>
      <trkpt lat="44.32046" lon="6.89182">
        <ele>1610.6</ele>
        <time>2022-07-19T10:28:02Z</time>
      </trkpt>
      <trkpt lat="44.32046" lon="6.89178">
        <ele>1610.6</ele>
        <time>2022-07-19T10:28:03Z</time>
      </trkpt>
      <trkpt lat="44.32047" lon="6.89175">
        <ele>1611</ele>
        <time>2022-07-19T10:28:04Z</time>
      </trkpt>
      <trkpt lat="44.32047" lon="6.89171">
        <ele>1611</ele>
        <time>2022-07-19T10:28:05Z</time>
      </trkpt>
      <trkpt lat="44.32048" lon="6.89168">
        <ele>1611.4</ele>
        <time>2022-07-19T10:28:06Z</time>
      </trkpt>
      <trkpt lat="44.32048" lon="6.89165">
        <ele>1611.4</ele>
        <time>2022-07-19T10:28:07Z</time>
      </trkpt>
      <trkpt lat="44.32049" lon="6.89162">
        <ele>1611.6</ele>
        <time>2022-07-19T10:28:08Z</time>
      </trkpt>
      <trkpt lat="44.32049" lon="6.89159">
        <ele>1611.6</ele>
        <time>2022-07-19T10:28:09Z</time>
      </trkpt>
      <trkpt lat="44.3205" lon="6.89155">
        <ele>1611.8</ele>
        <time>2022-07-19T10:28:10Z</time>
      </trkpt>
      <trkpt lat="44.3205" lon="6.89152">
        <ele>1612.2</ele>
        <time>2022-07-19T10:28:11Z</time>
      </trkpt>
      <trkpt lat="44.32051" lon="6.89148">
        <ele>1612.4</ele>
        <time>2022-07-19T10:28:12Z</time>
      </trkpt>
      <trkpt lat="44.32051" lon="6.89145">
        <ele>1612.4</ele>
        <time>2022-07-19T10:28:13Z</time>
      </trkpt>
      <trkpt lat="44.32052" lon="6.89142">
        <ele>1612.6</ele>
        <time>2022-07-19T10:28:14Z</time>
      </trkpt>
      <trkpt lat="44.32052" lon="6.89139">
        <ele>1612.8</ele>
        <time>2022-07-19T10:28:15Z</time>
      </trkpt>
      <trkpt lat="44.32052" lon="6.89136">
        <ele>1613</ele>
        <time>2022-07-19T10:28:16Z</time>
      </trkpt>
      <trkpt lat="44.32052" lon="6.89133">
        <ele>1613.2</ele>
        <time>2022-07-19T10:28:17Z</time>
      </trkpt>
      <trkpt lat="44.32053" lon="6.8913">
        <ele>1613.2</ele>
        <time>2022-07-19T10:28:18Z</time>
      </trkpt>
      <trkpt lat="44.32053" lon="6.89127">
        <ele>1613.6</ele>
        <time>2022-07-19T10:28:19Z</time>
      </trkpt>
      <trkpt lat="44.32053" lon="6.89124">
        <ele>1613.6</ele>
        <time>2022-07-19T10:28:20Z</time>
      </trkpt>
      <trkpt lat="44.32054" lon="6.89121">
        <ele>1613.8</ele>
        <time>2022-07-19T10:28:21Z</time>
      </trkpt>
      <trkpt lat="44.32054" lon="6.89118">
        <ele>1613.8</ele>
        <time>2022-07-19T10:28:22Z</time>
      </trkpt>
      <trkpt lat="44.32055" lon="6.89115">
        <ele>1614</ele>
        <time>2022-07-19T10:28:23Z</time>
      </trkpt>
      <trkpt lat="44.32055" lon="6.89112">
        <ele>1614</ele>
        <time>2022-07-19T10:28:24Z</time>
      </trkpt>
      <trkpt lat="44.32056" lon="6.89109">
        <ele>1614.2</ele>
        <time>2022-07-19T10:28:25Z</time>
      </trkpt>
      <trkpt lat="44.32056" lon="6.89106">
        <ele>1614.2</ele>
        <time>2022-07-19T10:28:26Z</time>
      </trkpt>
      <trkpt lat="44.32056" lon="6.89103">
        <ele>1614.6</ele>
        <time>2022-07-19T10:28:27Z</time>
      </trkpt>
      <trkpt lat="44.32057" lon="6.891">
        <ele>1614.6</ele>
        <time>2022-07-19T10:28:28Z</time>
      </trkpt>
      <trkpt lat="44.32057" lon="6.89097">
        <ele>1614.8</ele>
        <time>2022-07-19T10:28:29Z</time>
      </trkpt>
      <trkpt lat="44.32057" lon="6.89094">
        <ele>1614.8</ele>
        <time>2022-07-19T10:28:30Z</time>
      </trkpt>
      <trkpt lat="44.32057" lon="6.89091">
        <ele>1615</ele>
        <time>2022-07-19T10:28:31Z</time>
      </trkpt>
      <trkpt lat="44.32057" lon="6.89088">
        <ele>1615</ele>
        <time>2022-07-19T10:28:32Z</time>
      </trkpt>
      <trkpt lat="44.32058" lon="6.89085">
        <ele>1615.2</ele>
        <time>2022-07-19T10:28:33Z</time>
      </trkpt>
      <trkpt lat="44.32058" lon="6.89083">
        <ele>1615.2</ele>
        <time>2022-07-19T10:28:34Z</time>
      </trkpt>
      <trkpt lat="44.32059" lon="6.8908">
        <ele>1615.6</ele>
        <time>2022-07-19T10:28:35Z</time>
      </trkpt>
      <trkpt lat="44.32059" lon="6.89077">
        <ele>1615.6</ele>
        <time>2022-07-19T10:28:36Z</time>
      </trkpt>
      <trkpt lat="44.32059" lon="6.89074">
        <ele>1615.8</ele>
        <time>2022-07-19T10:28:37Z</time>
      </trkpt>
      <trkpt lat="44.3206" lon="6.89071">
        <ele>1616</ele>
        <time>2022-07-19T10:28:38Z</time>
      </trkpt>
      <trkpt lat="44.3206" lon="6.89068">
        <ele>1616</ele>
        <time>2022-07-19T10:28:39Z</time>
      </trkpt>
      <trkpt lat="44.3206" lon="6.89065">
        <ele>1616.4</ele>
        <time>2022-07-19T10:28:40Z</time>
      </trkpt>
      <trkpt lat="44.32061" lon="6.89062">
        <ele>1616.4</ele>
        <time>2022-07-19T10:28:41Z</time>
      </trkpt>
      <trkpt lat="44.32062" lon="6.89059">
        <ele>1616.6</ele>
        <time>2022-07-19T10:28:42Z</time>
      </trkpt>
      <trkpt lat="44.32063" lon="6.89056">
        <ele>1616.6</ele>
        <time>2022-07-19T10:28:43Z</time>
      </trkpt>
      <trkpt lat="44.32064" lon="6.89053">
        <ele>1617</ele>
        <time>2022-07-19T10:28:44Z</time>
      </trkpt>
      <trkpt lat="44.32064" lon="6.8905">
        <ele>1617</ele>
        <time>2022-07-19T10:28:45Z</time>
      </trkpt>
      <trkpt lat="44.32065" lon="6.89047">
        <ele>1617.2</ele>
        <time>2022-07-19T10:28:46Z</time>
      </trkpt>
      <trkpt lat="44.32065" lon="6.89043">
        <ele>1617.2</ele>
        <time>2022-07-19T10:28:47Z</time>
      </trkpt>
      <trkpt lat="44.32065" lon="6.8904">
        <ele>1617.4</ele>
        <time>2022-07-19T10:28:48Z</time>
      </trkpt>
      <trkpt lat="44.32065" lon="6.89037">
        <ele>1617.4</ele>
        <time>2022-07-19T10:28:49Z</time>
      </trkpt>
      <trkpt lat="44.32066" lon="6.89034">
        <ele>1617.8</ele>
        <time>2022-07-19T10:28:50Z</time>
      </trkpt>
      <trkpt lat="44.32066" lon="6.89031">
        <ele>1617.8</ele>
        <time>2022-07-19T10:28:51Z</time>
      </trkpt>
      <trkpt lat="44.32066" lon="6.89028">
        <ele>1617.8</ele>
        <time>2022-07-19T10:28:52Z</time>
      </trkpt>
      <trkpt lat="44.32066" lon="6.89025">
        <ele>1618</ele>
        <time>2022-07-19T10:28:53Z</time>
      </trkpt>
      <trkpt lat="44.32066" lon="6.89022">
        <ele>1618</ele>
        <time>2022-07-19T10:28:54Z</time>
      </trkpt>
      <trkpt lat="44.32066" lon="6.89019">
        <ele>1618.4</ele>
        <time>2022-07-19T10:28:55Z</time>
      </trkpt>
      <trkpt lat="44.32066" lon="6.89016">
        <ele>1618.4</ele>
        <time>2022-07-19T10:28:56Z</time>
      </trkpt>
      <trkpt lat="44.32066" lon="6.89013">
        <ele>1618.6</ele>
        <time>2022-07-19T10:28:57Z</time>
      </trkpt>
      <trkpt lat="44.32066" lon="6.8901">
        <ele>1618.6</ele>
        <time>2022-07-19T10:28:58Z</time>
      </trkpt>
      <trkpt lat="44.32066" lon="6.89007">
        <ele>1619</ele>
        <time>2022-07-19T10:28:59Z</time>
      </trkpt>
      <trkpt lat="44.32066" lon="6.89004">
        <ele>1619</ele>
        <time>2022-07-19T10:29:00Z</time>
      </trkpt>
      <trkpt lat="44.32066" lon="6.89001">
        <ele>1619.4</ele>
        <time>2022-07-19T10:29:01Z</time>
      </trkpt>
      <trkpt lat="44.32066" lon="6.88998">
        <ele>1619.4</ele>
        <time>2022-07-19T10:29:02Z</time>
      </trkpt>
      <trkpt lat="44.32066" lon="6.88995">
        <ele>1619.8</ele>
        <time>2022-07-19T10:29:03Z</time>
      </trkpt>
      <trkpt lat="44.32067" lon="6.88992">
        <ele>1619.8</ele>
        <time>2022-07-19T10:29:04Z</time>
      </trkpt>
      <trkpt lat="44.32067" lon="6.88989">
        <ele>1620</ele>
        <time>2022-07-19T10:29:05Z</time>
      </trkpt>
      <trkpt lat="44.32067" lon="6.88985">
        <ele>1620</ele>
        <time>2022-07-19T10:29:06Z</time>
      </trkpt>
      <trkpt lat="44.32068" lon="6.88982">
        <ele>1620.4</ele>
        <time>2022-07-19T10:29:07Z</time>
      </trkpt>
      <trkpt lat="44.32069" lon="6.88979">
        <ele>1620.4</ele>
        <time>2022-07-19T10:29:08Z</time>
      </trkpt>
      <trkpt lat="44.32069" lon="6.88976">
        <ele>1620.8</ele>
        <time>2022-07-19T10:29:09Z</time>
      </trkpt>
      <trkpt lat="44.3207" lon="6.88974">
        <ele>1620.8</ele>
        <time>2022-07-19T10:29:10Z</time>
      </trkpt>
      <trkpt lat="44.3207" lon="6.88971">
        <ele>1621.2</ele>
        <time>2022-07-19T10:29:11Z</time>
      </trkpt>
      <trkpt lat="44.32071" lon="6.88968">
        <ele>1621.2</ele>
        <time>2022-07-19T10:29:12Z</time>
      </trkpt>
      <trkpt lat="44.32073" lon="6.88965">
        <ele>1621.4</ele>
        <time>2022-07-19T10:29:13Z</time>
      </trkpt>
      <trkpt lat="44.32074" lon="6.88963">
        <ele>1621.4</ele>
        <time>2022-07-19T10:29:14Z</time>
      </trkpt>
      <trkpt lat="44.32075" lon="6.8896">
        <ele>1621.4</ele>
        <time>2022-07-19T10:29:15Z</time>
      </trkpt>
      <trkpt lat="44.32076" lon="6.88957">
        <ele>1621.8</ele>
        <time>2022-07-19T10:29:16Z</time>
      </trkpt>
      <trkpt lat="44.32077" lon="6.88955">
        <ele>1621.8</ele>
        <time>2022-07-19T10:29:17Z</time>
      </trkpt>
      <trkpt lat="44.32079" lon="6.88952">
        <ele>1622</ele>
        <time>2022-07-19T10:29:18Z</time>
      </trkpt>
      <trkpt lat="44.3208" lon="6.88949">
        <ele>1622</ele>
        <time>2022-07-19T10:29:19Z</time>
      </trkpt>
      <trkpt lat="44.32081" lon="6.88947">
        <ele>1622.2</ele>
        <time>2022-07-19T10:29:20Z</time>
      </trkpt>
      <trkpt lat="44.32082" lon="6.88944">
        <ele>1622.2</ele>
        <time>2022-07-19T10:29:21Z</time>
      </trkpt>
      <trkpt lat="44.32083" lon="6.88941">
        <ele>1622.6</ele>
        <time>2022-07-19T10:29:22Z</time>
      </trkpt>
      <trkpt lat="44.32084" lon="6.88939">
        <ele>1622.6</ele>
        <time>2022-07-19T10:29:23Z</time>
      </trkpt>
      <trkpt lat="44.32086" lon="6.88936">
        <ele>1622.8</ele>
        <time>2022-07-19T10:29:24Z</time>
      </trkpt>
      <trkpt lat="44.32087" lon="6.88933">
        <ele>1622.8</ele>
        <time>2022-07-19T10:29:25Z</time>
      </trkpt>
      <trkpt lat="44.32088" lon="6.88931">
        <ele>1623.2</ele>
        <time>2022-07-19T10:29:26Z</time>
      </trkpt>
      <trkpt lat="44.32089" lon="6.88928">
        <ele>1623.2</ele>
        <time>2022-07-19T10:29:27Z</time>
      </trkpt>
      <trkpt lat="44.3209" lon="6.88925">
        <ele>1623.4</ele>
        <time>2022-07-19T10:29:28Z</time>
      </trkpt>
      <trkpt lat="44.32091" lon="6.88922">
        <ele>1623.4</ele>
        <time>2022-07-19T10:29:29Z</time>
      </trkpt>
      <trkpt lat="44.32092" lon="6.88919">
        <ele>1623.6</ele>
        <time>2022-07-19T10:29:30Z</time>
      </trkpt>
      <trkpt lat="44.32093" lon="6.88916">
        <ele>1623.6</ele>
        <time>2022-07-19T10:29:31Z</time>
      </trkpt>
      <trkpt lat="44.32094" lon="6.88914">
        <ele>1624</ele>
        <time>2022-07-19T10:29:32Z</time>
      </trkpt>
      <trkpt lat="44.32096" lon="6.88911">
        <ele>1624</ele>
        <time>2022-07-19T10:29:33Z</time>
      </trkpt>
      <trkpt lat="44.32097" lon="6.88909">
        <ele>1624.2</ele>
        <time>2022-07-19T10:29:34Z</time>
      </trkpt>
      <trkpt lat="44.32098" lon="6.88906">
        <ele>1624.2</ele>
        <time>2022-07-19T10:29:35Z</time>
      </trkpt>
      <trkpt lat="44.32098" lon="6.88904">
        <ele>1624.6</ele>
        <time>2022-07-19T10:29:36Z</time>
      </trkpt>
      <trkpt lat="44.32099" lon="6.88901">
        <ele>1624.6</ele>
        <time>2022-07-19T10:29:37Z</time>
      </trkpt>
      <trkpt lat="44.321" lon="6.88899">
        <ele>1624.8</ele>
        <time>2022-07-19T10:29:38Z</time>
      </trkpt>
      <trkpt lat="44.32101" lon="6.88896">
        <ele>1624.8</ele>
        <time>2022-07-19T10:29:39Z</time>
      </trkpt>
      <trkpt lat="44.32102" lon="6.88894">
        <ele>1625</ele>
        <time>2022-07-19T10:29:40Z</time>
      </trkpt>
      <trkpt lat="44.32104" lon="6.88892">
        <ele>1625</ele>
        <time>2022-07-19T10:29:41Z</time>
      </trkpt>
      <trkpt lat="44.32105" lon="6.88889">
        <ele>1625.2</ele>
        <time>2022-07-19T10:29:42Z</time>
      </trkpt>
      <trkpt lat="44.32106" lon="6.88887">
        <ele>1625.2</ele>
        <time>2022-07-19T10:29:43Z</time>
      </trkpt>
      <trkpt lat="44.32107" lon="6.88885">
        <ele>1625.6</ele>
        <time>2022-07-19T10:29:44Z</time>
      </trkpt>
      <trkpt lat="44.32108" lon="6.88882">
        <ele>1625.6</ele>
        <time>2022-07-19T10:29:45Z</time>
      </trkpt>
      <trkpt lat="44.32109" lon="6.8888">
        <ele>1625.8</ele>
        <time>2022-07-19T10:29:46Z</time>
      </trkpt>
      <trkpt lat="44.3211" lon="6.88877">
        <ele>1625.8</ele>
        <time>2022-07-19T10:29:47Z</time>
      </trkpt>
      <trkpt lat="44.32111" lon="6.88874">
        <ele>1626</ele>
        <time>2022-07-19T10:29:48Z</time>
      </trkpt>
      <trkpt lat="44.32113" lon="6.88871">
        <ele>1626</ele>
        <time>2022-07-19T10:29:49Z</time>
      </trkpt>
      <trkpt lat="44.32114" lon="6.88868">
        <ele>1626.4</ele>
        <time>2022-07-19T10:29:50Z</time>
      </trkpt>
      <trkpt lat="44.32115" lon="6.88865">
        <ele>1626.4</ele>
        <time>2022-07-19T10:29:51Z</time>
      </trkpt>
      <trkpt lat="44.32116" lon="6.88862">
        <ele>1626.6</ele>
        <time>2022-07-19T10:29:52Z</time>
      </trkpt>
      <trkpt lat="44.32118" lon="6.88859">
        <ele>1626.6</ele>
        <time>2022-07-19T10:29:53Z</time>
      </trkpt>
      <trkpt lat="44.32119" lon="6.88856">
        <ele>1627</ele>
        <time>2022-07-19T10:29:54Z</time>
      </trkpt>
      <trkpt lat="44.3212" lon="6.88853">
        <ele>1627</ele>
        <time>2022-07-19T10:29:55Z</time>
      </trkpt>
      <trkpt lat="44.32122" lon="6.8885">
        <ele>1627.2</ele>
        <time>2022-07-19T10:29:56Z</time>
      </trkpt>
      <trkpt lat="44.32123" lon="6.88848">
        <ele>1627.2</ele>
        <time>2022-07-19T10:29:57Z</time>
      </trkpt>
      <trkpt lat="44.32124" lon="6.88845">
        <ele>1627.6</ele>
        <time>2022-07-19T10:29:58Z</time>
      </trkpt>
      <trkpt lat="44.32126" lon="6.88842">
        <ele>1627.6</ele>
        <time>2022-07-19T10:29:59Z</time>
      </trkpt>
      <trkpt lat="44.32127" lon="6.88839">
        <ele>1627.6</ele>
        <time>2022-07-19T10:30:00Z</time>
      </trkpt>
      <trkpt lat="44.32128" lon="6.88836">
        <ele>1627.8</ele>
        <time>2022-07-19T10:30:01Z</time>
      </trkpt>
      <trkpt lat="44.3213" lon="6.88833">
        <ele>1627.8</ele>
        <time>2022-07-19T10:30:02Z</time>
      </trkpt>
      <trkpt lat="44.32131" lon="6.88829">
        <ele>1627.8</ele>
        <time>2022-07-19T10:30:03Z</time>
      </trkpt>
      <trkpt lat="44.32133" lon="6.88826">
        <ele>1628</ele>
        <time>2022-07-19T10:30:04Z</time>
      </trkpt>
      <trkpt lat="44.32134" lon="6.88822">
        <ele>1628</ele>
        <time>2022-07-19T10:30:05Z</time>
      </trkpt>
      <trkpt lat="44.32135" lon="6.88819">
        <ele>1628</ele>
        <time>2022-07-19T10:30:06Z</time>
      </trkpt>
      <trkpt lat="44.32136" lon="6.88816">
        <ele>1628.2</ele>
        <time>2022-07-19T10:30:07Z</time>
      </trkpt>
      <trkpt lat="44.32137" lon="6.88812">
        <ele>1628.2</ele>
        <time>2022-07-19T10:30:08Z</time>
      </trkpt>
      <trkpt lat="44.32138" lon="6.88809">
        <ele>1628.2</ele>
        <time>2022-07-19T10:30:09Z</time>
      </trkpt>
      <trkpt lat="44.3214" lon="6.88805">
        <ele>1628.4</ele>
        <time>2022-07-19T10:30:10Z</time>
      </trkpt>
      <trkpt lat="44.32141" lon="6.88803">
        <ele>1628.4</ele>
        <time>2022-07-19T10:30:11Z</time>
      </trkpt>
      <trkpt lat="44.32142" lon="6.88799">
        <ele>1628.4</ele>
        <time>2022-07-19T10:30:12Z</time>
      </trkpt>
      <trkpt lat="44.32142" lon="6.88796">
        <ele>1628.8</ele>
        <time>2022-07-19T10:30:13Z</time>
      </trkpt>
      <trkpt lat="44.32144" lon="6.88793">
        <ele>1628.8</ele>
        <time>2022-07-19T10:30:14Z</time>
      </trkpt>
      <trkpt lat="44.32145" lon="6.88789">
        <ele>1628.8</ele>
        <time>2022-07-19T10:30:15Z</time>
      </trkpt>
      <trkpt lat="44.32146" lon="6.88786">
        <ele>1628.8</ele>
        <time>2022-07-19T10:30:16Z</time>
      </trkpt>
      <trkpt lat="44.32148" lon="6.88783">
        <ele>1628.8</ele>
        <time>2022-07-19T10:30:17Z</time>
      </trkpt>
      <trkpt lat="44.32149" lon="6.88779">
        <ele>1628.8</ele>
        <time>2022-07-19T10:30:18Z</time>
      </trkpt>
      <trkpt lat="44.32151" lon="6.88774">
        <ele>1628.8</ele>
        <time>2022-07-19T10:30:19Z</time>
      </trkpt>
      <trkpt lat="44.32152" lon="6.8877">
        <ele>1628.8</ele>
        <time>2022-07-19T10:30:20Z</time>
      </trkpt>
      <trkpt lat="44.32154" lon="6.88765">
        <ele>1628.6</ele>
        <time>2022-07-19T10:30:21Z</time>
      </trkpt>
      <trkpt lat="44.32156" lon="6.8876">
        <ele>1628.6</ele>
        <time>2022-07-19T10:30:22Z</time>
      </trkpt>
      <trkpt lat="44.32158" lon="6.88755">
        <ele>1628.6</ele>
        <time>2022-07-19T10:30:23Z</time>
      </trkpt>
      <trkpt lat="44.3216" lon="6.88749">
        <ele>1628.2</ele>
        <time>2022-07-19T10:30:24Z</time>
      </trkpt>
      <trkpt lat="44.32163" lon="6.88744">
        <ele>1628.2</ele>
        <time>2022-07-19T10:30:25Z</time>
      </trkpt>
      <trkpt lat="44.32165" lon="6.88738">
        <ele>1628</ele>
        <time>2022-07-19T10:30:26Z</time>
      </trkpt>
      <trkpt lat="44.32167" lon="6.88732">
        <ele>1628</ele>
        <time>2022-07-19T10:30:27Z</time>
      </trkpt>
      <trkpt lat="44.3217" lon="6.88725">
        <ele>1627.8</ele>
        <time>2022-07-19T10:30:28Z</time>
      </trkpt>
      <trkpt lat="44.32172" lon="6.88719">
        <ele>1627.8</ele>
        <time>2022-07-19T10:30:29Z</time>
      </trkpt>
      <trkpt lat="44.32175" lon="6.88713">
        <ele>1627.4</ele>
        <time>2022-07-19T10:30:30Z</time>
      </trkpt>
      <trkpt lat="44.32178" lon="6.88706">
        <ele>1627.4</ele>
        <time>2022-07-19T10:30:31Z</time>
      </trkpt>
      <trkpt lat="44.32182" lon="6.88699">
        <ele>1627.2</ele>
        <time>2022-07-19T10:30:32Z</time>
      </trkpt>
      <trkpt lat="44.32185" lon="6.88693">
        <ele>1627.2</ele>
        <time>2022-07-19T10:30:33Z</time>
      </trkpt>
      <trkpt lat="44.32189" lon="6.88686">
        <ele>1627</ele>
        <time>2022-07-19T10:30:34Z</time>
      </trkpt>
      <trkpt lat="44.32193" lon="6.88679">
        <ele>1627</ele>
        <time>2022-07-19T10:30:35Z</time>
      </trkpt>
      <trkpt lat="44.32197" lon="6.88672">
        <ele>1626.6</ele>
        <time>2022-07-19T10:30:36Z</time>
      </trkpt>
      <trkpt lat="44.32201" lon="6.88665">
        <ele>1626.6</ele>
        <time>2022-07-19T10:30:37Z</time>
      </trkpt>
      <trkpt lat="44.32206" lon="6.88658">
        <ele>1626.6</ele>
        <time>2022-07-19T10:30:38Z</time>
      </trkpt>
      <trkpt lat="44.3221" lon="6.88652">
        <ele>1626.6</ele>
        <time>2022-07-19T10:30:39Z</time>
      </trkpt>
      <trkpt lat="44.32214" lon="6.88646">
        <ele>1626.6</ele>
        <time>2022-07-19T10:30:40Z</time>
      </trkpt>
      <trkpt lat="44.32218" lon="6.8864">
        <ele>1626.6</ele>
        <time>2022-07-19T10:30:41Z</time>
      </trkpt>
      <trkpt lat="44.32221" lon="6.88636">
        <ele>1626.6</ele>
        <time>2022-07-19T10:30:42Z</time>
      </trkpt>
      <trkpt lat="44.32224" lon="6.88631">
        <ele>1626.8</ele>
        <time>2022-07-19T10:30:43Z</time>
      </trkpt>
      <trkpt lat="44.32227" lon="6.88627">
        <ele>1626.8</ele>
        <time>2022-07-19T10:30:44Z</time>
      </trkpt>
      <trkpt lat="44.3223" lon="6.88623">
        <ele>1627.2</ele>
        <time>2022-07-19T10:30:45Z</time>
      </trkpt>
      <trkpt lat="44.32233" lon="6.8862">
        <ele>1627.2</ele>
        <time>2022-07-19T10:30:46Z</time>
      </trkpt>
      <trkpt lat="44.32235" lon="6.88616">
        <ele>1627.4</ele>
        <time>2022-07-19T10:30:47Z</time>
      </trkpt>
      <trkpt lat="44.32238" lon="6.88614">
        <ele>1627.4</ele>
        <time>2022-07-19T10:30:48Z</time>
      </trkpt>
      <trkpt lat="44.3224" lon="6.8861">
        <ele>1627.8</ele>
        <time>2022-07-19T10:30:49Z</time>
      </trkpt>
      <trkpt lat="44.32242" lon="6.88608">
        <ele>1627.8</ele>
        <time>2022-07-19T10:30:50Z</time>
      </trkpt>
      <trkpt lat="44.32244" lon="6.88605">
        <ele>1628</ele>
        <time>2022-07-19T10:30:51Z</time>
      </trkpt>
      <trkpt lat="44.32246" lon="6.88602">
        <ele>1628</ele>
        <time>2022-07-19T10:30:52Z</time>
      </trkpt>
      <trkpt lat="44.32248" lon="6.88599">
        <ele>1628.4</ele>
        <time>2022-07-19T10:30:53Z</time>
      </trkpt>
      <trkpt lat="44.32249" lon="6.88596">
        <ele>1628.4</ele>
        <time>2022-07-19T10:30:54Z</time>
      </trkpt>
      <trkpt lat="44.32251" lon="6.88593">
        <ele>1628.6</ele>
        <time>2022-07-19T10:30:55Z</time>
      </trkpt>
      <trkpt lat="44.32252" lon="6.8859">
        <ele>1628.6</ele>
        <time>2022-07-19T10:30:56Z</time>
      </trkpt>
      <trkpt lat="44.32254" lon="6.88587">
        <ele>1629</ele>
        <time>2022-07-19T10:30:57Z</time>
      </trkpt>
      <trkpt lat="44.32256" lon="6.88585">
        <ele>1629</ele>
        <time>2022-07-19T10:30:58Z</time>
      </trkpt>
      <trkpt lat="44.32258" lon="6.88582">
        <ele>1629.4</ele>
        <time>2022-07-19T10:30:59Z</time>
      </trkpt>
      <trkpt lat="44.32259" lon="6.8858">
        <ele>1629.4</ele>
        <time>2022-07-19T10:31:00Z</time>
      </trkpt>
      <trkpt lat="44.32261" lon="6.88578">
        <ele>1629.8</ele>
        <time>2022-07-19T10:31:01Z</time>
      </trkpt>
      <trkpt lat="44.32262" lon="6.88575">
        <ele>1629.8</ele>
        <time>2022-07-19T10:31:02Z</time>
      </trkpt>
      <trkpt lat="44.32263" lon="6.88573">
        <ele>1630.2</ele>
        <time>2022-07-19T10:31:03Z</time>
      </trkpt>
      <trkpt lat="44.32265" lon="6.88571">
        <ele>1630.2</ele>
        <time>2022-07-19T10:31:04Z</time>
      </trkpt>
      <trkpt lat="44.32266" lon="6.88569">
        <ele>1630.6</ele>
        <time>2022-07-19T10:31:05Z</time>
      </trkpt>
      <trkpt lat="44.32267" lon="6.88568">
        <ele>1630.6</ele>
        <time>2022-07-19T10:31:06Z</time>
      </trkpt>
      <trkpt lat="44.32269" lon="6.88566">
        <ele>1630.8</ele>
        <time>2022-07-19T10:31:07Z</time>
      </trkpt>
      <trkpt lat="44.3227" lon="6.88565">
        <ele>1630.8</ele>
        <time>2022-07-19T10:31:08Z</time>
      </trkpt>
      <trkpt lat="44.32271" lon="6.88563">
        <ele>1631.2</ele>
        <time>2022-07-19T10:31:09Z</time>
      </trkpt>
      <trkpt lat="44.32273" lon="6.8856">
        <ele>1631.2</ele>
        <time>2022-07-19T10:31:10Z</time>
      </trkpt>
      <trkpt lat="44.32274" lon="6.88558">
        <ele>1631.4</ele>
        <time>2022-07-19T10:31:11Z</time>
      </trkpt>
      <trkpt lat="44.32275" lon="6.88556">
        <ele>1631.4</ele>
        <time>2022-07-19T10:31:12Z</time>
      </trkpt>
      <trkpt lat="44.32277" lon="6.88554">
        <ele>1631.8</ele>
        <time>2022-07-19T10:31:13Z</time>
      </trkpt>
      <trkpt lat="44.32278" lon="6.88552">
        <ele>1631.8</ele>
        <time>2022-07-19T10:31:14Z</time>
      </trkpt>
      <trkpt lat="44.32279" lon="6.88549">
        <ele>1632</ele>
        <time>2022-07-19T10:31:15Z</time>
      </trkpt>
      <trkpt lat="44.3228" lon="6.88547">
        <ele>1632</ele>
        <time>2022-07-19T10:31:16Z</time>
      </trkpt>
      <trkpt lat="44.32282" lon="6.88545">
        <ele>1632.4</ele>
        <time>2022-07-19T10:31:17Z</time>
      </trkpt>
      <trkpt lat="44.32284" lon="6.88544">
        <ele>1632.4</ele>
        <time>2022-07-19T10:31:18Z</time>
      </trkpt>
      <trkpt lat="44.32286" lon="6.88541">
        <ele>1632.6</ele>
        <time>2022-07-19T10:31:19Z</time>
      </trkpt>
      <trkpt lat="44.32287" lon="6.88539">
        <ele>1632.6</ele>
        <time>2022-07-19T10:31:20Z</time>
      </trkpt>
      <trkpt lat="44.32289" lon="6.88537">
        <ele>1633</ele>
        <time>2022-07-19T10:31:21Z</time>
      </trkpt>
      <trkpt lat="44.32289" lon="6.88534">
        <ele>1633</ele>
        <time>2022-07-19T10:31:22Z</time>
      </trkpt>
      <trkpt lat="44.32291" lon="6.88531">
        <ele>1633.4</ele>
        <time>2022-07-19T10:31:23Z</time>
      </trkpt>
      <trkpt lat="44.32292" lon="6.88529">
        <ele>1633.4</ele>
        <time>2022-07-19T10:31:24Z</time>
      </trkpt>
      <trkpt lat="44.32294" lon="6.88526">
        <ele>1633.6</ele>
        <time>2022-07-19T10:31:25Z</time>
      </trkpt>
      <trkpt lat="44.32296" lon="6.88524">
        <ele>1634</ele>
        <time>2022-07-19T10:31:26Z</time>
      </trkpt>
      <trkpt lat="44.32298" lon="6.88521">
        <ele>1634</ele>
        <time>2022-07-19T10:31:27Z</time>
      </trkpt>
      <trkpt lat="44.32299" lon="6.88519">
        <ele>1634.4</ele>
        <time>2022-07-19T10:31:28Z</time>
      </trkpt>
      <trkpt lat="44.32301" lon="6.88516">
        <ele>1634.4</ele>
        <time>2022-07-19T10:31:29Z</time>
      </trkpt>
      <trkpt lat="44.32302" lon="6.88513">
        <ele>1634.6</ele>
        <time>2022-07-19T10:31:30Z</time>
      </trkpt>
      <trkpt lat="44.32304" lon="6.88511">
        <ele>1634.8</ele>
        <time>2022-07-19T10:31:31Z</time>
      </trkpt>
      <trkpt lat="44.32305" lon="6.88509">
        <ele>1634.8</ele>
        <time>2022-07-19T10:31:32Z</time>
      </trkpt>
      <trkpt lat="44.32307" lon="6.88507">
        <ele>1635.2</ele>
        <time>2022-07-19T10:31:33Z</time>
      </trkpt>
      <trkpt lat="44.32308" lon="6.88505">
        <ele>1635.2</ele>
        <time>2022-07-19T10:31:34Z</time>
      </trkpt>
      <trkpt lat="44.32309" lon="6.88502">
        <ele>1635.6</ele>
        <time>2022-07-19T10:31:35Z</time>
      </trkpt>
      <trkpt lat="44.32311" lon="6.88499">
        <ele>1636</ele>
        <time>2022-07-19T10:31:36Z</time>
      </trkpt>
      <trkpt lat="44.32312" lon="6.88497">
        <ele>1636</ele>
        <time>2022-07-19T10:31:37Z</time>
      </trkpt>
      <trkpt lat="44.32314" lon="6.88495">
        <ele>1636.2</ele>
        <time>2022-07-19T10:31:38Z</time>
      </trkpt>
      <trkpt lat="44.32315" lon="6.88492">
        <ele>1636.2</ele>
        <time>2022-07-19T10:31:39Z</time>
      </trkpt>
      <trkpt lat="44.32317" lon="6.8849">
        <ele>1636.6</ele>
        <time>2022-07-19T10:31:40Z</time>
      </trkpt>
      <trkpt lat="44.32319" lon="6.88487">
        <ele>1636.6</ele>
        <time>2022-07-19T10:31:41Z</time>
      </trkpt>
      <trkpt lat="44.3232" lon="6.88485">
        <ele>1636.8</ele>
        <time>2022-07-19T10:31:42Z</time>
      </trkpt>
      <trkpt lat="44.32322" lon="6.88483">
        <ele>1636.8</ele>
        <time>2022-07-19T10:31:43Z</time>
      </trkpt>
      <trkpt lat="44.32323" lon="6.8848">
        <ele>1637.2</ele>
        <time>2022-07-19T10:31:45Z</time>
      </trkpt>
      <trkpt lat="44.32325" lon="6.88478">
        <ele>1637.6</ele>
        <time>2022-07-19T10:31:46Z</time>
      </trkpt>
      <trkpt lat="44.32326" lon="6.88476">
        <ele>1637.6</ele>
        <time>2022-07-19T10:31:47Z</time>
      </trkpt>
      <trkpt lat="44.32328" lon="6.88474">
        <ele>1638</ele>
        <time>2022-07-19T10:31:48Z</time>
      </trkpt>
      <trkpt lat="44.32329" lon="6.88472">
        <ele>1638.2</ele>
        <time>2022-07-19T10:31:49Z</time>
      </trkpt>
      <trkpt lat="44.3233" lon="6.8847">
        <ele>1638.2</ele>
        <time>2022-07-19T10:31:50Z</time>
      </trkpt>
      <trkpt lat="44.32332" lon="6.88468">
        <ele>1638.4</ele>
        <time>2022-07-19T10:31:51Z</time>
      </trkpt>
      <trkpt lat="44.32333" lon="6.88467">
        <ele>1638.4</ele>
        <time>2022-07-19T10:31:52Z</time>
      </trkpt>
      <trkpt lat="44.32335" lon="6.88465">
        <ele>1638.8</ele>
        <time>2022-07-19T10:31:53Z</time>
      </trkpt>
      <trkpt lat="44.32336" lon="6.88463">
        <ele>1638.8</ele>
        <time>2022-07-19T10:31:54Z</time>
      </trkpt>
      <trkpt lat="44.32337" lon="6.88462">
        <ele>1639</ele>
        <time>2022-07-19T10:31:55Z</time>
      </trkpt>
      <trkpt lat="44.32339" lon="6.8846">
        <ele>1639.2</ele>
        <time>2022-07-19T10:31:56Z</time>
      </trkpt>
      <trkpt lat="44.3234" lon="6.88457">
        <ele>1639.2</ele>
        <time>2022-07-19T10:31:57Z</time>
      </trkpt>
      <trkpt lat="44.32341" lon="6.88455">
        <ele>1639.6</ele>
        <time>2022-07-19T10:31:58Z</time>
      </trkpt>
      <trkpt lat="44.32342" lon="6.88453">
        <ele>1639.6</ele>
        <time>2022-07-19T10:31:59Z</time>
      </trkpt>
      <trkpt lat="44.32344" lon="6.88451">
        <ele>1639.8</ele>
        <time>2022-07-19T10:32:00Z</time>
      </trkpt>
      <trkpt lat="44.32345" lon="6.88449">
        <ele>1640</ele>
        <time>2022-07-19T10:32:01Z</time>
      </trkpt>
      <trkpt lat="44.32346" lon="6.88448">
        <ele>1640</ele>
        <time>2022-07-19T10:32:02Z</time>
      </trkpt>
      <trkpt lat="44.32348" lon="6.88446">
        <ele>1640.4</ele>
        <time>2022-07-19T10:32:03Z</time>
      </trkpt>
      <trkpt lat="44.32349" lon="6.88444">
        <ele>1640.4</ele>
        <time>2022-07-19T10:32:04Z</time>
      </trkpt>
      <trkpt lat="44.3235" lon="6.88441">
        <ele>1640.6</ele>
        <time>2022-07-19T10:32:05Z</time>
      </trkpt>
      <trkpt lat="44.32351" lon="6.88439">
        <ele>1640.8</ele>
        <time>2022-07-19T10:32:06Z</time>
      </trkpt>
      <trkpt lat="44.32352" lon="6.88436">
        <ele>1640.8</ele>
        <time>2022-07-19T10:32:07Z</time>
      </trkpt>
      <trkpt lat="44.32353" lon="6.88434">
        <ele>1641.2</ele>
        <time>2022-07-19T10:32:08Z</time>
      </trkpt>
      <trkpt lat="44.32354" lon="6.88431">
        <ele>1641.2</ele>
        <time>2022-07-19T10:32:09Z</time>
      </trkpt>
      <trkpt lat="44.32355" lon="6.88428">
        <ele>1641.4</ele>
        <time>2022-07-19T10:32:10Z</time>
      </trkpt>
      <trkpt lat="44.32356" lon="6.88426">
        <ele>1641.4</ele>
        <time>2022-07-19T10:32:11Z</time>
      </trkpt>
      <trkpt lat="44.32357" lon="6.88423">
        <ele>1641.8</ele>
        <time>2022-07-19T10:32:12Z</time>
      </trkpt>
      <trkpt lat="44.32357" lon="6.8842">
        <ele>1641.8</ele>
        <time>2022-07-19T10:32:13Z</time>
      </trkpt>
      <trkpt lat="44.32357" lon="6.88417">
        <ele>1642</ele>
        <time>2022-07-19T10:32:14Z</time>
      </trkpt>
      <trkpt lat="44.32358" lon="6.88414">
        <ele>1642</ele>
        <time>2022-07-19T10:32:15Z</time>
      </trkpt>
      <trkpt lat="44.32358" lon="6.88411">
        <ele>1642.2</ele>
        <time>2022-07-19T10:32:16Z</time>
      </trkpt>
      <trkpt lat="44.32358" lon="6.88407">
        <ele>1642.2</ele>
        <time>2022-07-19T10:32:17Z</time>
      </trkpt>
      <trkpt lat="44.32358" lon="6.88404">
        <ele>1642.4</ele>
        <time>2022-07-19T10:32:18Z</time>
      </trkpt>
      <trkpt lat="44.32357" lon="6.88401">
        <ele>1642.4</ele>
        <time>2022-07-19T10:32:19Z</time>
      </trkpt>
      <trkpt lat="44.32357" lon="6.88398">
        <ele>1642.4</ele>
        <time>2022-07-19T10:32:20Z</time>
      </trkpt>
      <trkpt lat="44.32357" lon="6.88395">
        <ele>1642.8</ele>
        <time>2022-07-19T10:32:21Z</time>
      </trkpt>
      <trkpt lat="44.32357" lon="6.88391">
        <ele>1642.8</ele>
        <time>2022-07-19T10:32:22Z</time>
      </trkpt>
      <trkpt lat="44.32357" lon="6.88388">
        <ele>1643</ele>
        <time>2022-07-19T10:32:23Z</time>
      </trkpt>
      <trkpt lat="44.32357" lon="6.88385">
        <ele>1643</ele>
        <time>2022-07-19T10:32:24Z</time>
      </trkpt>
      <trkpt lat="44.32357" lon="6.88382">
        <ele>1643</ele>
        <time>2022-07-19T10:32:25Z</time>
      </trkpt>
      <trkpt lat="44.32357" lon="6.88379">
        <ele>1643.4</ele>
        <time>2022-07-19T10:32:26Z</time>
      </trkpt>
      <trkpt lat="44.32357" lon="6.88375">
        <ele>1643.4</ele>
        <time>2022-07-19T10:32:27Z</time>
      </trkpt>
      <trkpt lat="44.32358" lon="6.88372">
        <ele>1643.4</ele>
        <time>2022-07-19T10:32:28Z</time>
      </trkpt>
      <trkpt lat="44.32357" lon="6.88369">
        <ele>1643.4</ele>
        <time>2022-07-19T10:32:29Z</time>
      </trkpt>
      <trkpt lat="44.32357" lon="6.88365">
        <ele>1643.4</ele>
        <time>2022-07-19T10:32:30Z</time>
      </trkpt>
      <trkpt lat="44.32357" lon="6.88361">
        <ele>1643.4</ele>
        <time>2022-07-19T10:32:31Z</time>
      </trkpt>
      <trkpt lat="44.32356" lon="6.88358">
        <ele>1643.6</ele>
        <time>2022-07-19T10:32:32Z</time>
      </trkpt>
      <trkpt lat="44.32356" lon="6.88354">
        <ele>1643.6</ele>
        <time>2022-07-19T10:32:33Z</time>
      </trkpt>
      <trkpt lat="44.32356" lon="6.88351">
        <ele>1643.6</ele>
        <time>2022-07-19T10:32:34Z</time>
      </trkpt>
      <trkpt lat="44.32354" lon="6.88348">
        <ele>1643.8</ele>
        <time>2022-07-19T10:32:35Z</time>
      </trkpt>
      <trkpt lat="44.32353" lon="6.88345">
        <ele>1643.8</ele>
        <time>2022-07-19T10:32:36Z</time>
      </trkpt>
      <trkpt lat="44.3235" lon="6.88342">
        <ele>1643.8</ele>
        <time>2022-07-19T10:32:37Z</time>
      </trkpt>
      <trkpt lat="44.32349" lon="6.8834">
        <ele>1644.2</ele>
        <time>2022-07-19T10:32:38Z</time>
      </trkpt>
      <trkpt lat="44.32347" lon="6.88337">
        <ele>1644.2</ele>
        <time>2022-07-19T10:32:39Z</time>
      </trkpt>
      <trkpt lat="44.32345" lon="6.88335">
        <ele>1644.4</ele>
        <time>2022-07-19T10:32:40Z</time>
      </trkpt>
      <trkpt lat="44.32343" lon="6.88333">
        <ele>1644.4</ele>
        <time>2022-07-19T10:32:41Z</time>
      </trkpt>
      <trkpt lat="44.32341" lon="6.88331">
        <ele>1644.6</ele>
        <time>2022-07-19T10:32:42Z</time>
      </trkpt>
      <trkpt lat="44.3234" lon="6.88329">
        <ele>1644.6</ele>
        <time>2022-07-19T10:32:43Z</time>
      </trkpt>
      <trkpt lat="44.32338" lon="6.88327">
        <ele>1645</ele>
        <time>2022-07-19T10:32:44Z</time>
      </trkpt>
      <trkpt lat="44.32336" lon="6.88325">
        <ele>1645</ele>
        <time>2022-07-19T10:32:45Z</time>
      </trkpt>
      <trkpt lat="44.32335" lon="6.88323">
        <ele>1645.2</ele>
        <time>2022-07-19T10:32:46Z</time>
      </trkpt>
      <trkpt lat="44.32333" lon="6.88321">
        <ele>1645.2</ele>
        <time>2022-07-19T10:32:47Z</time>
      </trkpt>
      <trkpt lat="44.32332" lon="6.88319">
        <ele>1645.4</ele>
        <time>2022-07-19T10:32:48Z</time>
      </trkpt>
      <trkpt lat="44.3233" lon="6.88317">
        <ele>1645.4</ele>
        <time>2022-07-19T10:32:49Z</time>
      </trkpt>
      <trkpt lat="44.32329" lon="6.88315">
        <ele>1645.6</ele>
        <time>2022-07-19T10:32:50Z</time>
      </trkpt>
      <trkpt lat="44.32327" lon="6.88312">
        <ele>1645.6</ele>
        <time>2022-07-19T10:32:51Z</time>
      </trkpt>
      <trkpt lat="44.32326" lon="6.8831">
        <ele>1646</ele>
        <time>2022-07-19T10:32:52Z</time>
      </trkpt>
      <trkpt lat="44.32325" lon="6.88308">
        <ele>1646</ele>
        <time>2022-07-19T10:32:53Z</time>
      </trkpt>
      <trkpt lat="44.32323" lon="6.88306">
        <ele>1646.4</ele>
        <time>2022-07-19T10:32:54Z</time>
      </trkpt>
      <trkpt lat="44.32322" lon="6.88304">
        <ele>1646.4</ele>
        <time>2022-07-19T10:32:55Z</time>
      </trkpt>
      <trkpt lat="44.3232" lon="6.88302">
        <ele>1646.6</ele>
        <time>2022-07-19T10:32:56Z</time>
      </trkpt>
      <trkpt lat="44.32319" lon="6.88301">
        <ele>1646.6</ele>
        <time>2022-07-19T10:32:57Z</time>
      </trkpt>
      <trkpt lat="44.32318" lon="6.883">
        <ele>1646.8</ele>
        <time>2022-07-19T10:32:58Z</time>
      </trkpt>
      <trkpt lat="44.32316" lon="6.88298">
        <ele>1646.8</ele>
        <time>2022-07-19T10:32:59Z</time>
      </trkpt>
      <trkpt lat="44.32315" lon="6.88296">
        <ele>1647.2</ele>
        <time>2022-07-19T10:33:00Z</time>
      </trkpt>
      <trkpt lat="44.32314" lon="6.88293">
        <ele>1647.2</ele>
        <time>2022-07-19T10:33:01Z</time>
      </trkpt>
      <trkpt lat="44.32313" lon="6.88291">
        <ele>1647.4</ele>
        <time>2022-07-19T10:33:02Z</time>
      </trkpt>
      <trkpt lat="44.32312" lon="6.88289">
        <ele>1647.4</ele>
        <time>2022-07-19T10:33:03Z</time>
      </trkpt>
      <trkpt lat="44.32311" lon="6.88287">
        <ele>1647.8</ele>
        <time>2022-07-19T10:33:04Z</time>
      </trkpt>
      <trkpt lat="44.32309" lon="6.88286">
        <ele>1647.8</ele>
        <time>2022-07-19T10:33:05Z</time>
      </trkpt>
      <trkpt lat="44.32308" lon="6.88284">
        <ele>1648.2</ele>
        <time>2022-07-19T10:33:06Z</time>
      </trkpt>
      <trkpt lat="44.32307" lon="6.88282">
        <ele>1648.2</ele>
        <time>2022-07-19T10:33:07Z</time>
      </trkpt>
      <trkpt lat="44.32306" lon="6.88279">
        <ele>1648.4</ele>
        <time>2022-07-19T10:33:08Z</time>
      </trkpt>
      <trkpt lat="44.32305" lon="6.88277">
        <ele>1648.4</ele>
        <time>2022-07-19T10:33:09Z</time>
      </trkpt>
      <trkpt lat="44.32303" lon="6.88275">
        <ele>1648.6</ele>
        <time>2022-07-19T10:33:10Z</time>
      </trkpt>
      <trkpt lat="44.32301" lon="6.88274">
        <ele>1648.6</ele>
        <time>2022-07-19T10:33:11Z</time>
      </trkpt>
      <trkpt lat="44.323" lon="6.88272">
        <ele>1649</ele>
        <time>2022-07-19T10:33:12Z</time>
      </trkpt>
      <trkpt lat="44.32298" lon="6.88271">
        <ele>1649</ele>
        <time>2022-07-19T10:33:13Z</time>
      </trkpt>
      <trkpt lat="44.32297" lon="6.88269">
        <ele>1649.2</ele>
        <time>2022-07-19T10:33:14Z</time>
      </trkpt>
      <trkpt lat="44.32295" lon="6.88268">
        <ele>1649.4</ele>
        <time>2022-07-19T10:33:15Z</time>
      </trkpt>
      <trkpt lat="44.32294" lon="6.88267">
        <ele>1649.4</ele>
        <time>2022-07-19T10:33:16Z</time>
      </trkpt>
      <trkpt lat="44.32292" lon="6.88266">
        <ele>1649.6</ele>
        <time>2022-07-19T10:33:17Z</time>
      </trkpt>
      <trkpt lat="44.3229" lon="6.88265">
        <ele>1649.6</ele>
        <time>2022-07-19T10:33:18Z</time>
      </trkpt>
      <trkpt lat="44.32288" lon="6.88264">
        <ele>1650</ele>
        <time>2022-07-19T10:33:19Z</time>
      </trkpt>
      <trkpt lat="44.32285" lon="6.88261">
        <ele>1650</ele>
        <time>2022-07-19T10:33:20Z</time>
      </trkpt>
      <trkpt lat="44.32283" lon="6.8826">
        <ele>1650</ele>
        <time>2022-07-19T10:33:21Z</time>
      </trkpt>
      <trkpt lat="44.32281" lon="6.88259">
        <ele>1650.2</ele>
        <time>2022-07-19T10:33:22Z</time>
      </trkpt>
      <trkpt lat="44.32279" lon="6.88257">
        <ele>1650.2</ele>
        <time>2022-07-19T10:33:23Z</time>
      </trkpt>
      <trkpt lat="44.32277" lon="6.88256">
        <ele>1650.4</ele>
        <time>2022-07-19T10:33:24Z</time>
      </trkpt>
      <trkpt lat="44.32275" lon="6.88254">
        <ele>1650.4</ele>
        <time>2022-07-19T10:33:25Z</time>
      </trkpt>
      <trkpt lat="44.32273" lon="6.88253">
        <ele>1650.6</ele>
        <time>2022-07-19T10:33:26Z</time>
      </trkpt>
      <trkpt lat="44.32271" lon="6.88251">
        <ele>1650.6</ele>
        <time>2022-07-19T10:33:27Z</time>
      </trkpt>
      <trkpt lat="44.32269" lon="6.8825">
        <ele>1650.8</ele>
        <time>2022-07-19T10:33:28Z</time>
      </trkpt>
      <trkpt lat="44.32267" lon="6.88249">
        <ele>1650.8</ele>
        <time>2022-07-19T10:33:29Z</time>
      </trkpt>
      <trkpt lat="44.32265" lon="6.88247">
        <ele>1651.2</ele>
        <time>2022-07-19T10:33:30Z</time>
      </trkpt>
      <trkpt lat="44.32264" lon="6.88246">
        <ele>1651.4</ele>
        <time>2022-07-19T10:33:31Z</time>
      </trkpt>
      <trkpt lat="44.32262" lon="6.88245">
        <ele>1651.4</ele>
        <time>2022-07-19T10:33:32Z</time>
      </trkpt>
      <trkpt lat="44.32261" lon="6.88244">
        <ele>1651.8</ele>
        <time>2022-07-19T10:33:33Z</time>
      </trkpt>
      <trkpt lat="44.32259" lon="6.88242">
        <ele>1652</ele>
        <time>2022-07-19T10:33:34Z</time>
      </trkpt>
      <trkpt lat="44.32258" lon="6.8824">
        <ele>1652</ele>
        <time>2022-07-19T10:33:35Z</time>
      </trkpt>
      <trkpt lat="44.32257" lon="6.88238">
        <ele>1652.2</ele>
        <time>2022-07-19T10:33:36Z</time>
      </trkpt>
      <trkpt lat="44.32255" lon="6.88236">
        <ele>1652.4</ele>
        <time>2022-07-19T10:33:37Z</time>
      </trkpt>
      <trkpt lat="44.32254" lon="6.88234">
        <ele>1652.4</ele>
        <time>2022-07-19T10:33:38Z</time>
      </trkpt>
      <trkpt lat="44.32252" lon="6.88233">
        <ele>1652.6</ele>
        <time>2022-07-19T10:33:39Z</time>
      </trkpt>
      <trkpt lat="44.32251" lon="6.88231">
        <ele>1652.6</ele>
        <time>2022-07-19T10:33:40Z</time>
      </trkpt>
      <trkpt lat="44.3225" lon="6.88229">
        <ele>1653</ele>
        <time>2022-07-19T10:33:41Z</time>
      </trkpt>
      <trkpt lat="44.32249" lon="6.88226">
        <ele>1653.2</ele>
        <time>2022-07-19T10:33:42Z</time>
      </trkpt>
      <trkpt lat="44.32248" lon="6.88224">
        <ele>1653.2</ele>
        <time>2022-07-19T10:33:43Z</time>
      </trkpt>
      <trkpt lat="44.32247" lon="6.88222">
        <ele>1653.6</ele>
        <time>2022-07-19T10:33:44Z</time>
      </trkpt>
      <trkpt lat="44.32246" lon="6.8822">
        <ele>1653.8</ele>
        <time>2022-07-19T10:33:45Z</time>
      </trkpt>
      <trkpt lat="44.32245" lon="6.88217">
        <ele>1653.8</ele>
        <time>2022-07-19T10:33:46Z</time>
      </trkpt>
      <trkpt lat="44.32244" lon="6.88215">
        <ele>1654.2</ele>
        <time>2022-07-19T10:33:47Z</time>
      </trkpt>
      <trkpt lat="44.32243" lon="6.88213">
        <ele>1654.4</ele>
        <time>2022-07-19T10:33:48Z</time>
      </trkpt>
      <trkpt lat="44.32242" lon="6.88211">
        <ele>1654.6</ele>
        <time>2022-07-19T10:33:49Z</time>
      </trkpt>
      <trkpt lat="44.32241" lon="6.88209">
        <ele>1654.8</ele>
        <time>2022-07-19T10:33:50Z</time>
      </trkpt>
      <trkpt lat="44.3224" lon="6.88207">
        <ele>1655.2</ele>
        <time>2022-07-19T10:33:51Z</time>
      </trkpt>
      <trkpt lat="44.3224" lon="6.88204">
        <ele>1655.4</ele>
        <time>2022-07-19T10:33:52Z</time>
      </trkpt>
      <trkpt lat="44.3224" lon="6.88202">
        <ele>1655.6</ele>
        <time>2022-07-19T10:33:53Z</time>
      </trkpt>
      <trkpt lat="44.32239" lon="6.88199">
        <ele>1655.6</ele>
        <time>2022-07-19T10:33:54Z</time>
      </trkpt>
      <trkpt lat="44.32239" lon="6.88197">
        <ele>1656</ele>
        <time>2022-07-19T10:33:55Z</time>
      </trkpt>
      <trkpt lat="44.32237" lon="6.88194">
        <ele>1656.2</ele>
        <time>2022-07-19T10:33:56Z</time>
      </trkpt>
      <trkpt lat="44.32236" lon="6.88191">
        <ele>1656.6</ele>
        <time>2022-07-19T10:33:57Z</time>
      </trkpt>
      <trkpt lat="44.32235" lon="6.88189">
        <ele>1656.6</ele>
        <time>2022-07-19T10:33:58Z</time>
      </trkpt>
      <trkpt lat="44.32235" lon="6.88186">
        <ele>1657</ele>
        <time>2022-07-19T10:33:59Z</time>
      </trkpt>
      <trkpt lat="44.32234" lon="6.88183">
        <ele>1657</ele>
        <time>2022-07-19T10:34:00Z</time>
      </trkpt>
      <trkpt lat="44.32233" lon="6.8818">
        <ele>1657.4</ele>
        <time>2022-07-19T10:34:01Z</time>
      </trkpt>
      <trkpt lat="44.32232" lon="6.88177">
        <ele>1657.4</ele>
        <time>2022-07-19T10:34:02Z</time>
      </trkpt>
      <trkpt lat="44.32231" lon="6.88175">
        <ele>1657.6</ele>
        <time>2022-07-19T10:34:03Z</time>
      </trkpt>
      <trkpt lat="44.32229" lon="6.88172">
        <ele>1657.6</ele>
        <time>2022-07-19T10:34:04Z</time>
      </trkpt>
      <trkpt lat="44.32228" lon="6.8817">
        <ele>1658</ele>
        <time>2022-07-19T10:34:05Z</time>
      </trkpt>
      <trkpt lat="44.32227" lon="6.88168">
        <ele>1658</ele>
        <time>2022-07-19T10:34:06Z</time>
      </trkpt>
      <trkpt lat="44.32226" lon="6.88165">
        <ele>1658.2</ele>
        <time>2022-07-19T10:34:07Z</time>
      </trkpt>
      <trkpt lat="44.32225" lon="6.88163">
        <ele>1658.2</ele>
        <time>2022-07-19T10:34:08Z</time>
      </trkpt>
      <trkpt lat="44.32224" lon="6.8816">
        <ele>1658.6</ele>
        <time>2022-07-19T10:34:09Z</time>
      </trkpt>
      <trkpt lat="44.32223" lon="6.88157">
        <ele>1658.6</ele>
        <time>2022-07-19T10:34:10Z</time>
      </trkpt>
      <trkpt lat="44.32222" lon="6.88154">
        <ele>1659</ele>
        <time>2022-07-19T10:34:11Z</time>
      </trkpt>
      <trkpt lat="44.32221" lon="6.88152">
        <ele>1659</ele>
        <time>2022-07-19T10:34:12Z</time>
      </trkpt>
      <trkpt lat="44.3222" lon="6.88149">
        <ele>1659.2</ele>
        <time>2022-07-19T10:34:13Z</time>
      </trkpt>
      <trkpt lat="44.32219" lon="6.88147">
        <ele>1659.2</ele>
        <time>2022-07-19T10:34:14Z</time>
      </trkpt>
      <trkpt lat="44.32217" lon="6.88145">
        <ele>1659.4</ele>
        <time>2022-07-19T10:34:15Z</time>
      </trkpt>
      <trkpt lat="44.32216" lon="6.88143">
        <ele>1659.4</ele>
        <time>2022-07-19T10:34:16Z</time>
      </trkpt>
      <trkpt lat="44.32215" lon="6.8814">
        <ele>1659.8</ele>
        <time>2022-07-19T10:34:17Z</time>
      </trkpt>
      <trkpt lat="44.32214" lon="6.88138">
        <ele>1659.8</ele>
        <time>2022-07-19T10:34:18Z</time>
      </trkpt>
      <trkpt lat="44.32213" lon="6.88135">
        <ele>1660</ele>
        <time>2022-07-19T10:34:19Z</time>
      </trkpt>
      <trkpt lat="44.32213" lon="6.88132">
        <ele>1660</ele>
        <time>2022-07-19T10:34:20Z</time>
      </trkpt>
      <trkpt lat="44.32212" lon="6.88129">
        <ele>1660</ele>
        <time>2022-07-19T10:34:21Z</time>
      </trkpt>
      <trkpt lat="44.32211" lon="6.88126">
        <ele>1660.4</ele>
        <time>2022-07-19T10:34:22Z</time>
      </trkpt>
      <trkpt lat="44.3221" lon="6.88124">
        <ele>1660.4</ele>
        <time>2022-07-19T10:34:23Z</time>
      </trkpt>
      <trkpt lat="44.32209" lon="6.88121">
        <ele>1660.6</ele>
        <time>2022-07-19T10:34:24Z</time>
      </trkpt>
      <trkpt lat="44.32208" lon="6.88118">
        <ele>1660.6</ele>
        <time>2022-07-19T10:34:25Z</time>
      </trkpt>
      <trkpt lat="44.32207" lon="6.88117">
        <ele>1661</ele>
        <time>2022-07-19T10:34:26Z</time>
      </trkpt>
      <trkpt lat="44.32206" lon="6.88114">
        <ele>1661</ele>
        <time>2022-07-19T10:34:27Z</time>
      </trkpt>
      <trkpt lat="44.32205" lon="6.88112">
        <ele>1661.2</ele>
        <time>2022-07-19T10:34:28Z</time>
      </trkpt>
      <trkpt lat="44.32204" lon="6.88109">
        <ele>1661.2</ele>
        <time>2022-07-19T10:34:29Z</time>
      </trkpt>
      <trkpt lat="44.32203" lon="6.88107">
        <ele>1661.6</ele>
        <time>2022-07-19T10:34:30Z</time>
      </trkpt>
      <trkpt lat="44.32202" lon="6.88104">
        <ele>1661.6</ele>
        <time>2022-07-19T10:34:31Z</time>
      </trkpt>
      <trkpt lat="44.32201" lon="6.88102">
        <ele>1661.8</ele>
        <time>2022-07-19T10:34:32Z</time>
      </trkpt>
      <trkpt lat="44.322" lon="6.88099">
        <ele>1661.8</ele>
        <time>2022-07-19T10:34:33Z</time>
      </trkpt>
      <trkpt lat="44.32199" lon="6.88097">
        <ele>1662</ele>
        <time>2022-07-19T10:34:34Z</time>
      </trkpt>
      <trkpt lat="44.32199" lon="6.88094">
        <ele>1662</ele>
        <time>2022-07-19T10:34:35Z</time>
      </trkpt>
      <trkpt lat="44.32198" lon="6.88092">
        <ele>1662.2</ele>
        <time>2022-07-19T10:34:36Z</time>
      </trkpt>
      <trkpt lat="44.32198" lon="6.88089">
        <ele>1662.4</ele>
        <time>2022-07-19T10:34:37Z</time>
      </trkpt>
      <trkpt lat="44.32197" lon="6.88087">
        <ele>1662.4</ele>
        <time>2022-07-19T10:34:38Z</time>
      </trkpt>
      <trkpt lat="44.32197" lon="6.88084">
        <ele>1662.8</ele>
        <time>2022-07-19T10:34:39Z</time>
      </trkpt>
      <trkpt lat="44.32196" lon="6.88081">
        <ele>1663</ele>
        <time>2022-07-19T10:34:40Z</time>
      </trkpt>
      <trkpt lat="44.32196" lon="6.88078">
        <ele>1663</ele>
        <time>2022-07-19T10:34:41Z</time>
      </trkpt>
      <trkpt lat="44.32196" lon="6.88076">
        <ele>1663.2</ele>
        <time>2022-07-19T10:34:42Z</time>
      </trkpt>
      <trkpt lat="44.32195" lon="6.88073">
        <ele>1663.2</ele>
        <time>2022-07-19T10:34:43Z</time>
      </trkpt>
      <trkpt lat="44.32195" lon="6.88071">
        <ele>1663.4</ele>
        <time>2022-07-19T10:34:44Z</time>
      </trkpt>
      <trkpt lat="44.32195" lon="6.88069">
        <ele>1663.4</ele>
        <time>2022-07-19T10:34:45Z</time>
      </trkpt>
      <trkpt lat="44.32195" lon="6.88067">
        <ele>1663.8</ele>
        <time>2022-07-19T10:34:46Z</time>
      </trkpt>
      <trkpt lat="44.32195" lon="6.88064">
        <ele>1663.8</ele>
        <time>2022-07-19T10:34:47Z</time>
      </trkpt>
      <trkpt lat="44.32194" lon="6.88062">
        <ele>1664.2</ele>
        <time>2022-07-19T10:34:48Z</time>
      </trkpt>
      <trkpt lat="44.32194" lon="6.8806">
        <ele>1664.2</ele>
        <time>2022-07-19T10:34:49Z</time>
      </trkpt>
      <trkpt lat="44.32194" lon="6.88058">
        <ele>1664.6</ele>
        <time>2022-07-19T10:34:50Z</time>
      </trkpt>
      <trkpt lat="44.32193" lon="6.88056">
        <ele>1664.8</ele>
        <time>2022-07-19T10:34:51Z</time>
      </trkpt>
      <trkpt lat="44.32193" lon="6.88054">
        <ele>1665</ele>
        <time>2022-07-19T10:34:52Z</time>
      </trkpt>
      <trkpt lat="44.32192" lon="6.88052">
        <ele>1665.2</ele>
        <time>2022-07-19T10:34:53Z</time>
      </trkpt>
      <trkpt lat="44.32191" lon="6.88049">
        <ele>1665.2</ele>
        <time>2022-07-19T10:34:54Z</time>
      </trkpt>
      <trkpt lat="44.3219" lon="6.88047">
        <ele>1665.6</ele>
        <time>2022-07-19T10:34:55Z</time>
      </trkpt>
      <trkpt lat="44.3219" lon="6.88045">
        <ele>1665.8</ele>
        <time>2022-07-19T10:34:56Z</time>
      </trkpt>
      <trkpt lat="44.32189" lon="6.88042">
        <ele>1665.8</ele>
        <time>2022-07-19T10:34:57Z</time>
      </trkpt>
      <trkpt lat="44.32188" lon="6.8804">
        <ele>1666.2</ele>
        <time>2022-07-19T10:34:58Z</time>
      </trkpt>
      <trkpt lat="44.32188" lon="6.88038">
        <ele>1666.4</ele>
        <time>2022-07-19T10:34:59Z</time>
      </trkpt>
      <trkpt lat="44.32187" lon="6.88035">
        <ele>1666.4</ele>
        <time>2022-07-19T10:35:00Z</time>
      </trkpt>
      <trkpt lat="44.32187" lon="6.88033">
        <ele>1666.8</ele>
        <time>2022-07-19T10:35:01Z</time>
      </trkpt>
      <trkpt lat="44.32186" lon="6.8803">
        <ele>1666.8</ele>
        <time>2022-07-19T10:35:02Z</time>
      </trkpt>
      <trkpt lat="44.32186" lon="6.88028">
        <ele>1667</ele>
        <time>2022-07-19T10:35:03Z</time>
      </trkpt>
      <trkpt lat="44.32185" lon="6.88026">
        <ele>1667</ele>
        <time>2022-07-19T10:35:04Z</time>
      </trkpt>
      <trkpt lat="44.32184" lon="6.88024">
        <ele>1667.2</ele>
        <time>2022-07-19T10:35:05Z</time>
      </trkpt>
      <trkpt lat="44.32184" lon="6.88022">
        <ele>1667.2</ele>
        <time>2022-07-19T10:35:06Z</time>
      </trkpt>
      <trkpt lat="44.32182" lon="6.8802">
        <ele>1667.6</ele>
        <time>2022-07-19T10:35:07Z</time>
      </trkpt>
      <trkpt lat="44.32181" lon="6.88018">
        <ele>1667.6</ele>
        <time>2022-07-19T10:35:08Z</time>
      </trkpt>
      <trkpt lat="44.3218" lon="6.88017">
        <ele>1667.8</ele>
        <time>2022-07-19T10:35:09Z</time>
      </trkpt>
      <trkpt lat="44.32179" lon="6.88015">
        <ele>1667.8</ele>
        <time>2022-07-19T10:35:10Z</time>
      </trkpt>
      <trkpt lat="44.32178" lon="6.88012">
        <ele>1668</ele>
        <time>2022-07-19T10:35:11Z</time>
      </trkpt>
      <trkpt lat="44.32177" lon="6.8801">
        <ele>1668</ele>
        <time>2022-07-19T10:35:12Z</time>
      </trkpt>
      <trkpt lat="44.32176" lon="6.88008">
        <ele>1668.4</ele>
        <time>2022-07-19T10:35:13Z</time>
      </trkpt>
      <trkpt lat="44.32176" lon="6.88006">
        <ele>1668.4</ele>
        <time>2022-07-19T10:35:14Z</time>
      </trkpt>
      <trkpt lat="44.32175" lon="6.88003">
        <ele>1668.6</ele>
        <time>2022-07-19T10:35:15Z</time>
      </trkpt>
      <trkpt lat="44.32175" lon="6.88002">
        <ele>1669</ele>
        <time>2022-07-19T10:35:16Z</time>
      </trkpt>
      <trkpt lat="44.32174" lon="6.88">
        <ele>1669</ele>
        <time>2022-07-19T10:35:17Z</time>
      </trkpt>
      <trkpt lat="44.32173" lon="6.87997">
        <ele>1669.2</ele>
        <time>2022-07-19T10:35:18Z</time>
      </trkpt>
      <trkpt lat="44.32172" lon="6.87995">
        <ele>1669.2</ele>
        <time>2022-07-19T10:35:19Z</time>
      </trkpt>
      <trkpt lat="44.32171" lon="6.87993">
        <ele>1669.4</ele>
        <time>2022-07-19T10:35:20Z</time>
      </trkpt>
      <trkpt lat="44.3217" lon="6.87991">
        <ele>1669.4</ele>
        <time>2022-07-19T10:35:21Z</time>
      </trkpt>
      <trkpt lat="44.32169" lon="6.87988">
        <ele>1669.8</ele>
        <time>2022-07-19T10:35:22Z</time>
      </trkpt>
      <trkpt lat="44.32169" lon="6.87986">
        <ele>1669.8</ele>
        <time>2022-07-19T10:35:23Z</time>
      </trkpt>
      <trkpt lat="44.32168" lon="6.87984">
        <ele>1670</ele>
        <time>2022-07-19T10:35:24Z</time>
      </trkpt>
      <trkpt lat="44.32167" lon="6.87981">
        <ele>1670</ele>
        <time>2022-07-19T10:35:25Z</time>
      </trkpt>
      <trkpt lat="44.32166" lon="6.87979">
        <ele>1670.4</ele>
        <time>2022-07-19T10:35:26Z</time>
      </trkpt>
      <trkpt lat="44.32166" lon="6.87977">
        <ele>1670.4</ele>
        <time>2022-07-19T10:35:27Z</time>
      </trkpt>
      <trkpt lat="44.32165" lon="6.87974">
        <ele>1670.6</ele>
        <time>2022-07-19T10:35:28Z</time>
      </trkpt>
      <trkpt lat="44.32164" lon="6.87972">
        <ele>1670.6</ele>
        <time>2022-07-19T10:35:29Z</time>
      </trkpt>
      <trkpt lat="44.32163" lon="6.87969">
        <ele>1670.8</ele>
        <time>2022-07-19T10:35:30Z</time>
      </trkpt>
      <trkpt lat="44.32162" lon="6.87966">
        <ele>1670.8</ele>
        <time>2022-07-19T10:35:31Z</time>
      </trkpt>
      <trkpt lat="44.32162" lon="6.87964">
        <ele>1671.2</ele>
        <time>2022-07-19T10:35:32Z</time>
      </trkpt>
      <trkpt lat="44.32161" lon="6.87961">
        <ele>1671.2</ele>
        <time>2022-07-19T10:35:33Z</time>
      </trkpt>
      <trkpt lat="44.32161" lon="6.87958">
        <ele>1671.4</ele>
        <time>2022-07-19T10:35:34Z</time>
      </trkpt>
      <trkpt lat="44.32161" lon="6.87955">
        <ele>1671.4</ele>
        <time>2022-07-19T10:35:35Z</time>
      </trkpt>
      <trkpt lat="44.32161" lon="6.87952">
        <ele>1671.8</ele>
        <time>2022-07-19T10:35:36Z</time>
      </trkpt>
      <trkpt lat="44.3216" lon="6.87949">
        <ele>1671.8</ele>
        <time>2022-07-19T10:35:37Z</time>
      </trkpt>
      <trkpt lat="44.3216" lon="6.87946">
        <ele>1672</ele>
        <time>2022-07-19T10:35:38Z</time>
      </trkpt>
      <trkpt lat="44.3216" lon="6.87943">
        <ele>1672</ele>
        <time>2022-07-19T10:35:39Z</time>
      </trkpt>
      <trkpt lat="44.32159" lon="6.8794">
        <ele>1672.4</ele>
        <time>2022-07-19T10:35:40Z</time>
      </trkpt>
      <trkpt lat="44.32159" lon="6.87938">
        <ele>1672.4</ele>
        <time>2022-07-19T10:35:41Z</time>
      </trkpt>
      <trkpt lat="44.32159" lon="6.87935">
        <ele>1672.6</ele>
        <time>2022-07-19T10:35:42Z</time>
      </trkpt>
      <trkpt lat="44.32158" lon="6.87932">
        <ele>1672.6</ele>
        <time>2022-07-19T10:35:43Z</time>
      </trkpt>
      <trkpt lat="44.32158" lon="6.8793">
        <ele>1673</ele>
        <time>2022-07-19T10:35:44Z</time>
      </trkpt>
      <trkpt lat="44.32157" lon="6.87927">
        <ele>1673.2</ele>
        <time>2022-07-19T10:35:45Z</time>
      </trkpt>
      <trkpt lat="44.32156" lon="6.87925">
        <ele>1673.2</ele>
        <time>2022-07-19T10:35:46Z</time>
      </trkpt>
      <trkpt lat="44.32156" lon="6.87922">
        <ele>1673.4</ele>
        <time>2022-07-19T10:35:47Z</time>
      </trkpt>
      <trkpt lat="44.32155" lon="6.8792">
        <ele>1673.4</ele>
        <time>2022-07-19T10:35:48Z</time>
      </trkpt>
      <trkpt lat="44.32155" lon="6.87917">
        <ele>1673.6</ele>
        <time>2022-07-19T10:35:49Z</time>
      </trkpt>
      <trkpt lat="44.32154" lon="6.87915">
        <ele>1673.6</ele>
        <time>2022-07-19T10:35:50Z</time>
      </trkpt>
      <trkpt lat="44.32154" lon="6.87912">
        <ele>1674</ele>
        <time>2022-07-19T10:35:51Z</time>
      </trkpt>
      <trkpt lat="44.32154" lon="6.8791">
        <ele>1674</ele>
        <time>2022-07-19T10:35:52Z</time>
      </trkpt>
      <trkpt lat="44.32153" lon="6.87907">
        <ele>1674.2</ele>
        <time>2022-07-19T10:35:53Z</time>
      </trkpt>
      <trkpt lat="44.32153" lon="6.87905">
        <ele>1674.2</ele>
        <time>2022-07-19T10:35:54Z</time>
      </trkpt>
      <trkpt lat="44.32152" lon="6.87903">
        <ele>1674.4</ele>
        <time>2022-07-19T10:35:55Z</time>
      </trkpt>
      <trkpt lat="44.32152" lon="6.879">
        <ele>1674.4</ele>
        <time>2022-07-19T10:35:56Z</time>
      </trkpt>
      <trkpt lat="44.32151" lon="6.87898">
        <ele>1674.6</ele>
        <time>2022-07-19T10:35:57Z</time>
      </trkpt>
      <trkpt lat="44.3215" lon="6.87895">
        <ele>1674.6</ele>
        <time>2022-07-19T10:35:58Z</time>
      </trkpt>
      <trkpt lat="44.3215" lon="6.87893">
        <ele>1674.8</ele>
        <time>2022-07-19T10:35:59Z</time>
      </trkpt>
      <trkpt lat="44.32149" lon="6.87891">
        <ele>1674.8</ele>
        <time>2022-07-19T10:36:00Z</time>
      </trkpt>
      <trkpt lat="44.32149" lon="6.87888">
        <ele>1675.2</ele>
        <time>2022-07-19T10:36:01Z</time>
      </trkpt>
      <trkpt lat="44.32149" lon="6.87885">
        <ele>1675.2</ele>
        <time>2022-07-19T10:36:02Z</time>
      </trkpt>
      <trkpt lat="44.32149" lon="6.87883">
        <ele>1675.2</ele>
        <time>2022-07-19T10:36:03Z</time>
      </trkpt>
      <trkpt lat="44.32148" lon="6.87881">
        <ele>1675.2</ele>
        <time>2022-07-19T10:36:04Z</time>
      </trkpt>
      <trkpt lat="44.32147" lon="6.87878">
        <ele>1675.4</ele>
        <time>2022-07-19T10:36:05Z</time>
      </trkpt>
      <trkpt lat="44.32146" lon="6.87876">
        <ele>1675.4</ele>
        <time>2022-07-19T10:36:06Z</time>
      </trkpt>
      <trkpt lat="44.32145" lon="6.87874">
        <ele>1675.8</ele>
        <time>2022-07-19T10:36:07Z</time>
      </trkpt>
      <trkpt lat="44.32144" lon="6.87872">
        <ele>1675.8</ele>
        <time>2022-07-19T10:36:08Z</time>
      </trkpt>
      <trkpt lat="44.32143" lon="6.87869">
        <ele>1676</ele>
        <time>2022-07-19T10:36:09Z</time>
      </trkpt>
      <trkpt lat="44.32143" lon="6.87867">
        <ele>1676</ele>
        <time>2022-07-19T10:36:10Z</time>
      </trkpt>
      <trkpt lat="44.32142" lon="6.87864">
        <ele>1676.2</ele>
        <time>2022-07-19T10:36:11Z</time>
      </trkpt>
      <trkpt lat="44.32141" lon="6.87862">
        <ele>1676.2</ele>
        <time>2022-07-19T10:36:12Z</time>
      </trkpt>
      <trkpt lat="44.3214" lon="6.8786">
        <ele>1676.4</ele>
        <time>2022-07-19T10:36:13Z</time>
      </trkpt>
      <trkpt lat="44.32139" lon="6.87859">
        <ele>1676.4</ele>
        <time>2022-07-19T10:36:14Z</time>
      </trkpt>
      <trkpt lat="44.32138" lon="6.87857">
        <ele>1676.6</ele>
        <time>2022-07-19T10:36:15Z</time>
      </trkpt>
      <trkpt lat="44.32137" lon="6.87855">
        <ele>1676.6</ele>
        <time>2022-07-19T10:36:16Z</time>
      </trkpt>
      <trkpt lat="44.32136" lon="6.87853">
        <ele>1677</ele>
        <time>2022-07-19T10:36:17Z</time>
      </trkpt>
      <trkpt lat="44.32135" lon="6.87852">
        <ele>1677</ele>
        <time>2022-07-19T10:36:18Z</time>
      </trkpt>
      <trkpt lat="44.32134" lon="6.8785">
        <ele>1677.2</ele>
        <time>2022-07-19T10:36:19Z</time>
      </trkpt>
      <trkpt lat="44.32133" lon="6.87848">
        <ele>1677.2</ele>
        <time>2022-07-19T10:36:20Z</time>
      </trkpt>
      <trkpt lat="44.32132" lon="6.87846">
        <ele>1677.6</ele>
        <time>2022-07-19T10:36:21Z</time>
      </trkpt>
      <trkpt lat="44.32131" lon="6.87844">
        <ele>1677.6</ele>
        <time>2022-07-19T10:36:22Z</time>
      </trkpt>
      <trkpt lat="44.3213" lon="6.87842">
        <ele>1678</ele>
        <time>2022-07-19T10:36:23Z</time>
      </trkpt>
      <trkpt lat="44.3213" lon="6.8784">
        <ele>1678</ele>
        <time>2022-07-19T10:36:24Z</time>
      </trkpt>
      <trkpt lat="44.32129" lon="6.87837">
        <ele>1678.4</ele>
        <time>2022-07-19T10:36:25Z</time>
      </trkpt>
      <trkpt lat="44.32129" lon="6.87835">
        <ele>1678.4</ele>
        <time>2022-07-19T10:36:26Z</time>
      </trkpt>
      <trkpt lat="44.32128" lon="6.87833">
        <ele>1678.6</ele>
        <time>2022-07-19T10:36:27Z</time>
      </trkpt>
      <trkpt lat="44.32127" lon="6.87831">
        <ele>1678.6</ele>
        <time>2022-07-19T10:36:28Z</time>
      </trkpt>
      <trkpt lat="44.32126" lon="6.87829">
        <ele>1679</ele>
        <time>2022-07-19T10:36:29Z</time>
      </trkpt>
      <trkpt lat="44.32125" lon="6.87826">
        <ele>1679</ele>
        <time>2022-07-19T10:36:30Z</time>
      </trkpt>
      <trkpt lat="44.32124" lon="6.87823">
        <ele>1679.2</ele>
        <time>2022-07-19T10:36:31Z</time>
      </trkpt>
      <trkpt lat="44.32124" lon="6.87821">
        <ele>1679.2</ele>
        <time>2022-07-19T10:36:32Z</time>
      </trkpt>
      <trkpt lat="44.32123" lon="6.87818">
        <ele>1679.6</ele>
        <time>2022-07-19T10:36:33Z</time>
      </trkpt>
      <trkpt lat="44.32123" lon="6.87815">
        <ele>1679.6</ele>
        <time>2022-07-19T10:36:34Z</time>
      </trkpt>
      <trkpt lat="44.32122" lon="6.87813">
        <ele>1679.8</ele>
        <time>2022-07-19T10:36:35Z</time>
      </trkpt>
      <trkpt lat="44.32122" lon="6.8781">
        <ele>1679.8</ele>
        <time>2022-07-19T10:36:36Z</time>
      </trkpt>
      <trkpt lat="44.32121" lon="6.87807">
        <ele>1680</ele>
        <time>2022-07-19T10:36:37Z</time>
      </trkpt>
      <trkpt lat="44.32121" lon="6.87805">
        <ele>1680</ele>
        <time>2022-07-19T10:36:38Z</time>
      </trkpt>
      <trkpt lat="44.3212" lon="6.87802">
        <ele>1680.4</ele>
        <time>2022-07-19T10:36:39Z</time>
      </trkpt>
      <trkpt lat="44.3212" lon="6.87799">
        <ele>1680.4</ele>
        <time>2022-07-19T10:36:40Z</time>
      </trkpt>
      <trkpt lat="44.32119" lon="6.87797">
        <ele>1680.6</ele>
        <time>2022-07-19T10:36:41Z</time>
      </trkpt>
      <trkpt lat="44.32119" lon="6.87794">
        <ele>1680.6</ele>
        <time>2022-07-19T10:36:42Z</time>
      </trkpt>
      <trkpt lat="44.32118" lon="6.87791">
        <ele>1680.8</ele>
        <time>2022-07-19T10:36:43Z</time>
      </trkpt>
      <trkpt lat="44.32117" lon="6.87789">
        <ele>1680.8</ele>
        <time>2022-07-19T10:36:44Z</time>
      </trkpt>
      <trkpt lat="44.32116" lon="6.87786">
        <ele>1681.2</ele>
        <time>2022-07-19T10:36:45Z</time>
      </trkpt>
      <trkpt lat="44.32116" lon="6.87784">
        <ele>1681.2</ele>
        <time>2022-07-19T10:36:46Z</time>
      </trkpt>
      <trkpt lat="44.32115" lon="6.87782">
        <ele>1681.6</ele>
        <time>2022-07-19T10:36:47Z</time>
      </trkpt>
      <trkpt lat="44.32114" lon="6.87779">
        <ele>1681.6</ele>
        <time>2022-07-19T10:36:48Z</time>
      </trkpt>
      <trkpt lat="44.32114" lon="6.87777">
        <ele>1681.8</ele>
        <time>2022-07-19T10:36:49Z</time>
      </trkpt>
      <trkpt lat="44.32113" lon="6.87774">
        <ele>1681.8</ele>
        <time>2022-07-19T10:36:50Z</time>
      </trkpt>
      <trkpt lat="44.32112" lon="6.87772">
        <ele>1682</ele>
        <time>2022-07-19T10:36:51Z</time>
      </trkpt>
      <trkpt lat="44.32111" lon="6.8777">
        <ele>1682</ele>
        <time>2022-07-19T10:36:52Z</time>
      </trkpt>
      <trkpt lat="44.3211" lon="6.87768">
        <ele>1682.4</ele>
        <time>2022-07-19T10:36:53Z</time>
      </trkpt>
      <trkpt lat="44.32109" lon="6.87765">
        <ele>1682.4</ele>
        <time>2022-07-19T10:36:54Z</time>
      </trkpt>
      <trkpt lat="44.32108" lon="6.87763">
        <ele>1682.6</ele>
        <time>2022-07-19T10:36:55Z</time>
      </trkpt>
      <trkpt lat="44.32107" lon="6.87761">
        <ele>1682.6</ele>
        <time>2022-07-19T10:36:56Z</time>
      </trkpt>
      <trkpt lat="44.32105" lon="6.87759">
        <ele>1683</ele>
        <time>2022-07-19T10:36:57Z</time>
      </trkpt>
      <trkpt lat="44.32104" lon="6.87757">
        <ele>1683</ele>
        <time>2022-07-19T10:36:58Z</time>
      </trkpt>
      <trkpt lat="44.32103" lon="6.87755">
        <ele>1683.2</ele>
        <time>2022-07-19T10:36:59Z</time>
      </trkpt>
      <trkpt lat="44.32102" lon="6.87752">
        <ele>1683.2</ele>
        <time>2022-07-19T10:37:00Z</time>
      </trkpt>
      <trkpt lat="44.32101" lon="6.8775">
        <ele>1683.4</ele>
        <time>2022-07-19T10:37:01Z</time>
      </trkpt>
      <trkpt lat="44.321" lon="6.87748">
        <ele>1683.4</ele>
        <time>2022-07-19T10:37:02Z</time>
      </trkpt>
      <trkpt lat="44.32099" lon="6.87745">
        <ele>1683.8</ele>
        <time>2022-07-19T10:37:03Z</time>
      </trkpt>
      <trkpt lat="44.32098" lon="6.87743">
        <ele>1683.8</ele>
        <time>2022-07-19T10:37:04Z</time>
      </trkpt>
      <trkpt lat="44.32097" lon="6.87741">
        <ele>1684</ele>
        <time>2022-07-19T10:37:05Z</time>
      </trkpt>
      <trkpt lat="44.32096" lon="6.87739">
        <ele>1684</ele>
        <time>2022-07-19T10:37:06Z</time>
      </trkpt>
      <trkpt lat="44.32095" lon="6.87736">
        <ele>1684.4</ele>
        <time>2022-07-19T10:37:07Z</time>
      </trkpt>
      <trkpt lat="44.32093" lon="6.87734">
        <ele>1684.4</ele>
        <time>2022-07-19T10:37:08Z</time>
      </trkpt>
      <trkpt lat="44.32092" lon="6.87732">
        <ele>1684.6</ele>
        <time>2022-07-19T10:37:09Z</time>
      </trkpt>
      <trkpt lat="44.3209" lon="6.87731">
        <ele>1684.6</ele>
        <time>2022-07-19T10:37:10Z</time>
      </trkpt>
      <trkpt lat="44.32089" lon="6.87729">
        <ele>1684.8</ele>
        <time>2022-07-19T10:37:11Z</time>
      </trkpt>
      <trkpt lat="44.32088" lon="6.87727">
        <ele>1685</ele>
        <time>2022-07-19T10:37:12Z</time>
      </trkpt>
      <trkpt lat="44.32087" lon="6.87725">
        <ele>1685</ele>
        <time>2022-07-19T10:37:13Z</time>
      </trkpt>
      <trkpt lat="44.32086" lon="6.87722">
        <ele>1685.4</ele>
        <time>2022-07-19T10:37:14Z</time>
      </trkpt>
      <trkpt lat="44.32085" lon="6.8772">
        <ele>1685.4</ele>
        <time>2022-07-19T10:37:15Z</time>
      </trkpt>
      <trkpt lat="44.32084" lon="6.87717">
        <ele>1685.6</ele>
        <time>2022-07-19T10:37:16Z</time>
      </trkpt>
      <trkpt lat="44.32083" lon="6.87715">
        <ele>1685.6</ele>
        <time>2022-07-19T10:37:17Z</time>
      </trkpt>
      <trkpt lat="44.32082" lon="6.87712">
        <ele>1685.8</ele>
        <time>2022-07-19T10:37:18Z</time>
      </trkpt>
      <trkpt lat="44.32081" lon="6.8771">
        <ele>1685.8</ele>
        <time>2022-07-19T10:37:19Z</time>
      </trkpt>
      <trkpt lat="44.3208" lon="6.87708">
        <ele>1686.2</ele>
        <time>2022-07-19T10:37:20Z</time>
      </trkpt>
      <trkpt lat="44.32079" lon="6.87706">
        <ele>1686.2</ele>
        <time>2022-07-19T10:37:21Z</time>
      </trkpt>
      <trkpt lat="44.32078" lon="6.87703">
        <ele>1686.4</ele>
        <time>2022-07-19T10:37:22Z</time>
      </trkpt>
      <trkpt lat="44.32077" lon="6.87701">
        <ele>1686.4</ele>
        <time>2022-07-19T10:37:23Z</time>
      </trkpt>
      <trkpt lat="44.32076" lon="6.87699">
        <ele>1686.6</ele>
        <time>2022-07-19T10:37:24Z</time>
      </trkpt>
      <trkpt lat="44.32075" lon="6.87696">
        <ele>1686.6</ele>
        <time>2022-07-19T10:37:25Z</time>
      </trkpt>
      <trkpt lat="44.32075" lon="6.87693">
        <ele>1687</ele>
        <time>2022-07-19T10:37:26Z</time>
      </trkpt>
      <trkpt lat="44.32075" lon="6.87691">
        <ele>1687</ele>
        <time>2022-07-19T10:37:27Z</time>
      </trkpt>
      <trkpt lat="44.32074" lon="6.87688">
        <ele>1687.4</ele>
        <time>2022-07-19T10:37:28Z</time>
      </trkpt>
      <trkpt lat="44.32074" lon="6.87685">
        <ele>1687.4</ele>
        <time>2022-07-19T10:37:29Z</time>
      </trkpt>
      <trkpt lat="44.32073" lon="6.87683">
        <ele>1687.6</ele>
        <time>2022-07-19T10:37:30Z</time>
      </trkpt>
      <trkpt lat="44.32073" lon="6.8768">
        <ele>1687.6</ele>
        <time>2022-07-19T10:37:31Z</time>
      </trkpt>
      <trkpt lat="44.32072" lon="6.87678">
        <ele>1688</ele>
        <time>2022-07-19T10:37:32Z</time>
      </trkpt>
      <trkpt lat="44.32072" lon="6.87675">
        <ele>1688</ele>
        <time>2022-07-19T10:37:33Z</time>
      </trkpt>
      <trkpt lat="44.32073" lon="6.87672">
        <ele>1688.2</ele>
        <time>2022-07-19T10:37:34Z</time>
      </trkpt>
      <trkpt lat="44.32073" lon="6.87669">
        <ele>1688.2</ele>
        <time>2022-07-19T10:37:35Z</time>
      </trkpt>
      <trkpt lat="44.32073" lon="6.87667">
        <ele>1688.4</ele>
        <time>2022-07-19T10:37:36Z</time>
      </trkpt>
      <trkpt lat="44.32072" lon="6.87664">
        <ele>1688.4</ele>
        <time>2022-07-19T10:37:37Z</time>
      </trkpt>
      <trkpt lat="44.32071" lon="6.87661">
        <ele>1688.8</ele>
        <time>2022-07-19T10:37:38Z</time>
      </trkpt>
      <trkpt lat="44.32071" lon="6.87659">
        <ele>1688.8</ele>
        <time>2022-07-19T10:37:39Z</time>
      </trkpt>
      <trkpt lat="44.32071" lon="6.87656">
        <ele>1689</ele>
        <time>2022-07-19T10:37:40Z</time>
      </trkpt>
      <trkpt lat="44.3207" lon="6.87654">
        <ele>1689</ele>
        <time>2022-07-19T10:37:41Z</time>
      </trkpt>
      <trkpt lat="44.3207" lon="6.87651">
        <ele>1689.4</ele>
        <time>2022-07-19T10:37:42Z</time>
      </trkpt>
      <trkpt lat="44.32069" lon="6.87649">
        <ele>1689.4</ele>
        <time>2022-07-19T10:37:43Z</time>
      </trkpt>
      <trkpt lat="44.32068" lon="6.87646">
        <ele>1689.6</ele>
        <time>2022-07-19T10:37:44Z</time>
      </trkpt>
      <trkpt lat="44.32067" lon="6.87644">
        <ele>1689.6</ele>
        <time>2022-07-19T10:37:45Z</time>
      </trkpt>
      <trkpt lat="44.32066" lon="6.87642">
        <ele>1690</ele>
        <time>2022-07-19T10:37:46Z</time>
      </trkpt>
      <trkpt lat="44.32066" lon="6.8764">
        <ele>1690</ele>
        <time>2022-07-19T10:37:47Z</time>
      </trkpt>
      <trkpt lat="44.32065" lon="6.87637">
        <ele>1690.2</ele>
        <time>2022-07-19T10:37:48Z</time>
      </trkpt>
      <trkpt lat="44.32064" lon="6.87635">
        <ele>1690.2</ele>
        <time>2022-07-19T10:37:49Z</time>
      </trkpt>
      <trkpt lat="44.32063" lon="6.87633">
        <ele>1690.6</ele>
        <time>2022-07-19T10:37:50Z</time>
      </trkpt>
      <trkpt lat="44.32062" lon="6.8763">
        <ele>1690.6</ele>
        <time>2022-07-19T10:37:51Z</time>
      </trkpt>
      <trkpt lat="44.32062" lon="6.87628">
        <ele>1690.8</ele>
        <time>2022-07-19T10:37:52Z</time>
      </trkpt>
      <trkpt lat="44.3206" lon="6.87626">
        <ele>1690.8</ele>
        <time>2022-07-19T10:37:53Z</time>
      </trkpt>
      <trkpt lat="44.3206" lon="6.87623">
        <ele>1691.2</ele>
        <time>2022-07-19T10:37:54Z</time>
      </trkpt>
      <trkpt lat="44.32059" lon="6.87621">
        <ele>1691.2</ele>
        <time>2022-07-19T10:37:55Z</time>
      </trkpt>
      <trkpt lat="44.32058" lon="6.87618">
        <ele>1691.4</ele>
        <time>2022-07-19T10:37:56Z</time>
      </trkpt>
      <trkpt lat="44.32057" lon="6.87616">
        <ele>1691.4</ele>
        <time>2022-07-19T10:37:57Z</time>
      </trkpt>
      <trkpt lat="44.32056" lon="6.87613">
        <ele>1691.8</ele>
        <time>2022-07-19T10:37:58Z</time>
      </trkpt>
      <trkpt lat="44.32055" lon="6.87611">
        <ele>1692</ele>
        <time>2022-07-19T10:37:59Z</time>
      </trkpt>
      <trkpt lat="44.32055" lon="6.87608">
        <ele>1692</ele>
        <time>2022-07-19T10:38:00Z</time>
      </trkpt>
      <trkpt lat="44.32054" lon="6.87606">
        <ele>1692.2</ele>
        <time>2022-07-19T10:38:01Z</time>
      </trkpt>
      <trkpt lat="44.32053" lon="6.87603">
        <ele>1692.2</ele>
        <time>2022-07-19T10:38:02Z</time>
      </trkpt>
      <trkpt lat="44.32052" lon="6.87601">
        <ele>1692.4</ele>
        <time>2022-07-19T10:38:03Z</time>
      </trkpt>
      <trkpt lat="44.32052" lon="6.87598">
        <ele>1692.4</ele>
        <time>2022-07-19T10:38:04Z</time>
      </trkpt>
      <trkpt lat="44.32051" lon="6.87596">
        <ele>1692.8</ele>
        <time>2022-07-19T10:38:05Z</time>
      </trkpt>
      <trkpt lat="44.3205" lon="6.87593">
        <ele>1692.8</ele>
        <time>2022-07-19T10:38:06Z</time>
      </trkpt>
      <trkpt lat="44.3205" lon="6.87591">
        <ele>1693</ele>
        <time>2022-07-19T10:38:07Z</time>
      </trkpt>
      <trkpt lat="44.32049" lon="6.87589">
        <ele>1693</ele>
        <time>2022-07-19T10:38:08Z</time>
      </trkpt>
      <trkpt lat="44.32048" lon="6.87586">
        <ele>1693.4</ele>
        <time>2022-07-19T10:38:09Z</time>
      </trkpt>
      <trkpt lat="44.32047" lon="6.87583">
        <ele>1693.4</ele>
        <time>2022-07-19T10:38:10Z</time>
      </trkpt>
      <trkpt lat="44.32047" lon="6.87581">
        <ele>1693.8</ele>
        <time>2022-07-19T10:38:11Z</time>
      </trkpt>
      <trkpt lat="44.32046" lon="6.87578">
        <ele>1693.8</ele>
        <time>2022-07-19T10:38:12Z</time>
      </trkpt>
      <trkpt lat="44.32046" lon="6.87576">
        <ele>1694</ele>
        <time>2022-07-19T10:38:13Z</time>
      </trkpt>
      <trkpt lat="44.32045" lon="6.87573">
        <ele>1694</ele>
        <time>2022-07-19T10:38:14Z</time>
      </trkpt>
      <trkpt lat="44.32044" lon="6.87571">
        <ele>1694.4</ele>
        <time>2022-07-19T10:38:15Z</time>
      </trkpt>
      <trkpt lat="44.32044" lon="6.87568">
        <ele>1694.4</ele>
        <time>2022-07-19T10:38:16Z</time>
      </trkpt>
      <trkpt lat="44.32043" lon="6.87565">
        <ele>1694.6</ele>
        <time>2022-07-19T10:38:17Z</time>
      </trkpt>
      <trkpt lat="44.32043" lon="6.87562">
        <ele>1694.8</ele>
        <time>2022-07-19T10:38:18Z</time>
      </trkpt>
      <trkpt lat="44.32042" lon="6.8756">
        <ele>1694.8</ele>
        <time>2022-07-19T10:38:19Z</time>
      </trkpt>
      <trkpt lat="44.32042" lon="6.87557">
        <ele>1695.2</ele>
        <time>2022-07-19T10:38:20Z</time>
      </trkpt>
      <trkpt lat="44.32041" lon="6.87554">
        <ele>1695.2</ele>
        <time>2022-07-19T10:38:21Z</time>
      </trkpt>
      <trkpt lat="44.32041" lon="6.87552">
        <ele>1695.6</ele>
        <time>2022-07-19T10:38:22Z</time>
      </trkpt>
      <trkpt lat="44.3204" lon="6.87549">
        <ele>1695.6</ele>
        <time>2022-07-19T10:38:23Z</time>
      </trkpt>
      <trkpt lat="44.3204" lon="6.87546">
        <ele>1695.8</ele>
        <time>2022-07-19T10:38:24Z</time>
      </trkpt>
      <trkpt lat="44.32039" lon="6.87544">
        <ele>1695.8</ele>
        <time>2022-07-19T10:38:25Z</time>
      </trkpt>
      <trkpt lat="44.32039" lon="6.87541">
        <ele>1696</ele>
        <time>2022-07-19T10:38:26Z</time>
      </trkpt>
      <trkpt lat="44.32038" lon="6.87539">
        <ele>1696</ele>
        <time>2022-07-19T10:38:27Z</time>
      </trkpt>
      <trkpt lat="44.32037" lon="6.87537">
        <ele>1696.4</ele>
        <time>2022-07-19T10:38:28Z</time>
      </trkpt>
      <trkpt lat="44.32036" lon="6.87535">
        <ele>1696.4</ele>
        <time>2022-07-19T10:38:29Z</time>
      </trkpt>
      <trkpt lat="44.32035" lon="6.87532">
        <ele>1696.6</ele>
        <time>2022-07-19T10:38:30Z</time>
      </trkpt>
      <trkpt lat="44.32034" lon="6.8753">
        <ele>1696.6</ele>
        <time>2022-07-19T10:38:31Z</time>
      </trkpt>
      <trkpt lat="44.32033" lon="6.87528">
        <ele>1697</ele>
        <time>2022-07-19T10:38:32Z</time>
      </trkpt>
      <trkpt lat="44.32032" lon="6.87525">
        <ele>1697</ele>
        <time>2022-07-19T10:38:33Z</time>
      </trkpt>
      <trkpt lat="44.32031" lon="6.87523">
        <ele>1697.2</ele>
        <time>2022-07-19T10:38:34Z</time>
      </trkpt>
      <trkpt lat="44.3203" lon="6.87521">
        <ele>1697.2</ele>
        <time>2022-07-19T10:38:35Z</time>
      </trkpt>
      <trkpt lat="44.32029" lon="6.87518">
        <ele>1697.4</ele>
        <time>2022-07-19T10:38:36Z</time>
      </trkpt>
      <trkpt lat="44.32028" lon="6.87516">
        <ele>1697.4</ele>
        <time>2022-07-19T10:38:37Z</time>
      </trkpt>
      <trkpt lat="44.32027" lon="6.87514">
        <ele>1697.8</ele>
        <time>2022-07-19T10:38:38Z</time>
      </trkpt>
      <trkpt lat="44.32026" lon="6.87512">
        <ele>1697.8</ele>
        <time>2022-07-19T10:38:39Z</time>
      </trkpt>
      <trkpt lat="44.32025" lon="6.87509">
        <ele>1698</ele>
        <time>2022-07-19T10:38:40Z</time>
      </trkpt>
      <trkpt lat="44.32023" lon="6.87507">
        <ele>1698</ele>
        <time>2022-07-19T10:38:41Z</time>
      </trkpt>
      <trkpt lat="44.32023" lon="6.87504">
        <ele>1698.4</ele>
        <time>2022-07-19T10:38:42Z</time>
      </trkpt>
      <trkpt lat="44.32022" lon="6.87502">
        <ele>1698.4</ele>
        <time>2022-07-19T10:38:43Z</time>
      </trkpt>
      <trkpt lat="44.32021" lon="6.875">
        <ele>1698.6</ele>
        <time>2022-07-19T10:38:44Z</time>
      </trkpt>
      <trkpt lat="44.3202" lon="6.87498">
        <ele>1698.6</ele>
        <time>2022-07-19T10:38:45Z</time>
      </trkpt>
      <trkpt lat="44.32018" lon="6.87496">
        <ele>1699</ele>
        <time>2022-07-19T10:38:46Z</time>
      </trkpt>
      <trkpt lat="44.32017" lon="6.87494">
        <ele>1699.2</ele>
        <time>2022-07-19T10:38:47Z</time>
      </trkpt>
      <trkpt lat="44.32016" lon="6.87492">
        <ele>1699.2</ele>
        <time>2022-07-19T10:38:48Z</time>
      </trkpt>
      <trkpt lat="44.32015" lon="6.8749">
        <ele>1699.6</ele>
        <time>2022-07-19T10:38:49Z</time>
      </trkpt>
      <trkpt lat="44.32014" lon="6.87488">
        <ele>1699.6</ele>
        <time>2022-07-19T10:38:50Z</time>
      </trkpt>
      <trkpt lat="44.32013" lon="6.87486">
        <ele>1700</ele>
        <time>2022-07-19T10:38:51Z</time>
      </trkpt>
      <trkpt lat="44.32012" lon="6.87483">
        <ele>1700</ele>
        <time>2022-07-19T10:38:52Z</time>
      </trkpt>
      <trkpt lat="44.32012" lon="6.87481">
        <ele>1700.2</ele>
        <time>2022-07-19T10:38:53Z</time>
      </trkpt>
      <trkpt lat="44.32011" lon="6.87479">
        <ele>1700.4</ele>
        <time>2022-07-19T10:38:54Z</time>
      </trkpt>
      <trkpt lat="44.3201" lon="6.87477">
        <ele>1700.4</ele>
        <time>2022-07-19T10:38:55Z</time>
      </trkpt>
      <trkpt lat="44.3201" lon="6.87474">
        <ele>1700.8</ele>
        <time>2022-07-19T10:38:56Z</time>
      </trkpt>
      <trkpt lat="44.3201" lon="6.87472">
        <ele>1701</ele>
        <time>2022-07-19T10:38:57Z</time>
      </trkpt>
      <trkpt lat="44.32009" lon="6.87469">
        <ele>1701</ele>
        <time>2022-07-19T10:38:58Z</time>
      </trkpt>
      <trkpt lat="44.32008" lon="6.87467">
        <ele>1701.2</ele>
        <time>2022-07-19T10:38:59Z</time>
      </trkpt>
      <trkpt lat="44.32008" lon="6.87464">
        <ele>1701.2</ele>
        <time>2022-07-19T10:39:00Z</time>
      </trkpt>
      <trkpt lat="44.32008" lon="6.87462">
        <ele>1701.6</ele>
        <time>2022-07-19T10:39:01Z</time>
      </trkpt>
      <trkpt lat="44.32007" lon="6.8746">
        <ele>1701.8</ele>
        <time>2022-07-19T10:39:02Z</time>
      </trkpt>
      <trkpt lat="44.32007" lon="6.87457">
        <ele>1701.8</ele>
        <time>2022-07-19T10:39:03Z</time>
      </trkpt>
      <trkpt lat="44.32007" lon="6.87455">
        <ele>1702</ele>
        <time>2022-07-19T10:39:04Z</time>
      </trkpt>
      <trkpt lat="44.32007" lon="6.87453">
        <ele>1702</ele>
        <time>2022-07-19T10:39:05Z</time>
      </trkpt>
      <trkpt lat="44.32007" lon="6.87451">
        <ele>1702.4</ele>
        <time>2022-07-19T10:39:06Z</time>
      </trkpt>
      <trkpt lat="44.32007" lon="6.87448">
        <ele>1702.4</ele>
        <time>2022-07-19T10:39:07Z</time>
      </trkpt>
      <trkpt lat="44.32006" lon="6.87446">
        <ele>1702.6</ele>
        <time>2022-07-19T10:39:08Z</time>
      </trkpt>
      <trkpt lat="44.32006" lon="6.87443">
        <ele>1702.6</ele>
        <time>2022-07-19T10:39:09Z</time>
      </trkpt>
      <trkpt lat="44.32005" lon="6.87441">
        <ele>1703</ele>
        <time>2022-07-19T10:39:10Z</time>
      </trkpt>
      <trkpt lat="44.32005" lon="6.87439">
        <ele>1703</ele>
        <time>2022-07-19T10:39:11Z</time>
      </trkpt>
      <trkpt lat="44.32005" lon="6.87437">
        <ele>1703.2</ele>
        <time>2022-07-19T10:39:12Z</time>
      </trkpt>
      <trkpt lat="44.32005" lon="6.87434">
        <ele>1703.2</ele>
        <time>2022-07-19T10:39:13Z</time>
      </trkpt>
      <trkpt lat="44.32005" lon="6.87432">
        <ele>1703.4</ele>
        <time>2022-07-19T10:39:14Z</time>
      </trkpt>
      <trkpt lat="44.32005" lon="6.87429">
        <ele>1703.4</ele>
        <time>2022-07-19T10:39:15Z</time>
      </trkpt>
      <trkpt lat="44.32005" lon="6.87427">
        <ele>1703.4</ele>
        <time>2022-07-19T10:39:16Z</time>
      </trkpt>
      <trkpt lat="44.32005" lon="6.87424">
        <ele>1703.8</ele>
        <time>2022-07-19T10:39:17Z</time>
      </trkpt>
      <trkpt lat="44.32004" lon="6.87422">
        <ele>1703.8</ele>
        <time>2022-07-19T10:39:18Z</time>
      </trkpt>
      <trkpt lat="44.32004" lon="6.8742">
        <ele>1704.2</ele>
        <time>2022-07-19T10:39:19Z</time>
      </trkpt>
      <trkpt lat="44.32003" lon="6.87418">
        <ele>1704.2</ele>
        <time>2022-07-19T10:39:20Z</time>
      </trkpt>
      <trkpt lat="44.32003" lon="6.87415">
        <ele>1704.4</ele>
        <time>2022-07-19T10:39:21Z</time>
      </trkpt>
      <trkpt lat="44.32002" lon="6.87413">
        <ele>1704.4</ele>
        <time>2022-07-19T10:39:22Z</time>
      </trkpt>
      <trkpt lat="44.32002" lon="6.8741">
        <ele>1704.8</ele>
        <time>2022-07-19T10:39:23Z</time>
      </trkpt>
      <trkpt lat="44.32002" lon="6.87408">
        <ele>1704.8</ele>
        <time>2022-07-19T10:39:24Z</time>
      </trkpt>
      <trkpt lat="44.32002" lon="6.87405">
        <ele>1705</ele>
        <time>2022-07-19T10:39:25Z</time>
      </trkpt>
      <trkpt lat="44.32001" lon="6.87403">
        <ele>1705</ele>
        <time>2022-07-19T10:39:26Z</time>
      </trkpt>
      <trkpt lat="44.32001" lon="6.874">
        <ele>1705.4</ele>
        <time>2022-07-19T10:39:27Z</time>
      </trkpt>
      <trkpt lat="44.32001" lon="6.87398">
        <ele>1705.4</ele>
        <time>2022-07-19T10:39:28Z</time>
      </trkpt>
      <trkpt lat="44.32" lon="6.87395">
        <ele>1705.8</ele>
        <time>2022-07-19T10:39:29Z</time>
      </trkpt>
      <trkpt lat="44.32" lon="6.87393">
        <ele>1705.8</ele>
        <time>2022-07-19T10:39:30Z</time>
      </trkpt>
      <trkpt lat="44.32" lon="6.87391">
        <ele>1706</ele>
        <time>2022-07-19T10:39:31Z</time>
      </trkpt>
      <trkpt lat="44.31999" lon="6.87388">
        <ele>1706</ele>
        <time>2022-07-19T10:39:32Z</time>
      </trkpt>
      <trkpt lat="44.31999" lon="6.87386">
        <ele>1706.4</ele>
        <time>2022-07-19T10:39:33Z</time>
      </trkpt>
      <trkpt lat="44.31998" lon="6.87383">
        <ele>1706.4</ele>
        <time>2022-07-19T10:39:34Z</time>
      </trkpt>
      <trkpt lat="44.31998" lon="6.87381">
        <ele>1706.6</ele>
        <time>2022-07-19T10:39:35Z</time>
      </trkpt>
      <trkpt lat="44.31997" lon="6.87379">
        <ele>1706.6</ele>
        <time>2022-07-19T10:39:36Z</time>
      </trkpt>
      <trkpt lat="44.31997" lon="6.87376">
        <ele>1706.8</ele>
        <time>2022-07-19T10:39:37Z</time>
      </trkpt>
      <trkpt lat="44.31996" lon="6.87373">
        <ele>1706.8</ele>
        <time>2022-07-19T10:39:38Z</time>
      </trkpt>
      <trkpt lat="44.31996" lon="6.87371">
        <ele>1707.2</ele>
        <time>2022-07-19T10:39:39Z</time>
      </trkpt>
      <trkpt lat="44.31995" lon="6.87369">
        <ele>1707.2</ele>
        <time>2022-07-19T10:39:40Z</time>
      </trkpt>
      <trkpt lat="44.31995" lon="6.87366">
        <ele>1707.2</ele>
        <time>2022-07-19T10:39:41Z</time>
      </trkpt>
      <trkpt lat="44.31994" lon="6.87364">
        <ele>1707.4</ele>
        <time>2022-07-19T10:39:42Z</time>
      </trkpt>
      <trkpt lat="44.31994" lon="6.87361">
        <ele>1707.4</ele>
        <time>2022-07-19T10:39:43Z</time>
      </trkpt>
      <trkpt lat="44.31994" lon="6.87359">
        <ele>1707.6</ele>
        <time>2022-07-19T10:39:44Z</time>
      </trkpt>
      <trkpt lat="44.31994" lon="6.87357">
        <ele>1707.6</ele>
        <time>2022-07-19T10:39:45Z</time>
      </trkpt>
      <trkpt lat="44.31993" lon="6.87355">
        <ele>1707.8</ele>
        <time>2022-07-19T10:39:46Z</time>
      </trkpt>
      <trkpt lat="44.31993" lon="6.87353">
        <ele>1707.8</ele>
        <time>2022-07-19T10:39:47Z</time>
      </trkpt>
      <trkpt lat="44.31992" lon="6.87351">
        <ele>1707.8</ele>
        <time>2022-07-19T10:39:48Z</time>
      </trkpt>
      <trkpt lat="44.31992" lon="6.87348">
        <ele>1708</ele>
        <time>2022-07-19T10:39:49Z</time>
      </trkpt>
      <trkpt lat="44.31992" lon="6.87346">
        <ele>1708</ele>
        <time>2022-07-19T10:39:50Z</time>
      </trkpt>
      <trkpt lat="44.31992" lon="6.87343">
        <ele>1708.2</ele>
        <time>2022-07-19T10:39:51Z</time>
      </trkpt>
      <trkpt lat="44.31991" lon="6.87341">
        <ele>1708.2</ele>
        <time>2022-07-19T10:39:52Z</time>
      </trkpt>
      <trkpt lat="44.31991" lon="6.87338">
        <ele>1708.6</ele>
        <time>2022-07-19T10:39:53Z</time>
      </trkpt>
      <trkpt lat="44.31991" lon="6.87336">
        <ele>1708.6</ele>
        <time>2022-07-19T10:39:54Z</time>
      </trkpt>
      <trkpt lat="44.31991" lon="6.87333">
        <ele>1709</ele>
        <time>2022-07-19T10:39:55Z</time>
      </trkpt>
      <trkpt lat="44.3199" lon="6.87331">
        <ele>1709</ele>
        <time>2022-07-19T10:39:56Z</time>
      </trkpt>
      <trkpt lat="44.3199" lon="6.87328">
        <ele>1709.2</ele>
        <time>2022-07-19T10:39:57Z</time>
      </trkpt>
      <trkpt lat="44.3199" lon="6.87326">
        <ele>1709.2</ele>
        <time>2022-07-19T10:39:58Z</time>
      </trkpt>
      <trkpt lat="44.31989" lon="6.87323">
        <ele>1709.6</ele>
        <time>2022-07-19T10:40:00Z</time>
      </trkpt>
      <trkpt lat="44.31989" lon="6.87321">
        <ele>1709.8</ele>
        <time>2022-07-19T10:40:01Z</time>
      </trkpt>
      <trkpt lat="44.31989" lon="6.87318">
        <ele>1709.8</ele>
        <time>2022-07-19T10:40:02Z</time>
      </trkpt>
      <trkpt lat="44.31988" lon="6.87315">
        <ele>1710</ele>
        <time>2022-07-19T10:40:03Z</time>
      </trkpt>
      <trkpt lat="44.31988" lon="6.87313">
        <ele>1710</ele>
        <time>2022-07-19T10:40:04Z</time>
      </trkpt>
      <trkpt lat="44.31988" lon="6.87311">
        <ele>1710.6</ele>
        <time>2022-07-19T10:40:05Z</time>
      </trkpt>
      <trkpt lat="44.31987" lon="6.87308">
        <ele>1710.8</ele>
        <time>2022-07-19T10:40:06Z</time>
      </trkpt>
      <trkpt lat="44.31987" lon="6.87306">
        <ele>1710.8</ele>
        <time>2022-07-19T10:40:07Z</time>
      </trkpt>
      <trkpt lat="44.31986" lon="6.87303">
        <ele>1711</ele>
        <time>2022-07-19T10:40:08Z</time>
      </trkpt>
      <trkpt lat="44.31985" lon="6.873">
        <ele>1711</ele>
        <time>2022-07-19T10:40:09Z</time>
      </trkpt>
      <trkpt lat="44.31985" lon="6.87298">
        <ele>1711.4</ele>
        <time>2022-07-19T10:40:10Z</time>
      </trkpt>
      <trkpt lat="44.31985" lon="6.87295">
        <ele>1711.4</ele>
        <time>2022-07-19T10:40:11Z</time>
      </trkpt>
      <trkpt lat="44.31985" lon="6.87293">
        <ele>1711.8</ele>
        <time>2022-07-19T10:40:12Z</time>
      </trkpt>
      <trkpt lat="44.31985" lon="6.8729">
        <ele>1711.8</ele>
        <time>2022-07-19T10:40:13Z</time>
      </trkpt>
      <trkpt lat="44.31984" lon="6.87288">
        <ele>1712</ele>
        <time>2022-07-19T10:40:14Z</time>
      </trkpt>
      <trkpt lat="44.31984" lon="6.87285">
        <ele>1712.4</ele>
        <time>2022-07-19T10:40:15Z</time>
      </trkpt>
      <trkpt lat="44.31983" lon="6.87282">
        <ele>1712.4</ele>
        <time>2022-07-19T10:40:16Z</time>
      </trkpt>
      <trkpt lat="44.31983" lon="6.8728">
        <ele>1712.4</ele>
        <time>2022-07-19T10:40:17Z</time>
      </trkpt>
      <trkpt lat="44.31983" lon="6.87277">
        <ele>1712.6</ele>
        <time>2022-07-19T10:40:18Z</time>
      </trkpt>
      <trkpt lat="44.31983" lon="6.87275">
        <ele>1712.6</ele>
        <time>2022-07-19T10:40:19Z</time>
      </trkpt>
      <trkpt lat="44.31982" lon="6.87272">
        <ele>1712.8</ele>
        <time>2022-07-19T10:40:20Z</time>
      </trkpt>
      <trkpt lat="44.31982" lon="6.8727">
        <ele>1712.8</ele>
        <time>2022-07-19T10:40:21Z</time>
      </trkpt>
      <trkpt lat="44.31981" lon="6.87267">
        <ele>1713.2</ele>
        <time>2022-07-19T10:40:22Z</time>
      </trkpt>
      <trkpt lat="44.31981" lon="6.87264">
        <ele>1713.2</ele>
        <time>2022-07-19T10:40:23Z</time>
      </trkpt>
      <trkpt lat="44.31981" lon="6.87262">
        <ele>1713.4</ele>
        <time>2022-07-19T10:40:24Z</time>
      </trkpt>
      <trkpt lat="44.3198" lon="6.87259">
        <ele>1713.4</ele>
        <time>2022-07-19T10:40:25Z</time>
      </trkpt>
      <trkpt lat="44.3198" lon="6.87257">
        <ele>1713.6</ele>
        <time>2022-07-19T10:40:26Z</time>
      </trkpt>
      <trkpt lat="44.31979" lon="6.87254">
        <ele>1713.6</ele>
        <time>2022-07-19T10:40:27Z</time>
      </trkpt>
      <trkpt lat="44.31979" lon="6.87252">
        <ele>1713.8</ele>
        <time>2022-07-19T10:40:28Z</time>
      </trkpt>
      <trkpt lat="44.31979" lon="6.87249">
        <ele>1713.8</ele>
        <time>2022-07-19T10:40:29Z</time>
      </trkpt>
      <trkpt lat="44.31978" lon="6.87247">
        <ele>1714.2</ele>
        <time>2022-07-19T10:40:30Z</time>
      </trkpt>
      <trkpt lat="44.31978" lon="6.87245">
        <ele>1714.4</ele>
        <time>2022-07-19T10:40:31Z</time>
      </trkpt>
      <trkpt lat="44.31978" lon="6.87242">
        <ele>1714.4</ele>
        <time>2022-07-19T10:40:32Z</time>
      </trkpt>
      <trkpt lat="44.31978" lon="6.8724">
        <ele>1714.6</ele>
        <time>2022-07-19T10:40:33Z</time>
      </trkpt>
      <trkpt lat="44.31977" lon="6.87238">
        <ele>1714.6</ele>
        <time>2022-07-19T10:40:34Z</time>
      </trkpt>
      <trkpt lat="44.31977" lon="6.87235">
        <ele>1715</ele>
        <time>2022-07-19T10:40:35Z</time>
      </trkpt>
      <trkpt lat="44.31977" lon="6.87233">
        <ele>1715</ele>
        <time>2022-07-19T10:40:36Z</time>
      </trkpt>
      <trkpt lat="44.31977" lon="6.87231">
        <ele>1715.2</ele>
        <time>2022-07-19T10:40:37Z</time>
      </trkpt>
      <trkpt lat="44.31977" lon="6.87228">
        <ele>1715.2</ele>
        <time>2022-07-19T10:40:38Z</time>
      </trkpt>
      <trkpt lat="44.31976" lon="6.87226">
        <ele>1715.6</ele>
        <time>2022-07-19T10:40:39Z</time>
      </trkpt>
      <trkpt lat="44.31976" lon="6.87224">
        <ele>1715.6</ele>
        <time>2022-07-19T10:40:40Z</time>
      </trkpt>
      <trkpt lat="44.31976" lon="6.87221">
        <ele>1716</ele>
        <time>2022-07-19T10:40:41Z</time>
      </trkpt>
      <trkpt lat="44.31976" lon="6.87219">
        <ele>1716</ele>
        <time>2022-07-19T10:40:42Z</time>
      </trkpt>
      <trkpt lat="44.31976" lon="6.87216">
        <ele>1716.2</ele>
        <time>2022-07-19T10:40:43Z</time>
      </trkpt>
      <trkpt lat="44.31975" lon="6.87214">
        <ele>1716.2</ele>
        <time>2022-07-19T10:40:44Z</time>
      </trkpt>
      <trkpt lat="44.31975" lon="6.87211">
        <ele>1716.6</ele>
        <time>2022-07-19T10:40:45Z</time>
      </trkpt>
      <trkpt lat="44.31975" lon="6.87209">
        <ele>1716.6</ele>
        <time>2022-07-19T10:40:46Z</time>
      </trkpt>
      <trkpt lat="44.31975" lon="6.87206">
        <ele>1716.8</ele>
        <time>2022-07-19T10:40:47Z</time>
      </trkpt>
      <trkpt lat="44.31975" lon="6.87203">
        <ele>1716.8</ele>
        <time>2022-07-19T10:40:48Z</time>
      </trkpt>
      <trkpt lat="44.31975" lon="6.87201">
        <ele>1717</ele>
        <time>2022-07-19T10:40:49Z</time>
      </trkpt>
      <trkpt lat="44.31975" lon="6.87198">
        <ele>1717</ele>
        <time>2022-07-19T10:40:50Z</time>
      </trkpt>
      <trkpt lat="44.31975" lon="6.87195">
        <ele>1717.4</ele>
        <time>2022-07-19T10:40:51Z</time>
      </trkpt>
      <trkpt lat="44.31975" lon="6.87193">
        <ele>1717.4</ele>
        <time>2022-07-19T10:40:52Z</time>
      </trkpt>
      <trkpt lat="44.31975" lon="6.8719">
        <ele>1717.6</ele>
        <time>2022-07-19T10:40:53Z</time>
      </trkpt>
      <trkpt lat="44.31974" lon="6.87187">
        <ele>1717.6</ele>
        <time>2022-07-19T10:40:54Z</time>
      </trkpt>
      <trkpt lat="44.31974" lon="6.87184">
        <ele>1717.8</ele>
        <time>2022-07-19T10:40:55Z</time>
      </trkpt>
      <trkpt lat="44.31974" lon="6.87181">
        <ele>1717.8</ele>
        <time>2022-07-19T10:40:56Z</time>
      </trkpt>
      <trkpt lat="44.31974" lon="6.87179">
        <ele>1718.2</ele>
        <time>2022-07-19T10:40:57Z</time>
      </trkpt>
      <trkpt lat="44.31974" lon="6.87176">
        <ele>1718.2</ele>
        <time>2022-07-19T10:40:58Z</time>
      </trkpt>
      <trkpt lat="44.31973" lon="6.87174">
        <ele>1718.4</ele>
        <time>2022-07-19T10:40:59Z</time>
      </trkpt>
      <trkpt lat="44.31973" lon="6.87171">
        <ele>1718.4</ele>
        <time>2022-07-19T10:41:00Z</time>
      </trkpt>
      <trkpt lat="44.31972" lon="6.87169">
        <ele>1718.6</ele>
        <time>2022-07-19T10:41:01Z</time>
      </trkpt>
      <trkpt lat="44.31972" lon="6.87166">
        <ele>1718.6</ele>
        <time>2022-07-19T10:41:02Z</time>
      </trkpt>
      <trkpt lat="44.31972" lon="6.87164">
        <ele>1718.6</ele>
        <time>2022-07-19T10:41:03Z</time>
      </trkpt>
      <trkpt lat="44.31971" lon="6.87161">
        <ele>1719</ele>
        <time>2022-07-19T10:41:04Z</time>
      </trkpt>
      <trkpt lat="44.31971" lon="6.87158">
        <ele>1719</ele>
        <time>2022-07-19T10:41:05Z</time>
      </trkpt>
      <trkpt lat="44.31971" lon="6.87156">
        <ele>1719</ele>
        <time>2022-07-19T10:41:06Z</time>
      </trkpt>
      <trkpt lat="44.3197" lon="6.87153">
        <ele>1719.2</ele>
        <time>2022-07-19T10:41:07Z</time>
      </trkpt>
      <trkpt lat="44.31969" lon="6.8715">
        <ele>1719.2</ele>
        <time>2022-07-19T10:41:08Z</time>
      </trkpt>
      <trkpt lat="44.31969" lon="6.87148">
        <ele>1719.2</ele>
        <time>2022-07-19T10:41:09Z</time>
      </trkpt>
      <trkpt lat="44.31968" lon="6.87145">
        <ele>1719.4</ele>
        <time>2022-07-19T10:41:10Z</time>
      </trkpt>
      <trkpt lat="44.31968" lon="6.87143">
        <ele>1719.4</ele>
        <time>2022-07-19T10:41:11Z</time>
      </trkpt>
      <trkpt lat="44.31967" lon="6.8714">
        <ele>1719.8</ele>
        <time>2022-07-19T10:41:12Z</time>
      </trkpt>
      <trkpt lat="44.31966" lon="6.87138">
        <ele>1719.8</ele>
        <time>2022-07-19T10:41:13Z</time>
      </trkpt>
      <trkpt lat="44.31966" lon="6.87135">
        <ele>1720</ele>
        <time>2022-07-19T10:41:14Z</time>
      </trkpt>
      <trkpt lat="44.31966" lon="6.87133">
        <ele>1720.2</ele>
        <time>2022-07-19T10:41:15Z</time>
      </trkpt>
      <trkpt lat="44.31965" lon="6.87128">
        <ele>1720.2</ele>
        <time>2022-07-19T10:41:16Z</time>
      </trkpt>
      <trkpt lat="44.31965" lon="6.87126">
        <ele>1720.4</ele>
        <time>2022-07-19T10:41:17Z</time>
      </trkpt>
      <trkpt lat="44.31964" lon="6.87123">
        <ele>1720.4</ele>
        <time>2022-07-19T10:41:18Z</time>
      </trkpt>
      <trkpt lat="44.31964" lon="6.87121">
        <ele>1720.6</ele>
        <time>2022-07-19T10:41:19Z</time>
      </trkpt>
      <trkpt lat="44.31963" lon="6.87118">
        <ele>1720.6</ele>
        <time>2022-07-19T10:41:20Z</time>
      </trkpt>
      <trkpt lat="44.31963" lon="6.87116">
        <ele>1721</ele>
        <time>2022-07-19T10:41:21Z</time>
      </trkpt>
      <trkpt lat="44.31963" lon="6.87113">
        <ele>1721</ele>
        <time>2022-07-19T10:41:22Z</time>
      </trkpt>
      <trkpt lat="44.31963" lon="6.8711">
        <ele>1721.2</ele>
        <time>2022-07-19T10:41:23Z</time>
      </trkpt>
      <trkpt lat="44.31963" lon="6.87108">
        <ele>1721.4</ele>
        <time>2022-07-19T10:41:24Z</time>
      </trkpt>
      <trkpt lat="44.31963" lon="6.87105">
        <ele>1721.4</ele>
        <time>2022-07-19T10:41:25Z</time>
      </trkpt>
      <trkpt lat="44.31963" lon="6.87103">
        <ele>1721.4</ele>
        <time>2022-07-19T10:41:26Z</time>
      </trkpt>
      <trkpt lat="44.31962" lon="6.871">
        <ele>1721.8</ele>
        <time>2022-07-19T10:41:27Z</time>
      </trkpt>
      <trkpt lat="44.31962" lon="6.87098">
        <ele>1721.8</ele>
        <time>2022-07-19T10:41:28Z</time>
      </trkpt>
      <trkpt lat="44.31962" lon="6.87095">
        <ele>1722</ele>
        <time>2022-07-19T10:41:29Z</time>
      </trkpt>
      <trkpt lat="44.31962" lon="6.87093">
        <ele>1722</ele>
        <time>2022-07-19T10:41:30Z</time>
      </trkpt>
      <trkpt lat="44.31961" lon="6.87091">
        <ele>1722.4</ele>
        <time>2022-07-19T10:41:31Z</time>
      </trkpt>
      <trkpt lat="44.31961" lon="6.87088">
        <ele>1722.4</ele>
        <time>2022-07-19T10:41:32Z</time>
      </trkpt>
      <trkpt lat="44.31961" lon="6.87086">
        <ele>1722.6</ele>
        <time>2022-07-19T10:41:33Z</time>
      </trkpt>
      <trkpt lat="44.31961" lon="6.87083">
        <ele>1722.8</ele>
        <time>2022-07-19T10:41:34Z</time>
      </trkpt>
      <trkpt lat="44.31961" lon="6.87081">
        <ele>1722.8</ele>
        <time>2022-07-19T10:41:35Z</time>
      </trkpt>
      <trkpt lat="44.31962" lon="6.87079">
        <ele>1723</ele>
        <time>2022-07-19T10:41:36Z</time>
      </trkpt>
      <trkpt lat="44.31962" lon="6.87076">
        <ele>1723</ele>
        <time>2022-07-19T10:41:37Z</time>
      </trkpt>
      <trkpt lat="44.31962" lon="6.87074">
        <ele>1723.2</ele>
        <time>2022-07-19T10:41:38Z</time>
      </trkpt>
      <trkpt lat="44.31962" lon="6.87072">
        <ele>1723.2</ele>
        <time>2022-07-19T10:41:39Z</time>
      </trkpt>
      <trkpt lat="44.31962" lon="6.87069">
        <ele>1723.6</ele>
        <time>2022-07-19T10:41:40Z</time>
      </trkpt>
      <trkpt lat="44.31962" lon="6.87067">
        <ele>1723.6</ele>
        <time>2022-07-19T10:41:41Z</time>
      </trkpt>
      <trkpt lat="44.31962" lon="6.87064">
        <ele>1723.8</ele>
        <time>2022-07-19T10:41:42Z</time>
      </trkpt>
      <trkpt lat="44.31962" lon="6.87062">
        <ele>1724</ele>
        <time>2022-07-19T10:41:43Z</time>
      </trkpt>
      <trkpt lat="44.31962" lon="6.87059">
        <ele>1724</ele>
        <time>2022-07-19T10:41:44Z</time>
      </trkpt>
      <trkpt lat="44.31962" lon="6.87057">
        <ele>1724.4</ele>
        <time>2022-07-19T10:41:45Z</time>
      </trkpt>
      <trkpt lat="44.31962" lon="6.87055">
        <ele>1724.4</ele>
        <time>2022-07-19T10:41:46Z</time>
      </trkpt>
      <trkpt lat="44.31962" lon="6.87053">
        <ele>1724.8</ele>
        <time>2022-07-19T10:41:47Z</time>
      </trkpt>
      <trkpt lat="44.31962" lon="6.8705">
        <ele>1724.8</ele>
        <time>2022-07-19T10:41:48Z</time>
      </trkpt>
      <trkpt lat="44.31962" lon="6.87048">
        <ele>1725</ele>
        <time>2022-07-19T10:41:49Z</time>
      </trkpt>
      <trkpt lat="44.31961" lon="6.87045">
        <ele>1725</ele>
        <time>2022-07-19T10:41:50Z</time>
      </trkpt>
      <trkpt lat="44.31961" lon="6.87043">
        <ele>1725</ele>
        <time>2022-07-19T10:41:51Z</time>
      </trkpt>
      <trkpt lat="44.31962" lon="6.8704">
        <ele>1725.2</ele>
        <time>2022-07-19T10:41:52Z</time>
      </trkpt>
      <trkpt lat="44.31962" lon="6.87037">
        <ele>1725.6</ele>
        <time>2022-07-19T10:41:53Z</time>
      </trkpt>
      <trkpt lat="44.31963" lon="6.87035">
        <ele>1725.6</ele>
        <time>2022-07-19T10:41:54Z</time>
      </trkpt>
      <trkpt lat="44.31963" lon="6.87032">
        <ele>1725.8</ele>
        <time>2022-07-19T10:41:55Z</time>
      </trkpt>
      <trkpt lat="44.31964" lon="6.8703">
        <ele>1725.8</ele>
        <time>2022-07-19T10:41:56Z</time>
      </trkpt>
      <trkpt lat="44.31964" lon="6.87027">
        <ele>1726</ele>
        <time>2022-07-19T10:41:57Z</time>
      </trkpt>
      <trkpt lat="44.31964" lon="6.87025">
        <ele>1726</ele>
        <time>2022-07-19T10:41:58Z</time>
      </trkpt>
      <trkpt lat="44.31963" lon="6.87022">
        <ele>1726.2</ele>
        <time>2022-07-19T10:41:59Z</time>
      </trkpt>
      <trkpt lat="44.31963" lon="6.8702">
        <ele>1726.2</ele>
        <time>2022-07-19T10:42:00Z</time>
      </trkpt>
      <trkpt lat="44.31963" lon="6.87017">
        <ele>1726.6</ele>
        <time>2022-07-19T10:42:01Z</time>
      </trkpt>
      <trkpt lat="44.31963" lon="6.87015">
        <ele>1726.6</ele>
        <time>2022-07-19T10:42:02Z</time>
      </trkpt>
      <trkpt lat="44.31964" lon="6.87012">
        <ele>1726.8</ele>
        <time>2022-07-19T10:42:03Z</time>
      </trkpt>
      <trkpt lat="44.31964" lon="6.8701">
        <ele>1726.8</ele>
        <time>2022-07-19T10:42:04Z</time>
      </trkpt>
      <trkpt lat="44.31964" lon="6.87007">
        <ele>1727.2</ele>
        <time>2022-07-19T10:42:05Z</time>
      </trkpt>
      <trkpt lat="44.31964" lon="6.87004">
        <ele>1727.2</ele>
        <time>2022-07-19T10:42:06Z</time>
      </trkpt>
      <trkpt lat="44.31965" lon="6.87001">
        <ele>1727.4</ele>
        <time>2022-07-19T10:42:07Z</time>
      </trkpt>
      <trkpt lat="44.31965" lon="6.86999">
        <ele>1727.4</ele>
        <time>2022-07-19T10:42:08Z</time>
      </trkpt>
      <trkpt lat="44.31965" lon="6.86996">
        <ele>1727.8</ele>
        <time>2022-07-19T10:42:09Z</time>
      </trkpt>
      <trkpt lat="44.31965" lon="6.86994">
        <ele>1727.8</ele>
        <time>2022-07-19T10:42:10Z</time>
      </trkpt>
      <trkpt lat="44.31965" lon="6.86991">
        <ele>1728</ele>
        <time>2022-07-19T10:42:11Z</time>
      </trkpt>
      <trkpt lat="44.31965" lon="6.86989">
        <ele>1728</ele>
        <time>2022-07-19T10:42:12Z</time>
      </trkpt>
      <trkpt lat="44.31966" lon="6.86986">
        <ele>1728.2</ele>
        <time>2022-07-19T10:42:13Z</time>
      </trkpt>
      <trkpt lat="44.31966" lon="6.86983">
        <ele>1728.2</ele>
        <time>2022-07-19T10:42:14Z</time>
      </trkpt>
      <trkpt lat="44.31965" lon="6.8698">
        <ele>1728.4</ele>
        <time>2022-07-19T10:42:15Z</time>
      </trkpt>
      <trkpt lat="44.31966" lon="6.86978">
        <ele>1728.4</ele>
        <time>2022-07-19T10:42:16Z</time>
      </trkpt>
      <trkpt lat="44.31966" lon="6.86975">
        <ele>1728.8</ele>
        <time>2022-07-19T10:42:17Z</time>
      </trkpt>
      <trkpt lat="44.31966" lon="6.86972">
        <ele>1728.8</ele>
        <time>2022-07-19T10:42:18Z</time>
      </trkpt>
      <trkpt lat="44.31966" lon="6.86969">
        <ele>1728.8</ele>
        <time>2022-07-19T10:42:19Z</time>
      </trkpt>
      <trkpt lat="44.31966" lon="6.86966">
        <ele>1729</ele>
        <time>2022-07-19T10:42:20Z</time>
      </trkpt>
      <trkpt lat="44.31966" lon="6.86964">
        <ele>1729</ele>
        <time>2022-07-19T10:42:21Z</time>
      </trkpt>
      <trkpt lat="44.31966" lon="6.86961">
        <ele>1729.2</ele>
        <time>2022-07-19T10:42:22Z</time>
      </trkpt>
      <trkpt lat="44.31967" lon="6.86958">
        <ele>1729.2</ele>
        <time>2022-07-19T10:42:23Z</time>
      </trkpt>
      <trkpt lat="44.31967" lon="6.86955">
        <ele>1729.6</ele>
        <time>2022-07-19T10:42:24Z</time>
      </trkpt>
      <trkpt lat="44.31968" lon="6.86952">
        <ele>1729.6</ele>
        <time>2022-07-19T10:42:25Z</time>
      </trkpt>
      <trkpt lat="44.31968" lon="6.86949">
        <ele>1729.8</ele>
        <time>2022-07-19T10:42:26Z</time>
      </trkpt>
      <trkpt lat="44.31969" lon="6.86946">
        <ele>1729.8</ele>
        <time>2022-07-19T10:42:27Z</time>
      </trkpt>
      <trkpt lat="44.31969" lon="6.86943">
        <ele>1730</ele>
        <time>2022-07-19T10:42:28Z</time>
      </trkpt>
      <trkpt lat="44.31969" lon="6.8694">
        <ele>1730</ele>
        <time>2022-07-19T10:42:29Z</time>
      </trkpt>
      <trkpt lat="44.3197" lon="6.86937">
        <ele>1730.4</ele>
        <time>2022-07-19T10:42:30Z</time>
      </trkpt>
      <trkpt lat="44.3197" lon="6.86935">
        <ele>1730.4</ele>
        <time>2022-07-19T10:42:31Z</time>
      </trkpt>
      <trkpt lat="44.31971" lon="6.86932">
        <ele>1730.6</ele>
        <time>2022-07-19T10:42:32Z</time>
      </trkpt>
      <trkpt lat="44.31971" lon="6.86929">
        <ele>1730.6</ele>
        <time>2022-07-19T10:42:33Z</time>
      </trkpt>
      <trkpt lat="44.31971" lon="6.86926">
        <ele>1730.8</ele>
        <time>2022-07-19T10:42:34Z</time>
      </trkpt>
      <trkpt lat="44.31971" lon="6.86924">
        <ele>1730.8</ele>
        <time>2022-07-19T10:42:35Z</time>
      </trkpt>
      <trkpt lat="44.31972" lon="6.86921">
        <ele>1731</ele>
        <time>2022-07-19T10:42:36Z</time>
      </trkpt>
      <trkpt lat="44.31972" lon="6.86918">
        <ele>1731</ele>
        <time>2022-07-19T10:42:37Z</time>
      </trkpt>
      <trkpt lat="44.31973" lon="6.86916">
        <ele>1731.4</ele>
        <time>2022-07-19T10:42:38Z</time>
      </trkpt>
      <trkpt lat="44.31973" lon="6.86913">
        <ele>1731.4</ele>
        <time>2022-07-19T10:42:39Z</time>
      </trkpt>
      <trkpt lat="44.31973" lon="6.86911">
        <ele>1731.6</ele>
        <time>2022-07-19T10:42:40Z</time>
      </trkpt>
      <trkpt lat="44.31974" lon="6.86908">
        <ele>1731.6</ele>
        <time>2022-07-19T10:42:41Z</time>
      </trkpt>
      <trkpt lat="44.31974" lon="6.86906">
        <ele>1732</ele>
        <time>2022-07-19T10:42:42Z</time>
      </trkpt>
      <trkpt lat="44.31974" lon="6.86903">
        <ele>1732</ele>
        <time>2022-07-19T10:42:43Z</time>
      </trkpt>
      <trkpt lat="44.31975" lon="6.869">
        <ele>1732.2</ele>
        <time>2022-07-19T10:42:44Z</time>
      </trkpt>
      <trkpt lat="44.31975" lon="6.86897">
        <ele>1732.2</ele>
        <time>2022-07-19T10:42:45Z</time>
      </trkpt>
      <trkpt lat="44.31975" lon="6.86894">
        <ele>1732.4</ele>
        <time>2022-07-19T10:42:46Z</time>
      </trkpt>
      <trkpt lat="44.31975" lon="6.86892">
        <ele>1732.4</ele>
        <time>2022-07-19T10:42:47Z</time>
      </trkpt>
      <trkpt lat="44.31975" lon="6.86889">
        <ele>1732.8</ele>
        <time>2022-07-19T10:42:48Z</time>
      </trkpt>
      <trkpt lat="44.31975" lon="6.86886">
        <ele>1732.8</ele>
        <time>2022-07-19T10:42:49Z</time>
      </trkpt>
      <trkpt lat="44.31976" lon="6.86884">
        <ele>1733</ele>
        <time>2022-07-19T10:42:50Z</time>
      </trkpt>
      <trkpt lat="44.31976" lon="6.86881">
        <ele>1733</ele>
        <time>2022-07-19T10:42:51Z</time>
      </trkpt>
      <trkpt lat="44.31975" lon="6.86878">
        <ele>1733.2</ele>
        <time>2022-07-19T10:42:52Z</time>
      </trkpt>
      <trkpt lat="44.31975" lon="6.86875">
        <ele>1733.2</ele>
        <time>2022-07-19T10:42:53Z</time>
      </trkpt>
      <trkpt lat="44.31975" lon="6.86873">
        <ele>1733.4</ele>
        <time>2022-07-19T10:42:54Z</time>
      </trkpt>
      <trkpt lat="44.31974" lon="6.8687">
        <ele>1733.4</ele>
        <time>2022-07-19T10:42:55Z</time>
      </trkpt>
      <trkpt lat="44.31974" lon="6.86867">
        <ele>1733.4</ele>
        <time>2022-07-19T10:42:56Z</time>
      </trkpt>
      <trkpt lat="44.31974" lon="6.86865">
        <ele>1733.8</ele>
        <time>2022-07-19T10:42:57Z</time>
      </trkpt>
      <trkpt lat="44.31974" lon="6.86862">
        <ele>1733.8</ele>
        <time>2022-07-19T10:42:58Z</time>
      </trkpt>
      <trkpt lat="44.31974" lon="6.8686">
        <ele>1734.2</ele>
        <time>2022-07-19T10:42:59Z</time>
      </trkpt>
      <trkpt lat="44.31973" lon="6.86857">
        <ele>1734.2</ele>
        <time>2022-07-19T10:43:00Z</time>
      </trkpt>
      <trkpt lat="44.31973" lon="6.86855">
        <ele>1734.4</ele>
        <time>2022-07-19T10:43:01Z</time>
      </trkpt>
      <trkpt lat="44.31972" lon="6.86852">
        <ele>1734.4</ele>
        <time>2022-07-19T10:43:02Z</time>
      </trkpt>
      <trkpt lat="44.31972" lon="6.8685">
        <ele>1734.6</ele>
        <time>2022-07-19T10:43:03Z</time>
      </trkpt>
      <trkpt lat="44.31972" lon="6.86848">
        <ele>1734.6</ele>
        <time>2022-07-19T10:43:04Z</time>
      </trkpt>
      <trkpt lat="44.31972" lon="6.86845">
        <ele>1735</ele>
        <time>2022-07-19T10:43:05Z</time>
      </trkpt>
      <trkpt lat="44.31972" lon="6.86843">
        <ele>1735.2</ele>
        <time>2022-07-19T10:43:06Z</time>
      </trkpt>
      <trkpt lat="44.31972" lon="6.8684">
        <ele>1735.2</ele>
        <time>2022-07-19T10:43:07Z</time>
      </trkpt>
      <trkpt lat="44.31972" lon="6.86837">
        <ele>1735.4</ele>
        <time>2022-07-19T10:43:08Z</time>
      </trkpt>
      <trkpt lat="44.31973" lon="6.86834">
        <ele>1735.4</ele>
        <time>2022-07-19T10:43:09Z</time>
      </trkpt>
      <trkpt lat="44.31974" lon="6.86832">
        <ele>1735.8</ele>
        <time>2022-07-19T10:43:10Z</time>
      </trkpt>
      <trkpt lat="44.31974" lon="6.86829">
        <ele>1735.8</ele>
        <time>2022-07-19T10:43:11Z</time>
      </trkpt>
      <trkpt lat="44.31975" lon="6.86826">
        <ele>1736</ele>
        <time>2022-07-19T10:43:12Z</time>
      </trkpt>
      <trkpt lat="44.31975" lon="6.86823">
        <ele>1736</ele>
        <time>2022-07-19T10:43:13Z</time>
      </trkpt>
      <trkpt lat="44.31976" lon="6.86821">
        <ele>1736.4</ele>
        <time>2022-07-19T10:43:14Z</time>
      </trkpt>
      <trkpt lat="44.31976" lon="6.86818">
        <ele>1736.4</ele>
        <time>2022-07-19T10:43:15Z</time>
      </trkpt>
      <trkpt lat="44.31977" lon="6.86815">
        <ele>1736.8</ele>
        <time>2022-07-19T10:43:16Z</time>
      </trkpt>
      <trkpt lat="44.31977" lon="6.86813">
        <ele>1736.8</ele>
        <time>2022-07-19T10:43:17Z</time>
      </trkpt>
      <trkpt lat="44.31978" lon="6.8681">
        <ele>1737</ele>
        <time>2022-07-19T10:43:18Z</time>
      </trkpt>
      <trkpt lat="44.31979" lon="6.86807">
        <ele>1737</ele>
        <time>2022-07-19T10:43:19Z</time>
      </trkpt>
      <trkpt lat="44.3198" lon="6.86805">
        <ele>1737.2</ele>
        <time>2022-07-19T10:43:20Z</time>
      </trkpt>
      <trkpt lat="44.3198" lon="6.86802">
        <ele>1737.2</ele>
        <time>2022-07-19T10:43:21Z</time>
      </trkpt>
      <trkpt lat="44.3198" lon="6.868">
        <ele>1737.6</ele>
        <time>2022-07-19T10:43:22Z</time>
      </trkpt>
      <trkpt lat="44.3198" lon="6.86797">
        <ele>1737.6</ele>
        <time>2022-07-19T10:43:23Z</time>
      </trkpt>
      <trkpt lat="44.31981" lon="6.86794">
        <ele>1737.8</ele>
        <time>2022-07-19T10:43:24Z</time>
      </trkpt>
      <trkpt lat="44.31982" lon="6.86792">
        <ele>1737.8</ele>
        <time>2022-07-19T10:43:25Z</time>
      </trkpt>
      <trkpt lat="44.31982" lon="6.86789">
        <ele>1738.2</ele>
        <time>2022-07-19T10:43:26Z</time>
      </trkpt>
      <trkpt lat="44.31983" lon="6.86787">
        <ele>1738.2</ele>
        <time>2022-07-19T10:43:27Z</time>
      </trkpt>
      <trkpt lat="44.31984" lon="6.86784">
        <ele>1738.4</ele>
        <time>2022-07-19T10:43:28Z</time>
      </trkpt>
      <trkpt lat="44.31984" lon="6.86782">
        <ele>1738.4</ele>
        <time>2022-07-19T10:43:29Z</time>
      </trkpt>
      <trkpt lat="44.31985" lon="6.86779">
        <ele>1738.8</ele>
        <time>2022-07-19T10:43:30Z</time>
      </trkpt>
      <trkpt lat="44.31986" lon="6.86777">
        <ele>1738.8</ele>
        <time>2022-07-19T10:43:31Z</time>
      </trkpt>
      <trkpt lat="44.31986" lon="6.86774">
        <ele>1739</ele>
        <time>2022-07-19T10:43:32Z</time>
      </trkpt>
      <trkpt lat="44.31986" lon="6.86771">
        <ele>1739</ele>
        <time>2022-07-19T10:43:33Z</time>
      </trkpt>
      <trkpt lat="44.31987" lon="6.86768">
        <ele>1739.2</ele>
        <time>2022-07-19T10:43:34Z</time>
      </trkpt>
      <trkpt lat="44.31987" lon="6.86765">
        <ele>1739.2</ele>
        <time>2022-07-19T10:43:35Z</time>
      </trkpt>
      <trkpt lat="44.31987" lon="6.86762">
        <ele>1739.4</ele>
        <time>2022-07-19T10:43:36Z</time>
      </trkpt>
      <trkpt lat="44.31987" lon="6.86759">
        <ele>1739.4</ele>
        <time>2022-07-19T10:43:37Z</time>
      </trkpt>
      <trkpt lat="44.31987" lon="6.86756">
        <ele>1739.6</ele>
        <time>2022-07-19T10:43:38Z</time>
      </trkpt>
      <trkpt lat="44.31987" lon="6.86754">
        <ele>1739.6</ele>
        <time>2022-07-19T10:43:39Z</time>
      </trkpt>
      <trkpt lat="44.31988" lon="6.86752">
        <ele>1739.6</ele>
        <time>2022-07-19T10:43:40Z</time>
      </trkpt>
      <trkpt lat="44.31988" lon="6.8675">
        <ele>1740</ele>
        <time>2022-07-19T10:43:41Z</time>
      </trkpt>
      <trkpt lat="44.31988" lon="6.86749">
        <ele>1740</ele>
        <time>2022-07-19T10:43:42Z</time>
      </trkpt>
      <trkpt lat="44.31989" lon="6.86749">
        <ele>1740</ele>
        <time>2022-07-19T10:43:43Z</time>
      </trkpt>
      <trkpt lat="44.31988" lon="6.86744">
        <ele>1740.2</ele>
        <time>2022-07-19T10:43:48Z</time>
      </trkpt>
      <trkpt lat="44.31988" lon="6.86743">
        <ele>1740.2</ele>
        <time>2022-07-19T10:43:49Z</time>
      </trkpt>
      <trkpt lat="44.31988" lon="6.86742">
        <ele>1740.2</ele>
        <time>2022-07-19T10:43:50Z</time>
      </trkpt>
      <trkpt lat="44.31988" lon="6.8674">
        <ele>1740.2</ele>
        <time>2022-07-19T10:43:51Z</time>
      </trkpt>
      <trkpt lat="44.31988" lon="6.86739">
        <ele>1740.4</ele>
        <time>2022-07-19T10:43:52Z</time>
      </trkpt>
      <trkpt lat="44.31988" lon="6.86737">
        <ele>1740.4</ele>
        <time>2022-07-19T10:43:53Z</time>
      </trkpt>
      <trkpt lat="44.31988" lon="6.86736">
        <ele>1740.4</ele>
        <time>2022-07-19T10:43:54Z</time>
      </trkpt>
      <trkpt lat="44.31988" lon="6.86734">
        <ele>1740.8</ele>
        <time>2022-07-19T10:43:55Z</time>
      </trkpt>
      <trkpt lat="44.31988" lon="6.86733">
        <ele>1740.8</ele>
        <time>2022-07-19T10:43:56Z</time>
      </trkpt>
      <trkpt lat="44.31988" lon="6.86731">
        <ele>1740.8</ele>
        <time>2022-07-19T10:43:57Z</time>
      </trkpt>
      <trkpt lat="44.31989" lon="6.8673">
        <ele>1741</ele>
        <time>2022-07-19T10:43:58Z</time>
      </trkpt>
      <trkpt lat="44.31989" lon="6.86728">
        <ele>1741</ele>
        <time>2022-07-19T10:43:59Z</time>
      </trkpt>
      <trkpt lat="44.31989" lon="6.86727">
        <ele>1741.2</ele>
        <time>2022-07-19T10:44:00Z</time>
      </trkpt>
      <trkpt lat="44.31989" lon="6.86725">
        <ele>1741.2</ele>
        <time>2022-07-19T10:44:01Z</time>
      </trkpt>
      <trkpt lat="44.31989" lon="6.86724">
        <ele>1741.2</ele>
        <time>2022-07-19T10:44:02Z</time>
      </trkpt>
      <trkpt lat="44.31989" lon="6.86722">
        <ele>1741.6</ele>
        <time>2022-07-19T10:44:03Z</time>
      </trkpt>
      <trkpt lat="44.3199" lon="6.86721">
        <ele>1741.6</ele>
        <time>2022-07-19T10:44:04Z</time>
      </trkpt>
      <trkpt lat="44.3199" lon="6.86719">
        <ele>1741.8</ele>
        <time>2022-07-19T10:44:05Z</time>
      </trkpt>
      <trkpt lat="44.3199" lon="6.86718">
        <ele>1741.8</ele>
        <time>2022-07-19T10:44:06Z</time>
      </trkpt>
      <trkpt lat="44.3199" lon="6.86716">
        <ele>1741.8</ele>
        <time>2022-07-19T10:44:07Z</time>
      </trkpt>
      <trkpt lat="44.3199" lon="6.86715">
        <ele>1742</ele>
        <time>2022-07-19T10:44:08Z</time>
      </trkpt>
      <trkpt lat="44.3199" lon="6.86713">
        <ele>1742</ele>
        <time>2022-07-19T10:44:09Z</time>
      </trkpt>
      <trkpt lat="44.3199" lon="6.86712">
        <ele>1742</ele>
        <time>2022-07-19T10:44:10Z</time>
      </trkpt>
      <trkpt lat="44.3199" lon="6.8671">
        <ele>1742.2</ele>
        <time>2022-07-19T10:44:11Z</time>
      </trkpt>
      <trkpt lat="44.31991" lon="6.86708">
        <ele>1742.2</ele>
        <time>2022-07-19T10:44:12Z</time>
      </trkpt>
      <trkpt lat="44.31991" lon="6.86707">
        <ele>1742.2</ele>
        <time>2022-07-19T10:44:13Z</time>
      </trkpt>
      <trkpt lat="44.31991" lon="6.86705">
        <ele>1742.4</ele>
        <time>2022-07-19T10:44:14Z</time>
      </trkpt>
      <trkpt lat="44.31992" lon="6.86704">
        <ele>1742.4</ele>
        <time>2022-07-19T10:44:15Z</time>
      </trkpt>
      <trkpt lat="44.31992" lon="6.86702">
        <ele>1742.4</ele>
        <time>2022-07-19T10:44:16Z</time>
      </trkpt>
      <trkpt lat="44.31992" lon="6.867">
        <ele>1742.6</ele>
        <time>2022-07-19T10:44:17Z</time>
      </trkpt>
      <trkpt lat="44.31992" lon="6.86699">
        <ele>1742.6</ele>
        <time>2022-07-19T10:44:18Z</time>
      </trkpt>
      <trkpt lat="44.31992" lon="6.86697">
        <ele>1742.6</ele>
        <time>2022-07-19T10:44:19Z</time>
      </trkpt>
      <trkpt lat="44.31992" lon="6.86696">
        <ele>1743</ele>
        <time>2022-07-19T10:44:20Z</time>
      </trkpt>
      <trkpt lat="44.31992" lon="6.86694">
        <ele>1743</ele>
        <time>2022-07-19T10:44:21Z</time>
      </trkpt>
      <trkpt lat="44.31992" lon="6.86693">
        <ele>1743.2</ele>
        <time>2022-07-19T10:44:22Z</time>
      </trkpt>
      <trkpt lat="44.31992" lon="6.86691">
        <ele>1743.2</ele>
        <time>2022-07-19T10:44:23Z</time>
      </trkpt>
      <trkpt lat="44.31992" lon="6.86689">
        <ele>1743.2</ele>
        <time>2022-07-19T10:44:24Z</time>
      </trkpt>
      <trkpt lat="44.31992" lon="6.86687">
        <ele>1743.4</ele>
        <time>2022-07-19T10:44:25Z</time>
      </trkpt>
      <trkpt lat="44.31992" lon="6.86686">
        <ele>1743.4</ele>
        <time>2022-07-19T10:44:26Z</time>
      </trkpt>
      <trkpt lat="44.31992" lon="6.86684">
        <ele>1743.4</ele>
        <time>2022-07-19T10:44:27Z</time>
      </trkpt>
      <trkpt lat="44.31992" lon="6.86682">
        <ele>1743.6</ele>
        <time>2022-07-19T10:44:28Z</time>
      </trkpt>
      <trkpt lat="44.31993" lon="6.8668">
        <ele>1743.6</ele>
        <time>2022-07-19T10:44:29Z</time>
      </trkpt>
      <trkpt lat="44.31993" lon="6.86679">
        <ele>1743.6</ele>
        <time>2022-07-19T10:44:30Z</time>
      </trkpt>
      <trkpt lat="44.31993" lon="6.86677">
        <ele>1743.6</ele>
        <time>2022-07-19T10:44:31Z</time>
      </trkpt>
      <trkpt lat="44.31993" lon="6.86675">
        <ele>1744</ele>
        <time>2022-07-19T10:44:32Z</time>
      </trkpt>
      <trkpt lat="44.31993" lon="6.86674">
        <ele>1744</ele>
        <time>2022-07-19T10:44:33Z</time>
      </trkpt>
      <trkpt lat="44.31993" lon="6.86672">
        <ele>1744.2</ele>
        <time>2022-07-19T10:44:34Z</time>
      </trkpt>
      <trkpt lat="44.31993" lon="6.86671">
        <ele>1744.2</ele>
        <time>2022-07-19T10:44:35Z</time>
      </trkpt>
      <trkpt lat="44.31994" lon="6.86669">
        <ele>1744.2</ele>
        <time>2022-07-19T10:44:36Z</time>
      </trkpt>
      <trkpt lat="44.31994" lon="6.86667">
        <ele>1744.4</ele>
        <time>2022-07-19T10:44:37Z</time>
      </trkpt>
      <trkpt lat="44.31994" lon="6.86665">
        <ele>1744.4</ele>
        <time>2022-07-19T10:44:38Z</time>
      </trkpt>
      <trkpt lat="44.31994" lon="6.86664">
        <ele>1744.4</ele>
        <time>2022-07-19T10:44:39Z</time>
      </trkpt>
      <trkpt lat="44.31994" lon="6.86662">
        <ele>1744.8</ele>
        <time>2022-07-19T10:44:40Z</time>
      </trkpt>
      <trkpt lat="44.31994" lon="6.8666">
        <ele>1744.8</ele>
        <time>2022-07-19T10:44:41Z</time>
      </trkpt>
      <trkpt lat="44.31994" lon="6.86659">
        <ele>1744.8</ele>
        <time>2022-07-19T10:44:42Z</time>
      </trkpt>
      <trkpt lat="44.31994" lon="6.86657">
        <ele>1744.8</ele>
        <time>2022-07-19T10:44:43Z</time>
      </trkpt>
      <trkpt lat="44.31995" lon="6.86655">
        <ele>1745.2</ele>
        <time>2022-07-19T10:44:44Z</time>
      </trkpt>
      <trkpt lat="44.31995" lon="6.86654">
        <ele>1745.2</ele>
        <time>2022-07-19T10:44:45Z</time>
      </trkpt>
      <trkpt lat="44.31995" lon="6.86652">
        <ele>1745.2</ele>
        <time>2022-07-19T10:44:46Z</time>
      </trkpt>
      <trkpt lat="44.31995" lon="6.8665">
        <ele>1745.2</ele>
        <time>2022-07-19T10:44:47Z</time>
      </trkpt>
      <trkpt lat="44.31995" lon="6.86649">
        <ele>1745.4</ele>
        <time>2022-07-19T10:44:48Z</time>
      </trkpt>
      <trkpt lat="44.31996" lon="6.86647">
        <ele>1745.4</ele>
        <time>2022-07-19T10:44:49Z</time>
      </trkpt>
      <trkpt lat="44.31996" lon="6.86646">
        <ele>1745.6</ele>
        <time>2022-07-19T10:44:50Z</time>
      </trkpt>
      <trkpt lat="44.31996" lon="6.86644">
        <ele>1745.6</ele>
        <time>2022-07-19T10:44:51Z</time>
      </trkpt>
      <trkpt lat="44.31997" lon="6.86643">
        <ele>1745.6</ele>
        <time>2022-07-19T10:44:52Z</time>
      </trkpt>
      <trkpt lat="44.31997" lon="6.86641">
        <ele>1746</ele>
        <time>2022-07-19T10:44:53Z</time>
      </trkpt>
      <trkpt lat="44.31998" lon="6.86639">
        <ele>1746</ele>
        <time>2022-07-19T10:44:54Z</time>
      </trkpt>
      <trkpt lat="44.31999" lon="6.86638">
        <ele>1746.2</ele>
        <time>2022-07-19T10:44:55Z</time>
      </trkpt>
      <trkpt lat="44.31999" lon="6.86637">
        <ele>1746.2</ele>
        <time>2022-07-19T10:44:56Z</time>
      </trkpt>
      <trkpt lat="44.32001" lon="6.86636">
        <ele>1746.6</ele>
        <time>2022-07-19T10:44:57Z</time>
      </trkpt>
      <trkpt lat="44.32002" lon="6.86636">
        <ele>1746.6</ele>
        <time>2022-07-19T10:44:58Z</time>
      </trkpt>
      <trkpt lat="44.32003" lon="6.86637">
        <ele>1746.8</ele>
        <time>2022-07-19T10:44:59Z</time>
      </trkpt>
      <trkpt lat="44.32004" lon="6.86637">
        <ele>1746.8</ele>
        <time>2022-07-19T10:45:00Z</time>
      </trkpt>
      <trkpt lat="44.32004" lon="6.86638">
        <ele>1747</ele>
        <time>2022-07-19T10:45:01Z</time>
      </trkpt>
      <trkpt lat="44.32004" lon="6.8664">
        <ele>1747</ele>
        <time>2022-07-19T10:45:02Z</time>
      </trkpt>
      <trkpt lat="44.32004" lon="6.86641">
        <ele>1747.4</ele>
        <time>2022-07-19T10:45:03Z</time>
      </trkpt>
      <trkpt lat="44.32004" lon="6.86643">
        <ele>1747.4</ele>
        <time>2022-07-19T10:45:04Z</time>
      </trkpt>
      <trkpt lat="44.32005" lon="6.86644">
        <ele>1747.6</ele>
        <time>2022-07-19T10:45:05Z</time>
      </trkpt>
      <trkpt lat="44.32005" lon="6.86646">
        <ele>1747.6</ele>
        <time>2022-07-19T10:45:06Z</time>
      </trkpt>
      <trkpt lat="44.32005" lon="6.86648">
        <ele>1747.6</ele>
        <time>2022-07-19T10:45:07Z</time>
      </trkpt>
      <trkpt lat="44.32004" lon="6.86649">
        <ele>1747.6</ele>
        <time>2022-07-19T10:45:08Z</time>
      </trkpt>
      <trkpt lat="44.32004" lon="6.86651">
        <ele>1747.8</ele>
        <time>2022-07-19T10:45:09Z</time>
      </trkpt>
      <trkpt lat="44.32004" lon="6.86652">
        <ele>1747.8</ele>
        <time>2022-07-19T10:45:10Z</time>
      </trkpt>
      <trkpt lat="44.32004" lon="6.86654">
        <ele>1747.8</ele>
        <time>2022-07-19T10:45:11Z</time>
      </trkpt>
      <trkpt lat="44.32004" lon="6.86656">
        <ele>1748.2</ele>
        <time>2022-07-19T10:45:12Z</time>
      </trkpt>
      <trkpt lat="44.32003" lon="6.86657">
        <ele>1748.2</ele>
        <time>2022-07-19T10:45:13Z</time>
      </trkpt>
      <trkpt lat="44.32003" lon="6.86659">
        <ele>1748.2</ele>
        <time>2022-07-19T10:45:14Z</time>
      </trkpt>
      <trkpt lat="44.32003" lon="6.8666">
        <ele>1748.4</ele>
        <time>2022-07-19T10:45:15Z</time>
      </trkpt>
      <trkpt lat="44.32003" lon="6.86662">
        <ele>1748.4</ele>
        <time>2022-07-19T10:45:16Z</time>
      </trkpt>
      <trkpt lat="44.32003" lon="6.86664">
        <ele>1748.4</ele>
        <time>2022-07-19T10:45:17Z</time>
      </trkpt>
      <trkpt lat="44.32003" lon="6.86665">
        <ele>1748.4</ele>
        <time>2022-07-19T10:45:18Z</time>
      </trkpt>
      <trkpt lat="44.32003" lon="6.86667">
        <ele>1748.6</ele>
        <time>2022-07-19T10:45:19Z</time>
      </trkpt>
      <trkpt lat="44.32003" lon="6.86668">
        <ele>1748.8</ele>
        <time>2022-07-19T10:45:20Z</time>
      </trkpt>
      <trkpt lat="44.32003" lon="6.8667">
        <ele>1748.8</ele>
        <time>2022-07-19T10:45:21Z</time>
      </trkpt>
      <trkpt lat="44.32003" lon="6.86671">
        <ele>1748.8</ele>
        <time>2022-07-19T10:45:22Z</time>
      </trkpt>
      <trkpt lat="44.32003" lon="6.86673">
        <ele>1749</ele>
        <time>2022-07-19T10:45:23Z</time>
      </trkpt>
      <trkpt lat="44.32003" lon="6.86675">
        <ele>1749</ele>
        <time>2022-07-19T10:45:24Z</time>
      </trkpt>
      <trkpt lat="44.32003" lon="6.86676">
        <ele>1749</ele>
        <time>2022-07-19T10:45:25Z</time>
      </trkpt>
      <trkpt lat="44.32003" lon="6.86678">
        <ele>1749</ele>
        <time>2022-07-19T10:45:26Z</time>
      </trkpt>
      <trkpt lat="44.32003" lon="6.8668">
        <ele>1749</ele>
        <time>2022-07-19T10:45:27Z</time>
      </trkpt>
      <trkpt lat="44.32003" lon="6.86681">
        <ele>1749.4</ele>
        <time>2022-07-19T10:45:28Z</time>
      </trkpt>
      <trkpt lat="44.32003" lon="6.86683">
        <ele>1749.4</ele>
        <time>2022-07-19T10:45:29Z</time>
      </trkpt>
      <trkpt lat="44.32003" lon="6.86684">
        <ele>1749.6</ele>
        <time>2022-07-19T10:45:30Z</time>
      </trkpt>
      <trkpt lat="44.32003" lon="6.86686">
        <ele>1749.6</ele>
        <time>2022-07-19T10:45:31Z</time>
      </trkpt>
      <trkpt lat="44.32003" lon="6.86688">
        <ele>1749.6</ele>
        <time>2022-07-19T10:45:32Z</time>
      </trkpt>
      <trkpt lat="44.32003" lon="6.86689">
        <ele>1749.6</ele>
        <time>2022-07-19T10:45:33Z</time>
      </trkpt>
      <trkpt lat="44.32003" lon="6.86691">
        <ele>1749.6</ele>
        <time>2022-07-19T10:45:34Z</time>
      </trkpt>
      <trkpt lat="44.32003" lon="6.86692">
        <ele>1749.8</ele>
        <time>2022-07-19T10:45:35Z</time>
      </trkpt>
      <trkpt lat="44.32002" lon="6.86694">
        <ele>1749.8</ele>
        <time>2022-07-19T10:45:36Z</time>
      </trkpt>
      <trkpt lat="44.32003" lon="6.86696">
        <ele>1749.8</ele>
        <time>2022-07-19T10:45:37Z</time>
      </trkpt>
      <trkpt lat="44.32003" lon="6.86697">
        <ele>1750</ele>
        <time>2022-07-19T10:45:38Z</time>
      </trkpt>
      <trkpt lat="44.32003" lon="6.86699">
        <ele>1750</ele>
        <time>2022-07-19T10:45:39Z</time>
      </trkpt>
      <trkpt lat="44.32003" lon="6.86701">
        <ele>1750</ele>
        <time>2022-07-19T10:45:40Z</time>
      </trkpt>
      <trkpt lat="44.32003" lon="6.86703">
        <ele>1750</ele>
        <time>2022-07-19T10:45:41Z</time>
      </trkpt>
      <trkpt lat="44.32003" lon="6.86704">
        <ele>1750</ele>
        <time>2022-07-19T10:45:42Z</time>
      </trkpt>
      <trkpt lat="44.32003" lon="6.86706">
        <ele>1750.2</ele>
        <time>2022-07-19T10:45:43Z</time>
      </trkpt>
      <trkpt lat="44.32003" lon="6.86708">
        <ele>1750.2</ele>
        <time>2022-07-19T10:45:44Z</time>
      </trkpt>
      <trkpt lat="44.32003" lon="6.8671">
        <ele>1750.2</ele>
        <time>2022-07-19T10:45:45Z</time>
      </trkpt>
      <trkpt lat="44.32003" lon="6.86711">
        <ele>1750.2</ele>
        <time>2022-07-19T10:45:46Z</time>
      </trkpt>
      <trkpt lat="44.32003" lon="6.86713">
        <ele>1750.2</ele>
        <time>2022-07-19T10:45:47Z</time>
      </trkpt>
      <trkpt lat="44.32003" lon="6.86715">
        <ele>1750.4</ele>
        <time>2022-07-19T10:45:48Z</time>
      </trkpt>
      <trkpt lat="44.32004" lon="6.86716">
        <ele>1750.4</ele>
        <time>2022-07-19T10:45:49Z</time>
      </trkpt>
      <trkpt lat="44.32004" lon="6.86718">
        <ele>1750.6</ele>
        <time>2022-07-19T10:45:50Z</time>
      </trkpt>
      <trkpt lat="44.32004" lon="6.8672">
        <ele>1750.6</ele>
        <time>2022-07-19T10:45:51Z</time>
      </trkpt>
      <trkpt lat="44.32004" lon="6.86721">
        <ele>1750.8</ele>
        <time>2022-07-19T10:45:52Z</time>
      </trkpt>
      <trkpt lat="44.32004" lon="6.86723">
        <ele>1750.8</ele>
        <time>2022-07-19T10:45:53Z</time>
      </trkpt>
      <trkpt lat="44.32004" lon="6.86725">
        <ele>1751.2</ele>
        <time>2022-07-19T10:45:54Z</time>
      </trkpt>
      <trkpt lat="44.32004" lon="6.86726">
        <ele>1751.2</ele>
        <time>2022-07-19T10:45:55Z</time>
      </trkpt>
      <trkpt lat="44.32004" lon="6.86728">
        <ele>1751.4</ele>
        <time>2022-07-19T10:45:56Z</time>
      </trkpt>
      <trkpt lat="44.32005" lon="6.8673">
        <ele>1751.4</ele>
        <time>2022-07-19T10:45:57Z</time>
      </trkpt>
      <trkpt lat="44.32005" lon="6.86731">
        <ele>1751.4</ele>
        <time>2022-07-19T10:45:58Z</time>
      </trkpt>
      <trkpt lat="44.32005" lon="6.86733">
        <ele>1751.4</ele>
        <time>2022-07-19T10:45:59Z</time>
      </trkpt>
      <trkpt lat="44.32005" lon="6.86735">
        <ele>1751.4</ele>
        <time>2022-07-19T10:46:00Z</time>
      </trkpt>
      <trkpt lat="44.32005" lon="6.86736">
        <ele>1751.6</ele>
        <time>2022-07-19T10:46:01Z</time>
      </trkpt>
      <trkpt lat="44.32005" lon="6.86738">
        <ele>1751.6</ele>
        <time>2022-07-19T10:46:02Z</time>
      </trkpt>
      <trkpt lat="44.32005" lon="6.86739">
        <ele>1751.8</ele>
        <time>2022-07-19T10:46:03Z</time>
      </trkpt>
      <trkpt lat="44.32005" lon="6.86741">
        <ele>1751.8</ele>
        <time>2022-07-19T10:46:04Z</time>
      </trkpt>
      <trkpt lat="44.32005" lon="6.86743">
        <ele>1751.8</ele>
        <time>2022-07-19T10:46:05Z</time>
      </trkpt>
      <trkpt lat="44.32005" lon="6.86744">
        <ele>1752</ele>
        <time>2022-07-19T10:46:06Z</time>
      </trkpt>
      <trkpt lat="44.32005" lon="6.86746">
        <ele>1752</ele>
        <time>2022-07-19T10:46:07Z</time>
      </trkpt>
      <trkpt lat="44.32005" lon="6.86748">
        <ele>1752</ele>
        <time>2022-07-19T10:46:08Z</time>
      </trkpt>
      <trkpt lat="44.32005" lon="6.86749">
        <ele>1752</ele>
        <time>2022-07-19T10:46:09Z</time>
      </trkpt>
      <trkpt lat="44.32005" lon="6.86751">
        <ele>1752.2</ele>
        <time>2022-07-19T10:46:10Z</time>
      </trkpt>
      <trkpt lat="44.32005" lon="6.86752">
        <ele>1752.2</ele>
        <time>2022-07-19T10:46:11Z</time>
      </trkpt>
      <trkpt lat="44.32005" lon="6.86754">
        <ele>1752.2</ele>
        <time>2022-07-19T10:46:12Z</time>
      </trkpt>
      <trkpt lat="44.32005" lon="6.86756">
        <ele>1752.2</ele>
        <time>2022-07-19T10:46:13Z</time>
      </trkpt>
      <trkpt lat="44.32005" lon="6.86758">
        <ele>1752.4</ele>
        <time>2022-07-19T10:46:14Z</time>
      </trkpt>
      <trkpt lat="44.32005" lon="6.86759">
        <ele>1752.4</ele>
        <time>2022-07-19T10:46:15Z</time>
      </trkpt>
      <trkpt lat="44.32005" lon="6.86761">
        <ele>1752.4</ele>
        <time>2022-07-19T10:46:16Z</time>
      </trkpt>
      <trkpt lat="44.32005" lon="6.86763">
        <ele>1752.8</ele>
        <time>2022-07-19T10:46:17Z</time>
      </trkpt>
      <trkpt lat="44.32005" lon="6.86764">
        <ele>1752.8</ele>
        <time>2022-07-19T10:46:18Z</time>
      </trkpt>
      <trkpt lat="44.32006" lon="6.86766">
        <ele>1752.8</ele>
        <time>2022-07-19T10:46:19Z</time>
      </trkpt>
      <trkpt lat="44.32006" lon="6.86768">
        <ele>1753</ele>
        <time>2022-07-19T10:46:20Z</time>
      </trkpt>
      <trkpt lat="44.32006" lon="6.86769">
        <ele>1753</ele>
        <time>2022-07-19T10:46:21Z</time>
      </trkpt>
      <trkpt lat="44.32006" lon="6.86771">
        <ele>1753</ele>
        <time>2022-07-19T10:46:22Z</time>
      </trkpt>
      <trkpt lat="44.32006" lon="6.86773">
        <ele>1753.4</ele>
        <time>2022-07-19T10:46:23Z</time>
      </trkpt>
      <trkpt lat="44.32006" lon="6.86775">
        <ele>1753.4</ele>
        <time>2022-07-19T10:46:24Z</time>
      </trkpt>
      <trkpt lat="44.32007" lon="6.86776">
        <ele>1753.4</ele>
        <time>2022-07-19T10:46:25Z</time>
      </trkpt>
      <trkpt lat="44.32007" lon="6.86778">
        <ele>1753.6</ele>
        <time>2022-07-19T10:46:26Z</time>
      </trkpt>
      <trkpt lat="44.32007" lon="6.8678">
        <ele>1753.6</ele>
        <time>2022-07-19T10:46:27Z</time>
      </trkpt>
      <trkpt lat="44.32007" lon="6.86782">
        <ele>1753.8</ele>
        <time>2022-07-19T10:46:28Z</time>
      </trkpt>
      <trkpt lat="44.32007" lon="6.86783">
        <ele>1753.8</ele>
        <time>2022-07-19T10:46:29Z</time>
      </trkpt>
      <trkpt lat="44.32008" lon="6.86785">
        <ele>1753.8</ele>
        <time>2022-07-19T10:46:30Z</time>
      </trkpt>
      <trkpt lat="44.32008" lon="6.86787">
        <ele>1753.8</ele>
        <time>2022-07-19T10:46:31Z</time>
      </trkpt>
      <trkpt lat="44.32008" lon="6.86788">
        <ele>1754</ele>
        <time>2022-07-19T10:46:32Z</time>
      </trkpt>
      <trkpt lat="44.32008" lon="6.8679">
        <ele>1754</ele>
        <time>2022-07-19T10:46:33Z</time>
      </trkpt>
      <trkpt lat="44.32008" lon="6.86792">
        <ele>1754</ele>
        <time>2022-07-19T10:46:34Z</time>
      </trkpt>
      <trkpt lat="44.32008" lon="6.86794">
        <ele>1754.2</ele>
        <time>2022-07-19T10:46:35Z</time>
      </trkpt>
      <trkpt lat="44.32008" lon="6.86796">
        <ele>1754.2</ele>
        <time>2022-07-19T10:46:36Z</time>
      </trkpt>
      <trkpt lat="44.32007" lon="6.86797">
        <ele>1754.2</ele>
        <time>2022-07-19T10:46:37Z</time>
      </trkpt>
      <trkpt lat="44.32007" lon="6.86799">
        <ele>1754.4</ele>
        <time>2022-07-19T10:46:38Z</time>
      </trkpt>
      <trkpt lat="44.32007" lon="6.86801">
        <ele>1754.4</ele>
        <time>2022-07-19T10:46:39Z</time>
      </trkpt>
      <trkpt lat="44.32007" lon="6.86803">
        <ele>1754.4</ele>
        <time>2022-07-19T10:46:40Z</time>
      </trkpt>
      <trkpt lat="44.32007" lon="6.86804">
        <ele>1754.8</ele>
        <time>2022-07-19T10:46:41Z</time>
      </trkpt>
      <trkpt lat="44.32006" lon="6.86806">
        <ele>1754.8</ele>
        <time>2022-07-19T10:46:42Z</time>
      </trkpt>
      <trkpt lat="44.32007" lon="6.86807">
        <ele>1754.8</ele>
        <time>2022-07-19T10:46:43Z</time>
      </trkpt>
      <trkpt lat="44.32006" lon="6.86809">
        <ele>1755</ele>
        <time>2022-07-19T10:46:44Z</time>
      </trkpt>
      <trkpt lat="44.32006" lon="6.86811">
        <ele>1755</ele>
        <time>2022-07-19T10:46:45Z</time>
      </trkpt>
      <trkpt lat="44.32006" lon="6.86812">
        <ele>1755</ele>
        <time>2022-07-19T10:46:46Z</time>
      </trkpt>
      <trkpt lat="44.32006" lon="6.86814">
        <ele>1755</ele>
        <time>2022-07-19T10:46:47Z</time>
      </trkpt>
      <trkpt lat="44.32006" lon="6.86816">
        <ele>1755.2</ele>
        <time>2022-07-19T10:46:48Z</time>
      </trkpt>
      <trkpt lat="44.32006" lon="6.86817">
        <ele>1755.2</ele>
        <time>2022-07-19T10:46:49Z</time>
      </trkpt>
      <trkpt lat="44.32005" lon="6.86819">
        <ele>1755.2</ele>
        <time>2022-07-19T10:46:50Z</time>
      </trkpt>
      <trkpt lat="44.32005" lon="6.86821">
        <ele>1755.6</ele>
        <time>2022-07-19T10:46:51Z</time>
      </trkpt>
      <trkpt lat="44.32005" lon="6.86822">
        <ele>1755.6</ele>
        <time>2022-07-19T10:46:52Z</time>
      </trkpt>
      <trkpt lat="44.32005" lon="6.86824">
        <ele>1755.6</ele>
        <time>2022-07-19T10:46:53Z</time>
      </trkpt>
      <trkpt lat="44.32005" lon="6.86826">
        <ele>1755.8</ele>
        <time>2022-07-19T10:46:54Z</time>
      </trkpt>
      <trkpt lat="44.32005" lon="6.86828">
        <ele>1755.8</ele>
        <time>2022-07-19T10:46:55Z</time>
      </trkpt>
      <trkpt lat="44.32004" lon="6.86829">
        <ele>1755.8</ele>
        <time>2022-07-19T10:46:56Z</time>
      </trkpt>
      <trkpt lat="44.32004" lon="6.86831">
        <ele>1755.8</ele>
        <time>2022-07-19T10:46:57Z</time>
      </trkpt>
      <trkpt lat="44.32004" lon="6.86832">
        <ele>1755.8</ele>
        <time>2022-07-19T10:46:58Z</time>
      </trkpt>
      <trkpt lat="44.32004" lon="6.86834">
        <ele>1755.8</ele>
        <time>2022-07-19T10:46:59Z</time>
      </trkpt>
      <trkpt lat="44.32005" lon="6.86836">
        <ele>1755.8</ele>
        <time>2022-07-19T10:47:00Z</time>
      </trkpt>
      <trkpt lat="44.32005" lon="6.86837">
        <ele>1755.8</ele>
        <time>2022-07-19T10:47:01Z</time>
      </trkpt>
      <trkpt lat="44.32006" lon="6.86839">
        <ele>1756</ele>
        <time>2022-07-19T10:47:02Z</time>
      </trkpt>
      <trkpt lat="44.32006" lon="6.8684">
        <ele>1756</ele>
        <time>2022-07-19T10:47:03Z</time>
      </trkpt>
      <trkpt lat="44.32007" lon="6.86841">
        <ele>1756.2</ele>
        <time>2022-07-19T10:47:04Z</time>
      </trkpt>
      <trkpt lat="44.32008" lon="6.86842">
        <ele>1756.2</ele>
        <time>2022-07-19T10:47:05Z</time>
      </trkpt>
      <trkpt lat="44.32008" lon="6.86844">
        <ele>1756.2</ele>
        <time>2022-07-19T10:47:06Z</time>
      </trkpt>
      <trkpt lat="44.32009" lon="6.86845">
        <ele>1756.4</ele>
        <time>2022-07-19T10:47:07Z</time>
      </trkpt>
      <trkpt lat="44.3201" lon="6.86846">
        <ele>1756.4</ele>
        <time>2022-07-19T10:47:08Z</time>
      </trkpt>
      <trkpt lat="44.32011" lon="6.86846">
        <ele>1756.4</ele>
        <time>2022-07-19T10:47:09Z</time>
      </trkpt>
      <trkpt lat="44.32012" lon="6.86847">
        <ele>1756.6</ele>
        <time>2022-07-19T10:47:10Z</time>
      </trkpt>
      <trkpt lat="44.32013" lon="6.86847">
        <ele>1756.6</ele>
        <time>2022-07-19T10:47:11Z</time>
      </trkpt>
      <trkpt lat="44.32014" lon="6.86847">
        <ele>1756.6</ele>
        <time>2022-07-19T10:47:12Z</time>
      </trkpt>
      <trkpt lat="44.32015" lon="6.86847">
        <ele>1756.6</ele>
        <time>2022-07-19T10:47:13Z</time>
      </trkpt>
      <trkpt lat="44.32016" lon="6.86847">
        <ele>1757</ele>
        <time>2022-07-19T10:47:14Z</time>
      </trkpt>
      <trkpt lat="44.32017" lon="6.86846">
        <ele>1757</ele>
        <time>2022-07-19T10:47:15Z</time>
      </trkpt>
      <trkpt lat="44.32017" lon="6.86845">
        <ele>1757.2</ele>
        <time>2022-07-19T10:47:16Z</time>
      </trkpt>
      <trkpt lat="44.32018" lon="6.86844">
        <ele>1757.2</ele>
        <time>2022-07-19T10:47:17Z</time>
      </trkpt>
      <trkpt lat="44.32018" lon="6.86843">
        <ele>1757.2</ele>
        <time>2022-07-19T10:47:18Z</time>
      </trkpt>
      <trkpt lat="44.32019" lon="6.86842">
        <ele>1757.4</ele>
        <time>2022-07-19T10:47:19Z</time>
      </trkpt>
      <trkpt lat="44.32019" lon="6.8684">
        <ele>1757.4</ele>
        <time>2022-07-19T10:47:20Z</time>
      </trkpt>
      <trkpt lat="44.3202" lon="6.86839">
        <ele>1757.4</ele>
        <time>2022-07-19T10:47:21Z</time>
      </trkpt>
      <trkpt lat="44.3202" lon="6.86838">
        <ele>1757.8</ele>
        <time>2022-07-19T10:47:22Z</time>
      </trkpt>
      <trkpt lat="44.3202" lon="6.86837">
        <ele>1757.8</ele>
        <time>2022-07-19T10:47:23Z</time>
      </trkpt>
      <trkpt lat="44.3202" lon="6.86835">
        <ele>1758</ele>
        <time>2022-07-19T10:47:24Z</time>
      </trkpt>
      <trkpt lat="44.3202" lon="6.86834">
        <ele>1758</ele>
        <time>2022-07-19T10:47:25Z</time>
      </trkpt>
      <trkpt lat="44.32021" lon="6.86832">
        <ele>1758</ele>
        <time>2022-07-19T10:47:26Z</time>
      </trkpt>
      <trkpt lat="44.32021" lon="6.86831">
        <ele>1758</ele>
        <time>2022-07-19T10:47:27Z</time>
      </trkpt>
      <trkpt lat="44.32021" lon="6.86829">
        <ele>1758.2</ele>
        <time>2022-07-19T10:47:28Z</time>
      </trkpt>
      <trkpt lat="44.32022" lon="6.86828">
        <ele>1758.2</ele>
        <time>2022-07-19T10:47:29Z</time>
      </trkpt>
      <trkpt lat="44.32022" lon="6.86826">
        <ele>1758.4</ele>
        <time>2022-07-19T10:47:30Z</time>
      </trkpt>
      <trkpt lat="44.32022" lon="6.86824">
        <ele>1758.4</ele>
        <time>2022-07-19T10:47:31Z</time>
      </trkpt>
      <trkpt lat="44.32022" lon="6.86823">
        <ele>1758.6</ele>
        <time>2022-07-19T10:47:32Z</time>
      </trkpt>
      <trkpt lat="44.32022" lon="6.86821">
        <ele>1758.6</ele>
        <time>2022-07-19T10:47:33Z</time>
      </trkpt>
      <trkpt lat="44.32022" lon="6.8682">
        <ele>1758.6</ele>
        <time>2022-07-19T10:47:34Z</time>
      </trkpt>
      <trkpt lat="44.32022" lon="6.86818">
        <ele>1758.6</ele>
        <time>2022-07-19T10:47:35Z</time>
      </trkpt>
      <trkpt lat="44.32022" lon="6.86816">
        <ele>1758.8</ele>
        <time>2022-07-19T10:47:36Z</time>
      </trkpt>
      <trkpt lat="44.32023" lon="6.86815">
        <ele>1758.8</ele>
        <time>2022-07-19T10:47:37Z</time>
      </trkpt>
      <trkpt lat="44.32023" lon="6.86813">
        <ele>1759</ele>
        <time>2022-07-19T10:47:38Z</time>
      </trkpt>
      <trkpt lat="44.32023" lon="6.86812">
        <ele>1759</ele>
        <time>2022-07-19T10:47:39Z</time>
      </trkpt>
      <trkpt lat="44.32023" lon="6.8681">
        <ele>1759.2</ele>
        <time>2022-07-19T10:47:40Z</time>
      </trkpt>
      <trkpt lat="44.32023" lon="6.86808">
        <ele>1759.2</ele>
        <time>2022-07-19T10:47:41Z</time>
      </trkpt>
      <trkpt lat="44.32023" lon="6.86807">
        <ele>1759.4</ele>
        <time>2022-07-19T10:47:42Z</time>
      </trkpt>
      <trkpt lat="44.32023" lon="6.86805">
        <ele>1759.4</ele>
        <time>2022-07-19T10:47:43Z</time>
      </trkpt>
      <trkpt lat="44.32023" lon="6.86804">
        <ele>1759.4</ele>
        <time>2022-07-19T10:47:44Z</time>
      </trkpt>
      <trkpt lat="44.32023" lon="6.86802">
        <ele>1759.8</ele>
        <time>2022-07-19T10:47:45Z</time>
      </trkpt>
      <trkpt lat="44.32023" lon="6.86801">
        <ele>1759.8</ele>
        <time>2022-07-19T10:47:46Z</time>
      </trkpt>
      <trkpt lat="44.32024" lon="6.86799">
        <ele>1759.8</ele>
        <time>2022-07-19T10:47:47Z</time>
      </trkpt>
      <trkpt lat="44.32024" lon="6.86797">
        <ele>1760.2</ele>
        <time>2022-07-19T10:47:48Z</time>
      </trkpt>
      <trkpt lat="44.32024" lon="6.86796">
        <ele>1760.2</ele>
        <time>2022-07-19T10:47:49Z</time>
      </trkpt>
      <trkpt lat="44.32024" lon="6.86794">
        <ele>1760.4</ele>
        <time>2022-07-19T10:47:50Z</time>
      </trkpt>
      <trkpt lat="44.32024" lon="6.86792">
        <ele>1760.4</ele>
        <time>2022-07-19T10:47:51Z</time>
      </trkpt>
      <trkpt lat="44.32024" lon="6.86791">
        <ele>1760.4</ele>
        <time>2022-07-19T10:47:52Z</time>
      </trkpt>
      <trkpt lat="44.32025" lon="6.86789">
        <ele>1760.8</ele>
        <time>2022-07-19T10:47:53Z</time>
      </trkpt>
      <trkpt lat="44.32025" lon="6.86788">
        <ele>1760.8</ele>
        <time>2022-07-19T10:47:54Z</time>
      </trkpt>
      <trkpt lat="44.32025" lon="6.86786">
        <ele>1761</ele>
        <time>2022-07-19T10:47:55Z</time>
      </trkpt>
      <trkpt lat="44.32025" lon="6.86784">
        <ele>1761</ele>
        <time>2022-07-19T10:47:56Z</time>
      </trkpt>
      <trkpt lat="44.32026" lon="6.86783">
        <ele>1761.2</ele>
        <time>2022-07-19T10:47:57Z</time>
      </trkpt>
      <trkpt lat="44.32026" lon="6.86781">
        <ele>1761.2</ele>
        <time>2022-07-19T10:47:58Z</time>
      </trkpt>
      <trkpt lat="44.32026" lon="6.86779">
        <ele>1761.4</ele>
        <time>2022-07-19T10:47:59Z</time>
      </trkpt>
      <trkpt lat="44.32026" lon="6.86778">
        <ele>1761.4</ele>
        <time>2022-07-19T10:48:00Z</time>
      </trkpt>
      <trkpt lat="44.32026" lon="6.86776">
        <ele>1761.4</ele>
        <time>2022-07-19T10:48:01Z</time>
      </trkpt>
      <trkpt lat="44.32027" lon="6.86774">
        <ele>1761.6</ele>
        <time>2022-07-19T10:48:02Z</time>
      </trkpt>
      <trkpt lat="44.32027" lon="6.86772">
        <ele>1761.6</ele>
        <time>2022-07-19T10:48:03Z</time>
      </trkpt>
      <trkpt lat="44.32027" lon="6.86771">
        <ele>1761.6</ele>
        <time>2022-07-19T10:48:04Z</time>
      </trkpt>
      <trkpt lat="44.32027" lon="6.86769">
        <ele>1761.8</ele>
        <time>2022-07-19T10:48:05Z</time>
      </trkpt>
      <trkpt lat="44.32027" lon="6.86767">
        <ele>1761.8</ele>
        <time>2022-07-19T10:48:06Z</time>
      </trkpt>
      <trkpt lat="44.32027" lon="6.86766">
        <ele>1761.8</ele>
        <time>2022-07-19T10:48:07Z</time>
      </trkpt>
      <trkpt lat="44.32028" lon="6.86764">
        <ele>1762.2</ele>
        <time>2022-07-19T10:48:08Z</time>
      </trkpt>
      <trkpt lat="44.32028" lon="6.86762">
        <ele>1762.2</ele>
        <time>2022-07-19T10:48:09Z</time>
      </trkpt>
      <trkpt lat="44.32028" lon="6.86761">
        <ele>1762.4</ele>
        <time>2022-07-19T10:48:10Z</time>
      </trkpt>
      <trkpt lat="44.32028" lon="6.86759">
        <ele>1762.4</ele>
        <time>2022-07-19T10:48:11Z</time>
      </trkpt>
      <trkpt lat="44.32028" lon="6.86758">
        <ele>1762.6</ele>
        <time>2022-07-19T10:48:12Z</time>
      </trkpt>
      <trkpt lat="44.32028" lon="6.86756">
        <ele>1762.6</ele>
        <time>2022-07-19T10:48:13Z</time>
      </trkpt>
      <trkpt lat="44.32028" lon="6.86754">
        <ele>1762.6</ele>
        <time>2022-07-19T10:48:14Z</time>
      </trkpt>
      <trkpt lat="44.32028" lon="6.86753">
        <ele>1763</ele>
        <time>2022-07-19T10:48:15Z</time>
      </trkpt>
      <trkpt lat="44.32029" lon="6.86751">
        <ele>1763</ele>
        <time>2022-07-19T10:48:16Z</time>
      </trkpt>
      <trkpt lat="44.32029" lon="6.8675">
        <ele>1763</ele>
        <time>2022-07-19T10:48:17Z</time>
      </trkpt>
      <trkpt lat="44.3203" lon="6.86748">
        <ele>1763.2</ele>
        <time>2022-07-19T10:48:18Z</time>
      </trkpt>
      <trkpt lat="44.3203" lon="6.86746">
        <ele>1763.2</ele>
        <time>2022-07-19T10:48:19Z</time>
      </trkpt>
      <trkpt lat="44.3203" lon="6.86745">
        <ele>1763.4</ele>
        <time>2022-07-19T10:48:20Z</time>
      </trkpt>
      <trkpt lat="44.3203" lon="6.86743">
        <ele>1763.4</ele>
        <time>2022-07-19T10:48:21Z</time>
      </trkpt>
      <trkpt lat="44.32031" lon="6.86741">
        <ele>1763.8</ele>
        <time>2022-07-19T10:48:22Z</time>
      </trkpt>
      <trkpt lat="44.32031" lon="6.86739">
        <ele>1763.8</ele>
        <time>2022-07-19T10:48:23Z</time>
      </trkpt>
      <trkpt lat="44.32031" lon="6.86738">
        <ele>1764</ele>
        <time>2022-07-19T10:48:24Z</time>
      </trkpt>
      <trkpt lat="44.32031" lon="6.86736">
        <ele>1764</ele>
        <time>2022-07-19T10:48:25Z</time>
      </trkpt>
      <trkpt lat="44.32031" lon="6.86735">
        <ele>1764</ele>
        <time>2022-07-19T10:48:26Z</time>
      </trkpt>
      <trkpt lat="44.32031" lon="6.86733">
        <ele>1764.4</ele>
        <time>2022-07-19T10:48:27Z</time>
      </trkpt>
      <trkpt lat="44.32031" lon="6.86731">
        <ele>1764.4</ele>
        <time>2022-07-19T10:48:28Z</time>
      </trkpt>
      <trkpt lat="44.32032" lon="6.8673">
        <ele>1764.6</ele>
        <time>2022-07-19T10:48:29Z</time>
      </trkpt>
      <trkpt lat="44.32032" lon="6.86728">
        <ele>1764.6</ele>
        <time>2022-07-19T10:48:30Z</time>
      </trkpt>
      <trkpt lat="44.32032" lon="6.86727">
        <ele>1764.6</ele>
        <time>2022-07-19T10:48:31Z</time>
      </trkpt>
      <trkpt lat="44.32033" lon="6.86725">
        <ele>1764.6</ele>
        <time>2022-07-19T10:48:32Z</time>
      </trkpt>
      <trkpt lat="44.32033" lon="6.86724">
        <ele>1764.6</ele>
        <time>2022-07-19T10:48:33Z</time>
      </trkpt>
      <trkpt lat="44.32034" lon="6.86722">
        <ele>1764.8</ele>
        <time>2022-07-19T10:48:34Z</time>
      </trkpt>
      <trkpt lat="44.32034" lon="6.86721">
        <ele>1764.8</ele>
        <time>2022-07-19T10:48:35Z</time>
      </trkpt>
      <trkpt lat="44.32034" lon="6.86719">
        <ele>1764.8</ele>
        <time>2022-07-19T10:48:36Z</time>
      </trkpt>
      <trkpt lat="44.32035" lon="6.86717">
        <ele>1765.2</ele>
        <time>2022-07-19T10:48:37Z</time>
      </trkpt>
      <trkpt lat="44.32035" lon="6.86716">
        <ele>1765.2</ele>
        <time>2022-07-19T10:48:38Z</time>
      </trkpt>
      <trkpt lat="44.32035" lon="6.86714">
        <ele>1765.4</ele>
        <time>2022-07-19T10:48:39Z</time>
      </trkpt>
      <trkpt lat="44.32035" lon="6.86713">
        <ele>1765.4</ele>
        <time>2022-07-19T10:48:40Z</time>
      </trkpt>
      <trkpt lat="44.32036" lon="6.86711">
        <ele>1765.6</ele>
        <time>2022-07-19T10:48:41Z</time>
      </trkpt>
      <trkpt lat="44.32036" lon="6.8671">
        <ele>1765.6</ele>
        <time>2022-07-19T10:48:42Z</time>
      </trkpt>
      <trkpt lat="44.32037" lon="6.86708">
        <ele>1765.8</ele>
        <time>2022-07-19T10:48:43Z</time>
      </trkpt>
      <trkpt lat="44.32037" lon="6.86707">
        <ele>1765.8</ele>
        <time>2022-07-19T10:48:44Z</time>
      </trkpt>
      <trkpt lat="44.32037" lon="6.86705">
        <ele>1766.2</ele>
        <time>2022-07-19T10:48:45Z</time>
      </trkpt>
      <trkpt lat="44.32038" lon="6.86703">
        <ele>1766.2</ele>
        <time>2022-07-19T10:48:46Z</time>
      </trkpt>
      <trkpt lat="44.32038" lon="6.86702">
        <ele>1766.4</ele>
        <time>2022-07-19T10:48:47Z</time>
      </trkpt>
      <trkpt lat="44.32038" lon="6.867">
        <ele>1766.4</ele>
        <time>2022-07-19T10:48:48Z</time>
      </trkpt>
      <trkpt lat="44.32039" lon="6.86698">
        <ele>1766.6</ele>
        <time>2022-07-19T10:48:49Z</time>
      </trkpt>
      <trkpt lat="44.32039" lon="6.86697">
        <ele>1766.6</ele>
        <time>2022-07-19T10:48:50Z</time>
      </trkpt>
      <trkpt lat="44.3204" lon="6.86695">
        <ele>1766.8</ele>
        <time>2022-07-19T10:48:51Z</time>
      </trkpt>
      <trkpt lat="44.3204" lon="6.86694">
        <ele>1766.8</ele>
        <time>2022-07-19T10:48:52Z</time>
      </trkpt>
      <trkpt lat="44.32041" lon="6.86692">
        <ele>1767</ele>
        <time>2022-07-19T10:48:53Z</time>
      </trkpt>
      <trkpt lat="44.32041" lon="6.86691">
        <ele>1767</ele>
        <time>2022-07-19T10:48:54Z</time>
      </trkpt>
      <trkpt lat="44.32041" lon="6.86689">
        <ele>1767.2</ele>
        <time>2022-07-19T10:48:55Z</time>
      </trkpt>
      <trkpt lat="44.32042" lon="6.86688">
        <ele>1767.4</ele>
        <time>2022-07-19T10:48:56Z</time>
      </trkpt>
      <trkpt lat="44.32042" lon="6.86686">
        <ele>1767.4</ele>
        <time>2022-07-19T10:48:57Z</time>
      </trkpt>
      <trkpt lat="44.32042" lon="6.86685">
        <ele>1767.8</ele>
        <time>2022-07-19T10:48:58Z</time>
      </trkpt>
      <trkpt lat="44.32043" lon="6.86683">
        <ele>1767.8</ele>
        <time>2022-07-19T10:48:59Z</time>
      </trkpt>
      <trkpt lat="44.32043" lon="6.86682">
        <ele>1768</ele>
        <time>2022-07-19T10:49:00Z</time>
      </trkpt>
      <trkpt lat="44.32043" lon="6.8668">
        <ele>1768</ele>
        <time>2022-07-19T10:49:01Z</time>
      </trkpt>
      <trkpt lat="44.32044" lon="6.86679">
        <ele>1768</ele>
        <time>2022-07-19T10:49:02Z</time>
      </trkpt>
      <trkpt lat="44.32044" lon="6.86677">
        <ele>1768.2</ele>
        <time>2022-07-19T10:49:03Z</time>
      </trkpt>
      <trkpt lat="44.32044" lon="6.86676">
        <ele>1768.2</ele>
        <time>2022-07-19T10:49:04Z</time>
      </trkpt>
      <trkpt lat="44.32045" lon="6.86674">
        <ele>1768.4</ele>
        <time>2022-07-19T10:49:05Z</time>
      </trkpt>
      <trkpt lat="44.32045" lon="6.86673">
        <ele>1768.4</ele>
        <time>2022-07-19T10:49:06Z</time>
      </trkpt>
      <trkpt lat="44.32045" lon="6.86671">
        <ele>1768.4</ele>
        <time>2022-07-19T10:49:07Z</time>
      </trkpt>
      <trkpt lat="44.32045" lon="6.8667">
        <ele>1768.8</ele>
        <time>2022-07-19T10:49:08Z</time>
      </trkpt>
      <trkpt lat="44.32046" lon="6.86668">
        <ele>1768.8</ele>
        <time>2022-07-19T10:49:09Z</time>
      </trkpt>
      <trkpt lat="44.32046" lon="6.86667">
        <ele>1768.8</ele>
        <time>2022-07-19T10:49:10Z</time>
      </trkpt>
      <trkpt lat="44.32046" lon="6.86665">
        <ele>1769</ele>
        <time>2022-07-19T10:49:11Z</time>
      </trkpt>
      <trkpt lat="44.32047" lon="6.86663">
        <ele>1769</ele>
        <time>2022-07-19T10:49:12Z</time>
      </trkpt>
      <trkpt lat="44.32047" lon="6.86662">
        <ele>1769</ele>
        <time>2022-07-19T10:49:13Z</time>
      </trkpt>
      <trkpt lat="44.32048" lon="6.8666">
        <ele>1769.4</ele>
        <time>2022-07-19T10:49:14Z</time>
      </trkpt>
      <trkpt lat="44.32048" lon="6.86659">
        <ele>1769.4</ele>
        <time>2022-07-19T10:49:15Z</time>
      </trkpt>
      <trkpt lat="44.32048" lon="6.86657">
        <ele>1769.6</ele>
        <time>2022-07-19T10:49:16Z</time>
      </trkpt>
      <trkpt lat="44.32049" lon="6.86656">
        <ele>1769.6</ele>
        <time>2022-07-19T10:49:17Z</time>
      </trkpt>
      <trkpt lat="44.32049" lon="6.86654">
        <ele>1769.8</ele>
        <time>2022-07-19T10:49:18Z</time>
      </trkpt>
      <trkpt lat="44.32049" lon="6.86653">
        <ele>1769.8</ele>
        <time>2022-07-19T10:49:19Z</time>
      </trkpt>
      <trkpt lat="44.3205" lon="6.86651">
        <ele>1769.8</ele>
        <time>2022-07-19T10:49:20Z</time>
      </trkpt>
      <trkpt lat="44.3205" lon="6.8665">
        <ele>1770</ele>
        <time>2022-07-19T10:49:21Z</time>
      </trkpt>
      <trkpt lat="44.32051" lon="6.86649">
        <ele>1770</ele>
        <time>2022-07-19T10:49:22Z</time>
      </trkpt>
      <trkpt lat="44.32051" lon="6.86648">
        <ele>1770.2</ele>
        <time>2022-07-19T10:49:23Z</time>
      </trkpt>
      <trkpt lat="44.32052" lon="6.86646">
        <ele>1770.2</ele>
        <time>2022-07-19T10:49:24Z</time>
      </trkpt>
      <trkpt lat="44.32052" lon="6.86645">
        <ele>1770.2</ele>
        <time>2022-07-19T10:49:25Z</time>
      </trkpt>
      <trkpt lat="44.32053" lon="6.86643">
        <ele>1770.4</ele>
        <time>2022-07-19T10:49:26Z</time>
      </trkpt>
      <trkpt lat="44.32053" lon="6.86642">
        <ele>1770.4</ele>
        <time>2022-07-19T10:49:27Z</time>
      </trkpt>
      <trkpt lat="44.32054" lon="6.8664">
        <ele>1770.8</ele>
        <time>2022-07-19T10:49:28Z</time>
      </trkpt>
      <trkpt lat="44.32054" lon="6.86639">
        <ele>1770.8</ele>
        <time>2022-07-19T10:49:29Z</time>
      </trkpt>
      <trkpt lat="44.32055" lon="6.86638">
        <ele>1770.8</ele>
        <time>2022-07-19T10:49:30Z</time>
      </trkpt>
      <trkpt lat="44.32055" lon="6.86636">
        <ele>1771</ele>
        <time>2022-07-19T10:49:31Z</time>
      </trkpt>
      <trkpt lat="44.32056" lon="6.86635">
        <ele>1771</ele>
        <time>2022-07-19T10:49:32Z</time>
      </trkpt>
      <trkpt lat="44.32056" lon="6.86633">
        <ele>1771.2</ele>
        <time>2022-07-19T10:49:33Z</time>
      </trkpt>
      <trkpt lat="44.32057" lon="6.86632">
        <ele>1771.2</ele>
        <time>2022-07-19T10:49:34Z</time>
      </trkpt>
      <trkpt lat="44.32057" lon="6.8663">
        <ele>1771.2</ele>
        <time>2022-07-19T10:49:35Z</time>
      </trkpt>
      <trkpt lat="44.32058" lon="6.86629">
        <ele>1771.4</ele>
        <time>2022-07-19T10:49:36Z</time>
      </trkpt>
      <trkpt lat="44.32058" lon="6.86627">
        <ele>1771.4</ele>
        <time>2022-07-19T10:49:37Z</time>
      </trkpt>
      <trkpt lat="44.32059" lon="6.86626">
        <ele>1771.4</ele>
        <time>2022-07-19T10:49:38Z</time>
      </trkpt>
      <trkpt lat="44.32059" lon="6.86625">
        <ele>1771.8</ele>
        <time>2022-07-19T10:49:39Z</time>
      </trkpt>
      <trkpt lat="44.3206" lon="6.86623">
        <ele>1771.8</ele>
        <time>2022-07-19T10:49:40Z</time>
      </trkpt>
      <trkpt lat="44.3206" lon="6.86622">
        <ele>1771.8</ele>
        <time>2022-07-19T10:49:41Z</time>
      </trkpt>
      <trkpt lat="44.32061" lon="6.8662">
        <ele>1771.8</ele>
        <time>2022-07-19T10:49:42Z</time>
      </trkpt>
      <trkpt lat="44.32062" lon="6.86619">
        <ele>1772.2</ele>
        <time>2022-07-19T10:49:43Z</time>
      </trkpt>
      <trkpt lat="44.32062" lon="6.86617">
        <ele>1772.2</ele>
        <time>2022-07-19T10:49:44Z</time>
      </trkpt>
      <trkpt lat="44.32063" lon="6.86616">
        <ele>1772.2</ele>
        <time>2022-07-19T10:49:45Z</time>
      </trkpt>
      <trkpt lat="44.32063" lon="6.86614">
        <ele>1772.4</ele>
        <time>2022-07-19T10:49:46Z</time>
      </trkpt>
      <trkpt lat="44.32064" lon="6.86613">
        <ele>1772.4</ele>
        <time>2022-07-19T10:49:47Z</time>
      </trkpt>
      <trkpt lat="44.32064" lon="6.86612">
        <ele>1772.6</ele>
        <time>2022-07-19T10:49:48Z</time>
      </trkpt>
      <trkpt lat="44.32065" lon="6.8661">
        <ele>1772.6</ele>
        <time>2022-07-19T10:49:49Z</time>
      </trkpt>
      <trkpt lat="44.32066" lon="6.86609">
        <ele>1772.6</ele>
        <time>2022-07-19T10:49:50Z</time>
      </trkpt>
      <trkpt lat="44.32066" lon="6.86607">
        <ele>1772.6</ele>
        <time>2022-07-19T10:49:51Z</time>
      </trkpt>
      <trkpt lat="44.32066" lon="6.86606">
        <ele>1772.8</ele>
        <time>2022-07-19T10:49:52Z</time>
      </trkpt>
      <trkpt lat="44.32067" lon="6.86604">
        <ele>1772.8</ele>
        <time>2022-07-19T10:49:53Z</time>
      </trkpt>
      <trkpt lat="44.32067" lon="6.86603">
        <ele>1772.8</ele>
        <time>2022-07-19T10:49:54Z</time>
      </trkpt>
      <trkpt lat="44.32067" lon="6.86601">
        <ele>1773.2</ele>
        <time>2022-07-19T10:49:55Z</time>
      </trkpt>
      <trkpt lat="44.32068" lon="6.866">
        <ele>1773.2</ele>
        <time>2022-07-19T10:49:56Z</time>
      </trkpt>
      <trkpt lat="44.32068" lon="6.86598">
        <ele>1773.4</ele>
        <time>2022-07-19T10:49:57Z</time>
      </trkpt>
      <trkpt lat="44.32069" lon="6.86597">
        <ele>1773.4</ele>
        <time>2022-07-19T10:49:58Z</time>
      </trkpt>
      <trkpt lat="44.32069" lon="6.86595">
        <ele>1773.6</ele>
        <time>2022-07-19T10:50:00Z</time>
      </trkpt>
      <trkpt lat="44.32069" lon="6.86594">
        <ele>1773.8</ele>
        <time>2022-07-19T10:50:01Z</time>
      </trkpt>
      <trkpt lat="44.3207" lon="6.86592">
        <ele>1773.8</ele>
        <time>2022-07-19T10:50:02Z</time>
      </trkpt>
      <trkpt lat="44.3207" lon="6.86591">
        <ele>1773.8</ele>
        <time>2022-07-19T10:50:03Z</time>
      </trkpt>
      <trkpt lat="44.3207" lon="6.8659">
        <ele>1774.2</ele>
        <time>2022-07-19T10:50:04Z</time>
      </trkpt>
      <trkpt lat="44.32071" lon="6.86588">
        <ele>1774.2</ele>
        <time>2022-07-19T10:50:05Z</time>
      </trkpt>
      <trkpt lat="44.32071" lon="6.86587">
        <ele>1774.2</ele>
        <time>2022-07-19T10:50:06Z</time>
      </trkpt>
      <trkpt lat="44.32072" lon="6.86586">
        <ele>1774.2</ele>
        <time>2022-07-19T10:50:07Z</time>
      </trkpt>
      <trkpt lat="44.32072" lon="6.86585">
        <ele>1774.4</ele>
        <time>2022-07-19T10:50:08Z</time>
      </trkpt>
      <trkpt lat="44.32073" lon="6.86583">
        <ele>1774.4</ele>
        <time>2022-07-19T10:50:09Z</time>
      </trkpt>
      <trkpt lat="44.32073" lon="6.86582">
        <ele>1774.8</ele>
        <time>2022-07-19T10:50:10Z</time>
      </trkpt>
      <trkpt lat="44.32074" lon="6.86581">
        <ele>1774.8</ele>
        <time>2022-07-19T10:50:11Z</time>
      </trkpt>
      <trkpt lat="44.32074" lon="6.86579">
        <ele>1774.8</ele>
        <time>2022-07-19T10:50:12Z</time>
      </trkpt>
      <trkpt lat="44.32075" lon="6.86578">
        <ele>1775</ele>
        <time>2022-07-19T10:50:13Z</time>
      </trkpt>
      <trkpt lat="44.32075" lon="6.86577">
        <ele>1775</ele>
        <time>2022-07-19T10:50:14Z</time>
      </trkpt>
      <trkpt lat="44.32076" lon="6.86575">
        <ele>1775.2</ele>
        <time>2022-07-19T10:50:15Z</time>
      </trkpt>
      <trkpt lat="44.32076" lon="6.86574">
        <ele>1775.2</ele>
        <time>2022-07-19T10:50:16Z</time>
      </trkpt>
      <trkpt lat="44.32077" lon="6.86573">
        <ele>1775.2</ele>
        <time>2022-07-19T10:50:17Z</time>
      </trkpt>
      <trkpt lat="44.32078" lon="6.86572">
        <ele>1775.2</ele>
        <time>2022-07-19T10:50:18Z</time>
      </trkpt>
      <trkpt lat="44.32078" lon="6.8657">
        <ele>1775.6</ele>
        <time>2022-07-19T10:50:19Z</time>
      </trkpt>
      <trkpt lat="44.32079" lon="6.86569">
        <ele>1775.6</ele>
        <time>2022-07-19T10:50:20Z</time>
      </trkpt>
      <trkpt lat="44.3208" lon="6.86568">
        <ele>1775.6</ele>
        <time>2022-07-19T10:50:21Z</time>
      </trkpt>
      <trkpt lat="44.3208" lon="6.86567">
        <ele>1775.8</ele>
        <time>2022-07-19T10:50:22Z</time>
      </trkpt>
      <trkpt lat="44.32081" lon="6.86566">
        <ele>1775.8</ele>
        <time>2022-07-19T10:50:23Z</time>
      </trkpt>
      <trkpt lat="44.32081" lon="6.86565">
        <ele>1776</ele>
        <time>2022-07-19T10:50:24Z</time>
      </trkpt>
      <trkpt lat="44.32082" lon="6.86564">
        <ele>1776</ele>
        <time>2022-07-19T10:50:25Z</time>
      </trkpt>
      <trkpt lat="44.32083" lon="6.86563">
        <ele>1776</ele>
        <time>2022-07-19T10:50:26Z</time>
      </trkpt>
      <trkpt lat="44.32084" lon="6.86562">
        <ele>1776.4</ele>
        <time>2022-07-19T10:50:27Z</time>
      </trkpt>
      <trkpt lat="44.32085" lon="6.86561">
        <ele>1776.4</ele>
        <time>2022-07-19T10:50:28Z</time>
      </trkpt>
      <trkpt lat="44.32086" lon="6.8656">
        <ele>1776.6</ele>
        <time>2022-07-19T10:50:29Z</time>
      </trkpt>
      <trkpt lat="44.32087" lon="6.86559">
        <ele>1776.6</ele>
        <time>2022-07-19T10:50:30Z</time>
      </trkpt>
      <trkpt lat="44.32088" lon="6.86558">
        <ele>1776.8</ele>
        <time>2022-07-19T10:50:31Z</time>
      </trkpt>
      <trkpt lat="44.32088" lon="6.86557">
        <ele>1776.8</ele>
        <time>2022-07-19T10:50:32Z</time>
      </trkpt>
      <trkpt lat="44.32089" lon="6.86556">
        <ele>1777</ele>
        <time>2022-07-19T10:50:33Z</time>
      </trkpt>
      <trkpt lat="44.3209" lon="6.86555">
        <ele>1777</ele>
        <time>2022-07-19T10:50:34Z</time>
      </trkpt>
      <trkpt lat="44.32091" lon="6.86554">
        <ele>1777.4</ele>
        <time>2022-07-19T10:50:35Z</time>
      </trkpt>
      <trkpt lat="44.32092" lon="6.86554">
        <ele>1777.4</ele>
        <time>2022-07-19T10:50:36Z</time>
      </trkpt>
      <trkpt lat="44.32092" lon="6.86553">
        <ele>1777.6</ele>
        <time>2022-07-19T10:50:37Z</time>
      </trkpt>
      <trkpt lat="44.32093" lon="6.86552">
        <ele>1777.6</ele>
        <time>2022-07-19T10:50:38Z</time>
      </trkpt>
      <trkpt lat="44.32094" lon="6.86551">
        <ele>1777.6</ele>
        <time>2022-07-19T10:50:39Z</time>
      </trkpt>
      <trkpt lat="44.32095" lon="6.8655">
        <ele>1777.8</ele>
        <time>2022-07-19T10:50:40Z</time>
      </trkpt>
      <trkpt lat="44.32096" lon="6.86549">
        <ele>1777.8</ele>
        <time>2022-07-19T10:50:41Z</time>
      </trkpt>
      <trkpt lat="44.32096" lon="6.86548">
        <ele>1778.2</ele>
        <time>2022-07-19T10:50:42Z</time>
      </trkpt>
      <trkpt lat="44.32097" lon="6.86547">
        <ele>1778.2</ele>
        <time>2022-07-19T10:50:43Z</time>
      </trkpt>
      <trkpt lat="44.32098" lon="6.86546">
        <ele>1778.2</ele>
        <time>2022-07-19T10:50:44Z</time>
      </trkpt>
      <trkpt lat="44.32098" lon="6.86545">
        <ele>1778.4</ele>
        <time>2022-07-19T10:50:45Z</time>
      </trkpt>
      <trkpt lat="44.32099" lon="6.86544">
        <ele>1778.4</ele>
        <time>2022-07-19T10:50:46Z</time>
      </trkpt>
      <trkpt lat="44.32099" lon="6.86544">
        <ele>1778.4</ele>
        <time>2022-07-19T10:50:47Z</time>
      </trkpt>
      <trkpt lat="44.321" lon="6.86541">
        <ele>1778.6</ele>
        <time>2022-07-19T10:50:49Z</time>
      </trkpt>
      <trkpt lat="44.321" lon="6.8654">
        <ele>1778.6</ele>
        <time>2022-07-19T10:50:50Z</time>
      </trkpt>
      <trkpt lat="44.321" lon="6.86538">
        <ele>1778.8</ele>
        <time>2022-07-19T10:50:51Z</time>
      </trkpt>
      <trkpt lat="44.32101" lon="6.86537">
        <ele>1778.8</ele>
        <time>2022-07-19T10:50:52Z</time>
      </trkpt>
      <trkpt lat="44.32101" lon="6.86536">
        <ele>1778.8</ele>
        <time>2022-07-19T10:50:53Z</time>
      </trkpt>
      <trkpt lat="44.32101" lon="6.86535">
        <ele>1778.8</ele>
        <time>2022-07-19T10:50:54Z</time>
      </trkpt>
      <trkpt lat="44.32101" lon="6.86534">
        <ele>1778.8</ele>
        <time>2022-07-19T10:50:55Z</time>
      </trkpt>
      <trkpt lat="44.32101" lon="6.86534">
        <ele>1779.2</ele>
        <time>2022-07-19T10:51:00Z</time>
      </trkpt>
      <trkpt lat="44.321" lon="6.86531">
        <ele>1779.4</ele>
        <time>2022-07-19T10:51:05Z</time>
      </trkpt>
      <trkpt lat="44.321" lon="6.86529">
        <ele>1779.4</ele>
        <time>2022-07-19T10:51:06Z</time>
      </trkpt>
      <trkpt lat="44.32099" lon="6.86527">
        <ele>1779.4</ele>
        <time>2022-07-19T10:51:07Z</time>
      </trkpt>
      <trkpt lat="44.32099" lon="6.86525">
        <ele>1779.6</ele>
        <time>2022-07-19T10:51:08Z</time>
      </trkpt>
      <trkpt lat="44.32099" lon="6.86524">
        <ele>1779.6</ele>
        <time>2022-07-19T10:51:09Z</time>
      </trkpt>
      <trkpt lat="44.32099" lon="6.86522">
        <ele>1779.6</ele>
        <time>2022-07-19T10:51:10Z</time>
      </trkpt>
      <trkpt lat="44.32099" lon="6.8652">
        <ele>1779.6</ele>
        <time>2022-07-19T10:51:11Z</time>
      </trkpt>
      <trkpt lat="44.32099" lon="6.86517">
        <ele>1779.8</ele>
        <time>2022-07-19T10:51:12Z</time>
      </trkpt>
      <trkpt lat="44.32099" lon="6.86515">
        <ele>1779.8</ele>
        <time>2022-07-19T10:51:13Z</time>
      </trkpt>
      <trkpt lat="44.32099" lon="6.86513">
        <ele>1780.2</ele>
        <time>2022-07-19T10:51:14Z</time>
      </trkpt>
      <trkpt lat="44.32099" lon="6.8651">
        <ele>1780.2</ele>
        <time>2022-07-19T10:51:15Z</time>
      </trkpt>
      <trkpt lat="44.32099" lon="6.86509">
        <ele>1780.6</ele>
        <time>2022-07-19T10:51:16Z</time>
      </trkpt>
      <trkpt lat="44.32099" lon="6.86507">
        <ele>1780.6</ele>
        <time>2022-07-19T10:51:17Z</time>
      </trkpt>
      <trkpt lat="44.32099" lon="6.86505">
        <ele>1780.8</ele>
        <time>2022-07-19T10:51:18Z</time>
      </trkpt>
      <trkpt lat="44.32099" lon="6.86502">
        <ele>1780.8</ele>
        <time>2022-07-19T10:51:19Z</time>
      </trkpt>
      <trkpt lat="44.32099" lon="6.865">
        <ele>1781</ele>
        <time>2022-07-19T10:51:20Z</time>
      </trkpt>
      <trkpt lat="44.32099" lon="6.86498">
        <ele>1781.4</ele>
        <time>2022-07-19T10:51:21Z</time>
      </trkpt>
      <trkpt lat="44.32099" lon="6.86495">
        <ele>1781.6</ele>
        <time>2022-07-19T10:51:22Z</time>
      </trkpt>
      <trkpt lat="44.32099" lon="6.86492">
        <ele>1781.8</ele>
        <time>2022-07-19T10:51:23Z</time>
      </trkpt>
      <trkpt lat="44.32099" lon="6.86489">
        <ele>1782</ele>
        <time>2022-07-19T10:51:24Z</time>
      </trkpt>
      <trkpt lat="44.321" lon="6.86487">
        <ele>1782.2</ele>
        <time>2022-07-19T10:51:25Z</time>
      </trkpt>
      <trkpt lat="44.321" lon="6.86484">
        <ele>1782.4</ele>
        <time>2022-07-19T10:51:26Z</time>
      </trkpt>
      <trkpt lat="44.321" lon="6.86481">
        <ele>1782.6</ele>
        <time>2022-07-19T10:51:27Z</time>
      </trkpt>
      <trkpt lat="44.32101" lon="6.86479">
        <ele>1782.6</ele>
        <time>2022-07-19T10:51:28Z</time>
      </trkpt>
      <trkpt lat="44.32101" lon="6.86477">
        <ele>1783.2</ele>
        <time>2022-07-19T10:51:29Z</time>
      </trkpt>
      <trkpt lat="44.32102" lon="6.86474">
        <ele>1783.2</ele>
        <time>2022-07-19T10:51:30Z</time>
      </trkpt>
      <trkpt lat="44.32103" lon="6.86472">
        <ele>1783.2</ele>
        <time>2022-07-19T10:51:31Z</time>
      </trkpt>
      <trkpt lat="44.32103" lon="6.8647">
        <ele>1783.6</ele>
        <time>2022-07-19T10:51:32Z</time>
      </trkpt>
      <trkpt lat="44.32104" lon="6.86468">
        <ele>1783.6</ele>
        <time>2022-07-19T10:51:33Z</time>
      </trkpt>
      <trkpt lat="44.32105" lon="6.86466">
        <ele>1783.8</ele>
        <time>2022-07-19T10:51:34Z</time>
      </trkpt>
      <trkpt lat="44.32106" lon="6.86464">
        <ele>1784</ele>
        <time>2022-07-19T10:51:35Z</time>
      </trkpt>
      <trkpt lat="44.32106" lon="6.86462">
        <ele>1784.4</ele>
        <time>2022-07-19T10:51:36Z</time>
      </trkpt>
      <trkpt lat="44.32107" lon="6.8646">
        <ele>1784.4</ele>
        <time>2022-07-19T10:51:37Z</time>
      </trkpt>
      <trkpt lat="44.32108" lon="6.86458">
        <ele>1784.6</ele>
        <time>2022-07-19T10:51:38Z</time>
      </trkpt>
      <trkpt lat="44.32108" lon="6.86456">
        <ele>1784.6</ele>
        <time>2022-07-19T10:51:39Z</time>
      </trkpt>
      <trkpt lat="44.32109" lon="6.86454">
        <ele>1785</ele>
        <time>2022-07-19T10:51:40Z</time>
      </trkpt>
      <trkpt lat="44.32109" lon="6.86452">
        <ele>1785</ele>
        <time>2022-07-19T10:51:41Z</time>
      </trkpt>
      <trkpt lat="44.32109" lon="6.8645">
        <ele>1785.4</ele>
        <time>2022-07-19T10:51:42Z</time>
      </trkpt>
      <trkpt lat="44.3211" lon="6.86448">
        <ele>1785.4</ele>
        <time>2022-07-19T10:51:43Z</time>
      </trkpt>
      <trkpt lat="44.3211" lon="6.86446">
        <ele>1785.6</ele>
        <time>2022-07-19T10:51:44Z</time>
      </trkpt>
      <trkpt lat="44.3211" lon="6.86444">
        <ele>1785.6</ele>
        <time>2022-07-19T10:51:45Z</time>
      </trkpt>
      <trkpt lat="44.32111" lon="6.86441">
        <ele>1785.8</ele>
        <time>2022-07-19T10:51:46Z</time>
      </trkpt>
      <trkpt lat="44.32111" lon="6.86439">
        <ele>1785.8</ele>
        <time>2022-07-19T10:51:47Z</time>
      </trkpt>
      <trkpt lat="44.32111" lon="6.86437">
        <ele>1786.2</ele>
        <time>2022-07-19T10:51:48Z</time>
      </trkpt>
      <trkpt lat="44.32112" lon="6.86435">
        <ele>1786.2</ele>
        <time>2022-07-19T10:51:49Z</time>
      </trkpt>
      <trkpt lat="44.32112" lon="6.86433">
        <ele>1786.6</ele>
        <time>2022-07-19T10:51:50Z</time>
      </trkpt>
      <trkpt lat="44.32112" lon="6.8643">
        <ele>1786.6</ele>
        <time>2022-07-19T10:51:51Z</time>
      </trkpt>
      <trkpt lat="44.32112" lon="6.86427">
        <ele>1786.8</ele>
        <time>2022-07-19T10:51:52Z</time>
      </trkpt>
      <trkpt lat="44.32112" lon="6.86425">
        <ele>1786.8</ele>
        <time>2022-07-19T10:51:53Z</time>
      </trkpt>
      <trkpt lat="44.32112" lon="6.86423">
        <ele>1787</ele>
        <time>2022-07-19T10:51:54Z</time>
      </trkpt>
      <trkpt lat="44.32112" lon="6.8642">
        <ele>1787</ele>
        <time>2022-07-19T10:51:55Z</time>
      </trkpt>
      <trkpt lat="44.32113" lon="6.86418">
        <ele>1787.2</ele>
        <time>2022-07-19T10:51:56Z</time>
      </trkpt>
      <trkpt lat="44.32112" lon="6.86416">
        <ele>1787.2</ele>
        <time>2022-07-19T10:51:57Z</time>
      </trkpt>
      <trkpt lat="44.32113" lon="6.86414">
        <ele>1787.6</ele>
        <time>2022-07-19T10:51:58Z</time>
      </trkpt>
      <trkpt lat="44.32113" lon="6.86412">
        <ele>1787.6</ele>
        <time>2022-07-19T10:51:59Z</time>
      </trkpt>
      <trkpt lat="44.32113" lon="6.86409">
        <ele>1787.8</ele>
        <time>2022-07-19T10:52:00Z</time>
      </trkpt>
      <trkpt lat="44.32114" lon="6.86407">
        <ele>1787.8</ele>
        <time>2022-07-19T10:52:01Z</time>
      </trkpt>
      <trkpt lat="44.32114" lon="6.86405">
        <ele>1788</ele>
        <time>2022-07-19T10:52:02Z</time>
      </trkpt>
      <trkpt lat="44.32114" lon="6.86402">
        <ele>1788</ele>
        <time>2022-07-19T10:52:03Z</time>
      </trkpt>
      <trkpt lat="44.32114" lon="6.864">
        <ele>1788.4</ele>
        <time>2022-07-19T10:52:04Z</time>
      </trkpt>
      <trkpt lat="44.32114" lon="6.86397">
        <ele>1788.4</ele>
        <time>2022-07-19T10:52:05Z</time>
      </trkpt>
      <trkpt lat="44.32113" lon="6.86395">
        <ele>1788.6</ele>
        <time>2022-07-19T10:52:06Z</time>
      </trkpt>
      <trkpt lat="44.32113" lon="6.86393">
        <ele>1788.6</ele>
        <time>2022-07-19T10:52:07Z</time>
      </trkpt>
      <trkpt lat="44.32113" lon="6.86391">
        <ele>1788.8</ele>
        <time>2022-07-19T10:52:08Z</time>
      </trkpt>
      <trkpt lat="44.32113" lon="6.86389">
        <ele>1788.8</ele>
        <time>2022-07-19T10:52:09Z</time>
      </trkpt>
      <trkpt lat="44.32113" lon="6.86386">
        <ele>1789</ele>
        <time>2022-07-19T10:52:10Z</time>
      </trkpt>
      <trkpt lat="44.32112" lon="6.86384">
        <ele>1789</ele>
        <time>2022-07-19T10:52:11Z</time>
      </trkpt>
      <trkpt lat="44.32112" lon="6.86382">
        <ele>1789</ele>
        <time>2022-07-19T10:52:12Z</time>
      </trkpt>
      <trkpt lat="44.32112" lon="6.8638">
        <ele>1789</ele>
        <time>2022-07-19T10:52:13Z</time>
      </trkpt>
      <trkpt lat="44.32111" lon="6.86378">
        <ele>1789.4</ele>
        <time>2022-07-19T10:52:14Z</time>
      </trkpt>
      <trkpt lat="44.32111" lon="6.86376">
        <ele>1789.4</ele>
        <time>2022-07-19T10:52:15Z</time>
      </trkpt>
      <trkpt lat="44.32111" lon="6.86373">
        <ele>1789.6</ele>
        <time>2022-07-19T10:52:16Z</time>
      </trkpt>
      <trkpt lat="44.32111" lon="6.86371">
        <ele>1789.6</ele>
        <time>2022-07-19T10:52:17Z</time>
      </trkpt>
      <trkpt lat="44.32111" lon="6.86369">
        <ele>1790</ele>
        <time>2022-07-19T10:52:18Z</time>
      </trkpt>
      <trkpt lat="44.32111" lon="6.86367">
        <ele>1790</ele>
        <time>2022-07-19T10:52:19Z</time>
      </trkpt>
      <trkpt lat="44.3211" lon="6.86365">
        <ele>1790.2</ele>
        <time>2022-07-19T10:52:20Z</time>
      </trkpt>
      <trkpt lat="44.3211" lon="6.86363">
        <ele>1790.2</ele>
        <time>2022-07-19T10:52:21Z</time>
      </trkpt>
      <trkpt lat="44.3211" lon="6.86361">
        <ele>1790.4</ele>
        <time>2022-07-19T10:52:22Z</time>
      </trkpt>
      <trkpt lat="44.32109" lon="6.86359">
        <ele>1790.4</ele>
        <time>2022-07-19T10:52:23Z</time>
      </trkpt>
      <trkpt lat="44.32109" lon="6.86357">
        <ele>1790.8</ele>
        <time>2022-07-19T10:52:24Z</time>
      </trkpt>
      <trkpt lat="44.32109" lon="6.86354">
        <ele>1790.8</ele>
        <time>2022-07-19T10:52:25Z</time>
      </trkpt>
      <trkpt lat="44.32108" lon="6.86352">
        <ele>1791</ele>
        <time>2022-07-19T10:52:26Z</time>
      </trkpt>
      <trkpt lat="44.32108" lon="6.8635">
        <ele>1791</ele>
        <time>2022-07-19T10:52:27Z</time>
      </trkpt>
      <trkpt lat="44.32107" lon="6.86347">
        <ele>1791.2</ele>
        <time>2022-07-19T10:52:28Z</time>
      </trkpt>
      <trkpt lat="44.32107" lon="6.86345">
        <ele>1791.2</ele>
        <time>2022-07-19T10:52:29Z</time>
      </trkpt>
      <trkpt lat="44.32107" lon="6.86343">
        <ele>1791.6</ele>
        <time>2022-07-19T10:52:30Z</time>
      </trkpt>
      <trkpt lat="44.32107" lon="6.86341">
        <ele>1791.6</ele>
        <time>2022-07-19T10:52:31Z</time>
      </trkpt>
      <trkpt lat="44.32107" lon="6.86338">
        <ele>1791.8</ele>
        <time>2022-07-19T10:52:32Z</time>
      </trkpt>
      <trkpt lat="44.32107" lon="6.86336">
        <ele>1791.8</ele>
        <time>2022-07-19T10:52:33Z</time>
      </trkpt>
      <trkpt lat="44.32106" lon="6.86334">
        <ele>1792.2</ele>
        <time>2022-07-19T10:52:34Z</time>
      </trkpt>
      <trkpt lat="44.32106" lon="6.86332">
        <ele>1792.2</ele>
        <time>2022-07-19T10:52:35Z</time>
      </trkpt>
      <trkpt lat="44.32105" lon="6.8633">
        <ele>1792.4</ele>
        <time>2022-07-19T10:52:36Z</time>
      </trkpt>
      <trkpt lat="44.32105" lon="6.86327">
        <ele>1792.4</ele>
        <time>2022-07-19T10:52:37Z</time>
      </trkpt>
      <trkpt lat="44.32105" lon="6.86325">
        <ele>1792.8</ele>
        <time>2022-07-19T10:52:38Z</time>
      </trkpt>
      <trkpt lat="44.32105" lon="6.86323">
        <ele>1792.8</ele>
        <time>2022-07-19T10:52:39Z</time>
      </trkpt>
      <trkpt lat="44.32105" lon="6.86321">
        <ele>1793</ele>
        <time>2022-07-19T10:52:40Z</time>
      </trkpt>
      <trkpt lat="44.32105" lon="6.86318">
        <ele>1793</ele>
        <time>2022-07-19T10:52:41Z</time>
      </trkpt>
      <trkpt lat="44.32105" lon="6.86316">
        <ele>1793.4</ele>
        <time>2022-07-19T10:52:42Z</time>
      </trkpt>
      <trkpt lat="44.32105" lon="6.86314">
        <ele>1793.4</ele>
        <time>2022-07-19T10:52:43Z</time>
      </trkpt>
      <trkpt lat="44.32105" lon="6.86311">
        <ele>1793.8</ele>
        <time>2022-07-19T10:52:44Z</time>
      </trkpt>
      <trkpt lat="44.32104" lon="6.86309">
        <ele>1793.8</ele>
        <time>2022-07-19T10:52:45Z</time>
      </trkpt>
      <trkpt lat="44.32105" lon="6.86307">
        <ele>1794</ele>
        <time>2022-07-19T10:52:46Z</time>
      </trkpt>
      <trkpt lat="44.32105" lon="6.86306">
        <ele>1794</ele>
        <time>2022-07-19T10:52:47Z</time>
      </trkpt>
      <trkpt lat="44.32104" lon="6.86304">
        <ele>1794.4</ele>
        <time>2022-07-19T10:52:48Z</time>
      </trkpt>
      <trkpt lat="44.32104" lon="6.86303">
        <ele>1794.4</ele>
        <time>2022-07-19T10:52:49Z</time>
      </trkpt>
      <trkpt lat="44.32103" lon="6.86301">
        <ele>1794.6</ele>
        <time>2022-07-19T10:52:50Z</time>
      </trkpt>
      <trkpt lat="44.32103" lon="6.86299">
        <ele>1794.6</ele>
        <time>2022-07-19T10:52:51Z</time>
      </trkpt>
      <trkpt lat="44.32103" lon="6.86296">
        <ele>1794.8</ele>
        <time>2022-07-19T10:52:52Z</time>
      </trkpt>
      <trkpt lat="44.32102" lon="6.86294">
        <ele>1794.8</ele>
        <time>2022-07-19T10:52:53Z</time>
      </trkpt>
      <trkpt lat="44.32102" lon="6.86292">
        <ele>1795</ele>
        <time>2022-07-19T10:52:54Z</time>
      </trkpt>
      <trkpt lat="44.32103" lon="6.86289">
        <ele>1795</ele>
        <time>2022-07-19T10:52:55Z</time>
      </trkpt>
      <trkpt lat="44.32103" lon="6.86287">
        <ele>1795.4</ele>
        <time>2022-07-19T10:52:56Z</time>
      </trkpt>
      <trkpt lat="44.32103" lon="6.86285">
        <ele>1795.4</ele>
        <time>2022-07-19T10:52:57Z</time>
      </trkpt>
      <trkpt lat="44.32103" lon="6.86282">
        <ele>1795.6</ele>
        <time>2022-07-19T10:52:58Z</time>
      </trkpt>
      <trkpt lat="44.32102" lon="6.8628">
        <ele>1795.6</ele>
        <time>2022-07-19T10:52:59Z</time>
      </trkpt>
      <trkpt lat="44.32102" lon="6.86278">
        <ele>1796</ele>
        <time>2022-07-19T10:53:00Z</time>
      </trkpt>
      <trkpt lat="44.32102" lon="6.86276">
        <ele>1796</ele>
        <time>2022-07-19T10:53:01Z</time>
      </trkpt>
      <trkpt lat="44.32102" lon="6.86274">
        <ele>1796.2</ele>
        <time>2022-07-19T10:53:02Z</time>
      </trkpt>
      <trkpt lat="44.32102" lon="6.86271">
        <ele>1796.2</ele>
        <time>2022-07-19T10:53:03Z</time>
      </trkpt>
      <trkpt lat="44.32102" lon="6.86269">
        <ele>1796.6</ele>
        <time>2022-07-19T10:53:04Z</time>
      </trkpt>
      <trkpt lat="44.32102" lon="6.86267">
        <ele>1796.6</ele>
        <time>2022-07-19T10:53:05Z</time>
      </trkpt>
      <trkpt lat="44.32102" lon="6.86266">
        <ele>1796.8</ele>
        <time>2022-07-19T10:53:06Z</time>
      </trkpt>
      <trkpt lat="44.32101" lon="6.86264">
        <ele>1796.8</ele>
        <time>2022-07-19T10:53:07Z</time>
      </trkpt>
      <trkpt lat="44.32101" lon="6.86262">
        <ele>1797.2</ele>
        <time>2022-07-19T10:53:08Z</time>
      </trkpt>
      <trkpt lat="44.32101" lon="6.8626">
        <ele>1797.2</ele>
        <time>2022-07-19T10:53:09Z</time>
      </trkpt>
      <trkpt lat="44.32101" lon="6.86257">
        <ele>1797.4</ele>
        <time>2022-07-19T10:53:10Z</time>
      </trkpt>
      <trkpt lat="44.32101" lon="6.86255">
        <ele>1797.4</ele>
        <time>2022-07-19T10:53:11Z</time>
      </trkpt>
      <trkpt lat="44.32101" lon="6.86253">
        <ele>1797.6</ele>
        <time>2022-07-19T10:53:12Z</time>
      </trkpt>
      <trkpt lat="44.32101" lon="6.86251">
        <ele>1797.6</ele>
        <time>2022-07-19T10:53:13Z</time>
      </trkpt>
      <trkpt lat="44.32101" lon="6.86248">
        <ele>1797.8</ele>
        <time>2022-07-19T10:53:14Z</time>
      </trkpt>
      <trkpt lat="44.32101" lon="6.86246">
        <ele>1797.8</ele>
        <time>2022-07-19T10:53:15Z</time>
      </trkpt>
      <trkpt lat="44.32101" lon="6.86244">
        <ele>1798</ele>
        <time>2022-07-19T10:53:16Z</time>
      </trkpt>
      <trkpt lat="44.32102" lon="6.86242">
        <ele>1798</ele>
        <time>2022-07-19T10:53:17Z</time>
      </trkpt>
      <trkpt lat="44.32102" lon="6.8624">
        <ele>1798</ele>
        <time>2022-07-19T10:53:18Z</time>
      </trkpt>
      <trkpt lat="44.32102" lon="6.86238">
        <ele>1798.4</ele>
        <time>2022-07-19T10:53:19Z</time>
      </trkpt>
      <trkpt lat="44.32102" lon="6.86236">
        <ele>1798.4</ele>
        <time>2022-07-19T10:53:20Z</time>
      </trkpt>
      <trkpt lat="44.32102" lon="6.86234">
        <ele>1798.6</ele>
        <time>2022-07-19T10:53:21Z</time>
      </trkpt>
      <trkpt lat="44.32102" lon="6.86232">
        <ele>1798.6</ele>
        <time>2022-07-19T10:53:22Z</time>
      </trkpt>
      <trkpt lat="44.32102" lon="6.86229">
        <ele>1798.8</ele>
        <time>2022-07-19T10:53:23Z</time>
      </trkpt>
      <trkpt lat="44.32102" lon="6.86227">
        <ele>1798.8</ele>
        <time>2022-07-19T10:53:24Z</time>
      </trkpt>
      <trkpt lat="44.32102" lon="6.86225">
        <ele>1799</ele>
        <time>2022-07-19T10:53:25Z</time>
      </trkpt>
      <trkpt lat="44.32102" lon="6.86223">
        <ele>1799</ele>
        <time>2022-07-19T10:53:26Z</time>
      </trkpt>
      <trkpt lat="44.32102" lon="6.86221">
        <ele>1799.2</ele>
        <time>2022-07-19T10:53:27Z</time>
      </trkpt>
      <trkpt lat="44.32101" lon="6.86219">
        <ele>1799.2</ele>
        <time>2022-07-19T10:53:28Z</time>
      </trkpt>
      <trkpt lat="44.32101" lon="6.86217">
        <ele>1799.6</ele>
        <time>2022-07-19T10:53:29Z</time>
      </trkpt>
      <trkpt lat="44.32101" lon="6.86214">
        <ele>1799.6</ele>
        <time>2022-07-19T10:53:30Z</time>
      </trkpt>
      <trkpt lat="44.32101" lon="6.86212">
        <ele>1799.8</ele>
        <time>2022-07-19T10:53:31Z</time>
      </trkpt>
      <trkpt lat="44.321" lon="6.86211">
        <ele>1799.8</ele>
        <time>2022-07-19T10:53:32Z</time>
      </trkpt>
      <trkpt lat="44.32101" lon="6.86209">
        <ele>1800</ele>
        <time>2022-07-19T10:53:33Z</time>
      </trkpt>
      <trkpt lat="44.321" lon="6.86207">
        <ele>1800</ele>
        <time>2022-07-19T10:53:34Z</time>
      </trkpt>
      <trkpt lat="44.321" lon="6.86205">
        <ele>1800.4</ele>
        <time>2022-07-19T10:53:35Z</time>
      </trkpt>
      <trkpt lat="44.32099" lon="6.86204">
        <ele>1800.4</ele>
        <time>2022-07-19T10:53:36Z</time>
      </trkpt>
      <trkpt lat="44.32099" lon="6.86202">
        <ele>1800.6</ele>
        <time>2022-07-19T10:53:37Z</time>
      </trkpt>
      <trkpt lat="44.32099" lon="6.862">
        <ele>1800.6</ele>
        <time>2022-07-19T10:53:38Z</time>
      </trkpt>
      <trkpt lat="44.32099" lon="6.86198">
        <ele>1800.6</ele>
        <time>2022-07-19T10:53:39Z</time>
      </trkpt>
      <trkpt lat="44.32099" lon="6.86196">
        <ele>1801</ele>
        <time>2022-07-19T10:53:40Z</time>
      </trkpt>
      <trkpt lat="44.32098" lon="6.86194">
        <ele>1801</ele>
        <time>2022-07-19T10:53:41Z</time>
      </trkpt>
      <trkpt lat="44.32098" lon="6.86193">
        <ele>1801.2</ele>
        <time>2022-07-19T10:53:42Z</time>
      </trkpt>
      <trkpt lat="44.32098" lon="6.86191">
        <ele>1801.2</ele>
        <time>2022-07-19T10:53:43Z</time>
      </trkpt>
      <trkpt lat="44.32098" lon="6.86189">
        <ele>1801.6</ele>
        <time>2022-07-19T10:53:44Z</time>
      </trkpt>
      <trkpt lat="44.32098" lon="6.86187">
        <ele>1801.6</ele>
        <time>2022-07-19T10:53:45Z</time>
      </trkpt>
      <trkpt lat="44.32098" lon="6.86185">
        <ele>1801.8</ele>
        <time>2022-07-19T10:53:46Z</time>
      </trkpt>
      <trkpt lat="44.32098" lon="6.86183">
        <ele>1802</ele>
        <time>2022-07-19T10:53:47Z</time>
      </trkpt>
      <trkpt lat="44.32097" lon="6.86181">
        <ele>1802</ele>
        <time>2022-07-19T10:53:48Z</time>
      </trkpt>
      <trkpt lat="44.32097" lon="6.86179">
        <ele>1802.4</ele>
        <time>2022-07-19T10:53:49Z</time>
      </trkpt>
      <trkpt lat="44.32098" lon="6.86177">
        <ele>1802.4</ele>
        <time>2022-07-19T10:53:50Z</time>
      </trkpt>
      <trkpt lat="44.32098" lon="6.86175">
        <ele>1802.8</ele>
        <time>2022-07-19T10:53:51Z</time>
      </trkpt>
      <trkpt lat="44.32097" lon="6.86173">
        <ele>1802.8</ele>
        <time>2022-07-19T10:53:52Z</time>
      </trkpt>
      <trkpt lat="44.32097" lon="6.86171">
        <ele>1803</ele>
        <time>2022-07-19T10:53:53Z</time>
      </trkpt>
      <trkpt lat="44.32096" lon="6.86169">
        <ele>1803</ele>
        <time>2022-07-19T10:53:54Z</time>
      </trkpt>
      <trkpt lat="44.32096" lon="6.86167">
        <ele>1803.2</ele>
        <time>2022-07-19T10:53:55Z</time>
      </trkpt>
      <trkpt lat="44.32096" lon="6.86165">
        <ele>1803.2</ele>
        <time>2022-07-19T10:53:56Z</time>
      </trkpt>
      <trkpt lat="44.32096" lon="6.86162">
        <ele>1803.6</ele>
        <time>2022-07-19T10:53:57Z</time>
      </trkpt>
      <trkpt lat="44.32096" lon="6.8616">
        <ele>1803.6</ele>
        <time>2022-07-19T10:53:58Z</time>
      </trkpt>
      <trkpt lat="44.32095" lon="6.86158">
        <ele>1803.8</ele>
        <time>2022-07-19T10:53:59Z</time>
      </trkpt>
      <trkpt lat="44.32095" lon="6.86156">
        <ele>1803.8</ele>
        <time>2022-07-19T10:54:00Z</time>
      </trkpt>
      <trkpt lat="44.32095" lon="6.86154">
        <ele>1804</ele>
        <time>2022-07-19T10:54:01Z</time>
      </trkpt>
      <trkpt lat="44.32095" lon="6.86152">
        <ele>1804</ele>
        <time>2022-07-19T10:54:02Z</time>
      </trkpt>
      <trkpt lat="44.32095" lon="6.8615">
        <ele>1804.4</ele>
        <time>2022-07-19T10:54:03Z</time>
      </trkpt>
      <trkpt lat="44.32096" lon="6.86147">
        <ele>1804.4</ele>
        <time>2022-07-19T10:54:04Z</time>
      </trkpt>
      <trkpt lat="44.32096" lon="6.86145">
        <ele>1804.8</ele>
        <time>2022-07-19T10:54:05Z</time>
      </trkpt>
      <trkpt lat="44.32097" lon="6.86144">
        <ele>1805</ele>
        <time>2022-07-19T10:54:06Z</time>
      </trkpt>
      <trkpt lat="44.32098" lon="6.86142">
        <ele>1805</ele>
        <time>2022-07-19T10:54:07Z</time>
      </trkpt>
      <trkpt lat="44.32099" lon="6.8614">
        <ele>1805.2</ele>
        <time>2022-07-19T10:54:08Z</time>
      </trkpt>
      <trkpt lat="44.321" lon="6.86139">
        <ele>1805.2</ele>
        <time>2022-07-19T10:54:09Z</time>
      </trkpt>
      <trkpt lat="44.32101" lon="6.86137">
        <ele>1805.6</ele>
        <time>2022-07-19T10:54:10Z</time>
      </trkpt>
      <trkpt lat="44.32103" lon="6.86136">
        <ele>1805.6</ele>
        <time>2022-07-19T10:54:11Z</time>
      </trkpt>
      <trkpt lat="44.32104" lon="6.86134">
        <ele>1806</ele>
        <time>2022-07-19T10:54:12Z</time>
      </trkpt>
      <trkpt lat="44.32105" lon="6.86133">
        <ele>1806</ele>
        <time>2022-07-19T10:54:13Z</time>
      </trkpt>
      <trkpt lat="44.32107" lon="6.86132">
        <ele>1806.2</ele>
        <time>2022-07-19T10:54:14Z</time>
      </trkpt>
      <trkpt lat="44.32108" lon="6.8613">
        <ele>1806.2</ele>
        <time>2022-07-19T10:54:15Z</time>
      </trkpt>
      <trkpt lat="44.32109" lon="6.86129">
        <ele>1806.6</ele>
        <time>2022-07-19T10:54:16Z</time>
      </trkpt>
      <trkpt lat="44.3211" lon="6.86127">
        <ele>1806.6</ele>
        <time>2022-07-19T10:54:17Z</time>
      </trkpt>
      <trkpt lat="44.32111" lon="6.86126">
        <ele>1806.8</ele>
        <time>2022-07-19T10:54:18Z</time>
      </trkpt>
      <trkpt lat="44.32113" lon="6.86125">
        <ele>1806.8</ele>
        <time>2022-07-19T10:54:19Z</time>
      </trkpt>
      <trkpt lat="44.32114" lon="6.86124">
        <ele>1807.2</ele>
        <time>2022-07-19T10:54:20Z</time>
      </trkpt>
      <trkpt lat="44.32116" lon="6.86123">
        <ele>1807.2</ele>
        <time>2022-07-19T10:54:21Z</time>
      </trkpt>
      <trkpt lat="44.32117" lon="6.86122">
        <ele>1807.4</ele>
        <time>2022-07-19T10:54:22Z</time>
      </trkpt>
      <trkpt lat="44.32119" lon="6.86121">
        <ele>1807.4</ele>
        <time>2022-07-19T10:54:23Z</time>
      </trkpt>
      <trkpt lat="44.3212" lon="6.8612">
        <ele>1807.6</ele>
        <time>2022-07-19T10:54:24Z</time>
      </trkpt>
      <trkpt lat="44.32122" lon="6.86119">
        <ele>1807.6</ele>
        <time>2022-07-19T10:54:25Z</time>
      </trkpt>
      <trkpt lat="44.32123" lon="6.86118">
        <ele>1808</ele>
        <time>2022-07-19T10:54:26Z</time>
      </trkpt>
      <trkpt lat="44.32124" lon="6.86117">
        <ele>1808</ele>
        <time>2022-07-19T10:54:27Z</time>
      </trkpt>
      <trkpt lat="44.32126" lon="6.86115">
        <ele>1808.2</ele>
        <time>2022-07-19T10:54:28Z</time>
      </trkpt>
      <trkpt lat="44.32126" lon="6.86114">
        <ele>1808.2</ele>
        <time>2022-07-19T10:54:29Z</time>
      </trkpt>
      <trkpt lat="44.32127" lon="6.86112">
        <ele>1808.4</ele>
        <time>2022-07-19T10:54:30Z</time>
      </trkpt>
      <trkpt lat="44.32128" lon="6.8611">
        <ele>1808.4</ele>
        <time>2022-07-19T10:54:31Z</time>
      </trkpt>
      <trkpt lat="44.32129" lon="6.86109">
        <ele>1808.8</ele>
        <time>2022-07-19T10:54:32Z</time>
      </trkpt>
      <trkpt lat="44.32129" lon="6.86107">
        <ele>1808.8</ele>
        <time>2022-07-19T10:54:33Z</time>
      </trkpt>
      <trkpt lat="44.3213" lon="6.86105">
        <ele>1809</ele>
        <time>2022-07-19T10:54:34Z</time>
      </trkpt>
      <trkpt lat="44.32131" lon="6.86103">
        <ele>1809</ele>
        <time>2022-07-19T10:54:35Z</time>
      </trkpt>
      <trkpt lat="44.32131" lon="6.86101">
        <ele>1809.2</ele>
        <time>2022-07-19T10:54:36Z</time>
      </trkpt>
      <trkpt lat="44.32132" lon="6.86099">
        <ele>1809.2</ele>
        <time>2022-07-19T10:54:37Z</time>
      </trkpt>
      <trkpt lat="44.32133" lon="6.86096">
        <ele>1809.6</ele>
        <time>2022-07-19T10:54:38Z</time>
      </trkpt>
      <trkpt lat="44.32133" lon="6.86094">
        <ele>1809.6</ele>
        <time>2022-07-19T10:54:39Z</time>
      </trkpt>
      <trkpt lat="44.32133" lon="6.86092">
        <ele>1809.6</ele>
        <time>2022-07-19T10:54:40Z</time>
      </trkpt>
      <trkpt lat="44.32134" lon="6.86091">
        <ele>1809.8</ele>
        <time>2022-07-19T10:54:41Z</time>
      </trkpt>
      <trkpt lat="44.32135" lon="6.86089">
        <ele>1809.8</ele>
        <time>2022-07-19T10:54:42Z</time>
      </trkpt>
      <trkpt lat="44.32135" lon="6.86087">
        <ele>1810</ele>
        <time>2022-07-19T10:54:43Z</time>
      </trkpt>
      <trkpt lat="44.32135" lon="6.86085">
        <ele>1810</ele>
        <time>2022-07-19T10:54:44Z</time>
      </trkpt>
      <trkpt lat="44.32136" lon="6.86082">
        <ele>1810.4</ele>
        <time>2022-07-19T10:54:45Z</time>
      </trkpt>
      <trkpt lat="44.32136" lon="6.86081">
        <ele>1810.4</ele>
        <time>2022-07-19T10:54:46Z</time>
      </trkpt>
      <trkpt lat="44.32137" lon="6.86079">
        <ele>1810.6</ele>
        <time>2022-07-19T10:54:47Z</time>
      </trkpt>
      <trkpt lat="44.32138" lon="6.86077">
        <ele>1810.6</ele>
        <time>2022-07-19T10:54:48Z</time>
      </trkpt>
      <trkpt lat="44.32138" lon="6.86075">
        <ele>1811</ele>
        <time>2022-07-19T10:54:49Z</time>
      </trkpt>
      <trkpt lat="44.32139" lon="6.86073">
        <ele>1811</ele>
        <time>2022-07-19T10:54:50Z</time>
      </trkpt>
      <trkpt lat="44.32139" lon="6.86071">
        <ele>1811.2</ele>
        <time>2022-07-19T10:54:51Z</time>
      </trkpt>
      <trkpt lat="44.32139" lon="6.86069">
        <ele>1811.2</ele>
        <time>2022-07-19T10:54:52Z</time>
      </trkpt>
      <trkpt lat="44.32139" lon="6.86066">
        <ele>1811.4</ele>
        <time>2022-07-19T10:54:53Z</time>
      </trkpt>
      <trkpt lat="44.32139" lon="6.86064">
        <ele>1811.4</ele>
        <time>2022-07-19T10:54:54Z</time>
      </trkpt>
      <trkpt lat="44.3214" lon="6.86063">
        <ele>1811.6</ele>
        <time>2022-07-19T10:54:55Z</time>
      </trkpt>
      <trkpt lat="44.32141" lon="6.86061">
        <ele>1811.6</ele>
        <time>2022-07-19T10:54:56Z</time>
      </trkpt>
      <trkpt lat="44.32142" lon="6.86059">
        <ele>1811.8</ele>
        <time>2022-07-19T10:54:57Z</time>
      </trkpt>
      <trkpt lat="44.32143" lon="6.86057">
        <ele>1811.8</ele>
        <time>2022-07-19T10:54:58Z</time>
      </trkpt>
      <trkpt lat="44.32143" lon="6.86055">
        <ele>1812.2</ele>
        <time>2022-07-19T10:54:59Z</time>
      </trkpt>
      <trkpt lat="44.32144" lon="6.86053">
        <ele>1812.2</ele>
        <time>2022-07-19T10:55:00Z</time>
      </trkpt>
      <trkpt lat="44.32144" lon="6.86051">
        <ele>1812.4</ele>
        <time>2022-07-19T10:55:01Z</time>
      </trkpt>
      <trkpt lat="44.32145" lon="6.86049">
        <ele>1812.4</ele>
        <time>2022-07-19T10:55:02Z</time>
      </trkpt>
      <trkpt lat="44.32145" lon="6.86047">
        <ele>1812.8</ele>
        <time>2022-07-19T10:55:03Z</time>
      </trkpt>
      <trkpt lat="44.32146" lon="6.86045">
        <ele>1812.8</ele>
        <time>2022-07-19T10:55:04Z</time>
      </trkpt>
      <trkpt lat="44.32146" lon="6.86043">
        <ele>1813</ele>
        <time>2022-07-19T10:55:05Z</time>
      </trkpt>
      <trkpt lat="44.32147" lon="6.86041">
        <ele>1813</ele>
        <time>2022-07-19T10:55:06Z</time>
      </trkpt>
      <trkpt lat="44.32148" lon="6.8604">
        <ele>1813.4</ele>
        <time>2022-07-19T10:55:07Z</time>
      </trkpt>
      <trkpt lat="44.32149" lon="6.86038">
        <ele>1813.4</ele>
        <time>2022-07-19T10:55:08Z</time>
      </trkpt>
      <trkpt lat="44.3215" lon="6.86036">
        <ele>1813.6</ele>
        <time>2022-07-19T10:55:09Z</time>
      </trkpt>
      <trkpt lat="44.32151" lon="6.86035">
        <ele>1813.6</ele>
        <time>2022-07-19T10:55:10Z</time>
      </trkpt>
      <trkpt lat="44.32152" lon="6.86034">
        <ele>1813.6</ele>
        <time>2022-07-19T10:55:11Z</time>
      </trkpt>
      <trkpt lat="44.32154" lon="6.86033">
        <ele>1813.8</ele>
        <time>2022-07-19T10:55:12Z</time>
      </trkpt>
      <trkpt lat="44.32155" lon="6.86032">
        <ele>1813.8</ele>
        <time>2022-07-19T10:55:13Z</time>
      </trkpt>
      <trkpt lat="44.32157" lon="6.86031">
        <ele>1814</ele>
        <time>2022-07-19T10:55:14Z</time>
      </trkpt>
      <trkpt lat="44.32158" lon="6.8603">
        <ele>1814</ele>
        <time>2022-07-19T10:55:15Z</time>
      </trkpt>
      <trkpt lat="44.3216" lon="6.86029">
        <ele>1814.2</ele>
        <time>2022-07-19T10:55:16Z</time>
      </trkpt>
      <trkpt lat="44.32161" lon="6.86029">
        <ele>1814.2</ele>
        <time>2022-07-19T10:55:17Z</time>
      </trkpt>
      <trkpt lat="44.32163" lon="6.86028">
        <ele>1814.6</ele>
        <time>2022-07-19T10:55:18Z</time>
      </trkpt>
      <trkpt lat="44.32164" lon="6.86027">
        <ele>1814.8</ele>
        <time>2022-07-19T10:55:19Z</time>
      </trkpt>
      <trkpt lat="44.32166" lon="6.86026">
        <ele>1814.8</ele>
        <time>2022-07-19T10:55:20Z</time>
      </trkpt>
      <trkpt lat="44.32167" lon="6.86024">
        <ele>1815.2</ele>
        <time>2022-07-19T10:55:21Z</time>
      </trkpt>
      <trkpt lat="44.32168" lon="6.86023">
        <ele>1815.2</ele>
        <time>2022-07-19T10:55:22Z</time>
      </trkpt>
      <trkpt lat="44.3217" lon="6.86022">
        <ele>1815.4</ele>
        <time>2022-07-19T10:55:23Z</time>
      </trkpt>
      <trkpt lat="44.32171" lon="6.86021">
        <ele>1815.4</ele>
        <time>2022-07-19T10:55:24Z</time>
      </trkpt>
      <trkpt lat="44.32173" lon="6.86021">
        <ele>1815.8</ele>
        <time>2022-07-19T10:55:25Z</time>
      </trkpt>
      <trkpt lat="44.32174" lon="6.8602">
        <ele>1815.8</ele>
        <time>2022-07-19T10:55:26Z</time>
      </trkpt>
      <trkpt lat="44.32176" lon="6.86019">
        <ele>1816.2</ele>
        <time>2022-07-19T10:55:27Z</time>
      </trkpt>
      <trkpt lat="44.32177" lon="6.86019">
        <ele>1816.2</ele>
        <time>2022-07-19T10:55:28Z</time>
      </trkpt>
      <trkpt lat="44.32178" lon="6.86018">
        <ele>1816.4</ele>
        <time>2022-07-19T10:55:29Z</time>
      </trkpt>
      <trkpt lat="44.3218" lon="6.86017">
        <ele>1816.4</ele>
        <time>2022-07-19T10:55:30Z</time>
      </trkpt>
      <trkpt lat="44.32181" lon="6.86016">
        <ele>1816.6</ele>
        <time>2022-07-19T10:55:31Z</time>
      </trkpt>
      <trkpt lat="44.32182" lon="6.86015">
        <ele>1816.6</ele>
        <time>2022-07-19T10:55:32Z</time>
      </trkpt>
      <trkpt lat="44.32184" lon="6.86014">
        <ele>1816.8</ele>
        <time>2022-07-19T10:55:33Z</time>
      </trkpt>
      <trkpt lat="44.32185" lon="6.86013">
        <ele>1816.8</ele>
        <time>2022-07-19T10:55:34Z</time>
      </trkpt>
      <trkpt lat="44.32186" lon="6.86013">
        <ele>1817.2</ele>
        <time>2022-07-19T10:55:35Z</time>
      </trkpt>
      <trkpt lat="44.32188" lon="6.86012">
        <ele>1817.2</ele>
        <time>2022-07-19T10:55:36Z</time>
      </trkpt>
      <trkpt lat="44.32189" lon="6.86011">
        <ele>1817.2</ele>
        <time>2022-07-19T10:55:37Z</time>
      </trkpt>
      <trkpt lat="44.3219" lon="6.8601">
        <ele>1817.4</ele>
        <time>2022-07-19T10:55:38Z</time>
      </trkpt>
      <trkpt lat="44.32191" lon="6.86008">
        <ele>1817.4</ele>
        <time>2022-07-19T10:55:39Z</time>
      </trkpt>
      <trkpt lat="44.32193" lon="6.86007">
        <ele>1817.6</ele>
        <time>2022-07-19T10:55:40Z</time>
      </trkpt>
      <trkpt lat="44.32194" lon="6.86006">
        <ele>1817.6</ele>
        <time>2022-07-19T10:55:41Z</time>
      </trkpt>
      <trkpt lat="44.32195" lon="6.86005">
        <ele>1817.8</ele>
        <time>2022-07-19T10:55:42Z</time>
      </trkpt>
      <trkpt lat="44.32196" lon="6.86004">
        <ele>1817.8</ele>
        <time>2022-07-19T10:55:43Z</time>
      </trkpt>
      <trkpt lat="44.32197" lon="6.86002">
        <ele>1818.2</ele>
        <time>2022-07-19T10:55:44Z</time>
      </trkpt>
      <trkpt lat="44.32199" lon="6.86001">
        <ele>1818.4</ele>
        <time>2022-07-19T10:55:45Z</time>
      </trkpt>
      <trkpt lat="44.322" lon="6.86">
        <ele>1818.4</ele>
        <time>2022-07-19T10:55:46Z</time>
      </trkpt>
      <trkpt lat="44.32201" lon="6.85999">
        <ele>1818.6</ele>
        <time>2022-07-19T10:55:47Z</time>
      </trkpt>
      <trkpt lat="44.32203" lon="6.85998">
        <ele>1818.6</ele>
        <time>2022-07-19T10:55:48Z</time>
      </trkpt>
      <trkpt lat="44.32204" lon="6.85997">
        <ele>1819</ele>
        <time>2022-07-19T10:55:49Z</time>
      </trkpt>
      <trkpt lat="44.32205" lon="6.85996">
        <ele>1819</ele>
        <time>2022-07-19T10:55:50Z</time>
      </trkpt>
      <trkpt lat="44.32206" lon="6.85995">
        <ele>1819.2</ele>
        <time>2022-07-19T10:55:51Z</time>
      </trkpt>
      <trkpt lat="44.32208" lon="6.85994">
        <ele>1819.2</ele>
        <time>2022-07-19T10:55:52Z</time>
      </trkpt>
      <trkpt lat="44.32209" lon="6.85992">
        <ele>1819.6</ele>
        <time>2022-07-19T10:55:53Z</time>
      </trkpt>
      <trkpt lat="44.3221" lon="6.85991">
        <ele>1819.6</ele>
        <time>2022-07-19T10:55:54Z</time>
      </trkpt>
      <trkpt lat="44.32211" lon="6.8599">
        <ele>1819.8</ele>
        <time>2022-07-19T10:55:55Z</time>
      </trkpt>
      <trkpt lat="44.32213" lon="6.85989">
        <ele>1819.8</ele>
        <time>2022-07-19T10:55:56Z</time>
      </trkpt>
      <trkpt lat="44.32214" lon="6.85987">
        <ele>1820</ele>
        <time>2022-07-19T10:55:57Z</time>
      </trkpt>
      <trkpt lat="44.32215" lon="6.85986">
        <ele>1820</ele>
        <time>2022-07-19T10:55:58Z</time>
      </trkpt>
      <trkpt lat="44.32216" lon="6.85984">
        <ele>1820.4</ele>
        <time>2022-07-19T10:55:59Z</time>
      </trkpt>
      <trkpt lat="44.32217" lon="6.85983">
        <ele>1820.4</ele>
        <time>2022-07-19T10:56:00Z</time>
      </trkpt>
      <trkpt lat="44.32218" lon="6.85981">
        <ele>1820.6</ele>
        <time>2022-07-19T10:56:01Z</time>
      </trkpt>
      <trkpt lat="44.32219" lon="6.8598">
        <ele>1820.6</ele>
        <time>2022-07-19T10:56:02Z</time>
      </trkpt>
      <trkpt lat="44.3222" lon="6.85979">
        <ele>1820.8</ele>
        <time>2022-07-19T10:56:03Z</time>
      </trkpt>
      <trkpt lat="44.32221" lon="6.85977">
        <ele>1820.8</ele>
        <time>2022-07-19T10:56:04Z</time>
      </trkpt>
      <trkpt lat="44.32222" lon="6.85976">
        <ele>1821.2</ele>
        <time>2022-07-19T10:56:05Z</time>
      </trkpt>
      <trkpt lat="44.32223" lon="6.85974">
        <ele>1821.2</ele>
        <time>2022-07-19T10:56:06Z</time>
      </trkpt>
      <trkpt lat="44.32224" lon="6.85973">
        <ele>1821.4</ele>
        <time>2022-07-19T10:56:07Z</time>
      </trkpt>
      <trkpt lat="44.32225" lon="6.85971">
        <ele>1821.4</ele>
        <time>2022-07-19T10:56:08Z</time>
      </trkpt>
      <trkpt lat="44.32226" lon="6.85969">
        <ele>1821.8</ele>
        <time>2022-07-19T10:56:09Z</time>
      </trkpt>
      <trkpt lat="44.32227" lon="6.85968">
        <ele>1821.8</ele>
        <time>2022-07-19T10:56:10Z</time>
      </trkpt>
      <trkpt lat="44.32227" lon="6.85966">
        <ele>1822</ele>
        <time>2022-07-19T10:56:11Z</time>
      </trkpt>
      <trkpt lat="44.32228" lon="6.85964">
        <ele>1822</ele>
        <time>2022-07-19T10:56:12Z</time>
      </trkpt>
      <trkpt lat="44.32229" lon="6.85962">
        <ele>1822.4</ele>
        <time>2022-07-19T10:56:13Z</time>
      </trkpt>
      <trkpt lat="44.3223" lon="6.85961">
        <ele>1822.6</ele>
        <time>2022-07-19T10:56:14Z</time>
      </trkpt>
      <trkpt lat="44.32231" lon="6.85959">
        <ele>1822.6</ele>
        <time>2022-07-19T10:56:15Z</time>
      </trkpt>
      <trkpt lat="44.32232" lon="6.85958">
        <ele>1822.6</ele>
        <time>2022-07-19T10:56:16Z</time>
      </trkpt>
      <trkpt lat="44.32233" lon="6.85956">
        <ele>1823</ele>
        <time>2022-07-19T10:56:17Z</time>
      </trkpt>
      <trkpt lat="44.32235" lon="6.85955">
        <ele>1823</ele>
        <time>2022-07-19T10:56:18Z</time>
      </trkpt>
      <trkpt lat="44.32236" lon="6.85953">
        <ele>1823.2</ele>
        <time>2022-07-19T10:56:19Z</time>
      </trkpt>
      <trkpt lat="44.32237" lon="6.85952">
        <ele>1823.2</ele>
        <time>2022-07-19T10:56:20Z</time>
      </trkpt>
      <trkpt lat="44.32238" lon="6.8595">
        <ele>1823.4</ele>
        <time>2022-07-19T10:56:21Z</time>
      </trkpt>
      <trkpt lat="44.32239" lon="6.85948">
        <ele>1823.4</ele>
        <time>2022-07-19T10:56:22Z</time>
      </trkpt>
      <trkpt lat="44.3224" lon="6.85946">
        <ele>1823.6</ele>
        <time>2022-07-19T10:56:23Z</time>
      </trkpt>
      <trkpt lat="44.32241" lon="6.85944">
        <ele>1823.6</ele>
        <time>2022-07-19T10:56:24Z</time>
      </trkpt>
      <trkpt lat="44.32242" lon="6.85942">
        <ele>1823.8</ele>
        <time>2022-07-19T10:56:25Z</time>
      </trkpt>
      <trkpt lat="44.32243" lon="6.85941">
        <ele>1823.8</ele>
        <time>2022-07-19T10:56:26Z</time>
      </trkpt>
      <trkpt lat="44.32244" lon="6.85939">
        <ele>1824</ele>
        <time>2022-07-19T10:56:27Z</time>
      </trkpt>
      <trkpt lat="44.32246" lon="6.85937">
        <ele>1824</ele>
        <time>2022-07-19T10:56:28Z</time>
      </trkpt>
      <trkpt lat="44.32247" lon="6.85935">
        <ele>1824.4</ele>
        <time>2022-07-19T10:56:29Z</time>
      </trkpt>
      <trkpt lat="44.32248" lon="6.85934">
        <ele>1824.4</ele>
        <time>2022-07-19T10:56:30Z</time>
      </trkpt>
      <trkpt lat="44.32249" lon="6.85932">
        <ele>1824.4</ele>
        <time>2022-07-19T10:56:31Z</time>
      </trkpt>
      <trkpt lat="44.32251" lon="6.85931">
        <ele>1824.6</ele>
        <time>2022-07-19T10:56:32Z</time>
      </trkpt>
      <trkpt lat="44.32252" lon="6.8593">
        <ele>1824.6</ele>
        <time>2022-07-19T10:56:33Z</time>
      </trkpt>
      <trkpt lat="44.32254" lon="6.85929">
        <ele>1824.8</ele>
        <time>2022-07-19T10:56:34Z</time>
      </trkpt>
      <trkpt lat="44.32255" lon="6.85928">
        <ele>1824.8</ele>
        <time>2022-07-19T10:56:35Z</time>
      </trkpt>
      <trkpt lat="44.32256" lon="6.85927">
        <ele>1825.2</ele>
        <time>2022-07-19T10:56:36Z</time>
      </trkpt>
      <trkpt lat="44.32257" lon="6.85927">
        <ele>1825.4</ele>
        <time>2022-07-19T10:56:37Z</time>
      </trkpt>
      <trkpt lat="44.32259" lon="6.85926">
        <ele>1825.6</ele>
        <time>2022-07-19T10:56:38Z</time>
      </trkpt>
      <trkpt lat="44.3226" lon="6.85925">
        <ele>1825.6</ele>
        <time>2022-07-19T10:56:39Z</time>
      </trkpt>
      <trkpt lat="44.32261" lon="6.85925">
        <ele>1826</ele>
        <time>2022-07-19T10:56:40Z</time>
      </trkpt>
      <trkpt lat="44.32263" lon="6.85925">
        <ele>1826</ele>
        <time>2022-07-19T10:56:41Z</time>
      </trkpt>
      <trkpt lat="44.32264" lon="6.85926">
        <ele>1826.4</ele>
        <time>2022-07-19T10:56:42Z</time>
      </trkpt>
      <trkpt lat="44.32265" lon="6.85927">
        <ele>1826.6</ele>
        <time>2022-07-19T10:56:43Z</time>
      </trkpt>
      <trkpt lat="44.32266" lon="6.85929">
        <ele>1827</ele>
        <time>2022-07-19T10:56:44Z</time>
      </trkpt>
      <trkpt lat="44.32266" lon="6.85932">
        <ele>1827.2</ele>
        <time>2022-07-19T10:56:45Z</time>
      </trkpt>
      <trkpt lat="44.32266" lon="6.85935">
        <ele>1827.6</ele>
        <time>2022-07-19T10:56:46Z</time>
      </trkpt>
      <trkpt lat="44.32266" lon="6.85938">
        <ele>1827.8</ele>
        <time>2022-07-19T10:56:47Z</time>
      </trkpt>
      <trkpt lat="44.32265" lon="6.8594">
        <ele>1828</ele>
        <time>2022-07-19T10:56:48Z</time>
      </trkpt>
      <trkpt lat="44.32264" lon="6.85942">
        <ele>1828</ele>
        <time>2022-07-19T10:56:49Z</time>
      </trkpt>
      <trkpt lat="44.32263" lon="6.85944">
        <ele>1828.2</ele>
        <time>2022-07-19T10:56:50Z</time>
      </trkpt>
      <trkpt lat="44.32262" lon="6.85946">
        <ele>1828.2</ele>
        <time>2022-07-19T10:56:51Z</time>
      </trkpt>
      <trkpt lat="44.32261" lon="6.85948">
        <ele>1828.6</ele>
        <time>2022-07-19T10:56:52Z</time>
      </trkpt>
      <trkpt lat="44.32259" lon="6.8595">
        <ele>1828.6</ele>
        <time>2022-07-19T10:56:53Z</time>
      </trkpt>
      <trkpt lat="44.32259" lon="6.85952">
        <ele>1828.8</ele>
        <time>2022-07-19T10:56:54Z</time>
      </trkpt>
      <trkpt lat="44.32258" lon="6.85955">
        <ele>1828.8</ele>
        <time>2022-07-19T10:56:55Z</time>
      </trkpt>
      <trkpt lat="44.32258" lon="6.85957">
        <ele>1829.2</ele>
        <time>2022-07-19T10:56:56Z</time>
      </trkpt>
      <trkpt lat="44.32257" lon="6.8596">
        <ele>1829.2</ele>
        <time>2022-07-19T10:56:57Z</time>
      </trkpt>
      <trkpt lat="44.32256" lon="6.85962">
        <ele>1829.4</ele>
        <time>2022-07-19T10:56:58Z</time>
      </trkpt>
      <trkpt lat="44.32255" lon="6.85964">
        <ele>1829.4</ele>
        <time>2022-07-19T10:56:59Z</time>
      </trkpt>
      <trkpt lat="44.32253" lon="6.85966">
        <ele>1829.4</ele>
        <time>2022-07-19T10:57:00Z</time>
      </trkpt>
      <trkpt lat="44.32252" lon="6.85968">
        <ele>1829.8</ele>
        <time>2022-07-19T10:57:01Z</time>
      </trkpt>
      <trkpt lat="44.32251" lon="6.8597">
        <ele>1829.8</ele>
        <time>2022-07-19T10:57:02Z</time>
      </trkpt>
      <trkpt lat="44.3225" lon="6.85972">
        <ele>1830</ele>
        <time>2022-07-19T10:57:03Z</time>
      </trkpt>
      <trkpt lat="44.32249" lon="6.85974">
        <ele>1830</ele>
        <time>2022-07-19T10:57:04Z</time>
      </trkpt>
      <trkpt lat="44.32249" lon="6.85976">
        <ele>1830.2</ele>
        <time>2022-07-19T10:57:05Z</time>
      </trkpt>
      <trkpt lat="44.32248" lon="6.85978">
        <ele>1830.4</ele>
        <time>2022-07-19T10:57:06Z</time>
      </trkpt>
      <trkpt lat="44.32247" lon="6.8598">
        <ele>1830.4</ele>
        <time>2022-07-19T10:57:07Z</time>
      </trkpt>
      <trkpt lat="44.32246" lon="6.85982">
        <ele>1830.8</ele>
        <time>2022-07-19T10:57:08Z</time>
      </trkpt>
      <trkpt lat="44.32245" lon="6.85983">
        <ele>1830.8</ele>
        <time>2022-07-19T10:57:09Z</time>
      </trkpt>
      <trkpt lat="44.32244" lon="6.85985">
        <ele>1831</ele>
        <time>2022-07-19T10:57:10Z</time>
      </trkpt>
      <trkpt lat="44.32242" lon="6.85986">
        <ele>1831</ele>
        <time>2022-07-19T10:57:11Z</time>
      </trkpt>
      <trkpt lat="44.32241" lon="6.85986">
        <ele>1831.4</ele>
        <time>2022-07-19T10:57:12Z</time>
      </trkpt>
      <trkpt lat="44.32239" lon="6.85987">
        <ele>1831.6</ele>
        <time>2022-07-19T10:57:13Z</time>
      </trkpt>
      <trkpt lat="44.32238" lon="6.85987">
        <ele>1831.6</ele>
        <time>2022-07-19T10:57:14Z</time>
      </trkpt>
      <trkpt lat="44.32236" lon="6.85989">
        <ele>1831.8</ele>
        <time>2022-07-19T10:57:15Z</time>
      </trkpt>
      <trkpt lat="44.32235" lon="6.8599">
        <ele>1831.8</ele>
        <time>2022-07-19T10:57:16Z</time>
      </trkpt>
      <trkpt lat="44.32234" lon="6.85992">
        <ele>1832.2</ele>
        <time>2022-07-19T10:57:17Z</time>
      </trkpt>
      <trkpt lat="44.32233" lon="6.85994">
        <ele>1832.2</ele>
        <time>2022-07-19T10:57:18Z</time>
      </trkpt>
      <trkpt lat="44.32232" lon="6.85996">
        <ele>1832.6</ele>
        <time>2022-07-19T10:57:19Z</time>
      </trkpt>
      <trkpt lat="44.32231" lon="6.85998">
        <ele>1832.6</ele>
        <time>2022-07-19T10:57:20Z</time>
      </trkpt>
      <trkpt lat="44.3223" lon="6.86">
        <ele>1833</ele>
        <time>2022-07-19T10:57:21Z</time>
      </trkpt>
      <trkpt lat="44.3223" lon="6.86002">
        <ele>1833</ele>
        <time>2022-07-19T10:57:22Z</time>
      </trkpt>
      <trkpt lat="44.32229" lon="6.86003">
        <ele>1833.2</ele>
        <time>2022-07-19T10:57:23Z</time>
      </trkpt>
      <trkpt lat="44.32229" lon="6.86005">
        <ele>1833.2</ele>
        <time>2022-07-19T10:57:24Z</time>
      </trkpt>
      <trkpt lat="44.32228" lon="6.86007">
        <ele>1833.6</ele>
        <time>2022-07-19T10:57:25Z</time>
      </trkpt>
      <trkpt lat="44.32228" lon="6.86009">
        <ele>1833.6</ele>
        <time>2022-07-19T10:57:26Z</time>
      </trkpt>
      <trkpt lat="44.32227" lon="6.86012">
        <ele>1834</ele>
        <time>2022-07-19T10:57:27Z</time>
      </trkpt>
      <trkpt lat="44.32227" lon="6.86014">
        <ele>1834</ele>
        <time>2022-07-19T10:57:28Z</time>
      </trkpt>
      <trkpt lat="44.32227" lon="6.86016">
        <ele>1834.2</ele>
        <time>2022-07-19T10:57:29Z</time>
      </trkpt>
      <trkpt lat="44.32226" lon="6.86019">
        <ele>1834.2</ele>
        <time>2022-07-19T10:57:30Z</time>
      </trkpt>
      <trkpt lat="44.32225" lon="6.86021">
        <ele>1834.2</ele>
        <time>2022-07-19T10:57:31Z</time>
      </trkpt>
      <trkpt lat="44.32225" lon="6.86023">
        <ele>1834.4</ele>
        <time>2022-07-19T10:57:32Z</time>
      </trkpt>
      <trkpt lat="44.32224" lon="6.86026">
        <ele>1834.4</ele>
        <time>2022-07-19T10:57:33Z</time>
      </trkpt>
      <trkpt lat="44.32223" lon="6.86029">
        <ele>1834.8</ele>
        <time>2022-07-19T10:57:34Z</time>
      </trkpt>
      <trkpt lat="44.32223" lon="6.86031">
        <ele>1834.8</ele>
        <time>2022-07-19T10:57:35Z</time>
      </trkpt>
      <trkpt lat="44.32222" lon="6.86034">
        <ele>1835</ele>
        <time>2022-07-19T10:57:36Z</time>
      </trkpt>
      <trkpt lat="44.32222" lon="6.86037">
        <ele>1835</ele>
        <time>2022-07-19T10:57:37Z</time>
      </trkpt>
      <trkpt lat="44.32221" lon="6.86041">
        <ele>1835</ele>
        <time>2022-07-19T10:57:38Z</time>
      </trkpt>
      <trkpt lat="44.32221" lon="6.86044">
        <ele>1835</ele>
        <time>2022-07-19T10:57:39Z</time>
      </trkpt>
      <trkpt lat="44.32221" lon="6.86047">
        <ele>1835</ele>
        <time>2022-07-19T10:57:40Z</time>
      </trkpt>
      <trkpt lat="44.3222" lon="6.8605">
        <ele>1835.2</ele>
        <time>2022-07-19T10:57:41Z</time>
      </trkpt>
      <trkpt lat="44.32219" lon="6.86053">
        <ele>1835.2</ele>
        <time>2022-07-19T10:57:43Z</time>
      </trkpt>
      <trkpt lat="44.32218" lon="6.86056">
        <ele>1835.2</ele>
        <time>2022-07-19T10:57:44Z</time>
      </trkpt>
      <trkpt lat="44.32218" lon="6.86059">
        <ele>1835.2</ele>
        <time>2022-07-19T10:57:45Z</time>
      </trkpt>
      <trkpt lat="44.32217" lon="6.86063">
        <ele>1835.4</ele>
        <time>2022-07-19T10:57:46Z</time>
      </trkpt>
      <trkpt lat="44.32217" lon="6.86066">
        <ele>1835.4</ele>
        <time>2022-07-19T10:57:47Z</time>
      </trkpt>
      <trkpt lat="44.32216" lon="6.86069">
        <ele>1835.4</ele>
        <time>2022-07-19T10:57:48Z</time>
      </trkpt>
      <trkpt lat="44.32215" lon="6.86072">
        <ele>1835.8</ele>
        <time>2022-07-19T10:57:49Z</time>
      </trkpt>
      <trkpt lat="44.32214" lon="6.86075">
        <ele>1835.8</ele>
        <time>2022-07-19T10:57:50Z</time>
      </trkpt>
      <trkpt lat="44.32213" lon="6.86078">
        <ele>1836</ele>
        <time>2022-07-19T10:57:51Z</time>
      </trkpt>
      <trkpt lat="44.32212" lon="6.86081">
        <ele>1836</ele>
        <time>2022-07-19T10:57:52Z</time>
      </trkpt>
      <trkpt lat="44.32212" lon="6.86084">
        <ele>1836</ele>
        <time>2022-07-19T10:57:53Z</time>
      </trkpt>
      <trkpt lat="44.32211" lon="6.86086">
        <ele>1836.2</ele>
        <time>2022-07-19T10:57:54Z</time>
      </trkpt>
      <trkpt lat="44.32211" lon="6.86089">
        <ele>1836.2</ele>
        <time>2022-07-19T10:57:55Z</time>
      </trkpt>
      <trkpt lat="44.32212" lon="6.86091">
        <ele>1836.2</ele>
        <time>2022-07-19T10:57:56Z</time>
      </trkpt>
      <trkpt lat="44.32212" lon="6.86093">
        <ele>1836.2</ele>
        <time>2022-07-19T10:57:57Z</time>
      </trkpt>
      <trkpt lat="44.32212" lon="6.86094">
        <ele>1836.4</ele>
        <time>2022-07-19T10:57:58Z</time>
      </trkpt>
      <trkpt lat="44.32213" lon="6.86095">
        <ele>1836.4</ele>
        <time>2022-07-19T10:57:59Z</time>
      </trkpt>
      <trkpt lat="44.32213" lon="6.86095">
        <ele>1836.4</ele>
        <time>2022-07-19T10:58:00Z</time>
      </trkpt>
      <trkpt lat="44.32213" lon="6.86095">
        <ele>1836.4</ele>
        <time>2022-07-19T10:58:09Z</time>
      </trkpt>
      <trkpt lat="44.32213" lon="6.86095">
        <ele>1836.4</ele>
        <time>2022-07-19T10:58:13Z</time>
      </trkpt>
      <trkpt lat="44.32213" lon="6.86095">
        <ele>1836.4</ele>
        <time>2022-07-19T10:58:17Z</time>
      </trkpt>
      <trkpt lat="44.32213" lon="6.86095">
        <ele>1836.6</ele>
        <time>2022-07-19T10:58:21Z</time>
      </trkpt>
      <trkpt lat="44.32213" lon="6.86095">
        <ele>1836.8</ele>
        <time>2022-07-19T10:58:25Z</time>
      </trkpt>
      <trkpt lat="44.32213" lon="6.86095">
        <ele>1836.8</ele>
        <time>2022-07-19T10:58:37Z</time>
      </trkpt>
      <trkpt lat="44.32213" lon="6.86095">
        <ele>1836.8</ele>
        <time>2022-07-19T10:58:48Z</time>
      </trkpt>
      <trkpt lat="44.32213" lon="6.86095">
        <ele>1836.8</ele>
        <time>2022-07-19T10:59:47Z</time>
      </trkpt>
      <trkpt lat="44.32213" lon="6.86095">
        <ele>1836.6</ele>
        <time>2022-07-19T11:07:05Z</time>
      </trkpt>
      <trkpt lat="44.32213" lon="6.86095">
        <ele>1837.8</ele>
        <time>2022-07-19T11:15:30Z</time>
      </trkpt>
      <trkpt lat="44.32213" lon="6.86095">
        <ele>1837.8</ele>
        <time>2022-07-19T11:15:38Z</time>
      </trkpt>
      <trkpt lat="44.32213" lon="6.86095">
        <ele>1838</ele>
        <time>2022-07-19T11:16:44Z</time>
      </trkpt>
      <trkpt lat="44.32213" lon="6.86095">
        <ele>1838</ele>
        <time>2022-07-19T11:16:48Z</time>
      </trkpt>
      <trkpt lat="44.32213" lon="6.86095">
        <ele>1838</ele>
        <time>2022-07-19T11:16:55Z</time>
      </trkpt>
      <trkpt lat="44.32213" lon="6.86095">
        <ele>1838</ele>
        <time>2022-07-19T11:16:59Z</time>
      </trkpt>
      <trkpt lat="44.32211" lon="6.86094">
        <ele>1838</ele>
        <time>2022-07-19T11:17:02Z</time>
      </trkpt>
      <trkpt lat="44.32209" lon="6.86095">
        <ele>1838</ele>
        <time>2022-07-19T11:17:03Z</time>
      </trkpt>
      <trkpt lat="44.32208" lon="6.86097">
        <ele>1838</ele>
        <time>2022-07-19T11:17:04Z</time>
      </trkpt>
      <trkpt lat="44.32206" lon="6.86099">
        <ele>1838</ele>
        <time>2022-07-19T11:17:05Z</time>
      </trkpt>
      <trkpt lat="44.32205" lon="6.86101">
        <ele>1838</ele>
        <time>2022-07-19T11:17:06Z</time>
      </trkpt>
      <trkpt lat="44.32204" lon="6.86103">
        <ele>1838</ele>
        <time>2022-07-19T11:17:07Z</time>
      </trkpt>
      <trkpt lat="44.32202" lon="6.86105">
        <ele>1838</ele>
        <time>2022-07-19T11:17:08Z</time>
      </trkpt>
      <trkpt lat="44.322" lon="6.86106">
        <ele>1838</ele>
        <time>2022-07-19T11:17:09Z</time>
      </trkpt>
      <trkpt lat="44.32197" lon="6.86107">
        <ele>1838</ele>
        <time>2022-07-19T11:17:10Z</time>
      </trkpt>
      <trkpt lat="44.32195" lon="6.86109">
        <ele>1838.2</ele>
        <time>2022-07-19T11:17:11Z</time>
      </trkpt>
      <trkpt lat="44.32193" lon="6.86111">
        <ele>1838.4</ele>
        <time>2022-07-19T11:17:12Z</time>
      </trkpt>
      <trkpt lat="44.32191" lon="6.86113">
        <ele>1838.4</ele>
        <time>2022-07-19T11:17:13Z</time>
      </trkpt>
      <trkpt lat="44.32188" lon="6.86115">
        <ele>1838.6</ele>
        <time>2022-07-19T11:17:14Z</time>
      </trkpt>
      <trkpt lat="44.32186" lon="6.86117">
        <ele>1838.6</ele>
        <time>2022-07-19T11:17:15Z</time>
      </trkpt>
      <trkpt lat="44.32184" lon="6.86119">
        <ele>1839</ele>
        <time>2022-07-19T11:17:16Z</time>
      </trkpt>
      <trkpt lat="44.32182" lon="6.86121">
        <ele>1839</ele>
        <time>2022-07-19T11:17:17Z</time>
      </trkpt>
      <trkpt lat="44.3218" lon="6.86122">
        <ele>1839</ele>
        <time>2022-07-19T11:17:18Z</time>
      </trkpt>
      <trkpt lat="44.32178" lon="6.86124">
        <ele>1839.2</ele>
        <time>2022-07-19T11:17:19Z</time>
      </trkpt>
      <trkpt lat="44.32176" lon="6.86125">
        <ele>1839.4</ele>
        <time>2022-07-19T11:17:20Z</time>
      </trkpt>
      <trkpt lat="44.32174" lon="6.86127">
        <ele>1839.4</ele>
        <time>2022-07-19T11:17:21Z</time>
      </trkpt>
      <trkpt lat="44.32173" lon="6.86129">
        <ele>1839.8</ele>
        <time>2022-07-19T11:17:22Z</time>
      </trkpt>
      <trkpt lat="44.32171" lon="6.86131">
        <ele>1840</ele>
        <time>2022-07-19T11:17:23Z</time>
      </trkpt>
      <trkpt lat="44.32169" lon="6.86132">
        <ele>1840</ele>
        <time>2022-07-19T11:17:24Z</time>
      </trkpt>
      <trkpt lat="44.32167" lon="6.86134">
        <ele>1840.2</ele>
        <time>2022-07-19T11:17:25Z</time>
      </trkpt>
      <trkpt lat="44.32165" lon="6.86135">
        <ele>1840.2</ele>
        <time>2022-07-19T11:17:26Z</time>
      </trkpt>
      <trkpt lat="44.32163" lon="6.86137">
        <ele>1840.6</ele>
        <time>2022-07-19T11:17:27Z</time>
      </trkpt>
      <trkpt lat="44.32161" lon="6.86139">
        <ele>1840.6</ele>
        <time>2022-07-19T11:17:28Z</time>
      </trkpt>
      <trkpt lat="44.3216" lon="6.86142">
        <ele>1840.6</ele>
        <time>2022-07-19T11:17:29Z</time>
      </trkpt>
      <trkpt lat="44.32158" lon="6.86144">
        <ele>1840.8</ele>
        <time>2022-07-19T11:17:30Z</time>
      </trkpt>
      <trkpt lat="44.32157" lon="6.86147">
        <ele>1840.8</ele>
        <time>2022-07-19T11:17:31Z</time>
      </trkpt>
      <trkpt lat="44.32157" lon="6.8615">
        <ele>1840.8</ele>
        <time>2022-07-19T11:17:32Z</time>
      </trkpt>
      <trkpt lat="44.32156" lon="6.86153">
        <ele>1841</ele>
        <time>2022-07-19T11:17:33Z</time>
      </trkpt>
      <trkpt lat="44.32156" lon="6.86156">
        <ele>1841</ele>
        <time>2022-07-19T11:17:34Z</time>
      </trkpt>
      <trkpt lat="44.32156" lon="6.8616">
        <ele>1841</ele>
        <time>2022-07-19T11:17:35Z</time>
      </trkpt>
      <trkpt lat="44.32157" lon="6.86163">
        <ele>1841.2</ele>
        <time>2022-07-19T11:17:36Z</time>
      </trkpt>
      <trkpt lat="44.32158" lon="6.86165">
        <ele>1841.2</ele>
        <time>2022-07-19T11:17:37Z</time>
      </trkpt>
      <trkpt lat="44.32159" lon="6.86168">
        <ele>1841.6</ele>
        <time>2022-07-19T11:17:38Z</time>
      </trkpt>
      <trkpt lat="44.3216" lon="6.8617">
        <ele>1841.6</ele>
        <time>2022-07-19T11:17:39Z</time>
      </trkpt>
      <trkpt lat="44.32161" lon="6.86172">
        <ele>1841.8</ele>
        <time>2022-07-19T11:17:40Z</time>
      </trkpt>
      <trkpt lat="44.32162" lon="6.86174">
        <ele>1841.8</ele>
        <time>2022-07-19T11:17:41Z</time>
      </trkpt>
      <trkpt lat="44.32163" lon="6.86176">
        <ele>1841.8</ele>
        <time>2022-07-19T11:17:42Z</time>
      </trkpt>
      <trkpt lat="44.32164" lon="6.86178">
        <ele>1842</ele>
        <time>2022-07-19T11:17:43Z</time>
      </trkpt>
      <trkpt lat="44.32165" lon="6.8618">
        <ele>1842</ele>
        <time>2022-07-19T11:17:44Z</time>
      </trkpt>
      <trkpt lat="44.32166" lon="6.86182">
        <ele>1842.2</ele>
        <time>2022-07-19T11:17:45Z</time>
      </trkpt>
      <trkpt lat="44.32166" lon="6.86184">
        <ele>1842.2</ele>
        <time>2022-07-19T11:17:46Z</time>
      </trkpt>
      <trkpt lat="44.32167" lon="6.86186">
        <ele>1842.6</ele>
        <time>2022-07-19T11:17:47Z</time>
      </trkpt>
      <trkpt lat="44.32168" lon="6.86188">
        <ele>1842.6</ele>
        <time>2022-07-19T11:17:48Z</time>
      </trkpt>
      <trkpt lat="44.32169" lon="6.8619">
        <ele>1842.8</ele>
        <time>2022-07-19T11:17:49Z</time>
      </trkpt>
      <trkpt lat="44.3217" lon="6.86192">
        <ele>1842.8</ele>
        <time>2022-07-19T11:17:50Z</time>
      </trkpt>
      <trkpt lat="44.32171" lon="6.86194">
        <ele>1843</ele>
        <time>2022-07-19T11:17:51Z</time>
      </trkpt>
      <trkpt lat="44.32172" lon="6.86196">
        <ele>1843</ele>
        <time>2022-07-19T11:17:52Z</time>
      </trkpt>
      <trkpt lat="44.32173" lon="6.86198">
        <ele>1843</ele>
        <time>2022-07-19T11:17:53Z</time>
      </trkpt>
      <trkpt lat="44.32174" lon="6.862">
        <ele>1843.4</ele>
        <time>2022-07-19T11:17:54Z</time>
      </trkpt>
      <trkpt lat="44.32175" lon="6.86202">
        <ele>1843.4</ele>
        <time>2022-07-19T11:17:55Z</time>
      </trkpt>
      <trkpt lat="44.32177" lon="6.86204">
        <ele>1843.4</ele>
        <time>2022-07-19T11:17:56Z</time>
      </trkpt>
      <trkpt lat="44.32178" lon="6.86206">
        <ele>1843.6</ele>
        <time>2022-07-19T11:17:57Z</time>
      </trkpt>
      <trkpt lat="44.32179" lon="6.86208">
        <ele>1843.6</ele>
        <time>2022-07-19T11:17:58Z</time>
      </trkpt>
      <trkpt lat="44.32181" lon="6.8621">
        <ele>1843.6</ele>
        <time>2022-07-19T11:17:59Z</time>
      </trkpt>
      <trkpt lat="44.32182" lon="6.86212">
        <ele>1843.8</ele>
        <time>2022-07-19T11:18:00Z</time>
      </trkpt>
      <trkpt lat="44.32183" lon="6.86214">
        <ele>1843.8</ele>
        <time>2022-07-19T11:18:01Z</time>
      </trkpt>
      <trkpt lat="44.32185" lon="6.86216">
        <ele>1844</ele>
        <time>2022-07-19T11:18:02Z</time>
      </trkpt>
      <trkpt lat="44.32186" lon="6.86218">
        <ele>1844</ele>
        <time>2022-07-19T11:18:03Z</time>
      </trkpt>
      <trkpt lat="44.32187" lon="6.8622">
        <ele>1844</ele>
        <time>2022-07-19T11:18:04Z</time>
      </trkpt>
      <trkpt lat="44.32188" lon="6.86222">
        <ele>1844.4</ele>
        <time>2022-07-19T11:18:05Z</time>
      </trkpt>
      <trkpt lat="44.32189" lon="6.86224">
        <ele>1844.4</ele>
        <time>2022-07-19T11:18:06Z</time>
      </trkpt>
      <trkpt lat="44.3219" lon="6.86226">
        <ele>1844.8</ele>
        <time>2022-07-19T11:18:07Z</time>
      </trkpt>
      <trkpt lat="44.32191" lon="6.86227">
        <ele>1845</ele>
        <time>2022-07-19T11:18:08Z</time>
      </trkpt>
      <trkpt lat="44.32192" lon="6.86229">
        <ele>1845</ele>
        <time>2022-07-19T11:18:09Z</time>
      </trkpt>
      <trkpt lat="44.32193" lon="6.86231">
        <ele>1845.4</ele>
        <time>2022-07-19T11:18:10Z</time>
      </trkpt>
      <trkpt lat="44.32194" lon="6.86233">
        <ele>1845.6</ele>
        <time>2022-07-19T11:18:11Z</time>
      </trkpt>
      <trkpt lat="44.32194" lon="6.86235">
        <ele>1845.6</ele>
        <time>2022-07-19T11:18:12Z</time>
      </trkpt>
      <trkpt lat="44.32195" lon="6.86237">
        <ele>1846.2</ele>
        <time>2022-07-19T11:18:13Z</time>
      </trkpt>
      <trkpt lat="44.32197" lon="6.86239">
        <ele>1846.4</ele>
        <time>2022-07-19T11:18:14Z</time>
      </trkpt>
      <trkpt lat="44.32198" lon="6.86241">
        <ele>1846.6</ele>
        <time>2022-07-19T11:18:15Z</time>
      </trkpt>
      <trkpt lat="44.32199" lon="6.86243">
        <ele>1846.6</ele>
        <time>2022-07-19T11:18:16Z</time>
      </trkpt>
      <trkpt lat="44.322" lon="6.86244">
        <ele>1846.6</ele>
        <time>2022-07-19T11:18:17Z</time>
      </trkpt>
      <trkpt lat="44.32202" lon="6.86246">
        <ele>1847</ele>
        <time>2022-07-19T11:18:18Z</time>
      </trkpt>
      <trkpt lat="44.32203" lon="6.86247">
        <ele>1847.2</ele>
        <time>2022-07-19T11:18:19Z</time>
      </trkpt>
      <trkpt lat="44.32205" lon="6.86248">
        <ele>1847.2</ele>
        <time>2022-07-19T11:18:20Z</time>
      </trkpt>
      <trkpt lat="44.32206" lon="6.8625">
        <ele>1847.4</ele>
        <time>2022-07-19T11:18:21Z</time>
      </trkpt>
      <trkpt lat="44.32208" lon="6.86251">
        <ele>1847.4</ele>
        <time>2022-07-19T11:18:22Z</time>
      </trkpt>
      <trkpt lat="44.32209" lon="6.86252">
        <ele>1847.6</ele>
        <time>2022-07-19T11:18:23Z</time>
      </trkpt>
      <trkpt lat="44.32211" lon="6.86253">
        <ele>1847.6</ele>
        <time>2022-07-19T11:18:24Z</time>
      </trkpt>
      <trkpt lat="44.32212" lon="6.86254">
        <ele>1847.8</ele>
        <time>2022-07-19T11:18:25Z</time>
      </trkpt>
      <trkpt lat="44.32214" lon="6.86255">
        <ele>1847.8</ele>
        <time>2022-07-19T11:18:26Z</time>
      </trkpt>
      <trkpt lat="44.32215" lon="6.86256">
        <ele>1848.2</ele>
        <time>2022-07-19T11:18:27Z</time>
      </trkpt>
      <trkpt lat="44.32216" lon="6.86258">
        <ele>1848.2</ele>
        <time>2022-07-19T11:18:28Z</time>
      </trkpt>
      <trkpt lat="44.32217" lon="6.86259">
        <ele>1848.6</ele>
        <time>2022-07-19T11:18:29Z</time>
      </trkpt>
      <trkpt lat="44.32219" lon="6.8626">
        <ele>1848.6</ele>
        <time>2022-07-19T11:18:30Z</time>
      </trkpt>
      <trkpt lat="44.32221" lon="6.86261">
        <ele>1848.8</ele>
        <time>2022-07-19T11:18:31Z</time>
      </trkpt>
      <trkpt lat="44.32222" lon="6.86262">
        <ele>1848.8</ele>
        <time>2022-07-19T11:18:32Z</time>
      </trkpt>
      <trkpt lat="44.32223" lon="6.86263">
        <ele>1849.2</ele>
        <time>2022-07-19T11:18:33Z</time>
      </trkpt>
      <trkpt lat="44.32224" lon="6.86265">
        <ele>1849.2</ele>
        <time>2022-07-19T11:18:34Z</time>
      </trkpt>
      <trkpt lat="44.32226" lon="6.86266">
        <ele>1849.4</ele>
        <time>2022-07-19T11:18:35Z</time>
      </trkpt>
      <trkpt lat="44.32227" lon="6.86267">
        <ele>1849.4</ele>
        <time>2022-07-19T11:18:36Z</time>
      </trkpt>
      <trkpt lat="44.32228" lon="6.86269">
        <ele>1849.8</ele>
        <time>2022-07-19T11:18:37Z</time>
      </trkpt>
      <trkpt lat="44.3223" lon="6.8627">
        <ele>1849.8</ele>
        <time>2022-07-19T11:18:38Z</time>
      </trkpt>
      <trkpt lat="44.32231" lon="6.86271">
        <ele>1850</ele>
        <time>2022-07-19T11:18:39Z</time>
      </trkpt>
      <trkpt lat="44.32232" lon="6.86273">
        <ele>1850</ele>
        <time>2022-07-19T11:18:40Z</time>
      </trkpt>
      <trkpt lat="44.32233" lon="6.86274">
        <ele>1850.2</ele>
        <time>2022-07-19T11:18:41Z</time>
      </trkpt>
      <trkpt lat="44.32235" lon="6.86276">
        <ele>1850.2</ele>
        <time>2022-07-19T11:18:42Z</time>
      </trkpt>
      <trkpt lat="44.32237" lon="6.86278">
        <ele>1850.4</ele>
        <time>2022-07-19T11:18:43Z</time>
      </trkpt>
      <trkpt lat="44.32238" lon="6.86279">
        <ele>1850.4</ele>
        <time>2022-07-19T11:18:44Z</time>
      </trkpt>
      <trkpt lat="44.32239" lon="6.86281">
        <ele>1850.4</ele>
        <time>2022-07-19T11:18:45Z</time>
      </trkpt>
      <trkpt lat="44.3224" lon="6.86283">
        <ele>1850.6</ele>
        <time>2022-07-19T11:18:46Z</time>
      </trkpt>
      <trkpt lat="44.32241" lon="6.86284">
        <ele>1850.6</ele>
        <time>2022-07-19T11:18:47Z</time>
      </trkpt>
      <trkpt lat="44.32242" lon="6.86286">
        <ele>1850.8</ele>
        <time>2022-07-19T11:18:48Z</time>
      </trkpt>
      <trkpt lat="44.32243" lon="6.86289">
        <ele>1850.8</ele>
        <time>2022-07-19T11:18:49Z</time>
      </trkpt>
      <trkpt lat="44.32244" lon="6.86291">
        <ele>1851.2</ele>
        <time>2022-07-19T11:18:50Z</time>
      </trkpt>
      <trkpt lat="44.32244" lon="6.86294">
        <ele>1851.2</ele>
        <time>2022-07-19T11:18:51Z</time>
      </trkpt>
      <trkpt lat="44.32245" lon="6.86296">
        <ele>1851.4</ele>
        <time>2022-07-19T11:18:52Z</time>
      </trkpt>
      <trkpt lat="44.32245" lon="6.86298">
        <ele>1851.4</ele>
        <time>2022-07-19T11:18:53Z</time>
      </trkpt>
      <trkpt lat="44.32245" lon="6.86301">
        <ele>1851.8</ele>
        <time>2022-07-19T11:18:54Z</time>
      </trkpt>
      <trkpt lat="44.32245" lon="6.86303">
        <ele>1851.8</ele>
        <time>2022-07-19T11:18:55Z</time>
      </trkpt>
      <trkpt lat="44.32246" lon="6.86305">
        <ele>1852</ele>
        <time>2022-07-19T11:18:56Z</time>
      </trkpt>
      <trkpt lat="44.32246" lon="6.86307">
        <ele>1852</ele>
        <time>2022-07-19T11:18:57Z</time>
      </trkpt>
      <trkpt lat="44.32246" lon="6.86309">
        <ele>1852.4</ele>
        <time>2022-07-19T11:18:58Z</time>
      </trkpt>
      <trkpt lat="44.32247" lon="6.86311">
        <ele>1852.4</ele>
        <time>2022-07-19T11:18:59Z</time>
      </trkpt>
      <trkpt lat="44.32247" lon="6.86313">
        <ele>1852.6</ele>
        <time>2022-07-19T11:19:00Z</time>
      </trkpt>
      <trkpt lat="44.32247" lon="6.86315">
        <ele>1852.6</ele>
        <time>2022-07-19T11:19:01Z</time>
      </trkpt>
      <trkpt lat="44.32247" lon="6.86317">
        <ele>1852.6</ele>
        <time>2022-07-19T11:19:02Z</time>
      </trkpt>
      <trkpt lat="44.32248" lon="6.86319">
        <ele>1853</ele>
        <time>2022-07-19T11:19:03Z</time>
      </trkpt>
      <trkpt lat="44.32248" lon="6.86321">
        <ele>1853</ele>
        <time>2022-07-19T11:19:04Z</time>
      </trkpt>
      <trkpt lat="44.32249" lon="6.86324">
        <ele>1853.4</ele>
        <time>2022-07-19T11:19:05Z</time>
      </trkpt>
      <trkpt lat="44.32249" lon="6.86326">
        <ele>1853.6</ele>
        <time>2022-07-19T11:19:06Z</time>
      </trkpt>
      <trkpt lat="44.32249" lon="6.86328">
        <ele>1853.6</ele>
        <time>2022-07-19T11:19:07Z</time>
      </trkpt>
      <trkpt lat="44.32249" lon="6.8633">
        <ele>1853.8</ele>
        <time>2022-07-19T11:19:08Z</time>
      </trkpt>
      <trkpt lat="44.3225" lon="6.86333">
        <ele>1853.8</ele>
        <time>2022-07-19T11:19:09Z</time>
      </trkpt>
      <trkpt lat="44.3225" lon="6.86335">
        <ele>1854.2</ele>
        <time>2022-07-19T11:19:10Z</time>
      </trkpt>
      <trkpt lat="44.32249" lon="6.86337">
        <ele>1854.2</ele>
        <time>2022-07-19T11:19:11Z</time>
      </trkpt>
      <trkpt lat="44.32249" lon="6.8634">
        <ele>1854.4</ele>
        <time>2022-07-19T11:19:12Z</time>
      </trkpt>
      <trkpt lat="44.32249" lon="6.86342">
        <ele>1854.4</ele>
        <time>2022-07-19T11:19:13Z</time>
      </trkpt>
      <trkpt lat="44.3225" lon="6.86344">
        <ele>1854.6</ele>
        <time>2022-07-19T11:19:14Z</time>
      </trkpt>
      <trkpt lat="44.3225" lon="6.86347">
        <ele>1854.6</ele>
        <time>2022-07-19T11:19:15Z</time>
      </trkpt>
      <trkpt lat="44.32249" lon="6.86349">
        <ele>1855</ele>
        <time>2022-07-19T11:19:16Z</time>
      </trkpt>
      <trkpt lat="44.32249" lon="6.86352">
        <ele>1855</ele>
        <time>2022-07-19T11:19:17Z</time>
      </trkpt>
      <trkpt lat="44.32249" lon="6.86354">
        <ele>1855.2</ele>
        <time>2022-07-19T11:19:18Z</time>
      </trkpt>
      <trkpt lat="44.32249" lon="6.86356">
        <ele>1855.2</ele>
        <time>2022-07-19T11:19:19Z</time>
      </trkpt>
      <trkpt lat="44.32249" lon="6.86359">
        <ele>1855.2</ele>
        <time>2022-07-19T11:19:20Z</time>
      </trkpt>
      <trkpt lat="44.32249" lon="6.86361">
        <ele>1855.4</ele>
        <time>2022-07-19T11:19:21Z</time>
      </trkpt>
      <trkpt lat="44.32248" lon="6.86364">
        <ele>1855.4</ele>
        <time>2022-07-19T11:19:22Z</time>
      </trkpt>
      <trkpt lat="44.32248" lon="6.86366">
        <ele>1855.8</ele>
        <time>2022-07-19T11:19:23Z</time>
      </trkpt>
      <trkpt lat="44.32248" lon="6.86368">
        <ele>1855.8</ele>
        <time>2022-07-19T11:19:24Z</time>
      </trkpt>
      <trkpt lat="44.32248" lon="6.86371">
        <ele>1855.8</ele>
        <time>2022-07-19T11:19:25Z</time>
      </trkpt>
      <trkpt lat="44.32248" lon="6.86373">
        <ele>1856</ele>
        <time>2022-07-19T11:19:26Z</time>
      </trkpt>
      <trkpt lat="44.32248" lon="6.86375">
        <ele>1856</ele>
        <time>2022-07-19T11:19:27Z</time>
      </trkpt>
      <trkpt lat="44.32248" lon="6.86377">
        <ele>1856.4</ele>
        <time>2022-07-19T11:19:28Z</time>
      </trkpt>
      <trkpt lat="44.32248" lon="6.86379">
        <ele>1856.4</ele>
        <time>2022-07-19T11:19:29Z</time>
      </trkpt>
      <trkpt lat="44.32247" lon="6.86381">
        <ele>1856.6</ele>
        <time>2022-07-19T11:19:30Z</time>
      </trkpt>
      <trkpt lat="44.32247" lon="6.86383">
        <ele>1856.8</ele>
        <time>2022-07-19T11:19:31Z</time>
      </trkpt>
      <trkpt lat="44.32247" lon="6.86385">
        <ele>1857</ele>
        <time>2022-07-19T11:19:32Z</time>
      </trkpt>
      <trkpt lat="44.32248" lon="6.86387">
        <ele>1857.2</ele>
        <time>2022-07-19T11:19:33Z</time>
      </trkpt>
      <trkpt lat="44.32248" lon="6.8639">
        <ele>1857.6</ele>
        <time>2022-07-19T11:19:34Z</time>
      </trkpt>
      <trkpt lat="44.32248" lon="6.86392">
        <ele>1857.8</ele>
        <time>2022-07-19T11:19:35Z</time>
      </trkpt>
      <trkpt lat="44.32249" lon="6.86394">
        <ele>1858</ele>
        <time>2022-07-19T11:19:36Z</time>
      </trkpt>
      <trkpt lat="44.32249" lon="6.86396">
        <ele>1858</ele>
        <time>2022-07-19T11:19:37Z</time>
      </trkpt>
      <trkpt lat="44.3225" lon="6.86398">
        <ele>1858.4</ele>
        <time>2022-07-19T11:19:38Z</time>
      </trkpt>
      <trkpt lat="44.32251" lon="6.864">
        <ele>1858.4</ele>
        <time>2022-07-19T11:19:39Z</time>
      </trkpt>
      <trkpt lat="44.32252" lon="6.86401">
        <ele>1858.6</ele>
        <time>2022-07-19T11:19:40Z</time>
      </trkpt>
      <trkpt lat="44.32254" lon="6.86401">
        <ele>1859</ele>
        <time>2022-07-19T11:19:41Z</time>
      </trkpt>
      <trkpt lat="44.32255" lon="6.86402">
        <ele>1859</ele>
        <time>2022-07-19T11:19:42Z</time>
      </trkpt>
      <trkpt lat="44.32257" lon="6.86401">
        <ele>1859</ele>
        <time>2022-07-19T11:19:43Z</time>
      </trkpt>
      <trkpt lat="44.32259" lon="6.864">
        <ele>1859.2</ele>
        <time>2022-07-19T11:19:44Z</time>
      </trkpt>
      <trkpt lat="44.3226" lon="6.86398">
        <ele>1859.2</ele>
        <time>2022-07-19T11:19:45Z</time>
      </trkpt>
      <trkpt lat="44.32262" lon="6.86397">
        <ele>1859.2</ele>
        <time>2022-07-19T11:19:46Z</time>
      </trkpt>
      <trkpt lat="44.32263" lon="6.86395">
        <ele>1859.4</ele>
        <time>2022-07-19T11:19:47Z</time>
      </trkpt>
      <trkpt lat="44.32264" lon="6.86393">
        <ele>1859.4</ele>
        <time>2022-07-19T11:19:48Z</time>
      </trkpt>
      <trkpt lat="44.32265" lon="6.86391">
        <ele>1859.6</ele>
        <time>2022-07-19T11:19:49Z</time>
      </trkpt>
      <trkpt lat="44.32266" lon="6.86389">
        <ele>1859.6</ele>
        <time>2022-07-19T11:19:50Z</time>
      </trkpt>
      <trkpt lat="44.32267" lon="6.86387">
        <ele>1860</ele>
        <time>2022-07-19T11:19:51Z</time>
      </trkpt>
      <trkpt lat="44.32268" lon="6.86385">
        <ele>1860</ele>
        <time>2022-07-19T11:19:52Z</time>
      </trkpt>
      <trkpt lat="44.32268" lon="6.86383">
        <ele>1860.2</ele>
        <time>2022-07-19T11:19:53Z</time>
      </trkpt>
      <trkpt lat="44.32269" lon="6.8638">
        <ele>1860.2</ele>
        <time>2022-07-19T11:19:54Z</time>
      </trkpt>
      <trkpt lat="44.3227" lon="6.86378">
        <ele>1860.4</ele>
        <time>2022-07-19T11:19:55Z</time>
      </trkpt>
      <trkpt lat="44.3227" lon="6.86376">
        <ele>1860.4</ele>
        <time>2022-07-19T11:19:56Z</time>
      </trkpt>
      <trkpt lat="44.32271" lon="6.86374">
        <ele>1860.6</ele>
        <time>2022-07-19T11:19:57Z</time>
      </trkpt>
      <trkpt lat="44.32272" lon="6.86372">
        <ele>1860.6</ele>
        <time>2022-07-19T11:19:58Z</time>
      </trkpt>
      <trkpt lat="44.32272" lon="6.8637">
        <ele>1860.6</ele>
        <time>2022-07-19T11:19:59Z</time>
      </trkpt>
      <trkpt lat="44.32273" lon="6.86368">
        <ele>1861</ele>
        <time>2022-07-19T11:20:00Z</time>
      </trkpt>
      <trkpt lat="44.32274" lon="6.86367">
        <ele>1861</ele>
        <time>2022-07-19T11:20:01Z</time>
      </trkpt>
      <trkpt lat="44.32275" lon="6.86365">
        <ele>1861.2</ele>
        <time>2022-07-19T11:20:02Z</time>
      </trkpt>
      <trkpt lat="44.32275" lon="6.86362">
        <ele>1861.2</ele>
        <time>2022-07-19T11:20:03Z</time>
      </trkpt>
      <trkpt lat="44.32275" lon="6.8636">
        <ele>1861.6</ele>
        <time>2022-07-19T11:20:04Z</time>
      </trkpt>
      <trkpt lat="44.32275" lon="6.86358">
        <ele>1861.6</ele>
        <time>2022-07-19T11:20:05Z</time>
      </trkpt>
      <trkpt lat="44.32275" lon="6.86356">
        <ele>1861.8</ele>
        <time>2022-07-19T11:20:06Z</time>
      </trkpt>
      <trkpt lat="44.32275" lon="6.86353">
        <ele>1861.8</ele>
        <time>2022-07-19T11:20:07Z</time>
      </trkpt>
      <trkpt lat="44.32275" lon="6.86351">
        <ele>1862</ele>
        <time>2022-07-19T11:20:08Z</time>
      </trkpt>
      <trkpt lat="44.32276" lon="6.86349">
        <ele>1862</ele>
        <time>2022-07-19T11:20:09Z</time>
      </trkpt>
      <trkpt lat="44.32276" lon="6.86346">
        <ele>1862.4</ele>
        <time>2022-07-19T11:20:10Z</time>
      </trkpt>
      <trkpt lat="44.32277" lon="6.86344">
        <ele>1862.4</ele>
        <time>2022-07-19T11:20:11Z</time>
      </trkpt>
      <trkpt lat="44.32277" lon="6.86341">
        <ele>1862.6</ele>
        <time>2022-07-19T11:20:12Z</time>
      </trkpt>
      <trkpt lat="44.32278" lon="6.86339">
        <ele>1862.6</ele>
        <time>2022-07-19T11:20:13Z</time>
      </trkpt>
      <trkpt lat="44.32278" lon="6.86336">
        <ele>1862.6</ele>
        <time>2022-07-19T11:20:14Z</time>
      </trkpt>
      <trkpt lat="44.32278" lon="6.86334">
        <ele>1862.8</ele>
        <time>2022-07-19T11:20:15Z</time>
      </trkpt>
      <trkpt lat="44.32279" lon="6.86331">
        <ele>1863</ele>
        <time>2022-07-19T11:20:16Z</time>
      </trkpt>
      <trkpt lat="44.32279" lon="6.86328">
        <ele>1863</ele>
        <time>2022-07-19T11:20:17Z</time>
      </trkpt>
      <trkpt lat="44.32279" lon="6.86326">
        <ele>1863.4</ele>
        <time>2022-07-19T11:20:18Z</time>
      </trkpt>
      <trkpt lat="44.3228" lon="6.86323">
        <ele>1863.4</ele>
        <time>2022-07-19T11:20:19Z</time>
      </trkpt>
      <trkpt lat="44.32281" lon="6.8632">
        <ele>1863.6</ele>
        <time>2022-07-19T11:20:20Z</time>
      </trkpt>
      <trkpt lat="44.32281" lon="6.86318">
        <ele>1863.6</ele>
        <time>2022-07-19T11:20:21Z</time>
      </trkpt>
      <trkpt lat="44.32282" lon="6.86315">
        <ele>1863.8</ele>
        <time>2022-07-19T11:20:22Z</time>
      </trkpt>
      <trkpt lat="44.32283" lon="6.86313">
        <ele>1863.8</ele>
        <time>2022-07-19T11:20:23Z</time>
      </trkpt>
      <trkpt lat="44.32283" lon="6.8631">
        <ele>1864.2</ele>
        <time>2022-07-19T11:20:24Z</time>
      </trkpt>
      <trkpt lat="44.32284" lon="6.86308">
        <ele>1864.2</ele>
        <time>2022-07-19T11:20:25Z</time>
      </trkpt>
      <trkpt lat="44.32285" lon="6.86305">
        <ele>1864.2</ele>
        <time>2022-07-19T11:20:26Z</time>
      </trkpt>
      <trkpt lat="44.32287" lon="6.86303">
        <ele>1864.6</ele>
        <time>2022-07-19T11:20:27Z</time>
      </trkpt>
      <trkpt lat="44.32288" lon="6.86301">
        <ele>1864.6</ele>
        <time>2022-07-19T11:20:28Z</time>
      </trkpt>
      <trkpt lat="44.3229" lon="6.86299">
        <ele>1864.8</ele>
        <time>2022-07-19T11:20:29Z</time>
      </trkpt>
      <trkpt lat="44.32291" lon="6.86297">
        <ele>1864.8</ele>
        <time>2022-07-19T11:20:30Z</time>
      </trkpt>
      <trkpt lat="44.32292" lon="6.86295">
        <ele>1865</ele>
        <time>2022-07-19T11:20:31Z</time>
      </trkpt>
      <trkpt lat="44.32293" lon="6.86293">
        <ele>1865</ele>
        <time>2022-07-19T11:20:32Z</time>
      </trkpt>
      <trkpt lat="44.32294" lon="6.8629">
        <ele>1865.4</ele>
        <time>2022-07-19T11:20:33Z</time>
      </trkpt>
      <trkpt lat="44.32295" lon="6.86288">
        <ele>1865.4</ele>
        <time>2022-07-19T11:20:34Z</time>
      </trkpt>
      <trkpt lat="44.32297" lon="6.86286">
        <ele>1865.6</ele>
        <time>2022-07-19T11:20:35Z</time>
      </trkpt>
      <trkpt lat="44.32298" lon="6.86284">
        <ele>1865.6</ele>
        <time>2022-07-19T11:20:36Z</time>
      </trkpt>
      <trkpt lat="44.32298" lon="6.86281">
        <ele>1866</ele>
        <time>2022-07-19T11:20:37Z</time>
      </trkpt>
      <trkpt lat="44.32299" lon="6.86279">
        <ele>1866.2</ele>
        <time>2022-07-19T11:20:38Z</time>
      </trkpt>
      <trkpt lat="44.323" lon="6.86277">
        <ele>1866.2</ele>
        <time>2022-07-19T11:20:39Z</time>
      </trkpt>
      <trkpt lat="44.323" lon="6.86275">
        <ele>1866.6</ele>
        <time>2022-07-19T11:20:40Z</time>
      </trkpt>
      <trkpt lat="44.32301" lon="6.86272">
        <ele>1866.6</ele>
        <time>2022-07-19T11:20:41Z</time>
      </trkpt>
      <trkpt lat="44.32302" lon="6.8627">
        <ele>1867</ele>
        <time>2022-07-19T11:20:42Z</time>
      </trkpt>
      <trkpt lat="44.32303" lon="6.86268">
        <ele>1867</ele>
        <time>2022-07-19T11:20:43Z</time>
      </trkpt>
      <trkpt lat="44.32303" lon="6.86266">
        <ele>1867.4</ele>
        <time>2022-07-19T11:20:44Z</time>
      </trkpt>
      <trkpt lat="44.32304" lon="6.86264">
        <ele>1867.4</ele>
        <time>2022-07-19T11:20:45Z</time>
      </trkpt>
      <trkpt lat="44.32304" lon="6.86261">
        <ele>1867.6</ele>
        <time>2022-07-19T11:20:46Z</time>
      </trkpt>
      <trkpt lat="44.32304" lon="6.86259">
        <ele>1867.6</ele>
        <time>2022-07-19T11:20:47Z</time>
      </trkpt>
      <trkpt lat="44.32304" lon="6.86257">
        <ele>1868</ele>
        <time>2022-07-19T11:20:48Z</time>
      </trkpt>
      <trkpt lat="44.32303" lon="6.86255">
        <ele>1868</ele>
        <time>2022-07-19T11:20:49Z</time>
      </trkpt>
      <trkpt lat="44.32303" lon="6.86252">
        <ele>1868.2</ele>
        <time>2022-07-19T11:20:50Z</time>
      </trkpt>
      <trkpt lat="44.32303" lon="6.8625">
        <ele>1868.2</ele>
        <time>2022-07-19T11:20:51Z</time>
      </trkpt>
      <trkpt lat="44.32302" lon="6.86248">
        <ele>1868.4</ele>
        <time>2022-07-19T11:20:52Z</time>
      </trkpt>
      <trkpt lat="44.32302" lon="6.86246">
        <ele>1868.4</ele>
        <time>2022-07-19T11:20:53Z</time>
      </trkpt>
      <trkpt lat="44.32301" lon="6.86244">
        <ele>1868.8</ele>
        <time>2022-07-19T11:20:54Z</time>
      </trkpt>
      <trkpt lat="44.32301" lon="6.86241">
        <ele>1868.8</ele>
        <time>2022-07-19T11:20:55Z</time>
      </trkpt>
      <trkpt lat="44.323" lon="6.86239">
        <ele>1869</ele>
        <time>2022-07-19T11:20:56Z</time>
      </trkpt>
      <trkpt lat="44.32299" lon="6.86237">
        <ele>1869</ele>
        <time>2022-07-19T11:20:57Z</time>
      </trkpt>
      <trkpt lat="44.32298" lon="6.86236">
        <ele>1869.2</ele>
        <time>2022-07-19T11:20:58Z</time>
      </trkpt>
      <trkpt lat="44.32296" lon="6.86234">
        <ele>1869.2</ele>
        <time>2022-07-19T11:20:59Z</time>
      </trkpt>
      <trkpt lat="44.32295" lon="6.86232">
        <ele>1869.6</ele>
        <time>2022-07-19T11:21:00Z</time>
      </trkpt>
      <trkpt lat="44.32294" lon="6.8623">
        <ele>1869.6</ele>
        <time>2022-07-19T11:21:01Z</time>
      </trkpt>
      <trkpt lat="44.32293" lon="6.86228">
        <ele>1869.6</ele>
        <time>2022-07-19T11:21:02Z</time>
      </trkpt>
      <trkpt lat="44.32291" lon="6.86226">
        <ele>1869.8</ele>
        <time>2022-07-19T11:21:03Z</time>
      </trkpt>
      <trkpt lat="44.3229" lon="6.86224">
        <ele>1869.8</ele>
        <time>2022-07-19T11:21:04Z</time>
      </trkpt>
      <trkpt lat="44.32289" lon="6.86222">
        <ele>1869.8</ele>
        <time>2022-07-19T11:21:05Z</time>
      </trkpt>
      <trkpt lat="44.32288" lon="6.8622">
        <ele>1870</ele>
        <time>2022-07-19T11:21:06Z</time>
      </trkpt>
      <trkpt lat="44.32286" lon="6.86219">
        <ele>1870</ele>
        <time>2022-07-19T11:21:07Z</time>
      </trkpt>
      <trkpt lat="44.32285" lon="6.86217">
        <ele>1870</ele>
        <time>2022-07-19T11:21:08Z</time>
      </trkpt>
      <trkpt lat="44.32283" lon="6.86216">
        <ele>1870.4</ele>
        <time>2022-07-19T11:21:09Z</time>
      </trkpt>
      <trkpt lat="44.32282" lon="6.86214">
        <ele>1870.4</ele>
        <time>2022-07-19T11:21:10Z</time>
      </trkpt>
      <trkpt lat="44.32281" lon="6.86213">
        <ele>1870.8</ele>
        <time>2022-07-19T11:21:11Z</time>
      </trkpt>
      <trkpt lat="44.32279" lon="6.86211">
        <ele>1870.8</ele>
        <time>2022-07-19T11:21:12Z</time>
      </trkpt>
      <trkpt lat="44.32278" lon="6.8621">
        <ele>1871</ele>
        <time>2022-07-19T11:21:13Z</time>
      </trkpt>
      <trkpt lat="44.32277" lon="6.86208">
        <ele>1871</ele>
        <time>2022-07-19T11:21:14Z</time>
      </trkpt>
      <trkpt lat="44.32276" lon="6.86206">
        <ele>1871.4</ele>
        <time>2022-07-19T11:21:15Z</time>
      </trkpt>
      <trkpt lat="44.32275" lon="6.86205">
        <ele>1871.4</ele>
        <time>2022-07-19T11:21:16Z</time>
      </trkpt>
      <trkpt lat="44.32274" lon="6.86203">
        <ele>1871.8</ele>
        <time>2022-07-19T11:21:17Z</time>
      </trkpt>
      <trkpt lat="44.32273" lon="6.86201">
        <ele>1871.8</ele>
        <time>2022-07-19T11:21:18Z</time>
      </trkpt>
      <trkpt lat="44.32272" lon="6.86199">
        <ele>1872.2</ele>
        <time>2022-07-19T11:21:19Z</time>
      </trkpt>
      <trkpt lat="44.32272" lon="6.86197">
        <ele>1872.4</ele>
        <time>2022-07-19T11:21:20Z</time>
      </trkpt>
      <trkpt lat="44.32272" lon="6.86195">
        <ele>1872.4</ele>
        <time>2022-07-19T11:21:21Z</time>
      </trkpt>
      <trkpt lat="44.32272" lon="6.86193">
        <ele>1872.8</ele>
        <time>2022-07-19T11:21:22Z</time>
      </trkpt>
      <trkpt lat="44.32271" lon="6.86191">
        <ele>1873</ele>
        <time>2022-07-19T11:21:23Z</time>
      </trkpt>
      <trkpt lat="44.32271" lon="6.86189">
        <ele>1873.2</ele>
        <time>2022-07-19T11:21:24Z</time>
      </trkpt>
      <trkpt lat="44.32271" lon="6.86187">
        <ele>1873.4</ele>
        <time>2022-07-19T11:21:25Z</time>
      </trkpt>
      <trkpt lat="44.32271" lon="6.86185">
        <ele>1873.4</ele>
        <time>2022-07-19T11:21:26Z</time>
      </trkpt>
      <trkpt lat="44.32271" lon="6.86183">
        <ele>1873.8</ele>
        <time>2022-07-19T11:21:27Z</time>
      </trkpt>
      <trkpt lat="44.32273" lon="6.86181">
        <ele>1873.8</ele>
        <time>2022-07-19T11:21:28Z</time>
      </trkpt>
      <trkpt lat="44.32274" lon="6.86179">
        <ele>1874</ele>
        <time>2022-07-19T11:21:29Z</time>
      </trkpt>
      <trkpt lat="44.32276" lon="6.86178">
        <ele>1874.4</ele>
        <time>2022-07-19T11:21:30Z</time>
      </trkpt>
      <trkpt lat="44.32278" lon="6.86177">
        <ele>1874.6</ele>
        <time>2022-07-19T11:21:31Z</time>
      </trkpt>
      <trkpt lat="44.32279" lon="6.86176">
        <ele>1874.8</ele>
        <time>2022-07-19T11:21:32Z</time>
      </trkpt>
      <trkpt lat="44.32281" lon="6.86176">
        <ele>1875</ele>
        <time>2022-07-19T11:21:33Z</time>
      </trkpt>
      <trkpt lat="44.32283" lon="6.86175">
        <ele>1875.2</ele>
        <time>2022-07-19T11:21:34Z</time>
      </trkpt>
      <trkpt lat="44.32285" lon="6.86174">
        <ele>1875.2</ele>
        <time>2022-07-19T11:21:35Z</time>
      </trkpt>
      <trkpt lat="44.32287" lon="6.86174">
        <ele>1875.6</ele>
        <time>2022-07-19T11:21:36Z</time>
      </trkpt>
      <trkpt lat="44.32289" lon="6.86174">
        <ele>1875.8</ele>
        <time>2022-07-19T11:21:37Z</time>
      </trkpt>
      <trkpt lat="44.32291" lon="6.86173">
        <ele>1876</ele>
        <time>2022-07-19T11:21:38Z</time>
      </trkpt>
      <trkpt lat="44.32293" lon="6.86172">
        <ele>1876.4</ele>
        <time>2022-07-19T11:21:39Z</time>
      </trkpt>
      <trkpt lat="44.32295" lon="6.86172">
        <ele>1876.4</ele>
        <time>2022-07-19T11:21:40Z</time>
      </trkpt>
      <trkpt lat="44.32297" lon="6.86171">
        <ele>1876.6</ele>
        <time>2022-07-19T11:21:41Z</time>
      </trkpt>
      <trkpt lat="44.32299" lon="6.8617">
        <ele>1876.6</ele>
        <time>2022-07-19T11:21:42Z</time>
      </trkpt>
      <trkpt lat="44.32301" lon="6.8617">
        <ele>1877</ele>
        <time>2022-07-19T11:21:43Z</time>
      </trkpt>
      <trkpt lat="44.32303" lon="6.86169">
        <ele>1877</ele>
        <time>2022-07-19T11:21:44Z</time>
      </trkpt>
      <trkpt lat="44.32305" lon="6.86168">
        <ele>1877.2</ele>
        <time>2022-07-19T11:21:45Z</time>
      </trkpt>
      <trkpt lat="44.32307" lon="6.86167">
        <ele>1877.2</ele>
        <time>2022-07-19T11:21:46Z</time>
      </trkpt>
      <trkpt lat="44.32309" lon="6.86167">
        <ele>1877.4</ele>
        <time>2022-07-19T11:21:47Z</time>
      </trkpt>
      <trkpt lat="44.3231" lon="6.86165">
        <ele>1877.4</ele>
        <time>2022-07-19T11:21:48Z</time>
      </trkpt>
      <trkpt lat="44.32312" lon="6.86164">
        <ele>1877.8</ele>
        <time>2022-07-19T11:21:49Z</time>
      </trkpt>
      <trkpt lat="44.32313" lon="6.86162">
        <ele>1877.8</ele>
        <time>2022-07-19T11:21:50Z</time>
      </trkpt>
      <trkpt lat="44.32314" lon="6.86161">
        <ele>1877.8</ele>
        <time>2022-07-19T11:21:51Z</time>
      </trkpt>
      <trkpt lat="44.32316" lon="6.86159">
        <ele>1878</ele>
        <time>2022-07-19T11:21:52Z</time>
      </trkpt>
      <trkpt lat="44.32317" lon="6.86158">
        <ele>1878</ele>
        <time>2022-07-19T11:21:53Z</time>
      </trkpt>
      <trkpt lat="44.32318" lon="6.86157">
        <ele>1878.4</ele>
        <time>2022-07-19T11:21:54Z</time>
      </trkpt>
      <trkpt lat="44.3232" lon="6.86155">
        <ele>1878.4</ele>
        <time>2022-07-19T11:21:55Z</time>
      </trkpt>
      <trkpt lat="44.32321" lon="6.86154">
        <ele>1878.8</ele>
        <time>2022-07-19T11:21:56Z</time>
      </trkpt>
      <trkpt lat="44.32323" lon="6.86153">
        <ele>1879</ele>
        <time>2022-07-19T11:21:57Z</time>
      </trkpt>
      <trkpt lat="44.32324" lon="6.86152">
        <ele>1879</ele>
        <time>2022-07-19T11:21:58Z</time>
      </trkpt>
      <trkpt lat="44.32325" lon="6.8615">
        <ele>1879.2</ele>
        <time>2022-07-19T11:21:59Z</time>
      </trkpt>
      <trkpt lat="44.32327" lon="6.86149">
        <ele>1879.2</ele>
        <time>2022-07-19T11:22:00Z</time>
      </trkpt>
      <trkpt lat="44.32328" lon="6.86147">
        <ele>1879.4</ele>
        <time>2022-07-19T11:22:01Z</time>
      </trkpt>
      <trkpt lat="44.3233" lon="6.86146">
        <ele>1879.4</ele>
        <time>2022-07-19T11:22:02Z</time>
      </trkpt>
      <trkpt lat="44.32331" lon="6.86144">
        <ele>1879.8</ele>
        <time>2022-07-19T11:22:03Z</time>
      </trkpt>
      <trkpt lat="44.32333" lon="6.86142">
        <ele>1879.8</ele>
        <time>2022-07-19T11:22:04Z</time>
      </trkpt>
      <trkpt lat="44.32334" lon="6.8614">
        <ele>1880</ele>
        <time>2022-07-19T11:22:05Z</time>
      </trkpt>
      <trkpt lat="44.32335" lon="6.86139">
        <ele>1880</ele>
        <time>2022-07-19T11:22:06Z</time>
      </trkpt>
      <trkpt lat="44.32336" lon="6.86137">
        <ele>1880</ele>
        <time>2022-07-19T11:22:07Z</time>
      </trkpt>
      <trkpt lat="44.32337" lon="6.86135">
        <ele>1880.2</ele>
        <time>2022-07-19T11:22:08Z</time>
      </trkpt>
      <trkpt lat="44.32339" lon="6.86133">
        <ele>1880.2</ele>
        <time>2022-07-19T11:22:09Z</time>
      </trkpt>
      <trkpt lat="44.3234" lon="6.86131">
        <ele>1880.6</ele>
        <time>2022-07-19T11:22:10Z</time>
      </trkpt>
      <trkpt lat="44.32341" lon="6.86128">
        <ele>1880.6</ele>
        <time>2022-07-19T11:22:11Z</time>
      </trkpt>
      <trkpt lat="44.32341" lon="6.86126">
        <ele>1880.8</ele>
        <time>2022-07-19T11:22:12Z</time>
      </trkpt>
      <trkpt lat="44.32342" lon="6.86124">
        <ele>1880.8</ele>
        <time>2022-07-19T11:22:13Z</time>
      </trkpt>
      <trkpt lat="44.32343" lon="6.86122">
        <ele>1880.8</ele>
        <time>2022-07-19T11:22:14Z</time>
      </trkpt>
      <trkpt lat="44.32344" lon="6.8612">
        <ele>1881.2</ele>
        <time>2022-07-19T11:22:15Z</time>
      </trkpt>
      <trkpt lat="44.32345" lon="6.86118">
        <ele>1881.2</ele>
        <time>2022-07-19T11:22:16Z</time>
      </trkpt>
      <trkpt lat="44.32346" lon="6.86116">
        <ele>1881.4</ele>
        <time>2022-07-19T11:22:17Z</time>
      </trkpt>
      <trkpt lat="44.32347" lon="6.86114">
        <ele>1881.4</ele>
        <time>2022-07-19T11:22:18Z</time>
      </trkpt>
      <trkpt lat="44.32348" lon="6.86112">
        <ele>1881.8</ele>
        <time>2022-07-19T11:22:19Z</time>
      </trkpt>
      <trkpt lat="44.32349" lon="6.8611">
        <ele>1881.8</ele>
        <time>2022-07-19T11:22:20Z</time>
      </trkpt>
      <trkpt lat="44.3235" lon="6.86108">
        <ele>1882</ele>
        <time>2022-07-19T11:22:21Z</time>
      </trkpt>
      <trkpt lat="44.32351" lon="6.86106">
        <ele>1882</ele>
        <time>2022-07-19T11:22:22Z</time>
      </trkpt>
      <trkpt lat="44.32352" lon="6.86104">
        <ele>1882.2</ele>
        <time>2022-07-19T11:22:23Z</time>
      </trkpt>
      <trkpt lat="44.32353" lon="6.86102">
        <ele>1882.2</ele>
        <time>2022-07-19T11:22:24Z</time>
      </trkpt>
      <trkpt lat="44.32354" lon="6.861">
        <ele>1882.2</ele>
        <time>2022-07-19T11:22:25Z</time>
      </trkpt>
      <trkpt lat="44.32354" lon="6.86098">
        <ele>1882.6</ele>
        <time>2022-07-19T11:22:26Z</time>
      </trkpt>
      <trkpt lat="44.32355" lon="6.86096">
        <ele>1882.6</ele>
        <time>2022-07-19T11:22:27Z</time>
      </trkpt>
      <trkpt lat="44.32356" lon="6.86094">
        <ele>1882.8</ele>
        <time>2022-07-19T11:22:28Z</time>
      </trkpt>
      <trkpt lat="44.32356" lon="6.86092">
        <ele>1882.8</ele>
        <time>2022-07-19T11:22:29Z</time>
      </trkpt>
      <trkpt lat="44.32357" lon="6.8609">
        <ele>1883.2</ele>
        <time>2022-07-19T11:22:30Z</time>
      </trkpt>
      <trkpt lat="44.32358" lon="6.86088">
        <ele>1883.2</ele>
        <time>2022-07-19T11:22:31Z</time>
      </trkpt>
      <trkpt lat="44.32359" lon="6.86086">
        <ele>1883.4</ele>
        <time>2022-07-19T11:22:32Z</time>
      </trkpt>
      <trkpt lat="44.3236" lon="6.86085">
        <ele>1883.4</ele>
        <time>2022-07-19T11:22:33Z</time>
      </trkpt>
      <trkpt lat="44.32361" lon="6.86083">
        <ele>1883.8</ele>
        <time>2022-07-19T11:22:34Z</time>
      </trkpt>
      <trkpt lat="44.32362" lon="6.86081">
        <ele>1883.8</ele>
        <time>2022-07-19T11:22:35Z</time>
      </trkpt>
      <trkpt lat="44.32362" lon="6.86078">
        <ele>1884</ele>
        <time>2022-07-19T11:22:36Z</time>
      </trkpt>
      <trkpt lat="44.32362" lon="6.86076">
        <ele>1884</ele>
        <time>2022-07-19T11:22:37Z</time>
      </trkpt>
      <trkpt lat="44.32362" lon="6.86073">
        <ele>1884.2</ele>
        <time>2022-07-19T11:22:38Z</time>
      </trkpt>
      <trkpt lat="44.32363" lon="6.86071">
        <ele>1884.2</ele>
        <time>2022-07-19T11:22:39Z</time>
      </trkpt>
      <trkpt lat="44.32363" lon="6.86068">
        <ele>1884.2</ele>
        <time>2022-07-19T11:22:40Z</time>
      </trkpt>
      <trkpt lat="44.32363" lon="6.86066">
        <ele>1884.4</ele>
        <time>2022-07-19T11:22:41Z</time>
      </trkpt>
      <trkpt lat="44.32364" lon="6.86064">
        <ele>1884.4</ele>
        <time>2022-07-19T11:22:42Z</time>
      </trkpt>
      <trkpt lat="44.32364" lon="6.86061">
        <ele>1884.4</ele>
        <time>2022-07-19T11:22:43Z</time>
      </trkpt>
      <trkpt lat="44.32364" lon="6.86058">
        <ele>1884.8</ele>
        <time>2022-07-19T11:22:44Z</time>
      </trkpt>
      <trkpt lat="44.32364" lon="6.86056">
        <ele>1884.8</ele>
        <time>2022-07-19T11:22:45Z</time>
      </trkpt>
      <trkpt lat="44.32364" lon="6.86053">
        <ele>1884.8</ele>
        <time>2022-07-19T11:22:46Z</time>
      </trkpt>
      <trkpt lat="44.32363" lon="6.86051">
        <ele>1885</ele>
        <time>2022-07-19T11:22:47Z</time>
      </trkpt>
      <trkpt lat="44.32363" lon="6.86048">
        <ele>1885</ele>
        <time>2022-07-19T11:22:48Z</time>
      </trkpt>
      <trkpt lat="44.32364" lon="6.86046">
        <ele>1885</ele>
        <time>2022-07-19T11:22:49Z</time>
      </trkpt>
      <trkpt lat="44.32364" lon="6.86044">
        <ele>1885.4</ele>
        <time>2022-07-19T11:22:50Z</time>
      </trkpt>
      <trkpt lat="44.32365" lon="6.86041">
        <ele>1885.4</ele>
        <time>2022-07-19T11:22:51Z</time>
      </trkpt>
      <trkpt lat="44.32365" lon="6.86039">
        <ele>1885.6</ele>
        <time>2022-07-19T11:22:52Z</time>
      </trkpt>
      <trkpt lat="44.32365" lon="6.86036">
        <ele>1885.6</ele>
        <time>2022-07-19T11:22:53Z</time>
      </trkpt>
      <trkpt lat="44.32366" lon="6.86034">
        <ele>1885.8</ele>
        <time>2022-07-19T11:22:54Z</time>
      </trkpt>
      <trkpt lat="44.32366" lon="6.86031">
        <ele>1885.8</ele>
        <time>2022-07-19T11:22:55Z</time>
      </trkpt>
      <trkpt lat="44.32366" lon="6.86029">
        <ele>1886.2</ele>
        <time>2022-07-19T11:22:56Z</time>
      </trkpt>
      <trkpt lat="44.32367" lon="6.86026">
        <ele>1886.4</ele>
        <time>2022-07-19T11:22:57Z</time>
      </trkpt>
      <trkpt lat="44.32367" lon="6.86024">
        <ele>1886.4</ele>
        <time>2022-07-19T11:22:58Z</time>
      </trkpt>
      <trkpt lat="44.32367" lon="6.86022">
        <ele>1886.8</ele>
        <time>2022-07-19T11:22:59Z</time>
      </trkpt>
      <trkpt lat="44.32367" lon="6.86019">
        <ele>1886.8</ele>
        <time>2022-07-19T11:23:00Z</time>
      </trkpt>
      <trkpt lat="44.32367" lon="6.86017">
        <ele>1887.2</ele>
        <time>2022-07-19T11:23:01Z</time>
      </trkpt>
      <trkpt lat="44.32368" lon="6.86014">
        <ele>1887.2</ele>
        <time>2022-07-19T11:23:02Z</time>
      </trkpt>
      <trkpt lat="44.32368" lon="6.86012">
        <ele>1887.4</ele>
        <time>2022-07-19T11:23:03Z</time>
      </trkpt>
      <trkpt lat="44.32368" lon="6.8601">
        <ele>1887.4</ele>
        <time>2022-07-19T11:23:04Z</time>
      </trkpt>
      <trkpt lat="44.32368" lon="6.86007">
        <ele>1887.6</ele>
        <time>2022-07-19T11:23:05Z</time>
      </trkpt>
      <trkpt lat="44.32369" lon="6.86005">
        <ele>1887.6</ele>
        <time>2022-07-19T11:23:06Z</time>
      </trkpt>
      <trkpt lat="44.32369" lon="6.86003">
        <ele>1888</ele>
        <time>2022-07-19T11:23:07Z</time>
      </trkpt>
      <trkpt lat="44.3237" lon="6.86">
        <ele>1888</ele>
        <time>2022-07-19T11:23:08Z</time>
      </trkpt>
      <trkpt lat="44.32371" lon="6.85998">
        <ele>1888.4</ele>
        <time>2022-07-19T11:23:09Z</time>
      </trkpt>
      <trkpt lat="44.32372" lon="6.85996">
        <ele>1888.6</ele>
        <time>2022-07-19T11:23:10Z</time>
      </trkpt>
      <trkpt lat="44.32372" lon="6.85994">
        <ele>1888.6</ele>
        <time>2022-07-19T11:23:11Z</time>
      </trkpt>
      <trkpt lat="44.32373" lon="6.85991">
        <ele>1888.8</ele>
        <time>2022-07-19T11:23:12Z</time>
      </trkpt>
      <trkpt lat="44.32373" lon="6.85989">
        <ele>1888.8</ele>
        <time>2022-07-19T11:23:13Z</time>
      </trkpt>
      <trkpt lat="44.32374" lon="6.85987">
        <ele>1889</ele>
        <time>2022-07-19T11:23:14Z</time>
      </trkpt>
      <trkpt lat="44.32374" lon="6.85985">
        <ele>1889</ele>
        <time>2022-07-19T11:23:15Z</time>
      </trkpt>
      <trkpt lat="44.32375" lon="6.85983">
        <ele>1889.4</ele>
        <time>2022-07-19T11:23:16Z</time>
      </trkpt>
      <trkpt lat="44.32376" lon="6.85981">
        <ele>1889.4</ele>
        <time>2022-07-19T11:23:17Z</time>
      </trkpt>
      <trkpt lat="44.32377" lon="6.85979">
        <ele>1889.6</ele>
        <time>2022-07-19T11:23:18Z</time>
      </trkpt>
      <trkpt lat="44.32379" lon="6.85978">
        <ele>1889.6</ele>
        <time>2022-07-19T11:23:19Z</time>
      </trkpt>
      <trkpt lat="44.3238" lon="6.85976">
        <ele>1890</ele>
        <time>2022-07-19T11:23:20Z</time>
      </trkpt>
      <trkpt lat="44.32381" lon="6.85974">
        <ele>1890</ele>
        <time>2022-07-19T11:23:21Z</time>
      </trkpt>
      <trkpt lat="44.32382" lon="6.85972">
        <ele>1890.2</ele>
        <time>2022-07-19T11:23:22Z</time>
      </trkpt>
      <trkpt lat="44.32383" lon="6.8597">
        <ele>1890.2</ele>
        <time>2022-07-19T11:23:23Z</time>
      </trkpt>
      <trkpt lat="44.32384" lon="6.85968">
        <ele>1890.6</ele>
        <time>2022-07-19T11:23:24Z</time>
      </trkpt>
      <trkpt lat="44.32385" lon="6.85966">
        <ele>1890.6</ele>
        <time>2022-07-19T11:23:25Z</time>
      </trkpt>
      <trkpt lat="44.32386" lon="6.85964">
        <ele>1890.8</ele>
        <time>2022-07-19T11:23:26Z</time>
      </trkpt>
      <trkpt lat="44.32388" lon="6.85962">
        <ele>1890.8</ele>
        <time>2022-07-19T11:23:27Z</time>
      </trkpt>
      <trkpt lat="44.32389" lon="6.8596">
        <ele>1891.2</ele>
        <time>2022-07-19T11:23:28Z</time>
      </trkpt>
      <trkpt lat="44.3239" lon="6.85959">
        <ele>1891.2</ele>
        <time>2022-07-19T11:23:29Z</time>
      </trkpt>
      <trkpt lat="44.32391" lon="6.85957">
        <ele>1891.6</ele>
        <time>2022-07-19T11:23:30Z</time>
      </trkpt>
      <trkpt lat="44.32393" lon="6.85955">
        <ele>1891.6</ele>
        <time>2022-07-19T11:23:31Z</time>
      </trkpt>
      <trkpt lat="44.32394" lon="6.85953">
        <ele>1892</ele>
        <time>2022-07-19T11:23:32Z</time>
      </trkpt>
      <trkpt lat="44.32395" lon="6.85952">
        <ele>1892</ele>
        <time>2022-07-19T11:23:33Z</time>
      </trkpt>
      <trkpt lat="44.32396" lon="6.8595">
        <ele>1892.2</ele>
        <time>2022-07-19T11:23:34Z</time>
      </trkpt>
      <trkpt lat="44.32397" lon="6.85948">
        <ele>1892.2</ele>
        <time>2022-07-19T11:23:35Z</time>
      </trkpt>
      <trkpt lat="44.32399" lon="6.85946">
        <ele>1892.4</ele>
        <time>2022-07-19T11:23:36Z</time>
      </trkpt>
      <trkpt lat="44.324" lon="6.85944">
        <ele>1892.8</ele>
        <time>2022-07-19T11:23:38Z</time>
      </trkpt>
      <trkpt lat="44.32401" lon="6.85943">
        <ele>1892.8</ele>
        <time>2022-07-19T11:23:39Z</time>
      </trkpt>
      <trkpt lat="44.32402" lon="6.85941">
        <ele>1892.8</ele>
        <time>2022-07-19T11:23:40Z</time>
      </trkpt>
      <trkpt lat="44.32403" lon="6.85939">
        <ele>1893</ele>
        <time>2022-07-19T11:23:41Z</time>
      </trkpt>
      <trkpt lat="44.32404" lon="6.85937">
        <ele>1893</ele>
        <time>2022-07-19T11:23:42Z</time>
      </trkpt>
      <trkpt lat="44.32405" lon="6.85935">
        <ele>1893.4</ele>
        <time>2022-07-19T11:23:43Z</time>
      </trkpt>
      <trkpt lat="44.32407" lon="6.85933">
        <ele>1893.4</ele>
        <time>2022-07-19T11:23:44Z</time>
      </trkpt>
      <trkpt lat="44.32408" lon="6.85932">
        <ele>1893.6</ele>
        <time>2022-07-19T11:23:45Z</time>
      </trkpt>
      <trkpt lat="44.32409" lon="6.8593">
        <ele>1893.6</ele>
        <time>2022-07-19T11:23:46Z</time>
      </trkpt>
      <trkpt lat="44.32411" lon="6.85929">
        <ele>1893.6</ele>
        <time>2022-07-19T11:23:47Z</time>
      </trkpt>
      <trkpt lat="44.32412" lon="6.85928">
        <ele>1894</ele>
        <time>2022-07-19T11:23:48Z</time>
      </trkpt>
      <trkpt lat="44.32414" lon="6.85927">
        <ele>1894</ele>
        <time>2022-07-19T11:23:49Z</time>
      </trkpt>
      <trkpt lat="44.32415" lon="6.85925">
        <ele>1894.2</ele>
        <time>2022-07-19T11:23:50Z</time>
      </trkpt>
      <trkpt lat="44.32417" lon="6.85924">
        <ele>1894.2</ele>
        <time>2022-07-19T11:23:51Z</time>
      </trkpt>
      <trkpt lat="44.32418" lon="6.85922">
        <ele>1894.2</ele>
        <time>2022-07-19T11:23:52Z</time>
      </trkpt>
      <trkpt lat="44.3242" lon="6.85921">
        <ele>1894.6</ele>
        <time>2022-07-19T11:23:53Z</time>
      </trkpt>
      <trkpt lat="44.32421" lon="6.8592">
        <ele>1894.6</ele>
        <time>2022-07-19T11:23:54Z</time>
      </trkpt>
      <trkpt lat="44.32422" lon="6.85918">
        <ele>1894.8</ele>
        <time>2022-07-19T11:23:55Z</time>
      </trkpt>
      <trkpt lat="44.32424" lon="6.85917">
        <ele>1894.8</ele>
        <time>2022-07-19T11:23:56Z</time>
      </trkpt>
      <trkpt lat="44.32425" lon="6.85916">
        <ele>1894.8</ele>
        <time>2022-07-19T11:23:57Z</time>
      </trkpt>
      <trkpt lat="44.32426" lon="6.85914">
        <ele>1895</ele>
        <time>2022-07-19T11:23:58Z</time>
      </trkpt>
      <trkpt lat="44.32428" lon="6.85912">
        <ele>1895</ele>
        <time>2022-07-19T11:23:59Z</time>
      </trkpt>
      <trkpt lat="44.32428" lon="6.8591">
        <ele>1895.2</ele>
        <time>2022-07-19T11:24:00Z</time>
      </trkpt>
      <trkpt lat="44.32429" lon="6.85908">
        <ele>1895.2</ele>
        <time>2022-07-19T11:24:01Z</time>
      </trkpt>
      <trkpt lat="44.3243" lon="6.85906">
        <ele>1895.4</ele>
        <time>2022-07-19T11:24:02Z</time>
      </trkpt>
      <trkpt lat="44.32431" lon="6.85904">
        <ele>1895.4</ele>
        <time>2022-07-19T11:24:03Z</time>
      </trkpt>
      <trkpt lat="44.32431" lon="6.85902">
        <ele>1895.8</ele>
        <time>2022-07-19T11:24:04Z</time>
      </trkpt>
      <trkpt lat="44.32432" lon="6.859">
        <ele>1896</ele>
        <time>2022-07-19T11:24:05Z</time>
      </trkpt>
      <trkpt lat="44.32432" lon="6.85898">
        <ele>1896</ele>
        <time>2022-07-19T11:24:06Z</time>
      </trkpt>
      <trkpt lat="44.32433" lon="6.85896">
        <ele>1896.4</ele>
        <time>2022-07-19T11:24:07Z</time>
      </trkpt>
      <trkpt lat="44.32433" lon="6.85894">
        <ele>1896.4</ele>
        <time>2022-07-19T11:24:08Z</time>
      </trkpt>
      <trkpt lat="44.32434" lon="6.85892">
        <ele>1896.6</ele>
        <time>2022-07-19T11:24:09Z</time>
      </trkpt>
      <trkpt lat="44.32434" lon="6.8589">
        <ele>1896.6</ele>
        <time>2022-07-19T11:24:10Z</time>
      </trkpt>
      <trkpt lat="44.32434" lon="6.85888">
        <ele>1896.8</ele>
        <time>2022-07-19T11:24:11Z</time>
      </trkpt>
      <trkpt lat="44.32433" lon="6.85886">
        <ele>1896.8</ele>
        <time>2022-07-19T11:24:12Z</time>
      </trkpt>
      <trkpt lat="44.32433" lon="6.85884">
        <ele>1897.2</ele>
        <time>2022-07-19T11:24:13Z</time>
      </trkpt>
      <trkpt lat="44.32433" lon="6.85881">
        <ele>1897.2</ele>
        <time>2022-07-19T11:24:14Z</time>
      </trkpt>
      <trkpt lat="44.32433" lon="6.85879">
        <ele>1897.2</ele>
        <time>2022-07-19T11:24:15Z</time>
      </trkpt>
      <trkpt lat="44.32434" lon="6.85877">
        <ele>1897.4</ele>
        <time>2022-07-19T11:24:16Z</time>
      </trkpt>
      <trkpt lat="44.32434" lon="6.85874">
        <ele>1897.4</ele>
        <time>2022-07-19T11:24:17Z</time>
      </trkpt>
      <trkpt lat="44.32435" lon="6.85872">
        <ele>1897.8</ele>
        <time>2022-07-19T11:24:18Z</time>
      </trkpt>
      <trkpt lat="44.32435" lon="6.85869">
        <ele>1898</ele>
        <time>2022-07-19T11:24:19Z</time>
      </trkpt>
      <trkpt lat="44.32434" lon="6.85867">
        <ele>1898</ele>
        <time>2022-07-19T11:24:20Z</time>
      </trkpt>
      <trkpt lat="44.32434" lon="6.85864">
        <ele>1898.2</ele>
        <time>2022-07-19T11:24:21Z</time>
      </trkpt>
      <trkpt lat="44.32433" lon="6.85862">
        <ele>1898.2</ele>
        <time>2022-07-19T11:24:22Z</time>
      </trkpt>
      <trkpt lat="44.32433" lon="6.85859">
        <ele>1898.6</ele>
        <time>2022-07-19T11:24:23Z</time>
      </trkpt>
      <trkpt lat="44.32433" lon="6.85857">
        <ele>1898.6</ele>
        <time>2022-07-19T11:24:24Z</time>
      </trkpt>
      <trkpt lat="44.32433" lon="6.85854">
        <ele>1898.8</ele>
        <time>2022-07-19T11:24:25Z</time>
      </trkpt>
      <trkpt lat="44.32432" lon="6.85851">
        <ele>1898.8</ele>
        <time>2022-07-19T11:24:26Z</time>
      </trkpt>
      <trkpt lat="44.32432" lon="6.85849">
        <ele>1899.2</ele>
        <time>2022-07-19T11:24:27Z</time>
      </trkpt>
      <trkpt lat="44.32432" lon="6.85846">
        <ele>1899.2</ele>
        <time>2022-07-19T11:24:28Z</time>
      </trkpt>
      <trkpt lat="44.32431" lon="6.85844">
        <ele>1899.4</ele>
        <time>2022-07-19T11:24:29Z</time>
      </trkpt>
      <trkpt lat="44.32431" lon="6.85842">
        <ele>1899.4</ele>
        <time>2022-07-19T11:24:30Z</time>
      </trkpt>
      <trkpt lat="44.32431" lon="6.85839">
        <ele>1899.6</ele>
        <time>2022-07-19T11:24:31Z</time>
      </trkpt>
      <trkpt lat="44.32431" lon="6.85836">
        <ele>1899.6</ele>
        <time>2022-07-19T11:24:32Z</time>
      </trkpt>
      <trkpt lat="44.3243" lon="6.85834">
        <ele>1900</ele>
        <time>2022-07-19T11:24:33Z</time>
      </trkpt>
      <trkpt lat="44.3243" lon="6.85832">
        <ele>1900</ele>
        <time>2022-07-19T11:24:34Z</time>
      </trkpt>
      <trkpt lat="44.3243" lon="6.85829">
        <ele>1900.2</ele>
        <time>2022-07-19T11:24:35Z</time>
      </trkpt>
      <trkpt lat="44.3243" lon="6.85827">
        <ele>1900.2</ele>
        <time>2022-07-19T11:24:36Z</time>
      </trkpt>
      <trkpt lat="44.3243" lon="6.85825">
        <ele>1900.6</ele>
        <time>2022-07-19T11:24:37Z</time>
      </trkpt>
      <trkpt lat="44.3243" lon="6.85823">
        <ele>1900.6</ele>
        <time>2022-07-19T11:24:38Z</time>
      </trkpt>
      <trkpt lat="44.3243" lon="6.8582">
        <ele>1901</ele>
        <time>2022-07-19T11:24:39Z</time>
      </trkpt>
      <trkpt lat="44.3243" lon="6.85817">
        <ele>1901</ele>
        <time>2022-07-19T11:24:40Z</time>
      </trkpt>
      <trkpt lat="44.3243" lon="6.85815">
        <ele>1901.2</ele>
        <time>2022-07-19T11:24:41Z</time>
      </trkpt>
      <trkpt lat="44.3243" lon="6.85812">
        <ele>1901.2</ele>
        <time>2022-07-19T11:24:42Z</time>
      </trkpt>
      <trkpt lat="44.3243" lon="6.8581">
        <ele>1901.4</ele>
        <time>2022-07-19T11:24:43Z</time>
      </trkpt>
      <trkpt lat="44.3243" lon="6.85807">
        <ele>1901.4</ele>
        <time>2022-07-19T11:24:44Z</time>
      </trkpt>
      <trkpt lat="44.32431" lon="6.85805">
        <ele>1901.6</ele>
        <time>2022-07-19T11:24:45Z</time>
      </trkpt>
      <trkpt lat="44.32432" lon="6.85803">
        <ele>1901.6</ele>
        <time>2022-07-19T11:24:46Z</time>
      </trkpt>
      <trkpt lat="44.32433" lon="6.858">
        <ele>1902</ele>
        <time>2022-07-19T11:24:47Z</time>
      </trkpt>
      <trkpt lat="44.32434" lon="6.85799">
        <ele>1902.2</ele>
        <time>2022-07-19T11:24:48Z</time>
      </trkpt>
      <trkpt lat="44.32435" lon="6.85796">
        <ele>1902.2</ele>
        <time>2022-07-19T11:24:49Z</time>
      </trkpt>
      <trkpt lat="44.32436" lon="6.85794">
        <ele>1902.6</ele>
        <time>2022-07-19T11:24:50Z</time>
      </trkpt>
      <trkpt lat="44.32437" lon="6.85791">
        <ele>1902.6</ele>
        <time>2022-07-19T11:24:51Z</time>
      </trkpt>
      <trkpt lat="44.32438" lon="6.85789">
        <ele>1902.8</ele>
        <time>2022-07-19T11:24:52Z</time>
      </trkpt>
      <trkpt lat="44.32439" lon="6.85787">
        <ele>1902.8</ele>
        <time>2022-07-19T11:24:53Z</time>
      </trkpt>
      <trkpt lat="44.3244" lon="6.85785">
        <ele>1903.2</ele>
        <time>2022-07-19T11:24:54Z</time>
      </trkpt>
      <trkpt lat="44.32441" lon="6.85782">
        <ele>1903.2</ele>
        <time>2022-07-19T11:24:55Z</time>
      </trkpt>
      <trkpt lat="44.32441" lon="6.8578">
        <ele>1903.4</ele>
        <time>2022-07-19T11:24:56Z</time>
      </trkpt>
      <trkpt lat="44.32442" lon="6.85778">
        <ele>1903.4</ele>
        <time>2022-07-19T11:24:57Z</time>
      </trkpt>
      <trkpt lat="44.32443" lon="6.85775">
        <ele>1903.8</ele>
        <time>2022-07-19T11:24:58Z</time>
      </trkpt>
      <trkpt lat="44.32445" lon="6.85773">
        <ele>1904</ele>
        <time>2022-07-19T11:24:59Z</time>
      </trkpt>
      <trkpt lat="44.32446" lon="6.85771">
        <ele>1904</ele>
        <time>2022-07-19T11:25:00Z</time>
      </trkpt>
      <trkpt lat="44.32446" lon="6.85769">
        <ele>1904.4</ele>
        <time>2022-07-19T11:25:01Z</time>
      </trkpt>
      <trkpt lat="44.32447" lon="6.85766">
        <ele>1904.6</ele>
        <time>2022-07-19T11:25:02Z</time>
      </trkpt>
      <trkpt lat="44.32448" lon="6.85764">
        <ele>1904.6</ele>
        <time>2022-07-19T11:25:03Z</time>
      </trkpt>
      <trkpt lat="44.32449" lon="6.85762">
        <ele>1905</ele>
        <time>2022-07-19T11:25:04Z</time>
      </trkpt>
      <trkpt lat="44.3245" lon="6.85759">
        <ele>1905</ele>
        <time>2022-07-19T11:25:05Z</time>
      </trkpt>
      <trkpt lat="44.32451" lon="6.85757">
        <ele>1905.2</ele>
        <time>2022-07-19T11:25:06Z</time>
      </trkpt>
      <trkpt lat="44.32451" lon="6.85754">
        <ele>1905.4</ele>
        <time>2022-07-19T11:25:07Z</time>
      </trkpt>
      <trkpt lat="44.32453" lon="6.8575">
        <ele>1905.4</ele>
        <time>2022-07-19T11:25:08Z</time>
      </trkpt>
      <trkpt lat="44.32454" lon="6.85748">
        <ele>1905.8</ele>
        <time>2022-07-19T11:25:09Z</time>
      </trkpt>
      <trkpt lat="44.32455" lon="6.85745">
        <ele>1905.8</ele>
        <time>2022-07-19T11:25:10Z</time>
      </trkpt>
      <trkpt lat="44.32456" lon="6.85743">
        <ele>1906</ele>
        <time>2022-07-19T11:25:11Z</time>
      </trkpt>
      <trkpt lat="44.32457" lon="6.85741">
        <ele>1906</ele>
        <time>2022-07-19T11:25:12Z</time>
      </trkpt>
      <trkpt lat="44.32458" lon="6.85738">
        <ele>1906.4</ele>
        <time>2022-07-19T11:25:13Z</time>
      </trkpt>
      <trkpt lat="44.32459" lon="6.85736">
        <ele>1906.4</ele>
        <time>2022-07-19T11:25:14Z</time>
      </trkpt>
      <trkpt lat="44.3246" lon="6.85733">
        <ele>1906.8</ele>
        <time>2022-07-19T11:25:15Z</time>
      </trkpt>
      <trkpt lat="44.32461" lon="6.85731">
        <ele>1906.8</ele>
        <time>2022-07-19T11:25:16Z</time>
      </trkpt>
      <trkpt lat="44.32461" lon="6.85728">
        <ele>1906.8</ele>
        <time>2022-07-19T11:25:17Z</time>
      </trkpt>
      <trkpt lat="44.32462" lon="6.85726">
        <ele>1907.2</ele>
        <time>2022-07-19T11:25:18Z</time>
      </trkpt>
      <trkpt lat="44.32463" lon="6.85723">
        <ele>1907.2</ele>
        <time>2022-07-19T11:25:19Z</time>
      </trkpt>
      <trkpt lat="44.32463" lon="6.85721">
        <ele>1907.4</ele>
        <time>2022-07-19T11:25:20Z</time>
      </trkpt>
      <trkpt lat="44.32464" lon="6.85718">
        <ele>1907.8</ele>
        <time>2022-07-19T11:25:21Z</time>
      </trkpt>
      <trkpt lat="44.32465" lon="6.85716">
        <ele>1907.8</ele>
        <time>2022-07-19T11:25:22Z</time>
      </trkpt>
      <trkpt lat="44.32466" lon="6.85713">
        <ele>1908</ele>
        <time>2022-07-19T11:25:23Z</time>
      </trkpt>
      <trkpt lat="44.32467" lon="6.85711">
        <ele>1908</ele>
        <time>2022-07-19T11:25:24Z</time>
      </trkpt>
      <trkpt lat="44.32467" lon="6.85709">
        <ele>1908.2</ele>
        <time>2022-07-19T11:25:25Z</time>
      </trkpt>
      <trkpt lat="44.32468" lon="6.85706">
        <ele>1908.2</ele>
        <time>2022-07-19T11:25:26Z</time>
      </trkpt>
      <trkpt lat="44.32469" lon="6.85704">
        <ele>1908.6</ele>
        <time>2022-07-19T11:25:27Z</time>
      </trkpt>
      <trkpt lat="44.3247" lon="6.85701">
        <ele>1908.6</ele>
        <time>2022-07-19T11:25:28Z</time>
      </trkpt>
      <trkpt lat="44.32471" lon="6.85699">
        <ele>1908.8</ele>
        <time>2022-07-19T11:25:29Z</time>
      </trkpt>
      <trkpt lat="44.32472" lon="6.85697">
        <ele>1908.8</ele>
        <time>2022-07-19T11:25:30Z</time>
      </trkpt>
      <trkpt lat="44.32473" lon="6.85695">
        <ele>1909</ele>
        <time>2022-07-19T11:25:31Z</time>
      </trkpt>
      <trkpt lat="44.32473" lon="6.85692">
        <ele>1909</ele>
        <time>2022-07-19T11:25:32Z</time>
      </trkpt>
      <trkpt lat="44.32474" lon="6.8569">
        <ele>1909</ele>
        <time>2022-07-19T11:25:33Z</time>
      </trkpt>
      <trkpt lat="44.32476" lon="6.85688">
        <ele>1909.4</ele>
        <time>2022-07-19T11:25:34Z</time>
      </trkpt>
      <trkpt lat="44.32477" lon="6.85686">
        <ele>1909.4</ele>
        <time>2022-07-19T11:25:35Z</time>
      </trkpt>
      <trkpt lat="44.32478" lon="6.85683">
        <ele>1909.6</ele>
        <time>2022-07-19T11:25:36Z</time>
      </trkpt>
      <trkpt lat="44.32479" lon="6.85681">
        <ele>1909.6</ele>
        <time>2022-07-19T11:25:37Z</time>
      </trkpt>
      <trkpt lat="44.3248" lon="6.85679">
        <ele>1909.8</ele>
        <time>2022-07-19T11:25:38Z</time>
      </trkpt>
      <trkpt lat="44.3248" lon="6.85677">
        <ele>1909.8</ele>
        <time>2022-07-19T11:25:39Z</time>
      </trkpt>
      <trkpt lat="44.32481" lon="6.85675">
        <ele>1910</ele>
        <time>2022-07-19T11:25:40Z</time>
      </trkpt>
      <trkpt lat="44.32482" lon="6.85673">
        <ele>1910</ele>
        <time>2022-07-19T11:25:41Z</time>
      </trkpt>
      <trkpt lat="44.32483" lon="6.85671">
        <ele>1910.4</ele>
        <time>2022-07-19T11:25:42Z</time>
      </trkpt>
      <trkpt lat="44.32484" lon="6.85668">
        <ele>1910.4</ele>
        <time>2022-07-19T11:25:43Z</time>
      </trkpt>
      <trkpt lat="44.32485" lon="6.85666">
        <ele>1910.6</ele>
        <time>2022-07-19T11:25:44Z</time>
      </trkpt>
      <trkpt lat="44.32486" lon="6.85664">
        <ele>1910.6</ele>
        <time>2022-07-19T11:25:45Z</time>
      </trkpt>
      <trkpt lat="44.32488" lon="6.85662">
        <ele>1910.8</ele>
        <time>2022-07-19T11:25:46Z</time>
      </trkpt>
      <trkpt lat="44.32489" lon="6.8566">
        <ele>1910.8</ele>
        <time>2022-07-19T11:25:47Z</time>
      </trkpt>
      <trkpt lat="44.3249" lon="6.85658">
        <ele>1911.2</ele>
        <time>2022-07-19T11:25:48Z</time>
      </trkpt>
      <trkpt lat="44.32491" lon="6.85656">
        <ele>1911.2</ele>
        <time>2022-07-19T11:25:49Z</time>
      </trkpt>
      <trkpt lat="44.32492" lon="6.85654">
        <ele>1911.2</ele>
        <time>2022-07-19T11:25:50Z</time>
      </trkpt>
      <trkpt lat="44.32493" lon="6.85652">
        <ele>1911.4</ele>
        <time>2022-07-19T11:25:51Z</time>
      </trkpt>
      <trkpt lat="44.32495" lon="6.8565">
        <ele>1911.4</ele>
        <time>2022-07-19T11:25:52Z</time>
      </trkpt>
      <trkpt lat="44.32496" lon="6.85648">
        <ele>1911.6</ele>
        <time>2022-07-19T11:25:53Z</time>
      </trkpt>
      <trkpt lat="44.32497" lon="6.85646">
        <ele>1911.6</ele>
        <time>2022-07-19T11:25:54Z</time>
      </trkpt>
      <trkpt lat="44.32499" lon="6.85644">
        <ele>1911.8</ele>
        <time>2022-07-19T11:25:55Z</time>
      </trkpt>
      <trkpt lat="44.325" lon="6.85642">
        <ele>1911.8</ele>
        <time>2022-07-19T11:25:56Z</time>
      </trkpt>
      <trkpt lat="44.32501" lon="6.8564">
        <ele>1912.2</ele>
        <time>2022-07-19T11:25:57Z</time>
      </trkpt>
      <trkpt lat="44.32502" lon="6.85637">
        <ele>1912.2</ele>
        <time>2022-07-19T11:25:58Z</time>
      </trkpt>
      <trkpt lat="44.32503" lon="6.85635">
        <ele>1912.4</ele>
        <time>2022-07-19T11:25:59Z</time>
      </trkpt>
      <trkpt lat="44.32504" lon="6.85632">
        <ele>1912.4</ele>
        <time>2022-07-19T11:26:00Z</time>
      </trkpt>
      <trkpt lat="44.32505" lon="6.85629">
        <ele>1912.6</ele>
        <time>2022-07-19T11:26:01Z</time>
      </trkpt>
      <trkpt lat="44.32507" lon="6.85627">
        <ele>1912.6</ele>
        <time>2022-07-19T11:26:02Z</time>
      </trkpt>
      <trkpt lat="44.32508" lon="6.85624">
        <ele>1912.8</ele>
        <time>2022-07-19T11:26:03Z</time>
      </trkpt>
      <trkpt lat="44.32508" lon="6.85622">
        <ele>1912.8</ele>
        <time>2022-07-19T11:26:04Z</time>
      </trkpt>
      <trkpt lat="44.32509" lon="6.85619">
        <ele>1913.2</ele>
        <time>2022-07-19T11:26:05Z</time>
      </trkpt>
      <trkpt lat="44.3251" lon="6.85617">
        <ele>1913.2</ele>
        <time>2022-07-19T11:26:06Z</time>
      </trkpt>
      <trkpt lat="44.3251" lon="6.85614">
        <ele>1913.4</ele>
        <time>2022-07-19T11:26:07Z</time>
      </trkpt>
      <trkpt lat="44.32511" lon="6.85612">
        <ele>1913.4</ele>
        <time>2022-07-19T11:26:08Z</time>
      </trkpt>
      <trkpt lat="44.32511" lon="6.8561">
        <ele>1913.8</ele>
        <time>2022-07-19T11:26:09Z</time>
      </trkpt>
      <trkpt lat="44.32512" lon="6.85607">
        <ele>1913.8</ele>
        <time>2022-07-19T11:26:10Z</time>
      </trkpt>
      <trkpt lat="44.32512" lon="6.85605">
        <ele>1914.2</ele>
        <time>2022-07-19T11:26:11Z</time>
      </trkpt>
      <trkpt lat="44.32513" lon="6.85603">
        <ele>1914.2</ele>
        <time>2022-07-19T11:26:12Z</time>
      </trkpt>
      <trkpt lat="44.32515" lon="6.85601">
        <ele>1914.4</ele>
        <time>2022-07-19T11:26:13Z</time>
      </trkpt>
      <trkpt lat="44.32516" lon="6.85599">
        <ele>1914.4</ele>
        <time>2022-07-19T11:26:14Z</time>
      </trkpt>
      <trkpt lat="44.32517" lon="6.85597">
        <ele>1914.8</ele>
        <time>2022-07-19T11:26:15Z</time>
      </trkpt>
      <trkpt lat="44.32518" lon="6.85595">
        <ele>1914.8</ele>
        <time>2022-07-19T11:26:16Z</time>
      </trkpt>
      <trkpt lat="44.32519" lon="6.85593">
        <ele>1915</ele>
        <time>2022-07-19T11:26:17Z</time>
      </trkpt>
      <trkpt lat="44.3252" lon="6.85591">
        <ele>1915</ele>
        <time>2022-07-19T11:26:18Z</time>
      </trkpt>
      <trkpt lat="44.32522" lon="6.85589">
        <ele>1915.2</ele>
        <time>2022-07-19T11:26:19Z</time>
      </trkpt>
      <trkpt lat="44.32524" lon="6.85588">
        <ele>1915.2</ele>
        <time>2022-07-19T11:26:20Z</time>
      </trkpt>
      <trkpt lat="44.32525" lon="6.85587">
        <ele>1915.4</ele>
        <time>2022-07-19T11:26:21Z</time>
      </trkpt>
      <trkpt lat="44.32528" lon="6.85585">
        <ele>1915.4</ele>
        <time>2022-07-19T11:26:22Z</time>
      </trkpt>
      <trkpt lat="44.3253" lon="6.85584">
        <ele>1915.4</ele>
        <time>2022-07-19T11:26:23Z</time>
      </trkpt>
      <trkpt lat="44.32531" lon="6.85582">
        <ele>1915.8</ele>
        <time>2022-07-19T11:26:24Z</time>
      </trkpt>
      <trkpt lat="44.32533" lon="6.8558">
        <ele>1915.8</ele>
        <time>2022-07-19T11:26:25Z</time>
      </trkpt>
      <trkpt lat="44.32534" lon="6.85578">
        <ele>1915.8</ele>
        <time>2022-07-19T11:26:26Z</time>
      </trkpt>
      <trkpt lat="44.32535" lon="6.85576">
        <ele>1916</ele>
        <time>2022-07-19T11:26:27Z</time>
      </trkpt>
      <trkpt lat="44.32537" lon="6.85575">
        <ele>1916</ele>
        <time>2022-07-19T11:26:28Z</time>
      </trkpt>
      <trkpt lat="44.32538" lon="6.85573">
        <ele>1916.4</ele>
        <time>2022-07-19T11:26:29Z</time>
      </trkpt>
      <trkpt lat="44.3254" lon="6.85571">
        <ele>1916.4</ele>
        <time>2022-07-19T11:26:30Z</time>
      </trkpt>
      <trkpt lat="44.32541" lon="6.8557">
        <ele>1916.8</ele>
        <time>2022-07-19T11:26:31Z</time>
      </trkpt>
      <trkpt lat="44.32543" lon="6.85569">
        <ele>1916.8</ele>
        <time>2022-07-19T11:26:32Z</time>
      </trkpt>
      <trkpt lat="44.32544" lon="6.85567">
        <ele>1917</ele>
        <time>2022-07-19T11:26:33Z</time>
      </trkpt>
      <trkpt lat="44.32546" lon="6.85566">
        <ele>1917</ele>
        <time>2022-07-19T11:26:34Z</time>
      </trkpt>
      <trkpt lat="44.32548" lon="6.85565">
        <ele>1917.4</ele>
        <time>2022-07-19T11:26:35Z</time>
      </trkpt>
      <trkpt lat="44.32549" lon="6.85563">
        <ele>1917.4</ele>
        <time>2022-07-19T11:26:36Z</time>
      </trkpt>
      <trkpt lat="44.32551" lon="6.85561">
        <ele>1917.4</ele>
        <time>2022-07-19T11:26:37Z</time>
      </trkpt>
      <trkpt lat="44.32552" lon="6.8556">
        <ele>1917.6</ele>
        <time>2022-07-19T11:26:38Z</time>
      </trkpt>
      <trkpt lat="44.32554" lon="6.85559">
        <ele>1917.6</ele>
        <time>2022-07-19T11:26:39Z</time>
      </trkpt>
      <trkpt lat="44.32555" lon="6.85557">
        <ele>1917.8</ele>
        <time>2022-07-19T11:26:40Z</time>
      </trkpt>
      <trkpt lat="44.32557" lon="6.85556">
        <ele>1917.8</ele>
        <time>2022-07-19T11:26:41Z</time>
      </trkpt>
      <trkpt lat="44.32559" lon="6.85554">
        <ele>1918.2</ele>
        <time>2022-07-19T11:26:42Z</time>
      </trkpt>
      <trkpt lat="44.32561" lon="6.85553">
        <ele>1918.2</ele>
        <time>2022-07-19T11:26:43Z</time>
      </trkpt>
      <trkpt lat="44.32562" lon="6.85552">
        <ele>1918.4</ele>
        <time>2022-07-19T11:26:44Z</time>
      </trkpt>
      <trkpt lat="44.32564" lon="6.8555">
        <ele>1918.4</ele>
        <time>2022-07-19T11:26:45Z</time>
      </trkpt>
      <trkpt lat="44.32566" lon="6.85549">
        <ele>1918.6</ele>
        <time>2022-07-19T11:26:46Z</time>
      </trkpt>
      <trkpt lat="44.32568" lon="6.85547">
        <ele>1918.6</ele>
        <time>2022-07-19T11:26:47Z</time>
      </trkpt>
      <trkpt lat="44.32569" lon="6.85546">
        <ele>1918.8</ele>
        <time>2022-07-19T11:26:48Z</time>
      </trkpt>
      <trkpt lat="44.32571" lon="6.85545">
        <ele>1918.8</ele>
        <time>2022-07-19T11:26:49Z</time>
      </trkpt>
      <trkpt lat="44.32574" lon="6.85544">
        <ele>1918.8</ele>
        <time>2022-07-19T11:26:50Z</time>
      </trkpt>
      <trkpt lat="44.32576" lon="6.85542">
        <ele>1919.2</ele>
        <time>2022-07-19T11:26:51Z</time>
      </trkpt>
      <trkpt lat="44.32578" lon="6.85541">
        <ele>1919.2</ele>
        <time>2022-07-19T11:26:52Z</time>
      </trkpt>
      <trkpt lat="44.3258" lon="6.8554">
        <ele>1919.4</ele>
        <time>2022-07-19T11:26:53Z</time>
      </trkpt>
      <trkpt lat="44.32582" lon="6.85539">
        <ele>1919.4</ele>
        <time>2022-07-19T11:26:54Z</time>
      </trkpt>
      <trkpt lat="44.32584" lon="6.85538">
        <ele>1919.8</ele>
        <time>2022-07-19T11:26:55Z</time>
      </trkpt>
      <trkpt lat="44.32586" lon="6.85537">
        <ele>1919.8</ele>
        <time>2022-07-19T11:26:56Z</time>
      </trkpt>
      <trkpt lat="44.32587" lon="6.85535">
        <ele>1920</ele>
        <time>2022-07-19T11:26:57Z</time>
      </trkpt>
      <trkpt lat="44.32589" lon="6.85533">
        <ele>1920</ele>
        <time>2022-07-19T11:26:58Z</time>
      </trkpt>
      <trkpt lat="44.3259" lon="6.85532">
        <ele>1920.4</ele>
        <time>2022-07-19T11:26:59Z</time>
      </trkpt>
      <trkpt lat="44.32592" lon="6.8553">
        <ele>1920.4</ele>
        <time>2022-07-19T11:27:00Z</time>
      </trkpt>
      <trkpt lat="44.32593" lon="6.85528">
        <ele>1920.6</ele>
        <time>2022-07-19T11:27:01Z</time>
      </trkpt>
      <trkpt lat="44.32595" lon="6.85526">
        <ele>1920.6</ele>
        <time>2022-07-19T11:27:02Z</time>
      </trkpt>
      <trkpt lat="44.32596" lon="6.85525">
        <ele>1921</ele>
        <time>2022-07-19T11:27:03Z</time>
      </trkpt>
      <trkpt lat="44.32598" lon="6.85524">
        <ele>1921</ele>
        <time>2022-07-19T11:27:04Z</time>
      </trkpt>
      <trkpt lat="44.32599" lon="6.85522">
        <ele>1921.2</ele>
        <time>2022-07-19T11:27:05Z</time>
      </trkpt>
      <trkpt lat="44.32601" lon="6.85519">
        <ele>1921.2</ele>
        <time>2022-07-19T11:27:06Z</time>
      </trkpt>
      <trkpt lat="44.32602" lon="6.85517">
        <ele>1921.4</ele>
        <time>2022-07-19T11:27:07Z</time>
      </trkpt>
      <trkpt lat="44.32603" lon="6.85515">
        <ele>1921.4</ele>
        <time>2022-07-19T11:27:08Z</time>
      </trkpt>
      <trkpt lat="44.32604" lon="6.85512">
        <ele>1921.8</ele>
        <time>2022-07-19T11:27:09Z</time>
      </trkpt>
      <trkpt lat="44.32605" lon="6.8551">
        <ele>1922</ele>
        <time>2022-07-19T11:27:10Z</time>
      </trkpt>
      <trkpt lat="44.32606" lon="6.85507">
        <ele>1922</ele>
        <time>2022-07-19T11:27:11Z</time>
      </trkpt>
      <trkpt lat="44.32606" lon="6.85505">
        <ele>1922.4</ele>
        <time>2022-07-19T11:27:12Z</time>
      </trkpt>
      <trkpt lat="44.32606" lon="6.85502">
        <ele>1922.4</ele>
        <time>2022-07-19T11:27:13Z</time>
      </trkpt>
      <trkpt lat="44.32606" lon="6.855">
        <ele>1922.6</ele>
        <time>2022-07-19T11:27:14Z</time>
      </trkpt>
      <trkpt lat="44.32605" lon="6.85497">
        <ele>1922.6</ele>
        <time>2022-07-19T11:27:15Z</time>
      </trkpt>
      <trkpt lat="44.32604" lon="6.85495">
        <ele>1923</ele>
        <time>2022-07-19T11:27:16Z</time>
      </trkpt>
      <trkpt lat="44.32604" lon="6.85492">
        <ele>1923</ele>
        <time>2022-07-19T11:27:17Z</time>
      </trkpt>
      <trkpt lat="44.32604" lon="6.8549">
        <ele>1923.2</ele>
        <time>2022-07-19T11:27:18Z</time>
      </trkpt>
      <trkpt lat="44.32603" lon="6.85487">
        <ele>1923.2</ele>
        <time>2022-07-19T11:27:19Z</time>
      </trkpt>
      <trkpt lat="44.32603" lon="6.85484">
        <ele>1923.4</ele>
        <time>2022-07-19T11:27:20Z</time>
      </trkpt>
      <trkpt lat="44.32603" lon="6.85482">
        <ele>1923.4</ele>
        <time>2022-07-19T11:27:21Z</time>
      </trkpt>
      <trkpt lat="44.32602" lon="6.85479">
        <ele>1923.8</ele>
        <time>2022-07-19T11:27:22Z</time>
      </trkpt>
      <trkpt lat="44.32602" lon="6.85476">
        <ele>1923.8</ele>
        <time>2022-07-19T11:27:23Z</time>
      </trkpt>
      <trkpt lat="44.32602" lon="6.85473">
        <ele>1923.8</ele>
        <time>2022-07-19T11:27:24Z</time>
      </trkpt>
      <trkpt lat="44.32601" lon="6.85471">
        <ele>1924.2</ele>
        <time>2022-07-19T11:27:25Z</time>
      </trkpt>
      <trkpt lat="44.32601" lon="6.85468">
        <ele>1924.2</ele>
        <time>2022-07-19T11:27:26Z</time>
      </trkpt>
      <trkpt lat="44.326" lon="6.85465">
        <ele>1924.4</ele>
        <time>2022-07-19T11:27:27Z</time>
      </trkpt>
      <trkpt lat="44.326" lon="6.85463">
        <ele>1924.4</ele>
        <time>2022-07-19T11:27:28Z</time>
      </trkpt>
      <trkpt lat="44.32599" lon="6.8546">
        <ele>1924.8</ele>
        <time>2022-07-19T11:27:29Z</time>
      </trkpt>
      <trkpt lat="44.32599" lon="6.85457">
        <ele>1924.8</ele>
        <time>2022-07-19T11:27:30Z</time>
      </trkpt>
      <trkpt lat="44.32598" lon="6.85455">
        <ele>1925</ele>
        <time>2022-07-19T11:27:31Z</time>
      </trkpt>
      <trkpt lat="44.32598" lon="6.85452">
        <ele>1925</ele>
        <time>2022-07-19T11:27:32Z</time>
      </trkpt>
      <trkpt lat="44.32598" lon="6.85449">
        <ele>1925</ele>
        <time>2022-07-19T11:27:33Z</time>
      </trkpt>
      <trkpt lat="44.32598" lon="6.85446">
        <ele>1925.2</ele>
        <time>2022-07-19T11:27:34Z</time>
      </trkpt>
      <trkpt lat="44.32598" lon="6.85443">
        <ele>1925.2</ele>
        <time>2022-07-19T11:27:35Z</time>
      </trkpt>
      <trkpt lat="44.32599" lon="6.85441">
        <ele>1925.2</ele>
        <time>2022-07-19T11:27:36Z</time>
      </trkpt>
      <trkpt lat="44.32599" lon="6.85438">
        <ele>1925.6</ele>
        <time>2022-07-19T11:27:37Z</time>
      </trkpt>
      <trkpt lat="44.326" lon="6.85435">
        <ele>1925.6</ele>
        <time>2022-07-19T11:27:38Z</time>
      </trkpt>
      <trkpt lat="44.326" lon="6.85432">
        <ele>1925.8</ele>
        <time>2022-07-19T11:27:39Z</time>
      </trkpt>
      <trkpt lat="44.326" lon="6.85429">
        <ele>1925.8</ele>
        <time>2022-07-19T11:27:40Z</time>
      </trkpt>
      <trkpt lat="44.326" lon="6.85427">
        <ele>1926</ele>
        <time>2022-07-19T11:27:41Z</time>
      </trkpt>
      <trkpt lat="44.32601" lon="6.85424">
        <ele>1926</ele>
        <time>2022-07-19T11:27:42Z</time>
      </trkpt>
      <trkpt lat="44.32602" lon="6.85422">
        <ele>1926.4</ele>
        <time>2022-07-19T11:27:43Z</time>
      </trkpt>
      <trkpt lat="44.32602" lon="6.85419">
        <ele>1926.4</ele>
        <time>2022-07-19T11:27:44Z</time>
      </trkpt>
      <trkpt lat="44.32603" lon="6.85416">
        <ele>1926.6</ele>
        <time>2022-07-19T11:27:45Z</time>
      </trkpt>
      <trkpt lat="44.32603" lon="6.85414">
        <ele>1926.6</ele>
        <time>2022-07-19T11:27:46Z</time>
      </trkpt>
      <trkpt lat="44.32604" lon="6.85411">
        <ele>1927</ele>
        <time>2022-07-19T11:27:47Z</time>
      </trkpt>
      <trkpt lat="44.32605" lon="6.85409">
        <ele>1927</ele>
        <time>2022-07-19T11:27:48Z</time>
      </trkpt>
      <trkpt lat="44.32605" lon="6.85407">
        <ele>1927.2</ele>
        <time>2022-07-19T11:27:49Z</time>
      </trkpt>
      <trkpt lat="44.32606" lon="6.85404">
        <ele>1927.2</ele>
        <time>2022-07-19T11:27:50Z</time>
      </trkpt>
      <trkpt lat="44.32606" lon="6.85402">
        <ele>1927.6</ele>
        <time>2022-07-19T11:27:51Z</time>
      </trkpt>
      <trkpt lat="44.32607" lon="6.85399">
        <ele>1927.8</ele>
        <time>2022-07-19T11:27:52Z</time>
      </trkpt>
      <trkpt lat="44.32607" lon="6.85397">
        <ele>1927.8</ele>
        <time>2022-07-19T11:27:53Z</time>
      </trkpt>
      <trkpt lat="44.32608" lon="6.85394">
        <ele>1928</ele>
        <time>2022-07-19T11:27:54Z</time>
      </trkpt>
      <trkpt lat="44.32608" lon="6.85392">
        <ele>1928</ele>
        <time>2022-07-19T11:27:55Z</time>
      </trkpt>
      <trkpt lat="44.32609" lon="6.85389">
        <ele>1928.4</ele>
        <time>2022-07-19T11:27:56Z</time>
      </trkpt>
      <trkpt lat="44.32609" lon="6.85386">
        <ele>1928.4</ele>
        <time>2022-07-19T11:27:57Z</time>
      </trkpt>
      <trkpt lat="44.3261" lon="6.85383">
        <ele>1928.6</ele>
        <time>2022-07-19T11:27:58Z</time>
      </trkpt>
      <trkpt lat="44.3261" lon="6.85381">
        <ele>1928.6</ele>
        <time>2022-07-19T11:27:59Z</time>
      </trkpt>
      <trkpt lat="44.3261" lon="6.85378">
        <ele>1928.8</ele>
        <time>2022-07-19T11:28:00Z</time>
      </trkpt>
      <trkpt lat="44.32611" lon="6.85376">
        <ele>1929</ele>
        <time>2022-07-19T11:28:01Z</time>
      </trkpt>
      <trkpt lat="44.32611" lon="6.85373">
        <ele>1929</ele>
        <time>2022-07-19T11:28:02Z</time>
      </trkpt>
      <trkpt lat="44.32612" lon="6.8537">
        <ele>1929.4</ele>
        <time>2022-07-19T11:28:03Z</time>
      </trkpt>
      <trkpt lat="44.32613" lon="6.85368">
        <ele>1929.4</ele>
        <time>2022-07-19T11:28:04Z</time>
      </trkpt>
      <trkpt lat="44.32613" lon="6.85365">
        <ele>1929.6</ele>
        <time>2022-07-19T11:28:05Z</time>
      </trkpt>
      <trkpt lat="44.32614" lon="6.85363">
        <ele>1929.8</ele>
        <time>2022-07-19T11:28:06Z</time>
      </trkpt>
      <trkpt lat="44.32615" lon="6.85361">
        <ele>1929.8</ele>
        <time>2022-07-19T11:28:07Z</time>
      </trkpt>
      <trkpt lat="44.32616" lon="6.85358">
        <ele>1930.2</ele>
        <time>2022-07-19T11:28:08Z</time>
      </trkpt>
      <trkpt lat="44.32616" lon="6.85356">
        <ele>1930.2</ele>
        <time>2022-07-19T11:28:09Z</time>
      </trkpt>
      <trkpt lat="44.32617" lon="6.85354">
        <ele>1930.4</ele>
        <time>2022-07-19T11:28:10Z</time>
      </trkpt>
      <trkpt lat="44.32618" lon="6.85351">
        <ele>1930.4</ele>
        <time>2022-07-19T11:28:11Z</time>
      </trkpt>
      <trkpt lat="44.32618" lon="6.85349">
        <ele>1930.8</ele>
        <time>2022-07-19T11:28:12Z</time>
      </trkpt>
      <trkpt lat="44.32618" lon="6.85346">
        <ele>1930.8</ele>
        <time>2022-07-19T11:28:13Z</time>
      </trkpt>
      <trkpt lat="44.32619" lon="6.85344">
        <ele>1931</ele>
        <time>2022-07-19T11:28:14Z</time>
      </trkpt>
      <trkpt lat="44.32619" lon="6.85342">
        <ele>1931</ele>
        <time>2022-07-19T11:28:15Z</time>
      </trkpt>
      <trkpt lat="44.3262" lon="6.8534">
        <ele>1931.2</ele>
        <time>2022-07-19T11:28:16Z</time>
      </trkpt>
      <trkpt lat="44.32621" lon="6.85338">
        <ele>1931.2</ele>
        <time>2022-07-19T11:28:17Z</time>
      </trkpt>
      <trkpt lat="44.32622" lon="6.85336">
        <ele>1931.6</ele>
        <time>2022-07-19T11:28:18Z</time>
      </trkpt>
      <trkpt lat="44.32624" lon="6.85334">
        <ele>1931.6</ele>
        <time>2022-07-19T11:28:19Z</time>
      </trkpt>
      <trkpt lat="44.32625" lon="6.85332">
        <ele>1931.8</ele>
        <time>2022-07-19T11:28:20Z</time>
      </trkpt>
      <trkpt lat="44.32627" lon="6.8533">
        <ele>1931.8</ele>
        <time>2022-07-19T11:28:21Z</time>
      </trkpt>
      <trkpt lat="44.32629" lon="6.85329">
        <ele>1932.2</ele>
        <time>2022-07-19T11:28:22Z</time>
      </trkpt>
      <trkpt lat="44.32631" lon="6.85327">
        <ele>1932.2</ele>
        <time>2022-07-19T11:28:23Z</time>
      </trkpt>
      <trkpt lat="44.32632" lon="6.85325">
        <ele>1932.2</ele>
        <time>2022-07-19T11:28:24Z</time>
      </trkpt>
      <trkpt lat="44.32634" lon="6.85323">
        <ele>1932.4</ele>
        <time>2022-07-19T11:28:25Z</time>
      </trkpt>
      <trkpt lat="44.32635" lon="6.8532">
        <ele>1932.4</ele>
        <time>2022-07-19T11:28:26Z</time>
      </trkpt>
      <trkpt lat="44.32636" lon="6.85318">
        <ele>1932.8</ele>
        <time>2022-07-19T11:28:27Z</time>
      </trkpt>
      <trkpt lat="44.32637" lon="6.85315">
        <ele>1932.8</ele>
        <time>2022-07-19T11:28:28Z</time>
      </trkpt>
      <trkpt lat="44.32639" lon="6.85313">
        <ele>1933</ele>
        <time>2022-07-19T11:28:29Z</time>
      </trkpt>
      <trkpt lat="44.32639" lon="6.8531">
        <ele>1933</ele>
        <time>2022-07-19T11:28:30Z</time>
      </trkpt>
      <trkpt lat="44.3264" lon="6.85308">
        <ele>1933.2</ele>
        <time>2022-07-19T11:28:31Z</time>
      </trkpt>
      <trkpt lat="44.32641" lon="6.85305">
        <ele>1933.2</ele>
        <time>2022-07-19T11:28:32Z</time>
      </trkpt>
      <trkpt lat="44.32642" lon="6.85303">
        <ele>1933.2</ele>
        <time>2022-07-19T11:28:33Z</time>
      </trkpt>
      <trkpt lat="44.32643" lon="6.853">
        <ele>1933.6</ele>
        <time>2022-07-19T11:28:34Z</time>
      </trkpt>
      <trkpt lat="44.32644" lon="6.85297">
        <ele>1933.6</ele>
        <time>2022-07-19T11:28:35Z</time>
      </trkpt>
      <trkpt lat="44.32645" lon="6.85295">
        <ele>1933.8</ele>
        <time>2022-07-19T11:28:36Z</time>
      </trkpt>
      <trkpt lat="44.32645" lon="6.85292">
        <ele>1933.8</ele>
        <time>2022-07-19T11:28:37Z</time>
      </trkpt>
      <trkpt lat="44.32646" lon="6.8529">
        <ele>1934.2</ele>
        <time>2022-07-19T11:28:38Z</time>
      </trkpt>
      <trkpt lat="44.32647" lon="6.85287">
        <ele>1934.2</ele>
        <time>2022-07-19T11:28:39Z</time>
      </trkpt>
      <trkpt lat="44.32647" lon="6.85285">
        <ele>1934.2</ele>
        <time>2022-07-19T11:28:40Z</time>
      </trkpt>
      <trkpt lat="44.32648" lon="6.85283">
        <ele>1934.6</ele>
        <time>2022-07-19T11:28:41Z</time>
      </trkpt>
      <trkpt lat="44.32649" lon="6.8528">
        <ele>1934.6</ele>
        <time>2022-07-19T11:28:42Z</time>
      </trkpt>
      <trkpt lat="44.3265" lon="6.85278">
        <ele>1934.8</ele>
        <time>2022-07-19T11:28:43Z</time>
      </trkpt>
      <trkpt lat="44.32651" lon="6.85275">
        <ele>1935</ele>
        <time>2022-07-19T11:28:44Z</time>
      </trkpt>
      <trkpt lat="44.32652" lon="6.85273">
        <ele>1935</ele>
        <time>2022-07-19T11:28:45Z</time>
      </trkpt>
      <trkpt lat="44.32652" lon="6.8527">
        <ele>1935.2</ele>
        <time>2022-07-19T11:28:46Z</time>
      </trkpt>
      <trkpt lat="44.32653" lon="6.85267">
        <ele>1935.2</ele>
        <time>2022-07-19T11:28:47Z</time>
      </trkpt>
      <trkpt lat="44.32653" lon="6.85265">
        <ele>1935.4</ele>
        <time>2022-07-19T11:28:48Z</time>
      </trkpt>
      <trkpt lat="44.32653" lon="6.85262">
        <ele>1935.4</ele>
        <time>2022-07-19T11:28:49Z</time>
      </trkpt>
      <trkpt lat="44.32654" lon="6.8526">
        <ele>1935.8</ele>
        <time>2022-07-19T11:28:50Z</time>
      </trkpt>
      <trkpt lat="44.32655" lon="6.85257">
        <ele>1935.8</ele>
        <time>2022-07-19T11:28:51Z</time>
      </trkpt>
      <trkpt lat="44.32655" lon="6.85255">
        <ele>1936.2</ele>
        <time>2022-07-19T11:28:52Z</time>
      </trkpt>
      <trkpt lat="44.32656" lon="6.85252">
        <ele>1936.2</ele>
        <time>2022-07-19T11:28:53Z</time>
      </trkpt>
      <trkpt lat="44.32656" lon="6.8525">
        <ele>1936.4</ele>
        <time>2022-07-19T11:28:54Z</time>
      </trkpt>
      <trkpt lat="44.32656" lon="6.85247">
        <ele>1936.4</ele>
        <time>2022-07-19T11:28:55Z</time>
      </trkpt>
      <trkpt lat="44.32656" lon="6.85245">
        <ele>1936.6</ele>
        <time>2022-07-19T11:28:56Z</time>
      </trkpt>
      <trkpt lat="44.32656" lon="6.85243">
        <ele>1936.6</ele>
        <time>2022-07-19T11:28:57Z</time>
      </trkpt>
      <trkpt lat="44.32656" lon="6.85241">
        <ele>1937</ele>
        <time>2022-07-19T11:28:58Z</time>
      </trkpt>
      <trkpt lat="44.32656" lon="6.85238">
        <ele>1937.2</ele>
        <time>2022-07-19T11:28:59Z</time>
      </trkpt>
      <trkpt lat="44.32656" lon="6.85236">
        <ele>1937.2</ele>
        <time>2022-07-19T11:29:00Z</time>
      </trkpt>
      <trkpt lat="44.32656" lon="6.85233">
        <ele>1937.4</ele>
        <time>2022-07-19T11:29:01Z</time>
      </trkpt>
      <trkpt lat="44.32656" lon="6.85231">
        <ele>1937.8</ele>
        <time>2022-07-19T11:29:02Z</time>
      </trkpt>
      <trkpt lat="44.32657" lon="6.85229">
        <ele>1937.8</ele>
        <time>2022-07-19T11:29:03Z</time>
      </trkpt>
      <trkpt lat="44.32657" lon="6.85227">
        <ele>1938.2</ele>
        <time>2022-07-19T11:29:04Z</time>
      </trkpt>
      <trkpt lat="44.32659" lon="6.85225">
        <ele>1938.2</ele>
        <time>2022-07-19T11:29:05Z</time>
      </trkpt>
      <trkpt lat="44.32661" lon="6.85225">
        <ele>1938.6</ele>
        <time>2022-07-19T11:29:06Z</time>
      </trkpt>
      <trkpt lat="44.32663" lon="6.85225">
        <ele>1938.6</ele>
        <time>2022-07-19T11:29:07Z</time>
      </trkpt>
      <trkpt lat="44.32665" lon="6.85226">
        <ele>1938.8</ele>
        <time>2022-07-19T11:29:08Z</time>
      </trkpt>
      <trkpt lat="44.32667" lon="6.85229">
        <ele>1938.8</ele>
        <time>2022-07-19T11:29:09Z</time>
      </trkpt>
      <trkpt lat="44.32667" lon="6.85231">
        <ele>1939</ele>
        <time>2022-07-19T11:29:10Z</time>
      </trkpt>
      <trkpt lat="44.32667" lon="6.85235">
        <ele>1939</ele>
        <time>2022-07-19T11:29:11Z</time>
      </trkpt>
      <trkpt lat="44.32667" lon="6.85238">
        <ele>1939.4</ele>
        <time>2022-07-19T11:29:12Z</time>
      </trkpt>
      <trkpt lat="44.32667" lon="6.85241">
        <ele>1939.4</ele>
        <time>2022-07-19T11:29:13Z</time>
      </trkpt>
      <trkpt lat="44.32667" lon="6.85244">
        <ele>1939.4</ele>
        <time>2022-07-19T11:29:14Z</time>
      </trkpt>
      <trkpt lat="44.32666" lon="6.85247">
        <ele>1939.8</ele>
        <time>2022-07-19T11:29:15Z</time>
      </trkpt>
      <trkpt lat="44.32666" lon="6.8525">
        <ele>1939.8</ele>
        <time>2022-07-19T11:29:16Z</time>
      </trkpt>
      <trkpt lat="44.32665" lon="6.85253">
        <ele>1940</ele>
        <time>2022-07-19T11:29:17Z</time>
      </trkpt>
      <trkpt lat="44.32665" lon="6.85256">
        <ele>1940</ele>
        <time>2022-07-19T11:29:18Z</time>
      </trkpt>
      <trkpt lat="44.32665" lon="6.85259">
        <ele>1940.2</ele>
        <time>2022-07-19T11:29:19Z</time>
      </trkpt>
      <trkpt lat="44.32665" lon="6.85261">
        <ele>1940.2</ele>
        <time>2022-07-19T11:29:20Z</time>
      </trkpt>
      <trkpt lat="44.32665" lon="6.85264">
        <ele>1940.6</ele>
        <time>2022-07-19T11:29:21Z</time>
      </trkpt>
      <trkpt lat="44.32665" lon="6.85267">
        <ele>1940.6</ele>
        <time>2022-07-19T11:29:22Z</time>
      </trkpt>
      <trkpt lat="44.32665" lon="6.8527">
        <ele>1940.8</ele>
        <time>2022-07-19T11:29:23Z</time>
      </trkpt>
      <trkpt lat="44.32665" lon="6.85272">
        <ele>1941</ele>
        <time>2022-07-19T11:29:24Z</time>
      </trkpt>
      <trkpt lat="44.32665" lon="6.85275">
        <ele>1941</ele>
        <time>2022-07-19T11:29:25Z</time>
      </trkpt>
      <trkpt lat="44.32666" lon="6.85278">
        <ele>1941.4</ele>
        <time>2022-07-19T11:29:26Z</time>
      </trkpt>
      <trkpt lat="44.32666" lon="6.8528">
        <ele>1941.4</ele>
        <time>2022-07-19T11:29:27Z</time>
      </trkpt>
      <trkpt lat="44.32666" lon="6.85283">
        <ele>1941.8</ele>
        <time>2022-07-19T11:29:28Z</time>
      </trkpt>
      <trkpt lat="44.32666" lon="6.85285">
        <ele>1941.8</ele>
        <time>2022-07-19T11:29:29Z</time>
      </trkpt>
      <trkpt lat="44.32666" lon="6.85288">
        <ele>1942.2</ele>
        <time>2022-07-19T11:29:30Z</time>
      </trkpt>
      <trkpt lat="44.32666" lon="6.8529">
        <ele>1942.2</ele>
        <time>2022-07-19T11:29:31Z</time>
      </trkpt>
      <trkpt lat="44.32665" lon="6.85293">
        <ele>1942.4</ele>
        <time>2022-07-19T11:29:32Z</time>
      </trkpt>
      <trkpt lat="44.32665" lon="6.85296">
        <ele>1942.4</ele>
        <time>2022-07-19T11:29:33Z</time>
      </trkpt>
      <trkpt lat="44.32665" lon="6.85298">
        <ele>1942.6</ele>
        <time>2022-07-19T11:29:34Z</time>
      </trkpt>
      <trkpt lat="44.32665" lon="6.85301">
        <ele>1942.6</ele>
        <time>2022-07-19T11:29:35Z</time>
      </trkpt>
      <trkpt lat="44.32665" lon="6.85303">
        <ele>1943</ele>
        <time>2022-07-19T11:29:36Z</time>
      </trkpt>
      <trkpt lat="44.32665" lon="6.85306">
        <ele>1943</ele>
        <time>2022-07-19T11:29:37Z</time>
      </trkpt>
      <trkpt lat="44.32665" lon="6.85308">
        <ele>1943.2</ele>
        <time>2022-07-19T11:29:38Z</time>
      </trkpt>
      <trkpt lat="44.32665" lon="6.85311">
        <ele>1943.4</ele>
        <time>2022-07-19T11:29:39Z</time>
      </trkpt>
      <trkpt lat="44.32665" lon="6.85313">
        <ele>1943.6</ele>
        <time>2022-07-19T11:29:40Z</time>
      </trkpt>
      <trkpt lat="44.32665" lon="6.85315">
        <ele>1943.6</ele>
        <time>2022-07-19T11:29:41Z</time>
      </trkpt>
      <trkpt lat="44.32665" lon="6.85317">
        <ele>1943.8</ele>
        <time>2022-07-19T11:29:42Z</time>
      </trkpt>
      <trkpt lat="44.32665" lon="6.8532">
        <ele>1943.8</ele>
        <time>2022-07-19T11:29:43Z</time>
      </trkpt>
      <trkpt lat="44.32666" lon="6.85322">
        <ele>1944.2</ele>
        <time>2022-07-19T11:29:44Z</time>
      </trkpt>
      <trkpt lat="44.32666" lon="6.85324">
        <ele>1944.4</ele>
        <time>2022-07-19T11:29:45Z</time>
      </trkpt>
      <trkpt lat="44.32666" lon="6.85326">
        <ele>1944.4</ele>
        <time>2022-07-19T11:29:46Z</time>
      </trkpt>
      <trkpt lat="44.32667" lon="6.85328">
        <ele>1944.6</ele>
        <time>2022-07-19T11:29:47Z</time>
      </trkpt>
      <trkpt lat="44.32667" lon="6.8533">
        <ele>1944.6</ele>
        <time>2022-07-19T11:29:48Z</time>
      </trkpt>
      <trkpt lat="44.32667" lon="6.85332">
        <ele>1945</ele>
        <time>2022-07-19T11:29:49Z</time>
      </trkpt>
      <trkpt lat="44.32668" lon="6.85334">
        <ele>1945.2</ele>
        <time>2022-07-19T11:29:50Z</time>
      </trkpt>
      <trkpt lat="44.32669" lon="6.85336">
        <ele>1945.2</ele>
        <time>2022-07-19T11:29:51Z</time>
      </trkpt>
      <trkpt lat="44.3267" lon="6.85338">
        <ele>1945.6</ele>
        <time>2022-07-19T11:29:52Z</time>
      </trkpt>
      <trkpt lat="44.32671" lon="6.8534">
        <ele>1945.6</ele>
        <time>2022-07-19T11:29:53Z</time>
      </trkpt>
      <trkpt lat="44.32672" lon="6.85342">
        <ele>1945.8</ele>
        <time>2022-07-19T11:29:54Z</time>
      </trkpt>
      <trkpt lat="44.32672" lon="6.85344">
        <ele>1945.8</ele>
        <time>2022-07-19T11:29:55Z</time>
      </trkpt>
      <trkpt lat="44.32673" lon="6.85346">
        <ele>1946</ele>
        <time>2022-07-19T11:29:56Z</time>
      </trkpt>
      <trkpt lat="44.32674" lon="6.85348">
        <ele>1946</ele>
        <time>2022-07-19T11:29:57Z</time>
      </trkpt>
      <trkpt lat="44.32675" lon="6.8535">
        <ele>1946.2</ele>
        <time>2022-07-19T11:29:58Z</time>
      </trkpt>
      <trkpt lat="44.32677" lon="6.85352">
        <ele>1946.2</ele>
        <time>2022-07-19T11:29:59Z</time>
      </trkpt>
      <trkpt lat="44.32678" lon="6.85354">
        <ele>1946.6</ele>
        <time>2022-07-19T11:30:00Z</time>
      </trkpt>
      <trkpt lat="44.32679" lon="6.85355">
        <ele>1946.6</ele>
        <time>2022-07-19T11:30:01Z</time>
      </trkpt>
      <trkpt lat="44.3268" lon="6.85357">
        <ele>1946.8</ele>
        <time>2022-07-19T11:30:02Z</time>
      </trkpt>
      <trkpt lat="44.32682" lon="6.85359">
        <ele>1946.8</ele>
        <time>2022-07-19T11:30:03Z</time>
      </trkpt>
      <trkpt lat="44.32683" lon="6.85361">
        <ele>1947</ele>
        <time>2022-07-19T11:30:04Z</time>
      </trkpt>
      <trkpt lat="44.32684" lon="6.85363">
        <ele>1947</ele>
        <time>2022-07-19T11:30:05Z</time>
      </trkpt>
      <trkpt lat="44.32686" lon="6.85364">
        <ele>1947</ele>
        <time>2022-07-19T11:30:06Z</time>
      </trkpt>
      <trkpt lat="44.32687" lon="6.85366">
        <ele>1947.4</ele>
        <time>2022-07-19T11:30:07Z</time>
      </trkpt>
      <trkpt lat="44.32688" lon="6.85368">
        <ele>1947.4</ele>
        <time>2022-07-19T11:30:08Z</time>
      </trkpt>
      <trkpt lat="44.3269" lon="6.8537">
        <ele>1947.4</ele>
        <time>2022-07-19T11:30:09Z</time>
      </trkpt>
      <trkpt lat="44.32691" lon="6.85371">
        <ele>1947.6</ele>
        <time>2022-07-19T11:30:10Z</time>
      </trkpt>
      <trkpt lat="44.32693" lon="6.85373">
        <ele>1947.6</ele>
        <time>2022-07-19T11:30:11Z</time>
      </trkpt>
      <trkpt lat="44.32694" lon="6.85375">
        <ele>1947.8</ele>
        <time>2022-07-19T11:30:12Z</time>
      </trkpt>
      <trkpt lat="44.32695" lon="6.85377">
        <ele>1947.8</ele>
        <time>2022-07-19T11:30:13Z</time>
      </trkpt>
      <trkpt lat="44.32697" lon="6.85379">
        <ele>1947.8</ele>
        <time>2022-07-19T11:30:14Z</time>
      </trkpt>
      <trkpt lat="44.32698" lon="6.85381">
        <ele>1948.2</ele>
        <time>2022-07-19T11:30:15Z</time>
      </trkpt>
      <trkpt lat="44.327" lon="6.85383">
        <ele>1948.2</ele>
        <time>2022-07-19T11:30:16Z</time>
      </trkpt>
      <trkpt lat="44.32701" lon="6.85385">
        <ele>1948.4</ele>
        <time>2022-07-19T11:30:17Z</time>
      </trkpt>
      <trkpt lat="44.32702" lon="6.85387">
        <ele>1948.4</ele>
        <time>2022-07-19T11:30:18Z</time>
      </trkpt>
      <trkpt lat="44.32704" lon="6.85389">
        <ele>1948.8</ele>
        <time>2022-07-19T11:30:19Z</time>
      </trkpt>
      <trkpt lat="44.32705" lon="6.85391">
        <ele>1948.8</ele>
        <time>2022-07-19T11:30:20Z</time>
      </trkpt>
      <trkpt lat="44.32706" lon="6.85393">
        <ele>1948.8</ele>
        <time>2022-07-19T11:30:21Z</time>
      </trkpt>
      <trkpt lat="44.32708" lon="6.85395">
        <ele>1949</ele>
        <time>2022-07-19T11:30:22Z</time>
      </trkpt>
      <trkpt lat="44.32709" lon="6.85398">
        <ele>1949</ele>
        <time>2022-07-19T11:30:23Z</time>
      </trkpt>
      <trkpt lat="44.32709" lon="6.854">
        <ele>1949.4</ele>
        <time>2022-07-19T11:30:24Z</time>
      </trkpt>
      <trkpt lat="44.3271" lon="6.85402">
        <ele>1949.6</ele>
        <time>2022-07-19T11:30:25Z</time>
      </trkpt>
      <trkpt lat="44.32711" lon="6.85405">
        <ele>1949.6</ele>
        <time>2022-07-19T11:30:26Z</time>
      </trkpt>
      <trkpt lat="44.32712" lon="6.85407">
        <ele>1949.8</ele>
        <time>2022-07-19T11:30:27Z</time>
      </trkpt>
      <trkpt lat="44.32713" lon="6.85409">
        <ele>1950.2</ele>
        <time>2022-07-19T11:30:28Z</time>
      </trkpt>
      <trkpt lat="44.32714" lon="6.85411">
        <ele>1950.2</ele>
        <time>2022-07-19T11:30:29Z</time>
      </trkpt>
      <trkpt lat="44.32715" lon="6.85413">
        <ele>1950.4</ele>
        <time>2022-07-19T11:30:30Z</time>
      </trkpt>
      <trkpt lat="44.32716" lon="6.85416">
        <ele>1950.4</ele>
        <time>2022-07-19T11:30:31Z</time>
      </trkpt>
      <trkpt lat="44.32716" lon="6.85418">
        <ele>1950.4</ele>
        <time>2022-07-19T11:30:32Z</time>
      </trkpt>
      <trkpt lat="44.32717" lon="6.8542">
        <ele>1950.8</ele>
        <time>2022-07-19T11:30:33Z</time>
      </trkpt>
      <trkpt lat="44.32718" lon="6.85422">
        <ele>1950.8</ele>
        <time>2022-07-19T11:30:34Z</time>
      </trkpt>
      <trkpt lat="44.32719" lon="6.85424">
        <ele>1951</ele>
        <time>2022-07-19T11:30:35Z</time>
      </trkpt>
      <trkpt lat="44.32719" lon="6.85426">
        <ele>1951</ele>
        <time>2022-07-19T11:30:36Z</time>
      </trkpt>
      <trkpt lat="44.3272" lon="6.85428">
        <ele>1951.2</ele>
        <time>2022-07-19T11:30:37Z</time>
      </trkpt>
      <trkpt lat="44.3272" lon="6.8543">
        <ele>1951.2</ele>
        <time>2022-07-19T11:30:38Z</time>
      </trkpt>
      <trkpt lat="44.3272" lon="6.85433">
        <ele>1951.6</ele>
        <time>2022-07-19T11:30:39Z</time>
      </trkpt>
      <trkpt lat="44.3272" lon="6.85435">
        <ele>1951.6</ele>
        <time>2022-07-19T11:30:40Z</time>
      </trkpt>
      <trkpt lat="44.32721" lon="6.85437">
        <ele>1951.8</ele>
        <time>2022-07-19T11:30:41Z</time>
      </trkpt>
      <trkpt lat="44.32722" lon="6.8544">
        <ele>1951.8</ele>
        <time>2022-07-19T11:30:42Z</time>
      </trkpt>
      <trkpt lat="44.32723" lon="6.85442">
        <ele>1952.2</ele>
        <time>2022-07-19T11:30:43Z</time>
      </trkpt>
      <trkpt lat="44.32723" lon="6.85444">
        <ele>1952.2</ele>
        <time>2022-07-19T11:30:44Z</time>
      </trkpt>
      <trkpt lat="44.32724" lon="6.85447">
        <ele>1952.4</ele>
        <time>2022-07-19T11:30:45Z</time>
      </trkpt>
      <trkpt lat="44.32725" lon="6.8545">
        <ele>1952.4</ele>
        <time>2022-07-19T11:30:46Z</time>
      </trkpt>
      <trkpt lat="44.32725" lon="6.85452">
        <ele>1952.8</ele>
        <time>2022-07-19T11:30:47Z</time>
      </trkpt>
      <trkpt lat="44.32725" lon="6.85455">
        <ele>1952.8</ele>
        <time>2022-07-19T11:30:48Z</time>
      </trkpt>
      <trkpt lat="44.32726" lon="6.85457">
        <ele>1953</ele>
        <time>2022-07-19T11:30:49Z</time>
      </trkpt>
      <trkpt lat="44.32726" lon="6.8546">
        <ele>1953</ele>
        <time>2022-07-19T11:30:50Z</time>
      </trkpt>
      <trkpt lat="44.32727" lon="6.85462">
        <ele>1953.2</ele>
        <time>2022-07-19T11:30:51Z</time>
      </trkpt>
      <trkpt lat="44.32727" lon="6.85465">
        <ele>1953.2</ele>
        <time>2022-07-19T11:30:52Z</time>
      </trkpt>
      <trkpt lat="44.32728" lon="6.85467">
        <ele>1953.2</ele>
        <time>2022-07-19T11:30:53Z</time>
      </trkpt>
      <trkpt lat="44.32729" lon="6.8547">
        <ele>1953.6</ele>
        <time>2022-07-19T11:30:54Z</time>
      </trkpt>
      <trkpt lat="44.32729" lon="6.85472">
        <ele>1953.6</ele>
        <time>2022-07-19T11:30:55Z</time>
      </trkpt>
      <trkpt lat="44.3273" lon="6.85474">
        <ele>1953.8</ele>
        <time>2022-07-19T11:30:56Z</time>
      </trkpt>
      <trkpt lat="44.32731" lon="6.85477">
        <ele>1954</ele>
        <time>2022-07-19T11:30:57Z</time>
      </trkpt>
      <trkpt lat="44.32732" lon="6.85479">
        <ele>1954</ele>
        <time>2022-07-19T11:30:58Z</time>
      </trkpt>
      <trkpt lat="44.32733" lon="6.85481">
        <ele>1954.2</ele>
        <time>2022-07-19T11:30:59Z</time>
      </trkpt>
      <trkpt lat="44.32734" lon="6.85484">
        <ele>1954.2</ele>
        <time>2022-07-19T11:31:00Z</time>
      </trkpt>
      <trkpt lat="44.32735" lon="6.85486">
        <ele>1954.4</ele>
        <time>2022-07-19T11:31:01Z</time>
      </trkpt>
      <trkpt lat="44.32737" lon="6.85488">
        <ele>1954.4</ele>
        <time>2022-07-19T11:31:02Z</time>
      </trkpt>
      <trkpt lat="44.32738" lon="6.8549">
        <ele>1954.8</ele>
        <time>2022-07-19T11:31:03Z</time>
      </trkpt>
      <trkpt lat="44.32739" lon="6.85492">
        <ele>1954.8</ele>
        <time>2022-07-19T11:31:04Z</time>
      </trkpt>
      <trkpt lat="44.32741" lon="6.85494">
        <ele>1955</ele>
        <time>2022-07-19T11:31:05Z</time>
      </trkpt>
      <trkpt lat="44.32742" lon="6.85496">
        <ele>1955.2</ele>
        <time>2022-07-19T11:31:06Z</time>
      </trkpt>
      <trkpt lat="44.32743" lon="6.85498">
        <ele>1955.2</ele>
        <time>2022-07-19T11:31:07Z</time>
      </trkpt>
      <trkpt lat="44.32745" lon="6.85501">
        <ele>1955.4</ele>
        <time>2022-07-19T11:31:08Z</time>
      </trkpt>
      <trkpt lat="44.32746" lon="6.85503">
        <ele>1955.4</ele>
        <time>2022-07-19T11:31:09Z</time>
      </trkpt>
      <trkpt lat="44.32747" lon="6.85505">
        <ele>1955.6</ele>
        <time>2022-07-19T11:31:10Z</time>
      </trkpt>
      <trkpt lat="44.32747" lon="6.85508">
        <ele>1955.6</ele>
        <time>2022-07-19T11:31:11Z</time>
      </trkpt>
      <trkpt lat="44.32748" lon="6.8551">
        <ele>1956</ele>
        <time>2022-07-19T11:31:12Z</time>
      </trkpt>
      <trkpt lat="44.32748" lon="6.85513">
        <ele>1956</ele>
        <time>2022-07-19T11:31:13Z</time>
      </trkpt>
      <trkpt lat="44.32748" lon="6.85515">
        <ele>1956.4</ele>
        <time>2022-07-19T11:31:14Z</time>
      </trkpt>
      <trkpt lat="44.32748" lon="6.85518">
        <ele>1956.4</ele>
        <time>2022-07-19T11:31:15Z</time>
      </trkpt>
      <trkpt lat="44.32748" lon="6.8552">
        <ele>1956.6</ele>
        <time>2022-07-19T11:31:16Z</time>
      </trkpt>
      <trkpt lat="44.32748" lon="6.85523">
        <ele>1956.6</ele>
        <time>2022-07-19T11:31:17Z</time>
      </trkpt>
      <trkpt lat="44.32748" lon="6.85525">
        <ele>1956.8</ele>
        <time>2022-07-19T11:31:18Z</time>
      </trkpt>
      <trkpt lat="44.32748" lon="6.85528">
        <ele>1956.8</ele>
        <time>2022-07-19T11:31:19Z</time>
      </trkpt>
      <trkpt lat="44.32748" lon="6.85531">
        <ele>1957.2</ele>
        <time>2022-07-19T11:31:20Z</time>
      </trkpt>
      <trkpt lat="44.32748" lon="6.85533">
        <ele>1957.2</ele>
        <time>2022-07-19T11:31:21Z</time>
      </trkpt>
      <trkpt lat="44.32747" lon="6.85536">
        <ele>1957.6</ele>
        <time>2022-07-19T11:31:22Z</time>
      </trkpt>
      <trkpt lat="44.32747" lon="6.85538">
        <ele>1957.6</ele>
        <time>2022-07-19T11:31:23Z</time>
      </trkpt>
      <trkpt lat="44.32747" lon="6.85541">
        <ele>1957.8</ele>
        <time>2022-07-19T11:31:24Z</time>
      </trkpt>
      <trkpt lat="44.32746" lon="6.85544">
        <ele>1957.8</ele>
        <time>2022-07-19T11:31:25Z</time>
      </trkpt>
      <trkpt lat="44.32746" lon="6.85546">
        <ele>1958.2</ele>
        <time>2022-07-19T11:31:26Z</time>
      </trkpt>
      <trkpt lat="44.32746" lon="6.85549">
        <ele>1958.2</ele>
        <time>2022-07-19T11:31:27Z</time>
      </trkpt>
      <trkpt lat="44.32745" lon="6.85551">
        <ele>1958.4</ele>
        <time>2022-07-19T11:31:28Z</time>
      </trkpt>
      <trkpt lat="44.32745" lon="6.85554">
        <ele>1958.4</ele>
        <time>2022-07-19T11:31:29Z</time>
      </trkpt>
      <trkpt lat="44.32744" lon="6.85557">
        <ele>1958.6</ele>
        <time>2022-07-19T11:31:30Z</time>
      </trkpt>
      <trkpt lat="44.32744" lon="6.85559">
        <ele>1958.6</ele>
        <time>2022-07-19T11:31:31Z</time>
      </trkpt>
      <trkpt lat="44.32744" lon="6.85562">
        <ele>1959</ele>
        <time>2022-07-19T11:31:32Z</time>
      </trkpt>
      <trkpt lat="44.32744" lon="6.85564">
        <ele>1959</ele>
        <time>2022-07-19T11:31:33Z</time>
      </trkpt>
      <trkpt lat="44.32743" lon="6.85567">
        <ele>1959.4</ele>
        <time>2022-07-19T11:31:34Z</time>
      </trkpt>
      <trkpt lat="44.32742" lon="6.85569">
        <ele>1959.4</ele>
        <time>2022-07-19T11:31:35Z</time>
      </trkpt>
      <trkpt lat="44.32741" lon="6.85572">
        <ele>1959.6</ele>
        <time>2022-07-19T11:31:36Z</time>
      </trkpt>
      <trkpt lat="44.3274" lon="6.85574">
        <ele>1959.6</ele>
        <time>2022-07-19T11:31:37Z</time>
      </trkpt>
      <trkpt lat="44.3274" lon="6.85576">
        <ele>1960</ele>
        <time>2022-07-19T11:31:38Z</time>
      </trkpt>
      <trkpt lat="44.32739" lon="6.85579">
        <ele>1960</ele>
        <time>2022-07-19T11:31:39Z</time>
      </trkpt>
      <trkpt lat="44.32738" lon="6.85581">
        <ele>1960.2</ele>
        <time>2022-07-19T11:31:40Z</time>
      </trkpt>
      <trkpt lat="44.32737" lon="6.85584">
        <ele>1960.4</ele>
        <time>2022-07-19T11:31:41Z</time>
      </trkpt>
      <trkpt lat="44.32736" lon="6.85586">
        <ele>1960.4</ele>
        <time>2022-07-19T11:31:42Z</time>
      </trkpt>
      <trkpt lat="44.32736" lon="6.85589">
        <ele>1960.8</ele>
        <time>2022-07-19T11:31:43Z</time>
      </trkpt>
      <trkpt lat="44.32735" lon="6.85591">
        <ele>1960.8</ele>
        <time>2022-07-19T11:31:44Z</time>
      </trkpt>
      <trkpt lat="44.32734" lon="6.85594">
        <ele>1961</ele>
        <time>2022-07-19T11:31:45Z</time>
      </trkpt>
      <trkpt lat="44.32733" lon="6.85596">
        <ele>1961</ele>
        <time>2022-07-19T11:31:46Z</time>
      </trkpt>
      <trkpt lat="44.32733" lon="6.85599">
        <ele>1961.4</ele>
        <time>2022-07-19T11:31:47Z</time>
      </trkpt>
      <trkpt lat="44.32732" lon="6.85601">
        <ele>1961.4</ele>
        <time>2022-07-19T11:31:48Z</time>
      </trkpt>
      <trkpt lat="44.32732" lon="6.85604">
        <ele>1961.6</ele>
        <time>2022-07-19T11:31:49Z</time>
      </trkpt>
      <trkpt lat="44.32731" lon="6.85606">
        <ele>1961.6</ele>
        <time>2022-07-19T11:31:50Z</time>
      </trkpt>
      <trkpt lat="44.3273" lon="6.85609">
        <ele>1962</ele>
        <time>2022-07-19T11:31:51Z</time>
      </trkpt>
      <trkpt lat="44.32729" lon="6.85611">
        <ele>1962</ele>
        <time>2022-07-19T11:31:52Z</time>
      </trkpt>
      <trkpt lat="44.32729" lon="6.85613">
        <ele>1962.2</ele>
        <time>2022-07-19T11:31:53Z</time>
      </trkpt>
      <trkpt lat="44.32728" lon="6.85616">
        <ele>1962.4</ele>
        <time>2022-07-19T11:31:55Z</time>
      </trkpt>
      <trkpt lat="44.32727" lon="6.85618">
        <ele>1962.4</ele>
        <time>2022-07-19T11:31:56Z</time>
      </trkpt>
      <trkpt lat="44.32727" lon="6.85621">
        <ele>1962.8</ele>
        <time>2022-07-19T11:31:57Z</time>
      </trkpt>
      <trkpt lat="44.32726" lon="6.85623">
        <ele>1962.8</ele>
        <time>2022-07-19T11:31:58Z</time>
      </trkpt>
      <trkpt lat="44.32726" lon="6.85626">
        <ele>1963</ele>
        <time>2022-07-19T11:31:59Z</time>
      </trkpt>
      <trkpt lat="44.32725" lon="6.85628">
        <ele>1963</ele>
        <time>2022-07-19T11:32:00Z</time>
      </trkpt>
      <trkpt lat="44.32725" lon="6.8563">
        <ele>1963.2</ele>
        <time>2022-07-19T11:32:01Z</time>
      </trkpt>
      <trkpt lat="44.32724" lon="6.85633">
        <ele>1963.2</ele>
        <time>2022-07-19T11:32:02Z</time>
      </trkpt>
      <trkpt lat="44.32723" lon="6.85635">
        <ele>1963.6</ele>
        <time>2022-07-19T11:32:03Z</time>
      </trkpt>
      <trkpt lat="44.32722" lon="6.85637">
        <ele>1963.6</ele>
        <time>2022-07-19T11:32:04Z</time>
      </trkpt>
      <trkpt lat="44.32722" lon="6.85639">
        <ele>1963.8</ele>
        <time>2022-07-19T11:32:05Z</time>
      </trkpt>
      <trkpt lat="44.32721" lon="6.85641">
        <ele>1963.8</ele>
        <time>2022-07-19T11:32:06Z</time>
      </trkpt>
      <trkpt lat="44.32721" lon="6.85644">
        <ele>1964.2</ele>
        <time>2022-07-19T11:32:07Z</time>
      </trkpt>
      <trkpt lat="44.3272" lon="6.85646">
        <ele>1964.4</ele>
        <time>2022-07-19T11:32:08Z</time>
      </trkpt>
      <trkpt lat="44.32719" lon="6.85648">
        <ele>1964.4</ele>
        <time>2022-07-19T11:32:09Z</time>
      </trkpt>
      <trkpt lat="44.32718" lon="6.85651">
        <ele>1964.6</ele>
        <time>2022-07-19T11:32:10Z</time>
      </trkpt>
      <trkpt lat="44.32718" lon="6.85653">
        <ele>1964.6</ele>
        <time>2022-07-19T11:32:11Z</time>
      </trkpt>
      <trkpt lat="44.32717" lon="6.85655">
        <ele>1965</ele>
        <time>2022-07-19T11:32:12Z</time>
      </trkpt>
      <trkpt lat="44.32716" lon="6.85657">
        <ele>1965</ele>
        <time>2022-07-19T11:32:13Z</time>
      </trkpt>
      <trkpt lat="44.32715" lon="6.8566">
        <ele>1965.2</ele>
        <time>2022-07-19T11:32:14Z</time>
      </trkpt>
      <trkpt lat="44.32714" lon="6.85662">
        <ele>1965.2</ele>
        <time>2022-07-19T11:32:15Z</time>
      </trkpt>
      <trkpt lat="44.32713" lon="6.85664">
        <ele>1965.6</ele>
        <time>2022-07-19T11:32:16Z</time>
      </trkpt>
      <trkpt lat="44.32712" lon="6.85666">
        <ele>1965.6</ele>
        <time>2022-07-19T11:32:17Z</time>
      </trkpt>
      <trkpt lat="44.32712" lon="6.85668">
        <ele>1965.8</ele>
        <time>2022-07-19T11:32:18Z</time>
      </trkpt>
      <trkpt lat="44.32711" lon="6.85671">
        <ele>1965.8</ele>
        <time>2022-07-19T11:32:19Z</time>
      </trkpt>
      <trkpt lat="44.3271" lon="6.85673">
        <ele>1966.2</ele>
        <time>2022-07-19T11:32:20Z</time>
      </trkpt>
      <trkpt lat="44.3271" lon="6.85675">
        <ele>1966.4</ele>
        <time>2022-07-19T11:32:21Z</time>
      </trkpt>
      <trkpt lat="44.32709" lon="6.85678">
        <ele>1966.4</ele>
        <time>2022-07-19T11:32:22Z</time>
      </trkpt>
      <trkpt lat="44.32709" lon="6.8568">
        <ele>1966.6</ele>
        <time>2022-07-19T11:32:23Z</time>
      </trkpt>
      <trkpt lat="44.32708" lon="6.85683">
        <ele>1966.6</ele>
        <time>2022-07-19T11:32:24Z</time>
      </trkpt>
      <trkpt lat="44.32707" lon="6.85685">
        <ele>1967</ele>
        <time>2022-07-19T11:32:25Z</time>
      </trkpt>
      <trkpt lat="44.32707" lon="6.85687">
        <ele>1967</ele>
        <time>2022-07-19T11:32:26Z</time>
      </trkpt>
      <trkpt lat="44.32706" lon="6.8569">
        <ele>1967.2</ele>
        <time>2022-07-19T11:32:27Z</time>
      </trkpt>
      <trkpt lat="44.32706" lon="6.85692">
        <ele>1967.2</ele>
        <time>2022-07-19T11:32:28Z</time>
      </trkpt>
      <trkpt lat="44.32705" lon="6.85695">
        <ele>1967.2</ele>
        <time>2022-07-19T11:32:29Z</time>
      </trkpt>
      <trkpt lat="44.32704" lon="6.85697">
        <ele>1967.6</ele>
        <time>2022-07-19T11:32:30Z</time>
      </trkpt>
      <trkpt lat="44.32704" lon="6.85699">
        <ele>1967.6</ele>
        <time>2022-07-19T11:32:31Z</time>
      </trkpt>
      <trkpt lat="44.32703" lon="6.85702">
        <ele>1967.8</ele>
        <time>2022-07-19T11:32:32Z</time>
      </trkpt>
      <trkpt lat="44.32703" lon="6.85704">
        <ele>1967.8</ele>
        <time>2022-07-19T11:32:33Z</time>
      </trkpt>
      <trkpt lat="44.32702" lon="6.85707">
        <ele>1968.2</ele>
        <time>2022-07-19T11:32:34Z</time>
      </trkpt>
      <trkpt lat="44.32702" lon="6.85709">
        <ele>1968.2</ele>
        <time>2022-07-19T11:32:35Z</time>
      </trkpt>
      <trkpt lat="44.32701" lon="6.85711">
        <ele>1968.4</ele>
        <time>2022-07-19T11:32:36Z</time>
      </trkpt>
      <trkpt lat="44.327" lon="6.85714">
        <ele>1968.4</ele>
        <time>2022-07-19T11:32:37Z</time>
      </trkpt>
      <trkpt lat="44.32699" lon="6.85716">
        <ele>1968.8</ele>
        <time>2022-07-19T11:32:38Z</time>
      </trkpt>
      <trkpt lat="44.32699" lon="6.85718">
        <ele>1968.8</ele>
        <time>2022-07-19T11:32:39Z</time>
      </trkpt>
      <trkpt lat="44.32698" lon="6.8572">
        <ele>1969</ele>
        <time>2022-07-19T11:32:40Z</time>
      </trkpt>
      <trkpt lat="44.32698" lon="6.85722">
        <ele>1969</ele>
        <time>2022-07-19T11:32:41Z</time>
      </trkpt>
      <trkpt lat="44.32698" lon="6.85724">
        <ele>1969.4</ele>
        <time>2022-07-19T11:32:42Z</time>
      </trkpt>
      <trkpt lat="44.32697" lon="6.85727">
        <ele>1969.4</ele>
        <time>2022-07-19T11:32:43Z</time>
      </trkpt>
      <trkpt lat="44.32698" lon="6.85729">
        <ele>1969.6</ele>
        <time>2022-07-19T11:32:44Z</time>
      </trkpt>
      <trkpt lat="44.32697" lon="6.85732">
        <ele>1969.6</ele>
        <time>2022-07-19T11:32:45Z</time>
      </trkpt>
      <trkpt lat="44.32697" lon="6.85734">
        <ele>1969.6</ele>
        <time>2022-07-19T11:32:46Z</time>
      </trkpt>
      <trkpt lat="44.32697" lon="6.85737">
        <ele>1970</ele>
        <time>2022-07-19T11:32:47Z</time>
      </trkpt>
      <trkpt lat="44.32697" lon="6.85739">
        <ele>1970</ele>
        <time>2022-07-19T11:32:48Z</time>
      </trkpt>
      <trkpt lat="44.32696" lon="6.85742">
        <ele>1970.2</ele>
        <time>2022-07-19T11:32:49Z</time>
      </trkpt>
      <trkpt lat="44.32696" lon="6.85744">
        <ele>1970.2</ele>
        <time>2022-07-19T11:32:50Z</time>
      </trkpt>
      <trkpt lat="44.32695" lon="6.85747">
        <ele>1970.4</ele>
        <time>2022-07-19T11:32:51Z</time>
      </trkpt>
      <trkpt lat="44.32695" lon="6.8575">
        <ele>1970.4</ele>
        <time>2022-07-19T11:32:52Z</time>
      </trkpt>
      <trkpt lat="44.32695" lon="6.85752">
        <ele>1970.8</ele>
        <time>2022-07-19T11:32:53Z</time>
      </trkpt>
      <trkpt lat="44.32695" lon="6.85755">
        <ele>1970.8</ele>
        <time>2022-07-19T11:32:54Z</time>
      </trkpt>
      <trkpt lat="44.32695" lon="6.85757">
        <ele>1971</ele>
        <time>2022-07-19T11:32:55Z</time>
      </trkpt>
      <trkpt lat="44.32695" lon="6.8576">
        <ele>1971</ele>
        <time>2022-07-19T11:32:56Z</time>
      </trkpt>
      <trkpt lat="44.32694" lon="6.85762">
        <ele>1971.4</ele>
        <time>2022-07-19T11:32:57Z</time>
      </trkpt>
      <trkpt lat="44.32694" lon="6.85765">
        <ele>1971.4</ele>
        <time>2022-07-19T11:32:58Z</time>
      </trkpt>
      <trkpt lat="44.32695" lon="6.85768">
        <ele>1971.6</ele>
        <time>2022-07-19T11:32:59Z</time>
      </trkpt>
      <trkpt lat="44.32695" lon="6.8577">
        <ele>1971.6</ele>
        <time>2022-07-19T11:33:00Z</time>
      </trkpt>
      <trkpt lat="44.32695" lon="6.85773">
        <ele>1972</ele>
        <time>2022-07-19T11:33:01Z</time>
      </trkpt>
      <trkpt lat="44.32695" lon="6.85775">
        <ele>1972</ele>
        <time>2022-07-19T11:33:02Z</time>
      </trkpt>
      <trkpt lat="44.32696" lon="6.85778">
        <ele>1972.2</ele>
        <time>2022-07-19T11:33:03Z</time>
      </trkpt>
      <trkpt lat="44.32696" lon="6.8578">
        <ele>1972.2</ele>
        <time>2022-07-19T11:33:04Z</time>
      </trkpt>
      <trkpt lat="44.32696" lon="6.85783">
        <ele>1972.4</ele>
        <time>2022-07-19T11:33:05Z</time>
      </trkpt>
      <trkpt lat="44.32696" lon="6.85785">
        <ele>1972.4</ele>
        <time>2022-07-19T11:33:06Z</time>
      </trkpt>
      <trkpt lat="44.32696" lon="6.85788">
        <ele>1972.6</ele>
        <time>2022-07-19T11:33:07Z</time>
      </trkpt>
      <trkpt lat="44.32696" lon="6.85791">
        <ele>1972.6</ele>
        <time>2022-07-19T11:33:08Z</time>
      </trkpt>
      <trkpt lat="44.32696" lon="6.85793">
        <ele>1973</ele>
        <time>2022-07-19T11:33:09Z</time>
      </trkpt>
      <trkpt lat="44.32696" lon="6.85796">
        <ele>1973</ele>
        <time>2022-07-19T11:33:10Z</time>
      </trkpt>
      <trkpt lat="44.32697" lon="6.85798">
        <ele>1973.2</ele>
        <time>2022-07-19T11:33:11Z</time>
      </trkpt>
      <trkpt lat="44.32697" lon="6.85801">
        <ele>1973.2</ele>
        <time>2022-07-19T11:33:12Z</time>
      </trkpt>
      <trkpt lat="44.32697" lon="6.85804">
        <ele>1973.4</ele>
        <time>2022-07-19T11:33:13Z</time>
      </trkpt>
      <trkpt lat="44.32698" lon="6.85806">
        <ele>1973.4</ele>
        <time>2022-07-19T11:33:14Z</time>
      </trkpt>
      <trkpt lat="44.32698" lon="6.85809">
        <ele>1973.8</ele>
        <time>2022-07-19T11:33:15Z</time>
      </trkpt>
      <trkpt lat="44.32698" lon="6.85811">
        <ele>1973.8</ele>
        <time>2022-07-19T11:33:16Z</time>
      </trkpt>
      <trkpt lat="44.32699" lon="6.85814">
        <ele>1974.2</ele>
        <time>2022-07-19T11:33:17Z</time>
      </trkpt>
      <trkpt lat="44.32699" lon="6.85816">
        <ele>1974.2</ele>
        <time>2022-07-19T11:33:18Z</time>
      </trkpt>
      <trkpt lat="44.32699" lon="6.85818">
        <ele>1974.4</ele>
        <time>2022-07-19T11:33:19Z</time>
      </trkpt>
      <trkpt lat="44.327" lon="6.85821">
        <ele>1974.4</ele>
        <time>2022-07-19T11:33:20Z</time>
      </trkpt>
      <trkpt lat="44.32701" lon="6.85823">
        <ele>1974.8</ele>
        <time>2022-07-19T11:33:21Z</time>
      </trkpt>
      <trkpt lat="44.32701" lon="6.85825">
        <ele>1974.8</ele>
        <time>2022-07-19T11:33:22Z</time>
      </trkpt>
      <trkpt lat="44.32702" lon="6.85829">
        <ele>1975.2</ele>
        <time>2022-07-19T11:33:23Z</time>
      </trkpt>
      <trkpt lat="44.32703" lon="6.85831">
        <ele>1975.2</ele>
        <time>2022-07-19T11:33:24Z</time>
      </trkpt>
      <trkpt lat="44.32703" lon="6.85833">
        <ele>1975.6</ele>
        <time>2022-07-19T11:33:25Z</time>
      </trkpt>
      <trkpt lat="44.32703" lon="6.85836">
        <ele>1975.6</ele>
        <time>2022-07-19T11:33:26Z</time>
      </trkpt>
      <trkpt lat="44.32704" lon="6.85838">
        <ele>1975.6</ele>
        <time>2022-07-19T11:33:27Z</time>
      </trkpt>
      <trkpt lat="44.32704" lon="6.8584">
        <ele>1975.8</ele>
        <time>2022-07-19T11:33:28Z</time>
      </trkpt>
      <trkpt lat="44.32704" lon="6.85843">
        <ele>1975.8</ele>
        <time>2022-07-19T11:33:29Z</time>
      </trkpt>
      <trkpt lat="44.32705" lon="6.85845">
        <ele>1976</ele>
        <time>2022-07-19T11:33:30Z</time>
      </trkpt>
      <trkpt lat="44.32705" lon="6.85847">
        <ele>1976</ele>
        <time>2022-07-19T11:33:31Z</time>
      </trkpt>
      <trkpt lat="44.32706" lon="6.8585">
        <ele>1976</ele>
        <time>2022-07-19T11:33:32Z</time>
      </trkpt>
      <trkpt lat="44.32706" lon="6.85853">
        <ele>1976.4</ele>
        <time>2022-07-19T11:33:33Z</time>
      </trkpt>
      <trkpt lat="44.32706" lon="6.85856">
        <ele>1976.4</ele>
        <time>2022-07-19T11:33:34Z</time>
      </trkpt>
      <trkpt lat="44.32706" lon="6.85859">
        <ele>1976.6</ele>
        <time>2022-07-19T11:33:35Z</time>
      </trkpt>
      <trkpt lat="44.32706" lon="6.85861">
        <ele>1976.6</ele>
        <time>2022-07-19T11:33:36Z</time>
      </trkpt>
      <trkpt lat="44.32707" lon="6.85864">
        <ele>1976.8</ele>
        <time>2022-07-19T11:33:37Z</time>
      </trkpt>
      <trkpt lat="44.32707" lon="6.85867">
        <ele>1976.8</ele>
        <time>2022-07-19T11:33:38Z</time>
      </trkpt>
      <trkpt lat="44.32707" lon="6.8587">
        <ele>1977.2</ele>
        <time>2022-07-19T11:33:39Z</time>
      </trkpt>
      <trkpt lat="44.32708" lon="6.85872">
        <ele>1977.2</ele>
        <time>2022-07-19T11:33:40Z</time>
      </trkpt>
      <trkpt lat="44.32708" lon="6.85875">
        <ele>1977.4</ele>
        <time>2022-07-19T11:33:41Z</time>
      </trkpt>
      <trkpt lat="44.32708" lon="6.85877">
        <ele>1977.4</ele>
        <time>2022-07-19T11:33:42Z</time>
      </trkpt>
      <trkpt lat="44.32708" lon="6.8588">
        <ele>1977.8</ele>
        <time>2022-07-19T11:33:43Z</time>
      </trkpt>
      <trkpt lat="44.32707" lon="6.85882">
        <ele>1977.8</ele>
        <time>2022-07-19T11:33:44Z</time>
      </trkpt>
      <trkpt lat="44.32707" lon="6.85884">
        <ele>1978.2</ele>
        <time>2022-07-19T11:33:45Z</time>
      </trkpt>
      <trkpt lat="44.32707" lon="6.85887">
        <ele>1978.2</ele>
        <time>2022-07-19T11:33:46Z</time>
      </trkpt>
      <trkpt lat="44.32707" lon="6.85889">
        <ele>1978.4</ele>
        <time>2022-07-19T11:33:47Z</time>
      </trkpt>
      <trkpt lat="44.32706" lon="6.85892">
        <ele>1978.4</ele>
        <time>2022-07-19T11:33:48Z</time>
      </trkpt>
      <trkpt lat="44.32706" lon="6.85894">
        <ele>1978.4</ele>
        <time>2022-07-19T11:33:49Z</time>
      </trkpt>
      <trkpt lat="44.32706" lon="6.85897">
        <ele>1978.6</ele>
        <time>2022-07-19T11:33:50Z</time>
      </trkpt>
      <trkpt lat="44.32706" lon="6.85899">
        <ele>1978.6</ele>
        <time>2022-07-19T11:33:51Z</time>
      </trkpt>
      <trkpt lat="44.32706" lon="6.85901">
        <ele>1979</ele>
        <time>2022-07-19T11:33:52Z</time>
      </trkpt>
      <trkpt lat="44.32706" lon="6.85904">
        <ele>1979</ele>
        <time>2022-07-19T11:33:53Z</time>
      </trkpt>
      <trkpt lat="44.32706" lon="6.85906">
        <ele>1979.2</ele>
        <time>2022-07-19T11:33:54Z</time>
      </trkpt>
      <trkpt lat="44.32706" lon="6.85909">
        <ele>1979.2</ele>
        <time>2022-07-19T11:33:55Z</time>
      </trkpt>
      <trkpt lat="44.32705" lon="6.85911">
        <ele>1979.4</ele>
        <time>2022-07-19T11:33:56Z</time>
      </trkpt>
      <trkpt lat="44.32705" lon="6.85914">
        <ele>1979.4</ele>
        <time>2022-07-19T11:33:57Z</time>
      </trkpt>
      <trkpt lat="44.32704" lon="6.85916">
        <ele>1979.6</ele>
        <time>2022-07-19T11:33:58Z</time>
      </trkpt>
      <trkpt lat="44.32704" lon="6.85919">
        <ele>1979.6</ele>
        <time>2022-07-19T11:33:59Z</time>
      </trkpt>
      <trkpt lat="44.32704" lon="6.85922">
        <ele>1980</ele>
        <time>2022-07-19T11:34:00Z</time>
      </trkpt>
      <trkpt lat="44.32704" lon="6.85924">
        <ele>1980</ele>
        <time>2022-07-19T11:34:01Z</time>
      </trkpt>
      <trkpt lat="44.32704" lon="6.85927">
        <ele>1980.2</ele>
        <time>2022-07-19T11:34:02Z</time>
      </trkpt>
      <trkpt lat="44.32704" lon="6.85929">
        <ele>1980.2</ele>
        <time>2022-07-19T11:34:03Z</time>
      </trkpt>
      <trkpt lat="44.32704" lon="6.85932">
        <ele>1980.4</ele>
        <time>2022-07-19T11:34:04Z</time>
      </trkpt>
      <trkpt lat="44.32704" lon="6.85935">
        <ele>1980.4</ele>
        <time>2022-07-19T11:34:05Z</time>
      </trkpt>
      <trkpt lat="44.32704" lon="6.85937">
        <ele>1980.6</ele>
        <time>2022-07-19T11:34:06Z</time>
      </trkpt>
      <trkpt lat="44.32704" lon="6.8594">
        <ele>1980.6</ele>
        <time>2022-07-19T11:34:07Z</time>
      </trkpt>
      <trkpt lat="44.32704" lon="6.85942">
        <ele>1981</ele>
        <time>2022-07-19T11:34:08Z</time>
      </trkpt>
      <trkpt lat="44.32704" lon="6.85944">
        <ele>1981</ele>
        <time>2022-07-19T11:34:09Z</time>
      </trkpt>
      <trkpt lat="44.32704" lon="6.85946">
        <ele>1981.2</ele>
        <time>2022-07-19T11:34:10Z</time>
      </trkpt>
      <trkpt lat="44.32704" lon="6.85949">
        <ele>1981.2</ele>
        <time>2022-07-19T11:34:11Z</time>
      </trkpt>
      <trkpt lat="44.32705" lon="6.85951">
        <ele>1981.2</ele>
        <time>2022-07-19T11:34:12Z</time>
      </trkpt>
      <trkpt lat="44.32705" lon="6.85954">
        <ele>1981.4</ele>
        <time>2022-07-19T11:34:13Z</time>
      </trkpt>
      <trkpt lat="44.32705" lon="6.85956">
        <ele>1981.4</ele>
        <time>2022-07-19T11:34:14Z</time>
      </trkpt>
      <trkpt lat="44.32705" lon="6.85958">
        <ele>1981.6</ele>
        <time>2022-07-19T11:34:15Z</time>
      </trkpt>
      <trkpt lat="44.32705" lon="6.85961">
        <ele>1981.8</ele>
        <time>2022-07-19T11:34:16Z</time>
      </trkpt>
      <trkpt lat="44.32705" lon="6.85963">
        <ele>1981.8</ele>
        <time>2022-07-19T11:34:17Z</time>
      </trkpt>
      <trkpt lat="44.32705" lon="6.85966">
        <ele>1982.2</ele>
        <time>2022-07-19T11:34:18Z</time>
      </trkpt>
      <trkpt lat="44.32705" lon="6.85968">
        <ele>1982.2</ele>
        <time>2022-07-19T11:34:19Z</time>
      </trkpt>
      <trkpt lat="44.32705" lon="6.85971">
        <ele>1982.4</ele>
        <time>2022-07-19T11:34:20Z</time>
      </trkpt>
      <trkpt lat="44.32705" lon="6.85973">
        <ele>1982.4</ele>
        <time>2022-07-19T11:34:21Z</time>
      </trkpt>
      <trkpt lat="44.32705" lon="6.85976">
        <ele>1982.8</ele>
        <time>2022-07-19T11:34:22Z</time>
      </trkpt>
      <trkpt lat="44.32705" lon="6.85978">
        <ele>1982.8</ele>
        <time>2022-07-19T11:34:23Z</time>
      </trkpt>
      <trkpt lat="44.32705" lon="6.85981">
        <ele>1982.8</ele>
        <time>2022-07-19T11:34:24Z</time>
      </trkpt>
      <trkpt lat="44.32706" lon="6.85983">
        <ele>1983</ele>
        <time>2022-07-19T11:34:25Z</time>
      </trkpt>
      <trkpt lat="44.32707" lon="6.85986">
        <ele>1983</ele>
        <time>2022-07-19T11:34:26Z</time>
      </trkpt>
      <trkpt lat="44.32707" lon="6.85988">
        <ele>1983.2</ele>
        <time>2022-07-19T11:34:27Z</time>
      </trkpt>
      <trkpt lat="44.32708" lon="6.85991">
        <ele>1983.2</ele>
        <time>2022-07-19T11:34:28Z</time>
      </trkpt>
      <trkpt lat="44.32708" lon="6.85993">
        <ele>1983.6</ele>
        <time>2022-07-19T11:34:29Z</time>
      </trkpt>
      <trkpt lat="44.32708" lon="6.85996">
        <ele>1983.6</ele>
        <time>2022-07-19T11:34:30Z</time>
      </trkpt>
      <trkpt lat="44.32708" lon="6.85999">
        <ele>1983.8</ele>
        <time>2022-07-19T11:34:31Z</time>
      </trkpt>
      <trkpt lat="44.32708" lon="6.86002">
        <ele>1983.8</ele>
        <time>2022-07-19T11:34:32Z</time>
      </trkpt>
      <trkpt lat="44.32709" lon="6.86004">
        <ele>1984.2</ele>
        <time>2022-07-19T11:34:33Z</time>
      </trkpt>
      <trkpt lat="44.32709" lon="6.86007">
        <ele>1984.2</ele>
        <time>2022-07-19T11:34:34Z</time>
      </trkpt>
      <trkpt lat="44.3271" lon="6.86009">
        <ele>1984.4</ele>
        <time>2022-07-19T11:34:35Z</time>
      </trkpt>
      <trkpt lat="44.32711" lon="6.86011">
        <ele>1984.4</ele>
        <time>2022-07-19T11:34:36Z</time>
      </trkpt>
      <trkpt lat="44.32711" lon="6.86014">
        <ele>1984.8</ele>
        <time>2022-07-19T11:34:37Z</time>
      </trkpt>
      <trkpt lat="44.32711" lon="6.86017">
        <ele>1984.8</ele>
        <time>2022-07-19T11:34:38Z</time>
      </trkpt>
      <trkpt lat="44.32711" lon="6.86019">
        <ele>1985</ele>
        <time>2022-07-19T11:34:39Z</time>
      </trkpt>
      <trkpt lat="44.32711" lon="6.86022">
        <ele>1985</ele>
        <time>2022-07-19T11:34:40Z</time>
      </trkpt>
      <trkpt lat="44.32711" lon="6.86025">
        <ele>1985</ele>
        <time>2022-07-19T11:34:41Z</time>
      </trkpt>
      <trkpt lat="44.32711" lon="6.86028">
        <ele>1985.4</ele>
        <time>2022-07-19T11:34:42Z</time>
      </trkpt>
      <trkpt lat="44.32712" lon="6.86031">
        <ele>1985.4</ele>
        <time>2022-07-19T11:34:43Z</time>
      </trkpt>
      <trkpt lat="44.32712" lon="6.86033">
        <ele>1985.6</ele>
        <time>2022-07-19T11:34:44Z</time>
      </trkpt>
      <trkpt lat="44.32712" lon="6.86036">
        <ele>1985.6</ele>
        <time>2022-07-19T11:34:45Z</time>
      </trkpt>
      <trkpt lat="44.32712" lon="6.86039">
        <ele>1986</ele>
        <time>2022-07-19T11:34:46Z</time>
      </trkpt>
      <trkpt lat="44.32712" lon="6.86041">
        <ele>1986</ele>
        <time>2022-07-19T11:34:47Z</time>
      </trkpt>
      <trkpt lat="44.32712" lon="6.86044">
        <ele>1986</ele>
        <time>2022-07-19T11:34:48Z</time>
      </trkpt>
      <trkpt lat="44.32711" lon="6.86047">
        <ele>1986.4</ele>
        <time>2022-07-19T11:34:49Z</time>
      </trkpt>
      <trkpt lat="44.3271" lon="6.86049">
        <ele>1986.4</ele>
        <time>2022-07-19T11:34:50Z</time>
      </trkpt>
      <trkpt lat="44.32709" lon="6.86052">
        <ele>1986.6</ele>
        <time>2022-07-19T11:34:51Z</time>
      </trkpt>
      <trkpt lat="44.32708" lon="6.86055">
        <ele>1986.6</ele>
        <time>2022-07-19T11:34:52Z</time>
      </trkpt>
      <trkpt lat="44.32707" lon="6.86057">
        <ele>1987</ele>
        <time>2022-07-19T11:34:53Z</time>
      </trkpt>
      <trkpt lat="44.32706" lon="6.86059">
        <ele>1987</ele>
        <time>2022-07-19T11:34:54Z</time>
      </trkpt>
      <trkpt lat="44.32705" lon="6.86061">
        <ele>1987.2</ele>
        <time>2022-07-19T11:34:55Z</time>
      </trkpt>
      <trkpt lat="44.32705" lon="6.86064">
        <ele>1987.2</ele>
        <time>2022-07-19T11:34:56Z</time>
      </trkpt>
      <trkpt lat="44.32704" lon="6.86066">
        <ele>1987.4</ele>
        <time>2022-07-19T11:34:57Z</time>
      </trkpt>
      <trkpt lat="44.32703" lon="6.86068">
        <ele>1987.4</ele>
        <time>2022-07-19T11:34:58Z</time>
      </trkpt>
      <trkpt lat="44.32702" lon="6.86069">
        <ele>1987.4</ele>
        <time>2022-07-19T11:34:59Z</time>
      </trkpt>
      <trkpt lat="44.32701" lon="6.86071">
        <ele>1987.8</ele>
        <time>2022-07-19T11:35:00Z</time>
      </trkpt>
      <trkpt lat="44.327" lon="6.86073">
        <ele>1987.8</ele>
        <time>2022-07-19T11:35:01Z</time>
      </trkpt>
      <trkpt lat="44.32699" lon="6.86075">
        <ele>1988</ele>
        <time>2022-07-19T11:35:02Z</time>
      </trkpt>
      <trkpt lat="44.32697" lon="6.86076">
        <ele>1988</ele>
        <time>2022-07-19T11:35:03Z</time>
      </trkpt>
      <trkpt lat="44.32696" lon="6.86078">
        <ele>1988.4</ele>
        <time>2022-07-19T11:35:04Z</time>
      </trkpt>
      <trkpt lat="44.32695" lon="6.86079">
        <ele>1988.4</ele>
        <time>2022-07-19T11:35:05Z</time>
      </trkpt>
      <trkpt lat="44.32694" lon="6.86081">
        <ele>1988.8</ele>
        <time>2022-07-19T11:35:06Z</time>
      </trkpt>
      <trkpt lat="44.32694" lon="6.86083">
        <ele>1988.8</ele>
        <time>2022-07-19T11:35:07Z</time>
      </trkpt>
      <trkpt lat="44.32693" lon="6.86085">
        <ele>1989</ele>
        <time>2022-07-19T11:35:08Z</time>
      </trkpt>
      <trkpt lat="44.32692" lon="6.86087">
        <ele>1989</ele>
        <time>2022-07-19T11:35:09Z</time>
      </trkpt>
      <trkpt lat="44.32691" lon="6.86088">
        <ele>1989.2</ele>
        <time>2022-07-19T11:35:10Z</time>
      </trkpt>
      <trkpt lat="44.32689" lon="6.8609">
        <ele>1989.2</ele>
        <time>2022-07-19T11:35:11Z</time>
      </trkpt>
      <trkpt lat="44.32688" lon="6.86091">
        <ele>1989.6</ele>
        <time>2022-07-19T11:35:12Z</time>
      </trkpt>
      <trkpt lat="44.32687" lon="6.86093">
        <ele>1989.6</ele>
        <time>2022-07-19T11:35:13Z</time>
      </trkpt>
      <trkpt lat="44.32686" lon="6.86095">
        <ele>1989.8</ele>
        <time>2022-07-19T11:35:14Z</time>
      </trkpt>
      <trkpt lat="44.32685" lon="6.86097">
        <ele>1989.8</ele>
        <time>2022-07-19T11:35:15Z</time>
      </trkpt>
      <trkpt lat="44.32684" lon="6.86098">
        <ele>1990</ele>
        <time>2022-07-19T11:35:16Z</time>
      </trkpt>
      <trkpt lat="44.32683" lon="6.861">
        <ele>1990</ele>
        <time>2022-07-19T11:35:17Z</time>
      </trkpt>
      <trkpt lat="44.32682" lon="6.86102">
        <ele>1990.2</ele>
        <time>2022-07-19T11:35:18Z</time>
      </trkpt>
      <trkpt lat="44.32681" lon="6.86103">
        <ele>1990.2</ele>
        <time>2022-07-19T11:35:19Z</time>
      </trkpt>
      <trkpt lat="44.3268" lon="6.86105">
        <ele>1990.6</ele>
        <time>2022-07-19T11:35:20Z</time>
      </trkpt>
      <trkpt lat="44.32679" lon="6.86107">
        <ele>1990.6</ele>
        <time>2022-07-19T11:35:21Z</time>
      </trkpt>
      <trkpt lat="44.32678" lon="6.86109">
        <ele>1990.8</ele>
        <time>2022-07-19T11:35:22Z</time>
      </trkpt>
      <trkpt lat="44.32677" lon="6.86111">
        <ele>1990.8</ele>
        <time>2022-07-19T11:35:23Z</time>
      </trkpt>
      <trkpt lat="44.32676" lon="6.86113">
        <ele>1991</ele>
        <time>2022-07-19T11:35:24Z</time>
      </trkpt>
      <trkpt lat="44.32676" lon="6.86115">
        <ele>1991</ele>
        <time>2022-07-19T11:35:25Z</time>
      </trkpt>
      <trkpt lat="44.32675" lon="6.86117">
        <ele>1991.4</ele>
        <time>2022-07-19T11:35:26Z</time>
      </trkpt>
      <trkpt lat="44.32674" lon="6.8612">
        <ele>1991.6</ele>
        <time>2022-07-19T11:35:27Z</time>
      </trkpt>
      <trkpt lat="44.32674" lon="6.86122">
        <ele>1991.6</ele>
        <time>2022-07-19T11:35:28Z</time>
      </trkpt>
      <trkpt lat="44.32673" lon="6.86124">
        <ele>1991.8</ele>
        <time>2022-07-19T11:35:29Z</time>
      </trkpt>
      <trkpt lat="44.32672" lon="6.86126">
        <ele>1991.8</ele>
        <time>2022-07-19T11:35:30Z</time>
      </trkpt>
      <trkpt lat="44.32671" lon="6.86128">
        <ele>1992</ele>
        <time>2022-07-19T11:35:31Z</time>
      </trkpt>
      <trkpt lat="44.32671" lon="6.8613">
        <ele>1992</ele>
        <time>2022-07-19T11:35:32Z</time>
      </trkpt>
      <trkpt lat="44.32671" lon="6.86133">
        <ele>1992.4</ele>
        <time>2022-07-19T11:35:33Z</time>
      </trkpt>
      <trkpt lat="44.3267" lon="6.86135">
        <ele>1992.4</ele>
        <time>2022-07-19T11:35:34Z</time>
      </trkpt>
      <trkpt lat="44.3267" lon="6.86138">
        <ele>1992.8</ele>
        <time>2022-07-19T11:35:35Z</time>
      </trkpt>
      <trkpt lat="44.32669" lon="6.8614">
        <ele>1993</ele>
        <time>2022-07-19T11:35:36Z</time>
      </trkpt>
      <trkpt lat="44.32669" lon="6.86142">
        <ele>1993.2</ele>
        <time>2022-07-19T11:35:37Z</time>
      </trkpt>
      <trkpt lat="44.32668" lon="6.86144">
        <ele>1993.4</ele>
        <time>2022-07-19T11:35:38Z</time>
      </trkpt>
      <trkpt lat="44.32667" lon="6.86146">
        <ele>1993.4</ele>
        <time>2022-07-19T11:35:39Z</time>
      </trkpt>
      <trkpt lat="44.32667" lon="6.86149">
        <ele>1993.6</ele>
        <time>2022-07-19T11:35:40Z</time>
      </trkpt>
      <trkpt lat="44.32667" lon="6.86151">
        <ele>1993.6</ele>
        <time>2022-07-19T11:35:41Z</time>
      </trkpt>
      <trkpt lat="44.32667" lon="6.86153">
        <ele>1993.8</ele>
        <time>2022-07-19T11:35:42Z</time>
      </trkpt>
      <trkpt lat="44.32666" lon="6.86155">
        <ele>1993.8</ele>
        <time>2022-07-19T11:35:43Z</time>
      </trkpt>
      <trkpt lat="44.32666" lon="6.86157">
        <ele>1994.2</ele>
        <time>2022-07-19T11:35:44Z</time>
      </trkpt>
      <trkpt lat="44.32665" lon="6.86159">
        <ele>1994.2</ele>
        <time>2022-07-19T11:35:45Z</time>
      </trkpt>
      <trkpt lat="44.32665" lon="6.86162">
        <ele>1994.4</ele>
        <time>2022-07-19T11:35:46Z</time>
      </trkpt>
      <trkpt lat="44.32665" lon="6.86164">
        <ele>1994.6</ele>
        <time>2022-07-19T11:35:47Z</time>
      </trkpt>
      <trkpt lat="44.32665" lon="6.86166">
        <ele>1994.8</ele>
        <time>2022-07-19T11:35:48Z</time>
      </trkpt>
      <trkpt lat="44.32665" lon="6.86168">
        <ele>1994.8</ele>
        <time>2022-07-19T11:35:49Z</time>
      </trkpt>
      <trkpt lat="44.32664" lon="6.8617">
        <ele>1995.2</ele>
        <time>2022-07-19T11:35:50Z</time>
      </trkpt>
      <trkpt lat="44.32664" lon="6.86172">
        <ele>1995.2</ele>
        <time>2022-07-19T11:35:51Z</time>
      </trkpt>
      <trkpt lat="44.32663" lon="6.86174">
        <ele>1995.4</ele>
        <time>2022-07-19T11:35:52Z</time>
      </trkpt>
      <trkpt lat="44.32663" lon="6.86176">
        <ele>1995.4</ele>
        <time>2022-07-19T11:35:53Z</time>
      </trkpt>
      <trkpt lat="44.32662" lon="6.86178">
        <ele>1995.6</ele>
        <time>2022-07-19T11:35:54Z</time>
      </trkpt>
      <trkpt lat="44.32661" lon="6.8618">
        <ele>1995.6</ele>
        <time>2022-07-19T11:35:55Z</time>
      </trkpt>
      <trkpt lat="44.32661" lon="6.86182">
        <ele>1996</ele>
        <time>2022-07-19T11:35:56Z</time>
      </trkpt>
      <trkpt lat="44.3266" lon="6.86184">
        <ele>1996</ele>
        <time>2022-07-19T11:35:57Z</time>
      </trkpt>
      <trkpt lat="44.32658" lon="6.86186">
        <ele>1996.4</ele>
        <time>2022-07-19T11:35:58Z</time>
      </trkpt>
      <trkpt lat="44.32657" lon="6.86187">
        <ele>1996.4</ele>
        <time>2022-07-19T11:35:59Z</time>
      </trkpt>
      <trkpt lat="44.32655" lon="6.86188">
        <ele>1996.6</ele>
        <time>2022-07-19T11:36:00Z</time>
      </trkpt>
      <trkpt lat="44.32654" lon="6.8619">
        <ele>1996.6</ele>
        <time>2022-07-19T11:36:01Z</time>
      </trkpt>
      <trkpt lat="44.32652" lon="6.86191">
        <ele>1997</ele>
        <time>2022-07-19T11:36:02Z</time>
      </trkpt>
      <trkpt lat="44.32651" lon="6.86192">
        <ele>1997</ele>
        <time>2022-07-19T11:36:03Z</time>
      </trkpt>
      <trkpt lat="44.3265" lon="6.86194">
        <ele>1997</ele>
        <time>2022-07-19T11:36:04Z</time>
      </trkpt>
      <trkpt lat="44.32649" lon="6.86196">
        <ele>1997.2</ele>
        <time>2022-07-19T11:36:05Z</time>
      </trkpt>
      <trkpt lat="44.32648" lon="6.86198">
        <ele>1997.2</ele>
        <time>2022-07-19T11:36:06Z</time>
      </trkpt>
      <trkpt lat="44.32647" lon="6.86199">
        <ele>1997.4</ele>
        <time>2022-07-19T11:36:07Z</time>
      </trkpt>
      <trkpt lat="44.32645" lon="6.86201">
        <ele>1997.4</ele>
        <time>2022-07-19T11:36:08Z</time>
      </trkpt>
      <trkpt lat="44.32643" lon="6.86202">
        <ele>1997.8</ele>
        <time>2022-07-19T11:36:09Z</time>
      </trkpt>
      <trkpt lat="44.32642" lon="6.86203">
        <ele>1997.8</ele>
        <time>2022-07-19T11:36:10Z</time>
      </trkpt>
      <trkpt lat="44.3264" lon="6.86204">
        <ele>1998</ele>
        <time>2022-07-19T11:36:11Z</time>
      </trkpt>
      <trkpt lat="44.32638" lon="6.86205">
        <ele>1998</ele>
        <time>2022-07-19T11:36:12Z</time>
      </trkpt>
      <trkpt lat="44.32637" lon="6.86206">
        <ele>1998.2</ele>
        <time>2022-07-19T11:36:13Z</time>
      </trkpt>
      <trkpt lat="44.32635" lon="6.86206">
        <ele>1998.2</ele>
        <time>2022-07-19T11:36:14Z</time>
      </trkpt>
      <trkpt lat="44.32633" lon="6.86206">
        <ele>1998.4</ele>
        <time>2022-07-19T11:36:15Z</time>
      </trkpt>
      <trkpt lat="44.32631" lon="6.86207">
        <ele>1998.4</ele>
        <time>2022-07-19T11:36:16Z</time>
      </trkpt>
      <trkpt lat="44.32629" lon="6.86207">
        <ele>1998.6</ele>
        <time>2022-07-19T11:36:17Z</time>
      </trkpt>
      <trkpt lat="44.32627" lon="6.86208">
        <ele>1998.6</ele>
        <time>2022-07-19T11:36:18Z</time>
      </trkpt>
      <trkpt lat="44.32625" lon="6.8621">
        <ele>1998.8</ele>
        <time>2022-07-19T11:36:19Z</time>
      </trkpt>
      <trkpt lat="44.32624" lon="6.86211">
        <ele>1998.8</ele>
        <time>2022-07-19T11:36:20Z</time>
      </trkpt>
      <trkpt lat="44.32622" lon="6.86212">
        <ele>1999</ele>
        <time>2022-07-19T11:36:21Z</time>
      </trkpt>
      <trkpt lat="44.3262" lon="6.86213">
        <ele>1999</ele>
        <time>2022-07-19T11:36:22Z</time>
      </trkpt>
      <trkpt lat="44.32618" lon="6.86213">
        <ele>1999.2</ele>
        <time>2022-07-19T11:36:23Z</time>
      </trkpt>
      <trkpt lat="44.32616" lon="6.86214">
        <ele>1999.2</ele>
        <time>2022-07-19T11:36:24Z</time>
      </trkpt>
      <trkpt lat="44.32614" lon="6.86215">
        <ele>1999.6</ele>
        <time>2022-07-19T11:36:25Z</time>
      </trkpt>
      <trkpt lat="44.32613" lon="6.86217">
        <ele>1999.6</ele>
        <time>2022-07-19T11:36:26Z</time>
      </trkpt>
      <trkpt lat="44.32611" lon="6.86218">
        <ele>2000</ele>
        <time>2022-07-19T11:36:27Z</time>
      </trkpt>
      <trkpt lat="44.3261" lon="6.8622">
        <ele>2000.2</ele>
        <time>2022-07-19T11:36:28Z</time>
      </trkpt>
      <trkpt lat="44.32609" lon="6.86222">
        <ele>2000.2</ele>
        <time>2022-07-19T11:36:29Z</time>
      </trkpt>
      <trkpt lat="44.32608" lon="6.86225">
        <ele>2000.6</ele>
        <time>2022-07-19T11:36:30Z</time>
      </trkpt>
      <trkpt lat="44.32607" lon="6.86227">
        <ele>2000.6</ele>
        <time>2022-07-19T11:36:31Z</time>
      </trkpt>
      <trkpt lat="44.32606" lon="6.86229">
        <ele>2001</ele>
        <time>2022-07-19T11:36:32Z</time>
      </trkpt>
      <trkpt lat="44.32605" lon="6.86231">
        <ele>2001</ele>
        <time>2022-07-19T11:36:33Z</time>
      </trkpt>
      <trkpt lat="44.32605" lon="6.86233">
        <ele>2001.2</ele>
        <time>2022-07-19T11:36:34Z</time>
      </trkpt>
      <trkpt lat="44.32604" lon="6.86236">
        <ele>2001.2</ele>
        <time>2022-07-19T11:36:35Z</time>
      </trkpt>
      <trkpt lat="44.32604" lon="6.86238">
        <ele>2001.6</ele>
        <time>2022-07-19T11:36:36Z</time>
      </trkpt>
      <trkpt lat="44.32604" lon="6.86241">
        <ele>2001.6</ele>
        <time>2022-07-19T11:36:37Z</time>
      </trkpt>
      <trkpt lat="44.32605" lon="6.86243">
        <ele>2001.8</ele>
        <time>2022-07-19T11:36:38Z</time>
      </trkpt>
      <trkpt lat="44.32606" lon="6.86245">
        <ele>2002</ele>
        <time>2022-07-19T11:36:39Z</time>
      </trkpt>
      <trkpt lat="44.32608" lon="6.86246">
        <ele>2002</ele>
        <time>2022-07-19T11:36:40Z</time>
      </trkpt>
      <trkpt lat="44.3261" lon="6.86247">
        <ele>2002.2</ele>
        <time>2022-07-19T11:36:41Z</time>
      </trkpt>
      <trkpt lat="44.32612" lon="6.86248">
        <ele>2002.2</ele>
        <time>2022-07-19T11:36:42Z</time>
      </trkpt>
      <trkpt lat="44.32614" lon="6.86248">
        <ele>2002.6</ele>
        <time>2022-07-19T11:36:43Z</time>
      </trkpt>
      <trkpt lat="44.32616" lon="6.86248">
        <ele>2002.6</ele>
        <time>2022-07-19T11:36:44Z</time>
      </trkpt>
      <trkpt lat="44.32617" lon="6.86248">
        <ele>2003</ele>
        <time>2022-07-19T11:36:45Z</time>
      </trkpt>
      <trkpt lat="44.32619" lon="6.86247">
        <ele>2003</ele>
        <time>2022-07-19T11:36:46Z</time>
      </trkpt>
      <trkpt lat="44.32621" lon="6.86246">
        <ele>2003.2</ele>
        <time>2022-07-19T11:36:47Z</time>
      </trkpt>
      <trkpt lat="44.32622" lon="6.86244">
        <ele>2003.2</ele>
        <time>2022-07-19T11:36:48Z</time>
      </trkpt>
      <trkpt lat="44.32623" lon="6.86242">
        <ele>2003.6</ele>
        <time>2022-07-19T11:36:49Z</time>
      </trkpt>
      <trkpt lat="44.32625" lon="6.86241">
        <ele>2003.6</ele>
        <time>2022-07-19T11:36:50Z</time>
      </trkpt>
      <trkpt lat="44.32626" lon="6.8624">
        <ele>2003.8</ele>
        <time>2022-07-19T11:36:51Z</time>
      </trkpt>
      <trkpt lat="44.32627" lon="6.86238">
        <ele>2003.8</ele>
        <time>2022-07-19T11:36:52Z</time>
      </trkpt>
      <trkpt lat="44.32629" lon="6.86236">
        <ele>2004.2</ele>
        <time>2022-07-19T11:36:53Z</time>
      </trkpt>
      <trkpt lat="44.3263" lon="6.86235">
        <ele>2004.2</ele>
        <time>2022-07-19T11:36:54Z</time>
      </trkpt>
      <trkpt lat="44.32631" lon="6.86234">
        <ele>2004.6</ele>
        <time>2022-07-19T11:36:55Z</time>
      </trkpt>
      <trkpt lat="44.32633" lon="6.86234">
        <ele>2004.6</ele>
        <time>2022-07-19T11:36:56Z</time>
      </trkpt>
      <trkpt lat="44.32635" lon="6.86233">
        <ele>2005</ele>
        <time>2022-07-19T11:36:57Z</time>
      </trkpt>
      <trkpt lat="44.32636" lon="6.86232">
        <ele>2005</ele>
        <time>2022-07-19T11:36:58Z</time>
      </trkpt>
      <trkpt lat="44.32638" lon="6.86231">
        <ele>2005.2</ele>
        <time>2022-07-19T11:36:59Z</time>
      </trkpt>
      <trkpt lat="44.32639" lon="6.86231">
        <ele>2005.2</ele>
        <time>2022-07-19T11:37:00Z</time>
      </trkpt>
      <trkpt lat="44.32641" lon="6.8623">
        <ele>2005.6</ele>
        <time>2022-07-19T11:37:01Z</time>
      </trkpt>
      <trkpt lat="44.32643" lon="6.86229">
        <ele>2005.6</ele>
        <time>2022-07-19T11:37:02Z</time>
      </trkpt>
      <trkpt lat="44.32645" lon="6.86228">
        <ele>2006</ele>
        <time>2022-07-19T11:37:03Z</time>
      </trkpt>
      <trkpt lat="44.32646" lon="6.86227">
        <ele>2006</ele>
        <time>2022-07-19T11:37:04Z</time>
      </trkpt>
      <trkpt lat="44.32648" lon="6.86226">
        <ele>2006.2</ele>
        <time>2022-07-19T11:37:05Z</time>
      </trkpt>
      <trkpt lat="44.3265" lon="6.86226">
        <ele>2006.2</ele>
        <time>2022-07-19T11:37:06Z</time>
      </trkpt>
      <trkpt lat="44.32651" lon="6.86224">
        <ele>2006.4</ele>
        <time>2022-07-19T11:37:07Z</time>
      </trkpt>
      <trkpt lat="44.32653" lon="6.86224">
        <ele>2006.4</ele>
        <time>2022-07-19T11:37:08Z</time>
      </trkpt>
      <trkpt lat="44.32655" lon="6.86224">
        <ele>2006.8</ele>
        <time>2022-07-19T11:37:09Z</time>
      </trkpt>
      <trkpt lat="44.32657" lon="6.86224">
        <ele>2006.8</ele>
        <time>2022-07-19T11:37:10Z</time>
      </trkpt>
      <trkpt lat="44.32659" lon="6.86224">
        <ele>2007</ele>
        <time>2022-07-19T11:37:11Z</time>
      </trkpt>
      <trkpt lat="44.32661" lon="6.86224">
        <ele>2007.2</ele>
        <time>2022-07-19T11:37:12Z</time>
      </trkpt>
      <trkpt lat="44.32663" lon="6.86224">
        <ele>2007.2</ele>
        <time>2022-07-19T11:37:13Z</time>
      </trkpt>
      <trkpt lat="44.32664" lon="6.86224">
        <ele>2007.6</ele>
        <time>2022-07-19T11:37:14Z</time>
      </trkpt>
      <trkpt lat="44.32666" lon="6.86223">
        <ele>2007.6</ele>
        <time>2022-07-19T11:37:15Z</time>
      </trkpt>
      <trkpt lat="44.32668" lon="6.86223">
        <ele>2007.6</ele>
        <time>2022-07-19T11:37:16Z</time>
      </trkpt>
      <trkpt lat="44.32669" lon="6.86222">
        <ele>2007.8</ele>
        <time>2022-07-19T11:37:17Z</time>
      </trkpt>
      <trkpt lat="44.32671" lon="6.86222">
        <ele>2007.8</ele>
        <time>2022-07-19T11:37:18Z</time>
      </trkpt>
      <trkpt lat="44.32673" lon="6.86221">
        <ele>2008.2</ele>
        <time>2022-07-19T11:37:19Z</time>
      </trkpt>
      <trkpt lat="44.32674" lon="6.86221">
        <ele>2008.2</ele>
        <time>2022-07-19T11:37:20Z</time>
      </trkpt>
      <trkpt lat="44.32676" lon="6.8622">
        <ele>2008.4</ele>
        <time>2022-07-19T11:37:21Z</time>
      </trkpt>
      <trkpt lat="44.32678" lon="6.86219">
        <ele>2008.4</ele>
        <time>2022-07-19T11:37:22Z</time>
      </trkpt>
      <trkpt lat="44.32679" lon="6.86218">
        <ele>2008.8</ele>
        <time>2022-07-19T11:37:23Z</time>
      </trkpt>
      <trkpt lat="44.32681" lon="6.86218">
        <ele>2008.8</ele>
        <time>2022-07-19T11:37:24Z</time>
      </trkpt>
      <trkpt lat="44.32683" lon="6.86218">
        <ele>2009.2</ele>
        <time>2022-07-19T11:37:25Z</time>
      </trkpt>
      <trkpt lat="44.32684" lon="6.86217">
        <ele>2009.4</ele>
        <time>2022-07-19T11:37:26Z</time>
      </trkpt>
      <trkpt lat="44.32686" lon="6.86217">
        <ele>2009.6</ele>
        <time>2022-07-19T11:37:27Z</time>
      </trkpt>
      <trkpt lat="44.32688" lon="6.86217">
        <ele>2009.6</ele>
        <time>2022-07-19T11:37:28Z</time>
      </trkpt>
      <trkpt lat="44.3269" lon="6.86216">
        <ele>2009.6</ele>
        <time>2022-07-19T11:37:29Z</time>
      </trkpt>
      <trkpt lat="44.32691" lon="6.86215">
        <ele>2009.8</ele>
        <time>2022-07-19T11:37:30Z</time>
      </trkpt>
      <trkpt lat="44.32693" lon="6.86214">
        <ele>2009.8</ele>
        <time>2022-07-19T11:37:31Z</time>
      </trkpt>
      <trkpt lat="44.32694" lon="6.86213">
        <ele>2009.8</ele>
        <time>2022-07-19T11:37:32Z</time>
      </trkpt>
      <trkpt lat="44.32695" lon="6.86211">
        <ele>2010</ele>
        <time>2022-07-19T11:37:33Z</time>
      </trkpt>
      <trkpt lat="44.32697" lon="6.8621">
        <ele>2010</ele>
        <time>2022-07-19T11:37:34Z</time>
      </trkpt>
      <trkpt lat="44.32698" lon="6.86208">
        <ele>2010.4</ele>
        <time>2022-07-19T11:37:35Z</time>
      </trkpt>
      <trkpt lat="44.32699" lon="6.86207">
        <ele>2010.4</ele>
        <time>2022-07-19T11:37:36Z</time>
      </trkpt>
      <trkpt lat="44.327" lon="6.86205">
        <ele>2010.4</ele>
        <time>2022-07-19T11:37:37Z</time>
      </trkpt>
      <trkpt lat="44.32701" lon="6.86203">
        <ele>2010.6</ele>
        <time>2022-07-19T11:37:38Z</time>
      </trkpt>
      <trkpt lat="44.32703" lon="6.86202">
        <ele>2010.6</ele>
        <time>2022-07-19T11:37:39Z</time>
      </trkpt>
      <trkpt lat="44.32704" lon="6.862">
        <ele>2011</ele>
        <time>2022-07-19T11:37:40Z</time>
      </trkpt>
      <trkpt lat="44.32706" lon="6.86198">
        <ele>2011</ele>
        <time>2022-07-19T11:37:41Z</time>
      </trkpt>
      <trkpt lat="44.32707" lon="6.86197">
        <ele>2011.2</ele>
        <time>2022-07-19T11:37:42Z</time>
      </trkpt>
      <trkpt lat="44.32709" lon="6.86195">
        <ele>2011.2</ele>
        <time>2022-07-19T11:37:43Z</time>
      </trkpt>
      <trkpt lat="44.32711" lon="6.86194">
        <ele>2011.2</ele>
        <time>2022-07-19T11:37:44Z</time>
      </trkpt>
      <trkpt lat="44.32712" lon="6.86192">
        <ele>2011.4</ele>
        <time>2022-07-19T11:37:45Z</time>
      </trkpt>
      <trkpt lat="44.32714" lon="6.8619">
        <ele>2011.4</ele>
        <time>2022-07-19T11:37:46Z</time>
      </trkpt>
      <trkpt lat="44.32716" lon="6.86188">
        <ele>2011.6</ele>
        <time>2022-07-19T11:37:47Z</time>
      </trkpt>
      <trkpt lat="44.32717" lon="6.86186">
        <ele>2011.6</ele>
        <time>2022-07-19T11:37:48Z</time>
      </trkpt>
      <trkpt lat="44.32719" lon="6.86184">
        <ele>2011.6</ele>
        <time>2022-07-19T11:37:49Z</time>
      </trkpt>
      <trkpt lat="44.3272" lon="6.86182">
        <ele>2011.6</ele>
        <time>2022-07-19T11:37:50Z</time>
      </trkpt>
      <trkpt lat="44.32722" lon="6.8618">
        <ele>2012</ele>
        <time>2022-07-19T11:37:51Z</time>
      </trkpt>
      <trkpt lat="44.32723" lon="6.86178">
        <ele>2012</ele>
        <time>2022-07-19T11:37:52Z</time>
      </trkpt>
      <trkpt lat="44.32725" lon="6.86176">
        <ele>2012.2</ele>
        <time>2022-07-19T11:37:53Z</time>
      </trkpt>
      <trkpt lat="44.32726" lon="6.86174">
        <ele>2012.2</ele>
        <time>2022-07-19T11:37:54Z</time>
      </trkpt>
      <trkpt lat="44.32728" lon="6.86171">
        <ele>2012.2</ele>
        <time>2022-07-19T11:37:55Z</time>
      </trkpt>
      <trkpt lat="44.32729" lon="6.86169">
        <ele>2012.2</ele>
        <time>2022-07-19T11:37:56Z</time>
      </trkpt>
      <trkpt lat="44.32731" lon="6.86167">
        <ele>2012.6</ele>
        <time>2022-07-19T11:37:57Z</time>
      </trkpt>
      <trkpt lat="44.32732" lon="6.86164">
        <ele>2012.6</ele>
        <time>2022-07-19T11:37:58Z</time>
      </trkpt>
      <trkpt lat="44.32733" lon="6.86162">
        <ele>2012.6</ele>
        <time>2022-07-19T11:37:59Z</time>
      </trkpt>
      <trkpt lat="44.32735" lon="6.8616">
        <ele>2012.6</ele>
        <time>2022-07-19T11:38:00Z</time>
      </trkpt>
      <trkpt lat="44.32736" lon="6.86158">
        <ele>2012.8</ele>
        <time>2022-07-19T11:38:01Z</time>
      </trkpt>
      <trkpt lat="44.32737" lon="6.86155">
        <ele>2012.8</ele>
        <time>2022-07-19T11:38:02Z</time>
      </trkpt>
      <trkpt lat="44.32739" lon="6.86153">
        <ele>2012.8</ele>
        <time>2022-07-19T11:38:03Z</time>
      </trkpt>
      <trkpt lat="44.3274" lon="6.86151">
        <ele>2013.2</ele>
        <time>2022-07-19T11:38:04Z</time>
      </trkpt>
      <trkpt lat="44.32742" lon="6.86149">
        <ele>2013.2</ele>
        <time>2022-07-19T11:38:05Z</time>
      </trkpt>
      <trkpt lat="44.32743" lon="6.86147">
        <ele>2013.4</ele>
        <time>2022-07-19T11:38:06Z</time>
      </trkpt>
      <trkpt lat="44.32745" lon="6.86144">
        <ele>2013.4</ele>
        <time>2022-07-19T11:38:07Z</time>
      </trkpt>
      <trkpt lat="44.32747" lon="6.86142">
        <ele>2013.8</ele>
        <time>2022-07-19T11:38:08Z</time>
      </trkpt>
      <trkpt lat="44.32748" lon="6.8614">
        <ele>2013.8</ele>
        <time>2022-07-19T11:38:09Z</time>
      </trkpt>
      <trkpt lat="44.3275" lon="6.86137">
        <ele>2013.8</ele>
        <time>2022-07-19T11:38:10Z</time>
      </trkpt>
      <trkpt lat="44.32751" lon="6.86135">
        <ele>2014</ele>
        <time>2022-07-19T11:38:11Z</time>
      </trkpt>
      <trkpt lat="44.32753" lon="6.86132">
        <ele>2014</ele>
        <time>2022-07-19T11:38:12Z</time>
      </trkpt>
      <trkpt lat="44.32754" lon="6.8613">
        <ele>2014</ele>
        <time>2022-07-19T11:38:13Z</time>
      </trkpt>
      <trkpt lat="44.32756" lon="6.86127">
        <ele>2014.2</ele>
        <time>2022-07-19T11:38:14Z</time>
      </trkpt>
      <trkpt lat="44.32757" lon="6.86125">
        <ele>2014.2</ele>
        <time>2022-07-19T11:38:15Z</time>
      </trkpt>
      <trkpt lat="44.32759" lon="6.86123">
        <ele>2014.6</ele>
        <time>2022-07-19T11:38:16Z</time>
      </trkpt>
      <trkpt lat="44.3276" lon="6.8612">
        <ele>2014.6</ele>
        <time>2022-07-19T11:38:17Z</time>
      </trkpt>
      <trkpt lat="44.32762" lon="6.86117">
        <ele>2014.8</ele>
        <time>2022-07-19T11:38:18Z</time>
      </trkpt>
      <trkpt lat="44.32763" lon="6.86115">
        <ele>2014.8</ele>
        <time>2022-07-19T11:38:19Z</time>
      </trkpt>
      <trkpt lat="44.32764" lon="6.86112">
        <ele>2015</ele>
        <time>2022-07-19T11:38:20Z</time>
      </trkpt>
      <trkpt lat="44.32766" lon="6.86109">
        <ele>2015</ele>
        <time>2022-07-19T11:38:21Z</time>
      </trkpt>
      <trkpt lat="44.32767" lon="6.86106">
        <ele>2015.4</ele>
        <time>2022-07-19T11:38:22Z</time>
      </trkpt>
      <trkpt lat="44.32768" lon="6.86103">
        <ele>2015.4</ele>
        <time>2022-07-19T11:38:23Z</time>
      </trkpt>
      <trkpt lat="44.32769" lon="6.86101">
        <ele>2015.6</ele>
        <time>2022-07-19T11:38:24Z</time>
      </trkpt>
      <trkpt lat="44.3277" lon="6.86098">
        <ele>2015.6</ele>
        <time>2022-07-19T11:38:25Z</time>
      </trkpt>
      <trkpt lat="44.32771" lon="6.86095">
        <ele>2015.8</ele>
        <time>2022-07-19T11:38:26Z</time>
      </trkpt>
      <trkpt lat="44.32772" lon="6.86093">
        <ele>2016</ele>
        <time>2022-07-19T11:38:27Z</time>
      </trkpt>
      <trkpt lat="44.32773" lon="6.8609">
        <ele>2016</ele>
        <time>2022-07-19T11:38:28Z</time>
      </trkpt>
      <trkpt lat="44.32774" lon="6.86088">
        <ele>2016.4</ele>
        <time>2022-07-19T11:38:29Z</time>
      </trkpt>
      <trkpt lat="44.32776" lon="6.86085">
        <ele>2016.4</ele>
        <time>2022-07-19T11:38:30Z</time>
      </trkpt>
      <trkpt lat="44.32777" lon="6.86083">
        <ele>2016.6</ele>
        <time>2022-07-19T11:38:31Z</time>
      </trkpt>
      <trkpt lat="44.32777" lon="6.8608">
        <ele>2016.6</ele>
        <time>2022-07-19T11:38:32Z</time>
      </trkpt>
      <trkpt lat="44.32778" lon="6.86078">
        <ele>2016.8</ele>
        <time>2022-07-19T11:38:33Z</time>
      </trkpt>
      <trkpt lat="44.32778" lon="6.86075">
        <ele>2016.8</ele>
        <time>2022-07-19T11:38:34Z</time>
      </trkpt>
      <trkpt lat="44.32779" lon="6.86073">
        <ele>2017.2</ele>
        <time>2022-07-19T11:38:35Z</time>
      </trkpt>
      <trkpt lat="44.3278" lon="6.8607">
        <ele>2017.2</ele>
        <time>2022-07-19T11:38:36Z</time>
      </trkpt>
      <trkpt lat="44.3278" lon="6.86067">
        <ele>2017.4</ele>
        <time>2022-07-19T11:38:37Z</time>
      </trkpt>
      <trkpt lat="44.32781" lon="6.86065">
        <ele>2017.4</ele>
        <time>2022-07-19T11:38:38Z</time>
      </trkpt>
      <trkpt lat="44.32782" lon="6.86062">
        <ele>2017.4</ele>
        <time>2022-07-19T11:38:39Z</time>
      </trkpt>
      <trkpt lat="44.32782" lon="6.8606">
        <ele>2017.6</ele>
        <time>2022-07-19T11:38:40Z</time>
      </trkpt>
      <trkpt lat="44.32783" lon="6.86057">
        <ele>2017.6</ele>
        <time>2022-07-19T11:38:41Z</time>
      </trkpt>
      <trkpt lat="44.32784" lon="6.86054">
        <ele>2017.6</ele>
        <time>2022-07-19T11:38:42Z</time>
      </trkpt>
      <trkpt lat="44.32784" lon="6.86051">
        <ele>2018</ele>
        <time>2022-07-19T11:38:43Z</time>
      </trkpt>
      <trkpt lat="44.32785" lon="6.86049">
        <ele>2018</ele>
        <time>2022-07-19T11:38:44Z</time>
      </trkpt>
      <trkpt lat="44.32785" lon="6.86046">
        <ele>2018.2</ele>
        <time>2022-07-19T11:38:45Z</time>
      </trkpt>
      <trkpt lat="44.32785" lon="6.86043">
        <ele>2018.2</ele>
        <time>2022-07-19T11:38:46Z</time>
      </trkpt>
      <trkpt lat="44.32786" lon="6.8604">
        <ele>2018.2</ele>
        <time>2022-07-19T11:38:47Z</time>
      </trkpt>
      <trkpt lat="44.32786" lon="6.86038">
        <ele>2018.4</ele>
        <time>2022-07-19T11:38:48Z</time>
      </trkpt>
      <trkpt lat="44.32787" lon="6.86035">
        <ele>2018.4</ele>
        <time>2022-07-19T11:38:49Z</time>
      </trkpt>
      <trkpt lat="44.32787" lon="6.86033">
        <ele>2018.6</ele>
        <time>2022-07-19T11:38:50Z</time>
      </trkpt>
      <trkpt lat="44.32788" lon="6.8603">
        <ele>2018.6</ele>
        <time>2022-07-19T11:38:51Z</time>
      </trkpt>
      <trkpt lat="44.32788" lon="6.86028">
        <ele>2019</ele>
        <time>2022-07-19T11:38:52Z</time>
      </trkpt>
      <trkpt lat="44.32789" lon="6.86025">
        <ele>2019</ele>
        <time>2022-07-19T11:38:53Z</time>
      </trkpt>
      <trkpt lat="44.32789" lon="6.86022">
        <ele>2019</ele>
        <time>2022-07-19T11:38:54Z</time>
      </trkpt>
      <trkpt lat="44.32789" lon="6.8602">
        <ele>2019.2</ele>
        <time>2022-07-19T11:38:55Z</time>
      </trkpt>
      <trkpt lat="44.3279" lon="6.86017">
        <ele>2019.2</ele>
        <time>2022-07-19T11:38:56Z</time>
      </trkpt>
      <trkpt lat="44.3279" lon="6.86015">
        <ele>2019.6</ele>
        <time>2022-07-19T11:38:57Z</time>
      </trkpt>
      <trkpt lat="44.32791" lon="6.86012">
        <ele>2019.8</ele>
        <time>2022-07-19T11:38:58Z</time>
      </trkpt>
      <trkpt lat="44.32791" lon="6.8601">
        <ele>2019.8</ele>
        <time>2022-07-19T11:38:59Z</time>
      </trkpt>
      <trkpt lat="44.32791" lon="6.86007">
        <ele>2020</ele>
        <time>2022-07-19T11:39:00Z</time>
      </trkpt>
      <trkpt lat="44.32792" lon="6.86005">
        <ele>2020</ele>
        <time>2022-07-19T11:39:01Z</time>
      </trkpt>
      <trkpt lat="44.32792" lon="6.86002">
        <ele>2020.2</ele>
        <time>2022-07-19T11:39:02Z</time>
      </trkpt>
      <trkpt lat="44.32792" lon="6.85999">
        <ele>2020.2</ele>
        <time>2022-07-19T11:39:03Z</time>
      </trkpt>
      <trkpt lat="44.32792" lon="6.85997">
        <ele>2020.4</ele>
        <time>2022-07-19T11:39:04Z</time>
      </trkpt>
      <trkpt lat="44.32792" lon="6.85994">
        <ele>2020.4</ele>
        <time>2022-07-19T11:39:05Z</time>
      </trkpt>
      <trkpt lat="44.32793" lon="6.85992">
        <ele>2020.8</ele>
        <time>2022-07-19T11:39:06Z</time>
      </trkpt>
      <trkpt lat="44.32793" lon="6.85989">
        <ele>2020.8</ele>
        <time>2022-07-19T11:39:07Z</time>
      </trkpt>
      <trkpt lat="44.32793" lon="6.85987">
        <ele>2021</ele>
        <time>2022-07-19T11:39:08Z</time>
      </trkpt>
      <trkpt lat="44.32793" lon="6.85984">
        <ele>2021</ele>
        <time>2022-07-19T11:39:09Z</time>
      </trkpt>
      <trkpt lat="44.32793" lon="6.85982">
        <ele>2021.2</ele>
        <time>2022-07-19T11:39:10Z</time>
      </trkpt>
      <trkpt lat="44.32793" lon="6.85979">
        <ele>2021.2</ele>
        <time>2022-07-19T11:39:11Z</time>
      </trkpt>
      <trkpt lat="44.32794" lon="6.85976">
        <ele>2021.4</ele>
        <time>2022-07-19T11:39:12Z</time>
      </trkpt>
      <trkpt lat="44.32794" lon="6.85974">
        <ele>2021.4</ele>
        <time>2022-07-19T11:39:13Z</time>
      </trkpt>
      <trkpt lat="44.32795" lon="6.85971">
        <ele>2021.6</ele>
        <time>2022-07-19T11:39:14Z</time>
      </trkpt>
      <trkpt lat="44.32795" lon="6.85968">
        <ele>2021.8</ele>
        <time>2022-07-19T11:39:15Z</time>
      </trkpt>
      <trkpt lat="44.32796" lon="6.85966">
        <ele>2021.8</ele>
        <time>2022-07-19T11:39:16Z</time>
      </trkpt>
      <trkpt lat="44.32798" lon="6.85964">
        <ele>2022.2</ele>
        <time>2022-07-19T11:39:17Z</time>
      </trkpt>
      <trkpt lat="44.328" lon="6.85964">
        <ele>2022.2</ele>
        <time>2022-07-19T11:39:18Z</time>
      </trkpt>
      <trkpt lat="44.32802" lon="6.85964">
        <ele>2022.6</ele>
        <time>2022-07-19T11:39:19Z</time>
      </trkpt>
      <trkpt lat="44.32804" lon="6.85965">
        <ele>2022.6</ele>
        <time>2022-07-19T11:39:20Z</time>
      </trkpt>
      <trkpt lat="44.32805" lon="6.85967">
        <ele>2023</ele>
        <time>2022-07-19T11:39:21Z</time>
      </trkpt>
      <trkpt lat="44.32806" lon="6.8597">
        <ele>2023.2</ele>
        <time>2022-07-19T11:39:22Z</time>
      </trkpt>
      <trkpt lat="44.32806" lon="6.85972">
        <ele>2023.4</ele>
        <time>2022-07-19T11:39:23Z</time>
      </trkpt>
      <trkpt lat="44.32807" lon="6.85974">
        <ele>2023.6</ele>
        <time>2022-07-19T11:39:24Z</time>
      </trkpt>
      <trkpt lat="44.32807" lon="6.85977">
        <ele>2023.8</ele>
        <time>2022-07-19T11:39:25Z</time>
      </trkpt>
      <trkpt lat="44.32808" lon="6.85979">
        <ele>2023.8</ele>
        <time>2022-07-19T11:39:26Z</time>
      </trkpt>
      <trkpt lat="44.32808" lon="6.85982">
        <ele>2024.2</ele>
        <time>2022-07-19T11:39:27Z</time>
      </trkpt>
      <trkpt lat="44.32809" lon="6.85984">
        <ele>2024.6</ele>
        <time>2022-07-19T11:39:28Z</time>
      </trkpt>
      <trkpt lat="44.32809" lon="6.85987">
        <ele>2024.8</ele>
        <time>2022-07-19T11:39:29Z</time>
      </trkpt>
      <trkpt lat="44.32809" lon="6.85989">
        <ele>2025</ele>
        <time>2022-07-19T11:39:30Z</time>
      </trkpt>
      <trkpt lat="44.3281" lon="6.85992">
        <ele>2025</ele>
        <time>2022-07-19T11:39:31Z</time>
      </trkpt>
      <trkpt lat="44.3281" lon="6.85994">
        <ele>2025.2</ele>
        <time>2022-07-19T11:39:33Z</time>
      </trkpt>
      <trkpt lat="44.3281" lon="6.85997">
        <ele>2025.6</ele>
        <time>2022-07-19T11:39:34Z</time>
      </trkpt>
      <trkpt lat="44.32811" lon="6.85999">
        <ele>2025.6</ele>
        <time>2022-07-19T11:39:35Z</time>
      </trkpt>
      <trkpt lat="44.32811" lon="6.86002">
        <ele>2025.8</ele>
        <time>2022-07-19T11:39:36Z</time>
      </trkpt>
      <trkpt lat="44.32812" lon="6.86004">
        <ele>2025.8</ele>
        <time>2022-07-19T11:39:37Z</time>
      </trkpt>
      <trkpt lat="44.32812" lon="6.86007">
        <ele>2026.2</ele>
        <time>2022-07-19T11:39:38Z</time>
      </trkpt>
      <trkpt lat="44.32812" lon="6.8601">
        <ele>2026.2</ele>
        <time>2022-07-19T11:39:39Z</time>
      </trkpt>
      <trkpt lat="44.32813" lon="6.86012">
        <ele>2026.6</ele>
        <time>2022-07-19T11:39:40Z</time>
      </trkpt>
      <trkpt lat="44.32813" lon="6.86015">
        <ele>2026.6</ele>
        <time>2022-07-19T11:39:41Z</time>
      </trkpt>
      <trkpt lat="44.32813" lon="6.86018">
        <ele>2026.6</ele>
        <time>2022-07-19T11:39:42Z</time>
      </trkpt>
      <trkpt lat="44.32814" lon="6.8602">
        <ele>2026.8</ele>
        <time>2022-07-19T11:39:43Z</time>
      </trkpt>
      <trkpt lat="44.32814" lon="6.86023">
        <ele>2026.8</ele>
        <time>2022-07-19T11:39:44Z</time>
      </trkpt>
      <trkpt lat="44.32814" lon="6.86026">
        <ele>2027</ele>
        <time>2022-07-19T11:39:45Z</time>
      </trkpt>
      <trkpt lat="44.32814" lon="6.86029">
        <ele>2027</ele>
        <time>2022-07-19T11:39:46Z</time>
      </trkpt>
      <trkpt lat="44.32814" lon="6.86032">
        <ele>2027.4</ele>
        <time>2022-07-19T11:39:47Z</time>
      </trkpt>
      <trkpt lat="44.32814" lon="6.86034">
        <ele>2027.4</ele>
        <time>2022-07-19T11:39:48Z</time>
      </trkpt>
      <trkpt lat="44.32814" lon="6.86037">
        <ele>2027.8</ele>
        <time>2022-07-19T11:39:49Z</time>
      </trkpt>
      <trkpt lat="44.32814" lon="6.86039">
        <ele>2027.8</ele>
        <time>2022-07-19T11:39:50Z</time>
      </trkpt>
      <trkpt lat="44.32814" lon="6.86042">
        <ele>2028</ele>
        <time>2022-07-19T11:39:51Z</time>
      </trkpt>
      <trkpt lat="44.32813" lon="6.86044">
        <ele>2028</ele>
        <time>2022-07-19T11:39:52Z</time>
      </trkpt>
      <trkpt lat="44.32813" lon="6.86047">
        <ele>2028.2</ele>
        <time>2022-07-19T11:39:53Z</time>
      </trkpt>
      <trkpt lat="44.32813" lon="6.8605">
        <ele>2028.2</ele>
        <time>2022-07-19T11:39:54Z</time>
      </trkpt>
      <trkpt lat="44.32812" lon="6.86052">
        <ele>2028.6</ele>
        <time>2022-07-19T11:39:55Z</time>
      </trkpt>
      <trkpt lat="44.32812" lon="6.86055">
        <ele>2028.6</ele>
        <time>2022-07-19T11:39:56Z</time>
      </trkpt>
      <trkpt lat="44.32812" lon="6.86058">
        <ele>2028.8</ele>
        <time>2022-07-19T11:39:57Z</time>
      </trkpt>
      <trkpt lat="44.32811" lon="6.8606">
        <ele>2028.8</ele>
        <time>2022-07-19T11:39:58Z</time>
      </trkpt>
      <trkpt lat="44.3281" lon="6.86063">
        <ele>2029</ele>
        <time>2022-07-19T11:39:59Z</time>
      </trkpt>
      <trkpt lat="44.3281" lon="6.86065">
        <ele>2029</ele>
        <time>2022-07-19T11:40:00Z</time>
      </trkpt>
      <trkpt lat="44.32809" lon="6.86068">
        <ele>2029.4</ele>
        <time>2022-07-19T11:40:01Z</time>
      </trkpt>
      <trkpt lat="44.32809" lon="6.86071">
        <ele>2029.4</ele>
        <time>2022-07-19T11:40:02Z</time>
      </trkpt>
      <trkpt lat="44.32808" lon="6.86073">
        <ele>2029.6</ele>
        <time>2022-07-19T11:40:03Z</time>
      </trkpt>
      <trkpt lat="44.32808" lon="6.86075">
        <ele>2030</ele>
        <time>2022-07-19T11:40:04Z</time>
      </trkpt>
      <trkpt lat="44.32807" lon="6.86078">
        <ele>2030</ele>
        <time>2022-07-19T11:40:05Z</time>
      </trkpt>
      <trkpt lat="44.32807" lon="6.8608">
        <ele>2030.2</ele>
        <time>2022-07-19T11:40:06Z</time>
      </trkpt>
      <trkpt lat="44.32807" lon="6.86083">
        <ele>2030.2</ele>
        <time>2022-07-19T11:40:07Z</time>
      </trkpt>
      <trkpt lat="44.32806" lon="6.86085">
        <ele>2030.4</ele>
        <time>2022-07-19T11:40:08Z</time>
      </trkpt>
      <trkpt lat="44.32805" lon="6.86087">
        <ele>2030.4</ele>
        <time>2022-07-19T11:40:09Z</time>
      </trkpt>
      <trkpt lat="44.32805" lon="6.8609">
        <ele>2030.8</ele>
        <time>2022-07-19T11:40:10Z</time>
      </trkpt>
      <trkpt lat="44.32804" lon="6.86092">
        <ele>2030.8</ele>
        <time>2022-07-19T11:40:11Z</time>
      </trkpt>
      <trkpt lat="44.32803" lon="6.86095">
        <ele>2031</ele>
        <time>2022-07-19T11:40:12Z</time>
      </trkpt>
      <trkpt lat="44.32803" lon="6.86097">
        <ele>2031</ele>
        <time>2022-07-19T11:40:13Z</time>
      </trkpt>
      <trkpt lat="44.32802" lon="6.861">
        <ele>2031</ele>
        <time>2022-07-19T11:40:14Z</time>
      </trkpt>
      <trkpt lat="44.32802" lon="6.86102">
        <ele>2031.2</ele>
        <time>2022-07-19T11:40:15Z</time>
      </trkpt>
      <trkpt lat="44.32802" lon="6.86105">
        <ele>2031.2</ele>
        <time>2022-07-19T11:40:16Z</time>
      </trkpt>
      <trkpt lat="44.32802" lon="6.86107">
        <ele>2031.4</ele>
        <time>2022-07-19T11:40:17Z</time>
      </trkpt>
      <trkpt lat="44.32801" lon="6.8611">
        <ele>2031.4</ele>
        <time>2022-07-19T11:40:18Z</time>
      </trkpt>
      <trkpt lat="44.32801" lon="6.86113">
        <ele>2031.8</ele>
        <time>2022-07-19T11:40:19Z</time>
      </trkpt>
      <trkpt lat="44.32801" lon="6.86115">
        <ele>2031.8</ele>
        <time>2022-07-19T11:40:20Z</time>
      </trkpt>
      <trkpt lat="44.32801" lon="6.86118">
        <ele>2032</ele>
        <time>2022-07-19T11:40:21Z</time>
      </trkpt>
      <trkpt lat="44.32801" lon="6.8612">
        <ele>2032</ele>
        <time>2022-07-19T11:40:22Z</time>
      </trkpt>
      <trkpt lat="44.32801" lon="6.86123">
        <ele>2032.4</ele>
        <time>2022-07-19T11:40:23Z</time>
      </trkpt>
      <trkpt lat="44.32801" lon="6.86125">
        <ele>2032.6</ele>
        <time>2022-07-19T11:40:24Z</time>
      </trkpt>
      <trkpt lat="44.32801" lon="6.86127">
        <ele>2032.6</ele>
        <time>2022-07-19T11:40:25Z</time>
      </trkpt>
      <trkpt lat="44.32801" lon="6.86129">
        <ele>2032.8</ele>
        <time>2022-07-19T11:40:26Z</time>
      </trkpt>
      <trkpt lat="44.328" lon="6.86132">
        <ele>2032.8</ele>
        <time>2022-07-19T11:40:27Z</time>
      </trkpt>
      <trkpt lat="44.328" lon="6.86134">
        <ele>2033</ele>
        <time>2022-07-19T11:40:28Z</time>
      </trkpt>
      <trkpt lat="44.328" lon="6.86136">
        <ele>2033</ele>
        <time>2022-07-19T11:40:29Z</time>
      </trkpt>
      <trkpt lat="44.328" lon="6.86138">
        <ele>2033.2</ele>
        <time>2022-07-19T11:40:30Z</time>
      </trkpt>
      <trkpt lat="44.328" lon="6.8614">
        <ele>2033.2</ele>
        <time>2022-07-19T11:40:31Z</time>
      </trkpt>
      <trkpt lat="44.328" lon="6.86142">
        <ele>2033.6</ele>
        <time>2022-07-19T11:40:32Z</time>
      </trkpt>
      <trkpt lat="44.32801" lon="6.86145">
        <ele>2033.6</ele>
        <time>2022-07-19T11:40:33Z</time>
      </trkpt>
      <trkpt lat="44.32801" lon="6.86147">
        <ele>2033.8</ele>
        <time>2022-07-19T11:40:34Z</time>
      </trkpt>
      <trkpt lat="44.32801" lon="6.86149">
        <ele>2033.8</ele>
        <time>2022-07-19T11:40:35Z</time>
      </trkpt>
      <trkpt lat="44.32801" lon="6.86151">
        <ele>2034</ele>
        <time>2022-07-19T11:40:36Z</time>
      </trkpt>
      <trkpt lat="44.32801" lon="6.86153">
        <ele>2034</ele>
        <time>2022-07-19T11:40:37Z</time>
      </trkpt>
      <trkpt lat="44.32802" lon="6.86155">
        <ele>2034.4</ele>
        <time>2022-07-19T11:40:38Z</time>
      </trkpt>
      <trkpt lat="44.32802" lon="6.86157">
        <ele>2034.4</ele>
        <time>2022-07-19T11:40:39Z</time>
      </trkpt>
      <trkpt lat="44.32802" lon="6.8616">
        <ele>2034.6</ele>
        <time>2022-07-19T11:40:40Z</time>
      </trkpt>
      <trkpt lat="44.32803" lon="6.86162">
        <ele>2034.6</ele>
        <time>2022-07-19T11:40:41Z</time>
      </trkpt>
      <trkpt lat="44.32803" lon="6.86164">
        <ele>2035</ele>
        <time>2022-07-19T11:40:42Z</time>
      </trkpt>
      <trkpt lat="44.32803" lon="6.86167">
        <ele>2035.2</ele>
        <time>2022-07-19T11:40:43Z</time>
      </trkpt>
      <trkpt lat="44.32803" lon="6.86169">
        <ele>2035.2</ele>
        <time>2022-07-19T11:40:44Z</time>
      </trkpt>
      <trkpt lat="44.32803" lon="6.86171">
        <ele>2035.2</ele>
        <time>2022-07-19T11:40:45Z</time>
      </trkpt>
      <trkpt lat="44.32803" lon="6.86173">
        <ele>2035.6</ele>
        <time>2022-07-19T11:40:46Z</time>
      </trkpt>
      <trkpt lat="44.32804" lon="6.86175">
        <ele>2035.6</ele>
        <time>2022-07-19T11:40:47Z</time>
      </trkpt>
      <trkpt lat="44.32804" lon="6.86177">
        <ele>2035.8</ele>
        <time>2022-07-19T11:40:48Z</time>
      </trkpt>
      <trkpt lat="44.32803" lon="6.86179">
        <ele>2036</ele>
        <time>2022-07-19T11:40:49Z</time>
      </trkpt>
      <trkpt lat="44.32803" lon="6.86182">
        <ele>2036</ele>
        <time>2022-07-19T11:40:50Z</time>
      </trkpt>
      <trkpt lat="44.32803" lon="6.86184">
        <ele>2036.4</ele>
        <time>2022-07-19T11:40:51Z</time>
      </trkpt>
      <trkpt lat="44.32803" lon="6.86186">
        <ele>2036.4</ele>
        <time>2022-07-19T11:40:52Z</time>
      </trkpt>
      <trkpt lat="44.32803" lon="6.86188">
        <ele>2036.8</ele>
        <time>2022-07-19T11:40:53Z</time>
      </trkpt>
      <trkpt lat="44.32802" lon="6.86191">
        <ele>2036.8</ele>
        <time>2022-07-19T11:40:54Z</time>
      </trkpt>
      <trkpt lat="44.32802" lon="6.86192">
        <ele>2037.2</ele>
        <time>2022-07-19T11:40:55Z</time>
      </trkpt>
      <trkpt lat="44.32802" lon="6.86194">
        <ele>2037.2</ele>
        <time>2022-07-19T11:40:56Z</time>
      </trkpt>
      <trkpt lat="44.32801" lon="6.86196">
        <ele>2037.4</ele>
        <time>2022-07-19T11:40:57Z</time>
      </trkpt>
      <trkpt lat="44.32801" lon="6.86198">
        <ele>2037.4</ele>
        <time>2022-07-19T11:40:58Z</time>
      </trkpt>
      <trkpt lat="44.328" lon="6.862">
        <ele>2037.8</ele>
        <time>2022-07-19T11:40:59Z</time>
      </trkpt>
      <trkpt lat="44.328" lon="6.86201">
        <ele>2037.8</ele>
        <time>2022-07-19T11:41:00Z</time>
      </trkpt>
      <trkpt lat="44.32799" lon="6.86203">
        <ele>2038.2</ele>
        <time>2022-07-19T11:41:01Z</time>
      </trkpt>
      <trkpt lat="44.32798" lon="6.86204">
        <ele>2038.2</ele>
        <time>2022-07-19T11:41:02Z</time>
      </trkpt>
      <trkpt lat="44.32796" lon="6.86208">
        <ele>2038.6</ele>
        <time>2022-07-19T11:41:03Z</time>
      </trkpt>
      <trkpt lat="44.32795" lon="6.8621">
        <ele>2038.6</ele>
        <time>2022-07-19T11:41:04Z</time>
      </trkpt>
      <trkpt lat="44.32793" lon="6.86212">
        <ele>2038.8</ele>
        <time>2022-07-19T11:41:05Z</time>
      </trkpt>
      <trkpt lat="44.32792" lon="6.86213">
        <ele>2038.8</ele>
        <time>2022-07-19T11:41:06Z</time>
      </trkpt>
      <trkpt lat="44.32792" lon="6.86215">
        <ele>2039.2</ele>
        <time>2022-07-19T11:41:07Z</time>
      </trkpt>
      <trkpt lat="44.32791" lon="6.86217">
        <ele>2039.2</ele>
        <time>2022-07-19T11:41:08Z</time>
      </trkpt>
      <trkpt lat="44.3279" lon="6.86219">
        <ele>2039.6</ele>
        <time>2022-07-19T11:41:09Z</time>
      </trkpt>
      <trkpt lat="44.32789" lon="6.8622">
        <ele>2039.6</ele>
        <time>2022-07-19T11:41:10Z</time>
      </trkpt>
      <trkpt lat="44.32789" lon="6.86222">
        <ele>2039.8</ele>
        <time>2022-07-19T11:41:11Z</time>
      </trkpt>
      <trkpt lat="44.32787" lon="6.86223">
        <ele>2039.8</ele>
        <time>2022-07-19T11:41:12Z</time>
      </trkpt>
      <trkpt lat="44.32786" lon="6.86225">
        <ele>2040.2</ele>
        <time>2022-07-19T11:41:13Z</time>
      </trkpt>
      <trkpt lat="44.32785" lon="6.86226">
        <ele>2040.2</ele>
        <time>2022-07-19T11:41:14Z</time>
      </trkpt>
      <trkpt lat="44.32784" lon="6.86227">
        <ele>2040.4</ele>
        <time>2022-07-19T11:41:15Z</time>
      </trkpt>
      <trkpt lat="44.32783" lon="6.86228">
        <ele>2040.4</ele>
        <time>2022-07-19T11:41:16Z</time>
      </trkpt>
      <trkpt lat="44.32781" lon="6.86229">
        <ele>2040.6</ele>
        <time>2022-07-19T11:41:17Z</time>
      </trkpt>
      <trkpt lat="44.3278" lon="6.86231">
        <ele>2040.6</ele>
        <time>2022-07-19T11:41:18Z</time>
      </trkpt>
      <trkpt lat="44.32778" lon="6.86232">
        <ele>2041</ele>
        <time>2022-07-19T11:41:19Z</time>
      </trkpt>
      <trkpt lat="44.32777" lon="6.86233">
        <ele>2041</ele>
        <time>2022-07-19T11:41:20Z</time>
      </trkpt>
      <trkpt lat="44.32776" lon="6.86234">
        <ele>2041.2</ele>
        <time>2022-07-19T11:41:21Z</time>
      </trkpt>
      <trkpt lat="44.32775" lon="6.86236">
        <ele>2041.2</ele>
        <time>2022-07-19T11:41:22Z</time>
      </trkpt>
      <trkpt lat="44.32774" lon="6.86237">
        <ele>2041.4</ele>
        <time>2022-07-19T11:41:23Z</time>
      </trkpt>
      <trkpt lat="44.32773" lon="6.86239">
        <ele>2041.4</ele>
        <time>2022-07-19T11:41:24Z</time>
      </trkpt>
      <trkpt lat="44.32772" lon="6.8624">
        <ele>2041.8</ele>
        <time>2022-07-19T11:41:25Z</time>
      </trkpt>
      <trkpt lat="44.32771" lon="6.86242">
        <ele>2041.8</ele>
        <time>2022-07-19T11:41:26Z</time>
      </trkpt>
      <trkpt lat="44.3277" lon="6.86244">
        <ele>2042.2</ele>
        <time>2022-07-19T11:41:27Z</time>
      </trkpt>
      <trkpt lat="44.32769" lon="6.86245">
        <ele>2042.2</ele>
        <time>2022-07-19T11:41:28Z</time>
      </trkpt>
      <trkpt lat="44.32768" lon="6.86247">
        <ele>2042.4</ele>
        <time>2022-07-19T11:41:29Z</time>
      </trkpt>
      <trkpt lat="44.32767" lon="6.86248">
        <ele>2042.8</ele>
        <time>2022-07-19T11:41:30Z</time>
      </trkpt>
      <trkpt lat="44.32766" lon="6.8625">
        <ele>2042.8</ele>
        <time>2022-07-19T11:41:31Z</time>
      </trkpt>
      <trkpt lat="44.32766" lon="6.86252">
        <ele>2043</ele>
        <time>2022-07-19T11:41:32Z</time>
      </trkpt>
      <trkpt lat="44.32765" lon="6.86254">
        <ele>2043</ele>
        <time>2022-07-19T11:41:33Z</time>
      </trkpt>
      <trkpt lat="44.32764" lon="6.86255">
        <ele>2043.2</ele>
        <time>2022-07-19T11:41:34Z</time>
      </trkpt>
      <trkpt lat="44.32763" lon="6.86257">
        <ele>2043.2</ele>
        <time>2022-07-19T11:41:35Z</time>
      </trkpt>
      <trkpt lat="44.32762" lon="6.86258">
        <ele>2043.2</ele>
        <time>2022-07-19T11:41:36Z</time>
      </trkpt>
      <trkpt lat="44.32761" lon="6.8626">
        <ele>2043.6</ele>
        <time>2022-07-19T11:41:37Z</time>
      </trkpt>
      <trkpt lat="44.32761" lon="6.86261">
        <ele>2043.6</ele>
        <time>2022-07-19T11:41:38Z</time>
      </trkpt>
      <trkpt lat="44.3276" lon="6.86263">
        <ele>2043.8</ele>
        <time>2022-07-19T11:41:39Z</time>
      </trkpt>
      <trkpt lat="44.32759" lon="6.86264">
        <ele>2043.8</ele>
        <time>2022-07-19T11:41:40Z</time>
      </trkpt>
      <trkpt lat="44.32758" lon="6.86266">
        <ele>2044.2</ele>
        <time>2022-07-19T11:41:41Z</time>
      </trkpt>
      <trkpt lat="44.32757" lon="6.86267">
        <ele>2044.2</ele>
        <time>2022-07-19T11:41:42Z</time>
      </trkpt>
      <trkpt lat="44.32756" lon="6.86269">
        <ele>2044.4</ele>
        <time>2022-07-19T11:41:43Z</time>
      </trkpt>
      <trkpt lat="44.32755" lon="6.86271">
        <ele>2044.4</ele>
        <time>2022-07-19T11:41:44Z</time>
      </trkpt>
      <trkpt lat="44.32754" lon="6.86272">
        <ele>2044.6</ele>
        <time>2022-07-19T11:41:45Z</time>
      </trkpt>
      <trkpt lat="44.32753" lon="6.86274">
        <ele>2044.6</ele>
        <time>2022-07-19T11:41:46Z</time>
      </trkpt>
      <trkpt lat="44.32752" lon="6.86276">
        <ele>2044.6</ele>
        <time>2022-07-19T11:41:47Z</time>
      </trkpt>
      <trkpt lat="44.32752" lon="6.86278">
        <ele>2044.8</ele>
        <time>2022-07-19T11:41:48Z</time>
      </trkpt>
      <trkpt lat="44.32751" lon="6.8628">
        <ele>2044.8</ele>
        <time>2022-07-19T11:41:49Z</time>
      </trkpt>
      <trkpt lat="44.3275" lon="6.86282">
        <ele>2045</ele>
        <time>2022-07-19T11:41:50Z</time>
      </trkpt>
      <trkpt lat="44.32749" lon="6.86284">
        <ele>2045</ele>
        <time>2022-07-19T11:41:51Z</time>
      </trkpt>
      <trkpt lat="44.32748" lon="6.86286">
        <ele>2045.4</ele>
        <time>2022-07-19T11:41:52Z</time>
      </trkpt>
      <trkpt lat="44.32747" lon="6.86288">
        <ele>2045.4</ele>
        <time>2022-07-19T11:41:53Z</time>
      </trkpt>
      <trkpt lat="44.32747" lon="6.8629">
        <ele>2045.6</ele>
        <time>2022-07-19T11:41:54Z</time>
      </trkpt>
      <trkpt lat="44.32746" lon="6.86292">
        <ele>2045.6</ele>
        <time>2022-07-19T11:41:55Z</time>
      </trkpt>
      <trkpt lat="44.32745" lon="6.86294">
        <ele>2045.8</ele>
        <time>2022-07-19T11:41:56Z</time>
      </trkpt>
      <trkpt lat="44.32744" lon="6.86296">
        <ele>2045.8</ele>
        <time>2022-07-19T11:41:57Z</time>
      </trkpt>
      <trkpt lat="44.32743" lon="6.86297">
        <ele>2046.2</ele>
        <time>2022-07-19T11:41:58Z</time>
      </trkpt>
      <trkpt lat="44.32742" lon="6.86299">
        <ele>2046.2</ele>
        <time>2022-07-19T11:41:59Z</time>
      </trkpt>
      <trkpt lat="44.32741" lon="6.863">
        <ele>2046.6</ele>
        <time>2022-07-19T11:42:00Z</time>
      </trkpt>
      <trkpt lat="44.3274" lon="6.86301">
        <ele>2046.6</ele>
        <time>2022-07-19T11:42:01Z</time>
      </trkpt>
      <trkpt lat="44.32739" lon="6.86303">
        <ele>2046.8</ele>
        <time>2022-07-19T11:42:02Z</time>
      </trkpt>
      <trkpt lat="44.32737" lon="6.86304">
        <ele>2046.8</ele>
        <time>2022-07-19T11:42:03Z</time>
      </trkpt>
      <trkpt lat="44.32736" lon="6.86305">
        <ele>2047.2</ele>
        <time>2022-07-19T11:42:04Z</time>
      </trkpt>
      <trkpt lat="44.32735" lon="6.86306">
        <ele>2047.2</ele>
        <time>2022-07-19T11:42:05Z</time>
      </trkpt>
      <trkpt lat="44.32733" lon="6.86307">
        <ele>2047.4</ele>
        <time>2022-07-19T11:42:06Z</time>
      </trkpt>
      <trkpt lat="44.32732" lon="6.86308">
        <ele>2047.4</ele>
        <time>2022-07-19T11:42:07Z</time>
      </trkpt>
      <trkpt lat="44.3273" lon="6.86309">
        <ele>2047.8</ele>
        <time>2022-07-19T11:42:08Z</time>
      </trkpt>
      <trkpt lat="44.32729" lon="6.8631">
        <ele>2047.8</ele>
        <time>2022-07-19T11:42:09Z</time>
      </trkpt>
      <trkpt lat="44.32727" lon="6.86311">
        <ele>2048.2</ele>
        <time>2022-07-19T11:42:10Z</time>
      </trkpt>
      <trkpt lat="44.32726" lon="6.86312">
        <ele>2048.2</ele>
        <time>2022-07-19T11:42:11Z</time>
      </trkpt>
      <trkpt lat="44.32724" lon="6.86313">
        <ele>2048.4</ele>
        <time>2022-07-19T11:42:12Z</time>
      </trkpt>
      <trkpt lat="44.32723" lon="6.86314">
        <ele>2048.4</ele>
        <time>2022-07-19T11:42:13Z</time>
      </trkpt>
      <trkpt lat="44.32722" lon="6.86315">
        <ele>2048.8</ele>
        <time>2022-07-19T11:42:14Z</time>
      </trkpt>
      <trkpt lat="44.3272" lon="6.86316">
        <ele>2048.8</ele>
        <time>2022-07-19T11:42:15Z</time>
      </trkpt>
      <trkpt lat="44.32719" lon="6.86317">
        <ele>2049</ele>
        <time>2022-07-19T11:42:16Z</time>
      </trkpt>
      <trkpt lat="44.32718" lon="6.86318">
        <ele>2049</ele>
        <time>2022-07-19T11:42:17Z</time>
      </trkpt>
      <trkpt lat="44.32716" lon="6.86319">
        <ele>2049</ele>
        <time>2022-07-19T11:42:18Z</time>
      </trkpt>
      <trkpt lat="44.32715" lon="6.8632">
        <ele>2049.4</ele>
        <time>2022-07-19T11:42:19Z</time>
      </trkpt>
      <trkpt lat="44.32714" lon="6.86321">
        <ele>2049.4</ele>
        <time>2022-07-19T11:42:20Z</time>
      </trkpt>
      <trkpt lat="44.32712" lon="6.86323">
        <ele>2049.6</ele>
        <time>2022-07-19T11:42:21Z</time>
      </trkpt>
      <trkpt lat="44.32711" lon="6.86324">
        <ele>2049.6</ele>
        <time>2022-07-19T11:42:22Z</time>
      </trkpt>
      <trkpt lat="44.3271" lon="6.86326">
        <ele>2050</ele>
        <time>2022-07-19T11:42:23Z</time>
      </trkpt>
      <trkpt lat="44.32709" lon="6.86328">
        <ele>2050</ele>
        <time>2022-07-19T11:42:24Z</time>
      </trkpt>
      <trkpt lat="44.32708" lon="6.86329">
        <ele>2050.2</ele>
        <time>2022-07-19T11:42:25Z</time>
      </trkpt>
      <trkpt lat="44.32707" lon="6.86331">
        <ele>2050.2</ele>
        <time>2022-07-19T11:42:26Z</time>
      </trkpt>
      <trkpt lat="44.32707" lon="6.86333">
        <ele>2050.4</ele>
        <time>2022-07-19T11:42:27Z</time>
      </trkpt>
      <trkpt lat="44.32707" lon="6.86335">
        <ele>2050.4</ele>
        <time>2022-07-19T11:42:28Z</time>
      </trkpt>
      <trkpt lat="44.32707" lon="6.86337">
        <ele>2050.6</ele>
        <time>2022-07-19T11:42:29Z</time>
      </trkpt>
      <trkpt lat="44.32707" lon="6.86339">
        <ele>2050.6</ele>
        <time>2022-07-19T11:42:30Z</time>
      </trkpt>
      <trkpt lat="44.32707" lon="6.86341">
        <ele>2050.8</ele>
        <time>2022-07-19T11:42:31Z</time>
      </trkpt>
      <trkpt lat="44.32707" lon="6.86343">
        <ele>2050.8</ele>
        <time>2022-07-19T11:42:32Z</time>
      </trkpt>
      <trkpt lat="44.32707" lon="6.86345">
        <ele>2051.2</ele>
        <time>2022-07-19T11:42:33Z</time>
      </trkpt>
      <trkpt lat="44.32707" lon="6.86347">
        <ele>2051.2</ele>
        <time>2022-07-19T11:42:34Z</time>
      </trkpt>
      <trkpt lat="44.32707" lon="6.8635">
        <ele>2051.4</ele>
        <time>2022-07-19T11:42:35Z</time>
      </trkpt>
      <trkpt lat="44.32708" lon="6.86352">
        <ele>2051.4</ele>
        <time>2022-07-19T11:42:36Z</time>
      </trkpt>
      <trkpt lat="44.32708" lon="6.86354">
        <ele>2051.8</ele>
        <time>2022-07-19T11:42:37Z</time>
      </trkpt>
      <trkpt lat="44.32709" lon="6.86355">
        <ele>2051.8</ele>
        <time>2022-07-19T11:42:38Z</time>
      </trkpt>
      <trkpt lat="44.32709" lon="6.86357">
        <ele>2052.2</ele>
        <time>2022-07-19T11:42:39Z</time>
      </trkpt>
      <trkpt lat="44.32709" lon="6.86359">
        <ele>2052.2</ele>
        <time>2022-07-19T11:42:40Z</time>
      </trkpt>
      <trkpt lat="44.32709" lon="6.86361">
        <ele>2052.4</ele>
        <time>2022-07-19T11:42:41Z</time>
      </trkpt>
      <trkpt lat="44.32709" lon="6.86363">
        <ele>2052.4</ele>
        <time>2022-07-19T11:42:42Z</time>
      </trkpt>
      <trkpt lat="44.3271" lon="6.86365">
        <ele>2052.8</ele>
        <time>2022-07-19T11:42:43Z</time>
      </trkpt>
      <trkpt lat="44.3271" lon="6.86367">
        <ele>2052.8</ele>
        <time>2022-07-19T11:42:44Z</time>
      </trkpt>
      <trkpt lat="44.32711" lon="6.86369">
        <ele>2053</ele>
        <time>2022-07-19T11:42:45Z</time>
      </trkpt>
      <trkpt lat="44.32711" lon="6.86371">
        <ele>2053</ele>
        <time>2022-07-19T11:42:46Z</time>
      </trkpt>
      <trkpt lat="44.32711" lon="6.86373">
        <ele>2053.4</ele>
        <time>2022-07-19T11:42:47Z</time>
      </trkpt>
      <trkpt lat="44.32711" lon="6.86376">
        <ele>2053.4</ele>
        <time>2022-07-19T11:42:48Z</time>
      </trkpt>
      <trkpt lat="44.32711" lon="6.86378">
        <ele>2053.4</ele>
        <time>2022-07-19T11:42:49Z</time>
      </trkpt>
      <trkpt lat="44.32711" lon="6.8638">
        <ele>2053.6</ele>
        <time>2022-07-19T11:42:50Z</time>
      </trkpt>
      <trkpt lat="44.32712" lon="6.86382">
        <ele>2053.6</ele>
        <time>2022-07-19T11:42:51Z</time>
      </trkpt>
      <trkpt lat="44.32712" lon="6.86383">
        <ele>2053.6</ele>
        <time>2022-07-19T11:42:52Z</time>
      </trkpt>
      <trkpt lat="44.32712" lon="6.86385">
        <ele>2053.6</ele>
        <time>2022-07-19T11:42:53Z</time>
      </trkpt>
      <trkpt lat="44.32712" lon="6.86388">
        <ele>2054</ele>
        <time>2022-07-19T11:42:54Z</time>
      </trkpt>
      <trkpt lat="44.32712" lon="6.8639">
        <ele>2054</ele>
        <time>2022-07-19T11:42:55Z</time>
      </trkpt>
      <trkpt lat="44.32711" lon="6.86392">
        <ele>2054.2</ele>
        <time>2022-07-19T11:42:56Z</time>
      </trkpt>
      <trkpt lat="44.32711" lon="6.86394">
        <ele>2054.2</ele>
        <time>2022-07-19T11:42:57Z</time>
      </trkpt>
      <trkpt lat="44.3271" lon="6.86397">
        <ele>2054.6</ele>
        <time>2022-07-19T11:42:58Z</time>
      </trkpt>
      <trkpt lat="44.3271" lon="6.86399">
        <ele>2054.6</ele>
        <time>2022-07-19T11:42:59Z</time>
      </trkpt>
      <trkpt lat="44.32709" lon="6.86401">
        <ele>2054.8</ele>
        <time>2022-07-19T11:43:00Z</time>
      </trkpt>
      <trkpt lat="44.32708" lon="6.86403">
        <ele>2054.8</ele>
        <time>2022-07-19T11:43:01Z</time>
      </trkpt>
      <trkpt lat="44.32708" lon="6.86406">
        <ele>2055.2</ele>
        <time>2022-07-19T11:43:02Z</time>
      </trkpt>
      <trkpt lat="44.32707" lon="6.86408">
        <ele>2055.2</ele>
        <time>2022-07-19T11:43:03Z</time>
      </trkpt>
      <trkpt lat="44.32707" lon="6.8641">
        <ele>2055.6</ele>
        <time>2022-07-19T11:43:04Z</time>
      </trkpt>
      <trkpt lat="44.32706" lon="6.86412">
        <ele>2055.6</ele>
        <time>2022-07-19T11:43:05Z</time>
      </trkpt>
      <trkpt lat="44.32705" lon="6.86414">
        <ele>2055.6</ele>
        <time>2022-07-19T11:43:06Z</time>
      </trkpt>
      <trkpt lat="44.32704" lon="6.86416">
        <ele>2055.6</ele>
        <time>2022-07-19T11:43:07Z</time>
      </trkpt>
      <trkpt lat="44.32703" lon="6.86418">
        <ele>2055.8</ele>
        <time>2022-07-19T11:43:08Z</time>
      </trkpt>
      <trkpt lat="44.32702" lon="6.86421">
        <ele>2055.8</ele>
        <time>2022-07-19T11:43:09Z</time>
      </trkpt>
      <trkpt lat="44.32702" lon="6.86423">
        <ele>2056</ele>
        <time>2022-07-19T11:43:10Z</time>
      </trkpt>
      <trkpt lat="44.32701" lon="6.86425">
        <ele>2056</ele>
        <time>2022-07-19T11:43:11Z</time>
      </trkpt>
      <trkpt lat="44.327" lon="6.86427">
        <ele>2056</ele>
        <time>2022-07-19T11:43:12Z</time>
      </trkpt>
      <trkpt lat="44.32699" lon="6.86429">
        <ele>2056.2</ele>
        <time>2022-07-19T11:43:13Z</time>
      </trkpt>
      <trkpt lat="44.32698" lon="6.86431">
        <ele>2056.2</ele>
        <time>2022-07-19T11:43:14Z</time>
      </trkpt>
      <trkpt lat="44.32697" lon="6.86434">
        <ele>2056.6</ele>
        <time>2022-07-19T11:43:15Z</time>
      </trkpt>
      <trkpt lat="44.32696" lon="6.86436">
        <ele>2056.6</ele>
        <time>2022-07-19T11:43:16Z</time>
      </trkpt>
      <trkpt lat="44.32695" lon="6.86438">
        <ele>2056.6</ele>
        <time>2022-07-19T11:43:17Z</time>
      </trkpt>
      <trkpt lat="44.32694" lon="6.8644">
        <ele>2056.8</ele>
        <time>2022-07-19T11:43:18Z</time>
      </trkpt>
      <trkpt lat="44.32693" lon="6.86442">
        <ele>2056.8</ele>
        <time>2022-07-19T11:43:19Z</time>
      </trkpt>
      <trkpt lat="44.32692" lon="6.86444">
        <ele>2057</ele>
        <time>2022-07-19T11:43:20Z</time>
      </trkpt>
      <trkpt lat="44.32691" lon="6.86447">
        <ele>2057</ele>
        <time>2022-07-19T11:43:21Z</time>
      </trkpt>
      <trkpt lat="44.3269" lon="6.86449">
        <ele>2057</ele>
        <time>2022-07-19T11:43:22Z</time>
      </trkpt>
      <trkpt lat="44.32689" lon="6.86451">
        <ele>2057.2</ele>
        <time>2022-07-19T11:43:23Z</time>
      </trkpt>
      <trkpt lat="44.32688" lon="6.86453">
        <ele>2057.2</ele>
        <time>2022-07-19T11:43:24Z</time>
      </trkpt>
      <trkpt lat="44.32687" lon="6.86455">
        <ele>2057.6</ele>
        <time>2022-07-19T11:43:25Z</time>
      </trkpt>
      <trkpt lat="44.32686" lon="6.86457">
        <ele>2057.6</ele>
        <time>2022-07-19T11:43:26Z</time>
      </trkpt>
      <trkpt lat="44.32686" lon="6.8646">
        <ele>2057.6</ele>
        <time>2022-07-19T11:43:27Z</time>
      </trkpt>
      <trkpt lat="44.32685" lon="6.86462">
        <ele>2057.8</ele>
        <time>2022-07-19T11:43:28Z</time>
      </trkpt>
      <trkpt lat="44.32684" lon="6.86464">
        <ele>2057.8</ele>
        <time>2022-07-19T11:43:29Z</time>
      </trkpt>
      <trkpt lat="44.32683" lon="6.86467">
        <ele>2058</ele>
        <time>2022-07-19T11:43:30Z</time>
      </trkpt>
      <trkpt lat="44.32682" lon="6.86469">
        <ele>2058</ele>
        <time>2022-07-19T11:43:31Z</time>
      </trkpt>
      <trkpt lat="44.32682" lon="6.86471">
        <ele>2058.2</ele>
        <time>2022-07-19T11:43:32Z</time>
      </trkpt>
      <trkpt lat="44.32681" lon="6.86473">
        <ele>2058.2</ele>
        <time>2022-07-19T11:43:33Z</time>
      </trkpt>
      <trkpt lat="44.3268" lon="6.86475">
        <ele>2058.4</ele>
        <time>2022-07-19T11:43:34Z</time>
      </trkpt>
      <trkpt lat="44.3268" lon="6.86477">
        <ele>2058.6</ele>
        <time>2022-07-19T11:43:35Z</time>
      </trkpt>
      <trkpt lat="44.32679" lon="6.8648">
        <ele>2058.6</ele>
        <time>2022-07-19T11:43:36Z</time>
      </trkpt>
      <trkpt lat="44.32679" lon="6.86482">
        <ele>2059</ele>
        <time>2022-07-19T11:43:37Z</time>
      </trkpt>
      <trkpt lat="44.32679" lon="6.86485">
        <ele>2059</ele>
        <time>2022-07-19T11:43:38Z</time>
      </trkpt>
      <trkpt lat="44.32678" lon="6.86487">
        <ele>2059.2</ele>
        <time>2022-07-19T11:43:39Z</time>
      </trkpt>
      <trkpt lat="44.32678" lon="6.8649">
        <ele>2059.2</ele>
        <time>2022-07-19T11:43:40Z</time>
      </trkpt>
      <trkpt lat="44.32678" lon="6.86492">
        <ele>2059.6</ele>
        <time>2022-07-19T11:43:41Z</time>
      </trkpt>
      <trkpt lat="44.32678" lon="6.86494">
        <ele>2059.6</ele>
        <time>2022-07-19T11:43:42Z</time>
      </trkpt>
      <trkpt lat="44.32678" lon="6.86496">
        <ele>2059.6</ele>
        <time>2022-07-19T11:43:43Z</time>
      </trkpt>
      <trkpt lat="44.32678" lon="6.86498">
        <ele>2059.8</ele>
        <time>2022-07-19T11:43:44Z</time>
      </trkpt>
      <trkpt lat="44.32679" lon="6.86501">
        <ele>2059.8</ele>
        <time>2022-07-19T11:43:45Z</time>
      </trkpt>
      <trkpt lat="44.3268" lon="6.86503">
        <ele>2060</ele>
        <time>2022-07-19T11:43:46Z</time>
      </trkpt>
      <trkpt lat="44.32681" lon="6.86504">
        <ele>2060</ele>
        <time>2022-07-19T11:43:47Z</time>
      </trkpt>
      <trkpt lat="44.32683" lon="6.86506">
        <ele>2060.4</ele>
        <time>2022-07-19T11:43:48Z</time>
      </trkpt>
      <trkpt lat="44.32685" lon="6.86507">
        <ele>2060.4</ele>
        <time>2022-07-19T11:43:49Z</time>
      </trkpt>
      <trkpt lat="44.32686" lon="6.86508">
        <ele>2060.6</ele>
        <time>2022-07-19T11:43:50Z</time>
      </trkpt>
      <trkpt lat="44.32688" lon="6.86509">
        <ele>2060.6</ele>
        <time>2022-07-19T11:43:51Z</time>
      </trkpt>
      <trkpt lat="44.3269" lon="6.8651">
        <ele>2060.8</ele>
        <time>2022-07-19T11:43:52Z</time>
      </trkpt>
      <trkpt lat="44.32692" lon="6.8651">
        <ele>2060.8</ele>
        <time>2022-07-19T11:43:53Z</time>
      </trkpt>
      <trkpt lat="44.32694" lon="6.8651">
        <ele>2061</ele>
        <time>2022-07-19T11:43:54Z</time>
      </trkpt>
      <trkpt lat="44.32696" lon="6.8651">
        <ele>2061</ele>
        <time>2022-07-19T11:43:55Z</time>
      </trkpt>
      <trkpt lat="44.32698" lon="6.8651">
        <ele>2061</ele>
        <time>2022-07-19T11:43:56Z</time>
      </trkpt>
      <trkpt lat="44.32699" lon="6.86509">
        <ele>2061.4</ele>
        <time>2022-07-19T11:43:57Z</time>
      </trkpt>
      <trkpt lat="44.32701" lon="6.86508">
        <ele>2061.4</ele>
        <time>2022-07-19T11:43:58Z</time>
      </trkpt>
      <trkpt lat="44.32703" lon="6.86507">
        <ele>2061.6</ele>
        <time>2022-07-19T11:43:59Z</time>
      </trkpt>
      <trkpt lat="44.32704" lon="6.86506">
        <ele>2061.6</ele>
        <time>2022-07-19T11:44:00Z</time>
      </trkpt>
      <trkpt lat="44.32706" lon="6.86504">
        <ele>2061.6</ele>
        <time>2022-07-19T11:44:01Z</time>
      </trkpt>
      <trkpt lat="44.32707" lon="6.86503">
        <ele>2061.8</ele>
        <time>2022-07-19T11:44:02Z</time>
      </trkpt>
      <trkpt lat="44.32708" lon="6.86501">
        <ele>2061.8</ele>
        <time>2022-07-19T11:44:03Z</time>
      </trkpt>
      <trkpt lat="44.32709" lon="6.86499">
        <ele>2062.2</ele>
        <time>2022-07-19T11:44:04Z</time>
      </trkpt>
      <trkpt lat="44.3271" lon="6.86497">
        <ele>2062.2</ele>
        <time>2022-07-19T11:44:05Z</time>
      </trkpt>
      <trkpt lat="44.32711" lon="6.86495">
        <ele>2062.4</ele>
        <time>2022-07-19T11:44:06Z</time>
      </trkpt>
      <trkpt lat="44.32711" lon="6.86493">
        <ele>2062.4</ele>
        <time>2022-07-19T11:44:07Z</time>
      </trkpt>
      <trkpt lat="44.32712" lon="6.86491">
        <ele>2062.8</ele>
        <time>2022-07-19T11:44:08Z</time>
      </trkpt>
      <trkpt lat="44.32713" lon="6.86489">
        <ele>2063</ele>
        <time>2022-07-19T11:44:09Z</time>
      </trkpt>
      <trkpt lat="44.32714" lon="6.86487">
        <ele>2063</ele>
        <time>2022-07-19T11:44:10Z</time>
      </trkpt>
      <trkpt lat="44.32715" lon="6.86485">
        <ele>2063.4</ele>
        <time>2022-07-19T11:44:11Z</time>
      </trkpt>
      <trkpt lat="44.32715" lon="6.86483">
        <ele>2063.4</ele>
        <time>2022-07-19T11:44:12Z</time>
      </trkpt>
      <trkpt lat="44.32716" lon="6.86481">
        <ele>2063.6</ele>
        <time>2022-07-19T11:44:13Z</time>
      </trkpt>
      <trkpt lat="44.32716" lon="6.86479">
        <ele>2063.6</ele>
        <time>2022-07-19T11:44:14Z</time>
      </trkpt>
      <trkpt lat="44.32717" lon="6.86477">
        <ele>2064</ele>
        <time>2022-07-19T11:44:15Z</time>
      </trkpt>
      <trkpt lat="44.32718" lon="6.86474">
        <ele>2064</ele>
        <time>2022-07-19T11:44:16Z</time>
      </trkpt>
      <trkpt lat="44.32718" lon="6.86472">
        <ele>2064.2</ele>
        <time>2022-07-19T11:44:17Z</time>
      </trkpt>
      <trkpt lat="44.32719" lon="6.86469">
        <ele>2064.6</ele>
        <time>2022-07-19T11:44:18Z</time>
      </trkpt>
      <trkpt lat="44.32719" lon="6.86467">
        <ele>2064.6</ele>
        <time>2022-07-19T11:44:19Z</time>
      </trkpt>
      <trkpt lat="44.3272" lon="6.86465">
        <ele>2065</ele>
        <time>2022-07-19T11:44:20Z</time>
      </trkpt>
      <trkpt lat="44.32721" lon="6.86463">
        <ele>2065.2</ele>
        <time>2022-07-19T11:44:21Z</time>
      </trkpt>
      <trkpt lat="44.32722" lon="6.86461">
        <ele>2065.2</ele>
        <time>2022-07-19T11:44:22Z</time>
      </trkpt>
      <trkpt lat="44.32723" lon="6.86459">
        <ele>2065.4</ele>
        <time>2022-07-19T11:44:23Z</time>
      </trkpt>
      <trkpt lat="44.32724" lon="6.86457">
        <ele>2065.4</ele>
        <time>2022-07-19T11:44:24Z</time>
      </trkpt>
      <trkpt lat="44.32725" lon="6.86455">
        <ele>2065.8</ele>
        <time>2022-07-19T11:44:25Z</time>
      </trkpt>
      <trkpt lat="44.32727" lon="6.86453">
        <ele>2065.8</ele>
        <time>2022-07-19T11:44:26Z</time>
      </trkpt>
      <trkpt lat="44.32728" lon="6.86451">
        <ele>2066</ele>
        <time>2022-07-19T11:44:27Z</time>
      </trkpt>
      <trkpt lat="44.32729" lon="6.86449">
        <ele>2066</ele>
        <time>2022-07-19T11:44:28Z</time>
      </trkpt>
      <trkpt lat="44.3273" lon="6.86447">
        <ele>2066.4</ele>
        <time>2022-07-19T11:44:29Z</time>
      </trkpt>
      <trkpt lat="44.3273" lon="6.86445">
        <ele>2066.4</ele>
        <time>2022-07-19T11:44:30Z</time>
      </trkpt>
      <trkpt lat="44.32731" lon="6.86442">
        <ele>2066.8</ele>
        <time>2022-07-19T11:44:31Z</time>
      </trkpt>
      <trkpt lat="44.32732" lon="6.86441">
        <ele>2066.8</ele>
        <time>2022-07-19T11:44:32Z</time>
      </trkpt>
      <trkpt lat="44.32733" lon="6.86439">
        <ele>2067</ele>
        <time>2022-07-19T11:44:33Z</time>
      </trkpt>
      <trkpt lat="44.32735" lon="6.86437">
        <ele>2067</ele>
        <time>2022-07-19T11:44:34Z</time>
      </trkpt>
      <trkpt lat="44.32736" lon="6.86436">
        <ele>2067.2</ele>
        <time>2022-07-19T11:44:35Z</time>
      </trkpt>
      <trkpt lat="44.32737" lon="6.86434">
        <ele>2067.2</ele>
        <time>2022-07-19T11:44:36Z</time>
      </trkpt>
      <trkpt lat="44.32738" lon="6.86432">
        <ele>2067.6</ele>
        <time>2022-07-19T11:44:37Z</time>
      </trkpt>
      <trkpt lat="44.32739" lon="6.8643">
        <ele>2067.6</ele>
        <time>2022-07-19T11:44:38Z</time>
      </trkpt>
      <trkpt lat="44.32741" lon="6.86429">
        <ele>2068</ele>
        <time>2022-07-19T11:44:39Z</time>
      </trkpt>
      <trkpt lat="44.32742" lon="6.86427">
        <ele>2068</ele>
        <time>2022-07-19T11:44:40Z</time>
      </trkpt>
      <trkpt lat="44.32743" lon="6.86426">
        <ele>2068.2</ele>
        <time>2022-07-19T11:44:41Z</time>
      </trkpt>
      <trkpt lat="44.32744" lon="6.86424">
        <ele>2068.2</ele>
        <time>2022-07-19T11:44:42Z</time>
      </trkpt>
      <trkpt lat="44.32745" lon="6.86422">
        <ele>2068.6</ele>
        <time>2022-07-19T11:44:43Z</time>
      </trkpt>
      <trkpt lat="44.32746" lon="6.86421">
        <ele>2068.6</ele>
        <time>2022-07-19T11:44:44Z</time>
      </trkpt>
      <trkpt lat="44.32748" lon="6.86419">
        <ele>2068.8</ele>
        <time>2022-07-19T11:44:45Z</time>
      </trkpt>
      <trkpt lat="44.32749" lon="6.86418">
        <ele>2068.8</ele>
        <time>2022-07-19T11:44:46Z</time>
      </trkpt>
      <trkpt lat="44.3275" lon="6.86416">
        <ele>2069.2</ele>
        <time>2022-07-19T11:44:47Z</time>
      </trkpt>
      <trkpt lat="44.32751" lon="6.86414">
        <ele>2069.2</ele>
        <time>2022-07-19T11:44:48Z</time>
      </trkpt>
      <trkpt lat="44.32753" lon="6.86412">
        <ele>2069.4</ele>
        <time>2022-07-19T11:44:49Z</time>
      </trkpt>
      <trkpt lat="44.32754" lon="6.8641">
        <ele>2069.4</ele>
        <time>2022-07-19T11:44:50Z</time>
      </trkpt>
      <trkpt lat="44.32755" lon="6.86409">
        <ele>2069.6</ele>
        <time>2022-07-19T11:44:51Z</time>
      </trkpt>
      <trkpt lat="44.32756" lon="6.86407">
        <ele>2070</ele>
        <time>2022-07-19T11:44:52Z</time>
      </trkpt>
      <trkpt lat="44.32757" lon="6.86405">
        <ele>2070</ele>
        <time>2022-07-19T11:44:53Z</time>
      </trkpt>
      <trkpt lat="44.32758" lon="6.86403">
        <ele>2070.2</ele>
        <time>2022-07-19T11:44:54Z</time>
      </trkpt>
      <trkpt lat="44.3276" lon="6.86402">
        <ele>2070.2</ele>
        <time>2022-07-19T11:44:55Z</time>
      </trkpt>
      <trkpt lat="44.32761" lon="6.864">
        <ele>2070.2</ele>
        <time>2022-07-19T11:44:56Z</time>
      </trkpt>
      <trkpt lat="44.32762" lon="6.86398">
        <ele>2070.6</ele>
        <time>2022-07-19T11:44:57Z</time>
      </trkpt>
      <trkpt lat="44.32763" lon="6.86396">
        <ele>2070.6</ele>
        <time>2022-07-19T11:44:58Z</time>
      </trkpt>
      <trkpt lat="44.32765" lon="6.86394">
        <ele>2070.8</ele>
        <time>2022-07-19T11:44:59Z</time>
      </trkpt>
      <trkpt lat="44.32766" lon="6.86393">
        <ele>2071</ele>
        <time>2022-07-19T11:45:00Z</time>
      </trkpt>
      <trkpt lat="44.32767" lon="6.86391">
        <ele>2071</ele>
        <time>2022-07-19T11:45:01Z</time>
      </trkpt>
      <trkpt lat="44.32768" lon="6.8639">
        <ele>2071.4</ele>
        <time>2022-07-19T11:45:02Z</time>
      </trkpt>
      <trkpt lat="44.3277" lon="6.86388">
        <ele>2071.4</ele>
        <time>2022-07-19T11:45:03Z</time>
      </trkpt>
      <trkpt lat="44.32771" lon="6.86386">
        <ele>2071.8</ele>
        <time>2022-07-19T11:45:04Z</time>
      </trkpt>
      <trkpt lat="44.32772" lon="6.86385">
        <ele>2071.8</ele>
        <time>2022-07-19T11:45:05Z</time>
      </trkpt>
      <trkpt lat="44.32773" lon="6.86384">
        <ele>2072</ele>
        <time>2022-07-19T11:45:06Z</time>
      </trkpt>
      <trkpt lat="44.32775" lon="6.86383">
        <ele>2072</ele>
        <time>2022-07-19T11:45:07Z</time>
      </trkpt>
      <trkpt lat="44.32776" lon="6.86381">
        <ele>2072.2</ele>
        <time>2022-07-19T11:45:08Z</time>
      </trkpt>
      <trkpt lat="44.32777" lon="6.8638">
        <ele>2072.2</ele>
        <time>2022-07-19T11:45:09Z</time>
      </trkpt>
      <trkpt lat="44.32779" lon="6.86379">
        <ele>2072.4</ele>
        <time>2022-07-19T11:45:10Z</time>
      </trkpt>
      <trkpt lat="44.3278" lon="6.86378">
        <ele>2072.4</ele>
        <time>2022-07-19T11:45:11Z</time>
      </trkpt>
      <trkpt lat="44.32782" lon="6.86377">
        <ele>2073</ele>
        <time>2022-07-19T11:45:12Z</time>
      </trkpt>
      <trkpt lat="44.32783" lon="6.86377">
        <ele>2073</ele>
        <time>2022-07-19T11:45:13Z</time>
      </trkpt>
      <trkpt lat="44.32785" lon="6.86376">
        <ele>2073</ele>
        <time>2022-07-19T11:45:14Z</time>
      </trkpt>
      <trkpt lat="44.32787" lon="6.86375">
        <ele>2073.2</ele>
        <time>2022-07-19T11:45:15Z</time>
      </trkpt>
      <trkpt lat="44.32788" lon="6.86375">
        <ele>2073.2</ele>
        <time>2022-07-19T11:45:16Z</time>
      </trkpt>
      <trkpt lat="44.3279" lon="6.86375">
        <ele>2073.6</ele>
        <time>2022-07-19T11:45:17Z</time>
      </trkpt>
      <trkpt lat="44.32792" lon="6.86375">
        <ele>2073.6</ele>
        <time>2022-07-19T11:45:18Z</time>
      </trkpt>
      <trkpt lat="44.32793" lon="6.86375">
        <ele>2073.8</ele>
        <time>2022-07-19T11:45:19Z</time>
      </trkpt>
      <trkpt lat="44.32795" lon="6.86375">
        <ele>2073.8</ele>
        <time>2022-07-19T11:45:20Z</time>
      </trkpt>
      <trkpt lat="44.32797" lon="6.86375">
        <ele>2074.2</ele>
        <time>2022-07-19T11:45:21Z</time>
      </trkpt>
      <trkpt lat="44.32799" lon="6.86375">
        <ele>2074.4</ele>
        <time>2022-07-19T11:45:22Z</time>
      </trkpt>
      <trkpt lat="44.328" lon="6.86375">
        <ele>2074.4</ele>
        <time>2022-07-19T11:45:23Z</time>
      </trkpt>
      <trkpt lat="44.32802" lon="6.86374">
        <ele>2074.6</ele>
        <time>2022-07-19T11:45:24Z</time>
      </trkpt>
      <trkpt lat="44.32803" lon="6.86374">
        <ele>2074.6</ele>
        <time>2022-07-19T11:45:25Z</time>
      </trkpt>
      <trkpt lat="44.32805" lon="6.86373">
        <ele>2075</ele>
        <time>2022-07-19T11:45:26Z</time>
      </trkpt>
      <trkpt lat="44.32806" lon="6.86373">
        <ele>2075.2</ele>
        <time>2022-07-19T11:45:27Z</time>
      </trkpt>
      <trkpt lat="44.32808" lon="6.86373">
        <ele>2075.2</ele>
        <time>2022-07-19T11:45:28Z</time>
      </trkpt>
      <trkpt lat="44.32809" lon="6.86372">
        <ele>2075.4</ele>
        <time>2022-07-19T11:45:29Z</time>
      </trkpt>
      <trkpt lat="44.3281" lon="6.86372">
        <ele>2075.6</ele>
        <time>2022-07-19T11:45:30Z</time>
      </trkpt>
      <trkpt lat="44.32812" lon="6.86371">
        <ele>2075.6</ele>
        <time>2022-07-19T11:45:31Z</time>
      </trkpt>
      <trkpt lat="44.32813" lon="6.8637">
        <ele>2076</ele>
        <time>2022-07-19T11:45:32Z</time>
      </trkpt>
      <trkpt lat="44.32815" lon="6.8637">
        <ele>2076</ele>
        <time>2022-07-19T11:45:33Z</time>
      </trkpt>
      <trkpt lat="44.32816" lon="6.8637">
        <ele>2076.2</ele>
        <time>2022-07-19T11:45:34Z</time>
      </trkpt>
      <trkpt lat="44.32817" lon="6.86369">
        <ele>2076.2</ele>
        <time>2022-07-19T11:45:35Z</time>
      </trkpt>
      <trkpt lat="44.32819" lon="6.8637">
        <ele>2076.4</ele>
        <time>2022-07-19T11:45:36Z</time>
      </trkpt>
      <trkpt lat="44.3282" lon="6.8637">
        <ele>2076.4</ele>
        <time>2022-07-19T11:45:37Z</time>
      </trkpt>
      <trkpt lat="44.32822" lon="6.86369">
        <ele>2076.8</ele>
        <time>2022-07-19T11:45:38Z</time>
      </trkpt>
      <trkpt lat="44.32823" lon="6.86369">
        <ele>2076.8</ele>
        <time>2022-07-19T11:45:39Z</time>
      </trkpt>
      <trkpt lat="44.32825" lon="6.86367">
        <ele>2077</ele>
        <time>2022-07-19T11:45:40Z</time>
      </trkpt>
      <trkpt lat="44.32826" lon="6.86366">
        <ele>2077.4</ele>
        <time>2022-07-19T11:45:41Z</time>
      </trkpt>
      <trkpt lat="44.32827" lon="6.86364">
        <ele>2077.4</ele>
        <time>2022-07-19T11:45:42Z</time>
      </trkpt>
      <trkpt lat="44.32828" lon="6.86363">
        <ele>2077.6</ele>
        <time>2022-07-19T11:45:43Z</time>
      </trkpt>
      <trkpt lat="44.32829" lon="6.86361">
        <ele>2077.6</ele>
        <time>2022-07-19T11:45:44Z</time>
      </trkpt>
      <trkpt lat="44.3283" lon="6.8636">
        <ele>2077.8</ele>
        <time>2022-07-19T11:45:45Z</time>
      </trkpt>
      <trkpt lat="44.32831" lon="6.86358">
        <ele>2078</ele>
        <time>2022-07-19T11:45:46Z</time>
      </trkpt>
      <trkpt lat="44.32832" lon="6.86356">
        <ele>2078</ele>
        <time>2022-07-19T11:45:47Z</time>
      </trkpt>
      <trkpt lat="44.32833" lon="6.86354">
        <ele>2078.4</ele>
        <time>2022-07-19T11:45:48Z</time>
      </trkpt>
      <trkpt lat="44.32834" lon="6.86352">
        <ele>2078.4</ele>
        <time>2022-07-19T11:45:49Z</time>
      </trkpt>
      <trkpt lat="44.32834" lon="6.8635">
        <ele>2078.6</ele>
        <time>2022-07-19T11:45:50Z</time>
      </trkpt>
      <trkpt lat="44.32835" lon="6.86348">
        <ele>2078.6</ele>
        <time>2022-07-19T11:45:51Z</time>
      </trkpt>
      <trkpt lat="44.32836" lon="6.86345">
        <ele>2078.8</ele>
        <time>2022-07-19T11:45:52Z</time>
      </trkpt>
      <trkpt lat="44.32836" lon="6.86343">
        <ele>2078.8</ele>
        <time>2022-07-19T11:45:53Z</time>
      </trkpt>
      <trkpt lat="44.32837" lon="6.86341">
        <ele>2078.8</ele>
        <time>2022-07-19T11:45:54Z</time>
      </trkpt>
      <trkpt lat="44.32837" lon="6.86338">
        <ele>2079.2</ele>
        <time>2022-07-19T11:45:55Z</time>
      </trkpt>
      <trkpt lat="44.32837" lon="6.86336">
        <ele>2079.2</ele>
        <time>2022-07-19T11:45:56Z</time>
      </trkpt>
      <trkpt lat="44.32837" lon="6.86334">
        <ele>2079.4</ele>
        <time>2022-07-19T11:45:57Z</time>
      </trkpt>
      <trkpt lat="44.32837" lon="6.86332">
        <ele>2079.4</ele>
        <time>2022-07-19T11:45:58Z</time>
      </trkpt>
      <trkpt lat="44.32837" lon="6.8633">
        <ele>2079.8</ele>
        <time>2022-07-19T11:45:59Z</time>
      </trkpt>
      <trkpt lat="44.32838" lon="6.86327">
        <ele>2079.8</ele>
        <time>2022-07-19T11:46:00Z</time>
      </trkpt>
      <trkpt lat="44.32839" lon="6.86326">
        <ele>2080</ele>
        <time>2022-07-19T11:46:01Z</time>
      </trkpt>
      <trkpt lat="44.3284" lon="6.86324">
        <ele>2080</ele>
        <time>2022-07-19T11:46:02Z</time>
      </trkpt>
      <trkpt lat="44.32841" lon="6.86322">
        <ele>2080.4</ele>
        <time>2022-07-19T11:46:03Z</time>
      </trkpt>
      <trkpt lat="44.32842" lon="6.86321">
        <ele>2080.4</ele>
        <time>2022-07-19T11:46:04Z</time>
      </trkpt>
      <trkpt lat="44.32843" lon="6.86318">
        <ele>2080.6</ele>
        <time>2022-07-19T11:46:05Z</time>
      </trkpt>
      <trkpt lat="44.32844" lon="6.86317">
        <ele>2080.6</ele>
        <time>2022-07-19T11:46:06Z</time>
      </trkpt>
      <trkpt lat="44.32845" lon="6.86315">
        <ele>2080.8</ele>
        <time>2022-07-19T11:46:07Z</time>
      </trkpt>
      <trkpt lat="44.32846" lon="6.86313">
        <ele>2080.8</ele>
        <time>2022-07-19T11:46:08Z</time>
      </trkpt>
      <trkpt lat="44.32847" lon="6.86311">
        <ele>2081</ele>
        <time>2022-07-19T11:46:09Z</time>
      </trkpt>
      <trkpt lat="44.32847" lon="6.86309">
        <ele>2081</ele>
        <time>2022-07-19T11:46:10Z</time>
      </trkpt>
      <trkpt lat="44.32849" lon="6.86307">
        <ele>2081.4</ele>
        <time>2022-07-19T11:46:11Z</time>
      </trkpt>
      <trkpt lat="44.3285" lon="6.86306">
        <ele>2081.4</ele>
        <time>2022-07-19T11:46:12Z</time>
      </trkpt>
      <trkpt lat="44.32851" lon="6.86304">
        <ele>2081.6</ele>
        <time>2022-07-19T11:46:13Z</time>
      </trkpt>
      <trkpt lat="44.32853" lon="6.86303">
        <ele>2081.6</ele>
        <time>2022-07-19T11:46:14Z</time>
      </trkpt>
      <trkpt lat="44.32854" lon="6.86302">
        <ele>2082</ele>
        <time>2022-07-19T11:46:15Z</time>
      </trkpt>
      <trkpt lat="44.32855" lon="6.863">
        <ele>2082.2</ele>
        <time>2022-07-19T11:46:16Z</time>
      </trkpt>
      <trkpt lat="44.32856" lon="6.86299">
        <ele>2082.4</ele>
        <time>2022-07-19T11:46:17Z</time>
      </trkpt>
      <trkpt lat="44.32857" lon="6.86297">
        <ele>2082.4</ele>
        <time>2022-07-19T11:46:18Z</time>
      </trkpt>
      <trkpt lat="44.32858" lon="6.86296">
        <ele>2082.8</ele>
        <time>2022-07-19T11:46:19Z</time>
      </trkpt>
      <trkpt lat="44.3286" lon="6.86295">
        <ele>2083</ele>
        <time>2022-07-19T11:46:20Z</time>
      </trkpt>
      <trkpt lat="44.32861" lon="6.86294">
        <ele>2083</ele>
        <time>2022-07-19T11:46:21Z</time>
      </trkpt>
      <trkpt lat="44.32862" lon="6.86293">
        <ele>2083.4</ele>
        <time>2022-07-19T11:46:22Z</time>
      </trkpt>
      <trkpt lat="44.32863" lon="6.86291">
        <ele>2083.4</ele>
        <time>2022-07-19T11:46:23Z</time>
      </trkpt>
      <trkpt lat="44.32865" lon="6.8629">
        <ele>2083.6</ele>
        <time>2022-07-19T11:46:24Z</time>
      </trkpt>
      <trkpt lat="44.32866" lon="6.86289">
        <ele>2083.6</ele>
        <time>2022-07-19T11:46:25Z</time>
      </trkpt>
      <trkpt lat="44.32867" lon="6.86288">
        <ele>2084</ele>
        <time>2022-07-19T11:46:26Z</time>
      </trkpt>
      <trkpt lat="44.32868" lon="6.86286">
        <ele>2084</ele>
        <time>2022-07-19T11:46:27Z</time>
      </trkpt>
      <trkpt lat="44.3287" lon="6.86285">
        <ele>2084.4</ele>
        <time>2022-07-19T11:46:28Z</time>
      </trkpt>
      <trkpt lat="44.32871" lon="6.86284">
        <ele>2084.4</ele>
        <time>2022-07-19T11:46:29Z</time>
      </trkpt>
      <trkpt lat="44.32872" lon="6.86283">
        <ele>2084.8</ele>
        <time>2022-07-19T11:46:30Z</time>
      </trkpt>
      <trkpt lat="44.32873" lon="6.86281">
        <ele>2084.8</ele>
        <time>2022-07-19T11:46:31Z</time>
      </trkpt>
      <trkpt lat="44.32874" lon="6.8628">
        <ele>2085</ele>
        <time>2022-07-19T11:46:32Z</time>
      </trkpt>
      <trkpt lat="44.32875" lon="6.86279">
        <ele>2085</ele>
        <time>2022-07-19T11:46:33Z</time>
      </trkpt>
      <trkpt lat="44.32877" lon="6.86278">
        <ele>2085.6</ele>
        <time>2022-07-19T11:46:34Z</time>
      </trkpt>
      <trkpt lat="44.32878" lon="6.86278">
        <ele>2085.8</ele>
        <time>2022-07-19T11:46:35Z</time>
      </trkpt>
      <trkpt lat="44.3288" lon="6.86279">
        <ele>2085.8</ele>
        <time>2022-07-19T11:46:36Z</time>
      </trkpt>
      <trkpt lat="44.32882" lon="6.8628">
        <ele>2086</ele>
        <time>2022-07-19T11:46:37Z</time>
      </trkpt>
      <trkpt lat="44.32883" lon="6.86281">
        <ele>2086</ele>
        <time>2022-07-19T11:46:38Z</time>
      </trkpt>
      <trkpt lat="44.32885" lon="6.86283">
        <ele>2086.4</ele>
        <time>2022-07-19T11:46:39Z</time>
      </trkpt>
      <trkpt lat="44.32885" lon="6.86285">
        <ele>2086.4</ele>
        <time>2022-07-19T11:46:40Z</time>
      </trkpt>
      <trkpt lat="44.32886" lon="6.86287">
        <ele>2086.8</ele>
        <time>2022-07-19T11:46:41Z</time>
      </trkpt>
      <trkpt lat="44.32886" lon="6.8629">
        <ele>2086.8</ele>
        <time>2022-07-19T11:46:42Z</time>
      </trkpt>
      <trkpt lat="44.32886" lon="6.86293">
        <ele>2087</ele>
        <time>2022-07-19T11:46:43Z</time>
      </trkpt>
      <trkpt lat="44.32886" lon="6.86295">
        <ele>2087</ele>
        <time>2022-07-19T11:46:44Z</time>
      </trkpt>
      <trkpt lat="44.32886" lon="6.86298">
        <ele>2087.4</ele>
        <time>2022-07-19T11:46:45Z</time>
      </trkpt>
      <trkpt lat="44.32885" lon="6.863">
        <ele>2087.4</ele>
        <time>2022-07-19T11:46:46Z</time>
      </trkpt>
      <trkpt lat="44.32884" lon="6.86303">
        <ele>2087.4</ele>
        <time>2022-07-19T11:46:47Z</time>
      </trkpt>
      <trkpt lat="44.32884" lon="6.86305">
        <ele>2087.8</ele>
        <time>2022-07-19T11:46:48Z</time>
      </trkpt>
      <trkpt lat="44.32883" lon="6.86308">
        <ele>2087.8</ele>
        <time>2022-07-19T11:46:49Z</time>
      </trkpt>
      <trkpt lat="44.32883" lon="6.86311">
        <ele>2088</ele>
        <time>2022-07-19T11:46:50Z</time>
      </trkpt>
      <trkpt lat="44.32882" lon="6.86313">
        <ele>2088</ele>
        <time>2022-07-19T11:46:51Z</time>
      </trkpt>
      <trkpt lat="44.32881" lon="6.86316">
        <ele>2088.2</ele>
        <time>2022-07-19T11:46:52Z</time>
      </trkpt>
      <trkpt lat="44.32881" lon="6.86319">
        <ele>2088.2</ele>
        <time>2022-07-19T11:46:53Z</time>
      </trkpt>
      <trkpt lat="44.32881" lon="6.86321">
        <ele>2088.4</ele>
        <time>2022-07-19T11:46:54Z</time>
      </trkpt>
      <trkpt lat="44.32881" lon="6.86323">
        <ele>2088.4</ele>
        <time>2022-07-19T11:46:55Z</time>
      </trkpt>
      <trkpt lat="44.32882" lon="6.86326">
        <ele>2088.8</ele>
        <time>2022-07-19T11:46:56Z</time>
      </trkpt>
      <trkpt lat="44.32882" lon="6.86328">
        <ele>2088.8</ele>
        <time>2022-07-19T11:46:57Z</time>
      </trkpt>
      <trkpt lat="44.32882" lon="6.8633">
        <ele>2089</ele>
        <time>2022-07-19T11:46:58Z</time>
      </trkpt>
      <trkpt lat="44.32882" lon="6.86332">
        <ele>2089</ele>
        <time>2022-07-19T11:46:59Z</time>
      </trkpt>
      <trkpt lat="44.32883" lon="6.86334">
        <ele>2089.2</ele>
        <time>2022-07-19T11:47:00Z</time>
      </trkpt>
      <trkpt lat="44.32883" lon="6.86336">
        <ele>2089.2</ele>
        <time>2022-07-19T11:47:01Z</time>
      </trkpt>
      <trkpt lat="44.32884" lon="6.86338">
        <ele>2089.4</ele>
        <time>2022-07-19T11:47:02Z</time>
      </trkpt>
      <trkpt lat="44.32884" lon="6.8634">
        <ele>2089.4</ele>
        <time>2022-07-19T11:47:03Z</time>
      </trkpt>
      <trkpt lat="44.32885" lon="6.86342">
        <ele>2089.8</ele>
        <time>2022-07-19T11:47:04Z</time>
      </trkpt>
      <trkpt lat="44.32885" lon="6.86344">
        <ele>2089.8</ele>
        <time>2022-07-19T11:47:05Z</time>
      </trkpt>
      <trkpt lat="44.32886" lon="6.86346">
        <ele>2090</ele>
        <time>2022-07-19T11:47:06Z</time>
      </trkpt>
      <trkpt lat="44.32886" lon="6.86348">
        <ele>2090</ele>
        <time>2022-07-19T11:47:07Z</time>
      </trkpt>
      <trkpt lat="44.32886" lon="6.8635">
        <ele>2090.2</ele>
        <time>2022-07-19T11:47:08Z</time>
      </trkpt>
      <trkpt lat="44.32887" lon="6.86352">
        <ele>2090.2</ele>
        <time>2022-07-19T11:47:09Z</time>
      </trkpt>
      <trkpt lat="44.32888" lon="6.86354">
        <ele>2090.6</ele>
        <time>2022-07-19T11:47:10Z</time>
      </trkpt>
      <trkpt lat="44.32889" lon="6.86356">
        <ele>2090.8</ele>
        <time>2022-07-19T11:47:11Z</time>
      </trkpt>
      <trkpt lat="44.3289" lon="6.86358">
        <ele>2090.8</ele>
        <time>2022-07-19T11:47:12Z</time>
      </trkpt>
      <trkpt lat="44.3289" lon="6.8636">
        <ele>2091</ele>
        <time>2022-07-19T11:47:13Z</time>
      </trkpt>
      <trkpt lat="44.32891" lon="6.86363">
        <ele>2091</ele>
        <time>2022-07-19T11:47:14Z</time>
      </trkpt>
      <trkpt lat="44.32892" lon="6.86365">
        <ele>2091.4</ele>
        <time>2022-07-19T11:47:15Z</time>
      </trkpt>
      <trkpt lat="44.32892" lon="6.86367">
        <ele>2091.4</ele>
        <time>2022-07-19T11:47:16Z</time>
      </trkpt>
      <trkpt lat="44.32893" lon="6.86369">
        <ele>2091.6</ele>
        <time>2022-07-19T11:47:17Z</time>
      </trkpt>
      <trkpt lat="44.32893" lon="6.86372">
        <ele>2091.6</ele>
        <time>2022-07-19T11:47:18Z</time>
      </trkpt>
      <trkpt lat="44.32893" lon="6.86374">
        <ele>2092</ele>
        <time>2022-07-19T11:47:19Z</time>
      </trkpt>
      <trkpt lat="44.32893" lon="6.86376">
        <ele>2092</ele>
        <time>2022-07-19T11:47:20Z</time>
      </trkpt>
      <trkpt lat="44.32893" lon="6.86379">
        <ele>2092.2</ele>
        <time>2022-07-19T11:47:21Z</time>
      </trkpt>
      <trkpt lat="44.32893" lon="6.86381">
        <ele>2092.2</ele>
        <time>2022-07-19T11:47:22Z</time>
      </trkpt>
      <trkpt lat="44.32893" lon="6.86384">
        <ele>2092.2</ele>
        <time>2022-07-19T11:47:23Z</time>
      </trkpt>
      <trkpt lat="44.32893" lon="6.86386">
        <ele>2092.4</ele>
        <time>2022-07-19T11:47:24Z</time>
      </trkpt>
      <trkpt lat="44.32892" lon="6.86388">
        <ele>2092.4</ele>
        <time>2022-07-19T11:47:25Z</time>
      </trkpt>
      <trkpt lat="44.32892" lon="6.86391">
        <ele>2092.6</ele>
        <time>2022-07-19T11:47:26Z</time>
      </trkpt>
      <trkpt lat="44.32891" lon="6.86393">
        <ele>2092.6</ele>
        <time>2022-07-19T11:47:27Z</time>
      </trkpt>
      <trkpt lat="44.32891" lon="6.86395">
        <ele>2093</ele>
        <time>2022-07-19T11:47:28Z</time>
      </trkpt>
      <trkpt lat="44.32891" lon="6.86397">
        <ele>2093</ele>
        <time>2022-07-19T11:47:29Z</time>
      </trkpt>
      <trkpt lat="44.32891" lon="6.864">
        <ele>2093.2</ele>
        <time>2022-07-19T11:47:30Z</time>
      </trkpt>
      <trkpt lat="44.3289" lon="6.86402">
        <ele>2093.2</ele>
        <time>2022-07-19T11:47:31Z</time>
      </trkpt>
      <trkpt lat="44.3289" lon="6.86405">
        <ele>2093.6</ele>
        <time>2022-07-19T11:47:32Z</time>
      </trkpt>
      <trkpt lat="44.32889" lon="6.86407">
        <ele>2093.6</ele>
        <time>2022-07-19T11:47:33Z</time>
      </trkpt>
      <trkpt lat="44.32888" lon="6.86409">
        <ele>2093.8</ele>
        <time>2022-07-19T11:47:34Z</time>
      </trkpt>
      <trkpt lat="44.32888" lon="6.86411">
        <ele>2093.8</ele>
        <time>2022-07-19T11:47:35Z</time>
      </trkpt>
      <trkpt lat="44.32887" lon="6.86414">
        <ele>2093.8</ele>
        <time>2022-07-19T11:47:36Z</time>
      </trkpt>
      <trkpt lat="44.32886" lon="6.86416">
        <ele>2094</ele>
        <time>2022-07-19T11:47:37Z</time>
      </trkpt>
      <trkpt lat="44.32886" lon="6.86418">
        <ele>2094</ele>
        <time>2022-07-19T11:47:39Z</time>
      </trkpt>
      <trkpt lat="44.32885" lon="6.8642">
        <ele>2094.4</ele>
        <time>2022-07-19T11:47:40Z</time>
      </trkpt>
      <trkpt lat="44.32884" lon="6.86423">
        <ele>2094.4</ele>
        <time>2022-07-19T11:47:41Z</time>
      </trkpt>
      <trkpt lat="44.32883" lon="6.86425">
        <ele>2094.4</ele>
        <time>2022-07-19T11:47:42Z</time>
      </trkpt>
      <trkpt lat="44.32882" lon="6.86427">
        <ele>2094.6</ele>
        <time>2022-07-19T11:47:43Z</time>
      </trkpt>
      <trkpt lat="44.32882" lon="6.86429">
        <ele>2094.6</ele>
        <time>2022-07-19T11:47:44Z</time>
      </trkpt>
      <trkpt lat="44.32881" lon="6.86432">
        <ele>2095</ele>
        <time>2022-07-19T11:47:45Z</time>
      </trkpt>
      <trkpt lat="44.3288" lon="6.86434">
        <ele>2095</ele>
        <time>2022-07-19T11:47:46Z</time>
      </trkpt>
      <trkpt lat="44.3288" lon="6.86436">
        <ele>2095.4</ele>
        <time>2022-07-19T11:47:47Z</time>
      </trkpt>
      <trkpt lat="44.3288" lon="6.86438">
        <ele>2095.4</ele>
        <time>2022-07-19T11:47:48Z</time>
      </trkpt>
      <trkpt lat="44.3288" lon="6.86441">
        <ele>2095.6</ele>
        <time>2022-07-19T11:47:49Z</time>
      </trkpt>
      <trkpt lat="44.3288" lon="6.86443">
        <ele>2095.6</ele>
        <time>2022-07-19T11:47:50Z</time>
      </trkpt>
      <trkpt lat="44.32879" lon="6.86445">
        <ele>2095.8</ele>
        <time>2022-07-19T11:47:51Z</time>
      </trkpt>
      <trkpt lat="44.32879" lon="6.86447">
        <ele>2095.8</ele>
        <time>2022-07-19T11:47:52Z</time>
      </trkpt>
      <trkpt lat="44.32878" lon="6.86449">
        <ele>2095.8</ele>
        <time>2022-07-19T11:47:53Z</time>
      </trkpt>
      <trkpt lat="44.32877" lon="6.86451">
        <ele>2096.2</ele>
        <time>2022-07-19T11:47:54Z</time>
      </trkpt>
      <trkpt lat="44.32877" lon="6.86454">
        <ele>2096.2</ele>
        <time>2022-07-19T11:47:55Z</time>
      </trkpt>
      <trkpt lat="44.32877" lon="6.86456">
        <ele>2096.4</ele>
        <time>2022-07-19T11:47:56Z</time>
      </trkpt>
      <trkpt lat="44.32877" lon="6.86458">
        <ele>2096.4</ele>
        <time>2022-07-19T11:47:57Z</time>
      </trkpt>
      <trkpt lat="44.32877" lon="6.86461">
        <ele>2096.4</ele>
        <time>2022-07-19T11:47:58Z</time>
      </trkpt>
      <trkpt lat="44.32878" lon="6.86463">
        <ele>2096.6</ele>
        <time>2022-07-19T11:47:59Z</time>
      </trkpt>
      <trkpt lat="44.32878" lon="6.86466">
        <ele>2096.6</ele>
        <time>2022-07-19T11:48:00Z</time>
      </trkpt>
      <trkpt lat="44.32878" lon="6.86468">
        <ele>2096.6</ele>
        <time>2022-07-19T11:48:01Z</time>
      </trkpt>
      <trkpt lat="44.32879" lon="6.8647">
        <ele>2097</ele>
        <time>2022-07-19T11:48:02Z</time>
      </trkpt>
      <trkpt lat="44.3288" lon="6.86472">
        <ele>2097</ele>
        <time>2022-07-19T11:48:03Z</time>
      </trkpt>
      <trkpt lat="44.32881" lon="6.86475">
        <ele>2097.2</ele>
        <time>2022-07-19T11:48:04Z</time>
      </trkpt>
      <trkpt lat="44.32882" lon="6.86477">
        <ele>2097.2</ele>
        <time>2022-07-19T11:48:05Z</time>
      </trkpt>
      <trkpt lat="44.32883" lon="6.86479">
        <ele>2097.6</ele>
        <time>2022-07-19T11:48:06Z</time>
      </trkpt>
      <trkpt lat="44.32884" lon="6.86481">
        <ele>2097.6</ele>
        <time>2022-07-19T11:48:07Z</time>
      </trkpt>
      <trkpt lat="44.32885" lon="6.86483">
        <ele>2097.8</ele>
        <time>2022-07-19T11:48:08Z</time>
      </trkpt>
      <trkpt lat="44.32886" lon="6.86484">
        <ele>2097.8</ele>
        <time>2022-07-19T11:48:09Z</time>
      </trkpt>
      <trkpt lat="44.32888" lon="6.86486">
        <ele>2097.8</ele>
        <time>2022-07-19T11:48:10Z</time>
      </trkpt>
      <trkpt lat="44.32888" lon="6.86487">
        <ele>2098.2</ele>
        <time>2022-07-19T11:48:11Z</time>
      </trkpt>
      <trkpt lat="44.32889" lon="6.86489">
        <ele>2098.2</ele>
        <time>2022-07-19T11:48:12Z</time>
      </trkpt>
      <trkpt lat="44.32891" lon="6.86491">
        <ele>2098.2</ele>
        <time>2022-07-19T11:48:13Z</time>
      </trkpt>
      <trkpt lat="44.32892" lon="6.86492">
        <ele>2098.4</ele>
        <time>2022-07-19T11:48:14Z</time>
      </trkpt>
      <trkpt lat="44.32893" lon="6.86493">
        <ele>2098.4</ele>
        <time>2022-07-19T11:48:15Z</time>
      </trkpt>
      <trkpt lat="44.32894" lon="6.86495">
        <ele>2098.4</ele>
        <time>2022-07-19T11:48:16Z</time>
      </trkpt>
      <trkpt lat="44.32895" lon="6.86496">
        <ele>2098.6</ele>
        <time>2022-07-19T11:48:17Z</time>
      </trkpt>
      <trkpt lat="44.32896" lon="6.86498">
        <ele>2098.6</ele>
        <time>2022-07-19T11:48:18Z</time>
      </trkpt>
      <trkpt lat="44.32897" lon="6.865">
        <ele>2098.8</ele>
        <time>2022-07-19T11:48:19Z</time>
      </trkpt>
      <trkpt lat="44.32898" lon="6.86502">
        <ele>2098.8</ele>
        <time>2022-07-19T11:48:20Z</time>
      </trkpt>
      <trkpt lat="44.32899" lon="6.86504">
        <ele>2099</ele>
        <time>2022-07-19T11:48:21Z</time>
      </trkpt>
      <trkpt lat="44.329" lon="6.86505">
        <ele>2099.4</ele>
        <time>2022-07-19T11:48:22Z</time>
      </trkpt>
      <trkpt lat="44.32901" lon="6.86507">
        <ele>2099.4</ele>
        <time>2022-07-19T11:48:23Z</time>
      </trkpt>
      <trkpt lat="44.32903" lon="6.86509">
        <ele>2099.6</ele>
        <time>2022-07-19T11:48:24Z</time>
      </trkpt>
      <trkpt lat="44.32904" lon="6.8651">
        <ele>2099.8</ele>
        <time>2022-07-19T11:48:25Z</time>
      </trkpt>
      <trkpt lat="44.32905" lon="6.86512">
        <ele>2099.8</ele>
        <time>2022-07-19T11:48:26Z</time>
      </trkpt>
      <trkpt lat="44.32907" lon="6.86513">
        <ele>2100</ele>
        <time>2022-07-19T11:48:27Z</time>
      </trkpt>
      <trkpt lat="44.32908" lon="6.86515">
        <ele>2100</ele>
        <time>2022-07-19T11:48:28Z</time>
      </trkpt>
      <trkpt lat="44.32909" lon="6.86516">
        <ele>2100</ele>
        <time>2022-07-19T11:48:29Z</time>
      </trkpt>
      <trkpt lat="44.3291" lon="6.86518">
        <ele>2100.4</ele>
        <time>2022-07-19T11:48:30Z</time>
      </trkpt>
      <trkpt lat="44.32912" lon="6.86519">
        <ele>2100.4</ele>
        <time>2022-07-19T11:48:31Z</time>
      </trkpt>
      <trkpt lat="44.32913" lon="6.86521">
        <ele>2100.6</ele>
        <time>2022-07-19T11:48:32Z</time>
      </trkpt>
      <trkpt lat="44.32914" lon="6.86522">
        <ele>2100.6</ele>
        <time>2022-07-19T11:48:33Z</time>
      </trkpt>
      <trkpt lat="44.32915" lon="6.86524">
        <ele>2100.8</ele>
        <time>2022-07-19T11:48:34Z</time>
      </trkpt>
      <trkpt lat="44.32917" lon="6.86525">
        <ele>2100.8</ele>
        <time>2022-07-19T11:48:35Z</time>
      </trkpt>
      <trkpt lat="44.32918" lon="6.86527">
        <ele>2101.2</ele>
        <time>2022-07-19T11:48:36Z</time>
      </trkpt>
      <trkpt lat="44.32919" lon="6.86529">
        <ele>2101.2</ele>
        <time>2022-07-19T11:48:37Z</time>
      </trkpt>
      <trkpt lat="44.32921" lon="6.8653">
        <ele>2101.4</ele>
        <time>2022-07-19T11:48:38Z</time>
      </trkpt>
      <trkpt lat="44.32922" lon="6.86531">
        <ele>2101.4</ele>
        <time>2022-07-19T11:48:39Z</time>
      </trkpt>
      <trkpt lat="44.32924" lon="6.86533">
        <ele>2101.6</ele>
        <time>2022-07-19T11:48:40Z</time>
      </trkpt>
      <trkpt lat="44.32925" lon="6.86534">
        <ele>2101.6</ele>
        <time>2022-07-19T11:48:41Z</time>
      </trkpt>
      <trkpt lat="44.32926" lon="6.86536">
        <ele>2102</ele>
        <time>2022-07-19T11:48:42Z</time>
      </trkpt>
      <trkpt lat="44.32927" lon="6.86538">
        <ele>2102</ele>
        <time>2022-07-19T11:48:43Z</time>
      </trkpt>
      <trkpt lat="44.32928" lon="6.8654">
        <ele>2102.2</ele>
        <time>2022-07-19T11:48:44Z</time>
      </trkpt>
      <trkpt lat="44.3293" lon="6.86541">
        <ele>2102.2</ele>
        <time>2022-07-19T11:48:45Z</time>
      </trkpt>
      <trkpt lat="44.32931" lon="6.86543">
        <ele>2102.6</ele>
        <time>2022-07-19T11:48:46Z</time>
      </trkpt>
      <trkpt lat="44.32932" lon="6.86545">
        <ele>2102.6</ele>
        <time>2022-07-19T11:48:47Z</time>
      </trkpt>
      <trkpt lat="44.32932" lon="6.86547">
        <ele>2102.8</ele>
        <time>2022-07-19T11:48:48Z</time>
      </trkpt>
      <trkpt lat="44.32933" lon="6.86549">
        <ele>2102.8</ele>
        <time>2022-07-19T11:48:49Z</time>
      </trkpt>
      <trkpt lat="44.32934" lon="6.86551">
        <ele>2103.2</ele>
        <time>2022-07-19T11:48:50Z</time>
      </trkpt>
      <trkpt lat="44.32936" lon="6.86553">
        <ele>2103.2</ele>
        <time>2022-07-19T11:48:51Z</time>
      </trkpt>
      <trkpt lat="44.32937" lon="6.86555">
        <ele>2103.4</ele>
        <time>2022-07-19T11:48:52Z</time>
      </trkpt>
      <trkpt lat="44.32938" lon="6.86557">
        <ele>2103.4</ele>
        <time>2022-07-19T11:48:53Z</time>
      </trkpt>
      <trkpt lat="44.32939" lon="6.86558">
        <ele>2103.4</ele>
        <time>2022-07-19T11:48:54Z</time>
      </trkpt>
      <trkpt lat="44.3294" lon="6.8656">
        <ele>2103.6</ele>
        <time>2022-07-19T11:48:55Z</time>
      </trkpt>
      <trkpt lat="44.32941" lon="6.86562">
        <ele>2103.6</ele>
        <time>2022-07-19T11:48:56Z</time>
      </trkpt>
      <trkpt lat="44.32942" lon="6.86564">
        <ele>2104</ele>
        <time>2022-07-19T11:48:57Z</time>
      </trkpt>
      <trkpt lat="44.32943" lon="6.86566">
        <ele>2104</ele>
        <time>2022-07-19T11:48:58Z</time>
      </trkpt>
      <trkpt lat="44.32944" lon="6.86567">
        <ele>2104.4</ele>
        <time>2022-07-19T11:48:59Z</time>
      </trkpt>
      <trkpt lat="44.32945" lon="6.86569">
        <ele>2104.4</ele>
        <time>2022-07-19T11:49:00Z</time>
      </trkpt>
      <trkpt lat="44.32946" lon="6.86571">
        <ele>2104.8</ele>
        <time>2022-07-19T11:49:01Z</time>
      </trkpt>
      <trkpt lat="44.32946" lon="6.86574">
        <ele>2105</ele>
        <time>2022-07-19T11:49:02Z</time>
      </trkpt>
      <trkpt lat="44.32947" lon="6.86576">
        <ele>2105</ele>
        <time>2022-07-19T11:49:03Z</time>
      </trkpt>
      <trkpt lat="44.32948" lon="6.86579">
        <ele>2105.2</ele>
        <time>2022-07-19T11:49:04Z</time>
      </trkpt>
      <trkpt lat="44.32948" lon="6.86581">
        <ele>2105.2</ele>
        <time>2022-07-19T11:49:05Z</time>
      </trkpt>
      <trkpt lat="44.32949" lon="6.86583">
        <ele>2105.6</ele>
        <time>2022-07-19T11:49:06Z</time>
      </trkpt>
      <trkpt lat="44.3295" lon="6.86586">
        <ele>2105.6</ele>
        <time>2022-07-19T11:49:07Z</time>
      </trkpt>
      <trkpt lat="44.32951" lon="6.86588">
        <ele>2105.8</ele>
        <time>2022-07-19T11:49:08Z</time>
      </trkpt>
      <trkpt lat="44.32952" lon="6.8659">
        <ele>2105.8</ele>
        <time>2022-07-19T11:49:09Z</time>
      </trkpt>
      <trkpt lat="44.32953" lon="6.86592">
        <ele>2106.2</ele>
        <time>2022-07-19T11:49:10Z</time>
      </trkpt>
      <trkpt lat="44.32953" lon="6.86594">
        <ele>2106.2</ele>
        <time>2022-07-19T11:49:11Z</time>
      </trkpt>
      <trkpt lat="44.32954" lon="6.86599">
        <ele>2106.4</ele>
        <time>2022-07-19T11:49:12Z</time>
      </trkpt>
      <trkpt lat="44.32955" lon="6.86601">
        <ele>2106.4</ele>
        <time>2022-07-19T11:49:13Z</time>
      </trkpt>
      <trkpt lat="44.32955" lon="6.86603">
        <ele>2106.8</ele>
        <time>2022-07-19T11:49:14Z</time>
      </trkpt>
      <trkpt lat="44.32956" lon="6.86606">
        <ele>2106.8</ele>
        <time>2022-07-19T11:49:15Z</time>
      </trkpt>
      <trkpt lat="44.32957" lon="6.86608">
        <ele>2107</ele>
        <time>2022-07-19T11:49:16Z</time>
      </trkpt>
      <trkpt lat="44.32958" lon="6.8661">
        <ele>2107</ele>
        <time>2022-07-19T11:49:17Z</time>
      </trkpt>
      <trkpt lat="44.32958" lon="6.86612">
        <ele>2107</ele>
        <time>2022-07-19T11:49:18Z</time>
      </trkpt>
      <trkpt lat="44.32959" lon="6.86614">
        <ele>2107.4</ele>
        <time>2022-07-19T11:49:19Z</time>
      </trkpt>
      <trkpt lat="44.3296" lon="6.86616">
        <ele>2107.4</ele>
        <time>2022-07-19T11:49:20Z</time>
      </trkpt>
      <trkpt lat="44.3296" lon="6.86618">
        <ele>2107.4</ele>
        <time>2022-07-19T11:49:21Z</time>
      </trkpt>
      <trkpt lat="44.32961" lon="6.8662">
        <ele>2107.6</ele>
        <time>2022-07-19T11:49:22Z</time>
      </trkpt>
      <trkpt lat="44.32962" lon="6.86622">
        <ele>2107.6</ele>
        <time>2022-07-19T11:49:23Z</time>
      </trkpt>
      <trkpt lat="44.32963" lon="6.86624">
        <ele>2107.8</ele>
        <time>2022-07-19T11:49:24Z</time>
      </trkpt>
      <trkpt lat="44.32963" lon="6.86626">
        <ele>2107.8</ele>
        <time>2022-07-19T11:49:25Z</time>
      </trkpt>
      <trkpt lat="44.32964" lon="6.86628">
        <ele>2108.2</ele>
        <time>2022-07-19T11:49:26Z</time>
      </trkpt>
      <trkpt lat="44.32965" lon="6.8663">
        <ele>2108.2</ele>
        <time>2022-07-19T11:49:27Z</time>
      </trkpt>
      <trkpt lat="44.32965" lon="6.86632">
        <ele>2108.6</ele>
        <time>2022-07-19T11:49:28Z</time>
      </trkpt>
      <trkpt lat="44.32966" lon="6.86635">
        <ele>2108.6</ele>
        <time>2022-07-19T11:49:29Z</time>
      </trkpt>
      <trkpt lat="44.32968" lon="6.86637">
        <ele>2109</ele>
        <time>2022-07-19T11:49:30Z</time>
      </trkpt>
      <trkpt lat="44.32969" lon="6.86639">
        <ele>2109.2</ele>
        <time>2022-07-19T11:49:31Z</time>
      </trkpt>
      <trkpt lat="44.3297" lon="6.86641">
        <ele>2109.2</ele>
        <time>2022-07-19T11:49:32Z</time>
      </trkpt>
      <trkpt lat="44.32971" lon="6.86643">
        <ele>2109.4</ele>
        <time>2022-07-19T11:49:33Z</time>
      </trkpt>
      <trkpt lat="44.32972" lon="6.86646">
        <ele>2109.4</ele>
        <time>2022-07-19T11:49:34Z</time>
      </trkpt>
      <trkpt lat="44.32973" lon="6.86648">
        <ele>2109.8</ele>
        <time>2022-07-19T11:49:35Z</time>
      </trkpt>
      <trkpt lat="44.32974" lon="6.86651">
        <ele>2110</ele>
        <time>2022-07-19T11:49:36Z</time>
      </trkpt>
      <trkpt lat="44.32975" lon="6.86653">
        <ele>2110</ele>
        <time>2022-07-19T11:49:37Z</time>
      </trkpt>
      <trkpt lat="44.32976" lon="6.86655">
        <ele>2110.2</ele>
        <time>2022-07-19T11:49:38Z</time>
      </trkpt>
      <trkpt lat="44.32977" lon="6.86658">
        <ele>2110.2</ele>
        <time>2022-07-19T11:49:39Z</time>
      </trkpt>
      <trkpt lat="44.32978" lon="6.8666">
        <ele>2110.2</ele>
        <time>2022-07-19T11:49:40Z</time>
      </trkpt>
      <trkpt lat="44.32979" lon="6.86662">
        <ele>2110.4</ele>
        <time>2022-07-19T11:49:41Z</time>
      </trkpt>
      <trkpt lat="44.3298" lon="6.86664">
        <ele>2110.4</ele>
        <time>2022-07-19T11:49:42Z</time>
      </trkpt>
      <trkpt lat="44.32981" lon="6.86667">
        <ele>2110.6</ele>
        <time>2022-07-19T11:49:43Z</time>
      </trkpt>
      <trkpt lat="44.32982" lon="6.86669">
        <ele>2110.6</ele>
        <time>2022-07-19T11:49:44Z</time>
      </trkpt>
      <trkpt lat="44.32983" lon="6.86671">
        <ele>2111</ele>
        <time>2022-07-19T11:49:45Z</time>
      </trkpt>
      <trkpt lat="44.32984" lon="6.86673">
        <ele>2111</ele>
        <time>2022-07-19T11:49:46Z</time>
      </trkpt>
      <trkpt lat="44.32985" lon="6.86675">
        <ele>2111.4</ele>
        <time>2022-07-19T11:49:47Z</time>
      </trkpt>
      <trkpt lat="44.32986" lon="6.86677">
        <ele>2111.4</ele>
        <time>2022-07-19T11:49:48Z</time>
      </trkpt>
      <trkpt lat="44.32986" lon="6.86679">
        <ele>2111.6</ele>
        <time>2022-07-19T11:49:49Z</time>
      </trkpt>
      <trkpt lat="44.32987" lon="6.86681">
        <ele>2111.6</ele>
        <time>2022-07-19T11:49:50Z</time>
      </trkpt>
      <trkpt lat="44.32988" lon="6.86683">
        <ele>2112</ele>
        <time>2022-07-19T11:49:51Z</time>
      </trkpt>
      <trkpt lat="44.32988" lon="6.86686">
        <ele>2112</ele>
        <time>2022-07-19T11:49:52Z</time>
      </trkpt>
      <trkpt lat="44.32989" lon="6.86688">
        <ele>2112</ele>
        <time>2022-07-19T11:49:53Z</time>
      </trkpt>
      <trkpt lat="44.32989" lon="6.86691">
        <ele>2112.2</ele>
        <time>2022-07-19T11:49:54Z</time>
      </trkpt>
      <trkpt lat="44.3299" lon="6.86693">
        <ele>2112.2</ele>
        <time>2022-07-19T11:49:55Z</time>
      </trkpt>
      <trkpt lat="44.32991" lon="6.86696">
        <ele>2112.6</ele>
        <time>2022-07-19T11:49:56Z</time>
      </trkpt>
      <trkpt lat="44.32992" lon="6.86698">
        <ele>2112.8</ele>
        <time>2022-07-19T11:49:57Z</time>
      </trkpt>
      <trkpt lat="44.32993" lon="6.867">
        <ele>2112.8</ele>
        <time>2022-07-19T11:49:58Z</time>
      </trkpt>
      <trkpt lat="44.32994" lon="6.86703">
        <ele>2112.8</ele>
        <time>2022-07-19T11:49:59Z</time>
      </trkpt>
      <trkpt lat="44.32995" lon="6.86705">
        <ele>2113</ele>
        <time>2022-07-19T11:50:00Z</time>
      </trkpt>
      <trkpt lat="44.32996" lon="6.86707">
        <ele>2113</ele>
        <time>2022-07-19T11:50:01Z</time>
      </trkpt>
      <trkpt lat="44.32997" lon="6.86709">
        <ele>2113.4</ele>
        <time>2022-07-19T11:50:02Z</time>
      </trkpt>
      <trkpt lat="44.32998" lon="6.86712">
        <ele>2113.4</ele>
        <time>2022-07-19T11:50:03Z</time>
      </trkpt>
      <trkpt lat="44.32999" lon="6.86714">
        <ele>2113.6</ele>
        <time>2022-07-19T11:50:04Z</time>
      </trkpt>
      <trkpt lat="44.32999" lon="6.86716">
        <ele>2113.6</ele>
        <time>2022-07-19T11:50:05Z</time>
      </trkpt>
      <trkpt lat="44.33" lon="6.86719">
        <ele>2113.8</ele>
        <time>2022-07-19T11:50:06Z</time>
      </trkpt>
      <trkpt lat="44.33001" lon="6.86721">
        <ele>2113.8</ele>
        <time>2022-07-19T11:50:07Z</time>
      </trkpt>
      <trkpt lat="44.33002" lon="6.86723">
        <ele>2114</ele>
        <time>2022-07-19T11:50:08Z</time>
      </trkpt>
      <trkpt lat="44.33003" lon="6.86725">
        <ele>2114</ele>
        <time>2022-07-19T11:50:09Z</time>
      </trkpt>
      <trkpt lat="44.33004" lon="6.86728">
        <ele>2114</ele>
        <time>2022-07-19T11:50:10Z</time>
      </trkpt>
      <trkpt lat="44.33005" lon="6.8673">
        <ele>2114.2</ele>
        <time>2022-07-19T11:50:11Z</time>
      </trkpt>
      <trkpt lat="44.33006" lon="6.86732">
        <ele>2114.2</ele>
        <time>2022-07-19T11:50:12Z</time>
      </trkpt>
      <trkpt lat="44.33007" lon="6.86734">
        <ele>2114.2</ele>
        <time>2022-07-19T11:50:13Z</time>
      </trkpt>
      <trkpt lat="44.33008" lon="6.86736">
        <ele>2114.6</ele>
        <time>2022-07-19T11:50:14Z</time>
      </trkpt>
      <trkpt lat="44.33009" lon="6.86738">
        <ele>2114.6</ele>
        <time>2022-07-19T11:50:15Z</time>
      </trkpt>
      <trkpt lat="44.3301" lon="6.8674">
        <ele>2114.8</ele>
        <time>2022-07-19T11:50:16Z</time>
      </trkpt>
      <trkpt lat="44.33011" lon="6.86742">
        <ele>2114.8</ele>
        <time>2022-07-19T11:50:17Z</time>
      </trkpt>
      <trkpt lat="44.33012" lon="6.86744">
        <ele>2114.8</ele>
        <time>2022-07-19T11:50:18Z</time>
      </trkpt>
      <trkpt lat="44.33014" lon="6.86746">
        <ele>2115.2</ele>
        <time>2022-07-19T11:50:19Z</time>
      </trkpt>
      <trkpt lat="44.33015" lon="6.86748">
        <ele>2115.2</ele>
        <time>2022-07-19T11:50:20Z</time>
      </trkpt>
      <trkpt lat="44.33016" lon="6.8675">
        <ele>2115.4</ele>
        <time>2022-07-19T11:50:21Z</time>
      </trkpt>
      <trkpt lat="44.33017" lon="6.86752">
        <ele>2115.4</ele>
        <time>2022-07-19T11:50:22Z</time>
      </trkpt>
      <trkpt lat="44.33019" lon="6.86753">
        <ele>2115.6</ele>
        <time>2022-07-19T11:50:23Z</time>
      </trkpt>
      <trkpt lat="44.3302" lon="6.86756">
        <ele>2115.6</ele>
        <time>2022-07-19T11:50:24Z</time>
      </trkpt>
      <trkpt lat="44.3302" lon="6.86758">
        <ele>2116</ele>
        <time>2022-07-19T11:50:25Z</time>
      </trkpt>
      <trkpt lat="44.3302" lon="6.86761">
        <ele>2116</ele>
        <time>2022-07-19T11:50:26Z</time>
      </trkpt>
      <trkpt lat="44.33021" lon="6.86763">
        <ele>2116.2</ele>
        <time>2022-07-19T11:50:27Z</time>
      </trkpt>
      <trkpt lat="44.33021" lon="6.86766">
        <ele>2116.2</ele>
        <time>2022-07-19T11:50:28Z</time>
      </trkpt>
      <trkpt lat="44.33021" lon="6.86769">
        <ele>2116.6</ele>
        <time>2022-07-19T11:50:29Z</time>
      </trkpt>
      <trkpt lat="44.3302" lon="6.86771">
        <ele>2116.6</ele>
        <time>2022-07-19T11:50:30Z</time>
      </trkpt>
      <trkpt lat="44.33019" lon="6.86773">
        <ele>2116.6</ele>
        <time>2022-07-19T11:50:31Z</time>
      </trkpt>
      <trkpt lat="44.33018" lon="6.86775">
        <ele>2116.8</ele>
        <time>2022-07-19T11:50:32Z</time>
      </trkpt>
      <trkpt lat="44.33017" lon="6.86777">
        <ele>2116.8</ele>
        <time>2022-07-19T11:50:33Z</time>
      </trkpt>
      <trkpt lat="44.33015" lon="6.86779">
        <ele>2116.8</ele>
        <time>2022-07-19T11:50:34Z</time>
      </trkpt>
      <trkpt lat="44.33014" lon="6.8678">
        <ele>2117</ele>
        <time>2022-07-19T11:50:35Z</time>
      </trkpt>
      <trkpt lat="44.33013" lon="6.86782">
        <ele>2117</ele>
        <time>2022-07-19T11:50:36Z</time>
      </trkpt>
      <trkpt lat="44.33012" lon="6.86783">
        <ele>2117</ele>
        <time>2022-07-19T11:50:37Z</time>
      </trkpt>
      <trkpt lat="44.3301" lon="6.86785">
        <ele>2117.4</ele>
        <time>2022-07-19T11:50:38Z</time>
      </trkpt>
      <trkpt lat="44.33009" lon="6.86786">
        <ele>2117.4</ele>
        <time>2022-07-19T11:50:39Z</time>
      </trkpt>
      <trkpt lat="44.33007" lon="6.86787">
        <ele>2117.4</ele>
        <time>2022-07-19T11:50:40Z</time>
      </trkpt>
      <trkpt lat="44.33006" lon="6.86788">
        <ele>2117.4</ele>
        <time>2022-07-19T11:50:41Z</time>
      </trkpt>
      <trkpt lat="44.33004" lon="6.86789">
        <ele>2117.8</ele>
        <time>2022-07-19T11:50:42Z</time>
      </trkpt>
      <trkpt lat="44.33003" lon="6.8679">
        <ele>2117.8</ele>
        <time>2022-07-19T11:50:43Z</time>
      </trkpt>
      <trkpt lat="44.33001" lon="6.86791">
        <ele>2118</ele>
        <time>2022-07-19T11:50:44Z</time>
      </trkpt>
      <trkpt lat="44.32999" lon="6.86792">
        <ele>2118</ele>
        <time>2022-07-19T11:50:45Z</time>
      </trkpt>
      <trkpt lat="44.32997" lon="6.86793">
        <ele>2118.4</ele>
        <time>2022-07-19T11:50:46Z</time>
      </trkpt>
      <trkpt lat="44.32996" lon="6.86794">
        <ele>2118.4</ele>
        <time>2022-07-19T11:50:47Z</time>
      </trkpt>
      <trkpt lat="44.32994" lon="6.86795">
        <ele>2118.6</ele>
        <time>2022-07-19T11:50:48Z</time>
      </trkpt>
      <trkpt lat="44.32992" lon="6.86796">
        <ele>2118.6</ele>
        <time>2022-07-19T11:50:49Z</time>
      </trkpt>
      <trkpt lat="44.32991" lon="6.86797">
        <ele>2118.6</ele>
        <time>2022-07-19T11:50:50Z</time>
      </trkpt>
      <trkpt lat="44.32989" lon="6.86798">
        <ele>2118.8</ele>
        <time>2022-07-19T11:50:51Z</time>
      </trkpt>
      <trkpt lat="44.32988" lon="6.868">
        <ele>2118.8</ele>
        <time>2022-07-19T11:50:52Z</time>
      </trkpt>
      <trkpt lat="44.32986" lon="6.86801">
        <ele>2119.2</ele>
        <time>2022-07-19T11:50:53Z</time>
      </trkpt>
      <trkpt lat="44.32984" lon="6.86802">
        <ele>2119.2</ele>
        <time>2022-07-19T11:50:54Z</time>
      </trkpt>
      <trkpt lat="44.32983" lon="6.86803">
        <ele>2119.2</ele>
        <time>2022-07-19T11:50:55Z</time>
      </trkpt>
      <trkpt lat="44.32981" lon="6.86803">
        <ele>2119.4</ele>
        <time>2022-07-19T11:50:56Z</time>
      </trkpt>
      <trkpt lat="44.3298" lon="6.86804">
        <ele>2119.4</ele>
        <time>2022-07-19T11:50:57Z</time>
      </trkpt>
      <trkpt lat="44.32978" lon="6.86806">
        <ele>2119.6</ele>
        <time>2022-07-19T11:50:58Z</time>
      </trkpt>
      <trkpt lat="44.32976" lon="6.86806">
        <ele>2119.6</ele>
        <time>2022-07-19T11:50:59Z</time>
      </trkpt>
      <trkpt lat="44.32974" lon="6.86807">
        <ele>2119.8</ele>
        <time>2022-07-19T11:51:00Z</time>
      </trkpt>
      <trkpt lat="44.32972" lon="6.86806">
        <ele>2119.8</ele>
        <time>2022-07-19T11:51:01Z</time>
      </trkpt>
      <trkpt lat="44.32971" lon="6.86807">
        <ele>2119.8</ele>
        <time>2022-07-19T11:51:02Z</time>
      </trkpt>
      <trkpt lat="44.32969" lon="6.86807">
        <ele>2119.8</ele>
        <time>2022-07-19T11:51:03Z</time>
      </trkpt>
      <trkpt lat="44.32967" lon="6.86807">
        <ele>2119.8</ele>
        <time>2022-07-19T11:51:04Z</time>
      </trkpt>
      <trkpt lat="44.32965" lon="6.86807">
        <ele>2119.8</ele>
        <time>2022-07-19T11:51:05Z</time>
      </trkpt>
      <trkpt lat="44.32963" lon="6.86808">
        <ele>2119.8</ele>
        <time>2022-07-19T11:51:06Z</time>
      </trkpt>
      <trkpt lat="44.32961" lon="6.86809">
        <ele>2120.2</ele>
        <time>2022-07-19T11:51:07Z</time>
      </trkpt>
      <trkpt lat="44.32959" lon="6.86809">
        <ele>2120.2</ele>
        <time>2022-07-19T11:51:08Z</time>
      </trkpt>
      <trkpt lat="44.32957" lon="6.8681">
        <ele>2120.4</ele>
        <time>2022-07-19T11:51:09Z</time>
      </trkpt>
      <trkpt lat="44.32955" lon="6.86811">
        <ele>2120.4</ele>
        <time>2022-07-19T11:51:10Z</time>
      </trkpt>
      <trkpt lat="44.32953" lon="6.86812">
        <ele>2120.4</ele>
        <time>2022-07-19T11:51:11Z</time>
      </trkpt>
      <trkpt lat="44.32951" lon="6.86812">
        <ele>2120.4</ele>
        <time>2022-07-19T11:51:12Z</time>
      </trkpt>
      <trkpt lat="44.32948" lon="6.86813">
        <ele>2120.4</ele>
        <time>2022-07-19T11:51:13Z</time>
      </trkpt>
      <trkpt lat="44.32946" lon="6.86813">
        <ele>2120.6</ele>
        <time>2022-07-19T11:51:14Z</time>
      </trkpt>
      <trkpt lat="44.32944" lon="6.86814">
        <ele>2120.6</ele>
        <time>2022-07-19T11:51:15Z</time>
      </trkpt>
      <trkpt lat="44.32942" lon="6.86814">
        <ele>2120.6</ele>
        <time>2022-07-19T11:51:16Z</time>
      </trkpt>
      <trkpt lat="44.3294" lon="6.86815">
        <ele>2120.6</ele>
        <time>2022-07-19T11:51:17Z</time>
      </trkpt>
      <trkpt lat="44.32938" lon="6.86815">
        <ele>2120.8</ele>
        <time>2022-07-19T11:51:18Z</time>
      </trkpt>
      <trkpt lat="44.32936" lon="6.86816">
        <ele>2120.8</ele>
        <time>2022-07-19T11:51:19Z</time>
      </trkpt>
      <trkpt lat="44.32934" lon="6.86817">
        <ele>2121.2</ele>
        <time>2022-07-19T11:51:20Z</time>
      </trkpt>
      <trkpt lat="44.32932" lon="6.86818">
        <ele>2121.2</ele>
        <time>2022-07-19T11:51:21Z</time>
      </trkpt>
      <trkpt lat="44.32929" lon="6.86818">
        <ele>2121.2</ele>
        <time>2022-07-19T11:51:22Z</time>
      </trkpt>
      <trkpt lat="44.32927" lon="6.86819">
        <ele>2121.2</ele>
        <time>2022-07-19T11:51:23Z</time>
      </trkpt>
      <trkpt lat="44.32924" lon="6.8682">
        <ele>2121.2</ele>
        <time>2022-07-19T11:51:24Z</time>
      </trkpt>
      <trkpt lat="44.32922" lon="6.8682">
        <ele>2121.2</ele>
        <time>2022-07-19T11:51:25Z</time>
      </trkpt>
      <trkpt lat="44.3292" lon="6.8682">
        <ele>2121.4</ele>
        <time>2022-07-19T11:51:26Z</time>
      </trkpt>
      <trkpt lat="44.32918" lon="6.8682">
        <ele>2121.4</ele>
        <time>2022-07-19T11:51:27Z</time>
      </trkpt>
      <trkpt lat="44.32916" lon="6.8682">
        <ele>2121.4</ele>
        <time>2022-07-19T11:51:28Z</time>
      </trkpt>
      <trkpt lat="44.32914" lon="6.8682">
        <ele>2121.6</ele>
        <time>2022-07-19T11:51:29Z</time>
      </trkpt>
      <trkpt lat="44.32912" lon="6.86819">
        <ele>2121.6</ele>
        <time>2022-07-19T11:51:30Z</time>
      </trkpt>
      <trkpt lat="44.32909" lon="6.86818">
        <ele>2121.6</ele>
        <time>2022-07-19T11:51:31Z</time>
      </trkpt>
      <trkpt lat="44.32907" lon="6.86818">
        <ele>2121.8</ele>
        <time>2022-07-19T11:51:32Z</time>
      </trkpt>
      <trkpt lat="44.32904" lon="6.86816">
        <ele>2121.8</ele>
        <time>2022-07-19T11:51:33Z</time>
      </trkpt>
      <trkpt lat="44.32902" lon="6.86815">
        <ele>2121.8</ele>
        <time>2022-07-19T11:51:34Z</time>
      </trkpt>
      <trkpt lat="44.32899" lon="6.86815">
        <ele>2121.8</ele>
        <time>2022-07-19T11:51:35Z</time>
      </trkpt>
      <trkpt lat="44.32897" lon="6.86813">
        <ele>2122</ele>
        <time>2022-07-19T11:51:36Z</time>
      </trkpt>
      <trkpt lat="44.32894" lon="6.86812">
        <ele>2122</ele>
        <time>2022-07-19T11:51:37Z</time>
      </trkpt>
      <trkpt lat="44.32892" lon="6.8681">
        <ele>2122.4</ele>
        <time>2022-07-19T11:51:38Z</time>
      </trkpt>
      <trkpt lat="44.32889" lon="6.86808">
        <ele>2122.4</ele>
        <time>2022-07-19T11:51:39Z</time>
      </trkpt>
      <trkpt lat="44.32887" lon="6.86806">
        <ele>2122.6</ele>
        <time>2022-07-19T11:51:40Z</time>
      </trkpt>
      <trkpt lat="44.32885" lon="6.86804">
        <ele>2122.6</ele>
        <time>2022-07-19T11:51:41Z</time>
      </trkpt>
      <trkpt lat="44.32882" lon="6.86803">
        <ele>2122.6</ele>
        <time>2022-07-19T11:51:42Z</time>
      </trkpt>
      <trkpt lat="44.3288" lon="6.86802">
        <ele>2122.8</ele>
        <time>2022-07-19T11:51:43Z</time>
      </trkpt>
      <trkpt lat="44.32878" lon="6.86802">
        <ele>2122.8</ele>
        <time>2022-07-19T11:51:44Z</time>
      </trkpt>
      <trkpt lat="44.32875" lon="6.86802">
        <ele>2122.8</ele>
        <time>2022-07-19T11:51:45Z</time>
      </trkpt>
      <trkpt lat="44.32873" lon="6.86802">
        <ele>2123.2</ele>
        <time>2022-07-19T11:51:46Z</time>
      </trkpt>
      <trkpt lat="44.32871" lon="6.86803">
        <ele>2123.2</ele>
        <time>2022-07-19T11:51:47Z</time>
      </trkpt>
      <trkpt lat="44.32869" lon="6.86804">
        <ele>2123.2</ele>
        <time>2022-07-19T11:51:48Z</time>
      </trkpt>
      <trkpt lat="44.32867" lon="6.86806">
        <ele>2123.4</ele>
        <time>2022-07-19T11:51:49Z</time>
      </trkpt>
      <trkpt lat="44.32866" lon="6.86809">
        <ele>2123.4</ele>
        <time>2022-07-19T11:51:50Z</time>
      </trkpt>
      <trkpt lat="44.32866" lon="6.86812">
        <ele>2123.4</ele>
        <time>2022-07-19T11:51:51Z</time>
      </trkpt>
      <trkpt lat="44.32866" lon="6.86815">
        <ele>2123.6</ele>
        <time>2022-07-19T11:51:52Z</time>
      </trkpt>
      <trkpt lat="44.32868" lon="6.86817">
        <ele>2123.6</ele>
        <time>2022-07-19T11:51:53Z</time>
      </trkpt>
      <trkpt lat="44.32869" lon="6.86819">
        <ele>2124</ele>
        <time>2022-07-19T11:51:54Z</time>
      </trkpt>
      <trkpt lat="44.32871" lon="6.86821">
        <ele>2124</ele>
        <time>2022-07-19T11:51:55Z</time>
      </trkpt>
      <trkpt lat="44.32873" lon="6.86823">
        <ele>2124.2</ele>
        <time>2022-07-19T11:51:56Z</time>
      </trkpt>
      <trkpt lat="44.32875" lon="6.86824">
        <ele>2124.2</ele>
        <time>2022-07-19T11:51:57Z</time>
      </trkpt>
      <trkpt lat="44.32877" lon="6.86825">
        <ele>2124.6</ele>
        <time>2022-07-19T11:51:58Z</time>
      </trkpt>
      <trkpt lat="44.32878" lon="6.86826">
        <ele>2124.6</ele>
        <time>2022-07-19T11:51:59Z</time>
      </trkpt>
      <trkpt lat="44.3288" lon="6.86827">
        <ele>2124.6</ele>
        <time>2022-07-19T11:52:00Z</time>
      </trkpt>
      <trkpt lat="44.32882" lon="6.86828">
        <ele>2124.8</ele>
        <time>2022-07-19T11:52:01Z</time>
      </trkpt>
      <trkpt lat="44.32884" lon="6.86829">
        <ele>2124.8</ele>
        <time>2022-07-19T11:52:02Z</time>
      </trkpt>
      <trkpt lat="44.32886" lon="6.8683">
        <ele>2125.2</ele>
        <time>2022-07-19T11:52:03Z</time>
      </trkpt>
      <trkpt lat="44.32888" lon="6.86831">
        <ele>2125.2</ele>
        <time>2022-07-19T11:52:04Z</time>
      </trkpt>
      <trkpt lat="44.3289" lon="6.86831">
        <ele>2125.6</ele>
        <time>2022-07-19T11:52:05Z</time>
      </trkpt>
      <trkpt lat="44.32892" lon="6.86832">
        <ele>2125.6</ele>
        <time>2022-07-19T11:52:06Z</time>
      </trkpt>
      <trkpt lat="44.32894" lon="6.86832">
        <ele>2125.8</ele>
        <time>2022-07-19T11:52:07Z</time>
      </trkpt>
      <trkpt lat="44.32896" lon="6.86833">
        <ele>2126</ele>
        <time>2022-07-19T11:52:08Z</time>
      </trkpt>
      <trkpt lat="44.32898" lon="6.86833">
        <ele>2126</ele>
        <time>2022-07-19T11:52:09Z</time>
      </trkpt>
      <trkpt lat="44.329" lon="6.86834">
        <ele>2126.4</ele>
        <time>2022-07-19T11:52:10Z</time>
      </trkpt>
      <trkpt lat="44.32902" lon="6.86835">
        <ele>2126.4</ele>
        <time>2022-07-19T11:52:11Z</time>
      </trkpt>
      <trkpt lat="44.32904" lon="6.86835">
        <ele>2126.8</ele>
        <time>2022-07-19T11:52:12Z</time>
      </trkpt>
      <trkpt lat="44.32906" lon="6.86837">
        <ele>2126.8</ele>
        <time>2022-07-19T11:52:13Z</time>
      </trkpt>
      <trkpt lat="44.32908" lon="6.86838">
        <ele>2127</ele>
        <time>2022-07-19T11:52:14Z</time>
      </trkpt>
      <trkpt lat="44.3291" lon="6.86839">
        <ele>2127</ele>
        <time>2022-07-19T11:52:15Z</time>
      </trkpt>
      <trkpt lat="44.32911" lon="6.8684">
        <ele>2127.4</ele>
        <time>2022-07-19T11:52:16Z</time>
      </trkpt>
      <trkpt lat="44.32913" lon="6.86841">
        <ele>2127.4</ele>
        <time>2022-07-19T11:52:17Z</time>
      </trkpt>
      <trkpt lat="44.32915" lon="6.86841">
        <ele>2127.6</ele>
        <time>2022-07-19T11:52:18Z</time>
      </trkpt>
      <trkpt lat="44.32917" lon="6.86842">
        <ele>2127.6</ele>
        <time>2022-07-19T11:52:19Z</time>
      </trkpt>
      <trkpt lat="44.32919" lon="6.86843">
        <ele>2128</ele>
        <time>2022-07-19T11:52:20Z</time>
      </trkpt>
      <trkpt lat="44.32921" lon="6.86843">
        <ele>2128</ele>
        <time>2022-07-19T11:52:21Z</time>
      </trkpt>
      <trkpt lat="44.32922" lon="6.86844">
        <ele>2128.2</ele>
        <time>2022-07-19T11:52:22Z</time>
      </trkpt>
      <trkpt lat="44.32924" lon="6.86845">
        <ele>2128.2</ele>
        <time>2022-07-19T11:52:23Z</time>
      </trkpt>
      <trkpt lat="44.32926" lon="6.86846">
        <ele>2128.6</ele>
        <time>2022-07-19T11:52:24Z</time>
      </trkpt>
      <trkpt lat="44.32928" lon="6.86846">
        <ele>2128.6</ele>
        <time>2022-07-19T11:52:25Z</time>
      </trkpt>
      <trkpt lat="44.3293" lon="6.86847">
        <ele>2129</ele>
        <time>2022-07-19T11:52:26Z</time>
      </trkpt>
      <trkpt lat="44.32932" lon="6.86847">
        <ele>2129</ele>
        <time>2022-07-19T11:52:27Z</time>
      </trkpt>
      <trkpt lat="44.32933" lon="6.86847">
        <ele>2129.2</ele>
        <time>2022-07-19T11:52:28Z</time>
      </trkpt>
      <trkpt lat="44.32935" lon="6.86848">
        <ele>2129.2</ele>
        <time>2022-07-19T11:52:29Z</time>
      </trkpt>
      <trkpt lat="44.32937" lon="6.86848">
        <ele>2129.4</ele>
        <time>2022-07-19T11:52:30Z</time>
      </trkpt>
      <trkpt lat="44.32939" lon="6.86849">
        <ele>2129.4</ele>
        <time>2022-07-19T11:52:31Z</time>
      </trkpt>
      <trkpt lat="44.32941" lon="6.86849">
        <ele>2129.4</ele>
        <time>2022-07-19T11:52:32Z</time>
      </trkpt>
      <trkpt lat="44.32943" lon="6.8685">
        <ele>2129.8</ele>
        <time>2022-07-19T11:52:33Z</time>
      </trkpt>
      <trkpt lat="44.32945" lon="6.8685">
        <ele>2130</ele>
        <time>2022-07-19T11:52:34Z</time>
      </trkpt>
      <trkpt lat="44.32947" lon="6.8685">
        <ele>2130</ele>
        <time>2022-07-19T11:52:35Z</time>
      </trkpt>
      <trkpt lat="44.32949" lon="6.8685">
        <ele>2130.4</ele>
        <time>2022-07-19T11:52:36Z</time>
      </trkpt>
      <trkpt lat="44.3295" lon="6.86851">
        <ele>2130.4</ele>
        <time>2022-07-19T11:52:37Z</time>
      </trkpt>
      <trkpt lat="44.32952" lon="6.86851">
        <ele>2130.4</ele>
        <time>2022-07-19T11:52:38Z</time>
      </trkpt>
      <trkpt lat="44.32954" lon="6.86852">
        <ele>2130.6</ele>
        <time>2022-07-19T11:52:39Z</time>
      </trkpt>
      <trkpt lat="44.32956" lon="6.86852">
        <ele>2130.6</ele>
        <time>2022-07-19T11:52:40Z</time>
      </trkpt>
      <trkpt lat="44.32957" lon="6.86853">
        <ele>2131</ele>
        <time>2022-07-19T11:52:41Z</time>
      </trkpt>
      <trkpt lat="44.32959" lon="6.86853">
        <ele>2131</ele>
        <time>2022-07-19T11:52:42Z</time>
      </trkpt>
      <trkpt lat="44.32961" lon="6.86854">
        <ele>2131.2</ele>
        <time>2022-07-19T11:52:43Z</time>
      </trkpt>
      <trkpt lat="44.32963" lon="6.86854">
        <ele>2131.2</ele>
        <time>2022-07-19T11:52:44Z</time>
      </trkpt>
      <trkpt lat="44.32964" lon="6.86855">
        <ele>2131.6</ele>
        <time>2022-07-19T11:52:45Z</time>
      </trkpt>
      <trkpt lat="44.32966" lon="6.86855">
        <ele>2131.6</ele>
        <time>2022-07-19T11:52:46Z</time>
      </trkpt>
      <trkpt lat="44.32968" lon="6.86856">
        <ele>2132</ele>
        <time>2022-07-19T11:52:47Z</time>
      </trkpt>
      <trkpt lat="44.32969" lon="6.86856">
        <ele>2132.2</ele>
        <time>2022-07-19T11:52:48Z</time>
      </trkpt>
      <trkpt lat="44.32971" lon="6.86857">
        <ele>2132.6</ele>
        <time>2022-07-19T11:52:49Z</time>
      </trkpt>
      <trkpt lat="44.32973" lon="6.86858">
        <ele>2132.6</ele>
        <time>2022-07-19T11:52:50Z</time>
      </trkpt>
      <trkpt lat="44.32974" lon="6.86859">
        <ele>2132.8</ele>
        <time>2022-07-19T11:52:51Z</time>
      </trkpt>
      <trkpt lat="44.32976" lon="6.8686">
        <ele>2132.8</ele>
        <time>2022-07-19T11:52:52Z</time>
      </trkpt>
      <trkpt lat="44.32978" lon="6.86861">
        <ele>2133</ele>
        <time>2022-07-19T11:52:53Z</time>
      </trkpt>
      <trkpt lat="44.32979" lon="6.86862">
        <ele>2133</ele>
        <time>2022-07-19T11:52:54Z</time>
      </trkpt>
      <trkpt lat="44.32981" lon="6.86863">
        <ele>2133.4</ele>
        <time>2022-07-19T11:52:55Z</time>
      </trkpt>
      <trkpt lat="44.32983" lon="6.86864">
        <ele>2133.4</ele>
        <time>2022-07-19T11:52:56Z</time>
      </trkpt>
      <trkpt lat="44.32984" lon="6.86864">
        <ele>2133.6</ele>
        <time>2022-07-19T11:52:57Z</time>
      </trkpt>
      <trkpt lat="44.32986" lon="6.86865">
        <ele>2133.6</ele>
        <time>2022-07-19T11:52:58Z</time>
      </trkpt>
      <trkpt lat="44.32988" lon="6.86865">
        <ele>2134</ele>
        <time>2022-07-19T11:52:59Z</time>
      </trkpt>
      <trkpt lat="44.3299" lon="6.86866">
        <ele>2134</ele>
        <time>2022-07-19T11:53:00Z</time>
      </trkpt>
      <trkpt lat="44.32991" lon="6.86867">
        <ele>2134.4</ele>
        <time>2022-07-19T11:53:01Z</time>
      </trkpt>
      <trkpt lat="44.32993" lon="6.86868">
        <ele>2134.4</ele>
        <time>2022-07-19T11:53:02Z</time>
      </trkpt>
      <trkpt lat="44.32995" lon="6.86869">
        <ele>2134.8</ele>
        <time>2022-07-19T11:53:03Z</time>
      </trkpt>
      <trkpt lat="44.32996" lon="6.8687">
        <ele>2134.8</ele>
        <time>2022-07-19T11:53:04Z</time>
      </trkpt>
      <trkpt lat="44.32998" lon="6.86871">
        <ele>2135.2</ele>
        <time>2022-07-19T11:53:05Z</time>
      </trkpt>
      <trkpt lat="44.33" lon="6.86871">
        <ele>2135.2</ele>
        <time>2022-07-19T11:53:06Z</time>
      </trkpt>
      <trkpt lat="44.33002" lon="6.86872">
        <ele>2135.6</ele>
        <time>2022-07-19T11:53:07Z</time>
      </trkpt>
      <trkpt lat="44.33004" lon="6.86872">
        <ele>2135.6</ele>
        <time>2022-07-19T11:53:08Z</time>
      </trkpt>
      <trkpt lat="44.33005" lon="6.86873">
        <ele>2135.6</ele>
        <time>2022-07-19T11:53:09Z</time>
      </trkpt>
      <trkpt lat="44.33007" lon="6.86874">
        <ele>2135.8</ele>
        <time>2022-07-19T11:53:10Z</time>
      </trkpt>
      <trkpt lat="44.33009" lon="6.86874">
        <ele>2135.8</ele>
        <time>2022-07-19T11:53:11Z</time>
      </trkpt>
      <trkpt lat="44.33011" lon="6.86875">
        <ele>2136.2</ele>
        <time>2022-07-19T11:53:12Z</time>
      </trkpt>
      <trkpt lat="44.33012" lon="6.86876">
        <ele>2136.4</ele>
        <time>2022-07-19T11:53:13Z</time>
      </trkpt>
      <trkpt lat="44.33014" lon="6.86876">
        <ele>2136.8</ele>
        <time>2022-07-19T11:53:14Z</time>
      </trkpt>
      <trkpt lat="44.33016" lon="6.86877">
        <ele>2137</ele>
        <time>2022-07-19T11:53:15Z</time>
      </trkpt>
      <trkpt lat="44.33018" lon="6.86877">
        <ele>2137</ele>
        <time>2022-07-19T11:53:16Z</time>
      </trkpt>
      <trkpt lat="44.3302" lon="6.86877">
        <ele>2137</ele>
        <time>2022-07-19T11:53:17Z</time>
      </trkpt>
      <trkpt lat="44.33022" lon="6.86877">
        <ele>2137.2</ele>
        <time>2022-07-19T11:53:18Z</time>
      </trkpt>
      <trkpt lat="44.33024" lon="6.86878">
        <ele>2137.2</ele>
        <time>2022-07-19T11:53:19Z</time>
      </trkpt>
      <trkpt lat="44.33026" lon="6.86879">
        <ele>2137.6</ele>
        <time>2022-07-19T11:53:20Z</time>
      </trkpt>
      <trkpt lat="44.33028" lon="6.8688">
        <ele>2137.8</ele>
        <time>2022-07-19T11:53:21Z</time>
      </trkpt>
      <trkpt lat="44.3303" lon="6.8688">
        <ele>2137.8</ele>
        <time>2022-07-19T11:53:22Z</time>
      </trkpt>
      <trkpt lat="44.33031" lon="6.8688">
        <ele>2138</ele>
        <time>2022-07-19T11:53:23Z</time>
      </trkpt>
      <trkpt lat="44.33033" lon="6.8688">
        <ele>2138</ele>
        <time>2022-07-19T11:53:24Z</time>
      </trkpt>
      <trkpt lat="44.33035" lon="6.8688">
        <ele>2138.4</ele>
        <time>2022-07-19T11:53:25Z</time>
      </trkpt>
      <trkpt lat="44.33037" lon="6.8688">
        <ele>2138.4</ele>
        <time>2022-07-19T11:53:26Z</time>
      </trkpt>
      <trkpt lat="44.33039" lon="6.86879">
        <ele>2138.8</ele>
        <time>2022-07-19T11:53:27Z</time>
      </trkpt>
      <trkpt lat="44.3304" lon="6.86879">
        <ele>2138.8</ele>
        <time>2022-07-19T11:53:28Z</time>
      </trkpt>
      <trkpt lat="44.33042" lon="6.86878">
        <ele>2139</ele>
        <time>2022-07-19T11:53:29Z</time>
      </trkpt>
      <trkpt lat="44.33043" lon="6.86877">
        <ele>2139</ele>
        <time>2022-07-19T11:53:30Z</time>
      </trkpt>
      <trkpt lat="44.33045" lon="6.86876">
        <ele>2139.2</ele>
        <time>2022-07-19T11:53:31Z</time>
      </trkpt>
      <trkpt lat="44.33047" lon="6.86877">
        <ele>2139.2</ele>
        <time>2022-07-19T11:53:32Z</time>
      </trkpt>
      <trkpt lat="44.33049" lon="6.86877">
        <ele>2139.4</ele>
        <time>2022-07-19T11:53:33Z</time>
      </trkpt>
      <trkpt lat="44.3305" lon="6.86876">
        <ele>2139.6</ele>
        <time>2022-07-19T11:53:34Z</time>
      </trkpt>
      <trkpt lat="44.33052" lon="6.86875">
        <ele>2139.8</ele>
        <time>2022-07-19T11:53:35Z</time>
      </trkpt>
      <trkpt lat="44.33054" lon="6.86875">
        <ele>2140</ele>
        <time>2022-07-19T11:53:36Z</time>
      </trkpt>
      <trkpt lat="44.33055" lon="6.86875">
        <ele>2140</ele>
        <time>2022-07-19T11:53:37Z</time>
      </trkpt>
      <trkpt lat="44.33057" lon="6.86874">
        <ele>2140.4</ele>
        <time>2022-07-19T11:53:38Z</time>
      </trkpt>
      <trkpt lat="44.33059" lon="6.86873">
        <ele>2140.4</ele>
        <time>2022-07-19T11:53:39Z</time>
      </trkpt>
      <trkpt lat="44.3306" lon="6.86873">
        <ele>2140.6</ele>
        <time>2022-07-19T11:53:40Z</time>
      </trkpt>
      <trkpt lat="44.33062" lon="6.86871">
        <ele>2140.6</ele>
        <time>2022-07-19T11:53:41Z</time>
      </trkpt>
      <trkpt lat="44.33064" lon="6.8687">
        <ele>2140.6</ele>
        <time>2022-07-19T11:53:42Z</time>
      </trkpt>
      <trkpt lat="44.33065" lon="6.8687">
        <ele>2141</ele>
        <time>2022-07-19T11:53:43Z</time>
      </trkpt>
      <trkpt lat="44.33067" lon="6.86869">
        <ele>2141</ele>
        <time>2022-07-19T11:53:44Z</time>
      </trkpt>
      <trkpt lat="44.33069" lon="6.86868">
        <ele>2141</ele>
        <time>2022-07-19T11:53:45Z</time>
      </trkpt>
      <trkpt lat="44.3307" lon="6.86867">
        <ele>2141.2</ele>
        <time>2022-07-19T11:53:46Z</time>
      </trkpt>
      <trkpt lat="44.33072" lon="6.86867">
        <ele>2141.2</ele>
        <time>2022-07-19T11:53:47Z</time>
      </trkpt>
      <trkpt lat="44.33074" lon="6.86867">
        <ele>2141.6</ele>
        <time>2022-07-19T11:53:48Z</time>
      </trkpt>
      <trkpt lat="44.33076" lon="6.86866">
        <ele>2141.6</ele>
        <time>2022-07-19T11:53:49Z</time>
      </trkpt>
      <trkpt lat="44.33077" lon="6.86866">
        <ele>2141.8</ele>
        <time>2022-07-19T11:53:50Z</time>
      </trkpt>
      <trkpt lat="44.33079" lon="6.86865">
        <ele>2141.8</ele>
        <time>2022-07-19T11:53:51Z</time>
      </trkpt>
      <trkpt lat="44.33081" lon="6.86864">
        <ele>2142</ele>
        <time>2022-07-19T11:53:52Z</time>
      </trkpt>
      <trkpt lat="44.33082" lon="6.86864">
        <ele>2142</ele>
        <time>2022-07-19T11:53:53Z</time>
      </trkpt>
      <trkpt lat="44.33084" lon="6.86864">
        <ele>2142.2</ele>
        <time>2022-07-19T11:53:54Z</time>
      </trkpt>
      <trkpt lat="44.33086" lon="6.86864">
        <ele>2142.2</ele>
        <time>2022-07-19T11:53:55Z</time>
      </trkpt>
      <trkpt lat="44.33087" lon="6.86864">
        <ele>2142.6</ele>
        <time>2022-07-19T11:53:56Z</time>
      </trkpt>
      <trkpt lat="44.33089" lon="6.86864">
        <ele>2142.6</ele>
        <time>2022-07-19T11:53:57Z</time>
      </trkpt>
      <trkpt lat="44.33091" lon="6.86864">
        <ele>2142.8</ele>
        <time>2022-07-19T11:53:58Z</time>
      </trkpt>
      <trkpt lat="44.33093" lon="6.86864">
        <ele>2142.8</ele>
        <time>2022-07-19T11:53:59Z</time>
      </trkpt>
      <trkpt lat="44.33094" lon="6.86864">
        <ele>2143.2</ele>
        <time>2022-07-19T11:54:00Z</time>
      </trkpt>
      <trkpt lat="44.33096" lon="6.86864">
        <ele>2143.2</ele>
        <time>2022-07-19T11:54:01Z</time>
      </trkpt>
      <trkpt lat="44.33098" lon="6.86864">
        <ele>2143.4</ele>
        <time>2022-07-19T11:54:02Z</time>
      </trkpt>
      <trkpt lat="44.331" lon="6.86864">
        <ele>2143.4</ele>
        <time>2022-07-19T11:54:03Z</time>
      </trkpt>
      <trkpt lat="44.33101" lon="6.86864">
        <ele>2143.6</ele>
        <time>2022-07-19T11:54:04Z</time>
      </trkpt>
      <trkpt lat="44.33103" lon="6.86864">
        <ele>2143.6</ele>
        <time>2022-07-19T11:54:05Z</time>
      </trkpt>
      <trkpt lat="44.33105" lon="6.86865">
        <ele>2144</ele>
        <time>2022-07-19T11:54:06Z</time>
      </trkpt>
      <trkpt lat="44.33106" lon="6.86865">
        <ele>2144</ele>
        <time>2022-07-19T11:54:07Z</time>
      </trkpt>
      <trkpt lat="44.33108" lon="6.86865">
        <ele>2144.2</ele>
        <time>2022-07-19T11:54:08Z</time>
      </trkpt>
      <trkpt lat="44.3311" lon="6.86865">
        <ele>2144.2</ele>
        <time>2022-07-19T11:54:09Z</time>
      </trkpt>
      <trkpt lat="44.33112" lon="6.86865">
        <ele>2144.4</ele>
        <time>2022-07-19T11:54:10Z</time>
      </trkpt>
      <trkpt lat="44.33113" lon="6.86865">
        <ele>2144.4</ele>
        <time>2022-07-19T11:54:11Z</time>
      </trkpt>
      <trkpt lat="44.33115" lon="6.86865">
        <ele>2144.6</ele>
        <time>2022-07-19T11:54:12Z</time>
      </trkpt>
      <trkpt lat="44.33117" lon="6.86865">
        <ele>2144.6</ele>
        <time>2022-07-19T11:54:13Z</time>
      </trkpt>
      <trkpt lat="44.33118" lon="6.86864">
        <ele>2145</ele>
        <time>2022-07-19T11:54:14Z</time>
      </trkpt>
      <trkpt lat="44.3312" lon="6.86864">
        <ele>2145</ele>
        <time>2022-07-19T11:54:15Z</time>
      </trkpt>
      <trkpt lat="44.33122" lon="6.86864">
        <ele>2145.2</ele>
        <time>2022-07-19T11:54:16Z</time>
      </trkpt>
      <trkpt lat="44.33123" lon="6.86863">
        <ele>2145.6</ele>
        <time>2022-07-19T11:54:17Z</time>
      </trkpt>
      <trkpt lat="44.33125" lon="6.86862">
        <ele>2145.8</ele>
        <time>2022-07-19T11:54:18Z</time>
      </trkpt>
      <trkpt lat="44.33126" lon="6.86861">
        <ele>2145.8</ele>
        <time>2022-07-19T11:54:19Z</time>
      </trkpt>
      <trkpt lat="44.33127" lon="6.8686">
        <ele>2145.8</ele>
        <time>2022-07-19T11:54:20Z</time>
      </trkpt>
      <trkpt lat="44.33129" lon="6.86859">
        <ele>2146.2</ele>
        <time>2022-07-19T11:54:21Z</time>
      </trkpt>
      <trkpt lat="44.3313" lon="6.86858">
        <ele>2146.2</ele>
        <time>2022-07-19T11:54:22Z</time>
      </trkpt>
      <trkpt lat="44.33132" lon="6.86857">
        <ele>2146.4</ele>
        <time>2022-07-19T11:54:23Z</time>
      </trkpt>
      <trkpt lat="44.33134" lon="6.86857">
        <ele>2146.4</ele>
        <time>2022-07-19T11:54:24Z</time>
      </trkpt>
      <trkpt lat="44.33135" lon="6.86856">
        <ele>2146.6</ele>
        <time>2022-07-19T11:54:25Z</time>
      </trkpt>
      <trkpt lat="44.33137" lon="6.86855">
        <ele>2146.6</ele>
        <time>2022-07-19T11:54:26Z</time>
      </trkpt>
      <trkpt lat="44.33138" lon="6.86853">
        <ele>2147</ele>
        <time>2022-07-19T11:54:27Z</time>
      </trkpt>
      <trkpt lat="44.33139" lon="6.86851">
        <ele>2147.2</ele>
        <time>2022-07-19T11:54:28Z</time>
      </trkpt>
      <trkpt lat="44.33141" lon="6.8685">
        <ele>2147.2</ele>
        <time>2022-07-19T11:54:29Z</time>
      </trkpt>
      <trkpt lat="44.33142" lon="6.86849">
        <ele>2147.4</ele>
        <time>2022-07-19T11:54:30Z</time>
      </trkpt>
      <trkpt lat="44.33144" lon="6.86848">
        <ele>2147.4</ele>
        <time>2022-07-19T11:54:31Z</time>
      </trkpt>
      <trkpt lat="44.33146" lon="6.86846">
        <ele>2147.8</ele>
        <time>2022-07-19T11:54:32Z</time>
      </trkpt>
      <trkpt lat="44.33147" lon="6.86845">
        <ele>2147.8</ele>
        <time>2022-07-19T11:54:33Z</time>
      </trkpt>
      <trkpt lat="44.33149" lon="6.86844">
        <ele>2148.2</ele>
        <time>2022-07-19T11:54:34Z</time>
      </trkpt>
      <trkpt lat="44.3315" lon="6.86842">
        <ele>2148.2</ele>
        <time>2022-07-19T11:54:35Z</time>
      </trkpt>
      <trkpt lat="44.33152" lon="6.86841">
        <ele>2148.6</ele>
        <time>2022-07-19T11:54:36Z</time>
      </trkpt>
      <trkpt lat="44.33153" lon="6.86839">
        <ele>2148.6</ele>
        <time>2022-07-19T11:54:37Z</time>
      </trkpt>
      <trkpt lat="44.33155" lon="6.86838">
        <ele>2148.6</ele>
        <time>2022-07-19T11:54:38Z</time>
      </trkpt>
      <trkpt lat="44.33156" lon="6.86836">
        <ele>2148.8</ele>
        <time>2022-07-19T11:54:39Z</time>
      </trkpt>
      <trkpt lat="44.33157" lon="6.86835">
        <ele>2148.8</ele>
        <time>2022-07-19T11:54:40Z</time>
      </trkpt>
      <trkpt lat="44.33159" lon="6.86834">
        <ele>2149</ele>
        <time>2022-07-19T11:54:41Z</time>
      </trkpt>
      <trkpt lat="44.3316" lon="6.86832">
        <ele>2149</ele>
        <time>2022-07-19T11:54:42Z</time>
      </trkpt>
      <trkpt lat="44.33161" lon="6.86831">
        <ele>2149</ele>
        <time>2022-07-19T11:54:43Z</time>
      </trkpt>
      <trkpt lat="44.33162" lon="6.86829">
        <ele>2149.2</ele>
        <time>2022-07-19T11:54:44Z</time>
      </trkpt>
      <trkpt lat="44.33163" lon="6.86827">
        <ele>2149.2</ele>
        <time>2022-07-19T11:54:45Z</time>
      </trkpt>
      <trkpt lat="44.33164" lon="6.86825">
        <ele>2149.6</ele>
        <time>2022-07-19T11:54:46Z</time>
      </trkpt>
      <trkpt lat="44.33166" lon="6.86824">
        <ele>2149.6</ele>
        <time>2022-07-19T11:54:47Z</time>
      </trkpt>
      <trkpt lat="44.33167" lon="6.86822">
        <ele>2149.8</ele>
        <time>2022-07-19T11:54:48Z</time>
      </trkpt>
      <trkpt lat="44.33168" lon="6.8682">
        <ele>2150</ele>
        <time>2022-07-19T11:54:50Z</time>
      </trkpt>
      <trkpt lat="44.33169" lon="6.86819">
        <ele>2150</ele>
        <time>2022-07-19T11:54:51Z</time>
      </trkpt>
      <trkpt lat="44.33171" lon="6.86817">
        <ele>2150.4</ele>
        <time>2022-07-19T11:54:52Z</time>
      </trkpt>
      <trkpt lat="44.33172" lon="6.86816">
        <ele>2150.4</ele>
        <time>2022-07-19T11:54:53Z</time>
      </trkpt>
      <trkpt lat="44.33173" lon="6.86814">
        <ele>2150.6</ele>
        <time>2022-07-19T11:54:54Z</time>
      </trkpt>
      <trkpt lat="44.33174" lon="6.86813">
        <ele>2150.6</ele>
        <time>2022-07-19T11:54:55Z</time>
      </trkpt>
      <trkpt lat="44.33175" lon="6.86811">
        <ele>2151</ele>
        <time>2022-07-19T11:54:56Z</time>
      </trkpt>
      <trkpt lat="44.33176" lon="6.86809">
        <ele>2151</ele>
        <time>2022-07-19T11:54:57Z</time>
      </trkpt>
      <trkpt lat="44.33177" lon="6.86807">
        <ele>2151.2</ele>
        <time>2022-07-19T11:54:58Z</time>
      </trkpt>
      <trkpt lat="44.33178" lon="6.86805">
        <ele>2151.2</ele>
        <time>2022-07-19T11:54:59Z</time>
      </trkpt>
      <trkpt lat="44.33179" lon="6.86803">
        <ele>2151.4</ele>
        <time>2022-07-19T11:55:00Z</time>
      </trkpt>
      <trkpt lat="44.3318" lon="6.86801">
        <ele>2151.6</ele>
        <time>2022-07-19T11:55:01Z</time>
      </trkpt>
      <trkpt lat="44.33181" lon="6.86799">
        <ele>2151.6</ele>
        <time>2022-07-19T11:55:02Z</time>
      </trkpt>
      <trkpt lat="44.33182" lon="6.86797">
        <ele>2152</ele>
        <time>2022-07-19T11:55:03Z</time>
      </trkpt>
      <trkpt lat="44.33183" lon="6.86795">
        <ele>2152</ele>
        <time>2022-07-19T11:55:04Z</time>
      </trkpt>
      <trkpt lat="44.33185" lon="6.86793">
        <ele>2152.2</ele>
        <time>2022-07-19T11:55:05Z</time>
      </trkpt>
      <trkpt lat="44.33185" lon="6.86791">
        <ele>2152.2</ele>
        <time>2022-07-19T11:55:06Z</time>
      </trkpt>
      <trkpt lat="44.33186" lon="6.86789">
        <ele>2152.6</ele>
        <time>2022-07-19T11:55:07Z</time>
      </trkpt>
      <trkpt lat="44.33187" lon="6.86786">
        <ele>2152.8</ele>
        <time>2022-07-19T11:55:08Z</time>
      </trkpt>
      <trkpt lat="44.33187" lon="6.86784">
        <ele>2152.8</ele>
        <time>2022-07-19T11:55:09Z</time>
      </trkpt>
      <trkpt lat="44.33188" lon="6.86781">
        <ele>2152.8</ele>
        <time>2022-07-19T11:55:10Z</time>
      </trkpt>
      <trkpt lat="44.33188" lon="6.86779">
        <ele>2153</ele>
        <time>2022-07-19T11:55:11Z</time>
      </trkpt>
      <trkpt lat="44.33187" lon="6.86777">
        <ele>2153</ele>
        <time>2022-07-19T11:55:12Z</time>
      </trkpt>
      <trkpt lat="44.33187" lon="6.86774">
        <ele>2153.4</ele>
        <time>2022-07-19T11:55:13Z</time>
      </trkpt>
      <trkpt lat="44.33186" lon="6.86771">
        <ele>2153.4</ele>
        <time>2022-07-19T11:55:14Z</time>
      </trkpt>
      <trkpt lat="44.33186" lon="6.86769">
        <ele>2153.8</ele>
        <time>2022-07-19T11:55:15Z</time>
      </trkpt>
      <trkpt lat="44.33186" lon="6.86766">
        <ele>2154</ele>
        <time>2022-07-19T11:55:16Z</time>
      </trkpt>
      <trkpt lat="44.33186" lon="6.86764">
        <ele>2154</ele>
        <time>2022-07-19T11:55:17Z</time>
      </trkpt>
      <trkpt lat="44.33186" lon="6.86761">
        <ele>2154.2</ele>
        <time>2022-07-19T11:55:18Z</time>
      </trkpt>
      <trkpt lat="44.33186" lon="6.86759">
        <ele>2154.2</ele>
        <time>2022-07-19T11:55:19Z</time>
      </trkpt>
      <trkpt lat="44.33186" lon="6.86756">
        <ele>2154.2</ele>
        <time>2022-07-19T11:55:20Z</time>
      </trkpt>
      <trkpt lat="44.33185" lon="6.86754">
        <ele>2154.4</ele>
        <time>2022-07-19T11:55:21Z</time>
      </trkpt>
      <trkpt lat="44.33184" lon="6.86751">
        <ele>2154.4</ele>
        <time>2022-07-19T11:55:22Z</time>
      </trkpt>
      <trkpt lat="44.33184" lon="6.86749">
        <ele>2154.8</ele>
        <time>2022-07-19T11:55:23Z</time>
      </trkpt>
      <trkpt lat="44.33183" lon="6.86746">
        <ele>2154.8</ele>
        <time>2022-07-19T11:55:24Z</time>
      </trkpt>
      <trkpt lat="44.33183" lon="6.86744">
        <ele>2155.2</ele>
        <time>2022-07-19T11:55:25Z</time>
      </trkpt>
      <trkpt lat="44.33182" lon="6.86741">
        <ele>2155.2</ele>
        <time>2022-07-19T11:55:26Z</time>
      </trkpt>
      <trkpt lat="44.33182" lon="6.86739">
        <ele>2155.6</ele>
        <time>2022-07-19T11:55:27Z</time>
      </trkpt>
      <trkpt lat="44.33181" lon="6.86736">
        <ele>2155.6</ele>
        <time>2022-07-19T11:55:28Z</time>
      </trkpt>
      <trkpt lat="44.33181" lon="6.86734">
        <ele>2155.6</ele>
        <time>2022-07-19T11:55:29Z</time>
      </trkpt>
      <trkpt lat="44.3318" lon="6.86731">
        <ele>2155.8</ele>
        <time>2022-07-19T11:55:30Z</time>
      </trkpt>
      <trkpt lat="44.3318" lon="6.86729">
        <ele>2155.8</ele>
        <time>2022-07-19T11:55:31Z</time>
      </trkpt>
      <trkpt lat="44.33179" lon="6.86726">
        <ele>2155.8</ele>
        <time>2022-07-19T11:55:32Z</time>
      </trkpt>
      <trkpt lat="44.33179" lon="6.86723">
        <ele>2156.2</ele>
        <time>2022-07-19T11:55:33Z</time>
      </trkpt>
      <trkpt lat="44.33178" lon="6.86721">
        <ele>2156.2</ele>
        <time>2022-07-19T11:55:34Z</time>
      </trkpt>
      <trkpt lat="44.33177" lon="6.86719">
        <ele>2156.4</ele>
        <time>2022-07-19T11:55:35Z</time>
      </trkpt>
      <trkpt lat="44.33176" lon="6.86716">
        <ele>2156.4</ele>
        <time>2022-07-19T11:55:36Z</time>
      </trkpt>
      <trkpt lat="44.33175" lon="6.86714">
        <ele>2156.8</ele>
        <time>2022-07-19T11:55:37Z</time>
      </trkpt>
      <trkpt lat="44.33174" lon="6.86712">
        <ele>2156.8</ele>
        <time>2022-07-19T11:55:38Z</time>
      </trkpt>
      <trkpt lat="44.33174" lon="6.8671">
        <ele>2157</ele>
        <time>2022-07-19T11:55:39Z</time>
      </trkpt>
      <trkpt lat="44.33173" lon="6.86707">
        <ele>2157</ele>
        <time>2022-07-19T11:55:40Z</time>
      </trkpt>
      <trkpt lat="44.33172" lon="6.86705">
        <ele>2157.4</ele>
        <time>2022-07-19T11:55:41Z</time>
      </trkpt>
      <trkpt lat="44.33172" lon="6.86702">
        <ele>2157.4</ele>
        <time>2022-07-19T11:55:42Z</time>
      </trkpt>
      <trkpt lat="44.33171" lon="6.867">
        <ele>2157.6</ele>
        <time>2022-07-19T11:55:43Z</time>
      </trkpt>
      <trkpt lat="44.3317" lon="6.86698">
        <ele>2157.6</ele>
        <time>2022-07-19T11:55:44Z</time>
      </trkpt>
      <trkpt lat="44.33169" lon="6.86696">
        <ele>2158</ele>
        <time>2022-07-19T11:55:45Z</time>
      </trkpt>
      <trkpt lat="44.33169" lon="6.86693">
        <ele>2158</ele>
        <time>2022-07-19T11:55:46Z</time>
      </trkpt>
      <trkpt lat="44.33168" lon="6.86691">
        <ele>2158.2</ele>
        <time>2022-07-19T11:55:47Z</time>
      </trkpt>
      <trkpt lat="44.33168" lon="6.86688">
        <ele>2158.2</ele>
        <time>2022-07-19T11:55:48Z</time>
      </trkpt>
      <trkpt lat="44.33167" lon="6.86686">
        <ele>2158.2</ele>
        <time>2022-07-19T11:55:49Z</time>
      </trkpt>
      <trkpt lat="44.33166" lon="6.86684">
        <ele>2158.6</ele>
        <time>2022-07-19T11:55:50Z</time>
      </trkpt>
      <trkpt lat="44.33165" lon="6.86681">
        <ele>2158.6</ele>
        <time>2022-07-19T11:55:51Z</time>
      </trkpt>
      <trkpt lat="44.33164" lon="6.86679">
        <ele>2158.8</ele>
        <time>2022-07-19T11:55:52Z</time>
      </trkpt>
      <trkpt lat="44.33164" lon="6.86677">
        <ele>2158.8</ele>
        <time>2022-07-19T11:55:53Z</time>
      </trkpt>
      <trkpt lat="44.33163" lon="6.86674">
        <ele>2159.2</ele>
        <time>2022-07-19T11:55:54Z</time>
      </trkpt>
      <trkpt lat="44.33163" lon="6.86672">
        <ele>2159.4</ele>
        <time>2022-07-19T11:55:55Z</time>
      </trkpt>
      <trkpt lat="44.33163" lon="6.86669">
        <ele>2159.6</ele>
        <time>2022-07-19T11:55:56Z</time>
      </trkpt>
      <trkpt lat="44.33163" lon="6.86666">
        <ele>2159.6</ele>
        <time>2022-07-19T11:55:57Z</time>
      </trkpt>
      <trkpt lat="44.33163" lon="6.86664">
        <ele>2160</ele>
        <time>2022-07-19T11:55:58Z</time>
      </trkpt>
      <trkpt lat="44.33163" lon="6.86661">
        <ele>2160.4</ele>
        <time>2022-07-19T11:55:59Z</time>
      </trkpt>
      <trkpt lat="44.33164" lon="6.86659">
        <ele>2160.6</ele>
        <time>2022-07-19T11:56:00Z</time>
      </trkpt>
      <trkpt lat="44.33165" lon="6.86656">
        <ele>2160.8</ele>
        <time>2022-07-19T11:56:01Z</time>
      </trkpt>
      <trkpt lat="44.33166" lon="6.86655">
        <ele>2161.2</ele>
        <time>2022-07-19T11:56:02Z</time>
      </trkpt>
      <trkpt lat="44.33168" lon="6.86653">
        <ele>2161.2</ele>
        <time>2022-07-19T11:56:03Z</time>
      </trkpt>
      <trkpt lat="44.3317" lon="6.86652">
        <ele>2161.6</ele>
        <time>2022-07-19T11:56:04Z</time>
      </trkpt>
      <trkpt lat="44.33172" lon="6.86651">
        <ele>2161.6</ele>
        <time>2022-07-19T11:56:05Z</time>
      </trkpt>
      <trkpt lat="44.33173" lon="6.86652">
        <ele>2161.8</ele>
        <time>2022-07-19T11:56:06Z</time>
      </trkpt>
      <trkpt lat="44.33175" lon="6.86653">
        <ele>2161.8</ele>
        <time>2022-07-19T11:56:07Z</time>
      </trkpt>
      <trkpt lat="44.33177" lon="6.86655">
        <ele>2162</ele>
        <time>2022-07-19T11:56:08Z</time>
      </trkpt>
      <trkpt lat="44.33178" lon="6.86658">
        <ele>2162</ele>
        <time>2022-07-19T11:56:09Z</time>
      </trkpt>
      <trkpt lat="44.33179" lon="6.86661">
        <ele>2162</ele>
        <time>2022-07-19T11:56:10Z</time>
      </trkpt>
      <trkpt lat="44.3318" lon="6.86664">
        <ele>2162</ele>
        <time>2022-07-19T11:56:11Z</time>
      </trkpt>
      <trkpt lat="44.33181" lon="6.86667">
        <ele>2162</ele>
        <time>2022-07-19T11:56:12Z</time>
      </trkpt>
      <trkpt lat="44.33182" lon="6.86669">
        <ele>2162.2</ele>
        <time>2022-07-19T11:56:13Z</time>
      </trkpt>
      <trkpt lat="44.33183" lon="6.86672">
        <ele>2162.2</ele>
        <time>2022-07-19T11:56:14Z</time>
      </trkpt>
      <trkpt lat="44.33183" lon="6.86675">
        <ele>2162.2</ele>
        <time>2022-07-19T11:56:15Z</time>
      </trkpt>
      <trkpt lat="44.33184" lon="6.86678">
        <ele>2162.2</ele>
        <time>2022-07-19T11:56:16Z</time>
      </trkpt>
      <trkpt lat="44.33185" lon="6.86681">
        <ele>2162.4</ele>
        <time>2022-07-19T11:56:17Z</time>
      </trkpt>
      <trkpt lat="44.33186" lon="6.86684">
        <ele>2162.4</ele>
        <time>2022-07-19T11:56:18Z</time>
      </trkpt>
      <trkpt lat="44.33187" lon="6.86686">
        <ele>2162.8</ele>
        <time>2022-07-19T11:56:19Z</time>
      </trkpt>
      <trkpt lat="44.33189" lon="6.86689">
        <ele>2162.8</ele>
        <time>2022-07-19T11:56:20Z</time>
      </trkpt>
      <trkpt lat="44.3319" lon="6.86691">
        <ele>2163</ele>
        <time>2022-07-19T11:56:21Z</time>
      </trkpt>
      <trkpt lat="44.33191" lon="6.86693">
        <ele>2163</ele>
        <time>2022-07-19T11:56:22Z</time>
      </trkpt>
      <trkpt lat="44.33193" lon="6.86695">
        <ele>2163.2</ele>
        <time>2022-07-19T11:56:23Z</time>
      </trkpt>
      <trkpt lat="44.33194" lon="6.86698">
        <ele>2163.2</ele>
        <time>2022-07-19T11:56:24Z</time>
      </trkpt>
      <trkpt lat="44.33195" lon="6.867">
        <ele>2163.4</ele>
        <time>2022-07-19T11:56:25Z</time>
      </trkpt>
      <trkpt lat="44.33196" lon="6.86701">
        <ele>2163.4</ele>
        <time>2022-07-19T11:56:26Z</time>
      </trkpt>
      <trkpt lat="44.33198" lon="6.86703">
        <ele>2163.6</ele>
        <time>2022-07-19T11:56:27Z</time>
      </trkpt>
      <trkpt lat="44.332" lon="6.86704">
        <ele>2163.6</ele>
        <time>2022-07-19T11:56:28Z</time>
      </trkpt>
      <trkpt lat="44.33202" lon="6.86706">
        <ele>2163.6</ele>
        <time>2022-07-19T11:56:29Z</time>
      </trkpt>
      <trkpt lat="44.33203" lon="6.86708">
        <ele>2164</ele>
        <time>2022-07-19T11:56:30Z</time>
      </trkpt>
      <trkpt lat="44.33204" lon="6.8671">
        <ele>2164</ele>
        <time>2022-07-19T11:56:31Z</time>
      </trkpt>
      <trkpt lat="44.33205" lon="6.86713">
        <ele>2164</ele>
        <time>2022-07-19T11:56:32Z</time>
      </trkpt>
      <trkpt lat="44.33206" lon="6.86715">
        <ele>2164.2</ele>
        <time>2022-07-19T11:56:33Z</time>
      </trkpt>
      <trkpt lat="44.33208" lon="6.86718">
        <ele>2164.2</ele>
        <time>2022-07-19T11:56:34Z</time>
      </trkpt>
      <trkpt lat="44.33209" lon="6.8672">
        <ele>2164.2</ele>
        <time>2022-07-19T11:56:35Z</time>
      </trkpt>
      <trkpt lat="44.3321" lon="6.86722">
        <ele>2164.4</ele>
        <time>2022-07-19T11:56:36Z</time>
      </trkpt>
      <trkpt lat="44.33211" lon="6.86725">
        <ele>2164.4</ele>
        <time>2022-07-19T11:56:37Z</time>
      </trkpt>
      <trkpt lat="44.33213" lon="6.86727">
        <ele>2164.4</ele>
        <time>2022-07-19T11:56:38Z</time>
      </trkpt>
      <trkpt lat="44.33214" lon="6.86729">
        <ele>2164.6</ele>
        <time>2022-07-19T11:56:39Z</time>
      </trkpt>
      <trkpt lat="44.33216" lon="6.86731">
        <ele>2164.6</ele>
        <time>2022-07-19T11:56:40Z</time>
      </trkpt>
      <trkpt lat="44.33217" lon="6.86733">
        <ele>2165</ele>
        <time>2022-07-19T11:56:41Z</time>
      </trkpt>
      <trkpt lat="44.33219" lon="6.86734">
        <ele>2165</ele>
        <time>2022-07-19T11:56:42Z</time>
      </trkpt>
      <trkpt lat="44.3322" lon="6.86735">
        <ele>2165</ele>
        <time>2022-07-19T11:56:43Z</time>
      </trkpt>
      <trkpt lat="44.33222" lon="6.86737">
        <ele>2165.2</ele>
        <time>2022-07-19T11:56:44Z</time>
      </trkpt>
      <trkpt lat="44.33223" lon="6.86738">
        <ele>2165.2</ele>
        <time>2022-07-19T11:56:45Z</time>
      </trkpt>
      <trkpt lat="44.33225" lon="6.8674">
        <ele>2165.6</ele>
        <time>2022-07-19T11:56:46Z</time>
      </trkpt>
      <trkpt lat="44.33226" lon="6.86741">
        <ele>2165.6</ele>
        <time>2022-07-19T11:56:47Z</time>
      </trkpt>
      <trkpt lat="44.33228" lon="6.86742">
        <ele>2165.6</ele>
        <time>2022-07-19T11:56:48Z</time>
      </trkpt>
      <trkpt lat="44.3323" lon="6.86744">
        <ele>2165.8</ele>
        <time>2022-07-19T11:56:49Z</time>
      </trkpt>
      <trkpt lat="44.33231" lon="6.86745">
        <ele>2165.8</ele>
        <time>2022-07-19T11:56:50Z</time>
      </trkpt>
      <trkpt lat="44.33233" lon="6.86746">
        <ele>2166.2</ele>
        <time>2022-07-19T11:56:51Z</time>
      </trkpt>
      <trkpt lat="44.33234" lon="6.86746">
        <ele>2166.2</ele>
        <time>2022-07-19T11:56:52Z</time>
      </trkpt>
      <trkpt lat="44.33236" lon="6.86745">
        <ele>2166.2</ele>
        <time>2022-07-19T11:56:53Z</time>
      </trkpt>
      <trkpt lat="44.33238" lon="6.86745">
        <ele>2166.4</ele>
        <time>2022-07-19T11:56:54Z</time>
      </trkpt>
      <trkpt lat="44.3324" lon="6.86744">
        <ele>2166.4</ele>
        <time>2022-07-19T11:56:55Z</time>
      </trkpt>
      <trkpt lat="44.33242" lon="6.86744">
        <ele>2166.4</ele>
        <time>2022-07-19T11:56:56Z</time>
      </trkpt>
      <trkpt lat="44.33244" lon="6.86743">
        <ele>2166.8</ele>
        <time>2022-07-19T11:56:57Z</time>
      </trkpt>
      <trkpt lat="44.33246" lon="6.86743">
        <ele>2166.8</ele>
        <time>2022-07-19T11:56:58Z</time>
      </trkpt>
      <trkpt lat="44.33247" lon="6.86743">
        <ele>2166.8</ele>
        <time>2022-07-19T11:56:59Z</time>
      </trkpt>
      <trkpt lat="44.33249" lon="6.86742">
        <ele>2167</ele>
        <time>2022-07-19T11:57:00Z</time>
      </trkpt>
      <trkpt lat="44.33251" lon="6.86742">
        <ele>2167</ele>
        <time>2022-07-19T11:57:01Z</time>
      </trkpt>
      <trkpt lat="44.33253" lon="6.86742">
        <ele>2167.4</ele>
        <time>2022-07-19T11:57:02Z</time>
      </trkpt>
      <trkpt lat="44.33255" lon="6.86741">
        <ele>2167.4</ele>
        <time>2022-07-19T11:57:03Z</time>
      </trkpt>
      <trkpt lat="44.33256" lon="6.86741">
        <ele>2167.6</ele>
        <time>2022-07-19T11:57:04Z</time>
      </trkpt>
      <trkpt lat="44.33258" lon="6.8674">
        <ele>2167.6</ele>
        <time>2022-07-19T11:57:05Z</time>
      </trkpt>
      <trkpt lat="44.3326" lon="6.8674">
        <ele>2167.8</ele>
        <time>2022-07-19T11:57:06Z</time>
      </trkpt>
      <trkpt lat="44.33261" lon="6.86739">
        <ele>2167.8</ele>
        <time>2022-07-19T11:57:07Z</time>
      </trkpt>
      <trkpt lat="44.33263" lon="6.86739">
        <ele>2167.8</ele>
        <time>2022-07-19T11:57:08Z</time>
      </trkpt>
      <trkpt lat="44.33264" lon="6.86738">
        <ele>2168.2</ele>
        <time>2022-07-19T11:57:09Z</time>
      </trkpt>
      <trkpt lat="44.33266" lon="6.86738">
        <ele>2168.2</ele>
        <time>2022-07-19T11:57:10Z</time>
      </trkpt>
      <trkpt lat="44.33268" lon="6.86738">
        <ele>2168.4</ele>
        <time>2022-07-19T11:57:11Z</time>
      </trkpt>
      <trkpt lat="44.33269" lon="6.86738">
        <ele>2168.4</ele>
        <time>2022-07-19T11:57:12Z</time>
      </trkpt>
      <trkpt lat="44.33271" lon="6.86737">
        <ele>2168.4</ele>
        <time>2022-07-19T11:57:13Z</time>
      </trkpt>
      <trkpt lat="44.33273" lon="6.86737">
        <ele>2168.6</ele>
        <time>2022-07-19T11:57:14Z</time>
      </trkpt>
      <trkpt lat="44.33275" lon="6.86737">
        <ele>2168.6</ele>
        <time>2022-07-19T11:57:15Z</time>
      </trkpt>
      <trkpt lat="44.33277" lon="6.86737">
        <ele>2168.6</ele>
        <time>2022-07-19T11:57:16Z</time>
      </trkpt>
      <trkpt lat="44.33278" lon="6.86737">
        <ele>2169</ele>
        <time>2022-07-19T11:57:17Z</time>
      </trkpt>
      <trkpt lat="44.3328" lon="6.86738">
        <ele>2169</ele>
        <time>2022-07-19T11:57:18Z</time>
      </trkpt>
      <trkpt lat="44.33282" lon="6.86738">
        <ele>2169.4</ele>
        <time>2022-07-19T11:57:19Z</time>
      </trkpt>
      <trkpt lat="44.33284" lon="6.8674">
        <ele>2169.4</ele>
        <time>2022-07-19T11:57:20Z</time>
      </trkpt>
      <trkpt lat="44.33285" lon="6.86741">
        <ele>2169.6</ele>
        <time>2022-07-19T11:57:21Z</time>
      </trkpt>
      <trkpt lat="44.33286" lon="6.86743">
        <ele>2169.6</ele>
        <time>2022-07-19T11:57:22Z</time>
      </trkpt>
      <trkpt lat="44.33288" lon="6.86744">
        <ele>2169.8</ele>
        <time>2022-07-19T11:57:23Z</time>
      </trkpt>
      <trkpt lat="44.3329" lon="6.86746">
        <ele>2169.8</ele>
        <time>2022-07-19T11:57:24Z</time>
      </trkpt>
      <trkpt lat="44.33291" lon="6.86748">
        <ele>2170.2</ele>
        <time>2022-07-19T11:57:25Z</time>
      </trkpt>
      <trkpt lat="44.33292" lon="6.8675">
        <ele>2170.2</ele>
        <time>2022-07-19T11:57:26Z</time>
      </trkpt>
      <trkpt lat="44.33292" lon="6.86753">
        <ele>2170.6</ele>
        <time>2022-07-19T11:57:27Z</time>
      </trkpt>
      <trkpt lat="44.33294" lon="6.86758">
        <ele>2170.6</ele>
        <time>2022-07-19T11:57:28Z</time>
      </trkpt>
      <trkpt lat="44.33294" lon="6.86761">
        <ele>2170.8</ele>
        <time>2022-07-19T11:57:29Z</time>
      </trkpt>
      <trkpt lat="44.33295" lon="6.86763">
        <ele>2170.8</ele>
        <time>2022-07-19T11:57:30Z</time>
      </trkpt>
      <trkpt lat="44.33295" lon="6.86766">
        <ele>2171</ele>
        <time>2022-07-19T11:57:31Z</time>
      </trkpt>
      <trkpt lat="44.33295" lon="6.86768">
        <ele>2171.4</ele>
        <time>2022-07-19T11:57:32Z</time>
      </trkpt>
      <trkpt lat="44.33296" lon="6.86771">
        <ele>2171.4</ele>
        <time>2022-07-19T11:57:33Z</time>
      </trkpt>
      <trkpt lat="44.33296" lon="6.86773">
        <ele>2171.6</ele>
        <time>2022-07-19T11:57:34Z</time>
      </trkpt>
      <trkpt lat="44.33297" lon="6.86776">
        <ele>2171.6</ele>
        <time>2022-07-19T11:57:35Z</time>
      </trkpt>
      <trkpt lat="44.33297" lon="6.86778">
        <ele>2172</ele>
        <time>2022-07-19T11:57:36Z</time>
      </trkpt>
      <trkpt lat="44.33297" lon="6.86781">
        <ele>2172.2</ele>
        <time>2022-07-19T11:57:37Z</time>
      </trkpt>
      <trkpt lat="44.33297" lon="6.86783">
        <ele>2172.4</ele>
        <time>2022-07-19T11:57:38Z</time>
      </trkpt>
      <trkpt lat="44.33298" lon="6.86785">
        <ele>2172.4</ele>
        <time>2022-07-19T11:57:39Z</time>
      </trkpt>
      <trkpt lat="44.33298" lon="6.86788">
        <ele>2172.8</ele>
        <time>2022-07-19T11:57:40Z</time>
      </trkpt>
      <trkpt lat="44.33298" lon="6.86791">
        <ele>2172.8</ele>
        <time>2022-07-19T11:57:41Z</time>
      </trkpt>
      <trkpt lat="44.33298" lon="6.86793">
        <ele>2173</ele>
        <time>2022-07-19T11:57:42Z</time>
      </trkpt>
      <trkpt lat="44.33298" lon="6.86796">
        <ele>2173</ele>
        <time>2022-07-19T11:57:43Z</time>
      </trkpt>
      <trkpt lat="44.33298" lon="6.86798">
        <ele>2173.4</ele>
        <time>2022-07-19T11:57:44Z</time>
      </trkpt>
      <trkpt lat="44.33297" lon="6.86801">
        <ele>2173.4</ele>
        <time>2022-07-19T11:57:45Z</time>
      </trkpt>
      <trkpt lat="44.33297" lon="6.86803">
        <ele>2173.8</ele>
        <time>2022-07-19T11:57:46Z</time>
      </trkpt>
      <trkpt lat="44.33297" lon="6.86805">
        <ele>2173.8</ele>
        <time>2022-07-19T11:57:47Z</time>
      </trkpt>
      <trkpt lat="44.33296" lon="6.86807">
        <ele>2174.2</ele>
        <time>2022-07-19T11:57:48Z</time>
      </trkpt>
      <trkpt lat="44.33295" lon="6.86809">
        <ele>2174.2</ele>
        <time>2022-07-19T11:57:49Z</time>
      </trkpt>
      <trkpt lat="44.33294" lon="6.86811">
        <ele>2174.6</ele>
        <time>2022-07-19T11:57:50Z</time>
      </trkpt>
      <trkpt lat="44.33293" lon="6.86813">
        <ele>2174.6</ele>
        <time>2022-07-19T11:57:51Z</time>
      </trkpt>
      <trkpt lat="44.33292" lon="6.86815">
        <ele>2174.8</ele>
        <time>2022-07-19T11:57:52Z</time>
      </trkpt>
      <trkpt lat="44.33291" lon="6.86817">
        <ele>2174.8</ele>
        <time>2022-07-19T11:57:53Z</time>
      </trkpt>
      <trkpt lat="44.3329" lon="6.86819">
        <ele>2175.2</ele>
        <time>2022-07-19T11:57:54Z</time>
      </trkpt>
      <trkpt lat="44.33289" lon="6.86821">
        <ele>2175.2</ele>
        <time>2022-07-19T11:57:55Z</time>
      </trkpt>
      <trkpt lat="44.33288" lon="6.86822">
        <ele>2175.2</ele>
        <time>2022-07-19T11:57:56Z</time>
      </trkpt>
      <trkpt lat="44.33286" lon="6.86824">
        <ele>2175.4</ele>
        <time>2022-07-19T11:57:57Z</time>
      </trkpt>
      <trkpt lat="44.33285" lon="6.86825">
        <ele>2175.4</ele>
        <time>2022-07-19T11:57:58Z</time>
      </trkpt>
      <trkpt lat="44.33284" lon="6.86827">
        <ele>2175.4</ele>
        <time>2022-07-19T11:57:59Z</time>
      </trkpt>
      <trkpt lat="44.33282" lon="6.86829">
        <ele>2175.6</ele>
        <time>2022-07-19T11:58:00Z</time>
      </trkpt>
      <trkpt lat="44.33281" lon="6.86831">
        <ele>2175.6</ele>
        <time>2022-07-19T11:58:01Z</time>
      </trkpt>
      <trkpt lat="44.3328" lon="6.86833">
        <ele>2176</ele>
        <time>2022-07-19T11:58:02Z</time>
      </trkpt>
      <trkpt lat="44.33278" lon="6.86835">
        <ele>2176</ele>
        <time>2022-07-19T11:58:03Z</time>
      </trkpt>
      <trkpt lat="44.33277" lon="6.86837">
        <ele>2176.4</ele>
        <time>2022-07-19T11:58:04Z</time>
      </trkpt>
      <trkpt lat="44.33277" lon="6.86839">
        <ele>2176.4</ele>
        <time>2022-07-19T11:58:05Z</time>
      </trkpt>
      <trkpt lat="44.33276" lon="6.86842">
        <ele>2176.4</ele>
        <time>2022-07-19T11:58:06Z</time>
      </trkpt>
      <trkpt lat="44.33276" lon="6.86844">
        <ele>2176.6</ele>
        <time>2022-07-19T11:58:07Z</time>
      </trkpt>
      <trkpt lat="44.33275" lon="6.86847">
        <ele>2176.6</ele>
        <time>2022-07-19T11:58:08Z</time>
      </trkpt>
      <trkpt lat="44.33275" lon="6.86849">
        <ele>2177</ele>
        <time>2022-07-19T11:58:09Z</time>
      </trkpt>
      <trkpt lat="44.33275" lon="6.86852">
        <ele>2177</ele>
        <time>2022-07-19T11:58:10Z</time>
      </trkpt>
      <trkpt lat="44.33276" lon="6.86854">
        <ele>2177.2</ele>
        <time>2022-07-19T11:58:11Z</time>
      </trkpt>
      <trkpt lat="44.33277" lon="6.86856">
        <ele>2177.2</ele>
        <time>2022-07-19T11:58:12Z</time>
      </trkpt>
      <trkpt lat="44.33278" lon="6.86858">
        <ele>2177.4</ele>
        <time>2022-07-19T11:58:13Z</time>
      </trkpt>
      <trkpt lat="44.33279" lon="6.8686">
        <ele>2177.4</ele>
        <time>2022-07-19T11:58:14Z</time>
      </trkpt>
      <trkpt lat="44.3328" lon="6.86862">
        <ele>2177.4</ele>
        <time>2022-07-19T11:58:15Z</time>
      </trkpt>
      <trkpt lat="44.33281" lon="6.86864">
        <ele>2177.6</ele>
        <time>2022-07-19T11:58:16Z</time>
      </trkpt>
      <trkpt lat="44.33282" lon="6.86865">
        <ele>2177.6</ele>
        <time>2022-07-19T11:58:17Z</time>
      </trkpt>
      <trkpt lat="44.33284" lon="6.86866">
        <ele>2177.6</ele>
        <time>2022-07-19T11:58:18Z</time>
      </trkpt>
      <trkpt lat="44.33286" lon="6.86867">
        <ele>2178</ele>
        <time>2022-07-19T11:58:19Z</time>
      </trkpt>
      <trkpt lat="44.33288" lon="6.86867">
        <ele>2178</ele>
        <time>2022-07-19T11:58:20Z</time>
      </trkpt>
      <trkpt lat="44.3329" lon="6.86867">
        <ele>2178.2</ele>
        <time>2022-07-19T11:58:21Z</time>
      </trkpt>
      <trkpt lat="44.33291" lon="6.86867">
        <ele>2178.2</ele>
        <time>2022-07-19T11:58:22Z</time>
      </trkpt>
      <trkpt lat="44.33293" lon="6.86866">
        <ele>2178.4</ele>
        <time>2022-07-19T11:58:23Z</time>
      </trkpt>
      <trkpt lat="44.33295" lon="6.86865">
        <ele>2178.4</ele>
        <time>2022-07-19T11:58:24Z</time>
      </trkpt>
      <trkpt lat="44.33296" lon="6.86864">
        <ele>2178.8</ele>
        <time>2022-07-19T11:58:25Z</time>
      </trkpt>
      <trkpt lat="44.33298" lon="6.86863">
        <ele>2178.8</ele>
        <time>2022-07-19T11:58:26Z</time>
      </trkpt>
      <trkpt lat="44.333" lon="6.86863">
        <ele>2179</ele>
        <time>2022-07-19T11:58:27Z</time>
      </trkpt>
      <trkpt lat="44.33302" lon="6.86863">
        <ele>2179</ele>
        <time>2022-07-19T11:58:28Z</time>
      </trkpt>
      <trkpt lat="44.33303" lon="6.86863">
        <ele>2179</ele>
        <time>2022-07-19T11:58:29Z</time>
      </trkpt>
      <trkpt lat="44.33305" lon="6.86863">
        <ele>2179.2</ele>
        <time>2022-07-19T11:58:30Z</time>
      </trkpt>
      <trkpt lat="44.33307" lon="6.86863">
        <ele>2179.2</ele>
        <time>2022-07-19T11:58:31Z</time>
      </trkpt>
      <trkpt lat="44.33309" lon="6.86863">
        <ele>2179.6</ele>
        <time>2022-07-19T11:58:32Z</time>
      </trkpt>
      <trkpt lat="44.3331" lon="6.86863">
        <ele>2179.6</ele>
        <time>2022-07-19T11:58:33Z</time>
      </trkpt>
      <trkpt lat="44.33312" lon="6.86863">
        <ele>2179.6</ele>
        <time>2022-07-19T11:58:34Z</time>
      </trkpt>
      <trkpt lat="44.33313" lon="6.86862">
        <ele>2179.8</ele>
        <time>2022-07-19T11:58:35Z</time>
      </trkpt>
      <trkpt lat="44.33315" lon="6.86862">
        <ele>2179.8</ele>
        <time>2022-07-19T11:58:36Z</time>
      </trkpt>
      <trkpt lat="44.33316" lon="6.86861">
        <ele>2180.2</ele>
        <time>2022-07-19T11:58:37Z</time>
      </trkpt>
      <trkpt lat="44.33318" lon="6.8686">
        <ele>2180.2</ele>
        <time>2022-07-19T11:58:38Z</time>
      </trkpt>
      <trkpt lat="44.33319" lon="6.86858">
        <ele>2180.6</ele>
        <time>2022-07-19T11:58:39Z</time>
      </trkpt>
      <trkpt lat="44.33321" lon="6.86857">
        <ele>2180.6</ele>
        <time>2022-07-19T11:58:40Z</time>
      </trkpt>
      <trkpt lat="44.33322" lon="6.86856">
        <ele>2180.8</ele>
        <time>2022-07-19T11:58:41Z</time>
      </trkpt>
      <trkpt lat="44.33323" lon="6.86855">
        <ele>2180.8</ele>
        <time>2022-07-19T11:58:42Z</time>
      </trkpt>
      <trkpt lat="44.33325" lon="6.86854">
        <ele>2180.8</ele>
        <time>2022-07-19T11:58:43Z</time>
      </trkpt>
      <trkpt lat="44.33327" lon="6.86854">
        <ele>2181</ele>
        <time>2022-07-19T11:58:44Z</time>
      </trkpt>
      <trkpt lat="44.33328" lon="6.86853">
        <ele>2181</ele>
        <time>2022-07-19T11:58:45Z</time>
      </trkpt>
      <trkpt lat="44.33329" lon="6.86852">
        <ele>2181</ele>
        <time>2022-07-19T11:58:46Z</time>
      </trkpt>
      <trkpt lat="44.33331" lon="6.86851">
        <ele>2181.2</ele>
        <time>2022-07-19T11:58:47Z</time>
      </trkpt>
      <trkpt lat="44.33332" lon="6.8685">
        <ele>2181.2</ele>
        <time>2022-07-19T11:58:48Z</time>
      </trkpt>
      <trkpt lat="44.33333" lon="6.86849">
        <ele>2181.2</ele>
        <time>2022-07-19T11:58:49Z</time>
      </trkpt>
      <trkpt lat="44.33335" lon="6.86847">
        <ele>2181.6</ele>
        <time>2022-07-19T11:58:50Z</time>
      </trkpt>
      <trkpt lat="44.33336" lon="6.86846">
        <ele>2181.6</ele>
        <time>2022-07-19T11:58:51Z</time>
      </trkpt>
      <trkpt lat="44.33337" lon="6.86845">
        <ele>2181.8</ele>
        <time>2022-07-19T11:58:52Z</time>
      </trkpt>
      <trkpt lat="44.33338" lon="6.86843">
        <ele>2181.8</ele>
        <time>2022-07-19T11:58:53Z</time>
      </trkpt>
      <trkpt lat="44.33339" lon="6.86841">
        <ele>2182</ele>
        <time>2022-07-19T11:58:54Z</time>
      </trkpt>
      <trkpt lat="44.33339" lon="6.86838">
        <ele>2182</ele>
        <time>2022-07-19T11:58:55Z</time>
      </trkpt>
      <trkpt lat="44.3334" lon="6.86836">
        <ele>2182</ele>
        <time>2022-07-19T11:58:56Z</time>
      </trkpt>
      <trkpt lat="44.33341" lon="6.86834">
        <ele>2182.4</ele>
        <time>2022-07-19T11:58:57Z</time>
      </trkpt>
      <trkpt lat="44.33342" lon="6.86832">
        <ele>2182.4</ele>
        <time>2022-07-19T11:58:58Z</time>
      </trkpt>
      <trkpt lat="44.33342" lon="6.8683">
        <ele>2182.4</ele>
        <time>2022-07-19T11:58:59Z</time>
      </trkpt>
      <trkpt lat="44.33343" lon="6.86827">
        <ele>2182.6</ele>
        <time>2022-07-19T11:59:00Z</time>
      </trkpt>
      <trkpt lat="44.33343" lon="6.86825">
        <ele>2182.6</ele>
        <time>2022-07-19T11:59:01Z</time>
      </trkpt>
      <trkpt lat="44.33344" lon="6.86822">
        <ele>2182.8</ele>
        <time>2022-07-19T11:59:02Z</time>
      </trkpt>
      <trkpt lat="44.33343" lon="6.86819">
        <ele>2182.8</ele>
        <time>2022-07-19T11:59:03Z</time>
      </trkpt>
      <trkpt lat="44.33343" lon="6.86817">
        <ele>2183.2</ele>
        <time>2022-07-19T11:59:04Z</time>
      </trkpt>
      <trkpt lat="44.33343" lon="6.86814">
        <ele>2183.2</ele>
        <time>2022-07-19T11:59:05Z</time>
      </trkpt>
      <trkpt lat="44.33343" lon="6.86811">
        <ele>2183.4</ele>
        <time>2022-07-19T11:59:06Z</time>
      </trkpt>
      <trkpt lat="44.33343" lon="6.86808">
        <ele>2183.4</ele>
        <time>2022-07-19T11:59:07Z</time>
      </trkpt>
      <trkpt lat="44.33343" lon="6.86806">
        <ele>2183.6</ele>
        <time>2022-07-19T11:59:08Z</time>
      </trkpt>
      <trkpt lat="44.33343" lon="6.86803">
        <ele>2183.6</ele>
        <time>2022-07-19T11:59:09Z</time>
      </trkpt>
      <trkpt lat="44.33343" lon="6.868">
        <ele>2184</ele>
        <time>2022-07-19T11:59:10Z</time>
      </trkpt>
      <trkpt lat="44.33342" lon="6.86798">
        <ele>2184</ele>
        <time>2022-07-19T11:59:11Z</time>
      </trkpt>
      <trkpt lat="44.33342" lon="6.86795">
        <ele>2184.2</ele>
        <time>2022-07-19T11:59:12Z</time>
      </trkpt>
      <trkpt lat="44.33341" lon="6.86793">
        <ele>2184.2</ele>
        <time>2022-07-19T11:59:13Z</time>
      </trkpt>
      <trkpt lat="44.33341" lon="6.8679">
        <ele>2184.6</ele>
        <time>2022-07-19T11:59:14Z</time>
      </trkpt>
      <trkpt lat="44.3334" lon="6.86788">
        <ele>2184.8</ele>
        <time>2022-07-19T11:59:15Z</time>
      </trkpt>
      <trkpt lat="44.3334" lon="6.86785">
        <ele>2185.2</ele>
        <time>2022-07-19T11:59:16Z</time>
      </trkpt>
      <trkpt lat="44.3334" lon="6.86783">
        <ele>2185.2</ele>
        <time>2022-07-19T11:59:17Z</time>
      </trkpt>
      <trkpt lat="44.33339" lon="6.86781">
        <ele>2185.4</ele>
        <time>2022-07-19T11:59:18Z</time>
      </trkpt>
      <trkpt lat="44.33339" lon="6.86778">
        <ele>2185.4</ele>
        <time>2022-07-19T11:59:19Z</time>
      </trkpt>
      <trkpt lat="44.33338" lon="6.86775">
        <ele>2185.8</ele>
        <time>2022-07-19T11:59:20Z</time>
      </trkpt>
      <trkpt lat="44.33338" lon="6.86773">
        <ele>2185.8</ele>
        <time>2022-07-19T11:59:21Z</time>
      </trkpt>
      <trkpt lat="44.33337" lon="6.86771">
        <ele>2186.2</ele>
        <time>2022-07-19T11:59:22Z</time>
      </trkpt>
      <trkpt lat="44.33337" lon="6.86768">
        <ele>2186.2</ele>
        <time>2022-07-19T11:59:23Z</time>
      </trkpt>
      <trkpt lat="44.33336" lon="6.86766">
        <ele>2186.4</ele>
        <time>2022-07-19T11:59:24Z</time>
      </trkpt>
      <trkpt lat="44.33336" lon="6.86763">
        <ele>2186.4</ele>
        <time>2022-07-19T11:59:25Z</time>
      </trkpt>
      <trkpt lat="44.33335" lon="6.8676">
        <ele>2186.6</ele>
        <time>2022-07-19T11:59:26Z</time>
      </trkpt>
      <trkpt lat="44.33335" lon="6.86758">
        <ele>2186.6</ele>
        <time>2022-07-19T11:59:27Z</time>
      </trkpt>
      <trkpt lat="44.33334" lon="6.86755">
        <ele>2186.8</ele>
        <time>2022-07-19T11:59:28Z</time>
      </trkpt>
      <trkpt lat="44.33334" lon="6.86753">
        <ele>2186.8</ele>
        <time>2022-07-19T11:59:29Z</time>
      </trkpt>
      <trkpt lat="44.33333" lon="6.8675">
        <ele>2187.2</ele>
        <time>2022-07-19T11:59:30Z</time>
      </trkpt>
      <trkpt lat="44.33333" lon="6.86748">
        <ele>2187.4</ele>
        <time>2022-07-19T11:59:31Z</time>
      </trkpt>
      <trkpt lat="44.33332" lon="6.86745">
        <ele>2187.8</ele>
        <time>2022-07-19T11:59:32Z</time>
      </trkpt>
      <trkpt lat="44.33332" lon="6.86743">
        <ele>2187.8</ele>
        <time>2022-07-19T11:59:33Z</time>
      </trkpt>
      <trkpt lat="44.33331" lon="6.8674">
        <ele>2188</ele>
        <time>2022-07-19T11:59:34Z</time>
      </trkpt>
      <trkpt lat="44.3333" lon="6.86738">
        <ele>2188</ele>
        <time>2022-07-19T11:59:35Z</time>
      </trkpt>
      <trkpt lat="44.33329" lon="6.86736">
        <ele>2188.2</ele>
        <time>2022-07-19T11:59:36Z</time>
      </trkpt>
      <trkpt lat="44.33329" lon="6.86734">
        <ele>2188.2</ele>
        <time>2022-07-19T11:59:37Z</time>
      </trkpt>
      <trkpt lat="44.33329" lon="6.86732">
        <ele>2188.6</ele>
        <time>2022-07-19T11:59:38Z</time>
      </trkpt>
      <trkpt lat="44.33328" lon="6.8673">
        <ele>2188.8</ele>
        <time>2022-07-19T11:59:39Z</time>
      </trkpt>
      <trkpt lat="44.33328" lon="6.86727">
        <ele>2189</ele>
        <time>2022-07-19T11:59:40Z</time>
      </trkpt>
      <trkpt lat="44.33329" lon="6.86725">
        <ele>2189</ele>
        <time>2022-07-19T11:59:41Z</time>
      </trkpt>
      <trkpt lat="44.33329" lon="6.86722">
        <ele>2189.2</ele>
        <time>2022-07-19T11:59:42Z</time>
      </trkpt>
      <trkpt lat="44.33329" lon="6.8672">
        <ele>2189.2</ele>
        <time>2022-07-19T11:59:43Z</time>
      </trkpt>
      <trkpt lat="44.33329" lon="6.86717">
        <ele>2189.4</ele>
        <time>2022-07-19T11:59:44Z</time>
      </trkpt>
      <trkpt lat="44.33329" lon="6.86715">
        <ele>2189.4</ele>
        <time>2022-07-19T11:59:45Z</time>
      </trkpt>
      <trkpt lat="44.33329" lon="6.86712">
        <ele>2189.4</ele>
        <time>2022-07-19T11:59:46Z</time>
      </trkpt>
      <trkpt lat="44.33329" lon="6.8671">
        <ele>2189.8</ele>
        <time>2022-07-19T11:59:47Z</time>
      </trkpt>
      <trkpt lat="44.3333" lon="6.86707">
        <ele>2189.8</ele>
        <time>2022-07-19T11:59:48Z</time>
      </trkpt>
      <trkpt lat="44.3333" lon="6.86705">
        <ele>2190</ele>
        <time>2022-07-19T11:59:49Z</time>
      </trkpt>
      <trkpt lat="44.3333" lon="6.86703">
        <ele>2190</ele>
        <time>2022-07-19T11:59:50Z</time>
      </trkpt>
      <trkpt lat="44.33331" lon="6.86701">
        <ele>2190.4</ele>
        <time>2022-07-19T11:59:51Z</time>
      </trkpt>
      <trkpt lat="44.33331" lon="6.86698">
        <ele>2190.6</ele>
        <time>2022-07-19T11:59:52Z</time>
      </trkpt>
      <trkpt lat="44.33331" lon="6.86696">
        <ele>2190.6</ele>
        <time>2022-07-19T11:59:53Z</time>
      </trkpt>
      <trkpt lat="44.33332" lon="6.86694">
        <ele>2191</ele>
        <time>2022-07-19T11:59:54Z</time>
      </trkpt>
      <trkpt lat="44.33333" lon="6.86692">
        <ele>2191</ele>
        <time>2022-07-19T11:59:55Z</time>
      </trkpt>
      <trkpt lat="44.33333" lon="6.86689">
        <ele>2191.4</ele>
        <time>2022-07-19T11:59:56Z</time>
      </trkpt>
      <trkpt lat="44.33334" lon="6.86687">
        <ele>2191.4</ele>
        <time>2022-07-19T11:59:57Z</time>
      </trkpt>
      <trkpt lat="44.33335" lon="6.86685">
        <ele>2191.6</ele>
        <time>2022-07-19T11:59:58Z</time>
      </trkpt>
      <trkpt lat="44.33335" lon="6.86683">
        <ele>2191.6</ele>
        <time>2022-07-19T11:59:59Z</time>
      </trkpt>
      <trkpt lat="44.33336" lon="6.86681">
        <ele>2191.8</ele>
        <time>2022-07-19T12:00:00Z</time>
      </trkpt>
      <trkpt lat="44.33337" lon="6.86679">
        <ele>2191.8</ele>
        <time>2022-07-19T12:00:01Z</time>
      </trkpt>
      <trkpt lat="44.33338" lon="6.86677">
        <ele>2192</ele>
        <time>2022-07-19T12:00:02Z</time>
      </trkpt>
      <trkpt lat="44.33339" lon="6.86675">
        <ele>2192.2</ele>
        <time>2022-07-19T12:00:03Z</time>
      </trkpt>
      <trkpt lat="44.3334" lon="6.86673">
        <ele>2192.4</ele>
        <time>2022-07-19T12:00:04Z</time>
      </trkpt>
      <trkpt lat="44.33341" lon="6.86672">
        <ele>2192.4</ele>
        <time>2022-07-19T12:00:05Z</time>
      </trkpt>
      <trkpt lat="44.33343" lon="6.8667">
        <ele>2192.8</ele>
        <time>2022-07-19T12:00:06Z</time>
      </trkpt>
      <trkpt lat="44.33344" lon="6.86668">
        <ele>2192.8</ele>
        <time>2022-07-19T12:00:07Z</time>
      </trkpt>
      <trkpt lat="44.33345" lon="6.86667">
        <ele>2193</ele>
        <time>2022-07-19T12:00:08Z</time>
      </trkpt>
      <trkpt lat="44.33346" lon="6.86665">
        <ele>2193</ele>
        <time>2022-07-19T12:00:09Z</time>
      </trkpt>
      <trkpt lat="44.33347" lon="6.86663">
        <ele>2193.4</ele>
        <time>2022-07-19T12:00:10Z</time>
      </trkpt>
      <trkpt lat="44.33348" lon="6.86661">
        <ele>2193.4</ele>
        <time>2022-07-19T12:00:11Z</time>
      </trkpt>
      <trkpt lat="44.33349" lon="6.86659">
        <ele>2193.8</ele>
        <time>2022-07-19T12:00:12Z</time>
      </trkpt>
      <trkpt lat="44.3335" lon="6.86658">
        <ele>2193.8</ele>
        <time>2022-07-19T12:00:13Z</time>
      </trkpt>
      <trkpt lat="44.33352" lon="6.86656">
        <ele>2194</ele>
        <time>2022-07-19T12:00:14Z</time>
      </trkpt>
      <trkpt lat="44.33353" lon="6.86654">
        <ele>2194.4</ele>
        <time>2022-07-19T12:00:15Z</time>
      </trkpt>
      <trkpt lat="44.33353" lon="6.86652">
        <ele>2194.4</ele>
        <time>2022-07-19T12:00:16Z</time>
      </trkpt>
      <trkpt lat="44.33354" lon="6.8665">
        <ele>2194.8</ele>
        <time>2022-07-19T12:00:17Z</time>
      </trkpt>
      <trkpt lat="44.33355" lon="6.86648">
        <ele>2194.8</ele>
        <time>2022-07-19T12:00:18Z</time>
      </trkpt>
      <trkpt lat="44.33356" lon="6.86647">
        <ele>2195</ele>
        <time>2022-07-19T12:00:19Z</time>
      </trkpt>
      <trkpt lat="44.33357" lon="6.86645">
        <ele>2195</ele>
        <time>2022-07-19T12:00:20Z</time>
      </trkpt>
      <trkpt lat="44.33358" lon="6.86643">
        <ele>2195.4</ele>
        <time>2022-07-19T12:00:21Z</time>
      </trkpt>
      <trkpt lat="44.33359" lon="6.86641">
        <ele>2195.4</ele>
        <time>2022-07-19T12:00:22Z</time>
      </trkpt>
      <trkpt lat="44.3336" lon="6.86639">
        <ele>2195.6</ele>
        <time>2022-07-19T12:00:23Z</time>
      </trkpt>
      <trkpt lat="44.33361" lon="6.86637">
        <ele>2195.6</ele>
        <time>2022-07-19T12:00:24Z</time>
      </trkpt>
      <trkpt lat="44.33362" lon="6.86635">
        <ele>2195.8</ele>
        <time>2022-07-19T12:00:25Z</time>
      </trkpt>
      <trkpt lat="44.33364" lon="6.86633">
        <ele>2195.8</ele>
        <time>2022-07-19T12:00:26Z</time>
      </trkpt>
      <trkpt lat="44.33365" lon="6.86631">
        <ele>2195.8</ele>
        <time>2022-07-19T12:00:27Z</time>
      </trkpt>
      <trkpt lat="44.33366" lon="6.86629">
        <ele>2195.8</ele>
        <time>2022-07-19T12:00:28Z</time>
      </trkpt>
      <trkpt lat="44.33366" lon="6.86627">
        <ele>2196</ele>
        <time>2022-07-19T12:00:29Z</time>
      </trkpt>
      <trkpt lat="44.33367" lon="6.86624">
        <ele>2196</ele>
        <time>2022-07-19T12:00:30Z</time>
      </trkpt>
      <trkpt lat="44.33368" lon="6.86622">
        <ele>2196.2</ele>
        <time>2022-07-19T12:00:31Z</time>
      </trkpt>
      <trkpt lat="44.33369" lon="6.86619">
        <ele>2196.2</ele>
        <time>2022-07-19T12:00:32Z</time>
      </trkpt>
      <trkpt lat="44.3337" lon="6.86617">
        <ele>2196.2</ele>
        <time>2022-07-19T12:00:33Z</time>
      </trkpt>
      <trkpt lat="44.33371" lon="6.86614">
        <ele>2196.4</ele>
        <time>2022-07-19T12:00:34Z</time>
      </trkpt>
      <trkpt lat="44.33373" lon="6.86612">
        <ele>2196.4</ele>
        <time>2022-07-19T12:00:35Z</time>
      </trkpt>
      <trkpt lat="44.33374" lon="6.86609">
        <ele>2196.4</ele>
        <time>2022-07-19T12:00:36Z</time>
      </trkpt>
      <trkpt lat="44.33375" lon="6.86606">
        <ele>2196.8</ele>
        <time>2022-07-19T12:00:37Z</time>
      </trkpt>
      <trkpt lat="44.33376" lon="6.86603">
        <ele>2196.8</ele>
        <time>2022-07-19T12:00:38Z</time>
      </trkpt>
      <trkpt lat="44.33377" lon="6.866">
        <ele>2196.8</ele>
        <time>2022-07-19T12:00:39Z</time>
      </trkpt>
      <trkpt lat="44.33378" lon="6.86597">
        <ele>2197</ele>
        <time>2022-07-19T12:00:40Z</time>
      </trkpt>
      <trkpt lat="44.33379" lon="6.86594">
        <ele>2197</ele>
        <time>2022-07-19T12:00:41Z</time>
      </trkpt>
      <trkpt lat="44.3338" lon="6.8659">
        <ele>2197.2</ele>
        <time>2022-07-19T12:00:42Z</time>
      </trkpt>
      <trkpt lat="44.3338" lon="6.86587">
        <ele>2197.2</ele>
        <time>2022-07-19T12:00:43Z</time>
      </trkpt>
      <trkpt lat="44.3338" lon="6.86584">
        <ele>2197.2</ele>
        <time>2022-07-19T12:00:44Z</time>
      </trkpt>
      <trkpt lat="44.3338" lon="6.86581">
        <ele>2197.2</ele>
        <time>2022-07-19T12:00:45Z</time>
      </trkpt>
      <trkpt lat="44.33379" lon="6.86578">
        <ele>2197.6</ele>
        <time>2022-07-19T12:00:46Z</time>
      </trkpt>
      <trkpt lat="44.33379" lon="6.86575">
        <ele>2197.6</ele>
        <time>2022-07-19T12:00:47Z</time>
      </trkpt>
      <trkpt lat="44.33379" lon="6.86571">
        <ele>2197.6</ele>
        <time>2022-07-19T12:00:48Z</time>
      </trkpt>
      <trkpt lat="44.33379" lon="6.86568">
        <ele>2197.8</ele>
        <time>2022-07-19T12:00:49Z</time>
      </trkpt>
      <trkpt lat="44.33379" lon="6.86565">
        <ele>2197.8</ele>
        <time>2022-07-19T12:00:50Z</time>
      </trkpt>
      <trkpt lat="44.33379" lon="6.86563">
        <ele>2198.2</ele>
        <time>2022-07-19T12:00:51Z</time>
      </trkpt>
      <trkpt lat="44.33379" lon="6.8656">
        <ele>2198.2</ele>
        <time>2022-07-19T12:00:52Z</time>
      </trkpt>
      <trkpt lat="44.33379" lon="6.86557">
        <ele>2198.4</ele>
        <time>2022-07-19T12:00:53Z</time>
      </trkpt>
      <trkpt lat="44.33379" lon="6.86554">
        <ele>2198.4</ele>
        <time>2022-07-19T12:00:54Z</time>
      </trkpt>
      <trkpt lat="44.33379" lon="6.86552">
        <ele>2198.6</ele>
        <time>2022-07-19T12:00:55Z</time>
      </trkpt>
      <trkpt lat="44.33379" lon="6.86549">
        <ele>2198.6</ele>
        <time>2022-07-19T12:00:56Z</time>
      </trkpt>
      <trkpt lat="44.33379" lon="6.86546">
        <ele>2199</ele>
        <time>2022-07-19T12:00:57Z</time>
      </trkpt>
      <trkpt lat="44.33379" lon="6.86543">
        <ele>2199</ele>
        <time>2022-07-19T12:00:58Z</time>
      </trkpt>
      <trkpt lat="44.33379" lon="6.86541">
        <ele>2199</ele>
        <time>2022-07-19T12:00:59Z</time>
      </trkpt>
      <trkpt lat="44.33379" lon="6.86538">
        <ele>2199.2</ele>
        <time>2022-07-19T12:01:00Z</time>
      </trkpt>
      <trkpt lat="44.33379" lon="6.86535">
        <ele>2199.2</ele>
        <time>2022-07-19T12:01:01Z</time>
      </trkpt>
      <trkpt lat="44.33379" lon="6.86532">
        <ele>2199.4</ele>
        <time>2022-07-19T12:01:02Z</time>
      </trkpt>
      <trkpt lat="44.33379" lon="6.86529">
        <ele>2199.4</ele>
        <time>2022-07-19T12:01:03Z</time>
      </trkpt>
      <trkpt lat="44.33379" lon="6.86527">
        <ele>2199.4</ele>
        <time>2022-07-19T12:01:04Z</time>
      </trkpt>
      <trkpt lat="44.33378" lon="6.86524">
        <ele>2199.6</ele>
        <time>2022-07-19T12:01:05Z</time>
      </trkpt>
      <trkpt lat="44.33378" lon="6.86521">
        <ele>2199.6</ele>
        <time>2022-07-19T12:01:06Z</time>
      </trkpt>
      <trkpt lat="44.33378" lon="6.86518">
        <ele>2199.8</ele>
        <time>2022-07-19T12:01:07Z</time>
      </trkpt>
      <trkpt lat="44.33378" lon="6.86515">
        <ele>2199.8</ele>
        <time>2022-07-19T12:01:08Z</time>
      </trkpt>
      <trkpt lat="44.33378" lon="6.86512">
        <ele>2200</ele>
        <time>2022-07-19T12:01:09Z</time>
      </trkpt>
      <trkpt lat="44.33378" lon="6.86509">
        <ele>2200</ele>
        <time>2022-07-19T12:01:10Z</time>
      </trkpt>
      <trkpt lat="44.33378" lon="6.86506">
        <ele>2200</ele>
        <time>2022-07-19T12:01:11Z</time>
      </trkpt>
      <trkpt lat="44.33378" lon="6.86503">
        <ele>2200.4</ele>
        <time>2022-07-19T12:01:12Z</time>
      </trkpt>
      <trkpt lat="44.33379" lon="6.865">
        <ele>2200.4</ele>
        <time>2022-07-19T12:01:13Z</time>
      </trkpt>
      <trkpt lat="44.33379" lon="6.86497">
        <ele>2200.4</ele>
        <time>2022-07-19T12:01:14Z</time>
      </trkpt>
      <trkpt lat="44.33378" lon="6.86495">
        <ele>2200.4</ele>
        <time>2022-07-19T12:01:15Z</time>
      </trkpt>
      <trkpt lat="44.33378" lon="6.86492">
        <ele>2200.4</ele>
        <time>2022-07-19T12:01:16Z</time>
      </trkpt>
      <trkpt lat="44.33378" lon="6.8649">
        <ele>2200.6</ele>
        <time>2022-07-19T12:01:17Z</time>
      </trkpt>
      <trkpt lat="44.33378" lon="6.86488">
        <ele>2200.6</ele>
        <time>2022-07-19T12:01:18Z</time>
      </trkpt>
      <trkpt lat="44.33378" lon="6.86485">
        <ele>2200.6</ele>
        <time>2022-07-19T12:01:19Z</time>
      </trkpt>
      <trkpt lat="44.33379" lon="6.86483">
        <ele>2200.6</ele>
        <time>2022-07-19T12:01:20Z</time>
      </trkpt>
      <trkpt lat="44.33379" lon="6.8648">
        <ele>2200.6</ele>
        <time>2022-07-19T12:01:21Z</time>
      </trkpt>
      <trkpt lat="44.33379" lon="6.86478">
        <ele>2200.6</ele>
        <time>2022-07-19T12:01:22Z</time>
      </trkpt>
      <trkpt lat="44.33379" lon="6.86478">
        <ele>2200.6</ele>
        <time>2022-07-19T12:01:23Z</time>
      </trkpt>
      <trkpt lat="44.33379" lon="6.86477">
        <ele>2200.6</ele>
        <time>2022-07-19T12:01:24Z</time>
      </trkpt>
      <trkpt lat="44.33379" lon="6.86477">
        <ele>2200.6</ele>
        <time>2022-07-19T12:01:25Z</time>
      </trkpt>
      <trkpt lat="44.33378" lon="6.86477">
        <ele>2200.6</ele>
        <time>2022-07-19T12:01:26Z</time>
      </trkpt>
      <trkpt lat="44.33378" lon="6.86477">
        <ele>2200.6</ele>
        <time>2022-07-19T12:01:27Z</time>
      </trkpt>
      <trkpt lat="44.33378" lon="6.86477">
        <ele>2200.6</ele>
        <time>2022-07-19T12:01:28Z</time>
      </trkpt>
      <trkpt lat="44.33378" lon="6.86476">
        <ele>2200.6</ele>
        <time>2022-07-19T12:01:29Z</time>
      </trkpt>
      <trkpt lat="44.33378" lon="6.86476">
        <ele>2200.6</ele>
        <time>2022-07-19T12:01:30Z</time>
      </trkpt>
      <trkpt lat="44.33378" lon="6.86476">
        <ele>2200.6</ele>
        <time>2022-07-19T12:01:31Z</time>
      </trkpt>
      <trkpt lat="44.33378" lon="6.86476">
        <ele>2200.6</ele>
        <time>2022-07-19T12:01:32Z</time>
      </trkpt>
      <trkpt lat="44.33378" lon="6.86475">
        <ele>2200.6</ele>
        <time>2022-07-19T12:01:33Z</time>
      </trkpt>
      <trkpt lat="44.33378" lon="6.86475">
        <ele>2200.6</ele>
        <time>2022-07-19T12:01:34Z</time>
      </trkpt>
      <trkpt lat="44.33378" lon="6.86475">
        <ele>2200.6</ele>
        <time>2022-07-19T12:01:35Z</time>
      </trkpt>
      <trkpt lat="44.33378" lon="6.86475">
        <ele>2200.6</ele>
        <time>2022-07-19T12:01:36Z</time>
      </trkpt>
      <trkpt lat="44.33378" lon="6.86475">
        <ele>2200.6</ele>
        <time>2022-07-19T12:01:37Z</time>
      </trkpt>
      <trkpt lat="44.33378" lon="6.86474">
        <ele>2200.6</ele>
        <time>2022-07-19T12:01:38Z</time>
      </trkpt>
      <trkpt lat="44.33378" lon="6.86474">
        <ele>2200.6</ele>
        <time>2022-07-19T12:01:42Z</time>
      </trkpt>
      <trkpt lat="44.33378" lon="6.86474">
        <ele>2200.6</ele>
        <time>2022-07-19T12:01:43Z</time>
      </trkpt>
      <trkpt lat="44.33378" lon="6.86474">
        <ele>2200.6</ele>
        <time>2022-07-19T12:01:50Z</time>
      </trkpt>
      <trkpt lat="44.33378" lon="6.86473">
        <ele>2200.6</ele>
        <time>2022-07-19T12:01:51Z</time>
      </trkpt>
      <trkpt lat="44.33378" lon="6.86473">
        <ele>2201</ele>
        <time>2022-07-19T12:03:34Z</time>
      </trkpt>
      <trkpt lat="44.33378" lon="6.86473">
        <ele>2201</ele>
        <time>2022-07-19T12:03:35Z</time>
      </trkpt>
      <trkpt lat="44.33378" lon="6.86473">
        <ele>2201</ele>
        <time>2022-07-19T12:03:36Z</time>
      </trkpt>
      <trkpt lat="44.33377" lon="6.86473">
        <ele>2201</ele>
        <time>2022-07-19T12:03:37Z</time>
      </trkpt>
      <trkpt lat="44.33377" lon="6.86472">
        <ele>2201</ele>
        <time>2022-07-19T12:03:38Z</time>
      </trkpt>
      <trkpt lat="44.33377" lon="6.86472">
        <ele>2201</ele>
        <time>2022-07-19T12:03:39Z</time>
      </trkpt>
      <trkpt lat="44.33377" lon="6.86472">
        <ele>2201</ele>
        <time>2022-07-19T12:03:40Z</time>
      </trkpt>
      <trkpt lat="44.33377" lon="6.86472">
        <ele>2201</ele>
        <time>2022-07-19T12:03:41Z</time>
      </trkpt>
      <trkpt lat="44.33377" lon="6.86471">
        <ele>2201.2</ele>
        <time>2022-07-19T12:06:11Z</time>
      </trkpt>
      <trkpt lat="44.33377" lon="6.86471">
        <ele>2201.2</ele>
        <time>2022-07-19T12:06:12Z</time>
      </trkpt>
      <trkpt lat="44.33377" lon="6.86471">
        <ele>2201.2</ele>
        <time>2022-07-19T12:06:15Z</time>
      </trkpt>
      <trkpt lat="44.33377" lon="6.86471">
        <ele>2201.2</ele>
        <time>2022-07-19T12:06:16Z</time>
      </trkpt>
      <trkpt lat="44.33377" lon="6.86471">
        <ele>2201</ele>
        <time>2022-07-19T12:07:24Z</time>
      </trkpt>
      <trkpt lat="44.33377" lon="6.8647">
        <ele>2201</ele>
        <time>2022-07-19T12:07:25Z</time>
      </trkpt>
      <trkpt lat="44.33377" lon="6.8647">
        <ele>2201</ele>
        <time>2022-07-19T12:07:26Z</time>
      </trkpt>
      <trkpt lat="44.33377" lon="6.8647">
        <ele>2201</ele>
        <time>2022-07-19T12:07:27Z</time>
      </trkpt>
      <trkpt lat="44.33377" lon="6.8647">
        <ele>2201</ele>
        <time>2022-07-19T12:07:28Z</time>
      </trkpt>
      <trkpt lat="44.33377" lon="6.8647">
        <ele>2201</ele>
        <time>2022-07-19T12:07:29Z</time>
      </trkpt>
      <trkpt lat="44.33377" lon="6.86469">
        <ele>2201.2</ele>
        <time>2022-07-19T12:07:35Z</time>
      </trkpt>
      <trkpt lat="44.33377" lon="6.86469">
        <ele>2201.2</ele>
        <time>2022-07-19T12:07:36Z</time>
      </trkpt>
      <trkpt lat="44.33377" lon="6.86469">
        <ele>2201.2</ele>
        <time>2022-07-19T12:07:37Z</time>
      </trkpt>
      <trkpt lat="44.33377" lon="6.86469">
        <ele>2201.2</ele>
        <time>2022-07-19T12:07:38Z</time>
      </trkpt>
      <trkpt lat="44.33377" lon="6.86468">
        <ele>2201.2</ele>
        <time>2022-07-19T12:07:39Z</time>
      </trkpt>
      <trkpt lat="44.33377" lon="6.86468">
        <ele>2201.2</ele>
        <time>2022-07-19T12:07:40Z</time>
      </trkpt>
      <trkpt lat="44.33376" lon="6.86468">
        <ele>2201.2</ele>
        <time>2022-07-19T12:07:41Z</time>
      </trkpt>
      <trkpt lat="44.33376" lon="6.86468">
        <ele>2201.2</ele>
        <time>2022-07-19T12:07:42Z</time>
      </trkpt>
      <trkpt lat="44.33376" lon="6.86468">
        <ele>2201.2</ele>
        <time>2022-07-19T12:07:43Z</time>
      </trkpt>
      <trkpt lat="44.33377" lon="6.86465">
        <ele>2201.2</ele>
        <time>2022-07-19T12:07:44Z</time>
      </trkpt>
      <trkpt lat="44.33377" lon="6.86462">
        <ele>2201.2</ele>
        <time>2022-07-19T12:07:45Z</time>
      </trkpt>
      <trkpt lat="44.33378" lon="6.86458">
        <ele>2201.2</ele>
        <time>2022-07-19T12:07:46Z</time>
      </trkpt>
      <trkpt lat="44.33379" lon="6.86455">
        <ele>2201.2</ele>
        <time>2022-07-19T12:07:47Z</time>
      </trkpt>
      <trkpt lat="44.33381" lon="6.86451">
        <ele>2201.2</ele>
        <time>2022-07-19T12:07:48Z</time>
      </trkpt>
      <trkpt lat="44.33382" lon="6.86447">
        <ele>2201.2</ele>
        <time>2022-07-19T12:07:49Z</time>
      </trkpt>
      <trkpt lat="44.33384" lon="6.86443">
        <ele>2201.2</ele>
        <time>2022-07-19T12:07:50Z</time>
      </trkpt>
      <trkpt lat="44.33385" lon="6.86439">
        <ele>2201.2</ele>
        <time>2022-07-19T12:07:51Z</time>
      </trkpt>
      <trkpt lat="44.33386" lon="6.86435">
        <ele>2200.8</ele>
        <time>2022-07-19T12:07:52Z</time>
      </trkpt>
      <trkpt lat="44.33387" lon="6.86431">
        <ele>2200.8</ele>
        <time>2022-07-19T12:07:53Z</time>
      </trkpt>
      <trkpt lat="44.33387" lon="6.86426">
        <ele>2200.8</ele>
        <time>2022-07-19T12:07:54Z</time>
      </trkpt>
      <trkpt lat="44.33388" lon="6.86422">
        <ele>2200.8</ele>
        <time>2022-07-19T12:07:55Z</time>
      </trkpt>
      <trkpt lat="44.33389" lon="6.86418">
        <ele>2200.8</ele>
        <time>2022-07-19T12:07:56Z</time>
      </trkpt>
      <trkpt lat="44.3339" lon="6.86413">
        <ele>2200.8</ele>
        <time>2022-07-19T12:07:57Z</time>
      </trkpt>
      <trkpt lat="44.33391" lon="6.86409">
        <ele>2200.8</ele>
        <time>2022-07-19T12:07:58Z</time>
      </trkpt>
      <trkpt lat="44.33391" lon="6.86405">
        <ele>2200.6</ele>
        <time>2022-07-19T12:07:59Z</time>
      </trkpt>
      <trkpt lat="44.33392" lon="6.864">
        <ele>2200.6</ele>
        <time>2022-07-19T12:08:00Z</time>
      </trkpt>
      <trkpt lat="44.33392" lon="6.86395">
        <ele>2200.6</ele>
        <time>2022-07-19T12:08:01Z</time>
      </trkpt>
      <trkpt lat="44.33393" lon="6.8639">
        <ele>2200.4</ele>
        <time>2022-07-19T12:08:02Z</time>
      </trkpt>
      <trkpt lat="44.33393" lon="6.86386">
        <ele>2200.4</ele>
        <time>2022-07-19T12:08:03Z</time>
      </trkpt>
      <trkpt lat="44.33393" lon="6.86381">
        <ele>2200.4</ele>
        <time>2022-07-19T12:08:04Z</time>
      </trkpt>
      <trkpt lat="44.33394" lon="6.86377">
        <ele>2200.4</ele>
        <time>2022-07-19T12:08:05Z</time>
      </trkpt>
      <trkpt lat="44.33395" lon="6.86372">
        <ele>2200.4</ele>
        <time>2022-07-19T12:08:06Z</time>
      </trkpt>
      <trkpt lat="44.33395" lon="6.86366">
        <ele>2200.4</ele>
        <time>2022-07-19T12:08:07Z</time>
      </trkpt>
      <trkpt lat="44.33395" lon="6.86361">
        <ele>2200.4</ele>
        <time>2022-07-19T12:08:08Z</time>
      </trkpt>
      <trkpt lat="44.33394" lon="6.86356">
        <ele>2200.4</ele>
        <time>2022-07-19T12:08:09Z</time>
      </trkpt>
      <trkpt lat="44.33393" lon="6.86351">
        <ele>2200.4</ele>
        <time>2022-07-19T12:08:10Z</time>
      </trkpt>
      <trkpt lat="44.33392" lon="6.86346">
        <ele>2200.6</ele>
        <time>2022-07-19T12:08:11Z</time>
      </trkpt>
      <trkpt lat="44.33391" lon="6.86342">
        <ele>2200.6</ele>
        <time>2022-07-19T12:08:12Z</time>
      </trkpt>
      <trkpt lat="44.33389" lon="6.86338">
        <ele>2200.6</ele>
        <time>2022-07-19T12:08:13Z</time>
      </trkpt>
      <trkpt lat="44.33387" lon="6.86335">
        <ele>2200.6</ele>
        <time>2022-07-19T12:08:14Z</time>
      </trkpt>
      <trkpt lat="44.33385" lon="6.86332">
        <ele>2200.6</ele>
        <time>2022-07-19T12:08:15Z</time>
      </trkpt>
      <trkpt lat="44.33382" lon="6.8633">
        <ele>2201</ele>
        <time>2022-07-19T12:08:16Z</time>
      </trkpt>
      <trkpt lat="44.3338" lon="6.86328">
        <ele>2201</ele>
        <time>2022-07-19T12:08:17Z</time>
      </trkpt>
      <trkpt lat="44.33378" lon="6.86325">
        <ele>2201.2</ele>
        <time>2022-07-19T12:08:18Z</time>
      </trkpt>
      <trkpt lat="44.33376" lon="6.86323">
        <ele>2201.2</ele>
        <time>2022-07-19T12:08:19Z</time>
      </trkpt>
      <trkpt lat="44.33374" lon="6.86321">
        <ele>2201.4</ele>
        <time>2022-07-19T12:08:20Z</time>
      </trkpt>
      <trkpt lat="44.33371" lon="6.86319">
        <ele>2201.4</ele>
        <time>2022-07-19T12:08:21Z</time>
      </trkpt>
      <trkpt lat="44.33369" lon="6.86318">
        <ele>2201.8</ele>
        <time>2022-07-19T12:08:22Z</time>
      </trkpt>
      <trkpt lat="44.33367" lon="6.86317">
        <ele>2201.8</ele>
        <time>2022-07-19T12:08:23Z</time>
      </trkpt>
      <trkpt lat="44.33365" lon="6.86315">
        <ele>2202</ele>
        <time>2022-07-19T12:08:24Z</time>
      </trkpt>
      <trkpt lat="44.33363" lon="6.86313">
        <ele>2202</ele>
        <time>2022-07-19T12:08:25Z</time>
      </trkpt>
      <trkpt lat="44.33361" lon="6.86311">
        <ele>2202.4</ele>
        <time>2022-07-19T12:08:26Z</time>
      </trkpt>
      <trkpt lat="44.33358" lon="6.86309">
        <ele>2202.4</ele>
        <time>2022-07-19T12:08:27Z</time>
      </trkpt>
      <trkpt lat="44.33356" lon="6.86306">
        <ele>2202.8</ele>
        <time>2022-07-19T12:08:28Z</time>
      </trkpt>
      <trkpt lat="44.33354" lon="6.86304">
        <ele>2202.8</ele>
        <time>2022-07-19T12:08:29Z</time>
      </trkpt>
      <trkpt lat="44.33352" lon="6.86301">
        <ele>2202.8</ele>
        <time>2022-07-19T12:08:30Z</time>
      </trkpt>
      <trkpt lat="44.3335" lon="6.86299">
        <ele>2203.2</ele>
        <time>2022-07-19T12:08:31Z</time>
      </trkpt>
      <trkpt lat="44.33348" lon="6.86296">
        <ele>2203.4</ele>
        <time>2022-07-19T12:08:32Z</time>
      </trkpt>
      <trkpt lat="44.33346" lon="6.86294">
        <ele>2203.4</ele>
        <time>2022-07-19T12:08:33Z</time>
      </trkpt>
      <trkpt lat="44.33344" lon="6.86291">
        <ele>2203.8</ele>
        <time>2022-07-19T12:08:34Z</time>
      </trkpt>
      <trkpt lat="44.33342" lon="6.86289">
        <ele>2203.8</ele>
        <time>2022-07-19T12:08:35Z</time>
      </trkpt>
      <trkpt lat="44.3334" lon="6.86287">
        <ele>2204.2</ele>
        <time>2022-07-19T12:08:36Z</time>
      </trkpt>
      <trkpt lat="44.33338" lon="6.86285">
        <ele>2204.2</ele>
        <time>2022-07-19T12:08:37Z</time>
      </trkpt>
      <trkpt lat="44.33336" lon="6.86284">
        <ele>2204.4</ele>
        <time>2022-07-19T12:08:38Z</time>
      </trkpt>
      <trkpt lat="44.33334" lon="6.86282">
        <ele>2204.4</ele>
        <time>2022-07-19T12:08:39Z</time>
      </trkpt>
      <trkpt lat="44.33332" lon="6.8628">
        <ele>2204.8</ele>
        <time>2022-07-19T12:08:40Z</time>
      </trkpt>
      <trkpt lat="44.33331" lon="6.86278">
        <ele>2204.8</ele>
        <time>2022-07-19T12:08:41Z</time>
      </trkpt>
      <trkpt lat="44.33329" lon="6.86276">
        <ele>2205</ele>
        <time>2022-07-19T12:08:42Z</time>
      </trkpt>
      <trkpt lat="44.33327" lon="6.86274">
        <ele>2205</ele>
        <time>2022-07-19T12:08:43Z</time>
      </trkpt>
      <trkpt lat="44.33325" lon="6.86272">
        <ele>2205.4</ele>
        <time>2022-07-19T12:08:44Z</time>
      </trkpt>
      <trkpt lat="44.33323" lon="6.86271">
        <ele>2205.4</ele>
        <time>2022-07-19T12:08:45Z</time>
      </trkpt>
      <trkpt lat="44.33321" lon="6.86269">
        <ele>2205.8</ele>
        <time>2022-07-19T12:08:46Z</time>
      </trkpt>
      <trkpt lat="44.33319" lon="6.86267">
        <ele>2206</ele>
        <time>2022-07-19T12:08:47Z</time>
      </trkpt>
      <trkpt lat="44.33317" lon="6.86265">
        <ele>2206</ele>
        <time>2022-07-19T12:08:48Z</time>
      </trkpt>
      <trkpt lat="44.33316" lon="6.86263">
        <ele>2206.2</ele>
        <time>2022-07-19T12:08:49Z</time>
      </trkpt>
      <trkpt lat="44.33314" lon="6.86261">
        <ele>2206.2</ele>
        <time>2022-07-19T12:08:50Z</time>
      </trkpt>
      <trkpt lat="44.33312" lon="6.86259">
        <ele>2206.2</ele>
        <time>2022-07-19T12:08:51Z</time>
      </trkpt>
      <trkpt lat="44.3331" lon="6.86257">
        <ele>2206.4</ele>
        <time>2022-07-19T12:08:52Z</time>
      </trkpt>
      <trkpt lat="44.33308" lon="6.86255">
        <ele>2206.6</ele>
        <time>2022-07-19T12:08:53Z</time>
      </trkpt>
      <trkpt lat="44.33306" lon="6.86253">
        <ele>2206.6</ele>
        <time>2022-07-19T12:08:54Z</time>
      </trkpt>
      <trkpt lat="44.33304" lon="6.86251">
        <ele>2207</ele>
        <time>2022-07-19T12:08:55Z</time>
      </trkpt>
      <trkpt lat="44.33302" lon="6.86249">
        <ele>2207</ele>
        <time>2022-07-19T12:08:56Z</time>
      </trkpt>
      <trkpt lat="44.333" lon="6.86247">
        <ele>2207.2</ele>
        <time>2022-07-19T12:08:57Z</time>
      </trkpt>
      <trkpt lat="44.33298" lon="6.86245">
        <ele>2207.2</ele>
        <time>2022-07-19T12:08:58Z</time>
      </trkpt>
      <trkpt lat="44.33296" lon="6.86243">
        <ele>2207.4</ele>
        <time>2022-07-19T12:08:59Z</time>
      </trkpt>
      <trkpt lat="44.33295" lon="6.86241">
        <ele>2207.4</ele>
        <time>2022-07-19T12:09:00Z</time>
      </trkpt>
      <trkpt lat="44.33293" lon="6.86239">
        <ele>2207.8</ele>
        <time>2022-07-19T12:09:01Z</time>
      </trkpt>
      <trkpt lat="44.33291" lon="6.86237">
        <ele>2208</ele>
        <time>2022-07-19T12:09:02Z</time>
      </trkpt>
      <trkpt lat="44.33289" lon="6.86236">
        <ele>2208</ele>
        <time>2022-07-19T12:09:03Z</time>
      </trkpt>
      <trkpt lat="44.33287" lon="6.86234">
        <ele>2208.2</ele>
        <time>2022-07-19T12:09:04Z</time>
      </trkpt>
      <trkpt lat="44.33285" lon="6.86232">
        <ele>2208.2</ele>
        <time>2022-07-19T12:09:05Z</time>
      </trkpt>
      <trkpt lat="44.33283" lon="6.86231">
        <ele>2208.4</ele>
        <time>2022-07-19T12:09:06Z</time>
      </trkpt>
      <trkpt lat="44.33281" lon="6.86229">
        <ele>2208.4</ele>
        <time>2022-07-19T12:09:07Z</time>
      </trkpt>
      <trkpt lat="44.3328" lon="6.86227">
        <ele>2208.6</ele>
        <time>2022-07-19T12:09:08Z</time>
      </trkpt>
      <trkpt lat="44.33278" lon="6.86224">
        <ele>2208.6</ele>
        <time>2022-07-19T12:09:09Z</time>
      </trkpt>
      <trkpt lat="44.33276" lon="6.86222">
        <ele>2209</ele>
        <time>2022-07-19T12:09:10Z</time>
      </trkpt>
      <trkpt lat="44.33274" lon="6.8622">
        <ele>2209</ele>
        <time>2022-07-19T12:09:11Z</time>
      </trkpt>
      <trkpt lat="44.33273" lon="6.86219">
        <ele>2209</ele>
        <time>2022-07-19T12:09:12Z</time>
      </trkpt>
      <trkpt lat="44.33271" lon="6.86217">
        <ele>2209.2</ele>
        <time>2022-07-19T12:09:13Z</time>
      </trkpt>
      <trkpt lat="44.33269" lon="6.86215">
        <ele>2209.2</ele>
        <time>2022-07-19T12:09:14Z</time>
      </trkpt>
      <trkpt lat="44.33268" lon="6.86213">
        <ele>2209.6</ele>
        <time>2022-07-19T12:09:15Z</time>
      </trkpt>
      <trkpt lat="44.33266" lon="6.86211">
        <ele>2209.6</ele>
        <time>2022-07-19T12:09:16Z</time>
      </trkpt>
      <trkpt lat="44.33265" lon="6.86209">
        <ele>2210</ele>
        <time>2022-07-19T12:09:17Z</time>
      </trkpt>
      <trkpt lat="44.33263" lon="6.86206">
        <ele>2210</ele>
        <time>2022-07-19T12:09:18Z</time>
      </trkpt>
      <trkpt lat="44.33262" lon="6.86204">
        <ele>2210.2</ele>
        <time>2022-07-19T12:09:19Z</time>
      </trkpt>
      <trkpt lat="44.33261" lon="6.86202">
        <ele>2210.2</ele>
        <time>2022-07-19T12:09:20Z</time>
      </trkpt>
      <trkpt lat="44.33259" lon="6.862">
        <ele>2210.6</ele>
        <time>2022-07-19T12:09:21Z</time>
      </trkpt>
      <trkpt lat="44.33258" lon="6.86198">
        <ele>2210.6</ele>
        <time>2022-07-19T12:09:22Z</time>
      </trkpt>
      <trkpt lat="44.33256" lon="6.86196">
        <ele>2210.8</ele>
        <time>2022-07-19T12:09:23Z</time>
      </trkpt>
      <trkpt lat="44.33255" lon="6.86194">
        <ele>2211.2</ele>
        <time>2022-07-19T12:09:24Z</time>
      </trkpt>
      <trkpt lat="44.33253" lon="6.86191">
        <ele>2211.2</ele>
        <time>2022-07-19T12:09:25Z</time>
      </trkpt>
      <trkpt lat="44.33252" lon="6.86189">
        <ele>2211.2</ele>
        <time>2022-07-19T12:09:26Z</time>
      </trkpt>
      <trkpt lat="44.33251" lon="6.86187">
        <ele>2211.2</ele>
        <time>2022-07-19T12:09:27Z</time>
      </trkpt>
      <trkpt lat="44.33249" lon="6.86185">
        <ele>2211.4</ele>
        <time>2022-07-19T12:09:28Z</time>
      </trkpt>
      <trkpt lat="44.33248" lon="6.86183">
        <ele>2211.4</ele>
        <time>2022-07-19T12:09:29Z</time>
      </trkpt>
      <trkpt lat="44.33246" lon="6.86182">
        <ele>2211.4</ele>
        <time>2022-07-19T12:09:30Z</time>
      </trkpt>
      <trkpt lat="44.33244" lon="6.8618">
        <ele>2211.6</ele>
        <time>2022-07-19T12:09:31Z</time>
      </trkpt>
      <trkpt lat="44.33243" lon="6.86178">
        <ele>2211.6</ele>
        <time>2022-07-19T12:09:32Z</time>
      </trkpt>
      <trkpt lat="44.33242" lon="6.86176">
        <ele>2212</ele>
        <time>2022-07-19T12:09:33Z</time>
      </trkpt>
      <trkpt lat="44.33241" lon="6.86173">
        <ele>2212</ele>
        <time>2022-07-19T12:09:34Z</time>
      </trkpt>
      <trkpt lat="44.3324" lon="6.86171">
        <ele>2212.2</ele>
        <time>2022-07-19T12:09:35Z</time>
      </trkpt>
      <trkpt lat="44.33239" lon="6.86168">
        <ele>2212.4</ele>
        <time>2022-07-19T12:09:36Z</time>
      </trkpt>
      <trkpt lat="44.33237" lon="6.86166">
        <ele>2212.4</ele>
        <time>2022-07-19T12:09:37Z</time>
      </trkpt>
      <trkpt lat="44.33236" lon="6.86164">
        <ele>2212.8</ele>
        <time>2022-07-19T12:09:38Z</time>
      </trkpt>
      <trkpt lat="44.33234" lon="6.86163">
        <ele>2212.8</ele>
        <time>2022-07-19T12:09:39Z</time>
      </trkpt>
      <trkpt lat="44.33233" lon="6.86161">
        <ele>2213.2</ele>
        <time>2022-07-19T12:09:40Z</time>
      </trkpt>
      <trkpt lat="44.33232" lon="6.86159">
        <ele>2213.2</ele>
        <time>2022-07-19T12:09:41Z</time>
      </trkpt>
      <trkpt lat="44.3323" lon="6.86157">
        <ele>2213.4</ele>
        <time>2022-07-19T12:09:42Z</time>
      </trkpt>
      <trkpt lat="44.33229" lon="6.86154">
        <ele>2213.4</ele>
        <time>2022-07-19T12:09:43Z</time>
      </trkpt>
      <trkpt lat="44.33228" lon="6.86152">
        <ele>2213.6</ele>
        <time>2022-07-19T12:09:44Z</time>
      </trkpt>
      <trkpt lat="44.33226" lon="6.86151">
        <ele>2214</ele>
        <time>2022-07-19T12:09:45Z</time>
      </trkpt>
      <trkpt lat="44.33225" lon="6.86149">
        <ele>2214</ele>
        <time>2022-07-19T12:09:46Z</time>
      </trkpt>
      <trkpt lat="44.33224" lon="6.86146">
        <ele>2214</ele>
        <time>2022-07-19T12:09:47Z</time>
      </trkpt>
      <trkpt lat="44.33223" lon="6.86144">
        <ele>2214.2</ele>
        <time>2022-07-19T12:09:48Z</time>
      </trkpt>
      <trkpt lat="44.33222" lon="6.86142">
        <ele>2214.2</ele>
        <time>2022-07-19T12:09:49Z</time>
      </trkpt>
      <trkpt lat="44.33221" lon="6.8614">
        <ele>2214.6</ele>
        <time>2022-07-19T12:09:50Z</time>
      </trkpt>
      <trkpt lat="44.33219" lon="6.86138">
        <ele>2214.6</ele>
        <time>2022-07-19T12:09:51Z</time>
      </trkpt>
      <trkpt lat="44.33218" lon="6.86137">
        <ele>2214.8</ele>
        <time>2022-07-19T12:09:52Z</time>
      </trkpt>
      <trkpt lat="44.33217" lon="6.86135">
        <ele>2214.8</ele>
        <time>2022-07-19T12:09:53Z</time>
      </trkpt>
      <trkpt lat="44.33216" lon="6.86133">
        <ele>2215</ele>
        <time>2022-07-19T12:09:54Z</time>
      </trkpt>
      <trkpt lat="44.33214" lon="6.86132">
        <ele>2215</ele>
        <time>2022-07-19T12:09:55Z</time>
      </trkpt>
      <trkpt lat="44.33213" lon="6.8613">
        <ele>2215.4</ele>
        <time>2022-07-19T12:09:56Z</time>
      </trkpt>
      <trkpt lat="44.33211" lon="6.86129">
        <ele>2215.4</ele>
        <time>2022-07-19T12:09:57Z</time>
      </trkpt>
      <trkpt lat="44.3321" lon="6.86127">
        <ele>2215.6</ele>
        <time>2022-07-19T12:09:58Z</time>
      </trkpt>
      <trkpt lat="44.33209" lon="6.86125">
        <ele>2215.6</ele>
        <time>2022-07-19T12:09:59Z</time>
      </trkpt>
      <trkpt lat="44.33207" lon="6.86124">
        <ele>2216</ele>
        <time>2022-07-19T12:10:00Z</time>
      </trkpt>
      <trkpt lat="44.33206" lon="6.86122">
        <ele>2216</ele>
        <time>2022-07-19T12:10:01Z</time>
      </trkpt>
      <trkpt lat="44.33204" lon="6.86121">
        <ele>2216</ele>
        <time>2022-07-19T12:10:02Z</time>
      </trkpt>
      <trkpt lat="44.33203" lon="6.8612">
        <ele>2216.4</ele>
        <time>2022-07-19T12:10:03Z</time>
      </trkpt>
      <trkpt lat="44.33201" lon="6.86118">
        <ele>2216.4</ele>
        <time>2022-07-19T12:10:04Z</time>
      </trkpt>
      <trkpt lat="44.332" lon="6.86117">
        <ele>2216.6</ele>
        <time>2022-07-19T12:10:05Z</time>
      </trkpt>
      <trkpt lat="44.33198" lon="6.86115">
        <ele>2216.6</ele>
        <time>2022-07-19T12:10:06Z</time>
      </trkpt>
      <trkpt lat="44.33197" lon="6.86114">
        <ele>2216.8</ele>
        <time>2022-07-19T12:10:07Z</time>
      </trkpt>
      <trkpt lat="44.33195" lon="6.86112">
        <ele>2216.8</ele>
        <time>2022-07-19T12:10:08Z</time>
      </trkpt>
      <trkpt lat="44.33194" lon="6.86111">
        <ele>2217.2</ele>
        <time>2022-07-19T12:10:09Z</time>
      </trkpt>
      <trkpt lat="44.33192" lon="6.8611">
        <ele>2217.2</ele>
        <time>2022-07-19T12:10:10Z</time>
      </trkpt>
      <trkpt lat="44.33191" lon="6.86108">
        <ele>2217.4</ele>
        <time>2022-07-19T12:10:11Z</time>
      </trkpt>
      <trkpt lat="44.33189" lon="6.86107">
        <ele>2217.4</ele>
        <time>2022-07-19T12:10:12Z</time>
      </trkpt>
      <trkpt lat="44.33188" lon="6.86106">
        <ele>2217.8</ele>
        <time>2022-07-19T12:10:13Z</time>
      </trkpt>
      <trkpt lat="44.33186" lon="6.86104">
        <ele>2217.8</ele>
        <time>2022-07-19T12:10:14Z</time>
      </trkpt>
      <trkpt lat="44.33185" lon="6.86102">
        <ele>2218</ele>
        <time>2022-07-19T12:10:15Z</time>
      </trkpt>
      <trkpt lat="44.33183" lon="6.861">
        <ele>2218</ele>
        <time>2022-07-19T12:10:16Z</time>
      </trkpt>
      <trkpt lat="44.33182" lon="6.86098">
        <ele>2218.2</ele>
        <time>2022-07-19T12:10:17Z</time>
      </trkpt>
      <trkpt lat="44.3318" lon="6.86096">
        <ele>2218.2</ele>
        <time>2022-07-19T12:10:18Z</time>
      </trkpt>
      <trkpt lat="44.33179" lon="6.86094">
        <ele>2218.6</ele>
        <time>2022-07-19T12:10:19Z</time>
      </trkpt>
      <trkpt lat="44.33177" lon="6.86092">
        <ele>2218.6</ele>
        <time>2022-07-19T12:10:20Z</time>
      </trkpt>
      <trkpt lat="44.33176" lon="6.8609">
        <ele>2218.8</ele>
        <time>2022-07-19T12:10:21Z</time>
      </trkpt>
      <trkpt lat="44.33175" lon="6.86087">
        <ele>2218.8</ele>
        <time>2022-07-19T12:10:23Z</time>
      </trkpt>
      <trkpt lat="44.33174" lon="6.86085">
        <ele>2219.2</ele>
        <time>2022-07-19T12:10:24Z</time>
      </trkpt>
      <trkpt lat="44.33173" lon="6.86082">
        <ele>2219.2</ele>
        <time>2022-07-19T12:10:25Z</time>
      </trkpt>
      <trkpt lat="44.33172" lon="6.8608">
        <ele>2219.4</ele>
        <time>2022-07-19T12:10:26Z</time>
      </trkpt>
      <trkpt lat="44.33171" lon="6.86077">
        <ele>2219.4</ele>
        <time>2022-07-19T12:10:27Z</time>
      </trkpt>
      <trkpt lat="44.3317" lon="6.86074">
        <ele>2219.6</ele>
        <time>2022-07-19T12:10:28Z</time>
      </trkpt>
      <trkpt lat="44.33169" lon="6.86071">
        <ele>2219.6</ele>
        <time>2022-07-19T12:10:29Z</time>
      </trkpt>
      <trkpt lat="44.33168" lon="6.86069">
        <ele>2220</ele>
        <time>2022-07-19T12:10:30Z</time>
      </trkpt>
      <trkpt lat="44.33167" lon="6.86066">
        <ele>2220</ele>
        <time>2022-07-19T12:10:31Z</time>
      </trkpt>
      <trkpt lat="44.33166" lon="6.86062">
        <ele>2220.4</ele>
        <time>2022-07-19T12:10:32Z</time>
      </trkpt>
      <trkpt lat="44.33165" lon="6.86059">
        <ele>2220.4</ele>
        <time>2022-07-19T12:10:33Z</time>
      </trkpt>
      <trkpt lat="44.33164" lon="6.86056">
        <ele>2220.6</ele>
        <time>2022-07-19T12:10:34Z</time>
      </trkpt>
      <trkpt lat="44.33164" lon="6.86052">
        <ele>2221</ele>
        <time>2022-07-19T12:10:35Z</time>
      </trkpt>
      <trkpt lat="44.33164" lon="6.86049">
        <ele>2221</ele>
        <time>2022-07-19T12:10:36Z</time>
      </trkpt>
      <trkpt lat="44.33164" lon="6.86046">
        <ele>2221.2</ele>
        <time>2022-07-19T12:10:37Z</time>
      </trkpt>
      <trkpt lat="44.33165" lon="6.86043">
        <ele>2221.2</ele>
        <time>2022-07-19T12:10:38Z</time>
      </trkpt>
      <trkpt lat="44.33166" lon="6.8604">
        <ele>2221.4</ele>
        <time>2022-07-19T12:10:39Z</time>
      </trkpt>
      <trkpt lat="44.33168" lon="6.86038">
        <ele>2221.4</ele>
        <time>2022-07-19T12:10:40Z</time>
      </trkpt>
      <trkpt lat="44.3317" lon="6.86036">
        <ele>2221.6</ele>
        <time>2022-07-19T12:10:41Z</time>
      </trkpt>
      <trkpt lat="44.33172" lon="6.86033">
        <ele>2221.6</ele>
        <time>2022-07-19T12:10:42Z</time>
      </trkpt>
      <trkpt lat="44.33173" lon="6.86031">
        <ele>2222</ele>
        <time>2022-07-19T12:10:43Z</time>
      </trkpt>
      <trkpt lat="44.33175" lon="6.86028">
        <ele>2222</ele>
        <time>2022-07-19T12:10:44Z</time>
      </trkpt>
      <trkpt lat="44.33177" lon="6.86026">
        <ele>2222.4</ele>
        <time>2022-07-19T12:10:45Z</time>
      </trkpt>
      <trkpt lat="44.33178" lon="6.86024">
        <ele>2222.4</ele>
        <time>2022-07-19T12:10:46Z</time>
      </trkpt>
      <trkpt lat="44.33179" lon="6.86021">
        <ele>2222.8</ele>
        <time>2022-07-19T12:10:47Z</time>
      </trkpt>
      <trkpt lat="44.3318" lon="6.86018">
        <ele>2223</ele>
        <time>2022-07-19T12:10:48Z</time>
      </trkpt>
      <trkpt lat="44.33182" lon="6.86016">
        <ele>2223.2</ele>
        <time>2022-07-19T12:10:49Z</time>
      </trkpt>
      <trkpt lat="44.33182" lon="6.86013">
        <ele>2223.6</ele>
        <time>2022-07-19T12:10:50Z</time>
      </trkpt>
      <trkpt lat="44.33183" lon="6.86011">
        <ele>2223.8</ele>
        <time>2022-07-19T12:10:51Z</time>
      </trkpt>
      <trkpt lat="44.33185" lon="6.86009">
        <ele>2223.8</ele>
        <time>2022-07-19T12:10:52Z</time>
      </trkpt>
      <trkpt lat="44.33186" lon="6.86006">
        <ele>2224</ele>
        <time>2022-07-19T12:10:53Z</time>
      </trkpt>
      <trkpt lat="44.33187" lon="6.86003">
        <ele>2224</ele>
        <time>2022-07-19T12:10:54Z</time>
      </trkpt>
      <trkpt lat="44.33188" lon="6.86001">
        <ele>2224.4</ele>
        <time>2022-07-19T12:10:55Z</time>
      </trkpt>
      <trkpt lat="44.33189" lon="6.85998">
        <ele>2224.4</ele>
        <time>2022-07-19T12:10:56Z</time>
      </trkpt>
      <trkpt lat="44.3319" lon="6.85996">
        <ele>2224.8</ele>
        <time>2022-07-19T12:10:57Z</time>
      </trkpt>
      <trkpt lat="44.33191" lon="6.85993">
        <ele>2225</ele>
        <time>2022-07-19T12:10:58Z</time>
      </trkpt>
      <trkpt lat="44.33192" lon="6.8599">
        <ele>2225.2</ele>
        <time>2022-07-19T12:10:59Z</time>
      </trkpt>
      <trkpt lat="44.33193" lon="6.85988">
        <ele>2225.4</ele>
        <time>2022-07-19T12:11:00Z</time>
      </trkpt>
      <trkpt lat="44.33194" lon="6.85985">
        <ele>2225.4</ele>
        <time>2022-07-19T12:11:01Z</time>
      </trkpt>
      <trkpt lat="44.33194" lon="6.85982">
        <ele>2225.8</ele>
        <time>2022-07-19T12:11:02Z</time>
      </trkpt>
      <trkpt lat="44.33195" lon="6.85979">
        <ele>2225.8</ele>
        <time>2022-07-19T12:11:03Z</time>
      </trkpt>
      <trkpt lat="44.33196" lon="6.85977">
        <ele>2226.2</ele>
        <time>2022-07-19T12:11:04Z</time>
      </trkpt>
      <trkpt lat="44.33197" lon="6.85975">
        <ele>2226.2</ele>
        <time>2022-07-19T12:11:05Z</time>
      </trkpt>
      <trkpt lat="44.33199" lon="6.85972">
        <ele>2226.6</ele>
        <time>2022-07-19T12:11:06Z</time>
      </trkpt>
      <trkpt lat="44.332" lon="6.8597">
        <ele>2226.6</ele>
        <time>2022-07-19T12:11:07Z</time>
      </trkpt>
      <trkpt lat="44.332" lon="6.85967">
        <ele>2227</ele>
        <time>2022-07-19T12:11:08Z</time>
      </trkpt>
      <trkpt lat="44.33201" lon="6.85965">
        <ele>2227</ele>
        <time>2022-07-19T12:11:09Z</time>
      </trkpt>
      <trkpt lat="44.33202" lon="6.85963">
        <ele>2227.2</ele>
        <time>2022-07-19T12:11:10Z</time>
      </trkpt>
      <trkpt lat="44.33203" lon="6.8596">
        <ele>2227.2</ele>
        <time>2022-07-19T12:11:11Z</time>
      </trkpt>
      <trkpt lat="44.33204" lon="6.85958">
        <ele>2227.6</ele>
        <time>2022-07-19T12:11:12Z</time>
      </trkpt>
      <trkpt lat="44.33205" lon="6.85955">
        <ele>2227.6</ele>
        <time>2022-07-19T12:11:13Z</time>
      </trkpt>
      <trkpt lat="44.33207" lon="6.85953">
        <ele>2227.8</ele>
        <time>2022-07-19T12:11:14Z</time>
      </trkpt>
      <trkpt lat="44.33207" lon="6.8595">
        <ele>2227.8</ele>
        <time>2022-07-19T12:11:15Z</time>
      </trkpt>
      <trkpt lat="44.33208" lon="6.85947">
        <ele>2228.2</ele>
        <time>2022-07-19T12:11:16Z</time>
      </trkpt>
      <trkpt lat="44.33208" lon="6.85944">
        <ele>2228.2</ele>
        <time>2022-07-19T12:11:17Z</time>
      </trkpt>
      <trkpt lat="44.33209" lon="6.85941">
        <ele>2228.4</ele>
        <time>2022-07-19T12:11:18Z</time>
      </trkpt>
      <trkpt lat="44.33209" lon="6.85939">
        <ele>2228.4</ele>
        <time>2022-07-19T12:11:19Z</time>
      </trkpt>
      <trkpt lat="44.33209" lon="6.85936">
        <ele>2228.6</ele>
        <time>2022-07-19T12:11:20Z</time>
      </trkpt>
      <trkpt lat="44.3321" lon="6.85933">
        <ele>2228.6</ele>
        <time>2022-07-19T12:11:21Z</time>
      </trkpt>
      <trkpt lat="44.33211" lon="6.8593">
        <ele>2228.8</ele>
        <time>2022-07-19T12:11:22Z</time>
      </trkpt>
      <trkpt lat="44.33211" lon="6.85928">
        <ele>2228.8</ele>
        <time>2022-07-19T12:11:23Z</time>
      </trkpt>
      <trkpt lat="44.33212" lon="6.85925">
        <ele>2229</ele>
        <time>2022-07-19T12:11:24Z</time>
      </trkpt>
      <trkpt lat="44.33213" lon="6.85922">
        <ele>2229</ele>
        <time>2022-07-19T12:11:25Z</time>
      </trkpt>
      <trkpt lat="44.33214" lon="6.8592">
        <ele>2229</ele>
        <time>2022-07-19T12:11:26Z</time>
      </trkpt>
      <trkpt lat="44.33215" lon="6.85917">
        <ele>2229.4</ele>
        <time>2022-07-19T12:11:27Z</time>
      </trkpt>
      <trkpt lat="44.33216" lon="6.85915">
        <ele>2229.4</ele>
        <time>2022-07-19T12:11:28Z</time>
      </trkpt>
      <trkpt lat="44.33217" lon="6.85912">
        <ele>2229.6</ele>
        <time>2022-07-19T12:11:29Z</time>
      </trkpt>
      <trkpt lat="44.33218" lon="6.85909">
        <ele>2229.6</ele>
        <time>2022-07-19T12:11:30Z</time>
      </trkpt>
      <trkpt lat="44.33219" lon="6.85906">
        <ele>2229.8</ele>
        <time>2022-07-19T12:11:31Z</time>
      </trkpt>
      <trkpt lat="44.3322" lon="6.85904">
        <ele>2229.8</ele>
        <time>2022-07-19T12:11:32Z</time>
      </trkpt>
      <trkpt lat="44.3322" lon="6.85901">
        <ele>2229.8</ele>
        <time>2022-07-19T12:11:33Z</time>
      </trkpt>
      <trkpt lat="44.33221" lon="6.85898">
        <ele>2230.2</ele>
        <time>2022-07-19T12:11:34Z</time>
      </trkpt>
      <trkpt lat="44.33221" lon="6.85896">
        <ele>2230.2</ele>
        <time>2022-07-19T12:11:35Z</time>
      </trkpt>
      <trkpt lat="44.33222" lon="6.85893">
        <ele>2230.4</ele>
        <time>2022-07-19T12:11:36Z</time>
      </trkpt>
      <trkpt lat="44.33222" lon="6.8589">
        <ele>2230.4</ele>
        <time>2022-07-19T12:11:37Z</time>
      </trkpt>
      <trkpt lat="44.33222" lon="6.85888">
        <ele>2230.6</ele>
        <time>2022-07-19T12:11:38Z</time>
      </trkpt>
      <trkpt lat="44.33222" lon="6.85885">
        <ele>2230.6</ele>
        <time>2022-07-19T12:11:39Z</time>
      </trkpt>
      <trkpt lat="44.33222" lon="6.85882">
        <ele>2231</ele>
        <time>2022-07-19T12:11:40Z</time>
      </trkpt>
      <trkpt lat="44.33222" lon="6.8588">
        <ele>2231</ele>
        <time>2022-07-19T12:11:41Z</time>
      </trkpt>
      <trkpt lat="44.33222" lon="6.85877">
        <ele>2231.2</ele>
        <time>2022-07-19T12:11:42Z</time>
      </trkpt>
      <trkpt lat="44.33222" lon="6.85874">
        <ele>2231.2</ele>
        <time>2022-07-19T12:11:43Z</time>
      </trkpt>
      <trkpt lat="44.33222" lon="6.85872">
        <ele>2231.4</ele>
        <time>2022-07-19T12:11:44Z</time>
      </trkpt>
      <trkpt lat="44.33222" lon="6.85869">
        <ele>2231.4</ele>
        <time>2022-07-19T12:11:45Z</time>
      </trkpt>
      <trkpt lat="44.33223" lon="6.85866">
        <ele>2231.8</ele>
        <time>2022-07-19T12:11:46Z</time>
      </trkpt>
      <trkpt lat="44.33223" lon="6.85863">
        <ele>2231.8</ele>
        <time>2022-07-19T12:11:47Z</time>
      </trkpt>
      <trkpt lat="44.33223" lon="6.85861">
        <ele>2231.8</ele>
        <time>2022-07-19T12:11:48Z</time>
      </trkpt>
      <trkpt lat="44.33223" lon="6.85858">
        <ele>2232</ele>
        <time>2022-07-19T12:11:49Z</time>
      </trkpt>
      <trkpt lat="44.33223" lon="6.85855">
        <ele>2232</ele>
        <time>2022-07-19T12:11:50Z</time>
      </trkpt>
      <trkpt lat="44.33224" lon="6.85852">
        <ele>2232.4</ele>
        <time>2022-07-19T12:11:51Z</time>
      </trkpt>
      <trkpt lat="44.33224" lon="6.8585">
        <ele>2232.4</ele>
        <time>2022-07-19T12:11:52Z</time>
      </trkpt>
      <trkpt lat="44.33224" lon="6.85847">
        <ele>2232.6</ele>
        <time>2022-07-19T12:11:53Z</time>
      </trkpt>
      <trkpt lat="44.33225" lon="6.85845">
        <ele>2232.6</ele>
        <time>2022-07-19T12:11:54Z</time>
      </trkpt>
      <trkpt lat="44.33226" lon="6.85843">
        <ele>2233</ele>
        <time>2022-07-19T12:11:55Z</time>
      </trkpt>
      <trkpt lat="44.33227" lon="6.85841">
        <ele>2233</ele>
        <time>2022-07-19T12:11:56Z</time>
      </trkpt>
      <trkpt lat="44.33228" lon="6.85838">
        <ele>2233.4</ele>
        <time>2022-07-19T12:11:57Z</time>
      </trkpt>
      <trkpt lat="44.33229" lon="6.85836">
        <ele>2233.4</ele>
        <time>2022-07-19T12:11:58Z</time>
      </trkpt>
      <trkpt lat="44.33229" lon="6.85834">
        <ele>2233.6</ele>
        <time>2022-07-19T12:11:59Z</time>
      </trkpt>
      <trkpt lat="44.3323" lon="6.85831">
        <ele>2233.6</ele>
        <time>2022-07-19T12:12:00Z</time>
      </trkpt>
      <trkpt lat="44.33231" lon="6.85829">
        <ele>2234</ele>
        <time>2022-07-19T12:12:01Z</time>
      </trkpt>
      <trkpt lat="44.33232" lon="6.85826">
        <ele>2234</ele>
        <time>2022-07-19T12:12:02Z</time>
      </trkpt>
      <trkpt lat="44.33233" lon="6.85824">
        <ele>2234.2</ele>
        <time>2022-07-19T12:12:03Z</time>
      </trkpt>
      <trkpt lat="44.33233" lon="6.85821">
        <ele>2234.2</ele>
        <time>2022-07-19T12:12:04Z</time>
      </trkpt>
      <trkpt lat="44.33234" lon="6.85818">
        <ele>2234.6</ele>
        <time>2022-07-19T12:12:05Z</time>
      </trkpt>
      <trkpt lat="44.33234" lon="6.85816">
        <ele>2234.8</ele>
        <time>2022-07-19T12:12:06Z</time>
      </trkpt>
      <trkpt lat="44.33235" lon="6.85813">
        <ele>2234.8</ele>
        <time>2022-07-19T12:12:07Z</time>
      </trkpt>
      <trkpt lat="44.33235" lon="6.85811">
        <ele>2235.2</ele>
        <time>2022-07-19T12:12:08Z</time>
      </trkpt>
      <trkpt lat="44.33236" lon="6.85808">
        <ele>2235.2</ele>
        <time>2022-07-19T12:12:09Z</time>
      </trkpt>
      <trkpt lat="44.33236" lon="6.85805">
        <ele>2235.4</ele>
        <time>2022-07-19T12:12:10Z</time>
      </trkpt>
      <trkpt lat="44.33236" lon="6.85803">
        <ele>2235.8</ele>
        <time>2022-07-19T12:12:11Z</time>
      </trkpt>
      <trkpt lat="44.33237" lon="6.858">
        <ele>2235.8</ele>
        <time>2022-07-19T12:12:12Z</time>
      </trkpt>
      <trkpt lat="44.33237" lon="6.85797">
        <ele>2236.2</ele>
        <time>2022-07-19T12:12:13Z</time>
      </trkpt>
      <trkpt lat="44.33237" lon="6.85795">
        <ele>2236.2</ele>
        <time>2022-07-19T12:12:14Z</time>
      </trkpt>
      <trkpt lat="44.33237" lon="6.85792">
        <ele>2236.4</ele>
        <time>2022-07-19T12:12:15Z</time>
      </trkpt>
      <trkpt lat="44.33237" lon="6.85789">
        <ele>2236.4</ele>
        <time>2022-07-19T12:12:16Z</time>
      </trkpt>
      <trkpt lat="44.33237" lon="6.85786">
        <ele>2236.8</ele>
        <time>2022-07-19T12:12:17Z</time>
      </trkpt>
      <trkpt lat="44.33237" lon="6.85783">
        <ele>2237</ele>
        <time>2022-07-19T12:12:18Z</time>
      </trkpt>
      <trkpt lat="44.33237" lon="6.8578">
        <ele>2237</ele>
        <time>2022-07-19T12:12:19Z</time>
      </trkpt>
      <trkpt lat="44.33237" lon="6.85777">
        <ele>2237.2</ele>
        <time>2022-07-19T12:12:20Z</time>
      </trkpt>
      <trkpt lat="44.33237" lon="6.85774">
        <ele>2237.4</ele>
        <time>2022-07-19T12:12:21Z</time>
      </trkpt>
      <trkpt lat="44.33237" lon="6.85771">
        <ele>2237.4</ele>
        <time>2022-07-19T12:12:22Z</time>
      </trkpt>
      <trkpt lat="44.33238" lon="6.85768">
        <ele>2237.8</ele>
        <time>2022-07-19T12:12:23Z</time>
      </trkpt>
      <trkpt lat="44.33238" lon="6.85765">
        <ele>2237.8</ele>
        <time>2022-07-19T12:12:24Z</time>
      </trkpt>
      <trkpt lat="44.33238" lon="6.85762">
        <ele>2238.2</ele>
        <time>2022-07-19T12:12:25Z</time>
      </trkpt>
      <trkpt lat="44.33238" lon="6.85759">
        <ele>2238.2</ele>
        <time>2022-07-19T12:12:26Z</time>
      </trkpt>
      <trkpt lat="44.33239" lon="6.85756">
        <ele>2238.4</ele>
        <time>2022-07-19T12:12:27Z</time>
      </trkpt>
      <trkpt lat="44.33239" lon="6.85754">
        <ele>2238.4</ele>
        <time>2022-07-19T12:12:28Z</time>
      </trkpt>
      <trkpt lat="44.3324" lon="6.85751">
        <ele>2238.6</ele>
        <time>2022-07-19T12:12:29Z</time>
      </trkpt>
      <trkpt lat="44.3324" lon="6.85748">
        <ele>2238.6</ele>
        <time>2022-07-19T12:12:30Z</time>
      </trkpt>
      <trkpt lat="44.3324" lon="6.85745">
        <ele>2239</ele>
        <time>2022-07-19T12:12:31Z</time>
      </trkpt>
      <trkpt lat="44.33241" lon="6.85743">
        <ele>2239</ele>
        <time>2022-07-19T12:12:32Z</time>
      </trkpt>
      <trkpt lat="44.3324" lon="6.8574">
        <ele>2239.4</ele>
        <time>2022-07-19T12:12:33Z</time>
      </trkpt>
      <trkpt lat="44.3324" lon="6.85737">
        <ele>2239.4</ele>
        <time>2022-07-19T12:12:34Z</time>
      </trkpt>
      <trkpt lat="44.3324" lon="6.85734">
        <ele>2239.6</ele>
        <time>2022-07-19T12:12:35Z</time>
      </trkpt>
      <trkpt lat="44.3324" lon="6.85731">
        <ele>2239.6</ele>
        <time>2022-07-19T12:12:36Z</time>
      </trkpt>
      <trkpt lat="44.3324" lon="6.85728">
        <ele>2239.8</ele>
        <time>2022-07-19T12:12:37Z</time>
      </trkpt>
      <trkpt lat="44.3324" lon="6.85726">
        <ele>2239.8</ele>
        <time>2022-07-19T12:12:38Z</time>
      </trkpt>
      <trkpt lat="44.3324" lon="6.85723">
        <ele>2240.2</ele>
        <time>2022-07-19T12:12:39Z</time>
      </trkpt>
      <trkpt lat="44.3324" lon="6.8572">
        <ele>2240.2</ele>
        <time>2022-07-19T12:12:40Z</time>
      </trkpt>
      <trkpt lat="44.33241" lon="6.85717">
        <ele>2240.4</ele>
        <time>2022-07-19T12:12:41Z</time>
      </trkpt>
      <trkpt lat="44.33241" lon="6.85714">
        <ele>2240.4</ele>
        <time>2022-07-19T12:12:42Z</time>
      </trkpt>
      <trkpt lat="44.33241" lon="6.85711">
        <ele>2240.8</ele>
        <time>2022-07-19T12:12:43Z</time>
      </trkpt>
      <trkpt lat="44.33242" lon="6.85709">
        <ele>2240.8</ele>
        <time>2022-07-19T12:12:44Z</time>
      </trkpt>
      <trkpt lat="44.33242" lon="6.85706">
        <ele>2241</ele>
        <time>2022-07-19T12:12:45Z</time>
      </trkpt>
      <trkpt lat="44.33242" lon="6.85703">
        <ele>2241</ele>
        <time>2022-07-19T12:12:46Z</time>
      </trkpt>
      <trkpt lat="44.33242" lon="6.85701">
        <ele>2241.4</ele>
        <time>2022-07-19T12:12:47Z</time>
      </trkpt>
      <trkpt lat="44.33242" lon="6.85698">
        <ele>2241.4</ele>
        <time>2022-07-19T12:12:48Z</time>
      </trkpt>
      <trkpt lat="44.33242" lon="6.85695">
        <ele>2241.8</ele>
        <time>2022-07-19T12:12:49Z</time>
      </trkpt>
      <trkpt lat="44.33242" lon="6.85692">
        <ele>2241.8</ele>
        <time>2022-07-19T12:12:50Z</time>
      </trkpt>
      <trkpt lat="44.33242" lon="6.8569">
        <ele>2242</ele>
        <time>2022-07-19T12:12:51Z</time>
      </trkpt>
      <trkpt lat="44.33243" lon="6.85687">
        <ele>2242</ele>
        <time>2022-07-19T12:12:52Z</time>
      </trkpt>
      <trkpt lat="44.33243" lon="6.85684">
        <ele>2242.4</ele>
        <time>2022-07-19T12:12:53Z</time>
      </trkpt>
      <trkpt lat="44.33243" lon="6.85681">
        <ele>2242.4</ele>
        <time>2022-07-19T12:12:54Z</time>
      </trkpt>
      <trkpt lat="44.33243" lon="6.85678">
        <ele>2242.4</ele>
        <time>2022-07-19T12:12:55Z</time>
      </trkpt>
      <trkpt lat="44.33243" lon="6.85675">
        <ele>2242.6</ele>
        <time>2022-07-19T12:12:56Z</time>
      </trkpt>
      <trkpt lat="44.33243" lon="6.85672">
        <ele>2242.6</ele>
        <time>2022-07-19T12:12:57Z</time>
      </trkpt>
      <trkpt lat="44.33243" lon="6.8567">
        <ele>2242.8</ele>
        <time>2022-07-19T12:12:58Z</time>
      </trkpt>
      <trkpt lat="44.33243" lon="6.85667">
        <ele>2242.8</ele>
        <time>2022-07-19T12:12:59Z</time>
      </trkpt>
      <trkpt lat="44.33243" lon="6.85664">
        <ele>2243.2</ele>
        <time>2022-07-19T12:13:00Z</time>
      </trkpt>
      <trkpt lat="44.33243" lon="6.85662">
        <ele>2243.2</ele>
        <time>2022-07-19T12:13:01Z</time>
      </trkpt>
      <trkpt lat="44.33242" lon="6.85659">
        <ele>2243.4</ele>
        <time>2022-07-19T12:13:02Z</time>
      </trkpt>
      <trkpt lat="44.33242" lon="6.85656">
        <ele>2243.4</ele>
        <time>2022-07-19T12:13:03Z</time>
      </trkpt>
      <trkpt lat="44.33242" lon="6.85653">
        <ele>2243.4</ele>
        <time>2022-07-19T12:13:04Z</time>
      </trkpt>
      <trkpt lat="44.33242" lon="6.8565">
        <ele>2243.6</ele>
        <time>2022-07-19T12:13:05Z</time>
      </trkpt>
      <trkpt lat="44.33242" lon="6.85647">
        <ele>2243.6</ele>
        <time>2022-07-19T12:13:06Z</time>
      </trkpt>
      <trkpt lat="44.33243" lon="6.85644">
        <ele>2243.8</ele>
        <time>2022-07-19T12:13:07Z</time>
      </trkpt>
      <trkpt lat="44.33243" lon="6.85642">
        <ele>2243.8</ele>
        <time>2022-07-19T12:13:08Z</time>
      </trkpt>
      <trkpt lat="44.33243" lon="6.85639">
        <ele>2243.8</ele>
        <time>2022-07-19T12:13:09Z</time>
      </trkpt>
      <trkpt lat="44.33243" lon="6.85636">
        <ele>2243.8</ele>
        <time>2022-07-19T12:13:10Z</time>
      </trkpt>
      <trkpt lat="44.33243" lon="6.85633">
        <ele>2244.2</ele>
        <time>2022-07-19T12:13:11Z</time>
      </trkpt>
      <trkpt lat="44.33242" lon="6.8563">
        <ele>2244.2</ele>
        <time>2022-07-19T12:13:12Z</time>
      </trkpt>
      <trkpt lat="44.33241" lon="6.85627">
        <ele>2244.4</ele>
        <time>2022-07-19T12:13:13Z</time>
      </trkpt>
      <trkpt lat="44.33241" lon="6.85624">
        <ele>2244.4</ele>
        <time>2022-07-19T12:13:14Z</time>
      </trkpt>
      <trkpt lat="44.3324" lon="6.85622">
        <ele>2244.4</ele>
        <time>2022-07-19T12:13:15Z</time>
      </trkpt>
      <trkpt lat="44.3324" lon="6.85619">
        <ele>2244.6</ele>
        <time>2022-07-19T12:13:16Z</time>
      </trkpt>
      <trkpt lat="44.3324" lon="6.85615">
        <ele>2244.6</ele>
        <time>2022-07-19T12:13:17Z</time>
      </trkpt>
      <trkpt lat="44.33239" lon="6.85612">
        <ele>2244.6</ele>
        <time>2022-07-19T12:13:18Z</time>
      </trkpt>
      <trkpt lat="44.33239" lon="6.85609">
        <ele>2245</ele>
        <time>2022-07-19T12:13:19Z</time>
      </trkpt>
      <trkpt lat="44.33239" lon="6.85605">
        <ele>2245</ele>
        <time>2022-07-19T12:13:20Z</time>
      </trkpt>
      <trkpt lat="44.33239" lon="6.85602">
        <ele>2245.2</ele>
        <time>2022-07-19T12:13:21Z</time>
      </trkpt>
      <trkpt lat="44.33239" lon="6.85599">
        <ele>2245.2</ele>
        <time>2022-07-19T12:13:22Z</time>
      </trkpt>
      <trkpt lat="44.33238" lon="6.85595">
        <ele>2245.2</ele>
        <time>2022-07-19T12:13:23Z</time>
      </trkpt>
      <trkpt lat="44.33237" lon="6.85592">
        <ele>2245.2</ele>
        <time>2022-07-19T12:13:24Z</time>
      </trkpt>
      <trkpt lat="44.33237" lon="6.85589">
        <ele>2245.4</ele>
        <time>2022-07-19T12:13:25Z</time>
      </trkpt>
      <trkpt lat="44.33236" lon="6.85585">
        <ele>2245.4</ele>
        <time>2022-07-19T12:13:26Z</time>
      </trkpt>
      <trkpt lat="44.33235" lon="6.85582">
        <ele>2245.4</ele>
        <time>2022-07-19T12:13:27Z</time>
      </trkpt>
      <trkpt lat="44.33235" lon="6.85578">
        <ele>2245.4</ele>
        <time>2022-07-19T12:13:28Z</time>
      </trkpt>
      <trkpt lat="44.33234" lon="6.85575">
        <ele>2245.4</ele>
        <time>2022-07-19T12:13:29Z</time>
      </trkpt>
      <trkpt lat="44.33234" lon="6.85571">
        <ele>2245.6</ele>
        <time>2022-07-19T12:13:30Z</time>
      </trkpt>
      <trkpt lat="44.33233" lon="6.85568">
        <ele>2245.6</ele>
        <time>2022-07-19T12:13:31Z</time>
      </trkpt>
      <trkpt lat="44.33232" lon="6.85564">
        <ele>2245.6</ele>
        <time>2022-07-19T12:13:32Z</time>
      </trkpt>
      <trkpt lat="44.33232" lon="6.85561">
        <ele>2245.6</ele>
        <time>2022-07-19T12:13:33Z</time>
      </trkpt>
      <trkpt lat="44.33231" lon="6.85557">
        <ele>2245.6</ele>
        <time>2022-07-19T12:13:34Z</time>
      </trkpt>
      <trkpt lat="44.3323" lon="6.85554">
        <ele>2245.8</ele>
        <time>2022-07-19T12:13:35Z</time>
      </trkpt>
      <trkpt lat="44.33229" lon="6.8555">
        <ele>2245.8</ele>
        <time>2022-07-19T12:13:36Z</time>
      </trkpt>
      <trkpt lat="44.33229" lon="6.85547">
        <ele>2245.8</ele>
        <time>2022-07-19T12:13:37Z</time>
      </trkpt>
      <trkpt lat="44.33228" lon="6.85544">
        <ele>2246.2</ele>
        <time>2022-07-19T12:13:38Z</time>
      </trkpt>
      <trkpt lat="44.33226" lon="6.85541">
        <ele>2246.2</ele>
        <time>2022-07-19T12:13:39Z</time>
      </trkpt>
      <trkpt lat="44.33225" lon="6.85537">
        <ele>2246.2</ele>
        <time>2022-07-19T12:13:40Z</time>
      </trkpt>
      <trkpt lat="44.33224" lon="6.85534">
        <ele>2246.2</ele>
        <time>2022-07-19T12:13:41Z</time>
      </trkpt>
      <trkpt lat="44.33223" lon="6.85531">
        <ele>2246.4</ele>
        <time>2022-07-19T12:13:42Z</time>
      </trkpt>
      <trkpt lat="44.33222" lon="6.85528">
        <ele>2246.4</ele>
        <time>2022-07-19T12:13:43Z</time>
      </trkpt>
      <trkpt lat="44.33221" lon="6.85525">
        <ele>2246.4</ele>
        <time>2022-07-19T12:13:44Z</time>
      </trkpt>
      <trkpt lat="44.3322" lon="6.85522">
        <ele>2246.6</ele>
        <time>2022-07-19T12:13:45Z</time>
      </trkpt>
      <trkpt lat="44.33219" lon="6.85519">
        <ele>2246.6</ele>
        <time>2022-07-19T12:13:46Z</time>
      </trkpt>
      <trkpt lat="44.33218" lon="6.85516">
        <ele>2246.8</ele>
        <time>2022-07-19T12:13:47Z</time>
      </trkpt>
      <trkpt lat="44.33217" lon="6.85513">
        <ele>2246.8</ele>
        <time>2022-07-19T12:13:48Z</time>
      </trkpt>
      <trkpt lat="44.33216" lon="6.85511">
        <ele>2246.8</ele>
        <time>2022-07-19T12:13:49Z</time>
      </trkpt>
      <trkpt lat="44.33215" lon="6.85508">
        <ele>2247.2</ele>
        <time>2022-07-19T12:13:50Z</time>
      </trkpt>
      <trkpt lat="44.33214" lon="6.85505">
        <ele>2247.2</ele>
        <time>2022-07-19T12:13:51Z</time>
      </trkpt>
      <trkpt lat="44.33213" lon="6.85501">
        <ele>2247.2</ele>
        <time>2022-07-19T12:13:52Z</time>
      </trkpt>
      <trkpt lat="44.33212" lon="6.85498">
        <ele>2247.4</ele>
        <time>2022-07-19T12:13:53Z</time>
      </trkpt>
      <trkpt lat="44.33211" lon="6.85494">
        <ele>2247.4</ele>
        <time>2022-07-19T12:13:54Z</time>
      </trkpt>
      <trkpt lat="44.33211" lon="6.85491">
        <ele>2247.4</ele>
        <time>2022-07-19T12:13:55Z</time>
      </trkpt>
      <trkpt lat="44.3321" lon="6.85488">
        <ele>2247.6</ele>
        <time>2022-07-19T12:13:56Z</time>
      </trkpt>
      <trkpt lat="44.3321" lon="6.85484">
        <ele>2247.6</ele>
        <time>2022-07-19T12:13:57Z</time>
      </trkpt>
      <trkpt lat="44.3321" lon="6.85481">
        <ele>2248</ele>
        <time>2022-07-19T12:13:58Z</time>
      </trkpt>
      <trkpt lat="44.33211" lon="6.85478">
        <ele>2248</ele>
        <time>2022-07-19T12:13:59Z</time>
      </trkpt>
      <trkpt lat="44.33212" lon="6.85475">
        <ele>2248.4</ele>
        <time>2022-07-19T12:14:00Z</time>
      </trkpt>
      <trkpt lat="44.33214" lon="6.85472">
        <ele>2248.4</ele>
        <time>2022-07-19T12:14:01Z</time>
      </trkpt>
      <trkpt lat="44.33215" lon="6.85469">
        <ele>2248.6</ele>
        <time>2022-07-19T12:14:02Z</time>
      </trkpt>
      <trkpt lat="44.33217" lon="6.85466">
        <ele>2248.6</ele>
        <time>2022-07-19T12:14:03Z</time>
      </trkpt>
      <trkpt lat="44.33218" lon="6.85463">
        <ele>2249</ele>
        <time>2022-07-19T12:14:04Z</time>
      </trkpt>
      <trkpt lat="44.33219" lon="6.8546">
        <ele>2249</ele>
        <time>2022-07-19T12:14:05Z</time>
      </trkpt>
      <trkpt lat="44.3322" lon="6.85458">
        <ele>2249.2</ele>
        <time>2022-07-19T12:14:06Z</time>
      </trkpt>
      <trkpt lat="44.3322" lon="6.85455">
        <ele>2249.2</ele>
        <time>2022-07-19T12:14:07Z</time>
      </trkpt>
      <trkpt lat="44.33221" lon="6.85452">
        <ele>2249.6</ele>
        <time>2022-07-19T12:14:08Z</time>
      </trkpt>
      <trkpt lat="44.33222" lon="6.85449">
        <ele>2249.6</ele>
        <time>2022-07-19T12:14:09Z</time>
      </trkpt>
      <trkpt lat="44.33223" lon="6.85447">
        <ele>2249.8</ele>
        <time>2022-07-19T12:14:10Z</time>
      </trkpt>
      <trkpt lat="44.33224" lon="6.85444">
        <ele>2249.8</ele>
        <time>2022-07-19T12:14:11Z</time>
      </trkpt>
      <trkpt lat="44.33224" lon="6.85441">
        <ele>2250</ele>
        <time>2022-07-19T12:14:12Z</time>
      </trkpt>
      <trkpt lat="44.33225" lon="6.85438">
        <ele>2250.2</ele>
        <time>2022-07-19T12:14:13Z</time>
      </trkpt>
      <trkpt lat="44.33226" lon="6.85434">
        <ele>2250.6</ele>
        <time>2022-07-19T12:14:14Z</time>
      </trkpt>
      <trkpt lat="44.33226" lon="6.85431">
        <ele>2250.6</ele>
        <time>2022-07-19T12:14:15Z</time>
      </trkpt>
      <trkpt lat="44.33227" lon="6.85427">
        <ele>2251</ele>
        <time>2022-07-19T12:14:16Z</time>
      </trkpt>
      <trkpt lat="44.33227" lon="6.85424">
        <ele>2251</ele>
        <time>2022-07-19T12:14:17Z</time>
      </trkpt>
      <trkpt lat="44.33228" lon="6.85421">
        <ele>2251.2</ele>
        <time>2022-07-19T12:14:18Z</time>
      </trkpt>
      <trkpt lat="44.33228" lon="6.85419">
        <ele>2251.2</ele>
        <time>2022-07-19T12:14:19Z</time>
      </trkpt>
      <trkpt lat="44.33229" lon="6.85416">
        <ele>2251.6</ele>
        <time>2022-07-19T12:14:20Z</time>
      </trkpt>
      <trkpt lat="44.33229" lon="6.85414">
        <ele>2251.6</ele>
        <time>2022-07-19T12:14:21Z</time>
      </trkpt>
      <trkpt lat="44.3323" lon="6.85411">
        <ele>2252</ele>
        <time>2022-07-19T12:14:22Z</time>
      </trkpt>
      <trkpt lat="44.3323" lon="6.85408">
        <ele>2252</ele>
        <time>2022-07-19T12:14:23Z</time>
      </trkpt>
      <trkpt lat="44.33231" lon="6.85406">
        <ele>2252.2</ele>
        <time>2022-07-19T12:14:24Z</time>
      </trkpt>
      <trkpt lat="44.33232" lon="6.85403">
        <ele>2252.2</ele>
        <time>2022-07-19T12:14:25Z</time>
      </trkpt>
      <trkpt lat="44.33232" lon="6.85401">
        <ele>2252.4</ele>
        <time>2022-07-19T12:14:26Z</time>
      </trkpt>
      <trkpt lat="44.33233" lon="6.85398">
        <ele>2252.6</ele>
        <time>2022-07-19T12:14:27Z</time>
      </trkpt>
      <trkpt lat="44.33233" lon="6.85396">
        <ele>2253</ele>
        <time>2022-07-19T12:14:28Z</time>
      </trkpt>
      <trkpt lat="44.33233" lon="6.85393">
        <ele>2253</ele>
        <time>2022-07-19T12:14:29Z</time>
      </trkpt>
      <trkpt lat="44.33233" lon="6.85391">
        <ele>2253.4</ele>
        <time>2022-07-19T12:14:30Z</time>
      </trkpt>
      <trkpt lat="44.33234" lon="6.85389">
        <ele>2253.4</ele>
        <time>2022-07-19T12:14:31Z</time>
      </trkpt>
      <trkpt lat="44.33234" lon="6.85386">
        <ele>2253.6</ele>
        <time>2022-07-19T12:14:32Z</time>
      </trkpt>
      <trkpt lat="44.33235" lon="6.85384">
        <ele>2253.8</ele>
        <time>2022-07-19T12:14:33Z</time>
      </trkpt>
      <trkpt lat="44.33235" lon="6.85382">
        <ele>2253.8</ele>
        <time>2022-07-19T12:14:34Z</time>
      </trkpt>
      <trkpt lat="44.33236" lon="6.8538">
        <ele>2254</ele>
        <time>2022-07-19T12:14:35Z</time>
      </trkpt>
      <trkpt lat="44.33237" lon="6.85377">
        <ele>2254</ele>
        <time>2022-07-19T12:14:36Z</time>
      </trkpt>
      <trkpt lat="44.33237" lon="6.85375">
        <ele>2254.2</ele>
        <time>2022-07-19T12:14:37Z</time>
      </trkpt>
      <trkpt lat="44.33238" lon="6.85373">
        <ele>2254.2</ele>
        <time>2022-07-19T12:14:38Z</time>
      </trkpt>
      <trkpt lat="44.33238" lon="6.8537">
        <ele>2254.2</ele>
        <time>2022-07-19T12:14:39Z</time>
      </trkpt>
      <trkpt lat="44.33239" lon="6.85368">
        <ele>2254.6</ele>
        <time>2022-07-19T12:14:40Z</time>
      </trkpt>
      <trkpt lat="44.33239" lon="6.85366">
        <ele>2254.6</ele>
        <time>2022-07-19T12:14:41Z</time>
      </trkpt>
      <trkpt lat="44.3324" lon="6.85364">
        <ele>2254.8</ele>
        <time>2022-07-19T12:14:42Z</time>
      </trkpt>
      <trkpt lat="44.33241" lon="6.85361">
        <ele>2254.8</ele>
        <time>2022-07-19T12:14:43Z</time>
      </trkpt>
      <trkpt lat="44.33241" lon="6.85359">
        <ele>2255.2</ele>
        <time>2022-07-19T12:14:44Z</time>
      </trkpt>
      <trkpt lat="44.33242" lon="6.85356">
        <ele>2255.2</ele>
        <time>2022-07-19T12:14:45Z</time>
      </trkpt>
      <trkpt lat="44.33243" lon="6.85354">
        <ele>2255.4</ele>
        <time>2022-07-19T12:14:46Z</time>
      </trkpt>
      <trkpt lat="44.33243" lon="6.85351">
        <ele>2255.4</ele>
        <time>2022-07-19T12:14:47Z</time>
      </trkpt>
      <trkpt lat="44.33244" lon="6.85349">
        <ele>2255.6</ele>
        <time>2022-07-19T12:14:48Z</time>
      </trkpt>
      <trkpt lat="44.33245" lon="6.85346">
        <ele>2255.6</ele>
        <time>2022-07-19T12:14:49Z</time>
      </trkpt>
      <trkpt lat="44.33246" lon="6.85344">
        <ele>2255.8</ele>
        <time>2022-07-19T12:14:50Z</time>
      </trkpt>
      <trkpt lat="44.33247" lon="6.85341">
        <ele>2255.8</ele>
        <time>2022-07-19T12:14:51Z</time>
      </trkpt>
      <trkpt lat="44.33248" lon="6.85338">
        <ele>2256.2</ele>
        <time>2022-07-19T12:14:52Z</time>
      </trkpt>
      <trkpt lat="44.33248" lon="6.85335">
        <ele>2256.2</ele>
        <time>2022-07-19T12:14:53Z</time>
      </trkpt>
      <trkpt lat="44.33248" lon="6.85332">
        <ele>2256.6</ele>
        <time>2022-07-19T12:14:54Z</time>
      </trkpt>
      <trkpt lat="44.33248" lon="6.85329">
        <ele>2256.6</ele>
        <time>2022-07-19T12:14:55Z</time>
      </trkpt>
      <trkpt lat="44.33248" lon="6.85326">
        <ele>2257</ele>
        <time>2022-07-19T12:14:56Z</time>
      </trkpt>
      <trkpt lat="44.33248" lon="6.85322">
        <ele>2257</ele>
        <time>2022-07-19T12:14:57Z</time>
      </trkpt>
      <trkpt lat="44.33247" lon="6.85319">
        <ele>2257.4</ele>
        <time>2022-07-19T12:14:58Z</time>
      </trkpt>
      <trkpt lat="44.33247" lon="6.85316">
        <ele>2257.4</ele>
        <time>2022-07-19T12:14:59Z</time>
      </trkpt>
      <trkpt lat="44.33247" lon="6.85313">
        <ele>2257.8</ele>
        <time>2022-07-19T12:15:00Z</time>
      </trkpt>
      <trkpt lat="44.33247" lon="6.8531">
        <ele>2257.8</ele>
        <time>2022-07-19T12:15:01Z</time>
      </trkpt>
      <trkpt lat="44.33246" lon="6.85307">
        <ele>2258.2</ele>
        <time>2022-07-19T12:15:02Z</time>
      </trkpt>
      <trkpt lat="44.33246" lon="6.85304">
        <ele>2258.4</ele>
        <time>2022-07-19T12:15:03Z</time>
      </trkpt>
      <trkpt lat="44.33245" lon="6.85302">
        <ele>2258.6</ele>
        <time>2022-07-19T12:15:04Z</time>
      </trkpt>
      <trkpt lat="44.33245" lon="6.85299">
        <ele>2258.6</ele>
        <time>2022-07-19T12:15:05Z</time>
      </trkpt>
      <trkpt lat="44.33246" lon="6.85296">
        <ele>2258.8</ele>
        <time>2022-07-19T12:15:06Z</time>
      </trkpt>
      <trkpt lat="44.33246" lon="6.85293">
        <ele>2258.8</ele>
        <time>2022-07-19T12:15:07Z</time>
      </trkpt>
      <trkpt lat="44.33247" lon="6.8529">
        <ele>2258.8</ele>
        <time>2022-07-19T12:15:08Z</time>
      </trkpt>
      <trkpt lat="44.33248" lon="6.85287">
        <ele>2259.2</ele>
        <time>2022-07-19T12:15:09Z</time>
      </trkpt>
      <trkpt lat="44.33249" lon="6.85285">
        <ele>2259.2</ele>
        <time>2022-07-19T12:15:10Z</time>
      </trkpt>
      <trkpt lat="44.3325" lon="6.85283">
        <ele>2259.6</ele>
        <time>2022-07-19T12:15:11Z</time>
      </trkpt>
      <trkpt lat="44.33251" lon="6.85281">
        <ele>2259.6</ele>
        <time>2022-07-19T12:15:12Z</time>
      </trkpt>
      <trkpt lat="44.33253" lon="6.85279">
        <ele>2259.8</ele>
        <time>2022-07-19T12:15:13Z</time>
      </trkpt>
      <trkpt lat="44.33254" lon="6.85277">
        <ele>2259.8</ele>
        <time>2022-07-19T12:15:14Z</time>
      </trkpt>
      <trkpt lat="44.33255" lon="6.85275">
        <ele>2260.2</ele>
        <time>2022-07-19T12:15:15Z</time>
      </trkpt>
      <trkpt lat="44.33257" lon="6.85273">
        <ele>2260.2</ele>
        <time>2022-07-19T12:15:16Z</time>
      </trkpt>
      <trkpt lat="44.33258" lon="6.85271">
        <ele>2260.4</ele>
        <time>2022-07-19T12:15:17Z</time>
      </trkpt>
      <trkpt lat="44.33259" lon="6.85268">
        <ele>2260.4</ele>
        <time>2022-07-19T12:15:18Z</time>
      </trkpt>
      <trkpt lat="44.3326" lon="6.85266">
        <ele>2260.8</ele>
        <time>2022-07-19T12:15:19Z</time>
      </trkpt>
      <trkpt lat="44.33261" lon="6.85264">
        <ele>2261</ele>
        <time>2022-07-19T12:15:20Z</time>
      </trkpt>
      <trkpt lat="44.33262" lon="6.85262">
        <ele>2261</ele>
        <time>2022-07-19T12:15:21Z</time>
      </trkpt>
      <trkpt lat="44.33263" lon="6.8526">
        <ele>2261.4</ele>
        <time>2022-07-19T12:15:22Z</time>
      </trkpt>
      <trkpt lat="44.33264" lon="6.85257">
        <ele>2261.4</ele>
        <time>2022-07-19T12:15:23Z</time>
      </trkpt>
      <trkpt lat="44.33265" lon="6.85255">
        <ele>2261.8</ele>
        <time>2022-07-19T12:15:24Z</time>
      </trkpt>
      <trkpt lat="44.33266" lon="6.85253">
        <ele>2261.8</ele>
        <time>2022-07-19T12:15:25Z</time>
      </trkpt>
      <trkpt lat="44.33267" lon="6.85251">
        <ele>2262</ele>
        <time>2022-07-19T12:15:26Z</time>
      </trkpt>
      <trkpt lat="44.33268" lon="6.85249">
        <ele>2262</ele>
        <time>2022-07-19T12:15:27Z</time>
      </trkpt>
      <trkpt lat="44.33269" lon="6.85247">
        <ele>2262.6</ele>
        <time>2022-07-19T12:15:28Z</time>
      </trkpt>
      <trkpt lat="44.3327" lon="6.85245">
        <ele>2262.8</ele>
        <time>2022-07-19T12:15:29Z</time>
      </trkpt>
      <trkpt lat="44.3327" lon="6.85243">
        <ele>2262.8</ele>
        <time>2022-07-19T12:15:30Z</time>
      </trkpt>
      <trkpt lat="44.33271" lon="6.8524">
        <ele>2263.2</ele>
        <time>2022-07-19T12:15:31Z</time>
      </trkpt>
      <trkpt lat="44.33272" lon="6.85238">
        <ele>2263.4</ele>
        <time>2022-07-19T12:15:32Z</time>
      </trkpt>
      <trkpt lat="44.33273" lon="6.85236">
        <ele>2263.4</ele>
        <time>2022-07-19T12:15:33Z</time>
      </trkpt>
      <trkpt lat="44.33274" lon="6.85235">
        <ele>2263.8</ele>
        <time>2022-07-19T12:15:34Z</time>
      </trkpt>
      <trkpt lat="44.33274" lon="6.85233">
        <ele>2264</ele>
        <time>2022-07-19T12:15:35Z</time>
      </trkpt>
      <trkpt lat="44.33275" lon="6.85231">
        <ele>2264.4</ele>
        <time>2022-07-19T12:15:36Z</time>
      </trkpt>
      <trkpt lat="44.33276" lon="6.85229">
        <ele>2264.4</ele>
        <time>2022-07-19T12:15:37Z</time>
      </trkpt>
      <trkpt lat="44.33277" lon="6.85227">
        <ele>2264.6</ele>
        <time>2022-07-19T12:15:38Z</time>
      </trkpt>
      <trkpt lat="44.33278" lon="6.85225">
        <ele>2264.6</ele>
        <time>2022-07-19T12:15:39Z</time>
      </trkpt>
      <trkpt lat="44.33279" lon="6.85223">
        <ele>2265</ele>
        <time>2022-07-19T12:15:40Z</time>
      </trkpt>
      <trkpt lat="44.33279" lon="6.85221">
        <ele>2265</ele>
        <time>2022-07-19T12:15:41Z</time>
      </trkpt>
      <trkpt lat="44.3328" lon="6.85219">
        <ele>2265.4</ele>
        <time>2022-07-19T12:15:42Z</time>
      </trkpt>
      <trkpt lat="44.33281" lon="6.85217">
        <ele>2265.4</ele>
        <time>2022-07-19T12:15:43Z</time>
      </trkpt>
      <trkpt lat="44.33281" lon="6.85215">
        <ele>2265.8</ele>
        <time>2022-07-19T12:15:44Z</time>
      </trkpt>
      <trkpt lat="44.33282" lon="6.85213">
        <ele>2265.8</ele>
        <time>2022-07-19T12:15:45Z</time>
      </trkpt>
      <trkpt lat="44.33282" lon="6.85211">
        <ele>2266</ele>
        <time>2022-07-19T12:15:46Z</time>
      </trkpt>
      <trkpt lat="44.33282" lon="6.85209">
        <ele>2266.2</ele>
        <time>2022-07-19T12:15:47Z</time>
      </trkpt>
      <trkpt lat="44.33282" lon="6.85207">
        <ele>2266.2</ele>
        <time>2022-07-19T12:15:48Z</time>
      </trkpt>
      <trkpt lat="44.33283" lon="6.85204">
        <ele>2266.6</ele>
        <time>2022-07-19T12:15:49Z</time>
      </trkpt>
      <trkpt lat="44.33282" lon="6.852">
        <ele>2266.6</ele>
        <time>2022-07-19T12:15:50Z</time>
      </trkpt>
      <trkpt lat="44.33282" lon="6.85198">
        <ele>2266.8</ele>
        <time>2022-07-19T12:15:51Z</time>
      </trkpt>
      <trkpt lat="44.33282" lon="6.85196">
        <ele>2267</ele>
        <time>2022-07-19T12:15:52Z</time>
      </trkpt>
      <trkpt lat="44.33282" lon="6.85194">
        <ele>2267</ele>
        <time>2022-07-19T12:15:53Z</time>
      </trkpt>
      <trkpt lat="44.33282" lon="6.85192">
        <ele>2267.4</ele>
        <time>2022-07-19T12:15:54Z</time>
      </trkpt>
      <trkpt lat="44.33282" lon="6.8519">
        <ele>2267.4</ele>
        <time>2022-07-19T12:15:55Z</time>
      </trkpt>
      <trkpt lat="44.33282" lon="6.85188">
        <ele>2267.8</ele>
        <time>2022-07-19T12:15:56Z</time>
      </trkpt>
      <trkpt lat="44.33282" lon="6.85186">
        <ele>2267.8</ele>
        <time>2022-07-19T12:15:57Z</time>
      </trkpt>
      <trkpt lat="44.33281" lon="6.85185">
        <ele>2268</ele>
        <time>2022-07-19T12:15:58Z</time>
      </trkpt>
      <trkpt lat="44.33281" lon="6.85183">
        <ele>2268</ele>
        <time>2022-07-19T12:15:59Z</time>
      </trkpt>
      <trkpt lat="44.3328" lon="6.85181">
        <ele>2268.4</ele>
        <time>2022-07-19T12:16:00Z</time>
      </trkpt>
      <trkpt lat="44.3328" lon="6.85179">
        <ele>2268.4</ele>
        <time>2022-07-19T12:16:01Z</time>
      </trkpt>
      <trkpt lat="44.3328" lon="6.85177">
        <ele>2268.8</ele>
        <time>2022-07-19T12:16:02Z</time>
      </trkpt>
      <trkpt lat="44.33281" lon="6.85174">
        <ele>2268.8</ele>
        <time>2022-07-19T12:16:03Z</time>
      </trkpt>
      <trkpt lat="44.3328" lon="6.85172">
        <ele>2269</ele>
        <time>2022-07-19T12:16:04Z</time>
      </trkpt>
      <trkpt lat="44.3328" lon="6.8517">
        <ele>2269.4</ele>
        <time>2022-07-19T12:16:05Z</time>
      </trkpt>
      <trkpt lat="44.3328" lon="6.85168">
        <ele>2269.4</ele>
        <time>2022-07-19T12:16:06Z</time>
      </trkpt>
      <trkpt lat="44.3328" lon="6.85166">
        <ele>2269.6</ele>
        <time>2022-07-19T12:16:07Z</time>
      </trkpt>
      <trkpt lat="44.3328" lon="6.85163">
        <ele>2269.6</ele>
        <time>2022-07-19T12:16:08Z</time>
      </trkpt>
      <trkpt lat="44.3328" lon="6.85161">
        <ele>2269.8</ele>
        <time>2022-07-19T12:16:09Z</time>
      </trkpt>
      <trkpt lat="44.3328" lon="6.85159">
        <ele>2269.8</ele>
        <time>2022-07-19T12:16:10Z</time>
      </trkpt>
      <trkpt lat="44.3328" lon="6.85157">
        <ele>2270.2</ele>
        <time>2022-07-19T12:16:11Z</time>
      </trkpt>
      <trkpt lat="44.3328" lon="6.85155">
        <ele>2270.4</ele>
        <time>2022-07-19T12:16:12Z</time>
      </trkpt>
      <trkpt lat="44.3328" lon="6.85153">
        <ele>2270.8</ele>
        <time>2022-07-19T12:16:13Z</time>
      </trkpt>
      <trkpt lat="44.3328" lon="6.85151">
        <ele>2271</ele>
        <time>2022-07-19T12:16:14Z</time>
      </trkpt>
      <trkpt lat="44.3328" lon="6.85148">
        <ele>2271.2</ele>
        <time>2022-07-19T12:16:15Z</time>
      </trkpt>
      <trkpt lat="44.3328" lon="6.85146">
        <ele>2271.2</ele>
        <time>2022-07-19T12:16:16Z</time>
      </trkpt>
      <trkpt lat="44.3328" lon="6.85143">
        <ele>2271.6</ele>
        <time>2022-07-19T12:16:17Z</time>
      </trkpt>
      <trkpt lat="44.3328" lon="6.85141">
        <ele>2271.6</ele>
        <time>2022-07-19T12:16:18Z</time>
      </trkpt>
      <trkpt lat="44.3328" lon="6.85139">
        <ele>2272</ele>
        <time>2022-07-19T12:16:19Z</time>
      </trkpt>
      <trkpt lat="44.3328" lon="6.85137">
        <ele>2272</ele>
        <time>2022-07-19T12:16:20Z</time>
      </trkpt>
      <trkpt lat="44.33279" lon="6.85135">
        <ele>2272</ele>
        <time>2022-07-19T12:16:21Z</time>
      </trkpt>
      <trkpt lat="44.33279" lon="6.85133">
        <ele>2272.4</ele>
        <time>2022-07-19T12:16:22Z</time>
      </trkpt>
      <trkpt lat="44.33279" lon="6.8513">
        <ele>2272.6</ele>
        <time>2022-07-19T12:16:23Z</time>
      </trkpt>
      <trkpt lat="44.33279" lon="6.85128">
        <ele>2272.6</ele>
        <time>2022-07-19T12:16:24Z</time>
      </trkpt>
      <trkpt lat="44.33278" lon="6.85126">
        <ele>2272.8</ele>
        <time>2022-07-19T12:16:25Z</time>
      </trkpt>
      <trkpt lat="44.33278" lon="6.85124">
        <ele>2272.8</ele>
        <time>2022-07-19T12:16:26Z</time>
      </trkpt>
      <trkpt lat="44.33278" lon="6.85122">
        <ele>2272.8</ele>
        <time>2022-07-19T12:16:27Z</time>
      </trkpt>
      <trkpt lat="44.33278" lon="6.8512">
        <ele>2273.2</ele>
        <time>2022-07-19T12:16:28Z</time>
      </trkpt>
      <trkpt lat="44.33278" lon="6.85117">
        <ele>2273.2</ele>
        <time>2022-07-19T12:16:29Z</time>
      </trkpt>
      <trkpt lat="44.33279" lon="6.85115">
        <ele>2273.6</ele>
        <time>2022-07-19T12:16:30Z</time>
      </trkpt>
      <trkpt lat="44.3328" lon="6.85113">
        <ele>2273.6</ele>
        <time>2022-07-19T12:16:31Z</time>
      </trkpt>
      <trkpt lat="44.33281" lon="6.85111">
        <ele>2273.8</ele>
        <time>2022-07-19T12:16:32Z</time>
      </trkpt>
      <trkpt lat="44.33282" lon="6.85109">
        <ele>2273.8</ele>
        <time>2022-07-19T12:16:33Z</time>
      </trkpt>
      <trkpt lat="44.33283" lon="6.85107">
        <ele>2273.8</ele>
        <time>2022-07-19T12:16:34Z</time>
      </trkpt>
      <trkpt lat="44.33284" lon="6.85105">
        <ele>2274.2</ele>
        <time>2022-07-19T12:16:35Z</time>
      </trkpt>
      <trkpt lat="44.33285" lon="6.85103">
        <ele>2274.2</ele>
        <time>2022-07-19T12:16:36Z</time>
      </trkpt>
      <trkpt lat="44.33286" lon="6.85101">
        <ele>2274.4</ele>
        <time>2022-07-19T12:16:37Z</time>
      </trkpt>
      <trkpt lat="44.33287" lon="6.85099">
        <ele>2274.6</ele>
        <time>2022-07-19T12:16:38Z</time>
      </trkpt>
      <trkpt lat="44.33288" lon="6.85098">
        <ele>2274.6</ele>
        <time>2022-07-19T12:16:39Z</time>
      </trkpt>
      <trkpt lat="44.33289" lon="6.85096">
        <ele>2274.6</ele>
        <time>2022-07-19T12:16:40Z</time>
      </trkpt>
      <trkpt lat="44.3329" lon="6.85094">
        <ele>2275</ele>
        <time>2022-07-19T12:16:41Z</time>
      </trkpt>
      <trkpt lat="44.33291" lon="6.85092">
        <ele>2275</ele>
        <time>2022-07-19T12:16:42Z</time>
      </trkpt>
      <trkpt lat="44.33292" lon="6.8509">
        <ele>2275.4</ele>
        <time>2022-07-19T12:16:43Z</time>
      </trkpt>
      <trkpt lat="44.33292" lon="6.85088">
        <ele>2275.4</ele>
        <time>2022-07-19T12:16:44Z</time>
      </trkpt>
      <trkpt lat="44.33293" lon="6.85086">
        <ele>2275.4</ele>
        <time>2022-07-19T12:16:45Z</time>
      </trkpt>
      <trkpt lat="44.33294" lon="6.85084">
        <ele>2275.6</ele>
        <time>2022-07-19T12:16:46Z</time>
      </trkpt>
      <trkpt lat="44.33295" lon="6.85082">
        <ele>2275.6</ele>
        <time>2022-07-19T12:16:47Z</time>
      </trkpt>
      <trkpt lat="44.33296" lon="6.8508">
        <ele>2276</ele>
        <time>2022-07-19T12:16:48Z</time>
      </trkpt>
      <trkpt lat="44.33297" lon="6.85078">
        <ele>2276.2</ele>
        <time>2022-07-19T12:16:49Z</time>
      </trkpt>
      <trkpt lat="44.33298" lon="6.85077">
        <ele>2276.4</ele>
        <time>2022-07-19T12:16:50Z</time>
      </trkpt>
      <trkpt lat="44.33298" lon="6.85075">
        <ele>2276.4</ele>
        <time>2022-07-19T12:16:51Z</time>
      </trkpt>
      <trkpt lat="44.33299" lon="6.85073">
        <ele>2276.8</ele>
        <time>2022-07-19T12:16:52Z</time>
      </trkpt>
      <trkpt lat="44.333" lon="6.85071">
        <ele>2277</ele>
        <time>2022-07-19T12:16:53Z</time>
      </trkpt>
      <trkpt lat="44.33301" lon="6.85069">
        <ele>2277.4</ele>
        <time>2022-07-19T12:16:54Z</time>
      </trkpt>
      <trkpt lat="44.33302" lon="6.85068">
        <ele>2277.6</ele>
        <time>2022-07-19T12:16:55Z</time>
      </trkpt>
      <trkpt lat="44.33304" lon="6.85067">
        <ele>2277.8</ele>
        <time>2022-07-19T12:16:56Z</time>
      </trkpt>
      <trkpt lat="44.33305" lon="6.85066">
        <ele>2277.8</ele>
        <time>2022-07-19T12:16:57Z</time>
      </trkpt>
      <trkpt lat="44.33306" lon="6.85065">
        <ele>2278.2</ele>
        <time>2022-07-19T12:16:58Z</time>
      </trkpt>
      <trkpt lat="44.33307" lon="6.85063">
        <ele>2278.2</ele>
        <time>2022-07-19T12:16:59Z</time>
      </trkpt>
      <trkpt lat="44.33309" lon="6.85063">
        <ele>2278.4</ele>
        <time>2022-07-19T12:17:00Z</time>
      </trkpt>
      <trkpt lat="44.33311" lon="6.85062">
        <ele>2278.4</ele>
        <time>2022-07-19T12:17:01Z</time>
      </trkpt>
      <trkpt lat="44.33312" lon="6.85062">
        <ele>2278.4</ele>
        <time>2022-07-19T12:17:02Z</time>
      </trkpt>
      <trkpt lat="44.33314" lon="6.85061">
        <ele>2278.8</ele>
        <time>2022-07-19T12:17:03Z</time>
      </trkpt>
      <trkpt lat="44.33316" lon="6.85061">
        <ele>2278.8</ele>
        <time>2022-07-19T12:17:04Z</time>
      </trkpt>
      <trkpt lat="44.33317" lon="6.8506">
        <ele>2279</ele>
        <time>2022-07-19T12:17:05Z</time>
      </trkpt>
      <trkpt lat="44.33319" lon="6.85059">
        <ele>2279</ele>
        <time>2022-07-19T12:17:06Z</time>
      </trkpt>
      <trkpt lat="44.3332" lon="6.85058">
        <ele>2279</ele>
        <time>2022-07-19T12:17:07Z</time>
      </trkpt>
      <trkpt lat="44.33321" lon="6.85057">
        <ele>2279.2</ele>
        <time>2022-07-19T12:17:08Z</time>
      </trkpt>
      <trkpt lat="44.33323" lon="6.85056">
        <ele>2279.2</ele>
        <time>2022-07-19T12:17:09Z</time>
      </trkpt>
      <trkpt lat="44.33324" lon="6.85055">
        <ele>2279.6</ele>
        <time>2022-07-19T12:17:10Z</time>
      </trkpt>
      <trkpt lat="44.33325" lon="6.85054">
        <ele>2279.6</ele>
        <time>2022-07-19T12:17:11Z</time>
      </trkpt>
      <trkpt lat="44.33327" lon="6.85054">
        <ele>2279.8</ele>
        <time>2022-07-19T12:17:12Z</time>
      </trkpt>
      <trkpt lat="44.33328" lon="6.85053">
        <ele>2280</ele>
        <time>2022-07-19T12:17:13Z</time>
      </trkpt>
      <trkpt lat="44.33329" lon="6.85052">
        <ele>2280</ele>
        <time>2022-07-19T12:17:14Z</time>
      </trkpt>
      <trkpt lat="44.33331" lon="6.85051">
        <ele>2280.2</ele>
        <time>2022-07-19T12:17:15Z</time>
      </trkpt>
      <trkpt lat="44.33332" lon="6.8505">
        <ele>2280.6</ele>
        <time>2022-07-19T12:17:16Z</time>
      </trkpt>
      <trkpt lat="44.33334" lon="6.85049">
        <ele>2280.8</ele>
        <time>2022-07-19T12:17:17Z</time>
      </trkpt>
      <trkpt lat="44.33335" lon="6.85049">
        <ele>2280.8</ele>
        <time>2022-07-19T12:17:18Z</time>
      </trkpt>
      <trkpt lat="44.33336" lon="6.85048">
        <ele>2281.2</ele>
        <time>2022-07-19T12:17:19Z</time>
      </trkpt>
      <trkpt lat="44.33338" lon="6.85047">
        <ele>2281.2</ele>
        <time>2022-07-19T12:17:20Z</time>
      </trkpt>
      <trkpt lat="44.33339" lon="6.85046">
        <ele>2281.4</ele>
        <time>2022-07-19T12:17:21Z</time>
      </trkpt>
      <trkpt lat="44.33341" lon="6.85046">
        <ele>2281.8</ele>
        <time>2022-07-19T12:17:22Z</time>
      </trkpt>
      <trkpt lat="44.33342" lon="6.85045">
        <ele>2282</ele>
        <time>2022-07-19T12:17:23Z</time>
      </trkpt>
      <trkpt lat="44.33344" lon="6.85045">
        <ele>2282</ele>
        <time>2022-07-19T12:17:24Z</time>
      </trkpt>
      <trkpt lat="44.33346" lon="6.85044">
        <ele>2282.2</ele>
        <time>2022-07-19T12:17:25Z</time>
      </trkpt>
      <trkpt lat="44.33347" lon="6.85044">
        <ele>2282.2</ele>
        <time>2022-07-19T12:17:26Z</time>
      </trkpt>
      <trkpt lat="44.33349" lon="6.85044">
        <ele>2282.2</ele>
        <time>2022-07-19T12:17:27Z</time>
      </trkpt>
      <trkpt lat="44.33351" lon="6.85043">
        <ele>2282.6</ele>
        <time>2022-07-19T12:17:28Z</time>
      </trkpt>
      <trkpt lat="44.33352" lon="6.85043">
        <ele>2282.6</ele>
        <time>2022-07-19T12:17:29Z</time>
      </trkpt>
      <trkpt lat="44.33354" lon="6.85042">
        <ele>2282.6</ele>
        <time>2022-07-19T12:17:30Z</time>
      </trkpt>
      <trkpt lat="44.33356" lon="6.85042">
        <ele>2282.8</ele>
        <time>2022-07-19T12:17:31Z</time>
      </trkpt>
      <trkpt lat="44.33357" lon="6.85042">
        <ele>2282.8</ele>
        <time>2022-07-19T12:17:32Z</time>
      </trkpt>
      <trkpt lat="44.33359" lon="6.85042">
        <ele>2282.8</ele>
        <time>2022-07-19T12:17:33Z</time>
      </trkpt>
      <trkpt lat="44.3336" lon="6.85041">
        <ele>2283.2</ele>
        <time>2022-07-19T12:17:34Z</time>
      </trkpt>
      <trkpt lat="44.33362" lon="6.85041">
        <ele>2283.6</ele>
        <time>2022-07-19T12:17:35Z</time>
      </trkpt>
      <trkpt lat="44.33363" lon="6.8504">
        <ele>2283.6</ele>
        <time>2022-07-19T12:17:36Z</time>
      </trkpt>
      <trkpt lat="44.33364" lon="6.8504">
        <ele>2283.8</ele>
        <time>2022-07-19T12:17:37Z</time>
      </trkpt>
      <trkpt lat="44.33366" lon="6.85039">
        <ele>2283.8</ele>
        <time>2022-07-19T12:17:38Z</time>
      </trkpt>
      <trkpt lat="44.33367" lon="6.85039">
        <ele>2284.2</ele>
        <time>2022-07-19T12:17:39Z</time>
      </trkpt>
      <trkpt lat="44.33369" lon="6.85039">
        <ele>2284.4</ele>
        <time>2022-07-19T12:17:40Z</time>
      </trkpt>
      <trkpt lat="44.33371" lon="6.85039">
        <ele>2284.6</ele>
        <time>2022-07-19T12:17:41Z</time>
      </trkpt>
      <trkpt lat="44.33372" lon="6.85039">
        <ele>2284.8</ele>
        <time>2022-07-19T12:17:42Z</time>
      </trkpt>
      <trkpt lat="44.33374" lon="6.85039">
        <ele>2284.8</ele>
        <time>2022-07-19T12:17:43Z</time>
      </trkpt>
      <trkpt lat="44.33375" lon="6.85039">
        <ele>2285</ele>
        <time>2022-07-19T12:17:44Z</time>
      </trkpt>
      <trkpt lat="44.33377" lon="6.85039">
        <ele>2285</ele>
        <time>2022-07-19T12:17:45Z</time>
      </trkpt>
      <trkpt lat="44.33378" lon="6.85039">
        <ele>2285.4</ele>
        <time>2022-07-19T12:17:46Z</time>
      </trkpt>
      <trkpt lat="44.3338" lon="6.85039">
        <ele>2285.4</ele>
        <time>2022-07-19T12:17:47Z</time>
      </trkpt>
      <trkpt lat="44.33381" lon="6.85039">
        <ele>2285.8</ele>
        <time>2022-07-19T12:17:48Z</time>
      </trkpt>
      <trkpt lat="44.33383" lon="6.85039">
        <ele>2285.8</ele>
        <time>2022-07-19T12:17:49Z</time>
      </trkpt>
      <trkpt lat="44.33385" lon="6.85039">
        <ele>2286.2</ele>
        <time>2022-07-19T12:17:50Z</time>
      </trkpt>
      <trkpt lat="44.33386" lon="6.85039">
        <ele>2286.2</ele>
        <time>2022-07-19T12:17:51Z</time>
      </trkpt>
      <trkpt lat="44.33388" lon="6.85038">
        <ele>2286.4</ele>
        <time>2022-07-19T12:17:52Z</time>
      </trkpt>
      <trkpt lat="44.3339" lon="6.85038">
        <ele>2286.4</ele>
        <time>2022-07-19T12:17:53Z</time>
      </trkpt>
      <trkpt lat="44.33391" lon="6.85038">
        <ele>2286.8</ele>
        <time>2022-07-19T12:17:54Z</time>
      </trkpt>
      <trkpt lat="44.33393" lon="6.85038">
        <ele>2286.8</ele>
        <time>2022-07-19T12:17:55Z</time>
      </trkpt>
      <trkpt lat="44.33394" lon="6.85038">
        <ele>2287.2</ele>
        <time>2022-07-19T12:17:56Z</time>
      </trkpt>
      <trkpt lat="44.33396" lon="6.85038">
        <ele>2287.2</ele>
        <time>2022-07-19T12:17:57Z</time>
      </trkpt>
      <trkpt lat="44.33397" lon="6.85038">
        <ele>2287.6</ele>
        <time>2022-07-19T12:17:58Z</time>
      </trkpt>
      <trkpt lat="44.33399" lon="6.85037">
        <ele>2287.8</ele>
        <time>2022-07-19T12:17:59Z</time>
      </trkpt>
      <trkpt lat="44.334" lon="6.85038">
        <ele>2288</ele>
        <time>2022-07-19T12:18:00Z</time>
      </trkpt>
      <trkpt lat="44.33402" lon="6.85038">
        <ele>2288</ele>
        <time>2022-07-19T12:18:01Z</time>
      </trkpt>
      <trkpt lat="44.33403" lon="6.85038">
        <ele>2288.4</ele>
        <time>2022-07-19T12:18:02Z</time>
      </trkpt>
      <trkpt lat="44.33405" lon="6.85038">
        <ele>2288.4</ele>
        <time>2022-07-19T12:18:03Z</time>
      </trkpt>
      <trkpt lat="44.33406" lon="6.85038">
        <ele>2288.8</ele>
        <time>2022-07-19T12:18:04Z</time>
      </trkpt>
      <trkpt lat="44.33408" lon="6.85038">
        <ele>2289</ele>
        <time>2022-07-19T12:18:05Z</time>
      </trkpt>
      <trkpt lat="44.33409" lon="6.85038">
        <ele>2289</ele>
        <time>2022-07-19T12:18:06Z</time>
      </trkpt>
      <trkpt lat="44.3341" lon="6.85037">
        <ele>2289.2</ele>
        <time>2022-07-19T12:18:07Z</time>
      </trkpt>
      <trkpt lat="44.33412" lon="6.85037">
        <ele>2289.2</ele>
        <time>2022-07-19T12:18:08Z</time>
      </trkpt>
      <trkpt lat="44.33413" lon="6.85037">
        <ele>2289.6</ele>
        <time>2022-07-19T12:18:09Z</time>
      </trkpt>
      <trkpt lat="44.33415" lon="6.85037">
        <ele>2289.6</ele>
        <time>2022-07-19T12:18:10Z</time>
      </trkpt>
      <trkpt lat="44.33416" lon="6.85037">
        <ele>2289.8</ele>
        <time>2022-07-19T12:18:11Z</time>
      </trkpt>
      <trkpt lat="44.33417" lon="6.85037">
        <ele>2290</ele>
        <time>2022-07-19T12:18:12Z</time>
      </trkpt>
      <trkpt lat="44.33419" lon="6.85037">
        <ele>2290</ele>
        <time>2022-07-19T12:18:13Z</time>
      </trkpt>
      <trkpt lat="44.3342" lon="6.85037">
        <ele>2290.4</ele>
        <time>2022-07-19T12:18:14Z</time>
      </trkpt>
      <trkpt lat="44.33422" lon="6.85037">
        <ele>2290.6</ele>
        <time>2022-07-19T12:18:15Z</time>
      </trkpt>
      <trkpt lat="44.33423" lon="6.85037">
        <ele>2290.6</ele>
        <time>2022-07-19T12:18:16Z</time>
      </trkpt>
      <trkpt lat="44.33425" lon="6.85038">
        <ele>2290.8</ele>
        <time>2022-07-19T12:18:17Z</time>
      </trkpt>
      <trkpt lat="44.33426" lon="6.85038">
        <ele>2290.8</ele>
        <time>2022-07-19T12:18:18Z</time>
      </trkpt>
      <trkpt lat="44.33428" lon="6.85038">
        <ele>2291.2</ele>
        <time>2022-07-19T12:18:19Z</time>
      </trkpt>
      <trkpt lat="44.33429" lon="6.85039">
        <ele>2291.2</ele>
        <time>2022-07-19T12:18:20Z</time>
      </trkpt>
      <trkpt lat="44.33431" lon="6.85039">
        <ele>2291.4</ele>
        <time>2022-07-19T12:18:21Z</time>
      </trkpt>
      <trkpt lat="44.33433" lon="6.85039">
        <ele>2291.8</ele>
        <time>2022-07-19T12:18:23Z</time>
      </trkpt>
      <trkpt lat="44.33434" lon="6.85039">
        <ele>2291.8</ele>
        <time>2022-07-19T12:18:24Z</time>
      </trkpt>
      <trkpt lat="44.33436" lon="6.85039">
        <ele>2292</ele>
        <time>2022-07-19T12:18:25Z</time>
      </trkpt>
      <trkpt lat="44.33438" lon="6.85039">
        <ele>2292</ele>
        <time>2022-07-19T12:18:26Z</time>
      </trkpt>
      <trkpt lat="44.33439" lon="6.85039">
        <ele>2292.2</ele>
        <time>2022-07-19T12:18:27Z</time>
      </trkpt>
      <trkpt lat="44.33441" lon="6.85039">
        <ele>2292.2</ele>
        <time>2022-07-19T12:18:28Z</time>
      </trkpt>
      <trkpt lat="44.33442" lon="6.85039">
        <ele>2292.6</ele>
        <time>2022-07-19T12:18:29Z</time>
      </trkpt>
      <trkpt lat="44.33444" lon="6.85039">
        <ele>2292.6</ele>
        <time>2022-07-19T12:18:30Z</time>
      </trkpt>
      <trkpt lat="44.33445" lon="6.85039">
        <ele>2293</ele>
        <time>2022-07-19T12:18:31Z</time>
      </trkpt>
      <trkpt lat="44.33446" lon="6.85039">
        <ele>2293</ele>
        <time>2022-07-19T12:18:32Z</time>
      </trkpt>
      <trkpt lat="44.33448" lon="6.8504">
        <ele>2293.4</ele>
        <time>2022-07-19T12:18:33Z</time>
      </trkpt>
      <trkpt lat="44.33449" lon="6.8504">
        <ele>2293.4</ele>
        <time>2022-07-19T12:18:34Z</time>
      </trkpt>
      <trkpt lat="44.33451" lon="6.8504">
        <ele>2293.6</ele>
        <time>2022-07-19T12:18:35Z</time>
      </trkpt>
      <trkpt lat="44.33452" lon="6.85041">
        <ele>2293.8</ele>
        <time>2022-07-19T12:18:36Z</time>
      </trkpt>
      <trkpt lat="44.33454" lon="6.85041">
        <ele>2293.8</ele>
        <time>2022-07-19T12:18:37Z</time>
      </trkpt>
      <trkpt lat="44.33455" lon="6.85042">
        <ele>2294.2</ele>
        <time>2022-07-19T12:18:38Z</time>
      </trkpt>
      <trkpt lat="44.33457" lon="6.85042">
        <ele>2294.2</ele>
        <time>2022-07-19T12:18:39Z</time>
      </trkpt>
      <trkpt lat="44.33458" lon="6.85042">
        <ele>2294.4</ele>
        <time>2022-07-19T12:18:40Z</time>
      </trkpt>
      <trkpt lat="44.3346" lon="6.85042">
        <ele>2294.4</ele>
        <time>2022-07-19T12:18:41Z</time>
      </trkpt>
      <trkpt lat="44.33461" lon="6.85042">
        <ele>2294.8</ele>
        <time>2022-07-19T12:18:42Z</time>
      </trkpt>
      <trkpt lat="44.33463" lon="6.85042">
        <ele>2294.8</ele>
        <time>2022-07-19T12:18:43Z</time>
      </trkpt>
      <trkpt lat="44.33464" lon="6.85042">
        <ele>2295</ele>
        <time>2022-07-19T12:18:44Z</time>
      </trkpt>
      <trkpt lat="44.33466" lon="6.85043">
        <ele>2295</ele>
        <time>2022-07-19T12:18:45Z</time>
      </trkpt>
      <trkpt lat="44.33467" lon="6.85043">
        <ele>2295.4</ele>
        <time>2022-07-19T12:18:46Z</time>
      </trkpt>
      <trkpt lat="44.33469" lon="6.85043">
        <ele>2295.4</ele>
        <time>2022-07-19T12:18:47Z</time>
      </trkpt>
      <trkpt lat="44.3347" lon="6.85044">
        <ele>2295.8</ele>
        <time>2022-07-19T12:18:48Z</time>
      </trkpt>
      <trkpt lat="44.33471" lon="6.85045">
        <ele>2295.8</ele>
        <time>2022-07-19T12:18:49Z</time>
      </trkpt>
      <trkpt lat="44.33473" lon="6.85045">
        <ele>2296.2</ele>
        <time>2022-07-19T12:18:50Z</time>
      </trkpt>
      <trkpt lat="44.33474" lon="6.85046">
        <ele>2296.4</ele>
        <time>2022-07-19T12:18:51Z</time>
      </trkpt>
      <trkpt lat="44.33475" lon="6.85046">
        <ele>2296.4</ele>
        <time>2022-07-19T12:18:52Z</time>
      </trkpt>
      <trkpt lat="44.33477" lon="6.85047">
        <ele>2296.6</ele>
        <time>2022-07-19T12:18:53Z</time>
      </trkpt>
      <trkpt lat="44.33478" lon="6.85047">
        <ele>2296.6</ele>
        <time>2022-07-19T12:18:54Z</time>
      </trkpt>
      <trkpt lat="44.33479" lon="6.85048">
        <ele>2296.8</ele>
        <time>2022-07-19T12:18:55Z</time>
      </trkpt>
      <trkpt lat="44.33481" lon="6.85049">
        <ele>2296.8</ele>
        <time>2022-07-19T12:18:56Z</time>
      </trkpt>
      <trkpt lat="44.33482" lon="6.85049">
        <ele>2297</ele>
        <time>2022-07-19T12:18:57Z</time>
      </trkpt>
      <trkpt lat="44.33483" lon="6.8505">
        <ele>2297</ele>
        <time>2022-07-19T12:18:58Z</time>
      </trkpt>
      <trkpt lat="44.33485" lon="6.8505">
        <ele>2297.4</ele>
        <time>2022-07-19T12:18:59Z</time>
      </trkpt>
      <trkpt lat="44.33486" lon="6.85051">
        <ele>2297.4</ele>
        <time>2022-07-19T12:19:00Z</time>
      </trkpt>
      <trkpt lat="44.33487" lon="6.85052">
        <ele>2297.6</ele>
        <time>2022-07-19T12:19:01Z</time>
      </trkpt>
      <trkpt lat="44.33489" lon="6.85052">
        <ele>2297.6</ele>
        <time>2022-07-19T12:19:02Z</time>
      </trkpt>
      <trkpt lat="44.3349" lon="6.85053">
        <ele>2298</ele>
        <time>2022-07-19T12:19:03Z</time>
      </trkpt>
      <trkpt lat="44.33491" lon="6.85053">
        <ele>2298</ele>
        <time>2022-07-19T12:19:04Z</time>
      </trkpt>
      <trkpt lat="44.33493" lon="6.85054">
        <ele>2298.2</ele>
        <time>2022-07-19T12:19:05Z</time>
      </trkpt>
      <trkpt lat="44.33494" lon="6.85055">
        <ele>2298.2</ele>
        <time>2022-07-19T12:19:06Z</time>
      </trkpt>
      <trkpt lat="44.33496" lon="6.85055">
        <ele>2298.6</ele>
        <time>2022-07-19T12:19:07Z</time>
      </trkpt>
      <trkpt lat="44.33497" lon="6.85056">
        <ele>2298.6</ele>
        <time>2022-07-19T12:19:08Z</time>
      </trkpt>
      <trkpt lat="44.33498" lon="6.85056">
        <ele>2299</ele>
        <time>2022-07-19T12:19:09Z</time>
      </trkpt>
      <trkpt lat="44.335" lon="6.85056">
        <ele>2299</ele>
        <time>2022-07-19T12:19:10Z</time>
      </trkpt>
      <trkpt lat="44.33501" lon="6.85057">
        <ele>2299.4</ele>
        <time>2022-07-19T12:19:11Z</time>
      </trkpt>
      <trkpt lat="44.33502" lon="6.85057">
        <ele>2299.6</ele>
        <time>2022-07-19T12:19:12Z</time>
      </trkpt>
      <trkpt lat="44.33504" lon="6.85058">
        <ele>2299.8</ele>
        <time>2022-07-19T12:19:13Z</time>
      </trkpt>
      <trkpt lat="44.33505" lon="6.85059">
        <ele>2299.8</ele>
        <time>2022-07-19T12:19:14Z</time>
      </trkpt>
      <trkpt lat="44.33506" lon="6.85059">
        <ele>2300.2</ele>
        <time>2022-07-19T12:19:15Z</time>
      </trkpt>
      <trkpt lat="44.33508" lon="6.8506">
        <ele>2300.2</ele>
        <time>2022-07-19T12:19:16Z</time>
      </trkpt>
      <trkpt lat="44.33509" lon="6.85061">
        <ele>2300.6</ele>
        <time>2022-07-19T12:19:17Z</time>
      </trkpt>
      <trkpt lat="44.3351" lon="6.85062">
        <ele>2300.6</ele>
        <time>2022-07-19T12:19:18Z</time>
      </trkpt>
      <trkpt lat="44.33512" lon="6.85062">
        <ele>2301</ele>
        <time>2022-07-19T12:19:19Z</time>
      </trkpt>
      <trkpt lat="44.33513" lon="6.85063">
        <ele>2301.2</ele>
        <time>2022-07-19T12:19:20Z</time>
      </trkpt>
      <trkpt lat="44.33515" lon="6.85063">
        <ele>2301.4</ele>
        <time>2022-07-19T12:19:21Z</time>
      </trkpt>
      <trkpt lat="44.33516" lon="6.85064">
        <ele>2301.4</ele>
        <time>2022-07-19T12:19:22Z</time>
      </trkpt>
      <trkpt lat="44.33518" lon="6.85064">
        <ele>2301.6</ele>
        <time>2022-07-19T12:19:23Z</time>
      </trkpt>
      <trkpt lat="44.33519" lon="6.85065">
        <ele>2301.6</ele>
        <time>2022-07-19T12:19:24Z</time>
      </trkpt>
      <trkpt lat="44.3352" lon="6.85065">
        <ele>2302</ele>
        <time>2022-07-19T12:19:25Z</time>
      </trkpt>
      <trkpt lat="44.33522" lon="6.85066">
        <ele>2302</ele>
        <time>2022-07-19T12:19:26Z</time>
      </trkpt>
      <trkpt lat="44.33523" lon="6.85066">
        <ele>2302.2</ele>
        <time>2022-07-19T12:19:27Z</time>
      </trkpt>
      <trkpt lat="44.33525" lon="6.85067">
        <ele>2302.2</ele>
        <time>2022-07-19T12:19:28Z</time>
      </trkpt>
      <trkpt lat="44.33526" lon="6.85067">
        <ele>2302.4</ele>
        <time>2022-07-19T12:19:29Z</time>
      </trkpt>
      <trkpt lat="44.33528" lon="6.85068">
        <ele>2302.6</ele>
        <time>2022-07-19T12:19:30Z</time>
      </trkpt>
      <trkpt lat="44.33529" lon="6.85069">
        <ele>2302.6</ele>
        <time>2022-07-19T12:19:31Z</time>
      </trkpt>
      <trkpt lat="44.33531" lon="6.85069">
        <ele>2302.8</ele>
        <time>2022-07-19T12:19:32Z</time>
      </trkpt>
      <trkpt lat="44.33532" lon="6.85069">
        <ele>2302.8</ele>
        <time>2022-07-19T12:19:33Z</time>
      </trkpt>
      <trkpt lat="44.33534" lon="6.8507">
        <ele>2302.8</ele>
        <time>2022-07-19T12:19:34Z</time>
      </trkpt>
      <trkpt lat="44.33535" lon="6.8507">
        <ele>2303.2</ele>
        <time>2022-07-19T12:19:35Z</time>
      </trkpt>
      <trkpt lat="44.33537" lon="6.85071">
        <ele>2303.2</ele>
        <time>2022-07-19T12:19:36Z</time>
      </trkpt>
      <trkpt lat="44.33538" lon="6.85071">
        <ele>2303.4</ele>
        <time>2022-07-19T12:19:37Z</time>
      </trkpt>
      <trkpt lat="44.33539" lon="6.85071">
        <ele>2303.6</ele>
        <time>2022-07-19T12:19:38Z</time>
      </trkpt>
      <trkpt lat="44.33541" lon="6.85071">
        <ele>2303.6</ele>
        <time>2022-07-19T12:19:39Z</time>
      </trkpt>
      <trkpt lat="44.33542" lon="6.85071">
        <ele>2304</ele>
        <time>2022-07-19T12:19:40Z</time>
      </trkpt>
      <trkpt lat="44.33544" lon="6.85071">
        <ele>2304</ele>
        <time>2022-07-19T12:19:41Z</time>
      </trkpt>
      <trkpt lat="44.33545" lon="6.85071">
        <ele>2304</ele>
        <time>2022-07-19T12:19:42Z</time>
      </trkpt>
      <trkpt lat="44.33547" lon="6.85071">
        <ele>2304.2</ele>
        <time>2022-07-19T12:19:43Z</time>
      </trkpt>
      <trkpt lat="44.33548" lon="6.85071">
        <ele>2304.2</ele>
        <time>2022-07-19T12:19:44Z</time>
      </trkpt>
      <trkpt lat="44.3355" lon="6.85071">
        <ele>2304.6</ele>
        <time>2022-07-19T12:19:45Z</time>
      </trkpt>
      <trkpt lat="44.33551" lon="6.8507">
        <ele>2304.8</ele>
        <time>2022-07-19T12:19:46Z</time>
      </trkpt>
      <trkpt lat="44.33553" lon="6.8507">
        <ele>2305.2</ele>
        <time>2022-07-19T12:19:47Z</time>
      </trkpt>
      <trkpt lat="44.33554" lon="6.85069">
        <ele>2305.4</ele>
        <time>2022-07-19T12:19:48Z</time>
      </trkpt>
      <trkpt lat="44.33556" lon="6.85069">
        <ele>2305.6</ele>
        <time>2022-07-19T12:19:49Z</time>
      </trkpt>
      <trkpt lat="44.33557" lon="6.85068">
        <ele>2305.6</ele>
        <time>2022-07-19T12:19:50Z</time>
      </trkpt>
      <trkpt lat="44.33558" lon="6.85068">
        <ele>2306</ele>
        <time>2022-07-19T12:19:51Z</time>
      </trkpt>
      <trkpt lat="44.3356" lon="6.85068">
        <ele>2306</ele>
        <time>2022-07-19T12:19:52Z</time>
      </trkpt>
      <trkpt lat="44.33561" lon="6.85068">
        <ele>2306.2</ele>
        <time>2022-07-19T12:19:53Z</time>
      </trkpt>
      <trkpt lat="44.33563" lon="6.85068">
        <ele>2306.2</ele>
        <time>2022-07-19T12:19:54Z</time>
      </trkpt>
      <trkpt lat="44.33564" lon="6.85068">
        <ele>2306.6</ele>
        <time>2022-07-19T12:19:55Z</time>
      </trkpt>
      <trkpt lat="44.33566" lon="6.85068">
        <ele>2306.6</ele>
        <time>2022-07-19T12:19:56Z</time>
      </trkpt>
      <trkpt lat="44.33567" lon="6.85068">
        <ele>2306.8</ele>
        <time>2022-07-19T12:19:57Z</time>
      </trkpt>
      <trkpt lat="44.33569" lon="6.85068">
        <ele>2306.8</ele>
        <time>2022-07-19T12:19:58Z</time>
      </trkpt>
      <trkpt lat="44.3357" lon="6.85069">
        <ele>2307</ele>
        <time>2022-07-19T12:19:59Z</time>
      </trkpt>
      <trkpt lat="44.33572" lon="6.85069">
        <ele>2307</ele>
        <time>2022-07-19T12:20:00Z</time>
      </trkpt>
      <trkpt lat="44.33573" lon="6.85069">
        <ele>2307.2</ele>
        <time>2022-07-19T12:20:01Z</time>
      </trkpt>
      <trkpt lat="44.33575" lon="6.85068">
        <ele>2307.2</ele>
        <time>2022-07-19T12:20:02Z</time>
      </trkpt>
      <trkpt lat="44.33576" lon="6.85068">
        <ele>2307.6</ele>
        <time>2022-07-19T12:20:03Z</time>
      </trkpt>
      <trkpt lat="44.33578" lon="6.85068">
        <ele>2307.6</ele>
        <time>2022-07-19T12:20:04Z</time>
      </trkpt>
      <trkpt lat="44.33579" lon="6.85068">
        <ele>2307.8</ele>
        <time>2022-07-19T12:20:05Z</time>
      </trkpt>
      <trkpt lat="44.33581" lon="6.85068">
        <ele>2307.8</ele>
        <time>2022-07-19T12:20:06Z</time>
      </trkpt>
      <trkpt lat="44.33582" lon="6.85068">
        <ele>2308</ele>
        <time>2022-07-19T12:20:07Z</time>
      </trkpt>
      <trkpt lat="44.33584" lon="6.85067">
        <ele>2308</ele>
        <time>2022-07-19T12:20:08Z</time>
      </trkpt>
      <trkpt lat="44.33585" lon="6.85066">
        <ele>2308.2</ele>
        <time>2022-07-19T12:20:09Z</time>
      </trkpt>
      <trkpt lat="44.33586" lon="6.85066">
        <ele>2308.2</ele>
        <time>2022-07-19T12:20:10Z</time>
      </trkpt>
      <trkpt lat="44.33588" lon="6.85065">
        <ele>2308.8</ele>
        <time>2022-07-19T12:20:11Z</time>
      </trkpt>
      <trkpt lat="44.33589" lon="6.85065">
        <ele>2309</ele>
        <time>2022-07-19T12:20:12Z</time>
      </trkpt>
      <trkpt lat="44.3359" lon="6.85064">
        <ele>2309</ele>
        <time>2022-07-19T12:20:13Z</time>
      </trkpt>
      <trkpt lat="44.33592" lon="6.85064">
        <ele>2309.2</ele>
        <time>2022-07-19T12:20:14Z</time>
      </trkpt>
      <trkpt lat="44.33594" lon="6.85064">
        <ele>2309.2</ele>
        <time>2022-07-19T12:20:15Z</time>
      </trkpt>
      <trkpt lat="44.33595" lon="6.85063">
        <ele>2309.4</ele>
        <time>2022-07-19T12:20:16Z</time>
      </trkpt>
      <trkpt lat="44.33597" lon="6.85063">
        <ele>2309.4</ele>
        <time>2022-07-19T12:20:17Z</time>
      </trkpt>
      <trkpt lat="44.33598" lon="6.85062">
        <ele>2309.8</ele>
        <time>2022-07-19T12:20:18Z</time>
      </trkpt>
      <trkpt lat="44.336" lon="6.85061">
        <ele>2310</ele>
        <time>2022-07-19T12:20:19Z</time>
      </trkpt>
      <trkpt lat="44.33601" lon="6.8506">
        <ele>2310</ele>
        <time>2022-07-19T12:20:20Z</time>
      </trkpt>
      <trkpt lat="44.33603" lon="6.85059">
        <ele>2310.4</ele>
        <time>2022-07-19T12:20:21Z</time>
      </trkpt>
      <trkpt lat="44.33604" lon="6.85058">
        <ele>2310.4</ele>
        <time>2022-07-19T12:20:22Z</time>
      </trkpt>
      <trkpt lat="44.33605" lon="6.85056">
        <ele>2310.6</ele>
        <time>2022-07-19T12:20:23Z</time>
      </trkpt>
      <trkpt lat="44.33607" lon="6.85055">
        <ele>2310.6</ele>
        <time>2022-07-19T12:20:24Z</time>
      </trkpt>
      <trkpt lat="44.33608" lon="6.85053">
        <ele>2311</ele>
        <time>2022-07-19T12:20:25Z</time>
      </trkpt>
      <trkpt lat="44.33609" lon="6.85051">
        <ele>2311</ele>
        <time>2022-07-19T12:20:26Z</time>
      </trkpt>
      <trkpt lat="44.33611" lon="6.8505">
        <ele>2311.4</ele>
        <time>2022-07-19T12:20:27Z</time>
      </trkpt>
      <trkpt lat="44.33612" lon="6.85048">
        <ele>2311.6</ele>
        <time>2022-07-19T12:20:28Z</time>
      </trkpt>
      <trkpt lat="44.33613" lon="6.85046">
        <ele>2311.8</ele>
        <time>2022-07-19T12:20:29Z</time>
      </trkpt>
      <trkpt lat="44.33613" lon="6.85044">
        <ele>2311.8</ele>
        <time>2022-07-19T12:20:30Z</time>
      </trkpt>
      <trkpt lat="44.33614" lon="6.85042">
        <ele>2312.2</ele>
        <time>2022-07-19T12:20:31Z</time>
      </trkpt>
      <trkpt lat="44.33615" lon="6.85041">
        <ele>2312.2</ele>
        <time>2022-07-19T12:20:32Z</time>
      </trkpt>
      <trkpt lat="44.33616" lon="6.85039">
        <ele>2312.4</ele>
        <time>2022-07-19T12:20:33Z</time>
      </trkpt>
      <trkpt lat="44.33617" lon="6.85037">
        <ele>2312.4</ele>
        <time>2022-07-19T12:20:34Z</time>
      </trkpt>
      <trkpt lat="44.33618" lon="6.85035">
        <ele>2312.8</ele>
        <time>2022-07-19T12:20:35Z</time>
      </trkpt>
      <trkpt lat="44.33619" lon="6.85033">
        <ele>2313</ele>
        <time>2022-07-19T12:20:36Z</time>
      </trkpt>
      <trkpt lat="44.3362" lon="6.85032">
        <ele>2313.2</ele>
        <time>2022-07-19T12:20:37Z</time>
      </trkpt>
      <trkpt lat="44.33622" lon="6.8503">
        <ele>2313.2</ele>
        <time>2022-07-19T12:20:38Z</time>
      </trkpt>
      <trkpt lat="44.33623" lon="6.85028">
        <ele>2313.6</ele>
        <time>2022-07-19T12:20:39Z</time>
      </trkpt>
      <trkpt lat="44.33624" lon="6.85026">
        <ele>2313.8</ele>
        <time>2022-07-19T12:20:40Z</time>
      </trkpt>
      <trkpt lat="44.33625" lon="6.85024">
        <ele>2314.2</ele>
        <time>2022-07-19T12:20:41Z</time>
      </trkpt>
      <trkpt lat="44.33626" lon="6.85022">
        <ele>2314.4</ele>
        <time>2022-07-19T12:20:42Z</time>
      </trkpt>
      <trkpt lat="44.33627" lon="6.85021">
        <ele>2314.4</ele>
        <time>2022-07-19T12:20:43Z</time>
      </trkpt>
      <trkpt lat="44.33628" lon="6.85019">
        <ele>2314.8</ele>
        <time>2022-07-19T12:20:44Z</time>
      </trkpt>
      <trkpt lat="44.3363" lon="6.85018">
        <ele>2314.8</ele>
        <time>2022-07-19T12:20:45Z</time>
      </trkpt>
      <trkpt lat="44.33631" lon="6.85017">
        <ele>2315</ele>
        <time>2022-07-19T12:20:46Z</time>
      </trkpt>
      <trkpt lat="44.33633" lon="6.85016">
        <ele>2315</ele>
        <time>2022-07-19T12:20:47Z</time>
      </trkpt>
      <trkpt lat="44.33634" lon="6.85015">
        <ele>2315</ele>
        <time>2022-07-19T12:20:48Z</time>
      </trkpt>
      <trkpt lat="44.33636" lon="6.85015">
        <ele>2315.2</ele>
        <time>2022-07-19T12:20:49Z</time>
      </trkpt>
      <trkpt lat="44.33638" lon="6.85014">
        <ele>2315.2</ele>
        <time>2022-07-19T12:20:50Z</time>
      </trkpt>
      <trkpt lat="44.33639" lon="6.85014">
        <ele>2315.4</ele>
        <time>2022-07-19T12:20:51Z</time>
      </trkpt>
      <trkpt lat="44.33641" lon="6.85014">
        <ele>2315.4</ele>
        <time>2022-07-19T12:20:52Z</time>
      </trkpt>
      <trkpt lat="44.33643" lon="6.85014">
        <ele>2315.6</ele>
        <time>2022-07-19T12:20:53Z</time>
      </trkpt>
      <trkpt lat="44.33645" lon="6.85014">
        <ele>2315.6</ele>
        <time>2022-07-19T12:20:54Z</time>
      </trkpt>
      <trkpt lat="44.33646" lon="6.85014">
        <ele>2316</ele>
        <time>2022-07-19T12:20:55Z</time>
      </trkpt>
      <trkpt lat="44.33648" lon="6.85015">
        <ele>2316</ele>
        <time>2022-07-19T12:20:56Z</time>
      </trkpt>
      <trkpt lat="44.3365" lon="6.85016">
        <ele>2316.4</ele>
        <time>2022-07-19T12:20:57Z</time>
      </trkpt>
      <trkpt lat="44.33651" lon="6.85017">
        <ele>2316.6</ele>
        <time>2022-07-19T12:20:58Z</time>
      </trkpt>
      <trkpt lat="44.33653" lon="6.85018">
        <ele>2316.6</ele>
        <time>2022-07-19T12:20:59Z</time>
      </trkpt>
      <trkpt lat="44.33654" lon="6.8502">
        <ele>2317</ele>
        <time>2022-07-19T12:21:00Z</time>
      </trkpt>
      <trkpt lat="44.33656" lon="6.85021">
        <ele>2317</ele>
        <time>2022-07-19T12:21:01Z</time>
      </trkpt>
      <trkpt lat="44.33657" lon="6.85022">
        <ele>2317.2</ele>
        <time>2022-07-19T12:21:02Z</time>
      </trkpt>
      <trkpt lat="44.33659" lon="6.85023">
        <ele>2317.2</ele>
        <time>2022-07-19T12:21:03Z</time>
      </trkpt>
      <trkpt lat="44.3366" lon="6.85024">
        <ele>2317.6</ele>
        <time>2022-07-19T12:21:04Z</time>
      </trkpt>
      <trkpt lat="44.33662" lon="6.85025">
        <ele>2317.6</ele>
        <time>2022-07-19T12:21:05Z</time>
      </trkpt>
      <trkpt lat="44.33663" lon="6.85027">
        <ele>2317.8</ele>
        <time>2022-07-19T12:21:06Z</time>
      </trkpt>
      <trkpt lat="44.33665" lon="6.85028">
        <ele>2317.8</ele>
        <time>2022-07-19T12:21:07Z</time>
      </trkpt>
      <trkpt lat="44.33666" lon="6.85029">
        <ele>2318</ele>
        <time>2022-07-19T12:21:08Z</time>
      </trkpt>
      <trkpt lat="44.33668" lon="6.85031">
        <ele>2318</ele>
        <time>2022-07-19T12:21:09Z</time>
      </trkpt>
      <trkpt lat="44.3367" lon="6.85032">
        <ele>2318.4</ele>
        <time>2022-07-19T12:21:10Z</time>
      </trkpt>
      <trkpt lat="44.33671" lon="6.85033">
        <ele>2318.4</ele>
        <time>2022-07-19T12:21:11Z</time>
      </trkpt>
      <trkpt lat="44.33673" lon="6.85034">
        <ele>2318.6</ele>
        <time>2022-07-19T12:21:12Z</time>
      </trkpt>
      <trkpt lat="44.33675" lon="6.85035">
        <ele>2318.6</ele>
        <time>2022-07-19T12:21:13Z</time>
      </trkpt>
      <trkpt lat="44.33676" lon="6.85035">
        <ele>2318.8</ele>
        <time>2022-07-19T12:21:14Z</time>
      </trkpt>
      <trkpt lat="44.33678" lon="6.85036">
        <ele>2318.8</ele>
        <time>2022-07-19T12:21:15Z</time>
      </trkpt>
      <trkpt lat="44.33679" lon="6.85037">
        <ele>2318.8</ele>
        <time>2022-07-19T12:21:16Z</time>
      </trkpt>
      <trkpt lat="44.33681" lon="6.85038">
        <ele>2319</ele>
        <time>2022-07-19T12:21:17Z</time>
      </trkpt>
      <trkpt lat="44.33683" lon="6.85039">
        <ele>2319</ele>
        <time>2022-07-19T12:21:18Z</time>
      </trkpt>
      <trkpt lat="44.33684" lon="6.8504">
        <ele>2319.2</ele>
        <time>2022-07-19T12:21:19Z</time>
      </trkpt>
      <trkpt lat="44.33686" lon="6.85041">
        <ele>2319.2</ele>
        <time>2022-07-19T12:21:20Z</time>
      </trkpt>
      <trkpt lat="44.33688" lon="6.85042">
        <ele>2319.4</ele>
        <time>2022-07-19T12:21:21Z</time>
      </trkpt>
      <trkpt lat="44.33689" lon="6.85043">
        <ele>2319.4</ele>
        <time>2022-07-19T12:21:22Z</time>
      </trkpt>
      <trkpt lat="44.33691" lon="6.85044">
        <ele>2319.8</ele>
        <time>2022-07-19T12:21:23Z</time>
      </trkpt>
      <trkpt lat="44.33693" lon="6.85044">
        <ele>2319.8</ele>
        <time>2022-07-19T12:21:24Z</time>
      </trkpt>
      <trkpt lat="44.33694" lon="6.85045">
        <ele>2320</ele>
        <time>2022-07-19T12:21:25Z</time>
      </trkpt>
      <trkpt lat="44.33696" lon="6.85046">
        <ele>2320</ele>
        <time>2022-07-19T12:21:26Z</time>
      </trkpt>
      <trkpt lat="44.33698" lon="6.85046">
        <ele>2320.2</ele>
        <time>2022-07-19T12:21:27Z</time>
      </trkpt>
      <trkpt lat="44.337" lon="6.85047">
        <ele>2320.2</ele>
        <time>2022-07-19T12:21:28Z</time>
      </trkpt>
      <trkpt lat="44.33701" lon="6.85047">
        <ele>2320.4</ele>
        <time>2022-07-19T12:21:29Z</time>
      </trkpt>
      <trkpt lat="44.33703" lon="6.85047">
        <ele>2320.4</ele>
        <time>2022-07-19T12:21:30Z</time>
      </trkpt>
      <trkpt lat="44.33705" lon="6.85047">
        <ele>2320.4</ele>
        <time>2022-07-19T12:21:31Z</time>
      </trkpt>
      <trkpt lat="44.33707" lon="6.85047">
        <ele>2320.8</ele>
        <time>2022-07-19T12:21:32Z</time>
      </trkpt>
      <trkpt lat="44.33708" lon="6.85047">
        <ele>2320.8</ele>
        <time>2022-07-19T12:21:33Z</time>
      </trkpt>
      <trkpt lat="44.3371" lon="6.85047">
        <ele>2321.2</ele>
        <time>2022-07-19T12:21:34Z</time>
      </trkpt>
      <trkpt lat="44.33711" lon="6.85047">
        <ele>2321.2</ele>
        <time>2022-07-19T12:21:35Z</time>
      </trkpt>
      <trkpt lat="44.33713" lon="6.85047">
        <ele>2321.4</ele>
        <time>2022-07-19T12:21:36Z</time>
      </trkpt>
      <trkpt lat="44.33714" lon="6.85047">
        <ele>2321.8</ele>
        <time>2022-07-19T12:21:37Z</time>
      </trkpt>
      <trkpt lat="44.33716" lon="6.85047">
        <ele>2321.8</ele>
        <time>2022-07-19T12:21:38Z</time>
      </trkpt>
      <trkpt lat="44.33718" lon="6.85047">
        <ele>2322</ele>
        <time>2022-07-19T12:21:39Z</time>
      </trkpt>
      <trkpt lat="44.33719" lon="6.85047">
        <ele>2322</ele>
        <time>2022-07-19T12:21:40Z</time>
      </trkpt>
      <trkpt lat="44.33721" lon="6.85046">
        <ele>2322.4</ele>
        <time>2022-07-19T12:21:41Z</time>
      </trkpt>
      <trkpt lat="44.33722" lon="6.85045">
        <ele>2322.8</ele>
        <time>2022-07-19T12:21:42Z</time>
      </trkpt>
      <trkpt lat="44.33724" lon="6.85045">
        <ele>2323</ele>
        <time>2022-07-19T12:21:43Z</time>
      </trkpt>
      <trkpt lat="44.33725" lon="6.85044">
        <ele>2323</ele>
        <time>2022-07-19T12:21:44Z</time>
      </trkpt>
      <trkpt lat="44.33727" lon="6.85044">
        <ele>2323.4</ele>
        <time>2022-07-19T12:21:45Z</time>
      </trkpt>
      <trkpt lat="44.33729" lon="6.85044">
        <ele>2323.4</ele>
        <time>2022-07-19T12:21:46Z</time>
      </trkpt>
      <trkpt lat="44.3373" lon="6.85044">
        <ele>2323.6</ele>
        <time>2022-07-19T12:21:47Z</time>
      </trkpt>
      <trkpt lat="44.33732" lon="6.85044">
        <ele>2323.6</ele>
        <time>2022-07-19T12:21:48Z</time>
      </trkpt>
      <trkpt lat="44.33734" lon="6.85044">
        <ele>2323.8</ele>
        <time>2022-07-19T12:21:49Z</time>
      </trkpt>
      <trkpt lat="44.33735" lon="6.85044">
        <ele>2323.8</ele>
        <time>2022-07-19T12:21:50Z</time>
      </trkpt>
      <trkpt lat="44.33737" lon="6.85044">
        <ele>2323.8</ele>
        <time>2022-07-19T12:21:51Z</time>
      </trkpt>
      <trkpt lat="44.33739" lon="6.85044">
        <ele>2324.2</ele>
        <time>2022-07-19T12:21:52Z</time>
      </trkpt>
      <trkpt lat="44.3374" lon="6.85043">
        <ele>2324.4</ele>
        <time>2022-07-19T12:21:53Z</time>
      </trkpt>
      <trkpt lat="44.33742" lon="6.85043">
        <ele>2324.4</ele>
        <time>2022-07-19T12:21:54Z</time>
      </trkpt>
      <trkpt lat="44.33744" lon="6.85043">
        <ele>2324.8</ele>
        <time>2022-07-19T12:21:55Z</time>
      </trkpt>
      <trkpt lat="44.33745" lon="6.85043">
        <ele>2325</ele>
        <time>2022-07-19T12:21:56Z</time>
      </trkpt>
      <trkpt lat="44.33747" lon="6.85042">
        <ele>2325</ele>
        <time>2022-07-19T12:21:57Z</time>
      </trkpt>
      <trkpt lat="44.33749" lon="6.85042">
        <ele>2325.2</ele>
        <time>2022-07-19T12:21:58Z</time>
      </trkpt>
      <trkpt lat="44.3375" lon="6.85042">
        <ele>2325.2</ele>
        <time>2022-07-19T12:21:59Z</time>
      </trkpt>
      <trkpt lat="44.33752" lon="6.85042">
        <ele>2325.6</ele>
        <time>2022-07-19T12:22:00Z</time>
      </trkpt>
      <trkpt lat="44.33754" lon="6.85042">
        <ele>2325.6</ele>
        <time>2022-07-19T12:22:01Z</time>
      </trkpt>
      <trkpt lat="44.33755" lon="6.85042">
        <ele>2326</ele>
        <time>2022-07-19T12:22:02Z</time>
      </trkpt>
      <trkpt lat="44.33757" lon="6.85043">
        <ele>2326</ele>
        <time>2022-07-19T12:22:03Z</time>
      </trkpt>
      <trkpt lat="44.33759" lon="6.85043">
        <ele>2326</ele>
        <time>2022-07-19T12:22:04Z</time>
      </trkpt>
      <trkpt lat="44.33761" lon="6.85044">
        <ele>2326.2</ele>
        <time>2022-07-19T12:22:05Z</time>
      </trkpt>
      <trkpt lat="44.33762" lon="6.85044">
        <ele>2326.2</ele>
        <time>2022-07-19T12:22:06Z</time>
      </trkpt>
      <trkpt lat="44.33764" lon="6.85045">
        <ele>2326.6</ele>
        <time>2022-07-19T12:22:07Z</time>
      </trkpt>
      <trkpt lat="44.33766" lon="6.85045">
        <ele>2326.6</ele>
        <time>2022-07-19T12:22:08Z</time>
      </trkpt>
      <trkpt lat="44.33768" lon="6.85046">
        <ele>2326.6</ele>
        <time>2022-07-19T12:22:09Z</time>
      </trkpt>
      <trkpt lat="44.33769" lon="6.85047">
        <ele>2327</ele>
        <time>2022-07-19T12:22:10Z</time>
      </trkpt>
      <trkpt lat="44.33771" lon="6.85048">
        <ele>2327</ele>
        <time>2022-07-19T12:22:11Z</time>
      </trkpt>
      <trkpt lat="44.33773" lon="6.85049">
        <ele>2327.2</ele>
        <time>2022-07-19T12:22:12Z</time>
      </trkpt>
      <trkpt lat="44.33775" lon="6.85049">
        <ele>2327.2</ele>
        <time>2022-07-19T12:22:13Z</time>
      </trkpt>
      <trkpt lat="44.33777" lon="6.85049">
        <ele>2327.4</ele>
        <time>2022-07-19T12:22:14Z</time>
      </trkpt>
      <trkpt lat="44.33778" lon="6.8505">
        <ele>2327.4</ele>
        <time>2022-07-19T12:22:15Z</time>
      </trkpt>
      <trkpt lat="44.3378" lon="6.8505">
        <ele>2327.8</ele>
        <time>2022-07-19T12:22:16Z</time>
      </trkpt>
      <trkpt lat="44.33782" lon="6.8505">
        <ele>2327.8</ele>
        <time>2022-07-19T12:22:17Z</time>
      </trkpt>
      <trkpt lat="44.33784" lon="6.85051">
        <ele>2328</ele>
        <time>2022-07-19T12:22:18Z</time>
      </trkpt>
      <trkpt lat="44.33786" lon="6.85052">
        <ele>2328</ele>
        <time>2022-07-19T12:22:19Z</time>
      </trkpt>
      <trkpt lat="44.33787" lon="6.85053">
        <ele>2328.2</ele>
        <time>2022-07-19T12:22:20Z</time>
      </trkpt>
      <trkpt lat="44.33789" lon="6.85054">
        <ele>2328.2</ele>
        <time>2022-07-19T12:22:21Z</time>
      </trkpt>
      <trkpt lat="44.33791" lon="6.85054">
        <ele>2328.6</ele>
        <time>2022-07-19T12:22:22Z</time>
      </trkpt>
      <trkpt lat="44.33793" lon="6.85055">
        <ele>2328.6</ele>
        <time>2022-07-19T12:22:23Z</time>
      </trkpt>
      <trkpt lat="44.33794" lon="6.85056">
        <ele>2328.8</ele>
        <time>2022-07-19T12:22:24Z</time>
      </trkpt>
      <trkpt lat="44.33796" lon="6.85056">
        <ele>2328.8</ele>
        <time>2022-07-19T12:22:25Z</time>
      </trkpt>
      <trkpt lat="44.33798" lon="6.85056">
        <ele>2329</ele>
        <time>2022-07-19T12:22:26Z</time>
      </trkpt>
      <trkpt lat="44.338" lon="6.85056">
        <ele>2329</ele>
        <time>2022-07-19T12:22:27Z</time>
      </trkpt>
      <trkpt lat="44.33801" lon="6.85057">
        <ele>2329.4</ele>
        <time>2022-07-19T12:22:28Z</time>
      </trkpt>
      <trkpt lat="44.33803" lon="6.85056">
        <ele>2329.6</ele>
        <time>2022-07-19T12:22:29Z</time>
      </trkpt>
      <trkpt lat="44.33805" lon="6.85056">
        <ele>2329.6</ele>
        <time>2022-07-19T12:22:30Z</time>
      </trkpt>
      <trkpt lat="44.33806" lon="6.85056">
        <ele>2330</ele>
        <time>2022-07-19T12:22:31Z</time>
      </trkpt>
      <trkpt lat="44.33808" lon="6.85056">
        <ele>2330</ele>
        <time>2022-07-19T12:22:32Z</time>
      </trkpt>
      <trkpt lat="44.33809" lon="6.85055">
        <ele>2330.2</ele>
        <time>2022-07-19T12:22:33Z</time>
      </trkpt>
      <trkpt lat="44.33811" lon="6.85054">
        <ele>2330.2</ele>
        <time>2022-07-19T12:22:34Z</time>
      </trkpt>
      <trkpt lat="44.33813" lon="6.85054">
        <ele>2330.4</ele>
        <time>2022-07-19T12:22:35Z</time>
      </trkpt>
      <trkpt lat="44.33814" lon="6.85054">
        <ele>2330.4</ele>
        <time>2022-07-19T12:22:36Z</time>
      </trkpt>
      <trkpt lat="44.33816" lon="6.85054">
        <ele>2330.4</ele>
        <time>2022-07-19T12:22:37Z</time>
      </trkpt>
      <trkpt lat="44.33818" lon="6.85054">
        <ele>2330.8</ele>
        <time>2022-07-19T12:22:38Z</time>
      </trkpt>
      <trkpt lat="44.3382" lon="6.85053">
        <ele>2330.8</ele>
        <time>2022-07-19T12:22:39Z</time>
      </trkpt>
      <trkpt lat="44.33821" lon="6.85053">
        <ele>2331</ele>
        <time>2022-07-19T12:22:40Z</time>
      </trkpt>
      <trkpt lat="44.33823" lon="6.85052">
        <ele>2331</ele>
        <time>2022-07-19T12:22:41Z</time>
      </trkpt>
      <trkpt lat="44.33825" lon="6.85052">
        <ele>2331.4</ele>
        <time>2022-07-19T12:22:42Z</time>
      </trkpt>
      <trkpt lat="44.33826" lon="6.85051">
        <ele>2331.4</ele>
        <time>2022-07-19T12:22:43Z</time>
      </trkpt>
      <trkpt lat="44.33828" lon="6.8505">
        <ele>2331.6</ele>
        <time>2022-07-19T12:22:44Z</time>
      </trkpt>
      <trkpt lat="44.33829" lon="6.8505">
        <ele>2331.6</ele>
        <time>2022-07-19T12:22:45Z</time>
      </trkpt>
      <trkpt lat="44.33831" lon="6.85049">
        <ele>2332</ele>
        <time>2022-07-19T12:22:46Z</time>
      </trkpt>
      <trkpt lat="44.33832" lon="6.85047">
        <ele>2332</ele>
        <time>2022-07-19T12:22:47Z</time>
      </trkpt>
      <trkpt lat="44.33834" lon="6.85046">
        <ele>2332.2</ele>
        <time>2022-07-19T12:22:48Z</time>
      </trkpt>
      <trkpt lat="44.33835" lon="6.85045">
        <ele>2332.2</ele>
        <time>2022-07-19T12:22:49Z</time>
      </trkpt>
      <trkpt lat="44.33837" lon="6.85044">
        <ele>2332.4</ele>
        <time>2022-07-19T12:22:50Z</time>
      </trkpt>
      <trkpt lat="44.33838" lon="6.85044">
        <ele>2332.6</ele>
        <time>2022-07-19T12:22:51Z</time>
      </trkpt>
      <trkpt lat="44.3384" lon="6.85043">
        <ele>2332.8</ele>
        <time>2022-07-19T12:22:52Z</time>
      </trkpt>
      <trkpt lat="44.33841" lon="6.85043">
        <ele>2333</ele>
        <time>2022-07-19T12:22:53Z</time>
      </trkpt>
      <trkpt lat="44.33843" lon="6.85042">
        <ele>2333</ele>
        <time>2022-07-19T12:22:54Z</time>
      </trkpt>
      <trkpt lat="44.33844" lon="6.8504">
        <ele>2333.4</ele>
        <time>2022-07-19T12:22:55Z</time>
      </trkpt>
      <trkpt lat="44.33845" lon="6.85039">
        <ele>2333.4</ele>
        <time>2022-07-19T12:22:56Z</time>
      </trkpt>
      <trkpt lat="44.33847" lon="6.85039">
        <ele>2333.6</ele>
        <time>2022-07-19T12:22:57Z</time>
      </trkpt>
      <trkpt lat="44.33848" lon="6.85038">
        <ele>2333.6</ele>
        <time>2022-07-19T12:22:58Z</time>
      </trkpt>
      <trkpt lat="44.3385" lon="6.85037">
        <ele>2334</ele>
        <time>2022-07-19T12:22:59Z</time>
      </trkpt>
      <trkpt lat="44.33851" lon="6.85036">
        <ele>2334</ele>
        <time>2022-07-19T12:23:00Z</time>
      </trkpt>
      <trkpt lat="44.33852" lon="6.85035">
        <ele>2334.2</ele>
        <time>2022-07-19T12:23:01Z</time>
      </trkpt>
      <trkpt lat="44.33853" lon="6.85034">
        <ele>2334.4</ele>
        <time>2022-07-19T12:23:02Z</time>
      </trkpt>
      <trkpt lat="44.33855" lon="6.85033">
        <ele>2334.4</ele>
        <time>2022-07-19T12:23:03Z</time>
      </trkpt>
      <trkpt lat="44.33856" lon="6.85033">
        <ele>2334.8</ele>
        <time>2022-07-19T12:23:04Z</time>
      </trkpt>
      <trkpt lat="44.33857" lon="6.85032">
        <ele>2334.8</ele>
        <time>2022-07-19T12:23:05Z</time>
      </trkpt>
      <trkpt lat="44.33859" lon="6.85032">
        <ele>2335.2</ele>
        <time>2022-07-19T12:23:06Z</time>
      </trkpt>
      <trkpt lat="44.33861" lon="6.85031">
        <ele>2335.4</ele>
        <time>2022-07-19T12:23:07Z</time>
      </trkpt>
      <trkpt lat="44.33862" lon="6.85031">
        <ele>2335.4</ele>
        <time>2022-07-19T12:23:08Z</time>
      </trkpt>
      <trkpt lat="44.33864" lon="6.8503">
        <ele>2335.6</ele>
        <time>2022-07-19T12:23:09Z</time>
      </trkpt>
      <trkpt lat="44.33865" lon="6.85029">
        <ele>2335.6</ele>
        <time>2022-07-19T12:23:10Z</time>
      </trkpt>
      <trkpt lat="44.33866" lon="6.85028">
        <ele>2335.8</ele>
        <time>2022-07-19T12:23:11Z</time>
      </trkpt>
      <trkpt lat="44.33868" lon="6.85027">
        <ele>2335.8</ele>
        <time>2022-07-19T12:23:12Z</time>
      </trkpt>
      <trkpt lat="44.33869" lon="6.85026">
        <ele>2336.2</ele>
        <time>2022-07-19T12:23:13Z</time>
      </trkpt>
      <trkpt lat="44.3387" lon="6.85025">
        <ele>2336.2</ele>
        <time>2022-07-19T12:23:14Z</time>
      </trkpt>
      <trkpt lat="44.33872" lon="6.85024">
        <ele>2336.4</ele>
        <time>2022-07-19T12:23:15Z</time>
      </trkpt>
      <trkpt lat="44.33873" lon="6.85024">
        <ele>2336.4</ele>
        <time>2022-07-19T12:23:16Z</time>
      </trkpt>
      <trkpt lat="44.33875" lon="6.85023">
        <ele>2336.8</ele>
        <time>2022-07-19T12:23:17Z</time>
      </trkpt>
      <trkpt lat="44.33876" lon="6.85022">
        <ele>2336.8</ele>
        <time>2022-07-19T12:23:18Z</time>
      </trkpt>
      <trkpt lat="44.33877" lon="6.85021">
        <ele>2337</ele>
        <time>2022-07-19T12:23:19Z</time>
      </trkpt>
      <trkpt lat="44.33879" lon="6.8502">
        <ele>2337</ele>
        <time>2022-07-19T12:23:20Z</time>
      </trkpt>
      <trkpt lat="44.3388" lon="6.85018">
        <ele>2337.4</ele>
        <time>2022-07-19T12:23:21Z</time>
      </trkpt>
      <trkpt lat="44.33881" lon="6.85017">
        <ele>2337.6</ele>
        <time>2022-07-19T12:23:22Z</time>
      </trkpt>
      <trkpt lat="44.33883" lon="6.85016">
        <ele>2337.6</ele>
        <time>2022-07-19T12:23:23Z</time>
      </trkpt>
      <trkpt lat="44.33884" lon="6.85015">
        <ele>2338</ele>
        <time>2022-07-19T12:23:24Z</time>
      </trkpt>
      <trkpt lat="44.33885" lon="6.85015">
        <ele>2338</ele>
        <time>2022-07-19T12:23:25Z</time>
      </trkpt>
      <trkpt lat="44.33887" lon="6.85014">
        <ele>2338.2</ele>
        <time>2022-07-19T12:23:26Z</time>
      </trkpt>
      <trkpt lat="44.33889" lon="6.85013">
        <ele>2338.2</ele>
        <time>2022-07-19T12:23:27Z</time>
      </trkpt>
      <trkpt lat="44.3389" lon="6.85013">
        <ele>2338.4</ele>
        <time>2022-07-19T12:23:28Z</time>
      </trkpt>
      <trkpt lat="44.33891" lon="6.85012">
        <ele>2338.4</ele>
        <time>2022-07-19T12:23:29Z</time>
      </trkpt>
      <trkpt lat="44.33893" lon="6.85011">
        <ele>2338.8</ele>
        <time>2022-07-19T12:23:30Z</time>
      </trkpt>
      <trkpt lat="44.33894" lon="6.85011">
        <ele>2338.8</ele>
        <time>2022-07-19T12:23:31Z</time>
      </trkpt>
      <trkpt lat="44.33896" lon="6.85011">
        <ele>2339</ele>
        <time>2022-07-19T12:23:32Z</time>
      </trkpt>
      <trkpt lat="44.33898" lon="6.8501">
        <ele>2339.2</ele>
        <time>2022-07-19T12:23:33Z</time>
      </trkpt>
      <trkpt lat="44.33899" lon="6.8501">
        <ele>2339.2</ele>
        <time>2022-07-19T12:23:34Z</time>
      </trkpt>
      <trkpt lat="44.33901" lon="6.85009">
        <ele>2339.6</ele>
        <time>2022-07-19T12:23:35Z</time>
      </trkpt>
      <trkpt lat="44.33902" lon="6.85008">
        <ele>2339.6</ele>
        <time>2022-07-19T12:23:36Z</time>
      </trkpt>
      <trkpt lat="44.33904" lon="6.85007">
        <ele>2339.8</ele>
        <time>2022-07-19T12:23:37Z</time>
      </trkpt>
      <trkpt lat="44.33905" lon="6.85007">
        <ele>2339.8</ele>
        <time>2022-07-19T12:23:38Z</time>
      </trkpt>
      <trkpt lat="44.33906" lon="6.85006">
        <ele>2340.2</ele>
        <time>2022-07-19T12:23:39Z</time>
      </trkpt>
      <trkpt lat="44.33908" lon="6.85006">
        <ele>2340.2</ele>
        <time>2022-07-19T12:23:40Z</time>
      </trkpt>
      <trkpt lat="44.33909" lon="6.85006">
        <ele>2340.2</ele>
        <time>2022-07-19T12:23:41Z</time>
      </trkpt>
      <trkpt lat="44.33911" lon="6.85006">
        <ele>2340.4</ele>
        <time>2022-07-19T12:23:42Z</time>
      </trkpt>
      <trkpt lat="44.33913" lon="6.85006">
        <ele>2340.4</ele>
        <time>2022-07-19T12:23:43Z</time>
      </trkpt>
      <trkpt lat="44.33914" lon="6.85005">
        <ele>2340.4</ele>
        <time>2022-07-19T12:23:44Z</time>
      </trkpt>
      <trkpt lat="44.33916" lon="6.85005">
        <ele>2340.4</ele>
        <time>2022-07-19T12:23:45Z</time>
      </trkpt>
      <trkpt lat="44.33918" lon="6.85005">
        <ele>2340.8</ele>
        <time>2022-07-19T12:23:46Z</time>
      </trkpt>
      <trkpt lat="44.33919" lon="6.85005">
        <ele>2340.8</ele>
        <time>2022-07-19T12:23:47Z</time>
      </trkpt>
      <trkpt lat="44.33921" lon="6.85005">
        <ele>2341.2</ele>
        <time>2022-07-19T12:23:48Z</time>
      </trkpt>
      <trkpt lat="44.33922" lon="6.85005">
        <ele>2341.2</ele>
        <time>2022-07-19T12:23:49Z</time>
      </trkpt>
      <trkpt lat="44.33924" lon="6.85005">
        <ele>2341.4</ele>
        <time>2022-07-19T12:23:50Z</time>
      </trkpt>
      <trkpt lat="44.33926" lon="6.85006">
        <ele>2341.4</ele>
        <time>2022-07-19T12:23:51Z</time>
      </trkpt>
      <trkpt lat="44.33927" lon="6.85006">
        <ele>2341.8</ele>
        <time>2022-07-19T12:23:52Z</time>
      </trkpt>
      <trkpt lat="44.33929" lon="6.85006">
        <ele>2341.8</ele>
        <time>2022-07-19T12:23:53Z</time>
      </trkpt>
      <trkpt lat="44.33932" lon="6.85006">
        <ele>2342</ele>
        <time>2022-07-19T12:23:54Z</time>
      </trkpt>
      <trkpt lat="44.33933" lon="6.85007">
        <ele>2342</ele>
        <time>2022-07-19T12:23:55Z</time>
      </trkpt>
      <trkpt lat="44.33935" lon="6.85007">
        <ele>2342.4</ele>
        <time>2022-07-19T12:23:56Z</time>
      </trkpt>
      <trkpt lat="44.33936" lon="6.85007">
        <ele>2342.4</ele>
        <time>2022-07-19T12:23:57Z</time>
      </trkpt>
      <trkpt lat="44.33938" lon="6.85008">
        <ele>2342.6</ele>
        <time>2022-07-19T12:23:58Z</time>
      </trkpt>
      <trkpt lat="44.33939" lon="6.85008">
        <ele>2342.6</ele>
        <time>2022-07-19T12:23:59Z</time>
      </trkpt>
      <trkpt lat="44.33941" lon="6.85009">
        <ele>2343</ele>
        <time>2022-07-19T12:24:00Z</time>
      </trkpt>
      <trkpt lat="44.33942" lon="6.85009">
        <ele>2343</ele>
        <time>2022-07-19T12:24:01Z</time>
      </trkpt>
      <trkpt lat="44.33944" lon="6.8501">
        <ele>2343.4</ele>
        <time>2022-07-19T12:24:02Z</time>
      </trkpt>
      <trkpt lat="44.33945" lon="6.8501">
        <ele>2343.4</ele>
        <time>2022-07-19T12:24:03Z</time>
      </trkpt>
      <trkpt lat="44.33947" lon="6.85011">
        <ele>2343.8</ele>
        <time>2022-07-19T12:24:04Z</time>
      </trkpt>
      <trkpt lat="44.33948" lon="6.85012">
        <ele>2343.8</ele>
        <time>2022-07-19T12:24:05Z</time>
      </trkpt>
      <trkpt lat="44.3395" lon="6.85012">
        <ele>2344</ele>
        <time>2022-07-19T12:24:06Z</time>
      </trkpt>
      <trkpt lat="44.33951" lon="6.85012">
        <ele>2344</ele>
        <time>2022-07-19T12:24:07Z</time>
      </trkpt>
      <trkpt lat="44.33953" lon="6.85011">
        <ele>2344.2</ele>
        <time>2022-07-19T12:24:08Z</time>
      </trkpt>
      <trkpt lat="44.33954" lon="6.85011">
        <ele>2344.2</ele>
        <time>2022-07-19T12:24:09Z</time>
      </trkpt>
      <trkpt lat="44.33956" lon="6.85011">
        <ele>2344.6</ele>
        <time>2022-07-19T12:24:10Z</time>
      </trkpt>
      <trkpt lat="44.33957" lon="6.85011">
        <ele>2344.6</ele>
        <time>2022-07-19T12:24:11Z</time>
      </trkpt>
      <trkpt lat="44.33958" lon="6.85011">
        <ele>2345</ele>
        <time>2022-07-19T12:24:12Z</time>
      </trkpt>
      <trkpt lat="44.3396" lon="6.8501">
        <ele>2345</ele>
        <time>2022-07-19T12:24:13Z</time>
      </trkpt>
      <trkpt lat="44.33961" lon="6.8501">
        <ele>2345</ele>
        <time>2022-07-19T12:24:14Z</time>
      </trkpt>
      <trkpt lat="44.33963" lon="6.8501">
        <ele>2345.2</ele>
        <time>2022-07-19T12:24:15Z</time>
      </trkpt>
      <trkpt lat="44.33965" lon="6.8501">
        <ele>2345.2</ele>
        <time>2022-07-19T12:24:16Z</time>
      </trkpt>
      <trkpt lat="44.33966" lon="6.8501">
        <ele>2345.6</ele>
        <time>2022-07-19T12:24:17Z</time>
      </trkpt>
      <trkpt lat="44.33968" lon="6.85009">
        <ele>2345.6</ele>
        <time>2022-07-19T12:24:18Z</time>
      </trkpt>
      <trkpt lat="44.33969" lon="6.85009">
        <ele>2345.8</ele>
        <time>2022-07-19T12:24:19Z</time>
      </trkpt>
      <trkpt lat="44.33971" lon="6.85008">
        <ele>2346</ele>
        <time>2022-07-19T12:24:20Z</time>
      </trkpt>
      <trkpt lat="44.33973" lon="6.85007">
        <ele>2346</ele>
        <time>2022-07-19T12:24:21Z</time>
      </trkpt>
      <trkpt lat="44.33974" lon="6.85006">
        <ele>2346.2</ele>
        <time>2022-07-19T12:24:22Z</time>
      </trkpt>
      <trkpt lat="44.33976" lon="6.85005">
        <ele>2346.2</ele>
        <time>2022-07-19T12:24:23Z</time>
      </trkpt>
      <trkpt lat="44.33977" lon="6.85004">
        <ele>2346.6</ele>
        <time>2022-07-19T12:24:24Z</time>
      </trkpt>
      <trkpt lat="44.33979" lon="6.85003">
        <ele>2346.6</ele>
        <time>2022-07-19T12:24:25Z</time>
      </trkpt>
      <trkpt lat="44.3398" lon="6.85001">
        <ele>2346.6</ele>
        <time>2022-07-19T12:24:26Z</time>
      </trkpt>
      <trkpt lat="44.33981" lon="6.85">
        <ele>2346.6</ele>
        <time>2022-07-19T12:24:27Z</time>
      </trkpt>
      <trkpt lat="44.33983" lon="6.84998">
        <ele>2346.8</ele>
        <time>2022-07-19T12:24:28Z</time>
      </trkpt>
      <trkpt lat="44.33984" lon="6.84996">
        <ele>2346.8</ele>
        <time>2022-07-19T12:24:29Z</time>
      </trkpt>
      <trkpt lat="44.33985" lon="6.84994">
        <ele>2346.8</ele>
        <time>2022-07-19T12:24:30Z</time>
      </trkpt>
      <trkpt lat="44.33987" lon="6.84993">
        <ele>2346.8</ele>
        <time>2022-07-19T12:24:31Z</time>
      </trkpt>
      <trkpt lat="44.33988" lon="6.84992">
        <ele>2347</ele>
        <time>2022-07-19T12:24:32Z</time>
      </trkpt>
      <trkpt lat="44.3399" lon="6.8499">
        <ele>2347</ele>
        <time>2022-07-19T12:24:33Z</time>
      </trkpt>
      <trkpt lat="44.33991" lon="6.84989">
        <ele>2347.2</ele>
        <time>2022-07-19T12:24:34Z</time>
      </trkpt>
      <trkpt lat="44.33992" lon="6.84988">
        <ele>2347.2</ele>
        <time>2022-07-19T12:24:35Z</time>
      </trkpt>
      <trkpt lat="44.33994" lon="6.84986">
        <ele>2347.6</ele>
        <time>2022-07-19T12:24:36Z</time>
      </trkpt>
      <trkpt lat="44.33995" lon="6.84985">
        <ele>2347.6</ele>
        <time>2022-07-19T12:24:37Z</time>
      </trkpt>
      <trkpt lat="44.33997" lon="6.84984">
        <ele>2347.8</ele>
        <time>2022-07-19T12:24:38Z</time>
      </trkpt>
      <trkpt lat="44.33998" lon="6.84983">
        <ele>2347.8</ele>
        <time>2022-07-19T12:24:39Z</time>
      </trkpt>
      <trkpt lat="44.34" lon="6.84982">
        <ele>2347.8</ele>
        <time>2022-07-19T12:24:40Z</time>
      </trkpt>
      <trkpt lat="44.34002" lon="6.84981">
        <ele>2348.2</ele>
        <time>2022-07-19T12:24:41Z</time>
      </trkpt>
      <trkpt lat="44.34003" lon="6.8498">
        <ele>2348.2</ele>
        <time>2022-07-19T12:24:42Z</time>
      </trkpt>
      <trkpt lat="44.34005" lon="6.84979">
        <ele>2348.4</ele>
        <time>2022-07-19T12:24:43Z</time>
      </trkpt>
      <trkpt lat="44.34006" lon="6.84978">
        <ele>2348.4</ele>
        <time>2022-07-19T12:24:44Z</time>
      </trkpt>
      <trkpt lat="44.34008" lon="6.84977">
        <ele>2348.6</ele>
        <time>2022-07-19T12:24:45Z</time>
      </trkpt>
      <trkpt lat="44.34009" lon="6.84976">
        <ele>2348.6</ele>
        <time>2022-07-19T12:24:46Z</time>
      </trkpt>
      <trkpt lat="44.3401" lon="6.84975">
        <ele>2348.8</ele>
        <time>2022-07-19T12:24:47Z</time>
      </trkpt>
      <trkpt lat="44.34011" lon="6.84974">
        <ele>2348.8</ele>
        <time>2022-07-19T12:24:48Z</time>
      </trkpt>
      <trkpt lat="44.34013" lon="6.84973">
        <ele>2349.2</ele>
        <time>2022-07-19T12:24:49Z</time>
      </trkpt>
      <trkpt lat="44.34014" lon="6.84973">
        <ele>2349.2</ele>
        <time>2022-07-19T12:24:50Z</time>
      </trkpt>
      <trkpt lat="44.34016" lon="6.84972">
        <ele>2349.4</ele>
        <time>2022-07-19T12:24:51Z</time>
      </trkpt>
      <trkpt lat="44.34017" lon="6.84971">
        <ele>2349.4</ele>
        <time>2022-07-19T12:24:52Z</time>
      </trkpt>
      <trkpt lat="44.34019" lon="6.84971">
        <ele>2349.8</ele>
        <time>2022-07-19T12:24:53Z</time>
      </trkpt>
      <trkpt lat="44.3402" lon="6.8497">
        <ele>2349.8</ele>
        <time>2022-07-19T12:24:54Z</time>
      </trkpt>
      <trkpt lat="44.34022" lon="6.84969">
        <ele>2350</ele>
        <time>2022-07-19T12:24:55Z</time>
      </trkpt>
      <trkpt lat="44.34023" lon="6.84968">
        <ele>2350</ele>
        <time>2022-07-19T12:24:56Z</time>
      </trkpt>
      <trkpt lat="44.34024" lon="6.84967">
        <ele>2350</ele>
        <time>2022-07-19T12:24:57Z</time>
      </trkpt>
      <trkpt lat="44.34026" lon="6.84965">
        <ele>2350.4</ele>
        <time>2022-07-19T12:24:58Z</time>
      </trkpt>
      <trkpt lat="44.34027" lon="6.84964">
        <ele>2350.4</ele>
        <time>2022-07-19T12:24:59Z</time>
      </trkpt>
      <trkpt lat="44.34029" lon="6.84963">
        <ele>2350.6</ele>
        <time>2022-07-19T12:25:00Z</time>
      </trkpt>
      <trkpt lat="44.3403" lon="6.84961">
        <ele>2350.6</ele>
        <time>2022-07-19T12:25:01Z</time>
      </trkpt>
      <trkpt lat="44.34031" lon="6.8496">
        <ele>2350.6</ele>
        <time>2022-07-19T12:25:02Z</time>
      </trkpt>
      <trkpt lat="44.34033" lon="6.84958">
        <ele>2350.8</ele>
        <time>2022-07-19T12:25:03Z</time>
      </trkpt>
      <trkpt lat="44.34034" lon="6.84956">
        <ele>2350.8</ele>
        <time>2022-07-19T12:25:04Z</time>
      </trkpt>
      <trkpt lat="44.34035" lon="6.84954">
        <ele>2350.8</ele>
        <time>2022-07-19T12:25:05Z</time>
      </trkpt>
      <trkpt lat="44.34036" lon="6.84952">
        <ele>2351.2</ele>
        <time>2022-07-19T12:25:06Z</time>
      </trkpt>
      <trkpt lat="44.34037" lon="6.84949">
        <ele>2351.2</ele>
        <time>2022-07-19T12:25:07Z</time>
      </trkpt>
      <trkpt lat="44.34037" lon="6.84947">
        <ele>2351.4</ele>
        <time>2022-07-19T12:25:08Z</time>
      </trkpt>
      <trkpt lat="44.34038" lon="6.84944">
        <ele>2351.4</ele>
        <time>2022-07-19T12:25:09Z</time>
      </trkpt>
      <trkpt lat="44.34038" lon="6.84942">
        <ele>2351.6</ele>
        <time>2022-07-19T12:25:10Z</time>
      </trkpt>
      <trkpt lat="44.34038" lon="6.8494">
        <ele>2351.6</ele>
        <time>2022-07-19T12:25:11Z</time>
      </trkpt>
      <trkpt lat="44.34038" lon="6.84937">
        <ele>2352</ele>
        <time>2022-07-19T12:25:12Z</time>
      </trkpt>
      <trkpt lat="44.34038" lon="6.84935">
        <ele>2352</ele>
        <time>2022-07-19T12:25:13Z</time>
      </trkpt>
      <trkpt lat="44.34039" lon="6.84933">
        <ele>2352</ele>
        <time>2022-07-19T12:25:14Z</time>
      </trkpt>
      <trkpt lat="44.34039" lon="6.8493">
        <ele>2352</ele>
        <time>2022-07-19T12:25:15Z</time>
      </trkpt>
      <trkpt lat="44.34039" lon="6.84928">
        <ele>2352.4</ele>
        <time>2022-07-19T12:25:16Z</time>
      </trkpt>
      <trkpt lat="44.34039" lon="6.84926">
        <ele>2352.4</ele>
        <time>2022-07-19T12:25:17Z</time>
      </trkpt>
      <trkpt lat="44.34038" lon="6.84923">
        <ele>2352.8</ele>
        <time>2022-07-19T12:25:18Z</time>
      </trkpt>
      <trkpt lat="44.34038" lon="6.84921">
        <ele>2353</ele>
        <time>2022-07-19T12:25:19Z</time>
      </trkpt>
      <trkpt lat="44.34038" lon="6.84918">
        <ele>2353</ele>
        <time>2022-07-19T12:25:20Z</time>
      </trkpt>
      <trkpt lat="44.34037" lon="6.84915">
        <ele>2353</ele>
        <time>2022-07-19T12:25:21Z</time>
      </trkpt>
      <trkpt lat="44.34037" lon="6.84913">
        <ele>2353.2</ele>
        <time>2022-07-19T12:25:22Z</time>
      </trkpt>
      <trkpt lat="44.34036" lon="6.8491">
        <ele>2353.2</ele>
        <time>2022-07-19T12:25:23Z</time>
      </trkpt>
      <trkpt lat="44.34036" lon="6.84908">
        <ele>2353.2</ele>
        <time>2022-07-19T12:25:24Z</time>
      </trkpt>
      <trkpt lat="44.34035" lon="6.84906">
        <ele>2353.2</ele>
        <time>2022-07-19T12:25:25Z</time>
      </trkpt>
      <trkpt lat="44.34034" lon="6.84904">
        <ele>2353.4</ele>
        <time>2022-07-19T12:25:26Z</time>
      </trkpt>
      <trkpt lat="44.34033" lon="6.84902">
        <ele>2353.4</ele>
        <time>2022-07-19T12:25:27Z</time>
      </trkpt>
      <trkpt lat="44.34032" lon="6.849">
        <ele>2353.8</ele>
        <time>2022-07-19T12:25:28Z</time>
      </trkpt>
      <trkpt lat="44.34032" lon="6.84897">
        <ele>2353.8</ele>
        <time>2022-07-19T12:25:29Z</time>
      </trkpt>
      <trkpt lat="44.34031" lon="6.84895">
        <ele>2354</ele>
        <time>2022-07-19T12:25:30Z</time>
      </trkpt>
      <trkpt lat="44.34031" lon="6.84893">
        <ele>2354</ele>
        <time>2022-07-19T12:25:31Z</time>
      </trkpt>
      <trkpt lat="44.3403" lon="6.8489">
        <ele>2354.2</ele>
        <time>2022-07-19T12:25:32Z</time>
      </trkpt>
      <trkpt lat="44.3403" lon="6.84888">
        <ele>2354.2</ele>
        <time>2022-07-19T12:25:33Z</time>
      </trkpt>
      <trkpt lat="44.3403" lon="6.84885">
        <ele>2354.6</ele>
        <time>2022-07-19T12:25:34Z</time>
      </trkpt>
      <trkpt lat="44.3403" lon="6.84883">
        <ele>2354.6</ele>
        <time>2022-07-19T12:25:35Z</time>
      </trkpt>
      <trkpt lat="44.34029" lon="6.8488">
        <ele>2354.8</ele>
        <time>2022-07-19T12:25:36Z</time>
      </trkpt>
      <trkpt lat="44.3403" lon="6.84878">
        <ele>2354.8</ele>
        <time>2022-07-19T12:25:37Z</time>
      </trkpt>
      <trkpt lat="44.3403" lon="6.84876">
        <ele>2355.2</ele>
        <time>2022-07-19T12:25:38Z</time>
      </trkpt>
      <trkpt lat="44.34031" lon="6.84874">
        <ele>2355.2</ele>
        <time>2022-07-19T12:25:39Z</time>
      </trkpt>
      <trkpt lat="44.34032" lon="6.84871">
        <ele>2355.4</ele>
        <time>2022-07-19T12:25:40Z</time>
      </trkpt>
      <trkpt lat="44.34032" lon="6.84869">
        <ele>2355.4</ele>
        <time>2022-07-19T12:25:41Z</time>
      </trkpt>
      <trkpt lat="44.34033" lon="6.84867">
        <ele>2355.4</ele>
        <time>2022-07-19T12:25:42Z</time>
      </trkpt>
      <trkpt lat="44.34033" lon="6.84864">
        <ele>2355.6</ele>
        <time>2022-07-19T12:25:43Z</time>
      </trkpt>
      <trkpt lat="44.34034" lon="6.84862">
        <ele>2355.6</ele>
        <time>2022-07-19T12:25:44Z</time>
      </trkpt>
      <trkpt lat="44.34035" lon="6.84859">
        <ele>2355.6</ele>
        <time>2022-07-19T12:25:45Z</time>
      </trkpt>
      <trkpt lat="44.34036" lon="6.84856">
        <ele>2355.8</ele>
        <time>2022-07-19T12:25:46Z</time>
      </trkpt>
      <trkpt lat="44.34037" lon="6.84853">
        <ele>2355.8</ele>
        <time>2022-07-19T12:25:47Z</time>
      </trkpt>
      <trkpt lat="44.34038" lon="6.84851">
        <ele>2355.8</ele>
        <time>2022-07-19T12:25:48Z</time>
      </trkpt>
      <trkpt lat="44.34039" lon="6.84848">
        <ele>2356.2</ele>
        <time>2022-07-19T12:25:49Z</time>
      </trkpt>
      <trkpt lat="44.3404" lon="6.84845">
        <ele>2356.2</ele>
        <time>2022-07-19T12:25:50Z</time>
      </trkpt>
      <trkpt lat="44.34041" lon="6.84841">
        <ele>2356.2</ele>
        <time>2022-07-19T12:25:51Z</time>
      </trkpt>
      <trkpt lat="44.34042" lon="6.84838">
        <ele>2356.4</ele>
        <time>2022-07-19T12:25:52Z</time>
      </trkpt>
      <trkpt lat="44.34043" lon="6.84835">
        <ele>2356.4</ele>
        <time>2022-07-19T12:25:53Z</time>
      </trkpt>
      <trkpt lat="44.34044" lon="6.84832">
        <ele>2356.6</ele>
        <time>2022-07-19T12:25:54Z</time>
      </trkpt>
      <trkpt lat="44.34044" lon="6.84829">
        <ele>2356.6</ele>
        <time>2022-07-19T12:25:55Z</time>
      </trkpt>
      <trkpt lat="44.34045" lon="6.84826">
        <ele>2356.6</ele>
        <time>2022-07-19T12:25:56Z</time>
      </trkpt>
      <trkpt lat="44.34046" lon="6.84823">
        <ele>2356.8</ele>
        <time>2022-07-19T12:25:57Z</time>
      </trkpt>
      <trkpt lat="44.34047" lon="6.8482">
        <ele>2356.8</ele>
        <time>2022-07-19T12:25:58Z</time>
      </trkpt>
      <trkpt lat="44.34049" lon="6.84817">
        <ele>2357</ele>
        <time>2022-07-19T12:25:59Z</time>
      </trkpt>
      <trkpt lat="44.3405" lon="6.84814">
        <ele>2357</ele>
        <time>2022-07-19T12:26:00Z</time>
      </trkpt>
      <trkpt lat="44.34052" lon="6.84811">
        <ele>2357.2</ele>
        <time>2022-07-19T12:26:01Z</time>
      </trkpt>
      <trkpt lat="44.34053" lon="6.84809">
        <ele>2357.2</ele>
        <time>2022-07-19T12:26:02Z</time>
      </trkpt>
      <trkpt lat="44.34055" lon="6.84806">
        <ele>2357.6</ele>
        <time>2022-07-19T12:26:03Z</time>
      </trkpt>
      <trkpt lat="44.34057" lon="6.84804">
        <ele>2357.6</ele>
        <time>2022-07-19T12:26:04Z</time>
      </trkpt>
      <trkpt lat="44.3406" lon="6.84802">
        <ele>2357.6</ele>
        <time>2022-07-19T12:26:05Z</time>
      </trkpt>
      <trkpt lat="44.34062" lon="6.84799">
        <ele>2357.6</ele>
        <time>2022-07-19T12:26:06Z</time>
      </trkpt>
      <trkpt lat="44.34064" lon="6.84797">
        <ele>2357.6</ele>
        <time>2022-07-19T12:26:07Z</time>
      </trkpt>
      <trkpt lat="44.34066" lon="6.84795">
        <ele>2357.6</ele>
        <time>2022-07-19T12:26:08Z</time>
      </trkpt>
      <trkpt lat="44.34068" lon="6.84793">
        <ele>2357.8</ele>
        <time>2022-07-19T12:26:09Z</time>
      </trkpt>
      <trkpt lat="44.34071" lon="6.8479">
        <ele>2357.8</ele>
        <time>2022-07-19T12:26:10Z</time>
      </trkpt>
      <trkpt lat="44.34073" lon="6.84788">
        <ele>2357.8</ele>
        <time>2022-07-19T12:26:11Z</time>
      </trkpt>
      <trkpt lat="44.34075" lon="6.84786">
        <ele>2357.8</ele>
        <time>2022-07-19T12:26:12Z</time>
      </trkpt>
      <trkpt lat="44.34077" lon="6.84784">
        <ele>2358</ele>
        <time>2022-07-19T12:26:13Z</time>
      </trkpt>
      <trkpt lat="44.34079" lon="6.84782">
        <ele>2358</ele>
        <time>2022-07-19T12:26:14Z</time>
      </trkpt>
      <trkpt lat="44.34082" lon="6.8478">
        <ele>2358.2</ele>
        <time>2022-07-19T12:26:15Z</time>
      </trkpt>
      <trkpt lat="44.34084" lon="6.84778">
        <ele>2358.2</ele>
        <time>2022-07-19T12:26:16Z</time>
      </trkpt>
      <trkpt lat="44.34086" lon="6.84775">
        <ele>2358.2</ele>
        <time>2022-07-19T12:26:17Z</time>
      </trkpt>
      <trkpt lat="44.34088" lon="6.84773">
        <ele>2358.4</ele>
        <time>2022-07-19T12:26:18Z</time>
      </trkpt>
      <trkpt lat="44.34091" lon="6.84771">
        <ele>2358.4</ele>
        <time>2022-07-19T12:26:19Z</time>
      </trkpt>
      <trkpt lat="44.34093" lon="6.84769">
        <ele>2358.4</ele>
        <time>2022-07-19T12:26:20Z</time>
      </trkpt>
      <trkpt lat="44.34095" lon="6.84767">
        <ele>2358.6</ele>
        <time>2022-07-19T12:26:21Z</time>
      </trkpt>
      <trkpt lat="44.34096" lon="6.84764">
        <ele>2358.6</ele>
        <time>2022-07-19T12:26:22Z</time>
      </trkpt>
      <trkpt lat="44.34098" lon="6.84762">
        <ele>2358.6</ele>
        <time>2022-07-19T12:26:23Z</time>
      </trkpt>
      <trkpt lat="44.341" lon="6.84761">
        <ele>2358.6</ele>
        <time>2022-07-19T12:26:24Z</time>
      </trkpt>
      <trkpt lat="44.34101" lon="6.84759">
        <ele>2358.8</ele>
        <time>2022-07-19T12:26:25Z</time>
      </trkpt>
      <trkpt lat="44.34103" lon="6.84757">
        <ele>2358.8</ele>
        <time>2022-07-19T12:26:26Z</time>
      </trkpt>
      <trkpt lat="44.34105" lon="6.84755">
        <ele>2358.8</ele>
        <time>2022-07-19T12:26:27Z</time>
      </trkpt>
      <trkpt lat="44.34107" lon="6.84754">
        <ele>2358.8</ele>
        <time>2022-07-19T12:26:29Z</time>
      </trkpt>
      <trkpt lat="44.34109" lon="6.84752">
        <ele>2358.8</ele>
        <time>2022-07-19T12:26:30Z</time>
      </trkpt>
      <trkpt lat="44.34111" lon="6.8475">
        <ele>2359.2</ele>
        <time>2022-07-19T12:26:31Z</time>
      </trkpt>
      <trkpt lat="44.34113" lon="6.84747">
        <ele>2359.2</ele>
        <time>2022-07-19T12:26:32Z</time>
      </trkpt>
      <trkpt lat="44.34115" lon="6.84745">
        <ele>2359.2</ele>
        <time>2022-07-19T12:26:33Z</time>
      </trkpt>
      <trkpt lat="44.34118" lon="6.84744">
        <ele>2359.2</ele>
        <time>2022-07-19T12:26:34Z</time>
      </trkpt>
      <trkpt lat="44.3412" lon="6.84742">
        <ele>2359.2</ele>
        <time>2022-07-19T12:26:35Z</time>
      </trkpt>
      <trkpt lat="44.34122" lon="6.84741">
        <ele>2359.2</ele>
        <time>2022-07-19T12:26:36Z</time>
      </trkpt>
      <trkpt lat="44.34125" lon="6.84741">
        <ele>2359.2</ele>
        <time>2022-07-19T12:26:37Z</time>
      </trkpt>
      <trkpt lat="44.34127" lon="6.8474">
        <ele>2359.2</ele>
        <time>2022-07-19T12:26:38Z</time>
      </trkpt>
      <trkpt lat="44.34129" lon="6.84739">
        <ele>2359.4</ele>
        <time>2022-07-19T12:26:39Z</time>
      </trkpt>
      <trkpt lat="44.34132" lon="6.84739">
        <ele>2359.4</ele>
        <time>2022-07-19T12:26:40Z</time>
      </trkpt>
      <trkpt lat="44.34134" lon="6.84739">
        <ele>2359.4</ele>
        <time>2022-07-19T12:26:41Z</time>
      </trkpt>
      <trkpt lat="44.34137" lon="6.84739">
        <ele>2359.4</ele>
        <time>2022-07-19T12:26:42Z</time>
      </trkpt>
      <trkpt lat="44.34139" lon="6.84739">
        <ele>2359.4</ele>
        <time>2022-07-19T12:26:43Z</time>
      </trkpt>
      <trkpt lat="44.34142" lon="6.8474">
        <ele>2359.4</ele>
        <time>2022-07-19T12:26:44Z</time>
      </trkpt>
      <trkpt lat="44.34144" lon="6.8474">
        <ele>2359.4</ele>
        <time>2022-07-19T12:26:45Z</time>
      </trkpt>
      <trkpt lat="44.34147" lon="6.8474">
        <ele>2359.6</ele>
        <time>2022-07-19T12:26:46Z</time>
      </trkpt>
      <trkpt lat="44.34149" lon="6.8474">
        <ele>2359.6</ele>
        <time>2022-07-19T12:26:47Z</time>
      </trkpt>
      <trkpt lat="44.34152" lon="6.8474">
        <ele>2359.6</ele>
        <time>2022-07-19T12:26:48Z</time>
      </trkpt>
      <trkpt lat="44.34154" lon="6.8474">
        <ele>2359.6</ele>
        <time>2022-07-19T12:26:49Z</time>
      </trkpt>
      <trkpt lat="44.34156" lon="6.8474">
        <ele>2359.6</ele>
        <time>2022-07-19T12:26:50Z</time>
      </trkpt>
      <trkpt lat="44.34158" lon="6.84739">
        <ele>2360</ele>
        <time>2022-07-19T12:26:51Z</time>
      </trkpt>
      <trkpt lat="44.34161" lon="6.84738">
        <ele>2360</ele>
        <time>2022-07-19T12:26:52Z</time>
      </trkpt>
      <trkpt lat="44.34162" lon="6.84736">
        <ele>2360</ele>
        <time>2022-07-19T12:26:53Z</time>
      </trkpt>
      <trkpt lat="44.34164" lon="6.84733">
        <ele>2360.2</ele>
        <time>2022-07-19T12:26:54Z</time>
      </trkpt>
      <trkpt lat="44.34166" lon="6.8473">
        <ele>2360.2</ele>
        <time>2022-07-19T12:26:55Z</time>
      </trkpt>
      <trkpt lat="44.34168" lon="6.84726">
        <ele>2360.4</ele>
        <time>2022-07-19T12:26:56Z</time>
      </trkpt>
      <trkpt lat="44.34169" lon="6.84723">
        <ele>2360.8</ele>
        <time>2022-07-19T12:26:57Z</time>
      </trkpt>
      <trkpt lat="44.3417" lon="6.8472">
        <ele>2360.8</ele>
        <time>2022-07-19T12:26:58Z</time>
      </trkpt>
      <trkpt lat="44.34171" lon="6.84716">
        <ele>2361</ele>
        <time>2022-07-19T12:26:59Z</time>
      </trkpt>
      <trkpt lat="44.34172" lon="6.84712">
        <ele>2361</ele>
        <time>2022-07-19T12:27:00Z</time>
      </trkpt>
      <trkpt lat="44.34172" lon="6.84708">
        <ele>2361</ele>
        <time>2022-07-19T12:27:01Z</time>
      </trkpt>
      <trkpt lat="44.34173" lon="6.84704">
        <ele>2361.4</ele>
        <time>2022-07-19T12:27:02Z</time>
      </trkpt>
      <trkpt lat="44.34173" lon="6.847">
        <ele>2361.4</ele>
        <time>2022-07-19T12:27:03Z</time>
      </trkpt>
      <trkpt lat="44.34174" lon="6.84696">
        <ele>2361.4</ele>
        <time>2022-07-19T12:27:04Z</time>
      </trkpt>
      <trkpt lat="44.34174" lon="6.84692">
        <ele>2361.8</ele>
        <time>2022-07-19T12:27:05Z</time>
      </trkpt>
      <trkpt lat="44.34174" lon="6.84688">
        <ele>2362</ele>
        <time>2022-07-19T12:27:06Z</time>
      </trkpt>
      <trkpt lat="44.34174" lon="6.84684">
        <ele>2362</ele>
        <time>2022-07-19T12:27:07Z</time>
      </trkpt>
      <trkpt lat="44.34175" lon="6.8468">
        <ele>2362.2</ele>
        <time>2022-07-19T12:27:08Z</time>
      </trkpt>
      <trkpt lat="44.34176" lon="6.84676">
        <ele>2362.2</ele>
        <time>2022-07-19T12:27:09Z</time>
      </trkpt>
      <trkpt lat="44.34177" lon="6.84673">
        <ele>2362.6</ele>
        <time>2022-07-19T12:27:10Z</time>
      </trkpt>
      <trkpt lat="44.34179" lon="6.8467">
        <ele>2362.6</ele>
        <time>2022-07-19T12:27:11Z</time>
      </trkpt>
      <trkpt lat="44.34181" lon="6.84667">
        <ele>2363</ele>
        <time>2022-07-19T12:27:12Z</time>
      </trkpt>
      <trkpt lat="44.34183" lon="6.84665">
        <ele>2363</ele>
        <time>2022-07-19T12:27:13Z</time>
      </trkpt>
      <trkpt lat="44.34185" lon="6.84662">
        <ele>2363.4</ele>
        <time>2022-07-19T12:27:14Z</time>
      </trkpt>
      <trkpt lat="44.34187" lon="6.8466">
        <ele>2363.4</ele>
        <time>2022-07-19T12:27:15Z</time>
      </trkpt>
      <trkpt lat="44.34189" lon="6.84658">
        <ele>2363.6</ele>
        <time>2022-07-19T12:27:16Z</time>
      </trkpt>
      <trkpt lat="44.3419" lon="6.84655">
        <ele>2363.8</ele>
        <time>2022-07-19T12:27:17Z</time>
      </trkpt>
      <trkpt lat="44.34192" lon="6.84653">
        <ele>2364</ele>
        <time>2022-07-19T12:27:18Z</time>
      </trkpt>
      <trkpt lat="44.34194" lon="6.84651">
        <ele>2364</ele>
        <time>2022-07-19T12:27:19Z</time>
      </trkpt>
      <trkpt lat="44.34196" lon="6.84648">
        <ele>2364.6</ele>
        <time>2022-07-19T12:27:20Z</time>
      </trkpt>
      <trkpt lat="44.34198" lon="6.84646">
        <ele>2364.8</ele>
        <time>2022-07-19T12:27:21Z</time>
      </trkpt>
      <trkpt lat="44.342" lon="6.84644">
        <ele>2364.8</ele>
        <time>2022-07-19T12:27:22Z</time>
      </trkpt>
      <trkpt lat="44.34202" lon="6.84641">
        <ele>2365</ele>
        <time>2022-07-19T12:27:23Z</time>
      </trkpt>
      <trkpt lat="44.34204" lon="6.84639">
        <ele>2365</ele>
        <time>2022-07-19T12:27:24Z</time>
      </trkpt>
      <trkpt lat="44.34205" lon="6.84637">
        <ele>2365.4</ele>
        <time>2022-07-19T12:27:25Z</time>
      </trkpt>
      <trkpt lat="44.34207" lon="6.84634">
        <ele>2365.4</ele>
        <time>2022-07-19T12:27:26Z</time>
      </trkpt>
      <trkpt lat="44.34209" lon="6.84632">
        <ele>2365.8</ele>
        <time>2022-07-19T12:27:27Z</time>
      </trkpt>
      <trkpt lat="44.3421" lon="6.84629">
        <ele>2366.2</ele>
        <time>2022-07-19T12:27:28Z</time>
      </trkpt>
      <trkpt lat="44.34211" lon="6.84627">
        <ele>2366.4</ele>
        <time>2022-07-19T12:27:29Z</time>
      </trkpt>
      <trkpt lat="44.34213" lon="6.84624">
        <ele>2366.6</ele>
        <time>2022-07-19T12:27:30Z</time>
      </trkpt>
      <trkpt lat="44.34214" lon="6.84622">
        <ele>2366.8</ele>
        <time>2022-07-19T12:27:31Z</time>
      </trkpt>
      <trkpt lat="44.34216" lon="6.8462">
        <ele>2367</ele>
        <time>2022-07-19T12:27:32Z</time>
      </trkpt>
      <trkpt lat="44.34218" lon="6.84618">
        <ele>2367</ele>
        <time>2022-07-19T12:27:33Z</time>
      </trkpt>
      <trkpt lat="44.3422" lon="6.84616">
        <ele>2367.4</ele>
        <time>2022-07-19T12:27:34Z</time>
      </trkpt>
      <trkpt lat="44.34222" lon="6.84614">
        <ele>2367.8</ele>
        <time>2022-07-19T12:27:35Z</time>
      </trkpt>
      <trkpt lat="44.34224" lon="6.84612">
        <ele>2367.8</ele>
        <time>2022-07-19T12:27:36Z</time>
      </trkpt>
      <trkpt lat="44.34226" lon="6.8461">
        <ele>2368</ele>
        <time>2022-07-19T12:27:37Z</time>
      </trkpt>
      <trkpt lat="44.34228" lon="6.84609">
        <ele>2368</ele>
        <time>2022-07-19T12:27:38Z</time>
      </trkpt>
      <trkpt lat="44.34229" lon="6.84606">
        <ele>2368.4</ele>
        <time>2022-07-19T12:27:39Z</time>
      </trkpt>
      <trkpt lat="44.34231" lon="6.84604">
        <ele>2368.6</ele>
        <time>2022-07-19T12:27:40Z</time>
      </trkpt>
      <trkpt lat="44.34233" lon="6.84602">
        <ele>2368.8</ele>
        <time>2022-07-19T12:27:41Z</time>
      </trkpt>
      <trkpt lat="44.34234" lon="6.846">
        <ele>2368.8</ele>
        <time>2022-07-19T12:27:42Z</time>
      </trkpt>
      <trkpt lat="44.34235" lon="6.84598">
        <ele>2369.2</ele>
        <time>2022-07-19T12:27:43Z</time>
      </trkpt>
      <trkpt lat="44.34237" lon="6.84595">
        <ele>2369.2</ele>
        <time>2022-07-19T12:27:44Z</time>
      </trkpt>
      <trkpt lat="44.34238" lon="6.84593">
        <ele>2369.4</ele>
        <time>2022-07-19T12:27:45Z</time>
      </trkpt>
      <trkpt lat="44.34238" lon="6.8459">
        <ele>2369.4</ele>
        <time>2022-07-19T12:27:46Z</time>
      </trkpt>
      <trkpt lat="44.34238" lon="6.84587">
        <ele>2369.8</ele>
        <time>2022-07-19T12:27:47Z</time>
      </trkpt>
      <trkpt lat="44.34238" lon="6.84584">
        <ele>2369.8</ele>
        <time>2022-07-19T12:27:48Z</time>
      </trkpt>
      <trkpt lat="44.34238" lon="6.84581">
        <ele>2370</ele>
        <time>2022-07-19T12:27:49Z</time>
      </trkpt>
      <trkpt lat="44.34237" lon="6.84579">
        <ele>2370</ele>
        <time>2022-07-19T12:27:50Z</time>
      </trkpt>
      <trkpt lat="44.34236" lon="6.84576">
        <ele>2370.4</ele>
        <time>2022-07-19T12:27:51Z</time>
      </trkpt>
      <trkpt lat="44.34236" lon="6.84573">
        <ele>2370.4</ele>
        <time>2022-07-19T12:27:52Z</time>
      </trkpt>
      <trkpt lat="44.34235" lon="6.8457">
        <ele>2370.6</ele>
        <time>2022-07-19T12:27:53Z</time>
      </trkpt>
      <trkpt lat="44.34235" lon="6.84567">
        <ele>2370.6</ele>
        <time>2022-07-19T12:27:54Z</time>
      </trkpt>
      <trkpt lat="44.34233" lon="6.84564">
        <ele>2370.6</ele>
        <time>2022-07-19T12:27:55Z</time>
      </trkpt>
      <trkpt lat="44.34232" lon="6.84562">
        <ele>2370.6</ele>
        <time>2022-07-19T12:27:56Z</time>
      </trkpt>
      <trkpt lat="44.3423" lon="6.84559">
        <ele>2370.6</ele>
        <time>2022-07-19T12:27:57Z</time>
      </trkpt>
      <trkpt lat="44.34229" lon="6.84556">
        <ele>2370.6</ele>
        <time>2022-07-19T12:27:58Z</time>
      </trkpt>
      <trkpt lat="44.34228" lon="6.84553">
        <ele>2370.6</ele>
        <time>2022-07-19T12:27:59Z</time>
      </trkpt>
      <trkpt lat="44.34227" lon="6.8455">
        <ele>2370.8</ele>
        <time>2022-07-19T12:28:00Z</time>
      </trkpt>
      <trkpt lat="44.34226" lon="6.84547">
        <ele>2370.8</ele>
        <time>2022-07-19T12:28:01Z</time>
      </trkpt>
      <trkpt lat="44.34225" lon="6.84544">
        <ele>2370.8</ele>
        <time>2022-07-19T12:28:02Z</time>
      </trkpt>
      <trkpt lat="44.34224" lon="6.84541">
        <ele>2370.8</ele>
        <time>2022-07-19T12:28:03Z</time>
      </trkpt>
      <trkpt lat="44.34223" lon="6.84538">
        <ele>2371.2</ele>
        <time>2022-07-19T12:28:04Z</time>
      </trkpt>
      <trkpt lat="44.34221" lon="6.84535">
        <ele>2371.2</ele>
        <time>2022-07-19T12:28:05Z</time>
      </trkpt>
      <trkpt lat="44.3422" lon="6.84532">
        <ele>2371.4</ele>
        <time>2022-07-19T12:28:06Z</time>
      </trkpt>
      <trkpt lat="44.34219" lon="6.84529">
        <ele>2371.4</ele>
        <time>2022-07-19T12:28:07Z</time>
      </trkpt>
      <trkpt lat="44.34218" lon="6.84526">
        <ele>2371.8</ele>
        <time>2022-07-19T12:28:08Z</time>
      </trkpt>
      <trkpt lat="44.34216" lon="6.84523">
        <ele>2371.8</ele>
        <time>2022-07-19T12:28:09Z</time>
      </trkpt>
      <trkpt lat="44.34215" lon="6.8452">
        <ele>2372</ele>
        <time>2022-07-19T12:28:10Z</time>
      </trkpt>
      <trkpt lat="44.34213" lon="6.84518">
        <ele>2372</ele>
        <time>2022-07-19T12:28:11Z</time>
      </trkpt>
      <trkpt lat="44.34212" lon="6.84515">
        <ele>2372</ele>
        <time>2022-07-19T12:28:12Z</time>
      </trkpt>
      <trkpt lat="44.34211" lon="6.84512">
        <ele>2372</ele>
        <time>2022-07-19T12:28:13Z</time>
      </trkpt>
      <trkpt lat="44.34209" lon="6.84509">
        <ele>2372.2</ele>
        <time>2022-07-19T12:28:14Z</time>
      </trkpt>
      <trkpt lat="44.34208" lon="6.84506">
        <ele>2372.2</ele>
        <time>2022-07-19T12:28:15Z</time>
      </trkpt>
      <trkpt lat="44.34207" lon="6.84503">
        <ele>2372.2</ele>
        <time>2022-07-19T12:28:16Z</time>
      </trkpt>
      <trkpt lat="44.34206" lon="6.845">
        <ele>2372.6</ele>
        <time>2022-07-19T12:28:17Z</time>
      </trkpt>
      <trkpt lat="44.34205" lon="6.84497">
        <ele>2372.6</ele>
        <time>2022-07-19T12:28:18Z</time>
      </trkpt>
      <trkpt lat="44.34205" lon="6.84493">
        <ele>2372.8</ele>
        <time>2022-07-19T12:28:19Z</time>
      </trkpt>
      <trkpt lat="44.34204" lon="6.8449">
        <ele>2373</ele>
        <time>2022-07-19T12:28:20Z</time>
      </trkpt>
      <trkpt lat="44.34203" lon="6.84488">
        <ele>2373</ele>
        <time>2022-07-19T12:28:21Z</time>
      </trkpt>
      <trkpt lat="44.34202" lon="6.84485">
        <ele>2373.4</ele>
        <time>2022-07-19T12:28:22Z</time>
      </trkpt>
      <trkpt lat="44.34202" lon="6.84482">
        <ele>2373.4</ele>
        <time>2022-07-19T12:28:23Z</time>
      </trkpt>
      <trkpt lat="44.34201" lon="6.84479">
        <ele>2373.4</ele>
        <time>2022-07-19T12:28:24Z</time>
      </trkpt>
      <trkpt lat="44.342" lon="6.84476">
        <ele>2373.8</ele>
        <time>2022-07-19T12:28:25Z</time>
      </trkpt>
      <trkpt lat="44.34199" lon="6.84474">
        <ele>2373.8</ele>
        <time>2022-07-19T12:28:26Z</time>
      </trkpt>
      <trkpt lat="44.34199" lon="6.84471">
        <ele>2374.2</ele>
        <time>2022-07-19T12:28:27Z</time>
      </trkpt>
      <trkpt lat="44.34198" lon="6.84468">
        <ele>2374.2</ele>
        <time>2022-07-19T12:28:28Z</time>
      </trkpt>
      <trkpt lat="44.34197" lon="6.84465">
        <ele>2374.4</ele>
        <time>2022-07-19T12:28:29Z</time>
      </trkpt>
      <trkpt lat="44.34196" lon="6.84462">
        <ele>2374.4</ele>
        <time>2022-07-19T12:28:30Z</time>
      </trkpt>
      <trkpt lat="44.34195" lon="6.8446">
        <ele>2374.6</ele>
        <time>2022-07-19T12:28:31Z</time>
      </trkpt>
      <trkpt lat="44.34193" lon="6.84457">
        <ele>2374.6</ele>
        <time>2022-07-19T12:28:32Z</time>
      </trkpt>
      <trkpt lat="44.34192" lon="6.84454">
        <ele>2375</ele>
        <time>2022-07-19T12:28:33Z</time>
      </trkpt>
      <trkpt lat="44.34191" lon="6.84452">
        <ele>2375</ele>
        <time>2022-07-19T12:28:34Z</time>
      </trkpt>
      <trkpt lat="44.3419" lon="6.8445">
        <ele>2375.4</ele>
        <time>2022-07-19T12:28:35Z</time>
      </trkpt>
      <trkpt lat="44.34189" lon="6.84447">
        <ele>2375.4</ele>
        <time>2022-07-19T12:28:36Z</time>
      </trkpt>
      <trkpt lat="44.34187" lon="6.84445">
        <ele>2375.8</ele>
        <time>2022-07-19T12:28:37Z</time>
      </trkpt>
      <trkpt lat="44.34186" lon="6.84443">
        <ele>2375.8</ele>
        <time>2022-07-19T12:28:38Z</time>
      </trkpt>
      <trkpt lat="44.34184" lon="6.84441">
        <ele>2376</ele>
        <time>2022-07-19T12:28:39Z</time>
      </trkpt>
      <trkpt lat="44.34182" lon="6.84439">
        <ele>2376</ele>
        <time>2022-07-19T12:28:40Z</time>
      </trkpt>
      <trkpt lat="44.34181" lon="6.84437">
        <ele>2376.4</ele>
        <time>2022-07-19T12:28:41Z</time>
      </trkpt>
      <trkpt lat="44.34179" lon="6.84435">
        <ele>2376.4</ele>
        <time>2022-07-19T12:28:42Z</time>
      </trkpt>
      <trkpt lat="44.34178" lon="6.84433">
        <ele>2376.8</ele>
        <time>2022-07-19T12:28:43Z</time>
      </trkpt>
      <trkpt lat="44.34176" lon="6.84431">
        <ele>2376.8</ele>
        <time>2022-07-19T12:28:44Z</time>
      </trkpt>
      <trkpt lat="44.34175" lon="6.84429">
        <ele>2377.2</ele>
        <time>2022-07-19T12:28:45Z</time>
      </trkpt>
      <trkpt lat="44.34173" lon="6.84427">
        <ele>2377.4</ele>
        <time>2022-07-19T12:28:46Z</time>
      </trkpt>
      <trkpt lat="44.34171" lon="6.84426">
        <ele>2377.4</ele>
        <time>2022-07-19T12:28:47Z</time>
      </trkpt>
      <trkpt lat="44.34169" lon="6.84425">
        <ele>2377.6</ele>
        <time>2022-07-19T12:28:48Z</time>
      </trkpt>
      <trkpt lat="44.34168" lon="6.84423">
        <ele>2377.6</ele>
        <time>2022-07-19T12:28:49Z</time>
      </trkpt>
      <trkpt lat="44.34166" lon="6.84422">
        <ele>2378</ele>
        <time>2022-07-19T12:28:50Z</time>
      </trkpt>
      <trkpt lat="44.34165" lon="6.84421">
        <ele>2378</ele>
        <time>2022-07-19T12:28:51Z</time>
      </trkpt>
      <trkpt lat="44.34163" lon="6.84419">
        <ele>2378.2</ele>
        <time>2022-07-19T12:28:52Z</time>
      </trkpt>
      <trkpt lat="44.34162" lon="6.84417">
        <ele>2378.2</ele>
        <time>2022-07-19T12:28:53Z</time>
      </trkpt>
      <trkpt lat="44.3416" lon="6.84415">
        <ele>2378.6</ele>
        <time>2022-07-19T12:28:54Z</time>
      </trkpt>
      <trkpt lat="44.34159" lon="6.84414">
        <ele>2378.6</ele>
        <time>2022-07-19T12:28:55Z</time>
      </trkpt>
      <trkpt lat="44.34157" lon="6.84412">
        <ele>2378.8</ele>
        <time>2022-07-19T12:28:56Z</time>
      </trkpt>
      <trkpt lat="44.34155" lon="6.8441">
        <ele>2378.8</ele>
        <time>2022-07-19T12:28:57Z</time>
      </trkpt>
      <trkpt lat="44.34154" lon="6.84409">
        <ele>2379</ele>
        <time>2022-07-19T12:28:58Z</time>
      </trkpt>
      <trkpt lat="44.34152" lon="6.84407">
        <ele>2379</ele>
        <time>2022-07-19T12:28:59Z</time>
      </trkpt>
      <trkpt lat="44.34151" lon="6.84406">
        <ele>2379.4</ele>
        <time>2022-07-19T12:29:00Z</time>
      </trkpt>
      <trkpt lat="44.34149" lon="6.84405">
        <ele>2379.4</ele>
        <time>2022-07-19T12:29:01Z</time>
      </trkpt>
      <trkpt lat="44.34147" lon="6.84403">
        <ele>2379.8</ele>
        <time>2022-07-19T12:29:02Z</time>
      </trkpt>
      <trkpt lat="44.34146" lon="6.84402">
        <ele>2379.8</ele>
        <time>2022-07-19T12:29:03Z</time>
      </trkpt>
      <trkpt lat="44.34145" lon="6.844">
        <ele>2380</ele>
        <time>2022-07-19T12:29:04Z</time>
      </trkpt>
      <trkpt lat="44.34143" lon="6.84398">
        <ele>2380</ele>
        <time>2022-07-19T12:29:05Z</time>
      </trkpt>
      <trkpt lat="44.34142" lon="6.84397">
        <ele>2380.2</ele>
        <time>2022-07-19T12:29:06Z</time>
      </trkpt>
      <trkpt lat="44.3414" lon="6.84395">
        <ele>2380.2</ele>
        <time>2022-07-19T12:29:07Z</time>
      </trkpt>
      <trkpt lat="44.34138" lon="6.84394">
        <ele>2380.6</ele>
        <time>2022-07-19T12:29:08Z</time>
      </trkpt>
      <trkpt lat="44.34137" lon="6.84393">
        <ele>2380.6</ele>
        <time>2022-07-19T12:29:09Z</time>
      </trkpt>
      <trkpt lat="44.34135" lon="6.84391">
        <ele>2380.8</ele>
        <time>2022-07-19T12:29:10Z</time>
      </trkpt>
      <trkpt lat="44.34133" lon="6.8439">
        <ele>2380.8</ele>
        <time>2022-07-19T12:29:11Z</time>
      </trkpt>
      <trkpt lat="44.34132" lon="6.84389">
        <ele>2380.8</ele>
        <time>2022-07-19T12:29:12Z</time>
      </trkpt>
      <trkpt lat="44.3413" lon="6.84387">
        <ele>2381</ele>
        <time>2022-07-19T12:29:13Z</time>
      </trkpt>
      <trkpt lat="44.34129" lon="6.84386">
        <ele>2381</ele>
        <time>2022-07-19T12:29:14Z</time>
      </trkpt>
      <trkpt lat="44.34127" lon="6.84384">
        <ele>2381.4</ele>
        <time>2022-07-19T12:29:15Z</time>
      </trkpt>
      <trkpt lat="44.34125" lon="6.84382">
        <ele>2381.4</ele>
        <time>2022-07-19T12:29:16Z</time>
      </trkpt>
      <trkpt lat="44.34124" lon="6.8438">
        <ele>2381.6</ele>
        <time>2022-07-19T12:29:17Z</time>
      </trkpt>
      <trkpt lat="44.34122" lon="6.84378">
        <ele>2381.6</ele>
        <time>2022-07-19T12:29:18Z</time>
      </trkpt>
      <trkpt lat="44.3412" lon="6.84377">
        <ele>2381.8</ele>
        <time>2022-07-19T12:29:19Z</time>
      </trkpt>
      <trkpt lat="44.34119" lon="6.84375">
        <ele>2382.2</ele>
        <time>2022-07-19T12:29:20Z</time>
      </trkpt>
      <trkpt lat="44.34117" lon="6.84373">
        <ele>2382.2</ele>
        <time>2022-07-19T12:29:21Z</time>
      </trkpt>
      <trkpt lat="44.34115" lon="6.84371">
        <ele>2382.4</ele>
        <time>2022-07-19T12:29:22Z</time>
      </trkpt>
      <trkpt lat="44.34113" lon="6.8437">
        <ele>2382.4</ele>
        <time>2022-07-19T12:29:23Z</time>
      </trkpt>
      <trkpt lat="44.34111" lon="6.84368">
        <ele>2382.6</ele>
        <time>2022-07-19T12:29:24Z</time>
      </trkpt>
      <trkpt lat="44.34109" lon="6.84366">
        <ele>2382.6</ele>
        <time>2022-07-19T12:29:25Z</time>
      </trkpt>
      <trkpt lat="44.34107" lon="6.84365">
        <ele>2383</ele>
        <time>2022-07-19T12:29:26Z</time>
      </trkpt>
      <trkpt lat="44.34105" lon="6.84363">
        <ele>2383</ele>
        <time>2022-07-19T12:29:27Z</time>
      </trkpt>
      <trkpt lat="44.34103" lon="6.84361">
        <ele>2383.2</ele>
        <time>2022-07-19T12:29:28Z</time>
      </trkpt>
      <trkpt lat="44.34101" lon="6.84359">
        <ele>2383.2</ele>
        <time>2022-07-19T12:29:29Z</time>
      </trkpt>
      <trkpt lat="44.341" lon="6.84357">
        <ele>2383.2</ele>
        <time>2022-07-19T12:29:30Z</time>
      </trkpt>
      <trkpt lat="44.34097" lon="6.84355">
        <ele>2383.4</ele>
        <time>2022-07-19T12:29:31Z</time>
      </trkpt>
      <trkpt lat="44.34095" lon="6.84352">
        <ele>2383.4</ele>
        <time>2022-07-19T12:29:32Z</time>
      </trkpt>
      <trkpt lat="44.34093" lon="6.8435">
        <ele>2383.8</ele>
        <time>2022-07-19T12:29:33Z</time>
      </trkpt>
      <trkpt lat="44.34092" lon="6.84348">
        <ele>2383.8</ele>
        <time>2022-07-19T12:29:34Z</time>
      </trkpt>
      <trkpt lat="44.3409" lon="6.84346">
        <ele>2383.8</ele>
        <time>2022-07-19T12:29:35Z</time>
      </trkpt>
      <trkpt lat="44.34088" lon="6.84344">
        <ele>2384</ele>
        <time>2022-07-19T12:29:36Z</time>
      </trkpt>
      <trkpt lat="44.34086" lon="6.84342">
        <ele>2384</ele>
        <time>2022-07-19T12:29:37Z</time>
      </trkpt>
      <trkpt lat="44.34084" lon="6.8434">
        <ele>2384.2</ele>
        <time>2022-07-19T12:29:38Z</time>
      </trkpt>
      <trkpt lat="44.34083" lon="6.84338">
        <ele>2384.2</ele>
        <time>2022-07-19T12:29:39Z</time>
      </trkpt>
      <trkpt lat="44.34081" lon="6.84336">
        <ele>2384.2</ele>
        <time>2022-07-19T12:29:40Z</time>
      </trkpt>
      <trkpt lat="44.34079" lon="6.84334">
        <ele>2384.8</ele>
        <time>2022-07-19T12:29:41Z</time>
      </trkpt>
      <trkpt lat="44.34077" lon="6.84332">
        <ele>2384.8</ele>
        <time>2022-07-19T12:29:42Z</time>
      </trkpt>
      <trkpt lat="44.34076" lon="6.8433">
        <ele>2385</ele>
        <time>2022-07-19T12:29:43Z</time>
      </trkpt>
      <trkpt lat="44.34074" lon="6.84328">
        <ele>2385</ele>
        <time>2022-07-19T12:29:44Z</time>
      </trkpt>
      <trkpt lat="44.34072" lon="6.84326">
        <ele>2385.4</ele>
        <time>2022-07-19T12:29:45Z</time>
      </trkpt>
      <trkpt lat="44.3407" lon="6.84324">
        <ele>2385.4</ele>
        <time>2022-07-19T12:29:46Z</time>
      </trkpt>
      <trkpt lat="44.34069" lon="6.84321">
        <ele>2385.8</ele>
        <time>2022-07-19T12:29:47Z</time>
      </trkpt>
      <trkpt lat="44.34068" lon="6.84318">
        <ele>2385.8</ele>
        <time>2022-07-19T12:29:48Z</time>
      </trkpt>
      <trkpt lat="44.34067" lon="6.84316">
        <ele>2386</ele>
        <time>2022-07-19T12:29:49Z</time>
      </trkpt>
      <trkpt lat="44.34065" lon="6.84312">
        <ele>2386</ele>
        <time>2022-07-19T12:29:50Z</time>
      </trkpt>
      <trkpt lat="44.34065" lon="6.84309">
        <ele>2386.2</ele>
        <time>2022-07-19T12:29:51Z</time>
      </trkpt>
      <trkpt lat="44.34064" lon="6.84306">
        <ele>2386.6</ele>
        <time>2022-07-19T12:29:52Z</time>
      </trkpt>
      <trkpt lat="44.34063" lon="6.84303">
        <ele>2386.6</ele>
        <time>2022-07-19T12:29:53Z</time>
      </trkpt>
      <trkpt lat="44.34062" lon="6.843">
        <ele>2386.8</ele>
        <time>2022-07-19T12:29:54Z</time>
      </trkpt>
      <trkpt lat="44.34061" lon="6.84297">
        <ele>2386.8</ele>
        <time>2022-07-19T12:29:55Z</time>
      </trkpt>
      <trkpt lat="44.3406" lon="6.84294">
        <ele>2387.2</ele>
        <time>2022-07-19T12:29:56Z</time>
      </trkpt>
      <trkpt lat="44.3406" lon="6.8429">
        <ele>2387.2</ele>
        <time>2022-07-19T12:29:57Z</time>
      </trkpt>
      <trkpt lat="44.3406" lon="6.84287">
        <ele>2387.2</ele>
        <time>2022-07-19T12:29:58Z</time>
      </trkpt>
      <trkpt lat="44.34059" lon="6.84284">
        <ele>2387.6</ele>
        <time>2022-07-19T12:29:59Z</time>
      </trkpt>
      <trkpt lat="44.34059" lon="6.8428">
        <ele>2387.6</ele>
        <time>2022-07-19T12:30:00Z</time>
      </trkpt>
      <trkpt lat="44.34058" lon="6.84277">
        <ele>2388</ele>
        <time>2022-07-19T12:30:01Z</time>
      </trkpt>
      <trkpt lat="44.34058" lon="6.84274">
        <ele>2388</ele>
        <time>2022-07-19T12:30:02Z</time>
      </trkpt>
      <trkpt lat="44.34057" lon="6.84271">
        <ele>2388.4</ele>
        <time>2022-07-19T12:30:03Z</time>
      </trkpt>
      <trkpt lat="44.34056" lon="6.84268">
        <ele>2388.4</ele>
        <time>2022-07-19T12:30:04Z</time>
      </trkpt>
      <trkpt lat="44.34055" lon="6.84265">
        <ele>2388.6</ele>
        <time>2022-07-19T12:30:05Z</time>
      </trkpt>
      <trkpt lat="44.34055" lon="6.84262">
        <ele>2388.8</ele>
        <time>2022-07-19T12:30:06Z</time>
      </trkpt>
      <trkpt lat="44.34054" lon="6.84259">
        <ele>2388.8</ele>
        <time>2022-07-19T12:30:07Z</time>
      </trkpt>
      <trkpt lat="44.34054" lon="6.84256">
        <ele>2388.8</ele>
        <time>2022-07-19T12:30:08Z</time>
      </trkpt>
      <trkpt lat="44.34053" lon="6.84253">
        <ele>2389.2</ele>
        <time>2022-07-19T12:30:09Z</time>
      </trkpt>
      <trkpt lat="44.34053" lon="6.8425">
        <ele>2389.2</ele>
        <time>2022-07-19T12:30:10Z</time>
      </trkpt>
      <trkpt lat="44.34053" lon="6.84247">
        <ele>2389.4</ele>
        <time>2022-07-19T12:30:11Z</time>
      </trkpt>
      <trkpt lat="44.34054" lon="6.84243">
        <ele>2389.4</ele>
        <time>2022-07-19T12:30:12Z</time>
      </trkpt>
      <trkpt lat="44.34054" lon="6.8424">
        <ele>2389.8</ele>
        <time>2022-07-19T12:30:13Z</time>
      </trkpt>
      <trkpt lat="44.34055" lon="6.84236">
        <ele>2389.8</ele>
        <time>2022-07-19T12:30:14Z</time>
      </trkpt>
      <trkpt lat="44.34056" lon="6.84233">
        <ele>2390</ele>
        <time>2022-07-19T12:30:15Z</time>
      </trkpt>
      <trkpt lat="44.34056" lon="6.8423">
        <ele>2390</ele>
        <time>2022-07-19T12:30:16Z</time>
      </trkpt>
      <trkpt lat="44.34057" lon="6.84227">
        <ele>2390.2</ele>
        <time>2022-07-19T12:30:17Z</time>
      </trkpt>
      <trkpt lat="44.34058" lon="6.84224">
        <ele>2390.2</ele>
        <time>2022-07-19T12:30:18Z</time>
      </trkpt>
      <trkpt lat="44.34059" lon="6.84221">
        <ele>2390.6</ele>
        <time>2022-07-19T12:30:19Z</time>
      </trkpt>
      <trkpt lat="44.3406" lon="6.84218">
        <ele>2390.8</ele>
        <time>2022-07-19T12:30:20Z</time>
      </trkpt>
      <trkpt lat="44.3406" lon="6.84215">
        <ele>2391</ele>
        <time>2022-07-19T12:30:21Z</time>
      </trkpt>
      <trkpt lat="44.34061" lon="6.84212">
        <ele>2391</ele>
        <time>2022-07-19T12:30:22Z</time>
      </trkpt>
      <trkpt lat="44.34062" lon="6.84209">
        <ele>2391.2</ele>
        <time>2022-07-19T12:30:23Z</time>
      </trkpt>
      <trkpt lat="44.34062" lon="6.84206">
        <ele>2391.2</ele>
        <time>2022-07-19T12:30:24Z</time>
      </trkpt>
      <trkpt lat="44.34063" lon="6.84203">
        <ele>2391.2</ele>
        <time>2022-07-19T12:30:25Z</time>
      </trkpt>
      <trkpt lat="44.34063" lon="6.842">
        <ele>2391.6</ele>
        <time>2022-07-19T12:30:26Z</time>
      </trkpt>
      <trkpt lat="44.34063" lon="6.84196">
        <ele>2391.6</ele>
        <time>2022-07-19T12:30:27Z</time>
      </trkpt>
      <trkpt lat="44.34063" lon="6.84193">
        <ele>2392</ele>
        <time>2022-07-19T12:30:28Z</time>
      </trkpt>
      <trkpt lat="44.34062" lon="6.84187">
        <ele>2392.2</ele>
        <time>2022-07-19T12:30:29Z</time>
      </trkpt>
      <trkpt lat="44.34061" lon="6.84184">
        <ele>2392.4</ele>
        <time>2022-07-19T12:30:30Z</time>
      </trkpt>
      <trkpt lat="44.34061" lon="6.84181">
        <ele>2392.4</ele>
        <time>2022-07-19T12:30:31Z</time>
      </trkpt>
      <trkpt lat="44.34061" lon="6.84178">
        <ele>2392.8</ele>
        <time>2022-07-19T12:30:32Z</time>
      </trkpt>
      <trkpt lat="44.34061" lon="6.84176">
        <ele>2392.8</ele>
        <time>2022-07-19T12:30:33Z</time>
      </trkpt>
      <trkpt lat="44.34061" lon="6.84173">
        <ele>2393</ele>
        <time>2022-07-19T12:30:34Z</time>
      </trkpt>
      <trkpt lat="44.34061" lon="6.8417">
        <ele>2393</ele>
        <time>2022-07-19T12:30:35Z</time>
      </trkpt>
      <trkpt lat="44.34061" lon="6.84168">
        <ele>2393.4</ele>
        <time>2022-07-19T12:30:36Z</time>
      </trkpt>
      <trkpt lat="44.34061" lon="6.84165">
        <ele>2393.4</ele>
        <time>2022-07-19T12:30:37Z</time>
      </trkpt>
      <trkpt lat="44.3406" lon="6.84163">
        <ele>2393.6</ele>
        <time>2022-07-19T12:30:38Z</time>
      </trkpt>
      <trkpt lat="44.3406" lon="6.8416">
        <ele>2393.6</ele>
        <time>2022-07-19T12:30:39Z</time>
      </trkpt>
      <trkpt lat="44.3406" lon="6.84158">
        <ele>2394</ele>
        <time>2022-07-19T12:30:40Z</time>
      </trkpt>
      <trkpt lat="44.34059" lon="6.84155">
        <ele>2394.2</ele>
        <time>2022-07-19T12:30:41Z</time>
      </trkpt>
      <trkpt lat="44.34059" lon="6.84153">
        <ele>2394.4</ele>
        <time>2022-07-19T12:30:42Z</time>
      </trkpt>
      <trkpt lat="44.34058" lon="6.84151">
        <ele>2394.6</ele>
        <time>2022-07-19T12:30:43Z</time>
      </trkpt>
      <trkpt lat="44.34058" lon="6.84148">
        <ele>2394.8</ele>
        <time>2022-07-19T12:30:44Z</time>
      </trkpt>
      <trkpt lat="44.34058" lon="6.84145">
        <ele>2395.2</ele>
        <time>2022-07-19T12:30:45Z</time>
      </trkpt>
      <trkpt lat="44.34057" lon="6.84143">
        <ele>2395.2</ele>
        <time>2022-07-19T12:30:46Z</time>
      </trkpt>
      <trkpt lat="44.34058" lon="6.8414">
        <ele>2395.6</ele>
        <time>2022-07-19T12:30:47Z</time>
      </trkpt>
      <trkpt lat="44.34058" lon="6.84137">
        <ele>2395.6</ele>
        <time>2022-07-19T12:30:48Z</time>
      </trkpt>
      <trkpt lat="44.34058" lon="6.84135">
        <ele>2395.8</ele>
        <time>2022-07-19T12:30:49Z</time>
      </trkpt>
      <trkpt lat="44.34058" lon="6.84132">
        <ele>2395.8</ele>
        <time>2022-07-19T12:30:50Z</time>
      </trkpt>
      <trkpt lat="44.34059" lon="6.8413">
        <ele>2396.2</ele>
        <time>2022-07-19T12:30:51Z</time>
      </trkpt>
      <trkpt lat="44.34059" lon="6.84127">
        <ele>2396.4</ele>
        <time>2022-07-19T12:30:52Z</time>
      </trkpt>
      <trkpt lat="44.3406" lon="6.84125">
        <ele>2396.4</ele>
        <time>2022-07-19T12:30:53Z</time>
      </trkpt>
      <trkpt lat="44.34061" lon="6.84122">
        <ele>2396.8</ele>
        <time>2022-07-19T12:30:54Z</time>
      </trkpt>
      <trkpt lat="44.34062" lon="6.84119">
        <ele>2396.8</ele>
        <time>2022-07-19T12:30:55Z</time>
      </trkpt>
      <trkpt lat="44.34062" lon="6.84116">
        <ele>2397</ele>
        <time>2022-07-19T12:30:56Z</time>
      </trkpt>
      <trkpt lat="44.34063" lon="6.84114">
        <ele>2397</ele>
        <time>2022-07-19T12:30:57Z</time>
      </trkpt>
      <trkpt lat="44.34064" lon="6.84111">
        <ele>2397.2</ele>
        <time>2022-07-19T12:30:58Z</time>
      </trkpt>
      <trkpt lat="44.34065" lon="6.84109">
        <ele>2397.2</ele>
        <time>2022-07-19T12:30:59Z</time>
      </trkpt>
      <trkpt lat="44.34066" lon="6.84106">
        <ele>2397.6</ele>
        <time>2022-07-19T12:31:00Z</time>
      </trkpt>
      <trkpt lat="44.34067" lon="6.84104">
        <ele>2397.6</ele>
        <time>2022-07-19T12:31:01Z</time>
      </trkpt>
      <trkpt lat="44.34068" lon="6.84102">
        <ele>2397.8</ele>
        <time>2022-07-19T12:31:02Z</time>
      </trkpt>
      <trkpt lat="44.34069" lon="6.84099">
        <ele>2398</ele>
        <time>2022-07-19T12:31:03Z</time>
      </trkpt>
      <trkpt lat="44.3407" lon="6.84097">
        <ele>2398</ele>
        <time>2022-07-19T12:31:04Z</time>
      </trkpt>
      <trkpt lat="44.34071" lon="6.84094">
        <ele>2398.4</ele>
        <time>2022-07-19T12:31:05Z</time>
      </trkpt>
      <trkpt lat="44.34073" lon="6.84092">
        <ele>2398.4</ele>
        <time>2022-07-19T12:31:06Z</time>
      </trkpt>
      <trkpt lat="44.34074" lon="6.84089">
        <ele>2398.6</ele>
        <time>2022-07-19T12:31:07Z</time>
      </trkpt>
      <trkpt lat="44.34075" lon="6.84087">
        <ele>2398.6</ele>
        <time>2022-07-19T12:31:08Z</time>
      </trkpt>
      <trkpt lat="44.34076" lon="6.84085">
        <ele>2398.8</ele>
        <time>2022-07-19T12:31:09Z</time>
      </trkpt>
      <trkpt lat="44.34077" lon="6.84083">
        <ele>2398.8</ele>
        <time>2022-07-19T12:31:10Z</time>
      </trkpt>
      <trkpt lat="44.34078" lon="6.84081">
        <ele>2399.2</ele>
        <time>2022-07-19T12:31:11Z</time>
      </trkpt>
      <trkpt lat="44.3408" lon="6.84079">
        <ele>2399.2</ele>
        <time>2022-07-19T12:31:12Z</time>
      </trkpt>
      <trkpt lat="44.34081" lon="6.84077">
        <ele>2399.4</ele>
        <time>2022-07-19T12:31:13Z</time>
      </trkpt>
      <trkpt lat="44.34082" lon="6.84074">
        <ele>2399.4</ele>
        <time>2022-07-19T12:31:14Z</time>
      </trkpt>
      <trkpt lat="44.34083" lon="6.84072">
        <ele>2399.6</ele>
        <time>2022-07-19T12:31:15Z</time>
      </trkpt>
      <trkpt lat="44.34084" lon="6.8407">
        <ele>2399.6</ele>
        <time>2022-07-19T12:31:16Z</time>
      </trkpt>
      <trkpt lat="44.34085" lon="6.84068">
        <ele>2399.6</ele>
        <time>2022-07-19T12:31:17Z</time>
      </trkpt>
      <trkpt lat="44.34086" lon="6.84065">
        <ele>2400</ele>
        <time>2022-07-19T12:31:18Z</time>
      </trkpt>
      <trkpt lat="44.34087" lon="6.84063">
        <ele>2400</ele>
        <time>2022-07-19T12:31:19Z</time>
      </trkpt>
      <trkpt lat="44.34088" lon="6.84061">
        <ele>2400.2</ele>
        <time>2022-07-19T12:31:20Z</time>
      </trkpt>
      <trkpt lat="44.34089" lon="6.84058">
        <ele>2400.2</ele>
        <time>2022-07-19T12:31:21Z</time>
      </trkpt>
      <trkpt lat="44.3409" lon="6.84056">
        <ele>2400.6</ele>
        <time>2022-07-19T12:31:22Z</time>
      </trkpt>
      <trkpt lat="44.3409" lon="6.84053">
        <ele>2400.6</ele>
        <time>2022-07-19T12:31:23Z</time>
      </trkpt>
      <trkpt lat="44.34091" lon="6.84051">
        <ele>2401</ele>
        <time>2022-07-19T12:31:24Z</time>
      </trkpt>
      <trkpt lat="44.34091" lon="6.84048">
        <ele>2401</ele>
        <time>2022-07-19T12:31:25Z</time>
      </trkpt>
      <trkpt lat="44.34092" lon="6.84046">
        <ele>2401.2</ele>
        <time>2022-07-19T12:31:26Z</time>
      </trkpt>
      <trkpt lat="44.34093" lon="6.84044">
        <ele>2401.4</ele>
        <time>2022-07-19T12:31:27Z</time>
      </trkpt>
      <trkpt lat="44.34094" lon="6.84041">
        <ele>2401.4</ele>
        <time>2022-07-19T12:31:29Z</time>
      </trkpt>
      <trkpt lat="44.34094" lon="6.84039">
        <ele>2401.8</ele>
        <time>2022-07-19T12:31:30Z</time>
      </trkpt>
      <trkpt lat="44.34094" lon="6.84036">
        <ele>2401.8</ele>
        <time>2022-07-19T12:31:31Z</time>
      </trkpt>
      <trkpt lat="44.34094" lon="6.84033">
        <ele>2402</ele>
        <time>2022-07-19T12:31:32Z</time>
      </trkpt>
      <trkpt lat="44.34095" lon="6.8403">
        <ele>2402</ele>
        <time>2022-07-19T12:31:33Z</time>
      </trkpt>
      <trkpt lat="44.34094" lon="6.84025">
        <ele>2402</ele>
        <time>2022-07-19T12:31:34Z</time>
      </trkpt>
      <trkpt lat="44.34094" lon="6.84022">
        <ele>2402.4</ele>
        <time>2022-07-19T12:31:35Z</time>
      </trkpt>
      <trkpt lat="44.34094" lon="6.8402">
        <ele>2402.4</ele>
        <time>2022-07-19T12:31:36Z</time>
      </trkpt>
      <trkpt lat="44.34093" lon="6.84017">
        <ele>2402.6</ele>
        <time>2022-07-19T12:31:37Z</time>
      </trkpt>
      <trkpt lat="44.34093" lon="6.84015">
        <ele>2402.6</ele>
        <time>2022-07-19T12:31:38Z</time>
      </trkpt>
      <trkpt lat="44.34092" lon="6.84012">
        <ele>2403</ele>
        <time>2022-07-19T12:31:39Z</time>
      </trkpt>
      <trkpt lat="44.34091" lon="6.8401">
        <ele>2403</ele>
        <time>2022-07-19T12:31:40Z</time>
      </trkpt>
      <trkpt lat="44.3409" lon="6.84008">
        <ele>2403.2</ele>
        <time>2022-07-19T12:31:41Z</time>
      </trkpt>
      <trkpt lat="44.3409" lon="6.84005">
        <ele>2403.2</ele>
        <time>2022-07-19T12:31:42Z</time>
      </trkpt>
      <trkpt lat="44.34089" lon="6.84003">
        <ele>2403.2</ele>
        <time>2022-07-19T12:31:43Z</time>
      </trkpt>
      <trkpt lat="44.34088" lon="6.84">
        <ele>2403.4</ele>
        <time>2022-07-19T12:31:44Z</time>
      </trkpt>
      <trkpt lat="44.34087" lon="6.83997">
        <ele>2403.4</ele>
        <time>2022-07-19T12:31:45Z</time>
      </trkpt>
      <trkpt lat="44.34086" lon="6.83995">
        <ele>2403.6</ele>
        <time>2022-07-19T12:31:46Z</time>
      </trkpt>
      <trkpt lat="44.34085" lon="6.83992">
        <ele>2403.6</ele>
        <time>2022-07-19T12:31:47Z</time>
      </trkpt>
      <trkpt lat="44.34085" lon="6.8399">
        <ele>2403.6</ele>
        <time>2022-07-19T12:31:48Z</time>
      </trkpt>
      <trkpt lat="44.34084" lon="6.83987">
        <ele>2404</ele>
        <time>2022-07-19T12:31:49Z</time>
      </trkpt>
      <trkpt lat="44.34083" lon="6.83984">
        <ele>2404</ele>
        <time>2022-07-19T12:31:50Z</time>
      </trkpt>
      <trkpt lat="44.34082" lon="6.83982">
        <ele>2404.2</ele>
        <time>2022-07-19T12:31:51Z</time>
      </trkpt>
      <trkpt lat="44.34081" lon="6.83979">
        <ele>2404.6</ele>
        <time>2022-07-19T12:31:52Z</time>
      </trkpt>
      <trkpt lat="44.3408" lon="6.83977">
        <ele>2404.8</ele>
        <time>2022-07-19T12:31:53Z</time>
      </trkpt>
      <trkpt lat="44.34079" lon="6.83974">
        <ele>2404.8</ele>
        <time>2022-07-19T12:31:54Z</time>
      </trkpt>
      <trkpt lat="44.34078" lon="6.83972">
        <ele>2404.8</ele>
        <time>2022-07-19T12:31:55Z</time>
      </trkpt>
      <trkpt lat="44.34077" lon="6.83969">
        <ele>2405</ele>
        <time>2022-07-19T12:31:56Z</time>
      </trkpt>
      <trkpt lat="44.34076" lon="6.83966">
        <ele>2405.2</ele>
        <time>2022-07-19T12:31:57Z</time>
      </trkpt>
      <trkpt lat="44.34075" lon="6.83963">
        <ele>2405.2</ele>
        <time>2022-07-19T12:31:58Z</time>
      </trkpt>
      <trkpt lat="44.34074" lon="6.8396">
        <ele>2405.2</ele>
        <time>2022-07-19T12:31:59Z</time>
      </trkpt>
      <trkpt lat="44.34073" lon="6.83958">
        <ele>2405.2</ele>
        <time>2022-07-19T12:32:00Z</time>
      </trkpt>
      <trkpt lat="44.34072" lon="6.83955">
        <ele>2405.6</ele>
        <time>2022-07-19T12:32:01Z</time>
      </trkpt>
      <trkpt lat="44.34071" lon="6.83952">
        <ele>2405.6</ele>
        <time>2022-07-19T12:32:02Z</time>
      </trkpt>
      <trkpt lat="44.3407" lon="6.8395">
        <ele>2405.8</ele>
        <time>2022-07-19T12:32:03Z</time>
      </trkpt>
      <trkpt lat="44.34069" lon="6.83947">
        <ele>2406</ele>
        <time>2022-07-19T12:32:04Z</time>
      </trkpt>
      <trkpt lat="44.34068" lon="6.83944">
        <ele>2406</ele>
        <time>2022-07-19T12:32:05Z</time>
      </trkpt>
      <trkpt lat="44.34067" lon="6.83942">
        <ele>2406.4</ele>
        <time>2022-07-19T12:32:06Z</time>
      </trkpt>
      <trkpt lat="44.34067" lon="6.83939">
        <ele>2406.4</ele>
        <time>2022-07-19T12:32:07Z</time>
      </trkpt>
      <trkpt lat="44.34066" lon="6.83936">
        <ele>2406.6</ele>
        <time>2022-07-19T12:32:08Z</time>
      </trkpt>
      <trkpt lat="44.34065" lon="6.83933">
        <ele>2406.8</ele>
        <time>2022-07-19T12:32:09Z</time>
      </trkpt>
      <trkpt lat="44.34064" lon="6.8393">
        <ele>2406.8</ele>
        <time>2022-07-19T12:32:10Z</time>
      </trkpt>
      <trkpt lat="44.34063" lon="6.83928">
        <ele>2407.2</ele>
        <time>2022-07-19T12:32:11Z</time>
      </trkpt>
      <trkpt lat="44.34062" lon="6.83925">
        <ele>2407.2</ele>
        <time>2022-07-19T12:32:12Z</time>
      </trkpt>
      <trkpt lat="44.34062" lon="6.83922">
        <ele>2407.6</ele>
        <time>2022-07-19T12:32:13Z</time>
      </trkpt>
      <trkpt lat="44.34061" lon="6.83919">
        <ele>2407.8</ele>
        <time>2022-07-19T12:32:14Z</time>
      </trkpt>
      <trkpt lat="44.34061" lon="6.83915">
        <ele>2407.8</ele>
        <time>2022-07-19T12:32:15Z</time>
      </trkpt>
      <trkpt lat="44.34061" lon="6.83912">
        <ele>2408</ele>
        <time>2022-07-19T12:32:16Z</time>
      </trkpt>
      <trkpt lat="44.34061" lon="6.83908">
        <ele>2408</ele>
        <time>2022-07-19T12:32:17Z</time>
      </trkpt>
      <trkpt lat="44.34061" lon="6.83905">
        <ele>2408.4</ele>
        <time>2022-07-19T12:32:18Z</time>
      </trkpt>
      <trkpt lat="44.34061" lon="6.83902">
        <ele>2408.4</ele>
        <time>2022-07-19T12:32:19Z</time>
      </trkpt>
      <trkpt lat="44.34062" lon="6.83898">
        <ele>2408.4</ele>
        <time>2022-07-19T12:32:20Z</time>
      </trkpt>
      <trkpt lat="44.34062" lon="6.83895">
        <ele>2408.6</ele>
        <time>2022-07-19T12:32:21Z</time>
      </trkpt>
      <trkpt lat="44.34062" lon="6.83892">
        <ele>2408.6</ele>
        <time>2022-07-19T12:32:22Z</time>
      </trkpt>
      <trkpt lat="44.34063" lon="6.83889">
        <ele>2408.8</ele>
        <time>2022-07-19T12:32:23Z</time>
      </trkpt>
      <trkpt lat="44.34063" lon="6.83885">
        <ele>2408.8</ele>
        <time>2022-07-19T12:32:24Z</time>
      </trkpt>
      <trkpt lat="44.34063" lon="6.83882">
        <ele>2409.2</ele>
        <time>2022-07-19T12:32:25Z</time>
      </trkpt>
      <trkpt lat="44.34063" lon="6.83879">
        <ele>2409.2</ele>
        <time>2022-07-19T12:32:26Z</time>
      </trkpt>
      <trkpt lat="44.34063" lon="6.83876">
        <ele>2409.4</ele>
        <time>2022-07-19T12:32:27Z</time>
      </trkpt>
      <trkpt lat="44.34063" lon="6.83873">
        <ele>2409.4</ele>
        <time>2022-07-19T12:32:28Z</time>
      </trkpt>
      <trkpt lat="44.34063" lon="6.83869">
        <ele>2409.6</ele>
        <time>2022-07-19T12:32:29Z</time>
      </trkpt>
      <trkpt lat="44.34064" lon="6.83866">
        <ele>2409.6</ele>
        <time>2022-07-19T12:32:30Z</time>
      </trkpt>
      <trkpt lat="44.34064" lon="6.83863">
        <ele>2409.6</ele>
        <time>2022-07-19T12:32:31Z</time>
      </trkpt>
      <trkpt lat="44.34065" lon="6.83859">
        <ele>2409.6</ele>
        <time>2022-07-19T12:32:32Z</time>
      </trkpt>
      <trkpt lat="44.34065" lon="6.83856">
        <ele>2409.8</ele>
        <time>2022-07-19T12:32:33Z</time>
      </trkpt>
      <trkpt lat="44.34065" lon="6.83852">
        <ele>2409.8</ele>
        <time>2022-07-19T12:32:34Z</time>
      </trkpt>
      <trkpt lat="44.34065" lon="6.83849">
        <ele>2409.8</ele>
        <time>2022-07-19T12:32:35Z</time>
      </trkpt>
      <trkpt lat="44.34066" lon="6.83846">
        <ele>2410</ele>
        <time>2022-07-19T12:32:36Z</time>
      </trkpt>
      <trkpt lat="44.34066" lon="6.83843">
        <ele>2410</ele>
        <time>2022-07-19T12:32:37Z</time>
      </trkpt>
      <trkpt lat="44.34066" lon="6.83839">
        <ele>2410</ele>
        <time>2022-07-19T12:32:38Z</time>
      </trkpt>
      <trkpt lat="44.34066" lon="6.83836">
        <ele>2410.4</ele>
        <time>2022-07-19T12:32:39Z</time>
      </trkpt>
      <trkpt lat="44.34067" lon="6.83833">
        <ele>2410.4</ele>
        <time>2022-07-19T12:32:40Z</time>
      </trkpt>
      <trkpt lat="44.34068" lon="6.83831">
        <ele>2410.6</ele>
        <time>2022-07-19T12:32:41Z</time>
      </trkpt>
      <trkpt lat="44.34069" lon="6.83828">
        <ele>2410.6</ele>
        <time>2022-07-19T12:32:42Z</time>
      </trkpt>
      <trkpt lat="44.3407" lon="6.83826">
        <ele>2410.8</ele>
        <time>2022-07-19T12:32:43Z</time>
      </trkpt>
      <trkpt lat="44.34072" lon="6.83824">
        <ele>2410.8</ele>
        <time>2022-07-19T12:32:44Z</time>
      </trkpt>
      <trkpt lat="44.34073" lon="6.83822">
        <ele>2411</ele>
        <time>2022-07-19T12:32:45Z</time>
      </trkpt>
      <trkpt lat="44.34075" lon="6.8382">
        <ele>2411</ele>
        <time>2022-07-19T12:32:46Z</time>
      </trkpt>
      <trkpt lat="44.34077" lon="6.83819">
        <ele>2411.4</ele>
        <time>2022-07-19T12:32:47Z</time>
      </trkpt>
      <trkpt lat="44.34078" lon="6.83817">
        <ele>2411.4</ele>
        <time>2022-07-19T12:32:48Z</time>
      </trkpt>
      <trkpt lat="44.3408" lon="6.83815">
        <ele>2411.6</ele>
        <time>2022-07-19T12:32:49Z</time>
      </trkpt>
      <trkpt lat="44.34082" lon="6.83814">
        <ele>2411.6</ele>
        <time>2022-07-19T12:32:50Z</time>
      </trkpt>
      <trkpt lat="44.34083" lon="6.83812">
        <ele>2411.8</ele>
        <time>2022-07-19T12:32:51Z</time>
      </trkpt>
      <trkpt lat="44.34085" lon="6.8381">
        <ele>2411.8</ele>
        <time>2022-07-19T12:32:52Z</time>
      </trkpt>
      <trkpt lat="44.34086" lon="6.83808">
        <ele>2412.2</ele>
        <time>2022-07-19T12:32:53Z</time>
      </trkpt>
      <trkpt lat="44.34087" lon="6.83806">
        <ele>2412.2</ele>
        <time>2022-07-19T12:32:54Z</time>
      </trkpt>
      <trkpt lat="44.34088" lon="6.83803">
        <ele>2412.4</ele>
        <time>2022-07-19T12:32:55Z</time>
      </trkpt>
      <trkpt lat="44.34089" lon="6.838">
        <ele>2412.6</ele>
        <time>2022-07-19T12:32:56Z</time>
      </trkpt>
      <trkpt lat="44.3409" lon="6.83798">
        <ele>2412.6</ele>
        <time>2022-07-19T12:32:57Z</time>
      </trkpt>
      <trkpt lat="44.3409" lon="6.83795">
        <ele>2412.8</ele>
        <time>2022-07-19T12:32:58Z</time>
      </trkpt>
      <trkpt lat="44.3409" lon="6.83792">
        <ele>2412.8</ele>
        <time>2022-07-19T12:32:59Z</time>
      </trkpt>
      <trkpt lat="44.3409" lon="6.83789">
        <ele>2412.8</ele>
        <time>2022-07-19T12:33:00Z</time>
      </trkpt>
      <trkpt lat="44.34089" lon="6.83786">
        <ele>2413.2</ele>
        <time>2022-07-19T12:33:01Z</time>
      </trkpt>
      <trkpt lat="44.34089" lon="6.83784">
        <ele>2413.4</ele>
        <time>2022-07-19T12:33:03Z</time>
      </trkpt>
      <trkpt lat="44.34088" lon="6.83781">
        <ele>2413.4</ele>
        <time>2022-07-19T12:33:04Z</time>
      </trkpt>
      <trkpt lat="44.34088" lon="6.83778">
        <ele>2413.8</ele>
        <time>2022-07-19T12:33:05Z</time>
      </trkpt>
      <trkpt lat="44.34088" lon="6.83775">
        <ele>2413.8</ele>
        <time>2022-07-19T12:33:06Z</time>
      </trkpt>
      <trkpt lat="44.34087" lon="6.83772">
        <ele>2414</ele>
        <time>2022-07-19T12:33:07Z</time>
      </trkpt>
      <trkpt lat="44.34087" lon="6.83769">
        <ele>2414</ele>
        <time>2022-07-19T12:33:08Z</time>
      </trkpt>
      <trkpt lat="44.34086" lon="6.83766">
        <ele>2414</ele>
        <time>2022-07-19T12:33:09Z</time>
      </trkpt>
      <trkpt lat="44.34085" lon="6.83763">
        <ele>2414.4</ele>
        <time>2022-07-19T12:33:10Z</time>
      </trkpt>
      <trkpt lat="44.34084" lon="6.83761">
        <ele>2414.4</ele>
        <time>2022-07-19T12:33:11Z</time>
      </trkpt>
      <trkpt lat="44.34082" lon="6.83758">
        <ele>2414.6</ele>
        <time>2022-07-19T12:33:12Z</time>
      </trkpt>
      <trkpt lat="44.34081" lon="6.83755">
        <ele>2414.8</ele>
        <time>2022-07-19T12:33:13Z</time>
      </trkpt>
      <trkpt lat="44.34079" lon="6.83752">
        <ele>2414.8</ele>
        <time>2022-07-19T12:33:14Z</time>
      </trkpt>
      <trkpt lat="44.34078" lon="6.8375">
        <ele>2414.8</ele>
        <time>2022-07-19T12:33:15Z</time>
      </trkpt>
      <trkpt lat="44.34076" lon="6.83747">
        <ele>2414.8</ele>
        <time>2022-07-19T12:33:16Z</time>
      </trkpt>
      <trkpt lat="44.34074" lon="6.83745">
        <ele>2415</ele>
        <time>2022-07-19T12:33:17Z</time>
      </trkpt>
      <trkpt lat="44.34072" lon="6.83742">
        <ele>2415</ele>
        <time>2022-07-19T12:33:18Z</time>
      </trkpt>
      <trkpt lat="44.3407" lon="6.83739">
        <ele>2415</ele>
        <time>2022-07-19T12:33:19Z</time>
      </trkpt>
      <trkpt lat="44.34068" lon="6.83736">
        <ele>2415.2</ele>
        <time>2022-07-19T12:33:20Z</time>
      </trkpt>
      <trkpt lat="44.34066" lon="6.83733">
        <ele>2415.2</ele>
        <time>2022-07-19T12:33:21Z</time>
      </trkpt>
      <trkpt lat="44.34064" lon="6.8373">
        <ele>2415.2</ele>
        <time>2022-07-19T12:33:22Z</time>
      </trkpt>
      <trkpt lat="44.34062" lon="6.83727">
        <ele>2415.2</ele>
        <time>2022-07-19T12:33:23Z</time>
      </trkpt>
      <trkpt lat="44.3406" lon="6.83724">
        <ele>2415.6</ele>
        <time>2022-07-19T12:33:24Z</time>
      </trkpt>
      <trkpt lat="44.34058" lon="6.83721">
        <ele>2415.6</ele>
        <time>2022-07-19T12:33:25Z</time>
      </trkpt>
      <trkpt lat="44.34057" lon="6.83718">
        <ele>2415.8</ele>
        <time>2022-07-19T12:33:26Z</time>
      </trkpt>
      <trkpt lat="44.34055" lon="6.83714">
        <ele>2415.8</ele>
        <time>2022-07-19T12:33:27Z</time>
      </trkpt>
      <trkpt lat="44.34053" lon="6.83711">
        <ele>2415.8</ele>
        <time>2022-07-19T12:33:28Z</time>
      </trkpt>
      <trkpt lat="44.34052" lon="6.83708">
        <ele>2416.2</ele>
        <time>2022-07-19T12:33:29Z</time>
      </trkpt>
      <trkpt lat="44.34051" lon="6.83705">
        <ele>2416.2</ele>
        <time>2022-07-19T12:33:30Z</time>
      </trkpt>
      <trkpt lat="44.34049" lon="6.83702">
        <ele>2416.2</ele>
        <time>2022-07-19T12:33:31Z</time>
      </trkpt>
      <trkpt lat="44.34048" lon="6.83699">
        <ele>2416.2</ele>
        <time>2022-07-19T12:33:32Z</time>
      </trkpt>
      <trkpt lat="44.34047" lon="6.83695">
        <ele>2416.4</ele>
        <time>2022-07-19T12:33:33Z</time>
      </trkpt>
      <trkpt lat="44.34046" lon="6.83692">
        <ele>2416.6</ele>
        <time>2022-07-19T12:33:34Z</time>
      </trkpt>
      <trkpt lat="44.34045" lon="6.83689">
        <ele>2416.6</ele>
        <time>2022-07-19T12:33:35Z</time>
      </trkpt>
      <trkpt lat="44.34044" lon="6.83685">
        <ele>2417</ele>
        <time>2022-07-19T12:33:36Z</time>
      </trkpt>
      <trkpt lat="44.34043" lon="6.83682">
        <ele>2417</ele>
        <time>2022-07-19T12:33:37Z</time>
      </trkpt>
      <trkpt lat="44.34042" lon="6.83678">
        <ele>2417</ele>
        <time>2022-07-19T12:33:38Z</time>
      </trkpt>
      <trkpt lat="44.34042" lon="6.83674">
        <ele>2417.2</ele>
        <time>2022-07-19T12:33:39Z</time>
      </trkpt>
      <trkpt lat="44.34042" lon="6.83671">
        <ele>2417.2</ele>
        <time>2022-07-19T12:33:40Z</time>
      </trkpt>
      <trkpt lat="44.34043" lon="6.83667">
        <ele>2417.6</ele>
        <time>2022-07-19T12:33:41Z</time>
      </trkpt>
      <trkpt lat="44.34043" lon="6.83663">
        <ele>2417.6</ele>
        <time>2022-07-19T12:33:42Z</time>
      </trkpt>
      <trkpt lat="44.34043" lon="6.8366">
        <ele>2417.8</ele>
        <time>2022-07-19T12:33:43Z</time>
      </trkpt>
      <trkpt lat="44.34044" lon="6.83656">
        <ele>2417.8</ele>
        <time>2022-07-19T12:33:44Z</time>
      </trkpt>
      <trkpt lat="44.34044" lon="6.83652">
        <ele>2418.2</ele>
        <time>2022-07-19T12:33:45Z</time>
      </trkpt>
      <trkpt lat="44.34045" lon="6.83648">
        <ele>2418.2</ele>
        <time>2022-07-19T12:33:46Z</time>
      </trkpt>
      <trkpt lat="44.34045" lon="6.83645">
        <ele>2418.4</ele>
        <time>2022-07-19T12:33:47Z</time>
      </trkpt>
      <trkpt lat="44.34045" lon="6.83641">
        <ele>2418.4</ele>
        <time>2022-07-19T12:33:48Z</time>
      </trkpt>
      <trkpt lat="44.34046" lon="6.83637">
        <ele>2418.8</ele>
        <time>2022-07-19T12:33:49Z</time>
      </trkpt>
      <trkpt lat="44.34046" lon="6.83634">
        <ele>2418.8</ele>
        <time>2022-07-19T12:33:50Z</time>
      </trkpt>
      <trkpt lat="44.34047" lon="6.8363">
        <ele>2419</ele>
        <time>2022-07-19T12:33:51Z</time>
      </trkpt>
      <trkpt lat="44.34047" lon="6.83627">
        <ele>2419.2</ele>
        <time>2022-07-19T12:33:52Z</time>
      </trkpt>
      <trkpt lat="44.34047" lon="6.83623">
        <ele>2419.2</ele>
        <time>2022-07-19T12:33:53Z</time>
      </trkpt>
      <trkpt lat="44.34047" lon="6.8362">
        <ele>2419.6</ele>
        <time>2022-07-19T12:33:54Z</time>
      </trkpt>
      <trkpt lat="44.34047" lon="6.83616">
        <ele>2419.6</ele>
        <time>2022-07-19T12:33:55Z</time>
      </trkpt>
      <trkpt lat="44.34047" lon="6.83612">
        <ele>2419.8</ele>
        <time>2022-07-19T12:33:56Z</time>
      </trkpt>
      <trkpt lat="44.34047" lon="6.83609">
        <ele>2419.8</ele>
        <time>2022-07-19T12:33:57Z</time>
      </trkpt>
      <trkpt lat="44.34047" lon="6.83605">
        <ele>2420.2</ele>
        <time>2022-07-19T12:33:58Z</time>
      </trkpt>
      <trkpt lat="44.34046" lon="6.83602">
        <ele>2420.4</ele>
        <time>2022-07-19T12:33:59Z</time>
      </trkpt>
      <trkpt lat="44.34045" lon="6.83599">
        <ele>2420.6</ele>
        <time>2022-07-19T12:34:00Z</time>
      </trkpt>
      <trkpt lat="44.34044" lon="6.83595">
        <ele>2420.6</ele>
        <time>2022-07-19T12:34:01Z</time>
      </trkpt>
      <trkpt lat="44.34043" lon="6.83592">
        <ele>2421</ele>
        <time>2022-07-19T12:34:02Z</time>
      </trkpt>
      <trkpt lat="44.34042" lon="6.83589">
        <ele>2421</ele>
        <time>2022-07-19T12:34:03Z</time>
      </trkpt>
      <trkpt lat="44.3404" lon="6.83586">
        <ele>2421.2</ele>
        <time>2022-07-19T12:34:04Z</time>
      </trkpt>
      <trkpt lat="44.34039" lon="6.83582">
        <ele>2421.2</ele>
        <time>2022-07-19T12:34:05Z</time>
      </trkpt>
      <trkpt lat="44.34037" lon="6.83579">
        <ele>2421.6</ele>
        <time>2022-07-19T12:34:06Z</time>
      </trkpt>
      <trkpt lat="44.34036" lon="6.83576">
        <ele>2421.6</ele>
        <time>2022-07-19T12:34:07Z</time>
      </trkpt>
      <trkpt lat="44.34034" lon="6.83573">
        <ele>2421.6</ele>
        <time>2022-07-19T12:34:08Z</time>
      </trkpt>
      <trkpt lat="44.34032" lon="6.8357">
        <ele>2421.6</ele>
        <time>2022-07-19T12:34:09Z</time>
      </trkpt>
      <trkpt lat="44.3403" lon="6.83567">
        <ele>2421.8</ele>
        <time>2022-07-19T12:34:10Z</time>
      </trkpt>
      <trkpt lat="44.34028" lon="6.83564">
        <ele>2421.8</ele>
        <time>2022-07-19T12:34:11Z</time>
      </trkpt>
      <trkpt lat="44.34026" lon="6.83561">
        <ele>2421.8</ele>
        <time>2022-07-19T12:34:12Z</time>
      </trkpt>
      <trkpt lat="44.34023" lon="6.83558">
        <ele>2422.2</ele>
        <time>2022-07-19T12:34:13Z</time>
      </trkpt>
      <trkpt lat="44.34021" lon="6.83555">
        <ele>2422.2</ele>
        <time>2022-07-19T12:34:14Z</time>
      </trkpt>
      <trkpt lat="44.34019" lon="6.83552">
        <ele>2422.2</ele>
        <time>2022-07-19T12:34:15Z</time>
      </trkpt>
      <trkpt lat="44.34017" lon="6.83549">
        <ele>2422.4</ele>
        <time>2022-07-19T12:34:16Z</time>
      </trkpt>
      <trkpt lat="44.34015" lon="6.83546">
        <ele>2422.4</ele>
        <time>2022-07-19T12:34:17Z</time>
      </trkpt>
      <trkpt lat="44.34014" lon="6.83543">
        <ele>2422.6</ele>
        <time>2022-07-19T12:34:18Z</time>
      </trkpt>
      <trkpt lat="44.34013" lon="6.83539">
        <ele>2422.8</ele>
        <time>2022-07-19T12:34:19Z</time>
      </trkpt>
      <trkpt lat="44.34013" lon="6.83536">
        <ele>2422.8</ele>
        <time>2022-07-19T12:34:20Z</time>
      </trkpt>
      <trkpt lat="44.34012" lon="6.83532">
        <ele>2423.2</ele>
        <time>2022-07-19T12:34:21Z</time>
      </trkpt>
      <trkpt lat="44.34012" lon="6.83529">
        <ele>2423.2</ele>
        <time>2022-07-19T12:34:22Z</time>
      </trkpt>
      <trkpt lat="44.34011" lon="6.83526">
        <ele>2423.6</ele>
        <time>2022-07-19T12:34:23Z</time>
      </trkpt>
      <trkpt lat="44.34011" lon="6.83522">
        <ele>2423.6</ele>
        <time>2022-07-19T12:34:24Z</time>
      </trkpt>
      <trkpt lat="44.34011" lon="6.83519">
        <ele>2423.8</ele>
        <time>2022-07-19T12:34:25Z</time>
      </trkpt>
      <trkpt lat="44.34011" lon="6.83516">
        <ele>2423.8</ele>
        <time>2022-07-19T12:34:26Z</time>
      </trkpt>
      <trkpt lat="44.34011" lon="6.83513">
        <ele>2424</ele>
        <time>2022-07-19T12:34:27Z</time>
      </trkpt>
      <trkpt lat="44.34012" lon="6.8351">
        <ele>2424</ele>
        <time>2022-07-19T12:34:28Z</time>
      </trkpt>
      <trkpt lat="44.34012" lon="6.83507">
        <ele>2424.4</ele>
        <time>2022-07-19T12:34:29Z</time>
      </trkpt>
      <trkpt lat="44.34013" lon="6.83503">
        <ele>2424.4</ele>
        <time>2022-07-19T12:34:30Z</time>
      </trkpt>
      <trkpt lat="44.34014" lon="6.835">
        <ele>2424.8</ele>
        <time>2022-07-19T12:34:31Z</time>
      </trkpt>
      <trkpt lat="44.34014" lon="6.83496">
        <ele>2424.8</ele>
        <time>2022-07-19T12:34:32Z</time>
      </trkpt>
      <trkpt lat="44.34015" lon="6.83493">
        <ele>2425</ele>
        <time>2022-07-19T12:34:33Z</time>
      </trkpt>
      <trkpt lat="44.34015" lon="6.83489">
        <ele>2425</ele>
        <time>2022-07-19T12:34:34Z</time>
      </trkpt>
      <trkpt lat="44.34015" lon="6.83486">
        <ele>2425.4</ele>
        <time>2022-07-19T12:34:35Z</time>
      </trkpt>
      <trkpt lat="44.34015" lon="6.83482">
        <ele>2425.4</ele>
        <time>2022-07-19T12:34:36Z</time>
      </trkpt>
      <trkpt lat="44.34015" lon="6.83479">
        <ele>2425.6</ele>
        <time>2022-07-19T12:34:37Z</time>
      </trkpt>
      <trkpt lat="44.34015" lon="6.83475">
        <ele>2425.8</ele>
        <time>2022-07-19T12:34:38Z</time>
      </trkpt>
      <trkpt lat="44.34015" lon="6.83472">
        <ele>2426</ele>
        <time>2022-07-19T12:34:39Z</time>
      </trkpt>
      <trkpt lat="44.34015" lon="6.83468">
        <ele>2426.2</ele>
        <time>2022-07-19T12:34:40Z</time>
      </trkpt>
      <trkpt lat="44.34014" lon="6.83464">
        <ele>2426.2</ele>
        <time>2022-07-19T12:34:41Z</time>
      </trkpt>
      <trkpt lat="44.34014" lon="6.83461">
        <ele>2426.6</ele>
        <time>2022-07-19T12:34:42Z</time>
      </trkpt>
      <trkpt lat="44.34014" lon="6.83457">
        <ele>2426.6</ele>
        <time>2022-07-19T12:34:43Z</time>
      </trkpt>
      <trkpt lat="44.34013" lon="6.83454">
        <ele>2426.8</ele>
        <time>2022-07-19T12:34:44Z</time>
      </trkpt>
      <trkpt lat="44.34012" lon="6.8345">
        <ele>2426.8</ele>
        <time>2022-07-19T12:34:45Z</time>
      </trkpt>
      <trkpt lat="44.34012" lon="6.83447">
        <ele>2427</ele>
        <time>2022-07-19T12:34:46Z</time>
      </trkpt>
      <trkpt lat="44.34011" lon="6.83443">
        <ele>2427</ele>
        <time>2022-07-19T12:34:47Z</time>
      </trkpt>
      <trkpt lat="44.34011" lon="6.8344">
        <ele>2427.4</ele>
        <time>2022-07-19T12:34:48Z</time>
      </trkpt>
      <trkpt lat="44.34011" lon="6.83436">
        <ele>2427.4</ele>
        <time>2022-07-19T12:34:49Z</time>
      </trkpt>
      <trkpt lat="44.3401" lon="6.83432">
        <ele>2427.6</ele>
        <time>2022-07-19T12:34:50Z</time>
      </trkpt>
      <trkpt lat="44.3401" lon="6.83429">
        <ele>2427.6</ele>
        <time>2022-07-19T12:34:51Z</time>
      </trkpt>
      <trkpt lat="44.34009" lon="6.83425">
        <ele>2428</ele>
        <time>2022-07-19T12:34:52Z</time>
      </trkpt>
      <trkpt lat="44.34008" lon="6.83422">
        <ele>2428</ele>
        <time>2022-07-19T12:34:53Z</time>
      </trkpt>
      <trkpt lat="44.34008" lon="6.83418">
        <ele>2428.2</ele>
        <time>2022-07-19T12:34:54Z</time>
      </trkpt>
      <trkpt lat="44.34007" lon="6.83415">
        <ele>2428.2</ele>
        <time>2022-07-19T12:34:55Z</time>
      </trkpt>
      <trkpt lat="44.34007" lon="6.83411">
        <ele>2428.4</ele>
        <time>2022-07-19T12:34:56Z</time>
      </trkpt>
      <trkpt lat="44.34006" lon="6.83408">
        <ele>2428.4</ele>
        <time>2022-07-19T12:34:57Z</time>
      </trkpt>
      <trkpt lat="44.34006" lon="6.83404">
        <ele>2428.8</ele>
        <time>2022-07-19T12:34:58Z</time>
      </trkpt>
      <trkpt lat="44.34006" lon="6.83401">
        <ele>2428.8</ele>
        <time>2022-07-19T12:34:59Z</time>
      </trkpt>
      <trkpt lat="44.34006" lon="6.83397">
        <ele>2429.2</ele>
        <time>2022-07-19T12:35:00Z</time>
      </trkpt>
      <trkpt lat="44.34007" lon="6.83393">
        <ele>2429.2</ele>
        <time>2022-07-19T12:35:01Z</time>
      </trkpt>
      <trkpt lat="44.34007" lon="6.8339">
        <ele>2429.4</ele>
        <time>2022-07-19T12:35:02Z</time>
      </trkpt>
      <trkpt lat="44.34008" lon="6.83386">
        <ele>2429.4</ele>
        <time>2022-07-19T12:35:03Z</time>
      </trkpt>
      <trkpt lat="44.34009" lon="6.83383">
        <ele>2429.6</ele>
        <time>2022-07-19T12:35:04Z</time>
      </trkpt>
      <trkpt lat="44.3401" lon="6.83379">
        <ele>2429.6</ele>
        <time>2022-07-19T12:35:05Z</time>
      </trkpt>
      <trkpt lat="44.34011" lon="6.83376">
        <ele>2430</ele>
        <time>2022-07-19T12:35:06Z</time>
      </trkpt>
      <trkpt lat="44.34011" lon="6.83372">
        <ele>2430</ele>
        <time>2022-07-19T12:35:07Z</time>
      </trkpt>
      <trkpt lat="44.34012" lon="6.83369">
        <ele>2430.2</ele>
        <time>2022-07-19T12:35:08Z</time>
      </trkpt>
      <trkpt lat="44.34013" lon="6.83365">
        <ele>2430.2</ele>
        <time>2022-07-19T12:35:09Z</time>
      </trkpt>
      <trkpt lat="44.34014" lon="6.83362">
        <ele>2430.6</ele>
        <time>2022-07-19T12:35:10Z</time>
      </trkpt>
      <trkpt lat="44.34015" lon="6.83358">
        <ele>2430.6</ele>
        <time>2022-07-19T12:35:11Z</time>
      </trkpt>
      <trkpt lat="44.34016" lon="6.83355">
        <ele>2430.8</ele>
        <time>2022-07-19T12:35:12Z</time>
      </trkpt>
      <trkpt lat="44.34017" lon="6.83351">
        <ele>2430.8</ele>
        <time>2022-07-19T12:35:13Z</time>
      </trkpt>
      <trkpt lat="44.34017" lon="6.83348">
        <ele>2431.2</ele>
        <time>2022-07-19T12:35:14Z</time>
      </trkpt>
      <trkpt lat="44.34018" lon="6.83344">
        <ele>2431.2</ele>
        <time>2022-07-19T12:35:15Z</time>
      </trkpt>
      <trkpt lat="44.34019" lon="6.8334">
        <ele>2431.4</ele>
        <time>2022-07-19T12:35:16Z</time>
      </trkpt>
      <trkpt lat="44.3402" lon="6.83337">
        <ele>2431.4</ele>
        <time>2022-07-19T12:35:17Z</time>
      </trkpt>
      <trkpt lat="44.34021" lon="6.83333">
        <ele>2431.8</ele>
        <time>2022-07-19T12:35:18Z</time>
      </trkpt>
      <trkpt lat="44.34021" lon="6.8333">
        <ele>2431.8</ele>
        <time>2022-07-19T12:35:19Z</time>
      </trkpt>
      <trkpt lat="44.34022" lon="6.83327">
        <ele>2432</ele>
        <time>2022-07-19T12:35:20Z</time>
      </trkpt>
      <trkpt lat="44.34023" lon="6.83324">
        <ele>2432</ele>
        <time>2022-07-19T12:35:21Z</time>
      </trkpt>
      <trkpt lat="44.34023" lon="6.83321">
        <ele>2432</ele>
        <time>2022-07-19T12:35:22Z</time>
      </trkpt>
      <trkpt lat="44.34024" lon="6.83317">
        <ele>2432.2</ele>
        <time>2022-07-19T12:35:23Z</time>
      </trkpt>
      <trkpt lat="44.34024" lon="6.83314">
        <ele>2432.2</ele>
        <time>2022-07-19T12:35:24Z</time>
      </trkpt>
      <trkpt lat="44.34025" lon="6.8331">
        <ele>2432.6</ele>
        <time>2022-07-19T12:35:25Z</time>
      </trkpt>
      <trkpt lat="44.34025" lon="6.83307">
        <ele>2432.6</ele>
        <time>2022-07-19T12:35:26Z</time>
      </trkpt>
      <trkpt lat="44.34025" lon="6.83303">
        <ele>2432.8</ele>
        <time>2022-07-19T12:35:27Z</time>
      </trkpt>
      <trkpt lat="44.34026" lon="6.833">
        <ele>2432.8</ele>
        <time>2022-07-19T12:35:28Z</time>
      </trkpt>
      <trkpt lat="44.34026" lon="6.83296">
        <ele>2433.2</ele>
        <time>2022-07-19T12:35:29Z</time>
      </trkpt>
      <trkpt lat="44.34026" lon="6.83293">
        <ele>2433.6</ele>
        <time>2022-07-19T12:35:30Z</time>
      </trkpt>
      <trkpt lat="44.34026" lon="6.83289">
        <ele>2433.8</ele>
        <time>2022-07-19T12:35:31Z</time>
      </trkpt>
      <trkpt lat="44.34026" lon="6.83286">
        <ele>2433.8</ele>
        <time>2022-07-19T12:35:32Z</time>
      </trkpt>
      <trkpt lat="44.34027" lon="6.83282">
        <ele>2434</ele>
        <time>2022-07-19T12:35:33Z</time>
      </trkpt>
      <trkpt lat="44.34027" lon="6.83278">
        <ele>2434.2</ele>
        <time>2022-07-19T12:35:34Z</time>
      </trkpt>
      <trkpt lat="44.34027" lon="6.83275">
        <ele>2434.2</ele>
        <time>2022-07-19T12:35:35Z</time>
      </trkpt>
      <trkpt lat="44.34028" lon="6.83271">
        <ele>2434.2</ele>
        <time>2022-07-19T12:35:36Z</time>
      </trkpt>
      <trkpt lat="44.34029" lon="6.83267">
        <ele>2434.4</ele>
        <time>2022-07-19T12:35:37Z</time>
      </trkpt>
      <trkpt lat="44.34031" lon="6.83263">
        <ele>2434.4</ele>
        <time>2022-07-19T12:35:38Z</time>
      </trkpt>
      <trkpt lat="44.34033" lon="6.83259">
        <ele>2434.6</ele>
        <time>2022-07-19T12:35:39Z</time>
      </trkpt>
      <trkpt lat="44.34035" lon="6.83256">
        <ele>2434.6</ele>
        <time>2022-07-19T12:35:40Z</time>
      </trkpt>
      <trkpt lat="44.34037" lon="6.83253">
        <ele>2435</ele>
        <time>2022-07-19T12:35:41Z</time>
      </trkpt>
      <trkpt lat="44.34039" lon="6.83251">
        <ele>2435</ele>
        <time>2022-07-19T12:35:42Z</time>
      </trkpt>
      <trkpt lat="44.34041" lon="6.83249">
        <ele>2435</ele>
        <time>2022-07-19T12:35:43Z</time>
      </trkpt>
      <trkpt lat="44.34042" lon="6.83247">
        <ele>2435</ele>
        <time>2022-07-19T12:35:44Z</time>
      </trkpt>
      <trkpt lat="44.34044" lon="6.83245">
        <ele>2435</ele>
        <time>2022-07-19T12:35:45Z</time>
      </trkpt>
      <trkpt lat="44.34046" lon="6.83243">
        <ele>2435</ele>
        <time>2022-07-19T12:35:46Z</time>
      </trkpt>
      <trkpt lat="44.34048" lon="6.83241">
        <ele>2435</ele>
        <time>2022-07-19T12:35:47Z</time>
      </trkpt>
      <trkpt lat="44.3405" lon="6.83238">
        <ele>2435</ele>
        <time>2022-07-19T12:35:48Z</time>
      </trkpt>
      <trkpt lat="44.34051" lon="6.83236">
        <ele>2435</ele>
        <time>2022-07-19T12:35:49Z</time>
      </trkpt>
      <trkpt lat="44.34052" lon="6.83233">
        <ele>2435.2</ele>
        <time>2022-07-19T12:35:50Z</time>
      </trkpt>
      <trkpt lat="44.34053" lon="6.8323">
        <ele>2435.2</ele>
        <time>2022-07-19T12:35:51Z</time>
      </trkpt>
      <trkpt lat="44.34054" lon="6.83227">
        <ele>2435.2</ele>
        <time>2022-07-19T12:35:52Z</time>
      </trkpt>
      <trkpt lat="44.34055" lon="6.83224">
        <ele>2435.2</ele>
        <time>2022-07-19T12:35:53Z</time>
      </trkpt>
      <trkpt lat="44.34056" lon="6.83221">
        <ele>2435.6</ele>
        <time>2022-07-19T12:35:54Z</time>
      </trkpt>
      <trkpt lat="44.34057" lon="6.83217">
        <ele>2435.8</ele>
        <time>2022-07-19T12:35:55Z</time>
      </trkpt>
      <trkpt lat="44.34057" lon="6.83214">
        <ele>2435.8</ele>
        <time>2022-07-19T12:35:56Z</time>
      </trkpt>
      <trkpt lat="44.34057" lon="6.83211">
        <ele>2436.2</ele>
        <time>2022-07-19T12:35:57Z</time>
      </trkpt>
      <trkpt lat="44.34057" lon="6.83208">
        <ele>2436.4</ele>
        <time>2022-07-19T12:35:58Z</time>
      </trkpt>
      <trkpt lat="44.34057" lon="6.83206">
        <ele>2436.4</ele>
        <time>2022-07-19T12:35:59Z</time>
      </trkpt>
      <trkpt lat="44.34057" lon="6.83205">
        <ele>2436.4</ele>
        <time>2022-07-19T12:36:00Z</time>
      </trkpt>
      <trkpt lat="44.34058" lon="6.83204">
        <ele>2436.4</ele>
        <time>2022-07-19T12:36:01Z</time>
      </trkpt>
      <trkpt lat="44.34058" lon="6.83203">
        <ele>2436.4</ele>
        <time>2022-07-19T12:36:02Z</time>
      </trkpt>
      <trkpt lat="44.34058" lon="6.83203">
        <ele>2436.4</ele>
        <time>2022-07-19T12:36:08Z</time>
      </trkpt>
      <trkpt lat="44.34058" lon="6.83203">
        <ele>2437</ele>
        <time>2022-07-19T12:36:12Z</time>
      </trkpt>
      <trkpt lat="44.34058" lon="6.83203">
        <ele>2436.6</ele>
        <time>2022-07-19T12:36:17Z</time>
      </trkpt>
      <trkpt lat="44.34058" lon="6.83203">
        <ele>2436.6</ele>
        <time>2022-07-19T12:38:18Z</time>
      </trkpt>
      <trkpt lat="44.34058" lon="6.83203">
        <ele>2436.8</ele>
        <time>2022-07-19T12:38:22Z</time>
      </trkpt>
      <trkpt lat="44.34058" lon="6.83203">
        <ele>2437.4</ele>
        <time>2022-07-19T12:38:26Z</time>
      </trkpt>
      <trkpt lat="44.34058" lon="6.83203">
        <ele>2437.8</ele>
        <time>2022-07-19T12:38:31Z</time>
      </trkpt>
      <trkpt lat="44.34056" lon="6.83199">
        <ele>2437.4</ele>
        <time>2022-07-19T12:38:38Z</time>
      </trkpt>
      <trkpt lat="44.34054" lon="6.83198">
        <ele>2437.4</ele>
        <time>2022-07-19T12:38:39Z</time>
      </trkpt>
      <trkpt lat="44.34053" lon="6.83196">
        <ele>2437.4</ele>
        <time>2022-07-19T12:38:40Z</time>
      </trkpt>
      <trkpt lat="44.34051" lon="6.83194">
        <ele>2437.4</ele>
        <time>2022-07-19T12:38:41Z</time>
      </trkpt>
      <trkpt lat="44.3405" lon="6.83192">
        <ele>2437.4</ele>
        <time>2022-07-19T12:38:42Z</time>
      </trkpt>
      <trkpt lat="44.34049" lon="6.8319">
        <ele>2437.4</ele>
        <time>2022-07-19T12:38:43Z</time>
      </trkpt>
      <trkpt lat="44.34047" lon="6.83188">
        <ele>2437.4</ele>
        <time>2022-07-19T12:38:44Z</time>
      </trkpt>
      <trkpt lat="44.34046" lon="6.83186">
        <ele>2437.4</ele>
        <time>2022-07-19T12:38:45Z</time>
      </trkpt>
      <trkpt lat="44.34044" lon="6.83184">
        <ele>2437.6</ele>
        <time>2022-07-19T12:38:46Z</time>
      </trkpt>
      <trkpt lat="44.34042" lon="6.83183">
        <ele>2437.6</ele>
        <time>2022-07-19T12:38:47Z</time>
      </trkpt>
      <trkpt lat="44.3404" lon="6.83181">
        <ele>2437.6</ele>
        <time>2022-07-19T12:38:48Z</time>
      </trkpt>
      <trkpt lat="44.34038" lon="6.8318">
        <ele>2437.6</ele>
        <time>2022-07-19T12:38:49Z</time>
      </trkpt>
      <trkpt lat="44.34036" lon="6.83179">
        <ele>2438</ele>
        <time>2022-07-19T12:38:50Z</time>
      </trkpt>
      <trkpt lat="44.34034" lon="6.83178">
        <ele>2438</ele>
        <time>2022-07-19T12:38:51Z</time>
      </trkpt>
      <trkpt lat="44.34033" lon="6.83176">
        <ele>2438.2</ele>
        <time>2022-07-19T12:38:52Z</time>
      </trkpt>
      <trkpt lat="44.34031" lon="6.83175">
        <ele>2438.2</ele>
        <time>2022-07-19T12:38:53Z</time>
      </trkpt>
      <trkpt lat="44.3403" lon="6.83173">
        <ele>2438.2</ele>
        <time>2022-07-19T12:38:54Z</time>
      </trkpt>
      <trkpt lat="44.34028" lon="6.83172">
        <ele>2438.4</ele>
        <time>2022-07-19T12:38:55Z</time>
      </trkpt>
      <trkpt lat="44.34026" lon="6.83171">
        <ele>2438.4</ele>
        <time>2022-07-19T12:38:56Z</time>
      </trkpt>
      <trkpt lat="44.34025" lon="6.8317">
        <ele>2438.8</ele>
        <time>2022-07-19T12:38:57Z</time>
      </trkpt>
      <trkpt lat="44.34023" lon="6.83168">
        <ele>2438.8</ele>
        <time>2022-07-19T12:38:58Z</time>
      </trkpt>
      <trkpt lat="44.34021" lon="6.83167">
        <ele>2439.2</ele>
        <time>2022-07-19T12:38:59Z</time>
      </trkpt>
      <trkpt lat="44.3402" lon="6.83166">
        <ele>2439.2</ele>
        <time>2022-07-19T12:39:00Z</time>
      </trkpt>
      <trkpt lat="44.34018" lon="6.83164">
        <ele>2439.6</ele>
        <time>2022-07-19T12:39:01Z</time>
      </trkpt>
      <trkpt lat="44.34016" lon="6.83163">
        <ele>2439.6</ele>
        <time>2022-07-19T12:39:02Z</time>
      </trkpt>
      <trkpt lat="44.34015" lon="6.83162">
        <ele>2439.8</ele>
        <time>2022-07-19T12:39:03Z</time>
      </trkpt>
      <trkpt lat="44.34013" lon="6.83161">
        <ele>2439.8</ele>
        <time>2022-07-19T12:39:04Z</time>
      </trkpt>
      <trkpt lat="44.34011" lon="6.8316">
        <ele>2440.2</ele>
        <time>2022-07-19T12:39:05Z</time>
      </trkpt>
      <trkpt lat="44.34009" lon="6.83159">
        <ele>2440.4</ele>
        <time>2022-07-19T12:39:06Z</time>
      </trkpt>
      <trkpt lat="44.34008" lon="6.83158">
        <ele>2440.4</ele>
        <time>2022-07-19T12:39:07Z</time>
      </trkpt>
      <trkpt lat="44.34006" lon="6.83157">
        <ele>2440.6</ele>
        <time>2022-07-19T12:39:08Z</time>
      </trkpt>
      <trkpt lat="44.34004" lon="6.83155">
        <ele>2440.6</ele>
        <time>2022-07-19T12:39:09Z</time>
      </trkpt>
      <trkpt lat="44.34003" lon="6.83154">
        <ele>2440.6</ele>
        <time>2022-07-19T12:39:10Z</time>
      </trkpt>
      <trkpt lat="44.34001" lon="6.83152">
        <ele>2441</ele>
        <time>2022-07-19T12:39:11Z</time>
      </trkpt>
      <trkpt lat="44.33999" lon="6.83151">
        <ele>2441</ele>
        <time>2022-07-19T12:39:12Z</time>
      </trkpt>
      <trkpt lat="44.33997" lon="6.8315">
        <ele>2441.2</ele>
        <time>2022-07-19T12:39:13Z</time>
      </trkpt>
      <trkpt lat="44.33995" lon="6.83149">
        <ele>2441.2</ele>
        <time>2022-07-19T12:39:14Z</time>
      </trkpt>
      <trkpt lat="44.33993" lon="6.83148">
        <ele>2441.2</ele>
        <time>2022-07-19T12:39:15Z</time>
      </trkpt>
      <trkpt lat="44.33991" lon="6.83147">
        <ele>2441.6</ele>
        <time>2022-07-19T12:39:16Z</time>
      </trkpt>
      <trkpt lat="44.33989" lon="6.83146">
        <ele>2441.6</ele>
        <time>2022-07-19T12:39:17Z</time>
      </trkpt>
      <trkpt lat="44.33987" lon="6.83145">
        <ele>2441.8</ele>
        <time>2022-07-19T12:39:18Z</time>
      </trkpt>
      <trkpt lat="44.33985" lon="6.83144">
        <ele>2441.8</ele>
        <time>2022-07-19T12:39:19Z</time>
      </trkpt>
      <trkpt lat="44.33983" lon="6.83143">
        <ele>2442</ele>
        <time>2022-07-19T12:39:20Z</time>
      </trkpt>
      <trkpt lat="44.33982" lon="6.83141">
        <ele>2442</ele>
        <time>2022-07-19T12:39:21Z</time>
      </trkpt>
      <trkpt lat="44.3398" lon="6.8314">
        <ele>2442.4</ele>
        <time>2022-07-19T12:39:22Z</time>
      </trkpt>
      <trkpt lat="44.33978" lon="6.83139">
        <ele>2442.4</ele>
        <time>2022-07-19T12:39:23Z</time>
      </trkpt>
      <trkpt lat="44.33976" lon="6.83137">
        <ele>2442.8</ele>
        <time>2022-07-19T12:39:24Z</time>
      </trkpt>
      <trkpt lat="44.33974" lon="6.83136">
        <ele>2443</ele>
        <time>2022-07-19T12:39:25Z</time>
      </trkpt>
      <trkpt lat="44.33972" lon="6.83135">
        <ele>2443</ele>
        <time>2022-07-19T12:39:26Z</time>
      </trkpt>
      <trkpt lat="44.3397" lon="6.83134">
        <ele>2443</ele>
        <time>2022-07-19T12:39:27Z</time>
      </trkpt>
      <trkpt lat="44.33968" lon="6.83133">
        <ele>2443</ele>
        <time>2022-07-19T12:39:28Z</time>
      </trkpt>
      <trkpt lat="44.33966" lon="6.83131">
        <ele>2443</ele>
        <time>2022-07-19T12:39:29Z</time>
      </trkpt>
      <trkpt lat="44.33964" lon="6.8313">
        <ele>2443</ele>
        <time>2022-07-19T12:39:30Z</time>
      </trkpt>
      <trkpt lat="44.33962" lon="6.83129">
        <ele>2443.2</ele>
        <time>2022-07-19T12:39:31Z</time>
      </trkpt>
      <trkpt lat="44.3396" lon="6.83128">
        <ele>2443.2</ele>
        <time>2022-07-19T12:39:32Z</time>
      </trkpt>
      <trkpt lat="44.33958" lon="6.83127">
        <ele>2443.2</ele>
        <time>2022-07-19T12:39:33Z</time>
      </trkpt>
      <trkpt lat="44.33956" lon="6.83126">
        <ele>2443.2</ele>
        <time>2022-07-19T12:39:34Z</time>
      </trkpt>
      <trkpt lat="44.33954" lon="6.83124">
        <ele>2443.2</ele>
        <time>2022-07-19T12:39:35Z</time>
      </trkpt>
      <trkpt lat="44.33952" lon="6.83123">
        <ele>2443.4</ele>
        <time>2022-07-19T12:39:36Z</time>
      </trkpt>
      <trkpt lat="44.3395" lon="6.83122">
        <ele>2443.4</ele>
        <time>2022-07-19T12:39:37Z</time>
      </trkpt>
      <trkpt lat="44.33948" lon="6.83121">
        <ele>2443.6</ele>
        <time>2022-07-19T12:39:38Z</time>
      </trkpt>
      <trkpt lat="44.33946" lon="6.8312">
        <ele>2443.6</ele>
        <time>2022-07-19T12:39:39Z</time>
      </trkpt>
      <trkpt lat="44.33944" lon="6.83119">
        <ele>2444</ele>
        <time>2022-07-19T12:39:40Z</time>
      </trkpt>
      <trkpt lat="44.33942" lon="6.83118">
        <ele>2444</ele>
        <time>2022-07-19T12:39:41Z</time>
      </trkpt>
      <trkpt lat="44.33939" lon="6.83117">
        <ele>2444.2</ele>
        <time>2022-07-19T12:39:42Z</time>
      </trkpt>
      <trkpt lat="44.33937" lon="6.83116">
        <ele>2444.2</ele>
        <time>2022-07-19T12:39:43Z</time>
      </trkpt>
      <trkpt lat="44.33935" lon="6.83115">
        <ele>2444.6</ele>
        <time>2022-07-19T12:39:44Z</time>
      </trkpt>
      <trkpt lat="44.33933" lon="6.83114">
        <ele>2444.6</ele>
        <time>2022-07-19T12:39:45Z</time>
      </trkpt>
      <trkpt lat="44.33931" lon="6.83113">
        <ele>2444.8</ele>
        <time>2022-07-19T12:39:46Z</time>
      </trkpt>
      <trkpt lat="44.33929" lon="6.83112">
        <ele>2444.8</ele>
        <time>2022-07-19T12:39:47Z</time>
      </trkpt>
      <trkpt lat="44.33927" lon="6.83112">
        <ele>2445.2</ele>
        <time>2022-07-19T12:39:48Z</time>
      </trkpt>
      <trkpt lat="44.33925" lon="6.83111">
        <ele>2445.2</ele>
        <time>2022-07-19T12:39:49Z</time>
      </trkpt>
      <trkpt lat="44.33923" lon="6.83111">
        <ele>2445.2</ele>
        <time>2022-07-19T12:39:50Z</time>
      </trkpt>
      <trkpt lat="44.33921" lon="6.8311">
        <ele>2445.2</ele>
        <time>2022-07-19T12:39:51Z</time>
      </trkpt>
      <trkpt lat="44.33919" lon="6.8311">
        <ele>2445.2</ele>
        <time>2022-07-19T12:39:52Z</time>
      </trkpt>
      <trkpt lat="44.33917" lon="6.83109">
        <ele>2445.2</ele>
        <time>2022-07-19T12:39:53Z</time>
      </trkpt>
      <trkpt lat="44.33914" lon="6.83109">
        <ele>2445.4</ele>
        <time>2022-07-19T12:39:54Z</time>
      </trkpt>
      <trkpt lat="44.33913" lon="6.83109">
        <ele>2445.6</ele>
        <time>2022-07-19T12:39:55Z</time>
      </trkpt>
      <trkpt lat="44.33911" lon="6.83108">
        <ele>2445.6</ele>
        <time>2022-07-19T12:39:56Z</time>
      </trkpt>
      <trkpt lat="44.33909" lon="6.83108">
        <ele>2446</ele>
        <time>2022-07-19T12:39:57Z</time>
      </trkpt>
      <trkpt lat="44.33907" lon="6.83107">
        <ele>2446</ele>
        <time>2022-07-19T12:39:58Z</time>
      </trkpt>
      <trkpt lat="44.33905" lon="6.83107">
        <ele>2446.2</ele>
        <time>2022-07-19T12:39:59Z</time>
      </trkpt>
      <trkpt lat="44.33903" lon="6.83107">
        <ele>2446.2</ele>
        <time>2022-07-19T12:40:00Z</time>
      </trkpt>
      <trkpt lat="44.33901" lon="6.83106">
        <ele>2446.4</ele>
        <time>2022-07-19T12:40:01Z</time>
      </trkpt>
      <trkpt lat="44.33899" lon="6.83106">
        <ele>2446.4</ele>
        <time>2022-07-19T12:40:02Z</time>
      </trkpt>
      <trkpt lat="44.33897" lon="6.83106">
        <ele>2446.8</ele>
        <time>2022-07-19T12:40:03Z</time>
      </trkpt>
      <trkpt lat="44.33895" lon="6.83106">
        <ele>2446.8</ele>
        <time>2022-07-19T12:40:04Z</time>
      </trkpt>
      <trkpt lat="44.33893" lon="6.83105">
        <ele>2446.8</ele>
        <time>2022-07-19T12:40:05Z</time>
      </trkpt>
      <trkpt lat="44.33891" lon="6.83105">
        <ele>2447</ele>
        <time>2022-07-19T12:40:06Z</time>
      </trkpt>
      <trkpt lat="44.33889" lon="6.83104">
        <ele>2447</ele>
        <time>2022-07-19T12:40:07Z</time>
      </trkpt>
      <trkpt lat="44.33887" lon="6.83104">
        <ele>2447</ele>
        <time>2022-07-19T12:40:08Z</time>
      </trkpt>
      <trkpt lat="44.33885" lon="6.83104">
        <ele>2447.2</ele>
        <time>2022-07-19T12:40:09Z</time>
      </trkpt>
      <trkpt lat="44.33883" lon="6.83104">
        <ele>2447.2</ele>
        <time>2022-07-19T12:40:10Z</time>
      </trkpt>
      <trkpt lat="44.33881" lon="6.83104">
        <ele>2447.4</ele>
        <time>2022-07-19T12:40:11Z</time>
      </trkpt>
      <trkpt lat="44.33879" lon="6.83103">
        <ele>2447.4</ele>
        <time>2022-07-19T12:40:12Z</time>
      </trkpt>
      <trkpt lat="44.33877" lon="6.83103">
        <ele>2447.4</ele>
        <time>2022-07-19T12:40:13Z</time>
      </trkpt>
      <trkpt lat="44.33875" lon="6.83103">
        <ele>2447.8</ele>
        <time>2022-07-19T12:40:14Z</time>
      </trkpt>
      <trkpt lat="44.33873" lon="6.83102">
        <ele>2447.8</ele>
        <time>2022-07-19T12:40:15Z</time>
      </trkpt>
      <trkpt lat="44.33871" lon="6.83101">
        <ele>2448</ele>
        <time>2022-07-19T12:40:16Z</time>
      </trkpt>
      <trkpt lat="44.33869" lon="6.831">
        <ele>2448</ele>
        <time>2022-07-19T12:40:17Z</time>
      </trkpt>
      <trkpt lat="44.33867" lon="6.831">
        <ele>2448</ele>
        <time>2022-07-19T12:40:18Z</time>
      </trkpt>
      <trkpt lat="44.33865" lon="6.83099">
        <ele>2448.2</ele>
        <time>2022-07-19T12:40:19Z</time>
      </trkpt>
      <trkpt lat="44.33863" lon="6.83098">
        <ele>2448.2</ele>
        <time>2022-07-19T12:40:20Z</time>
      </trkpt>
      <trkpt lat="44.33861" lon="6.83097">
        <ele>2448.6</ele>
        <time>2022-07-19T12:40:21Z</time>
      </trkpt>
      <trkpt lat="44.33859" lon="6.83096">
        <ele>2448.6</ele>
        <time>2022-07-19T12:40:22Z</time>
      </trkpt>
      <trkpt lat="44.33857" lon="6.83095">
        <ele>2448.6</ele>
        <time>2022-07-19T12:40:23Z</time>
      </trkpt>
      <trkpt lat="44.33855" lon="6.83093">
        <ele>2448.8</ele>
        <time>2022-07-19T12:40:24Z</time>
      </trkpt>
      <trkpt lat="44.33853" lon="6.83092">
        <ele>2448.8</ele>
        <time>2022-07-19T12:40:25Z</time>
      </trkpt>
      <trkpt lat="44.33851" lon="6.8309">
        <ele>2449.2</ele>
        <time>2022-07-19T12:40:26Z</time>
      </trkpt>
      <trkpt lat="44.33849" lon="6.83089">
        <ele>2449.2</ele>
        <time>2022-07-19T12:40:27Z</time>
      </trkpt>
      <trkpt lat="44.33847" lon="6.83087">
        <ele>2449.2</ele>
        <time>2022-07-19T12:40:28Z</time>
      </trkpt>
      <trkpt lat="44.33845" lon="6.83086">
        <ele>2449.4</ele>
        <time>2022-07-19T12:40:29Z</time>
      </trkpt>
      <trkpt lat="44.33844" lon="6.83084">
        <ele>2449.4</ele>
        <time>2022-07-19T12:40:30Z</time>
      </trkpt>
      <trkpt lat="44.33842" lon="6.83083">
        <ele>2449.6</ele>
        <time>2022-07-19T12:40:31Z</time>
      </trkpt>
      <trkpt lat="44.3384" lon="6.83081">
        <ele>2449.6</ele>
        <time>2022-07-19T12:40:32Z</time>
      </trkpt>
      <trkpt lat="44.33838" lon="6.8308">
        <ele>2450</ele>
        <time>2022-07-19T12:40:33Z</time>
      </trkpt>
      <trkpt lat="44.33836" lon="6.83078">
        <ele>2450</ele>
        <time>2022-07-19T12:40:34Z</time>
      </trkpt>
      <trkpt lat="44.33835" lon="6.83076">
        <ele>2450</ele>
        <time>2022-07-19T12:40:35Z</time>
      </trkpt>
      <trkpt lat="44.33833" lon="6.83075">
        <ele>2450.2</ele>
        <time>2022-07-19T12:40:36Z</time>
      </trkpt>
      <trkpt lat="44.33831" lon="6.83073">
        <ele>2450.2</ele>
        <time>2022-07-19T12:40:37Z</time>
      </trkpt>
      <trkpt lat="44.33829" lon="6.83071">
        <ele>2450.6</ele>
        <time>2022-07-19T12:40:38Z</time>
      </trkpt>
      <trkpt lat="44.33828" lon="6.8307">
        <ele>2450.6</ele>
        <time>2022-07-19T12:40:39Z</time>
      </trkpt>
      <trkpt lat="44.33826" lon="6.83069">
        <ele>2450.8</ele>
        <time>2022-07-19T12:40:40Z</time>
      </trkpt>
      <trkpt lat="44.33824" lon="6.83067">
        <ele>2450.8</ele>
        <time>2022-07-19T12:40:41Z</time>
      </trkpt>
      <trkpt lat="44.33822" lon="6.83066">
        <ele>2451</ele>
        <time>2022-07-19T12:40:42Z</time>
      </trkpt>
      <trkpt lat="44.33821" lon="6.83064">
        <ele>2451</ele>
        <time>2022-07-19T12:40:43Z</time>
      </trkpt>
      <trkpt lat="44.33819" lon="6.83062">
        <ele>2451.2</ele>
        <time>2022-07-19T12:40:44Z</time>
      </trkpt>
      <trkpt lat="44.33817" lon="6.83061">
        <ele>2451.2</ele>
        <time>2022-07-19T12:40:45Z</time>
      </trkpt>
      <trkpt lat="44.33816" lon="6.83059">
        <ele>2451.2</ele>
        <time>2022-07-19T12:40:46Z</time>
      </trkpt>
      <trkpt lat="44.33814" lon="6.83058">
        <ele>2451.6</ele>
        <time>2022-07-19T12:40:47Z</time>
      </trkpt>
      <trkpt lat="44.33812" lon="6.83056">
        <ele>2451.6</ele>
        <time>2022-07-19T12:40:48Z</time>
      </trkpt>
      <trkpt lat="44.33811" lon="6.83054">
        <ele>2451.8</ele>
        <time>2022-07-19T12:40:49Z</time>
      </trkpt>
      <trkpt lat="44.33809" lon="6.83052">
        <ele>2451.8</ele>
        <time>2022-07-19T12:40:50Z</time>
      </trkpt>
      <trkpt lat="44.33807" lon="6.8305">
        <ele>2452</ele>
        <time>2022-07-19T12:40:51Z</time>
      </trkpt>
      <trkpt lat="44.33806" lon="6.83049">
        <ele>2452</ele>
        <time>2022-07-19T12:40:52Z</time>
      </trkpt>
      <trkpt lat="44.33804" lon="6.83047">
        <ele>2452.2</ele>
        <time>2022-07-19T12:40:53Z</time>
      </trkpt>
      <trkpt lat="44.33803" lon="6.83045">
        <ele>2452.2</ele>
        <time>2022-07-19T12:40:54Z</time>
      </trkpt>
      <trkpt lat="44.33802" lon="6.83043">
        <ele>2452.4</ele>
        <time>2022-07-19T12:40:55Z</time>
      </trkpt>
      <trkpt lat="44.338" lon="6.83041">
        <ele>2452.4</ele>
        <time>2022-07-19T12:40:56Z</time>
      </trkpt>
      <trkpt lat="44.33799" lon="6.83039">
        <ele>2452.8</ele>
        <time>2022-07-19T12:40:57Z</time>
      </trkpt>
      <trkpt lat="44.33797" lon="6.83037">
        <ele>2452.8</ele>
        <time>2022-07-19T12:40:58Z</time>
      </trkpt>
      <trkpt lat="44.33796" lon="6.83035">
        <ele>2453</ele>
        <time>2022-07-19T12:40:59Z</time>
      </trkpt>
      <trkpt lat="44.33795" lon="6.83034">
        <ele>2453</ele>
        <time>2022-07-19T12:41:00Z</time>
      </trkpt>
      <trkpt lat="44.33793" lon="6.83032">
        <ele>2453.2</ele>
        <time>2022-07-19T12:41:01Z</time>
      </trkpt>
      <trkpt lat="44.33792" lon="6.8303">
        <ele>2453.2</ele>
        <time>2022-07-19T12:41:02Z</time>
      </trkpt>
      <trkpt lat="44.3379" lon="6.83029">
        <ele>2453.6</ele>
        <time>2022-07-19T12:41:03Z</time>
      </trkpt>
      <trkpt lat="44.33789" lon="6.83027">
        <ele>2453.6</ele>
        <time>2022-07-19T12:41:04Z</time>
      </trkpt>
      <trkpt lat="44.33787" lon="6.83025">
        <ele>2453.8</ele>
        <time>2022-07-19T12:41:05Z</time>
      </trkpt>
      <trkpt lat="44.33786" lon="6.83024">
        <ele>2453.8</ele>
        <time>2022-07-19T12:41:06Z</time>
      </trkpt>
      <trkpt lat="44.33784" lon="6.83022">
        <ele>2454.2</ele>
        <time>2022-07-19T12:41:07Z</time>
      </trkpt>
      <trkpt lat="44.33783" lon="6.83021">
        <ele>2454.2</ele>
        <time>2022-07-19T12:41:08Z</time>
      </trkpt>
      <trkpt lat="44.33782" lon="6.83019">
        <ele>2454.4</ele>
        <time>2022-07-19T12:41:09Z</time>
      </trkpt>
      <trkpt lat="44.3378" lon="6.83018">
        <ele>2454.4</ele>
        <time>2022-07-19T12:41:10Z</time>
      </trkpt>
      <trkpt lat="44.33779" lon="6.83016">
        <ele>2454.8</ele>
        <time>2022-07-19T12:41:11Z</time>
      </trkpt>
      <trkpt lat="44.33778" lon="6.83014">
        <ele>2454.8</ele>
        <time>2022-07-19T12:41:12Z</time>
      </trkpt>
      <trkpt lat="44.33777" lon="6.83011">
        <ele>2455.2</ele>
        <time>2022-07-19T12:41:13Z</time>
      </trkpt>
      <trkpt lat="44.33776" lon="6.8301">
        <ele>2455.2</ele>
        <time>2022-07-19T12:41:14Z</time>
      </trkpt>
      <trkpt lat="44.33774" lon="6.83008">
        <ele>2455.4</ele>
        <time>2022-07-19T12:41:15Z</time>
      </trkpt>
      <trkpt lat="44.33773" lon="6.83006">
        <ele>2455.4</ele>
        <time>2022-07-19T12:41:16Z</time>
      </trkpt>
      <trkpt lat="44.33772" lon="6.83004">
        <ele>2455.8</ele>
        <time>2022-07-19T12:41:17Z</time>
      </trkpt>
      <trkpt lat="44.3377" lon="6.83003">
        <ele>2455.8</ele>
        <time>2022-07-19T12:41:18Z</time>
      </trkpt>
      <trkpt lat="44.33769" lon="6.83001">
        <ele>2455.8</ele>
        <time>2022-07-19T12:41:19Z</time>
      </trkpt>
      <trkpt lat="44.33768" lon="6.83">
        <ele>2456</ele>
        <time>2022-07-19T12:41:20Z</time>
      </trkpt>
      <trkpt lat="44.33766" lon="6.82999">
        <ele>2456</ele>
        <time>2022-07-19T12:41:21Z</time>
      </trkpt>
      <trkpt lat="44.33765" lon="6.82998">
        <ele>2456</ele>
        <time>2022-07-19T12:41:22Z</time>
      </trkpt>
      <trkpt lat="44.33763" lon="6.82997">
        <ele>2456.2</ele>
        <time>2022-07-19T12:41:23Z</time>
      </trkpt>
      <trkpt lat="44.33762" lon="6.82995">
        <ele>2456.2</ele>
        <time>2022-07-19T12:41:24Z</time>
      </trkpt>
      <trkpt lat="44.3376" lon="6.82994">
        <ele>2456.2</ele>
        <time>2022-07-19T12:41:25Z</time>
      </trkpt>
      <trkpt lat="44.33759" lon="6.82992">
        <ele>2456.4</ele>
        <time>2022-07-19T12:41:26Z</time>
      </trkpt>
      <trkpt lat="44.33757" lon="6.82991">
        <ele>2456.4</ele>
        <time>2022-07-19T12:41:27Z</time>
      </trkpt>
      <trkpt lat="44.33756" lon="6.82989">
        <ele>2456.4</ele>
        <time>2022-07-19T12:41:28Z</time>
      </trkpt>
      <trkpt lat="44.33755" lon="6.82988">
        <ele>2456.6</ele>
        <time>2022-07-19T12:41:29Z</time>
      </trkpt>
      <trkpt lat="44.33754" lon="6.82986">
        <ele>2456.6</ele>
        <time>2022-07-19T12:41:30Z</time>
      </trkpt>
      <trkpt lat="44.33753" lon="6.82984">
        <ele>2456.8</ele>
        <time>2022-07-19T12:41:31Z</time>
      </trkpt>
      <trkpt lat="44.33751" lon="6.82983">
        <ele>2456.8</ele>
        <time>2022-07-19T12:41:32Z</time>
      </trkpt>
      <trkpt lat="44.3375" lon="6.82981">
        <ele>2457.2</ele>
        <time>2022-07-19T12:41:33Z</time>
      </trkpt>
      <trkpt lat="44.33749" lon="6.8298">
        <ele>2457.2</ele>
        <time>2022-07-19T12:41:34Z</time>
      </trkpt>
      <trkpt lat="44.33748" lon="6.82978">
        <ele>2457.4</ele>
        <time>2022-07-19T12:41:35Z</time>
      </trkpt>
      <trkpt lat="44.33746" lon="6.82977">
        <ele>2457.4</ele>
        <time>2022-07-19T12:41:36Z</time>
      </trkpt>
      <trkpt lat="44.33745" lon="6.82975">
        <ele>2457.6</ele>
        <time>2022-07-19T12:41:37Z</time>
      </trkpt>
      <trkpt lat="44.33744" lon="6.82973">
        <ele>2458</ele>
        <time>2022-07-19T12:41:38Z</time>
      </trkpt>
      <trkpt lat="44.33743" lon="6.82972">
        <ele>2458</ele>
        <time>2022-07-19T12:41:39Z</time>
      </trkpt>
      <trkpt lat="44.33741" lon="6.8297">
        <ele>2458.2</ele>
        <time>2022-07-19T12:41:40Z</time>
      </trkpt>
      <trkpt lat="44.3374" lon="6.82968">
        <ele>2458.2</ele>
        <time>2022-07-19T12:41:41Z</time>
      </trkpt>
      <trkpt lat="44.33739" lon="6.82967">
        <ele>2458.2</ele>
        <time>2022-07-19T12:41:42Z</time>
      </trkpt>
      <trkpt lat="44.33738" lon="6.82965">
        <ele>2458.4</ele>
        <time>2022-07-19T12:41:43Z</time>
      </trkpt>
      <trkpt lat="44.33737" lon="6.82964">
        <ele>2458.4</ele>
        <time>2022-07-19T12:41:44Z</time>
      </trkpt>
      <trkpt lat="44.33735" lon="6.82962">
        <ele>2458.6</ele>
        <time>2022-07-19T12:41:45Z</time>
      </trkpt>
      <trkpt lat="44.33734" lon="6.82961">
        <ele>2458.6</ele>
        <time>2022-07-19T12:41:46Z</time>
      </trkpt>
      <trkpt lat="44.33733" lon="6.82959">
        <ele>2459</ele>
        <time>2022-07-19T12:41:47Z</time>
      </trkpt>
      <trkpt lat="44.33732" lon="6.82957">
        <ele>2459</ele>
        <time>2022-07-19T12:41:48Z</time>
      </trkpt>
      <trkpt lat="44.33731" lon="6.82956">
        <ele>2459.2</ele>
        <time>2022-07-19T12:41:49Z</time>
      </trkpt>
      <trkpt lat="44.3373" lon="6.82954">
        <ele>2459.2</ele>
        <time>2022-07-19T12:41:50Z</time>
      </trkpt>
      <trkpt lat="44.33729" lon="6.82953">
        <ele>2459.6</ele>
        <time>2022-07-19T12:41:51Z</time>
      </trkpt>
      <trkpt lat="44.33728" lon="6.82951">
        <ele>2459.8</ele>
        <time>2022-07-19T12:41:52Z</time>
      </trkpt>
      <trkpt lat="44.33727" lon="6.8295">
        <ele>2459.8</ele>
        <time>2022-07-19T12:41:53Z</time>
      </trkpt>
      <trkpt lat="44.33725" lon="6.82948">
        <ele>2459.8</ele>
        <time>2022-07-19T12:41:54Z</time>
      </trkpt>
      <trkpt lat="44.33724" lon="6.82947">
        <ele>2460</ele>
        <time>2022-07-19T12:41:55Z</time>
      </trkpt>
      <trkpt lat="44.33723" lon="6.82945">
        <ele>2460</ele>
        <time>2022-07-19T12:41:56Z</time>
      </trkpt>
      <trkpt lat="44.33722" lon="6.82944">
        <ele>2460.4</ele>
        <time>2022-07-19T12:41:57Z</time>
      </trkpt>
      <trkpt lat="44.33721" lon="6.82943">
        <ele>2460.4</ele>
        <time>2022-07-19T12:41:58Z</time>
      </trkpt>
      <trkpt lat="44.3372" lon="6.82941">
        <ele>2460.4</ele>
        <time>2022-07-19T12:41:59Z</time>
      </trkpt>
      <trkpt lat="44.33719" lon="6.82939">
        <ele>2460.6</ele>
        <time>2022-07-19T12:42:00Z</time>
      </trkpt>
      <trkpt lat="44.33718" lon="6.82938">
        <ele>2460.6</ele>
        <time>2022-07-19T12:42:01Z</time>
      </trkpt>
      <trkpt lat="44.33717" lon="6.82936">
        <ele>2461</ele>
        <time>2022-07-19T12:42:02Z</time>
      </trkpt>
      <trkpt lat="44.33716" lon="6.82935">
        <ele>2461</ele>
        <time>2022-07-19T12:42:03Z</time>
      </trkpt>
      <trkpt lat="44.33715" lon="6.82934">
        <ele>2461.2</ele>
        <time>2022-07-19T12:42:04Z</time>
      </trkpt>
      <trkpt lat="44.33714" lon="6.82932">
        <ele>2461.2</ele>
        <time>2022-07-19T12:42:05Z</time>
      </trkpt>
      <trkpt lat="44.33712" lon="6.82931">
        <ele>2461.6</ele>
        <time>2022-07-19T12:42:06Z</time>
      </trkpt>
      <trkpt lat="44.33711" lon="6.82929">
        <ele>2461.6</ele>
        <time>2022-07-19T12:42:07Z</time>
      </trkpt>
      <trkpt lat="44.3371" lon="6.82927">
        <ele>2461.8</ele>
        <time>2022-07-19T12:42:08Z</time>
      </trkpt>
      <trkpt lat="44.33709" lon="6.82925">
        <ele>2461.8</ele>
        <time>2022-07-19T12:42:09Z</time>
      </trkpt>
      <trkpt lat="44.33708" lon="6.82923">
        <ele>2462</ele>
        <time>2022-07-19T12:42:10Z</time>
      </trkpt>
      <trkpt lat="44.33706" lon="6.82921">
        <ele>2462</ele>
        <time>2022-07-19T12:42:11Z</time>
      </trkpt>
      <trkpt lat="44.33705" lon="6.8292">
        <ele>2462.4</ele>
        <time>2022-07-19T12:42:12Z</time>
      </trkpt>
      <trkpt lat="44.33704" lon="6.82918">
        <ele>2462.4</ele>
        <time>2022-07-19T12:42:13Z</time>
      </trkpt>
      <trkpt lat="44.33703" lon="6.82916">
        <ele>2462.4</ele>
        <time>2022-07-19T12:42:14Z</time>
      </trkpt>
      <trkpt lat="44.33702" lon="6.82914">
        <ele>2462.6</ele>
        <time>2022-07-19T12:42:15Z</time>
      </trkpt>
      <trkpt lat="44.33701" lon="6.82912">
        <ele>2462.6</ele>
        <time>2022-07-19T12:42:16Z</time>
      </trkpt>
      <trkpt lat="44.337" lon="6.82911">
        <ele>2463</ele>
        <time>2022-07-19T12:42:17Z</time>
      </trkpt>
      <trkpt lat="44.33699" lon="6.82909">
        <ele>2463</ele>
        <time>2022-07-19T12:42:18Z</time>
      </trkpt>
      <trkpt lat="44.33697" lon="6.82907">
        <ele>2463.2</ele>
        <time>2022-07-19T12:42:19Z</time>
      </trkpt>
      <trkpt lat="44.33696" lon="6.82906">
        <ele>2463.4</ele>
        <time>2022-07-19T12:42:20Z</time>
      </trkpt>
      <trkpt lat="44.33695" lon="6.82904">
        <ele>2463.4</ele>
        <time>2022-07-19T12:42:21Z</time>
      </trkpt>
      <trkpt lat="44.33694" lon="6.82902">
        <ele>2463.8</ele>
        <time>2022-07-19T12:42:22Z</time>
      </trkpt>
      <trkpt lat="44.33694" lon="6.829">
        <ele>2463.8</ele>
        <time>2022-07-19T12:42:23Z</time>
      </trkpt>
      <trkpt lat="44.33693" lon="6.82898">
        <ele>2464</ele>
        <time>2022-07-19T12:42:24Z</time>
      </trkpt>
      <trkpt lat="44.33692" lon="6.82896">
        <ele>2464</ele>
        <time>2022-07-19T12:42:25Z</time>
      </trkpt>
      <trkpt lat="44.33691" lon="6.82894">
        <ele>2464.4</ele>
        <time>2022-07-19T12:42:26Z</time>
      </trkpt>
      <trkpt lat="44.3369" lon="6.82892">
        <ele>2464.4</ele>
        <time>2022-07-19T12:42:27Z</time>
      </trkpt>
      <trkpt lat="44.33689" lon="6.8289">
        <ele>2464.6</ele>
        <time>2022-07-19T12:42:28Z</time>
      </trkpt>
      <trkpt lat="44.33688" lon="6.82887">
        <ele>2464.6</ele>
        <time>2022-07-19T12:42:29Z</time>
      </trkpt>
      <trkpt lat="44.33687" lon="6.82885">
        <ele>2464.8</ele>
        <time>2022-07-19T12:42:30Z</time>
      </trkpt>
      <trkpt lat="44.33686" lon="6.82883">
        <ele>2465</ele>
        <time>2022-07-19T12:42:31Z</time>
      </trkpt>
      <trkpt lat="44.33685" lon="6.8288">
        <ele>2465</ele>
        <time>2022-07-19T12:42:32Z</time>
      </trkpt>
      <trkpt lat="44.33684" lon="6.82878">
        <ele>2465</ele>
        <time>2022-07-19T12:42:33Z</time>
      </trkpt>
      <trkpt lat="44.33683" lon="6.82875">
        <ele>2465.4</ele>
        <time>2022-07-19T12:42:34Z</time>
      </trkpt>
      <trkpt lat="44.33682" lon="6.82873">
        <ele>2465.4</ele>
        <time>2022-07-19T12:42:35Z</time>
      </trkpt>
      <trkpt lat="44.33681" lon="6.8287">
        <ele>2465.6</ele>
        <time>2022-07-19T12:42:36Z</time>
      </trkpt>
      <trkpt lat="44.3368" lon="6.82868">
        <ele>2465.6</ele>
        <time>2022-07-19T12:42:37Z</time>
      </trkpt>
      <trkpt lat="44.33679" lon="6.82865">
        <ele>2466</ele>
        <time>2022-07-19T12:42:38Z</time>
      </trkpt>
      <trkpt lat="44.33678" lon="6.82863">
        <ele>2466</ele>
        <time>2022-07-19T12:42:39Z</time>
      </trkpt>
      <trkpt lat="44.33676" lon="6.8286">
        <ele>2466.2</ele>
        <time>2022-07-19T12:42:40Z</time>
      </trkpt>
      <trkpt lat="44.33675" lon="6.82858">
        <ele>2466.2</ele>
        <time>2022-07-19T12:42:41Z</time>
      </trkpt>
      <trkpt lat="44.33674" lon="6.82855">
        <ele>2466.6</ele>
        <time>2022-07-19T12:42:42Z</time>
      </trkpt>
      <trkpt lat="44.33673" lon="6.82852">
        <ele>2466.6</ele>
        <time>2022-07-19T12:42:43Z</time>
      </trkpt>
      <trkpt lat="44.33671" lon="6.8285">
        <ele>2466.8</ele>
        <time>2022-07-19T12:42:44Z</time>
      </trkpt>
      <trkpt lat="44.3367" lon="6.82847">
        <ele>2466.8</ele>
        <time>2022-07-19T12:42:45Z</time>
      </trkpt>
      <trkpt lat="44.33668" lon="6.82844">
        <ele>2467.2</ele>
        <time>2022-07-19T12:42:46Z</time>
      </trkpt>
      <trkpt lat="44.33667" lon="6.82842">
        <ele>2467.2</ele>
        <time>2022-07-19T12:42:47Z</time>
      </trkpt>
      <trkpt lat="44.33666" lon="6.8284">
        <ele>2467.4</ele>
        <time>2022-07-19T12:42:48Z</time>
      </trkpt>
      <trkpt lat="44.33664" lon="6.82838">
        <ele>2467.4</ele>
        <time>2022-07-19T12:42:49Z</time>
      </trkpt>
      <trkpt lat="44.33663" lon="6.82836">
        <ele>2467.8</ele>
        <time>2022-07-19T12:42:50Z</time>
      </trkpt>
      <trkpt lat="44.33661" lon="6.82834">
        <ele>2467.8</ele>
        <time>2022-07-19T12:42:51Z</time>
      </trkpt>
      <trkpt lat="44.3366" lon="6.82832">
        <ele>2468</ele>
        <time>2022-07-19T12:42:52Z</time>
      </trkpt>
      <trkpt lat="44.33659" lon="6.82829">
        <ele>2468</ele>
        <time>2022-07-19T12:42:53Z</time>
      </trkpt>
      <trkpt lat="44.33658" lon="6.82827">
        <ele>2468</ele>
        <time>2022-07-19T12:42:54Z</time>
      </trkpt>
      <trkpt lat="44.33656" lon="6.82825">
        <ele>2468.2</ele>
        <time>2022-07-19T12:42:55Z</time>
      </trkpt>
      <trkpt lat="44.33655" lon="6.82823">
        <ele>2468.2</ele>
        <time>2022-07-19T12:42:56Z</time>
      </trkpt>
      <trkpt lat="44.33654" lon="6.82821">
        <ele>2468.6</ele>
        <time>2022-07-19T12:42:57Z</time>
      </trkpt>
      <trkpt lat="44.33653" lon="6.82819">
        <ele>2468.6</ele>
        <time>2022-07-19T12:42:58Z</time>
      </trkpt>
      <trkpt lat="44.33651" lon="6.82816">
        <ele>2468.8</ele>
        <time>2022-07-19T12:42:59Z</time>
      </trkpt>
      <trkpt lat="44.3365" lon="6.82814">
        <ele>2468.8</ele>
        <time>2022-07-19T12:43:00Z</time>
      </trkpt>
      <trkpt lat="44.33649" lon="6.82812">
        <ele>2468.8</ele>
        <time>2022-07-19T12:43:01Z</time>
      </trkpt>
      <trkpt lat="44.33648" lon="6.8281">
        <ele>2469</ele>
        <time>2022-07-19T12:43:02Z</time>
      </trkpt>
      <trkpt lat="44.33647" lon="6.82807">
        <ele>2469</ele>
        <time>2022-07-19T12:43:03Z</time>
      </trkpt>
      <trkpt lat="44.33645" lon="6.82805">
        <ele>2469.4</ele>
        <time>2022-07-19T12:43:04Z</time>
      </trkpt>
      <trkpt lat="44.33644" lon="6.82803">
        <ele>2469.4</ele>
        <time>2022-07-19T12:43:05Z</time>
      </trkpt>
      <trkpt lat="44.33643" lon="6.82801">
        <ele>2469.6</ele>
        <time>2022-07-19T12:43:06Z</time>
      </trkpt>
      <trkpt lat="44.33642" lon="6.82798">
        <ele>2469.6</ele>
        <time>2022-07-19T12:43:07Z</time>
      </trkpt>
      <trkpt lat="44.3364" lon="6.82796">
        <ele>2469.6</ele>
        <time>2022-07-19T12:43:08Z</time>
      </trkpt>
      <trkpt lat="44.33639" lon="6.82793">
        <ele>2470</ele>
        <time>2022-07-19T12:43:09Z</time>
      </trkpt>
      <trkpt lat="44.33637" lon="6.82791">
        <ele>2470</ele>
        <time>2022-07-19T12:43:10Z</time>
      </trkpt>
      <trkpt lat="44.33636" lon="6.82789">
        <ele>2470.2</ele>
        <time>2022-07-19T12:43:11Z</time>
      </trkpt>
      <trkpt lat="44.33634" lon="6.82786">
        <ele>2470.2</ele>
        <time>2022-07-19T12:43:12Z</time>
      </trkpt>
      <trkpt lat="44.33633" lon="6.82783">
        <ele>2470.6</ele>
        <time>2022-07-19T12:43:13Z</time>
      </trkpt>
      <trkpt lat="44.33631" lon="6.82781">
        <ele>2470.6</ele>
        <time>2022-07-19T12:43:14Z</time>
      </trkpt>
      <trkpt lat="44.3363" lon="6.82779">
        <ele>2470.8</ele>
        <time>2022-07-19T12:43:15Z</time>
      </trkpt>
      <trkpt lat="44.33628" lon="6.82777">
        <ele>2470.8</ele>
        <time>2022-07-19T12:43:16Z</time>
      </trkpt>
      <trkpt lat="44.33627" lon="6.82774">
        <ele>2471.2</ele>
        <time>2022-07-19T12:43:17Z</time>
      </trkpt>
      <trkpt lat="44.33625" lon="6.82772">
        <ele>2471.2</ele>
        <time>2022-07-19T12:43:18Z</time>
      </trkpt>
      <trkpt lat="44.33624" lon="6.8277">
        <ele>2471.6</ele>
        <time>2022-07-19T12:43:19Z</time>
      </trkpt>
      <trkpt lat="44.33622" lon="6.82769">
        <ele>2471.6</ele>
        <time>2022-07-19T12:43:20Z</time>
      </trkpt>
      <trkpt lat="44.3362" lon="6.82767">
        <ele>2471.6</ele>
        <time>2022-07-19T12:43:21Z</time>
      </trkpt>
      <trkpt lat="44.33618" lon="6.82766">
        <ele>2471.8</ele>
        <time>2022-07-19T12:43:22Z</time>
      </trkpt>
      <trkpt lat="44.33616" lon="6.82764">
        <ele>2471.8</ele>
        <time>2022-07-19T12:43:23Z</time>
      </trkpt>
      <trkpt lat="44.33614" lon="6.82763">
        <ele>2472.2</ele>
        <time>2022-07-19T12:43:24Z</time>
      </trkpt>
      <trkpt lat="44.33613" lon="6.82761">
        <ele>2472.2</ele>
        <time>2022-07-19T12:43:25Z</time>
      </trkpt>
      <trkpt lat="44.33611" lon="6.8276">
        <ele>2472.4</ele>
        <time>2022-07-19T12:43:26Z</time>
      </trkpt>
      <trkpt lat="44.33609" lon="6.82759">
        <ele>2472.6</ele>
        <time>2022-07-19T12:43:27Z</time>
      </trkpt>
      <trkpt lat="44.33607" lon="6.82757">
        <ele>2472.6</ele>
        <time>2022-07-19T12:43:28Z</time>
      </trkpt>
      <trkpt lat="44.33606" lon="6.82755">
        <ele>2473</ele>
        <time>2022-07-19T12:43:29Z</time>
      </trkpt>
      <trkpt lat="44.33604" lon="6.82753">
        <ele>2473</ele>
        <time>2022-07-19T12:43:30Z</time>
      </trkpt>
      <trkpt lat="44.33602" lon="6.82751">
        <ele>2473.4</ele>
        <time>2022-07-19T12:43:31Z</time>
      </trkpt>
      <trkpt lat="44.33601" lon="6.82749">
        <ele>2473.4</ele>
        <time>2022-07-19T12:43:32Z</time>
      </trkpt>
      <trkpt lat="44.33599" lon="6.82747">
        <ele>2473.8</ele>
        <time>2022-07-19T12:43:33Z</time>
      </trkpt>
      <trkpt lat="44.33597" lon="6.82745">
        <ele>2473.8</ele>
        <time>2022-07-19T12:43:34Z</time>
      </trkpt>
      <trkpt lat="44.33596" lon="6.82743">
        <ele>2473.8</ele>
        <time>2022-07-19T12:43:35Z</time>
      </trkpt>
      <trkpt lat="44.33594" lon="6.82742">
        <ele>2474</ele>
        <time>2022-07-19T12:43:36Z</time>
      </trkpt>
      <trkpt lat="44.33592" lon="6.8274">
        <ele>2474</ele>
        <time>2022-07-19T12:43:37Z</time>
      </trkpt>
      <trkpt lat="44.33591" lon="6.82738">
        <ele>2474</ele>
        <time>2022-07-19T12:43:38Z</time>
      </trkpt>
      <trkpt lat="44.33589" lon="6.82736">
        <ele>2474.2</ele>
        <time>2022-07-19T12:43:39Z</time>
      </trkpt>
      <trkpt lat="44.33587" lon="6.82734">
        <ele>2474.2</ele>
        <time>2022-07-19T12:43:40Z</time>
      </trkpt>
      <trkpt lat="44.33586" lon="6.82732">
        <ele>2474.6</ele>
        <time>2022-07-19T12:43:41Z</time>
      </trkpt>
      <trkpt lat="44.33584" lon="6.82731">
        <ele>2474.6</ele>
        <time>2022-07-19T12:43:42Z</time>
      </trkpt>
      <trkpt lat="44.33582" lon="6.8273">
        <ele>2474.8</ele>
        <time>2022-07-19T12:43:43Z</time>
      </trkpt>
      <trkpt lat="44.3358" lon="6.82728">
        <ele>2474.8</ele>
        <time>2022-07-19T12:43:44Z</time>
      </trkpt>
      <trkpt lat="44.33579" lon="6.82727">
        <ele>2475</ele>
        <time>2022-07-19T12:43:45Z</time>
      </trkpt>
      <trkpt lat="44.33577" lon="6.82726">
        <ele>2475</ele>
        <time>2022-07-19T12:43:46Z</time>
      </trkpt>
      <trkpt lat="44.33575" lon="6.82725">
        <ele>2475.4</ele>
        <time>2022-07-19T12:43:47Z</time>
      </trkpt>
      <trkpt lat="44.33573" lon="6.82724">
        <ele>2475.4</ele>
        <time>2022-07-19T12:43:48Z</time>
      </trkpt>
      <trkpt lat="44.33571" lon="6.82723">
        <ele>2475.6</ele>
        <time>2022-07-19T12:43:49Z</time>
      </trkpt>
      <trkpt lat="44.33569" lon="6.82722">
        <ele>2475.6</ele>
        <time>2022-07-19T12:43:50Z</time>
      </trkpt>
      <trkpt lat="44.33567" lon="6.82721">
        <ele>2475.6</ele>
        <time>2022-07-19T12:43:51Z</time>
      </trkpt>
      <trkpt lat="44.33565" lon="6.8272">
        <ele>2475.8</ele>
        <time>2022-07-19T12:43:52Z</time>
      </trkpt>
      <trkpt lat="44.33563" lon="6.82719">
        <ele>2475.8</ele>
        <time>2022-07-19T12:43:53Z</time>
      </trkpt>
      <trkpt lat="44.33562" lon="6.82717">
        <ele>2476.2</ele>
        <time>2022-07-19T12:43:54Z</time>
      </trkpt>
      <trkpt lat="44.3356" lon="6.82715">
        <ele>2476.2</ele>
        <time>2022-07-19T12:43:55Z</time>
      </trkpt>
      <trkpt lat="44.33558" lon="6.82714">
        <ele>2476.4</ele>
        <time>2022-07-19T12:43:56Z</time>
      </trkpt>
      <trkpt lat="44.33556" lon="6.82712">
        <ele>2476.4</ele>
        <time>2022-07-19T12:43:57Z</time>
      </trkpt>
      <trkpt lat="44.33554" lon="6.8271">
        <ele>2476.4</ele>
        <time>2022-07-19T12:43:58Z</time>
      </trkpt>
      <trkpt lat="44.33552" lon="6.82708">
        <ele>2476.4</ele>
        <time>2022-07-19T12:43:59Z</time>
      </trkpt>
      <trkpt lat="44.3355" lon="6.82707">
        <ele>2476.6</ele>
        <time>2022-07-19T12:44:00Z</time>
      </trkpt>
      <trkpt lat="44.33548" lon="6.82705">
        <ele>2476.6</ele>
        <time>2022-07-19T12:44:01Z</time>
      </trkpt>
      <trkpt lat="44.33546" lon="6.82703">
        <ele>2476.6</ele>
        <time>2022-07-19T12:44:02Z</time>
      </trkpt>
      <trkpt lat="44.33544" lon="6.82701">
        <ele>2476.8</ele>
        <time>2022-07-19T12:44:03Z</time>
      </trkpt>
      <trkpt lat="44.33543" lon="6.82699">
        <ele>2476.8</ele>
        <time>2022-07-19T12:44:04Z</time>
      </trkpt>
      <trkpt lat="44.33541" lon="6.82697">
        <ele>2476.8</ele>
        <time>2022-07-19T12:44:05Z</time>
      </trkpt>
      <trkpt lat="44.33539" lon="6.82695">
        <ele>2477.2</ele>
        <time>2022-07-19T12:44:06Z</time>
      </trkpt>
      <trkpt lat="44.33537" lon="6.82693">
        <ele>2477.2</ele>
        <time>2022-07-19T12:44:07Z</time>
      </trkpt>
      <trkpt lat="44.33535" lon="6.82692">
        <ele>2477.6</ele>
        <time>2022-07-19T12:44:08Z</time>
      </trkpt>
      <trkpt lat="44.33533" lon="6.8269">
        <ele>2477.6</ele>
        <time>2022-07-19T12:44:09Z</time>
      </trkpt>
      <trkpt lat="44.33531" lon="6.82688">
        <ele>2477.8</ele>
        <time>2022-07-19T12:44:10Z</time>
      </trkpt>
      <trkpt lat="44.33529" lon="6.82686">
        <ele>2477.8</ele>
        <time>2022-07-19T12:44:11Z</time>
      </trkpt>
      <trkpt lat="44.33527" lon="6.82684">
        <ele>2477.8</ele>
        <time>2022-07-19T12:44:12Z</time>
      </trkpt>
      <trkpt lat="44.33525" lon="6.82682">
        <ele>2478</ele>
        <time>2022-07-19T12:44:13Z</time>
      </trkpt>
      <trkpt lat="44.33523" lon="6.82679">
        <ele>2478</ele>
        <time>2022-07-19T12:44:14Z</time>
      </trkpt>
      <trkpt lat="44.33521" lon="6.82677">
        <ele>2478.2</ele>
        <time>2022-07-19T12:44:15Z</time>
      </trkpt>
      <trkpt lat="44.33519" lon="6.82675">
        <ele>2478.2</ele>
        <time>2022-07-19T12:44:16Z</time>
      </trkpt>
      <trkpt lat="44.33517" lon="6.82673">
        <ele>2478.2</ele>
        <time>2022-07-19T12:44:17Z</time>
      </trkpt>
      <trkpt lat="44.33515" lon="6.8267">
        <ele>2478.6</ele>
        <time>2022-07-19T12:44:18Z</time>
      </trkpt>
      <trkpt lat="44.33513" lon="6.82667">
        <ele>2478.6</ele>
        <time>2022-07-19T12:44:19Z</time>
      </trkpt>
      <trkpt lat="44.33512" lon="6.82665">
        <ele>2478.8</ele>
        <time>2022-07-19T12:44:20Z</time>
      </trkpt>
      <trkpt lat="44.3351" lon="6.82662">
        <ele>2478.8</ele>
        <time>2022-07-19T12:44:21Z</time>
      </trkpt>
      <trkpt lat="44.33508" lon="6.8266">
        <ele>2479.2</ele>
        <time>2022-07-19T12:44:22Z</time>
      </trkpt>
      <trkpt lat="44.33507" lon="6.82658">
        <ele>2479.2</ele>
        <time>2022-07-19T12:44:23Z</time>
      </trkpt>
      <trkpt lat="44.33505" lon="6.82655">
        <ele>2479.4</ele>
        <time>2022-07-19T12:44:24Z</time>
      </trkpt>
      <trkpt lat="44.33503" lon="6.82653">
        <ele>2479.6</ele>
        <time>2022-07-19T12:44:25Z</time>
      </trkpt>
      <trkpt lat="44.33501" lon="6.8265">
        <ele>2479.6</ele>
        <time>2022-07-19T12:44:26Z</time>
      </trkpt>
      <trkpt lat="44.33499" lon="6.82648">
        <ele>2479.8</ele>
        <time>2022-07-19T12:44:27Z</time>
      </trkpt>
      <trkpt lat="44.33498" lon="6.82645">
        <ele>2479.8</ele>
        <time>2022-07-19T12:44:28Z</time>
      </trkpt>
      <trkpt lat="44.33496" lon="6.82643">
        <ele>2479.8</ele>
        <time>2022-07-19T12:44:29Z</time>
      </trkpt>
      <trkpt lat="44.33494" lon="6.8264">
        <ele>2480.2</ele>
        <time>2022-07-19T12:44:30Z</time>
      </trkpt>
      <trkpt lat="44.33492" lon="6.82638">
        <ele>2480.2</ele>
        <time>2022-07-19T12:44:31Z</time>
      </trkpt>
      <trkpt lat="44.3349" lon="6.82636">
        <ele>2480.4</ele>
        <time>2022-07-19T12:44:32Z</time>
      </trkpt>
      <trkpt lat="44.33488" lon="6.82634">
        <ele>2480.4</ele>
        <time>2022-07-19T12:44:33Z</time>
      </trkpt>
      <trkpt lat="44.33486" lon="6.82632">
        <ele>2480.8</ele>
        <time>2022-07-19T12:44:34Z</time>
      </trkpt>
      <trkpt lat="44.33484" lon="6.82629">
        <ele>2480.8</ele>
        <time>2022-07-19T12:44:35Z</time>
      </trkpt>
      <trkpt lat="44.33482" lon="6.82627">
        <ele>2481</ele>
        <time>2022-07-19T12:44:36Z</time>
      </trkpt>
      <trkpt lat="44.3348" lon="6.82625">
        <ele>2481</ele>
        <time>2022-07-19T12:44:37Z</time>
      </trkpt>
      <trkpt lat="44.33478" lon="6.82623">
        <ele>2481.2</ele>
        <time>2022-07-19T12:44:38Z</time>
      </trkpt>
      <trkpt lat="44.33476" lon="6.82621">
        <ele>2481.2</ele>
        <time>2022-07-19T12:44:39Z</time>
      </trkpt>
      <trkpt lat="44.33474" lon="6.82618">
        <ele>2481.2</ele>
        <time>2022-07-19T12:44:40Z</time>
      </trkpt>
      <trkpt lat="44.33472" lon="6.82616">
        <ele>2481.6</ele>
        <time>2022-07-19T12:44:41Z</time>
      </trkpt>
      <trkpt lat="44.3347" lon="6.82613">
        <ele>2481.6</ele>
        <time>2022-07-19T12:44:42Z</time>
      </trkpt>
      <trkpt lat="44.33468" lon="6.82611">
        <ele>2481.6</ele>
        <time>2022-07-19T12:44:43Z</time>
      </trkpt>
      <trkpt lat="44.33466" lon="6.82608">
        <ele>2481.6</ele>
        <time>2022-07-19T12:44:44Z</time>
      </trkpt>
      <trkpt lat="44.33465" lon="6.82606">
        <ele>2481.8</ele>
        <time>2022-07-19T12:44:45Z</time>
      </trkpt>
      <trkpt lat="44.33463" lon="6.82603">
        <ele>2481.8</ele>
        <time>2022-07-19T12:44:46Z</time>
      </trkpt>
      <trkpt lat="44.33461" lon="6.82601">
        <ele>2482.2</ele>
        <time>2022-07-19T12:44:47Z</time>
      </trkpt>
      <trkpt lat="44.33459" lon="6.82598">
        <ele>2482.2</ele>
        <time>2022-07-19T12:44:48Z</time>
      </trkpt>
      <trkpt lat="44.33457" lon="6.82596">
        <ele>2482.2</ele>
        <time>2022-07-19T12:44:49Z</time>
      </trkpt>
      <trkpt lat="44.33455" lon="6.82594">
        <ele>2482.4</ele>
        <time>2022-07-19T12:44:50Z</time>
      </trkpt>
      <trkpt lat="44.33453" lon="6.82592">
        <ele>2482.6</ele>
        <time>2022-07-19T12:44:51Z</time>
      </trkpt>
      <trkpt lat="44.3345" lon="6.82591">
        <ele>2482.6</ele>
        <time>2022-07-19T12:44:52Z</time>
      </trkpt>
      <trkpt lat="44.33448" lon="6.8259">
        <ele>2483</ele>
        <time>2022-07-19T12:44:53Z</time>
      </trkpt>
      <trkpt lat="44.33445" lon="6.82589">
        <ele>2483</ele>
        <time>2022-07-19T12:44:54Z</time>
      </trkpt>
      <trkpt lat="44.33443" lon="6.82589">
        <ele>2483.2</ele>
        <time>2022-07-19T12:44:55Z</time>
      </trkpt>
      <trkpt lat="44.3344" lon="6.82589">
        <ele>2483.4</ele>
        <time>2022-07-19T12:44:56Z</time>
      </trkpt>
      <trkpt lat="44.33438" lon="6.8259">
        <ele>2483.4</ele>
        <time>2022-07-19T12:44:57Z</time>
      </trkpt>
      <trkpt lat="44.33435" lon="6.8259">
        <ele>2483.8</ele>
        <time>2022-07-19T12:44:58Z</time>
      </trkpt>
      <trkpt lat="44.33433" lon="6.82591">
        <ele>2483.8</ele>
        <time>2022-07-19T12:44:59Z</time>
      </trkpt>
      <trkpt lat="44.33431" lon="6.82592">
        <ele>2483.8</ele>
        <time>2022-07-19T12:45:00Z</time>
      </trkpt>
      <trkpt lat="44.33429" lon="6.82593">
        <ele>2484</ele>
        <time>2022-07-19T12:45:01Z</time>
      </trkpt>
      <trkpt lat="44.33427" lon="6.82594">
        <ele>2484</ele>
        <time>2022-07-19T12:45:02Z</time>
      </trkpt>
      <trkpt lat="44.33424" lon="6.82595">
        <ele>2484</ele>
        <time>2022-07-19T12:45:03Z</time>
      </trkpt>
      <trkpt lat="44.33422" lon="6.82596">
        <ele>2484.4</ele>
        <time>2022-07-19T12:45:04Z</time>
      </trkpt>
      <trkpt lat="44.3342" lon="6.82597">
        <ele>2484.4</ele>
        <time>2022-07-19T12:45:05Z</time>
      </trkpt>
      <trkpt lat="44.33417" lon="6.82597">
        <ele>2484.6</ele>
        <time>2022-07-19T12:45:06Z</time>
      </trkpt>
      <trkpt lat="44.33415" lon="6.82597">
        <ele>2484.6</ele>
        <time>2022-07-19T12:45:07Z</time>
      </trkpt>
      <trkpt lat="44.33412" lon="6.82597">
        <ele>2485</ele>
        <time>2022-07-19T12:45:08Z</time>
      </trkpt>
      <trkpt lat="44.3341" lon="6.82597">
        <ele>2485.2</ele>
        <time>2022-07-19T12:45:09Z</time>
      </trkpt>
      <trkpt lat="44.33407" lon="6.82597">
        <ele>2485.2</ele>
        <time>2022-07-19T12:45:10Z</time>
      </trkpt>
      <trkpt lat="44.33405" lon="6.82596">
        <ele>2485.4</ele>
        <time>2022-07-19T12:45:11Z</time>
      </trkpt>
      <trkpt lat="44.33403" lon="6.82595">
        <ele>2485.4</ele>
        <time>2022-07-19T12:45:12Z</time>
      </trkpt>
      <trkpt lat="44.334" lon="6.82594">
        <ele>2485.8</ele>
        <time>2022-07-19T12:45:13Z</time>
      </trkpt>
      <trkpt lat="44.33398" lon="6.82594">
        <ele>2485.8</ele>
        <time>2022-07-19T12:45:14Z</time>
      </trkpt>
      <trkpt lat="44.33396" lon="6.82593">
        <ele>2486</ele>
        <time>2022-07-19T12:45:15Z</time>
      </trkpt>
      <trkpt lat="44.33393" lon="6.82591">
        <ele>2486</ele>
        <time>2022-07-19T12:45:16Z</time>
      </trkpt>
      <trkpt lat="44.33391" lon="6.8259">
        <ele>2486</ele>
        <time>2022-07-19T12:45:17Z</time>
      </trkpt>
      <trkpt lat="44.33389" lon="6.8259">
        <ele>2486</ele>
        <time>2022-07-19T12:45:18Z</time>
      </trkpt>
      <trkpt lat="44.33387" lon="6.82588">
        <ele>2486.4</ele>
        <time>2022-07-19T12:45:19Z</time>
      </trkpt>
      <trkpt lat="44.33384" lon="6.82588">
        <ele>2486.4</ele>
        <time>2022-07-19T12:45:20Z</time>
      </trkpt>
      <trkpt lat="44.33382" lon="6.82587">
        <ele>2486.6</ele>
        <time>2022-07-19T12:45:21Z</time>
      </trkpt>
      <trkpt lat="44.3338" lon="6.82586">
        <ele>2486.6</ele>
        <time>2022-07-19T12:45:22Z</time>
      </trkpt>
      <trkpt lat="44.33378" lon="6.82585">
        <ele>2486.8</ele>
        <time>2022-07-19T12:45:23Z</time>
      </trkpt>
      <trkpt lat="44.33376" lon="6.82585">
        <ele>2486.8</ele>
        <time>2022-07-19T12:45:24Z</time>
      </trkpt>
      <trkpt lat="44.33373" lon="6.82584">
        <ele>2487</ele>
        <time>2022-07-19T12:45:25Z</time>
      </trkpt>
      <trkpt lat="44.33371" lon="6.82584">
        <ele>2487</ele>
        <time>2022-07-19T12:45:26Z</time>
      </trkpt>
      <trkpt lat="44.33369" lon="6.82584">
        <ele>2487.4</ele>
        <time>2022-07-19T12:45:27Z</time>
      </trkpt>
      <trkpt lat="44.33366" lon="6.82585">
        <ele>2487.4</ele>
        <time>2022-07-19T12:45:28Z</time>
      </trkpt>
      <trkpt lat="44.33364" lon="6.82586">
        <ele>2487.6</ele>
        <time>2022-07-19T12:45:29Z</time>
      </trkpt>
      <trkpt lat="44.33362" lon="6.82587">
        <ele>2487.6</ele>
        <time>2022-07-19T12:45:30Z</time>
      </trkpt>
      <trkpt lat="44.3336" lon="6.82589">
        <ele>2487.8</ele>
        <time>2022-07-19T12:45:31Z</time>
      </trkpt>
      <trkpt lat="44.33358" lon="6.82591">
        <ele>2487.8</ele>
        <time>2022-07-19T12:45:32Z</time>
      </trkpt>
      <trkpt lat="44.33356" lon="6.82592">
        <ele>2488.2</ele>
        <time>2022-07-19T12:45:33Z</time>
      </trkpt>
      <trkpt lat="44.33355" lon="6.82595">
        <ele>2488.2</ele>
        <time>2022-07-19T12:45:34Z</time>
      </trkpt>
      <trkpt lat="44.33353" lon="6.82597">
        <ele>2488.2</ele>
        <time>2022-07-19T12:45:35Z</time>
      </trkpt>
      <trkpt lat="44.33352" lon="6.82599">
        <ele>2488.4</ele>
        <time>2022-07-19T12:45:36Z</time>
      </trkpt>
      <trkpt lat="44.33351" lon="6.82602">
        <ele>2488.4</ele>
        <time>2022-07-19T12:45:37Z</time>
      </trkpt>
      <trkpt lat="44.33349" lon="6.82604">
        <ele>2488.6</ele>
        <time>2022-07-19T12:45:38Z</time>
      </trkpt>
      <trkpt lat="44.33348" lon="6.82607">
        <ele>2488.8</ele>
        <time>2022-07-19T12:45:39Z</time>
      </trkpt>
      <trkpt lat="44.33347" lon="6.8261">
        <ele>2488.8</ele>
        <time>2022-07-19T12:45:40Z</time>
      </trkpt>
      <trkpt lat="44.33345" lon="6.82612">
        <ele>2489</ele>
        <time>2022-07-19T12:45:41Z</time>
      </trkpt>
      <trkpt lat="44.33343" lon="6.82615">
        <ele>2489</ele>
        <time>2022-07-19T12:45:42Z</time>
      </trkpt>
      <trkpt lat="44.33342" lon="6.82617">
        <ele>2489</ele>
        <time>2022-07-19T12:45:43Z</time>
      </trkpt>
      <trkpt lat="44.3334" lon="6.82619">
        <ele>2489.4</ele>
        <time>2022-07-19T12:45:44Z</time>
      </trkpt>
      <trkpt lat="44.33337" lon="6.82621">
        <ele>2489.4</ele>
        <time>2022-07-19T12:45:45Z</time>
      </trkpt>
      <trkpt lat="44.33335" lon="6.82623">
        <ele>2489.6</ele>
        <time>2022-07-19T12:45:46Z</time>
      </trkpt>
      <trkpt lat="44.33333" lon="6.82625">
        <ele>2489.6</ele>
        <time>2022-07-19T12:45:47Z</time>
      </trkpt>
      <trkpt lat="44.33331" lon="6.82628">
        <ele>2489.8</ele>
        <time>2022-07-19T12:45:48Z</time>
      </trkpt>
      <trkpt lat="44.33328" lon="6.8263">
        <ele>2489.8</ele>
        <time>2022-07-19T12:45:49Z</time>
      </trkpt>
      <trkpt lat="44.33326" lon="6.82631">
        <ele>2489.8</ele>
        <time>2022-07-19T12:45:50Z</time>
      </trkpt>
      <trkpt lat="44.33323" lon="6.82633">
        <ele>2490.2</ele>
        <time>2022-07-19T12:45:51Z</time>
      </trkpt>
      <trkpt lat="44.3332" lon="6.82636">
        <ele>2490.2</ele>
        <time>2022-07-19T12:45:52Z</time>
      </trkpt>
      <trkpt lat="44.33317" lon="6.82638">
        <ele>2490.2</ele>
        <time>2022-07-19T12:45:53Z</time>
      </trkpt>
      <trkpt lat="44.33314" lon="6.8264">
        <ele>2490.4</ele>
        <time>2022-07-19T12:45:54Z</time>
      </trkpt>
      <trkpt lat="44.33311" lon="6.82642">
        <ele>2490.4</ele>
        <time>2022-07-19T12:45:55Z</time>
      </trkpt>
      <trkpt lat="44.33307" lon="6.82643">
        <ele>2490.4</ele>
        <time>2022-07-19T12:45:56Z</time>
      </trkpt>
      <trkpt lat="44.33303" lon="6.82645">
        <ele>2490.4</ele>
        <time>2022-07-19T12:45:57Z</time>
      </trkpt>
      <trkpt lat="44.333" lon="6.82646">
        <ele>2490.4</ele>
        <time>2022-07-19T12:45:58Z</time>
      </trkpt>
      <trkpt lat="44.33296" lon="6.82647">
        <ele>2490.4</ele>
        <time>2022-07-19T12:45:59Z</time>
      </trkpt>
      <trkpt lat="44.33292" lon="6.82648">
        <ele>2490.4</ele>
        <time>2022-07-19T12:46:00Z</time>
      </trkpt>
      <trkpt lat="44.33288" lon="6.82649">
        <ele>2490.8</ele>
        <time>2022-07-19T12:46:01Z</time>
      </trkpt>
      <trkpt lat="44.33284" lon="6.8265">
        <ele>2490.8</ele>
        <time>2022-07-19T12:46:02Z</time>
      </trkpt>
      <trkpt lat="44.33281" lon="6.8265">
        <ele>2491</ele>
        <time>2022-07-19T12:46:03Z</time>
      </trkpt>
      <trkpt lat="44.33277" lon="6.8265">
        <ele>2491</ele>
        <time>2022-07-19T12:46:04Z</time>
      </trkpt>
      <trkpt lat="44.33274" lon="6.82649">
        <ele>2491</ele>
        <time>2022-07-19T12:46:05Z</time>
      </trkpt>
      <trkpt lat="44.33271" lon="6.82648">
        <ele>2491.2</ele>
        <time>2022-07-19T12:46:06Z</time>
      </trkpt>
      <trkpt lat="44.33267" lon="6.82646">
        <ele>2491.2</ele>
        <time>2022-07-19T12:46:07Z</time>
      </trkpt>
      <trkpt lat="44.33264" lon="6.82644">
        <ele>2491.2</ele>
        <time>2022-07-19T12:46:08Z</time>
      </trkpt>
      <trkpt lat="44.33262" lon="6.82642">
        <ele>2491.2</ele>
        <time>2022-07-19T12:46:09Z</time>
      </trkpt>
      <trkpt lat="44.33259" lon="6.8264">
        <ele>2491.2</ele>
        <time>2022-07-19T12:46:10Z</time>
      </trkpt>
      <trkpt lat="44.33256" lon="6.82637">
        <ele>2491.6</ele>
        <time>2022-07-19T12:46:11Z</time>
      </trkpt>
      <trkpt lat="44.33253" lon="6.82635">
        <ele>2491.6</ele>
        <time>2022-07-19T12:46:12Z</time>
      </trkpt>
      <trkpt lat="44.3325" lon="6.82631">
        <ele>2491.6</ele>
        <time>2022-07-19T12:46:13Z</time>
      </trkpt>
      <trkpt lat="44.33247" lon="6.82628">
        <ele>2491.6</ele>
        <time>2022-07-19T12:46:14Z</time>
      </trkpt>
      <trkpt lat="44.33244" lon="6.82624">
        <ele>2491.8</ele>
        <time>2022-07-19T12:46:15Z</time>
      </trkpt>
      <trkpt lat="44.33241" lon="6.82621">
        <ele>2491.8</ele>
        <time>2022-07-19T12:46:16Z</time>
      </trkpt>
      <trkpt lat="44.33238" lon="6.82618">
        <ele>2491.8</ele>
        <time>2022-07-19T12:46:17Z</time>
      </trkpt>
      <trkpt lat="44.33234" lon="6.82616">
        <ele>2491.8</ele>
        <time>2022-07-19T12:46:18Z</time>
      </trkpt>
      <trkpt lat="44.33231" lon="6.82616">
        <ele>2491.8</ele>
        <time>2022-07-19T12:46:19Z</time>
      </trkpt>
      <trkpt lat="44.33227" lon="6.82615">
        <ele>2491.8</ele>
        <time>2022-07-19T12:46:20Z</time>
      </trkpt>
      <trkpt lat="44.33224" lon="6.82616">
        <ele>2492.2</ele>
        <time>2022-07-19T12:46:21Z</time>
      </trkpt>
      <trkpt lat="44.33221" lon="6.82616">
        <ele>2492.2</ele>
        <time>2022-07-19T12:46:22Z</time>
      </trkpt>
      <trkpt lat="44.33217" lon="6.82617">
        <ele>2492.2</ele>
        <time>2022-07-19T12:46:23Z</time>
      </trkpt>
      <trkpt lat="44.33214" lon="6.82618">
        <ele>2492.4</ele>
        <time>2022-07-19T12:46:24Z</time>
      </trkpt>
      <trkpt lat="44.33211" lon="6.82619">
        <ele>2492.4</ele>
        <time>2022-07-19T12:46:25Z</time>
      </trkpt>
      <trkpt lat="44.33208" lon="6.82621">
        <ele>2492.4</ele>
        <time>2022-07-19T12:46:26Z</time>
      </trkpt>
      <trkpt lat="44.33204" lon="6.82622">
        <ele>2492.6</ele>
        <time>2022-07-19T12:46:27Z</time>
      </trkpt>
      <trkpt lat="44.33201" lon="6.82623">
        <ele>2492.6</ele>
        <time>2022-07-19T12:46:28Z</time>
      </trkpt>
      <trkpt lat="44.33198" lon="6.82625">
        <ele>2493</ele>
        <time>2022-07-19T12:46:30Z</time>
      </trkpt>
      <trkpt lat="44.33195" lon="6.82626">
        <ele>2493.2</ele>
        <time>2022-07-19T12:46:31Z</time>
      </trkpt>
      <trkpt lat="44.33192" lon="6.82626">
        <ele>2493.2</ele>
        <time>2022-07-19T12:46:32Z</time>
      </trkpt>
      <trkpt lat="44.33189" lon="6.82626">
        <ele>2493.4</ele>
        <time>2022-07-19T12:46:33Z</time>
      </trkpt>
      <trkpt lat="44.33185" lon="6.82626">
        <ele>2493.4</ele>
        <time>2022-07-19T12:46:34Z</time>
      </trkpt>
      <trkpt lat="44.33182" lon="6.82625">
        <ele>2493.8</ele>
        <time>2022-07-19T12:46:35Z</time>
      </trkpt>
      <trkpt lat="44.33179" lon="6.82624">
        <ele>2494</ele>
        <time>2022-07-19T12:46:36Z</time>
      </trkpt>
      <trkpt lat="44.33176" lon="6.82622">
        <ele>2494</ele>
        <time>2022-07-19T12:46:37Z</time>
      </trkpt>
      <trkpt lat="44.33174" lon="6.8262">
        <ele>2494.2</ele>
        <time>2022-07-19T12:46:38Z</time>
      </trkpt>
      <trkpt lat="44.33172" lon="6.82617">
        <ele>2494.2</ele>
        <time>2022-07-19T12:46:39Z</time>
      </trkpt>
      <trkpt lat="44.3317" lon="6.82613">
        <ele>2494.2</ele>
        <time>2022-07-19T12:46:40Z</time>
      </trkpt>
      <trkpt lat="44.33168" lon="6.8261">
        <ele>2494.6</ele>
        <time>2022-07-19T12:46:41Z</time>
      </trkpt>
      <trkpt lat="44.33167" lon="6.82606">
        <ele>2494.6</ele>
        <time>2022-07-19T12:46:42Z</time>
      </trkpt>
      <trkpt lat="44.33166" lon="6.82602">
        <ele>2494.8</ele>
        <time>2022-07-19T12:46:43Z</time>
      </trkpt>
      <trkpt lat="44.33164" lon="6.82598">
        <ele>2494.8</ele>
        <time>2022-07-19T12:46:44Z</time>
      </trkpt>
      <trkpt lat="44.33164" lon="6.82594">
        <ele>2495.2</ele>
        <time>2022-07-19T12:46:45Z</time>
      </trkpt>
      <trkpt lat="44.33163" lon="6.8259">
        <ele>2495.2</ele>
        <time>2022-07-19T12:46:46Z</time>
      </trkpt>
      <trkpt lat="44.33162" lon="6.82586">
        <ele>2495.2</ele>
        <time>2022-07-19T12:46:47Z</time>
      </trkpt>
      <trkpt lat="44.3316" lon="6.82582">
        <ele>2495.4</ele>
        <time>2022-07-19T12:46:48Z</time>
      </trkpt>
      <trkpt lat="44.33159" lon="6.82578">
        <ele>2495.4</ele>
        <time>2022-07-19T12:46:49Z</time>
      </trkpt>
      <trkpt lat="44.33158" lon="6.82574">
        <ele>2495.4</ele>
        <time>2022-07-19T12:46:50Z</time>
      </trkpt>
      <trkpt lat="44.33157" lon="6.82571">
        <ele>2495.8</ele>
        <time>2022-07-19T12:46:51Z</time>
      </trkpt>
      <trkpt lat="44.33155" lon="6.82567">
        <ele>2495.8</ele>
        <time>2022-07-19T12:46:52Z</time>
      </trkpt>
      <trkpt lat="44.33152" lon="6.82561">
        <ele>2495.8</ele>
        <time>2022-07-19T12:46:53Z</time>
      </trkpt>
      <trkpt lat="44.3315" lon="6.82558">
        <ele>2496</ele>
        <time>2022-07-19T12:46:54Z</time>
      </trkpt>
      <trkpt lat="44.33148" lon="6.82555">
        <ele>2496</ele>
        <time>2022-07-19T12:46:55Z</time>
      </trkpt>
      <trkpt lat="44.33146" lon="6.82552">
        <ele>2496.4</ele>
        <time>2022-07-19T12:46:56Z</time>
      </trkpt>
      <trkpt lat="44.33145" lon="6.82549">
        <ele>2496.4</ele>
        <time>2022-07-19T12:46:57Z</time>
      </trkpt>
      <trkpt lat="44.33143" lon="6.82547">
        <ele>2496.6</ele>
        <time>2022-07-19T12:46:58Z</time>
      </trkpt>
      <trkpt lat="44.33141" lon="6.82545">
        <ele>2496.6</ele>
        <time>2022-07-19T12:46:59Z</time>
      </trkpt>
      <trkpt lat="44.33139" lon="6.82543">
        <ele>2497</ele>
        <time>2022-07-19T12:47:00Z</time>
      </trkpt>
      <trkpt lat="44.33137" lon="6.82541">
        <ele>2497</ele>
        <time>2022-07-19T12:47:01Z</time>
      </trkpt>
      <trkpt lat="44.33135" lon="6.82539">
        <ele>2497.4</ele>
        <time>2022-07-19T12:47:02Z</time>
      </trkpt>
      <trkpt lat="44.33134" lon="6.82536">
        <ele>2497.6</ele>
        <time>2022-07-19T12:47:03Z</time>
      </trkpt>
      <trkpt lat="44.33132" lon="6.82534">
        <ele>2497.8</ele>
        <time>2022-07-19T12:47:04Z</time>
      </trkpt>
      <trkpt lat="44.33131" lon="6.82532">
        <ele>2498</ele>
        <time>2022-07-19T12:47:05Z</time>
      </trkpt>
      <trkpt lat="44.33129" lon="6.82529">
        <ele>2498.2</ele>
        <time>2022-07-19T12:47:06Z</time>
      </trkpt>
      <trkpt lat="44.33128" lon="6.82527">
        <ele>2498.4</ele>
        <time>2022-07-19T12:47:07Z</time>
      </trkpt>
      <trkpt lat="44.33127" lon="6.82524">
        <ele>2498.4</ele>
        <time>2022-07-19T12:47:08Z</time>
      </trkpt>
      <trkpt lat="44.33126" lon="6.82522">
        <ele>2498.8</ele>
        <time>2022-07-19T12:47:09Z</time>
      </trkpt>
      <trkpt lat="44.33124" lon="6.82519">
        <ele>2499</ele>
        <time>2022-07-19T12:47:10Z</time>
      </trkpt>
      <trkpt lat="44.33123" lon="6.82516">
        <ele>2499</ele>
        <time>2022-07-19T12:47:11Z</time>
      </trkpt>
      <trkpt lat="44.33122" lon="6.82513">
        <ele>2499.4</ele>
        <time>2022-07-19T12:47:12Z</time>
      </trkpt>
      <trkpt lat="44.33121" lon="6.8251">
        <ele>2499.6</ele>
        <time>2022-07-19T12:47:13Z</time>
      </trkpt>
      <trkpt lat="44.3312" lon="6.82507">
        <ele>2499.8</ele>
        <time>2022-07-19T12:47:14Z</time>
      </trkpt>
      <trkpt lat="44.33119" lon="6.82503">
        <ele>2499.8</ele>
        <time>2022-07-19T12:47:15Z</time>
      </trkpt>
      <trkpt lat="44.33118" lon="6.825">
        <ele>2500.2</ele>
        <time>2022-07-19T12:47:16Z</time>
      </trkpt>
      <trkpt lat="44.33117" lon="6.82497">
        <ele>2500.4</ele>
        <time>2022-07-19T12:47:17Z</time>
      </trkpt>
      <trkpt lat="44.33116" lon="6.82494">
        <ele>2500.6</ele>
        <time>2022-07-19T12:47:18Z</time>
      </trkpt>
      <trkpt lat="44.33115" lon="6.82491">
        <ele>2500.8</ele>
        <time>2022-07-19T12:47:19Z</time>
      </trkpt>
      <trkpt lat="44.33115" lon="6.82489">
        <ele>2500.8</ele>
        <time>2022-07-19T12:47:20Z</time>
      </trkpt>
      <trkpt lat="44.33114" lon="6.82486">
        <ele>2501.2</ele>
        <time>2022-07-19T12:47:21Z</time>
      </trkpt>
      <trkpt lat="44.33113" lon="6.82484">
        <ele>2501.2</ele>
        <time>2022-07-19T12:47:22Z</time>
      </trkpt>
      <trkpt lat="44.33112" lon="6.82481">
        <ele>2501.6</ele>
        <time>2022-07-19T12:47:23Z</time>
      </trkpt>
      <trkpt lat="44.33112" lon="6.82479">
        <ele>2501.6</ele>
        <time>2022-07-19T12:47:24Z</time>
      </trkpt>
      <trkpt lat="44.33111" lon="6.82476">
        <ele>2502</ele>
        <time>2022-07-19T12:47:25Z</time>
      </trkpt>
      <trkpt lat="44.3311" lon="6.82474">
        <ele>2502</ele>
        <time>2022-07-19T12:47:26Z</time>
      </trkpt>
      <trkpt lat="44.3311" lon="6.82472">
        <ele>2502.4</ele>
        <time>2022-07-19T12:47:27Z</time>
      </trkpt>
      <trkpt lat="44.33109" lon="6.82469">
        <ele>2502.4</ele>
        <time>2022-07-19T12:47:28Z</time>
      </trkpt>
      <trkpt lat="44.33108" lon="6.82467">
        <ele>2502.6</ele>
        <time>2022-07-19T12:47:29Z</time>
      </trkpt>
      <trkpt lat="44.33107" lon="6.82465">
        <ele>2503</ele>
        <time>2022-07-19T12:47:30Z</time>
      </trkpt>
      <trkpt lat="44.33107" lon="6.82462">
        <ele>2503</ele>
        <time>2022-07-19T12:47:31Z</time>
      </trkpt>
      <trkpt lat="44.33106" lon="6.8246">
        <ele>2503.2</ele>
        <time>2022-07-19T12:47:32Z</time>
      </trkpt>
      <trkpt lat="44.33106" lon="6.82457">
        <ele>2503.2</ele>
        <time>2022-07-19T12:47:33Z</time>
      </trkpt>
      <trkpt lat="44.33106" lon="6.82454">
        <ele>2503.6</ele>
        <time>2022-07-19T12:47:34Z</time>
      </trkpt>
      <trkpt lat="44.33105" lon="6.82452">
        <ele>2503.6</ele>
        <time>2022-07-19T12:47:35Z</time>
      </trkpt>
      <trkpt lat="44.33105" lon="6.82449">
        <ele>2503.8</ele>
        <time>2022-07-19T12:47:36Z</time>
      </trkpt>
      <trkpt lat="44.33104" lon="6.82446">
        <ele>2503.8</ele>
        <time>2022-07-19T12:47:37Z</time>
      </trkpt>
      <trkpt lat="44.33104" lon="6.82443">
        <ele>2504</ele>
        <time>2022-07-19T12:47:38Z</time>
      </trkpt>
      <trkpt lat="44.33103" lon="6.82441">
        <ele>2504</ele>
        <time>2022-07-19T12:47:39Z</time>
      </trkpt>
      <trkpt lat="44.33103" lon="6.82438">
        <ele>2504.4</ele>
        <time>2022-07-19T12:47:40Z</time>
      </trkpt>
      <trkpt lat="44.33103" lon="6.82435">
        <ele>2504.6</ele>
        <time>2022-07-19T12:47:41Z</time>
      </trkpt>
      <trkpt lat="44.33102" lon="6.82432">
        <ele>2504.6</ele>
        <time>2022-07-19T12:47:42Z</time>
      </trkpt>
      <trkpt lat="44.33102" lon="6.82429">
        <ele>2505</ele>
        <time>2022-07-19T12:47:43Z</time>
      </trkpt>
      <trkpt lat="44.33101" lon="6.82427">
        <ele>2505</ele>
        <time>2022-07-19T12:47:44Z</time>
      </trkpt>
      <trkpt lat="44.33101" lon="6.82424">
        <ele>2505.2</ele>
        <time>2022-07-19T12:47:45Z</time>
      </trkpt>
      <trkpt lat="44.33101" lon="6.82421">
        <ele>2505.2</ele>
        <time>2022-07-19T12:47:46Z</time>
      </trkpt>
      <trkpt lat="44.33101" lon="6.82418">
        <ele>2505.6</ele>
        <time>2022-07-19T12:47:47Z</time>
      </trkpt>
      <trkpt lat="44.33101" lon="6.82415">
        <ele>2505.6</ele>
        <time>2022-07-19T12:47:48Z</time>
      </trkpt>
      <trkpt lat="44.33102" lon="6.82413">
        <ele>2506</ele>
        <time>2022-07-19T12:47:49Z</time>
      </trkpt>
      <trkpt lat="44.33103" lon="6.8241">
        <ele>2506</ele>
        <time>2022-07-19T12:47:50Z</time>
      </trkpt>
      <trkpt lat="44.33103" lon="6.82407">
        <ele>2506</ele>
        <time>2022-07-19T12:47:51Z</time>
      </trkpt>
      <trkpt lat="44.33103" lon="6.82404">
        <ele>2506.2</ele>
        <time>2022-07-19T12:47:52Z</time>
      </trkpt>
      <trkpt lat="44.33103" lon="6.82401">
        <ele>2506.2</ele>
        <time>2022-07-19T12:47:53Z</time>
      </trkpt>
      <trkpt lat="44.33103" lon="6.82399">
        <ele>2506.4</ele>
        <time>2022-07-19T12:47:54Z</time>
      </trkpt>
      <trkpt lat="44.33103" lon="6.82396">
        <ele>2506.6</ele>
        <time>2022-07-19T12:47:55Z</time>
      </trkpt>
      <trkpt lat="44.33104" lon="6.82393">
        <ele>2506.6</ele>
        <time>2022-07-19T12:47:56Z</time>
      </trkpt>
      <trkpt lat="44.33104" lon="6.8239">
        <ele>2507</ele>
        <time>2022-07-19T12:47:57Z</time>
      </trkpt>
      <trkpt lat="44.33104" lon="6.82387">
        <ele>2507</ele>
        <time>2022-07-19T12:47:58Z</time>
      </trkpt>
      <trkpt lat="44.33105" lon="6.82384">
        <ele>2507.2</ele>
        <time>2022-07-19T12:47:59Z</time>
      </trkpt>
      <trkpt lat="44.33105" lon="6.8238">
        <ele>2507.4</ele>
        <time>2022-07-19T12:48:00Z</time>
      </trkpt>
      <trkpt lat="44.33105" lon="6.82377">
        <ele>2507.4</ele>
        <time>2022-07-19T12:48:01Z</time>
      </trkpt>
      <trkpt lat="44.33106" lon="6.82374">
        <ele>2507.4</ele>
        <time>2022-07-19T12:48:02Z</time>
      </trkpt>
      <trkpt lat="44.33106" lon="6.82371">
        <ele>2507.8</ele>
        <time>2022-07-19T12:48:03Z</time>
      </trkpt>
      <trkpt lat="44.33106" lon="6.82368">
        <ele>2507.8</ele>
        <time>2022-07-19T12:48:04Z</time>
      </trkpt>
      <trkpt lat="44.33107" lon="6.82365">
        <ele>2508</ele>
        <time>2022-07-19T12:48:05Z</time>
      </trkpt>
      <trkpt lat="44.33107" lon="6.82362">
        <ele>2508</ele>
        <time>2022-07-19T12:48:06Z</time>
      </trkpt>
      <trkpt lat="44.33108" lon="6.82359">
        <ele>2508.2</ele>
        <time>2022-07-19T12:48:07Z</time>
      </trkpt>
      <trkpt lat="44.33109" lon="6.82356">
        <ele>2508.2</ele>
        <time>2022-07-19T12:48:08Z</time>
      </trkpt>
      <trkpt lat="44.33109" lon="6.82353">
        <ele>2508.4</ele>
        <time>2022-07-19T12:48:09Z</time>
      </trkpt>
      <trkpt lat="44.33109" lon="6.8235">
        <ele>2508.4</ele>
        <time>2022-07-19T12:48:10Z</time>
      </trkpt>
      <trkpt lat="44.3311" lon="6.82347">
        <ele>2508.6</ele>
        <time>2022-07-19T12:48:11Z</time>
      </trkpt>
      <trkpt lat="44.3311" lon="6.82343">
        <ele>2508.6</ele>
        <time>2022-07-19T12:48:12Z</time>
      </trkpt>
      <trkpt lat="44.3311" lon="6.8234">
        <ele>2509</ele>
        <time>2022-07-19T12:48:13Z</time>
      </trkpt>
      <trkpt lat="44.3311" lon="6.82337">
        <ele>2509</ele>
        <time>2022-07-19T12:48:14Z</time>
      </trkpt>
      <trkpt lat="44.33109" lon="6.82334">
        <ele>2509.2</ele>
        <time>2022-07-19T12:48:15Z</time>
      </trkpt>
      <trkpt lat="44.33108" lon="6.82331">
        <ele>2509.2</ele>
        <time>2022-07-19T12:48:16Z</time>
      </trkpt>
      <trkpt lat="44.33107" lon="6.82328">
        <ele>2509.6</ele>
        <time>2022-07-19T12:48:17Z</time>
      </trkpt>
      <trkpt lat="44.33107" lon="6.82325">
        <ele>2509.6</ele>
        <time>2022-07-19T12:48:18Z</time>
      </trkpt>
      <trkpt lat="44.33106" lon="6.82322">
        <ele>2509.6</ele>
        <time>2022-07-19T12:48:19Z</time>
      </trkpt>
      <trkpt lat="44.33106" lon="6.8232">
        <ele>2509.8</ele>
        <time>2022-07-19T12:48:20Z</time>
      </trkpt>
      <trkpt lat="44.33105" lon="6.82317">
        <ele>2509.8</ele>
        <time>2022-07-19T12:48:21Z</time>
      </trkpt>
      <trkpt lat="44.33105" lon="6.82314">
        <ele>2510.2</ele>
        <time>2022-07-19T12:48:22Z</time>
      </trkpt>
      <trkpt lat="44.33104" lon="6.82312">
        <ele>2510.2</ele>
        <time>2022-07-19T12:48:23Z</time>
      </trkpt>
      <trkpt lat="44.33103" lon="6.82309">
        <ele>2510.6</ele>
        <time>2022-07-19T12:48:24Z</time>
      </trkpt>
      <trkpt lat="44.33103" lon="6.82307">
        <ele>2510.8</ele>
        <time>2022-07-19T12:48:25Z</time>
      </trkpt>
      <trkpt lat="44.33102" lon="6.82304">
        <ele>2511</ele>
        <time>2022-07-19T12:48:26Z</time>
      </trkpt>
      <trkpt lat="44.33102" lon="6.82302">
        <ele>2511.2</ele>
        <time>2022-07-19T12:48:27Z</time>
      </trkpt>
      <trkpt lat="44.33101" lon="6.82299">
        <ele>2511.2</ele>
        <time>2022-07-19T12:48:28Z</time>
      </trkpt>
      <trkpt lat="44.33101" lon="6.82297">
        <ele>2511.6</ele>
        <time>2022-07-19T12:48:29Z</time>
      </trkpt>
      <trkpt lat="44.331" lon="6.82294">
        <ele>2511.8</ele>
        <time>2022-07-19T12:48:30Z</time>
      </trkpt>
      <trkpt lat="44.331" lon="6.82292">
        <ele>2511.8</ele>
        <time>2022-07-19T12:48:31Z</time>
      </trkpt>
      <trkpt lat="44.33099" lon="6.8229">
        <ele>2512.2</ele>
        <time>2022-07-19T12:48:32Z</time>
      </trkpt>
      <trkpt lat="44.33099" lon="6.82288">
        <ele>2512.2</ele>
        <time>2022-07-19T12:48:33Z</time>
      </trkpt>
      <trkpt lat="44.33099" lon="6.82285">
        <ele>2512.6</ele>
        <time>2022-07-19T12:48:34Z</time>
      </trkpt>
      <trkpt lat="44.33098" lon="6.82283">
        <ele>2512.6</ele>
        <time>2022-07-19T12:48:35Z</time>
      </trkpt>
      <trkpt lat="44.33098" lon="6.82281">
        <ele>2512.8</ele>
        <time>2022-07-19T12:48:36Z</time>
      </trkpt>
      <trkpt lat="44.33098" lon="6.82278">
        <ele>2512.8</ele>
        <time>2022-07-19T12:48:37Z</time>
      </trkpt>
      <trkpt lat="44.33098" lon="6.82275">
        <ele>2513.2</ele>
        <time>2022-07-19T12:48:38Z</time>
      </trkpt>
      <trkpt lat="44.33098" lon="6.82273">
        <ele>2513.2</ele>
        <time>2022-07-19T12:48:39Z</time>
      </trkpt>
      <trkpt lat="44.33098" lon="6.8227">
        <ele>2513.6</ele>
        <time>2022-07-19T12:48:40Z</time>
      </trkpt>
      <trkpt lat="44.33098" lon="6.82268">
        <ele>2513.6</ele>
        <time>2022-07-19T12:48:41Z</time>
      </trkpt>
      <trkpt lat="44.33099" lon="6.82265">
        <ele>2513.8</ele>
        <time>2022-07-19T12:48:42Z</time>
      </trkpt>
      <trkpt lat="44.33099" lon="6.82262">
        <ele>2513.8</ele>
        <time>2022-07-19T12:48:43Z</time>
      </trkpt>
      <trkpt lat="44.33099" lon="6.8226">
        <ele>2514</ele>
        <time>2022-07-19T12:48:44Z</time>
      </trkpt>
      <trkpt lat="44.33099" lon="6.82257">
        <ele>2514.2</ele>
        <time>2022-07-19T12:48:45Z</time>
      </trkpt>
      <trkpt lat="44.33099" lon="6.82255">
        <ele>2514.4</ele>
        <time>2022-07-19T12:48:46Z</time>
      </trkpt>
      <trkpt lat="44.331" lon="6.82252">
        <ele>2514.4</ele>
        <time>2022-07-19T12:48:47Z</time>
      </trkpt>
      <trkpt lat="44.331" lon="6.8225">
        <ele>2514.8</ele>
        <time>2022-07-19T12:48:48Z</time>
      </trkpt>
      <trkpt lat="44.331" lon="6.82247">
        <ele>2514.8</ele>
        <time>2022-07-19T12:48:49Z</time>
      </trkpt>
      <trkpt lat="44.331" lon="6.82245">
        <ele>2515</ele>
        <time>2022-07-19T12:48:50Z</time>
      </trkpt>
      <trkpt lat="44.33101" lon="6.82243">
        <ele>2515</ele>
        <time>2022-07-19T12:48:51Z</time>
      </trkpt>
      <trkpt lat="44.33101" lon="6.8224">
        <ele>2515.4</ele>
        <time>2022-07-19T12:48:52Z</time>
      </trkpt>
      <trkpt lat="44.33101" lon="6.82238">
        <ele>2515.4</ele>
        <time>2022-07-19T12:48:53Z</time>
      </trkpt>
      <trkpt lat="44.33101" lon="6.82236">
        <ele>2515.8</ele>
        <time>2022-07-19T12:48:54Z</time>
      </trkpt>
      <trkpt lat="44.33101" lon="6.82233">
        <ele>2515.8</ele>
        <time>2022-07-19T12:48:55Z</time>
      </trkpt>
      <trkpt lat="44.33102" lon="6.82231">
        <ele>2516</ele>
        <time>2022-07-19T12:48:56Z</time>
      </trkpt>
      <trkpt lat="44.33102" lon="6.82229">
        <ele>2516</ele>
        <time>2022-07-19T12:48:57Z</time>
      </trkpt>
      <trkpt lat="44.33103" lon="6.82227">
        <ele>2516.4</ele>
        <time>2022-07-19T12:48:58Z</time>
      </trkpt>
      <trkpt lat="44.33103" lon="6.82224">
        <ele>2516.4</ele>
        <time>2022-07-19T12:48:59Z</time>
      </trkpt>
      <trkpt lat="44.33103" lon="6.82222">
        <ele>2516.8</ele>
        <time>2022-07-19T12:49:00Z</time>
      </trkpt>
      <trkpt lat="44.33103" lon="6.8222">
        <ele>2516.8</ele>
        <time>2022-07-19T12:49:01Z</time>
      </trkpt>
      <trkpt lat="44.33103" lon="6.82217">
        <ele>2517</ele>
        <time>2022-07-19T12:49:02Z</time>
      </trkpt>
      <trkpt lat="44.33103" lon="6.82215">
        <ele>2517</ele>
        <time>2022-07-19T12:49:03Z</time>
      </trkpt>
      <trkpt lat="44.33104" lon="6.82212">
        <ele>2517.2</ele>
        <time>2022-07-19T12:49:04Z</time>
      </trkpt>
      <trkpt lat="44.33104" lon="6.8221">
        <ele>2517.2</ele>
        <time>2022-07-19T12:49:05Z</time>
      </trkpt>
      <trkpt lat="44.33104" lon="6.82208">
        <ele>2517.2</ele>
        <time>2022-07-19T12:49:06Z</time>
      </trkpt>
      <trkpt lat="44.33105" lon="6.82205">
        <ele>2517.4</ele>
        <time>2022-07-19T12:49:07Z</time>
      </trkpt>
      <trkpt lat="44.33106" lon="6.82202">
        <ele>2517.4</ele>
        <time>2022-07-19T12:49:08Z</time>
      </trkpt>
      <trkpt lat="44.33106" lon="6.82199">
        <ele>2517.6</ele>
        <time>2022-07-19T12:49:09Z</time>
      </trkpt>
      <trkpt lat="44.33106" lon="6.82197">
        <ele>2517.6</ele>
        <time>2022-07-19T12:49:10Z</time>
      </trkpt>
      <trkpt lat="44.33105" lon="6.82194">
        <ele>2518</ele>
        <time>2022-07-19T12:49:11Z</time>
      </trkpt>
      <trkpt lat="44.33105" lon="6.82192">
        <ele>2518</ele>
        <time>2022-07-19T12:49:12Z</time>
      </trkpt>
      <trkpt lat="44.33104" lon="6.8219">
        <ele>2518.4</ele>
        <time>2022-07-19T12:49:13Z</time>
      </trkpt>
      <trkpt lat="44.33104" lon="6.82187">
        <ele>2518.4</ele>
        <time>2022-07-19T12:49:14Z</time>
      </trkpt>
      <trkpt lat="44.33103" lon="6.82185">
        <ele>2518.6</ele>
        <time>2022-07-19T12:49:15Z</time>
      </trkpt>
      <trkpt lat="44.33102" lon="6.82182">
        <ele>2518.6</ele>
        <time>2022-07-19T12:49:16Z</time>
      </trkpt>
      <trkpt lat="44.33102" lon="6.8218">
        <ele>2519</ele>
        <time>2022-07-19T12:49:17Z</time>
      </trkpt>
      <trkpt lat="44.33101" lon="6.82178">
        <ele>2519</ele>
        <time>2022-07-19T12:49:18Z</time>
      </trkpt>
      <trkpt lat="44.331" lon="6.82176">
        <ele>2519</ele>
        <time>2022-07-19T12:49:19Z</time>
      </trkpt>
      <trkpt lat="44.33099" lon="6.82174">
        <ele>2519.4</ele>
        <time>2022-07-19T12:49:20Z</time>
      </trkpt>
      <trkpt lat="44.33098" lon="6.82172">
        <ele>2519.4</ele>
        <time>2022-07-19T12:49:21Z</time>
      </trkpt>
      <trkpt lat="44.33096" lon="6.8217">
        <ele>2519.6</ele>
        <time>2022-07-19T12:49:22Z</time>
      </trkpt>
      <trkpt lat="44.33095" lon="6.82168">
        <ele>2519.8</ele>
        <time>2022-07-19T12:49:23Z</time>
      </trkpt>
      <trkpt lat="44.33094" lon="6.82166">
        <ele>2519.8</ele>
        <time>2022-07-19T12:49:24Z</time>
      </trkpt>
      <trkpt lat="44.33092" lon="6.82165">
        <ele>2519.8</ele>
        <time>2022-07-19T12:49:25Z</time>
      </trkpt>
      <trkpt lat="44.33091" lon="6.82163">
        <ele>2520.2</ele>
        <time>2022-07-19T12:49:26Z</time>
      </trkpt>
      <trkpt lat="44.33089" lon="6.82162">
        <ele>2520.2</ele>
        <time>2022-07-19T12:49:27Z</time>
      </trkpt>
      <trkpt lat="44.33087" lon="6.8216">
        <ele>2520.4</ele>
        <time>2022-07-19T12:49:28Z</time>
      </trkpt>
      <trkpt lat="44.33086" lon="6.82159">
        <ele>2520.4</ele>
        <time>2022-07-19T12:49:29Z</time>
      </trkpt>
      <trkpt lat="44.33084" lon="6.82158">
        <ele>2520.6</ele>
        <time>2022-07-19T12:49:30Z</time>
      </trkpt>
      <trkpt lat="44.33083" lon="6.82156">
        <ele>2520.6</ele>
        <time>2022-07-19T12:49:31Z</time>
      </trkpt>
      <trkpt lat="44.33081" lon="6.82154">
        <ele>2520.8</ele>
        <time>2022-07-19T12:49:32Z</time>
      </trkpt>
      <trkpt lat="44.3308" lon="6.82153">
        <ele>2521</ele>
        <time>2022-07-19T12:49:33Z</time>
      </trkpt>
      <trkpt lat="44.33078" lon="6.82151">
        <ele>2521</ele>
        <time>2022-07-19T12:49:34Z</time>
      </trkpt>
      <trkpt lat="44.33077" lon="6.82149">
        <ele>2521.2</ele>
        <time>2022-07-19T12:49:35Z</time>
      </trkpt>
      <trkpt lat="44.33076" lon="6.82148">
        <ele>2521.2</ele>
        <time>2022-07-19T12:49:36Z</time>
      </trkpt>
      <trkpt lat="44.33074" lon="6.82146">
        <ele>2521.6</ele>
        <time>2022-07-19T12:49:37Z</time>
      </trkpt>
      <trkpt lat="44.33073" lon="6.82144">
        <ele>2521.6</ele>
        <time>2022-07-19T12:49:38Z</time>
      </trkpt>
      <trkpt lat="44.33072" lon="6.82143">
        <ele>2521.8</ele>
        <time>2022-07-19T12:49:39Z</time>
      </trkpt>
      <trkpt lat="44.3307" lon="6.82141">
        <ele>2521.8</ele>
        <time>2022-07-19T12:49:40Z</time>
      </trkpt>
      <trkpt lat="44.33069" lon="6.82139">
        <ele>2522.2</ele>
        <time>2022-07-19T12:49:41Z</time>
      </trkpt>
      <trkpt lat="44.33068" lon="6.82137">
        <ele>2522.2</ele>
        <time>2022-07-19T12:49:42Z</time>
      </trkpt>
      <trkpt lat="44.33067" lon="6.82135">
        <ele>2522.4</ele>
        <time>2022-07-19T12:49:43Z</time>
      </trkpt>
      <trkpt lat="44.33065" lon="6.82133">
        <ele>2522.6</ele>
        <time>2022-07-19T12:49:44Z</time>
      </trkpt>
      <trkpt lat="44.33064" lon="6.82131">
        <ele>2522.6</ele>
        <time>2022-07-19T12:49:45Z</time>
      </trkpt>
      <trkpt lat="44.33063" lon="6.82129">
        <ele>2522.8</ele>
        <time>2022-07-19T12:49:46Z</time>
      </trkpt>
      <trkpt lat="44.33062" lon="6.82127">
        <ele>2523</ele>
        <time>2022-07-19T12:49:47Z</time>
      </trkpt>
      <trkpt lat="44.33061" lon="6.82125">
        <ele>2523</ele>
        <time>2022-07-19T12:49:48Z</time>
      </trkpt>
      <trkpt lat="44.3306" lon="6.82123">
        <ele>2523.4</ele>
        <time>2022-07-19T12:49:49Z</time>
      </trkpt>
      <trkpt lat="44.33059" lon="6.82121">
        <ele>2523.4</ele>
        <time>2022-07-19T12:49:50Z</time>
      </trkpt>
      <trkpt lat="44.33058" lon="6.82119">
        <ele>2523.6</ele>
        <time>2022-07-19T12:49:51Z</time>
      </trkpt>
      <trkpt lat="44.33057" lon="6.82117">
        <ele>2523.6</ele>
        <time>2022-07-19T12:49:52Z</time>
      </trkpt>
      <trkpt lat="44.33056" lon="6.82115">
        <ele>2524</ele>
        <time>2022-07-19T12:49:53Z</time>
      </trkpt>
      <trkpt lat="44.33055" lon="6.82113">
        <ele>2524</ele>
        <time>2022-07-19T12:49:54Z</time>
      </trkpt>
      <trkpt lat="44.33054" lon="6.8211">
        <ele>2524.2</ele>
        <time>2022-07-19T12:49:55Z</time>
      </trkpt>
      <trkpt lat="44.33054" lon="6.82108">
        <ele>2524.2</ele>
        <time>2022-07-19T12:49:56Z</time>
      </trkpt>
      <trkpt lat="44.33053" lon="6.82105">
        <ele>2524.2</ele>
        <time>2022-07-19T12:49:57Z</time>
      </trkpt>
      <trkpt lat="44.33053" lon="6.82103">
        <ele>2524.6</ele>
        <time>2022-07-19T12:49:58Z</time>
      </trkpt>
      <trkpt lat="44.33053" lon="6.821">
        <ele>2524.6</ele>
        <time>2022-07-19T12:49:59Z</time>
      </trkpt>
      <trkpt lat="44.33053" lon="6.82098">
        <ele>2525</ele>
        <time>2022-07-19T12:50:00Z</time>
      </trkpt>
      <trkpt lat="44.33054" lon="6.82095">
        <ele>2525</ele>
        <time>2022-07-19T12:50:01Z</time>
      </trkpt>
      <trkpt lat="44.33055" lon="6.82093">
        <ele>2525.4</ele>
        <time>2022-07-19T12:50:02Z</time>
      </trkpt>
      <trkpt lat="44.33055" lon="6.8209">
        <ele>2525.4</ele>
        <time>2022-07-19T12:50:03Z</time>
      </trkpt>
      <trkpt lat="44.33056" lon="6.82088">
        <ele>2525.6</ele>
        <time>2022-07-19T12:50:04Z</time>
      </trkpt>
      <trkpt lat="44.33057" lon="6.82086">
        <ele>2525.6</ele>
        <time>2022-07-19T12:50:05Z</time>
      </trkpt>
      <trkpt lat="44.33057" lon="6.82084">
        <ele>2525.8</ele>
        <time>2022-07-19T12:50:06Z</time>
      </trkpt>
      <trkpt lat="44.33058" lon="6.82081">
        <ele>2525.8</ele>
        <time>2022-07-19T12:50:07Z</time>
      </trkpt>
      <trkpt lat="44.33059" lon="6.82079">
        <ele>2526.2</ele>
        <time>2022-07-19T12:50:08Z</time>
      </trkpt>
      <trkpt lat="44.33059" lon="6.82077">
        <ele>2526.2</ele>
        <time>2022-07-19T12:50:09Z</time>
      </trkpt>
      <trkpt lat="44.3306" lon="6.82075">
        <ele>2526.4</ele>
        <time>2022-07-19T12:50:10Z</time>
      </trkpt>
      <trkpt lat="44.3306" lon="6.82073">
        <ele>2526.6</ele>
        <time>2022-07-19T12:50:11Z</time>
      </trkpt>
      <trkpt lat="44.33061" lon="6.82071">
        <ele>2526.8</ele>
        <time>2022-07-19T12:50:12Z</time>
      </trkpt>
      <trkpt lat="44.33061" lon="6.82068">
        <ele>2527</ele>
        <time>2022-07-19T12:50:13Z</time>
      </trkpt>
      <trkpt lat="44.33062" lon="6.82066">
        <ele>2527</ele>
        <time>2022-07-19T12:50:14Z</time>
      </trkpt>
      <trkpt lat="44.33063" lon="6.82064">
        <ele>2527.4</ele>
        <time>2022-07-19T12:50:15Z</time>
      </trkpt>
      <trkpt lat="44.33064" lon="6.82062">
        <ele>2527.4</ele>
        <time>2022-07-19T12:50:16Z</time>
      </trkpt>
      <trkpt lat="44.33064" lon="6.82059">
        <ele>2527.6</ele>
        <time>2022-07-19T12:50:17Z</time>
      </trkpt>
      <trkpt lat="44.33064" lon="6.82057">
        <ele>2527.6</ele>
        <time>2022-07-19T12:50:18Z</time>
      </trkpt>
      <trkpt lat="44.33065" lon="6.82054">
        <ele>2527.8</ele>
        <time>2022-07-19T12:50:19Z</time>
      </trkpt>
      <trkpt lat="44.33065" lon="6.82052">
        <ele>2527.8</ele>
        <time>2022-07-19T12:50:20Z</time>
      </trkpt>
      <trkpt lat="44.33065" lon="6.82049">
        <ele>2528.2</ele>
        <time>2022-07-19T12:50:21Z</time>
      </trkpt>
      <trkpt lat="44.33065" lon="6.82047">
        <ele>2528.2</ele>
        <time>2022-07-19T12:50:22Z</time>
      </trkpt>
      <trkpt lat="44.33066" lon="6.82045">
        <ele>2528.6</ele>
        <time>2022-07-19T12:50:23Z</time>
      </trkpt>
      <trkpt lat="44.33066" lon="6.82042">
        <ele>2528.6</ele>
        <time>2022-07-19T12:50:24Z</time>
      </trkpt>
      <trkpt lat="44.33066" lon="6.8204">
        <ele>2529</ele>
        <time>2022-07-19T12:50:25Z</time>
      </trkpt>
      <trkpt lat="44.33066" lon="6.82037">
        <ele>2529.2</ele>
        <time>2022-07-19T12:50:26Z</time>
      </trkpt>
      <trkpt lat="44.33066" lon="6.82035">
        <ele>2529.2</ele>
        <time>2022-07-19T12:50:27Z</time>
      </trkpt>
      <trkpt lat="44.33066" lon="6.82033">
        <ele>2529.4</ele>
        <time>2022-07-19T12:50:28Z</time>
      </trkpt>
      <trkpt lat="44.33066" lon="6.8203">
        <ele>2529.8</ele>
        <time>2022-07-19T12:50:29Z</time>
      </trkpt>
      <trkpt lat="44.33067" lon="6.82028">
        <ele>2530</ele>
        <time>2022-07-19T12:50:30Z</time>
      </trkpt>
      <trkpt lat="44.33067" lon="6.82025">
        <ele>2530.2</ele>
        <time>2022-07-19T12:50:31Z</time>
      </trkpt>
      <trkpt lat="44.33067" lon="6.82023">
        <ele>2530.2</ele>
        <time>2022-07-19T12:50:32Z</time>
      </trkpt>
      <trkpt lat="44.33067" lon="6.82022">
        <ele>2530.4</ele>
        <time>2022-07-19T12:50:33Z</time>
      </trkpt>
      <trkpt lat="44.33068" lon="6.8202">
        <ele>2530.8</ele>
        <time>2022-07-19T12:50:34Z</time>
      </trkpt>
      <trkpt lat="44.33068" lon="6.82017">
        <ele>2530.8</ele>
        <time>2022-07-19T12:50:35Z</time>
      </trkpt>
      <trkpt lat="44.33069" lon="6.82016">
        <ele>2531</ele>
        <time>2022-07-19T12:50:36Z</time>
      </trkpt>
      <trkpt lat="44.3307" lon="6.82014">
        <ele>2531</ele>
        <time>2022-07-19T12:50:37Z</time>
      </trkpt>
      <trkpt lat="44.33071" lon="6.82011">
        <ele>2531.4</ele>
        <time>2022-07-19T12:50:38Z</time>
      </trkpt>
      <trkpt lat="44.33071" lon="6.8201">
        <ele>2531.6</ele>
        <time>2022-07-19T12:50:39Z</time>
      </trkpt>
      <trkpt lat="44.33072" lon="6.82008">
        <ele>2531.6</ele>
        <time>2022-07-19T12:50:40Z</time>
      </trkpt>
      <trkpt lat="44.33072" lon="6.82006">
        <ele>2532</ele>
        <time>2022-07-19T12:50:41Z</time>
      </trkpt>
      <trkpt lat="44.33073" lon="6.82003">
        <ele>2532</ele>
        <time>2022-07-19T12:50:42Z</time>
      </trkpt>
      <trkpt lat="44.33074" lon="6.82001">
        <ele>2532.4</ele>
        <time>2022-07-19T12:50:43Z</time>
      </trkpt>
      <trkpt lat="44.33074" lon="6.81999">
        <ele>2532.6</ele>
        <time>2022-07-19T12:50:44Z</time>
      </trkpt>
      <trkpt lat="44.33074" lon="6.81996">
        <ele>2532.6</ele>
        <time>2022-07-19T12:50:45Z</time>
      </trkpt>
      <trkpt lat="44.33074" lon="6.81993">
        <ele>2532.8</ele>
        <time>2022-07-19T12:50:46Z</time>
      </trkpt>
      <trkpt lat="44.33074" lon="6.81991">
        <ele>2532.8</ele>
        <time>2022-07-19T12:50:47Z</time>
      </trkpt>
      <trkpt lat="44.33074" lon="6.81988">
        <ele>2533.2</ele>
        <time>2022-07-19T12:50:48Z</time>
      </trkpt>
      <trkpt lat="44.33074" lon="6.81986">
        <ele>2533.2</ele>
        <time>2022-07-19T12:50:49Z</time>
      </trkpt>
      <trkpt lat="44.33074" lon="6.81983">
        <ele>2533.4</ele>
        <time>2022-07-19T12:50:50Z</time>
      </trkpt>
      <trkpt lat="44.33074" lon="6.81981">
        <ele>2533.4</ele>
        <time>2022-07-19T12:50:51Z</time>
      </trkpt>
      <trkpt lat="44.33074" lon="6.81979">
        <ele>2533.8</ele>
        <time>2022-07-19T12:50:52Z</time>
      </trkpt>
      <trkpt lat="44.33074" lon="6.81976">
        <ele>2533.8</ele>
        <time>2022-07-19T12:50:53Z</time>
      </trkpt>
      <trkpt lat="44.33074" lon="6.81974">
        <ele>2534.2</ele>
        <time>2022-07-19T12:50:54Z</time>
      </trkpt>
      <trkpt lat="44.33074" lon="6.81972">
        <ele>2534.2</ele>
        <time>2022-07-19T12:50:55Z</time>
      </trkpt>
      <trkpt lat="44.33074" lon="6.8197">
        <ele>2534.4</ele>
        <time>2022-07-19T12:50:56Z</time>
      </trkpt>
      <trkpt lat="44.33073" lon="6.81967">
        <ele>2534.8</ele>
        <time>2022-07-19T12:50:57Z</time>
      </trkpt>
      <trkpt lat="44.33073" lon="6.81965">
        <ele>2535</ele>
        <time>2022-07-19T12:50:58Z</time>
      </trkpt>
      <trkpt lat="44.33073" lon="6.81963">
        <ele>2535</ele>
        <time>2022-07-19T12:50:59Z</time>
      </trkpt>
      <trkpt lat="44.33073" lon="6.81961">
        <ele>2535.2</ele>
        <time>2022-07-19T12:51:00Z</time>
      </trkpt>
      <trkpt lat="44.33073" lon="6.81959">
        <ele>2535.2</ele>
        <time>2022-07-19T12:51:01Z</time>
      </trkpt>
      <trkpt lat="44.33073" lon="6.81956">
        <ele>2535.4</ele>
        <time>2022-07-19T12:51:02Z</time>
      </trkpt>
      <trkpt lat="44.33073" lon="6.81954">
        <ele>2535.4</ele>
        <time>2022-07-19T12:51:03Z</time>
      </trkpt>
      <trkpt lat="44.33073" lon="6.81951">
        <ele>2535.8</ele>
        <time>2022-07-19T12:51:04Z</time>
      </trkpt>
      <trkpt lat="44.33073" lon="6.81948">
        <ele>2535.8</ele>
        <time>2022-07-19T12:51:05Z</time>
      </trkpt>
      <trkpt lat="44.33074" lon="6.81946">
        <ele>2536</ele>
        <time>2022-07-19T12:51:06Z</time>
      </trkpt>
      <trkpt lat="44.33074" lon="6.81944">
        <ele>2536</ele>
        <time>2022-07-19T12:51:07Z</time>
      </trkpt>
      <trkpt lat="44.33074" lon="6.81942">
        <ele>2536.6</ele>
        <time>2022-07-19T12:51:08Z</time>
      </trkpt>
      <trkpt lat="44.33075" lon="6.8194">
        <ele>2536.6</ele>
        <time>2022-07-19T12:51:09Z</time>
      </trkpt>
      <trkpt lat="44.33076" lon="6.81937">
        <ele>2537</ele>
        <time>2022-07-19T12:51:10Z</time>
      </trkpt>
      <trkpt lat="44.33077" lon="6.81935">
        <ele>2537</ele>
        <time>2022-07-19T12:51:11Z</time>
      </trkpt>
      <trkpt lat="44.33077" lon="6.81933">
        <ele>2537.2</ele>
        <time>2022-07-19T12:51:12Z</time>
      </trkpt>
      <trkpt lat="44.33078" lon="6.81931">
        <ele>2537.2</ele>
        <time>2022-07-19T12:51:13Z</time>
      </trkpt>
      <trkpt lat="44.33078" lon="6.81929">
        <ele>2537.4</ele>
        <time>2022-07-19T12:51:14Z</time>
      </trkpt>
      <trkpt lat="44.33078" lon="6.81927">
        <ele>2537.4</ele>
        <time>2022-07-19T12:51:15Z</time>
      </trkpt>
      <trkpt lat="44.33078" lon="6.81925">
        <ele>2537.6</ele>
        <time>2022-07-19T12:51:16Z</time>
      </trkpt>
      <trkpt lat="44.33078" lon="6.81923">
        <ele>2537.8</ele>
        <time>2022-07-19T12:51:17Z</time>
      </trkpt>
      <trkpt lat="44.33078" lon="6.81921">
        <ele>2537.8</ele>
        <time>2022-07-19T12:51:18Z</time>
      </trkpt>
      <trkpt lat="44.33079" lon="6.81919">
        <ele>2538</ele>
        <time>2022-07-19T12:51:19Z</time>
      </trkpt>
      <trkpt lat="44.33079" lon="6.81916">
        <ele>2538</ele>
        <time>2022-07-19T12:51:20Z</time>
      </trkpt>
      <trkpt lat="44.33079" lon="6.81914">
        <ele>2538.4</ele>
        <time>2022-07-19T12:51:21Z</time>
      </trkpt>
      <trkpt lat="44.3308" lon="6.81912">
        <ele>2538.4</ele>
        <time>2022-07-19T12:51:22Z</time>
      </trkpt>
      <trkpt lat="44.3308" lon="6.81909">
        <ele>2538.6</ele>
        <time>2022-07-19T12:51:23Z</time>
      </trkpt>
      <trkpt lat="44.33079" lon="6.81907">
        <ele>2538.6</ele>
        <time>2022-07-19T12:51:24Z</time>
      </trkpt>
      <trkpt lat="44.33079" lon="6.81904">
        <ele>2538.8</ele>
        <time>2022-07-19T12:51:25Z</time>
      </trkpt>
      <trkpt lat="44.33079" lon="6.81902">
        <ele>2538.8</ele>
        <time>2022-07-19T12:51:26Z</time>
      </trkpt>
      <trkpt lat="44.33078" lon="6.819">
        <ele>2538.8</ele>
        <time>2022-07-19T12:51:27Z</time>
      </trkpt>
      <trkpt lat="44.33078" lon="6.81898">
        <ele>2539.2</ele>
        <time>2022-07-19T12:51:28Z</time>
      </trkpt>
      <trkpt lat="44.33077" lon="6.81896">
        <ele>2539.2</ele>
        <time>2022-07-19T12:51:29Z</time>
      </trkpt>
      <trkpt lat="44.33075" lon="6.81893">
        <ele>2539.2</ele>
        <time>2022-07-19T12:51:30Z</time>
      </trkpt>
      <trkpt lat="44.33075" lon="6.81891">
        <ele>2539.2</ele>
        <time>2022-07-19T12:51:31Z</time>
      </trkpt>
      <trkpt lat="44.33074" lon="6.81889">
        <ele>2539.4</ele>
        <time>2022-07-19T12:51:32Z</time>
      </trkpt>
      <trkpt lat="44.33073" lon="6.81887">
        <ele>2539.4</ele>
        <time>2022-07-19T12:51:33Z</time>
      </trkpt>
      <trkpt lat="44.33072" lon="6.81885">
        <ele>2539.8</ele>
        <time>2022-07-19T12:51:34Z</time>
      </trkpt>
      <trkpt lat="44.33071" lon="6.81882">
        <ele>2539.8</ele>
        <time>2022-07-19T12:51:35Z</time>
      </trkpt>
      <trkpt lat="44.3307" lon="6.8188">
        <ele>2539.8</ele>
        <time>2022-07-19T12:51:36Z</time>
      </trkpt>
      <trkpt lat="44.3307" lon="6.81877">
        <ele>2540.2</ele>
        <time>2022-07-19T12:51:37Z</time>
      </trkpt>
      <trkpt lat="44.33069" lon="6.81874">
        <ele>2540.2</ele>
        <time>2022-07-19T12:51:38Z</time>
      </trkpt>
      <trkpt lat="44.33069" lon="6.81871">
        <ele>2540.4</ele>
        <time>2022-07-19T12:51:39Z</time>
      </trkpt>
      <trkpt lat="44.3307" lon="6.81868">
        <ele>2540.4</ele>
        <time>2022-07-19T12:51:40Z</time>
      </trkpt>
      <trkpt lat="44.3307" lon="6.81866">
        <ele>2540.6</ele>
        <time>2022-07-19T12:51:41Z</time>
      </trkpt>
      <trkpt lat="44.33071" lon="6.81863">
        <ele>2540.6</ele>
        <time>2022-07-19T12:51:42Z</time>
      </trkpt>
      <trkpt lat="44.33071" lon="6.8186">
        <ele>2540.6</ele>
        <time>2022-07-19T12:51:43Z</time>
      </trkpt>
      <trkpt lat="44.33072" lon="6.81858">
        <ele>2541</ele>
        <time>2022-07-19T12:51:44Z</time>
      </trkpt>
      <trkpt lat="44.33073" lon="6.81855">
        <ele>2541</ele>
        <time>2022-07-19T12:51:45Z</time>
      </trkpt>
      <trkpt lat="44.33074" lon="6.81852">
        <ele>2541.4</ele>
        <time>2022-07-19T12:51:46Z</time>
      </trkpt>
      <trkpt lat="44.33075" lon="6.8185">
        <ele>2541.4</ele>
        <time>2022-07-19T12:51:47Z</time>
      </trkpt>
      <trkpt lat="44.33076" lon="6.81847">
        <ele>2541.4</ele>
        <time>2022-07-19T12:51:48Z</time>
      </trkpt>
      <trkpt lat="44.33076" lon="6.81844">
        <ele>2541.6</ele>
        <time>2022-07-19T12:51:49Z</time>
      </trkpt>
      <trkpt lat="44.33077" lon="6.81841">
        <ele>2541.6</ele>
        <time>2022-07-19T12:51:50Z</time>
      </trkpt>
      <trkpt lat="44.33077" lon="6.81837">
        <ele>2541.8</ele>
        <time>2022-07-19T12:51:51Z</time>
      </trkpt>
      <trkpt lat="44.33077" lon="6.81834">
        <ele>2542</ele>
        <time>2022-07-19T12:51:52Z</time>
      </trkpt>
      <trkpt lat="44.33078" lon="6.81831">
        <ele>2542.4</ele>
        <time>2022-07-19T12:51:53Z</time>
      </trkpt>
      <trkpt lat="44.33078" lon="6.81828">
        <ele>2542.4</ele>
        <time>2022-07-19T12:51:54Z</time>
      </trkpt>
      <trkpt lat="44.33078" lon="6.81824">
        <ele>2542.6</ele>
        <time>2022-07-19T12:51:55Z</time>
      </trkpt>
      <trkpt lat="44.33078" lon="6.81821">
        <ele>2542.6</ele>
        <time>2022-07-19T12:51:56Z</time>
      </trkpt>
      <trkpt lat="44.33079" lon="6.81819">
        <ele>2542.8</ele>
        <time>2022-07-19T12:51:57Z</time>
      </trkpt>
      <trkpt lat="44.33079" lon="6.81816">
        <ele>2543</ele>
        <time>2022-07-19T12:51:58Z</time>
      </trkpt>
      <trkpt lat="44.33079" lon="6.81813">
        <ele>2543.2</ele>
        <time>2022-07-19T12:51:59Z</time>
      </trkpt>
      <trkpt lat="44.33079" lon="6.8181">
        <ele>2543.2</ele>
        <time>2022-07-19T12:52:00Z</time>
      </trkpt>
      <trkpt lat="44.33079" lon="6.81807">
        <ele>2543.6</ele>
        <time>2022-07-19T12:52:01Z</time>
      </trkpt>
      <trkpt lat="44.33079" lon="6.81804">
        <ele>2543.6</ele>
        <time>2022-07-19T12:52:02Z</time>
      </trkpt>
      <trkpt lat="44.3308" lon="6.81801">
        <ele>2543.8</ele>
        <time>2022-07-19T12:52:03Z</time>
      </trkpt>
      <trkpt lat="44.3308" lon="6.81798">
        <ele>2543.8</ele>
        <time>2022-07-19T12:52:04Z</time>
      </trkpt>
      <trkpt lat="44.3308" lon="6.81795">
        <ele>2544</ele>
        <time>2022-07-19T12:52:05Z</time>
      </trkpt>
      <trkpt lat="44.3308" lon="6.81792">
        <ele>2544</ele>
        <time>2022-07-19T12:52:06Z</time>
      </trkpt>
      <trkpt lat="44.3308" lon="6.8179">
        <ele>2544.4</ele>
        <time>2022-07-19T12:52:07Z</time>
      </trkpt>
      <trkpt lat="44.3308" lon="6.81787">
        <ele>2544.4</ele>
        <time>2022-07-19T12:52:08Z</time>
      </trkpt>
      <trkpt lat="44.33081" lon="6.81784">
        <ele>2544.6</ele>
        <time>2022-07-19T12:52:09Z</time>
      </trkpt>
      <trkpt lat="44.33081" lon="6.81781">
        <ele>2544.6</ele>
        <time>2022-07-19T12:52:10Z</time>
      </trkpt>
      <trkpt lat="44.33081" lon="6.81779">
        <ele>2544.8</ele>
        <time>2022-07-19T12:52:11Z</time>
      </trkpt>
      <trkpt lat="44.33082" lon="6.81776">
        <ele>2544.8</ele>
        <time>2022-07-19T12:52:12Z</time>
      </trkpt>
      <trkpt lat="44.33083" lon="6.81774">
        <ele>2545.2</ele>
        <time>2022-07-19T12:52:13Z</time>
      </trkpt>
      <trkpt lat="44.33083" lon="6.81771">
        <ele>2545.2</ele>
        <time>2022-07-19T12:52:14Z</time>
      </trkpt>
      <trkpt lat="44.33084" lon="6.81768">
        <ele>2545.2</ele>
        <time>2022-07-19T12:52:15Z</time>
      </trkpt>
      <trkpt lat="44.33084" lon="6.81766">
        <ele>2545.6</ele>
        <time>2022-07-19T12:52:16Z</time>
      </trkpt>
      <trkpt lat="44.33084" lon="6.81764">
        <ele>2545.6</ele>
        <time>2022-07-19T12:52:17Z</time>
      </trkpt>
      <trkpt lat="44.33085" lon="6.81761">
        <ele>2545.8</ele>
        <time>2022-07-19T12:52:18Z</time>
      </trkpt>
      <trkpt lat="44.33085" lon="6.81759">
        <ele>2545.8</ele>
        <time>2022-07-19T12:52:19Z</time>
      </trkpt>
      <trkpt lat="44.33086" lon="6.81757">
        <ele>2546</ele>
        <time>2022-07-19T12:52:20Z</time>
      </trkpt>
      <trkpt lat="44.33086" lon="6.81754">
        <ele>2546</ele>
        <time>2022-07-19T12:52:21Z</time>
      </trkpt>
      <trkpt lat="44.33087" lon="6.81751">
        <ele>2546.4</ele>
        <time>2022-07-19T12:52:22Z</time>
      </trkpt>
      <trkpt lat="44.33087" lon="6.81749">
        <ele>2546.4</ele>
        <time>2022-07-19T12:52:23Z</time>
      </trkpt>
      <trkpt lat="44.33088" lon="6.81746">
        <ele>2546.6</ele>
        <time>2022-07-19T12:52:24Z</time>
      </trkpt>
      <trkpt lat="44.33088" lon="6.81743">
        <ele>2546.6</ele>
        <time>2022-07-19T12:52:25Z</time>
      </trkpt>
      <trkpt lat="44.33088" lon="6.81741">
        <ele>2547</ele>
        <time>2022-07-19T12:52:26Z</time>
      </trkpt>
      <trkpt lat="44.33088" lon="6.81738">
        <ele>2547</ele>
        <time>2022-07-19T12:52:27Z</time>
      </trkpt>
      <trkpt lat="44.33087" lon="6.81735">
        <ele>2547.2</ele>
        <time>2022-07-19T12:52:28Z</time>
      </trkpt>
      <trkpt lat="44.33087" lon="6.81733">
        <ele>2547.2</ele>
        <time>2022-07-19T12:52:29Z</time>
      </trkpt>
      <trkpt lat="44.33086" lon="6.8173">
        <ele>2547.4</ele>
        <time>2022-07-19T12:52:30Z</time>
      </trkpt>
      <trkpt lat="44.33086" lon="6.81728">
        <ele>2547.8</ele>
        <time>2022-07-19T12:52:31Z</time>
      </trkpt>
      <trkpt lat="44.33085" lon="6.81725">
        <ele>2547.8</ele>
        <time>2022-07-19T12:52:32Z</time>
      </trkpt>
      <trkpt lat="44.33084" lon="6.81722">
        <ele>2548</ele>
        <time>2022-07-19T12:52:33Z</time>
      </trkpt>
      <trkpt lat="44.33084" lon="6.8172">
        <ele>2548</ele>
        <time>2022-07-19T12:52:34Z</time>
      </trkpt>
      <trkpt lat="44.33083" lon="6.81717">
        <ele>2548</ele>
        <time>2022-07-19T12:52:35Z</time>
      </trkpt>
      <trkpt lat="44.33082" lon="6.81715">
        <ele>2548.4</ele>
        <time>2022-07-19T12:52:36Z</time>
      </trkpt>
      <trkpt lat="44.33081" lon="6.81713">
        <ele>2548.4</ele>
        <time>2022-07-19T12:52:37Z</time>
      </trkpt>
      <trkpt lat="44.3308" lon="6.81711">
        <ele>2548.4</ele>
        <time>2022-07-19T12:52:38Z</time>
      </trkpt>
      <trkpt lat="44.33078" lon="6.81709">
        <ele>2548.6</ele>
        <time>2022-07-19T12:52:39Z</time>
      </trkpt>
      <trkpt lat="44.33077" lon="6.81707">
        <ele>2548.6</ele>
        <time>2022-07-19T12:52:40Z</time>
      </trkpt>
      <trkpt lat="44.33075" lon="6.81706">
        <ele>2549</ele>
        <time>2022-07-19T12:52:41Z</time>
      </trkpt>
      <trkpt lat="44.33073" lon="6.81704">
        <ele>2549</ele>
        <time>2022-07-19T12:52:42Z</time>
      </trkpt>
      <trkpt lat="44.33072" lon="6.81703">
        <ele>2549</ele>
        <time>2022-07-19T12:52:43Z</time>
      </trkpt>
      <trkpt lat="44.3307" lon="6.81701">
        <ele>2549.2</ele>
        <time>2022-07-19T12:52:44Z</time>
      </trkpt>
      <trkpt lat="44.33069" lon="6.81699">
        <ele>2549.2</ele>
        <time>2022-07-19T12:52:45Z</time>
      </trkpt>
      <trkpt lat="44.33067" lon="6.81697">
        <ele>2549.2</ele>
        <time>2022-07-19T12:52:46Z</time>
      </trkpt>
      <trkpt lat="44.33065" lon="6.81695">
        <ele>2549.4</ele>
        <time>2022-07-19T12:52:47Z</time>
      </trkpt>
      <trkpt lat="44.33064" lon="6.81693">
        <ele>2549.4</ele>
        <time>2022-07-19T12:52:48Z</time>
      </trkpt>
      <trkpt lat="44.33062" lon="6.81692">
        <ele>2549.4</ele>
        <time>2022-07-19T12:52:49Z</time>
      </trkpt>
      <trkpt lat="44.33061" lon="6.8169">
        <ele>2549.8</ele>
        <time>2022-07-19T12:52:50Z</time>
      </trkpt>
      <trkpt lat="44.3306" lon="6.81688">
        <ele>2549.8</ele>
        <time>2022-07-19T12:52:51Z</time>
      </trkpt>
      <trkpt lat="44.33058" lon="6.81685">
        <ele>2549.8</ele>
        <time>2022-07-19T12:52:52Z</time>
      </trkpt>
      <trkpt lat="44.33057" lon="6.81683">
        <ele>2550.2</ele>
        <time>2022-07-19T12:52:53Z</time>
      </trkpt>
      <trkpt lat="44.33056" lon="6.8168">
        <ele>2550.2</ele>
        <time>2022-07-19T12:52:54Z</time>
      </trkpt>
      <trkpt lat="44.33055" lon="6.81677">
        <ele>2550.6</ele>
        <time>2022-07-19T12:52:55Z</time>
      </trkpt>
      <trkpt lat="44.33054" lon="6.81675">
        <ele>2550.6</ele>
        <time>2022-07-19T12:52:56Z</time>
      </trkpt>
      <trkpt lat="44.33053" lon="6.81672">
        <ele>2550.8</ele>
        <time>2022-07-19T12:52:57Z</time>
      </trkpt>
      <trkpt lat="44.33053" lon="6.81669">
        <ele>2550.8</ele>
        <time>2022-07-19T12:52:58Z</time>
      </trkpt>
      <trkpt lat="44.33052" lon="6.81667">
        <ele>2551</ele>
        <time>2022-07-19T12:53:00Z</time>
      </trkpt>
      <trkpt lat="44.33052" lon="6.81664">
        <ele>2551</ele>
        <time>2022-07-19T12:53:01Z</time>
      </trkpt>
      <trkpt lat="44.33052" lon="6.81661">
        <ele>2551.4</ele>
        <time>2022-07-19T12:53:02Z</time>
      </trkpt>
      <trkpt lat="44.33052" lon="6.81658">
        <ele>2551.4</ele>
        <time>2022-07-19T12:53:03Z</time>
      </trkpt>
      <trkpt lat="44.33052" lon="6.81655">
        <ele>2551.6</ele>
        <time>2022-07-19T12:53:04Z</time>
      </trkpt>
      <trkpt lat="44.33052" lon="6.81652">
        <ele>2551.6</ele>
        <time>2022-07-19T12:53:05Z</time>
      </trkpt>
      <trkpt lat="44.33052" lon="6.81649">
        <ele>2551.8</ele>
        <time>2022-07-19T12:53:06Z</time>
      </trkpt>
      <trkpt lat="44.33052" lon="6.81646">
        <ele>2552</ele>
        <time>2022-07-19T12:53:07Z</time>
      </trkpt>
      <trkpt lat="44.33052" lon="6.81643">
        <ele>2552</ele>
        <time>2022-07-19T12:53:08Z</time>
      </trkpt>
      <trkpt lat="44.33052" lon="6.8164">
        <ele>2552.4</ele>
        <time>2022-07-19T12:53:09Z</time>
      </trkpt>
      <trkpt lat="44.33052" lon="6.81637">
        <ele>2552.4</ele>
        <time>2022-07-19T12:53:10Z</time>
      </trkpt>
      <trkpt lat="44.33052" lon="6.81634">
        <ele>2552.6</ele>
        <time>2022-07-19T12:53:11Z</time>
      </trkpt>
      <trkpt lat="44.33051" lon="6.81631">
        <ele>2552.6</ele>
        <time>2022-07-19T12:53:12Z</time>
      </trkpt>
      <trkpt lat="44.33051" lon="6.81628">
        <ele>2553</ele>
        <time>2022-07-19T12:53:13Z</time>
      </trkpt>
      <trkpt lat="44.33051" lon="6.81625">
        <ele>2553</ele>
        <time>2022-07-19T12:53:14Z</time>
      </trkpt>
      <trkpt lat="44.33051" lon="6.81623">
        <ele>2553.2</ele>
        <time>2022-07-19T12:53:15Z</time>
      </trkpt>
      <trkpt lat="44.3305" lon="6.8162">
        <ele>2553.2</ele>
        <time>2022-07-19T12:53:16Z</time>
      </trkpt>
      <trkpt lat="44.3305" lon="6.81617">
        <ele>2553.6</ele>
        <time>2022-07-19T12:53:17Z</time>
      </trkpt>
      <trkpt lat="44.3305" lon="6.81614">
        <ele>2553.8</ele>
        <time>2022-07-19T12:53:18Z</time>
      </trkpt>
      <trkpt lat="44.33049" lon="6.81612">
        <ele>2553.8</ele>
        <time>2022-07-19T12:53:19Z</time>
      </trkpt>
      <trkpt lat="44.33049" lon="6.81609">
        <ele>2554</ele>
        <time>2022-07-19T12:53:20Z</time>
      </trkpt>
      <trkpt lat="44.33048" lon="6.81606">
        <ele>2554</ele>
        <time>2022-07-19T12:53:21Z</time>
      </trkpt>
      <trkpt lat="44.33048" lon="6.81604">
        <ele>2554.4</ele>
        <time>2022-07-19T12:53:22Z</time>
      </trkpt>
      <trkpt lat="44.33048" lon="6.81601">
        <ele>2554.4</ele>
        <time>2022-07-19T12:53:23Z</time>
      </trkpt>
      <trkpt lat="44.33048" lon="6.81598">
        <ele>2554.6</ele>
        <time>2022-07-19T12:53:24Z</time>
      </trkpt>
      <trkpt lat="44.33048" lon="6.81596">
        <ele>2554.6</ele>
        <time>2022-07-19T12:53:25Z</time>
      </trkpt>
      <trkpt lat="44.33048" lon="6.81593">
        <ele>2555</ele>
        <time>2022-07-19T12:53:26Z</time>
      </trkpt>
      <trkpt lat="44.33048" lon="6.81591">
        <ele>2555</ele>
        <time>2022-07-19T12:53:27Z</time>
      </trkpt>
      <trkpt lat="44.33048" lon="6.81588">
        <ele>2555.4</ele>
        <time>2022-07-19T12:53:28Z</time>
      </trkpt>
      <trkpt lat="44.33048" lon="6.81586">
        <ele>2555.4</ele>
        <time>2022-07-19T12:53:29Z</time>
      </trkpt>
      <trkpt lat="44.33048" lon="6.81583">
        <ele>2555.6</ele>
        <time>2022-07-19T12:53:30Z</time>
      </trkpt>
      <trkpt lat="44.33048" lon="6.8158">
        <ele>2555.6</ele>
        <time>2022-07-19T12:53:31Z</time>
      </trkpt>
      <trkpt lat="44.33048" lon="6.81578">
        <ele>2555.6</ele>
        <time>2022-07-19T12:53:32Z</time>
      </trkpt>
      <trkpt lat="44.33048" lon="6.81575">
        <ele>2556</ele>
        <time>2022-07-19T12:53:33Z</time>
      </trkpt>
      <trkpt lat="44.33048" lon="6.81572">
        <ele>2556</ele>
        <time>2022-07-19T12:53:34Z</time>
      </trkpt>
      <trkpt lat="44.33048" lon="6.8157">
        <ele>2556.2</ele>
        <time>2022-07-19T12:53:35Z</time>
      </trkpt>
      <trkpt lat="44.33048" lon="6.81567">
        <ele>2556.2</ele>
        <time>2022-07-19T12:53:36Z</time>
      </trkpt>
      <trkpt lat="44.33048" lon="6.81565">
        <ele>2556.6</ele>
        <time>2022-07-19T12:53:37Z</time>
      </trkpt>
      <trkpt lat="44.33049" lon="6.81562">
        <ele>2556.8</ele>
        <time>2022-07-19T12:53:38Z</time>
      </trkpt>
      <trkpt lat="44.33049" lon="6.8156">
        <ele>2556.8</ele>
        <time>2022-07-19T12:53:39Z</time>
      </trkpt>
      <trkpt lat="44.33049" lon="6.81557">
        <ele>2557.2</ele>
        <time>2022-07-19T12:53:40Z</time>
      </trkpt>
      <trkpt lat="44.33049" lon="6.81555">
        <ele>2557.2</ele>
        <time>2022-07-19T12:53:41Z</time>
      </trkpt>
      <trkpt lat="44.33049" lon="6.81552">
        <ele>2557.4</ele>
        <time>2022-07-19T12:53:42Z</time>
      </trkpt>
      <trkpt lat="44.33049" lon="6.81549">
        <ele>2557.4</ele>
        <time>2022-07-19T12:53:43Z</time>
      </trkpt>
      <trkpt lat="44.33049" lon="6.81547">
        <ele>2557.6</ele>
        <time>2022-07-19T12:53:44Z</time>
      </trkpt>
      <trkpt lat="44.33049" lon="6.81544">
        <ele>2557.6</ele>
        <time>2022-07-19T12:53:45Z</time>
      </trkpt>
      <trkpt lat="44.33049" lon="6.81542">
        <ele>2558</ele>
        <time>2022-07-19T12:53:46Z</time>
      </trkpt>
      <trkpt lat="44.33049" lon="6.81539">
        <ele>2558</ele>
        <time>2022-07-19T12:53:47Z</time>
      </trkpt>
      <trkpt lat="44.33049" lon="6.81537">
        <ele>2558.2</ele>
        <time>2022-07-19T12:53:48Z</time>
      </trkpt>
      <trkpt lat="44.33049" lon="6.81534">
        <ele>2558.2</ele>
        <time>2022-07-19T12:53:49Z</time>
      </trkpt>
      <trkpt lat="44.33049" lon="6.81532">
        <ele>2558.2</ele>
        <time>2022-07-19T12:53:50Z</time>
      </trkpt>
      <trkpt lat="44.33049" lon="6.81529">
        <ele>2558.6</ele>
        <time>2022-07-19T12:53:51Z</time>
      </trkpt>
      <trkpt lat="44.33049" lon="6.81527">
        <ele>2558.6</ele>
        <time>2022-07-19T12:53:52Z</time>
      </trkpt>
      <trkpt lat="44.3305" lon="6.81524">
        <ele>2558.8</ele>
        <time>2022-07-19T12:53:53Z</time>
      </trkpt>
      <trkpt lat="44.3305" lon="6.81522">
        <ele>2558.8</ele>
        <time>2022-07-19T12:53:54Z</time>
      </trkpt>
      <trkpt lat="44.3305" lon="6.81519">
        <ele>2559.2</ele>
        <time>2022-07-19T12:53:55Z</time>
      </trkpt>
      <trkpt lat="44.3305" lon="6.81517">
        <ele>2559.2</ele>
        <time>2022-07-19T12:53:56Z</time>
      </trkpt>
      <trkpt lat="44.3305" lon="6.81514">
        <ele>2559.4</ele>
        <time>2022-07-19T12:53:57Z</time>
      </trkpt>
      <trkpt lat="44.3305" lon="6.81511">
        <ele>2559.4</ele>
        <time>2022-07-19T12:53:58Z</time>
      </trkpt>
      <trkpt lat="44.3305" lon="6.81509">
        <ele>2559.6</ele>
        <time>2022-07-19T12:53:59Z</time>
      </trkpt>
      <trkpt lat="44.3305" lon="6.81506">
        <ele>2559.6</ele>
        <time>2022-07-19T12:54:00Z</time>
      </trkpt>
      <trkpt lat="44.3305" lon="6.81503">
        <ele>2560</ele>
        <time>2022-07-19T12:54:01Z</time>
      </trkpt>
      <trkpt lat="44.3305" lon="6.81501">
        <ele>2560</ele>
        <time>2022-07-19T12:54:02Z</time>
      </trkpt>
      <trkpt lat="44.3305" lon="6.81498">
        <ele>2560.2</ele>
        <time>2022-07-19T12:54:03Z</time>
      </trkpt>
      <trkpt lat="44.3305" lon="6.81496">
        <ele>2560.2</ele>
        <time>2022-07-19T12:54:04Z</time>
      </trkpt>
      <trkpt lat="44.3305" lon="6.81493">
        <ele>2560.4</ele>
        <time>2022-07-19T12:54:05Z</time>
      </trkpt>
      <trkpt lat="44.3305" lon="6.81491">
        <ele>2560.4</ele>
        <time>2022-07-19T12:54:06Z</time>
      </trkpt>
      <trkpt lat="44.3305" lon="6.81488">
        <ele>2560.8</ele>
        <time>2022-07-19T12:54:07Z</time>
      </trkpt>
      <trkpt lat="44.33051" lon="6.81486">
        <ele>2561</ele>
        <time>2022-07-19T12:54:08Z</time>
      </trkpt>
      <trkpt lat="44.33051" lon="6.81483">
        <ele>2561</ele>
        <time>2022-07-19T12:54:09Z</time>
      </trkpt>
      <trkpt lat="44.33051" lon="6.81481">
        <ele>2561.2</ele>
        <time>2022-07-19T12:54:10Z</time>
      </trkpt>
      <trkpt lat="44.33051" lon="6.81479">
        <ele>2561.2</ele>
        <time>2022-07-19T12:54:11Z</time>
      </trkpt>
      <trkpt lat="44.33051" lon="6.81476">
        <ele>2561.4</ele>
        <time>2022-07-19T12:54:12Z</time>
      </trkpt>
      <trkpt lat="44.33051" lon="6.81474">
        <ele>2561.4</ele>
        <time>2022-07-19T12:54:13Z</time>
      </trkpt>
      <trkpt lat="44.33051" lon="6.81472">
        <ele>2561.6</ele>
        <time>2022-07-19T12:54:14Z</time>
      </trkpt>
      <trkpt lat="44.33052" lon="6.8147">
        <ele>2561.6</ele>
        <time>2022-07-19T12:54:15Z</time>
      </trkpt>
      <trkpt lat="44.33052" lon="6.81467">
        <ele>2561.8</ele>
        <time>2022-07-19T12:54:16Z</time>
      </trkpt>
      <trkpt lat="44.33052" lon="6.81465">
        <ele>2561.8</ele>
        <time>2022-07-19T12:54:17Z</time>
      </trkpt>
      <trkpt lat="44.33052" lon="6.81463">
        <ele>2562.2</ele>
        <time>2022-07-19T12:54:18Z</time>
      </trkpt>
      <trkpt lat="44.33053" lon="6.81461">
        <ele>2562.2</ele>
        <time>2022-07-19T12:54:19Z</time>
      </trkpt>
      <trkpt lat="44.33053" lon="6.81459">
        <ele>2562.2</ele>
        <time>2022-07-19T12:54:20Z</time>
      </trkpt>
      <trkpt lat="44.33053" lon="6.81456">
        <ele>2562.4</ele>
        <time>2022-07-19T12:54:21Z</time>
      </trkpt>
      <trkpt lat="44.33053" lon="6.81454">
        <ele>2562.4</ele>
        <time>2022-07-19T12:54:22Z</time>
      </trkpt>
      <trkpt lat="44.33053" lon="6.81452">
        <ele>2562.8</ele>
        <time>2022-07-19T12:54:23Z</time>
      </trkpt>
      <trkpt lat="44.33053" lon="6.8145">
        <ele>2562.8</ele>
        <time>2022-07-19T12:54:24Z</time>
      </trkpt>
      <trkpt lat="44.33054" lon="6.81447">
        <ele>2563</ele>
        <time>2022-07-19T12:54:25Z</time>
      </trkpt>
      <trkpt lat="44.33054" lon="6.81445">
        <ele>2563</ele>
        <time>2022-07-19T12:54:26Z</time>
      </trkpt>
      <trkpt lat="44.33054" lon="6.81443">
        <ele>2563</ele>
        <time>2022-07-19T12:54:27Z</time>
      </trkpt>
      <trkpt lat="44.33054" lon="6.81441">
        <ele>2563.4</ele>
        <time>2022-07-19T12:54:28Z</time>
      </trkpt>
      <trkpt lat="44.33054" lon="6.81439">
        <ele>2563.4</ele>
        <time>2022-07-19T12:54:29Z</time>
      </trkpt>
      <trkpt lat="44.33055" lon="6.81437">
        <ele>2563.8</ele>
        <time>2022-07-19T12:54:30Z</time>
      </trkpt>
      <trkpt lat="44.33056" lon="6.81432">
        <ele>2563.8</ele>
        <time>2022-07-19T12:54:31Z</time>
      </trkpt>
      <trkpt lat="44.33056" lon="6.8143">
        <ele>2564</ele>
        <time>2022-07-19T12:54:32Z</time>
      </trkpt>
      <trkpt lat="44.33056" lon="6.81428">
        <ele>2564</ele>
        <time>2022-07-19T12:54:33Z</time>
      </trkpt>
      <trkpt lat="44.33057" lon="6.81425">
        <ele>2564.2</ele>
        <time>2022-07-19T12:54:34Z</time>
      </trkpt>
      <trkpt lat="44.33057" lon="6.81423">
        <ele>2564.2</ele>
        <time>2022-07-19T12:54:35Z</time>
      </trkpt>
      <trkpt lat="44.33057" lon="6.81421">
        <ele>2564.6</ele>
        <time>2022-07-19T12:54:36Z</time>
      </trkpt>
      <trkpt lat="44.33058" lon="6.81419">
        <ele>2564.6</ele>
        <time>2022-07-19T12:54:37Z</time>
      </trkpt>
      <trkpt lat="44.33058" lon="6.81416">
        <ele>2565</ele>
        <time>2022-07-19T12:54:38Z</time>
      </trkpt>
      <trkpt lat="44.33058" lon="6.81414">
        <ele>2565.2</ele>
        <time>2022-07-19T12:54:39Z</time>
      </trkpt>
      <trkpt lat="44.33059" lon="6.81412">
        <ele>2565.2</ele>
        <time>2022-07-19T12:54:40Z</time>
      </trkpt>
      <trkpt lat="44.33059" lon="6.8141">
        <ele>2565.4</ele>
        <time>2022-07-19T12:54:41Z</time>
      </trkpt>
      <trkpt lat="44.33059" lon="6.81407">
        <ele>2565.4</ele>
        <time>2022-07-19T12:54:42Z</time>
      </trkpt>
      <trkpt lat="44.3306" lon="6.81405">
        <ele>2565.6</ele>
        <time>2022-07-19T12:54:43Z</time>
      </trkpt>
      <trkpt lat="44.3306" lon="6.81403">
        <ele>2565.6</ele>
        <time>2022-07-19T12:54:44Z</time>
      </trkpt>
      <trkpt lat="44.3306" lon="6.814">
        <ele>2565.6</ele>
        <time>2022-07-19T12:54:45Z</time>
      </trkpt>
      <trkpt lat="44.33061" lon="6.81398">
        <ele>2565.8</ele>
        <time>2022-07-19T12:54:46Z</time>
      </trkpt>
      <trkpt lat="44.33061" lon="6.81396">
        <ele>2565.8</ele>
        <time>2022-07-19T12:54:47Z</time>
      </trkpt>
      <trkpt lat="44.33061" lon="6.81394">
        <ele>2565.8</ele>
        <time>2022-07-19T12:54:48Z</time>
      </trkpt>
      <trkpt lat="44.33061" lon="6.81391">
        <ele>2566.2</ele>
        <time>2022-07-19T12:54:49Z</time>
      </trkpt>
      <trkpt lat="44.33062" lon="6.81389">
        <ele>2566.2</ele>
        <time>2022-07-19T12:54:50Z</time>
      </trkpt>
      <trkpt lat="44.33062" lon="6.81387">
        <ele>2566.4</ele>
        <time>2022-07-19T12:54:51Z</time>
      </trkpt>
      <trkpt lat="44.33062" lon="6.81385">
        <ele>2566.4</ele>
        <time>2022-07-19T12:54:52Z</time>
      </trkpt>
      <trkpt lat="44.33063" lon="6.81383">
        <ele>2566.8</ele>
        <time>2022-07-19T12:54:53Z</time>
      </trkpt>
      <trkpt lat="44.33064" lon="6.8138">
        <ele>2566.8</ele>
        <time>2022-07-19T12:54:54Z</time>
      </trkpt>
      <trkpt lat="44.33065" lon="6.81378">
        <ele>2566.8</ele>
        <time>2022-07-19T12:54:55Z</time>
      </trkpt>
      <trkpt lat="44.33065" lon="6.81376">
        <ele>2567</ele>
        <time>2022-07-19T12:54:56Z</time>
      </trkpt>
      <trkpt lat="44.33066" lon="6.81374">
        <ele>2567</ele>
        <time>2022-07-19T12:54:57Z</time>
      </trkpt>
      <trkpt lat="44.33067" lon="6.81371">
        <ele>2567.4</ele>
        <time>2022-07-19T12:54:58Z</time>
      </trkpt>
      <trkpt lat="44.33067" lon="6.81369">
        <ele>2567.4</ele>
        <time>2022-07-19T12:54:59Z</time>
      </trkpt>
      <trkpt lat="44.33067" lon="6.81367">
        <ele>2567.6</ele>
        <time>2022-07-19T12:55:00Z</time>
      </trkpt>
      <trkpt lat="44.33068" lon="6.81365">
        <ele>2567.6</ele>
        <time>2022-07-19T12:55:01Z</time>
      </trkpt>
      <trkpt lat="44.33068" lon="6.81363">
        <ele>2567.8</ele>
        <time>2022-07-19T12:55:02Z</time>
      </trkpt>
      <trkpt lat="44.33069" lon="6.81361">
        <ele>2567.8</ele>
        <time>2022-07-19T12:55:03Z</time>
      </trkpt>
      <trkpt lat="44.33069" lon="6.81359">
        <ele>2568.2</ele>
        <time>2022-07-19T12:55:04Z</time>
      </trkpt>
      <trkpt lat="44.3307" lon="6.81357">
        <ele>2568.2</ele>
        <time>2022-07-19T12:55:05Z</time>
      </trkpt>
      <trkpt lat="44.3307" lon="6.81356">
        <ele>2568.4</ele>
        <time>2022-07-19T12:55:06Z</time>
      </trkpt>
      <trkpt lat="44.33071" lon="6.81354">
        <ele>2568.4</ele>
        <time>2022-07-19T12:55:07Z</time>
      </trkpt>
      <trkpt lat="44.33072" lon="6.81352">
        <ele>2568.4</ele>
        <time>2022-07-19T12:55:08Z</time>
      </trkpt>
      <trkpt lat="44.33073" lon="6.81351">
        <ele>2568.6</ele>
        <time>2022-07-19T12:55:09Z</time>
      </trkpt>
      <trkpt lat="44.33074" lon="6.81349">
        <ele>2568.6</ele>
        <time>2022-07-19T12:55:10Z</time>
      </trkpt>
      <trkpt lat="44.33075" lon="6.81347">
        <ele>2568.6</ele>
        <time>2022-07-19T12:55:11Z</time>
      </trkpt>
      <trkpt lat="44.33076" lon="6.81344">
        <ele>2568.8</ele>
        <time>2022-07-19T12:55:12Z</time>
      </trkpt>
      <trkpt lat="44.33077" lon="6.81342">
        <ele>2568.8</ele>
        <time>2022-07-19T12:55:13Z</time>
      </trkpt>
      <trkpt lat="44.33077" lon="6.8134">
        <ele>2569.2</ele>
        <time>2022-07-19T12:55:14Z</time>
      </trkpt>
      <trkpt lat="44.33079" lon="6.81338">
        <ele>2569.2</ele>
        <time>2022-07-19T12:55:15Z</time>
      </trkpt>
      <trkpt lat="44.33079" lon="6.81336">
        <ele>2569.2</ele>
        <time>2022-07-19T12:55:16Z</time>
      </trkpt>
      <trkpt lat="44.3308" lon="6.81334">
        <ele>2569.2</ele>
        <time>2022-07-19T12:55:17Z</time>
      </trkpt>
      <trkpt lat="44.33081" lon="6.81331">
        <ele>2569.4</ele>
        <time>2022-07-19T12:55:18Z</time>
      </trkpt>
      <trkpt lat="44.33082" lon="6.81329">
        <ele>2569.4</ele>
        <time>2022-07-19T12:55:19Z</time>
      </trkpt>
      <trkpt lat="44.33083" lon="6.81327">
        <ele>2569.6</ele>
        <time>2022-07-19T12:55:20Z</time>
      </trkpt>
      <trkpt lat="44.33084" lon="6.81325">
        <ele>2569.6</ele>
        <time>2022-07-19T12:55:21Z</time>
      </trkpt>
      <trkpt lat="44.33085" lon="6.81323">
        <ele>2570</ele>
        <time>2022-07-19T12:55:22Z</time>
      </trkpt>
      <trkpt lat="44.33086" lon="6.8132">
        <ele>2570</ele>
        <time>2022-07-19T12:55:23Z</time>
      </trkpt>
      <trkpt lat="44.33086" lon="6.81318">
        <ele>2570.2</ele>
        <time>2022-07-19T12:55:24Z</time>
      </trkpt>
      <trkpt lat="44.33087" lon="6.81316">
        <ele>2570.2</ele>
        <time>2022-07-19T12:55:25Z</time>
      </trkpt>
      <trkpt lat="44.33088" lon="6.81313">
        <ele>2570.2</ele>
        <time>2022-07-19T12:55:26Z</time>
      </trkpt>
      <trkpt lat="44.33089" lon="6.81311">
        <ele>2570.6</ele>
        <time>2022-07-19T12:55:27Z</time>
      </trkpt>
      <trkpt lat="44.3309" lon="6.81309">
        <ele>2570.6</ele>
        <time>2022-07-19T12:55:28Z</time>
      </trkpt>
      <trkpt lat="44.33091" lon="6.81306">
        <ele>2570.8</ele>
        <time>2022-07-19T12:55:29Z</time>
      </trkpt>
      <trkpt lat="44.33091" lon="6.81304">
        <ele>2570.8</ele>
        <time>2022-07-19T12:55:30Z</time>
      </trkpt>
      <trkpt lat="44.33092" lon="6.81301">
        <ele>2571</ele>
        <time>2022-07-19T12:55:31Z</time>
      </trkpt>
      <trkpt lat="44.33092" lon="6.81299">
        <ele>2571</ele>
        <time>2022-07-19T12:55:32Z</time>
      </trkpt>
      <trkpt lat="44.33092" lon="6.81297">
        <ele>2571.2</ele>
        <time>2022-07-19T12:55:33Z</time>
      </trkpt>
      <trkpt lat="44.33093" lon="6.81294">
        <ele>2571.2</ele>
        <time>2022-07-19T12:55:34Z</time>
      </trkpt>
      <trkpt lat="44.33093" lon="6.81292">
        <ele>2571.6</ele>
        <time>2022-07-19T12:55:35Z</time>
      </trkpt>
      <trkpt lat="44.33093" lon="6.81289">
        <ele>2571.6</ele>
        <time>2022-07-19T12:55:36Z</time>
      </trkpt>
      <trkpt lat="44.33093" lon="6.81287">
        <ele>2571.8</ele>
        <time>2022-07-19T12:55:37Z</time>
      </trkpt>
      <trkpt lat="44.33093" lon="6.81285">
        <ele>2571.8</ele>
        <time>2022-07-19T12:55:38Z</time>
      </trkpt>
      <trkpt lat="44.33093" lon="6.81282">
        <ele>2572</ele>
        <time>2022-07-19T12:55:39Z</time>
      </trkpt>
      <trkpt lat="44.33093" lon="6.8128">
        <ele>2572</ele>
        <time>2022-07-19T12:55:40Z</time>
      </trkpt>
      <trkpt lat="44.33093" lon="6.81277">
        <ele>2572.4</ele>
        <time>2022-07-19T12:55:41Z</time>
      </trkpt>
      <trkpt lat="44.33093" lon="6.81275">
        <ele>2572.4</ele>
        <time>2022-07-19T12:55:42Z</time>
      </trkpt>
      <trkpt lat="44.33093" lon="6.81273">
        <ele>2572.6</ele>
        <time>2022-07-19T12:55:43Z</time>
      </trkpt>
      <trkpt lat="44.33092" lon="6.81271">
        <ele>2572.8</ele>
        <time>2022-07-19T12:55:44Z</time>
      </trkpt>
      <trkpt lat="44.33092" lon="6.81268">
        <ele>2572.8</ele>
        <time>2022-07-19T12:55:45Z</time>
      </trkpt>
      <trkpt lat="44.33092" lon="6.81265">
        <ele>2573.2</ele>
        <time>2022-07-19T12:55:46Z</time>
      </trkpt>
      <trkpt lat="44.33092" lon="6.81263">
        <ele>2573.2</ele>
        <time>2022-07-19T12:55:47Z</time>
      </trkpt>
      <trkpt lat="44.33092" lon="6.8126">
        <ele>2573.2</ele>
        <time>2022-07-19T12:55:48Z</time>
      </trkpt>
      <trkpt lat="44.33092" lon="6.81258">
        <ele>2573.6</ele>
        <time>2022-07-19T12:55:49Z</time>
      </trkpt>
      <trkpt lat="44.33092" lon="6.81255">
        <ele>2573.8</ele>
        <time>2022-07-19T12:55:50Z</time>
      </trkpt>
      <trkpt lat="44.33092" lon="6.81253">
        <ele>2573.8</ele>
        <time>2022-07-19T12:55:51Z</time>
      </trkpt>
      <trkpt lat="44.33092" lon="6.8125">
        <ele>2574</ele>
        <time>2022-07-19T12:55:52Z</time>
      </trkpt>
      <trkpt lat="44.33092" lon="6.81248">
        <ele>2574</ele>
        <time>2022-07-19T12:55:53Z</time>
      </trkpt>
      <trkpt lat="44.33092" lon="6.81245">
        <ele>2574.4</ele>
        <time>2022-07-19T12:55:54Z</time>
      </trkpt>
      <trkpt lat="44.33093" lon="6.81243">
        <ele>2574.4</ele>
        <time>2022-07-19T12:55:55Z</time>
      </trkpt>
      <trkpt lat="44.33093" lon="6.81241">
        <ele>2574.6</ele>
        <time>2022-07-19T12:55:56Z</time>
      </trkpt>
      <trkpt lat="44.33093" lon="6.81238">
        <ele>2574.6</ele>
        <time>2022-07-19T12:55:57Z</time>
      </trkpt>
      <trkpt lat="44.33094" lon="6.81236">
        <ele>2574.8</ele>
        <time>2022-07-19T12:55:58Z</time>
      </trkpt>
      <trkpt lat="44.33094" lon="6.81233">
        <ele>2574.8</ele>
        <time>2022-07-19T12:55:59Z</time>
      </trkpt>
      <trkpt lat="44.33093" lon="6.81231">
        <ele>2575.2</ele>
        <time>2022-07-19T12:56:00Z</time>
      </trkpt>
      <trkpt lat="44.33094" lon="6.81228">
        <ele>2575.2</ele>
        <time>2022-07-19T12:56:01Z</time>
      </trkpt>
      <trkpt lat="44.33094" lon="6.81226">
        <ele>2575.4</ele>
        <time>2022-07-19T12:56:02Z</time>
      </trkpt>
      <trkpt lat="44.33094" lon="6.81223">
        <ele>2575.6</ele>
        <time>2022-07-19T12:56:04Z</time>
      </trkpt>
      <trkpt lat="44.33093" lon="6.81221">
        <ele>2575.6</ele>
        <time>2022-07-19T12:56:05Z</time>
      </trkpt>
      <trkpt lat="44.33093" lon="6.81219">
        <ele>2576</ele>
        <time>2022-07-19T12:56:06Z</time>
      </trkpt>
      <trkpt lat="44.33093" lon="6.81217">
        <ele>2576</ele>
        <time>2022-07-19T12:56:07Z</time>
      </trkpt>
      <trkpt lat="44.33092" lon="6.81215">
        <ele>2576.2</ele>
        <time>2022-07-19T12:56:08Z</time>
      </trkpt>
      <trkpt lat="44.33092" lon="6.81213">
        <ele>2576.2</ele>
        <time>2022-07-19T12:56:09Z</time>
      </trkpt>
      <trkpt lat="44.33092" lon="6.81211">
        <ele>2576.6</ele>
        <time>2022-07-19T12:56:10Z</time>
      </trkpt>
      <trkpt lat="44.33092" lon="6.81209">
        <ele>2576.6</ele>
        <time>2022-07-19T12:56:11Z</time>
      </trkpt>
      <trkpt lat="44.33091" lon="6.81207">
        <ele>2577</ele>
        <time>2022-07-19T12:56:12Z</time>
      </trkpt>
      <trkpt lat="44.33091" lon="6.81205">
        <ele>2577</ele>
        <time>2022-07-19T12:56:13Z</time>
      </trkpt>
      <trkpt lat="44.3309" lon="6.81203">
        <ele>2577.4</ele>
        <time>2022-07-19T12:56:14Z</time>
      </trkpt>
      <trkpt lat="44.3309" lon="6.81201">
        <ele>2577.4</ele>
        <time>2022-07-19T12:56:15Z</time>
      </trkpt>
      <trkpt lat="44.3309" lon="6.81199">
        <ele>2577.6</ele>
        <time>2022-07-19T12:56:16Z</time>
      </trkpt>
      <trkpt lat="44.3309" lon="6.81197">
        <ele>2577.6</ele>
        <time>2022-07-19T12:56:17Z</time>
      </trkpt>
      <trkpt lat="44.33089" lon="6.81195">
        <ele>2577.8</ele>
        <time>2022-07-19T12:56:18Z</time>
      </trkpt>
      <trkpt lat="44.33089" lon="6.81193">
        <ele>2577.8</ele>
        <time>2022-07-19T12:56:19Z</time>
      </trkpt>
      <trkpt lat="44.33089" lon="6.81191">
        <ele>2578.2</ele>
        <time>2022-07-19T12:56:20Z</time>
      </trkpt>
      <trkpt lat="44.33088" lon="6.81189">
        <ele>2578.4</ele>
        <time>2022-07-19T12:56:21Z</time>
      </trkpt>
      <trkpt lat="44.33088" lon="6.81187">
        <ele>2578.4</ele>
        <time>2022-07-19T12:56:22Z</time>
      </trkpt>
      <trkpt lat="44.33087" lon="6.81185">
        <ele>2578.6</ele>
        <time>2022-07-19T12:56:23Z</time>
      </trkpt>
      <trkpt lat="44.33086" lon="6.81183">
        <ele>2578.6</ele>
        <time>2022-07-19T12:56:24Z</time>
      </trkpt>
      <trkpt lat="44.33085" lon="6.81181">
        <ele>2578.8</ele>
        <time>2022-07-19T12:56:25Z</time>
      </trkpt>
      <trkpt lat="44.33085" lon="6.81178">
        <ele>2578.8</ele>
        <time>2022-07-19T12:56:26Z</time>
      </trkpt>
      <trkpt lat="44.33085" lon="6.81176">
        <ele>2578.8</ele>
        <time>2022-07-19T12:56:27Z</time>
      </trkpt>
      <trkpt lat="44.33084" lon="6.81174">
        <ele>2579.2</ele>
        <time>2022-07-19T12:56:28Z</time>
      </trkpt>
      <trkpt lat="44.33083" lon="6.81172">
        <ele>2579.2</ele>
        <time>2022-07-19T12:56:29Z</time>
      </trkpt>
      <trkpt lat="44.33083" lon="6.8117">
        <ele>2579.4</ele>
        <time>2022-07-19T12:56:30Z</time>
      </trkpt>
      <trkpt lat="44.33082" lon="6.81168">
        <ele>2579.4</ele>
        <time>2022-07-19T12:56:31Z</time>
      </trkpt>
      <trkpt lat="44.33081" lon="6.81166">
        <ele>2579.6</ele>
        <time>2022-07-19T12:56:32Z</time>
      </trkpt>
      <trkpt lat="44.3308" lon="6.81164">
        <ele>2579.6</ele>
        <time>2022-07-19T12:56:33Z</time>
      </trkpt>
      <trkpt lat="44.33079" lon="6.81162">
        <ele>2580</ele>
        <time>2022-07-19T12:56:34Z</time>
      </trkpt>
      <trkpt lat="44.33079" lon="6.81159">
        <ele>2580</ele>
        <time>2022-07-19T12:56:35Z</time>
      </trkpt>
      <trkpt lat="44.33078" lon="6.81157">
        <ele>2580.2</ele>
        <time>2022-07-19T12:56:36Z</time>
      </trkpt>
      <trkpt lat="44.33078" lon="6.81155">
        <ele>2580.2</ele>
        <time>2022-07-19T12:56:37Z</time>
      </trkpt>
      <trkpt lat="44.33077" lon="6.81153">
        <ele>2580.4</ele>
        <time>2022-07-19T12:56:38Z</time>
      </trkpt>
      <trkpt lat="44.33077" lon="6.8115">
        <ele>2580.4</ele>
        <time>2022-07-19T12:56:39Z</time>
      </trkpt>
      <trkpt lat="44.33076" lon="6.81148">
        <ele>2580.6</ele>
        <time>2022-07-19T12:56:40Z</time>
      </trkpt>
      <trkpt lat="44.33075" lon="6.81146">
        <ele>2580.6</ele>
        <time>2022-07-19T12:56:41Z</time>
      </trkpt>
      <trkpt lat="44.33075" lon="6.81144">
        <ele>2580.6</ele>
        <time>2022-07-19T12:56:42Z</time>
      </trkpt>
      <trkpt lat="44.33074" lon="6.81142">
        <ele>2581</ele>
        <time>2022-07-19T12:56:43Z</time>
      </trkpt>
      <trkpt lat="44.33073" lon="6.8114">
        <ele>2581</ele>
        <time>2022-07-19T12:56:44Z</time>
      </trkpt>
      <trkpt lat="44.33072" lon="6.81138">
        <ele>2581.2</ele>
        <time>2022-07-19T12:56:45Z</time>
      </trkpt>
      <trkpt lat="44.33071" lon="6.81135">
        <ele>2581.2</ele>
        <time>2022-07-19T12:56:46Z</time>
      </trkpt>
      <trkpt lat="44.3307" lon="6.81133">
        <ele>2581.4</ele>
        <time>2022-07-19T12:56:47Z</time>
      </trkpt>
      <trkpt lat="44.3307" lon="6.81131">
        <ele>2581.4</ele>
        <time>2022-07-19T12:56:48Z</time>
      </trkpt>
      <trkpt lat="44.33069" lon="6.81129">
        <ele>2581.8</ele>
        <time>2022-07-19T12:56:49Z</time>
      </trkpt>
      <trkpt lat="44.33068" lon="6.81127">
        <ele>2581.8</ele>
        <time>2022-07-19T12:56:50Z</time>
      </trkpt>
      <trkpt lat="44.33068" lon="6.81125">
        <ele>2582</ele>
        <time>2022-07-19T12:56:51Z</time>
      </trkpt>
      <trkpt lat="44.33067" lon="6.81123">
        <ele>2582</ele>
        <time>2022-07-19T12:56:52Z</time>
      </trkpt>
      <trkpt lat="44.33066" lon="6.81121">
        <ele>2582</ele>
        <time>2022-07-19T12:56:53Z</time>
      </trkpt>
      <trkpt lat="44.33065" lon="6.81119">
        <ele>2582.4</ele>
        <time>2022-07-19T12:56:54Z</time>
      </trkpt>
      <trkpt lat="44.33064" lon="6.81118">
        <ele>2582.6</ele>
        <time>2022-07-19T12:56:55Z</time>
      </trkpt>
      <trkpt lat="44.33063" lon="6.81116">
        <ele>2582.6</ele>
        <time>2022-07-19T12:56:56Z</time>
      </trkpt>
      <trkpt lat="44.33062" lon="6.81114">
        <ele>2583</ele>
        <time>2022-07-19T12:56:57Z</time>
      </trkpt>
      <trkpt lat="44.3306" lon="6.81113">
        <ele>2583</ele>
        <time>2022-07-19T12:56:58Z</time>
      </trkpt>
      <trkpt lat="44.33059" lon="6.81111">
        <ele>2583.2</ele>
        <time>2022-07-19T12:56:59Z</time>
      </trkpt>
      <trkpt lat="44.33058" lon="6.81109">
        <ele>2583.2</ele>
        <time>2022-07-19T12:57:00Z</time>
      </trkpt>
      <trkpt lat="44.33057" lon="6.81107">
        <ele>2583.6</ele>
        <time>2022-07-19T12:57:01Z</time>
      </trkpt>
      <trkpt lat="44.33056" lon="6.81105">
        <ele>2583.6</ele>
        <time>2022-07-19T12:57:02Z</time>
      </trkpt>
      <trkpt lat="44.33055" lon="6.81103">
        <ele>2583.8</ele>
        <time>2022-07-19T12:57:03Z</time>
      </trkpt>
      <trkpt lat="44.33054" lon="6.81101">
        <ele>2583.8</ele>
        <time>2022-07-19T12:57:04Z</time>
      </trkpt>
      <trkpt lat="44.33053" lon="6.811">
        <ele>2584.2</ele>
        <time>2022-07-19T12:57:05Z</time>
      </trkpt>
      <trkpt lat="44.33052" lon="6.81098">
        <ele>2584.2</ele>
        <time>2022-07-19T12:57:06Z</time>
      </trkpt>
      <trkpt lat="44.3305" lon="6.81096">
        <ele>2584.4</ele>
        <time>2022-07-19T12:57:07Z</time>
      </trkpt>
      <trkpt lat="44.33049" lon="6.81095">
        <ele>2584.4</ele>
        <time>2022-07-19T12:57:08Z</time>
      </trkpt>
      <trkpt lat="44.33048" lon="6.81093">
        <ele>2584.8</ele>
        <time>2022-07-19T12:57:09Z</time>
      </trkpt>
      <trkpt lat="44.33046" lon="6.81092">
        <ele>2584.8</ele>
        <time>2022-07-19T12:57:10Z</time>
      </trkpt>
      <trkpt lat="44.33045" lon="6.81091">
        <ele>2585</ele>
        <time>2022-07-19T12:57:11Z</time>
      </trkpt>
      <trkpt lat="44.33043" lon="6.81089">
        <ele>2585</ele>
        <time>2022-07-19T12:57:12Z</time>
      </trkpt>
      <trkpt lat="44.33042" lon="6.81088">
        <ele>2585.2</ele>
        <time>2022-07-19T12:57:13Z</time>
      </trkpt>
      <trkpt lat="44.3304" lon="6.81086">
        <ele>2585.2</ele>
        <time>2022-07-19T12:57:14Z</time>
      </trkpt>
      <trkpt lat="44.33039" lon="6.81085">
        <ele>2585.2</ele>
        <time>2022-07-19T12:57:15Z</time>
      </trkpt>
      <trkpt lat="44.33037" lon="6.81084">
        <ele>2585.6</ele>
        <time>2022-07-19T12:57:16Z</time>
      </trkpt>
      <trkpt lat="44.33035" lon="6.81083">
        <ele>2585.6</ele>
        <time>2022-07-19T12:57:17Z</time>
      </trkpt>
      <trkpt lat="44.33034" lon="6.81082">
        <ele>2586</ele>
        <time>2022-07-19T12:57:18Z</time>
      </trkpt>
      <trkpt lat="44.33032" lon="6.81081">
        <ele>2586</ele>
        <time>2022-07-19T12:57:19Z</time>
      </trkpt>
      <trkpt lat="44.3303" lon="6.81081">
        <ele>2586.2</ele>
        <time>2022-07-19T12:57:20Z</time>
      </trkpt>
      <trkpt lat="44.33029" lon="6.8108">
        <ele>2586.2</ele>
        <time>2022-07-19T12:57:21Z</time>
      </trkpt>
      <trkpt lat="44.33027" lon="6.81079">
        <ele>2586.4</ele>
        <time>2022-07-19T12:57:22Z</time>
      </trkpt>
      <trkpt lat="44.33025" lon="6.81078">
        <ele>2586.4</ele>
        <time>2022-07-19T12:57:23Z</time>
      </trkpt>
      <trkpt lat="44.33023" lon="6.81078">
        <ele>2586.6</ele>
        <time>2022-07-19T12:57:24Z</time>
      </trkpt>
      <trkpt lat="44.33022" lon="6.81077">
        <ele>2586.6</ele>
        <time>2022-07-19T12:57:25Z</time>
      </trkpt>
      <trkpt lat="44.3302" lon="6.81076">
        <ele>2586.6</ele>
        <time>2022-07-19T12:57:26Z</time>
      </trkpt>
      <trkpt lat="44.33018" lon="6.81075">
        <ele>2587</ele>
        <time>2022-07-19T12:57:27Z</time>
      </trkpt>
      <trkpt lat="44.33016" lon="6.81074">
        <ele>2587</ele>
        <time>2022-07-19T12:57:28Z</time>
      </trkpt>
      <trkpt lat="44.33014" lon="6.81074">
        <ele>2587.2</ele>
        <time>2022-07-19T12:57:29Z</time>
      </trkpt>
      <trkpt lat="44.33012" lon="6.81073">
        <ele>2587.2</ele>
        <time>2022-07-19T12:57:30Z</time>
      </trkpt>
      <trkpt lat="44.3301" lon="6.81072">
        <ele>2587.4</ele>
        <time>2022-07-19T12:57:31Z</time>
      </trkpt>
      <trkpt lat="44.33008" lon="6.81071">
        <ele>2587.4</ele>
        <time>2022-07-19T12:57:32Z</time>
      </trkpt>
      <trkpt lat="44.33006" lon="6.8107">
        <ele>2587.4</ele>
        <time>2022-07-19T12:57:33Z</time>
      </trkpt>
      <trkpt lat="44.33004" lon="6.81069">
        <ele>2587.8</ele>
        <time>2022-07-19T12:57:34Z</time>
      </trkpt>
      <trkpt lat="44.33002" lon="6.81068">
        <ele>2587.8</ele>
        <time>2022-07-19T12:57:35Z</time>
      </trkpt>
      <trkpt lat="44.33" lon="6.81067">
        <ele>2588</ele>
        <time>2022-07-19T12:57:36Z</time>
      </trkpt>
      <trkpt lat="44.32998" lon="6.81066">
        <ele>2588</ele>
        <time>2022-07-19T12:57:37Z</time>
      </trkpt>
      <trkpt lat="44.32996" lon="6.81066">
        <ele>2588.4</ele>
        <time>2022-07-19T12:57:38Z</time>
      </trkpt>
      <trkpt lat="44.32994" lon="6.81065">
        <ele>2588.4</ele>
        <time>2022-07-19T12:57:39Z</time>
      </trkpt>
      <trkpt lat="44.32992" lon="6.81065">
        <ele>2588.4</ele>
        <time>2022-07-19T12:57:40Z</time>
      </trkpt>
      <trkpt lat="44.3299" lon="6.81064">
        <ele>2588.4</ele>
        <time>2022-07-19T12:57:41Z</time>
      </trkpt>
      <trkpt lat="44.32988" lon="6.81063">
        <ele>2588.6</ele>
        <time>2022-07-19T12:57:42Z</time>
      </trkpt>
      <trkpt lat="44.32986" lon="6.81063">
        <ele>2588.8</ele>
        <time>2022-07-19T12:57:43Z</time>
      </trkpt>
      <trkpt lat="44.32984" lon="6.81062">
        <ele>2588.8</ele>
        <time>2022-07-19T12:57:44Z</time>
      </trkpt>
      <trkpt lat="44.32982" lon="6.81061">
        <ele>2589.2</ele>
        <time>2022-07-19T12:57:45Z</time>
      </trkpt>
      <trkpt lat="44.3298" lon="6.8106">
        <ele>2589.2</ele>
        <time>2022-07-19T12:57:46Z</time>
      </trkpt>
      <trkpt lat="44.32978" lon="6.81058">
        <ele>2589.4</ele>
        <time>2022-07-19T12:57:47Z</time>
      </trkpt>
      <trkpt lat="44.32976" lon="6.81057">
        <ele>2589.4</ele>
        <time>2022-07-19T12:57:48Z</time>
      </trkpt>
      <trkpt lat="44.32974" lon="6.81056">
        <ele>2589.8</ele>
        <time>2022-07-19T12:57:49Z</time>
      </trkpt>
      <trkpt lat="44.32972" lon="6.81056">
        <ele>2589.8</ele>
        <time>2022-07-19T12:57:50Z</time>
      </trkpt>
      <trkpt lat="44.3297" lon="6.81055">
        <ele>2590</ele>
        <time>2022-07-19T12:57:51Z</time>
      </trkpt>
      <trkpt lat="44.32968" lon="6.81055">
        <ele>2590</ele>
        <time>2022-07-19T12:57:52Z</time>
      </trkpt>
      <trkpt lat="44.32966" lon="6.81055">
        <ele>2590.2</ele>
        <time>2022-07-19T12:57:53Z</time>
      </trkpt>
      <trkpt lat="44.32964" lon="6.81055">
        <ele>2590.2</ele>
        <time>2022-07-19T12:57:54Z</time>
      </trkpt>
      <trkpt lat="44.32962" lon="6.81054">
        <ele>2590.6</ele>
        <time>2022-07-19T12:57:55Z</time>
      </trkpt>
      <trkpt lat="44.3296" lon="6.81054">
        <ele>2590.8</ele>
        <time>2022-07-19T12:57:56Z</time>
      </trkpt>
      <trkpt lat="44.32958" lon="6.81053">
        <ele>2590.8</ele>
        <time>2022-07-19T12:57:57Z</time>
      </trkpt>
      <trkpt lat="44.32955" lon="6.81053">
        <ele>2591</ele>
        <time>2022-07-19T12:57:58Z</time>
      </trkpt>
      <trkpt lat="44.32953" lon="6.81053">
        <ele>2591</ele>
        <time>2022-07-19T12:57:59Z</time>
      </trkpt>
      <trkpt lat="44.32951" lon="6.81053">
        <ele>2591.2</ele>
        <time>2022-07-19T12:58:00Z</time>
      </trkpt>
      <trkpt lat="44.32949" lon="6.81053">
        <ele>2591.2</ele>
        <time>2022-07-19T12:58:01Z</time>
      </trkpt>
      <trkpt lat="44.32947" lon="6.81053">
        <ele>2591.4</ele>
        <time>2022-07-19T12:58:02Z</time>
      </trkpt>
      <trkpt lat="44.32945" lon="6.81053">
        <ele>2591.4</ele>
        <time>2022-07-19T12:58:03Z</time>
      </trkpt>
      <trkpt lat="44.32943" lon="6.81053">
        <ele>2592</ele>
        <time>2022-07-19T12:58:04Z</time>
      </trkpt>
      <trkpt lat="44.32941" lon="6.81052">
        <ele>2592</ele>
        <time>2022-07-19T12:58:05Z</time>
      </trkpt>
      <trkpt lat="44.32939" lon="6.81052">
        <ele>2592.2</ele>
        <time>2022-07-19T12:58:06Z</time>
      </trkpt>
      <trkpt lat="44.32937" lon="6.81051">
        <ele>2592.2</ele>
        <time>2022-07-19T12:58:07Z</time>
      </trkpt>
      <trkpt lat="44.32935" lon="6.8105">
        <ele>2592.8</ele>
        <time>2022-07-19T12:58:08Z</time>
      </trkpt>
      <trkpt lat="44.32933" lon="6.81049">
        <ele>2593</ele>
        <time>2022-07-19T12:58:09Z</time>
      </trkpt>
      <trkpt lat="44.32931" lon="6.81048">
        <ele>2593</ele>
        <time>2022-07-19T12:58:10Z</time>
      </trkpt>
      <trkpt lat="44.32929" lon="6.81047">
        <ele>2593.4</ele>
        <time>2022-07-19T12:58:11Z</time>
      </trkpt>
      <trkpt lat="44.32928" lon="6.81045">
        <ele>2593.6</ele>
        <time>2022-07-19T12:58:12Z</time>
      </trkpt>
      <trkpt lat="44.32926" lon="6.81044">
        <ele>2594</ele>
        <time>2022-07-19T12:58:13Z</time>
      </trkpt>
      <trkpt lat="44.32924" lon="6.81042">
        <ele>2594</ele>
        <time>2022-07-19T12:58:14Z</time>
      </trkpt>
      <trkpt lat="44.32922" lon="6.8104">
        <ele>2594.2</ele>
        <time>2022-07-19T12:58:15Z</time>
      </trkpt>
      <trkpt lat="44.32921" lon="6.81039">
        <ele>2594.4</ele>
        <time>2022-07-19T12:58:16Z</time>
      </trkpt>
      <trkpt lat="44.32919" lon="6.81037">
        <ele>2594.4</ele>
        <time>2022-07-19T12:58:17Z</time>
      </trkpt>
      <trkpt lat="44.32917" lon="6.81035">
        <ele>2594.6</ele>
        <time>2022-07-19T12:58:18Z</time>
      </trkpt>
      <trkpt lat="44.32916" lon="6.81033">
        <ele>2594.8</ele>
        <time>2022-07-19T12:58:19Z</time>
      </trkpt>
      <trkpt lat="44.32915" lon="6.81031">
        <ele>2594.8</ele>
        <time>2022-07-19T12:58:20Z</time>
      </trkpt>
      <trkpt lat="44.32913" lon="6.8103">
        <ele>2595.2</ele>
        <time>2022-07-19T12:58:21Z</time>
      </trkpt>
      <trkpt lat="44.32912" lon="6.81028">
        <ele>2595.2</ele>
        <time>2022-07-19T12:58:22Z</time>
      </trkpt>
      <trkpt lat="44.3291" lon="6.81026">
        <ele>2595.6</ele>
        <time>2022-07-19T12:58:23Z</time>
      </trkpt>
      <trkpt lat="44.32909" lon="6.81025">
        <ele>2595.6</ele>
        <time>2022-07-19T12:58:24Z</time>
      </trkpt>
      <trkpt lat="44.32908" lon="6.81023">
        <ele>2595.8</ele>
        <time>2022-07-19T12:58:25Z</time>
      </trkpt>
      <trkpt lat="44.32907" lon="6.81021">
        <ele>2595.8</ele>
        <time>2022-07-19T12:58:26Z</time>
      </trkpt>
      <trkpt lat="44.32906" lon="6.8102">
        <ele>2596.2</ele>
        <time>2022-07-19T12:58:27Z</time>
      </trkpt>
      <trkpt lat="44.32904" lon="6.81018">
        <ele>2596.2</ele>
        <time>2022-07-19T12:58:28Z</time>
      </trkpt>
      <trkpt lat="44.32903" lon="6.81017">
        <ele>2596.6</ele>
        <time>2022-07-19T12:58:29Z</time>
      </trkpt>
      <trkpt lat="44.32902" lon="6.81015">
        <ele>2596.6</ele>
        <time>2022-07-19T12:58:30Z</time>
      </trkpt>
      <trkpt lat="44.329" lon="6.81014">
        <ele>2596.8</ele>
        <time>2022-07-19T12:58:31Z</time>
      </trkpt>
      <trkpt lat="44.32899" lon="6.81012">
        <ele>2596.8</ele>
        <time>2022-07-19T12:58:32Z</time>
      </trkpt>
      <trkpt lat="44.32898" lon="6.8101">
        <ele>2597.2</ele>
        <time>2022-07-19T12:58:33Z</time>
      </trkpt>
      <trkpt lat="44.32896" lon="6.81008">
        <ele>2597.4</ele>
        <time>2022-07-19T12:58:34Z</time>
      </trkpt>
      <trkpt lat="44.32895" lon="6.81007">
        <ele>2597.4</ele>
        <time>2022-07-19T12:58:35Z</time>
      </trkpt>
      <trkpt lat="44.32894" lon="6.81005">
        <ele>2597.6</ele>
        <time>2022-07-19T12:58:36Z</time>
      </trkpt>
      <trkpt lat="44.32892" lon="6.81004">
        <ele>2597.6</ele>
        <time>2022-07-19T12:58:37Z</time>
      </trkpt>
      <trkpt lat="44.32891" lon="6.81002">
        <ele>2597.8</ele>
        <time>2022-07-19T12:58:38Z</time>
      </trkpt>
      <trkpt lat="44.3289" lon="6.81001">
        <ele>2597.8</ele>
        <time>2022-07-19T12:58:39Z</time>
      </trkpt>
      <trkpt lat="44.32888" lon="6.81">
        <ele>2598.2</ele>
        <time>2022-07-19T12:58:40Z</time>
      </trkpt>
      <trkpt lat="44.32887" lon="6.80998">
        <ele>2598.2</ele>
        <time>2022-07-19T12:58:41Z</time>
      </trkpt>
      <trkpt lat="44.32886" lon="6.80997">
        <ele>2598.6</ele>
        <time>2022-07-19T12:58:42Z</time>
      </trkpt>
      <trkpt lat="44.32884" lon="6.80995">
        <ele>2598.6</ele>
        <time>2022-07-19T12:58:43Z</time>
      </trkpt>
      <trkpt lat="44.32883" lon="6.80994">
        <ele>2598.6</ele>
        <time>2022-07-19T12:58:44Z</time>
      </trkpt>
      <trkpt lat="44.32882" lon="6.80993">
        <ele>2599</ele>
        <time>2022-07-19T12:58:45Z</time>
      </trkpt>
      <trkpt lat="44.3288" lon="6.80992">
        <ele>2599</ele>
        <time>2022-07-19T12:58:46Z</time>
      </trkpt>
      <trkpt lat="44.32879" lon="6.8099">
        <ele>2599.2</ele>
        <time>2022-07-19T12:58:47Z</time>
      </trkpt>
      <trkpt lat="44.32878" lon="6.80989">
        <ele>2599.4</ele>
        <time>2022-07-19T12:58:48Z</time>
      </trkpt>
      <trkpt lat="44.32876" lon="6.80988">
        <ele>2599.6</ele>
        <time>2022-07-19T12:58:49Z</time>
      </trkpt>
      <trkpt lat="44.32875" lon="6.80987">
        <ele>2599.8</ele>
        <time>2022-07-19T12:58:50Z</time>
      </trkpt>
      <trkpt lat="44.32873" lon="6.80985">
        <ele>2600.2</ele>
        <time>2022-07-19T12:58:51Z</time>
      </trkpt>
      <trkpt lat="44.32872" lon="6.80984">
        <ele>2600.4</ele>
        <time>2022-07-19T12:58:52Z</time>
      </trkpt>
      <trkpt lat="44.3287" lon="6.80983">
        <ele>2600.6</ele>
        <time>2022-07-19T12:58:53Z</time>
      </trkpt>
      <trkpt lat="44.32869" lon="6.80981">
        <ele>2600.6</ele>
        <time>2022-07-19T12:58:54Z</time>
      </trkpt>
      <trkpt lat="44.32868" lon="6.8098">
        <ele>2601</ele>
        <time>2022-07-19T12:58:55Z</time>
      </trkpt>
      <trkpt lat="44.32866" lon="6.80978">
        <ele>2601</ele>
        <time>2022-07-19T12:58:56Z</time>
      </trkpt>
      <trkpt lat="44.32865" lon="6.80977">
        <ele>2601.2</ele>
        <time>2022-07-19T12:58:57Z</time>
      </trkpt>
      <trkpt lat="44.32864" lon="6.80975">
        <ele>2601.2</ele>
        <time>2022-07-19T12:58:58Z</time>
      </trkpt>
      <trkpt lat="44.32863" lon="6.80973">
        <ele>2601.4</ele>
        <time>2022-07-19T12:58:59Z</time>
      </trkpt>
      <trkpt lat="44.32862" lon="6.80971">
        <ele>2601.4</ele>
        <time>2022-07-19T12:59:00Z</time>
      </trkpt>
      <trkpt lat="44.32861" lon="6.8097">
        <ele>2601.6</ele>
        <time>2022-07-19T12:59:01Z</time>
      </trkpt>
      <trkpt lat="44.3286" lon="6.80969">
        <ele>2601.8</ele>
        <time>2022-07-19T12:59:02Z</time>
      </trkpt>
      <trkpt lat="44.32859" lon="6.80967">
        <ele>2602.2</ele>
        <time>2022-07-19T12:59:03Z</time>
      </trkpt>
      <trkpt lat="44.32858" lon="6.80965">
        <ele>2602.2</ele>
        <time>2022-07-19T12:59:04Z</time>
      </trkpt>
      <trkpt lat="44.32857" lon="6.80964">
        <ele>2602.6</ele>
        <time>2022-07-19T12:59:05Z</time>
      </trkpt>
      <trkpt lat="44.32856" lon="6.80962">
        <ele>2602.6</ele>
        <time>2022-07-19T12:59:06Z</time>
      </trkpt>
      <trkpt lat="44.32855" lon="6.8096">
        <ele>2602.8</ele>
        <time>2022-07-19T12:59:07Z</time>
      </trkpt>
      <trkpt lat="44.32854" lon="6.80958">
        <ele>2602.8</ele>
        <time>2022-07-19T12:59:08Z</time>
      </trkpt>
      <trkpt lat="44.32853" lon="6.80956">
        <ele>2603.2</ele>
        <time>2022-07-19T12:59:09Z</time>
      </trkpt>
      <trkpt lat="44.32852" lon="6.80954">
        <ele>2603.2</ele>
        <time>2022-07-19T12:59:10Z</time>
      </trkpt>
      <trkpt lat="44.32851" lon="6.80952">
        <ele>2603.4</ele>
        <time>2022-07-19T12:59:11Z</time>
      </trkpt>
      <trkpt lat="44.32851" lon="6.80949">
        <ele>2603.4</ele>
        <time>2022-07-19T12:59:12Z</time>
      </trkpt>
      <trkpt lat="44.3285" lon="6.80947">
        <ele>2603.6</ele>
        <time>2022-07-19T12:59:13Z</time>
      </trkpt>
      <trkpt lat="44.3285" lon="6.80945">
        <ele>2603.6</ele>
        <time>2022-07-19T12:59:14Z</time>
      </trkpt>
      <trkpt lat="44.32849" lon="6.80942">
        <ele>2604</ele>
        <time>2022-07-19T12:59:15Z</time>
      </trkpt>
      <trkpt lat="44.32848" lon="6.8094">
        <ele>2604</ele>
        <time>2022-07-19T12:59:16Z</time>
      </trkpt>
      <trkpt lat="44.32847" lon="6.80938">
        <ele>2604.2</ele>
        <time>2022-07-19T12:59:17Z</time>
      </trkpt>
      <trkpt lat="44.32846" lon="6.80936">
        <ele>2604.2</ele>
        <time>2022-07-19T12:59:18Z</time>
      </trkpt>
      <trkpt lat="44.32844" lon="6.80935">
        <ele>2604.2</ele>
        <time>2022-07-19T12:59:19Z</time>
      </trkpt>
      <trkpt lat="44.32843" lon="6.80934">
        <ele>2604.6</ele>
        <time>2022-07-19T12:59:20Z</time>
      </trkpt>
      <trkpt lat="44.32841" lon="6.80932">
        <ele>2604.6</ele>
        <time>2022-07-19T12:59:21Z</time>
      </trkpt>
      <trkpt lat="44.3284" lon="6.80931">
        <ele>2605</ele>
        <time>2022-07-19T12:59:22Z</time>
      </trkpt>
      <trkpt lat="44.32839" lon="6.80929">
        <ele>2605</ele>
        <time>2022-07-19T12:59:23Z</time>
      </trkpt>
      <trkpt lat="44.32837" lon="6.80927">
        <ele>2605.4</ele>
        <time>2022-07-19T12:59:24Z</time>
      </trkpt>
      <trkpt lat="44.32836" lon="6.80926">
        <ele>2605.4</ele>
        <time>2022-07-19T12:59:25Z</time>
      </trkpt>
      <trkpt lat="44.32834" lon="6.80925">
        <ele>2605.6</ele>
        <time>2022-07-19T12:59:26Z</time>
      </trkpt>
      <trkpt lat="44.32833" lon="6.80923">
        <ele>2605.6</ele>
        <time>2022-07-19T12:59:27Z</time>
      </trkpt>
      <trkpt lat="44.32832" lon="6.80922">
        <ele>2605.8</ele>
        <time>2022-07-19T12:59:28Z</time>
      </trkpt>
      <trkpt lat="44.3283" lon="6.80921">
        <ele>2605.8</ele>
        <time>2022-07-19T12:59:29Z</time>
      </trkpt>
      <trkpt lat="44.32829" lon="6.8092">
        <ele>2606.2</ele>
        <time>2022-07-19T12:59:30Z</time>
      </trkpt>
      <trkpt lat="44.32827" lon="6.80919">
        <ele>2606.2</ele>
        <time>2022-07-19T12:59:31Z</time>
      </trkpt>
      <trkpt lat="44.32826" lon="6.80918">
        <ele>2606.4</ele>
        <time>2022-07-19T12:59:32Z</time>
      </trkpt>
      <trkpt lat="44.32824" lon="6.80918">
        <ele>2606.4</ele>
        <time>2022-07-19T12:59:33Z</time>
      </trkpt>
      <trkpt lat="44.32822" lon="6.80917">
        <ele>2606.8</ele>
        <time>2022-07-19T12:59:34Z</time>
      </trkpt>
      <trkpt lat="44.32821" lon="6.80916">
        <ele>2606.8</ele>
        <time>2022-07-19T12:59:35Z</time>
      </trkpt>
      <trkpt lat="44.32819" lon="6.80915">
        <ele>2607</ele>
        <time>2022-07-19T12:59:36Z</time>
      </trkpt>
      <trkpt lat="44.32818" lon="6.80914">
        <ele>2607</ele>
        <time>2022-07-19T12:59:37Z</time>
      </trkpt>
      <trkpt lat="44.32816" lon="6.80914">
        <ele>2607</ele>
        <time>2022-07-19T12:59:38Z</time>
      </trkpt>
      <trkpt lat="44.32815" lon="6.80913">
        <ele>2607.2</ele>
        <time>2022-07-19T12:59:39Z</time>
      </trkpt>
      <trkpt lat="44.32813" lon="6.80913">
        <ele>2607.2</ele>
        <time>2022-07-19T12:59:40Z</time>
      </trkpt>
      <trkpt lat="44.32811" lon="6.80912">
        <ele>2607.4</ele>
        <time>2022-07-19T12:59:41Z</time>
      </trkpt>
      <trkpt lat="44.32809" lon="6.8091">
        <ele>2607.4</ele>
        <time>2022-07-19T12:59:42Z</time>
      </trkpt>
      <trkpt lat="44.32808" lon="6.80908">
        <ele>2607.8</ele>
        <time>2022-07-19T12:59:43Z</time>
      </trkpt>
      <trkpt lat="44.32806" lon="6.80907">
        <ele>2607.8</ele>
        <time>2022-07-19T12:59:44Z</time>
      </trkpt>
      <trkpt lat="44.32805" lon="6.80905">
        <ele>2608.2</ele>
        <time>2022-07-19T12:59:45Z</time>
      </trkpt>
      <trkpt lat="44.32803" lon="6.80904">
        <ele>2608.2</ele>
        <time>2022-07-19T12:59:46Z</time>
      </trkpt>
      <trkpt lat="44.32801" lon="6.80903">
        <ele>2608.4</ele>
        <time>2022-07-19T12:59:47Z</time>
      </trkpt>
      <trkpt lat="44.328" lon="6.80902">
        <ele>2608.4</ele>
        <time>2022-07-19T12:59:48Z</time>
      </trkpt>
      <trkpt lat="44.32798" lon="6.80901">
        <ele>2608.8</ele>
        <time>2022-07-19T12:59:49Z</time>
      </trkpt>
      <trkpt lat="44.32796" lon="6.809">
        <ele>2608.8</ele>
        <time>2022-07-19T12:59:50Z</time>
      </trkpt>
      <trkpt lat="44.32794" lon="6.80899">
        <ele>2608.8</ele>
        <time>2022-07-19T12:59:51Z</time>
      </trkpt>
      <trkpt lat="44.32792" lon="6.80898">
        <ele>2609</ele>
        <time>2022-07-19T12:59:52Z</time>
      </trkpt>
      <trkpt lat="44.32791" lon="6.80897">
        <ele>2609</ele>
        <time>2022-07-19T12:59:53Z</time>
      </trkpt>
      <trkpt lat="44.32789" lon="6.80895">
        <ele>2609.2</ele>
        <time>2022-07-19T12:59:54Z</time>
      </trkpt>
      <trkpt lat="44.32788" lon="6.80893">
        <ele>2609.2</ele>
        <time>2022-07-19T12:59:55Z</time>
      </trkpt>
      <trkpt lat="44.32786" lon="6.80891">
        <ele>2609.2</ele>
        <time>2022-07-19T12:59:56Z</time>
      </trkpt>
      <trkpt lat="44.32785" lon="6.80889">
        <ele>2609.6</ele>
        <time>2022-07-19T12:59:57Z</time>
      </trkpt>
      <trkpt lat="44.32783" lon="6.80888">
        <ele>2609.6</ele>
        <time>2022-07-19T12:59:58Z</time>
      </trkpt>
      <trkpt lat="44.32781" lon="6.80886">
        <ele>2609.6</ele>
        <time>2022-07-19T12:59:59Z</time>
      </trkpt>
      <trkpt lat="44.32779" lon="6.80885">
        <ele>2609.8</ele>
        <time>2022-07-19T13:00:00Z</time>
      </trkpt>
      <trkpt lat="44.32778" lon="6.80883">
        <ele>2609.8</ele>
        <time>2022-07-19T13:00:01Z</time>
      </trkpt>
      <trkpt lat="44.32776" lon="6.80881">
        <ele>2609.8</ele>
        <time>2022-07-19T13:00:02Z</time>
      </trkpt>
      <trkpt lat="44.32775" lon="6.80879">
        <ele>2610</ele>
        <time>2022-07-19T13:00:03Z</time>
      </trkpt>
      <trkpt lat="44.32774" lon="6.80877">
        <ele>2610</ele>
        <time>2022-07-19T13:00:04Z</time>
      </trkpt>
      <trkpt lat="44.32772" lon="6.80875">
        <ele>2610.2</ele>
        <time>2022-07-19T13:00:05Z</time>
      </trkpt>
      <trkpt lat="44.3277" lon="6.80873">
        <ele>2610.2</ele>
        <time>2022-07-19T13:00:06Z</time>
      </trkpt>
      <trkpt lat="44.32769" lon="6.80872">
        <ele>2610.6</ele>
        <time>2022-07-19T13:00:07Z</time>
      </trkpt>
      <trkpt lat="44.32767" lon="6.8087">
        <ele>2610.6</ele>
        <time>2022-07-19T13:00:08Z</time>
      </trkpt>
      <trkpt lat="44.32766" lon="6.80868">
        <ele>2610.8</ele>
        <time>2022-07-19T13:00:09Z</time>
      </trkpt>
      <trkpt lat="44.32764" lon="6.80866">
        <ele>2610.8</ele>
        <time>2022-07-19T13:00:10Z</time>
      </trkpt>
      <trkpt lat="44.32763" lon="6.80864">
        <ele>2611</ele>
        <time>2022-07-19T13:00:11Z</time>
      </trkpt>
      <trkpt lat="44.32761" lon="6.80862">
        <ele>2611</ele>
        <time>2022-07-19T13:00:12Z</time>
      </trkpt>
      <trkpt lat="44.3276" lon="6.8086">
        <ele>2611.2</ele>
        <time>2022-07-19T13:00:13Z</time>
      </trkpt>
      <trkpt lat="44.32758" lon="6.80859">
        <ele>2611.2</ele>
        <time>2022-07-19T13:00:14Z</time>
      </trkpt>
      <trkpt lat="44.32756" lon="6.80857">
        <ele>2611.4</ele>
        <time>2022-07-19T13:00:15Z</time>
      </trkpt>
      <trkpt lat="44.32755" lon="6.80856">
        <ele>2611.4</ele>
        <time>2022-07-19T13:00:16Z</time>
      </trkpt>
      <trkpt lat="44.32754" lon="6.80854">
        <ele>2611.8</ele>
        <time>2022-07-19T13:00:17Z</time>
      </trkpt>
      <trkpt lat="44.32753" lon="6.80852">
        <ele>2611.8</ele>
        <time>2022-07-19T13:00:18Z</time>
      </trkpt>
      <trkpt lat="44.32751" lon="6.8085">
        <ele>2612</ele>
        <time>2022-07-19T13:00:19Z</time>
      </trkpt>
      <trkpt lat="44.3275" lon="6.80848">
        <ele>2612</ele>
        <time>2022-07-19T13:00:20Z</time>
      </trkpt>
      <trkpt lat="44.32749" lon="6.80846">
        <ele>2612.4</ele>
        <time>2022-07-19T13:00:21Z</time>
      </trkpt>
      <trkpt lat="44.32747" lon="6.80844">
        <ele>2612.6</ele>
        <time>2022-07-19T13:00:22Z</time>
      </trkpt>
      <trkpt lat="44.32746" lon="6.80843">
        <ele>2612.6</ele>
        <time>2022-07-19T13:00:23Z</time>
      </trkpt>
      <trkpt lat="44.32744" lon="6.80841">
        <ele>2613</ele>
        <time>2022-07-19T13:00:24Z</time>
      </trkpt>
      <trkpt lat="44.32743" lon="6.8084">
        <ele>2613.2</ele>
        <time>2022-07-19T13:00:25Z</time>
      </trkpt>
      <trkpt lat="44.32741" lon="6.80839">
        <ele>2613.2</ele>
        <time>2022-07-19T13:00:26Z</time>
      </trkpt>
      <trkpt lat="44.3274" lon="6.80837">
        <ele>2613.6</ele>
        <time>2022-07-19T13:00:27Z</time>
      </trkpt>
      <trkpt lat="44.32738" lon="6.80836">
        <ele>2613.6</ele>
        <time>2022-07-19T13:00:28Z</time>
      </trkpt>
      <trkpt lat="44.32737" lon="6.80834">
        <ele>2613.8</ele>
        <time>2022-07-19T13:00:29Z</time>
      </trkpt>
      <trkpt lat="44.32735" lon="6.80833">
        <ele>2613.8</ele>
        <time>2022-07-19T13:00:30Z</time>
      </trkpt>
      <trkpt lat="44.32734" lon="6.80831">
        <ele>2614.2</ele>
        <time>2022-07-19T13:00:31Z</time>
      </trkpt>
      <trkpt lat="44.32732" lon="6.8083">
        <ele>2614.2</ele>
        <time>2022-07-19T13:00:32Z</time>
      </trkpt>
      <trkpt lat="44.32731" lon="6.80828">
        <ele>2614.4</ele>
        <time>2022-07-19T13:00:33Z</time>
      </trkpt>
      <trkpt lat="44.3273" lon="6.80827">
        <ele>2614.8</ele>
        <time>2022-07-19T13:00:34Z</time>
      </trkpt>
      <trkpt lat="44.32728" lon="6.80825">
        <ele>2614.8</ele>
        <time>2022-07-19T13:00:35Z</time>
      </trkpt>
      <trkpt lat="44.32727" lon="6.80823">
        <ele>2615</ele>
        <time>2022-07-19T13:00:36Z</time>
      </trkpt>
      <trkpt lat="44.32725" lon="6.80822">
        <ele>2615</ele>
        <time>2022-07-19T13:00:37Z</time>
      </trkpt>
      <trkpt lat="44.32724" lon="6.80821">
        <ele>2615.4</ele>
        <time>2022-07-19T13:00:38Z</time>
      </trkpt>
      <trkpt lat="44.32723" lon="6.80819">
        <ele>2615.4</ele>
        <time>2022-07-19T13:00:39Z</time>
      </trkpt>
      <trkpt lat="44.32721" lon="6.80817">
        <ele>2615.6</ele>
        <time>2022-07-19T13:00:40Z</time>
      </trkpt>
      <trkpt lat="44.3272" lon="6.80815">
        <ele>2615.6</ele>
        <time>2022-07-19T13:00:41Z</time>
      </trkpt>
      <trkpt lat="44.32719" lon="6.80813">
        <ele>2616</ele>
        <time>2022-07-19T13:00:42Z</time>
      </trkpt>
      <trkpt lat="44.32718" lon="6.80811">
        <ele>2616</ele>
        <time>2022-07-19T13:00:43Z</time>
      </trkpt>
      <trkpt lat="44.32717" lon="6.8081">
        <ele>2616.2</ele>
        <time>2022-07-19T13:00:44Z</time>
      </trkpt>
      <trkpt lat="44.32715" lon="6.80809">
        <ele>2616.2</ele>
        <time>2022-07-19T13:00:45Z</time>
      </trkpt>
      <trkpt lat="44.32713" lon="6.80807">
        <ele>2616.6</ele>
        <time>2022-07-19T13:00:46Z</time>
      </trkpt>
      <trkpt lat="44.32712" lon="6.80806">
        <ele>2616.6</ele>
        <time>2022-07-19T13:00:47Z</time>
      </trkpt>
      <trkpt lat="44.3271" lon="6.80804">
        <ele>2616.8</ele>
        <time>2022-07-19T13:00:48Z</time>
      </trkpt>
      <trkpt lat="44.32709" lon="6.80803">
        <ele>2616.8</ele>
        <time>2022-07-19T13:00:49Z</time>
      </trkpt>
      <trkpt lat="44.32707" lon="6.80802">
        <ele>2616.8</ele>
        <time>2022-07-19T13:00:50Z</time>
      </trkpt>
      <trkpt lat="44.32706" lon="6.80801">
        <ele>2617.2</ele>
        <time>2022-07-19T13:00:51Z</time>
      </trkpt>
      <trkpt lat="44.32705" lon="6.80799">
        <ele>2617.4</ele>
        <time>2022-07-19T13:00:52Z</time>
      </trkpt>
      <trkpt lat="44.32704" lon="6.80797">
        <ele>2617.6</ele>
        <time>2022-07-19T13:00:53Z</time>
      </trkpt>
      <trkpt lat="44.32702" lon="6.80796">
        <ele>2617.6</ele>
        <time>2022-07-19T13:00:54Z</time>
      </trkpt>
      <trkpt lat="44.32701" lon="6.80795">
        <ele>2617.8</ele>
        <time>2022-07-19T13:00:55Z</time>
      </trkpt>
      <trkpt lat="44.327" lon="6.80793">
        <ele>2617.8</ele>
        <time>2022-07-19T13:00:56Z</time>
      </trkpt>
      <trkpt lat="44.32698" lon="6.80792">
        <ele>2618.2</ele>
        <time>2022-07-19T13:00:57Z</time>
      </trkpt>
      <trkpt lat="44.32697" lon="6.80792">
        <ele>2618.2</ele>
        <time>2022-07-19T13:00:58Z</time>
      </trkpt>
      <trkpt lat="44.32695" lon="6.80791">
        <ele>2618.4</ele>
        <time>2022-07-19T13:00:59Z</time>
      </trkpt>
      <trkpt lat="44.32694" lon="6.8079">
        <ele>2618.6</ele>
        <time>2022-07-19T13:01:00Z</time>
      </trkpt>
      <trkpt lat="44.32693" lon="6.80789">
        <ele>2618.6</ele>
        <time>2022-07-19T13:01:01Z</time>
      </trkpt>
      <trkpt lat="44.32691" lon="6.80788">
        <ele>2618.8</ele>
        <time>2022-07-19T13:01:02Z</time>
      </trkpt>
      <trkpt lat="44.3269" lon="6.80788">
        <ele>2618.8</ele>
        <time>2022-07-19T13:01:03Z</time>
      </trkpt>
      <trkpt lat="44.32689" lon="6.80787">
        <ele>2619.2</ele>
        <time>2022-07-19T13:01:04Z</time>
      </trkpt>
      <trkpt lat="44.32687" lon="6.80786">
        <ele>2619.2</ele>
        <time>2022-07-19T13:01:05Z</time>
      </trkpt>
      <trkpt lat="44.32686" lon="6.80785">
        <ele>2619.4</ele>
        <time>2022-07-19T13:01:06Z</time>
      </trkpt>
      <trkpt lat="44.32685" lon="6.80784">
        <ele>2619.4</ele>
        <time>2022-07-19T13:01:07Z</time>
      </trkpt>
      <trkpt lat="44.32683" lon="6.80782">
        <ele>2619.6</ele>
        <time>2022-07-19T13:01:08Z</time>
      </trkpt>
      <trkpt lat="44.32682" lon="6.80781">
        <ele>2619.6</ele>
        <time>2022-07-19T13:01:09Z</time>
      </trkpt>
      <trkpt lat="44.32681" lon="6.8078">
        <ele>2619.8</ele>
        <time>2022-07-19T13:01:10Z</time>
      </trkpt>
      <trkpt lat="44.3268" lon="6.80778">
        <ele>2619.8</ele>
        <time>2022-07-19T13:01:11Z</time>
      </trkpt>
      <trkpt lat="44.32679" lon="6.80777">
        <ele>2620.2</ele>
        <time>2022-07-19T13:01:12Z</time>
      </trkpt>
      <trkpt lat="44.32677" lon="6.80776">
        <ele>2620.2</ele>
        <time>2022-07-19T13:01:13Z</time>
      </trkpt>
      <trkpt lat="44.32676" lon="6.80774">
        <ele>2620.4</ele>
        <time>2022-07-19T13:01:14Z</time>
      </trkpt>
      <trkpt lat="44.32674" lon="6.80773">
        <ele>2620.4</ele>
        <time>2022-07-19T13:01:15Z</time>
      </trkpt>
      <trkpt lat="44.32673" lon="6.80772">
        <ele>2620.8</ele>
        <time>2022-07-19T13:01:16Z</time>
      </trkpt>
      <trkpt lat="44.32671" lon="6.80772">
        <ele>2621</ele>
        <time>2022-07-19T13:01:17Z</time>
      </trkpt>
      <trkpt lat="44.3267" lon="6.80771">
        <ele>2621</ele>
        <time>2022-07-19T13:01:18Z</time>
      </trkpt>
      <trkpt lat="44.32668" lon="6.8077">
        <ele>2621.2</ele>
        <time>2022-07-19T13:01:19Z</time>
      </trkpt>
      <trkpt lat="44.32667" lon="6.80768">
        <ele>2621.2</ele>
        <time>2022-07-19T13:01:20Z</time>
      </trkpt>
      <trkpt lat="44.32666" lon="6.80767">
        <ele>2621.4</ele>
        <time>2022-07-19T13:01:21Z</time>
      </trkpt>
      <trkpt lat="44.32664" lon="6.80765">
        <ele>2621.4</ele>
        <time>2022-07-19T13:01:22Z</time>
      </trkpt>
      <trkpt lat="44.32663" lon="6.80764">
        <ele>2621.4</ele>
        <time>2022-07-19T13:01:23Z</time>
      </trkpt>
      <trkpt lat="44.32662" lon="6.80762">
        <ele>2621.6</ele>
        <time>2022-07-19T13:01:24Z</time>
      </trkpt>
      <trkpt lat="44.32661" lon="6.80761">
        <ele>2621.6</ele>
        <time>2022-07-19T13:01:25Z</time>
      </trkpt>
      <trkpt lat="44.3266" lon="6.80759">
        <ele>2622</ele>
        <time>2022-07-19T13:01:26Z</time>
      </trkpt>
      <trkpt lat="44.32658" lon="6.80757">
        <ele>2622</ele>
        <time>2022-07-19T13:01:27Z</time>
      </trkpt>
      <trkpt lat="44.32657" lon="6.80755">
        <ele>2622.2</ele>
        <time>2022-07-19T13:01:28Z</time>
      </trkpt>
      <trkpt lat="44.32656" lon="6.80754">
        <ele>2622.2</ele>
        <time>2022-07-19T13:01:29Z</time>
      </trkpt>
      <trkpt lat="44.32654" lon="6.80753">
        <ele>2622.2</ele>
        <time>2022-07-19T13:01:30Z</time>
      </trkpt>
      <trkpt lat="44.32652" lon="6.80752">
        <ele>2622.4</ele>
        <time>2022-07-19T13:01:31Z</time>
      </trkpt>
      <trkpt lat="44.32651" lon="6.8075">
        <ele>2622.4</ele>
        <time>2022-07-19T13:01:32Z</time>
      </trkpt>
      <trkpt lat="44.3265" lon="6.8075">
        <ele>2622.4</ele>
        <time>2022-07-19T13:01:33Z</time>
      </trkpt>
      <trkpt lat="44.3265" lon="6.80749">
        <ele>2622.4</ele>
        <time>2022-07-19T13:01:34Z</time>
      </trkpt>
      <trkpt lat="44.3265" lon="6.80749">
        <ele>2622.4</ele>
        <time>2022-07-19T13:01:35Z</time>
      </trkpt>
      <trkpt lat="44.3265" lon="6.80749">
        <ele>2622.4</ele>
        <time>2022-07-19T13:01:36Z</time>
      </trkpt>
      <trkpt lat="44.3265" lon="6.80748">
        <ele>2622.6</ele>
        <time>2022-07-19T13:01:37Z</time>
      </trkpt>
      <trkpt lat="44.32649" lon="6.80748">
        <ele>2622.6</ele>
        <time>2022-07-19T13:01:39Z</time>
      </trkpt>
      <trkpt lat="44.32649" lon="6.80748">
        <ele>2622.6</ele>
        <time>2022-07-19T13:01:40Z</time>
      </trkpt>
      <trkpt lat="44.32649" lon="6.80748">
        <ele>2622.6</ele>
        <time>2022-07-19T13:01:41Z</time>
      </trkpt>
      <trkpt lat="44.32649" lon="6.80747">
        <ele>2622.6</ele>
        <time>2022-07-19T13:01:42Z</time>
      </trkpt>
      <trkpt lat="44.32649" lon="6.80747">
        <ele>2622.6</ele>
        <time>2022-07-19T13:01:45Z</time>
      </trkpt>
      <trkpt lat="44.32648" lon="6.80747">
        <ele>2622.6</ele>
        <time>2022-07-19T13:01:46Z</time>
      </trkpt>
      <trkpt lat="44.32648" lon="6.80747">
        <ele>2622.8</ele>
        <time>2022-07-19T13:01:48Z</time>
      </trkpt>
      <trkpt lat="44.32648" lon="6.80746">
        <ele>2622.8</ele>
        <time>2022-07-19T13:01:49Z</time>
      </trkpt>
      <trkpt lat="44.32648" lon="6.80746">
        <ele>2622.8</ele>
        <time>2022-07-19T13:01:50Z</time>
      </trkpt>
      <trkpt lat="44.32648" lon="6.80746">
        <ele>2622.6</ele>
        <time>2022-07-19T13:01:51Z</time>
      </trkpt>
      <trkpt lat="44.32647" lon="6.80745">
        <ele>2622.6</ele>
        <time>2022-07-19T13:01:52Z</time>
      </trkpt>
      <trkpt lat="44.32647" lon="6.80745">
        <ele>2622.6</ele>
        <time>2022-07-19T13:03:44Z</time>
      </trkpt>
      <trkpt lat="44.32647" lon="6.80745">
        <ele>2622.6</ele>
        <time>2022-07-19T13:03:45Z</time>
      </trkpt>
      <trkpt lat="44.32647" lon="6.80745">
        <ele>2622.6</ele>
        <time>2022-07-19T13:03:46Z</time>
      </trkpt>
      <trkpt lat="44.32647" lon="6.80744">
        <ele>2622.6</ele>
        <time>2022-07-19T13:03:47Z</time>
      </trkpt>
      <trkpt lat="44.32646" lon="6.80744">
        <ele>2622.6</ele>
        <time>2022-07-19T13:03:48Z</time>
      </trkpt>
      <trkpt lat="44.32646" lon="6.80744">
        <ele>2622.6</ele>
        <time>2022-07-19T13:03:49Z</time>
      </trkpt>
      <trkpt lat="44.32646" lon="6.80744">
        <ele>2622.6</ele>
        <time>2022-07-19T13:03:52Z</time>
      </trkpt>
      <trkpt lat="44.32646" lon="6.80743">
        <ele>2622.6</ele>
        <time>2022-07-19T13:03:53Z</time>
      </trkpt>
      <trkpt lat="44.32646" lon="6.80743">
        <ele>2622.6</ele>
        <time>2022-07-19T13:03:54Z</time>
      </trkpt>
      <trkpt lat="44.32645" lon="6.80743">
        <ele>2622.6</ele>
        <time>2022-07-19T13:03:56Z</time>
      </trkpt>
      <trkpt lat="44.32645" lon="6.80743">
        <ele>2622.6</ele>
        <time>2022-07-19T13:03:57Z</time>
      </trkpt>
      <trkpt lat="44.32644" lon="6.80742">
        <ele>2622.6</ele>
        <time>2022-07-19T13:03:58Z</time>
      </trkpt>
      <trkpt lat="44.32643" lon="6.8074">
        <ele>2622.6</ele>
        <time>2022-07-19T13:03:59Z</time>
      </trkpt>
      <trkpt lat="44.32641" lon="6.80739">
        <ele>2622.6</ele>
        <time>2022-07-19T13:04:00Z</time>
      </trkpt>
      <trkpt lat="44.32641" lon="6.80737">
        <ele>2622.6</ele>
        <time>2022-07-19T13:04:01Z</time>
      </trkpt>
      <trkpt lat="44.32639" lon="6.80735">
        <ele>2622.6</ele>
        <time>2022-07-19T13:04:02Z</time>
      </trkpt>
      <trkpt lat="44.32638" lon="6.80733">
        <ele>2622.8</ele>
        <time>2022-07-19T13:04:03Z</time>
      </trkpt>
      <trkpt lat="44.32637" lon="6.80732">
        <ele>2622.8</ele>
        <time>2022-07-19T13:04:04Z</time>
      </trkpt>
      <trkpt lat="44.32637" lon="6.8073">
        <ele>2622.8</ele>
        <time>2022-07-19T13:04:05Z</time>
      </trkpt>
      <trkpt lat="44.32635" lon="6.80728">
        <ele>2623.2</ele>
        <time>2022-07-19T13:04:06Z</time>
      </trkpt>
      <trkpt lat="44.32634" lon="6.80726">
        <ele>2623.2</ele>
        <time>2022-07-19T13:04:07Z</time>
      </trkpt>
      <trkpt lat="44.32632" lon="6.80723">
        <ele>2623.2</ele>
        <time>2022-07-19T13:04:08Z</time>
      </trkpt>
      <trkpt lat="44.32631" lon="6.80721">
        <ele>2623.2</ele>
        <time>2022-07-19T13:04:09Z</time>
      </trkpt>
      <trkpt lat="44.32629" lon="6.80718">
        <ele>2623.4</ele>
        <time>2022-07-19T13:04:10Z</time>
      </trkpt>
      <trkpt lat="44.32627" lon="6.80716">
        <ele>2623.4</ele>
        <time>2022-07-19T13:04:11Z</time>
      </trkpt>
      <trkpt lat="44.32625" lon="6.80714">
        <ele>2623.4</ele>
        <time>2022-07-19T13:04:12Z</time>
      </trkpt>
      <trkpt lat="44.32623" lon="6.80711">
        <ele>2623.4</ele>
        <time>2022-07-19T13:04:13Z</time>
      </trkpt>
      <trkpt lat="44.32621" lon="6.80708">
        <ele>2623.6</ele>
        <time>2022-07-19T13:04:14Z</time>
      </trkpt>
      <trkpt lat="44.32619" lon="6.80706">
        <ele>2623.6</ele>
        <time>2022-07-19T13:04:15Z</time>
      </trkpt>
      <trkpt lat="44.32617" lon="6.80704">
        <ele>2623.6</ele>
        <time>2022-07-19T13:04:16Z</time>
      </trkpt>
      <trkpt lat="44.32615" lon="6.80702">
        <ele>2623.6</ele>
        <time>2022-07-19T13:04:17Z</time>
      </trkpt>
      <trkpt lat="44.32613" lon="6.807">
        <ele>2623.8</ele>
        <time>2022-07-19T13:04:18Z</time>
      </trkpt>
      <trkpt lat="44.32611" lon="6.80698">
        <ele>2623.8</ele>
        <time>2022-07-19T13:04:19Z</time>
      </trkpt>
      <trkpt lat="44.32609" lon="6.80697">
        <ele>2624</ele>
        <time>2022-07-19T13:04:20Z</time>
      </trkpt>
      <trkpt lat="44.32607" lon="6.80695">
        <ele>2624</ele>
        <time>2022-07-19T13:04:21Z</time>
      </trkpt>
      <trkpt lat="44.32605" lon="6.80694">
        <ele>2624.2</ele>
        <time>2022-07-19T13:04:22Z</time>
      </trkpt>
      <trkpt lat="44.32603" lon="6.80693">
        <ele>2624.2</ele>
        <time>2022-07-19T13:04:23Z</time>
      </trkpt>
      <trkpt lat="44.32601" lon="6.80692">
        <ele>2624.4</ele>
        <time>2022-07-19T13:04:24Z</time>
      </trkpt>
      <trkpt lat="44.32598" lon="6.80691">
        <ele>2624.4</ele>
        <time>2022-07-19T13:04:25Z</time>
      </trkpt>
      <trkpt lat="44.32596" lon="6.80689">
        <ele>2624.8</ele>
        <time>2022-07-19T13:04:26Z</time>
      </trkpt>
      <trkpt lat="44.32594" lon="6.80688">
        <ele>2624.8</ele>
        <time>2022-07-19T13:04:27Z</time>
      </trkpt>
      <trkpt lat="44.32592" lon="6.80687">
        <ele>2625</ele>
        <time>2022-07-19T13:04:28Z</time>
      </trkpt>
      <trkpt lat="44.32589" lon="6.80686">
        <ele>2625</ele>
        <time>2022-07-19T13:04:29Z</time>
      </trkpt>
      <trkpt lat="44.32587" lon="6.80685">
        <ele>2625.2</ele>
        <time>2022-07-19T13:04:30Z</time>
      </trkpt>
      <trkpt lat="44.32585" lon="6.80684">
        <ele>2625.2</ele>
        <time>2022-07-19T13:04:31Z</time>
      </trkpt>
      <trkpt lat="44.32583" lon="6.80684">
        <ele>2625.6</ele>
        <time>2022-07-19T13:04:32Z</time>
      </trkpt>
      <trkpt lat="44.3258" lon="6.80683">
        <ele>2625.6</ele>
        <time>2022-07-19T13:04:33Z</time>
      </trkpt>
      <trkpt lat="44.32578" lon="6.80682">
        <ele>2625.8</ele>
        <time>2022-07-19T13:04:34Z</time>
      </trkpt>
      <trkpt lat="44.32576" lon="6.80682">
        <ele>2625.8</ele>
        <time>2022-07-19T13:04:35Z</time>
      </trkpt>
      <trkpt lat="44.32574" lon="6.80681">
        <ele>2626.2</ele>
        <time>2022-07-19T13:04:36Z</time>
      </trkpt>
      <trkpt lat="44.32571" lon="6.80681">
        <ele>2626.2</ele>
        <time>2022-07-19T13:04:37Z</time>
      </trkpt>
      <trkpt lat="44.32569" lon="6.80681">
        <ele>2626.4</ele>
        <time>2022-07-19T13:04:38Z</time>
      </trkpt>
      <trkpt lat="44.32567" lon="6.8068">
        <ele>2626.4</ele>
        <time>2022-07-19T13:04:39Z</time>
      </trkpt>
      <trkpt lat="44.32565" lon="6.8068">
        <ele>2626.8</ele>
        <time>2022-07-19T13:04:40Z</time>
      </trkpt>
      <trkpt lat="44.32563" lon="6.8068">
        <ele>2626.8</ele>
        <time>2022-07-19T13:04:41Z</time>
      </trkpt>
      <trkpt lat="44.3256" lon="6.80679">
        <ele>2627.2</ele>
        <time>2022-07-19T13:04:42Z</time>
      </trkpt>
      <trkpt lat="44.32558" lon="6.80678">
        <ele>2627.2</ele>
        <time>2022-07-19T13:04:43Z</time>
      </trkpt>
      <trkpt lat="44.32556" lon="6.80678">
        <ele>2627.6</ele>
        <time>2022-07-19T13:04:44Z</time>
      </trkpt>
      <trkpt lat="44.32553" lon="6.80677">
        <ele>2627.8</ele>
        <time>2022-07-19T13:04:45Z</time>
      </trkpt>
      <trkpt lat="44.32551" lon="6.80677">
        <ele>2627.8</ele>
        <time>2022-07-19T13:04:46Z</time>
      </trkpt>
      <trkpt lat="44.32549" lon="6.80677">
        <ele>2628</ele>
        <time>2022-07-19T13:04:47Z</time>
      </trkpt>
      <trkpt lat="44.32547" lon="6.80677">
        <ele>2628</ele>
        <time>2022-07-19T13:04:48Z</time>
      </trkpt>
      <trkpt lat="44.32544" lon="6.80677">
        <ele>2628.4</ele>
        <time>2022-07-19T13:04:49Z</time>
      </trkpt>
      <trkpt lat="44.32542" lon="6.80677">
        <ele>2628.6</ele>
        <time>2022-07-19T13:04:50Z</time>
      </trkpt>
      <trkpt lat="44.3254" lon="6.80676">
        <ele>2628.6</ele>
        <time>2022-07-19T13:04:51Z</time>
      </trkpt>
      <trkpt lat="44.32538" lon="6.80676">
        <ele>2629</ele>
        <time>2022-07-19T13:04:52Z</time>
      </trkpt>
      <trkpt lat="44.32535" lon="6.80675">
        <ele>2629</ele>
        <time>2022-07-19T13:04:53Z</time>
      </trkpt>
      <trkpt lat="44.32533" lon="6.80675">
        <ele>2629.4</ele>
        <time>2022-07-19T13:04:54Z</time>
      </trkpt>
      <trkpt lat="44.32531" lon="6.80674">
        <ele>2629.4</ele>
        <time>2022-07-19T13:04:55Z</time>
      </trkpt>
      <trkpt lat="44.32529" lon="6.80674">
        <ele>2629.8</ele>
        <time>2022-07-19T13:04:56Z</time>
      </trkpt>
      <trkpt lat="44.32526" lon="6.80674">
        <ele>2629.8</ele>
        <time>2022-07-19T13:04:57Z</time>
      </trkpt>
      <trkpt lat="44.32524" lon="6.80673">
        <ele>2630.2</ele>
        <time>2022-07-19T13:04:58Z</time>
      </trkpt>
      <trkpt lat="44.32522" lon="6.80673">
        <ele>2630.2</ele>
        <time>2022-07-19T13:04:59Z</time>
      </trkpt>
      <trkpt lat="44.3252" lon="6.80673">
        <ele>2630.4</ele>
        <time>2022-07-19T13:05:00Z</time>
      </trkpt>
      <trkpt lat="44.32518" lon="6.80673">
        <ele>2630.4</ele>
        <time>2022-07-19T13:05:01Z</time>
      </trkpt>
      <trkpt lat="44.32516" lon="6.80673">
        <ele>2630.6</ele>
        <time>2022-07-19T13:05:02Z</time>
      </trkpt>
      <trkpt lat="44.32514" lon="6.80672">
        <ele>2630.6</ele>
        <time>2022-07-19T13:05:03Z</time>
      </trkpt>
      <trkpt lat="44.32512" lon="6.80672">
        <ele>2631</ele>
        <time>2022-07-19T13:05:04Z</time>
      </trkpt>
      <trkpt lat="44.3251" lon="6.80672">
        <ele>2631</ele>
        <time>2022-07-19T13:05:05Z</time>
      </trkpt>
      <trkpt lat="44.32508" lon="6.80672">
        <ele>2631.4</ele>
        <time>2022-07-19T13:05:06Z</time>
      </trkpt>
      <trkpt lat="44.32506" lon="6.80672">
        <ele>2631.4</ele>
        <time>2022-07-19T13:05:07Z</time>
      </trkpt>
      <trkpt lat="44.32504" lon="6.80673">
        <ele>2631.8</ele>
        <time>2022-07-19T13:05:08Z</time>
      </trkpt>
      <trkpt lat="44.32502" lon="6.80673">
        <ele>2632</ele>
        <time>2022-07-19T13:05:09Z</time>
      </trkpt>
      <trkpt lat="44.325" lon="6.80672">
        <ele>2632</ele>
        <time>2022-07-19T13:05:10Z</time>
      </trkpt>
      <trkpt lat="44.32498" lon="6.80672">
        <ele>2632.4</ele>
        <time>2022-07-19T13:05:11Z</time>
      </trkpt>
      <trkpt lat="44.32496" lon="6.80671">
        <ele>2632.4</ele>
        <time>2022-07-19T13:05:12Z</time>
      </trkpt>
      <trkpt lat="44.32494" lon="6.80671">
        <ele>2632.8</ele>
        <time>2022-07-19T13:05:13Z</time>
      </trkpt>
      <trkpt lat="44.32492" lon="6.80671">
        <ele>2632.8</ele>
        <time>2022-07-19T13:05:14Z</time>
      </trkpt>
      <trkpt lat="44.3249" lon="6.80671">
        <ele>2633</ele>
        <time>2022-07-19T13:05:15Z</time>
      </trkpt>
      <trkpt lat="44.32488" lon="6.80672">
        <ele>2633.2</ele>
        <time>2022-07-19T13:05:16Z</time>
      </trkpt>
      <trkpt lat="44.32486" lon="6.80672">
        <ele>2633.4</ele>
        <time>2022-07-19T13:05:17Z</time>
      </trkpt>
      <trkpt lat="44.32484" lon="6.80672">
        <ele>2633.4</ele>
        <time>2022-07-19T13:05:18Z</time>
      </trkpt>
      <trkpt lat="44.32482" lon="6.80673">
        <ele>2633.6</ele>
        <time>2022-07-19T13:05:19Z</time>
      </trkpt>
      <trkpt lat="44.32481" lon="6.80673">
        <ele>2633.8</ele>
        <time>2022-07-19T13:05:20Z</time>
      </trkpt>
      <trkpt lat="44.32479" lon="6.80674">
        <ele>2634.2</ele>
        <time>2022-07-19T13:05:21Z</time>
      </trkpt>
      <trkpt lat="44.32477" lon="6.80674">
        <ele>2634.4</ele>
        <time>2022-07-19T13:05:22Z</time>
      </trkpt>
      <trkpt lat="44.32475" lon="6.80674">
        <ele>2634.6</ele>
        <time>2022-07-19T13:05:23Z</time>
      </trkpt>
      <trkpt lat="44.32474" lon="6.80674">
        <ele>2635</ele>
        <time>2022-07-19T13:05:24Z</time>
      </trkpt>
      <trkpt lat="44.32472" lon="6.80674">
        <ele>2635.2</ele>
        <time>2022-07-19T13:05:25Z</time>
      </trkpt>
      <trkpt lat="44.32471" lon="6.80675">
        <ele>2635.2</ele>
        <time>2022-07-19T13:05:26Z</time>
      </trkpt>
      <trkpt lat="44.32469" lon="6.80675">
        <ele>2635.6</ele>
        <time>2022-07-19T13:05:27Z</time>
      </trkpt>
      <trkpt lat="44.32467" lon="6.80676">
        <ele>2635.6</ele>
        <time>2022-07-19T13:05:28Z</time>
      </trkpt>
      <trkpt lat="44.32466" lon="6.80677">
        <ele>2636</ele>
        <time>2022-07-19T13:05:29Z</time>
      </trkpt>
      <trkpt lat="44.32464" lon="6.80677">
        <ele>2636.2</ele>
        <time>2022-07-19T13:05:30Z</time>
      </trkpt>
      <trkpt lat="44.32463" lon="6.80678">
        <ele>2636.2</ele>
        <time>2022-07-19T13:05:31Z</time>
      </trkpt>
      <trkpt lat="44.32462" lon="6.80679">
        <ele>2636.6</ele>
        <time>2022-07-19T13:05:32Z</time>
      </trkpt>
      <trkpt lat="44.3246" lon="6.80679">
        <ele>2636.8</ele>
        <time>2022-07-19T13:05:33Z</time>
      </trkpt>
      <trkpt lat="44.32459" lon="6.80679">
        <ele>2636.8</ele>
        <time>2022-07-19T13:05:34Z</time>
      </trkpt>
      <trkpt lat="44.32457" lon="6.80679">
        <ele>2637.2</ele>
        <time>2022-07-19T13:05:35Z</time>
      </trkpt>
      <trkpt lat="44.32456" lon="6.8068">
        <ele>2637.2</ele>
        <time>2022-07-19T13:05:36Z</time>
      </trkpt>
      <trkpt lat="44.32454" lon="6.8068">
        <ele>2637.6</ele>
        <time>2022-07-19T13:05:37Z</time>
      </trkpt>
      <trkpt lat="44.32453" lon="6.8068">
        <ele>2637.6</ele>
        <time>2022-07-19T13:05:38Z</time>
      </trkpt>
      <trkpt lat="44.32451" lon="6.8068">
        <ele>2637.8</ele>
        <time>2022-07-19T13:05:39Z</time>
      </trkpt>
      <trkpt lat="44.3245" lon="6.80681">
        <ele>2637.8</ele>
        <time>2022-07-19T13:05:40Z</time>
      </trkpt>
      <trkpt lat="44.32448" lon="6.80681">
        <ele>2638</ele>
        <time>2022-07-19T13:05:41Z</time>
      </trkpt>
      <trkpt lat="44.32447" lon="6.80681">
        <ele>2638</ele>
        <time>2022-07-19T13:05:42Z</time>
      </trkpt>
      <trkpt lat="44.32445" lon="6.80682">
        <ele>2638.6</ele>
        <time>2022-07-19T13:05:43Z</time>
      </trkpt>
      <trkpt lat="44.32444" lon="6.80682">
        <ele>2638.6</ele>
        <time>2022-07-19T13:05:44Z</time>
      </trkpt>
      <trkpt lat="44.32443" lon="6.80682">
        <ele>2638.8</ele>
        <time>2022-07-19T13:05:45Z</time>
      </trkpt>
      <trkpt lat="44.32441" lon="6.80682">
        <ele>2638.8</ele>
        <time>2022-07-19T13:05:46Z</time>
      </trkpt>
      <trkpt lat="44.3244" lon="6.80682">
        <ele>2639.2</ele>
        <time>2022-07-19T13:05:47Z</time>
      </trkpt>
      <trkpt lat="44.32438" lon="6.80682">
        <ele>2639.2</ele>
        <time>2022-07-19T13:05:48Z</time>
      </trkpt>
      <trkpt lat="44.32437" lon="6.80682">
        <ele>2639.6</ele>
        <time>2022-07-19T13:05:49Z</time>
      </trkpt>
      <trkpt lat="44.32435" lon="6.80682">
        <ele>2639.6</ele>
        <time>2022-07-19T13:05:50Z</time>
      </trkpt>
      <trkpt lat="44.32434" lon="6.80683">
        <ele>2639.6</ele>
        <time>2022-07-19T13:05:51Z</time>
      </trkpt>
      <trkpt lat="44.32432" lon="6.80683">
        <ele>2639.8</ele>
        <time>2022-07-19T13:05:52Z</time>
      </trkpt>
      <trkpt lat="44.32431" lon="6.80684">
        <ele>2640</ele>
        <time>2022-07-19T13:05:53Z</time>
      </trkpt>
      <trkpt lat="44.32429" lon="6.80684">
        <ele>2640</ele>
        <time>2022-07-19T13:05:54Z</time>
      </trkpt>
      <trkpt lat="44.32428" lon="6.80684">
        <ele>2640.6</ele>
        <time>2022-07-19T13:05:55Z</time>
      </trkpt>
      <trkpt lat="44.32427" lon="6.80684">
        <ele>2640.6</ele>
        <time>2022-07-19T13:05:56Z</time>
      </trkpt>
      <trkpt lat="44.32425" lon="6.80685">
        <ele>2641</ele>
        <time>2022-07-19T13:05:57Z</time>
      </trkpt>
      <trkpt lat="44.32424" lon="6.80686">
        <ele>2641</ele>
        <time>2022-07-19T13:05:58Z</time>
      </trkpt>
      <trkpt lat="44.32422" lon="6.80686">
        <ele>2641.2</ele>
        <time>2022-07-19T13:05:59Z</time>
      </trkpt>
      <trkpt lat="44.32421" lon="6.80687">
        <ele>2641.2</ele>
        <time>2022-07-19T13:06:00Z</time>
      </trkpt>
      <trkpt lat="44.3242" lon="6.80687">
        <ele>2641.6</ele>
        <time>2022-07-19T13:06:01Z</time>
      </trkpt>
      <trkpt lat="44.32418" lon="6.80687">
        <ele>2641.6</ele>
        <time>2022-07-19T13:06:02Z</time>
      </trkpt>
      <trkpt lat="44.32417" lon="6.80687">
        <ele>2641.8</ele>
        <time>2022-07-19T13:06:03Z</time>
      </trkpt>
      <trkpt lat="44.32416" lon="6.80688">
        <ele>2641.8</ele>
        <time>2022-07-19T13:06:04Z</time>
      </trkpt>
      <trkpt lat="44.32414" lon="6.80689">
        <ele>2642.2</ele>
        <time>2022-07-19T13:06:05Z</time>
      </trkpt>
      <trkpt lat="44.32413" lon="6.8069">
        <ele>2642.2</ele>
        <time>2022-07-19T13:06:06Z</time>
      </trkpt>
      <trkpt lat="44.32412" lon="6.8069">
        <ele>2642.6</ele>
        <time>2022-07-19T13:06:07Z</time>
      </trkpt>
      <trkpt lat="44.3241" lon="6.80691">
        <ele>2642.6</ele>
        <time>2022-07-19T13:06:08Z</time>
      </trkpt>
      <trkpt lat="44.32409" lon="6.80692">
        <ele>2643</ele>
        <time>2022-07-19T13:06:09Z</time>
      </trkpt>
      <trkpt lat="44.32408" lon="6.80692">
        <ele>2643</ele>
        <time>2022-07-19T13:06:10Z</time>
      </trkpt>
      <trkpt lat="44.32406" lon="6.80693">
        <ele>2643.2</ele>
        <time>2022-07-19T13:06:11Z</time>
      </trkpt>
      <trkpt lat="44.32405" lon="6.80694">
        <ele>2643.4</ele>
        <time>2022-07-19T13:06:12Z</time>
      </trkpt>
      <trkpt lat="44.32403" lon="6.80695">
        <ele>2643.8</ele>
        <time>2022-07-19T13:06:13Z</time>
      </trkpt>
      <trkpt lat="44.32402" lon="6.80695">
        <ele>2643.8</ele>
        <time>2022-07-19T13:06:14Z</time>
      </trkpt>
      <trkpt lat="44.32401" lon="6.80696">
        <ele>2644</ele>
        <time>2022-07-19T13:06:15Z</time>
      </trkpt>
      <trkpt lat="44.32399" lon="6.80697">
        <ele>2644</ele>
        <time>2022-07-19T13:06:16Z</time>
      </trkpt>
      <trkpt lat="44.32398" lon="6.80697">
        <ele>2644.4</ele>
        <time>2022-07-19T13:06:17Z</time>
      </trkpt>
      <trkpt lat="44.32396" lon="6.80698">
        <ele>2644.4</ele>
        <time>2022-07-19T13:06:18Z</time>
      </trkpt>
      <trkpt lat="44.32395" lon="6.80699">
        <ele>2644.6</ele>
        <time>2022-07-19T13:06:19Z</time>
      </trkpt>
      <trkpt lat="44.32394" lon="6.807">
        <ele>2645</ele>
        <time>2022-07-19T13:06:20Z</time>
      </trkpt>
      <trkpt lat="44.32392" lon="6.80701">
        <ele>2645.2</ele>
        <time>2022-07-19T13:06:21Z</time>
      </trkpt>
      <trkpt lat="44.32391" lon="6.80702">
        <ele>2645.4</ele>
        <time>2022-07-19T13:06:22Z</time>
      </trkpt>
      <trkpt lat="44.3239" lon="6.80703">
        <ele>2645.4</ele>
        <time>2022-07-19T13:06:23Z</time>
      </trkpt>
      <trkpt lat="44.32388" lon="6.80704">
        <ele>2645.6</ele>
        <time>2022-07-19T13:06:24Z</time>
      </trkpt>
      <trkpt lat="44.32387" lon="6.80704">
        <ele>2646</ele>
        <time>2022-07-19T13:06:25Z</time>
      </trkpt>
      <trkpt lat="44.32386" lon="6.80705">
        <ele>2646.2</ele>
        <time>2022-07-19T13:06:26Z</time>
      </trkpt>
      <trkpt lat="44.32385" lon="6.80706">
        <ele>2646.4</ele>
        <time>2022-07-19T13:06:27Z</time>
      </trkpt>
      <trkpt lat="44.32384" lon="6.80707">
        <ele>2646.6</ele>
        <time>2022-07-19T13:06:28Z</time>
      </trkpt>
      <trkpt lat="44.32382" lon="6.80708">
        <ele>2646.6</ele>
        <time>2022-07-19T13:06:29Z</time>
      </trkpt>
      <trkpt lat="44.32381" lon="6.80709">
        <ele>2647</ele>
        <time>2022-07-19T13:06:30Z</time>
      </trkpt>
      <trkpt lat="44.3238" lon="6.8071">
        <ele>2647.2</ele>
        <time>2022-07-19T13:06:31Z</time>
      </trkpt>
      <trkpt lat="44.32379" lon="6.80711">
        <ele>2647.2</ele>
        <time>2022-07-19T13:06:32Z</time>
      </trkpt>
      <trkpt lat="44.32377" lon="6.80711">
        <ele>2647.8</ele>
        <time>2022-07-19T13:06:33Z</time>
      </trkpt>
      <trkpt lat="44.32376" lon="6.80712">
        <ele>2648</ele>
        <time>2022-07-19T13:06:34Z</time>
      </trkpt>
      <trkpt lat="44.32375" lon="6.80713">
        <ele>2648.2</ele>
        <time>2022-07-19T13:06:35Z</time>
      </trkpt>
      <trkpt lat="44.32373" lon="6.80714">
        <ele>2648.4</ele>
        <time>2022-07-19T13:06:36Z</time>
      </trkpt>
      <trkpt lat="44.32372" lon="6.80715">
        <ele>2648.6</ele>
        <time>2022-07-19T13:06:37Z</time>
      </trkpt>
      <trkpt lat="44.3237" lon="6.80715">
        <ele>2648.6</ele>
        <time>2022-07-19T13:06:38Z</time>
      </trkpt>
      <trkpt lat="44.32369" lon="6.80715">
        <ele>2648.6</ele>
        <time>2022-07-19T13:06:39Z</time>
      </trkpt>
      <trkpt lat="44.32368" lon="6.80716">
        <ele>2649</ele>
        <time>2022-07-19T13:06:40Z</time>
      </trkpt>
      <trkpt lat="44.32366" lon="6.80716">
        <ele>2649</ele>
        <time>2022-07-19T13:06:41Z</time>
      </trkpt>
      <trkpt lat="44.32365" lon="6.80716">
        <ele>2649.4</ele>
        <time>2022-07-19T13:06:42Z</time>
      </trkpt>
      <trkpt lat="44.32364" lon="6.80717">
        <ele>2649.4</ele>
        <time>2022-07-19T13:06:43Z</time>
      </trkpt>
      <trkpt lat="44.32362" lon="6.80718">
        <ele>2649.8</ele>
        <time>2022-07-19T13:06:44Z</time>
      </trkpt>
      <trkpt lat="44.3236" lon="6.80718">
        <ele>2649.8</ele>
        <time>2022-07-19T13:06:45Z</time>
      </trkpt>
      <trkpt lat="44.32359" lon="6.80718">
        <ele>2650.2</ele>
        <time>2022-07-19T13:06:46Z</time>
      </trkpt>
      <trkpt lat="44.32357" lon="6.80719">
        <ele>2650.2</ele>
        <time>2022-07-19T13:06:47Z</time>
      </trkpt>
      <trkpt lat="44.32355" lon="6.8072">
        <ele>2650.4</ele>
        <time>2022-07-19T13:06:48Z</time>
      </trkpt>
      <trkpt lat="44.32354" lon="6.8072">
        <ele>2650.6</ele>
        <time>2022-07-19T13:06:49Z</time>
      </trkpt>
      <trkpt lat="44.32353" lon="6.80721">
        <ele>2650.6</ele>
        <time>2022-07-19T13:06:50Z</time>
      </trkpt>
      <trkpt lat="44.32351" lon="6.80722">
        <ele>2651</ele>
        <time>2022-07-19T13:06:51Z</time>
      </trkpt>
      <trkpt lat="44.3235" lon="6.80723">
        <ele>2651</ele>
        <time>2022-07-19T13:06:52Z</time>
      </trkpt>
      <trkpt lat="44.32349" lon="6.80724">
        <ele>2651.4</ele>
        <time>2022-07-19T13:06:53Z</time>
      </trkpt>
      <trkpt lat="44.32348" lon="6.80725">
        <ele>2651.4</ele>
        <time>2022-07-19T13:06:54Z</time>
      </trkpt>
      <trkpt lat="44.32347" lon="6.80726">
        <ele>2651.8</ele>
        <time>2022-07-19T13:06:55Z</time>
      </trkpt>
      <trkpt lat="44.32346" lon="6.80726">
        <ele>2652</ele>
        <time>2022-07-19T13:06:57Z</time>
      </trkpt>
      <trkpt lat="44.32344" lon="6.80727">
        <ele>2652</ele>
        <time>2022-07-19T13:06:58Z</time>
      </trkpt>
      <trkpt lat="44.32343" lon="6.80727">
        <ele>2652.4</ele>
        <time>2022-07-19T13:06:59Z</time>
      </trkpt>
      <trkpt lat="44.32342" lon="6.80728">
        <ele>2652.6</ele>
        <time>2022-07-19T13:07:00Z</time>
      </trkpt>
      <trkpt lat="44.3234" lon="6.80728">
        <ele>2652.6</ele>
        <time>2022-07-19T13:07:01Z</time>
      </trkpt>
      <trkpt lat="44.32339" lon="6.80729">
        <ele>2652.8</ele>
        <time>2022-07-19T13:07:02Z</time>
      </trkpt>
      <trkpt lat="44.32338" lon="6.8073">
        <ele>2653</ele>
        <time>2022-07-19T13:07:03Z</time>
      </trkpt>
      <trkpt lat="44.32337" lon="6.8073">
        <ele>2653</ele>
        <time>2022-07-19T13:07:04Z</time>
      </trkpt>
      <trkpt lat="44.32336" lon="6.80731">
        <ele>2653.4</ele>
        <time>2022-07-19T13:07:05Z</time>
      </trkpt>
      <trkpt lat="44.32335" lon="6.80732">
        <ele>2653.4</ele>
        <time>2022-07-19T13:07:06Z</time>
      </trkpt>
      <trkpt lat="44.32334" lon="6.80733">
        <ele>2653.4</ele>
        <time>2022-07-19T13:07:07Z</time>
      </trkpt>
      <trkpt lat="44.32333" lon="6.80733">
        <ele>2653.8</ele>
        <time>2022-07-19T13:07:08Z</time>
      </trkpt>
      <trkpt lat="44.32332" lon="6.80734">
        <ele>2654</ele>
        <time>2022-07-19T13:07:09Z</time>
      </trkpt>
      <trkpt lat="44.32331" lon="6.80736">
        <ele>2654.2</ele>
        <time>2022-07-19T13:07:10Z</time>
      </trkpt>
      <trkpt lat="44.3233" lon="6.80737">
        <ele>2654.2</ele>
        <time>2022-07-19T13:07:11Z</time>
      </trkpt>
      <trkpt lat="44.32328" lon="6.80738">
        <ele>2654.6</ele>
        <time>2022-07-19T13:07:12Z</time>
      </trkpt>
      <trkpt lat="44.32327" lon="6.80738">
        <ele>2654.8</ele>
        <time>2022-07-19T13:07:13Z</time>
      </trkpt>
      <trkpt lat="44.32326" lon="6.80739">
        <ele>2654.8</ele>
        <time>2022-07-19T13:07:14Z</time>
      </trkpt>
      <trkpt lat="44.32324" lon="6.8074">
        <ele>2655</ele>
        <time>2022-07-19T13:07:15Z</time>
      </trkpt>
      <trkpt lat="44.32323" lon="6.8074">
        <ele>2655.2</ele>
        <time>2022-07-19T13:07:16Z</time>
      </trkpt>
      <trkpt lat="44.32321" lon="6.80741">
        <ele>2655.2</ele>
        <time>2022-07-19T13:07:17Z</time>
      </trkpt>
      <trkpt lat="44.3232" lon="6.80742">
        <ele>2655.6</ele>
        <time>2022-07-19T13:07:18Z</time>
      </trkpt>
      <trkpt lat="44.32319" lon="6.80743">
        <ele>2655.6</ele>
        <time>2022-07-19T13:07:19Z</time>
      </trkpt>
      <trkpt lat="44.32317" lon="6.80744">
        <ele>2656</ele>
        <time>2022-07-19T13:07:20Z</time>
      </trkpt>
      <trkpt lat="44.32316" lon="6.80745">
        <ele>2656</ele>
        <time>2022-07-19T13:07:21Z</time>
      </trkpt>
      <trkpt lat="44.32315" lon="6.80746">
        <ele>2656.4</ele>
        <time>2022-07-19T13:07:22Z</time>
      </trkpt>
      <trkpt lat="44.32314" lon="6.80747">
        <ele>2656.6</ele>
        <time>2022-07-19T13:07:23Z</time>
      </trkpt>
      <trkpt lat="44.32313" lon="6.80748">
        <ele>2656.6</ele>
        <time>2022-07-19T13:07:24Z</time>
      </trkpt>
      <trkpt lat="44.32311" lon="6.80749">
        <ele>2656.8</ele>
        <time>2022-07-19T13:07:25Z</time>
      </trkpt>
      <trkpt lat="44.3231" lon="6.8075">
        <ele>2656.8</ele>
        <time>2022-07-19T13:07:26Z</time>
      </trkpt>
      <trkpt lat="44.32309" lon="6.80751">
        <ele>2657.2</ele>
        <time>2022-07-19T13:07:27Z</time>
      </trkpt>
      <trkpt lat="44.32309" lon="6.80752">
        <ele>2657.2</ele>
        <time>2022-07-19T13:07:28Z</time>
      </trkpt>
      <trkpt lat="44.32308" lon="6.80754">
        <ele>2657.6</ele>
        <time>2022-07-19T13:07:29Z</time>
      </trkpt>
      <trkpt lat="44.32307" lon="6.80756">
        <ele>2657.6</ele>
        <time>2022-07-19T13:07:30Z</time>
      </trkpt>
      <trkpt lat="44.32306" lon="6.80757">
        <ele>2657.6</ele>
        <time>2022-07-19T13:07:31Z</time>
      </trkpt>
      <trkpt lat="44.32305" lon="6.80757">
        <ele>2658</ele>
        <time>2022-07-19T13:07:32Z</time>
      </trkpt>
      <trkpt lat="44.32304" lon="6.80759">
        <ele>2658</ele>
        <time>2022-07-19T13:07:33Z</time>
      </trkpt>
      <trkpt lat="44.32303" lon="6.8076">
        <ele>2658</ele>
        <time>2022-07-19T13:07:34Z</time>
      </trkpt>
      <trkpt lat="44.32301" lon="6.8076">
        <ele>2658.4</ele>
        <time>2022-07-19T13:07:35Z</time>
      </trkpt>
      <trkpt lat="44.323" lon="6.80761">
        <ele>2658.6</ele>
        <time>2022-07-19T13:07:36Z</time>
      </trkpt>
      <trkpt lat="44.32299" lon="6.80761">
        <ele>2658.6</ele>
        <time>2022-07-19T13:07:37Z</time>
      </trkpt>
      <trkpt lat="44.32297" lon="6.80762">
        <ele>2658.8</ele>
        <time>2022-07-19T13:07:38Z</time>
      </trkpt>
      <trkpt lat="44.32296" lon="6.80764">
        <ele>2658.8</ele>
        <time>2022-07-19T13:07:39Z</time>
      </trkpt>
      <trkpt lat="44.32295" lon="6.80765">
        <ele>2659.2</ele>
        <time>2022-07-19T13:07:40Z</time>
      </trkpt>
      <trkpt lat="44.32294" lon="6.80766">
        <ele>2659.2</ele>
        <time>2022-07-19T13:07:41Z</time>
      </trkpt>
      <trkpt lat="44.32293" lon="6.80767">
        <ele>2659.6</ele>
        <time>2022-07-19T13:07:42Z</time>
      </trkpt>
      <trkpt lat="44.32292" lon="6.80768">
        <ele>2659.6</ele>
        <time>2022-07-19T13:07:43Z</time>
      </trkpt>
      <trkpt lat="44.32291" lon="6.80769">
        <ele>2660</ele>
        <time>2022-07-19T13:07:44Z</time>
      </trkpt>
      <trkpt lat="44.32289" lon="6.8077">
        <ele>2660</ele>
        <time>2022-07-19T13:07:45Z</time>
      </trkpt>
      <trkpt lat="44.32288" lon="6.80771">
        <ele>2660.2</ele>
        <time>2022-07-19T13:07:46Z</time>
      </trkpt>
      <trkpt lat="44.32287" lon="6.80772">
        <ele>2660.4</ele>
        <time>2022-07-19T13:07:47Z</time>
      </trkpt>
      <trkpt lat="44.32286" lon="6.80773">
        <ele>2660.6</ele>
        <time>2022-07-19T13:07:48Z</time>
      </trkpt>
      <trkpt lat="44.32284" lon="6.80774">
        <ele>2660.6</ele>
        <time>2022-07-19T13:07:49Z</time>
      </trkpt>
      <trkpt lat="44.32283" lon="6.80775">
        <ele>2661</ele>
        <time>2022-07-19T13:07:50Z</time>
      </trkpt>
      <trkpt lat="44.32282" lon="6.80775">
        <ele>2661</ele>
        <time>2022-07-19T13:07:51Z</time>
      </trkpt>
      <trkpt lat="44.3228" lon="6.80776">
        <ele>2661.4</ele>
        <time>2022-07-19T13:07:52Z</time>
      </trkpt>
      <trkpt lat="44.32279" lon="6.80777">
        <ele>2661.4</ele>
        <time>2022-07-19T13:07:53Z</time>
      </trkpt>
      <trkpt lat="44.32278" lon="6.80778">
        <ele>2661.6</ele>
        <time>2022-07-19T13:07:54Z</time>
      </trkpt>
      <trkpt lat="44.32276" lon="6.80779">
        <ele>2661.6</ele>
        <time>2022-07-19T13:07:55Z</time>
      </trkpt>
      <trkpt lat="44.32275" lon="6.80779">
        <ele>2662</ele>
        <time>2022-07-19T13:07:56Z</time>
      </trkpt>
      <trkpt lat="44.32274" lon="6.8078">
        <ele>2662.2</ele>
        <time>2022-07-19T13:07:57Z</time>
      </trkpt>
      <trkpt lat="44.32273" lon="6.80781">
        <ele>2662.4</ele>
        <time>2022-07-19T13:07:58Z</time>
      </trkpt>
      <trkpt lat="44.32272" lon="6.80782">
        <ele>2662.6</ele>
        <time>2022-07-19T13:07:59Z</time>
      </trkpt>
      <trkpt lat="44.32271" lon="6.80783">
        <ele>2662.6</ele>
        <time>2022-07-19T13:08:00Z</time>
      </trkpt>
      <trkpt lat="44.3227" lon="6.80785">
        <ele>2663</ele>
        <time>2022-07-19T13:08:01Z</time>
      </trkpt>
      <trkpt lat="44.32269" lon="6.80786">
        <ele>2663.2</ele>
        <time>2022-07-19T13:08:02Z</time>
      </trkpt>
      <trkpt lat="44.32268" lon="6.80787">
        <ele>2663.4</ele>
        <time>2022-07-19T13:08:03Z</time>
      </trkpt>
      <trkpt lat="44.32266" lon="6.80789">
        <ele>2663.6</ele>
        <time>2022-07-19T13:08:04Z</time>
      </trkpt>
      <trkpt lat="44.32265" lon="6.8079">
        <ele>2663.6</ele>
        <time>2022-07-19T13:08:05Z</time>
      </trkpt>
      <trkpt lat="44.32264" lon="6.80791">
        <ele>2664</ele>
        <time>2022-07-19T13:08:06Z</time>
      </trkpt>
      <trkpt lat="44.32263" lon="6.80791">
        <ele>2664.2</ele>
        <time>2022-07-19T13:08:07Z</time>
      </trkpt>
      <trkpt lat="44.32262" lon="6.80793">
        <ele>2664.2</ele>
        <time>2022-07-19T13:08:08Z</time>
      </trkpt>
      <trkpt lat="44.32261" lon="6.80794">
        <ele>2664.6</ele>
        <time>2022-07-19T13:08:09Z</time>
      </trkpt>
      <trkpt lat="44.3226" lon="6.80796">
        <ele>2664.6</ele>
        <time>2022-07-19T13:08:10Z</time>
      </trkpt>
      <trkpt lat="44.32259" lon="6.80797">
        <ele>2665</ele>
        <time>2022-07-19T13:08:11Z</time>
      </trkpt>
      <trkpt lat="44.32258" lon="6.80799">
        <ele>2665.2</ele>
        <time>2022-07-19T13:08:12Z</time>
      </trkpt>
      <trkpt lat="44.32257" lon="6.80801">
        <ele>2665.2</ele>
        <time>2022-07-19T13:08:13Z</time>
      </trkpt>
      <trkpt lat="44.32256" lon="6.80802">
        <ele>2665.6</ele>
        <time>2022-07-19T13:08:14Z</time>
      </trkpt>
      <trkpt lat="44.32256" lon="6.80804">
        <ele>2665.8</ele>
        <time>2022-07-19T13:08:15Z</time>
      </trkpt>
      <trkpt lat="44.32255" lon="6.80806">
        <ele>2666.2</ele>
        <time>2022-07-19T13:08:16Z</time>
      </trkpt>
      <trkpt lat="44.32254" lon="6.80807">
        <ele>2666.4</ele>
        <time>2022-07-19T13:08:17Z</time>
      </trkpt>
      <trkpt lat="44.32253" lon="6.80809">
        <ele>2666.6</ele>
        <time>2022-07-19T13:08:18Z</time>
      </trkpt>
      <trkpt lat="44.32252" lon="6.8081">
        <ele>2666.8</ele>
        <time>2022-07-19T13:08:19Z</time>
      </trkpt>
      <trkpt lat="44.32251" lon="6.80812">
        <ele>2667</ele>
        <time>2022-07-19T13:08:20Z</time>
      </trkpt>
      <trkpt lat="44.3225" lon="6.80814">
        <ele>2667.2</ele>
        <time>2022-07-19T13:08:21Z</time>
      </trkpt>
      <trkpt lat="44.32249" lon="6.80815">
        <ele>2667.4</ele>
        <time>2022-07-19T13:08:22Z</time>
      </trkpt>
      <trkpt lat="44.32248" lon="6.80816">
        <ele>2667.4</ele>
        <time>2022-07-19T13:08:23Z</time>
      </trkpt>
      <trkpt lat="44.32246" lon="6.80818">
        <ele>2667.8</ele>
        <time>2022-07-19T13:08:24Z</time>
      </trkpt>
      <trkpt lat="44.32245" lon="6.80819">
        <ele>2668</ele>
        <time>2022-07-19T13:08:25Z</time>
      </trkpt>
      <trkpt lat="44.32244" lon="6.8082">
        <ele>2668</ele>
        <time>2022-07-19T13:08:26Z</time>
      </trkpt>
      <trkpt lat="44.32243" lon="6.80822">
        <ele>2668.4</ele>
        <time>2022-07-19T13:08:27Z</time>
      </trkpt>
      <trkpt lat="44.32242" lon="6.80823">
        <ele>2668.4</ele>
        <time>2022-07-19T13:08:28Z</time>
      </trkpt>
      <trkpt lat="44.32241" lon="6.80824">
        <ele>2668.8</ele>
        <time>2022-07-19T13:08:29Z</time>
      </trkpt>
      <trkpt lat="44.3224" lon="6.80826">
        <ele>2668.8</ele>
        <time>2022-07-19T13:08:30Z</time>
      </trkpt>
      <trkpt lat="44.32238" lon="6.80827">
        <ele>2669</ele>
        <time>2022-07-19T13:08:31Z</time>
      </trkpt>
      <trkpt lat="44.32237" lon="6.80828">
        <ele>2669</ele>
        <time>2022-07-19T13:08:32Z</time>
      </trkpt>
      <trkpt lat="44.32236" lon="6.80829">
        <ele>2669.4</ele>
        <time>2022-07-19T13:08:33Z</time>
      </trkpt>
      <trkpt lat="44.32235" lon="6.80831">
        <ele>2669.8</ele>
        <time>2022-07-19T13:08:34Z</time>
      </trkpt>
      <trkpt lat="44.32234" lon="6.80832">
        <ele>2670</ele>
        <time>2022-07-19T13:08:35Z</time>
      </trkpt>
      <trkpt lat="44.32233" lon="6.80834">
        <ele>2670</ele>
        <time>2022-07-19T13:08:36Z</time>
      </trkpt>
      <trkpt lat="44.32231" lon="6.80836">
        <ele>2670.4</ele>
        <time>2022-07-19T13:08:37Z</time>
      </trkpt>
      <trkpt lat="44.3223" lon="6.80837">
        <ele>2670.4</ele>
        <time>2022-07-19T13:08:38Z</time>
      </trkpt>
      <trkpt lat="44.32229" lon="6.80839">
        <ele>2670.8</ele>
        <time>2022-07-19T13:08:39Z</time>
      </trkpt>
      <trkpt lat="44.32228" lon="6.8084">
        <ele>2671</ele>
        <time>2022-07-19T13:08:40Z</time>
      </trkpt>
      <trkpt lat="44.32227" lon="6.80841">
        <ele>2671.4</ele>
        <time>2022-07-19T13:08:41Z</time>
      </trkpt>
      <trkpt lat="44.32226" lon="6.80843">
        <ele>2671.4</ele>
        <time>2022-07-19T13:08:42Z</time>
      </trkpt>
      <trkpt lat="44.32226" lon="6.80844">
        <ele>2671.6</ele>
        <time>2022-07-19T13:08:43Z</time>
      </trkpt>
      <trkpt lat="44.32225" lon="6.80845">
        <ele>2671.8</ele>
        <time>2022-07-19T13:08:44Z</time>
      </trkpt>
      <trkpt lat="44.32223" lon="6.80846">
        <ele>2671.8</ele>
        <time>2022-07-19T13:08:45Z</time>
      </trkpt>
      <trkpt lat="44.32222" lon="6.80848">
        <ele>2672.2</ele>
        <time>2022-07-19T13:08:46Z</time>
      </trkpt>
      <trkpt lat="44.32221" lon="6.80849">
        <ele>2672.4</ele>
        <time>2022-07-19T13:08:47Z</time>
      </trkpt>
      <trkpt lat="44.32221" lon="6.80851">
        <ele>2672.4</ele>
        <time>2022-07-19T13:08:48Z</time>
      </trkpt>
      <trkpt lat="44.3222" lon="6.80852">
        <ele>2672.6</ele>
        <time>2022-07-19T13:08:49Z</time>
      </trkpt>
      <trkpt lat="44.32219" lon="6.80854">
        <ele>2672.6</ele>
        <time>2022-07-19T13:08:50Z</time>
      </trkpt>
      <trkpt lat="44.32219" lon="6.80856">
        <ele>2673</ele>
        <time>2022-07-19T13:08:51Z</time>
      </trkpt>
      <trkpt lat="44.32218" lon="6.80857">
        <ele>2673</ele>
        <time>2022-07-19T13:08:52Z</time>
      </trkpt>
      <trkpt lat="44.32217" lon="6.80858">
        <ele>2673.2</ele>
        <time>2022-07-19T13:08:53Z</time>
      </trkpt>
      <trkpt lat="44.32216" lon="6.80859">
        <ele>2673.2</ele>
        <time>2022-07-19T13:08:54Z</time>
      </trkpt>
      <trkpt lat="44.32215" lon="6.80861">
        <ele>2673.6</ele>
        <time>2022-07-19T13:08:55Z</time>
      </trkpt>
      <trkpt lat="44.32214" lon="6.80862">
        <ele>2673.6</ele>
        <time>2022-07-19T13:08:56Z</time>
      </trkpt>
      <trkpt lat="44.32213" lon="6.80863">
        <ele>2674</ele>
        <time>2022-07-19T13:08:57Z</time>
      </trkpt>
      <trkpt lat="44.32213" lon="6.80865">
        <ele>2674</ele>
        <time>2022-07-19T13:08:58Z</time>
      </trkpt>
      <trkpt lat="44.32213" lon="6.80866">
        <ele>2674.4</ele>
        <time>2022-07-19T13:08:59Z</time>
      </trkpt>
      <trkpt lat="44.32214" lon="6.80868">
        <ele>2674.4</ele>
        <time>2022-07-19T13:09:00Z</time>
      </trkpt>
      <trkpt lat="44.32213" lon="6.8087">
        <ele>2674.8</ele>
        <time>2022-07-19T13:09:01Z</time>
      </trkpt>
      <trkpt lat="44.32213" lon="6.80872">
        <ele>2675</ele>
        <time>2022-07-19T13:09:02Z</time>
      </trkpt>
      <trkpt lat="44.32211" lon="6.80873">
        <ele>2675.4</ele>
        <time>2022-07-19T13:09:03Z</time>
      </trkpt>
      <trkpt lat="44.3221" lon="6.80874">
        <ele>2675.4</ele>
        <time>2022-07-19T13:09:04Z</time>
      </trkpt>
      <trkpt lat="44.32209" lon="6.80875">
        <ele>2675.6</ele>
        <time>2022-07-19T13:09:05Z</time>
      </trkpt>
      <trkpt lat="44.32208" lon="6.80877">
        <ele>2675.6</ele>
        <time>2022-07-19T13:09:06Z</time>
      </trkpt>
      <trkpt lat="44.32206" lon="6.80878">
        <ele>2675.8</ele>
        <time>2022-07-19T13:09:07Z</time>
      </trkpt>
      <trkpt lat="44.32205" lon="6.8088">
        <ele>2675.8</ele>
        <time>2022-07-19T13:09:08Z</time>
      </trkpt>
      <trkpt lat="44.32205" lon="6.80882">
        <ele>2676.2</ele>
        <time>2022-07-19T13:09:09Z</time>
      </trkpt>
      <trkpt lat="44.32204" lon="6.80884">
        <ele>2676.2</ele>
        <time>2022-07-19T13:09:10Z</time>
      </trkpt>
      <trkpt lat="44.32203" lon="6.80885">
        <ele>2676.4</ele>
        <time>2022-07-19T13:09:11Z</time>
      </trkpt>
      <trkpt lat="44.32202" lon="6.80887">
        <ele>2676.4</ele>
        <time>2022-07-19T13:09:12Z</time>
      </trkpt>
      <trkpt lat="44.32202" lon="6.80888">
        <ele>2676.8</ele>
        <time>2022-07-19T13:09:13Z</time>
      </trkpt>
      <trkpt lat="44.32201" lon="6.8089">
        <ele>2676.8</ele>
        <time>2022-07-19T13:09:14Z</time>
      </trkpt>
      <trkpt lat="44.322" lon="6.80892">
        <ele>2677.2</ele>
        <time>2022-07-19T13:09:15Z</time>
      </trkpt>
      <trkpt lat="44.32199" lon="6.80893">
        <ele>2677.4</ele>
        <time>2022-07-19T13:09:16Z</time>
      </trkpt>
      <trkpt lat="44.32199" lon="6.80895">
        <ele>2677.4</ele>
        <time>2022-07-19T13:09:17Z</time>
      </trkpt>
      <trkpt lat="44.32198" lon="6.80897">
        <ele>2677.8</ele>
        <time>2022-07-19T13:09:18Z</time>
      </trkpt>
      <trkpt lat="44.32197" lon="6.80899">
        <ele>2678</ele>
        <time>2022-07-19T13:09:19Z</time>
      </trkpt>
      <trkpt lat="44.32196" lon="6.80901">
        <ele>2678</ele>
        <time>2022-07-19T13:09:20Z</time>
      </trkpt>
      <trkpt lat="44.32195" lon="6.80902">
        <ele>2678.4</ele>
        <time>2022-07-19T13:09:21Z</time>
      </trkpt>
      <trkpt lat="44.32194" lon="6.80903">
        <ele>2678.4</ele>
        <time>2022-07-19T13:09:22Z</time>
      </trkpt>
      <trkpt lat="44.32192" lon="6.80905">
        <ele>2678.6</ele>
        <time>2022-07-19T13:09:23Z</time>
      </trkpt>
      <trkpt lat="44.32191" lon="6.80906">
        <ele>2678.6</ele>
        <time>2022-07-19T13:09:24Z</time>
      </trkpt>
      <trkpt lat="44.3219" lon="6.80908">
        <ele>2679</ele>
        <time>2022-07-19T13:09:25Z</time>
      </trkpt>
      <trkpt lat="44.3219" lon="6.8091">
        <ele>2679</ele>
        <time>2022-07-19T13:09:26Z</time>
      </trkpt>
      <trkpt lat="44.32189" lon="6.80911">
        <ele>2679.4</ele>
        <time>2022-07-19T13:09:27Z</time>
      </trkpt>
      <trkpt lat="44.32188" lon="6.80912">
        <ele>2679.4</ele>
        <time>2022-07-19T13:09:28Z</time>
      </trkpt>
      <trkpt lat="44.32187" lon="6.80914">
        <ele>2679.8</ele>
        <time>2022-07-19T13:09:29Z</time>
      </trkpt>
      <trkpt lat="44.32186" lon="6.80916">
        <ele>2679.8</ele>
        <time>2022-07-19T13:09:30Z</time>
      </trkpt>
      <trkpt lat="44.32185" lon="6.80917">
        <ele>2680.2</ele>
        <time>2022-07-19T13:09:31Z</time>
      </trkpt>
      <trkpt lat="44.32184" lon="6.80919">
        <ele>2680.4</ele>
        <time>2022-07-19T13:09:32Z</time>
      </trkpt>
      <trkpt lat="44.32183" lon="6.80921">
        <ele>2680.4</ele>
        <time>2022-07-19T13:09:33Z</time>
      </trkpt>
      <trkpt lat="44.32182" lon="6.80922">
        <ele>2680.8</ele>
        <time>2022-07-19T13:09:34Z</time>
      </trkpt>
      <trkpt lat="44.32181" lon="6.80924">
        <ele>2681</ele>
        <time>2022-07-19T13:09:35Z</time>
      </trkpt>
      <trkpt lat="44.3218" lon="6.80925">
        <ele>2681</ele>
        <time>2022-07-19T13:09:36Z</time>
      </trkpt>
      <trkpt lat="44.32179" lon="6.80927">
        <ele>2681.4</ele>
        <time>2022-07-19T13:09:37Z</time>
      </trkpt>
      <trkpt lat="44.32178" lon="6.80928">
        <ele>2681.6</ele>
        <time>2022-07-19T13:09:38Z</time>
      </trkpt>
      <trkpt lat="44.32178" lon="6.8093">
        <ele>2681.8</ele>
        <time>2022-07-19T13:09:39Z</time>
      </trkpt>
      <trkpt lat="44.32177" lon="6.80931">
        <ele>2681.8</ele>
        <time>2022-07-19T13:09:40Z</time>
      </trkpt>
      <trkpt lat="44.32176" lon="6.80933">
        <ele>2682.4</ele>
        <time>2022-07-19T13:09:41Z</time>
      </trkpt>
      <trkpt lat="44.32175" lon="6.80934">
        <ele>2682.4</ele>
        <time>2022-07-19T13:09:42Z</time>
      </trkpt>
      <trkpt lat="44.32174" lon="6.80936">
        <ele>2682.8</ele>
        <time>2022-07-19T13:09:43Z</time>
      </trkpt>
      <trkpt lat="44.32173" lon="6.80937">
        <ele>2683</ele>
        <time>2022-07-19T13:09:44Z</time>
      </trkpt>
      <trkpt lat="44.32172" lon="6.80939">
        <ele>2683.2</ele>
        <time>2022-07-19T13:09:45Z</time>
      </trkpt>
      <trkpt lat="44.32172" lon="6.80941">
        <ele>2683.4</ele>
        <time>2022-07-19T13:09:46Z</time>
      </trkpt>
      <trkpt lat="44.32171" lon="6.80942">
        <ele>2683.6</ele>
        <time>2022-07-19T13:09:47Z</time>
      </trkpt>
      <trkpt lat="44.3217" lon="6.80943">
        <ele>2684</ele>
        <time>2022-07-19T13:09:48Z</time>
      </trkpt>
      <trkpt lat="44.32168" lon="6.80945">
        <ele>2684</ele>
        <time>2022-07-19T13:09:49Z</time>
      </trkpt>
      <trkpt lat="44.32167" lon="6.80946">
        <ele>2684.2</ele>
        <time>2022-07-19T13:09:50Z</time>
      </trkpt>
      <trkpt lat="44.32166" lon="6.80947">
        <ele>2684.6</ele>
        <time>2022-07-19T13:09:51Z</time>
      </trkpt>
      <trkpt lat="44.32164" lon="6.80947">
        <ele>2684.8</ele>
        <time>2022-07-19T13:09:52Z</time>
      </trkpt>
      <trkpt lat="44.32163" lon="6.80948">
        <ele>2684.8</ele>
        <time>2022-07-19T13:09:53Z</time>
      </trkpt>
      <trkpt lat="44.32162" lon="6.80949">
        <ele>2685</ele>
        <time>2022-07-19T13:09:54Z</time>
      </trkpt>
      <trkpt lat="44.3216" lon="6.80949">
        <ele>2685</ele>
        <time>2022-07-19T13:09:55Z</time>
      </trkpt>
      <trkpt lat="44.32159" lon="6.8095">
        <ele>2685.6</ele>
        <time>2022-07-19T13:09:56Z</time>
      </trkpt>
      <trkpt lat="44.32157" lon="6.8095">
        <ele>2685.8</ele>
        <time>2022-07-19T13:09:57Z</time>
      </trkpt>
      <trkpt lat="44.32156" lon="6.8095">
        <ele>2686</ele>
        <time>2022-07-19T13:09:58Z</time>
      </trkpt>
      <trkpt lat="44.32155" lon="6.80949">
        <ele>2686.4</ele>
        <time>2022-07-19T13:09:59Z</time>
      </trkpt>
      <trkpt lat="44.32153" lon="6.80948">
        <ele>2686.6</ele>
        <time>2022-07-19T13:10:00Z</time>
      </trkpt>
      <trkpt lat="44.32152" lon="6.80946">
        <ele>2686.8</ele>
        <time>2022-07-19T13:10:01Z</time>
      </trkpt>
      <trkpt lat="44.32151" lon="6.80944">
        <ele>2687</ele>
        <time>2022-07-19T13:10:02Z</time>
      </trkpt>
      <trkpt lat="44.3215" lon="6.80942">
        <ele>2687</ele>
        <time>2022-07-19T13:10:03Z</time>
      </trkpt>
      <trkpt lat="44.32149" lon="6.80941">
        <ele>2687.4</ele>
        <time>2022-07-19T13:10:04Z</time>
      </trkpt>
      <trkpt lat="44.32148" lon="6.80939">
        <ele>2687.4</ele>
        <time>2022-07-19T13:10:05Z</time>
      </trkpt>
      <trkpt lat="44.32147" lon="6.80937">
        <ele>2687.6</ele>
        <time>2022-07-19T13:10:06Z</time>
      </trkpt>
      <trkpt lat="44.32146" lon="6.80936">
        <ele>2687.6</ele>
        <time>2022-07-19T13:10:07Z</time>
      </trkpt>
      <trkpt lat="44.32145" lon="6.80934">
        <ele>2688</ele>
        <time>2022-07-19T13:10:08Z</time>
      </trkpt>
      <trkpt lat="44.32144" lon="6.80933">
        <ele>2688</ele>
        <time>2022-07-19T13:10:09Z</time>
      </trkpt>
      <trkpt lat="44.32143" lon="6.80931">
        <ele>2688.2</ele>
        <time>2022-07-19T13:10:10Z</time>
      </trkpt>
      <trkpt lat="44.32142" lon="6.8093">
        <ele>2688.2</ele>
        <time>2022-07-19T13:10:11Z</time>
      </trkpt>
      <trkpt lat="44.32141" lon="6.80928">
        <ele>2688.6</ele>
        <time>2022-07-19T13:10:12Z</time>
      </trkpt>
      <trkpt lat="44.3214" lon="6.80927">
        <ele>2688.8</ele>
        <time>2022-07-19T13:10:13Z</time>
      </trkpt>
      <trkpt lat="44.32139" lon="6.80926">
        <ele>2688.8</ele>
        <time>2022-07-19T13:10:14Z</time>
      </trkpt>
      <trkpt lat="44.32138" lon="6.80924">
        <ele>2689.2</ele>
        <time>2022-07-19T13:10:15Z</time>
      </trkpt>
      <trkpt lat="44.32138" lon="6.80922">
        <ele>2689.6</ele>
        <time>2022-07-19T13:10:16Z</time>
      </trkpt>
      <trkpt lat="44.32137" lon="6.8092">
        <ele>2689.6</ele>
        <time>2022-07-19T13:10:17Z</time>
      </trkpt>
      <trkpt lat="44.32136" lon="6.80919">
        <ele>2689.8</ele>
        <time>2022-07-19T13:10:18Z</time>
      </trkpt>
      <trkpt lat="44.32136" lon="6.80917">
        <ele>2689.8</ele>
        <time>2022-07-19T13:10:19Z</time>
      </trkpt>
      <trkpt lat="44.32135" lon="6.80915">
        <ele>2690.2</ele>
        <time>2022-07-19T13:10:20Z</time>
      </trkpt>
      <trkpt lat="44.32134" lon="6.80914">
        <ele>2690.4</ele>
        <time>2022-07-19T13:10:21Z</time>
      </trkpt>
      <trkpt lat="44.32134" lon="6.80912">
        <ele>2690.4</ele>
        <time>2022-07-19T13:10:22Z</time>
      </trkpt>
      <trkpt lat="44.32133" lon="6.8091">
        <ele>2690.6</ele>
        <time>2022-07-19T13:10:23Z</time>
      </trkpt>
      <trkpt lat="44.32132" lon="6.80908">
        <ele>2690.8</ele>
        <time>2022-07-19T13:10:24Z</time>
      </trkpt>
      <trkpt lat="44.32131" lon="6.80906">
        <ele>2691</ele>
        <time>2022-07-19T13:10:25Z</time>
      </trkpt>
      <trkpt lat="44.3213" lon="6.80905">
        <ele>2691.2</ele>
        <time>2022-07-19T13:10:26Z</time>
      </trkpt>
      <trkpt lat="44.3213" lon="6.80903">
        <ele>2691.6</ele>
        <time>2022-07-19T13:10:27Z</time>
      </trkpt>
      <trkpt lat="44.32129" lon="6.80901">
        <ele>2691.8</ele>
        <time>2022-07-19T13:10:28Z</time>
      </trkpt>
      <trkpt lat="44.32129" lon="6.80899">
        <ele>2692</ele>
        <time>2022-07-19T13:10:29Z</time>
      </trkpt>
      <trkpt lat="44.32128" lon="6.80898">
        <ele>2692</ele>
        <time>2022-07-19T13:10:30Z</time>
      </trkpt>
      <trkpt lat="44.32127" lon="6.80897">
        <ele>2692.4</ele>
        <time>2022-07-19T13:10:31Z</time>
      </trkpt>
      <trkpt lat="44.32125" lon="6.80895">
        <ele>2692.4</ele>
        <time>2022-07-19T13:10:32Z</time>
      </trkpt>
      <trkpt lat="44.32125" lon="6.80894">
        <ele>2692.8</ele>
        <time>2022-07-19T13:10:33Z</time>
      </trkpt>
      <trkpt lat="44.32124" lon="6.80892">
        <ele>2693</ele>
        <time>2022-07-19T13:10:34Z</time>
      </trkpt>
      <trkpt lat="44.32124" lon="6.8089">
        <ele>2693</ele>
        <time>2022-07-19T13:10:35Z</time>
      </trkpt>
      <trkpt lat="44.32123" lon="6.80889">
        <ele>2693</ele>
        <time>2022-07-19T13:10:36Z</time>
      </trkpt>
      <trkpt lat="44.32122" lon="6.80888">
        <ele>2693.4</ele>
        <time>2022-07-19T13:10:37Z</time>
      </trkpt>
      <trkpt lat="44.32121" lon="6.80887">
        <ele>2693.4</ele>
        <time>2022-07-19T13:10:38Z</time>
      </trkpt>
      <trkpt lat="44.32119" lon="6.80886">
        <ele>2693.6</ele>
        <time>2022-07-19T13:10:39Z</time>
      </trkpt>
      <trkpt lat="44.32118" lon="6.80885">
        <ele>2693.8</ele>
        <time>2022-07-19T13:10:40Z</time>
      </trkpt>
      <trkpt lat="44.32118" lon="6.80883">
        <ele>2694.2</ele>
        <time>2022-07-19T13:10:41Z</time>
      </trkpt>
      <trkpt lat="44.32117" lon="6.80881">
        <ele>2694.4</ele>
        <time>2022-07-19T13:10:42Z</time>
      </trkpt>
      <trkpt lat="44.32117" lon="6.8088">
        <ele>2694.6</ele>
        <time>2022-07-19T13:10:43Z</time>
      </trkpt>
      <trkpt lat="44.32116" lon="6.80878">
        <ele>2695</ele>
        <time>2022-07-19T13:10:44Z</time>
      </trkpt>
      <trkpt lat="44.32115" lon="6.80876">
        <ele>2695.2</ele>
        <time>2022-07-19T13:10:45Z</time>
      </trkpt>
      <trkpt lat="44.32115" lon="6.80875">
        <ele>2695.4</ele>
        <time>2022-07-19T13:10:46Z</time>
      </trkpt>
      <trkpt lat="44.32114" lon="6.80874">
        <ele>2695.6</ele>
        <time>2022-07-19T13:10:47Z</time>
      </trkpt>
      <trkpt lat="44.32113" lon="6.80872">
        <ele>2695.8</ele>
        <time>2022-07-19T13:10:48Z</time>
      </trkpt>
      <trkpt lat="44.32112" lon="6.80871">
        <ele>2696</ele>
        <time>2022-07-19T13:10:49Z</time>
      </trkpt>
      <trkpt lat="44.32111" lon="6.8087">
        <ele>2696.4</ele>
        <time>2022-07-19T13:10:50Z</time>
      </trkpt>
      <trkpt lat="44.3211" lon="6.80869">
        <ele>2696.4</ele>
        <time>2022-07-19T13:10:51Z</time>
      </trkpt>
      <trkpt lat="44.32109" lon="6.80868">
        <ele>2696.6</ele>
        <time>2022-07-19T13:10:52Z</time>
      </trkpt>
      <trkpt lat="44.32108" lon="6.80867">
        <ele>2696.6</ele>
        <time>2022-07-19T13:10:53Z</time>
      </trkpt>
      <trkpt lat="44.32107" lon="6.80866">
        <ele>2697</ele>
        <time>2022-07-19T13:10:54Z</time>
      </trkpt>
      <trkpt lat="44.32107" lon="6.80865">
        <ele>2697</ele>
        <time>2022-07-19T13:10:55Z</time>
      </trkpt>
      <trkpt lat="44.32106" lon="6.80864">
        <ele>2697.2</ele>
        <time>2022-07-19T13:10:56Z</time>
      </trkpt>
      <trkpt lat="44.32105" lon="6.80862">
        <ele>2697.4</ele>
        <time>2022-07-19T13:10:57Z</time>
      </trkpt>
      <trkpt lat="44.32105" lon="6.80861">
        <ele>2697.4</ele>
        <time>2022-07-19T13:10:58Z</time>
      </trkpt>
      <trkpt lat="44.32104" lon="6.80859">
        <ele>2697.6</ele>
        <time>2022-07-19T13:10:59Z</time>
      </trkpt>
      <trkpt lat="44.32103" lon="6.80858">
        <ele>2697.6</ele>
        <time>2022-07-19T13:11:00Z</time>
      </trkpt>
      <trkpt lat="44.32102" lon="6.80857">
        <ele>2698</ele>
        <time>2022-07-19T13:11:01Z</time>
      </trkpt>
      <trkpt lat="44.32101" lon="6.80856">
        <ele>2698</ele>
        <time>2022-07-19T13:11:02Z</time>
      </trkpt>
      <trkpt lat="44.321" lon="6.80855">
        <ele>2698.4</ele>
        <time>2022-07-19T13:11:03Z</time>
      </trkpt>
      <trkpt lat="44.32099" lon="6.80854">
        <ele>2698.4</ele>
        <time>2022-07-19T13:11:04Z</time>
      </trkpt>
      <trkpt lat="44.32098" lon="6.80853">
        <ele>2698.6</ele>
        <time>2022-07-19T13:11:05Z</time>
      </trkpt>
      <trkpt lat="44.32098" lon="6.80851">
        <ele>2698.6</ele>
        <time>2022-07-19T13:11:06Z</time>
      </trkpt>
      <trkpt lat="44.32097" lon="6.8085">
        <ele>2698.8</ele>
        <time>2022-07-19T13:11:07Z</time>
      </trkpt>
      <trkpt lat="44.32096" lon="6.80848">
        <ele>2698.8</ele>
        <time>2022-07-19T13:11:08Z</time>
      </trkpt>
      <trkpt lat="44.32095" lon="6.80847">
        <ele>2699.2</ele>
        <time>2022-07-19T13:11:09Z</time>
      </trkpt>
      <trkpt lat="44.32094" lon="6.80846">
        <ele>2699.2</ele>
        <time>2022-07-19T13:11:10Z</time>
      </trkpt>
      <trkpt lat="44.32093" lon="6.80844">
        <ele>2699.4</ele>
        <time>2022-07-19T13:11:11Z</time>
      </trkpt>
      <trkpt lat="44.32093" lon="6.80843">
        <ele>2699.8</ele>
        <time>2022-07-19T13:11:12Z</time>
      </trkpt>
      <trkpt lat="44.32091" lon="6.80842">
        <ele>2699.8</ele>
        <time>2022-07-19T13:11:13Z</time>
      </trkpt>
      <trkpt lat="44.32091" lon="6.80841">
        <ele>2700</ele>
        <time>2022-07-19T13:11:14Z</time>
      </trkpt>
      <trkpt lat="44.3209" lon="6.8084">
        <ele>2700</ele>
        <time>2022-07-19T13:11:15Z</time>
      </trkpt>
      <trkpt lat="44.32089" lon="6.80838">
        <ele>2700.2</ele>
        <time>2022-07-19T13:11:16Z</time>
      </trkpt>
      <trkpt lat="44.32088" lon="6.80836">
        <ele>2700.2</ele>
        <time>2022-07-19T13:11:17Z</time>
      </trkpt>
      <trkpt lat="44.32087" lon="6.80835">
        <ele>2700.6</ele>
        <time>2022-07-19T13:11:18Z</time>
      </trkpt>
      <trkpt lat="44.32086" lon="6.80833">
        <ele>2700.6</ele>
        <time>2022-07-19T13:11:19Z</time>
      </trkpt>
      <trkpt lat="44.32086" lon="6.80832">
        <ele>2700.8</ele>
        <time>2022-07-19T13:11:20Z</time>
      </trkpt>
      <trkpt lat="44.32085" lon="6.8083">
        <ele>2700.8</ele>
        <time>2022-07-19T13:11:21Z</time>
      </trkpt>
      <trkpt lat="44.32084" lon="6.80829">
        <ele>2701.2</ele>
        <time>2022-07-19T13:11:22Z</time>
      </trkpt>
      <trkpt lat="44.32083" lon="6.80827">
        <ele>2701.2</ele>
        <time>2022-07-19T13:11:23Z</time>
      </trkpt>
      <trkpt lat="44.32082" lon="6.80825">
        <ele>2701.4</ele>
        <time>2022-07-19T13:11:24Z</time>
      </trkpt>
      <trkpt lat="44.32081" lon="6.80823">
        <ele>2701.4</ele>
        <time>2022-07-19T13:11:25Z</time>
      </trkpt>
      <trkpt lat="44.3208" lon="6.80821">
        <ele>2701.8</ele>
        <time>2022-07-19T13:11:26Z</time>
      </trkpt>
      <trkpt lat="44.3208" lon="6.80819">
        <ele>2701.8</ele>
        <time>2022-07-19T13:11:27Z</time>
      </trkpt>
      <trkpt lat="44.32079" lon="6.80817">
        <ele>2702.2</ele>
        <time>2022-07-19T13:11:28Z</time>
      </trkpt>
      <trkpt lat="44.32078" lon="6.80815">
        <ele>2702.2</ele>
        <time>2022-07-19T13:11:29Z</time>
      </trkpt>
      <trkpt lat="44.32078" lon="6.80813">
        <ele>2702.6</ele>
        <time>2022-07-19T13:11:30Z</time>
      </trkpt>
      <trkpt lat="44.32077" lon="6.8081">
        <ele>2702.6</ele>
        <time>2022-07-19T13:11:31Z</time>
      </trkpt>
      <trkpt lat="44.32077" lon="6.80808">
        <ele>2702.8</ele>
        <time>2022-07-19T13:11:32Z</time>
      </trkpt>
      <trkpt lat="44.32077" lon="6.80806">
        <ele>2702.8</ele>
        <time>2022-07-19T13:11:33Z</time>
      </trkpt>
      <trkpt lat="44.32076" lon="6.80804">
        <ele>2702.8</ele>
        <time>2022-07-19T13:11:34Z</time>
      </trkpt>
      <trkpt lat="44.32076" lon="6.80802">
        <ele>2703.2</ele>
        <time>2022-07-19T13:11:35Z</time>
      </trkpt>
      <trkpt lat="44.32075" lon="6.808">
        <ele>2703.2</ele>
        <time>2022-07-19T13:11:36Z</time>
      </trkpt>
      <trkpt lat="44.32074" lon="6.80798">
        <ele>2703.2</ele>
        <time>2022-07-19T13:11:37Z</time>
      </trkpt>
      <trkpt lat="44.32074" lon="6.80796">
        <ele>2703.4</ele>
        <time>2022-07-19T13:11:38Z</time>
      </trkpt>
      <trkpt lat="44.32073" lon="6.80794">
        <ele>2703.4</ele>
        <time>2022-07-19T13:11:39Z</time>
      </trkpt>
      <trkpt lat="44.32073" lon="6.80792">
        <ele>2703.8</ele>
        <time>2022-07-19T13:11:40Z</time>
      </trkpt>
      <trkpt lat="44.32072" lon="6.8079">
        <ele>2703.8</ele>
        <time>2022-07-19T13:11:41Z</time>
      </trkpt>
      <trkpt lat="44.32072" lon="6.80788">
        <ele>2704</ele>
        <time>2022-07-19T13:11:42Z</time>
      </trkpt>
      <trkpt lat="44.32071" lon="6.80786">
        <ele>2704</ele>
        <time>2022-07-19T13:11:43Z</time>
      </trkpt>
      <trkpt lat="44.32071" lon="6.80784">
        <ele>2704.4</ele>
        <time>2022-07-19T13:11:44Z</time>
      </trkpt>
      <trkpt lat="44.3207" lon="6.80782">
        <ele>2704.4</ele>
        <time>2022-07-19T13:11:45Z</time>
      </trkpt>
      <trkpt lat="44.32069" lon="6.8078">
        <ele>2704.6</ele>
        <time>2022-07-19T13:11:46Z</time>
      </trkpt>
      <trkpt lat="44.32068" lon="6.80779">
        <ele>2704.6</ele>
        <time>2022-07-19T13:11:47Z</time>
      </trkpt>
      <trkpt lat="44.32067" lon="6.80777">
        <ele>2704.8</ele>
        <time>2022-07-19T13:11:48Z</time>
      </trkpt>
      <trkpt lat="44.32067" lon="6.80776">
        <ele>2704.8</ele>
        <time>2022-07-19T13:11:49Z</time>
      </trkpt>
      <trkpt lat="44.32066" lon="6.80774">
        <ele>2705</ele>
        <time>2022-07-19T13:11:50Z</time>
      </trkpt>
      <trkpt lat="44.32065" lon="6.80773">
        <ele>2705</ele>
        <time>2022-07-19T13:11:51Z</time>
      </trkpt>
      <trkpt lat="44.32064" lon="6.80771">
        <ele>2705.4</ele>
        <time>2022-07-19T13:11:52Z</time>
      </trkpt>
      <trkpt lat="44.32063" lon="6.80769">
        <ele>2705.4</ele>
        <time>2022-07-19T13:11:53Z</time>
      </trkpt>
      <trkpt lat="44.32062" lon="6.80768">
        <ele>2705.6</ele>
        <time>2022-07-19T13:11:54Z</time>
      </trkpt>
      <trkpt lat="44.32061" lon="6.80766">
        <ele>2705.6</ele>
        <time>2022-07-19T13:11:55Z</time>
      </trkpt>
      <trkpt lat="44.3206" lon="6.80764">
        <ele>2706</ele>
        <time>2022-07-19T13:11:56Z</time>
      </trkpt>
      <trkpt lat="44.3206" lon="6.80762">
        <ele>2706</ele>
        <time>2022-07-19T13:11:57Z</time>
      </trkpt>
      <trkpt lat="44.32058" lon="6.80761">
        <ele>2706.2</ele>
        <time>2022-07-19T13:11:58Z</time>
      </trkpt>
      <trkpt lat="44.32057" lon="6.8076">
        <ele>2706.2</ele>
        <time>2022-07-19T13:11:59Z</time>
      </trkpt>
      <trkpt lat="44.32056" lon="6.80758">
        <ele>2706.6</ele>
        <time>2022-07-19T13:12:00Z</time>
      </trkpt>
      <trkpt lat="44.32055" lon="6.80756">
        <ele>2706.6</ele>
        <time>2022-07-19T13:12:01Z</time>
      </trkpt>
      <trkpt lat="44.32055" lon="6.80754">
        <ele>2706.6</ele>
        <time>2022-07-19T13:12:02Z</time>
      </trkpt>
      <trkpt lat="44.32054" lon="6.80752">
        <ele>2706.8</ele>
        <time>2022-07-19T13:12:03Z</time>
      </trkpt>
      <trkpt lat="44.32053" lon="6.8075">
        <ele>2706.8</ele>
        <time>2022-07-19T13:12:04Z</time>
      </trkpt>
      <trkpt lat="44.32052" lon="6.80748">
        <ele>2707</ele>
        <time>2022-07-19T13:12:05Z</time>
      </trkpt>
      <trkpt lat="44.32051" lon="6.80746">
        <ele>2707</ele>
        <time>2022-07-19T13:12:06Z</time>
      </trkpt>
      <trkpt lat="44.32051" lon="6.80744">
        <ele>2707</ele>
        <time>2022-07-19T13:12:07Z</time>
      </trkpt>
      <trkpt lat="44.32051" lon="6.80741">
        <ele>2707.2</ele>
        <time>2022-07-19T13:12:08Z</time>
      </trkpt>
      <trkpt lat="44.3205" lon="6.80738">
        <ele>2707.2</ele>
        <time>2022-07-19T13:12:09Z</time>
      </trkpt>
      <trkpt lat="44.3205" lon="6.80736">
        <ele>2707.2</ele>
        <time>2022-07-19T13:12:10Z</time>
      </trkpt>
      <trkpt lat="44.3205" lon="6.80734">
        <ele>2707.4</ele>
        <time>2022-07-19T13:12:11Z</time>
      </trkpt>
      <trkpt lat="44.32049" lon="6.80731">
        <ele>2707.4</ele>
        <time>2022-07-19T13:12:12Z</time>
      </trkpt>
      <trkpt lat="44.32049" lon="6.80731">
        <ele>2707.4</ele>
        <time>2022-07-19T13:12:13Z</time>
      </trkpt>
      <trkpt lat="44.32049" lon="6.80731">
        <ele>2707.4</ele>
        <time>2022-07-19T13:12:14Z</time>
      </trkpt>
      <trkpt lat="44.32049" lon="6.80731">
        <ele>2707.8</ele>
        <time>2022-07-19T13:12:15Z</time>
      </trkpt>
      <trkpt lat="44.32049" lon="6.80731">
        <ele>2707.8</ele>
        <time>2022-07-19T13:12:16Z</time>
      </trkpt>
      <trkpt lat="44.32049" lon="6.8073">
        <ele>2707.8</ele>
        <time>2022-07-19T13:12:17Z</time>
      </trkpt>
      <trkpt lat="44.32049" lon="6.8073">
        <ele>2707.8</ele>
        <time>2022-07-19T13:12:18Z</time>
      </trkpt>
      <trkpt lat="44.32049" lon="6.8073">
        <ele>2707.8</ele>
        <time>2022-07-19T13:12:19Z</time>
      </trkpt>
      <trkpt lat="44.32049" lon="6.8073">
        <ele>2707.8</ele>
        <time>2022-07-19T13:12:20Z</time>
      </trkpt>
      <trkpt lat="44.32049" lon="6.8073">
        <ele>2707.8</ele>
        <time>2022-07-19T13:12:21Z</time>
      </trkpt>
      <trkpt lat="44.32049" lon="6.8073">
        <ele>2707.8</ele>
        <time>2022-07-19T13:12:22Z</time>
      </trkpt>
      <trkpt lat="44.32049" lon="6.8073">
        <ele>2708</ele>
        <time>2022-07-19T13:12:25Z</time>
      </trkpt>
      <trkpt lat="44.32049" lon="6.8073">
        <ele>2708</ele>
        <time>2022-07-19T13:12:26Z</time>
      </trkpt>
      <trkpt lat="44.32049" lon="6.80729">
        <ele>2708</ele>
        <time>2022-07-19T13:12:27Z</time>
      </trkpt>
      <trkpt lat="44.32049" lon="6.80729">
        <ele>2708</ele>
        <time>2022-07-19T13:12:28Z</time>
      </trkpt>
      <trkpt lat="44.32049" lon="6.80729">
        <ele>2708</ele>
        <time>2022-07-19T13:12:29Z</time>
      </trkpt>
      <trkpt lat="44.32049" lon="6.80729">
        <ele>2708</ele>
        <time>2022-07-19T13:12:30Z</time>
      </trkpt>
      <trkpt lat="44.32049" lon="6.80729">
        <ele>2708.4</ele>
        <time>2022-07-19T13:12:36Z</time>
      </trkpt>
      <trkpt lat="44.32049" lon="6.80729">
        <ele>2708.4</ele>
        <time>2022-07-19T13:12:37Z</time>
      </trkpt>
      <trkpt lat="44.32049" lon="6.80729">
        <ele>2708.4</ele>
        <time>2022-07-19T13:12:38Z</time>
      </trkpt>
      <trkpt lat="44.32049" lon="6.80729">
        <ele>2708.4</ele>
        <time>2022-07-19T13:12:39Z</time>
      </trkpt>
      <trkpt lat="44.32049" lon="6.80729">
        <ele>2708.4</ele>
        <time>2022-07-19T13:12:40Z</time>
      </trkpt>
      <trkpt lat="44.32049" lon="6.80728">
        <ele>2708.4</ele>
        <time>2022-07-19T13:12:41Z</time>
      </trkpt>
      <trkpt lat="44.32049" lon="6.80728">
        <ele>2708.4</ele>
        <time>2022-07-19T13:12:42Z</time>
      </trkpt>
      <trkpt lat="44.32049" lon="6.80728">
        <ele>2708.2</ele>
        <time>2022-07-19T13:12:58Z</time>
      </trkpt>
      <trkpt lat="44.32049" lon="6.80728">
        <ele>2708.2</ele>
        <time>2022-07-19T13:12:59Z</time>
      </trkpt>
      <trkpt lat="44.32049" lon="6.80728">
        <ele>2708.2</ele>
        <time>2022-07-19T13:13:00Z</time>
      </trkpt>
      <trkpt lat="44.32049" lon="6.80728">
        <ele>2708.2</ele>
        <time>2022-07-19T13:13:01Z</time>
      </trkpt>
      <trkpt lat="44.32049" lon="6.80728">
        <ele>2708.2</ele>
        <time>2022-07-19T13:13:02Z</time>
      </trkpt>
      <trkpt lat="44.32049" lon="6.80728">
        <ele>2708.2</ele>
        <time>2022-07-19T13:13:08Z</time>
      </trkpt>
      <trkpt lat="44.32049" lon="6.80727">
        <ele>2708.2</ele>
        <time>2022-07-19T13:13:09Z</time>
      </trkpt>
      <trkpt lat="44.32049" lon="6.80727">
        <ele>2708.2</ele>
        <time>2022-07-19T13:13:10Z</time>
      </trkpt>
      <trkpt lat="44.32049" lon="6.80727">
        <ele>2707.8</ele>
        <time>2022-07-19T13:13:39Z</time>
      </trkpt>
      <trkpt lat="44.32048" lon="6.80727">
        <ele>2707.8</ele>
        <time>2022-07-19T13:13:40Z</time>
      </trkpt>
      <trkpt lat="44.32048" lon="6.80727">
        <ele>2708</ele>
        <time>2022-07-19T13:13:41Z</time>
      </trkpt>
      <trkpt lat="44.32048" lon="6.80727">
        <ele>2708</ele>
        <time>2022-07-19T13:13:42Z</time>
      </trkpt>
      <trkpt lat="44.32048" lon="6.80727">
        <ele>2708</ele>
        <time>2022-07-19T13:13:43Z</time>
      </trkpt>
      <trkpt lat="44.32048" lon="6.80727">
        <ele>2708</ele>
        <time>2022-07-19T13:13:44Z</time>
      </trkpt>
      <trkpt lat="44.32048" lon="6.80726">
        <ele>2708</ele>
        <time>2022-07-19T13:13:45Z</time>
      </trkpt>
      <trkpt lat="44.32048" lon="6.80726">
        <ele>2708</ele>
        <time>2022-07-19T13:13:53Z</time>
      </trkpt>
      <trkpt lat="44.32048" lon="6.80726">
        <ele>2708</ele>
        <time>2022-07-19T13:13:54Z</time>
      </trkpt>
      <trkpt lat="44.32048" lon="6.80726">
        <ele>2708</ele>
        <time>2022-07-19T13:13:55Z</time>
      </trkpt>
      <trkpt lat="44.32048" lon="6.80726">
        <ele>2708</ele>
        <time>2022-07-19T13:13:56Z</time>
      </trkpt>
      <trkpt lat="44.32048" lon="6.80726">
        <ele>2708</ele>
        <time>2022-07-19T13:13:57Z</time>
      </trkpt>
      <trkpt lat="44.32048" lon="6.80726">
        <ele>2708</ele>
        <time>2022-07-19T13:13:58Z</time>
      </trkpt>
      <trkpt lat="44.32048" lon="6.80726">
        <ele>2708</ele>
        <time>2022-07-19T13:13:59Z</time>
      </trkpt>
      <trkpt lat="44.32048" lon="6.80725">
        <ele>2708</ele>
        <time>2022-07-19T13:14:00Z</time>
      </trkpt>
      <trkpt lat="44.32048" lon="6.80725">
        <ele>2708</ele>
        <time>2022-07-19T13:14:02Z</time>
      </trkpt>
      <trkpt lat="44.32048" lon="6.80725">
        <ele>2708</ele>
        <time>2022-07-19T13:14:03Z</time>
      </trkpt>
      <trkpt lat="44.32048" lon="6.80725">
        <ele>2708</ele>
        <time>2022-07-19T13:14:06Z</time>
      </trkpt>
      <trkpt lat="44.32048" lon="6.80725">
        <ele>2708</ele>
        <time>2022-07-19T13:14:07Z</time>
      </trkpt>
      <trkpt lat="44.32048" lon="6.80725">
        <ele>2708</ele>
        <time>2022-07-19T13:14:08Z</time>
      </trkpt>
      <trkpt lat="44.32048" lon="6.80725">
        <ele>2708</ele>
        <time>2022-07-19T13:14:11Z</time>
      </trkpt>
      <trkpt lat="44.32048" lon="6.80725">
        <ele>2708</ele>
        <time>2022-07-19T13:14:12Z</time>
      </trkpt>
      <trkpt lat="44.32048" lon="6.80724">
        <ele>2708.2</ele>
        <time>2022-07-19T13:14:27Z</time>
      </trkpt>
      <trkpt lat="44.32048" lon="6.80724">
        <ele>2708.2</ele>
        <time>2022-07-19T13:14:28Z</time>
      </trkpt>
      <trkpt lat="44.32048" lon="6.80724">
        <ele>2708</ele>
        <time>2022-07-19T13:14:29Z</time>
      </trkpt>
      <trkpt lat="44.32048" lon="6.80724">
        <ele>2708</ele>
        <time>2022-07-19T13:14:30Z</time>
      </trkpt>
      <trkpt lat="44.32048" lon="6.80724">
        <ele>2708</ele>
        <time>2022-07-19T13:14:31Z</time>
      </trkpt>
      <trkpt lat="44.32048" lon="6.80724">
        <ele>2708</ele>
        <time>2022-07-19T13:14:32Z</time>
      </trkpt>
      <trkpt lat="44.32048" lon="6.80724">
        <ele>2708</ele>
        <time>2022-07-19T13:14:33Z</time>
      </trkpt>
      <trkpt lat="44.32048" lon="6.80724">
        <ele>2708</ele>
        <time>2022-07-19T13:14:35Z</time>
      </trkpt>
      <trkpt lat="44.32048" lon="6.80723">
        <ele>2707.8</ele>
        <time>2022-07-19T13:14:36Z</time>
      </trkpt>
      <trkpt lat="44.32048" lon="6.80723">
        <ele>2707.8</ele>
        <time>2022-07-19T13:14:37Z</time>
      </trkpt>
      <trkpt lat="44.32048" lon="6.80723">
        <ele>2707.8</ele>
        <time>2022-07-19T13:14:38Z</time>
      </trkpt>
      <trkpt lat="44.32048" lon="6.80723">
        <ele>2707.8</ele>
        <time>2022-07-19T13:14:39Z</time>
      </trkpt>
      <trkpt lat="44.32048" lon="6.80723">
        <ele>2707.8</ele>
        <time>2022-07-19T13:14:42Z</time>
      </trkpt>
      <trkpt lat="44.32048" lon="6.80723">
        <ele>2707.8</ele>
        <time>2022-07-19T13:14:43Z</time>
      </trkpt>
      <trkpt lat="44.32048" lon="6.80723">
        <ele>2707.8</ele>
        <time>2022-07-19T13:14:44Z</time>
      </trkpt>
      <trkpt lat="44.32048" lon="6.80723">
        <ele>2707.8</ele>
        <time>2022-07-19T13:14:45Z</time>
      </trkpt>
      <trkpt lat="44.32048" lon="6.80722">
        <ele>2707.8</ele>
        <time>2022-07-19T13:14:46Z</time>
      </trkpt>
      <trkpt lat="44.32047" lon="6.80722">
        <ele>2707.8</ele>
        <time>2022-07-19T13:14:48Z</time>
      </trkpt>
      <trkpt lat="44.32047" lon="6.80722">
        <ele>2707.8</ele>
        <time>2022-07-19T13:14:49Z</time>
      </trkpt>
      <trkpt lat="44.32047" lon="6.80722">
        <ele>2707.8</ele>
        <time>2022-07-19T13:14:50Z</time>
      </trkpt>
      <trkpt lat="44.32047" lon="6.80722">
        <ele>2707.8</ele>
        <time>2022-07-19T13:14:51Z</time>
      </trkpt>
      <trkpt lat="44.32047" lon="6.80722">
        <ele>2707.8</ele>
        <time>2022-07-19T13:14:52Z</time>
      </trkpt>
      <trkpt lat="44.32047" lon="6.80722">
        <ele>2707.8</ele>
        <time>2022-07-19T13:14:53Z</time>
      </trkpt>
      <trkpt lat="44.32047" lon="6.80722">
        <ele>2707.8</ele>
        <time>2022-07-19T13:14:54Z</time>
      </trkpt>
      <trkpt lat="44.32047" lon="6.80722">
        <ele>2707.8</ele>
        <time>2022-07-19T13:14:55Z</time>
      </trkpt>
      <trkpt lat="44.32047" lon="6.80721">
        <ele>2707.8</ele>
        <time>2022-07-19T13:14:56Z</time>
      </trkpt>
      <trkpt lat="44.32047" lon="6.80721">
        <ele>2707.8</ele>
        <time>2022-07-19T13:14:57Z</time>
      </trkpt>
      <trkpt lat="44.32047" lon="6.80721">
        <ele>2707.8</ele>
        <time>2022-07-19T13:14:58Z</time>
      </trkpt>
      <trkpt lat="44.32047" lon="6.80721">
        <ele>2707.8</ele>
        <time>2022-07-19T13:14:59Z</time>
      </trkpt>
      <trkpt lat="44.32047" lon="6.80721">
        <ele>2707.8</ele>
        <time>2022-07-19T13:15:00Z</time>
      </trkpt>
      <trkpt lat="44.32047" lon="6.80721">
        <ele>2707.8</ele>
        <time>2022-07-19T13:15:02Z</time>
      </trkpt>
      <trkpt lat="44.32047" lon="6.80721">
        <ele>2707.8</ele>
        <time>2022-07-19T13:15:03Z</time>
      </trkpt>
      <trkpt lat="44.32047" lon="6.80721">
        <ele>2708</ele>
        <time>2022-07-19T13:15:38Z</time>
      </trkpt>
      <trkpt lat="44.32047" lon="6.8072">
        <ele>2708</ele>
        <time>2022-07-19T13:15:39Z</time>
      </trkpt>
      <trkpt lat="44.32047" lon="6.8072">
        <ele>2708</ele>
        <time>2022-07-19T13:15:40Z</time>
      </trkpt>
      <trkpt lat="44.32047" lon="6.8072">
        <ele>2708.2</ele>
        <time>2022-07-19T13:15:41Z</time>
      </trkpt>
      <trkpt lat="44.32047" lon="6.8072">
        <ele>2708.2</ele>
        <time>2022-07-19T13:15:42Z</time>
      </trkpt>
      <trkpt lat="44.32047" lon="6.8072">
        <ele>2708.2</ele>
        <time>2022-07-19T13:15:43Z</time>
      </trkpt>
      <trkpt lat="44.32047" lon="6.8072">
        <ele>2708.2</ele>
        <time>2022-07-19T13:15:44Z</time>
      </trkpt>
      <trkpt lat="44.32047" lon="6.8072">
        <ele>2708.2</ele>
        <time>2022-07-19T13:15:45Z</time>
      </trkpt>
      <trkpt lat="44.32047" lon="6.8072">
        <ele>2708.2</ele>
        <time>2022-07-19T13:15:46Z</time>
      </trkpt>
      <trkpt lat="44.32048" lon="6.80717">
        <ele>2708.2</ele>
        <time>2022-07-19T13:15:47Z</time>
      </trkpt>
      <trkpt lat="44.32049" lon="6.80714">
        <ele>2708.2</ele>
        <time>2022-07-19T13:15:48Z</time>
      </trkpt>
      <trkpt lat="44.3205" lon="6.80712">
        <ele>2708.2</ele>
        <time>2022-07-19T13:15:49Z</time>
      </trkpt>
      <trkpt lat="44.32051" lon="6.80709">
        <ele>2708.2</ele>
        <time>2022-07-19T13:15:50Z</time>
      </trkpt>
      <trkpt lat="44.32053" lon="6.80706">
        <ele>2708.2</ele>
        <time>2022-07-19T13:15:51Z</time>
      </trkpt>
      <trkpt lat="44.32055" lon="6.80703">
        <ele>2708.2</ele>
        <time>2022-07-19T13:15:52Z</time>
      </trkpt>
      <trkpt lat="44.32057" lon="6.807">
        <ele>2708.2</ele>
        <time>2022-07-19T13:15:53Z</time>
      </trkpt>
      <trkpt lat="44.32058" lon="6.80697">
        <ele>2708.2</ele>
        <time>2022-07-19T13:15:54Z</time>
      </trkpt>
      <trkpt lat="44.3206" lon="6.80694">
        <ele>2708.2</ele>
        <time>2022-07-19T13:15:55Z</time>
      </trkpt>
      <trkpt lat="44.32062" lon="6.80691">
        <ele>2708.2</ele>
        <time>2022-07-19T13:15:56Z</time>
      </trkpt>
      <trkpt lat="44.32063" lon="6.80688">
        <ele>2708.2</ele>
        <time>2022-07-19T13:15:57Z</time>
      </trkpt>
      <trkpt lat="44.32065" lon="6.80685">
        <ele>2708.2</ele>
        <time>2022-07-19T13:15:58Z</time>
      </trkpt>
      <trkpt lat="44.32067" lon="6.80681">
        <ele>2708.2</ele>
        <time>2022-07-19T13:15:59Z</time>
      </trkpt>
      <trkpt lat="44.32068" lon="6.80678">
        <ele>2708.2</ele>
        <time>2022-07-19T13:16:00Z</time>
      </trkpt>
      <trkpt lat="44.3207" lon="6.80675">
        <ele>2708</ele>
        <time>2022-07-19T13:16:01Z</time>
      </trkpt>
      <trkpt lat="44.32072" lon="6.80671">
        <ele>2708</ele>
        <time>2022-07-19T13:16:02Z</time>
      </trkpt>
      <trkpt lat="44.32074" lon="6.80667">
        <ele>2707.6</ele>
        <time>2022-07-19T13:16:03Z</time>
      </trkpt>
      <trkpt lat="44.32076" lon="6.80662">
        <ele>2707.6</ele>
        <time>2022-07-19T13:16:04Z</time>
      </trkpt>
      <trkpt lat="44.32077" lon="6.80656">
        <ele>2707.2</ele>
        <time>2022-07-19T13:16:05Z</time>
      </trkpt>
      <trkpt lat="44.32078" lon="6.8065">
        <ele>2707.2</ele>
        <time>2022-07-19T13:16:06Z</time>
      </trkpt>
      <trkpt lat="44.32079" lon="6.80644">
        <ele>2706.8</ele>
        <time>2022-07-19T13:16:07Z</time>
      </trkpt>
      <trkpt lat="44.32079" lon="6.80636">
        <ele>2706.8</ele>
        <time>2022-07-19T13:16:08Z</time>
      </trkpt>
      <trkpt lat="44.32079" lon="6.80628">
        <ele>2706.2</ele>
        <time>2022-07-19T13:16:09Z</time>
      </trkpt>
      <trkpt lat="44.32077" lon="6.80619">
        <ele>2705.8</ele>
        <time>2022-07-19T13:16:10Z</time>
      </trkpt>
      <trkpt lat="44.32075" lon="6.8061">
        <ele>2705</ele>
        <time>2022-07-19T13:16:11Z</time>
      </trkpt>
      <trkpt lat="44.32071" lon="6.806">
        <ele>2704.2</ele>
        <time>2022-07-19T13:16:12Z</time>
      </trkpt>
      <trkpt lat="44.32067" lon="6.80589">
        <ele>2703.2</ele>
        <time>2022-07-19T13:16:13Z</time>
      </trkpt>
      <trkpt lat="44.32063" lon="6.80577">
        <ele>2702.4</ele>
        <time>2022-07-19T13:16:14Z</time>
      </trkpt>
      <trkpt lat="44.32059" lon="6.80563">
        <ele>2701.2</ele>
        <time>2022-07-19T13:16:15Z</time>
      </trkpt>
      <trkpt lat="44.32056" lon="6.80549">
        <ele>2700</ele>
        <time>2022-07-19T13:16:16Z</time>
      </trkpt>
      <trkpt lat="44.32053" lon="6.80535">
        <ele>2699</ele>
        <time>2022-07-19T13:16:17Z</time>
      </trkpt>
      <trkpt lat="44.32051" lon="6.80521">
        <ele>2697.8</ele>
        <time>2022-07-19T13:16:18Z</time>
      </trkpt>
      <trkpt lat="44.32049" lon="6.80509">
        <ele>2696.6</ele>
        <time>2022-07-19T13:16:19Z</time>
      </trkpt>
      <trkpt lat="44.32048" lon="6.80497">
        <ele>2695.4</ele>
        <time>2022-07-19T13:16:20Z</time>
      </trkpt>
      <trkpt lat="44.32045" lon="6.80486">
        <ele>2694.4</ele>
        <time>2022-07-19T13:16:21Z</time>
      </trkpt>
      <trkpt lat="44.32041" lon="6.80475">
        <ele>2693.4</ele>
        <time>2022-07-19T13:16:22Z</time>
      </trkpt>
      <trkpt lat="44.32038" lon="6.80466">
        <ele>2692.6</ele>
        <time>2022-07-19T13:16:23Z</time>
      </trkpt>
      <trkpt lat="44.32036" lon="6.80458">
        <ele>2691.6</ele>
        <time>2022-07-19T13:16:24Z</time>
      </trkpt>
      <trkpt lat="44.32035" lon="6.80451">
        <ele>2690.6</ele>
        <time>2022-07-19T13:16:25Z</time>
      </trkpt>
      <trkpt lat="44.32035" lon="6.80445">
        <ele>2690.6</ele>
        <time>2022-07-19T13:16:26Z</time>
      </trkpt>
      <trkpt lat="44.32036" lon="6.80439">
        <ele>2689.8</ele>
        <time>2022-07-19T13:16:27Z</time>
      </trkpt>
      <trkpt lat="44.32039" lon="6.80435">
        <ele>2689</ele>
        <time>2022-07-19T13:16:28Z</time>
      </trkpt>
      <trkpt lat="44.32044" lon="6.80431">
        <ele>2688.2</ele>
        <time>2022-07-19T13:16:29Z</time>
      </trkpt>
      <trkpt lat="44.32051" lon="6.8043">
        <ele>2687.4</ele>
        <time>2022-07-19T13:16:30Z</time>
      </trkpt>
      <trkpt lat="44.32058" lon="6.80432">
        <ele>2686.6</ele>
        <time>2022-07-19T13:16:31Z</time>
      </trkpt>
      <trkpt lat="44.32066" lon="6.80435">
        <ele>2685.8</ele>
        <time>2022-07-19T13:16:32Z</time>
      </trkpt>
      <trkpt lat="44.32074" lon="6.80439">
        <ele>2684.8</ele>
        <time>2022-07-19T13:16:33Z</time>
      </trkpt>
      <trkpt lat="44.32084" lon="6.80445">
        <ele>2683.8</ele>
        <time>2022-07-19T13:16:34Z</time>
      </trkpt>
      <trkpt lat="44.32093" lon="6.80448">
        <ele>2682.8</ele>
        <time>2022-07-19T13:16:35Z</time>
      </trkpt>
      <trkpt lat="44.32102" lon="6.80451">
        <ele>2681.8</ele>
        <time>2022-07-19T13:16:36Z</time>
      </trkpt>
      <trkpt lat="44.32112" lon="6.80451">
        <ele>2680.8</ele>
        <time>2022-07-19T13:16:37Z</time>
      </trkpt>
      <trkpt lat="44.32124" lon="6.80452">
        <ele>2679.8</ele>
        <time>2022-07-19T13:16:38Z</time>
      </trkpt>
      <trkpt lat="44.32135" lon="6.80452">
        <ele>2678.8</ele>
        <time>2022-07-19T13:16:39Z</time>
      </trkpt>
      <trkpt lat="44.32146" lon="6.80454">
        <ele>2677.8</ele>
        <time>2022-07-19T13:16:40Z</time>
      </trkpt>
      <trkpt lat="44.32157" lon="6.80454">
        <ele>2676.6</ele>
        <time>2022-07-19T13:16:41Z</time>
      </trkpt>
      <trkpt lat="44.32167" lon="6.80453">
        <ele>2675.2</ele>
        <time>2022-07-19T13:16:42Z</time>
      </trkpt>
      <trkpt lat="44.32177" lon="6.80452">
        <ele>2674</ele>
        <time>2022-07-19T13:16:43Z</time>
      </trkpt>
      <trkpt lat="44.32186" lon="6.80451">
        <ele>2672.8</ele>
        <time>2022-07-19T13:16:44Z</time>
      </trkpt>
      <trkpt lat="44.32195" lon="6.80452">
        <ele>2671.8</ele>
        <time>2022-07-19T13:16:45Z</time>
      </trkpt>
      <trkpt lat="44.32203" lon="6.80455">
        <ele>2670.8</ele>
        <time>2022-07-19T13:16:46Z</time>
      </trkpt>
      <trkpt lat="44.32211" lon="6.8046">
        <ele>2669.6</ele>
        <time>2022-07-19T13:16:47Z</time>
      </trkpt>
      <trkpt lat="44.32218" lon="6.80468">
        <ele>2668.6</ele>
        <time>2022-07-19T13:16:48Z</time>
      </trkpt>
      <trkpt lat="44.32225" lon="6.80479">
        <ele>2667.4</ele>
        <time>2022-07-19T13:16:49Z</time>
      </trkpt>
      <trkpt lat="44.3223" lon="6.80491">
        <ele>2666.2</ele>
        <time>2022-07-19T13:16:50Z</time>
      </trkpt>
      <trkpt lat="44.32236" lon="6.80502">
        <ele>2665.2</ele>
        <time>2022-07-19T13:16:51Z</time>
      </trkpt>
      <trkpt lat="44.32242" lon="6.80512">
        <ele>2664</ele>
        <time>2022-07-19T13:16:52Z</time>
      </trkpt>
      <trkpt lat="44.32247" lon="6.80521">
        <ele>2663</ele>
        <time>2022-07-19T13:16:53Z</time>
      </trkpt>
      <trkpt lat="44.32253" lon="6.8053">
        <ele>2661.8</ele>
        <time>2022-07-19T13:16:54Z</time>
      </trkpt>
      <trkpt lat="44.3226" lon="6.80537">
        <ele>2660.8</ele>
        <time>2022-07-19T13:16:55Z</time>
      </trkpt>
      <trkpt lat="44.32268" lon="6.80542">
        <ele>2659.6</ele>
        <time>2022-07-19T13:16:56Z</time>
      </trkpt>
      <trkpt lat="44.32277" lon="6.80545">
        <ele>2658.4</ele>
        <time>2022-07-19T13:16:57Z</time>
      </trkpt>
      <trkpt lat="44.32286" lon="6.80546">
        <ele>2657.2</ele>
        <time>2022-07-19T13:16:58Z</time>
      </trkpt>
      <trkpt lat="44.32295" lon="6.80548">
        <ele>2656</ele>
        <time>2022-07-19T13:16:59Z</time>
      </trkpt>
      <trkpt lat="44.32304" lon="6.80553">
        <ele>2655</ele>
        <time>2022-07-19T13:17:00Z</time>
      </trkpt>
      <trkpt lat="44.32311" lon="6.8056">
        <ele>2653.8</ele>
        <time>2022-07-19T13:17:01Z</time>
      </trkpt>
      <trkpt lat="44.32318" lon="6.80569">
        <ele>2652.6</ele>
        <time>2022-07-19T13:17:02Z</time>
      </trkpt>
      <trkpt lat="44.32326" lon="6.80579">
        <ele>2651.2</ele>
        <time>2022-07-19T13:17:03Z</time>
      </trkpt>
      <trkpt lat="44.32336" lon="6.80588">
        <ele>2649.8</ele>
        <time>2022-07-19T13:17:04Z</time>
      </trkpt>
      <trkpt lat="44.32346" lon="6.80596">
        <ele>2648.4</ele>
        <time>2022-07-19T13:17:05Z</time>
      </trkpt>
      <trkpt lat="44.32355" lon="6.80602">
        <ele>2647.2</ele>
        <time>2022-07-19T13:17:06Z</time>
      </trkpt>
      <trkpt lat="44.32364" lon="6.80609">
        <ele>2646</ele>
        <time>2022-07-19T13:17:07Z</time>
      </trkpt>
      <trkpt lat="44.32375" lon="6.80613">
        <ele>2644.8</ele>
        <time>2022-07-19T13:17:08Z</time>
      </trkpt>
      <trkpt lat="44.32385" lon="6.80617">
        <ele>2643.6</ele>
        <time>2022-07-19T13:17:09Z</time>
      </trkpt>
      <trkpt lat="44.32395" lon="6.80619">
        <ele>2642.6</ele>
        <time>2022-07-19T13:17:10Z</time>
      </trkpt>
      <trkpt lat="44.32406" lon="6.8062">
        <ele>2641.4</ele>
        <time>2022-07-19T13:17:11Z</time>
      </trkpt>
      <trkpt lat="44.32416" lon="6.8062">
        <ele>2640.2</ele>
        <time>2022-07-19T13:17:12Z</time>
      </trkpt>
      <trkpt lat="44.32425" lon="6.8062">
        <ele>2639</ele>
        <time>2022-07-19T13:17:13Z</time>
      </trkpt>
      <trkpt lat="44.32433" lon="6.80622">
        <ele>2638</ele>
        <time>2022-07-19T13:17:14Z</time>
      </trkpt>
      <trkpt lat="44.32443" lon="6.80625">
        <ele>2637</ele>
        <time>2022-07-19T13:17:15Z</time>
      </trkpt>
      <trkpt lat="44.32453" lon="6.8063">
        <ele>2636</ele>
        <time>2022-07-19T13:17:16Z</time>
      </trkpt>
      <trkpt lat="44.32463" lon="6.80635">
        <ele>2635</ele>
        <time>2022-07-19T13:17:17Z</time>
      </trkpt>
      <trkpt lat="44.32472" lon="6.80641">
        <ele>2633.8</ele>
        <time>2022-07-19T13:17:18Z</time>
      </trkpt>
      <trkpt lat="44.32482" lon="6.80646">
        <ele>2632.6</ele>
        <time>2022-07-19T13:17:19Z</time>
      </trkpt>
      <trkpt lat="44.32491" lon="6.80648">
        <ele>2631.2</ele>
        <time>2022-07-19T13:17:20Z</time>
      </trkpt>
      <trkpt lat="44.32501" lon="6.80648">
        <ele>2630</ele>
        <time>2022-07-19T13:17:21Z</time>
      </trkpt>
      <trkpt lat="44.32511" lon="6.80647">
        <ele>2628.8</ele>
        <time>2022-07-19T13:17:22Z</time>
      </trkpt>
      <trkpt lat="44.32519" lon="6.80644">
        <ele>2627.8</ele>
        <time>2022-07-19T13:17:23Z</time>
      </trkpt>
      <trkpt lat="44.32527" lon="6.8064">
        <ele>2626.8</ele>
        <time>2022-07-19T13:17:24Z</time>
      </trkpt>
      <trkpt lat="44.32534" lon="6.80635">
        <ele>2626</ele>
        <time>2022-07-19T13:17:25Z</time>
      </trkpt>
      <trkpt lat="44.32542" lon="6.80628">
        <ele>2625.2</ele>
        <time>2022-07-19T13:17:26Z</time>
      </trkpt>
      <trkpt lat="44.32548" lon="6.80621">
        <ele>2624.6</ele>
        <time>2022-07-19T13:17:27Z</time>
      </trkpt>
      <trkpt lat="44.32554" lon="6.80615">
        <ele>2624</ele>
        <time>2022-07-19T13:17:28Z</time>
      </trkpt>
      <trkpt lat="44.3256" lon="6.8061">
        <ele>2623.2</ele>
        <time>2022-07-19T13:17:29Z</time>
      </trkpt>
      <trkpt lat="44.32566" lon="6.80608">
        <ele>2622.6</ele>
        <time>2022-07-19T13:17:30Z</time>
      </trkpt>
      <trkpt lat="44.32571" lon="6.80607">
        <ele>2622.2</ele>
        <time>2022-07-19T13:17:31Z</time>
      </trkpt>
      <trkpt lat="44.32576" lon="6.8061">
        <ele>2622</ele>
        <time>2022-07-19T13:17:32Z</time>
      </trkpt>
      <trkpt lat="44.3258" lon="6.80615">
        <ele>2621.6</ele>
        <time>2022-07-19T13:17:33Z</time>
      </trkpt>
      <trkpt lat="44.32584" lon="6.80622">
        <ele>2621.2</ele>
        <time>2022-07-19T13:17:34Z</time>
      </trkpt>
      <trkpt lat="44.32588" lon="6.80631">
        <ele>2620.8</ele>
        <time>2022-07-19T13:17:35Z</time>
      </trkpt>
      <trkpt lat="44.32591" lon="6.80639">
        <ele>2620.4</ele>
        <time>2022-07-19T13:17:36Z</time>
      </trkpt>
      <trkpt lat="44.32595" lon="6.80648">
        <ele>2620.2</ele>
        <time>2022-07-19T13:17:37Z</time>
      </trkpt>
      <trkpt lat="44.326" lon="6.80656">
        <ele>2620</ele>
        <time>2022-07-19T13:17:38Z</time>
      </trkpt>
      <trkpt lat="44.32604" lon="6.80665">
        <ele>2619.8</ele>
        <time>2022-07-19T13:17:39Z</time>
      </trkpt>
      <trkpt lat="44.32609" lon="6.80673">
        <ele>2619.8</ele>
        <time>2022-07-19T13:17:40Z</time>
      </trkpt>
      <trkpt lat="44.32615" lon="6.8068">
        <ele>2619.4</ele>
        <time>2022-07-19T13:17:41Z</time>
      </trkpt>
      <trkpt lat="44.32621" lon="6.80686">
        <ele>2619.4</ele>
        <time>2022-07-19T13:17:42Z</time>
      </trkpt>
      <trkpt lat="44.32627" lon="6.8069">
        <ele>2619.2</ele>
        <time>2022-07-19T13:17:43Z</time>
      </trkpt>
      <trkpt lat="44.32634" lon="6.80694">
        <ele>2619.2</ele>
        <time>2022-07-19T13:17:44Z</time>
      </trkpt>
      <trkpt lat="44.3264" lon="6.80698">
        <ele>2619.2</ele>
        <time>2022-07-19T13:17:45Z</time>
      </trkpt>
      <trkpt lat="44.32646" lon="6.80702">
        <ele>2619.2</ele>
        <time>2022-07-19T13:17:46Z</time>
      </trkpt>
      <trkpt lat="44.32652" lon="6.80706">
        <ele>2619.2</ele>
        <time>2022-07-19T13:17:47Z</time>
      </trkpt>
      <trkpt lat="44.32657" lon="6.80711">
        <ele>2619.4</ele>
        <time>2022-07-19T13:17:48Z</time>
      </trkpt>
      <trkpt lat="44.32661" lon="6.80717">
        <ele>2619.4</ele>
        <time>2022-07-19T13:17:49Z</time>
      </trkpt>
      <trkpt lat="44.32665" lon="6.80723">
        <ele>2619.6</ele>
        <time>2022-07-19T13:17:50Z</time>
      </trkpt>
      <trkpt lat="44.32668" lon="6.80727">
        <ele>2619.6</ele>
        <time>2022-07-19T13:17:51Z</time>
      </trkpt>
      <trkpt lat="44.3267" lon="6.80731">
        <ele>2619.6</ele>
        <time>2022-07-19T13:17:52Z</time>
      </trkpt>
      <trkpt lat="44.32672" lon="6.80736">
        <ele>2619.6</ele>
        <time>2022-07-19T13:17:53Z</time>
      </trkpt>
      <trkpt lat="44.32672" lon="6.80741">
        <ele>2619.6</ele>
        <time>2022-07-19T13:17:54Z</time>
      </trkpt>
      <trkpt lat="44.3267" lon="6.80745">
        <ele>2619.6</ele>
        <time>2022-07-19T13:17:55Z</time>
      </trkpt>
      <trkpt lat="44.32667" lon="6.80747">
        <ele>2619.8</ele>
        <time>2022-07-19T13:17:56Z</time>
      </trkpt>
      <trkpt lat="44.32665" lon="6.80748">
        <ele>2619.8</ele>
        <time>2022-07-19T13:17:57Z</time>
      </trkpt>
      <trkpt lat="44.32662" lon="6.80749">
        <ele>2620</ele>
        <time>2022-07-19T13:17:58Z</time>
      </trkpt>
      <trkpt lat="44.32659" lon="6.80749">
        <ele>2620</ele>
        <time>2022-07-19T13:17:59Z</time>
      </trkpt>
      <trkpt lat="44.32657" lon="6.80749">
        <ele>2620.2</ele>
        <time>2022-07-19T13:18:00Z</time>
      </trkpt>
      <trkpt lat="44.32654" lon="6.80747">
        <ele>2620.2</ele>
        <time>2022-07-19T13:18:01Z</time>
      </trkpt>
      <trkpt lat="44.32653" lon="6.80746">
        <ele>2620.6</ele>
        <time>2022-07-19T13:18:02Z</time>
      </trkpt>
      <trkpt lat="44.32651" lon="6.80745">
        <ele>2620.6</ele>
        <time>2022-07-19T13:18:03Z</time>
      </trkpt>
      <trkpt lat="44.32651" lon="6.80744">
        <ele>2620.8</ele>
        <time>2022-07-19T13:18:04Z</time>
      </trkpt>
      <trkpt lat="44.3265" lon="6.80745">
        <ele>2620.8</ele>
        <time>2022-07-19T13:18:05Z</time>
      </trkpt>
      <trkpt lat="44.3265" lon="6.80745">
        <ele>2620.8</ele>
        <time>2022-07-19T13:18:06Z</time>
      </trkpt>
      <trkpt lat="44.3265" lon="6.80745">
        <ele>2621</ele>
        <time>2022-07-19T13:18:11Z</time>
      </trkpt>
      <trkpt lat="44.3265" lon="6.80745">
        <ele>2621.2</ele>
        <time>2022-07-19T13:18:16Z</time>
      </trkpt>
      <trkpt lat="44.3265" lon="6.80745">
        <ele>2621</ele>
        <time>2022-07-19T13:18:54Z</time>
      </trkpt>
      <trkpt lat="44.3265" lon="6.80745">
        <ele>2621</ele>
        <time>2022-07-19T13:18:59Z</time>
      </trkpt>
      <trkpt lat="44.32651" lon="6.80746">
        <ele>2621.2</ele>
        <time>2022-07-19T13:19:05Z</time>
      </trkpt>
      <trkpt lat="44.32653" lon="6.80747">
        <ele>2621.2</ele>
        <time>2022-07-19T13:19:06Z</time>
      </trkpt>
      <trkpt lat="44.32655" lon="6.80748">
        <ele>2621.2</ele>
        <time>2022-07-19T13:19:07Z</time>
      </trkpt>
      <trkpt lat="44.32657" lon="6.80749">
        <ele>2621.2</ele>
        <time>2022-07-19T13:19:08Z</time>
      </trkpt>
      <trkpt lat="44.32659" lon="6.8075">
        <ele>2621.2</ele>
        <time>2022-07-19T13:19:09Z</time>
      </trkpt>
      <trkpt lat="44.32661" lon="6.80749">
        <ele>2621</ele>
        <time>2022-07-19T13:19:10Z</time>
      </trkpt>
      <trkpt lat="44.32664" lon="6.80748">
        <ele>2621</ele>
        <time>2022-07-19T13:19:11Z</time>
      </trkpt>
      <trkpt lat="44.32667" lon="6.80747">
        <ele>2620.6</ele>
        <time>2022-07-19T13:19:12Z</time>
      </trkpt>
      <trkpt lat="44.3267" lon="6.80745">
        <ele>2620.6</ele>
        <time>2022-07-19T13:19:13Z</time>
      </trkpt>
      <trkpt lat="44.32673" lon="6.80743">
        <ele>2620.4</ele>
        <time>2022-07-19T13:19:14Z</time>
      </trkpt>
      <trkpt lat="44.32677" lon="6.80742">
        <ele>2620.4</ele>
        <time>2022-07-19T13:19:15Z</time>
      </trkpt>
      <trkpt lat="44.32681" lon="6.80743">
        <ele>2620.2</ele>
        <time>2022-07-19T13:19:16Z</time>
      </trkpt>
      <trkpt lat="44.32685" lon="6.80745">
        <ele>2620.2</ele>
        <time>2022-07-19T13:19:17Z</time>
      </trkpt>
      <trkpt lat="44.32689" lon="6.80748">
        <ele>2620</ele>
        <time>2022-07-19T13:19:18Z</time>
      </trkpt>
      <trkpt lat="44.32693" lon="6.80751">
        <ele>2620</ele>
        <time>2022-07-19T13:19:19Z</time>
      </trkpt>
      <trkpt lat="44.32697" lon="6.80755">
        <ele>2619.8</ele>
        <time>2022-07-19T13:19:20Z</time>
      </trkpt>
      <trkpt lat="44.32701" lon="6.80758">
        <ele>2619.8</ele>
        <time>2022-07-19T13:19:21Z</time>
      </trkpt>
      <trkpt lat="44.32705" lon="6.80761">
        <ele>2619.4</ele>
        <time>2022-07-19T13:19:22Z</time>
      </trkpt>
      <trkpt lat="44.32709" lon="6.80764">
        <ele>2619.4</ele>
        <time>2022-07-19T13:19:23Z</time>
      </trkpt>
      <trkpt lat="44.32713" lon="6.80767">
        <ele>2619.2</ele>
        <time>2022-07-19T13:19:24Z</time>
      </trkpt>
      <trkpt lat="44.32718" lon="6.8077">
        <ele>2619.2</ele>
        <time>2022-07-19T13:19:25Z</time>
      </trkpt>
      <trkpt lat="44.32722" lon="6.80773">
        <ele>2619.2</ele>
        <time>2022-07-19T13:19:26Z</time>
      </trkpt>
      <trkpt lat="44.32727" lon="6.80775">
        <ele>2619</ele>
        <time>2022-07-19T13:19:27Z</time>
      </trkpt>
      <trkpt lat="44.32731" lon="6.80778">
        <ele>2619</ele>
        <time>2022-07-19T13:19:28Z</time>
      </trkpt>
      <trkpt lat="44.32735" lon="6.80781">
        <ele>2619</ele>
        <time>2022-07-19T13:19:29Z</time>
      </trkpt>
      <trkpt lat="44.3274" lon="6.80784">
        <ele>2619</ele>
        <time>2022-07-19T13:19:30Z</time>
      </trkpt>
      <trkpt lat="44.32744" lon="6.80787">
        <ele>2619</ele>
        <time>2022-07-19T13:19:31Z</time>
      </trkpt>
      <trkpt lat="44.32749" lon="6.80789">
        <ele>2618.8</ele>
        <time>2022-07-19T13:19:32Z</time>
      </trkpt>
      <trkpt lat="44.32754" lon="6.80792">
        <ele>2618.8</ele>
        <time>2022-07-19T13:19:33Z</time>
      </trkpt>
      <trkpt lat="44.32758" lon="6.80794">
        <ele>2618.8</ele>
        <time>2022-07-19T13:19:34Z</time>
      </trkpt>
      <trkpt lat="44.32763" lon="6.80795">
        <ele>2618.6</ele>
        <time>2022-07-19T13:19:35Z</time>
      </trkpt>
      <trkpt lat="44.32768" lon="6.80797">
        <ele>2618.6</ele>
        <time>2022-07-19T13:19:36Z</time>
      </trkpt>
      <trkpt lat="44.32773" lon="6.80798">
        <ele>2618.6</ele>
        <time>2022-07-19T13:19:37Z</time>
      </trkpt>
      <trkpt lat="44.32778" lon="6.80798">
        <ele>2618.2</ele>
        <time>2022-07-19T13:19:38Z</time>
      </trkpt>
      <trkpt lat="44.32783" lon="6.80798">
        <ele>2618.2</ele>
        <time>2022-07-19T13:19:39Z</time>
      </trkpt>
      <trkpt lat="44.32789" lon="6.80796">
        <ele>2618.2</ele>
        <time>2022-07-19T13:19:40Z</time>
      </trkpt>
      <trkpt lat="44.32794" lon="6.80795">
        <ele>2618</ele>
        <time>2022-07-19T13:19:41Z</time>
      </trkpt>
      <trkpt lat="44.32799" lon="6.80794">
        <ele>2618</ele>
        <time>2022-07-19T13:19:42Z</time>
      </trkpt>
      <trkpt lat="44.32804" lon="6.80792">
        <ele>2617.8</ele>
        <time>2022-07-19T13:19:43Z</time>
      </trkpt>
      <trkpt lat="44.32809" lon="6.80791">
        <ele>2617.8</ele>
        <time>2022-07-19T13:19:44Z</time>
      </trkpt>
      <trkpt lat="44.32814" lon="6.8079">
        <ele>2617.6</ele>
        <time>2022-07-19T13:19:45Z</time>
      </trkpt>
      <trkpt lat="44.32819" lon="6.80789">
        <ele>2617.6</ele>
        <time>2022-07-19T13:19:46Z</time>
      </trkpt>
      <trkpt lat="44.32824" lon="6.80788">
        <ele>2617.6</ele>
        <time>2022-07-19T13:19:47Z</time>
      </trkpt>
      <trkpt lat="44.32829" lon="6.80787">
        <ele>2617.6</ele>
        <time>2022-07-19T13:19:48Z</time>
      </trkpt>
      <trkpt lat="44.32834" lon="6.80786">
        <ele>2617.4</ele>
        <time>2022-07-19T13:19:49Z</time>
      </trkpt>
      <trkpt lat="44.32839" lon="6.80785">
        <ele>2617.4</ele>
        <time>2022-07-19T13:19:50Z</time>
      </trkpt>
      <trkpt lat="44.32844" lon="6.80784">
        <ele>2617.4</ele>
        <time>2022-07-19T13:19:51Z</time>
      </trkpt>
      <trkpt lat="44.32849" lon="6.80782">
        <ele>2617.4</ele>
        <time>2022-07-19T13:19:52Z</time>
      </trkpt>
      <trkpt lat="44.32854" lon="6.80781">
        <ele>2617.4</ele>
        <time>2022-07-19T13:19:53Z</time>
      </trkpt>
      <trkpt lat="44.32859" lon="6.8078">
        <ele>2617.4</ele>
        <time>2022-07-19T13:19:54Z</time>
      </trkpt>
      <trkpt lat="44.32864" lon="6.8078">
        <ele>2617.4</ele>
        <time>2022-07-19T13:19:55Z</time>
      </trkpt>
      <trkpt lat="44.32869" lon="6.8078">
        <ele>2617.4</ele>
        <time>2022-07-19T13:19:56Z</time>
      </trkpt>
      <trkpt lat="44.32875" lon="6.8078">
        <ele>2617.4</ele>
        <time>2022-07-19T13:19:57Z</time>
      </trkpt>
      <trkpt lat="44.32881" lon="6.8078">
        <ele>2617.4</ele>
        <time>2022-07-19T13:19:58Z</time>
      </trkpt>
      <trkpt lat="44.32886" lon="6.80781">
        <ele>2617.4</ele>
        <time>2022-07-19T13:19:59Z</time>
      </trkpt>
      <trkpt lat="44.32892" lon="6.80782">
        <ele>2617.4</ele>
        <time>2022-07-19T13:20:00Z</time>
      </trkpt>
      <trkpt lat="44.32898" lon="6.80784">
        <ele>2617.4</ele>
        <time>2022-07-19T13:20:01Z</time>
      </trkpt>
      <trkpt lat="44.32903" lon="6.80786">
        <ele>2617.4</ele>
        <time>2022-07-19T13:20:02Z</time>
      </trkpt>
      <trkpt lat="44.32909" lon="6.80788">
        <ele>2617.4</ele>
        <time>2022-07-19T13:20:03Z</time>
      </trkpt>
      <trkpt lat="44.32915" lon="6.8079">
        <ele>2617.4</ele>
        <time>2022-07-19T13:20:04Z</time>
      </trkpt>
      <trkpt lat="44.32921" lon="6.80792">
        <ele>2617.4</ele>
        <time>2022-07-19T13:20:05Z</time>
      </trkpt>
      <trkpt lat="44.32926" lon="6.80794">
        <ele>2617.2</ele>
        <time>2022-07-19T13:20:06Z</time>
      </trkpt>
      <trkpt lat="44.32932" lon="6.80797">
        <ele>2617.2</ele>
        <time>2022-07-19T13:20:07Z</time>
      </trkpt>
      <trkpt lat="44.32938" lon="6.80799">
        <ele>2617.2</ele>
        <time>2022-07-19T13:20:08Z</time>
      </trkpt>
      <trkpt lat="44.32944" lon="6.80802">
        <ele>2617.2</ele>
        <time>2022-07-19T13:20:09Z</time>
      </trkpt>
      <trkpt lat="44.3295" lon="6.80804">
        <ele>2617.2</ele>
        <time>2022-07-19T13:20:10Z</time>
      </trkpt>
      <trkpt lat="44.32956" lon="6.80806">
        <ele>2617.2</ele>
        <time>2022-07-19T13:20:11Z</time>
      </trkpt>
      <trkpt lat="44.32961" lon="6.80808">
        <ele>2617.2</ele>
        <time>2022-07-19T13:20:12Z</time>
      </trkpt>
      <trkpt lat="44.32967" lon="6.80811">
        <ele>2617.2</ele>
        <time>2022-07-19T13:20:13Z</time>
      </trkpt>
      <trkpt lat="44.32972" lon="6.80815">
        <ele>2617.2</ele>
        <time>2022-07-19T13:20:14Z</time>
      </trkpt>
      <trkpt lat="44.32978" lon="6.80819">
        <ele>2616.8</ele>
        <time>2022-07-19T13:20:15Z</time>
      </trkpt>
      <trkpt lat="44.32983" lon="6.80822">
        <ele>2616.8</ele>
        <time>2022-07-19T13:20:16Z</time>
      </trkpt>
      <trkpt lat="44.32989" lon="6.80827">
        <ele>2616.6</ele>
        <time>2022-07-19T13:20:17Z</time>
      </trkpt>
      <trkpt lat="44.32994" lon="6.80831">
        <ele>2616.6</ele>
        <time>2022-07-19T13:20:18Z</time>
      </trkpt>
      <trkpt lat="44.32998" lon="6.80835">
        <ele>2616.6</ele>
        <time>2022-07-19T13:20:19Z</time>
      </trkpt>
      <trkpt lat="44.33003" lon="6.80839">
        <ele>2616.6</ele>
        <time>2022-07-19T13:20:20Z</time>
      </trkpt>
      <trkpt lat="44.33007" lon="6.80843">
        <ele>2616.6</ele>
        <time>2022-07-19T13:20:21Z</time>
      </trkpt>
      <trkpt lat="44.33011" lon="6.80847">
        <ele>2616.6</ele>
        <time>2022-07-19T13:20:22Z</time>
      </trkpt>
      <trkpt lat="44.33015" lon="6.80851">
        <ele>2616.6</ele>
        <time>2022-07-19T13:20:23Z</time>
      </trkpt>
      <trkpt lat="44.33018" lon="6.80855">
        <ele>2616.8</ele>
        <time>2022-07-19T13:20:24Z</time>
      </trkpt>
      <trkpt lat="44.33021" lon="6.80859">
        <ele>2616.8</ele>
        <time>2022-07-19T13:20:25Z</time>
      </trkpt>
      <trkpt lat="44.33024" lon="6.80863">
        <ele>2616.8</ele>
        <time>2022-07-19T13:20:26Z</time>
      </trkpt>
      <trkpt lat="44.33027" lon="6.80867">
        <ele>2616.8</ele>
        <time>2022-07-19T13:20:27Z</time>
      </trkpt>
      <trkpt lat="44.33031" lon="6.80872">
        <ele>2616.8</ele>
        <time>2022-07-19T13:20:28Z</time>
      </trkpt>
      <trkpt lat="44.33034" lon="6.80876">
        <ele>2616.8</ele>
        <time>2022-07-19T13:20:29Z</time>
      </trkpt>
      <trkpt lat="44.33038" lon="6.80881">
        <ele>2616.8</ele>
        <time>2022-07-19T13:20:30Z</time>
      </trkpt>
      <trkpt lat="44.33042" lon="6.80886">
        <ele>2616.8</ele>
        <time>2022-07-19T13:20:31Z</time>
      </trkpt>
      <trkpt lat="44.33046" lon="6.80891">
        <ele>2616.8</ele>
        <time>2022-07-19T13:20:32Z</time>
      </trkpt>
      <trkpt lat="44.3305" lon="6.80896">
        <ele>2616.8</ele>
        <time>2022-07-19T13:20:33Z</time>
      </trkpt>
      <trkpt lat="44.33054" lon="6.80902">
        <ele>2616.8</ele>
        <time>2022-07-19T13:20:34Z</time>
      </trkpt>
      <trkpt lat="44.33058" lon="6.80908">
        <ele>2616.4</ele>
        <time>2022-07-19T13:20:35Z</time>
      </trkpt>
      <trkpt lat="44.33062" lon="6.80913">
        <ele>2616.4</ele>
        <time>2022-07-19T13:20:36Z</time>
      </trkpt>
      <trkpt lat="44.33067" lon="6.80919">
        <ele>2616.2</ele>
        <time>2022-07-19T13:20:37Z</time>
      </trkpt>
      <trkpt lat="44.33072" lon="6.80925">
        <ele>2615.8</ele>
        <time>2022-07-19T13:20:38Z</time>
      </trkpt>
      <trkpt lat="44.33077" lon="6.80931">
        <ele>2615.6</ele>
        <time>2022-07-19T13:20:39Z</time>
      </trkpt>
      <trkpt lat="44.33082" lon="6.80937">
        <ele>2615.2</ele>
        <time>2022-07-19T13:20:40Z</time>
      </trkpt>
      <trkpt lat="44.33089" lon="6.80943">
        <ele>2614.8</ele>
        <time>2022-07-19T13:20:41Z</time>
      </trkpt>
      <trkpt lat="44.33095" lon="6.80949">
        <ele>2614.6</ele>
        <time>2022-07-19T13:20:42Z</time>
      </trkpt>
      <trkpt lat="44.33102" lon="6.80956">
        <ele>2614.2</ele>
        <time>2022-07-19T13:20:43Z</time>
      </trkpt>
      <trkpt lat="44.33109" lon="6.80963">
        <ele>2613.8</ele>
        <time>2022-07-19T13:20:44Z</time>
      </trkpt>
      <trkpt lat="44.33117" lon="6.80971">
        <ele>2613.4</ele>
        <time>2022-07-19T13:20:45Z</time>
      </trkpt>
      <trkpt lat="44.33125" lon="6.8098">
        <ele>2612.8</ele>
        <time>2022-07-19T13:20:46Z</time>
      </trkpt>
      <trkpt lat="44.33132" lon="6.80989">
        <ele>2612</ele>
        <time>2022-07-19T13:20:47Z</time>
      </trkpt>
      <trkpt lat="44.33139" lon="6.81">
        <ele>2611.4</ele>
        <time>2022-07-19T13:20:48Z</time>
      </trkpt>
      <trkpt lat="44.33146" lon="6.81009">
        <ele>2610.8</ele>
        <time>2022-07-19T13:20:49Z</time>
      </trkpt>
      <trkpt lat="44.33153" lon="6.81018">
        <ele>2610.2</ele>
        <time>2022-07-19T13:20:50Z</time>
      </trkpt>
      <trkpt lat="44.3316" lon="6.81027">
        <ele>2609.6</ele>
        <time>2022-07-19T13:20:51Z</time>
      </trkpt>
      <trkpt lat="44.33167" lon="6.81036">
        <ele>2608.8</ele>
        <time>2022-07-19T13:20:52Z</time>
      </trkpt>
      <trkpt lat="44.33174" lon="6.81044">
        <ele>2608.2</ele>
        <time>2022-07-19T13:20:53Z</time>
      </trkpt>
      <trkpt lat="44.33182" lon="6.81052">
        <ele>2607.6</ele>
        <time>2022-07-19T13:20:54Z</time>
      </trkpt>
      <trkpt lat="44.3319" lon="6.8106">
        <ele>2607</ele>
        <time>2022-07-19T13:20:55Z</time>
      </trkpt>
      <trkpt lat="44.33199" lon="6.81066">
        <ele>2606.4</ele>
        <time>2022-07-19T13:20:56Z</time>
      </trkpt>
      <trkpt lat="44.33208" lon="6.81071">
        <ele>2605.8</ele>
        <time>2022-07-19T13:20:57Z</time>
      </trkpt>
      <trkpt lat="44.33217" lon="6.81075">
        <ele>2605.2</ele>
        <time>2022-07-19T13:20:58Z</time>
      </trkpt>
      <trkpt lat="44.33227" lon="6.81078">
        <ele>2604.8</ele>
        <time>2022-07-19T13:20:59Z</time>
      </trkpt>
      <trkpt lat="44.33236" lon="6.81079">
        <ele>2604.2</ele>
        <time>2022-07-19T13:21:00Z</time>
      </trkpt>
      <trkpt lat="44.33244" lon="6.81079">
        <ele>2603.6</ele>
        <time>2022-07-19T13:21:01Z</time>
      </trkpt>
      <trkpt lat="44.33253" lon="6.81077">
        <ele>2603.2</ele>
        <time>2022-07-19T13:21:02Z</time>
      </trkpt>
      <trkpt lat="44.33262" lon="6.81074">
        <ele>2602.6</ele>
        <time>2022-07-19T13:21:03Z</time>
      </trkpt>
      <trkpt lat="44.3327" lon="6.8107">
        <ele>2602.2</ele>
        <time>2022-07-19T13:21:04Z</time>
      </trkpt>
      <trkpt lat="44.33279" lon="6.81067">
        <ele>2602</ele>
        <time>2022-07-19T13:21:05Z</time>
      </trkpt>
      <trkpt lat="44.33288" lon="6.81064">
        <ele>2601.4</ele>
        <time>2022-07-19T13:21:06Z</time>
      </trkpt>
      <trkpt lat="44.33298" lon="6.81063">
        <ele>2601</ele>
        <time>2022-07-19T13:21:07Z</time>
      </trkpt>
      <trkpt lat="44.33308" lon="6.81064">
        <ele>2600.4</ele>
        <time>2022-07-19T13:21:08Z</time>
      </trkpt>
      <trkpt lat="44.33319" lon="6.81064">
        <ele>2600</ele>
        <time>2022-07-19T13:21:09Z</time>
      </trkpt>
      <trkpt lat="44.33328" lon="6.81064">
        <ele>2599.6</ele>
        <time>2022-07-19T13:21:10Z</time>
      </trkpt>
      <trkpt lat="44.33338" lon="6.81064">
        <ele>2599</ele>
        <time>2022-07-19T13:21:11Z</time>
      </trkpt>
      <trkpt lat="44.33348" lon="6.81063">
        <ele>2598.6</ele>
        <time>2022-07-19T13:21:12Z</time>
      </trkpt>
      <trkpt lat="44.33359" lon="6.81062">
        <ele>2598</ele>
        <time>2022-07-19T13:21:13Z</time>
      </trkpt>
      <trkpt lat="44.3337" lon="6.8106">
        <ele>2597.4</ele>
        <time>2022-07-19T13:21:14Z</time>
      </trkpt>
      <trkpt lat="44.33381" lon="6.81058">
        <ele>2596.8</ele>
        <time>2022-07-19T13:21:15Z</time>
      </trkpt>
      <trkpt lat="44.33392" lon="6.81054">
        <ele>2596.2</ele>
        <time>2022-07-19T13:21:16Z</time>
      </trkpt>
      <trkpt lat="44.33403" lon="6.81048">
        <ele>2595.4</ele>
        <time>2022-07-19T13:21:17Z</time>
      </trkpt>
      <trkpt lat="44.33414" lon="6.8104">
        <ele>2594.8</ele>
        <time>2022-07-19T13:21:18Z</time>
      </trkpt>
      <trkpt lat="44.33425" lon="6.81033">
        <ele>2594.2</ele>
        <time>2022-07-19T13:21:19Z</time>
      </trkpt>
      <trkpt lat="44.33436" lon="6.81027">
        <ele>2593.8</ele>
        <time>2022-07-19T13:21:20Z</time>
      </trkpt>
      <trkpt lat="44.33448" lon="6.81021">
        <ele>2593</ele>
        <time>2022-07-19T13:21:21Z</time>
      </trkpt>
      <trkpt lat="44.33461" lon="6.81016">
        <ele>2592.4</ele>
        <time>2022-07-19T13:21:22Z</time>
      </trkpt>
      <trkpt lat="44.33473" lon="6.8101">
        <ele>2591.8</ele>
        <time>2022-07-19T13:21:23Z</time>
      </trkpt>
      <trkpt lat="44.33484" lon="6.81003">
        <ele>2591</ele>
        <time>2022-07-19T13:21:24Z</time>
      </trkpt>
      <trkpt lat="44.33495" lon="6.80994">
        <ele>2590.6</ele>
        <time>2022-07-19T13:21:25Z</time>
      </trkpt>
      <trkpt lat="44.33506" lon="6.80983">
        <ele>2590</ele>
        <time>2022-07-19T13:21:26Z</time>
      </trkpt>
      <trkpt lat="44.33517" lon="6.80974">
        <ele>2589.6</ele>
        <time>2022-07-19T13:21:27Z</time>
      </trkpt>
      <trkpt lat="44.33527" lon="6.80965">
        <ele>2589.2</ele>
        <time>2022-07-19T13:21:28Z</time>
      </trkpt>
      <trkpt lat="44.33536" lon="6.80955">
        <ele>2589</ele>
        <time>2022-07-19T13:21:29Z</time>
      </trkpt>
      <trkpt lat="44.33544" lon="6.80944">
        <ele>2588.6</ele>
        <time>2022-07-19T13:21:30Z</time>
      </trkpt>
      <trkpt lat="44.33551" lon="6.80931">
        <ele>2588.4</ele>
        <time>2022-07-19T13:21:31Z</time>
      </trkpt>
      <trkpt lat="44.33557" lon="6.80919">
        <ele>2588.4</ele>
        <time>2022-07-19T13:21:32Z</time>
      </trkpt>
      <trkpt lat="44.33564" lon="6.80907">
        <ele>2588.4</ele>
        <time>2022-07-19T13:21:33Z</time>
      </trkpt>
      <trkpt lat="44.33571" lon="6.80895">
        <ele>2588.2</ele>
        <time>2022-07-19T13:21:34Z</time>
      </trkpt>
      <trkpt lat="44.33578" lon="6.80883">
        <ele>2587.8</ele>
        <time>2022-07-19T13:21:35Z</time>
      </trkpt>
      <trkpt lat="44.33586" lon="6.80872">
        <ele>2587.6</ele>
        <time>2022-07-19T13:21:36Z</time>
      </trkpt>
      <trkpt lat="44.33593" lon="6.80861">
        <ele>2587.6</ele>
        <time>2022-07-19T13:21:37Z</time>
      </trkpt>
      <trkpt lat="44.33599" lon="6.80849">
        <ele>2587.2</ele>
        <time>2022-07-19T13:21:38Z</time>
      </trkpt>
      <trkpt lat="44.33605" lon="6.80837">
        <ele>2587.2</ele>
        <time>2022-07-19T13:21:39Z</time>
      </trkpt>
      <trkpt lat="44.33611" lon="6.80825">
        <ele>2587.2</ele>
        <time>2022-07-19T13:21:40Z</time>
      </trkpt>
      <trkpt lat="44.33616" lon="6.80813">
        <ele>2587</ele>
        <time>2022-07-19T13:21:41Z</time>
      </trkpt>
      <trkpt lat="44.33621" lon="6.80801">
        <ele>2587</ele>
        <time>2022-07-19T13:21:42Z</time>
      </trkpt>
      <trkpt lat="44.33626" lon="6.80791">
        <ele>2587</ele>
        <time>2022-07-19T13:21:43Z</time>
      </trkpt>
      <trkpt lat="44.3363" lon="6.8078">
        <ele>2587</ele>
        <time>2022-07-19T13:21:44Z</time>
      </trkpt>
      <trkpt lat="44.33634" lon="6.80769">
        <ele>2587</ele>
        <time>2022-07-19T13:21:45Z</time>
      </trkpt>
      <trkpt lat="44.33636" lon="6.80757">
        <ele>2586.6</ele>
        <time>2022-07-19T13:21:46Z</time>
      </trkpt>
      <trkpt lat="44.33638" lon="6.80745">
        <ele>2586.6</ele>
        <time>2022-07-19T13:21:47Z</time>
      </trkpt>
      <trkpt lat="44.33639" lon="6.80734">
        <ele>2586.4</ele>
        <time>2022-07-19T13:21:48Z</time>
      </trkpt>
      <trkpt lat="44.33641" lon="6.80722">
        <ele>2586.4</ele>
        <time>2022-07-19T13:21:49Z</time>
      </trkpt>
      <trkpt lat="44.33642" lon="6.8071">
        <ele>2586</ele>
        <time>2022-07-19T13:21:50Z</time>
      </trkpt>
      <trkpt lat="44.33643" lon="6.80698">
        <ele>2585.8</ele>
        <time>2022-07-19T13:21:51Z</time>
      </trkpt>
      <trkpt lat="44.33644" lon="6.80686">
        <ele>2585.8</ele>
        <time>2022-07-19T13:21:52Z</time>
      </trkpt>
      <trkpt lat="44.33644" lon="6.80674">
        <ele>2585.4</ele>
        <time>2022-07-19T13:21:53Z</time>
      </trkpt>
      <trkpt lat="44.33645" lon="6.80662">
        <ele>2585.4</ele>
        <time>2022-07-19T13:21:54Z</time>
      </trkpt>
      <trkpt lat="44.33646" lon="6.80651">
        <ele>2585.4</ele>
        <time>2022-07-19T13:21:55Z</time>
      </trkpt>
      <trkpt lat="44.33647" lon="6.8064">
        <ele>2585.2</ele>
        <time>2022-07-19T13:21:56Z</time>
      </trkpt>
      <trkpt lat="44.33649" lon="6.80629">
        <ele>2585.2</ele>
        <time>2022-07-19T13:21:57Z</time>
      </trkpt>
      <trkpt lat="44.3365" lon="6.80618">
        <ele>2584.8</ele>
        <time>2022-07-19T13:21:58Z</time>
      </trkpt>
      <trkpt lat="44.33651" lon="6.80607">
        <ele>2584.8</ele>
        <time>2022-07-19T13:21:59Z</time>
      </trkpt>
      <trkpt lat="44.33652" lon="6.80597">
        <ele>2584.6</ele>
        <time>2022-07-19T13:22:00Z</time>
      </trkpt>
      <trkpt lat="44.33653" lon="6.80586">
        <ele>2584.6</ele>
        <time>2022-07-19T13:22:01Z</time>
      </trkpt>
      <trkpt lat="44.33655" lon="6.80576">
        <ele>2584.4</ele>
        <time>2022-07-19T13:22:02Z</time>
      </trkpt>
      <trkpt lat="44.33656" lon="6.80565">
        <ele>2584.4</ele>
        <time>2022-07-19T13:22:03Z</time>
      </trkpt>
      <trkpt lat="44.33657" lon="6.80555">
        <ele>2584</ele>
        <time>2022-07-19T13:22:04Z</time>
      </trkpt>
      <trkpt lat="44.33659" lon="6.80545">
        <ele>2584</ele>
        <time>2022-07-19T13:22:05Z</time>
      </trkpt>
      <trkpt lat="44.3366" lon="6.80535">
        <ele>2583.8</ele>
        <time>2022-07-19T13:22:06Z</time>
      </trkpt>
      <trkpt lat="44.33661" lon="6.80524">
        <ele>2583.8</ele>
        <time>2022-07-19T13:22:07Z</time>
      </trkpt>
      <trkpt lat="44.33662" lon="6.80514">
        <ele>2583.6</ele>
        <time>2022-07-19T13:22:08Z</time>
      </trkpt>
      <trkpt lat="44.33661" lon="6.80504">
        <ele>2583.6</ele>
        <time>2022-07-19T13:22:09Z</time>
      </trkpt>
      <trkpt lat="44.3366" lon="6.80494">
        <ele>2583.4</ele>
        <time>2022-07-19T13:22:10Z</time>
      </trkpt>
      <trkpt lat="44.33658" lon="6.80484">
        <ele>2583.4</ele>
        <time>2022-07-19T13:22:11Z</time>
      </trkpt>
      <trkpt lat="44.33658" lon="6.80474">
        <ele>2583.4</ele>
        <time>2022-07-19T13:22:12Z</time>
      </trkpt>
      <trkpt lat="44.33658" lon="6.80464">
        <ele>2583</ele>
        <time>2022-07-19T13:22:13Z</time>
      </trkpt>
      <trkpt lat="44.33659" lon="6.80453">
        <ele>2582.8</ele>
        <time>2022-07-19T13:22:14Z</time>
      </trkpt>
      <trkpt lat="44.33661" lon="6.80443">
        <ele>2582.8</ele>
        <time>2022-07-19T13:22:15Z</time>
      </trkpt>
      <trkpt lat="44.33663" lon="6.80432">
        <ele>2582.4</ele>
        <time>2022-07-19T13:22:16Z</time>
      </trkpt>
      <trkpt lat="44.33665" lon="6.80421">
        <ele>2582</ele>
        <time>2022-07-19T13:22:17Z</time>
      </trkpt>
      <trkpt lat="44.33667" lon="6.80411">
        <ele>2581.8</ele>
        <time>2022-07-19T13:22:18Z</time>
      </trkpt>
      <trkpt lat="44.33669" lon="6.80399">
        <ele>2581.4</ele>
        <time>2022-07-19T13:22:19Z</time>
      </trkpt>
      <trkpt lat="44.3367" lon="6.80388">
        <ele>2581</ele>
        <time>2022-07-19T13:22:20Z</time>
      </trkpt>
      <trkpt lat="44.3367" lon="6.80376">
        <ele>2580.6</ele>
        <time>2022-07-19T13:22:21Z</time>
      </trkpt>
      <trkpt lat="44.33671" lon="6.80365">
        <ele>2580.2</ele>
        <time>2022-07-19T13:22:22Z</time>
      </trkpt>
      <trkpt lat="44.33672" lon="6.80353">
        <ele>2579.8</ele>
        <time>2022-07-19T13:22:23Z</time>
      </trkpt>
      <trkpt lat="44.33672" lon="6.8034">
        <ele>2579.6</ele>
        <time>2022-07-19T13:22:24Z</time>
      </trkpt>
      <trkpt lat="44.33673" lon="6.80328">
        <ele>2579.2</ele>
        <time>2022-07-19T13:22:25Z</time>
      </trkpt>
      <trkpt lat="44.33674" lon="6.80316">
        <ele>2578.8</ele>
        <time>2022-07-19T13:22:26Z</time>
      </trkpt>
      <trkpt lat="44.33674" lon="6.80303">
        <ele>2578.4</ele>
        <time>2022-07-19T13:22:27Z</time>
      </trkpt>
      <trkpt lat="44.33675" lon="6.8029">
        <ele>2578.2</ele>
        <time>2022-07-19T13:22:28Z</time>
      </trkpt>
      <trkpt lat="44.33675" lon="6.80277">
        <ele>2577.8</ele>
        <time>2022-07-19T13:22:29Z</time>
      </trkpt>
      <trkpt lat="44.33675" lon="6.80265">
        <ele>2577.2</ele>
        <time>2022-07-19T13:22:30Z</time>
      </trkpt>
      <trkpt lat="44.33674" lon="6.80252">
        <ele>2576.8</ele>
        <time>2022-07-19T13:22:31Z</time>
      </trkpt>
      <trkpt lat="44.33674" lon="6.80238">
        <ele>2576.4</ele>
        <time>2022-07-19T13:22:32Z</time>
      </trkpt>
      <trkpt lat="44.33673" lon="6.80225">
        <ele>2576</ele>
        <time>2022-07-19T13:22:33Z</time>
      </trkpt>
      <trkpt lat="44.33673" lon="6.80212">
        <ele>2575.6</ele>
        <time>2022-07-19T13:22:34Z</time>
      </trkpt>
      <trkpt lat="44.33673" lon="6.802">
        <ele>2575</ele>
        <time>2022-07-19T13:22:35Z</time>
      </trkpt>
      <trkpt lat="44.33673" lon="6.80187">
        <ele>2574.6</ele>
        <time>2022-07-19T13:22:36Z</time>
      </trkpt>
      <trkpt lat="44.33673" lon="6.80175">
        <ele>2574</ele>
        <time>2022-07-19T13:22:37Z</time>
      </trkpt>
      <trkpt lat="44.33673" lon="6.80164">
        <ele>2573.4</ele>
        <time>2022-07-19T13:22:38Z</time>
      </trkpt>
      <trkpt lat="44.33673" lon="6.80154">
        <ele>2572.8</ele>
        <time>2022-07-19T13:22:39Z</time>
      </trkpt>
      <trkpt lat="44.33675" lon="6.80146">
        <ele>2572.2</ele>
        <time>2022-07-19T13:22:40Z</time>
      </trkpt>
      <trkpt lat="44.33678" lon="6.80139">
        <ele>2571.6</ele>
        <time>2022-07-19T13:22:41Z</time>
      </trkpt>
      <trkpt lat="44.33681" lon="6.80134">
        <ele>2571</ele>
        <time>2022-07-19T13:22:42Z</time>
      </trkpt>
      <trkpt lat="44.33686" lon="6.8013">
        <ele>2570.6</ele>
        <time>2022-07-19T13:22:43Z</time>
      </trkpt>
      <trkpt lat="44.33692" lon="6.80128">
        <ele>2570</ele>
        <time>2022-07-19T13:22:44Z</time>
      </trkpt>
      <trkpt lat="44.33698" lon="6.80128">
        <ele>2569.6</ele>
        <time>2022-07-19T13:22:45Z</time>
      </trkpt>
      <trkpt lat="44.33705" lon="6.8013">
        <ele>2569</ele>
        <time>2022-07-19T13:22:46Z</time>
      </trkpt>
      <trkpt lat="44.33712" lon="6.80133">
        <ele>2568.4</ele>
        <time>2022-07-19T13:22:47Z</time>
      </trkpt>
      <trkpt lat="44.33719" lon="6.80139">
        <ele>2567.8</ele>
        <time>2022-07-19T13:22:48Z</time>
      </trkpt>
      <trkpt lat="44.33726" lon="6.80146">
        <ele>2567.2</ele>
        <time>2022-07-19T13:22:49Z</time>
      </trkpt>
      <trkpt lat="44.33733" lon="6.80154">
        <ele>2566.6</ele>
        <time>2022-07-19T13:22:50Z</time>
      </trkpt>
      <trkpt lat="44.3374" lon="6.80162">
        <ele>2565.8</ele>
        <time>2022-07-19T13:22:51Z</time>
      </trkpt>
      <trkpt lat="44.33749" lon="6.80172">
        <ele>2565.2</ele>
        <time>2022-07-19T13:22:52Z</time>
      </trkpt>
      <trkpt lat="44.33757" lon="6.8018">
        <ele>2564.4</ele>
        <time>2022-07-19T13:22:53Z</time>
      </trkpt>
      <trkpt lat="44.33766" lon="6.80186">
        <ele>2563.8</ele>
        <time>2022-07-19T13:22:54Z</time>
      </trkpt>
      <trkpt lat="44.33775" lon="6.80192">
        <ele>2563.2</ele>
        <time>2022-07-19T13:22:55Z</time>
      </trkpt>
      <trkpt lat="44.33785" lon="6.80197">
        <ele>2562.4</ele>
        <time>2022-07-19T13:22:56Z</time>
      </trkpt>
      <trkpt lat="44.33796" lon="6.80201">
        <ele>2561.6</ele>
        <time>2022-07-19T13:22:57Z</time>
      </trkpt>
      <trkpt lat="44.33805" lon="6.80206">
        <ele>2560.8</ele>
        <time>2022-07-19T13:22:58Z</time>
      </trkpt>
      <trkpt lat="44.33815" lon="6.80212">
        <ele>2560.2</ele>
        <time>2022-07-19T13:22:59Z</time>
      </trkpt>
      <trkpt lat="44.33823" lon="6.80221">
        <ele>2559.6</ele>
        <time>2022-07-19T13:23:00Z</time>
      </trkpt>
      <trkpt lat="44.33832" lon="6.80228">
        <ele>2558.8</ele>
        <time>2022-07-19T13:23:01Z</time>
      </trkpt>
      <trkpt lat="44.33841" lon="6.80233">
        <ele>2558.2</ele>
        <time>2022-07-19T13:23:02Z</time>
      </trkpt>
      <trkpt lat="44.33851" lon="6.80238">
        <ele>2557.6</ele>
        <time>2022-07-19T13:23:03Z</time>
      </trkpt>
      <trkpt lat="44.3386" lon="6.80242">
        <ele>2556.8</ele>
        <time>2022-07-19T13:23:04Z</time>
      </trkpt>
      <trkpt lat="44.3387" lon="6.80247">
        <ele>2555.8</ele>
        <time>2022-07-19T13:23:05Z</time>
      </trkpt>
      <trkpt lat="44.3388" lon="6.80247">
        <ele>2555</ele>
        <time>2022-07-19T13:23:06Z</time>
      </trkpt>
      <trkpt lat="44.33891" lon="6.80245">
        <ele>2554</ele>
        <time>2022-07-19T13:23:07Z</time>
      </trkpt>
      <trkpt lat="44.33902" lon="6.80241">
        <ele>2553.2</ele>
        <time>2022-07-19T13:23:08Z</time>
      </trkpt>
      <trkpt lat="44.33912" lon="6.80235">
        <ele>2552.4</ele>
        <time>2022-07-19T13:23:09Z</time>
      </trkpt>
      <trkpt lat="44.33922" lon="6.80229">
        <ele>2551.4</ele>
        <time>2022-07-19T13:23:10Z</time>
      </trkpt>
      <trkpt lat="44.33932" lon="6.80222">
        <ele>2550.4</ele>
        <time>2022-07-19T13:23:11Z</time>
      </trkpt>
      <trkpt lat="44.33942" lon="6.80215">
        <ele>2549.6</ele>
        <time>2022-07-19T13:23:12Z</time>
      </trkpt>
      <trkpt lat="44.33949" lon="6.80208">
        <ele>2548.6</ele>
        <time>2022-07-19T13:23:13Z</time>
      </trkpt>
      <trkpt lat="44.33956" lon="6.80201">
        <ele>2547.8</ele>
        <time>2022-07-19T13:23:14Z</time>
      </trkpt>
      <trkpt lat="44.33962" lon="6.80192">
        <ele>2547</ele>
        <time>2022-07-19T13:23:15Z</time>
      </trkpt>
      <trkpt lat="44.33968" lon="6.80182">
        <ele>2546.2</ele>
        <time>2022-07-19T13:23:16Z</time>
      </trkpt>
      <trkpt lat="44.33973" lon="6.80172">
        <ele>2545.2</ele>
        <time>2022-07-19T13:23:17Z</time>
      </trkpt>
      <trkpt lat="44.33977" lon="6.80161">
        <ele>2544.4</ele>
        <time>2022-07-19T13:23:18Z</time>
      </trkpt>
      <trkpt lat="44.3398" lon="6.80152">
        <ele>2543.6</ele>
        <time>2022-07-19T13:23:19Z</time>
      </trkpt>
      <trkpt lat="44.33984" lon="6.80144">
        <ele>2542.8</ele>
        <time>2022-07-19T13:23:20Z</time>
      </trkpt>
      <trkpt lat="44.33989" lon="6.80139">
        <ele>2542</ele>
        <time>2022-07-19T13:23:21Z</time>
      </trkpt>
      <trkpt lat="44.33996" lon="6.80137">
        <ele>2541.2</ele>
        <time>2022-07-19T13:23:22Z</time>
      </trkpt>
      <trkpt lat="44.34004" lon="6.80137">
        <ele>2540.4</ele>
        <time>2022-07-19T13:23:23Z</time>
      </trkpt>
      <trkpt lat="44.34011" lon="6.8014">
        <ele>2539.8</ele>
        <time>2022-07-19T13:23:24Z</time>
      </trkpt>
      <trkpt lat="44.34019" lon="6.80145">
        <ele>2538.2</ele>
        <time>2022-07-19T13:23:26Z</time>
      </trkpt>
      <trkpt lat="44.34027" lon="6.8015">
        <ele>2537.4</ele>
        <time>2022-07-19T13:23:27Z</time>
      </trkpt>
      <trkpt lat="44.34036" lon="6.80156">
        <ele>2536.8</ele>
        <time>2022-07-19T13:23:28Z</time>
      </trkpt>
      <trkpt lat="44.34045" lon="6.80162">
        <ele>2536</ele>
        <time>2022-07-19T13:23:29Z</time>
      </trkpt>
      <trkpt lat="44.34054" lon="6.80167">
        <ele>2535.4</ele>
        <time>2022-07-19T13:23:30Z</time>
      </trkpt>
      <trkpt lat="44.34064" lon="6.80171">
        <ele>2534.8</ele>
        <time>2022-07-19T13:23:31Z</time>
      </trkpt>
      <trkpt lat="44.34074" lon="6.80174">
        <ele>2534</ele>
        <time>2022-07-19T13:23:32Z</time>
      </trkpt>
      <trkpt lat="44.34084" lon="6.80176">
        <ele>2533.4</ele>
        <time>2022-07-19T13:23:33Z</time>
      </trkpt>
      <trkpt lat="44.34096" lon="6.80177">
        <ele>2532.6</ele>
        <time>2022-07-19T13:23:34Z</time>
      </trkpt>
      <trkpt lat="44.34107" lon="6.80181">
        <ele>2531.8</ele>
        <time>2022-07-19T13:23:35Z</time>
      </trkpt>
      <trkpt lat="44.34117" lon="6.80187">
        <ele>2531.2</ele>
        <time>2022-07-19T13:23:36Z</time>
      </trkpt>
      <trkpt lat="44.34128" lon="6.80193">
        <ele>2530.6</ele>
        <time>2022-07-19T13:23:37Z</time>
      </trkpt>
      <trkpt lat="44.34139" lon="6.80198">
        <ele>2529.8</ele>
        <time>2022-07-19T13:23:38Z</time>
      </trkpt>
      <trkpt lat="44.3415" lon="6.802">
        <ele>2529.4</ele>
        <time>2022-07-19T13:23:39Z</time>
      </trkpt>
      <trkpt lat="44.3416" lon="6.80203">
        <ele>2528.6</ele>
        <time>2022-07-19T13:23:40Z</time>
      </trkpt>
      <trkpt lat="44.34171" lon="6.80205">
        <ele>2528</ele>
        <time>2022-07-19T13:23:41Z</time>
      </trkpt>
      <trkpt lat="44.34182" lon="6.80205">
        <ele>2527.4</ele>
        <time>2022-07-19T13:23:42Z</time>
      </trkpt>
      <trkpt lat="44.34192" lon="6.80204">
        <ele>2526.4</ele>
        <time>2022-07-19T13:23:43Z</time>
      </trkpt>
      <trkpt lat="44.34203" lon="6.802">
        <ele>2525.6</ele>
        <time>2022-07-19T13:23:44Z</time>
      </trkpt>
      <trkpt lat="44.34214" lon="6.80198">
        <ele>2524.8</ele>
        <time>2022-07-19T13:23:45Z</time>
      </trkpt>
      <trkpt lat="44.34225" lon="6.80198">
        <ele>2523.8</ele>
        <time>2022-07-19T13:23:46Z</time>
      </trkpt>
      <trkpt lat="44.34235" lon="6.802">
        <ele>2523</ele>
        <time>2022-07-19T13:23:47Z</time>
      </trkpt>
      <trkpt lat="44.34244" lon="6.80204">
        <ele>2522.4</ele>
        <time>2022-07-19T13:23:48Z</time>
      </trkpt>
      <trkpt lat="44.34252" lon="6.80206">
        <ele>2521.8</ele>
        <time>2022-07-19T13:23:49Z</time>
      </trkpt>
      <trkpt lat="44.34261" lon="6.80206">
        <ele>2521.4</ele>
        <time>2022-07-19T13:23:50Z</time>
      </trkpt>
      <trkpt lat="44.34269" lon="6.80203">
        <ele>2520.8</ele>
        <time>2022-07-19T13:23:51Z</time>
      </trkpt>
      <trkpt lat="44.34277" lon="6.80199">
        <ele>2520.4</ele>
        <time>2022-07-19T13:23:52Z</time>
      </trkpt>
      <trkpt lat="44.34286" lon="6.80195">
        <ele>2520</ele>
        <time>2022-07-19T13:23:53Z</time>
      </trkpt>
      <trkpt lat="44.34294" lon="6.80191">
        <ele>2519.6</ele>
        <time>2022-07-19T13:23:54Z</time>
      </trkpt>
      <trkpt lat="44.34302" lon="6.80186">
        <ele>2519.2</ele>
        <time>2022-07-19T13:23:55Z</time>
      </trkpt>
      <trkpt lat="44.3431" lon="6.8018">
        <ele>2518.8</ele>
        <time>2022-07-19T13:23:56Z</time>
      </trkpt>
      <trkpt lat="44.34317" lon="6.80174">
        <ele>2518.6</ele>
        <time>2022-07-19T13:23:57Z</time>
      </trkpt>
      <trkpt lat="44.34324" lon="6.80167">
        <ele>2518.6</ele>
        <time>2022-07-19T13:23:58Z</time>
      </trkpt>
      <trkpt lat="44.34331" lon="6.8016">
        <ele>2518.2</ele>
        <time>2022-07-19T13:23:59Z</time>
      </trkpt>
      <trkpt lat="44.34338" lon="6.80153">
        <ele>2517.8</ele>
        <time>2022-07-19T13:24:00Z</time>
      </trkpt>
      <trkpt lat="44.34345" lon="6.80147">
        <ele>2517.6</ele>
        <time>2022-07-19T13:24:01Z</time>
      </trkpt>
      <trkpt lat="44.34353" lon="6.80141">
        <ele>2517.2</ele>
        <time>2022-07-19T13:24:02Z</time>
      </trkpt>
      <trkpt lat="44.34361" lon="6.80136">
        <ele>2516.8</ele>
        <time>2022-07-19T13:24:03Z</time>
      </trkpt>
      <trkpt lat="44.34368" lon="6.8013">
        <ele>2516.4</ele>
        <time>2022-07-19T13:24:04Z</time>
      </trkpt>
      <trkpt lat="44.34374" lon="6.80121">
        <ele>2516.2</ele>
        <time>2022-07-19T13:24:05Z</time>
      </trkpt>
      <trkpt lat="44.3438" lon="6.80111">
        <ele>2515.8</ele>
        <time>2022-07-19T13:24:06Z</time>
      </trkpt>
      <trkpt lat="44.34384" lon="6.801">
        <ele>2515.6</ele>
        <time>2022-07-19T13:24:07Z</time>
      </trkpt>
      <trkpt lat="44.34387" lon="6.80088">
        <ele>2515</ele>
        <time>2022-07-19T13:24:08Z</time>
      </trkpt>
      <trkpt lat="44.3439" lon="6.80077">
        <ele>2514.4</ele>
        <time>2022-07-19T13:24:09Z</time>
      </trkpt>
      <trkpt lat="44.34393" lon="6.80066">
        <ele>2514</ele>
        <time>2022-07-19T13:24:10Z</time>
      </trkpt>
      <trkpt lat="44.34396" lon="6.80056">
        <ele>2513.4</ele>
        <time>2022-07-19T13:24:11Z</time>
      </trkpt>
      <trkpt lat="44.344" lon="6.80046">
        <ele>2513</ele>
        <time>2022-07-19T13:24:12Z</time>
      </trkpt>
      <trkpt lat="44.34404" lon="6.80037">
        <ele>2512.6</ele>
        <time>2022-07-19T13:24:13Z</time>
      </trkpt>
      <trkpt lat="44.34409" lon="6.80028">
        <ele>2512.2</ele>
        <time>2022-07-19T13:24:14Z</time>
      </trkpt>
      <trkpt lat="44.34414" lon="6.80019">
        <ele>2512</ele>
        <time>2022-07-19T13:24:15Z</time>
      </trkpt>
      <trkpt lat="44.3442" lon="6.80012">
        <ele>2511.6</ele>
        <time>2022-07-19T13:24:16Z</time>
      </trkpt>
      <trkpt lat="44.34425" lon="6.80005">
        <ele>2511.2</ele>
        <time>2022-07-19T13:24:17Z</time>
      </trkpt>
      <trkpt lat="44.34429" lon="6.79997">
        <ele>2511</ele>
        <time>2022-07-19T13:24:18Z</time>
      </trkpt>
      <trkpt lat="44.34432" lon="6.79987">
        <ele>2510.4</ele>
        <time>2022-07-19T13:24:19Z</time>
      </trkpt>
      <trkpt lat="44.34433" lon="6.79977">
        <ele>2510.2</ele>
        <time>2022-07-19T13:24:20Z</time>
      </trkpt>
      <trkpt lat="44.34434" lon="6.79966">
        <ele>2509.8</ele>
        <time>2022-07-19T13:24:21Z</time>
      </trkpt>
      <trkpt lat="44.34435" lon="6.79956">
        <ele>2509.4</ele>
        <time>2022-07-19T13:24:22Z</time>
      </trkpt>
      <trkpt lat="44.34436" lon="6.79946">
        <ele>2509.2</ele>
        <time>2022-07-19T13:24:23Z</time>
      </trkpt>
      <trkpt lat="44.34437" lon="6.79937">
        <ele>2508.8</ele>
        <time>2022-07-19T13:24:24Z</time>
      </trkpt>
      <trkpt lat="44.34438" lon="6.79929">
        <ele>2508.6</ele>
        <time>2022-07-19T13:24:25Z</time>
      </trkpt>
      <trkpt lat="44.34438" lon="6.79922">
        <ele>2508.4</ele>
        <time>2022-07-19T13:24:26Z</time>
      </trkpt>
      <trkpt lat="44.34438" lon="6.79916">
        <ele>2508.2</ele>
        <time>2022-07-19T13:24:27Z</time>
      </trkpt>
      <trkpt lat="44.34437" lon="6.79911">
        <ele>2508.2</ele>
        <time>2022-07-19T13:24:28Z</time>
      </trkpt>
      <trkpt lat="44.34436" lon="6.79908">
        <ele>2507.8</ele>
        <time>2022-07-19T13:24:29Z</time>
      </trkpt>
      <trkpt lat="44.34436" lon="6.79906">
        <ele>2507.8</ele>
        <time>2022-07-19T13:24:30Z</time>
      </trkpt>
      <trkpt lat="44.34435" lon="6.79906">
        <ele>2507.8</ele>
        <time>2022-07-19T13:24:31Z</time>
      </trkpt>
      <trkpt lat="44.34435" lon="6.79906">
        <ele>2507.6</ele>
        <time>2022-07-19T13:24:32Z</time>
      </trkpt>
      <trkpt lat="44.34435" lon="6.79906">
        <ele>2507.6</ele>
        <time>2022-07-19T13:24:33Z</time>
      </trkpt>
      <trkpt lat="44.34435" lon="6.79906">
        <ele>2507.2</ele>
        <time>2022-07-19T13:24:39Z</time>
      </trkpt>
      <trkpt lat="44.34434" lon="6.79902">
        <ele>2507.2</ele>
        <time>2022-07-19T13:24:40Z</time>
      </trkpt>
      <trkpt lat="44.34433" lon="6.79899">
        <ele>2507.2</ele>
        <time>2022-07-19T13:24:41Z</time>
      </trkpt>
      <trkpt lat="44.34432" lon="6.79895">
        <ele>2507</ele>
        <time>2022-07-19T13:24:42Z</time>
      </trkpt>
      <trkpt lat="44.34431" lon="6.7989">
        <ele>2507</ele>
        <time>2022-07-19T13:24:43Z</time>
      </trkpt>
      <trkpt lat="44.34431" lon="6.79884">
        <ele>2506.8</ele>
        <time>2022-07-19T13:24:44Z</time>
      </trkpt>
      <trkpt lat="44.34432" lon="6.79877">
        <ele>2506.6</ele>
        <time>2022-07-19T13:24:45Z</time>
      </trkpt>
      <trkpt lat="44.34436" lon="6.7987">
        <ele>2506.2</ele>
        <time>2022-07-19T13:24:46Z</time>
      </trkpt>
      <trkpt lat="44.34441" lon="6.79864">
        <ele>2505.8</ele>
        <time>2022-07-19T13:24:47Z</time>
      </trkpt>
      <trkpt lat="44.34446" lon="6.79858">
        <ele>2505.4</ele>
        <time>2022-07-19T13:24:48Z</time>
      </trkpt>
      <trkpt lat="44.34452" lon="6.79851">
        <ele>2504.8</ele>
        <time>2022-07-19T13:24:49Z</time>
      </trkpt>
      <trkpt lat="44.34457" lon="6.79843">
        <ele>2504</ele>
        <time>2022-07-19T13:24:50Z</time>
      </trkpt>
      <trkpt lat="44.34463" lon="6.79836">
        <ele>2503.4</ele>
        <time>2022-07-19T13:24:51Z</time>
      </trkpt>
      <trkpt lat="44.34469" lon="6.79829">
        <ele>2502.8</ele>
        <time>2022-07-19T13:24:52Z</time>
      </trkpt>
      <trkpt lat="44.34477" lon="6.79824">
        <ele>2501.8</ele>
        <time>2022-07-19T13:24:53Z</time>
      </trkpt>
      <trkpt lat="44.34486" lon="6.79819">
        <ele>2501.2</ele>
        <time>2022-07-19T13:24:54Z</time>
      </trkpt>
      <trkpt lat="44.34495" lon="6.79815">
        <ele>2500.2</ele>
        <time>2022-07-19T13:24:55Z</time>
      </trkpt>
      <trkpt lat="44.34504" lon="6.79812">
        <ele>2499.4</ele>
        <time>2022-07-19T13:24:56Z</time>
      </trkpt>
      <trkpt lat="44.34513" lon="6.79808">
        <ele>2498.4</ele>
        <time>2022-07-19T13:24:57Z</time>
      </trkpt>
      <trkpt lat="44.34519" lon="6.79804">
        <ele>2497.6</ele>
        <time>2022-07-19T13:24:58Z</time>
      </trkpt>
      <trkpt lat="44.34525" lon="6.798">
        <ele>2496.8</ele>
        <time>2022-07-19T13:24:59Z</time>
      </trkpt>
      <trkpt lat="44.34528" lon="6.79795">
        <ele>2496.2</ele>
        <time>2022-07-19T13:25:00Z</time>
      </trkpt>
      <trkpt lat="44.3453" lon="6.79787">
        <ele>2495.8</ele>
        <time>2022-07-19T13:25:01Z</time>
      </trkpt>
      <trkpt lat="44.34529" lon="6.79779">
        <ele>2495.4</ele>
        <time>2022-07-19T13:25:02Z</time>
      </trkpt>
      <trkpt lat="44.34526" lon="6.79772">
        <ele>2494.8</ele>
        <time>2022-07-19T13:25:03Z</time>
      </trkpt>
      <trkpt lat="44.34521" lon="6.79767">
        <ele>2494.4</ele>
        <time>2022-07-19T13:25:04Z</time>
      </trkpt>
      <trkpt lat="44.34515" lon="6.79766">
        <ele>2494</ele>
        <time>2022-07-19T13:25:05Z</time>
      </trkpt>
      <trkpt lat="44.34508" lon="6.79768">
        <ele>2493.6</ele>
        <time>2022-07-19T13:25:06Z</time>
      </trkpt>
      <trkpt lat="44.34502" lon="6.79773">
        <ele>2493.2</ele>
        <time>2022-07-19T13:25:07Z</time>
      </trkpt>
      <trkpt lat="44.34497" lon="6.79778">
        <ele>2492.6</ele>
        <time>2022-07-19T13:25:08Z</time>
      </trkpt>
      <trkpt lat="44.34491" lon="6.79781">
        <ele>2491.8</ele>
        <time>2022-07-19T13:25:09Z</time>
      </trkpt>
      <trkpt lat="44.34485" lon="6.79781">
        <ele>2491.2</ele>
        <time>2022-07-19T13:25:10Z</time>
      </trkpt>
      <trkpt lat="44.34478" lon="6.79777">
        <ele>2490.4</ele>
        <time>2022-07-19T13:25:11Z</time>
      </trkpt>
      <trkpt lat="44.34472" lon="6.79771">
        <ele>2489.6</ele>
        <time>2022-07-19T13:25:12Z</time>
      </trkpt>
      <trkpt lat="44.34465" lon="6.79764">
        <ele>2488.8</ele>
        <time>2022-07-19T13:25:13Z</time>
      </trkpt>
      <trkpt lat="44.34457" lon="6.79758">
        <ele>2487.8</ele>
        <time>2022-07-19T13:25:14Z</time>
      </trkpt>
      <trkpt lat="44.34448" lon="6.79752">
        <ele>2487</ele>
        <time>2022-07-19T13:25:15Z</time>
      </trkpt>
      <trkpt lat="44.34438" lon="6.79748">
        <ele>2486</ele>
        <time>2022-07-19T13:25:16Z</time>
      </trkpt>
      <trkpt lat="44.34429" lon="6.79741">
        <ele>2485.2</ele>
        <time>2022-07-19T13:25:17Z</time>
      </trkpt>
      <trkpt lat="44.34421" lon="6.79734">
        <ele>2484.4</ele>
        <time>2022-07-19T13:25:18Z</time>
      </trkpt>
      <trkpt lat="44.34416" lon="6.79727">
        <ele>2483.6</ele>
        <time>2022-07-19T13:25:19Z</time>
      </trkpt>
      <trkpt lat="44.34411" lon="6.79719">
        <ele>2482.8</ele>
        <time>2022-07-19T13:25:20Z</time>
      </trkpt>
      <trkpt lat="44.34408" lon="6.79709">
        <ele>2482</ele>
        <time>2022-07-19T13:25:21Z</time>
      </trkpt>
      <trkpt lat="44.34406" lon="6.79699">
        <ele>2481.4</ele>
        <time>2022-07-19T13:25:22Z</time>
      </trkpt>
      <trkpt lat="44.34404" lon="6.79692">
        <ele>2480.6</ele>
        <time>2022-07-19T13:25:23Z</time>
      </trkpt>
      <trkpt lat="44.34401" lon="6.79687">
        <ele>2480.2</ele>
        <time>2022-07-19T13:25:24Z</time>
      </trkpt>
      <trkpt lat="44.34396" lon="6.79686">
        <ele>2479.6</ele>
        <time>2022-07-19T13:25:25Z</time>
      </trkpt>
      <trkpt lat="44.34393" lon="6.7969">
        <ele>2479.2</ele>
        <time>2022-07-19T13:25:26Z</time>
      </trkpt>
      <trkpt lat="44.3439" lon="6.79696">
        <ele>2478.8</ele>
        <time>2022-07-19T13:25:27Z</time>
      </trkpt>
      <trkpt lat="44.3439" lon="6.79704">
        <ele>2478.4</ele>
        <time>2022-07-19T13:25:28Z</time>
      </trkpt>
      <trkpt lat="44.34392" lon="6.79712">
        <ele>2478</ele>
        <time>2022-07-19T13:25:29Z</time>
      </trkpt>
      <trkpt lat="44.34395" lon="6.7972">
        <ele>2477.8</ele>
        <time>2022-07-19T13:25:30Z</time>
      </trkpt>
      <trkpt lat="44.34398" lon="6.79727">
        <ele>2477.4</ele>
        <time>2022-07-19T13:25:31Z</time>
      </trkpt>
      <trkpt lat="44.34402" lon="6.79735">
        <ele>2477.2</ele>
        <time>2022-07-19T13:25:32Z</time>
      </trkpt>
      <trkpt lat="44.34405" lon="6.79743">
        <ele>2477</ele>
        <time>2022-07-19T13:25:33Z</time>
      </trkpt>
      <trkpt lat="44.34408" lon="6.79753">
        <ele>2476.6</ele>
        <time>2022-07-19T13:25:34Z</time>
      </trkpt>
      <trkpt lat="44.34408" lon="6.79763">
        <ele>2476</ele>
        <time>2022-07-19T13:25:35Z</time>
      </trkpt>
      <trkpt lat="44.34407" lon="6.79773">
        <ele>2475.6</ele>
        <time>2022-07-19T13:25:36Z</time>
      </trkpt>
      <trkpt lat="44.34404" lon="6.79783">
        <ele>2475.2</ele>
        <time>2022-07-19T13:25:37Z</time>
      </trkpt>
      <trkpt lat="44.34401" lon="6.79794">
        <ele>2474.6</ele>
        <time>2022-07-19T13:25:38Z</time>
      </trkpt>
      <trkpt lat="44.34399" lon="6.79804">
        <ele>2474</ele>
        <time>2022-07-19T13:25:39Z</time>
      </trkpt>
      <trkpt lat="44.34397" lon="6.79812">
        <ele>2473.6</ele>
        <time>2022-07-19T13:25:40Z</time>
      </trkpt>
      <trkpt lat="44.34394" lon="6.79818">
        <ele>2473.2</ele>
        <time>2022-07-19T13:25:41Z</time>
      </trkpt>
      <trkpt lat="44.3439" lon="6.79821">
        <ele>2473</ele>
        <time>2022-07-19T13:25:42Z</time>
      </trkpt>
      <trkpt lat="44.34386" lon="6.7982">
        <ele>2472.6</ele>
        <time>2022-07-19T13:25:43Z</time>
      </trkpt>
      <trkpt lat="44.34382" lon="6.79816">
        <ele>2472.2</ele>
        <time>2022-07-19T13:25:44Z</time>
      </trkpt>
      <trkpt lat="44.3438" lon="6.7981">
        <ele>2471.8</ele>
        <time>2022-07-19T13:25:45Z</time>
      </trkpt>
      <trkpt lat="44.34379" lon="6.79801">
        <ele>2471.4</ele>
        <time>2022-07-19T13:25:46Z</time>
      </trkpt>
      <trkpt lat="44.34377" lon="6.79792">
        <ele>2470.8</ele>
        <time>2022-07-19T13:25:47Z</time>
      </trkpt>
      <trkpt lat="44.34375" lon="6.79782">
        <ele>2470.4</ele>
        <time>2022-07-19T13:25:48Z</time>
      </trkpt>
      <trkpt lat="44.34371" lon="6.79772">
        <ele>2469.8</ele>
        <time>2022-07-19T13:25:49Z</time>
      </trkpt>
      <trkpt lat="44.34366" lon="6.79762">
        <ele>2469.4</ele>
        <time>2022-07-19T13:25:50Z</time>
      </trkpt>
      <trkpt lat="44.34362" lon="6.79751">
        <ele>2468.8</ele>
        <time>2022-07-19T13:25:51Z</time>
      </trkpt>
      <trkpt lat="44.34356" lon="6.79739">
        <ele>2468.2</ele>
        <time>2022-07-19T13:25:52Z</time>
      </trkpt>
      <trkpt lat="44.34351" lon="6.79727">
        <ele>2467.6</ele>
        <time>2022-07-19T13:25:53Z</time>
      </trkpt>
      <trkpt lat="44.34345" lon="6.79713">
        <ele>2466.8</ele>
        <time>2022-07-19T13:25:54Z</time>
      </trkpt>
      <trkpt lat="44.3434" lon="6.797">
        <ele>2466.2</ele>
        <time>2022-07-19T13:25:55Z</time>
      </trkpt>
      <trkpt lat="44.34337" lon="6.79686">
        <ele>2465.6</ele>
        <time>2022-07-19T13:25:56Z</time>
      </trkpt>
      <trkpt lat="44.34332" lon="6.79674">
        <ele>2464.8</ele>
        <time>2022-07-19T13:25:57Z</time>
      </trkpt>
      <trkpt lat="44.34327" lon="6.79662">
        <ele>2464.2</ele>
        <time>2022-07-19T13:25:58Z</time>
      </trkpt>
      <trkpt lat="44.34321" lon="6.7965">
        <ele>2463.4</ele>
        <time>2022-07-19T13:25:59Z</time>
      </trkpt>
      <trkpt lat="44.34316" lon="6.79636">
        <ele>2462.4</ele>
        <time>2022-07-19T13:26:00Z</time>
      </trkpt>
      <trkpt lat="44.34312" lon="6.79623">
        <ele>2461.6</ele>
        <time>2022-07-19T13:26:01Z</time>
      </trkpt>
      <trkpt lat="44.34308" lon="6.79611">
        <ele>2461</ele>
        <time>2022-07-19T13:26:02Z</time>
      </trkpt>
      <trkpt lat="44.34302" lon="6.79601">
        <ele>2460.2</ele>
        <time>2022-07-19T13:26:03Z</time>
      </trkpt>
      <trkpt lat="44.34296" lon="6.79592">
        <ele>2459.6</ele>
        <time>2022-07-19T13:26:04Z</time>
      </trkpt>
      <trkpt lat="44.34289" lon="6.79584">
        <ele>2459</ele>
        <time>2022-07-19T13:26:05Z</time>
      </trkpt>
      <trkpt lat="44.34282" lon="6.79577">
        <ele>2458.4</ele>
        <time>2022-07-19T13:26:06Z</time>
      </trkpt>
      <trkpt lat="44.34275" lon="6.79572">
        <ele>2457.8</ele>
        <time>2022-07-19T13:26:07Z</time>
      </trkpt>
      <trkpt lat="44.34268" lon="6.79569">
        <ele>2457.2</ele>
        <time>2022-07-19T13:26:08Z</time>
      </trkpt>
      <trkpt lat="44.34262" lon="6.79568">
        <ele>2456.6</ele>
        <time>2022-07-19T13:26:09Z</time>
      </trkpt>
      <trkpt lat="44.34256" lon="6.79567">
        <ele>2456.4</ele>
        <time>2022-07-19T13:26:10Z</time>
      </trkpt>
      <trkpt lat="44.34252" lon="6.79564">
        <ele>2455.8</ele>
        <time>2022-07-19T13:26:11Z</time>
      </trkpt>
      <trkpt lat="44.34249" lon="6.79559">
        <ele>2455.6</ele>
        <time>2022-07-19T13:26:12Z</time>
      </trkpt>
      <trkpt lat="44.34249" lon="6.79553">
        <ele>2455</ele>
        <time>2022-07-19T13:26:13Z</time>
      </trkpt>
      <trkpt lat="44.34252" lon="6.79546">
        <ele>2454.4</ele>
        <time>2022-07-19T13:26:14Z</time>
      </trkpt>
      <trkpt lat="44.34258" lon="6.79541">
        <ele>2453.8</ele>
        <time>2022-07-19T13:26:15Z</time>
      </trkpt>
      <trkpt lat="44.34266" lon="6.79538">
        <ele>2453.2</ele>
        <time>2022-07-19T13:26:16Z</time>
      </trkpt>
      <trkpt lat="44.34274" lon="6.79535">
        <ele>2452.4</ele>
        <time>2022-07-19T13:26:17Z</time>
      </trkpt>
      <trkpt lat="44.34281" lon="6.7953">
        <ele>2451.6</ele>
        <time>2022-07-19T13:26:18Z</time>
      </trkpt>
      <trkpt lat="44.34289" lon="6.79523">
        <ele>2450.8</ele>
        <time>2022-07-19T13:26:19Z</time>
      </trkpt>
      <trkpt lat="44.34297" lon="6.79515">
        <ele>2450</ele>
        <time>2022-07-19T13:26:20Z</time>
      </trkpt>
      <trkpt lat="44.34305" lon="6.79505">
        <ele>2449</ele>
        <time>2022-07-19T13:26:21Z</time>
      </trkpt>
      <trkpt lat="44.34312" lon="6.79495">
        <ele>2448.2</ele>
        <time>2022-07-19T13:26:22Z</time>
      </trkpt>
      <trkpt lat="44.34319" lon="6.79486">
        <ele>2447.4</ele>
        <time>2022-07-19T13:26:23Z</time>
      </trkpt>
      <trkpt lat="44.34325" lon="6.79479">
        <ele>2446.6</ele>
        <time>2022-07-19T13:26:24Z</time>
      </trkpt>
      <trkpt lat="44.34333" lon="6.79473">
        <ele>2445.8</ele>
        <time>2022-07-19T13:26:25Z</time>
      </trkpt>
      <trkpt lat="44.34341" lon="6.7947">
        <ele>2444.8</ele>
        <time>2022-07-19T13:26:26Z</time>
      </trkpt>
      <trkpt lat="44.34349" lon="6.79468">
        <ele>2444</ele>
        <time>2022-07-19T13:26:27Z</time>
      </trkpt>
      <trkpt lat="44.34358" lon="6.79468">
        <ele>2443.2</ele>
        <time>2022-07-19T13:26:28Z</time>
      </trkpt>
      <trkpt lat="44.34368" lon="6.79469">
        <ele>2442.2</ele>
        <time>2022-07-19T13:26:29Z</time>
      </trkpt>
      <trkpt lat="44.34377" lon="6.7947">
        <ele>2441.4</ele>
        <time>2022-07-19T13:26:30Z</time>
      </trkpt>
      <trkpt lat="44.34385" lon="6.7947">
        <ele>2440.6</ele>
        <time>2022-07-19T13:26:31Z</time>
      </trkpt>
      <trkpt lat="44.34391" lon="6.79469">
        <ele>2440</ele>
        <time>2022-07-19T13:26:32Z</time>
      </trkpt>
      <trkpt lat="44.34395" lon="6.79466">
        <ele>2439.4</ele>
        <time>2022-07-19T13:26:33Z</time>
      </trkpt>
      <trkpt lat="44.34397" lon="6.79459">
        <ele>2438.8</ele>
        <time>2022-07-19T13:26:34Z</time>
      </trkpt>
      <trkpt lat="44.34396" lon="6.79452">
        <ele>2438.4</ele>
        <time>2022-07-19T13:26:35Z</time>
      </trkpt>
      <trkpt lat="44.34392" lon="6.79446">
        <ele>2438</ele>
        <time>2022-07-19T13:26:36Z</time>
      </trkpt>
      <trkpt lat="44.34386" lon="6.79441">
        <ele>2437.6</ele>
        <time>2022-07-19T13:26:37Z</time>
      </trkpt>
      <trkpt lat="44.34379" lon="6.79439">
        <ele>2437.2</ele>
        <time>2022-07-19T13:26:38Z</time>
      </trkpt>
      <trkpt lat="44.34372" lon="6.79438">
        <ele>2437</ele>
        <time>2022-07-19T13:26:39Z</time>
      </trkpt>
      <trkpt lat="44.34365" lon="6.79438">
        <ele>2436.6</ele>
        <time>2022-07-19T13:26:40Z</time>
      </trkpt>
      <trkpt lat="44.34358" lon="6.79437">
        <ele>2436.2</ele>
        <time>2022-07-19T13:26:41Z</time>
      </trkpt>
      <trkpt lat="44.34351" lon="6.79433">
        <ele>2435.8</ele>
        <time>2022-07-19T13:26:42Z</time>
      </trkpt>
      <trkpt lat="44.34344" lon="6.79429">
        <ele>2435.4</ele>
        <time>2022-07-19T13:26:43Z</time>
      </trkpt>
      <trkpt lat="44.34337" lon="6.79425">
        <ele>2434.8</ele>
        <time>2022-07-19T13:26:44Z</time>
      </trkpt>
      <trkpt lat="44.34329" lon="6.79423">
        <ele>2434.4</ele>
        <time>2022-07-19T13:26:45Z</time>
      </trkpt>
      <trkpt lat="44.34321" lon="6.79422">
        <ele>2434</ele>
        <time>2022-07-19T13:26:46Z</time>
      </trkpt>
      <trkpt lat="44.34313" lon="6.79423">
        <ele>2433.6</ele>
        <time>2022-07-19T13:26:47Z</time>
      </trkpt>
      <trkpt lat="44.34304" lon="6.79424">
        <ele>2433.2</ele>
        <time>2022-07-19T13:26:48Z</time>
      </trkpt>
      <trkpt lat="44.34295" lon="6.79427">
        <ele>2432.6</ele>
        <time>2022-07-19T13:26:49Z</time>
      </trkpt>
      <trkpt lat="44.34284" lon="6.79428">
        <ele>2431.8</ele>
        <time>2022-07-19T13:26:50Z</time>
      </trkpt>
      <trkpt lat="44.34274" lon="6.79431">
        <ele>2431</ele>
        <time>2022-07-19T13:26:51Z</time>
      </trkpt>
      <trkpt lat="44.34263" lon="6.79434">
        <ele>2430.2</ele>
        <time>2022-07-19T13:26:52Z</time>
      </trkpt>
      <trkpt lat="44.34253" lon="6.79436">
        <ele>2429.4</ele>
        <time>2022-07-19T13:26:53Z</time>
      </trkpt>
      <trkpt lat="44.34242" lon="6.79438">
        <ele>2428.4</ele>
        <time>2022-07-19T13:26:54Z</time>
      </trkpt>
      <trkpt lat="44.34231" lon="6.79441">
        <ele>2427.4</ele>
        <time>2022-07-19T13:26:55Z</time>
      </trkpt>
      <trkpt lat="44.34221" lon="6.79446">
        <ele>2426.6</ele>
        <time>2022-07-19T13:26:56Z</time>
      </trkpt>
      <trkpt lat="44.34211" lon="6.79449">
        <ele>2425.6</ele>
        <time>2022-07-19T13:26:57Z</time>
      </trkpt>
      <trkpt lat="44.34202" lon="6.79455">
        <ele>2424.8</ele>
        <time>2022-07-19T13:26:58Z</time>
      </trkpt>
      <trkpt lat="44.34194" lon="6.79462">
        <ele>2424</ele>
        <time>2022-07-19T13:26:59Z</time>
      </trkpt>
      <trkpt lat="44.34186" lon="6.79471">
        <ele>2423</ele>
        <time>2022-07-19T13:27:00Z</time>
      </trkpt>
      <trkpt lat="44.34178" lon="6.79478">
        <ele>2422.2</ele>
        <time>2022-07-19T13:27:01Z</time>
      </trkpt>
      <trkpt lat="44.3417" lon="6.79482">
        <ele>2421.2</ele>
        <time>2022-07-19T13:27:02Z</time>
      </trkpt>
      <trkpt lat="44.3416" lon="6.79484">
        <ele>2420.4</ele>
        <time>2022-07-19T13:27:03Z</time>
      </trkpt>
      <trkpt lat="44.3415" lon="6.79486">
        <ele>2419.6</ele>
        <time>2022-07-19T13:27:04Z</time>
      </trkpt>
      <trkpt lat="44.34142" lon="6.79485">
        <ele>2418.6</ele>
        <time>2022-07-19T13:27:05Z</time>
      </trkpt>
      <trkpt lat="44.34134" lon="6.7948">
        <ele>2417.8</ele>
        <time>2022-07-19T13:27:06Z</time>
      </trkpt>
      <trkpt lat="44.34127" lon="6.79471">
        <ele>2416.8</ele>
        <time>2022-07-19T13:27:07Z</time>
      </trkpt>
      <trkpt lat="44.3412" lon="6.7946">
        <ele>2415.8</ele>
        <time>2022-07-19T13:27:08Z</time>
      </trkpt>
      <trkpt lat="44.34113" lon="6.79449">
        <ele>2414.8</ele>
        <time>2022-07-19T13:27:09Z</time>
      </trkpt>
      <trkpt lat="44.34107" lon="6.79437">
        <ele>2413.8</ele>
        <time>2022-07-19T13:27:10Z</time>
      </trkpt>
      <trkpt lat="44.34102" lon="6.79425">
        <ele>2412.8</ele>
        <time>2022-07-19T13:27:11Z</time>
      </trkpt>
      <trkpt lat="44.34099" lon="6.79411">
        <ele>2411.8</ele>
        <time>2022-07-19T13:27:12Z</time>
      </trkpt>
      <trkpt lat="44.34098" lon="6.79398">
        <ele>2410.8</ele>
        <time>2022-07-19T13:27:13Z</time>
      </trkpt>
      <trkpt lat="44.34095" lon="6.79387">
        <ele>2409.8</ele>
        <time>2022-07-19T13:27:14Z</time>
      </trkpt>
      <trkpt lat="44.3409" lon="6.79377">
        <ele>2408.8</ele>
        <time>2022-07-19T13:27:15Z</time>
      </trkpt>
      <trkpt lat="44.34084" lon="6.79369">
        <ele>2408</ele>
        <time>2022-07-19T13:27:16Z</time>
      </trkpt>
      <trkpt lat="44.34076" lon="6.79362">
        <ele>2407.2</ele>
        <time>2022-07-19T13:27:17Z</time>
      </trkpt>
      <trkpt lat="44.34068" lon="6.79357">
        <ele>2406.4</ele>
        <time>2022-07-19T13:27:18Z</time>
      </trkpt>
      <trkpt lat="44.34058" lon="6.79353">
        <ele>2405.6</ele>
        <time>2022-07-19T13:27:19Z</time>
      </trkpt>
      <trkpt lat="44.34048" lon="6.79354">
        <ele>2404.6</ele>
        <time>2022-07-19T13:27:20Z</time>
      </trkpt>
      <trkpt lat="44.34038" lon="6.79355">
        <ele>2403.6</ele>
        <time>2022-07-19T13:27:21Z</time>
      </trkpt>
      <trkpt lat="44.34029" lon="6.79356">
        <ele>2402.6</ele>
        <time>2022-07-19T13:27:22Z</time>
      </trkpt>
      <trkpt lat="44.3402" lon="6.79355">
        <ele>2401.8</ele>
        <time>2022-07-19T13:27:23Z</time>
      </trkpt>
      <trkpt lat="44.34012" lon="6.79352">
        <ele>2400.8</ele>
        <time>2022-07-19T13:27:24Z</time>
      </trkpt>
      <trkpt lat="44.34006" lon="6.79347">
        <ele>2399.8</ele>
        <time>2022-07-19T13:27:25Z</time>
      </trkpt>
      <trkpt lat="44.34001" lon="6.79341">
        <ele>2399.2</ele>
        <time>2022-07-19T13:27:26Z</time>
      </trkpt>
      <trkpt lat="44.33998" lon="6.79334">
        <ele>2398.6</ele>
        <time>2022-07-19T13:27:27Z</time>
      </trkpt>
      <trkpt lat="44.33997" lon="6.79325">
        <ele>2398</ele>
        <time>2022-07-19T13:27:28Z</time>
      </trkpt>
      <trkpt lat="44.33998" lon="6.79316">
        <ele>2397.4</ele>
        <time>2022-07-19T13:27:29Z</time>
      </trkpt>
      <trkpt lat="44.34002" lon="6.79306">
        <ele>2396.6</ele>
        <time>2022-07-19T13:27:30Z</time>
      </trkpt>
      <trkpt lat="44.34007" lon="6.79296">
        <ele>2395.8</ele>
        <time>2022-07-19T13:27:31Z</time>
      </trkpt>
      <trkpt lat="44.34013" lon="6.79286">
        <ele>2394.8</ele>
        <time>2022-07-19T13:27:32Z</time>
      </trkpt>
      <trkpt lat="44.34021" lon="6.79275">
        <ele>2394</ele>
        <time>2022-07-19T13:27:33Z</time>
      </trkpt>
      <trkpt lat="44.34028" lon="6.79263">
        <ele>2393.2</ele>
        <time>2022-07-19T13:27:34Z</time>
      </trkpt>
      <trkpt lat="44.34036" lon="6.79251">
        <ele>2392.2</ele>
        <time>2022-07-19T13:27:35Z</time>
      </trkpt>
      <trkpt lat="44.34043" lon="6.79238">
        <ele>2391.2</ele>
        <time>2022-07-19T13:27:36Z</time>
      </trkpt>
      <trkpt lat="44.3405" lon="6.79226">
        <ele>2390.4</ele>
        <time>2022-07-19T13:27:37Z</time>
      </trkpt>
      <trkpt lat="44.34056" lon="6.79213">
        <ele>2389.6</ele>
        <time>2022-07-19T13:27:38Z</time>
      </trkpt>
      <trkpt lat="44.34062" lon="6.792">
        <ele>2388.6</ele>
        <time>2022-07-19T13:27:39Z</time>
      </trkpt>
      <trkpt lat="44.34069" lon="6.79188">
        <ele>2387.6</ele>
        <time>2022-07-19T13:27:40Z</time>
      </trkpt>
      <trkpt lat="44.34075" lon="6.79176">
        <ele>2386.4</ele>
        <time>2022-07-19T13:27:41Z</time>
      </trkpt>
      <trkpt lat="44.3408" lon="6.79163">
        <ele>2385.4</ele>
        <time>2022-07-19T13:27:42Z</time>
      </trkpt>
      <trkpt lat="44.34083" lon="6.79149">
        <ele>2384.4</ele>
        <time>2022-07-19T13:27:43Z</time>
      </trkpt>
      <trkpt lat="44.34085" lon="6.79132">
        <ele>2383.2</ele>
        <time>2022-07-19T13:27:44Z</time>
      </trkpt>
      <trkpt lat="44.34085" lon="6.79116">
        <ele>2381.8</ele>
        <time>2022-07-19T13:27:45Z</time>
      </trkpt>
      <trkpt lat="44.34085" lon="6.791">
        <ele>2380.8</ele>
        <time>2022-07-19T13:27:46Z</time>
      </trkpt>
      <trkpt lat="44.34085" lon="6.79083">
        <ele>2379.6</ele>
        <time>2022-07-19T13:27:47Z</time>
      </trkpt>
      <trkpt lat="44.34084" lon="6.79066">
        <ele>2378.4</ele>
        <time>2022-07-19T13:27:48Z</time>
      </trkpt>
      <trkpt lat="44.34084" lon="6.79049">
        <ele>2377.2</ele>
        <time>2022-07-19T13:27:49Z</time>
      </trkpt>
      <trkpt lat="44.34083" lon="6.79035">
        <ele>2375.8</ele>
        <time>2022-07-19T13:27:50Z</time>
      </trkpt>
      <trkpt lat="44.34082" lon="6.79021">
        <ele>2374.8</ele>
        <time>2022-07-19T13:27:51Z</time>
      </trkpt>
      <trkpt lat="44.34079" lon="6.79009">
        <ele>2373.6</ele>
        <time>2022-07-19T13:27:52Z</time>
      </trkpt>
      <trkpt lat="44.34078" lon="6.78997">
        <ele>2372.6</ele>
        <time>2022-07-19T13:27:53Z</time>
      </trkpt>
      <trkpt lat="44.34079" lon="6.78985">
        <ele>2371.8</ele>
        <time>2022-07-19T13:27:54Z</time>
      </trkpt>
      <trkpt lat="44.34082" lon="6.78973">
        <ele>2370.8</ele>
        <time>2022-07-19T13:27:55Z</time>
      </trkpt>
      <trkpt lat="44.34086" lon="6.7896">
        <ele>2369.8</ele>
        <time>2022-07-19T13:27:56Z</time>
      </trkpt>
      <trkpt lat="44.34091" lon="6.78951">
        <ele>2368.8</ele>
        <time>2022-07-19T13:27:57Z</time>
      </trkpt>
      <trkpt lat="44.34095" lon="6.78942">
        <ele>2368</ele>
        <time>2022-07-19T13:27:58Z</time>
      </trkpt>
      <trkpt lat="44.34098" lon="6.78933">
        <ele>2367.4</ele>
        <time>2022-07-19T13:27:59Z</time>
      </trkpt>
      <trkpt lat="44.341" lon="6.78925">
        <ele>2366.8</ele>
        <time>2022-07-19T13:28:00Z</time>
      </trkpt>
      <trkpt lat="44.34099" lon="6.7892">
        <ele>2366.4</ele>
        <time>2022-07-19T13:28:01Z</time>
      </trkpt>
      <trkpt lat="44.34095" lon="6.78916">
        <ele>2366</ele>
        <time>2022-07-19T13:28:02Z</time>
      </trkpt>
      <trkpt lat="44.3409" lon="6.78916">
        <ele>2365.6</ele>
        <time>2022-07-19T13:28:03Z</time>
      </trkpt>
      <trkpt lat="44.34085" lon="6.78921">
        <ele>2365.2</ele>
        <time>2022-07-19T13:28:04Z</time>
      </trkpt>
      <trkpt lat="44.3408" lon="6.78926">
        <ele>2364.8</ele>
        <time>2022-07-19T13:28:05Z</time>
      </trkpt>
      <trkpt lat="44.34075" lon="6.78933">
        <ele>2364.2</ele>
        <time>2022-07-19T13:28:06Z</time>
      </trkpt>
      <trkpt lat="44.34071" lon="6.78942">
        <ele>2363.8</ele>
        <time>2022-07-19T13:28:07Z</time>
      </trkpt>
      <trkpt lat="44.34066" lon="6.7895">
        <ele>2363.4</ele>
        <time>2022-07-19T13:28:08Z</time>
      </trkpt>
      <trkpt lat="44.34062" lon="6.7896">
        <ele>2363</ele>
        <time>2022-07-19T13:28:09Z</time>
      </trkpt>
      <trkpt lat="44.34058" lon="6.7897">
        <ele>2362.6</ele>
        <time>2022-07-19T13:28:10Z</time>
      </trkpt>
      <trkpt lat="44.34053" lon="6.7898">
        <ele>2362</ele>
        <time>2022-07-19T13:28:11Z</time>
      </trkpt>
      <trkpt lat="44.34049" lon="6.78991">
        <ele>2361.6</ele>
        <time>2022-07-19T13:28:12Z</time>
      </trkpt>
      <trkpt lat="44.34044" lon="6.79002">
        <ele>2361</ele>
        <time>2022-07-19T13:28:13Z</time>
      </trkpt>
      <trkpt lat="44.34039" lon="6.79016">
        <ele>2360.4</ele>
        <time>2022-07-19T13:28:14Z</time>
      </trkpt>
      <trkpt lat="44.34036" lon="6.79031">
        <ele>2359.6</ele>
        <time>2022-07-19T13:28:15Z</time>
      </trkpt>
      <trkpt lat="44.34033" lon="6.79047">
        <ele>2358.6</ele>
        <time>2022-07-19T13:28:16Z</time>
      </trkpt>
      <trkpt lat="44.34031" lon="6.79062">
        <ele>2357.6</ele>
        <time>2022-07-19T13:28:17Z</time>
      </trkpt>
      <trkpt lat="44.34027" lon="6.79076">
        <ele>2356.6</ele>
        <time>2022-07-19T13:28:18Z</time>
      </trkpt>
      <trkpt lat="44.34022" lon="6.79089">
        <ele>2355.6</ele>
        <time>2022-07-19T13:28:19Z</time>
      </trkpt>
      <trkpt lat="44.34016" lon="6.79101">
        <ele>2354.6</ele>
        <time>2022-07-19T13:28:20Z</time>
      </trkpt>
      <trkpt lat="44.3401" lon="6.79113">
        <ele>2353.6</ele>
        <time>2022-07-19T13:28:21Z</time>
      </trkpt>
      <trkpt lat="44.34004" lon="6.79126">
        <ele>2352.4</ele>
        <time>2022-07-19T13:28:22Z</time>
      </trkpt>
      <trkpt lat="44.33997" lon="6.79137">
        <ele>2351.4</ele>
        <time>2022-07-19T13:28:23Z</time>
      </trkpt>
      <trkpt lat="44.33989" lon="6.79146">
        <ele>2350.4</ele>
        <time>2022-07-19T13:28:24Z</time>
      </trkpt>
      <trkpt lat="44.3398" lon="6.79152">
        <ele>2349.4</ele>
        <time>2022-07-19T13:28:25Z</time>
      </trkpt>
      <trkpt lat="44.33969" lon="6.79156">
        <ele>2348.6</ele>
        <time>2022-07-19T13:28:26Z</time>
      </trkpt>
      <trkpt lat="44.33958" lon="6.79159">
        <ele>2347.4</ele>
        <time>2022-07-19T13:28:27Z</time>
      </trkpt>
      <trkpt lat="44.33947" lon="6.79162">
        <ele>2346.4</ele>
        <time>2022-07-19T13:28:28Z</time>
      </trkpt>
      <trkpt lat="44.33935" lon="6.79164">
        <ele>2345.2</ele>
        <time>2022-07-19T13:28:29Z</time>
      </trkpt>
      <trkpt lat="44.33924" lon="6.79167">
        <ele>2344</ele>
        <time>2022-07-19T13:28:30Z</time>
      </trkpt>
      <trkpt lat="44.33911" lon="6.79167">
        <ele>2342.8</ele>
        <time>2022-07-19T13:28:31Z</time>
      </trkpt>
      <trkpt lat="44.33899" lon="6.79168">
        <ele>2341.6</ele>
        <time>2022-07-19T13:28:32Z</time>
      </trkpt>
      <trkpt lat="44.33888" lon="6.79172">
        <ele>2340.4</ele>
        <time>2022-07-19T13:28:33Z</time>
      </trkpt>
      <trkpt lat="44.33877" lon="6.79177">
        <ele>2339.2</ele>
        <time>2022-07-19T13:28:34Z</time>
      </trkpt>
      <trkpt lat="44.33866" lon="6.79184">
        <ele>2338.2</ele>
        <time>2022-07-19T13:28:35Z</time>
      </trkpt>
      <trkpt lat="44.33855" lon="6.79191">
        <ele>2337.4</ele>
        <time>2022-07-19T13:28:36Z</time>
      </trkpt>
      <trkpt lat="44.33845" lon="6.79197">
        <ele>2336.8</ele>
        <time>2022-07-19T13:28:37Z</time>
      </trkpt>
      <trkpt lat="44.33837" lon="6.792">
        <ele>2336.2</ele>
        <time>2022-07-19T13:28:38Z</time>
      </trkpt>
      <trkpt lat="44.33829" lon="6.79203">
        <ele>2335.6</ele>
        <time>2022-07-19T13:28:39Z</time>
      </trkpt>
      <trkpt lat="44.33821" lon="6.79203">
        <ele>2335</ele>
        <time>2022-07-19T13:28:40Z</time>
      </trkpt>
      <trkpt lat="44.33813" lon="6.792">
        <ele>2334.4</ele>
        <time>2022-07-19T13:28:41Z</time>
      </trkpt>
      <trkpt lat="44.33806" lon="6.79195">
        <ele>2333.8</ele>
        <time>2022-07-19T13:28:42Z</time>
      </trkpt>
      <trkpt lat="44.338" lon="6.79187">
        <ele>2333</ele>
        <time>2022-07-19T13:28:43Z</time>
      </trkpt>
      <trkpt lat="44.33794" lon="6.79177">
        <ele>2332.4</ele>
        <time>2022-07-19T13:28:44Z</time>
      </trkpt>
      <trkpt lat="44.33792" lon="6.79165">
        <ele>2331.6</ele>
        <time>2022-07-19T13:28:45Z</time>
      </trkpt>
      <trkpt lat="44.3379" lon="6.79151">
        <ele>2331</ele>
        <time>2022-07-19T13:28:46Z</time>
      </trkpt>
      <trkpt lat="44.3379" lon="6.79137">
        <ele>2330.4</ele>
        <time>2022-07-19T13:28:47Z</time>
      </trkpt>
      <trkpt lat="44.3379" lon="6.79122">
        <ele>2329.6</ele>
        <time>2022-07-19T13:28:48Z</time>
      </trkpt>
      <trkpt lat="44.3379" lon="6.79107">
        <ele>2329</ele>
        <time>2022-07-19T13:28:49Z</time>
      </trkpt>
      <trkpt lat="44.33789" lon="6.79092">
        <ele>2328.2</ele>
        <time>2022-07-19T13:28:50Z</time>
      </trkpt>
      <trkpt lat="44.33787" lon="6.79077">
        <ele>2327.4</ele>
        <time>2022-07-19T13:28:51Z</time>
      </trkpt>
      <trkpt lat="44.33786" lon="6.79062">
        <ele>2326.8</ele>
        <time>2022-07-19T13:28:52Z</time>
      </trkpt>
      <trkpt lat="44.33786" lon="6.79046">
        <ele>2326.2</ele>
        <time>2022-07-19T13:28:53Z</time>
      </trkpt>
      <trkpt lat="44.33785" lon="6.7903">
        <ele>2325.2</ele>
        <time>2022-07-19T13:28:54Z</time>
      </trkpt>
      <trkpt lat="44.33786" lon="6.79014">
        <ele>2324.6</ele>
        <time>2022-07-19T13:28:55Z</time>
      </trkpt>
      <trkpt lat="44.33786" lon="6.78999">
        <ele>2324</ele>
        <time>2022-07-19T13:28:56Z</time>
      </trkpt>
      <trkpt lat="44.33785" lon="6.78983">
        <ele>2323.4</ele>
        <time>2022-07-19T13:28:57Z</time>
      </trkpt>
      <trkpt lat="44.33783" lon="6.78968">
        <ele>2322.8</ele>
        <time>2022-07-19T13:28:58Z</time>
      </trkpt>
      <trkpt lat="44.3378" lon="6.78954">
        <ele>2322.2</ele>
        <time>2022-07-19T13:28:59Z</time>
      </trkpt>
      <trkpt lat="44.33777" lon="6.7894">
        <ele>2321.8</ele>
        <time>2022-07-19T13:29:00Z</time>
      </trkpt>
      <trkpt lat="44.33773" lon="6.78928">
        <ele>2321.4</ele>
        <time>2022-07-19T13:29:01Z</time>
      </trkpt>
      <trkpt lat="44.33769" lon="6.78914">
        <ele>2320.8</ele>
        <time>2022-07-19T13:29:02Z</time>
      </trkpt>
      <trkpt lat="44.33765" lon="6.78902">
        <ele>2320.4</ele>
        <time>2022-07-19T13:29:03Z</time>
      </trkpt>
      <trkpt lat="44.33764" lon="6.78889">
        <ele>2320.2</ele>
        <time>2022-07-19T13:29:04Z</time>
      </trkpt>
      <trkpt lat="44.33764" lon="6.78876">
        <ele>2319.6</ele>
        <time>2022-07-19T13:29:05Z</time>
      </trkpt>
      <trkpt lat="44.33768" lon="6.78864">
        <ele>2319.2</ele>
        <time>2022-07-19T13:29:06Z</time>
      </trkpt>
      <trkpt lat="44.33771" lon="6.78852">
        <ele>2318.8</ele>
        <time>2022-07-19T13:29:07Z</time>
      </trkpt>
      <trkpt lat="44.33773" lon="6.78841">
        <ele>2318.8</ele>
        <time>2022-07-19T13:29:08Z</time>
      </trkpt>
      <trkpt lat="44.33774" lon="6.7883">
        <ele>2318.6</ele>
        <time>2022-07-19T13:29:09Z</time>
      </trkpt>
      <trkpt lat="44.33773" lon="6.78818">
        <ele>2318.6</ele>
        <time>2022-07-19T13:29:10Z</time>
      </trkpt>
      <trkpt lat="44.3377" lon="6.78807">
        <ele>2318.2</ele>
        <time>2022-07-19T13:29:11Z</time>
      </trkpt>
      <trkpt lat="44.33766" lon="6.78798">
        <ele>2317.8</ele>
        <time>2022-07-19T13:29:12Z</time>
      </trkpt>
      <trkpt lat="44.33762" lon="6.78788">
        <ele>2317.4</ele>
        <time>2022-07-19T13:29:13Z</time>
      </trkpt>
      <trkpt lat="44.33758" lon="6.78777">
        <ele>2317.2</ele>
        <time>2022-07-19T13:29:14Z</time>
      </trkpt>
      <trkpt lat="44.33757" lon="6.78766">
        <ele>2316.8</ele>
        <time>2022-07-19T13:29:15Z</time>
      </trkpt>
      <trkpt lat="44.33758" lon="6.78755">
        <ele>2316.4</ele>
        <time>2022-07-19T13:29:16Z</time>
      </trkpt>
      <trkpt lat="44.33761" lon="6.78744">
        <ele>2316</ele>
        <time>2022-07-19T13:29:17Z</time>
      </trkpt>
      <trkpt lat="44.33765" lon="6.78733">
        <ele>2315.4</ele>
        <time>2022-07-19T13:29:18Z</time>
      </trkpt>
      <trkpt lat="44.33771" lon="6.78722">
        <ele>2314.8</ele>
        <time>2022-07-19T13:29:19Z</time>
      </trkpt>
      <trkpt lat="44.33778" lon="6.78711">
        <ele>2314.4</ele>
        <time>2022-07-19T13:29:20Z</time>
      </trkpt>
      <trkpt lat="44.33785" lon="6.787">
        <ele>2313.6</ele>
        <time>2022-07-19T13:29:21Z</time>
      </trkpt>
      <trkpt lat="44.33792" lon="6.78688">
        <ele>2312.8</ele>
        <time>2022-07-19T13:29:22Z</time>
      </trkpt>
      <trkpt lat="44.338" lon="6.78677">
        <ele>2312</ele>
        <time>2022-07-19T13:29:23Z</time>
      </trkpt>
      <trkpt lat="44.33809" lon="6.78666">
        <ele>2311</ele>
        <time>2022-07-19T13:29:24Z</time>
      </trkpt>
      <trkpt lat="44.33817" lon="6.78654">
        <ele>2310.2</ele>
        <time>2022-07-19T13:29:25Z</time>
      </trkpt>
      <trkpt lat="44.33826" lon="6.78644">
        <ele>2309.2</ele>
        <time>2022-07-19T13:29:26Z</time>
      </trkpt>
      <trkpt lat="44.33834" lon="6.78634">
        <ele>2307.4</ele>
        <time>2022-07-19T13:29:27Z</time>
      </trkpt>
      <trkpt lat="44.33841" lon="6.78624">
        <ele>2306.8</ele>
        <time>2022-07-19T13:29:28Z</time>
      </trkpt>
      <trkpt lat="44.33845" lon="6.78614">
        <ele>2306.4</ele>
        <time>2022-07-19T13:29:29Z</time>
      </trkpt>
      <trkpt lat="44.33847" lon="6.78603">
        <ele>2306</ele>
        <time>2022-07-19T13:29:30Z</time>
      </trkpt>
      <trkpt lat="44.33848" lon="6.78592">
        <ele>2305.8</ele>
        <time>2022-07-19T13:29:31Z</time>
      </trkpt>
      <trkpt lat="44.33847" lon="6.78581">
        <ele>2305.6</ele>
        <time>2022-07-19T13:29:32Z</time>
      </trkpt>
      <trkpt lat="44.33844" lon="6.7857">
        <ele>2305.4</ele>
        <time>2022-07-19T13:29:33Z</time>
      </trkpt>
      <trkpt lat="44.33843" lon="6.78559">
        <ele>2305.2</ele>
        <time>2022-07-19T13:29:34Z</time>
      </trkpt>
      <trkpt lat="44.33842" lon="6.78548">
        <ele>2305.2</ele>
        <time>2022-07-19T13:29:35Z</time>
      </trkpt>
      <trkpt lat="44.33844" lon="6.78538">
        <ele>2304.6</ele>
        <time>2022-07-19T13:29:36Z</time>
      </trkpt>
      <trkpt lat="44.33847" lon="6.78529">
        <ele>2304.6</ele>
        <time>2022-07-19T13:29:37Z</time>
      </trkpt>
      <trkpt lat="44.3385" lon="6.7852">
        <ele>2304.2</ele>
        <time>2022-07-19T13:29:38Z</time>
      </trkpt>
      <trkpt lat="44.33851" lon="6.7851">
        <ele>2304</ele>
        <time>2022-07-19T13:29:39Z</time>
      </trkpt>
      <trkpt lat="44.33851" lon="6.78501">
        <ele>2303.8</ele>
        <time>2022-07-19T13:29:40Z</time>
      </trkpt>
      <trkpt lat="44.33848" lon="6.78492">
        <ele>2303.4</ele>
        <time>2022-07-19T13:29:41Z</time>
      </trkpt>
      <trkpt lat="44.33844" lon="6.78484">
        <ele>2303.2</ele>
        <time>2022-07-19T13:29:42Z</time>
      </trkpt>
      <trkpt lat="44.33838" lon="6.78478">
        <ele>2303</ele>
        <time>2022-07-19T13:29:43Z</time>
      </trkpt>
      <trkpt lat="44.33832" lon="6.78473">
        <ele>2302.8</ele>
        <time>2022-07-19T13:29:44Z</time>
      </trkpt>
      <trkpt lat="44.33825" lon="6.7847">
        <ele>2302.4</ele>
        <time>2022-07-19T13:29:45Z</time>
      </trkpt>
      <trkpt lat="44.33818" lon="6.78468">
        <ele>2302</ele>
        <time>2022-07-19T13:29:46Z</time>
      </trkpt>
      <trkpt lat="44.33811" lon="6.78465">
        <ele>2301.6</ele>
        <time>2022-07-19T13:29:47Z</time>
      </trkpt>
      <trkpt lat="44.33806" lon="6.78459">
        <ele>2301.2</ele>
        <time>2022-07-19T13:29:48Z</time>
      </trkpt>
      <trkpt lat="44.33804" lon="6.78452">
        <ele>2301</ele>
        <time>2022-07-19T13:29:49Z</time>
      </trkpt>
      <trkpt lat="44.33804" lon="6.78444">
        <ele>2300.6</ele>
        <time>2022-07-19T13:29:50Z</time>
      </trkpt>
      <trkpt lat="44.33806" lon="6.78437">
        <ele>2300.2</ele>
        <time>2022-07-19T13:29:51Z</time>
      </trkpt>
      <trkpt lat="44.33811" lon="6.78432">
        <ele>2300</ele>
        <time>2022-07-19T13:29:52Z</time>
      </trkpt>
      <trkpt lat="44.33817" lon="6.78428">
        <ele>2300</ele>
        <time>2022-07-19T13:29:53Z</time>
      </trkpt>
      <trkpt lat="44.33823" lon="6.78427">
        <ele>2299.6</ele>
        <time>2022-07-19T13:29:54Z</time>
      </trkpt>
      <trkpt lat="44.33829" lon="6.78426">
        <ele>2299.6</ele>
        <time>2022-07-19T13:29:55Z</time>
      </trkpt>
      <trkpt lat="44.33835" lon="6.78425">
        <ele>2299.4</ele>
        <time>2022-07-19T13:29:56Z</time>
      </trkpt>
      <trkpt lat="44.33841" lon="6.78423">
        <ele>2299.2</ele>
        <time>2022-07-19T13:29:57Z</time>
      </trkpt>
      <trkpt lat="44.33847" lon="6.7842">
        <ele>2299.2</ele>
        <time>2022-07-19T13:29:58Z</time>
      </trkpt>
      <trkpt lat="44.33852" lon="6.78415">
        <ele>2298.8</ele>
        <time>2022-07-19T13:29:59Z</time>
      </trkpt>
      <trkpt lat="44.33857" lon="6.7841">
        <ele>2298.2</ele>
        <time>2022-07-19T13:30:00Z</time>
      </trkpt>
      <trkpt lat="44.33863" lon="6.78402">
        <ele>2297.8</ele>
        <time>2022-07-19T13:30:01Z</time>
      </trkpt>
      <trkpt lat="44.33868" lon="6.78394">
        <ele>2297.4</ele>
        <time>2022-07-19T13:30:02Z</time>
      </trkpt>
      <trkpt lat="44.33872" lon="6.78385">
        <ele>2296.8</ele>
        <time>2022-07-19T13:30:03Z</time>
      </trkpt>
      <trkpt lat="44.33877" lon="6.78375">
        <ele>2296.2</ele>
        <time>2022-07-19T13:30:04Z</time>
      </trkpt>
      <trkpt lat="44.33881" lon="6.78365">
        <ele>2295.6</ele>
        <time>2022-07-19T13:30:05Z</time>
      </trkpt>
      <trkpt lat="44.33885" lon="6.78353">
        <ele>2295</ele>
        <time>2022-07-19T13:30:06Z</time>
      </trkpt>
      <trkpt lat="44.33889" lon="6.7834">
        <ele>2294.4</ele>
        <time>2022-07-19T13:30:07Z</time>
      </trkpt>
      <trkpt lat="44.33892" lon="6.78328">
        <ele>2293.8</ele>
        <time>2022-07-19T13:30:08Z</time>
      </trkpt>
      <trkpt lat="44.33897" lon="6.78316">
        <ele>2293.2</ele>
        <time>2022-07-19T13:30:09Z</time>
      </trkpt>
      <trkpt lat="44.33903" lon="6.78306">
        <ele>2292.6</ele>
        <time>2022-07-19T13:30:10Z</time>
      </trkpt>
      <trkpt lat="44.3391" lon="6.78298">
        <ele>2292</ele>
        <time>2022-07-19T13:30:11Z</time>
      </trkpt>
      <trkpt lat="44.33919" lon="6.7829">
        <ele>2291.6</ele>
        <time>2022-07-19T13:30:12Z</time>
      </trkpt>
      <trkpt lat="44.33928" lon="6.78282">
        <ele>2291</ele>
        <time>2022-07-19T13:30:13Z</time>
      </trkpt>
      <trkpt lat="44.33936" lon="6.78274">
        <ele>2290.2</ele>
        <time>2022-07-19T13:30:14Z</time>
      </trkpt>
      <trkpt lat="44.33944" lon="6.78267">
        <ele>2289.6</ele>
        <time>2022-07-19T13:30:15Z</time>
      </trkpt>
      <trkpt lat="44.33952" lon="6.78261">
        <ele>2289</ele>
        <time>2022-07-19T13:30:16Z</time>
      </trkpt>
      <trkpt lat="44.33959" lon="6.78255">
        <ele>2288.4</ele>
        <time>2022-07-19T13:30:17Z</time>
      </trkpt>
      <trkpt lat="44.33966" lon="6.78251">
        <ele>2287.8</ele>
        <time>2022-07-19T13:30:18Z</time>
      </trkpt>
      <trkpt lat="44.33974" lon="6.78251">
        <ele>2287</ele>
        <time>2022-07-19T13:30:19Z</time>
      </trkpt>
      <trkpt lat="44.33983" lon="6.78253">
        <ele>2286.2</ele>
        <time>2022-07-19T13:30:20Z</time>
      </trkpt>
      <trkpt lat="44.33992" lon="6.78257">
        <ele>2285.2</ele>
        <time>2022-07-19T13:30:21Z</time>
      </trkpt>
      <trkpt lat="44.34" lon="6.78262">
        <ele>2284.4</ele>
        <time>2022-07-19T13:30:22Z</time>
      </trkpt>
      <trkpt lat="44.34008" lon="6.78267">
        <ele>2283.6</ele>
        <time>2022-07-19T13:30:23Z</time>
      </trkpt>
      <trkpt lat="44.34017" lon="6.7827">
        <ele>2282.6</ele>
        <time>2022-07-19T13:30:24Z</time>
      </trkpt>
      <trkpt lat="44.34028" lon="6.78272">
        <ele>2281.8</ele>
        <time>2022-07-19T13:30:25Z</time>
      </trkpt>
      <trkpt lat="44.34038" lon="6.78272">
        <ele>2280.6</ele>
        <time>2022-07-19T13:30:26Z</time>
      </trkpt>
      <trkpt lat="44.34048" lon="6.7827">
        <ele>2279.8</ele>
        <time>2022-07-19T13:30:27Z</time>
      </trkpt>
      <trkpt lat="44.3406" lon="6.78269">
        <ele>2279</ele>
        <time>2022-07-19T13:30:28Z</time>
      </trkpt>
      <trkpt lat="44.34071" lon="6.78268">
        <ele>2278.2</ele>
        <time>2022-07-19T13:30:29Z</time>
      </trkpt>
      <trkpt lat="44.34083" lon="6.78266">
        <ele>2277.4</ele>
        <time>2022-07-19T13:30:30Z</time>
      </trkpt>
      <trkpt lat="44.34095" lon="6.78264">
        <ele>2276.6</ele>
        <time>2022-07-19T13:30:31Z</time>
      </trkpt>
      <trkpt lat="44.34106" lon="6.78261">
        <ele>2275.8</ele>
        <time>2022-07-19T13:30:32Z</time>
      </trkpt>
      <trkpt lat="44.34118" lon="6.78258">
        <ele>2275</ele>
        <time>2022-07-19T13:30:33Z</time>
      </trkpt>
      <trkpt lat="44.3413" lon="6.78253">
        <ele>2274.2</ele>
        <time>2022-07-19T13:30:34Z</time>
      </trkpt>
      <trkpt lat="44.34142" lon="6.78247">
        <ele>2273.4</ele>
        <time>2022-07-19T13:30:35Z</time>
      </trkpt>
      <trkpt lat="44.34153" lon="6.78241">
        <ele>2272.8</ele>
        <time>2022-07-19T13:30:36Z</time>
      </trkpt>
      <trkpt lat="44.34164" lon="6.78234">
        <ele>2272.2</ele>
        <time>2022-07-19T13:30:37Z</time>
      </trkpt>
      <trkpt lat="44.34174" lon="6.78226">
        <ele>2271.8</ele>
        <time>2022-07-19T13:30:38Z</time>
      </trkpt>
      <trkpt lat="44.34185" lon="6.78221">
        <ele>2271.2</ele>
        <time>2022-07-19T13:30:39Z</time>
      </trkpt>
      <trkpt lat="44.34195" lon="6.78216">
        <ele>2270.8</ele>
        <time>2022-07-19T13:30:40Z</time>
      </trkpt>
      <trkpt lat="44.34206" lon="6.78215">
        <ele>2270.2</ele>
        <time>2022-07-19T13:30:41Z</time>
      </trkpt>
      <trkpt lat="44.34217" lon="6.78216">
        <ele>2269.6</ele>
        <time>2022-07-19T13:30:42Z</time>
      </trkpt>
      <trkpt lat="44.34228" lon="6.78219">
        <ele>2268.8</ele>
        <time>2022-07-19T13:30:43Z</time>
      </trkpt>
      <trkpt lat="44.34238" lon="6.7822">
        <ele>2268.2</ele>
        <time>2022-07-19T13:30:44Z</time>
      </trkpt>
      <trkpt lat="44.34249" lon="6.78221">
        <ele>2267.2</ele>
        <time>2022-07-19T13:30:45Z</time>
      </trkpt>
      <trkpt lat="44.3426" lon="6.78221">
        <ele>2266.4</ele>
        <time>2022-07-19T13:30:46Z</time>
      </trkpt>
      <trkpt lat="44.3427" lon="6.78224">
        <ele>2265.4</ele>
        <time>2022-07-19T13:30:47Z</time>
      </trkpt>
      <trkpt lat="44.34279" lon="6.78229">
        <ele>2264.8</ele>
        <time>2022-07-19T13:30:48Z</time>
      </trkpt>
      <trkpt lat="44.34287" lon="6.78239">
        <ele>2264.2</ele>
        <time>2022-07-19T13:30:49Z</time>
      </trkpt>
      <trkpt lat="44.34293" lon="6.78251">
        <ele>2263.6</ele>
        <time>2022-07-19T13:30:50Z</time>
      </trkpt>
      <trkpt lat="44.34299" lon="6.78264">
        <ele>2263</ele>
        <time>2022-07-19T13:30:51Z</time>
      </trkpt>
      <trkpt lat="44.34305" lon="6.78276">
        <ele>2262.6</ele>
        <time>2022-07-19T13:30:52Z</time>
      </trkpt>
      <trkpt lat="44.34311" lon="6.78289">
        <ele>2262.2</ele>
        <time>2022-07-19T13:30:53Z</time>
      </trkpt>
      <trkpt lat="44.34317" lon="6.783">
        <ele>2262</ele>
        <time>2022-07-19T13:30:54Z</time>
      </trkpt>
      <trkpt lat="44.3432" lon="6.78311">
        <ele>2261.6</ele>
        <time>2022-07-19T13:30:55Z</time>
      </trkpt>
      <trkpt lat="44.34322" lon="6.78324">
        <ele>2261.4</ele>
        <time>2022-07-19T13:30:56Z</time>
      </trkpt>
      <trkpt lat="44.34321" lon="6.78338">
        <ele>2260.8</ele>
        <time>2022-07-19T13:30:57Z</time>
      </trkpt>
      <trkpt lat="44.34319" lon="6.78351">
        <ele>2260.4</ele>
        <time>2022-07-19T13:30:58Z</time>
      </trkpt>
      <trkpt lat="44.34316" lon="6.78364">
        <ele>2259.8</ele>
        <time>2022-07-19T13:30:59Z</time>
      </trkpt>
      <trkpt lat="44.34314" lon="6.78377">
        <ele>2259.4</ele>
        <time>2022-07-19T13:31:00Z</time>
      </trkpt>
      <trkpt lat="44.34311" lon="6.7839">
        <ele>2259</ele>
        <time>2022-07-19T13:31:01Z</time>
      </trkpt>
      <trkpt lat="44.3431" lon="6.78401">
        <ele>2258.4</ele>
        <time>2022-07-19T13:31:02Z</time>
      </trkpt>
      <trkpt lat="44.34309" lon="6.78413">
        <ele>2258</ele>
        <time>2022-07-19T13:31:03Z</time>
      </trkpt>
      <trkpt lat="44.3431" lon="6.78424">
        <ele>2257.6</ele>
        <time>2022-07-19T13:31:04Z</time>
      </trkpt>
      <trkpt lat="44.34313" lon="6.78435">
        <ele>2257</ele>
        <time>2022-07-19T13:31:05Z</time>
      </trkpt>
      <trkpt lat="44.34318" lon="6.78444">
        <ele>2256.6</ele>
        <time>2022-07-19T13:31:06Z</time>
      </trkpt>
      <trkpt lat="44.34326" lon="6.78452">
        <ele>2256</ele>
        <time>2022-07-19T13:31:07Z</time>
      </trkpt>
      <trkpt lat="44.34334" lon="6.78458">
        <ele>2255.4</ele>
        <time>2022-07-19T13:31:08Z</time>
      </trkpt>
      <trkpt lat="44.34342" lon="6.78463">
        <ele>2254.8</ele>
        <time>2022-07-19T13:31:09Z</time>
      </trkpt>
      <trkpt lat="44.34351" lon="6.78467">
        <ele>2254.4</ele>
        <time>2022-07-19T13:31:10Z</time>
      </trkpt>
      <trkpt lat="44.3436" lon="6.78469">
        <ele>2253.8</ele>
        <time>2022-07-19T13:31:11Z</time>
      </trkpt>
      <trkpt lat="44.34369" lon="6.78468">
        <ele>2253</ele>
        <time>2022-07-19T13:31:12Z</time>
      </trkpt>
      <trkpt lat="44.34379" lon="6.78465">
        <ele>2252.2</ele>
        <time>2022-07-19T13:31:13Z</time>
      </trkpt>
      <trkpt lat="44.34389" lon="6.7846">
        <ele>2251.4</ele>
        <time>2022-07-19T13:31:14Z</time>
      </trkpt>
      <trkpt lat="44.34398" lon="6.78455">
        <ele>2250.4</ele>
        <time>2022-07-19T13:31:15Z</time>
      </trkpt>
      <trkpt lat="44.34409" lon="6.7845">
        <ele>2249.4</ele>
        <time>2022-07-19T13:31:16Z</time>
      </trkpt>
      <trkpt lat="44.3442" lon="6.78449">
        <ele>2248.4</ele>
        <time>2022-07-19T13:31:17Z</time>
      </trkpt>
      <trkpt lat="44.34431" lon="6.78451">
        <ele>2247.4</ele>
        <time>2022-07-19T13:31:18Z</time>
      </trkpt>
      <trkpt lat="44.34443" lon="6.78453">
        <ele>2246.6</ele>
        <time>2022-07-19T13:31:19Z</time>
      </trkpt>
      <trkpt lat="44.34455" lon="6.78455">
        <ele>2245.6</ele>
        <time>2022-07-19T13:31:20Z</time>
      </trkpt>
      <trkpt lat="44.34466" lon="6.78455">
        <ele>2244.8</ele>
        <time>2022-07-19T13:31:21Z</time>
      </trkpt>
      <trkpt lat="44.34476" lon="6.78455">
        <ele>2243.8</ele>
        <time>2022-07-19T13:31:22Z</time>
      </trkpt>
      <trkpt lat="44.34484" lon="6.78455">
        <ele>2243</ele>
        <time>2022-07-19T13:31:23Z</time>
      </trkpt>
      <trkpt lat="44.3449" lon="6.78457">
        <ele>2242</ele>
        <time>2022-07-19T13:31:24Z</time>
      </trkpt>
      <trkpt lat="44.34495" lon="6.78463">
        <ele>2241.4</ele>
        <time>2022-07-19T13:31:25Z</time>
      </trkpt>
      <trkpt lat="44.34497" lon="6.78471">
        <ele>2240.6</ele>
        <time>2022-07-19T13:31:26Z</time>
      </trkpt>
      <trkpt lat="44.34498" lon="6.78481">
        <ele>2239.8</ele>
        <time>2022-07-19T13:31:27Z</time>
      </trkpt>
      <trkpt lat="44.34498" lon="6.78492">
        <ele>2239</ele>
        <time>2022-07-19T13:31:28Z</time>
      </trkpt>
      <trkpt lat="44.34498" lon="6.78504">
        <ele>2238.4</ele>
        <time>2022-07-19T13:31:29Z</time>
      </trkpt>
      <trkpt lat="44.34497" lon="6.78516">
        <ele>2237.6</ele>
        <time>2022-07-19T13:31:30Z</time>
      </trkpt>
      <trkpt lat="44.34496" lon="6.78527">
        <ele>2237</ele>
        <time>2022-07-19T13:31:31Z</time>
      </trkpt>
      <trkpt lat="44.34496" lon="6.78538">
        <ele>2236.2</ele>
        <time>2022-07-19T13:31:32Z</time>
      </trkpt>
      <trkpt lat="44.34498" lon="6.78549">
        <ele>2235.6</ele>
        <time>2022-07-19T13:31:33Z</time>
      </trkpt>
      <trkpt lat="44.34502" lon="6.78559">
        <ele>2235</ele>
        <time>2022-07-19T13:31:34Z</time>
      </trkpt>
      <trkpt lat="44.34508" lon="6.78568">
        <ele>2234.2</ele>
        <time>2022-07-19T13:31:35Z</time>
      </trkpt>
      <trkpt lat="44.34516" lon="6.78574">
        <ele>2233.6</ele>
        <time>2022-07-19T13:31:36Z</time>
      </trkpt>
      <trkpt lat="44.34527" lon="6.7858">
        <ele>2232.8</ele>
        <time>2022-07-19T13:31:37Z</time>
      </trkpt>
      <trkpt lat="44.34536" lon="6.78586">
        <ele>2232</ele>
        <time>2022-07-19T13:31:38Z</time>
      </trkpt>
      <trkpt lat="44.34544" lon="6.78596">
        <ele>2231.2</ele>
        <time>2022-07-19T13:31:39Z</time>
      </trkpt>
      <trkpt lat="44.34552" lon="6.78608">
        <ele>2230.2</ele>
        <time>2022-07-19T13:31:40Z</time>
      </trkpt>
      <trkpt lat="44.34559" lon="6.7862">
        <ele>2229.4</ele>
        <time>2022-07-19T13:31:41Z</time>
      </trkpt>
      <trkpt lat="44.34566" lon="6.78631">
        <ele>2228.4</ele>
        <time>2022-07-19T13:31:42Z</time>
      </trkpt>
      <trkpt lat="44.34575" lon="6.7864">
        <ele>2227.4</ele>
        <time>2022-07-19T13:31:43Z</time>
      </trkpt>
      <trkpt lat="44.34584" lon="6.78648">
        <ele>2226.6</ele>
        <time>2022-07-19T13:31:44Z</time>
      </trkpt>
      <trkpt lat="44.34595" lon="6.78655">
        <ele>2225.6</ele>
        <time>2022-07-19T13:31:45Z</time>
      </trkpt>
      <trkpt lat="44.34606" lon="6.78662">
        <ele>2224.6</ele>
        <time>2022-07-19T13:31:46Z</time>
      </trkpt>
      <trkpt lat="44.34618" lon="6.7867">
        <ele>2223.6</ele>
        <time>2022-07-19T13:31:47Z</time>
      </trkpt>
      <trkpt lat="44.34629" lon="6.78678">
        <ele>2222.8</ele>
        <time>2022-07-19T13:31:48Z</time>
      </trkpt>
      <trkpt lat="44.34639" lon="6.78685">
        <ele>2222</ele>
        <time>2022-07-19T13:31:49Z</time>
      </trkpt>
      <trkpt lat="44.3465" lon="6.78691">
        <ele>2221.4</ele>
        <time>2022-07-19T13:31:50Z</time>
      </trkpt>
      <trkpt lat="44.34661" lon="6.78698">
        <ele>2220.8</ele>
        <time>2022-07-19T13:31:51Z</time>
      </trkpt>
      <trkpt lat="44.34673" lon="6.78704">
        <ele>2220.4</ele>
        <time>2022-07-19T13:31:52Z</time>
      </trkpt>
      <trkpt lat="44.34683" lon="6.78709">
        <ele>2219.8</ele>
        <time>2022-07-19T13:31:53Z</time>
      </trkpt>
      <trkpt lat="44.34691" lon="6.78711">
        <ele>2219.2</ele>
        <time>2022-07-19T13:31:54Z</time>
      </trkpt>
      <trkpt lat="44.34699" lon="6.78713">
        <ele>2218.8</ele>
        <time>2022-07-19T13:31:55Z</time>
      </trkpt>
      <trkpt lat="44.34706" lon="6.78712">
        <ele>2218.4</ele>
        <time>2022-07-19T13:31:56Z</time>
      </trkpt>
      <trkpt lat="44.34715" lon="6.78708">
        <ele>2218</ele>
        <time>2022-07-19T13:31:57Z</time>
      </trkpt>
      <trkpt lat="44.34723" lon="6.78702">
        <ele>2217.6</ele>
        <time>2022-07-19T13:31:58Z</time>
      </trkpt>
      <trkpt lat="44.3473" lon="6.78695">
        <ele>2217</ele>
        <time>2022-07-19T13:31:59Z</time>
      </trkpt>
      <trkpt lat="44.34738" lon="6.78687">
        <ele>2216.4</ele>
        <time>2022-07-19T13:32:00Z</time>
      </trkpt>
      <trkpt lat="44.34746" lon="6.78679">
        <ele>2215.8</ele>
        <time>2022-07-19T13:32:01Z</time>
      </trkpt>
      <trkpt lat="44.34754" lon="6.78671">
        <ele>2215</ele>
        <time>2022-07-19T13:32:02Z</time>
      </trkpt>
      <trkpt lat="44.34763" lon="6.78664">
        <ele>2214.2</ele>
        <time>2022-07-19T13:32:03Z</time>
      </trkpt>
      <trkpt lat="44.34772" lon="6.78656">
        <ele>2213.2</ele>
        <time>2022-07-19T13:32:04Z</time>
      </trkpt>
      <trkpt lat="44.34781" lon="6.78646">
        <ele>2212.2</ele>
        <time>2022-07-19T13:32:05Z</time>
      </trkpt>
      <trkpt lat="44.3479" lon="6.78636">
        <ele>2211.2</ele>
        <time>2022-07-19T13:32:06Z</time>
      </trkpt>
      <trkpt lat="44.34799" lon="6.78626">
        <ele>2210</ele>
        <time>2022-07-19T13:32:07Z</time>
      </trkpt>
      <trkpt lat="44.34807" lon="6.78616">
        <ele>2209</ele>
        <time>2022-07-19T13:32:08Z</time>
      </trkpt>
      <trkpt lat="44.34815" lon="6.78607">
        <ele>2208</ele>
        <time>2022-07-19T13:32:09Z</time>
      </trkpt>
      <trkpt lat="44.34823" lon="6.78599">
        <ele>2206.8</ele>
        <time>2022-07-19T13:32:10Z</time>
      </trkpt>
      <trkpt lat="44.34829" lon="6.78592">
        <ele>2206</ele>
        <time>2022-07-19T13:32:11Z</time>
      </trkpt>
      <trkpt lat="44.34836" lon="6.78582">
        <ele>2205</ele>
        <time>2022-07-19T13:32:12Z</time>
      </trkpt>
      <trkpt lat="44.34838" lon="6.78579">
        <ele>2204.4</ele>
        <time>2022-07-19T13:32:13Z</time>
      </trkpt>
      <trkpt lat="44.34842" lon="6.78573">
        <ele>2203.8</ele>
        <time>2022-07-19T13:32:14Z</time>
      </trkpt>
      <trkpt lat="44.34844" lon="6.78568">
        <ele>2203.2</ele>
        <time>2022-07-19T13:32:15Z</time>
      </trkpt>
      <trkpt lat="44.34843" lon="6.78562">
        <ele>2202.6</ele>
        <time>2022-07-19T13:32:16Z</time>
      </trkpt>
      <trkpt lat="44.3484" lon="6.78558">
        <ele>2202.2</ele>
        <time>2022-07-19T13:32:17Z</time>
      </trkpt>
      <trkpt lat="44.34835" lon="6.78555">
        <ele>2201.8</ele>
        <time>2022-07-19T13:32:18Z</time>
      </trkpt>
      <trkpt lat="44.34829" lon="6.78554">
        <ele>2201.4</ele>
        <time>2022-07-19T13:32:19Z</time>
      </trkpt>
      <trkpt lat="44.34822" lon="6.78555">
        <ele>2201</ele>
        <time>2022-07-19T13:32:20Z</time>
      </trkpt>
      <trkpt lat="44.34816" lon="6.78557">
        <ele>2200.6</ele>
        <time>2022-07-19T13:32:21Z</time>
      </trkpt>
      <trkpt lat="44.3481" lon="6.78559">
        <ele>2200.4</ele>
        <time>2022-07-19T13:32:22Z</time>
      </trkpt>
      <trkpt lat="44.34804" lon="6.78562">
        <ele>2200</ele>
        <time>2022-07-19T13:32:23Z</time>
      </trkpt>
      <trkpt lat="44.34798" lon="6.78564">
        <ele>2200</ele>
        <time>2022-07-19T13:32:24Z</time>
      </trkpt>
      <trkpt lat="44.34792" lon="6.78565">
        <ele>2199.8</ele>
        <time>2022-07-19T13:32:25Z</time>
      </trkpt>
      <trkpt lat="44.34786" lon="6.78564">
        <ele>2199.8</ele>
        <time>2022-07-19T13:32:26Z</time>
      </trkpt>
      <trkpt lat="44.34781" lon="6.78561">
        <ele>2199.8</ele>
        <time>2022-07-19T13:32:27Z</time>
      </trkpt>
      <trkpt lat="44.34776" lon="6.78557">
        <ele>2199.8</ele>
        <time>2022-07-19T13:32:28Z</time>
      </trkpt>
      <trkpt lat="44.34774" lon="6.78551">
        <ele>2199.4</ele>
        <time>2022-07-19T13:32:29Z</time>
      </trkpt>
      <trkpt lat="44.34773" lon="6.78543">
        <ele>2199.4</ele>
        <time>2022-07-19T13:32:30Z</time>
      </trkpt>
      <trkpt lat="44.34773" lon="6.78535">
        <ele>2199</ele>
        <time>2022-07-19T13:32:31Z</time>
      </trkpt>
      <trkpt lat="44.34776" lon="6.78528">
        <ele>2198.6</ele>
        <time>2022-07-19T13:32:32Z</time>
      </trkpt>
      <trkpt lat="44.3478" lon="6.7852">
        <ele>2198</ele>
        <time>2022-07-19T13:32:33Z</time>
      </trkpt>
      <trkpt lat="44.34784" lon="6.78512">
        <ele>2197.4</ele>
        <time>2022-07-19T13:32:34Z</time>
      </trkpt>
      <trkpt lat="44.3479" lon="6.78504">
        <ele>2196.6</ele>
        <time>2022-07-19T13:32:35Z</time>
      </trkpt>
      <trkpt lat="44.34796" lon="6.78496">
        <ele>2196</ele>
        <time>2022-07-19T13:32:36Z</time>
      </trkpt>
      <trkpt lat="44.34803" lon="6.78488">
        <ele>2195.4</ele>
        <time>2022-07-19T13:32:37Z</time>
      </trkpt>
      <trkpt lat="44.34808" lon="6.78481">
        <ele>2194.6</ele>
        <time>2022-07-19T13:32:38Z</time>
      </trkpt>
      <trkpt lat="44.34812" lon="6.78472">
        <ele>2193.8</ele>
        <time>2022-07-19T13:32:39Z</time>
      </trkpt>
      <trkpt lat="44.34815" lon="6.78461">
        <ele>2193</ele>
        <time>2022-07-19T13:32:40Z</time>
      </trkpt>
      <trkpt lat="44.34815" lon="6.78452">
        <ele>2192.4</ele>
        <time>2022-07-19T13:32:41Z</time>
      </trkpt>
      <trkpt lat="44.34815" lon="6.78443">
        <ele>2191.8</ele>
        <time>2022-07-19T13:32:42Z</time>
      </trkpt>
      <trkpt lat="44.34816" lon="6.78436">
        <ele>2191</ele>
        <time>2022-07-19T13:32:43Z</time>
      </trkpt>
      <trkpt lat="44.34818" lon="6.7843">
        <ele>2190.6</ele>
        <time>2022-07-19T13:32:44Z</time>
      </trkpt>
      <trkpt lat="44.34822" lon="6.78427">
        <ele>2190</ele>
        <time>2022-07-19T13:32:45Z</time>
      </trkpt>
      <trkpt lat="44.34826" lon="6.78428">
        <ele>2189.4</ele>
        <time>2022-07-19T13:32:46Z</time>
      </trkpt>
      <trkpt lat="44.34829" lon="6.78433">
        <ele>2188.8</ele>
        <time>2022-07-19T13:32:47Z</time>
      </trkpt>
      <trkpt lat="44.34831" lon="6.7844">
        <ele>2188.4</ele>
        <time>2022-07-19T13:32:48Z</time>
      </trkpt>
      <trkpt lat="44.34833" lon="6.78448">
        <ele>2187.8</ele>
        <time>2022-07-19T13:32:49Z</time>
      </trkpt>
      <trkpt lat="44.34834" lon="6.78458">
        <ele>2187.2</ele>
        <time>2022-07-19T13:32:50Z</time>
      </trkpt>
      <trkpt lat="44.34836" lon="6.78468">
        <ele>2186.6</ele>
        <time>2022-07-19T13:32:51Z</time>
      </trkpt>
      <trkpt lat="44.34839" lon="6.78477">
        <ele>2186</ele>
        <time>2022-07-19T13:32:52Z</time>
      </trkpt>
      <trkpt lat="44.34844" lon="6.78484">
        <ele>2185.2</ele>
        <time>2022-07-19T13:32:53Z</time>
      </trkpt>
      <trkpt lat="44.3485" lon="6.78489">
        <ele>2184.4</ele>
        <time>2022-07-19T13:32:54Z</time>
      </trkpt>
      <trkpt lat="44.34858" lon="6.78492">
        <ele>2183.8</ele>
        <time>2022-07-19T13:32:55Z</time>
      </trkpt>
      <trkpt lat="44.34867" lon="6.78493">
        <ele>2182.8</ele>
        <time>2022-07-19T13:32:56Z</time>
      </trkpt>
      <trkpt lat="44.34878" lon="6.78493">
        <ele>2182</ele>
        <time>2022-07-19T13:32:57Z</time>
      </trkpt>
      <trkpt lat="44.34888" lon="6.78492">
        <ele>2180.8</ele>
        <time>2022-07-19T13:32:58Z</time>
      </trkpt>
      <trkpt lat="44.34909" lon="6.78491">
        <ele>2180</ele>
        <time>2022-07-19T13:32:59Z</time>
      </trkpt>
      <trkpt lat="44.34918" lon="6.78491">
        <ele>2178.8</ele>
        <time>2022-07-19T13:33:00Z</time>
      </trkpt>
      <trkpt lat="44.34923" lon="6.78493">
        <ele>2177.6</ele>
        <time>2022-07-19T13:33:01Z</time>
      </trkpt>
      <trkpt lat="44.34927" lon="6.78495">
        <ele>2176.4</ele>
        <time>2022-07-19T13:33:02Z</time>
      </trkpt>
      <trkpt lat="44.34937" lon="6.78499">
        <ele>2175.4</ele>
        <time>2022-07-19T13:33:03Z</time>
      </trkpt>
      <trkpt lat="44.34946" lon="6.78505">
        <ele>2174.4</ele>
        <time>2022-07-19T13:33:04Z</time>
      </trkpt>
      <trkpt lat="44.34955" lon="6.78513">
        <ele>2173.4</ele>
        <time>2022-07-19T13:33:05Z</time>
      </trkpt>
      <trkpt lat="44.34962" lon="6.78519">
        <ele>2172.6</ele>
        <time>2022-07-19T13:33:06Z</time>
      </trkpt>
      <trkpt lat="44.3497" lon="6.78524">
        <ele>2171.6</ele>
        <time>2022-07-19T13:33:07Z</time>
      </trkpt>
      <trkpt lat="44.34977" lon="6.78531">
        <ele>2170.8</ele>
        <time>2022-07-19T13:33:08Z</time>
      </trkpt>
      <trkpt lat="44.34982" lon="6.78535">
        <ele>2170.2</ele>
        <time>2022-07-19T13:33:09Z</time>
      </trkpt>
      <trkpt lat="44.34988" lon="6.78538">
        <ele>2169.6</ele>
        <time>2022-07-19T13:33:10Z</time>
      </trkpt>
      <trkpt lat="44.34992" lon="6.78537">
        <ele>2169</ele>
        <time>2022-07-19T13:33:11Z</time>
      </trkpt>
      <trkpt lat="44.34994" lon="6.78533">
        <ele>2168.6</ele>
        <time>2022-07-19T13:33:12Z</time>
      </trkpt>
      <trkpt lat="44.34995" lon="6.78527">
        <ele>2168</ele>
        <time>2022-07-19T13:33:13Z</time>
      </trkpt>
      <trkpt lat="44.34994" lon="6.78521">
        <ele>2167.8</ele>
        <time>2022-07-19T13:33:14Z</time>
      </trkpt>
      <trkpt lat="44.3499" lon="6.78514">
        <ele>2167.2</ele>
        <time>2022-07-19T13:33:15Z</time>
      </trkpt>
      <trkpt lat="44.34985" lon="6.78509">
        <ele>2166.8</ele>
        <time>2022-07-19T13:33:16Z</time>
      </trkpt>
      <trkpt lat="44.3498" lon="6.78504">
        <ele>2166.4</ele>
        <time>2022-07-19T13:33:17Z</time>
      </trkpt>
      <trkpt lat="44.34973" lon="6.78499">
        <ele>2166</ele>
        <time>2022-07-19T13:33:18Z</time>
      </trkpt>
      <trkpt lat="44.34967" lon="6.78493">
        <ele>2165.6</ele>
        <time>2022-07-19T13:33:19Z</time>
      </trkpt>
      <trkpt lat="44.3496" lon="6.78487">
        <ele>2165.2</ele>
        <time>2022-07-19T13:33:20Z</time>
      </trkpt>
      <trkpt lat="44.34953" lon="6.78481">
        <ele>2164.6</ele>
        <time>2022-07-19T13:33:21Z</time>
      </trkpt>
      <trkpt lat="44.34946" lon="6.78475">
        <ele>2164.2</ele>
        <time>2022-07-19T13:33:22Z</time>
      </trkpt>
      <trkpt lat="44.34937" lon="6.78469">
        <ele>2163.6</ele>
        <time>2022-07-19T13:33:23Z</time>
      </trkpt>
      <trkpt lat="44.34929" lon="6.78463">
        <ele>2162.8</ele>
        <time>2022-07-19T13:33:24Z</time>
      </trkpt>
      <trkpt lat="44.34919" lon="6.78457">
        <ele>2162.2</ele>
        <time>2022-07-19T13:33:25Z</time>
      </trkpt>
      <trkpt lat="44.34911" lon="6.78451">
        <ele>2161.4</ele>
        <time>2022-07-19T13:33:26Z</time>
      </trkpt>
      <trkpt lat="44.34904" lon="6.78444">
        <ele>2160.8</ele>
        <time>2022-07-19T13:33:27Z</time>
      </trkpt>
      <trkpt lat="44.34898" lon="6.78435">
        <ele>2160.2</ele>
        <time>2022-07-19T13:33:28Z</time>
      </trkpt>
      <trkpt lat="44.34893" lon="6.78425">
        <ele>2159.6</ele>
        <time>2022-07-19T13:33:29Z</time>
      </trkpt>
      <trkpt lat="44.34888" lon="6.78414">
        <ele>2159</ele>
        <time>2022-07-19T13:33:30Z</time>
      </trkpt>
      <trkpt lat="44.34882" lon="6.78405">
        <ele>2158.4</ele>
        <time>2022-07-19T13:33:31Z</time>
      </trkpt>
      <trkpt lat="44.34875" lon="6.78398">
        <ele>2157.8</ele>
        <time>2022-07-19T13:33:32Z</time>
      </trkpt>
      <trkpt lat="44.3487" lon="6.78392">
        <ele>2157.2</ele>
        <time>2022-07-19T13:33:33Z</time>
      </trkpt>
      <trkpt lat="44.34866" lon="6.78386">
        <ele>2156.8</ele>
        <time>2022-07-19T13:33:34Z</time>
      </trkpt>
      <trkpt lat="44.34865" lon="6.78379">
        <ele>2156.2</ele>
        <time>2022-07-19T13:33:35Z</time>
      </trkpt>
      <trkpt lat="44.34867" lon="6.78372">
        <ele>2155.8</ele>
        <time>2022-07-19T13:33:36Z</time>
      </trkpt>
      <trkpt lat="44.34871" lon="6.78367">
        <ele>2155.4</ele>
        <time>2022-07-19T13:33:37Z</time>
      </trkpt>
      <trkpt lat="44.34876" lon="6.78363">
        <ele>2154.8</ele>
        <time>2022-07-19T13:33:38Z</time>
      </trkpt>
      <trkpt lat="44.34882" lon="6.78362">
        <ele>2154.2</ele>
        <time>2022-07-19T13:33:39Z</time>
      </trkpt>
      <trkpt lat="44.34888" lon="6.78361">
        <ele>2153.6</ele>
        <time>2022-07-19T13:33:40Z</time>
      </trkpt>
      <trkpt lat="44.34896" lon="6.7836">
        <ele>2152.8</ele>
        <time>2022-07-19T13:33:41Z</time>
      </trkpt>
      <trkpt lat="44.34904" lon="6.7836">
        <ele>2152</ele>
        <time>2022-07-19T13:33:42Z</time>
      </trkpt>
      <trkpt lat="44.34913" lon="6.7836">
        <ele>2151</ele>
        <time>2022-07-19T13:33:43Z</time>
      </trkpt>
      <trkpt lat="44.34922" lon="6.7836">
        <ele>2150</ele>
        <time>2022-07-19T13:33:44Z</time>
      </trkpt>
      <trkpt lat="44.34933" lon="6.78361">
        <ele>2149</ele>
        <time>2022-07-19T13:33:45Z</time>
      </trkpt>
      <trkpt lat="44.34944" lon="6.78361">
        <ele>2148.2</ele>
        <time>2022-07-19T13:33:46Z</time>
      </trkpt>
      <trkpt lat="44.34955" lon="6.78361">
        <ele>2147.2</ele>
        <time>2022-07-19T13:33:47Z</time>
      </trkpt>
      <trkpt lat="44.34965" lon="6.7836">
        <ele>2146.4</ele>
        <time>2022-07-19T13:33:48Z</time>
      </trkpt>
      <trkpt lat="44.34976" lon="6.78357">
        <ele>2145.2</ele>
        <time>2022-07-19T13:33:49Z</time>
      </trkpt>
      <trkpt lat="44.34985" lon="6.78354">
        <ele>2144.2</ele>
        <time>2022-07-19T13:33:50Z</time>
      </trkpt>
      <trkpt lat="44.34994" lon="6.78351">
        <ele>2143.4</ele>
        <time>2022-07-19T13:33:51Z</time>
      </trkpt>
      <trkpt lat="44.35002" lon="6.78348">
        <ele>2142.6</ele>
        <time>2022-07-19T13:33:52Z</time>
      </trkpt>
      <trkpt lat="44.3501" lon="6.78346">
        <ele>2141.8</ele>
        <time>2022-07-19T13:33:53Z</time>
      </trkpt>
      <trkpt lat="44.35018" lon="6.78348">
        <ele>2140.8</ele>
        <time>2022-07-19T13:33:54Z</time>
      </trkpt>
      <trkpt lat="44.35025" lon="6.78352">
        <ele>2140</ele>
        <time>2022-07-19T13:33:55Z</time>
      </trkpt>
      <trkpt lat="44.35032" lon="6.78359">
        <ele>2139</ele>
        <time>2022-07-19T13:33:56Z</time>
      </trkpt>
      <trkpt lat="44.35039" lon="6.78369">
        <ele>2138</ele>
        <time>2022-07-19T13:33:57Z</time>
      </trkpt>
      <trkpt lat="44.35044" lon="6.78381">
        <ele>2137</ele>
        <time>2022-07-19T13:33:58Z</time>
      </trkpt>
      <trkpt lat="44.35049" lon="6.78391">
        <ele>2136.2</ele>
        <time>2022-07-19T13:33:59Z</time>
      </trkpt>
      <trkpt lat="44.35053" lon="6.78402">
        <ele>2135</ele>
        <time>2022-07-19T13:34:00Z</time>
      </trkpt>
      <trkpt lat="44.35054" lon="6.78413">
        <ele>2134.2</ele>
        <time>2022-07-19T13:34:01Z</time>
      </trkpt>
      <trkpt lat="44.35055" lon="6.78423">
        <ele>2133.2</ele>
        <time>2022-07-19T13:34:02Z</time>
      </trkpt>
      <trkpt lat="44.35055" lon="6.78433">
        <ele>2132.2</ele>
        <time>2022-07-19T13:34:03Z</time>
      </trkpt>
      <trkpt lat="44.35058" lon="6.78441">
        <ele>2131.2</ele>
        <time>2022-07-19T13:34:04Z</time>
      </trkpt>
      <trkpt lat="44.35064" lon="6.78449">
        <ele>2130.4</ele>
        <time>2022-07-19T13:34:05Z</time>
      </trkpt>
      <trkpt lat="44.35071" lon="6.78454">
        <ele>2129.4</ele>
        <time>2022-07-19T13:34:06Z</time>
      </trkpt>
      <trkpt lat="44.3508" lon="6.78458">
        <ele>2128.4</ele>
        <time>2022-07-19T13:34:07Z</time>
      </trkpt>
      <trkpt lat="44.35089" lon="6.78465">
        <ele>2127.4</ele>
        <time>2022-07-19T13:34:08Z</time>
      </trkpt>
      <trkpt lat="44.35098" lon="6.78474">
        <ele>2126.2</ele>
        <time>2022-07-19T13:34:09Z</time>
      </trkpt>
      <trkpt lat="44.35108" lon="6.78482">
        <ele>2125.2</ele>
        <time>2022-07-19T13:34:10Z</time>
      </trkpt>
      <trkpt lat="44.35119" lon="6.78488">
        <ele>2124.2</ele>
        <time>2022-07-19T13:34:11Z</time>
      </trkpt>
      <trkpt lat="44.35129" lon="6.78493">
        <ele>2123</ele>
        <time>2022-07-19T13:34:12Z</time>
      </trkpt>
      <trkpt lat="44.35139" lon="6.78499">
        <ele>2122</ele>
        <time>2022-07-19T13:34:13Z</time>
      </trkpt>
      <trkpt lat="44.35147" lon="6.78505">
        <ele>2121</ele>
        <time>2022-07-19T13:34:14Z</time>
      </trkpt>
      <trkpt lat="44.35154" lon="6.78511">
        <ele>2120.2</ele>
        <time>2022-07-19T13:34:15Z</time>
      </trkpt>
      <trkpt lat="44.3516" lon="6.78514">
        <ele>2119.4</ele>
        <time>2022-07-19T13:34:16Z</time>
      </trkpt>
      <trkpt lat="44.35166" lon="6.78514">
        <ele>2118.4</ele>
        <time>2022-07-19T13:34:17Z</time>
      </trkpt>
      <trkpt lat="44.35172" lon="6.78511">
        <ele>2117.6</ele>
        <time>2022-07-19T13:34:18Z</time>
      </trkpt>
      <trkpt lat="44.35176" lon="6.78505">
        <ele>2116.8</ele>
        <time>2022-07-19T13:34:19Z</time>
      </trkpt>
      <trkpt lat="44.35177" lon="6.78496">
        <ele>2116</ele>
        <time>2022-07-19T13:34:20Z</time>
      </trkpt>
      <trkpt lat="44.35176" lon="6.78487">
        <ele>2115.6</ele>
        <time>2022-07-19T13:34:21Z</time>
      </trkpt>
      <trkpt lat="44.35174" lon="6.78478">
        <ele>2115.2</ele>
        <time>2022-07-19T13:34:22Z</time>
      </trkpt>
      <trkpt lat="44.35168" lon="6.78472">
        <ele>2114.6</ele>
        <time>2022-07-19T13:34:23Z</time>
      </trkpt>
      <trkpt lat="44.35162" lon="6.78467">
        <ele>2114</ele>
        <time>2022-07-19T13:34:24Z</time>
      </trkpt>
      <trkpt lat="44.35155" lon="6.78461">
        <ele>2113.4</ele>
        <time>2022-07-19T13:34:25Z</time>
      </trkpt>
      <trkpt lat="44.3515" lon="6.78454">
        <ele>2112.8</ele>
        <time>2022-07-19T13:34:26Z</time>
      </trkpt>
      <trkpt lat="44.35146" lon="6.78447">
        <ele>2112</ele>
        <time>2022-07-19T13:34:27Z</time>
      </trkpt>
      <trkpt lat="44.35146" lon="6.78437">
        <ele>2111.4</ele>
        <time>2022-07-19T13:34:28Z</time>
      </trkpt>
      <trkpt lat="44.35148" lon="6.78427">
        <ele>2110.6</ele>
        <time>2022-07-19T13:34:29Z</time>
      </trkpt>
      <trkpt lat="44.35151" lon="6.78417">
        <ele>2109.8</ele>
        <time>2022-07-19T13:34:30Z</time>
      </trkpt>
      <trkpt lat="44.35155" lon="6.78408">
        <ele>2109</ele>
        <time>2022-07-19T13:34:31Z</time>
      </trkpt>
      <trkpt lat="44.35156" lon="6.78397">
        <ele>2108.2</ele>
        <time>2022-07-19T13:34:32Z</time>
      </trkpt>
      <trkpt lat="44.35157" lon="6.78385">
        <ele>2107.4</ele>
        <time>2022-07-19T13:34:33Z</time>
      </trkpt>
      <trkpt lat="44.35156" lon="6.78372">
        <ele>2106.6</ele>
        <time>2022-07-19T13:34:34Z</time>
      </trkpt>
      <trkpt lat="44.35155" lon="6.78357">
        <ele>2105.8</ele>
        <time>2022-07-19T13:34:35Z</time>
      </trkpt>
      <trkpt lat="44.35155" lon="6.78341">
        <ele>2104.8</ele>
        <time>2022-07-19T13:34:36Z</time>
      </trkpt>
      <trkpt lat="44.35155" lon="6.78326">
        <ele>2103.8</ele>
        <time>2022-07-19T13:34:37Z</time>
      </trkpt>
      <trkpt lat="44.35155" lon="6.78312">
        <ele>2102.8</ele>
        <time>2022-07-19T13:34:38Z</time>
      </trkpt>
      <trkpt lat="44.35156" lon="6.783">
        <ele>2101.8</ele>
        <time>2022-07-19T13:34:39Z</time>
      </trkpt>
      <trkpt lat="44.35159" lon="6.78289">
        <ele>2101</ele>
        <time>2022-07-19T13:34:40Z</time>
      </trkpt>
      <trkpt lat="44.35162" lon="6.7828">
        <ele>2100.4</ele>
        <time>2022-07-19T13:34:41Z</time>
      </trkpt>
      <trkpt lat="44.35168" lon="6.78274">
        <ele>2099.6</ele>
        <time>2022-07-19T13:34:42Z</time>
      </trkpt>
      <trkpt lat="44.35175" lon="6.78269">
        <ele>2098.8</ele>
        <time>2022-07-19T13:34:43Z</time>
      </trkpt>
      <trkpt lat="44.35183" lon="6.78268">
        <ele>2098.2</ele>
        <time>2022-07-19T13:34:44Z</time>
      </trkpt>
      <trkpt lat="44.35192" lon="6.78269">
        <ele>2097.4</ele>
        <time>2022-07-19T13:34:45Z</time>
      </trkpt>
      <trkpt lat="44.35201" lon="6.78274">
        <ele>2096.4</ele>
        <time>2022-07-19T13:34:46Z</time>
      </trkpt>
      <trkpt lat="44.35212" lon="6.78281">
        <ele>2095.6</ele>
        <time>2022-07-19T13:34:47Z</time>
      </trkpt>
      <trkpt lat="44.35224" lon="6.7829">
        <ele>2094.6</ele>
        <time>2022-07-19T13:34:48Z</time>
      </trkpt>
      <trkpt lat="44.35235" lon="6.78299">
        <ele>2093.8</ele>
        <time>2022-07-19T13:34:49Z</time>
      </trkpt>
      <trkpt lat="44.35247" lon="6.78307">
        <ele>2092.8</ele>
        <time>2022-07-19T13:34:50Z</time>
      </trkpt>
      <trkpt lat="44.35257" lon="6.78315">
        <ele>2092</ele>
        <time>2022-07-19T13:34:51Z</time>
      </trkpt>
      <trkpt lat="44.35266" lon="6.78323">
        <ele>2091.2</ele>
        <time>2022-07-19T13:34:52Z</time>
      </trkpt>
      <trkpt lat="44.35273" lon="6.78329">
        <ele>2090.4</ele>
        <time>2022-07-19T13:34:53Z</time>
      </trkpt>
      <trkpt lat="44.35281" lon="6.78336">
        <ele>2089.4</ele>
        <time>2022-07-19T13:34:54Z</time>
      </trkpt>
      <trkpt lat="44.35289" lon="6.78342">
        <ele>2088.6</ele>
        <time>2022-07-19T13:34:55Z</time>
      </trkpt>
      <trkpt lat="44.35297" lon="6.78347">
        <ele>2088</ele>
        <time>2022-07-19T13:34:56Z</time>
      </trkpt>
      <trkpt lat="44.35305" lon="6.78353">
        <ele>2087.2</ele>
        <time>2022-07-19T13:34:57Z</time>
      </trkpt>
      <trkpt lat="44.35315" lon="6.78357">
        <ele>2086.6</ele>
        <time>2022-07-19T13:34:58Z</time>
      </trkpt>
      <trkpt lat="44.35325" lon="6.7836">
        <ele>2086</ele>
        <time>2022-07-19T13:34:59Z</time>
      </trkpt>
      <trkpt lat="44.35335" lon="6.78363">
        <ele>2085.4</ele>
        <time>2022-07-19T13:35:00Z</time>
      </trkpt>
      <trkpt lat="44.35344" lon="6.78365">
        <ele>2084.8</ele>
        <time>2022-07-19T13:35:01Z</time>
      </trkpt>
      <trkpt lat="44.35353" lon="6.78366">
        <ele>2084.2</ele>
        <time>2022-07-19T13:35:02Z</time>
      </trkpt>
      <trkpt lat="44.35361" lon="6.78364">
        <ele>2083.8</ele>
        <time>2022-07-19T13:35:03Z</time>
      </trkpt>
      <trkpt lat="44.3537" lon="6.78361">
        <ele>2083.8</ele>
        <time>2022-07-19T13:35:04Z</time>
      </trkpt>
      <trkpt lat="44.35378" lon="6.78356">
        <ele>2083.4</ele>
        <time>2022-07-19T13:35:05Z</time>
      </trkpt>
      <trkpt lat="44.35387" lon="6.78351">
        <ele>2082.6</ele>
        <time>2022-07-19T13:35:06Z</time>
      </trkpt>
      <trkpt lat="44.35395" lon="6.78348">
        <ele>2082</ele>
        <time>2022-07-19T13:35:07Z</time>
      </trkpt>
      <trkpt lat="44.35404" lon="6.78344">
        <ele>2081.2</ele>
        <time>2022-07-19T13:35:08Z</time>
      </trkpt>
      <trkpt lat="44.35414" lon="6.7834">
        <ele>2080.4</ele>
        <time>2022-07-19T13:35:09Z</time>
      </trkpt>
      <trkpt lat="44.35422" lon="6.78337">
        <ele>2079.6</ele>
        <time>2022-07-19T13:35:10Z</time>
      </trkpt>
      <trkpt lat="44.35431" lon="6.78337">
        <ele>2078.8</ele>
        <time>2022-07-19T13:35:11Z</time>
      </trkpt>
      <trkpt lat="44.35438" lon="6.78336">
        <ele>2077.6</ele>
        <time>2022-07-19T13:35:12Z</time>
      </trkpt>
      <trkpt lat="44.35446" lon="6.78334">
        <ele>2076.6</ele>
        <time>2022-07-19T13:35:13Z</time>
      </trkpt>
      <trkpt lat="44.35453" lon="6.78328">
        <ele>2075.6</ele>
        <time>2022-07-19T13:35:14Z</time>
      </trkpt>
      <trkpt lat="44.3546" lon="6.7832">
        <ele>2074.8</ele>
        <time>2022-07-19T13:35:15Z</time>
      </trkpt>
      <trkpt lat="44.35466" lon="6.78311">
        <ele>2073.8</ele>
        <time>2022-07-19T13:35:16Z</time>
      </trkpt>
      <trkpt lat="44.35473" lon="6.78301">
        <ele>2072.8</ele>
        <time>2022-07-19T13:35:17Z</time>
      </trkpt>
      <trkpt lat="44.35481" lon="6.7829">
        <ele>2071.6</ele>
        <time>2022-07-19T13:35:18Z</time>
      </trkpt>
      <trkpt lat="44.3549" lon="6.78281">
        <ele>2070.4</ele>
        <time>2022-07-19T13:35:19Z</time>
      </trkpt>
      <trkpt lat="44.355" lon="6.78274">
        <ele>2069.4</ele>
        <time>2022-07-19T13:35:20Z</time>
      </trkpt>
      <trkpt lat="44.35511" lon="6.78267">
        <ele>2068.4</ele>
        <time>2022-07-19T13:35:21Z</time>
      </trkpt>
      <trkpt lat="44.35524" lon="6.78263">
        <ele>2067.4</ele>
        <time>2022-07-19T13:35:22Z</time>
      </trkpt>
      <trkpt lat="44.35536" lon="6.7826">
        <ele>2066.4</ele>
        <time>2022-07-19T13:35:23Z</time>
      </trkpt>
      <trkpt lat="44.35549" lon="6.78257">
        <ele>2065.2</ele>
        <time>2022-07-19T13:35:24Z</time>
      </trkpt>
      <trkpt lat="44.35562" lon="6.78257">
        <ele>2064.2</ele>
        <time>2022-07-19T13:35:25Z</time>
      </trkpt>
      <trkpt lat="44.35574" lon="6.78259">
        <ele>2063</ele>
        <time>2022-07-19T13:35:26Z</time>
      </trkpt>
      <trkpt lat="44.35588" lon="6.78262">
        <ele>2062.2</ele>
        <time>2022-07-19T13:35:27Z</time>
      </trkpt>
      <trkpt lat="44.356" lon="6.78265">
        <ele>2061</ele>
        <time>2022-07-19T13:35:28Z</time>
      </trkpt>
      <trkpt lat="44.3561" lon="6.78268">
        <ele>2059.8</ele>
        <time>2022-07-19T13:35:29Z</time>
      </trkpt>
      <trkpt lat="44.35622" lon="6.78277">
        <ele>2058.8</ele>
        <time>2022-07-19T13:35:30Z</time>
      </trkpt>
      <trkpt lat="44.35634" lon="6.78288">
        <ele>2057.8</ele>
        <time>2022-07-19T13:35:31Z</time>
      </trkpt>
      <trkpt lat="44.35645" lon="6.78299">
        <ele>2056.6</ele>
        <time>2022-07-19T13:35:32Z</time>
      </trkpt>
      <trkpt lat="44.35656" lon="6.7831">
        <ele>2055.8</ele>
        <time>2022-07-19T13:35:33Z</time>
      </trkpt>
      <trkpt lat="44.35667" lon="6.7832">
        <ele>2054.6</ele>
        <time>2022-07-19T13:35:34Z</time>
      </trkpt>
      <trkpt lat="44.35677" lon="6.78328">
        <ele>2053.6</ele>
        <time>2022-07-19T13:35:35Z</time>
      </trkpt>
      <trkpt lat="44.35688" lon="6.78334">
        <ele>2053</ele>
        <time>2022-07-19T13:35:36Z</time>
      </trkpt>
      <trkpt lat="44.35699" lon="6.78339">
        <ele>2052</ele>
        <time>2022-07-19T13:35:37Z</time>
      </trkpt>
      <trkpt lat="44.35712" lon="6.78343">
        <ele>2051.4</ele>
        <time>2022-07-19T13:35:38Z</time>
      </trkpt>
      <trkpt lat="44.35725" lon="6.78346">
        <ele>2050.6</ele>
        <time>2022-07-19T13:35:39Z</time>
      </trkpt>
      <trkpt lat="44.35738" lon="6.7835">
        <ele>2049.6</ele>
        <time>2022-07-19T13:35:40Z</time>
      </trkpt>
      <trkpt lat="44.35751" lon="6.78354">
        <ele>2048.8</ele>
        <time>2022-07-19T13:35:41Z</time>
      </trkpt>
      <trkpt lat="44.35763" lon="6.78358">
        <ele>2047.8</ele>
        <time>2022-07-19T13:35:42Z</time>
      </trkpt>
      <trkpt lat="44.35774" lon="6.7836">
        <ele>2046.8</ele>
        <time>2022-07-19T13:35:43Z</time>
      </trkpt>
      <trkpt lat="44.35784" lon="6.78363">
        <ele>2046</ele>
        <time>2022-07-19T13:35:44Z</time>
      </trkpt>
      <trkpt lat="44.35794" lon="6.78365">
        <ele>2045.2</ele>
        <time>2022-07-19T13:35:45Z</time>
      </trkpt>
      <trkpt lat="44.35805" lon="6.78366">
        <ele>2044.6</ele>
        <time>2022-07-19T13:35:46Z</time>
      </trkpt>
      <trkpt lat="44.35815" lon="6.78364">
        <ele>2044</ele>
        <time>2022-07-19T13:35:47Z</time>
      </trkpt>
      <trkpt lat="44.35824" lon="6.78357">
        <ele>2043.4</ele>
        <time>2022-07-19T13:35:48Z</time>
      </trkpt>
      <trkpt lat="44.35833" lon="6.78348">
        <ele>2042.8</ele>
        <time>2022-07-19T13:35:49Z</time>
      </trkpt>
      <trkpt lat="44.35841" lon="6.78338">
        <ele>2042.2</ele>
        <time>2022-07-19T13:35:50Z</time>
      </trkpt>
      <trkpt lat="44.35847" lon="6.78327">
        <ele>2041.6</ele>
        <time>2022-07-19T13:35:51Z</time>
      </trkpt>
      <trkpt lat="44.35854" lon="6.78315">
        <ele>2041</ele>
        <time>2022-07-19T13:35:52Z</time>
      </trkpt>
      <trkpt lat="44.35861" lon="6.78305">
        <ele>2040.6</ele>
        <time>2022-07-19T13:35:53Z</time>
      </trkpt>
      <trkpt lat="44.35868" lon="6.783">
        <ele>2040</ele>
        <time>2022-07-19T13:35:54Z</time>
      </trkpt>
      <trkpt lat="44.35876" lon="6.78298">
        <ele>2039.8</ele>
        <time>2022-07-19T13:35:55Z</time>
      </trkpt>
      <trkpt lat="44.35885" lon="6.78299">
        <ele>2039.6</ele>
        <time>2022-07-19T13:35:56Z</time>
      </trkpt>
      <trkpt lat="44.35893" lon="6.78304">
        <ele>2039.2</ele>
        <time>2022-07-19T13:35:57Z</time>
      </trkpt>
      <trkpt lat="44.35901" lon="6.78311">
        <ele>2039</ele>
        <time>2022-07-19T13:35:58Z</time>
      </trkpt>
      <trkpt lat="44.35908" lon="6.78319">
        <ele>2038.6</ele>
        <time>2022-07-19T13:35:59Z</time>
      </trkpt>
      <trkpt lat="44.35915" lon="6.7833">
        <ele>2038.2</ele>
        <time>2022-07-19T13:36:00Z</time>
      </trkpt>
      <trkpt lat="44.35923" lon="6.78341">
        <ele>2037.6</ele>
        <time>2022-07-19T13:36:01Z</time>
      </trkpt>
      <trkpt lat="44.35931" lon="6.78351">
        <ele>2037.2</ele>
        <time>2022-07-19T13:36:02Z</time>
      </trkpt>
      <trkpt lat="44.3594" lon="6.78361">
        <ele>2036.6</ele>
        <time>2022-07-19T13:36:03Z</time>
      </trkpt>
      <trkpt lat="44.35948" lon="6.78371">
        <ele>2036.2</ele>
        <time>2022-07-19T13:36:04Z</time>
      </trkpt>
      <trkpt lat="44.35957" lon="6.78383">
        <ele>2035.6</ele>
        <time>2022-07-19T13:36:05Z</time>
      </trkpt>
      <trkpt lat="44.35966" lon="6.78395">
        <ele>2035</ele>
        <time>2022-07-19T13:36:06Z</time>
      </trkpt>
      <trkpt lat="44.35975" lon="6.78406">
        <ele>2034.2</ele>
        <time>2022-07-19T13:36:07Z</time>
      </trkpt>
      <trkpt lat="44.35983" lon="6.78418">
        <ele>2033.6</ele>
        <time>2022-07-19T13:36:08Z</time>
      </trkpt>
      <trkpt lat="44.35992" lon="6.78428">
        <ele>2032.8</ele>
        <time>2022-07-19T13:36:09Z</time>
      </trkpt>
      <trkpt lat="44.36" lon="6.78438">
        <ele>2031.8</ele>
        <time>2022-07-19T13:36:10Z</time>
      </trkpt>
      <trkpt lat="44.36008" lon="6.78449">
        <ele>2031</ele>
        <time>2022-07-19T13:36:11Z</time>
      </trkpt>
      <trkpt lat="44.36014" lon="6.78464">
        <ele>2030</ele>
        <time>2022-07-19T13:36:12Z</time>
      </trkpt>
      <trkpt lat="44.36019" lon="6.78481">
        <ele>2028.8</ele>
        <time>2022-07-19T13:36:13Z</time>
      </trkpt>
      <trkpt lat="44.36024" lon="6.78497">
        <ele>2027.6</ele>
        <time>2022-07-19T13:36:14Z</time>
      </trkpt>
      <trkpt lat="44.36027" lon="6.78512">
        <ele>2026.4</ele>
        <time>2022-07-19T13:36:15Z</time>
      </trkpt>
      <trkpt lat="44.36029" lon="6.78525">
        <ele>2025.4</ele>
        <time>2022-07-19T13:36:16Z</time>
      </trkpt>
      <trkpt lat="44.3603" lon="6.78535">
        <ele>2024.4</ele>
        <time>2022-07-19T13:36:17Z</time>
      </trkpt>
      <trkpt lat="44.36032" lon="6.78544">
        <ele>2023.4</ele>
        <time>2022-07-19T13:36:18Z</time>
      </trkpt>
      <trkpt lat="44.36036" lon="6.78552">
        <ele>2022.6</ele>
        <time>2022-07-19T13:36:19Z</time>
      </trkpt>
      <trkpt lat="44.36043" lon="6.78558">
        <ele>2021.8</ele>
        <time>2022-07-19T13:36:20Z</time>
      </trkpt>
      <trkpt lat="44.3605" lon="6.78561">
        <ele>2021</ele>
        <time>2022-07-19T13:36:21Z</time>
      </trkpt>
      <trkpt lat="44.36058" lon="6.78564">
        <ele>2020.2</ele>
        <time>2022-07-19T13:36:22Z</time>
      </trkpt>
      <trkpt lat="44.36067" lon="6.78569">
        <ele>2019.6</ele>
        <time>2022-07-19T13:36:23Z</time>
      </trkpt>
      <trkpt lat="44.36075" lon="6.78578">
        <ele>2018.8</ele>
        <time>2022-07-19T13:36:24Z</time>
      </trkpt>
      <trkpt lat="44.36084" lon="6.78587">
        <ele>2018</ele>
        <time>2022-07-19T13:36:25Z</time>
      </trkpt>
      <trkpt lat="44.36093" lon="6.78594">
        <ele>2017</ele>
        <time>2022-07-19T13:36:26Z</time>
      </trkpt>
      <trkpt lat="44.36102" lon="6.78601">
        <ele>2016.2</ele>
        <time>2022-07-19T13:36:27Z</time>
      </trkpt>
      <trkpt lat="44.36109" lon="6.7861">
        <ele>2015.4</ele>
        <time>2022-07-19T13:36:28Z</time>
      </trkpt>
      <trkpt lat="44.36114" lon="6.78621">
        <ele>2014.4</ele>
        <time>2022-07-19T13:36:29Z</time>
      </trkpt>
      <trkpt lat="44.36118" lon="6.78634">
        <ele>2013.4</ele>
        <time>2022-07-19T13:36:30Z</time>
      </trkpt>
      <trkpt lat="44.36121" lon="6.78649">
        <ele>2012.6</ele>
        <time>2022-07-19T13:36:31Z</time>
      </trkpt>
      <trkpt lat="44.36124" lon="6.78664">
        <ele>2011.6</ele>
        <time>2022-07-19T13:36:32Z</time>
      </trkpt>
      <trkpt lat="44.36129" lon="6.78678">
        <ele>2010.6</ele>
        <time>2022-07-19T13:36:33Z</time>
      </trkpt>
      <trkpt lat="44.36136" lon="6.78692">
        <ele>2009.6</ele>
        <time>2022-07-19T13:36:34Z</time>
      </trkpt>
      <trkpt lat="44.36144" lon="6.78706">
        <ele>2008.8</ele>
        <time>2022-07-19T13:36:35Z</time>
      </trkpt>
      <trkpt lat="44.36154" lon="6.78718">
        <ele>2007.8</ele>
        <time>2022-07-19T13:36:36Z</time>
      </trkpt>
      <trkpt lat="44.36164" lon="6.7873">
        <ele>2006.6</ele>
        <time>2022-07-19T13:36:37Z</time>
      </trkpt>
      <trkpt lat="44.36174" lon="6.7874">
        <ele>2005.6</ele>
        <time>2022-07-19T13:36:38Z</time>
      </trkpt>
      <trkpt lat="44.36185" lon="6.78749">
        <ele>2004.8</ele>
        <time>2022-07-19T13:36:39Z</time>
      </trkpt>
      <trkpt lat="44.36196" lon="6.78756">
        <ele>2004</ele>
        <time>2022-07-19T13:36:40Z</time>
      </trkpt>
      <trkpt lat="44.36207" lon="6.78762">
        <ele>2003.4</ele>
        <time>2022-07-19T13:36:41Z</time>
      </trkpt>
      <trkpt lat="44.36218" lon="6.78767">
        <ele>2003</ele>
        <time>2022-07-19T13:36:42Z</time>
      </trkpt>
      <trkpt lat="44.36229" lon="6.78771">
        <ele>2002.6</ele>
        <time>2022-07-19T13:36:43Z</time>
      </trkpt>
      <trkpt lat="44.3624" lon="6.78774">
        <ele>2002.2</ele>
        <time>2022-07-19T13:36:44Z</time>
      </trkpt>
      <trkpt lat="44.36251" lon="6.78778">
        <ele>2002</ele>
        <time>2022-07-19T13:36:45Z</time>
      </trkpt>
      <trkpt lat="44.36261" lon="6.78781">
        <ele>2002</ele>
        <time>2022-07-19T13:36:46Z</time>
      </trkpt>
      <trkpt lat="44.36271" lon="6.78784">
        <ele>2002</ele>
        <time>2022-07-19T13:36:47Z</time>
      </trkpt>
      <trkpt lat="44.36281" lon="6.78788">
        <ele>2002</ele>
        <time>2022-07-19T13:36:48Z</time>
      </trkpt>
      <trkpt lat="44.36291" lon="6.78793">
        <ele>2002</ele>
        <time>2022-07-19T13:36:49Z</time>
      </trkpt>
      <trkpt lat="44.363" lon="6.78799">
        <ele>2002</ele>
        <time>2022-07-19T13:36:50Z</time>
      </trkpt>
      <trkpt lat="44.36309" lon="6.78804">
        <ele>2002</ele>
        <time>2022-07-19T13:36:51Z</time>
      </trkpt>
      <trkpt lat="44.36318" lon="6.78808">
        <ele>2002</ele>
        <time>2022-07-19T13:36:52Z</time>
      </trkpt>
      <trkpt lat="44.36325" lon="6.78811">
        <ele>2002</ele>
        <time>2022-07-19T13:36:53Z</time>
      </trkpt>
      <trkpt lat="44.36333" lon="6.78814">
        <ele>2002.4</ele>
        <time>2022-07-19T13:36:54Z</time>
      </trkpt>
      <trkpt lat="44.3634" lon="6.78816">
        <ele>2002.6</ele>
        <time>2022-07-19T13:36:55Z</time>
      </trkpt>
      <trkpt lat="44.36346" lon="6.78817">
        <ele>2003</ele>
        <time>2022-07-19T13:36:56Z</time>
      </trkpt>
      <trkpt lat="44.36352" lon="6.78816">
        <ele>2003.2</ele>
        <time>2022-07-19T13:36:57Z</time>
      </trkpt>
      <trkpt lat="44.36358" lon="6.78812">
        <ele>2003.6</ele>
        <time>2022-07-19T13:36:58Z</time>
      </trkpt>
      <trkpt lat="44.36364" lon="6.78809">
        <ele>2004</ele>
        <time>2022-07-19T13:36:59Z</time>
      </trkpt>
      <trkpt lat="44.36371" lon="6.78806">
        <ele>2004</ele>
        <time>2022-07-19T13:37:00Z</time>
      </trkpt>
      <trkpt lat="44.36377" lon="6.78804">
        <ele>2004</ele>
        <time>2022-07-19T13:37:01Z</time>
      </trkpt>
      <trkpt lat="44.36384" lon="6.78804">
        <ele>2004</ele>
        <time>2022-07-19T13:37:02Z</time>
      </trkpt>
      <trkpt lat="44.36392" lon="6.78805">
        <ele>2004</ele>
        <time>2022-07-19T13:37:03Z</time>
      </trkpt>
      <trkpt lat="44.36399" lon="6.78807">
        <ele>2003.8</ele>
        <time>2022-07-19T13:37:04Z</time>
      </trkpt>
      <trkpt lat="44.36406" lon="6.78809">
        <ele>2003.8</ele>
        <time>2022-07-19T13:37:05Z</time>
      </trkpt>
      <trkpt lat="44.36412" lon="6.78809">
        <ele>2003.2</ele>
        <time>2022-07-19T13:37:06Z</time>
      </trkpt>
      <trkpt lat="44.36419" lon="6.78809">
        <ele>2002.8</ele>
        <time>2022-07-19T13:37:07Z</time>
      </trkpt>
      <trkpt lat="44.36427" lon="6.78806">
        <ele>2002.6</ele>
        <time>2022-07-19T13:37:08Z</time>
      </trkpt>
      <trkpt lat="44.36434" lon="6.78802">
        <ele>2002.2</ele>
        <time>2022-07-19T13:37:09Z</time>
      </trkpt>
      <trkpt lat="44.36442" lon="6.78799">
        <ele>2001.8</ele>
        <time>2022-07-19T13:37:10Z</time>
      </trkpt>
      <trkpt lat="44.3645" lon="6.78797">
        <ele>2001.4</ele>
        <time>2022-07-19T13:37:11Z</time>
      </trkpt>
      <trkpt lat="44.36458" lon="6.78796">
        <ele>2001</ele>
        <time>2022-07-19T13:37:12Z</time>
      </trkpt>
      <trkpt lat="44.36465" lon="6.78798">
        <ele>2000.4</ele>
        <time>2022-07-19T13:37:13Z</time>
      </trkpt>
      <trkpt lat="44.36477" lon="6.78804">
        <ele>2000</ele>
        <time>2022-07-19T13:37:14Z</time>
      </trkpt>
      <trkpt lat="44.36481" lon="6.78807">
        <ele>1999.6</ele>
        <time>2022-07-19T13:37:15Z</time>
      </trkpt>
      <trkpt lat="44.36489" lon="6.78814">
        <ele>1999</ele>
        <time>2022-07-19T13:37:16Z</time>
      </trkpt>
      <trkpt lat="44.36496" lon="6.78823">
        <ele>1998.4</ele>
        <time>2022-07-19T13:37:17Z</time>
      </trkpt>
      <trkpt lat="44.36502" lon="6.78833">
        <ele>1997.8</ele>
        <time>2022-07-19T13:37:18Z</time>
      </trkpt>
      <trkpt lat="44.36509" lon="6.78843">
        <ele>1997</ele>
        <time>2022-07-19T13:37:19Z</time>
      </trkpt>
      <trkpt lat="44.36518" lon="6.7885">
        <ele>1996.2</ele>
        <time>2022-07-19T13:37:20Z</time>
      </trkpt>
      <trkpt lat="44.36528" lon="6.78855">
        <ele>1995.4</ele>
        <time>2022-07-19T13:37:21Z</time>
      </trkpt>
      <trkpt lat="44.36539" lon="6.78859">
        <ele>1994.8</ele>
        <time>2022-07-19T13:37:22Z</time>
      </trkpt>
      <trkpt lat="44.3655" lon="6.78862">
        <ele>1994</ele>
        <time>2022-07-19T13:37:23Z</time>
      </trkpt>
      <trkpt lat="44.36561" lon="6.78863">
        <ele>1993</ele>
        <time>2022-07-19T13:37:24Z</time>
      </trkpt>
      <trkpt lat="44.36573" lon="6.78864">
        <ele>1992.2</ele>
        <time>2022-07-19T13:37:25Z</time>
      </trkpt>
      <trkpt lat="44.36584" lon="6.78866">
        <ele>1991.2</ele>
        <time>2022-07-19T13:37:26Z</time>
      </trkpt>
      <trkpt lat="44.36596" lon="6.78867">
        <ele>1990.4</ele>
        <time>2022-07-19T13:37:27Z</time>
      </trkpt>
      <trkpt lat="44.36607" lon="6.7887">
        <ele>1989.4</ele>
        <time>2022-07-19T13:37:28Z</time>
      </trkpt>
      <trkpt lat="44.36618" lon="6.78869">
        <ele>1988.4</ele>
        <time>2022-07-19T13:37:29Z</time>
      </trkpt>
      <trkpt lat="44.3663" lon="6.78865">
        <ele>1987.4</ele>
        <time>2022-07-19T13:37:30Z</time>
      </trkpt>
      <trkpt lat="44.36642" lon="6.78859">
        <ele>1986.4</ele>
        <time>2022-07-19T13:37:31Z</time>
      </trkpt>
      <trkpt lat="44.36654" lon="6.78851">
        <ele>1985.4</ele>
        <time>2022-07-19T13:37:32Z</time>
      </trkpt>
      <trkpt lat="44.36665" lon="6.78844">
        <ele>1984.4</ele>
        <time>2022-07-19T13:37:33Z</time>
      </trkpt>
      <trkpt lat="44.36675" lon="6.78841">
        <ele>1983.4</ele>
        <time>2022-07-19T13:37:34Z</time>
      </trkpt>
      <trkpt lat="44.36685" lon="6.78837">
        <ele>1982.6</ele>
        <time>2022-07-19T13:37:35Z</time>
      </trkpt>
      <trkpt lat="44.36694" lon="6.78829">
        <ele>1981.6</ele>
        <time>2022-07-19T13:37:36Z</time>
      </trkpt>
      <trkpt lat="44.36702" lon="6.78819">
        <ele>1980.8</ele>
        <time>2022-07-19T13:37:37Z</time>
      </trkpt>
      <trkpt lat="44.36709" lon="6.78807">
        <ele>1980</ele>
        <time>2022-07-19T13:37:38Z</time>
      </trkpt>
      <trkpt lat="44.36716" lon="6.78795">
        <ele>1979.2</ele>
        <time>2022-07-19T13:37:39Z</time>
      </trkpt>
      <trkpt lat="44.36723" lon="6.78786">
        <ele>1978.4</ele>
        <time>2022-07-19T13:37:40Z</time>
      </trkpt>
      <trkpt lat="44.3673" lon="6.78777">
        <ele>1977.4</ele>
        <time>2022-07-19T13:37:41Z</time>
      </trkpt>
      <trkpt lat="44.36737" lon="6.7877">
        <ele>1976.6</ele>
        <time>2022-07-19T13:37:42Z</time>
      </trkpt>
      <trkpt lat="44.36745" lon="6.78763">
        <ele>1975.8</ele>
        <time>2022-07-19T13:37:43Z</time>
      </trkpt>
      <trkpt lat="44.36753" lon="6.78757">
        <ele>1975</ele>
        <time>2022-07-19T13:37:44Z</time>
      </trkpt>
      <trkpt lat="44.36763" lon="6.78752">
        <ele>1974</ele>
        <time>2022-07-19T13:37:45Z</time>
      </trkpt>
      <trkpt lat="44.36773" lon="6.78747">
        <ele>1973</ele>
        <time>2022-07-19T13:37:46Z</time>
      </trkpt>
      <trkpt lat="44.36783" lon="6.7874">
        <ele>1972.2</ele>
        <time>2022-07-19T13:37:47Z</time>
      </trkpt>
      <trkpt lat="44.36793" lon="6.78733">
        <ele>1971.2</ele>
        <time>2022-07-19T13:37:48Z</time>
      </trkpt>
      <trkpt lat="44.36802" lon="6.78726">
        <ele>1970.2</ele>
        <time>2022-07-19T13:37:49Z</time>
      </trkpt>
      <trkpt lat="44.36811" lon="6.78721">
        <ele>1969.2</ele>
        <time>2022-07-19T13:37:50Z</time>
      </trkpt>
      <trkpt lat="44.36821" lon="6.78717">
        <ele>1968</ele>
        <time>2022-07-19T13:37:51Z</time>
      </trkpt>
      <trkpt lat="44.36832" lon="6.78714">
        <ele>1966.8</ele>
        <time>2022-07-19T13:37:52Z</time>
      </trkpt>
      <trkpt lat="44.36842" lon="6.78709">
        <ele>1965.8</ele>
        <time>2022-07-19T13:37:53Z</time>
      </trkpt>
      <trkpt lat="44.36852" lon="6.78706">
        <ele>1964.8</ele>
        <time>2022-07-19T13:37:54Z</time>
      </trkpt>
      <trkpt lat="44.3686" lon="6.78705">
        <ele>1963.8</ele>
        <time>2022-07-19T13:37:55Z</time>
      </trkpt>
      <trkpt lat="44.36868" lon="6.78704">
        <ele>1963</ele>
        <time>2022-07-19T13:37:56Z</time>
      </trkpt>
      <trkpt lat="44.36874" lon="6.78704">
        <ele>1962.2</ele>
        <time>2022-07-19T13:37:57Z</time>
      </trkpt>
      <trkpt lat="44.3688" lon="6.78703">
        <ele>1961.4</ele>
        <time>2022-07-19T13:37:58Z</time>
      </trkpt>
      <trkpt lat="44.36884" lon="6.78701">
        <ele>1960.8</ele>
        <time>2022-07-19T13:37:59Z</time>
      </trkpt>
      <trkpt lat="44.36886" lon="6.78696">
        <ele>1960.2</ele>
        <time>2022-07-19T13:38:00Z</time>
      </trkpt>
      <trkpt lat="44.36886" lon="6.7869">
        <ele>1959.6</ele>
        <time>2022-07-19T13:38:01Z</time>
      </trkpt>
      <trkpt lat="44.36883" lon="6.78684">
        <ele>1959.2</ele>
        <time>2022-07-19T13:38:02Z</time>
      </trkpt>
      <trkpt lat="44.36877" lon="6.78682">
        <ele>1958.8</ele>
        <time>2022-07-19T13:38:03Z</time>
      </trkpt>
      <trkpt lat="44.36871" lon="6.78681">
        <ele>1958.4</ele>
        <time>2022-07-19T13:38:04Z</time>
      </trkpt>
      <trkpt lat="44.36864" lon="6.78682">
        <ele>1957.8</ele>
        <time>2022-07-19T13:38:05Z</time>
      </trkpt>
      <trkpt lat="44.36856" lon="6.78682">
        <ele>1957.4</ele>
        <time>2022-07-19T13:38:06Z</time>
      </trkpt>
      <trkpt lat="44.36848" lon="6.78682">
        <ele>1956.8</ele>
        <time>2022-07-19T13:38:07Z</time>
      </trkpt>
      <trkpt lat="44.3684" lon="6.78682">
        <ele>1956.4</ele>
        <time>2022-07-19T13:38:08Z</time>
      </trkpt>
      <trkpt lat="44.36831" lon="6.78681">
        <ele>1955.8</ele>
        <time>2022-07-19T13:38:09Z</time>
      </trkpt>
      <trkpt lat="44.3682" lon="6.7868">
        <ele>1955.2</ele>
        <time>2022-07-19T13:38:10Z</time>
      </trkpt>
      <trkpt lat="44.3681" lon="6.78678">
        <ele>1954.6</ele>
        <time>2022-07-19T13:38:11Z</time>
      </trkpt>
      <trkpt lat="44.36799" lon="6.78676">
        <ele>1953.8</ele>
        <time>2022-07-19T13:38:12Z</time>
      </trkpt>
      <trkpt lat="44.36789" lon="6.78675">
        <ele>1953.2</ele>
        <time>2022-07-19T13:38:13Z</time>
      </trkpt>
      <trkpt lat="44.36779" lon="6.78674">
        <ele>1952.4</ele>
        <time>2022-07-19T13:38:14Z</time>
      </trkpt>
      <trkpt lat="44.36769" lon="6.78676">
        <ele>1951.8</ele>
        <time>2022-07-19T13:38:15Z</time>
      </trkpt>
      <trkpt lat="44.3676" lon="6.78679">
        <ele>1951</ele>
        <time>2022-07-19T13:38:16Z</time>
      </trkpt>
      <trkpt lat="44.36751" lon="6.78683">
        <ele>1950.2</ele>
        <time>2022-07-19T13:38:17Z</time>
      </trkpt>
      <trkpt lat="44.36743" lon="6.78687">
        <ele>1948.8</ele>
        <time>2022-07-19T13:38:19Z</time>
      </trkpt>
      <trkpt lat="44.36734" lon="6.78688">
        <ele>1948.2</ele>
        <time>2022-07-19T13:38:20Z</time>
      </trkpt>
      <trkpt lat="44.36726" lon="6.78686">
        <ele>1947.6</ele>
        <time>2022-07-19T13:38:21Z</time>
      </trkpt>
      <trkpt lat="44.36717" lon="6.78682">
        <ele>1947</ele>
        <time>2022-07-19T13:38:22Z</time>
      </trkpt>
      <trkpt lat="44.36709" lon="6.78678">
        <ele>1946.4</ele>
        <time>2022-07-19T13:38:23Z</time>
      </trkpt>
      <trkpt lat="44.36702" lon="6.78675">
        <ele>1945.8</ele>
        <time>2022-07-19T13:38:24Z</time>
      </trkpt>
      <trkpt lat="44.36694" lon="6.78672">
        <ele>1945.2</ele>
        <time>2022-07-19T13:38:25Z</time>
      </trkpt>
      <trkpt lat="44.36686" lon="6.78672">
        <ele>1944.6</ele>
        <time>2022-07-19T13:38:26Z</time>
      </trkpt>
      <trkpt lat="44.36678" lon="6.78674">
        <ele>1944</ele>
        <time>2022-07-19T13:38:27Z</time>
      </trkpt>
      <trkpt lat="44.36671" lon="6.78677">
        <ele>1943.4</ele>
        <time>2022-07-19T13:38:28Z</time>
      </trkpt>
      <trkpt lat="44.36666" lon="6.7868">
        <ele>1942.8</ele>
        <time>2022-07-19T13:38:29Z</time>
      </trkpt>
      <trkpt lat="44.3666" lon="6.78681">
        <ele>1942.4</ele>
        <time>2022-07-19T13:38:30Z</time>
      </trkpt>
      <trkpt lat="44.36657" lon="6.78679">
        <ele>1941.8</ele>
        <time>2022-07-19T13:38:31Z</time>
      </trkpt>
      <trkpt lat="44.36655" lon="6.78674">
        <ele>1941.2</ele>
        <time>2022-07-19T13:38:32Z</time>
      </trkpt>
      <trkpt lat="44.36655" lon="6.78667">
        <ele>1940.6</ele>
        <time>2022-07-19T13:38:33Z</time>
      </trkpt>
      <trkpt lat="44.36658" lon="6.7866">
        <ele>1940</ele>
        <time>2022-07-19T13:38:34Z</time>
      </trkpt>
      <trkpt lat="44.36663" lon="6.78655">
        <ele>1939.4</ele>
        <time>2022-07-19T13:38:35Z</time>
      </trkpt>
      <trkpt lat="44.36669" lon="6.78653">
        <ele>1939.2</ele>
        <time>2022-07-19T13:38:36Z</time>
      </trkpt>
      <trkpt lat="44.36676" lon="6.78652">
        <ele>1938.8</ele>
        <time>2022-07-19T13:38:37Z</time>
      </trkpt>
      <trkpt lat="44.36683" lon="6.7865">
        <ele>1938.4</ele>
        <time>2022-07-19T13:38:38Z</time>
      </trkpt>
      <trkpt lat="44.3669" lon="6.78649">
        <ele>1937.8</ele>
        <time>2022-07-19T13:38:39Z</time>
      </trkpt>
      <trkpt lat="44.36698" lon="6.78648">
        <ele>1937.2</ele>
        <time>2022-07-19T13:38:40Z</time>
      </trkpt>
      <trkpt lat="44.36707" lon="6.78647">
        <ele>1936.6</ele>
        <time>2022-07-19T13:38:41Z</time>
      </trkpt>
      <trkpt lat="44.36715" lon="6.78645">
        <ele>1936</ele>
        <time>2022-07-19T13:38:42Z</time>
      </trkpt>
      <trkpt lat="44.36723" lon="6.78643">
        <ele>1935.4</ele>
        <time>2022-07-19T13:38:43Z</time>
      </trkpt>
      <trkpt lat="44.36732" lon="6.7864">
        <ele>1934.6</ele>
        <time>2022-07-19T13:38:44Z</time>
      </trkpt>
      <trkpt lat="44.3674" lon="6.78635">
        <ele>1933.8</ele>
        <time>2022-07-19T13:38:45Z</time>
      </trkpt>
      <trkpt lat="44.36749" lon="6.78629">
        <ele>1933.2</ele>
        <time>2022-07-19T13:38:46Z</time>
      </trkpt>
      <trkpt lat="44.36759" lon="6.78623">
        <ele>1932.6</ele>
        <time>2022-07-19T13:38:47Z</time>
      </trkpt>
      <trkpt lat="44.36769" lon="6.78618">
        <ele>1931.8</ele>
        <time>2022-07-19T13:38:48Z</time>
      </trkpt>
      <trkpt lat="44.36778" lon="6.78613">
        <ele>1931</ele>
        <time>2022-07-19T13:38:49Z</time>
      </trkpt>
      <trkpt lat="44.36787" lon="6.78608">
        <ele>1930.2</ele>
        <time>2022-07-19T13:38:50Z</time>
      </trkpt>
      <trkpt lat="44.36796" lon="6.78604">
        <ele>1929.4</ele>
        <time>2022-07-19T13:38:51Z</time>
      </trkpt>
      <trkpt lat="44.36806" lon="6.78599">
        <ele>1928.6</ele>
        <time>2022-07-19T13:38:52Z</time>
      </trkpt>
      <trkpt lat="44.36815" lon="6.78596">
        <ele>1928</ele>
        <time>2022-07-19T13:38:53Z</time>
      </trkpt>
      <trkpt lat="44.36824" lon="6.78591">
        <ele>1927.2</ele>
        <time>2022-07-19T13:38:54Z</time>
      </trkpt>
      <trkpt lat="44.36833" lon="6.78585">
        <ele>1926.2</ele>
        <time>2022-07-19T13:38:55Z</time>
      </trkpt>
      <trkpt lat="44.36841" lon="6.78578">
        <ele>1925.4</ele>
        <time>2022-07-19T13:38:56Z</time>
      </trkpt>
      <trkpt lat="44.3685" lon="6.7857">
        <ele>1924.4</ele>
        <time>2022-07-19T13:38:57Z</time>
      </trkpt>
      <trkpt lat="44.36858" lon="6.78561">
        <ele>1923.4</ele>
        <time>2022-07-19T13:38:58Z</time>
      </trkpt>
      <trkpt lat="44.36867" lon="6.78554">
        <ele>1922.4</ele>
        <time>2022-07-19T13:38:59Z</time>
      </trkpt>
      <trkpt lat="44.36875" lon="6.78548">
        <ele>1921.6</ele>
        <time>2022-07-19T13:39:00Z</time>
      </trkpt>
      <trkpt lat="44.36883" lon="6.78543">
        <ele>1920.8</ele>
        <time>2022-07-19T13:39:01Z</time>
      </trkpt>
      <trkpt lat="44.36891" lon="6.78539">
        <ele>1920.2</ele>
        <time>2022-07-19T13:39:02Z</time>
      </trkpt>
      <trkpt lat="44.36899" lon="6.78536">
        <ele>1919.4</ele>
        <time>2022-07-19T13:39:03Z</time>
      </trkpt>
      <trkpt lat="44.36908" lon="6.78534">
        <ele>1918.4</ele>
        <time>2022-07-19T13:39:04Z</time>
      </trkpt>
      <trkpt lat="44.36916" lon="6.78529">
        <ele>1917.4</ele>
        <time>2022-07-19T13:39:05Z</time>
      </trkpt>
      <trkpt lat="44.36924" lon="6.78522">
        <ele>1916.8</ele>
        <time>2022-07-19T13:39:06Z</time>
      </trkpt>
      <trkpt lat="44.36929" lon="6.78512">
        <ele>1916.2</ele>
        <time>2022-07-19T13:39:07Z</time>
      </trkpt>
      <trkpt lat="44.36934" lon="6.78502">
        <ele>1915.4</ele>
        <time>2022-07-19T13:39:08Z</time>
      </trkpt>
      <trkpt lat="44.36938" lon="6.78491">
        <ele>1914.8</ele>
        <time>2022-07-19T13:39:09Z</time>
      </trkpt>
      <trkpt lat="44.36943" lon="6.78482">
        <ele>1914</ele>
        <time>2022-07-19T13:39:10Z</time>
      </trkpt>
      <trkpt lat="44.36949" lon="6.78474">
        <ele>1913.4</ele>
        <time>2022-07-19T13:39:11Z</time>
      </trkpt>
      <trkpt lat="44.36956" lon="6.78467">
        <ele>1912.4</ele>
        <time>2022-07-19T13:39:12Z</time>
      </trkpt>
      <trkpt lat="44.36963" lon="6.7846">
        <ele>1911.6</ele>
        <time>2022-07-19T13:39:13Z</time>
      </trkpt>
      <trkpt lat="44.36971" lon="6.78452">
        <ele>1910.8</ele>
        <time>2022-07-19T13:39:14Z</time>
      </trkpt>
      <trkpt lat="44.36979" lon="6.78444">
        <ele>1909.8</ele>
        <time>2022-07-19T13:39:15Z</time>
      </trkpt>
      <trkpt lat="44.36987" lon="6.78436">
        <ele>1909</ele>
        <time>2022-07-19T13:39:16Z</time>
      </trkpt>
      <trkpt lat="44.36996" lon="6.78428">
        <ele>1908</ele>
        <time>2022-07-19T13:39:17Z</time>
      </trkpt>
      <trkpt lat="44.37003" lon="6.7842">
        <ele>1907.2</ele>
        <time>2022-07-19T13:39:18Z</time>
      </trkpt>
      <trkpt lat="44.37011" lon="6.78412">
        <ele>1906.4</ele>
        <time>2022-07-19T13:39:19Z</time>
      </trkpt>
      <trkpt lat="44.37018" lon="6.78402">
        <ele>1905.4</ele>
        <time>2022-07-19T13:39:20Z</time>
      </trkpt>
      <trkpt lat="44.37024" lon="6.78391">
        <ele>1904.4</ele>
        <time>2022-07-19T13:39:21Z</time>
      </trkpt>
      <trkpt lat="44.37029" lon="6.7838">
        <ele>1903.4</ele>
        <time>2022-07-19T13:39:22Z</time>
      </trkpt>
      <trkpt lat="44.37035" lon="6.78368">
        <ele>1902.4</ele>
        <time>2022-07-19T13:39:23Z</time>
      </trkpt>
      <trkpt lat="44.3704" lon="6.78357">
        <ele>1901.4</ele>
        <time>2022-07-19T13:39:24Z</time>
      </trkpt>
      <trkpt lat="44.37044" lon="6.78346">
        <ele>1900.4</ele>
        <time>2022-07-19T13:39:25Z</time>
      </trkpt>
      <trkpt lat="44.37049" lon="6.78336">
        <ele>1899.4</ele>
        <time>2022-07-19T13:39:26Z</time>
      </trkpt>
      <trkpt lat="44.37055" lon="6.78326">
        <ele>1898.4</ele>
        <time>2022-07-19T13:39:27Z</time>
      </trkpt>
      <trkpt lat="44.37061" lon="6.78316">
        <ele>1897.6</ele>
        <time>2022-07-19T13:39:28Z</time>
      </trkpt>
      <trkpt lat="44.37067" lon="6.78305">
        <ele>1896</ele>
        <time>2022-07-19T13:39:29Z</time>
      </trkpt>
      <trkpt lat="44.37074" lon="6.78295">
        <ele>1895</ele>
        <time>2022-07-19T13:39:30Z</time>
      </trkpt>
      <trkpt lat="44.37081" lon="6.78286">
        <ele>1894.2</ele>
        <time>2022-07-19T13:39:31Z</time>
      </trkpt>
      <trkpt lat="44.37088" lon="6.78277">
        <ele>1893.2</ele>
        <time>2022-07-19T13:39:32Z</time>
      </trkpt>
      <trkpt lat="44.37096" lon="6.78269">
        <ele>1892</ele>
        <time>2022-07-19T13:39:33Z</time>
      </trkpt>
      <trkpt lat="44.37104" lon="6.78261">
        <ele>1891</ele>
        <time>2022-07-19T13:39:34Z</time>
      </trkpt>
      <trkpt lat="44.37113" lon="6.78254">
        <ele>1890</ele>
        <time>2022-07-19T13:39:35Z</time>
      </trkpt>
      <trkpt lat="44.37123" lon="6.78247">
        <ele>1889</ele>
        <time>2022-07-19T13:39:36Z</time>
      </trkpt>
      <trkpt lat="44.37133" lon="6.78241">
        <ele>1887.8</ele>
        <time>2022-07-19T13:39:37Z</time>
      </trkpt>
      <trkpt lat="44.37142" lon="6.78235">
        <ele>1886.8</ele>
        <time>2022-07-19T13:39:38Z</time>
      </trkpt>
      <trkpt lat="44.37151" lon="6.7823">
        <ele>1885.6</ele>
        <time>2022-07-19T13:39:39Z</time>
      </trkpt>
      <trkpt lat="44.3716" lon="6.78226">
        <ele>1884.4</ele>
        <time>2022-07-19T13:39:40Z</time>
      </trkpt>
      <trkpt lat="44.37169" lon="6.78222">
        <ele>1883.6</ele>
        <time>2022-07-19T13:39:41Z</time>
      </trkpt>
      <trkpt lat="44.3719" lon="6.78217">
        <ele>1882.4</ele>
        <time>2022-07-19T13:39:42Z</time>
      </trkpt>
      <trkpt lat="44.37201" lon="6.78215">
        <ele>1881.2</ele>
        <time>2022-07-19T13:39:43Z</time>
      </trkpt>
      <trkpt lat="44.37212" lon="6.78212">
        <ele>1880.4</ele>
        <time>2022-07-19T13:39:44Z</time>
      </trkpt>
      <trkpt lat="44.37223" lon="6.78209">
        <ele>1879.4</ele>
        <time>2022-07-19T13:39:45Z</time>
      </trkpt>
      <trkpt lat="44.37233" lon="6.78205">
        <ele>1878.6</ele>
        <time>2022-07-19T13:39:46Z</time>
      </trkpt>
      <trkpt lat="44.37243" lon="6.782">
        <ele>1877.6</ele>
        <time>2022-07-19T13:39:47Z</time>
      </trkpt>
      <trkpt lat="44.37252" lon="6.78196">
        <ele>1876.8</ele>
        <time>2022-07-19T13:39:48Z</time>
      </trkpt>
      <trkpt lat="44.37262" lon="6.78193">
        <ele>1876</ele>
        <time>2022-07-19T13:39:49Z</time>
      </trkpt>
      <trkpt lat="44.37271" lon="6.7819">
        <ele>1875.2</ele>
        <time>2022-07-19T13:39:50Z</time>
      </trkpt>
      <trkpt lat="44.3728" lon="6.78189">
        <ele>1874.6</ele>
        <time>2022-07-19T13:39:51Z</time>
      </trkpt>
      <trkpt lat="44.37289" lon="6.7819">
        <ele>1874</ele>
        <time>2022-07-19T13:39:52Z</time>
      </trkpt>
      <trkpt lat="44.37297" lon="6.78193">
        <ele>1873.2</ele>
        <time>2022-07-19T13:39:53Z</time>
      </trkpt>
      <trkpt lat="44.37304" lon="6.78197">
        <ele>1872.6</ele>
        <time>2022-07-19T13:39:54Z</time>
      </trkpt>
      <trkpt lat="44.37312" lon="6.78205">
        <ele>1871.8</ele>
        <time>2022-07-19T13:39:55Z</time>
      </trkpt>
      <trkpt lat="44.37319" lon="6.78215">
        <ele>1871</ele>
        <time>2022-07-19T13:39:56Z</time>
      </trkpt>
      <trkpt lat="44.37327" lon="6.78226">
        <ele>1870</ele>
        <time>2022-07-19T13:39:57Z</time>
      </trkpt>
      <trkpt lat="44.37335" lon="6.78236">
        <ele>1869</ele>
        <time>2022-07-19T13:39:58Z</time>
      </trkpt>
      <trkpt lat="44.37346" lon="6.78244">
        <ele>1868</ele>
        <time>2022-07-19T13:39:59Z</time>
      </trkpt>
      <trkpt lat="44.37357" lon="6.7825">
        <ele>1867</ele>
        <time>2022-07-19T13:40:00Z</time>
      </trkpt>
      <trkpt lat="44.37368" lon="6.78254">
        <ele>1866</ele>
        <time>2022-07-19T13:40:01Z</time>
      </trkpt>
      <trkpt lat="44.37379" lon="6.78256">
        <ele>1865</ele>
        <time>2022-07-19T13:40:02Z</time>
      </trkpt>
      <trkpt lat="44.3739" lon="6.78258">
        <ele>1864</ele>
        <time>2022-07-19T13:40:03Z</time>
      </trkpt>
      <trkpt lat="44.37402" lon="6.78258">
        <ele>1863</ele>
        <time>2022-07-19T13:40:04Z</time>
      </trkpt>
      <trkpt lat="44.37414" lon="6.78258">
        <ele>1862</ele>
        <time>2022-07-19T13:40:05Z</time>
      </trkpt>
      <trkpt lat="44.37425" lon="6.78257">
        <ele>1861</ele>
        <time>2022-07-19T13:40:06Z</time>
      </trkpt>
      <trkpt lat="44.37437" lon="6.78257">
        <ele>1860.2</ele>
        <time>2022-07-19T13:40:07Z</time>
      </trkpt>
      <trkpt lat="44.37448" lon="6.78256">
        <ele>1859.4</ele>
        <time>2022-07-19T13:40:08Z</time>
      </trkpt>
      <trkpt lat="44.37459" lon="6.78254">
        <ele>1858.4</ele>
        <time>2022-07-19T13:40:09Z</time>
      </trkpt>
      <trkpt lat="44.3747" lon="6.78253">
        <ele>1857.4</ele>
        <time>2022-07-19T13:40:10Z</time>
      </trkpt>
      <trkpt lat="44.3748" lon="6.78254">
        <ele>1856.4</ele>
        <time>2022-07-19T13:40:11Z</time>
      </trkpt>
      <trkpt lat="44.37491" lon="6.78255">
        <ele>1855.4</ele>
        <time>2022-07-19T13:40:12Z</time>
      </trkpt>
      <trkpt lat="44.37501" lon="6.78254">
        <ele>1854.4</ele>
        <time>2022-07-19T13:40:13Z</time>
      </trkpt>
      <trkpt lat="44.37511" lon="6.78249">
        <ele>1853.4</ele>
        <time>2022-07-19T13:40:14Z</time>
      </trkpt>
      <trkpt lat="44.3752" lon="6.78243">
        <ele>1852.6</ele>
        <time>2022-07-19T13:40:15Z</time>
      </trkpt>
      <trkpt lat="44.37529" lon="6.78237">
        <ele>1851.8</ele>
        <time>2022-07-19T13:40:16Z</time>
      </trkpt>
      <trkpt lat="44.37538" lon="6.78232">
        <ele>1850.8</ele>
        <time>2022-07-19T13:40:17Z</time>
      </trkpt>
      <trkpt lat="44.37548" lon="6.78227">
        <ele>1849.8</ele>
        <time>2022-07-19T13:40:18Z</time>
      </trkpt>
      <trkpt lat="44.37558" lon="6.78224">
        <ele>1848.8</ele>
        <time>2022-07-19T13:40:19Z</time>
      </trkpt>
      <trkpt lat="44.37568" lon="6.78222">
        <ele>1847.8</ele>
        <time>2022-07-19T13:40:20Z</time>
      </trkpt>
      <trkpt lat="44.37578" lon="6.78219">
        <ele>1846.8</ele>
        <time>2022-07-19T13:40:21Z</time>
      </trkpt>
      <trkpt lat="44.37588" lon="6.78216">
        <ele>1846</ele>
        <time>2022-07-19T13:40:22Z</time>
      </trkpt>
      <trkpt lat="44.37596" lon="6.78214">
        <ele>1845.2</ele>
        <time>2022-07-19T13:40:23Z</time>
      </trkpt>
      <trkpt lat="44.37605" lon="6.7821">
        <ele>1844.4</ele>
        <time>2022-07-19T13:40:24Z</time>
      </trkpt>
      <trkpt lat="44.37613" lon="6.78204">
        <ele>1843.6</ele>
        <time>2022-07-19T13:40:25Z</time>
      </trkpt>
      <trkpt lat="44.37621" lon="6.78197">
        <ele>1843</ele>
        <time>2022-07-19T13:40:26Z</time>
      </trkpt>
      <trkpt lat="44.37628" lon="6.78189">
        <ele>1842.4</ele>
        <time>2022-07-19T13:40:27Z</time>
      </trkpt>
      <trkpt lat="44.37635" lon="6.7818">
        <ele>1841.6</ele>
        <time>2022-07-19T13:40:28Z</time>
      </trkpt>
      <trkpt lat="44.37642" lon="6.7817">
        <ele>1840.8</ele>
        <time>2022-07-19T13:40:29Z</time>
      </trkpt>
      <trkpt lat="44.37649" lon="6.78161">
        <ele>1840.2</ele>
        <time>2022-07-19T13:40:30Z</time>
      </trkpt>
      <trkpt lat="44.37656" lon="6.78153">
        <ele>1839.6</ele>
        <time>2022-07-19T13:40:31Z</time>
      </trkpt>
      <trkpt lat="44.37664" lon="6.78144">
        <ele>1838.8</ele>
        <time>2022-07-19T13:40:32Z</time>
      </trkpt>
      <trkpt lat="44.37671" lon="6.78136">
        <ele>1838.2</ele>
        <time>2022-07-19T13:40:33Z</time>
      </trkpt>
      <trkpt lat="44.37679" lon="6.78129">
        <ele>1837.6</ele>
        <time>2022-07-19T13:40:34Z</time>
      </trkpt>
      <trkpt lat="44.37687" lon="6.78123">
        <ele>1836.8</ele>
        <time>2022-07-19T13:40:35Z</time>
      </trkpt>
      <trkpt lat="44.37696" lon="6.78118">
        <ele>1836.2</ele>
        <time>2022-07-19T13:40:36Z</time>
      </trkpt>
      <trkpt lat="44.37705" lon="6.78115">
        <ele>1835.4</ele>
        <time>2022-07-19T13:40:37Z</time>
      </trkpt>
      <trkpt lat="44.37714" lon="6.78114">
        <ele>1834.6</ele>
        <time>2022-07-19T13:40:38Z</time>
      </trkpt>
      <trkpt lat="44.37723" lon="6.78114">
        <ele>1833.8</ele>
        <time>2022-07-19T13:40:39Z</time>
      </trkpt>
      <trkpt lat="44.37733" lon="6.78115">
        <ele>1833</ele>
        <time>2022-07-19T13:40:40Z</time>
      </trkpt>
      <trkpt lat="44.37742" lon="6.78116">
        <ele>1832.2</ele>
        <time>2022-07-19T13:40:41Z</time>
      </trkpt>
      <trkpt lat="44.3775" lon="6.78118">
        <ele>1831.6</ele>
        <time>2022-07-19T13:40:42Z</time>
      </trkpt>
      <trkpt lat="44.37758" lon="6.78121">
        <ele>1830.8</ele>
        <time>2022-07-19T13:40:43Z</time>
      </trkpt>
      <trkpt lat="44.37766" lon="6.78125">
        <ele>1830</ele>
        <time>2022-07-19T13:40:44Z</time>
      </trkpt>
      <trkpt lat="44.37772" lon="6.78132">
        <ele>1829.4</ele>
        <time>2022-07-19T13:40:45Z</time>
      </trkpt>
      <trkpt lat="44.37779" lon="6.78141">
        <ele>1828.6</ele>
        <time>2022-07-19T13:40:46Z</time>
      </trkpt>
      <trkpt lat="44.37785" lon="6.78151">
        <ele>1827.8</ele>
        <time>2022-07-19T13:40:47Z</time>
      </trkpt>
      <trkpt lat="44.37793" lon="6.78161">
        <ele>1827</ele>
        <time>2022-07-19T13:40:48Z</time>
      </trkpt>
      <trkpt lat="44.37802" lon="6.78169">
        <ele>1826</ele>
        <time>2022-07-19T13:40:49Z</time>
      </trkpt>
      <trkpt lat="44.37811" lon="6.78175">
        <ele>1825.2</ele>
        <time>2022-07-19T13:40:50Z</time>
      </trkpt>
      <trkpt lat="44.37822" lon="6.7818">
        <ele>1824.2</ele>
        <time>2022-07-19T13:40:51Z</time>
      </trkpt>
      <trkpt lat="44.37834" lon="6.78184">
        <ele>1823.2</ele>
        <time>2022-07-19T13:40:52Z</time>
      </trkpt>
      <trkpt lat="44.37846" lon="6.78187">
        <ele>1822.2</ele>
        <time>2022-07-19T13:40:53Z</time>
      </trkpt>
      <trkpt lat="44.37858" lon="6.78189">
        <ele>1821.4</ele>
        <time>2022-07-19T13:40:54Z</time>
      </trkpt>
      <trkpt lat="44.3787" lon="6.7819">
        <ele>1820.6</ele>
        <time>2022-07-19T13:40:55Z</time>
      </trkpt>
      <trkpt lat="44.37883" lon="6.7819">
        <ele>1819.6</ele>
        <time>2022-07-19T13:40:56Z</time>
      </trkpt>
      <trkpt lat="44.37896" lon="6.78192">
        <ele>1818.6</ele>
        <time>2022-07-19T13:40:57Z</time>
      </trkpt>
      <trkpt lat="44.37909" lon="6.78194">
        <ele>1817.6</ele>
        <time>2022-07-19T13:40:58Z</time>
      </trkpt>
      <trkpt lat="44.37922" lon="6.78196">
        <ele>1816.6</ele>
        <time>2022-07-19T13:40:59Z</time>
      </trkpt>
      <trkpt lat="44.37935" lon="6.78198">
        <ele>1815.6</ele>
        <time>2022-07-19T13:41:00Z</time>
      </trkpt>
      <trkpt lat="44.37948" lon="6.782">
        <ele>1814.6</ele>
        <time>2022-07-19T13:41:01Z</time>
      </trkpt>
      <trkpt lat="44.37961" lon="6.782">
        <ele>1813.6</ele>
        <time>2022-07-19T13:41:02Z</time>
      </trkpt>
      <trkpt lat="44.37975" lon="6.78199">
        <ele>1812.4</ele>
        <time>2022-07-19T13:41:03Z</time>
      </trkpt>
      <trkpt lat="44.37988" lon="6.78197">
        <ele>1811.2</ele>
        <time>2022-07-19T13:41:04Z</time>
      </trkpt>
      <trkpt lat="44.38002" lon="6.78193">
        <ele>1810.2</ele>
        <time>2022-07-19T13:41:05Z</time>
      </trkpt>
      <trkpt lat="44.38015" lon="6.78188">
        <ele>1809.2</ele>
        <time>2022-07-19T13:41:06Z</time>
      </trkpt>
      <trkpt lat="44.38027" lon="6.78183">
        <ele>1808.2</ele>
        <time>2022-07-19T13:41:07Z</time>
      </trkpt>
      <trkpt lat="44.3804" lon="6.78177">
        <ele>1807.2</ele>
        <time>2022-07-19T13:41:08Z</time>
      </trkpt>
      <trkpt lat="44.38052" lon="6.78172">
        <ele>1806</ele>
        <time>2022-07-19T13:41:09Z</time>
      </trkpt>
      <trkpt lat="44.38064" lon="6.78167">
        <ele>1805</ele>
        <time>2022-07-19T13:41:10Z</time>
      </trkpt>
      <trkpt lat="44.38075" lon="6.7816">
        <ele>1804.2</ele>
        <time>2022-07-19T13:41:11Z</time>
      </trkpt>
      <trkpt lat="44.38086" lon="6.78155">
        <ele>1803.2</ele>
        <time>2022-07-19T13:41:12Z</time>
      </trkpt>
      <trkpt lat="44.38097" lon="6.78151">
        <ele>1802.4</ele>
        <time>2022-07-19T13:41:13Z</time>
      </trkpt>
      <trkpt lat="44.38108" lon="6.78149">
        <ele>1801.6</ele>
        <time>2022-07-19T13:41:14Z</time>
      </trkpt>
      <trkpt lat="44.3812" lon="6.78149">
        <ele>1800.6</ele>
        <time>2022-07-19T13:41:15Z</time>
      </trkpt>
      <trkpt lat="44.38132" lon="6.78151">
        <ele>1799.8</ele>
        <time>2022-07-19T13:41:16Z</time>
      </trkpt>
      <trkpt lat="44.38143" lon="6.78155">
        <ele>1798.8</ele>
        <time>2022-07-19T13:41:17Z</time>
      </trkpt>
      <trkpt lat="44.38153" lon="6.78157">
        <ele>1797.8</ele>
        <time>2022-07-19T13:41:18Z</time>
      </trkpt>
      <trkpt lat="44.38163" lon="6.78158">
        <ele>1797</ele>
        <time>2022-07-19T13:41:19Z</time>
      </trkpt>
      <trkpt lat="44.38172" lon="6.78157">
        <ele>1796.4</ele>
        <time>2022-07-19T13:41:20Z</time>
      </trkpt>
      <trkpt lat="44.38179" lon="6.78156">
        <ele>1795.8</ele>
        <time>2022-07-19T13:41:21Z</time>
      </trkpt>
      <trkpt lat="44.38184" lon="6.78153">
        <ele>1795.2</ele>
        <time>2022-07-19T13:41:22Z</time>
      </trkpt>
      <trkpt lat="44.38188" lon="6.78148">
        <ele>1794.8</ele>
        <time>2022-07-19T13:41:23Z</time>
      </trkpt>
      <trkpt lat="44.3819" lon="6.78142">
        <ele>1794.4</ele>
        <time>2022-07-19T13:41:24Z</time>
      </trkpt>
      <trkpt lat="44.38188" lon="6.78136">
        <ele>1793.8</ele>
        <time>2022-07-19T13:41:25Z</time>
      </trkpt>
      <trkpt lat="44.38184" lon="6.78131">
        <ele>1793.4</ele>
        <time>2022-07-19T13:41:26Z</time>
      </trkpt>
      <trkpt lat="44.38179" lon="6.78128">
        <ele>1792.8</ele>
        <time>2022-07-19T13:41:27Z</time>
      </trkpt>
      <trkpt lat="44.38172" lon="6.78127">
        <ele>1792.4</ele>
        <time>2022-07-19T13:41:28Z</time>
      </trkpt>
      <trkpt lat="44.38164" lon="6.78126">
        <ele>1791.8</ele>
        <time>2022-07-19T13:41:29Z</time>
      </trkpt>
      <trkpt lat="44.38156" lon="6.78123">
        <ele>1791.2</ele>
        <time>2022-07-19T13:41:30Z</time>
      </trkpt>
      <trkpt lat="44.38149" lon="6.78118">
        <ele>1790.6</ele>
        <time>2022-07-19T13:41:31Z</time>
      </trkpt>
      <trkpt lat="44.38141" lon="6.78111">
        <ele>1789.8</ele>
        <time>2022-07-19T13:41:32Z</time>
      </trkpt>
      <trkpt lat="44.38134" lon="6.78102">
        <ele>1789.2</ele>
        <time>2022-07-19T13:41:33Z</time>
      </trkpt>
      <trkpt lat="44.38127" lon="6.78094">
        <ele>1788.6</ele>
        <time>2022-07-19T13:41:34Z</time>
      </trkpt>
      <trkpt lat="44.38118" lon="6.78087">
        <ele>1788</ele>
        <time>2022-07-19T13:41:35Z</time>
      </trkpt>
      <trkpt lat="44.3811" lon="6.78081">
        <ele>1787.2</ele>
        <time>2022-07-19T13:41:36Z</time>
      </trkpt>
      <trkpt lat="44.381" lon="6.78076">
        <ele>1787.2</ele>
        <time>2022-07-19T13:41:37Z</time>
      </trkpt>
      <trkpt lat="44.38091" lon="6.78074">
        <ele>1786.4</ele>
        <time>2022-07-19T13:41:38Z</time>
      </trkpt>
      <trkpt lat="44.38083" lon="6.78074">
        <ele>1785.6</ele>
        <time>2022-07-19T13:41:39Z</time>
      </trkpt>
      <trkpt lat="44.38077" lon="6.78074">
        <ele>1785</ele>
        <time>2022-07-19T13:41:40Z</time>
      </trkpt>
      <trkpt lat="44.38072" lon="6.78072">
        <ele>1784.6</ele>
        <time>2022-07-19T13:41:41Z</time>
      </trkpt>
      <trkpt lat="44.38069" lon="6.78068">
        <ele>1783.8</ele>
        <time>2022-07-19T13:41:42Z</time>
      </trkpt>
      <trkpt lat="44.38068" lon="6.78062">
        <ele>1783.4</ele>
        <time>2022-07-19T13:41:43Z</time>
      </trkpt>
      <trkpt lat="44.3807" lon="6.78057">
        <ele>1782.8</ele>
        <time>2022-07-19T13:41:44Z</time>
      </trkpt>
      <trkpt lat="44.38075" lon="6.78053">
        <ele>1782.4</ele>
        <time>2022-07-19T13:41:45Z</time>
      </trkpt>
      <trkpt lat="44.38081" lon="6.78052">
        <ele>1782</ele>
        <time>2022-07-19T13:41:46Z</time>
      </trkpt>
      <trkpt lat="44.38088" lon="6.78052">
        <ele>1781.6</ele>
        <time>2022-07-19T13:41:47Z</time>
      </trkpt>
      <trkpt lat="44.38095" lon="6.78051">
        <ele>1781.2</ele>
        <time>2022-07-19T13:41:48Z</time>
      </trkpt>
      <trkpt lat="44.38102" lon="6.78048">
        <ele>1780.6</ele>
        <time>2022-07-19T13:41:49Z</time>
      </trkpt>
      <trkpt lat="44.3811" lon="6.78043">
        <ele>1779.8</ele>
        <time>2022-07-19T13:41:50Z</time>
      </trkpt>
      <trkpt lat="44.38118" lon="6.78038">
        <ele>1779.2</ele>
        <time>2022-07-19T13:41:51Z</time>
      </trkpt>
      <trkpt lat="44.38127" lon="6.78035">
        <ele>1778.4</ele>
        <time>2022-07-19T13:41:52Z</time>
      </trkpt>
      <trkpt lat="44.38136" lon="6.78035">
        <ele>1777.6</ele>
        <time>2022-07-19T13:41:53Z</time>
      </trkpt>
      <trkpt lat="44.38146" lon="6.78039">
        <ele>1776.8</ele>
        <time>2022-07-19T13:41:54Z</time>
      </trkpt>
      <trkpt lat="44.38156" lon="6.78043">
        <ele>1775.8</ele>
        <time>2022-07-19T13:41:55Z</time>
      </trkpt>
      <trkpt lat="44.38166" lon="6.78047">
        <ele>1774.8</ele>
        <time>2022-07-19T13:41:56Z</time>
      </trkpt>
      <trkpt lat="44.38177" lon="6.78045">
        <ele>1773.8</ele>
        <time>2022-07-19T13:41:57Z</time>
      </trkpt>
      <trkpt lat="44.38188" lon="6.78041">
        <ele>1773</ele>
        <time>2022-07-19T13:41:58Z</time>
      </trkpt>
      <trkpt lat="44.38199" lon="6.78036">
        <ele>1771.8</ele>
        <time>2022-07-19T13:41:59Z</time>
      </trkpt>
      <trkpt lat="44.38211" lon="6.78033">
        <ele>1771</ele>
        <time>2022-07-19T13:42:00Z</time>
      </trkpt>
      <trkpt lat="44.38224" lon="6.78031">
        <ele>1770</ele>
        <time>2022-07-19T13:42:01Z</time>
      </trkpt>
      <trkpt lat="44.38236" lon="6.7803">
        <ele>1769</ele>
        <time>2022-07-19T13:42:02Z</time>
      </trkpt>
      <trkpt lat="44.38247" lon="6.78029">
        <ele>1768</ele>
        <time>2022-07-19T13:42:03Z</time>
      </trkpt>
      <trkpt lat="44.38257" lon="6.7803">
        <ele>1767.2</ele>
        <time>2022-07-19T13:42:04Z</time>
      </trkpt>
      <trkpt lat="44.38266" lon="6.78035">
        <ele>1766.4</ele>
        <time>2022-07-19T13:42:05Z</time>
      </trkpt>
      <trkpt lat="44.38273" lon="6.78044">
        <ele>1765.6</ele>
        <time>2022-07-19T13:42:06Z</time>
      </trkpt>
      <trkpt lat="44.38281" lon="6.78052">
        <ele>1764.8</ele>
        <time>2022-07-19T13:42:07Z</time>
      </trkpt>
      <trkpt lat="44.38289" lon="6.78057">
        <ele>1764</ele>
        <time>2022-07-19T13:42:08Z</time>
      </trkpt>
      <trkpt lat="44.38298" lon="6.78059">
        <ele>1763.4</ele>
        <time>2022-07-19T13:42:09Z</time>
      </trkpt>
      <trkpt lat="44.38307" lon="6.78057">
        <ele>1763</ele>
        <time>2022-07-19T13:42:10Z</time>
      </trkpt>
      <trkpt lat="44.38316" lon="6.78053">
        <ele>1762.6</ele>
        <time>2022-07-19T13:42:11Z</time>
      </trkpt>
      <trkpt lat="44.38325" lon="6.78048">
        <ele>1762.4</ele>
        <time>2022-07-19T13:42:12Z</time>
      </trkpt>
      <trkpt lat="44.38334" lon="6.78045">
        <ele>1762.4</ele>
        <time>2022-07-19T13:42:13Z</time>
      </trkpt>
      <trkpt lat="44.38343" lon="6.78044">
        <ele>1762.2</ele>
        <time>2022-07-19T13:42:14Z</time>
      </trkpt>
      <trkpt lat="44.38351" lon="6.78046">
        <ele>1762.2</ele>
        <time>2022-07-19T13:42:15Z</time>
      </trkpt>
      <trkpt lat="44.38359" lon="6.78049">
        <ele>1762.2</ele>
        <time>2022-07-19T13:42:16Z</time>
      </trkpt>
      <trkpt lat="44.38367" lon="6.78052">
        <ele>1762</ele>
        <time>2022-07-19T13:42:17Z</time>
      </trkpt>
      <trkpt lat="44.38375" lon="6.78052">
        <ele>1762</ele>
        <time>2022-07-19T13:42:18Z</time>
      </trkpt>
      <trkpt lat="44.38382" lon="6.78047">
        <ele>1761.6</ele>
        <time>2022-07-19T13:42:19Z</time>
      </trkpt>
      <trkpt lat="44.38389" lon="6.7804">
        <ele>1761.6</ele>
        <time>2022-07-19T13:42:20Z</time>
      </trkpt>
      <trkpt lat="44.38397" lon="6.78034">
        <ele>1761</ele>
        <time>2022-07-19T13:42:21Z</time>
      </trkpt>
      <trkpt lat="44.38406" lon="6.78027">
        <ele>1760.4</ele>
        <time>2022-07-19T13:42:22Z</time>
      </trkpt>
      <trkpt lat="44.38416" lon="6.78021">
        <ele>1759.8</ele>
        <time>2022-07-19T13:42:23Z</time>
      </trkpt>
      <trkpt lat="44.38426" lon="6.78015">
        <ele>1759</ele>
        <time>2022-07-19T13:42:24Z</time>
      </trkpt>
      <trkpt lat="44.38436" lon="6.78007">
        <ele>1758.2</ele>
        <time>2022-07-19T13:42:25Z</time>
      </trkpt>
      <trkpt lat="44.38446" lon="6.78">
        <ele>1757.2</ele>
        <time>2022-07-19T13:42:26Z</time>
      </trkpt>
      <trkpt lat="44.38454" lon="6.77994">
        <ele>1756.4</ele>
        <time>2022-07-19T13:42:27Z</time>
      </trkpt>
      <trkpt lat="44.38463" lon="6.7799">
        <ele>1755.6</ele>
        <time>2022-07-19T13:42:28Z</time>
      </trkpt>
      <trkpt lat="44.38471" lon="6.7799">
        <ele>1754.8</ele>
        <time>2022-07-19T13:42:29Z</time>
      </trkpt>
      <trkpt lat="44.38478" lon="6.77994">
        <ele>1754.2</ele>
        <time>2022-07-19T13:42:30Z</time>
      </trkpt>
      <trkpt lat="44.38484" lon="6.78001">
        <ele>1753.4</ele>
        <time>2022-07-19T13:42:31Z</time>
      </trkpt>
      <trkpt lat="44.3849" lon="6.7801">
        <ele>1752.8</ele>
        <time>2022-07-19T13:42:32Z</time>
      </trkpt>
      <trkpt lat="44.38496" lon="6.78021">
        <ele>1752.2</ele>
        <time>2022-07-19T13:42:33Z</time>
      </trkpt>
      <trkpt lat="44.38503" lon="6.78032">
        <ele>1751.4</ele>
        <time>2022-07-19T13:42:34Z</time>
      </trkpt>
      <trkpt lat="44.38512" lon="6.78038">
        <ele>1750.6</ele>
        <time>2022-07-19T13:42:35Z</time>
      </trkpt>
      <trkpt lat="44.38523" lon="6.78042">
        <ele>1749.4</ele>
        <time>2022-07-19T13:42:36Z</time>
      </trkpt>
      <trkpt lat="44.38535" lon="6.78044">
        <ele>1748.4</ele>
        <time>2022-07-19T13:42:37Z</time>
      </trkpt>
      <trkpt lat="44.38547" lon="6.78046">
        <ele>1747.4</ele>
        <time>2022-07-19T13:42:38Z</time>
      </trkpt>
      <trkpt lat="44.38558" lon="6.78046">
        <ele>1746.4</ele>
        <time>2022-07-19T13:42:39Z</time>
      </trkpt>
      <trkpt lat="44.38569" lon="6.78046">
        <ele>1745.4</ele>
        <time>2022-07-19T13:42:40Z</time>
      </trkpt>
      <trkpt lat="44.3858" lon="6.78047">
        <ele>1744.4</ele>
        <time>2022-07-19T13:42:41Z</time>
      </trkpt>
      <trkpt lat="44.3859" lon="6.78045">
        <ele>1743.6</ele>
        <time>2022-07-19T13:42:42Z</time>
      </trkpt>
      <trkpt lat="44.38598" lon="6.78042">
        <ele>1742.8</ele>
        <time>2022-07-19T13:42:43Z</time>
      </trkpt>
      <trkpt lat="44.38606" lon="6.78041">
        <ele>1742</ele>
        <time>2022-07-19T13:42:44Z</time>
      </trkpt>
      <trkpt lat="44.38614" lon="6.78044">
        <ele>1741</ele>
        <time>2022-07-19T13:42:45Z</time>
      </trkpt>
      <trkpt lat="44.38622" lon="6.78049">
        <ele>1740.2</ele>
        <time>2022-07-19T13:42:46Z</time>
      </trkpt>
      <trkpt lat="44.3863" lon="6.78055">
        <ele>1739.4</ele>
        <time>2022-07-19T13:42:47Z</time>
      </trkpt>
      <trkpt lat="44.38638" lon="6.7806">
        <ele>1738.6</ele>
        <time>2022-07-19T13:42:48Z</time>
      </trkpt>
      <trkpt lat="44.38647" lon="6.78063">
        <ele>1738</ele>
        <time>2022-07-19T13:42:49Z</time>
      </trkpt>
      <trkpt lat="44.38655" lon="6.78067">
        <ele>1737.2</ele>
        <time>2022-07-19T13:42:50Z</time>
      </trkpt>
      <trkpt lat="44.38662" lon="6.78074">
        <ele>1736.4</ele>
        <time>2022-07-19T13:42:51Z</time>
      </trkpt>
      <trkpt lat="44.38669" lon="6.78082">
        <ele>1735.6</ele>
        <time>2022-07-19T13:42:52Z</time>
      </trkpt>
      <trkpt lat="44.38676" lon="6.78092">
        <ele>1734.6</ele>
        <time>2022-07-19T13:42:53Z</time>
      </trkpt>
      <trkpt lat="44.38684" lon="6.78099">
        <ele>1733.8</ele>
        <time>2022-07-19T13:42:54Z</time>
      </trkpt>
      <trkpt lat="44.38694" lon="6.78104">
        <ele>1733</ele>
        <time>2022-07-19T13:42:55Z</time>
      </trkpt>
      <trkpt lat="44.38705" lon="6.78103">
        <ele>1732</ele>
        <time>2022-07-19T13:42:56Z</time>
      </trkpt>
      <trkpt lat="44.38716" lon="6.78098">
        <ele>1731.2</ele>
        <time>2022-07-19T13:42:57Z</time>
      </trkpt>
      <trkpt lat="44.38724" lon="6.7809">
        <ele>1730.2</ele>
        <time>2022-07-19T13:42:58Z</time>
      </trkpt>
      <trkpt lat="44.38735" lon="6.78083">
        <ele>1729.2</ele>
        <time>2022-07-19T13:42:59Z</time>
      </trkpt>
      <trkpt lat="44.38747" lon="6.78078">
        <ele>1728.2</ele>
        <time>2022-07-19T13:43:00Z</time>
      </trkpt>
      <trkpt lat="44.3876" lon="6.78077">
        <ele>1727</ele>
        <time>2022-07-19T13:43:01Z</time>
      </trkpt>
      <trkpt lat="44.38772" lon="6.78075">
        <ele>1725.8</ele>
        <time>2022-07-19T13:43:02Z</time>
      </trkpt>
      <trkpt lat="44.38785" lon="6.78073">
        <ele>1724.8</ele>
        <time>2022-07-19T13:43:03Z</time>
      </trkpt>
      <trkpt lat="44.38798" lon="6.78069">
        <ele>1723.6</ele>
        <time>2022-07-19T13:43:04Z</time>
      </trkpt>
      <trkpt lat="44.3881" lon="6.78065">
        <ele>1722.2</ele>
        <time>2022-07-19T13:43:05Z</time>
      </trkpt>
      <trkpt lat="44.38822" lon="6.78062">
        <ele>1721</ele>
        <time>2022-07-19T13:43:06Z</time>
      </trkpt>
      <trkpt lat="44.38836" lon="6.78061">
        <ele>1719.6</ele>
        <time>2022-07-19T13:43:07Z</time>
      </trkpt>
      <trkpt lat="44.38848" lon="6.78062">
        <ele>1718.2</ele>
        <time>2022-07-19T13:43:08Z</time>
      </trkpt>
      <trkpt lat="44.38861" lon="6.78062">
        <ele>1717</ele>
        <time>2022-07-19T13:43:09Z</time>
      </trkpt>
      <trkpt lat="44.38873" lon="6.78061">
        <ele>1715.8</ele>
        <time>2022-07-19T13:43:10Z</time>
      </trkpt>
      <trkpt lat="44.38884" lon="6.78059">
        <ele>1714.6</ele>
        <time>2022-07-19T13:43:11Z</time>
      </trkpt>
      <trkpt lat="44.38894" lon="6.78059">
        <ele>1713.6</ele>
        <time>2022-07-19T13:43:12Z</time>
      </trkpt>
      <trkpt lat="44.38901" lon="6.7806">
        <ele>1712.6</ele>
        <time>2022-07-19T13:43:13Z</time>
      </trkpt>
      <trkpt lat="44.38908" lon="6.78063">
        <ele>1711.8</ele>
        <time>2022-07-19T13:43:14Z</time>
      </trkpt>
      <trkpt lat="44.38914" lon="6.78068">
        <ele>1711</ele>
        <time>2022-07-19T13:43:15Z</time>
      </trkpt>
      <trkpt lat="44.38917" lon="6.78075">
        <ele>1710.2</ele>
        <time>2022-07-19T13:43:16Z</time>
      </trkpt>
      <trkpt lat="44.38921" lon="6.78079">
        <ele>1709.6</ele>
        <time>2022-07-19T13:43:17Z</time>
      </trkpt>
      <trkpt lat="44.38925" lon="6.78082">
        <ele>1709</ele>
        <time>2022-07-19T13:43:18Z</time>
      </trkpt>
      <trkpt lat="44.38929" lon="6.78081">
        <ele>1708.6</ele>
        <time>2022-07-19T13:43:19Z</time>
      </trkpt>
      <trkpt lat="44.38932" lon="6.78077">
        <ele>1708</ele>
        <time>2022-07-19T13:43:20Z</time>
      </trkpt>
      <trkpt lat="44.38932" lon="6.78071">
        <ele>1707.6</ele>
        <time>2022-07-19T13:43:21Z</time>
      </trkpt>
      <trkpt lat="44.38928" lon="6.78065">
        <ele>1707.2</ele>
        <time>2022-07-19T13:43:22Z</time>
      </trkpt>
      <trkpt lat="44.38924" lon="6.78058">
        <ele>1707</ele>
        <time>2022-07-19T13:43:23Z</time>
      </trkpt>
      <trkpt lat="44.38919" lon="6.78052">
        <ele>1706.6</ele>
        <time>2022-07-19T13:43:24Z</time>
      </trkpt>
      <trkpt lat="44.38913" lon="6.78046">
        <ele>1706.4</ele>
        <time>2022-07-19T13:43:25Z</time>
      </trkpt>
      <trkpt lat="44.38907" lon="6.78041">
        <ele>1706</ele>
        <time>2022-07-19T13:43:26Z</time>
      </trkpt>
      <trkpt lat="44.389" lon="6.78035">
        <ele>1705.6</ele>
        <time>2022-07-19T13:43:27Z</time>
      </trkpt>
      <trkpt lat="44.38894" lon="6.78029">
        <ele>1705.2</ele>
        <time>2022-07-19T13:43:28Z</time>
      </trkpt>
      <trkpt lat="44.38886" lon="6.78024">
        <ele>1704.8</ele>
        <time>2022-07-19T13:43:29Z</time>
      </trkpt>
      <trkpt lat="44.38878" lon="6.7802">
        <ele>1704.2</ele>
        <time>2022-07-19T13:43:30Z</time>
      </trkpt>
      <trkpt lat="44.38868" lon="6.78016">
        <ele>1703.4</ele>
        <time>2022-07-19T13:43:31Z</time>
      </trkpt>
      <trkpt lat="44.38858" lon="6.78014">
        <ele>1702.8</ele>
        <time>2022-07-19T13:43:32Z</time>
      </trkpt>
      <trkpt lat="44.38848" lon="6.78012">
        <ele>1702</ele>
        <time>2022-07-19T13:43:33Z</time>
      </trkpt>
      <trkpt lat="44.38837" lon="6.78011">
        <ele>1701</ele>
        <time>2022-07-19T13:43:34Z</time>
      </trkpt>
      <trkpt lat="44.38825" lon="6.78012">
        <ele>1700.4</ele>
        <time>2022-07-19T13:43:35Z</time>
      </trkpt>
      <trkpt lat="44.38815" lon="6.78012">
        <ele>1699.6</ele>
        <time>2022-07-19T13:43:36Z</time>
      </trkpt>
      <trkpt lat="44.38806" lon="6.78009">
        <ele>1698.8</ele>
        <time>2022-07-19T13:43:37Z</time>
      </trkpt>
      <trkpt lat="44.38797" lon="6.78005">
        <ele>1698</ele>
        <time>2022-07-19T13:43:38Z</time>
      </trkpt>
      <trkpt lat="44.3879" lon="6.78">
        <ele>1697.4</ele>
        <time>2022-07-19T13:43:39Z</time>
      </trkpt>
      <trkpt lat="44.38784" lon="6.77996">
        <ele>1696.6</ele>
        <time>2022-07-19T13:43:40Z</time>
      </trkpt>
      <trkpt lat="44.38777" lon="6.77994">
        <ele>1696</ele>
        <time>2022-07-19T13:43:41Z</time>
      </trkpt>
      <trkpt lat="44.38771" lon="6.77995">
        <ele>1695.4</ele>
        <time>2022-07-19T13:43:42Z</time>
      </trkpt>
      <trkpt lat="44.38765" lon="6.77998">
        <ele>1694.8</ele>
        <time>2022-07-19T13:43:43Z</time>
      </trkpt>
      <trkpt lat="44.3876" lon="6.77998">
        <ele>1694.4</ele>
        <time>2022-07-19T13:43:44Z</time>
      </trkpt>
      <trkpt lat="44.38757" lon="6.77995">
        <ele>1694</ele>
        <time>2022-07-19T13:43:45Z</time>
      </trkpt>
      <trkpt lat="44.38756" lon="6.77988">
        <ele>1693.6</ele>
        <time>2022-07-19T13:43:46Z</time>
      </trkpt>
      <trkpt lat="44.38758" lon="6.77981">
        <ele>1693</ele>
        <time>2022-07-19T13:43:47Z</time>
      </trkpt>
      <trkpt lat="44.38763" lon="6.77975">
        <ele>1692.6</ele>
        <time>2022-07-19T13:43:48Z</time>
      </trkpt>
      <trkpt lat="44.3877" lon="6.77973">
        <ele>1692.2</ele>
        <time>2022-07-19T13:43:49Z</time>
      </trkpt>
      <trkpt lat="44.38778" lon="6.77972">
        <ele>1691.8</ele>
        <time>2022-07-19T13:43:50Z</time>
      </trkpt>
      <trkpt lat="44.38786" lon="6.77971">
        <ele>1691.4</ele>
        <time>2022-07-19T13:43:51Z</time>
      </trkpt>
      <trkpt lat="44.38793" lon="6.7797">
        <ele>1691</ele>
        <time>2022-07-19T13:43:52Z</time>
      </trkpt>
      <trkpt lat="44.38801" lon="6.77972">
        <ele>1690.6</ele>
        <time>2022-07-19T13:43:53Z</time>
      </trkpt>
      <trkpt lat="44.38808" lon="6.77975">
        <ele>1690</ele>
        <time>2022-07-19T13:43:54Z</time>
      </trkpt>
      <trkpt lat="44.38817" lon="6.77977">
        <ele>1689.2</ele>
        <time>2022-07-19T13:43:55Z</time>
      </trkpt>
      <trkpt lat="44.38825" lon="6.77978">
        <ele>1688.6</ele>
        <time>2022-07-19T13:43:56Z</time>
      </trkpt>
      <trkpt lat="44.38834" lon="6.77975">
        <ele>1687.8</ele>
        <time>2022-07-19T13:43:57Z</time>
      </trkpt>
      <trkpt lat="44.38843" lon="6.77971">
        <ele>1687.2</ele>
        <time>2022-07-19T13:43:58Z</time>
      </trkpt>
      <trkpt lat="44.38851" lon="6.77962">
        <ele>1686.6</ele>
        <time>2022-07-19T13:43:59Z</time>
      </trkpt>
      <trkpt lat="44.38857" lon="6.7795">
        <ele>1686</ele>
        <time>2022-07-19T13:44:00Z</time>
      </trkpt>
      <trkpt lat="44.38862" lon="6.77936">
        <ele>1685.2</ele>
        <time>2022-07-19T13:44:01Z</time>
      </trkpt>
      <trkpt lat="44.38866" lon="6.77923">
        <ele>1684.4</ele>
        <time>2022-07-19T13:44:02Z</time>
      </trkpt>
      <trkpt lat="44.38871" lon="6.77913">
        <ele>1683.6</ele>
        <time>2022-07-19T13:44:03Z</time>
      </trkpt>
      <trkpt lat="44.38876" lon="6.77905">
        <ele>1682.8</ele>
        <time>2022-07-19T13:44:04Z</time>
      </trkpt>
      <trkpt lat="44.38883" lon="6.779">
        <ele>1682</ele>
        <time>2022-07-19T13:44:05Z</time>
      </trkpt>
      <trkpt lat="44.3889" lon="6.77897">
        <ele>1681</ele>
        <time>2022-07-19T13:44:06Z</time>
      </trkpt>
      <trkpt lat="44.38899" lon="6.77898">
        <ele>1680.2</ele>
        <time>2022-07-19T13:44:07Z</time>
      </trkpt>
      <trkpt lat="44.38907" lon="6.77903">
        <ele>1679.2</ele>
        <time>2022-07-19T13:44:08Z</time>
      </trkpt>
      <trkpt lat="44.38915" lon="6.77912">
        <ele>1678.2</ele>
        <time>2022-07-19T13:44:09Z</time>
      </trkpt>
      <trkpt lat="44.38922" lon="6.77921">
        <ele>1677.4</ele>
        <time>2022-07-19T13:44:10Z</time>
      </trkpt>
      <trkpt lat="44.38928" lon="6.7793">
        <ele>1676.4</ele>
        <time>2022-07-19T13:44:11Z</time>
      </trkpt>
      <trkpt lat="44.38933" lon="6.77938">
        <ele>1675.6</ele>
        <time>2022-07-19T13:44:12Z</time>
      </trkpt>
      <trkpt lat="44.38937" lon="6.77944">
        <ele>1674.8</ele>
        <time>2022-07-19T13:44:13Z</time>
      </trkpt>
      <trkpt lat="44.38942" lon="6.77948">
        <ele>1674</ele>
        <time>2022-07-19T13:44:14Z</time>
      </trkpt>
      <trkpt lat="44.38947" lon="6.77948">
        <ele>1673.4</ele>
        <time>2022-07-19T13:44:15Z</time>
      </trkpt>
      <trkpt lat="44.3895" lon="6.77946">
        <ele>1673</ele>
        <time>2022-07-19T13:44:16Z</time>
      </trkpt>
      <trkpt lat="44.38953" lon="6.77942">
        <ele>1672.4</ele>
        <time>2022-07-19T13:44:17Z</time>
      </trkpt>
      <trkpt lat="44.38953" lon="6.77936">
        <ele>1672</ele>
        <time>2022-07-19T13:44:18Z</time>
      </trkpt>
      <trkpt lat="44.38949" lon="6.77928">
        <ele>1671.6</ele>
        <time>2022-07-19T13:44:19Z</time>
      </trkpt>
      <trkpt lat="44.38945" lon="6.77921">
        <ele>1671.2</ele>
        <time>2022-07-19T13:44:20Z</time>
      </trkpt>
      <trkpt lat="44.3894" lon="6.77914">
        <ele>1671</ele>
        <time>2022-07-19T13:44:21Z</time>
      </trkpt>
      <trkpt lat="44.38935" lon="6.77906">
        <ele>1670.6</ele>
        <time>2022-07-19T13:44:22Z</time>
      </trkpt>
      <trkpt lat="44.38931" lon="6.77899">
        <ele>1670.4</ele>
        <time>2022-07-19T13:44:23Z</time>
      </trkpt>
      <trkpt lat="44.38927" lon="6.77891">
        <ele>1670</ele>
        <time>2022-07-19T13:44:24Z</time>
      </trkpt>
      <trkpt lat="44.38922" lon="6.77883">
        <ele>1669.8</ele>
        <time>2022-07-19T13:44:25Z</time>
      </trkpt>
      <trkpt lat="44.38918" lon="6.77874">
        <ele>1669.6</ele>
        <time>2022-07-19T13:44:26Z</time>
      </trkpt>
      <trkpt lat="44.38914" lon="6.77864">
        <ele>1669</ele>
        <time>2022-07-19T13:44:27Z</time>
      </trkpt>
      <trkpt lat="44.38909" lon="6.77854">
        <ele>1668.6</ele>
        <time>2022-07-19T13:44:28Z</time>
      </trkpt>
      <trkpt lat="44.38905" lon="6.77845">
        <ele>1668</ele>
        <time>2022-07-19T13:44:29Z</time>
      </trkpt>
      <trkpt lat="44.389" lon="6.77838">
        <ele>1667.6</ele>
        <time>2022-07-19T13:44:30Z</time>
      </trkpt>
      <trkpt lat="44.38893" lon="6.77832">
        <ele>1667</ele>
        <time>2022-07-19T13:44:31Z</time>
      </trkpt>
      <trkpt lat="44.38886" lon="6.7783">
        <ele>1666.2</ele>
        <time>2022-07-19T13:44:32Z</time>
      </trkpt>
      <trkpt lat="44.38878" lon="6.77831">
        <ele>1665.6</ele>
        <time>2022-07-19T13:44:33Z</time>
      </trkpt>
      <trkpt lat="44.38871" lon="6.77835">
        <ele>1664.8</ele>
        <time>2022-07-19T13:44:34Z</time>
      </trkpt>
      <trkpt lat="44.38864" lon="6.77842">
        <ele>1664</ele>
        <time>2022-07-19T13:44:35Z</time>
      </trkpt>
      <trkpt lat="44.38857" lon="6.7785">
        <ele>1663.4</ele>
        <time>2022-07-19T13:44:36Z</time>
      </trkpt>
      <trkpt lat="44.38849" lon="6.77858">
        <ele>1662.6</ele>
        <time>2022-07-19T13:44:37Z</time>
      </trkpt>
      <trkpt lat="44.38841" lon="6.77863">
        <ele>1662.2</ele>
        <time>2022-07-19T13:44:38Z</time>
      </trkpt>
      <trkpt lat="44.38834" lon="6.77867">
        <ele>1661.6</ele>
        <time>2022-07-19T13:44:39Z</time>
      </trkpt>
      <trkpt lat="44.38827" lon="6.77872">
        <ele>1660.6</ele>
        <time>2022-07-19T13:44:40Z</time>
      </trkpt>
      <trkpt lat="44.38821" lon="6.77874">
        <ele>1660</ele>
        <time>2022-07-19T13:44:41Z</time>
      </trkpt>
      <trkpt lat="44.38817" lon="6.77872">
        <ele>1659.2</ele>
        <time>2022-07-19T13:44:42Z</time>
      </trkpt>
      <trkpt lat="44.38814" lon="6.77867">
        <ele>1658.6</ele>
        <time>2022-07-19T13:44:43Z</time>
      </trkpt>
      <trkpt lat="44.38815" lon="6.77861">
        <ele>1657.8</ele>
        <time>2022-07-19T13:44:44Z</time>
      </trkpt>
      <trkpt lat="44.38818" lon="6.77855">
        <ele>1657.4</ele>
        <time>2022-07-19T13:44:45Z</time>
      </trkpt>
      <trkpt lat="44.38824" lon="6.77851">
        <ele>1657</ele>
        <time>2022-07-19T13:44:46Z</time>
      </trkpt>
      <trkpt lat="44.3883" lon="6.77848">
        <ele>1656.4</ele>
        <time>2022-07-19T13:44:47Z</time>
      </trkpt>
      <trkpt lat="44.38837" lon="6.77844">
        <ele>1655.8</ele>
        <time>2022-07-19T13:44:48Z</time>
      </trkpt>
      <trkpt lat="44.38843" lon="6.77838">
        <ele>1655.2</ele>
        <time>2022-07-19T13:44:49Z</time>
      </trkpt>
      <trkpt lat="44.38849" lon="6.77831">
        <ele>1654.6</ele>
        <time>2022-07-19T13:44:50Z</time>
      </trkpt>
      <trkpt lat="44.38855" lon="6.77823">
        <ele>1654</ele>
        <time>2022-07-19T13:44:51Z</time>
      </trkpt>
      <trkpt lat="44.38861" lon="6.77816">
        <ele>1653.4</ele>
        <time>2022-07-19T13:44:52Z</time>
      </trkpt>
      <trkpt lat="44.38867" lon="6.77809">
        <ele>1652.6</ele>
        <time>2022-07-19T13:44:53Z</time>
      </trkpt>
      <trkpt lat="44.38873" lon="6.77802">
        <ele>1652</ele>
        <time>2022-07-19T13:44:54Z</time>
      </trkpt>
      <trkpt lat="44.3888" lon="6.77797">
        <ele>1651.2</ele>
        <time>2022-07-19T13:44:55Z</time>
      </trkpt>
      <trkpt lat="44.38887" lon="6.77796">
        <ele>1650.4</ele>
        <time>2022-07-19T13:44:56Z</time>
      </trkpt>
      <trkpt lat="44.38896" lon="6.77797">
        <ele>1649.8</ele>
        <time>2022-07-19T13:44:57Z</time>
      </trkpt>
      <trkpt lat="44.38905" lon="6.778">
        <ele>1649</ele>
        <time>2022-07-19T13:44:58Z</time>
      </trkpt>
      <trkpt lat="44.38913" lon="6.77803">
        <ele>1648.2</ele>
        <time>2022-07-19T13:44:59Z</time>
      </trkpt>
      <trkpt lat="44.38922" lon="6.77809">
        <ele>1647.4</ele>
        <time>2022-07-19T13:45:00Z</time>
      </trkpt>
      <trkpt lat="44.3893" lon="6.77816">
        <ele>1646.4</ele>
        <time>2022-07-19T13:45:01Z</time>
      </trkpt>
      <trkpt lat="44.38939" lon="6.77822">
        <ele>1645.4</ele>
        <time>2022-07-19T13:45:02Z</time>
      </trkpt>
      <trkpt lat="44.38949" lon="6.77825">
        <ele>1644.4</ele>
        <time>2022-07-19T13:45:03Z</time>
      </trkpt>
      <trkpt lat="44.3896" lon="6.77825">
        <ele>1643.2</ele>
        <time>2022-07-19T13:45:04Z</time>
      </trkpt>
      <trkpt lat="44.38972" lon="6.77824">
        <ele>1642.2</ele>
        <time>2022-07-19T13:45:05Z</time>
      </trkpt>
      <trkpt lat="44.38984" lon="6.77821">
        <ele>1641.2</ele>
        <time>2022-07-19T13:45:06Z</time>
      </trkpt>
      <trkpt lat="44.38995" lon="6.77817">
        <ele>1640.4</ele>
        <time>2022-07-19T13:45:07Z</time>
      </trkpt>
      <trkpt lat="44.39005" lon="6.77811">
        <ele>1639.2</ele>
        <time>2022-07-19T13:45:08Z</time>
      </trkpt>
      <trkpt lat="44.39015" lon="6.77803">
        <ele>1638.2</ele>
        <time>2022-07-19T13:45:09Z</time>
      </trkpt>
      <trkpt lat="44.39023" lon="6.77794">
        <ele>1637.4</ele>
        <time>2022-07-19T13:45:10Z</time>
      </trkpt>
      <trkpt lat="44.39032" lon="6.77786">
        <ele>1636.4</ele>
        <time>2022-07-19T13:45:11Z</time>
      </trkpt>
      <trkpt lat="44.39042" lon="6.77782">
        <ele>1635.6</ele>
        <time>2022-07-19T13:45:12Z</time>
      </trkpt>
      <trkpt lat="44.39052" lon="6.77777">
        <ele>1634.6</ele>
        <time>2022-07-19T13:45:13Z</time>
      </trkpt>
      <trkpt lat="44.39063" lon="6.77773">
        <ele>1633.6</ele>
        <time>2022-07-19T13:45:14Z</time>
      </trkpt>
      <trkpt lat="44.39074" lon="6.77766">
        <ele>1632.6</ele>
        <time>2022-07-19T13:45:15Z</time>
      </trkpt>
      <trkpt lat="44.39084" lon="6.77757">
        <ele>1631.8</ele>
        <time>2022-07-19T13:45:16Z</time>
      </trkpt>
      <trkpt lat="44.39094" lon="6.77748">
        <ele>1630.8</ele>
        <time>2022-07-19T13:45:17Z</time>
      </trkpt>
      <trkpt lat="44.39103" lon="6.77738">
        <ele>1629.8</ele>
        <time>2022-07-19T13:45:18Z</time>
      </trkpt>
      <trkpt lat="44.39113" lon="6.77728">
        <ele>1629</ele>
        <time>2022-07-19T13:45:19Z</time>
      </trkpt>
      <trkpt lat="44.39121" lon="6.77716">
        <ele>1627.8</ele>
        <time>2022-07-19T13:45:20Z</time>
      </trkpt>
      <trkpt lat="44.39127" lon="6.77702">
        <ele>1627</ele>
        <time>2022-07-19T13:45:21Z</time>
      </trkpt>
      <trkpt lat="44.39131" lon="6.77687">
        <ele>1626</ele>
        <time>2022-07-19T13:45:22Z</time>
      </trkpt>
      <trkpt lat="44.39135" lon="6.77672">
        <ele>1625.4</ele>
        <time>2022-07-19T13:45:23Z</time>
      </trkpt>
      <trkpt lat="44.39139" lon="6.77657">
        <ele>1624.6</ele>
        <time>2022-07-19T13:45:24Z</time>
      </trkpt>
      <trkpt lat="44.39142" lon="6.77642">
        <ele>1624</ele>
        <time>2022-07-19T13:45:25Z</time>
      </trkpt>
      <trkpt lat="44.39148" lon="6.77627">
        <ele>1623.2</ele>
        <time>2022-07-19T13:45:26Z</time>
      </trkpt>
      <trkpt lat="44.39151" lon="6.77613">
        <ele>1622.6</ele>
        <time>2022-07-19T13:45:27Z</time>
      </trkpt>
      <trkpt lat="44.39154" lon="6.77597">
        <ele>1621.6</ele>
        <time>2022-07-19T13:45:28Z</time>
      </trkpt>
      <trkpt lat="44.39156" lon="6.77581">
        <ele>1621</ele>
        <time>2022-07-19T13:45:29Z</time>
      </trkpt>
      <trkpt lat="44.39157" lon="6.77565">
        <ele>1620.2</ele>
        <time>2022-07-19T13:45:30Z</time>
      </trkpt>
      <trkpt lat="44.3916" lon="6.77551">
        <ele>1619.2</ele>
        <time>2022-07-19T13:45:31Z</time>
      </trkpt>
      <trkpt lat="44.39164" lon="6.77537">
        <ele>1618.4</ele>
        <time>2022-07-19T13:45:32Z</time>
      </trkpt>
      <trkpt lat="44.39169" lon="6.77525">
        <ele>1617.4</ele>
        <time>2022-07-19T13:45:33Z</time>
      </trkpt>
      <trkpt lat="44.39176" lon="6.77514">
        <ele>1616.4</ele>
        <time>2022-07-19T13:45:34Z</time>
      </trkpt>
      <trkpt lat="44.39183" lon="6.77505">
        <ele>1615.8</ele>
        <time>2022-07-19T13:45:35Z</time>
      </trkpt>
      <trkpt lat="44.39192" lon="6.77496">
        <ele>1615</ele>
        <time>2022-07-19T13:45:36Z</time>
      </trkpt>
      <trkpt lat="44.39201" lon="6.77488">
        <ele>1614.2</ele>
        <time>2022-07-19T13:45:37Z</time>
      </trkpt>
      <trkpt lat="44.3921" lon="6.77479">
        <ele>1613.4</ele>
        <time>2022-07-19T13:45:38Z</time>
      </trkpt>
      <trkpt lat="44.39218" lon="6.77469">
        <ele>1612.6</ele>
        <time>2022-07-19T13:45:39Z</time>
      </trkpt>
      <trkpt lat="44.39225" lon="6.77456">
        <ele>1612</ele>
        <time>2022-07-19T13:45:40Z</time>
      </trkpt>
      <trkpt lat="44.39231" lon="6.77442">
        <ele>1611.2</ele>
        <time>2022-07-19T13:45:41Z</time>
      </trkpt>
      <trkpt lat="44.39238" lon="6.77427">
        <ele>1610.4</ele>
        <time>2022-07-19T13:45:42Z</time>
      </trkpt>
      <trkpt lat="44.39246" lon="6.77413">
        <ele>1609.4</ele>
        <time>2022-07-19T13:45:43Z</time>
      </trkpt>
      <trkpt lat="44.39253" lon="6.77398">
        <ele>1608.4</ele>
        <time>2022-07-19T13:45:44Z</time>
      </trkpt>
      <trkpt lat="44.3926" lon="6.77381">
        <ele>1607.6</ele>
        <time>2022-07-19T13:45:45Z</time>
      </trkpt>
      <trkpt lat="44.39267" lon="6.77365">
        <ele>1606.4</ele>
        <time>2022-07-19T13:45:46Z</time>
      </trkpt>
      <trkpt lat="44.39275" lon="6.7735">
        <ele>1605.2</ele>
        <time>2022-07-19T13:45:47Z</time>
      </trkpt>
      <trkpt lat="44.39282" lon="6.77334">
        <ele>1604</ele>
        <time>2022-07-19T13:45:48Z</time>
      </trkpt>
      <trkpt lat="44.39287" lon="6.77317">
        <ele>1603</ele>
        <time>2022-07-19T13:45:49Z</time>
      </trkpt>
      <trkpt lat="44.39292" lon="6.773">
        <ele>1602</ele>
        <time>2022-07-19T13:45:50Z</time>
      </trkpt>
      <trkpt lat="44.39295" lon="6.77282">
        <ele>1601</ele>
        <time>2022-07-19T13:45:51Z</time>
      </trkpt>
      <trkpt lat="44.39298" lon="6.77264">
        <ele>1600</ele>
        <time>2022-07-19T13:45:52Z</time>
      </trkpt>
      <trkpt lat="44.39301" lon="6.77247">
        <ele>1599</ele>
        <time>2022-07-19T13:45:53Z</time>
      </trkpt>
      <trkpt lat="44.39306" lon="6.7723">
        <ele>1598</ele>
        <time>2022-07-19T13:45:54Z</time>
      </trkpt>
      <trkpt lat="44.39312" lon="6.77214">
        <ele>1597</ele>
        <time>2022-07-19T13:45:55Z</time>
      </trkpt>
      <trkpt lat="44.3932" lon="6.77199">
        <ele>1595.8</ele>
        <time>2022-07-19T13:45:56Z</time>
      </trkpt>
      <trkpt lat="44.39329" lon="6.77186">
        <ele>1594.8</ele>
        <time>2022-07-19T13:45:57Z</time>
      </trkpt>
      <trkpt lat="44.39338" lon="6.77172">
        <ele>1593.6</ele>
        <time>2022-07-19T13:45:58Z</time>
      </trkpt>
      <trkpt lat="44.39348" lon="6.77159">
        <ele>1592.6</ele>
        <time>2022-07-19T13:45:59Z</time>
      </trkpt>
      <trkpt lat="44.39357" lon="6.77145">
        <ele>1591.4</ele>
        <time>2022-07-19T13:46:00Z</time>
      </trkpt>
      <trkpt lat="44.39368" lon="6.77132">
        <ele>1590.2</ele>
        <time>2022-07-19T13:46:01Z</time>
      </trkpt>
      <trkpt lat="44.39379" lon="6.77119">
        <ele>1589</ele>
        <time>2022-07-19T13:46:02Z</time>
      </trkpt>
      <trkpt lat="44.39389" lon="6.77106">
        <ele>1588</ele>
        <time>2022-07-19T13:46:03Z</time>
      </trkpt>
      <trkpt lat="44.394" lon="6.77094">
        <ele>1586.8</ele>
        <time>2022-07-19T13:46:04Z</time>
      </trkpt>
      <trkpt lat="44.39409" lon="6.77083">
        <ele>1585.6</ele>
        <time>2022-07-19T13:46:05Z</time>
      </trkpt>
      <trkpt lat="44.39417" lon="6.7707">
        <ele>1584.6</ele>
        <time>2022-07-19T13:46:06Z</time>
      </trkpt>
      <trkpt lat="44.39426" lon="6.77058">
        <ele>1583.6</ele>
        <time>2022-07-19T13:46:07Z</time>
      </trkpt>
      <trkpt lat="44.39434" lon="6.77046">
        <ele>1582.6</ele>
        <time>2022-07-19T13:46:08Z</time>
      </trkpt>
      <trkpt lat="44.39441" lon="6.77032">
        <ele>1581.4</ele>
        <time>2022-07-19T13:46:09Z</time>
      </trkpt>
      <trkpt lat="44.39447" lon="6.77015">
        <ele>1580.6</ele>
        <time>2022-07-19T13:46:10Z</time>
      </trkpt>
      <trkpt lat="44.39452" lon="6.76998">
        <ele>1579.6</ele>
        <time>2022-07-19T13:46:11Z</time>
      </trkpt>
      <trkpt lat="44.39456" lon="6.7698">
        <ele>1578.6</ele>
        <time>2022-07-19T13:46:12Z</time>
      </trkpt>
      <trkpt lat="44.39459" lon="6.76961">
        <ele>1577.4</ele>
        <time>2022-07-19T13:46:13Z</time>
      </trkpt>
      <trkpt lat="44.39462" lon="6.76943">
        <ele>1576.4</ele>
        <time>2022-07-19T13:46:14Z</time>
      </trkpt>
      <trkpt lat="44.39463" lon="6.76925">
        <ele>1575.2</ele>
        <time>2022-07-19T13:46:15Z</time>
      </trkpt>
      <trkpt lat="44.39466" lon="6.76908">
        <ele>1574.2</ele>
        <time>2022-07-19T13:46:16Z</time>
      </trkpt>
      <trkpt lat="44.39468" lon="6.76891">
        <ele>1573.2</ele>
        <time>2022-07-19T13:46:17Z</time>
      </trkpt>
      <trkpt lat="44.39472" lon="6.76874">
        <ele>1572.2</ele>
        <time>2022-07-19T13:46:18Z</time>
      </trkpt>
      <trkpt lat="44.39477" lon="6.76859">
        <ele>1571.2</ele>
        <time>2022-07-19T13:46:19Z</time>
      </trkpt>
      <trkpt lat="44.39484" lon="6.76844">
        <ele>1570</ele>
        <time>2022-07-19T13:46:20Z</time>
      </trkpt>
      <trkpt lat="44.39491" lon="6.76831">
        <ele>1568.8</ele>
        <time>2022-07-19T13:46:21Z</time>
      </trkpt>
      <trkpt lat="44.395" lon="6.76819">
        <ele>1567.8</ele>
        <time>2022-07-19T13:46:22Z</time>
      </trkpt>
      <trkpt lat="44.39509" lon="6.76807">
        <ele>1566.8</ele>
        <time>2022-07-19T13:46:23Z</time>
      </trkpt>
      <trkpt lat="44.39519" lon="6.76796">
        <ele>1565.8</ele>
        <time>2022-07-19T13:46:24Z</time>
      </trkpt>
      <trkpt lat="44.3953" lon="6.76784">
        <ele>1563.4</ele>
        <time>2022-07-19T13:46:26Z</time>
      </trkpt>
      <trkpt lat="44.39541" lon="6.76775">
        <ele>1562</ele>
        <time>2022-07-19T13:46:27Z</time>
      </trkpt>
      <trkpt lat="44.39551" lon="6.76765">
        <ele>1561.2</ele>
        <time>2022-07-19T13:46:28Z</time>
      </trkpt>
      <trkpt lat="44.39561" lon="6.76756">
        <ele>1560.4</ele>
        <time>2022-07-19T13:46:29Z</time>
      </trkpt>
      <trkpt lat="44.39571" lon="6.76748">
        <ele>1559.6</ele>
        <time>2022-07-19T13:46:30Z</time>
      </trkpt>
      <trkpt lat="44.39581" lon="6.76742">
        <ele>1558.6</ele>
        <time>2022-07-19T13:46:31Z</time>
      </trkpt>
      <trkpt lat="44.39592" lon="6.76738">
        <ele>1557.8</ele>
        <time>2022-07-19T13:46:32Z</time>
      </trkpt>
      <trkpt lat="44.39605" lon="6.76737">
        <ele>1557</ele>
        <time>2022-07-19T13:46:33Z</time>
      </trkpt>
      <trkpt lat="44.39617" lon="6.76737">
        <ele>1556</ele>
        <time>2022-07-19T13:46:34Z</time>
      </trkpt>
      <trkpt lat="44.39628" lon="6.76739">
        <ele>1555.2</ele>
        <time>2022-07-19T13:46:35Z</time>
      </trkpt>
      <trkpt lat="44.3964" lon="6.76742">
        <ele>1554.2</ele>
        <time>2022-07-19T13:46:36Z</time>
      </trkpt>
      <trkpt lat="44.39653" lon="6.76745">
        <ele>1553.2</ele>
        <time>2022-07-19T13:46:37Z</time>
      </trkpt>
      <trkpt lat="44.39665" lon="6.76745">
        <ele>1552.2</ele>
        <time>2022-07-19T13:46:38Z</time>
      </trkpt>
      <trkpt lat="44.39678" lon="6.76744">
        <ele>1551.2</ele>
        <time>2022-07-19T13:46:39Z</time>
      </trkpt>
      <trkpt lat="44.39691" lon="6.76741">
        <ele>1550.4</ele>
        <time>2022-07-19T13:46:40Z</time>
      </trkpt>
      <trkpt lat="44.39702" lon="6.76738">
        <ele>1549.4</ele>
        <time>2022-07-19T13:46:41Z</time>
      </trkpt>
      <trkpt lat="44.39713" lon="6.76736">
        <ele>1548.6</ele>
        <time>2022-07-19T13:46:42Z</time>
      </trkpt>
      <trkpt lat="44.39723" lon="6.76738">
        <ele>1547.8</ele>
        <time>2022-07-19T13:46:43Z</time>
      </trkpt>
      <trkpt lat="44.39733" lon="6.76744">
        <ele>1546.8</ele>
        <time>2022-07-19T13:46:44Z</time>
      </trkpt>
      <trkpt lat="44.39743" lon="6.76753">
        <ele>1545.8</ele>
        <time>2022-07-19T13:46:45Z</time>
      </trkpt>
      <trkpt lat="44.39752" lon="6.76765">
        <ele>1545</ele>
        <time>2022-07-19T13:46:46Z</time>
      </trkpt>
      <trkpt lat="44.3976" lon="6.76778">
        <ele>1544</ele>
        <time>2022-07-19T13:46:47Z</time>
      </trkpt>
      <trkpt lat="44.39768" lon="6.76791">
        <ele>1543</ele>
        <time>2022-07-19T13:46:48Z</time>
      </trkpt>
      <trkpt lat="44.39777" lon="6.76806">
        <ele>1541.8</ele>
        <time>2022-07-19T13:46:49Z</time>
      </trkpt>
      <trkpt lat="44.39785" lon="6.76821">
        <ele>1540.8</ele>
        <time>2022-07-19T13:46:50Z</time>
      </trkpt>
      <trkpt lat="44.39794" lon="6.76835">
        <ele>1539.6</ele>
        <time>2022-07-19T13:46:51Z</time>
      </trkpt>
      <trkpt lat="44.39802" lon="6.76849">
        <ele>1538.6</ele>
        <time>2022-07-19T13:46:52Z</time>
      </trkpt>
      <trkpt lat="44.39809" lon="6.76862">
        <ele>1537.6</ele>
        <time>2022-07-19T13:46:53Z</time>
      </trkpt>
      <trkpt lat="44.39818" lon="6.76873">
        <ele>1536.6</ele>
        <time>2022-07-19T13:46:54Z</time>
      </trkpt>
      <trkpt lat="44.39827" lon="6.76882">
        <ele>1535.6</ele>
        <time>2022-07-19T13:46:55Z</time>
      </trkpt>
      <trkpt lat="44.39837" lon="6.76889">
        <ele>1534.4</ele>
        <time>2022-07-19T13:46:56Z</time>
      </trkpt>
      <trkpt lat="44.39848" lon="6.76893">
        <ele>1533.4</ele>
        <time>2022-07-19T13:46:57Z</time>
      </trkpt>
      <trkpt lat="44.39859" lon="6.76895">
        <ele>1532.4</ele>
        <time>2022-07-19T13:46:58Z</time>
      </trkpt>
      <trkpt lat="44.3987" lon="6.76896">
        <ele>1531.6</ele>
        <time>2022-07-19T13:46:59Z</time>
      </trkpt>
      <trkpt lat="44.39882" lon="6.76893">
        <ele>1530.6</ele>
        <time>2022-07-19T13:47:00Z</time>
      </trkpt>
      <trkpt lat="44.39893" lon="6.76887">
        <ele>1529.8</ele>
        <time>2022-07-19T13:47:01Z</time>
      </trkpt>
      <trkpt lat="44.39903" lon="6.76878">
        <ele>1529</ele>
        <time>2022-07-19T13:47:02Z</time>
      </trkpt>
      <trkpt lat="44.39912" lon="6.76866">
        <ele>1528</ele>
        <time>2022-07-19T13:47:03Z</time>
      </trkpt>
      <trkpt lat="44.39921" lon="6.76855">
        <ele>1527.2</ele>
        <time>2022-07-19T13:47:04Z</time>
      </trkpt>
      <trkpt lat="44.39929" lon="6.76842">
        <ele>1526.2</ele>
        <time>2022-07-19T13:47:05Z</time>
      </trkpt>
      <trkpt lat="44.39937" lon="6.76829">
        <ele>1525.4</ele>
        <time>2022-07-19T13:47:06Z</time>
      </trkpt>
      <trkpt lat="44.39947" lon="6.76818">
        <ele>1524.4</ele>
        <time>2022-07-19T13:47:07Z</time>
      </trkpt>
      <trkpt lat="44.39957" lon="6.7681">
        <ele>1523.6</ele>
        <time>2022-07-19T13:47:08Z</time>
      </trkpt>
      <trkpt lat="44.39969" lon="6.76804">
        <ele>1522.6</ele>
        <time>2022-07-19T13:47:09Z</time>
      </trkpt>
      <trkpt lat="44.39981" lon="6.76799">
        <ele>1521.8</ele>
        <time>2022-07-19T13:47:10Z</time>
      </trkpt>
      <trkpt lat="44.39993" lon="6.76793">
        <ele>1520.8</ele>
        <time>2022-07-19T13:47:11Z</time>
      </trkpt>
      <trkpt lat="44.40005" lon="6.76786">
        <ele>1519.8</ele>
        <time>2022-07-19T13:47:12Z</time>
      </trkpt>
      <trkpt lat="44.40017" lon="6.76776">
        <ele>1518.8</ele>
        <time>2022-07-19T13:47:13Z</time>
      </trkpt>
      <trkpt lat="44.40028" lon="6.76766">
        <ele>1517.8</ele>
        <time>2022-07-19T13:47:14Z</time>
      </trkpt>
      <trkpt lat="44.40039" lon="6.76754">
        <ele>1516.8</ele>
        <time>2022-07-19T13:47:15Z</time>
      </trkpt>
      <trkpt lat="44.4005" lon="6.76743">
        <ele>1515.8</ele>
        <time>2022-07-19T13:47:16Z</time>
      </trkpt>
      <trkpt lat="44.40061" lon="6.7673">
        <ele>1514.6</ele>
        <time>2022-07-19T13:47:17Z</time>
      </trkpt>
      <trkpt lat="44.40071" lon="6.76717">
        <ele>1513.8</ele>
        <time>2022-07-19T13:47:18Z</time>
      </trkpt>
      <trkpt lat="44.4008" lon="6.76703">
        <ele>1512.6</ele>
        <time>2022-07-19T13:47:19Z</time>
      </trkpt>
      <trkpt lat="44.40089" lon="6.76689">
        <ele>1511.6</ele>
        <time>2022-07-19T13:47:20Z</time>
      </trkpt>
      <trkpt lat="44.40097" lon="6.76674">
        <ele>1510.4</ele>
        <time>2022-07-19T13:47:21Z</time>
      </trkpt>
      <trkpt lat="44.40106" lon="6.7666">
        <ele>1509.4</ele>
        <time>2022-07-19T13:47:22Z</time>
      </trkpt>
      <trkpt lat="44.40114" lon="6.76647">
        <ele>1508.4</ele>
        <time>2022-07-19T13:47:23Z</time>
      </trkpt>
      <trkpt lat="44.40121" lon="6.76634">
        <ele>1507.4</ele>
        <time>2022-07-19T13:47:24Z</time>
      </trkpt>
      <trkpt lat="44.40129" lon="6.76623">
        <ele>1506.4</ele>
        <time>2022-07-19T13:47:25Z</time>
      </trkpt>
      <trkpt lat="44.40137" lon="6.76614">
        <ele>1505.6</ele>
        <time>2022-07-19T13:47:26Z</time>
      </trkpt>
      <trkpt lat="44.40145" lon="6.76606">
        <ele>1504.8</ele>
        <time>2022-07-19T13:47:27Z</time>
      </trkpt>
      <trkpt lat="44.40155" lon="6.76601">
        <ele>1503.8</ele>
        <time>2022-07-19T13:47:28Z</time>
      </trkpt>
      <trkpt lat="44.40165" lon="6.76597">
        <ele>1503</ele>
        <time>2022-07-19T13:47:29Z</time>
      </trkpt>
      <trkpt lat="44.40177" lon="6.76598">
        <ele>1502</ele>
        <time>2022-07-19T13:47:30Z</time>
      </trkpt>
      <trkpt lat="44.40188" lon="6.76599">
        <ele>1501.2</ele>
        <time>2022-07-19T13:47:31Z</time>
      </trkpt>
      <trkpt lat="44.40198" lon="6.76599">
        <ele>1500.2</ele>
        <time>2022-07-19T13:47:32Z</time>
      </trkpt>
      <trkpt lat="44.40208" lon="6.766">
        <ele>1499.2</ele>
        <time>2022-07-19T13:47:33Z</time>
      </trkpt>
      <trkpt lat="44.40218" lon="6.76599">
        <ele>1498.4</ele>
        <time>2022-07-19T13:47:34Z</time>
      </trkpt>
      <trkpt lat="44.40227" lon="6.76595">
        <ele>1497.4</ele>
        <time>2022-07-19T13:47:35Z</time>
      </trkpt>
      <trkpt lat="44.40235" lon="6.76586">
        <ele>1496.4</ele>
        <time>2022-07-19T13:47:36Z</time>
      </trkpt>
      <trkpt lat="44.40242" lon="6.76574">
        <ele>1495.6</ele>
        <time>2022-07-19T13:47:37Z</time>
      </trkpt>
      <trkpt lat="44.40247" lon="6.76559">
        <ele>1494.8</ele>
        <time>2022-07-19T13:47:38Z</time>
      </trkpt>
      <trkpt lat="44.40251" lon="6.76545">
        <ele>1494.2</ele>
        <time>2022-07-19T13:47:39Z</time>
      </trkpt>
      <trkpt lat="44.40254" lon="6.76529">
        <ele>1493.2</ele>
        <time>2022-07-19T13:47:40Z</time>
      </trkpt>
      <trkpt lat="44.40256" lon="6.76515">
        <ele>1492.4</ele>
        <time>2022-07-19T13:47:41Z</time>
      </trkpt>
      <trkpt lat="44.4026" lon="6.76501">
        <ele>1491.8</ele>
        <time>2022-07-19T13:47:42Z</time>
      </trkpt>
      <trkpt lat="44.40263" lon="6.76486">
        <ele>1491</ele>
        <time>2022-07-19T13:47:43Z</time>
      </trkpt>
      <trkpt lat="44.40266" lon="6.76472">
        <ele>1490.2</ele>
        <time>2022-07-19T13:47:44Z</time>
      </trkpt>
      <trkpt lat="44.40269" lon="6.76458">
        <ele>1489.6</ele>
        <time>2022-07-19T13:47:45Z</time>
      </trkpt>
      <trkpt lat="44.40272" lon="6.76445">
        <ele>1488.8</ele>
        <time>2022-07-19T13:47:46Z</time>
      </trkpt>
      <trkpt lat="44.40275" lon="6.7643">
        <ele>1488</ele>
        <time>2022-07-19T13:47:47Z</time>
      </trkpt>
      <trkpt lat="44.40285" lon="6.76402">
        <ele>1487.4</ele>
        <time>2022-07-19T13:47:48Z</time>
      </trkpt>
      <trkpt lat="44.40291" lon="6.7639">
        <ele>1486.6</ele>
        <time>2022-07-19T13:47:49Z</time>
      </trkpt>
      <trkpt lat="44.40297" lon="6.76377">
        <ele>1486</ele>
        <time>2022-07-19T13:47:50Z</time>
      </trkpt>
      <trkpt lat="44.40303" lon="6.76364">
        <ele>1485.4</ele>
        <time>2022-07-19T13:47:51Z</time>
      </trkpt>
      <trkpt lat="44.40309" lon="6.7635">
        <ele>1484.8</ele>
        <time>2022-07-19T13:47:52Z</time>
      </trkpt>
      <trkpt lat="44.40314" lon="6.76338">
        <ele>1483.8</ele>
        <time>2022-07-19T13:47:53Z</time>
      </trkpt>
      <trkpt lat="44.4032" lon="6.76325">
        <ele>1483.2</ele>
        <time>2022-07-19T13:47:54Z</time>
      </trkpt>
      <trkpt lat="44.40325" lon="6.76312">
        <ele>1482.6</ele>
        <time>2022-07-19T13:47:55Z</time>
      </trkpt>
      <trkpt lat="44.40329" lon="6.76297">
        <ele>1481.8</ele>
        <time>2022-07-19T13:47:56Z</time>
      </trkpt>
      <trkpt lat="44.40333" lon="6.76284">
        <ele>1481</ele>
        <time>2022-07-19T13:47:57Z</time>
      </trkpt>
      <trkpt lat="44.40337" lon="6.76271">
        <ele>1480.2</ele>
        <time>2022-07-19T13:47:58Z</time>
      </trkpt>
      <trkpt lat="44.40341" lon="6.76257">
        <ele>1479.4</ele>
        <time>2022-07-19T13:47:59Z</time>
      </trkpt>
      <trkpt lat="44.40344" lon="6.76244">
        <ele>1478.8</ele>
        <time>2022-07-19T13:48:00Z</time>
      </trkpt>
      <trkpt lat="44.40346" lon="6.7623">
        <ele>1478.4</ele>
        <time>2022-07-19T13:48:01Z</time>
      </trkpt>
      <trkpt lat="44.40347" lon="6.76216">
        <ele>1477.8</ele>
        <time>2022-07-19T13:48:02Z</time>
      </trkpt>
      <trkpt lat="44.40347" lon="6.76202">
        <ele>1477.6</ele>
        <time>2022-07-19T13:48:03Z</time>
      </trkpt>
      <trkpt lat="44.40347" lon="6.76187">
        <ele>1477</ele>
        <time>2022-07-19T13:48:04Z</time>
      </trkpt>
      <trkpt lat="44.40347" lon="6.76171">
        <ele>1476.6</ele>
        <time>2022-07-19T13:48:05Z</time>
      </trkpt>
      <trkpt lat="44.40347" lon="6.76157">
        <ele>1476</ele>
        <time>2022-07-19T13:48:06Z</time>
      </trkpt>
      <trkpt lat="44.40347" lon="6.76142">
        <ele>1475.6</ele>
        <time>2022-07-19T13:48:07Z</time>
      </trkpt>
      <trkpt lat="44.40348" lon="6.76127">
        <ele>1475.4</ele>
        <time>2022-07-19T13:48:08Z</time>
      </trkpt>
      <trkpt lat="44.40351" lon="6.76115">
        <ele>1474.8</ele>
        <time>2022-07-19T13:48:09Z</time>
      </trkpt>
      <trkpt lat="44.40356" lon="6.76103">
        <ele>1474.4</ele>
        <time>2022-07-19T13:48:10Z</time>
      </trkpt>
      <trkpt lat="44.40363" lon="6.76092">
        <ele>1474</ele>
        <time>2022-07-19T13:48:11Z</time>
      </trkpt>
      <trkpt lat="44.40369" lon="6.76084">
        <ele>1473.4</ele>
        <time>2022-07-19T13:48:12Z</time>
      </trkpt>
      <trkpt lat="44.40378" lon="6.76076">
        <ele>1473</ele>
        <time>2022-07-19T13:48:13Z</time>
      </trkpt>
      <trkpt lat="44.40387" lon="6.76071">
        <ele>1472.4</ele>
        <time>2022-07-19T13:48:14Z</time>
      </trkpt>
      <trkpt lat="44.40396" lon="6.76067">
        <ele>1471.8</ele>
        <time>2022-07-19T13:48:15Z</time>
      </trkpt>
      <trkpt lat="44.40406" lon="6.76065">
        <ele>1471</ele>
        <time>2022-07-19T13:48:16Z</time>
      </trkpt>
      <trkpt lat="44.40416" lon="6.76063">
        <ele>1470.4</ele>
        <time>2022-07-19T13:48:17Z</time>
      </trkpt>
      <trkpt lat="44.40426" lon="6.76061">
        <ele>1469.8</ele>
        <time>2022-07-19T13:48:18Z</time>
      </trkpt>
      <trkpt lat="44.40436" lon="6.76056">
        <ele>1469.2</ele>
        <time>2022-07-19T13:48:19Z</time>
      </trkpt>
      <trkpt lat="44.40445" lon="6.76049">
        <ele>1468.8</ele>
        <time>2022-07-19T13:48:20Z</time>
      </trkpt>
      <trkpt lat="44.40453" lon="6.76039">
        <ele>1468.4</ele>
        <time>2022-07-19T13:48:21Z</time>
      </trkpt>
      <trkpt lat="44.4046" lon="6.7603">
        <ele>1467.8</ele>
        <time>2022-07-19T13:48:22Z</time>
      </trkpt>
      <trkpt lat="44.40466" lon="6.76018">
        <ele>1467.2</ele>
        <time>2022-07-19T13:48:23Z</time>
      </trkpt>
      <trkpt lat="44.40474" lon="6.76006">
        <ele>1466.6</ele>
        <time>2022-07-19T13:48:24Z</time>
      </trkpt>
      <trkpt lat="44.4048" lon="6.75993">
        <ele>1465.8</ele>
        <time>2022-07-19T13:48:25Z</time>
      </trkpt>
      <trkpt lat="44.40487" lon="6.75979">
        <ele>1465</ele>
        <time>2022-07-19T13:48:26Z</time>
      </trkpt>
      <trkpt lat="44.40494" lon="6.75965">
        <ele>1464.2</ele>
        <time>2022-07-19T13:48:27Z</time>
      </trkpt>
      <trkpt lat="44.405" lon="6.75951">
        <ele>1463.4</ele>
        <time>2022-07-19T13:48:28Z</time>
      </trkpt>
      <trkpt lat="44.40507" lon="6.75936">
        <ele>1462.8</ele>
        <time>2022-07-19T13:48:29Z</time>
      </trkpt>
      <trkpt lat="44.40512" lon="6.75921">
        <ele>1462</ele>
        <time>2022-07-19T13:48:30Z</time>
      </trkpt>
      <trkpt lat="44.40516" lon="6.75907">
        <ele>1461.4</ele>
        <time>2022-07-19T13:48:31Z</time>
      </trkpt>
      <trkpt lat="44.40519" lon="6.75892">
        <ele>1460.8</ele>
        <time>2022-07-19T13:48:32Z</time>
      </trkpt>
      <trkpt lat="44.4052" lon="6.75877">
        <ele>1460.2</ele>
        <time>2022-07-19T13:48:33Z</time>
      </trkpt>
      <trkpt lat="44.4052" lon="6.75862">
        <ele>1459.6</ele>
        <time>2022-07-19T13:48:34Z</time>
      </trkpt>
      <trkpt lat="44.40518" lon="6.75847">
        <ele>1458.8</ele>
        <time>2022-07-19T13:48:35Z</time>
      </trkpt>
      <trkpt lat="44.40515" lon="6.75831">
        <ele>1458</ele>
        <time>2022-07-19T13:48:36Z</time>
      </trkpt>
      <trkpt lat="44.40512" lon="6.75816">
        <ele>1457.4</ele>
        <time>2022-07-19T13:48:37Z</time>
      </trkpt>
      <trkpt lat="44.40508" lon="6.75798">
        <ele>1456.8</ele>
        <time>2022-07-19T13:48:38Z</time>
      </trkpt>
      <trkpt lat="44.40506" lon="6.75783">
        <ele>1456.2</ele>
        <time>2022-07-19T13:48:39Z</time>
      </trkpt>
      <trkpt lat="44.40505" lon="6.7577">
        <ele>1455.4</ele>
        <time>2022-07-19T13:48:40Z</time>
      </trkpt>
      <trkpt lat="44.40505" lon="6.75759">
        <ele>1454.6</ele>
        <time>2022-07-19T13:48:41Z</time>
      </trkpt>
      <trkpt lat="44.40507" lon="6.75747">
        <ele>1454</ele>
        <time>2022-07-19T13:48:42Z</time>
      </trkpt>
      <trkpt lat="44.40512" lon="6.75735">
        <ele>1453.4</ele>
        <time>2022-07-19T13:48:43Z</time>
      </trkpt>
      <trkpt lat="44.40519" lon="6.75724">
        <ele>1452.8</ele>
        <time>2022-07-19T13:48:44Z</time>
      </trkpt>
      <trkpt lat="44.40525" lon="6.75714">
        <ele>1452.2</ele>
        <time>2022-07-19T13:48:45Z</time>
      </trkpt>
      <trkpt lat="44.40531" lon="6.75703">
        <ele>1451.4</ele>
        <time>2022-07-19T13:48:46Z</time>
      </trkpt>
      <trkpt lat="44.40538" lon="6.75692">
        <ele>1450.8</ele>
        <time>2022-07-19T13:48:47Z</time>
      </trkpt>
      <trkpt lat="44.40544" lon="6.7568">
        <ele>1450.2</ele>
        <time>2022-07-19T13:48:48Z</time>
      </trkpt>
      <trkpt lat="44.4055" lon="6.75669">
        <ele>1449.6</ele>
        <time>2022-07-19T13:48:49Z</time>
      </trkpt>
      <trkpt lat="44.40556" lon="6.75657">
        <ele>1449</ele>
        <time>2022-07-19T13:48:50Z</time>
      </trkpt>
      <trkpt lat="44.40561" lon="6.75645">
        <ele>1448.4</ele>
        <time>2022-07-19T13:48:51Z</time>
      </trkpt>
      <trkpt lat="44.40565" lon="6.75633">
        <ele>1447.6</ele>
        <time>2022-07-19T13:48:52Z</time>
      </trkpt>
      <trkpt lat="44.40567" lon="6.7562">
        <ele>1447.2</ele>
        <time>2022-07-19T13:48:53Z</time>
      </trkpt>
      <trkpt lat="44.40567" lon="6.75606">
        <ele>1446.6</ele>
        <time>2022-07-19T13:48:54Z</time>
      </trkpt>
      <trkpt lat="44.40566" lon="6.75593">
        <ele>1446</ele>
        <time>2022-07-19T13:48:55Z</time>
      </trkpt>
      <trkpt lat="44.40564" lon="6.75582">
        <ele>1445.6</ele>
        <time>2022-07-19T13:48:56Z</time>
      </trkpt>
      <trkpt lat="44.40562" lon="6.75569">
        <ele>1445.2</ele>
        <time>2022-07-19T13:48:57Z</time>
      </trkpt>
      <trkpt lat="44.40561" lon="6.75556">
        <ele>1444.8</ele>
        <time>2022-07-19T13:48:58Z</time>
      </trkpt>
      <trkpt lat="44.40563" lon="6.75543">
        <ele>1444.6</ele>
        <time>2022-07-19T13:48:59Z</time>
      </trkpt>
      <trkpt lat="44.40565" lon="6.7553">
        <ele>1444.4</ele>
        <time>2022-07-19T13:49:00Z</time>
      </trkpt>
      <trkpt lat="44.40568" lon="6.75518">
        <ele>1444</ele>
        <time>2022-07-19T13:49:01Z</time>
      </trkpt>
      <trkpt lat="44.4057" lon="6.75506">
        <ele>1443.8</ele>
        <time>2022-07-19T13:49:02Z</time>
      </trkpt>
      <trkpt lat="44.40574" lon="6.75494">
        <ele>1443.6</ele>
        <time>2022-07-19T13:49:03Z</time>
      </trkpt>
      <trkpt lat="44.40578" lon="6.75483">
        <ele>1443</ele>
        <time>2022-07-19T13:49:04Z</time>
      </trkpt>
      <trkpt lat="44.40584" lon="6.75473">
        <ele>1442.4</ele>
        <time>2022-07-19T13:49:05Z</time>
      </trkpt>
      <trkpt lat="44.40591" lon="6.75466">
        <ele>1442</ele>
        <time>2022-07-19T13:49:06Z</time>
      </trkpt>
      <trkpt lat="44.40599" lon="6.7546">
        <ele>1441.4</ele>
        <time>2022-07-19T13:49:07Z</time>
      </trkpt>
      <trkpt lat="44.40609" lon="6.75458">
        <ele>1441</ele>
        <time>2022-07-19T13:49:08Z</time>
      </trkpt>
      <trkpt lat="44.40618" lon="6.75458">
        <ele>1440.4</ele>
        <time>2022-07-19T13:49:09Z</time>
      </trkpt>
      <trkpt lat="44.40628" lon="6.75462">
        <ele>1440.2</ele>
        <time>2022-07-19T13:49:10Z</time>
      </trkpt>
      <trkpt lat="44.40639" lon="6.75467">
        <ele>1439.6</ele>
        <time>2022-07-19T13:49:11Z</time>
      </trkpt>
      <trkpt lat="44.40647" lon="6.75475">
        <ele>1439.2</ele>
        <time>2022-07-19T13:49:12Z</time>
      </trkpt>
      <trkpt lat="44.40653" lon="6.75485">
        <ele>1438.6</ele>
        <time>2022-07-19T13:49:13Z</time>
      </trkpt>
      <trkpt lat="44.40658" lon="6.75499">
        <ele>1438</ele>
        <time>2022-07-19T13:49:14Z</time>
      </trkpt>
      <trkpt lat="44.40662" lon="6.75513">
        <ele>1437.4</ele>
        <time>2022-07-19T13:49:15Z</time>
      </trkpt>
      <trkpt lat="44.40667" lon="6.75525">
        <ele>1436.8</ele>
        <time>2022-07-19T13:49:16Z</time>
      </trkpt>
      <trkpt lat="44.40674" lon="6.75534">
        <ele>1436.2</ele>
        <time>2022-07-19T13:49:17Z</time>
      </trkpt>
      <trkpt lat="44.40682" lon="6.7554">
        <ele>1435.4</ele>
        <time>2022-07-19T13:49:18Z</time>
      </trkpt>
      <trkpt lat="44.40691" lon="6.75543">
        <ele>1434.8</ele>
        <time>2022-07-19T13:49:19Z</time>
      </trkpt>
      <trkpt lat="44.40699" lon="6.75543">
        <ele>1434.2</ele>
        <time>2022-07-19T13:49:20Z</time>
      </trkpt>
      <trkpt lat="44.40707" lon="6.7554">
        <ele>1433.6</ele>
        <time>2022-07-19T13:49:21Z</time>
      </trkpt>
      <trkpt lat="44.40714" lon="6.75534">
        <ele>1433.2</ele>
        <time>2022-07-19T13:49:22Z</time>
      </trkpt>
      <trkpt lat="44.40719" lon="6.75524">
        <ele>1432.8</ele>
        <time>2022-07-19T13:49:23Z</time>
      </trkpt>
      <trkpt lat="44.40723" lon="6.75512">
        <ele>1432.2</ele>
        <time>2022-07-19T13:49:24Z</time>
      </trkpt>
      <trkpt lat="44.40727" lon="6.75499">
        <ele>1431.6</ele>
        <time>2022-07-19T13:49:25Z</time>
      </trkpt>
      <trkpt lat="44.4073" lon="6.75484">
        <ele>1430.8</ele>
        <time>2022-07-19T13:49:26Z</time>
      </trkpt>
      <trkpt lat="44.40733" lon="6.7547">
        <ele>1430</ele>
        <time>2022-07-19T13:49:27Z</time>
      </trkpt>
      <trkpt lat="44.40736" lon="6.75456">
        <ele>1429.4</ele>
        <time>2022-07-19T13:49:28Z</time>
      </trkpt>
      <trkpt lat="44.40741" lon="6.75444">
        <ele>1428.8</ele>
        <time>2022-07-19T13:49:29Z</time>
      </trkpt>
      <trkpt lat="44.40749" lon="6.75435">
        <ele>1428</ele>
        <time>2022-07-19T13:49:30Z</time>
      </trkpt>
      <trkpt lat="44.40757" lon="6.75426">
        <ele>1427</ele>
        <time>2022-07-19T13:49:31Z</time>
      </trkpt>
      <trkpt lat="44.40768" lon="6.75421">
        <ele>1426.2</ele>
        <time>2022-07-19T13:49:32Z</time>
      </trkpt>
      <trkpt lat="44.4078" lon="6.75418">
        <ele>1425.2</ele>
        <time>2022-07-19T13:49:33Z</time>
      </trkpt>
      <trkpt lat="44.40792" lon="6.75416">
        <ele>1423.4</ele>
        <time>2022-07-19T13:49:34Z</time>
      </trkpt>
      <trkpt lat="44.40804" lon="6.75415">
        <ele>1422.4</ele>
        <time>2022-07-19T13:49:35Z</time>
      </trkpt>
      <trkpt lat="44.40816" lon="6.75413">
        <ele>1421.4</ele>
        <time>2022-07-19T13:49:36Z</time>
      </trkpt>
      <trkpt lat="44.40828" lon="6.7541">
        <ele>1420.6</ele>
        <time>2022-07-19T13:49:37Z</time>
      </trkpt>
      <trkpt lat="44.4084" lon="6.75405">
        <ele>1419.8</ele>
        <time>2022-07-19T13:49:38Z</time>
      </trkpt>
      <trkpt lat="44.40851" lon="6.75397">
        <ele>1419</ele>
        <time>2022-07-19T13:49:39Z</time>
      </trkpt>
      <trkpt lat="44.40862" lon="6.75387">
        <ele>1417.8</ele>
        <time>2022-07-19T13:49:40Z</time>
      </trkpt>
      <trkpt lat="44.40872" lon="6.75375">
        <ele>1416.6</ele>
        <time>2022-07-19T13:49:41Z</time>
      </trkpt>
      <trkpt lat="44.40881" lon="6.75365">
        <ele>1415.6</ele>
        <time>2022-07-19T13:49:42Z</time>
      </trkpt>
      <trkpt lat="44.4089" lon="6.75356">
        <ele>1414.4</ele>
        <time>2022-07-19T13:49:43Z</time>
      </trkpt>
      <trkpt lat="44.409" lon="6.75349">
        <ele>1413.4</ele>
        <time>2022-07-19T13:49:44Z</time>
      </trkpt>
      <trkpt lat="44.40911" lon="6.75345">
        <ele>1412.4</ele>
        <time>2022-07-19T13:49:45Z</time>
      </trkpt>
      <trkpt lat="44.40922" lon="6.75343">
        <ele>1411.6</ele>
        <time>2022-07-19T13:49:46Z</time>
      </trkpt>
      <trkpt lat="44.40934" lon="6.75343">
        <ele>1410.6</ele>
        <time>2022-07-19T13:49:47Z</time>
      </trkpt>
      <trkpt lat="44.40947" lon="6.75344">
        <ele>1409.8</ele>
        <time>2022-07-19T13:49:48Z</time>
      </trkpt>
      <trkpt lat="44.40959" lon="6.75345">
        <ele>1408.8</ele>
        <time>2022-07-19T13:49:49Z</time>
      </trkpt>
      <trkpt lat="44.40971" lon="6.75346">
        <ele>1407.6</ele>
        <time>2022-07-19T13:49:50Z</time>
      </trkpt>
      <trkpt lat="44.40983" lon="6.75343">
        <ele>1406.8</ele>
        <time>2022-07-19T13:49:51Z</time>
      </trkpt>
      <trkpt lat="44.40995" lon="6.75337">
        <ele>1405.8</ele>
        <time>2022-07-19T13:49:52Z</time>
      </trkpt>
      <trkpt lat="44.41007" lon="6.7533">
        <ele>1404.6</ele>
        <time>2022-07-19T13:49:53Z</time>
      </trkpt>
      <trkpt lat="44.41019" lon="6.75324">
        <ele>1403.6</ele>
        <time>2022-07-19T13:49:54Z</time>
      </trkpt>
      <trkpt lat="44.4103" lon="6.75318">
        <ele>1402.6</ele>
        <time>2022-07-19T13:49:55Z</time>
      </trkpt>
      <trkpt lat="44.41041" lon="6.7531">
        <ele>1401.6</ele>
        <time>2022-07-19T13:49:56Z</time>
      </trkpt>
      <trkpt lat="44.41051" lon="6.75301">
        <ele>1400.6</ele>
        <time>2022-07-19T13:49:57Z</time>
      </trkpt>
      <trkpt lat="44.4106" lon="6.7529">
        <ele>1399.8</ele>
        <time>2022-07-19T13:49:58Z</time>
      </trkpt>
      <trkpt lat="44.41068" lon="6.75281">
        <ele>1399</ele>
        <time>2022-07-19T13:49:59Z</time>
      </trkpt>
      <trkpt lat="44.41076" lon="6.75271">
        <ele>1398.4</ele>
        <time>2022-07-19T13:50:00Z</time>
      </trkpt>
      <trkpt lat="44.41083" lon="6.7526">
        <ele>1397.8</ele>
        <time>2022-07-19T13:50:01Z</time>
      </trkpt>
      <trkpt lat="44.41088" lon="6.75249">
        <ele>1397.2</ele>
        <time>2022-07-19T13:50:02Z</time>
      </trkpt>
      <trkpt lat="44.41091" lon="6.75235">
        <ele>1396.6</ele>
        <time>2022-07-19T13:50:03Z</time>
      </trkpt>
      <trkpt lat="44.41093" lon="6.7522">
        <ele>1396</ele>
        <time>2022-07-19T13:50:04Z</time>
      </trkpt>
      <trkpt lat="44.41094" lon="6.75204">
        <ele>1395.4</ele>
        <time>2022-07-19T13:50:05Z</time>
      </trkpt>
      <trkpt lat="44.41095" lon="6.75188">
        <ele>1394.8</ele>
        <time>2022-07-19T13:50:06Z</time>
      </trkpt>
      <trkpt lat="44.41096" lon="6.75172">
        <ele>1394</ele>
        <time>2022-07-19T13:50:07Z</time>
      </trkpt>
      <trkpt lat="44.41096" lon="6.75157">
        <ele>1393.4</ele>
        <time>2022-07-19T13:50:08Z</time>
      </trkpt>
      <trkpt lat="44.41097" lon="6.75142">
        <ele>1392.6</ele>
        <time>2022-07-19T13:50:09Z</time>
      </trkpt>
      <trkpt lat="44.41098" lon="6.75127">
        <ele>1392</ele>
        <time>2022-07-19T13:50:10Z</time>
      </trkpt>
      <trkpt lat="44.411" lon="6.75116">
        <ele>1391.4</ele>
        <time>2022-07-19T13:50:11Z</time>
      </trkpt>
      <trkpt lat="44.41103" lon="6.75106">
        <ele>1390.8</ele>
        <time>2022-07-19T13:50:12Z</time>
      </trkpt>
      <trkpt lat="44.41108" lon="6.751">
        <ele>1390.2</ele>
        <time>2022-07-19T13:50:13Z</time>
      </trkpt>
      <trkpt lat="44.41113" lon="6.75097">
        <ele>1389.8</ele>
        <time>2022-07-19T13:50:14Z</time>
      </trkpt>
      <trkpt lat="44.41117" lon="6.75099">
        <ele>1389.2</ele>
        <time>2022-07-19T13:50:15Z</time>
      </trkpt>
      <trkpt lat="44.4112" lon="6.75106">
        <ele>1388.8</ele>
        <time>2022-07-19T13:50:16Z</time>
      </trkpt>
      <trkpt lat="44.41121" lon="6.75116">
        <ele>1388.4</ele>
        <time>2022-07-19T13:50:17Z</time>
      </trkpt>
      <trkpt lat="44.41119" lon="6.75128">
        <ele>1388</ele>
        <time>2022-07-19T13:50:18Z</time>
      </trkpt>
      <trkpt lat="44.41117" lon="6.7514">
        <ele>1387.4</ele>
        <time>2022-07-19T13:50:19Z</time>
      </trkpt>
      <trkpt lat="44.41117" lon="6.75153">
        <ele>1386.8</ele>
        <time>2022-07-19T13:50:20Z</time>
      </trkpt>
      <trkpt lat="44.41117" lon="6.75168">
        <ele>1386</ele>
        <time>2022-07-19T13:50:21Z</time>
      </trkpt>
      <trkpt lat="44.41119" lon="6.75183">
        <ele>1385.2</ele>
        <time>2022-07-19T13:50:22Z</time>
      </trkpt>
      <trkpt lat="44.41121" lon="6.75197">
        <ele>1384.6</ele>
        <time>2022-07-19T13:50:23Z</time>
      </trkpt>
      <trkpt lat="44.41122" lon="6.75213">
        <ele>1383.8</ele>
        <time>2022-07-19T13:50:24Z</time>
      </trkpt>
      <trkpt lat="44.41122" lon="6.75228">
        <ele>1383</ele>
        <time>2022-07-19T13:50:25Z</time>
      </trkpt>
      <trkpt lat="44.41123" lon="6.75244">
        <ele>1382.2</ele>
        <time>2022-07-19T13:50:26Z</time>
      </trkpt>
      <trkpt lat="44.41123" lon="6.7526">
        <ele>1381.2</ele>
        <time>2022-07-19T13:50:27Z</time>
      </trkpt>
      <trkpt lat="44.41125" lon="6.75275">
        <ele>1380.4</ele>
        <time>2022-07-19T13:50:28Z</time>
      </trkpt>
      <trkpt lat="44.41129" lon="6.75289">
        <ele>1379.6</ele>
        <time>2022-07-19T13:50:29Z</time>
      </trkpt>
      <trkpt lat="44.41136" lon="6.75302">
        <ele>1378.8</ele>
        <time>2022-07-19T13:50:30Z</time>
      </trkpt>
      <trkpt lat="44.41145" lon="6.75315">
        <ele>1378</ele>
        <time>2022-07-19T13:50:31Z</time>
      </trkpt>
      <trkpt lat="44.41154" lon="6.75326">
        <ele>1377.2</ele>
        <time>2022-07-19T13:50:32Z</time>
      </trkpt>
      <trkpt lat="44.41163" lon="6.75338">
        <ele>1376.4</ele>
        <time>2022-07-19T13:50:33Z</time>
      </trkpt>
      <trkpt lat="44.41173" lon="6.75351">
        <ele>1375.4</ele>
        <time>2022-07-19T13:50:34Z</time>
      </trkpt>
      <trkpt lat="44.41182" lon="6.75364">
        <ele>1374.6</ele>
        <time>2022-07-19T13:50:35Z</time>
      </trkpt>
      <trkpt lat="44.41192" lon="6.75377">
        <ele>1373.8</ele>
        <time>2022-07-19T13:50:36Z</time>
      </trkpt>
      <trkpt lat="44.41201" lon="6.75389">
        <ele>1372.8</ele>
        <time>2022-07-19T13:50:37Z</time>
      </trkpt>
      <trkpt lat="44.41211" lon="6.75402">
        <ele>1371.8</ele>
        <time>2022-07-19T13:50:38Z</time>
      </trkpt>
      <trkpt lat="44.41221" lon="6.75415">
        <ele>1370.8</ele>
        <time>2022-07-19T13:50:39Z</time>
      </trkpt>
      <trkpt lat="44.4123" lon="6.75427">
        <ele>1369.6</ele>
        <time>2022-07-19T13:50:40Z</time>
      </trkpt>
      <trkpt lat="44.41239" lon="6.7544">
        <ele>1368.6</ele>
        <time>2022-07-19T13:50:41Z</time>
      </trkpt>
      <trkpt lat="44.41249" lon="6.75451">
        <ele>1367.6</ele>
        <time>2022-07-19T13:50:42Z</time>
      </trkpt>
      <trkpt lat="44.41257" lon="6.75462">
        <ele>1366.6</ele>
        <time>2022-07-19T13:50:43Z</time>
      </trkpt>
      <trkpt lat="44.41263" lon="6.75473">
        <ele>1365.8</ele>
        <time>2022-07-19T13:50:44Z</time>
      </trkpt>
      <trkpt lat="44.41268" lon="6.75485">
        <ele>1365</ele>
        <time>2022-07-19T13:50:45Z</time>
      </trkpt>
      <trkpt lat="44.4127" lon="6.75499">
        <ele>1364</ele>
        <time>2022-07-19T13:50:46Z</time>
      </trkpt>
      <trkpt lat="44.41271" lon="6.75513">
        <ele>1363.2</ele>
        <time>2022-07-19T13:50:47Z</time>
      </trkpt>
      <trkpt lat="44.4127" lon="6.75527">
        <ele>1362.4</ele>
        <time>2022-07-19T13:50:48Z</time>
      </trkpt>
      <trkpt lat="44.41268" lon="6.75541">
        <ele>1361.6</ele>
        <time>2022-07-19T13:50:49Z</time>
      </trkpt>
      <trkpt lat="44.41265" lon="6.75554">
        <ele>1361</ele>
        <time>2022-07-19T13:50:50Z</time>
      </trkpt>
      <trkpt lat="44.41263" lon="6.75564">
        <ele>1360.6</ele>
        <time>2022-07-19T13:50:51Z</time>
      </trkpt>
      <trkpt lat="44.41262" lon="6.75575">
        <ele>1360</ele>
        <time>2022-07-19T13:50:52Z</time>
      </trkpt>
      <trkpt lat="44.41263" lon="6.75583">
        <ele>1359.4</ele>
        <time>2022-07-19T13:50:53Z</time>
      </trkpt>
      <trkpt lat="44.41266" lon="6.7559">
        <ele>1358.8</ele>
        <time>2022-07-19T13:50:54Z</time>
      </trkpt>
      <trkpt lat="44.41271" lon="6.75593">
        <ele>1358.2</ele>
        <time>2022-07-19T13:50:55Z</time>
      </trkpt>
      <trkpt lat="44.41278" lon="6.75593">
        <ele>1357.6</ele>
        <time>2022-07-19T13:50:56Z</time>
      </trkpt>
      <trkpt lat="44.41284" lon="6.75589">
        <ele>1357.2</ele>
        <time>2022-07-19T13:50:57Z</time>
      </trkpt>
      <trkpt lat="44.41291" lon="6.75583">
        <ele>1356.8</ele>
        <time>2022-07-19T13:50:58Z</time>
      </trkpt>
      <trkpt lat="44.41296" lon="6.75573">
        <ele>1356.4</ele>
        <time>2022-07-19T13:50:59Z</time>
      </trkpt>
      <trkpt lat="44.413" lon="6.75562">
        <ele>1355.8</ele>
        <time>2022-07-19T13:51:00Z</time>
      </trkpt>
      <trkpt lat="44.41304" lon="6.75551">
        <ele>1355.2</ele>
        <time>2022-07-19T13:51:01Z</time>
      </trkpt>
      <trkpt lat="44.41308" lon="6.75539">
        <ele>1354.6</ele>
        <time>2022-07-19T13:51:02Z</time>
      </trkpt>
      <trkpt lat="44.4131" lon="6.75526">
        <ele>1354.2</ele>
        <time>2022-07-19T13:51:03Z</time>
      </trkpt>
      <trkpt lat="44.41312" lon="6.75511">
        <ele>1353.4</ele>
        <time>2022-07-19T13:51:04Z</time>
      </trkpt>
      <trkpt lat="44.41311" lon="6.75497">
        <ele>1352.8</ele>
        <time>2022-07-19T13:51:05Z</time>
      </trkpt>
      <trkpt lat="44.4131" lon="6.75483">
        <ele>1352.2</ele>
        <time>2022-07-19T13:51:06Z</time>
      </trkpt>
      <trkpt lat="44.41307" lon="6.75468">
        <ele>1351.4</ele>
        <time>2022-07-19T13:51:07Z</time>
      </trkpt>
      <trkpt lat="44.41302" lon="6.75452">
        <ele>1350.6</ele>
        <time>2022-07-19T13:51:08Z</time>
      </trkpt>
      <trkpt lat="44.41298" lon="6.75437">
        <ele>1349.8</ele>
        <time>2022-07-19T13:51:09Z</time>
      </trkpt>
      <trkpt lat="44.41293" lon="6.75423">
        <ele>1349</ele>
        <time>2022-07-19T13:51:10Z</time>
      </trkpt>
      <trkpt lat="44.41289" lon="6.75407">
        <ele>1348.2</ele>
        <time>2022-07-19T13:51:11Z</time>
      </trkpt>
      <trkpt lat="44.41284" lon="6.75392">
        <ele>1347.4</ele>
        <time>2022-07-19T13:51:12Z</time>
      </trkpt>
      <trkpt lat="44.4128" lon="6.75376">
        <ele>1346.4</ele>
        <time>2022-07-19T13:51:13Z</time>
      </trkpt>
      <trkpt lat="44.41274" lon="6.75361">
        <ele>1345.6</ele>
        <time>2022-07-19T13:51:14Z</time>
      </trkpt>
      <trkpt lat="44.41266" lon="6.75347">
        <ele>1345</ele>
        <time>2022-07-19T13:51:15Z</time>
      </trkpt>
      <trkpt lat="44.41259" lon="6.75334">
        <ele>1344</ele>
        <time>2022-07-19T13:51:16Z</time>
      </trkpt>
      <trkpt lat="44.41252" lon="6.75322">
        <ele>1343.4</ele>
        <time>2022-07-19T13:51:17Z</time>
      </trkpt>
      <trkpt lat="44.41246" lon="6.75311">
        <ele>1342.6</ele>
        <time>2022-07-19T13:51:18Z</time>
      </trkpt>
      <trkpt lat="44.41243" lon="6.75301">
        <ele>1342</ele>
        <time>2022-07-19T13:51:19Z</time>
      </trkpt>
      <trkpt lat="44.41243" lon="6.75293">
        <ele>1341.4</ele>
        <time>2022-07-19T13:51:20Z</time>
      </trkpt>
      <trkpt lat="44.41244" lon="6.75285">
        <ele>1341</ele>
        <time>2022-07-19T13:51:21Z</time>
      </trkpt>
      <trkpt lat="44.4125" lon="6.75279">
        <ele>1340.4</ele>
        <time>2022-07-19T13:51:22Z</time>
      </trkpt>
      <trkpt lat="44.41257" lon="6.75275">
        <ele>1339.8</ele>
        <time>2022-07-19T13:51:23Z</time>
      </trkpt>
      <trkpt lat="44.41264" lon="6.75275">
        <ele>1339.2</ele>
        <time>2022-07-19T13:51:24Z</time>
      </trkpt>
      <trkpt lat="44.4127" lon="6.7528">
        <ele>1338.8</ele>
        <time>2022-07-19T13:51:25Z</time>
      </trkpt>
      <trkpt lat="44.41277" lon="6.75288">
        <ele>1338.4</ele>
        <time>2022-07-19T13:51:26Z</time>
      </trkpt>
      <trkpt lat="44.41283" lon="6.75297">
        <ele>1338</ele>
        <time>2022-07-19T13:51:27Z</time>
      </trkpt>
      <trkpt lat="44.41289" lon="6.75307">
        <ele>1337.4</ele>
        <time>2022-07-19T13:51:28Z</time>
      </trkpt>
      <trkpt lat="44.41296" lon="6.75317">
        <ele>1337</ele>
        <time>2022-07-19T13:51:29Z</time>
      </trkpt>
      <trkpt lat="44.41301" lon="6.75326">
        <ele>1336.2</ele>
        <time>2022-07-19T13:51:30Z</time>
      </trkpt>
      <trkpt lat="44.41307" lon="6.75336">
        <ele>1335.6</ele>
        <time>2022-07-19T13:51:31Z</time>
      </trkpt>
      <trkpt lat="44.41314" lon="6.75348">
        <ele>1334.8</ele>
        <time>2022-07-19T13:51:32Z</time>
      </trkpt>
      <trkpt lat="44.41322" lon="6.7536">
        <ele>1334</ele>
        <time>2022-07-19T13:51:33Z</time>
      </trkpt>
      <trkpt lat="44.41329" lon="6.75372">
        <ele>1333.2</ele>
        <time>2022-07-19T13:51:34Z</time>
      </trkpt>
      <trkpt lat="44.41335" lon="6.75385">
        <ele>1332.4</ele>
        <time>2022-07-19T13:51:35Z</time>
      </trkpt>
      <trkpt lat="44.41341" lon="6.75396">
        <ele>1331.6</ele>
        <time>2022-07-19T13:51:36Z</time>
      </trkpt>
      <trkpt lat="44.41345" lon="6.75405">
        <ele>1331</ele>
        <time>2022-07-19T13:51:37Z</time>
      </trkpt>
      <trkpt lat="44.4135" lon="6.75411">
        <ele>1330.4</ele>
        <time>2022-07-19T13:51:38Z</time>
      </trkpt>
      <trkpt lat="44.41355" lon="6.75414">
        <ele>1329.6</ele>
        <time>2022-07-19T13:51:39Z</time>
      </trkpt>
      <trkpt lat="44.41362" lon="6.75413">
        <ele>1329.2</ele>
        <time>2022-07-19T13:51:40Z</time>
      </trkpt>
      <trkpt lat="44.41366" lon="6.75408">
        <ele>1328.8</ele>
        <time>2022-07-19T13:51:41Z</time>
      </trkpt>
      <trkpt lat="44.41368" lon="6.754">
        <ele>1328.4</ele>
        <time>2022-07-19T13:51:42Z</time>
      </trkpt>
      <trkpt lat="44.41369" lon="6.7539">
        <ele>1328</ele>
        <time>2022-07-19T13:51:43Z</time>
      </trkpt>
      <trkpt lat="44.41369" lon="6.7538">
        <ele>1327.4</ele>
        <time>2022-07-19T13:51:44Z</time>
      </trkpt>
      <trkpt lat="44.41368" lon="6.75368">
        <ele>1327</ele>
        <time>2022-07-19T13:51:45Z</time>
      </trkpt>
      <trkpt lat="44.41368" lon="6.75355">
        <ele>1326.6</ele>
        <time>2022-07-19T13:51:46Z</time>
      </trkpt>
      <trkpt lat="44.41368" lon="6.75341">
        <ele>1326</ele>
        <time>2022-07-19T13:51:47Z</time>
      </trkpt>
      <trkpt lat="44.41368" lon="6.75326">
        <ele>1326</ele>
        <time>2022-07-19T13:51:48Z</time>
      </trkpt>
      <trkpt lat="44.41366" lon="6.75312">
        <ele>1325.4</ele>
        <time>2022-07-19T13:51:49Z</time>
      </trkpt>
      <trkpt lat="44.41362" lon="6.75298">
        <ele>1324.8</ele>
        <time>2022-07-19T13:51:50Z</time>
      </trkpt>
      <trkpt lat="44.41357" lon="6.75284">
        <ele>1323.8</ele>
        <time>2022-07-19T13:51:51Z</time>
      </trkpt>
      <trkpt lat="44.41351" lon="6.7527">
        <ele>1323</ele>
        <time>2022-07-19T13:51:52Z</time>
      </trkpt>
      <trkpt lat="44.41346" lon="6.75256">
        <ele>1322.2</ele>
        <time>2022-07-19T13:51:53Z</time>
      </trkpt>
      <trkpt lat="44.41342" lon="6.7524">
        <ele>1321.4</ele>
        <time>2022-07-19T13:51:54Z</time>
      </trkpt>
      <trkpt lat="44.41338" lon="6.75225">
        <ele>1320.4</ele>
        <time>2022-07-19T13:51:55Z</time>
      </trkpt>
      <trkpt lat="44.41336" lon="6.75207">
        <ele>1319.6</ele>
        <time>2022-07-19T13:51:56Z</time>
      </trkpt>
      <trkpt lat="44.41334" lon="6.75191">
        <ele>1318.8</ele>
        <time>2022-07-19T13:51:57Z</time>
      </trkpt>
      <trkpt lat="44.41331" lon="6.75177">
        <ele>1317.8</ele>
        <time>2022-07-19T13:51:58Z</time>
      </trkpt>
      <trkpt lat="44.41325" lon="6.75166">
        <ele>1317</ele>
        <time>2022-07-19T13:51:59Z</time>
      </trkpt>
      <trkpt lat="44.41317" lon="6.75155">
        <ele>1316.2</ele>
        <time>2022-07-19T13:52:00Z</time>
      </trkpt>
      <trkpt lat="44.41308" lon="6.75147">
        <ele>1315.4</ele>
        <time>2022-07-19T13:52:01Z</time>
      </trkpt>
      <trkpt lat="44.41297" lon="6.75142">
        <ele>1314.6</ele>
        <time>2022-07-19T13:52:02Z</time>
      </trkpt>
      <trkpt lat="44.41288" lon="6.7514">
        <ele>1313.8</ele>
        <time>2022-07-19T13:52:03Z</time>
      </trkpt>
      <trkpt lat="44.41282" lon="6.75137">
        <ele>1313.2</ele>
        <time>2022-07-19T13:52:04Z</time>
      </trkpt>
      <trkpt lat="44.41278" lon="6.75132">
        <ele>1312.6</ele>
        <time>2022-07-19T13:52:05Z</time>
      </trkpt>
      <trkpt lat="44.41278" lon="6.75126">
        <ele>1312</ele>
        <time>2022-07-19T13:52:06Z</time>
      </trkpt>
      <trkpt lat="44.4128" lon="6.75119">
        <ele>1311.4</ele>
        <time>2022-07-19T13:52:07Z</time>
      </trkpt>
      <trkpt lat="44.41285" lon="6.75114">
        <ele>1310.8</ele>
        <time>2022-07-19T13:52:08Z</time>
      </trkpt>
      <trkpt lat="44.41291" lon="6.75113">
        <ele>1310.2</ele>
        <time>2022-07-19T13:52:09Z</time>
      </trkpt>
      <trkpt lat="44.41297" lon="6.75115">
        <ele>1309.6</ele>
        <time>2022-07-19T13:52:10Z</time>
      </trkpt>
      <trkpt lat="44.41303" lon="6.75119">
        <ele>1309.2</ele>
        <time>2022-07-19T13:52:11Z</time>
      </trkpt>
      <trkpt lat="44.41311" lon="6.75123">
        <ele>1308.8</ele>
        <time>2022-07-19T13:52:12Z</time>
      </trkpt>
      <trkpt lat="44.41319" lon="6.75128">
        <ele>1308.4</ele>
        <time>2022-07-19T13:52:13Z</time>
      </trkpt>
      <trkpt lat="44.41328" lon="6.75133">
        <ele>1307.8</ele>
        <time>2022-07-19T13:52:14Z</time>
      </trkpt>
      <trkpt lat="44.41337" lon="6.75139">
        <ele>1307.4</ele>
        <time>2022-07-19T13:52:15Z</time>
      </trkpt>
      <trkpt lat="44.41346" lon="6.75145">
        <ele>1306.8</ele>
        <time>2022-07-19T13:52:16Z</time>
      </trkpt>
      <trkpt lat="44.41356" lon="6.75151">
        <ele>1306.4</ele>
        <time>2022-07-19T13:52:17Z</time>
      </trkpt>
      <trkpt lat="44.41366" lon="6.75157">
        <ele>1305.6</ele>
        <time>2022-07-19T13:52:18Z</time>
      </trkpt>
      <trkpt lat="44.41376" lon="6.75164">
        <ele>1305</ele>
        <time>2022-07-19T13:52:19Z</time>
      </trkpt>
      <trkpt lat="44.41386" lon="6.7517">
        <ele>1304.2</ele>
        <time>2022-07-19T13:52:20Z</time>
      </trkpt>
      <trkpt lat="44.41397" lon="6.75177">
        <ele>1303.6</ele>
        <time>2022-07-19T13:52:21Z</time>
      </trkpt>
      <trkpt lat="44.41407" lon="6.75183">
        <ele>1302</ele>
        <time>2022-07-19T13:52:23Z</time>
      </trkpt>
      <trkpt lat="44.41418" lon="6.7519">
        <ele>1301.4</ele>
        <time>2022-07-19T13:52:24Z</time>
      </trkpt>
      <trkpt lat="44.41428" lon="6.75197">
        <ele>1300.4</ele>
        <time>2022-07-19T13:52:25Z</time>
      </trkpt>
      <trkpt lat="44.41437" lon="6.75204">
        <ele>1299.4</ele>
        <time>2022-07-19T13:52:26Z</time>
      </trkpt>
      <trkpt lat="44.41446" lon="6.75214">
        <ele>1298.6</ele>
        <time>2022-07-19T13:52:27Z</time>
      </trkpt>
      <trkpt lat="44.41454" lon="6.75225">
        <ele>1297.8</ele>
        <time>2022-07-19T13:52:28Z</time>
      </trkpt>
      <trkpt lat="44.41461" lon="6.75238">
        <ele>1297</ele>
        <time>2022-07-19T13:52:29Z</time>
      </trkpt>
      <trkpt lat="44.41468" lon="6.75251">
        <ele>1296.2</ele>
        <time>2022-07-19T13:52:30Z</time>
      </trkpt>
      <trkpt lat="44.41473" lon="6.75263">
        <ele>1295.6</ele>
        <time>2022-07-19T13:52:31Z</time>
      </trkpt>
      <trkpt lat="44.41478" lon="6.75273">
        <ele>1294.8</ele>
        <time>2022-07-19T13:52:32Z</time>
      </trkpt>
      <trkpt lat="44.41483" lon="6.75281">
        <ele>1294.4</ele>
        <time>2022-07-19T13:52:33Z</time>
      </trkpt>
      <trkpt lat="44.41489" lon="6.75285">
        <ele>1293.8</ele>
        <time>2022-07-19T13:52:34Z</time>
      </trkpt>
      <trkpt lat="44.41496" lon="6.75286">
        <ele>1293.2</ele>
        <time>2022-07-19T13:52:35Z</time>
      </trkpt>
      <trkpt lat="44.41502" lon="6.75283">
        <ele>1292.8</ele>
        <time>2022-07-19T13:52:36Z</time>
      </trkpt>
      <trkpt lat="44.41504" lon="6.75274">
        <ele>1292.4</ele>
        <time>2022-07-19T13:52:37Z</time>
      </trkpt>
      <trkpt lat="44.41504" lon="6.75265">
        <ele>1292</ele>
        <time>2022-07-19T13:52:38Z</time>
      </trkpt>
      <trkpt lat="44.41502" lon="6.75255">
        <ele>1291.6</ele>
        <time>2022-07-19T13:52:39Z</time>
      </trkpt>
      <trkpt lat="44.41498" lon="6.75244">
        <ele>1291</ele>
        <time>2022-07-19T13:52:40Z</time>
      </trkpt>
      <trkpt lat="44.41493" lon="6.75234">
        <ele>1290.6</ele>
        <time>2022-07-19T13:52:41Z</time>
      </trkpt>
      <trkpt lat="44.41487" lon="6.75224">
        <ele>1290</ele>
        <time>2022-07-19T13:52:42Z</time>
      </trkpt>
      <trkpt lat="44.41482" lon="6.75213">
        <ele>1289.4</ele>
        <time>2022-07-19T13:52:43Z</time>
      </trkpt>
      <trkpt lat="44.41476" lon="6.75203">
        <ele>1288.8</ele>
        <time>2022-07-19T13:52:44Z</time>
      </trkpt>
      <trkpt lat="44.41471" lon="6.75192">
        <ele>1288</ele>
        <time>2022-07-19T13:52:45Z</time>
      </trkpt>
      <trkpt lat="44.41467" lon="6.75181">
        <ele>1287.4</ele>
        <time>2022-07-19T13:52:46Z</time>
      </trkpt>
      <trkpt lat="44.41466" lon="6.75171">
        <ele>1286.8</ele>
        <time>2022-07-19T13:52:47Z</time>
      </trkpt>
      <trkpt lat="44.41468" lon="6.75162">
        <ele>1286</ele>
        <time>2022-07-19T13:52:48Z</time>
      </trkpt>
      <trkpt lat="44.41472" lon="6.75153">
        <ele>1285.2</ele>
        <time>2022-07-19T13:52:49Z</time>
      </trkpt>
      <trkpt lat="44.41479" lon="6.75146">
        <ele>1284.4</ele>
        <time>2022-07-19T13:52:50Z</time>
      </trkpt>
      <trkpt lat="44.41488" lon="6.75142">
        <ele>1283.8</ele>
        <time>2022-07-19T13:52:51Z</time>
      </trkpt>
      <trkpt lat="44.41497" lon="6.7514">
        <ele>1283.2</ele>
        <time>2022-07-19T13:52:52Z</time>
      </trkpt>
      <trkpt lat="44.41506" lon="6.75137">
        <ele>1282.6</ele>
        <time>2022-07-19T13:52:53Z</time>
      </trkpt>
      <trkpt lat="44.41515" lon="6.75133">
        <ele>1282</ele>
        <time>2022-07-19T13:52:54Z</time>
      </trkpt>
      <trkpt lat="44.41523" lon="6.75128">
        <ele>1281.6</ele>
        <time>2022-07-19T13:52:55Z</time>
      </trkpt>
      <trkpt lat="44.41531" lon="6.75122">
        <ele>1281.2</ele>
        <time>2022-07-19T13:52:56Z</time>
      </trkpt>
      <trkpt lat="44.41539" lon="6.75115">
        <ele>1281</ele>
        <time>2022-07-19T13:52:57Z</time>
      </trkpt>
      <trkpt lat="44.41546" lon="6.75109">
        <ele>1280.6</ele>
        <time>2022-07-19T13:52:58Z</time>
      </trkpt>
      <trkpt lat="44.41553" lon="6.75103">
        <ele>1280.2</ele>
        <time>2022-07-19T13:52:59Z</time>
      </trkpt>
      <trkpt lat="44.41557" lon="6.75095">
        <ele>1280</ele>
        <time>2022-07-19T13:53:00Z</time>
      </trkpt>
      <trkpt lat="44.41559" lon="6.75086">
        <ele>1279.6</ele>
        <time>2022-07-19T13:53:01Z</time>
      </trkpt>
      <trkpt lat="44.41558" lon="6.75076">
        <ele>1279</ele>
        <time>2022-07-19T13:53:02Z</time>
      </trkpt>
      <trkpt lat="44.41555" lon="6.75066">
        <ele>1278.8</ele>
        <time>2022-07-19T13:53:03Z</time>
      </trkpt>
      <trkpt lat="44.4155" lon="6.75057">
        <ele>1278.4</ele>
        <time>2022-07-19T13:53:04Z</time>
      </trkpt>
      <trkpt lat="44.41544" lon="6.75047">
        <ele>1278</ele>
        <time>2022-07-19T13:53:05Z</time>
      </trkpt>
      <trkpt lat="44.41538" lon="6.75036">
        <ele>1277.4</ele>
        <time>2022-07-19T13:53:06Z</time>
      </trkpt>
      <trkpt lat="44.41531" lon="6.75023">
        <ele>1277</ele>
        <time>2022-07-19T13:53:07Z</time>
      </trkpt>
      <trkpt lat="44.41525" lon="6.7501">
        <ele>1276.4</ele>
        <time>2022-07-19T13:53:08Z</time>
      </trkpt>
      <trkpt lat="44.41519" lon="6.74997">
        <ele>1276</ele>
        <time>2022-07-19T13:53:09Z</time>
      </trkpt>
      <trkpt lat="44.41512" lon="6.74984">
        <ele>1275.6</ele>
        <time>2022-07-19T13:53:10Z</time>
      </trkpt>
      <trkpt lat="44.41507" lon="6.74971">
        <ele>1275</ele>
        <time>2022-07-19T13:53:11Z</time>
      </trkpt>
      <trkpt lat="44.41501" lon="6.74959">
        <ele>1274.4</ele>
        <time>2022-07-19T13:53:12Z</time>
      </trkpt>
      <trkpt lat="44.41495" lon="6.74947">
        <ele>1274</ele>
        <time>2022-07-19T13:53:13Z</time>
      </trkpt>
      <trkpt lat="44.4149" lon="6.74935">
        <ele>1273.4</ele>
        <time>2022-07-19T13:53:14Z</time>
      </trkpt>
      <trkpt lat="44.41485" lon="6.74923">
        <ele>1272.8</ele>
        <time>2022-07-19T13:53:15Z</time>
      </trkpt>
      <trkpt lat="44.4148" lon="6.7491">
        <ele>1272</ele>
        <time>2022-07-19T13:53:16Z</time>
      </trkpt>
      <trkpt lat="44.41475" lon="6.74896">
        <ele>1271.4</ele>
        <time>2022-07-19T13:53:17Z</time>
      </trkpt>
      <trkpt lat="44.41471" lon="6.74883">
        <ele>1270.8</ele>
        <time>2022-07-19T13:53:18Z</time>
      </trkpt>
      <trkpt lat="44.41466" lon="6.7487">
        <ele>1270.2</ele>
        <time>2022-07-19T13:53:19Z</time>
      </trkpt>
      <trkpt lat="44.41463" lon="6.74857">
        <ele>1269.4</ele>
        <time>2022-07-19T13:53:20Z</time>
      </trkpt>
      <trkpt lat="44.41461" lon="6.74842">
        <ele>1268.8</ele>
        <time>2022-07-19T13:53:21Z</time>
      </trkpt>
      <trkpt lat="44.41461" lon="6.74826">
        <ele>1268</ele>
        <time>2022-07-19T13:53:22Z</time>
      </trkpt>
      <trkpt lat="44.41464" lon="6.74811">
        <ele>1267.2</ele>
        <time>2022-07-19T13:53:23Z</time>
      </trkpt>
      <trkpt lat="44.41469" lon="6.74796">
        <ele>1266.6</ele>
        <time>2022-07-19T13:53:24Z</time>
      </trkpt>
      <trkpt lat="44.41475" lon="6.74782">
        <ele>1266</ele>
        <time>2022-07-19T13:53:25Z</time>
      </trkpt>
      <trkpt lat="44.4148" lon="6.74766">
        <ele>1265.4</ele>
        <time>2022-07-19T13:53:26Z</time>
      </trkpt>
      <trkpt lat="44.41484" lon="6.74751">
        <ele>1264.8</ele>
        <time>2022-07-19T13:53:27Z</time>
      </trkpt>
      <trkpt lat="44.41488" lon="6.74735">
        <ele>1264.2</ele>
        <time>2022-07-19T13:53:28Z</time>
      </trkpt>
      <trkpt lat="44.4149" lon="6.74719">
        <ele>1263.6</ele>
        <time>2022-07-19T13:53:29Z</time>
      </trkpt>
      <trkpt lat="44.41493" lon="6.74704">
        <ele>1263</ele>
        <time>2022-07-19T13:53:30Z</time>
      </trkpt>
      <trkpt lat="44.41495" lon="6.7469">
        <ele>1262.4</ele>
        <time>2022-07-19T13:53:31Z</time>
      </trkpt>
      <trkpt lat="44.41497" lon="6.74675">
        <ele>1261.8</ele>
        <time>2022-07-19T13:53:32Z</time>
      </trkpt>
      <trkpt lat="44.415" lon="6.74661">
        <ele>1261.4</ele>
        <time>2022-07-19T13:53:33Z</time>
      </trkpt>
      <trkpt lat="44.41505" lon="6.74648">
        <ele>1260.6</ele>
        <time>2022-07-19T13:53:34Z</time>
      </trkpt>
      <trkpt lat="44.41509" lon="6.74636">
        <ele>1260</ele>
        <time>2022-07-19T13:53:35Z</time>
      </trkpt>
      <trkpt lat="44.41512" lon="6.74626">
        <ele>1259.4</ele>
        <time>2022-07-19T13:53:36Z</time>
      </trkpt>
      <trkpt lat="44.41515" lon="6.74616">
        <ele>1258.8</ele>
        <time>2022-07-19T13:53:37Z</time>
      </trkpt>
      <trkpt lat="44.41519" lon="6.74606">
        <ele>1258.2</ele>
        <time>2022-07-19T13:53:38Z</time>
      </trkpt>
      <trkpt lat="44.41521" lon="6.74595">
        <ele>1257.4</ele>
        <time>2022-07-19T13:53:39Z</time>
      </trkpt>
      <trkpt lat="44.41523" lon="6.74583">
        <ele>1256.8</ele>
        <time>2022-07-19T13:53:40Z</time>
      </trkpt>
      <trkpt lat="44.41525" lon="6.74571">
        <ele>1256.4</ele>
        <time>2022-07-19T13:53:41Z</time>
      </trkpt>
      <trkpt lat="44.41526" lon="6.74558">
        <ele>1256</ele>
        <time>2022-07-19T13:53:42Z</time>
      </trkpt>
      <trkpt lat="44.41527" lon="6.74532">
        <ele>1255.4</ele>
        <time>2022-07-19T13:53:43Z</time>
      </trkpt>
      <trkpt lat="44.41527" lon="6.74519">
        <ele>1255.2</ele>
        <time>2022-07-19T13:53:44Z</time>
      </trkpt>
      <trkpt lat="44.41528" lon="6.74506">
        <ele>1254.8</ele>
        <time>2022-07-19T13:53:45Z</time>
      </trkpt>
      <trkpt lat="44.4153" lon="6.74492">
        <ele>1254.2</ele>
        <time>2022-07-19T13:53:46Z</time>
      </trkpt>
      <trkpt lat="44.41533" lon="6.74479">
        <ele>1253.8</ele>
        <time>2022-07-19T13:53:47Z</time>
      </trkpt>
      <trkpt lat="44.41537" lon="6.74466">
        <ele>1253.2</ele>
        <time>2022-07-19T13:53:48Z</time>
      </trkpt>
      <trkpt lat="44.41542" lon="6.74453">
        <ele>1252.8</ele>
        <time>2022-07-19T13:53:49Z</time>
      </trkpt>
      <trkpt lat="44.41546" lon="6.74441">
        <ele>1252.4</ele>
        <time>2022-07-19T13:53:50Z</time>
      </trkpt>
      <trkpt lat="44.41552" lon="6.74429">
        <ele>1251.8</ele>
        <time>2022-07-19T13:53:51Z</time>
      </trkpt>
      <trkpt lat="44.41557" lon="6.74417">
        <ele>1251.2</ele>
        <time>2022-07-19T13:53:52Z</time>
      </trkpt>
      <trkpt lat="44.41562" lon="6.74404">
        <ele>1250.8</ele>
        <time>2022-07-19T13:53:53Z</time>
      </trkpt>
      <trkpt lat="44.41567" lon="6.74391">
        <ele>1250.4</ele>
        <time>2022-07-19T13:53:54Z</time>
      </trkpt>
      <trkpt lat="44.41571" lon="6.74378">
        <ele>1249.8</ele>
        <time>2022-07-19T13:53:55Z</time>
      </trkpt>
      <trkpt lat="44.41575" lon="6.74367">
        <ele>1249.4</ele>
        <time>2022-07-19T13:53:56Z</time>
      </trkpt>
      <trkpt lat="44.41578" lon="6.74357">
        <ele>1248.8</ele>
        <time>2022-07-19T13:53:57Z</time>
      </trkpt>
      <trkpt lat="44.41583" lon="6.74348">
        <ele>1248.4</ele>
        <time>2022-07-19T13:53:58Z</time>
      </trkpt>
      <trkpt lat="44.4159" lon="6.74338">
        <ele>1248</ele>
        <time>2022-07-19T13:53:59Z</time>
      </trkpt>
      <trkpt lat="44.41597" lon="6.7433">
        <ele>1247.4</ele>
        <time>2022-07-19T13:54:00Z</time>
      </trkpt>
      <trkpt lat="44.41605" lon="6.74322">
        <ele>1247</ele>
        <time>2022-07-19T13:54:01Z</time>
      </trkpt>
      <trkpt lat="44.41613" lon="6.74316">
        <ele>1246.4</ele>
        <time>2022-07-19T13:54:02Z</time>
      </trkpt>
      <trkpt lat="44.41622" lon="6.7431">
        <ele>1245.8</ele>
        <time>2022-07-19T13:54:03Z</time>
      </trkpt>
      <trkpt lat="44.4163" lon="6.74303">
        <ele>1245.2</ele>
        <time>2022-07-19T13:54:04Z</time>
      </trkpt>
      <trkpt lat="44.41639" lon="6.74296">
        <ele>1244.8</ele>
        <time>2022-07-19T13:54:05Z</time>
      </trkpt>
      <trkpt lat="44.41646" lon="6.74288">
        <ele>1244.2</ele>
        <time>2022-07-19T13:54:06Z</time>
      </trkpt>
      <trkpt lat="44.41653" lon="6.74279">
        <ele>1243.8</ele>
        <time>2022-07-19T13:54:07Z</time>
      </trkpt>
      <trkpt lat="44.41661" lon="6.7427">
        <ele>1243.2</ele>
        <time>2022-07-19T13:54:08Z</time>
      </trkpt>
      <trkpt lat="44.41668" lon="6.74261">
        <ele>1243</ele>
        <time>2022-07-19T13:54:09Z</time>
      </trkpt>
      <trkpt lat="44.41675" lon="6.74252">
        <ele>1242.6</ele>
        <time>2022-07-19T13:54:10Z</time>
      </trkpt>
      <trkpt lat="44.41682" lon="6.74241">
        <ele>1242.2</ele>
        <time>2022-07-19T13:54:11Z</time>
      </trkpt>
      <trkpt lat="44.41688" lon="6.74232">
        <ele>1242</ele>
        <time>2022-07-19T13:54:12Z</time>
      </trkpt>
      <trkpt lat="44.41694" lon="6.74221">
        <ele>1241.6</ele>
        <time>2022-07-19T13:54:13Z</time>
      </trkpt>
      <trkpt lat="44.41701" lon="6.74212">
        <ele>1241.2</ele>
        <time>2022-07-19T13:54:14Z</time>
      </trkpt>
      <trkpt lat="44.41708" lon="6.74202">
        <ele>1240.8</ele>
        <time>2022-07-19T13:54:15Z</time>
      </trkpt>
      <trkpt lat="44.41715" lon="6.74193">
        <ele>1240.4</ele>
        <time>2022-07-19T13:54:16Z</time>
      </trkpt>
      <trkpt lat="44.41722" lon="6.74184">
        <ele>1240</ele>
        <time>2022-07-19T13:54:17Z</time>
      </trkpt>
      <trkpt lat="44.4173" lon="6.74176">
        <ele>1239.6</ele>
        <time>2022-07-19T13:54:18Z</time>
      </trkpt>
      <trkpt lat="44.41739" lon="6.74169">
        <ele>1239.2</ele>
        <time>2022-07-19T13:54:19Z</time>
      </trkpt>
      <trkpt lat="44.41749" lon="6.74162">
        <ele>1238.8</ele>
        <time>2022-07-19T13:54:20Z</time>
      </trkpt>
      <trkpt lat="44.41759" lon="6.74155">
        <ele>1238.4</ele>
        <time>2022-07-19T13:54:21Z</time>
      </trkpt>
      <trkpt lat="44.41768" lon="6.74149">
        <ele>1238</ele>
        <time>2022-07-19T13:54:22Z</time>
      </trkpt>
      <trkpt lat="44.41777" lon="6.74143">
        <ele>1237.6</ele>
        <time>2022-07-19T13:54:23Z</time>
      </trkpt>
      <trkpt lat="44.41787" lon="6.74136">
        <ele>1237</ele>
        <time>2022-07-19T13:54:24Z</time>
      </trkpt>
      <trkpt lat="44.41796" lon="6.74128">
        <ele>1236.6</ele>
        <time>2022-07-19T13:54:25Z</time>
      </trkpt>
      <trkpt lat="44.41805" lon="6.74121">
        <ele>1236</ele>
        <time>2022-07-19T13:54:26Z</time>
      </trkpt>
      <trkpt lat="44.41814" lon="6.74113">
        <ele>1235.6</ele>
        <time>2022-07-19T13:54:27Z</time>
      </trkpt>
      <trkpt lat="44.41822" lon="6.74107">
        <ele>1235.2</ele>
        <time>2022-07-19T13:54:28Z</time>
      </trkpt>
      <trkpt lat="44.4183" lon="6.741">
        <ele>1234.8</ele>
        <time>2022-07-19T13:54:29Z</time>
      </trkpt>
      <trkpt lat="44.41837" lon="6.74093">
        <ele>1234.4</ele>
        <time>2022-07-19T13:54:30Z</time>
      </trkpt>
      <trkpt lat="44.41845" lon="6.74086">
        <ele>1234</ele>
        <time>2022-07-19T13:54:31Z</time>
      </trkpt>
      <trkpt lat="44.41853" lon="6.74079">
        <ele>1233.6</ele>
        <time>2022-07-19T13:54:32Z</time>
      </trkpt>
      <trkpt lat="44.4186" lon="6.74072">
        <ele>1233.2</ele>
        <time>2022-07-19T13:54:33Z</time>
      </trkpt>
      <trkpt lat="44.41868" lon="6.74065">
        <ele>1233</ele>
        <time>2022-07-19T13:54:34Z</time>
      </trkpt>
      <trkpt lat="44.41876" lon="6.74059">
        <ele>1232.6</ele>
        <time>2022-07-19T13:54:35Z</time>
      </trkpt>
      <trkpt lat="44.41884" lon="6.74053">
        <ele>1232.4</ele>
        <time>2022-07-19T13:54:36Z</time>
      </trkpt>
      <trkpt lat="44.41892" lon="6.74047">
        <ele>1232.2</ele>
        <time>2022-07-19T13:54:37Z</time>
      </trkpt>
      <trkpt lat="44.419" lon="6.74042">
        <ele>1231.8</ele>
        <time>2022-07-19T13:54:38Z</time>
      </trkpt>
      <trkpt lat="44.41908" lon="6.74036">
        <ele>1231.6</ele>
        <time>2022-07-19T13:54:39Z</time>
      </trkpt>
      <trkpt lat="44.41917" lon="6.74031">
        <ele>1231.2</ele>
        <time>2022-07-19T13:54:40Z</time>
      </trkpt>
      <trkpt lat="44.41925" lon="6.74026">
        <ele>1231</ele>
        <time>2022-07-19T13:54:41Z</time>
      </trkpt>
      <trkpt lat="44.41933" lon="6.74019">
        <ele>1231</ele>
        <time>2022-07-19T13:54:42Z</time>
      </trkpt>
      <trkpt lat="44.41941" lon="6.74014">
        <ele>1230.6</ele>
        <time>2022-07-19T13:54:43Z</time>
      </trkpt>
      <trkpt lat="44.41949" lon="6.74008">
        <ele>1230.6</ele>
        <time>2022-07-19T13:54:44Z</time>
      </trkpt>
      <trkpt lat="44.41957" lon="6.74002">
        <ele>1230.2</ele>
        <time>2022-07-19T13:54:45Z</time>
      </trkpt>
      <trkpt lat="44.41964" lon="6.73997">
        <ele>1230</ele>
        <time>2022-07-19T13:54:46Z</time>
      </trkpt>
      <trkpt lat="44.41971" lon="6.7399">
        <ele>1230</ele>
        <time>2022-07-19T13:54:47Z</time>
      </trkpt>
      <trkpt lat="44.41977" lon="6.73983">
        <ele>1229.4</ele>
        <time>2022-07-19T13:54:48Z</time>
      </trkpt>
      <trkpt lat="44.41983" lon="6.73975">
        <ele>1229.2</ele>
        <time>2022-07-19T13:54:49Z</time>
      </trkpt>
      <trkpt lat="44.41989" lon="6.73966">
        <ele>1228.8</ele>
        <time>2022-07-19T13:54:50Z</time>
      </trkpt>
      <trkpt lat="44.41994" lon="6.73957">
        <ele>1228.8</ele>
        <time>2022-07-19T13:54:51Z</time>
      </trkpt>
      <trkpt lat="44.41999" lon="6.73947">
        <ele>1228.6</ele>
        <time>2022-07-19T13:54:52Z</time>
      </trkpt>
      <trkpt lat="44.42003" lon="6.73937">
        <ele>1228.6</ele>
        <time>2022-07-19T13:54:53Z</time>
      </trkpt>
      <trkpt lat="44.42006" lon="6.73926">
        <ele>1228.6</ele>
        <time>2022-07-19T13:54:54Z</time>
      </trkpt>
      <trkpt lat="44.42009" lon="6.73916">
        <ele>1228.2</ele>
        <time>2022-07-19T13:54:55Z</time>
      </trkpt>
      <trkpt lat="44.42011" lon="6.73906">
        <ele>1228.2</ele>
        <time>2022-07-19T13:54:56Z</time>
      </trkpt>
      <trkpt lat="44.42012" lon="6.73896">
        <ele>1228.2</ele>
        <time>2022-07-19T13:54:57Z</time>
      </trkpt>
      <trkpt lat="44.42014" lon="6.73888">
        <ele>1228.6</ele>
        <time>2022-07-19T13:54:58Z</time>
      </trkpt>
      <trkpt lat="44.42015" lon="6.7388">
        <ele>1229</ele>
        <time>2022-07-19T13:54:59Z</time>
      </trkpt>
      <trkpt lat="44.42015" lon="6.73872">
        <ele>1229.2</ele>
        <time>2022-07-19T13:55:00Z</time>
      </trkpt>
      <trkpt lat="44.42016" lon="6.73865">
        <ele>1229.4</ele>
        <time>2022-07-19T13:55:01Z</time>
      </trkpt>
      <trkpt lat="44.42017" lon="6.73858">
        <ele>1229.4</ele>
        <time>2022-07-19T13:55:02Z</time>
      </trkpt>
      <trkpt lat="44.42018" lon="6.7385">
        <ele>1229.6</ele>
        <time>2022-07-19T13:55:03Z</time>
      </trkpt>
      <trkpt lat="44.42019" lon="6.73843">
        <ele>1229.6</ele>
        <time>2022-07-19T13:55:04Z</time>
      </trkpt>
      <trkpt lat="44.42019" lon="6.73835">
        <ele>1229.6</ele>
        <time>2022-07-19T13:55:05Z</time>
      </trkpt>
      <trkpt lat="44.4202" lon="6.73827">
        <ele>1229.6</ele>
        <time>2022-07-19T13:55:06Z</time>
      </trkpt>
      <trkpt lat="44.42021" lon="6.7382">
        <ele>1229.6</ele>
        <time>2022-07-19T13:55:07Z</time>
      </trkpt>
      <trkpt lat="44.42022" lon="6.73812">
        <ele>1229.6</ele>
        <time>2022-07-19T13:55:08Z</time>
      </trkpt>
      <trkpt lat="44.42023" lon="6.73804">
        <ele>1229.6</ele>
        <time>2022-07-19T13:55:09Z</time>
      </trkpt>
      <trkpt lat="44.42024" lon="6.73795">
        <ele>1229.4</ele>
        <time>2022-07-19T13:55:10Z</time>
      </trkpt>
      <trkpt lat="44.42025" lon="6.73787">
        <ele>1229.4</ele>
        <time>2022-07-19T13:55:11Z</time>
      </trkpt>
      <trkpt lat="44.42026" lon="6.73779">
        <ele>1229</ele>
        <time>2022-07-19T13:55:12Z</time>
      </trkpt>
      <trkpt lat="44.42028" lon="6.73769">
        <ele>1228.8</ele>
        <time>2022-07-19T13:55:13Z</time>
      </trkpt>
      <trkpt lat="44.42029" lon="6.7376">
        <ele>1228.6</ele>
        <time>2022-07-19T13:55:14Z</time>
      </trkpt>
      <trkpt lat="44.42031" lon="6.7375">
        <ele>1228.6</ele>
        <time>2022-07-19T13:55:15Z</time>
      </trkpt>
      <trkpt lat="44.42033" lon="6.73741">
        <ele>1228.2</ele>
        <time>2022-07-19T13:55:16Z</time>
      </trkpt>
      <trkpt lat="44.42036" lon="6.73731">
        <ele>1228.2</ele>
        <time>2022-07-19T13:55:17Z</time>
      </trkpt>
      <trkpt lat="44.42039" lon="6.73723">
        <ele>1227.8</ele>
        <time>2022-07-19T13:55:18Z</time>
      </trkpt>
      <trkpt lat="44.42042" lon="6.73714">
        <ele>1227.6</ele>
        <time>2022-07-19T13:55:19Z</time>
      </trkpt>
      <trkpt lat="44.42045" lon="6.73705">
        <ele>1227.4</ele>
        <time>2022-07-19T13:55:20Z</time>
      </trkpt>
      <trkpt lat="44.42048" lon="6.73697">
        <ele>1227.4</ele>
        <time>2022-07-19T13:55:21Z</time>
      </trkpt>
      <trkpt lat="44.42052" lon="6.7369">
        <ele>1227</ele>
        <time>2022-07-19T13:55:22Z</time>
      </trkpt>
      <trkpt lat="44.42055" lon="6.73684">
        <ele>1226.8</ele>
        <time>2022-07-19T13:55:23Z</time>
      </trkpt>
      <trkpt lat="44.42057" lon="6.73679">
        <ele>1226.8</ele>
        <time>2022-07-19T13:55:24Z</time>
      </trkpt>
      <trkpt lat="44.42059" lon="6.73675">
        <ele>1226.4</ele>
        <time>2022-07-19T13:55:25Z</time>
      </trkpt>
      <trkpt lat="44.4206" lon="6.73671">
        <ele>1226.4</ele>
        <time>2022-07-19T13:55:26Z</time>
      </trkpt>
      <trkpt lat="44.42061" lon="6.7367">
        <ele>1226.4</ele>
        <time>2022-07-19T13:55:27Z</time>
      </trkpt>
      <trkpt lat="44.42061" lon="6.73669">
        <ele>1226.2</ele>
        <time>2022-07-19T13:55:28Z</time>
      </trkpt>
      <trkpt lat="44.42061" lon="6.73669">
        <ele>1226.2</ele>
        <time>2022-07-19T13:55:29Z</time>
      </trkpt>
      <trkpt lat="44.42061" lon="6.7367">
        <ele>1226.2</ele>
        <time>2022-07-19T13:55:30Z</time>
      </trkpt>
      <trkpt lat="44.42061" lon="6.73664">
        <ele>1226.2</ele>
        <time>2022-07-19T13:55:34Z</time>
      </trkpt>
      <trkpt lat="44.4206" lon="6.73661">
        <ele>1226.2</ele>
        <time>2022-07-19T13:55:35Z</time>
      </trkpt>
      <trkpt lat="44.42058" lon="6.73658">
        <ele>1226.2</ele>
        <time>2022-07-19T13:55:36Z</time>
      </trkpt>
      <trkpt lat="44.42056" lon="6.73655">
        <ele>1226.2</ele>
        <time>2022-07-19T13:55:37Z</time>
      </trkpt>
      <trkpt lat="44.42053" lon="6.73653">
        <ele>1226.2</ele>
        <time>2022-07-19T13:55:38Z</time>
      </trkpt>
      <trkpt lat="44.4205" lon="6.7365">
        <ele>1226.2</ele>
        <time>2022-07-19T13:55:39Z</time>
      </trkpt>
      <trkpt lat="44.42046" lon="6.73647">
        <ele>1226.2</ele>
        <time>2022-07-19T13:55:40Z</time>
      </trkpt>
      <trkpt lat="44.42042" lon="6.73644">
        <ele>1226.2</ele>
        <time>2022-07-19T13:55:41Z</time>
      </trkpt>
      <trkpt lat="44.42038" lon="6.7364">
        <ele>1226</ele>
        <time>2022-07-19T13:55:42Z</time>
      </trkpt>
      <trkpt lat="44.42034" lon="6.73637">
        <ele>1226</ele>
        <time>2022-07-19T13:55:43Z</time>
      </trkpt>
      <trkpt lat="44.42029" lon="6.73632">
        <ele>1226</ele>
        <time>2022-07-19T13:55:44Z</time>
      </trkpt>
      <trkpt lat="44.42026" lon="6.73628">
        <ele>1225.8</ele>
        <time>2022-07-19T13:55:45Z</time>
      </trkpt>
      <trkpt lat="44.42022" lon="6.73623">
        <ele>1225.8</ele>
        <time>2022-07-19T13:55:46Z</time>
      </trkpt>
      <trkpt lat="44.42017" lon="6.73618">
        <ele>1225.8</ele>
        <time>2022-07-19T13:55:47Z</time>
      </trkpt>
      <trkpt lat="44.42013" lon="6.73614">
        <ele>1225.8</ele>
        <time>2022-07-19T13:55:48Z</time>
      </trkpt>
      <trkpt lat="44.42009" lon="6.73609">
        <ele>1225.8</ele>
        <time>2022-07-19T13:55:49Z</time>
      </trkpt>
      <trkpt lat="44.42006" lon="6.73603">
        <ele>1225.4</ele>
        <time>2022-07-19T13:55:50Z</time>
      </trkpt>
      <trkpt lat="44.42002" lon="6.73598">
        <ele>1225.4</ele>
        <time>2022-07-19T13:55:51Z</time>
      </trkpt>
      <trkpt lat="44.41999" lon="6.73593">
        <ele>1225.4</ele>
        <time>2022-07-19T13:55:52Z</time>
      </trkpt>
      <trkpt lat="44.41996" lon="6.73588">
        <ele>1225.4</ele>
        <time>2022-07-19T13:55:53Z</time>
      </trkpt>
      <trkpt lat="44.41993" lon="6.73584">
        <ele>1225.4</ele>
        <time>2022-07-19T13:55:54Z</time>
      </trkpt>
      <trkpt lat="44.41991" lon="6.73579">
        <ele>1225.4</ele>
        <time>2022-07-19T13:55:55Z</time>
      </trkpt>
      <trkpt lat="44.41988" lon="6.73574">
        <ele>1225.2</ele>
        <time>2022-07-19T13:55:56Z</time>
      </trkpt>
      <trkpt lat="44.41985" lon="6.73569">
        <ele>1225.2</ele>
        <time>2022-07-19T13:55:57Z</time>
      </trkpt>
      <trkpt lat="44.41983" lon="6.73565">
        <ele>1225.2</ele>
        <time>2022-07-19T13:55:58Z</time>
      </trkpt>
      <trkpt lat="44.41979" lon="6.73561">
        <ele>1225.2</ele>
        <time>2022-07-19T13:55:59Z</time>
      </trkpt>
      <trkpt lat="44.41976" lon="6.73557">
        <ele>1225.2</ele>
        <time>2022-07-19T13:56:00Z</time>
      </trkpt>
      <trkpt lat="44.41973" lon="6.73554">
        <ele>1225</ele>
        <time>2022-07-19T13:56:01Z</time>
      </trkpt>
      <trkpt lat="44.41971" lon="6.73549">
        <ele>1225</ele>
        <time>2022-07-19T13:56:02Z</time>
      </trkpt>
      <trkpt lat="44.41968" lon="6.73545">
        <ele>1225</ele>
        <time>2022-07-19T13:56:03Z</time>
      </trkpt>
      <trkpt lat="44.41965" lon="6.7354">
        <ele>1224.8</ele>
        <time>2022-07-19T13:56:04Z</time>
      </trkpt>
      <trkpt lat="44.41963" lon="6.73536">
        <ele>1224.8</ele>
        <time>2022-07-19T13:56:05Z</time>
      </trkpt>
      <trkpt lat="44.41961" lon="6.73532">
        <ele>1224.8</ele>
        <time>2022-07-19T13:56:06Z</time>
      </trkpt>
      <trkpt lat="44.41958" lon="6.73528">
        <ele>1224.8</ele>
        <time>2022-07-19T13:56:07Z</time>
      </trkpt>
      <trkpt lat="44.41956" lon="6.73525">
        <ele>1224.8</ele>
        <time>2022-07-19T13:56:08Z</time>
      </trkpt>
      <trkpt lat="44.41955" lon="6.73522">
        <ele>1224.8</ele>
        <time>2022-07-19T13:56:09Z</time>
      </trkpt>
      <trkpt lat="44.41954" lon="6.73521">
        <ele>1224.6</ele>
        <time>2022-07-19T13:56:10Z</time>
      </trkpt>
      <trkpt lat="44.41953" lon="6.7352">
        <ele>1224.6</ele>
        <time>2022-07-19T13:56:11Z</time>
      </trkpt>
      <trkpt lat="44.41951" lon="6.73518">
        <ele>1224.6</ele>
        <time>2022-07-19T13:56:12Z</time>
      </trkpt>
      <trkpt lat="44.4195" lon="6.73516">
        <ele>1224.6</ele>
        <time>2022-07-19T13:56:13Z</time>
      </trkpt>
      <trkpt lat="44.41948" lon="6.73513">
        <ele>1224.2</ele>
        <time>2022-07-19T13:56:14Z</time>
      </trkpt>
      <trkpt lat="44.41947" lon="6.7351">
        <ele>1224.2</ele>
        <time>2022-07-19T13:56:15Z</time>
      </trkpt>
      <trkpt lat="44.41946" lon="6.73508">
        <ele>1224.2</ele>
        <time>2022-07-19T13:56:16Z</time>
      </trkpt>
      <trkpt lat="44.41946" lon="6.73508">
        <ele>1224.2</ele>
        <time>2022-07-19T13:56:17Z</time>
      </trkpt>
      <trkpt lat="44.41946" lon="6.73508">
        <ele>1224.2</ele>
        <time>2022-07-19T13:56:18Z</time>
      </trkpt>
      <trkpt lat="44.41946" lon="6.73508">
        <ele>1224</ele>
        <time>2022-07-19T13:56:19Z</time>
      </trkpt>
      <trkpt lat="44.41946" lon="6.73508">
        <ele>1224</ele>
        <time>2022-07-19T13:56:20Z</time>
      </trkpt>
      <trkpt lat="44.41946" lon="6.73508">
        <ele>1224</ele>
        <time>2022-07-19T13:56:21Z</time>
      </trkpt>
      <trkpt lat="44.41946" lon="6.73508">
        <ele>1224</ele>
        <time>2022-07-19T13:56:22Z</time>
      </trkpt>
      <trkpt lat="44.41946" lon="6.73508">
        <ele>1224</ele>
        <time>2022-07-19T13:56:23Z</time>
      </trkpt>
      <trkpt lat="44.41946" lon="6.73508">
        <ele>1224</ele>
        <time>2022-07-19T13:56:24Z</time>
      </trkpt>
      <trkpt lat="44.41946" lon="6.73507">
        <ele>1224</ele>
        <time>2022-07-19T13:56:25Z</time>
      </trkpt>
      <trkpt lat="44.41945" lon="6.73507">
        <ele>1224</ele>
        <time>2022-07-19T13:56:27Z</time>
      </trkpt>
      <trkpt lat="44.41945" lon="6.73507">
        <ele>1224</ele>
        <time>2022-07-19T13:56:28Z</time>
      </trkpt>
      <trkpt lat="44.41945" lon="6.73507">
        <ele>1224</ele>
        <time>2022-07-19T13:56:29Z</time>
      </trkpt>
      <trkpt lat="44.41945" lon="6.73507">
        <ele>1224</ele>
        <time>2022-07-19T13:56:30Z</time>
      </trkpt>
      <trkpt lat="44.41945" lon="6.73507">
        <ele>1224</ele>
        <time>2022-07-19T13:56:31Z</time>
      </trkpt>
      <trkpt lat="44.41945" lon="6.73507">
        <ele>1224</ele>
        <time>2022-07-19T13:56:33Z</time>
      </trkpt>
      <trkpt lat="44.41945" lon="6.73507">
        <ele>1224</ele>
        <time>2022-07-19T13:56:38Z</time>
      </trkpt>
      <trkpt lat="44.41945" lon="6.73507">
        <ele>1224</ele>
        <time>2022-07-19T13:56:39Z</time>
      </trkpt>
      <trkpt lat="44.41945" lon="6.73507">
        <ele>1224</ele>
        <time>2022-07-19T13:56:40Z</time>
      </trkpt>
      <trkpt lat="44.41945" lon="6.73506">
        <ele>1224</ele>
        <time>2022-07-19T13:56:41Z</time>
      </trkpt>
      <trkpt lat="44.41945" lon="6.73506">
        <ele>1224</ele>
        <time>2022-07-19T13:56:42Z</time>
      </trkpt>
      <trkpt lat="44.41945" lon="6.73506">
        <ele>1224</ele>
        <time>2022-07-19T13:56:43Z</time>
      </trkpt>
      <trkpt lat="44.41945" lon="6.73506">
        <ele>1224</ele>
        <time>2022-07-19T13:56:44Z</time>
      </trkpt>
      <trkpt lat="44.41945" lon="6.73506">
        <ele>1224</ele>
        <time>2022-07-19T13:56:45Z</time>
      </trkpt>
      <trkpt lat="44.41945" lon="6.73506">
        <ele>1224</ele>
        <time>2022-07-19T13:56:46Z</time>
      </trkpt>
      <trkpt lat="44.41945" lon="6.73506">
        <ele>1224</ele>
        <time>2022-07-19T13:56:47Z</time>
      </trkpt>
      <trkpt lat="44.41945" lon="6.73506">
        <ele>1224</ele>
        <time>2022-07-19T13:56:48Z</time>
      </trkpt>
      <trkpt lat="44.41945" lon="6.73506">
        <ele>1224</ele>
        <time>2022-07-19T13:56:49Z</time>
      </trkpt>
      <trkpt lat="44.41944" lon="6.73506">
        <ele>1224</ele>
        <time>2022-07-19T13:56:51Z</time>
      </trkpt>
      <trkpt lat="44.41944" lon="6.73506">
        <ele>1224</ele>
        <time>2022-07-19T13:56:52Z</time>
      </trkpt>
      <trkpt lat="44.41944" lon="6.73505">
        <ele>1224</ele>
        <time>2022-07-19T13:56:53Z</time>
      </trkpt>
      <trkpt lat="44.41944" lon="6.73505">
        <ele>1224</ele>
        <time>2022-07-19T13:56:54Z</time>
      </trkpt>
      <trkpt lat="44.41944" lon="6.73505">
        <ele>1224</ele>
        <time>2022-07-19T13:56:55Z</time>
      </trkpt>
      <trkpt lat="44.41944" lon="6.73505">
        <ele>1224</ele>
        <time>2022-07-19T13:56:56Z</time>
      </trkpt>
      <trkpt lat="44.41944" lon="6.73505">
        <ele>1224</ele>
        <time>2022-07-19T13:56:57Z</time>
      </trkpt>
      <trkpt lat="44.41944" lon="6.73505">
        <ele>1224</ele>
        <time>2022-07-19T13:56:58Z</time>
      </trkpt>
      <trkpt lat="44.41944" lon="6.73505">
        <ele>1224</ele>
        <time>2022-07-19T13:56:59Z</time>
      </trkpt>
      <trkpt lat="44.41944" lon="6.73505">
        <ele>1224</ele>
        <time>2022-07-19T13:57:00Z</time>
      </trkpt>
      <trkpt lat="44.41944" lon="6.73505">
        <ele>1224</ele>
        <time>2022-07-19T13:57:01Z</time>
      </trkpt>
      <trkpt lat="44.41944" lon="6.73505">
        <ele>1224</ele>
        <time>2022-07-19T13:57:02Z</time>
      </trkpt>
      <trkpt lat="44.41944" lon="6.73504">
        <ele>1224.2</ele>
        <time>2022-07-19T13:57:04Z</time>
      </trkpt>
      <trkpt lat="44.41944" lon="6.73504">
        <ele>1224.2</ele>
        <time>2022-07-19T13:57:05Z</time>
      </trkpt>
      <trkpt lat="44.41944" lon="6.73504">
        <ele>1224.2</ele>
        <time>2022-07-19T13:57:06Z</time>
      </trkpt>
      <trkpt lat="44.41944" lon="6.73504">
        <ele>1224.2</ele>
        <time>2022-07-19T13:57:07Z</time>
      </trkpt>
      <trkpt lat="44.41944" lon="6.73504">
        <ele>1224.2</ele>
        <time>2022-07-19T13:57:08Z</time>
      </trkpt>
      <trkpt lat="44.41944" lon="6.73504">
        <ele>1224.2</ele>
        <time>2022-07-19T13:57:09Z</time>
      </trkpt>
      <trkpt lat="44.41944" lon="6.73504">
        <ele>1224.2</ele>
        <time>2022-07-19T13:57:10Z</time>
      </trkpt>
      <trkpt lat="44.41944" lon="6.73504">
        <ele>1224.2</ele>
        <time>2022-07-19T13:57:11Z</time>
      </trkpt>
      <trkpt lat="44.41943" lon="6.73504">
        <ele>1224.2</ele>
        <time>2022-07-19T13:57:12Z</time>
      </trkpt>
      <trkpt lat="44.41943" lon="6.73504">
        <ele>1224.2</ele>
        <time>2022-07-19T13:57:13Z</time>
      </trkpt>
      <trkpt lat="44.41943" lon="6.73504">
        <ele>1224.2</ele>
        <time>2022-07-19T13:57:14Z</time>
      </trkpt>
      <trkpt lat="44.41943" lon="6.73503">
        <ele>1224.2</ele>
        <time>2022-07-19T13:57:15Z</time>
      </trkpt>
      <trkpt lat="44.41943" lon="6.73503">
        <ele>1224.2</ele>
        <time>2022-07-19T13:57:16Z</time>
      </trkpt>
      <trkpt lat="44.41943" lon="6.73503">
        <ele>1224.2</ele>
        <time>2022-07-19T13:57:17Z</time>
      </trkpt>
      <trkpt lat="44.41943" lon="6.73503">
        <ele>1224.2</ele>
        <time>2022-07-19T13:57:18Z</time>
      </trkpt>
      <trkpt lat="44.41943" lon="6.73503">
        <ele>1224.2</ele>
        <time>2022-07-19T13:57:19Z</time>
      </trkpt>
      <trkpt lat="44.41943" lon="6.73503">
        <ele>1224.2</ele>
        <time>2022-07-19T13:57:20Z</time>
      </trkpt>
      <trkpt lat="44.41943" lon="6.73503">
        <ele>1224</ele>
        <time>2022-07-19T13:57:29Z</time>
      </trkpt>
      <trkpt lat="44.41943" lon="6.73503">
        <ele>1224</ele>
        <time>2022-07-19T13:57:30Z</time>
      </trkpt>
      <trkpt lat="44.41943" lon="6.73503">
        <ele>1224</ele>
        <time>2022-07-19T13:57:33Z</time>
      </trkpt>
      <trkpt lat="44.41943" lon="6.73503">
        <ele>1224</ele>
        <time>2022-07-19T13:57:34Z</time>
      </trkpt>
      <trkpt lat="44.41943" lon="6.73503">
        <ele>1224</ele>
        <time>2022-07-19T13:57:35Z</time>
      </trkpt>
      <trkpt lat="44.41943" lon="6.73502">
        <ele>1224</ele>
        <time>2022-07-19T13:57:36Z</time>
      </trkpt>
      <trkpt lat="44.41943" lon="6.73502">
        <ele>1224</ele>
        <time>2022-07-19T13:57:37Z</time>
      </trkpt>
      <trkpt lat="44.41943" lon="6.73502">
        <ele>1224</ele>
        <time>2022-07-19T13:57:38Z</time>
      </trkpt>
      <trkpt lat="44.41943" lon="6.73502">
        <ele>1224</ele>
        <time>2022-07-19T13:57:39Z</time>
      </trkpt>
      <trkpt lat="44.41943" lon="6.73502">
        <ele>1224</ele>
        <time>2022-07-19T13:57:40Z</time>
      </trkpt>
      <trkpt lat="44.41942" lon="6.73502">
        <ele>1224</ele>
        <time>2022-07-19T13:57:41Z</time>
      </trkpt>
      <trkpt lat="44.41942" lon="6.73502">
        <ele>1224</ele>
        <time>2022-07-19T13:57:42Z</time>
      </trkpt>
      <trkpt lat="44.41942" lon="6.73502">
        <ele>1224</ele>
        <time>2022-07-19T13:57:43Z</time>
      </trkpt>
      <trkpt lat="44.41942" lon="6.73502">
        <ele>1224</ele>
        <time>2022-07-19T13:57:44Z</time>
      </trkpt>
      <trkpt lat="44.41942" lon="6.73502">
        <ele>1224</ele>
        <time>2022-07-19T13:57:45Z</time>
      </trkpt>
      <trkpt lat="44.41942" lon="6.73502">
        <ele>1224</ele>
        <time>2022-07-19T13:57:46Z</time>
      </trkpt>
      <trkpt lat="44.41942" lon="6.73501">
        <ele>1224</ele>
        <time>2022-07-19T13:57:47Z</time>
      </trkpt>
      <trkpt lat="44.41942" lon="6.73501">
        <ele>1224</ele>
        <time>2022-07-19T13:57:48Z</time>
      </trkpt>
      <trkpt lat="44.41942" lon="6.73501">
        <ele>1224</ele>
        <time>2022-07-19T13:57:49Z</time>
      </trkpt>
      <trkpt lat="44.41942" lon="6.73501">
        <ele>1224</ele>
        <time>2022-07-19T13:58:00Z</time>
      </trkpt>
      <trkpt lat="44.41942" lon="6.73501">
        <ele>1224</ele>
        <time>2022-07-19T13:58:01Z</time>
      </trkpt>
      <trkpt lat="44.41942" lon="6.73501">
        <ele>1224</ele>
        <time>2022-07-19T13:58:02Z</time>
      </trkpt>
      <trkpt lat="44.41942" lon="6.73501">
        <ele>1224</ele>
        <time>2022-07-19T13:58:03Z</time>
      </trkpt>
      <trkpt lat="44.41942" lon="6.73501">
        <ele>1224</ele>
        <time>2022-07-19T13:58:04Z</time>
      </trkpt>
      <trkpt lat="44.41942" lon="6.73501">
        <ele>1224</ele>
        <time>2022-07-19T13:58:05Z</time>
      </trkpt>
      <trkpt lat="44.41942" lon="6.73501">
        <ele>1224</ele>
        <time>2022-07-19T13:58:06Z</time>
      </trkpt>
      <trkpt lat="44.41942" lon="6.735">
        <ele>1224</ele>
        <time>2022-07-19T13:58:08Z</time>
      </trkpt>
      <trkpt lat="44.41942" lon="6.735">
        <ele>1224</ele>
        <time>2022-07-19T13:58:09Z</time>
      </trkpt>
      <trkpt lat="44.41941" lon="6.735">
        <ele>1224</ele>
        <time>2022-07-19T13:58:10Z</time>
      </trkpt>
      <trkpt lat="44.41941" lon="6.735">
        <ele>1224</ele>
        <time>2022-07-19T13:58:11Z</time>
      </trkpt>
      <trkpt lat="44.41941" lon="6.735">
        <ele>1224</ele>
        <time>2022-07-19T13:58:12Z</time>
      </trkpt>
      <trkpt lat="44.4194" lon="6.73498">
        <ele>1223.8</ele>
        <time>2022-07-19T13:58:13Z</time>
      </trkpt>
      <trkpt lat="44.41939" lon="6.73496">
        <ele>1223.8</ele>
        <time>2022-07-19T13:58:14Z</time>
      </trkpt>
      <trkpt lat="44.41939" lon="6.73494">
        <ele>1223.8</ele>
        <time>2022-07-19T13:58:15Z</time>
      </trkpt>
      <trkpt lat="44.41938" lon="6.73493">
        <ele>1223.8</ele>
        <time>2022-07-19T13:58:16Z</time>
      </trkpt>
      <trkpt lat="44.41937" lon="6.73491">
        <ele>1223.8</ele>
        <time>2022-07-19T13:58:17Z</time>
      </trkpt>
      <trkpt lat="44.41937" lon="6.73489">
        <ele>1223.8</ele>
        <time>2022-07-19T13:58:18Z</time>
      </trkpt>
      <trkpt lat="44.41937" lon="6.73486">
        <ele>1223.8</ele>
        <time>2022-07-19T13:58:19Z</time>
      </trkpt>
      <trkpt lat="44.41936" lon="6.73484">
        <ele>1223.6</ele>
        <time>2022-07-19T13:58:20Z</time>
      </trkpt>
      <trkpt lat="44.41935" lon="6.73482">
        <ele>1223.6</ele>
        <time>2022-07-19T13:58:21Z</time>
      </trkpt>
      <trkpt lat="44.41934" lon="6.73479">
        <ele>1223.6</ele>
        <time>2022-07-19T13:58:22Z</time>
      </trkpt>
      <trkpt lat="44.41932" lon="6.73476">
        <ele>1223.6</ele>
        <time>2022-07-19T13:58:23Z</time>
      </trkpt>
      <trkpt lat="44.4193" lon="6.73474">
        <ele>1223.6</ele>
        <time>2022-07-19T13:58:24Z</time>
      </trkpt>
      <trkpt lat="44.41928" lon="6.73471">
        <ele>1223.6</ele>
        <time>2022-07-19T13:58:25Z</time>
      </trkpt>
      <trkpt lat="44.41927" lon="6.73469">
        <ele>1223.6</ele>
        <time>2022-07-19T13:58:26Z</time>
      </trkpt>
      <trkpt lat="44.41925" lon="6.73466">
        <ele>1223.6</ele>
        <time>2022-07-19T13:58:27Z</time>
      </trkpt>
      <trkpt lat="44.41925" lon="6.73463">
        <ele>1223.6</ele>
        <time>2022-07-19T13:58:28Z</time>
      </trkpt>
      <trkpt lat="44.41924" lon="6.7346">
        <ele>1223.6</ele>
        <time>2022-07-19T13:58:29Z</time>
      </trkpt>
      <trkpt lat="44.41923" lon="6.73457">
        <ele>1223.2</ele>
        <time>2022-07-19T13:58:30Z</time>
      </trkpt>
      <trkpt lat="44.41922" lon="6.73454">
        <ele>1223.2</ele>
        <time>2022-07-19T13:58:31Z</time>
      </trkpt>
      <trkpt lat="44.41921" lon="6.73451">
        <ele>1223.2</ele>
        <time>2022-07-19T13:58:32Z</time>
      </trkpt>
      <trkpt lat="44.4192" lon="6.73449">
        <ele>1223.2</ele>
        <time>2022-07-19T13:58:33Z</time>
      </trkpt>
      <trkpt lat="44.41919" lon="6.73446">
        <ele>1223.2</ele>
        <time>2022-07-19T13:58:34Z</time>
      </trkpt>
      <trkpt lat="44.41918" lon="6.73443">
        <ele>1223.2</ele>
        <time>2022-07-19T13:58:35Z</time>
      </trkpt>
      <trkpt lat="44.41917" lon="6.7344">
        <ele>1223.2</ele>
        <time>2022-07-19T13:58:36Z</time>
      </trkpt>
      <trkpt lat="44.41916" lon="6.73437">
        <ele>1223.2</ele>
        <time>2022-07-19T13:58:37Z</time>
      </trkpt>
      <trkpt lat="44.41915" lon="6.73434">
        <ele>1223</ele>
        <time>2022-07-19T13:58:38Z</time>
      </trkpt>
      <trkpt lat="44.41914" lon="6.7343">
        <ele>1223</ele>
        <time>2022-07-19T13:58:39Z</time>
      </trkpt>
      <trkpt lat="44.41913" lon="6.73427">
        <ele>1223</ele>
        <time>2022-07-19T13:58:40Z</time>
      </trkpt>
      <trkpt lat="44.41912" lon="6.73423">
        <ele>1223</ele>
        <time>2022-07-19T13:58:41Z</time>
      </trkpt>
      <trkpt lat="44.4191" lon="6.73419">
        <ele>1223</ele>
        <time>2022-07-19T13:58:42Z</time>
      </trkpt>
      <trkpt lat="44.41909" lon="6.73414">
        <ele>1222.8</ele>
        <time>2022-07-19T13:58:43Z</time>
      </trkpt>
      <trkpt lat="44.41908" lon="6.7341">
        <ele>1222.8</ele>
        <time>2022-07-19T13:58:44Z</time>
      </trkpt>
      <trkpt lat="44.41907" lon="6.73407">
        <ele>1222.8</ele>
        <time>2022-07-19T13:58:45Z</time>
      </trkpt>
      <trkpt lat="44.41906" lon="6.73403">
        <ele>1222.8</ele>
        <time>2022-07-19T13:58:46Z</time>
      </trkpt>
      <trkpt lat="44.41905" lon="6.73401">
        <ele>1222.8</ele>
        <time>2022-07-19T13:58:47Z</time>
      </trkpt>
      <trkpt lat="44.41904" lon="6.73398">
        <ele>1222.8</ele>
        <time>2022-07-19T13:58:48Z</time>
      </trkpt>
      <trkpt lat="44.41904" lon="6.73395">
        <ele>1222.8</ele>
        <time>2022-07-19T13:58:49Z</time>
      </trkpt>
      <trkpt lat="44.41904" lon="6.73393">
        <ele>1222.8</ele>
        <time>2022-07-19T13:58:50Z</time>
      </trkpt>
      <trkpt lat="44.41903" lon="6.7339">
        <ele>1222.8</ele>
        <time>2022-07-19T13:58:51Z</time>
      </trkpt>
      <trkpt lat="44.41902" lon="6.73387">
        <ele>1222.6</ele>
        <time>2022-07-19T13:58:52Z</time>
      </trkpt>
      <trkpt lat="44.41902" lon="6.73385">
        <ele>1222.6</ele>
        <time>2022-07-19T13:58:53Z</time>
      </trkpt>
      <trkpt lat="44.41902" lon="6.73385">
        <ele>1222.6</ele>
        <time>2022-07-19T13:58:55Z</time>
      </trkpt>
      <trkpt lat="44.41902" lon="6.73385">
        <ele>1222.6</ele>
        <time>2022-07-19T13:58:56Z</time>
      </trkpt>
      <trkpt lat="44.41902" lon="6.73385">
        <ele>1222.6</ele>
        <time>2022-07-19T13:58:59Z</time>
      </trkpt>
      <trkpt lat="44.41902" lon="6.73385">
        <ele>1222.6</ele>
        <time>2022-07-19T13:59:02Z</time>
      </trkpt>
      <trkpt lat="44.41902" lon="6.73385">
        <ele>1222.6</ele>
        <time>2022-07-19T13:59:03Z</time>
      </trkpt>
      <trkpt lat="44.41902" lon="6.73385">
        <ele>1222.6</ele>
        <time>2022-07-19T13:59:04Z</time>
      </trkpt>
      <trkpt lat="44.41902" lon="6.73385">
        <ele>1222.6</ele>
        <time>2022-07-19T13:59:07Z</time>
      </trkpt>
      <trkpt lat="44.41902" lon="6.73385">
        <ele>1222.6</ele>
        <time>2022-07-19T13:59:10Z</time>
      </trkpt>
      <trkpt lat="44.41902" lon="6.73385">
        <ele>1222.6</ele>
        <time>2022-07-19T13:59:14Z</time>
      </trkpt>
      <trkpt lat="44.41902" lon="6.73385">
        <ele>1222.8</ele>
        <time>2022-07-19T13:59:21Z</time>
      </trkpt>
      <trkpt lat="44.41902" lon="6.73385">
        <ele>1222.8</ele>
        <time>2022-07-19T13:59:22Z</time>
      </trkpt>
      <trkpt lat="44.41902" lon="6.73385">
        <ele>1222.8</ele>
        <time>2022-07-19T13:59:24Z</time>
      </trkpt>
      <trkpt lat="44.41902" lon="6.73384">
        <ele>1222.8</ele>
        <time>2022-07-19T13:59:27Z</time>
      </trkpt>
      <trkpt lat="44.41902" lon="6.73384">
        <ele>1222.8</ele>
        <time>2022-07-19T13:59:28Z</time>
      </trkpt>
      <trkpt lat="44.41902" lon="6.73384">
        <ele>1222.8</ele>
        <time>2022-07-19T13:59:30Z</time>
      </trkpt>
      <trkpt lat="44.41902" lon="6.73384">
        <ele>1222.8</ele>
        <time>2022-07-19T13:59:35Z</time>
      </trkpt>
      <trkpt lat="44.41902" lon="6.73384">
        <ele>1222.8</ele>
        <time>2022-07-19T13:59:36Z</time>
      </trkpt>
      <trkpt lat="44.41902" lon="6.73384">
        <ele>1222.8</ele>
        <time>2022-07-19T13:59:38Z</time>
      </trkpt>
      <trkpt lat="44.41902" lon="6.73384">
        <ele>1223</ele>
        <time>2022-07-19T13:59:40Z</time>
      </trkpt>
      <trkpt lat="44.41902" lon="6.73384">
        <ele>1223</ele>
        <time>2022-07-19T13:59:44Z</time>
      </trkpt>
      <trkpt lat="44.41902" lon="6.73384">
        <ele>1223</ele>
        <time>2022-07-19T13:59:47Z</time>
      </trkpt>
      <trkpt lat="44.41902" lon="6.73384">
        <ele>1223</ele>
        <time>2022-07-19T13:59:50Z</time>
      </trkpt>
      <trkpt lat="44.41902" lon="6.73384">
        <ele>1223</ele>
        <time>2022-07-19T13:59:51Z</time>
      </trkpt>
      <trkpt lat="44.41902" lon="6.73384">
        <ele>1223</ele>
        <time>2022-07-19T13:59:53Z</time>
      </trkpt>
      <trkpt lat="44.41902" lon="6.73384">
        <ele>1223</ele>
        <time>2022-07-19T13:59:56Z</time>
      </trkpt>
      <trkpt lat="44.41902" lon="6.73384">
        <ele>1223</ele>
        <time>2022-07-19T13:59:57Z</time>
      </trkpt>
      <trkpt lat="44.41902" lon="6.73384">
        <ele>1223</ele>
        <time>2022-07-19T14:00:15Z</time>
      </trkpt>
      <trkpt lat="44.41903" lon="6.73383">
        <ele>1222.8</ele>
        <time>2022-07-19T14:01:21Z</time>
      </trkpt>
      <trkpt lat="44.41903" lon="6.73383">
        <ele>1222.8</ele>
        <time>2022-07-19T14:01:22Z</time>
      </trkpt>
      <trkpt lat="44.41903" lon="6.73383">
        <ele>1222.8</ele>
        <time>2022-07-19T14:01:24Z</time>
      </trkpt>
      <trkpt lat="44.41903" lon="6.73383">
        <ele>1222.6</ele>
        <time>2022-07-19T14:01:27Z</time>
      </trkpt>
      <trkpt lat="44.41903" lon="6.73383">
        <ele>1222.8</ele>
        <time>2022-07-19T14:02:49Z</time>
      </trkpt>
      <trkpt lat="44.41903" lon="6.73383">
        <ele>1222.8</ele>
        <time>2022-07-19T14:02:50Z</time>
      </trkpt>
      <trkpt lat="44.41903" lon="6.73383">
        <ele>1223.2</ele>
        <time>2022-07-19T14:04:31Z</time>
      </trkpt>
      <trkpt lat="44.41903" lon="6.73383">
        <ele>1223.2</ele>
        <time>2022-07-19T14:05:00Z</time>
      </trkpt>
      <trkpt lat="44.41903" lon="6.73383">
        <ele>1223.2</ele>
        <time>2022-07-19T14:05:01Z</time>
      </trkpt>
      <trkpt lat="44.41903" lon="6.73383">
        <ele>1223.2</ele>
        <time>2022-07-19T14:05:10Z</time>
      </trkpt>
      <trkpt lat="44.41903" lon="6.73383">
        <ele>1223</ele>
        <time>2022-07-19T14:05:18Z</time>
      </trkpt>
      <trkpt lat="44.41903" lon="6.73383">
        <ele>1223</ele>
        <time>2022-07-19T14:05:19Z</time>
      </trkpt>
      <trkpt lat="44.41903" lon="6.73383">
        <ele>1223</ele>
        <time>2022-07-19T14:05:33Z</time>
      </trkpt>
      <trkpt lat="44.41903" lon="6.73383">
        <ele>1223</ele>
        <time>2022-07-19T14:05:54Z</time>
      </trkpt>
      <trkpt lat="44.41903" lon="6.73383">
        <ele>1223</ele>
        <time>2022-07-19T14:05:55Z</time>
      </trkpt>
      <trkpt lat="44.41903" lon="6.73382">
        <ele>1223</ele>
        <time>2022-07-19T14:06:09Z</time>
      </trkpt>
      <trkpt lat="44.41903" lon="6.73382">
        <ele>1223.2</ele>
        <time>2022-07-19T14:06:35Z</time>
      </trkpt>
      <trkpt lat="44.41903" lon="6.73382">
        <ele>1223.2</ele>
        <time>2022-07-19T14:06:36Z</time>
      </trkpt>
      <trkpt lat="44.41903" lon="6.73382">
        <ele>1223.2</ele>
        <time>2022-07-19T14:06:49Z</time>
      </trkpt>
      <trkpt lat="44.41903" lon="6.73382">
        <ele>1223.2</ele>
        <time>2022-07-19T14:07:13Z</time>
      </trkpt>
      <trkpt lat="44.41903" lon="6.73382">
        <ele>1223.2</ele>
        <time>2022-07-19T14:07:14Z</time>
      </trkpt>
      <trkpt lat="44.41903" lon="6.73382">
        <ele>1223.2</ele>
        <time>2022-07-19T14:07:18Z</time>
      </trkpt>
      <trkpt lat="44.41903" lon="6.73382">
        <ele>1223</ele>
        <time>2022-07-19T14:07:41Z</time>
      </trkpt>
      <trkpt lat="44.41903" lon="6.73382">
        <ele>1223</ele>
        <time>2022-07-19T14:07:42Z</time>
      </trkpt>
      <trkpt lat="44.41903" lon="6.73382">
        <ele>1223</ele>
        <time>2022-07-19T14:07:49Z</time>
      </trkpt>
      <trkpt lat="44.41903" lon="6.73382">
        <ele>1223</ele>
        <time>2022-07-19T14:07:57Z</time>
      </trkpt>
      <trkpt lat="44.41903" lon="6.73382">
        <ele>1223</ele>
        <time>2022-07-19T14:08:00Z</time>
      </trkpt>
      <trkpt lat="44.41903" lon="6.73382">
        <ele>1223</ele>
        <time>2022-07-19T14:08:01Z</time>
      </trkpt>
      <trkpt lat="44.41903" lon="6.73382">
        <ele>1223</ele>
        <time>2022-07-19T14:08:08Z</time>
      </trkpt>
      <trkpt lat="44.41903" lon="6.73382">
        <ele>1222.8</ele>
        <time>2022-07-19T14:08:14Z</time>
      </trkpt>
      <trkpt lat="44.41904" lon="6.73382">
        <ele>1222.8</ele>
        <time>2022-07-19T14:08:16Z</time>
      </trkpt>
      <trkpt lat="44.41904" lon="6.73381">
        <ele>1222.8</ele>
        <time>2022-07-19T14:08:17Z</time>
      </trkpt>
      <trkpt lat="44.41904" lon="6.73381">
        <ele>1222.8</ele>
        <time>2022-07-19T14:08:19Z</time>
      </trkpt>
      <trkpt lat="44.41904" lon="6.73381">
        <ele>1222.8</ele>
        <time>2022-07-19T14:08:22Z</time>
      </trkpt>
      <trkpt lat="44.41904" lon="6.73381">
        <ele>1222.8</ele>
        <time>2022-07-19T14:08:24Z</time>
      </trkpt>
      <trkpt lat="44.41904" lon="6.73381">
        <ele>1222.8</ele>
        <time>2022-07-19T14:08:26Z</time>
      </trkpt>
      <trkpt lat="44.41904" lon="6.73381">
        <ele>1222.8</ele>
        <time>2022-07-19T14:08:28Z</time>
      </trkpt>
      <trkpt lat="44.41904" lon="6.73381">
        <ele>1222.8</ele>
        <time>2022-07-19T14:08:29Z</time>
      </trkpt>
      <trkpt lat="44.41904" lon="6.73381">
        <ele>1222.8</ele>
        <time>2022-07-19T14:08:48Z</time>
      </trkpt>
      <trkpt lat="44.41904" lon="6.73381">
        <ele>1222.8</ele>
        <time>2022-07-19T14:08:52Z</time>
      </trkpt>
      <trkpt lat="44.41904" lon="6.73381">
        <ele>1222.8</ele>
        <time>2022-07-19T14:08:56Z</time>
      </trkpt>
      <trkpt lat="44.41904" lon="6.73381">
        <ele>1222.6</ele>
        <time>2022-07-19T14:09:09Z</time>
      </trkpt>
      <trkpt lat="44.41904" lon="6.73381">
        <ele>1222.6</ele>
        <time>2022-07-19T14:09:20Z</time>
      </trkpt>
      <trkpt lat="44.41904" lon="6.73381">
        <ele>1222.6</ele>
        <time>2022-07-19T14:09:26Z</time>
      </trkpt>
      <trkpt lat="44.41904" lon="6.73381">
        <ele>1222.6</ele>
        <time>2022-07-19T14:09:36Z</time>
      </trkpt>
      <trkpt lat="44.41904" lon="6.7338">
        <ele>1222.6</ele>
        <time>2022-07-19T14:09:42Z</time>
      </trkpt>
      <trkpt lat="44.41904" lon="6.7338">
        <ele>1222.6</ele>
        <time>2022-07-19T14:10:01Z</time>
      </trkpt>
      <trkpt lat="44.41904" lon="6.7338">
        <ele>1222.6</ele>
        <time>2022-07-19T14:10:02Z</time>
      </trkpt>
      <trkpt lat="44.41904" lon="6.7338">
        <ele>1222.6</ele>
        <time>2022-07-19T14:10:07Z</time>
      </trkpt>
      <trkpt lat="44.41904" lon="6.7338">
        <ele>1222.6</ele>
        <time>2022-07-19T14:10:08Z</time>
      </trkpt>
      <trkpt lat="44.41904" lon="6.7338">
        <ele>1222.8</ele>
        <time>2022-07-19T14:10:21Z</time>
      </trkpt>
      <trkpt lat="44.41904" lon="6.7338">
        <ele>1222.6</ele>
        <time>2022-07-19T14:10:38Z</time>
      </trkpt>
      <trkpt lat="44.41904" lon="6.7338">
        <ele>1222.6</ele>
        <time>2022-07-19T14:10:39Z</time>
      </trkpt>
      <trkpt lat="44.41904" lon="6.7338">
        <ele>1222.6</ele>
        <time>2022-07-19T14:10:53Z</time>
      </trkpt>
      <trkpt lat="44.41904" lon="6.7338">
        <ele>1222.6</ele>
        <time>2022-07-19T14:11:08Z</time>
      </trkpt>
      <trkpt lat="44.41904" lon="6.7338">
        <ele>1222.6</ele>
        <time>2022-07-19T14:11:09Z</time>
      </trkpt>
      <trkpt lat="44.41904" lon="6.7338">
        <ele>1222.6</ele>
        <time>2022-07-19T14:11:12Z</time>
      </trkpt>
      <trkpt lat="44.41904" lon="6.7338">
        <ele>1222.6</ele>
        <time>2022-07-19T14:11:13Z</time>
      </trkpt>
      <trkpt lat="44.41904" lon="6.7338">
        <ele>1222.6</ele>
        <time>2022-07-19T14:11:15Z</time>
      </trkpt>
      <trkpt lat="44.41904" lon="6.7338">
        <ele>1222.6</ele>
        <time>2022-07-19T14:11:17Z</time>
      </trkpt>
      <trkpt lat="44.41905" lon="6.7338">
        <ele>1222.6</ele>
        <time>2022-07-19T14:11:19Z</time>
      </trkpt>
      <trkpt lat="44.41905" lon="6.73379">
        <ele>1222.6</ele>
        <time>2022-07-19T14:11:20Z</time>
      </trkpt>
      <trkpt lat="44.41905" lon="6.73379">
        <ele>1222.6</ele>
        <time>2022-07-19T14:11:23Z</time>
      </trkpt>
      <trkpt lat="44.41905" lon="6.73379">
        <ele>1222.6</ele>
        <time>2022-07-19T14:11:25Z</time>
      </trkpt>
      <trkpt lat="44.41905" lon="6.73379">
        <ele>1222.6</ele>
        <time>2022-07-19T14:11:32Z</time>
      </trkpt>
      <trkpt lat="44.41905" lon="6.73379">
        <ele>1222.6</ele>
        <time>2022-07-19T14:11:35Z</time>
      </trkpt>
      <trkpt lat="44.41905" lon="6.73379">
        <ele>1222.6</ele>
        <time>2022-07-19T14:11:36Z</time>
      </trkpt>
      <trkpt lat="44.41905" lon="6.73379">
        <ele>1222.6</ele>
        <time>2022-07-19T14:11:38Z</time>
      </trkpt>
      <trkpt lat="44.41905" lon="6.73379">
        <ele>1222.6</ele>
        <time>2022-07-19T14:11:41Z</time>
      </trkpt>
      <trkpt lat="44.41905" lon="6.73379">
        <ele>1222.6</ele>
        <time>2022-07-19T14:11:42Z</time>
      </trkpt>
      <trkpt lat="44.41905" lon="6.73379">
        <ele>1222.6</ele>
        <time>2022-07-19T14:11:44Z</time>
      </trkpt>
      <trkpt lat="44.41905" lon="6.73379">
        <ele>1222.6</ele>
        <time>2022-07-19T14:11:52Z</time>
      </trkpt>
      <trkpt lat="44.41905" lon="6.73379">
        <ele>1222.6</ele>
        <time>2022-07-19T14:11:53Z</time>
      </trkpt>
      <trkpt lat="44.41905" lon="6.73379">
        <ele>1222.6</ele>
        <time>2022-07-19T14:11:56Z</time>
      </trkpt>
      <trkpt lat="44.41905" lon="6.73379">
        <ele>1222.6</ele>
        <time>2022-07-19T14:11:59Z</time>
      </trkpt>
      <trkpt lat="44.41905" lon="6.73379">
        <ele>1222.6</ele>
        <time>2022-07-19T14:12:01Z</time>
      </trkpt>
      <trkpt lat="44.41905" lon="6.73378">
        <ele>1222.6</ele>
        <time>2022-07-19T14:12:02Z</time>
      </trkpt>
      <trkpt lat="44.41905" lon="6.73378">
        <ele>1222.6</ele>
        <time>2022-07-19T14:12:05Z</time>
      </trkpt>
      <trkpt lat="44.41905" lon="6.73378">
        <ele>1222.6</ele>
        <time>2022-07-19T14:12:06Z</time>
      </trkpt>
      <trkpt lat="44.41905" lon="6.73378">
        <ele>1222.6</ele>
        <time>2022-07-19T14:12:10Z</time>
      </trkpt>
      <trkpt lat="44.41905" lon="6.73378">
        <ele>1222.6</ele>
        <time>2022-07-19T14:12:16Z</time>
      </trkpt>
      <trkpt lat="44.41905" lon="6.73378">
        <ele>1222.6</ele>
        <time>2022-07-19T14:12:17Z</time>
      </trkpt>
      <trkpt lat="44.41905" lon="6.73378">
        <ele>1222.6</ele>
        <time>2022-07-19T14:12:19Z</time>
      </trkpt>
      <trkpt lat="44.41905" lon="6.73378">
        <ele>1222.6</ele>
        <time>2022-07-19T14:12:22Z</time>
      </trkpt>
      <trkpt lat="44.41905" lon="6.73378">
        <ele>1222.6</ele>
        <time>2022-07-19T14:12:24Z</time>
      </trkpt>
      <trkpt lat="44.41905" lon="6.73378">
        <ele>1222.6</ele>
        <time>2022-07-19T14:12:26Z</time>
      </trkpt>
      <trkpt lat="44.41905" lon="6.73378">
        <ele>1222.4</ele>
        <time>2022-07-19T14:12:32Z</time>
      </trkpt>
      <trkpt lat="44.41905" lon="6.73378">
        <ele>1222.4</ele>
        <time>2022-07-19T14:12:39Z</time>
      </trkpt>
      <trkpt lat="44.41905" lon="6.73378">
        <ele>1222.4</ele>
        <time>2022-07-19T14:12:44Z</time>
      </trkpt>
      <trkpt lat="44.41905" lon="6.73378">
        <ele>1222.4</ele>
        <time>2022-07-19T14:12:47Z</time>
      </trkpt>
      <trkpt lat="44.41906" lon="6.73378">
        <ele>1222.2</ele>
        <time>2022-07-19T14:13:04Z</time>
      </trkpt>
      <trkpt lat="44.41906" lon="6.73377">
        <ele>1222.2</ele>
        <time>2022-07-19T14:13:06Z</time>
      </trkpt>
      <trkpt lat="44.41906" lon="6.73377">
        <ele>1222.2</ele>
        <time>2022-07-19T14:13:10Z</time>
      </trkpt>
      <trkpt lat="44.41906" lon="6.73377">
        <ele>1222.2</ele>
        <time>2022-07-19T14:13:11Z</time>
      </trkpt>
      <trkpt lat="44.41906" lon="6.73377">
        <ele>1222.2</ele>
        <time>2022-07-19T14:13:18Z</time>
      </trkpt>
      <trkpt lat="44.41906" lon="6.73377">
        <ele>1222.2</ele>
        <time>2022-07-19T14:13:21Z</time>
      </trkpt>
      <trkpt lat="44.41906" lon="6.73377">
        <ele>1222.2</ele>
        <time>2022-07-19T14:13:22Z</time>
      </trkpt>
      <trkpt lat="44.41906" lon="6.73377">
        <ele>1222.2</ele>
        <time>2022-07-19T14:13:24Z</time>
      </trkpt>
      <trkpt lat="44.41906" lon="6.73377">
        <ele>1222.2</ele>
        <time>2022-07-19T14:13:29Z</time>
      </trkpt>
      <trkpt lat="44.41906" lon="6.73377">
        <ele>1222.2</ele>
        <time>2022-07-19T14:13:30Z</time>
      </trkpt>
      <trkpt lat="44.41906" lon="6.73377">
        <ele>1222.2</ele>
        <time>2022-07-19T14:13:32Z</time>
      </trkpt>
      <trkpt lat="44.41906" lon="6.73377">
        <ele>1222.2</ele>
        <time>2022-07-19T14:13:34Z</time>
      </trkpt>
      <trkpt lat="44.41906" lon="6.73377">
        <ele>1222.2</ele>
        <time>2022-07-19T14:13:35Z</time>
      </trkpt>
      <trkpt lat="44.41906" lon="6.73377">
        <ele>1222.2</ele>
        <time>2022-07-19T14:13:37Z</time>
      </trkpt>
      <trkpt lat="44.41906" lon="6.73377">
        <ele>1222.2</ele>
        <time>2022-07-19T14:13:40Z</time>
      </trkpt>
      <trkpt lat="44.41906" lon="6.73377">
        <ele>1222.2</ele>
        <time>2022-07-19T14:13:41Z</time>
      </trkpt>
      <trkpt lat="44.41906" lon="6.73376">
        <ele>1222.2</ele>
        <time>2022-07-19T14:13:46Z</time>
      </trkpt>
      <trkpt lat="44.41906" lon="6.73376">
        <ele>1222.2</ele>
        <time>2022-07-19T14:13:49Z</time>
      </trkpt>
      <trkpt lat="44.41906" lon="6.73376">
        <ele>1222.2</ele>
        <time>2022-07-19T14:13:50Z</time>
      </trkpt>
      <trkpt lat="44.41906" lon="6.73376">
        <ele>1222.2</ele>
        <time>2022-07-19T14:13:52Z</time>
      </trkpt>
      <trkpt lat="44.41906" lon="6.73376">
        <ele>1222.2</ele>
        <time>2022-07-19T14:13:55Z</time>
      </trkpt>
      <trkpt lat="44.41906" lon="6.73376">
        <ele>1222.2</ele>
        <time>2022-07-19T14:13:56Z</time>
      </trkpt>
      <trkpt lat="44.41906" lon="6.73376">
        <ele>1222.2</ele>
        <time>2022-07-19T14:14:09Z</time>
      </trkpt>
      <trkpt lat="44.41906" lon="6.73376">
        <ele>1222</ele>
        <time>2022-07-19T14:14:21Z</time>
      </trkpt>
      <trkpt lat="44.41906" lon="6.73376">
        <ele>1222</ele>
        <time>2022-07-19T14:14:22Z</time>
      </trkpt>
      <trkpt lat="44.41906" lon="6.73376">
        <ele>1222</ele>
        <time>2022-07-19T14:14:23Z</time>
      </trkpt>
      <trkpt lat="44.41906" lon="6.73376">
        <ele>1222</ele>
        <time>2022-07-19T14:14:26Z</time>
      </trkpt>
      <trkpt lat="44.41906" lon="6.73376">
        <ele>1222</ele>
        <time>2022-07-19T14:14:44Z</time>
      </trkpt>
      <trkpt lat="44.41906" lon="6.73376">
        <ele>1222</ele>
        <time>2022-07-19T14:14:45Z</time>
      </trkpt>
      <trkpt lat="44.41907" lon="6.73376">
        <ele>1222</ele>
        <time>2022-07-19T14:15:04Z</time>
      </trkpt>
      <trkpt lat="44.41907" lon="6.73376">
        <ele>1222</ele>
        <time>2022-07-19T14:15:06Z</time>
      </trkpt>
      <trkpt lat="44.41907" lon="6.73375">
        <ele>1222</ele>
        <time>2022-07-19T14:15:07Z</time>
      </trkpt>
      <trkpt lat="44.41907" lon="6.73375">
        <ele>1222</ele>
        <time>2022-07-19T14:15:10Z</time>
      </trkpt>
      <trkpt lat="44.41907" lon="6.73375">
        <ele>1222</ele>
        <time>2022-07-19T14:15:16Z</time>
      </trkpt>
      <trkpt lat="44.41907" lon="6.73375">
        <ele>1222</ele>
        <time>2022-07-19T14:15:17Z</time>
      </trkpt>
      <trkpt lat="44.41907" lon="6.73375">
        <ele>1222</ele>
        <time>2022-07-19T14:15:19Z</time>
      </trkpt>
      <trkpt lat="44.41907" lon="6.73375">
        <ele>1222</ele>
        <time>2022-07-19T14:15:20Z</time>
      </trkpt>
      <trkpt lat="44.41907" lon="6.73375">
        <ele>1222</ele>
        <time>2022-07-19T14:15:23Z</time>
      </trkpt>
      <trkpt lat="44.41907" lon="6.73375">
        <ele>1222</ele>
        <time>2022-07-19T14:15:25Z</time>
      </trkpt>
      <trkpt lat="44.41907" lon="6.73375">
        <ele>1222</ele>
        <time>2022-07-19T14:15:30Z</time>
      </trkpt>
      <trkpt lat="44.41907" lon="6.73375">
        <ele>1222</ele>
        <time>2022-07-19T14:15:33Z</time>
      </trkpt>
      <trkpt lat="44.41907" lon="6.73375">
        <ele>1222</ele>
        <time>2022-07-19T14:15:47Z</time>
      </trkpt>
      <trkpt lat="44.41907" lon="6.73375">
        <ele>1222</ele>
        <time>2022-07-19T14:15:53Z</time>
      </trkpt>
      <trkpt lat="44.41907" lon="6.73375">
        <ele>1222</ele>
        <time>2022-07-19T14:15:59Z</time>
      </trkpt>
      <trkpt lat="44.41907" lon="6.73375">
        <ele>1222</ele>
        <time>2022-07-19T14:16:01Z</time>
      </trkpt>
      <trkpt lat="44.41907" lon="6.73374">
        <ele>1222</ele>
        <time>2022-07-19T14:16:04Z</time>
      </trkpt>
      <trkpt lat="44.41907" lon="6.73374">
        <ele>1222</ele>
        <time>2022-07-19T14:16:05Z</time>
      </trkpt>
      <trkpt lat="44.41907" lon="6.73374">
        <ele>1222</ele>
        <time>2022-07-19T14:16:10Z</time>
      </trkpt>
      <trkpt lat="44.41907" lon="6.73374">
        <ele>1222</ele>
        <time>2022-07-19T14:16:11Z</time>
      </trkpt>
      <trkpt lat="44.41907" lon="6.73374">
        <ele>1222</ele>
        <time>2022-07-19T14:16:15Z</time>
      </trkpt>
      <trkpt lat="44.41907" lon="6.73374">
        <ele>1222</ele>
        <time>2022-07-19T14:16:17Z</time>
      </trkpt>
      <trkpt lat="44.41907" lon="6.73374">
        <ele>1222</ele>
        <time>2022-07-19T14:16:18Z</time>
      </trkpt>
      <trkpt lat="44.41907" lon="6.73374">
        <ele>1222</ele>
        <time>2022-07-19T14:16:20Z</time>
      </trkpt>
      <trkpt lat="44.41907" lon="6.73374">
        <ele>1221.6</ele>
        <time>2022-07-19T14:17:14Z</time>
      </trkpt>
      <trkpt lat="44.41907" lon="6.73374">
        <ele>1221.6</ele>
        <time>2022-07-19T14:17:15Z</time>
      </trkpt>
      <trkpt lat="44.41907" lon="6.73374">
        <ele>1221.8</ele>
        <time>2022-07-19T14:17:17Z</time>
      </trkpt>
      <trkpt lat="44.41907" lon="6.73374">
        <ele>1221.8</ele>
        <time>2022-07-19T14:17:19Z</time>
      </trkpt>
      <trkpt lat="44.41907" lon="6.73374">
        <ele>1221.8</ele>
        <time>2022-07-19T14:17:20Z</time>
      </trkpt>
      <trkpt lat="44.41907" lon="6.73374">
        <ele>1221.8</ele>
        <time>2022-07-19T14:17:23Z</time>
      </trkpt>
      <trkpt lat="44.41908" lon="6.73374">
        <ele>1221.8</ele>
        <time>2022-07-19T14:17:28Z</time>
      </trkpt>
      <trkpt lat="44.41908" lon="6.73374">
        <ele>1221.8</ele>
        <time>2022-07-19T14:17:29Z</time>
      </trkpt>
      <trkpt lat="44.41908" lon="6.73373">
        <ele>1221.8</ele>
        <time>2022-07-19T14:17:31Z</time>
      </trkpt>
      <trkpt lat="44.4191" lon="6.73372">
        <ele>1221.8</ele>
        <time>2022-07-19T14:17:32Z</time>
      </trkpt>
      <trkpt lat="44.41911" lon="6.73372">
        <ele>1221.8</ele>
        <time>2022-07-19T14:17:33Z</time>
      </trkpt>
      <trkpt lat="44.41912" lon="6.73373">
        <ele>1221.8</ele>
        <time>2022-07-19T14:17:34Z</time>
      </trkpt>
      <trkpt lat="44.41913" lon="6.73373">
        <ele>1221.8</ele>
        <time>2022-07-19T14:17:35Z</time>
      </trkpt>
      <trkpt lat="44.41913" lon="6.73373">
        <ele>1221.8</ele>
        <time>2022-07-19T14:17:36Z</time>
      </trkpt>
      <trkpt lat="44.41913" lon="6.73372">
        <ele>1221.8</ele>
        <time>2022-07-19T14:17:37Z</time>
      </trkpt>
      <trkpt lat="44.41913" lon="6.73372">
        <ele>1221.8</ele>
        <time>2022-07-19T14:17:41Z</time>
      </trkpt>
      <trkpt lat="44.41916" lon="6.73377">
        <ele>1221.8</ele>
        <time>2022-07-19T14:17:44Z</time>
      </trkpt>
      <trkpt lat="44.41918" lon="6.73379">
        <ele>1221.8</ele>
        <time>2022-07-19T14:17:45Z</time>
      </trkpt>
      <trkpt lat="44.4192" lon="6.7338">
        <ele>1221.8</ele>
        <time>2022-07-19T14:17:46Z</time>
      </trkpt>
      <trkpt lat="44.41921" lon="6.73381">
        <ele>1221.8</ele>
        <time>2022-07-19T14:17:47Z</time>
      </trkpt>
      <trkpt lat="44.41922" lon="6.73383">
        <ele>1221.8</ele>
        <time>2022-07-19T14:17:48Z</time>
      </trkpt>
      <trkpt lat="44.41922" lon="6.73385">
        <ele>1221.8</ele>
        <time>2022-07-19T14:17:49Z</time>
      </trkpt>
      <trkpt lat="44.41922" lon="6.73388">
        <ele>1221.8</ele>
        <time>2022-07-19T14:17:50Z</time>
      </trkpt>
      <trkpt lat="44.41922" lon="6.7339">
        <ele>1221.8</ele>
        <time>2022-07-19T14:17:51Z</time>
      </trkpt>
      <trkpt lat="44.41921" lon="6.73393">
        <ele>1222</ele>
        <time>2022-07-19T14:17:52Z</time>
      </trkpt>
      <trkpt lat="44.41921" lon="6.73396">
        <ele>1222</ele>
        <time>2022-07-19T14:17:53Z</time>
      </trkpt>
      <trkpt lat="44.41922" lon="6.73399">
        <ele>1222</ele>
        <time>2022-07-19T14:17:54Z</time>
      </trkpt>
      <trkpt lat="44.41923" lon="6.73401">
        <ele>1222</ele>
        <time>2022-07-19T14:17:55Z</time>
      </trkpt>
      <trkpt lat="44.41923" lon="6.73403">
        <ele>1222</ele>
        <time>2022-07-19T14:17:56Z</time>
      </trkpt>
      <trkpt lat="44.41924" lon="6.73406">
        <ele>1222</ele>
        <time>2022-07-19T14:17:57Z</time>
      </trkpt>
      <trkpt lat="44.41924" lon="6.73407">
        <ele>1222</ele>
        <time>2022-07-19T14:17:58Z</time>
      </trkpt>
      <trkpt lat="44.41925" lon="6.7341">
        <ele>1222.2</ele>
        <time>2022-07-19T14:17:59Z</time>
      </trkpt>
      <trkpt lat="44.41925" lon="6.73413">
        <ele>1222.2</ele>
        <time>2022-07-19T14:18:00Z</time>
      </trkpt>
      <trkpt lat="44.41926" lon="6.73415">
        <ele>1222.2</ele>
        <time>2022-07-19T14:18:01Z</time>
      </trkpt>
      <trkpt lat="44.41927" lon="6.73418">
        <ele>1222.2</ele>
        <time>2022-07-19T14:18:02Z</time>
      </trkpt>
      <trkpt lat="44.41927" lon="6.73421">
        <ele>1222.2</ele>
        <time>2022-07-19T14:18:03Z</time>
      </trkpt>
      <trkpt lat="44.41927" lon="6.73423">
        <ele>1222.2</ele>
        <time>2022-07-19T14:18:04Z</time>
      </trkpt>
      <trkpt lat="44.41927" lon="6.73426">
        <ele>1222.2</ele>
        <time>2022-07-19T14:18:05Z</time>
      </trkpt>
      <trkpt lat="44.41926" lon="6.73429">
        <ele>1222.2</ele>
        <time>2022-07-19T14:18:06Z</time>
      </trkpt>
      <trkpt lat="44.41926" lon="6.7343">
        <ele>1222.2</ele>
        <time>2022-07-19T14:18:07Z</time>
      </trkpt>
      <trkpt lat="44.41928" lon="6.73431">
        <ele>1222.2</ele>
        <time>2022-07-19T14:18:08Z</time>
      </trkpt>
      <trkpt lat="44.41927" lon="6.73433">
        <ele>1222.2</ele>
        <time>2022-07-19T14:18:09Z</time>
      </trkpt>
      <trkpt lat="44.41926" lon="6.73434">
        <ele>1222.2</ele>
        <time>2022-07-19T14:18:10Z</time>
      </trkpt>
      <trkpt lat="44.41928" lon="6.73436">
        <ele>1222.2</ele>
        <time>2022-07-19T14:18:11Z</time>
      </trkpt>
      <trkpt lat="44.41928" lon="6.73437">
        <ele>1222.2</ele>
        <time>2022-07-19T14:18:12Z</time>
      </trkpt>
      <trkpt lat="44.41928" lon="6.73437">
        <ele>1222.2</ele>
        <time>2022-07-19T14:18:13Z</time>
      </trkpt>
      <trkpt lat="44.41928" lon="6.73438">
        <ele>1222.2</ele>
        <time>2022-07-19T14:18:14Z</time>
      </trkpt>
      <trkpt lat="44.41928" lon="6.73438">
        <ele>1222.2</ele>
        <time>2022-07-19T14:18:18Z</time>
      </trkpt>
      <trkpt lat="44.41928" lon="6.73438">
        <ele>1222.4</ele>
        <time>2022-07-19T14:18:22Z</time>
      </trkpt>
      <trkpt lat="44.41928" lon="6.73438">
        <ele>1222.4</ele>
        <time>2022-07-19T14:18:26Z</time>
      </trkpt>
      <trkpt lat="44.41928" lon="6.73438">
        <ele>1222.4</ele>
        <time>2022-07-19T14:18:39Z</time>
      </trkpt>
      <trkpt lat="44.41928" lon="6.73438">
        <ele>1222</ele>
        <time>2022-07-19T14:19:45Z</time>
      </trkpt>
      <trkpt lat="44.41928" lon="6.73438">
        <ele>1222</ele>
        <time>2022-07-19T14:20:00Z</time>
      </trkpt>
      <trkpt lat="44.41928" lon="6.73438">
        <ele>1222</ele>
        <time>2022-07-19T14:20:13Z</time>
      </trkpt>
      <trkpt lat="44.41928" lon="6.73438">
        <ele>1222</ele>
        <time>2022-07-19T14:20:17Z</time>
      </trkpt>
      <trkpt lat="44.41928" lon="6.73438">
        <ele>1222</ele>
        <time>2022-07-19T14:20:25Z</time>
      </trkpt>
      <trkpt lat="44.41928" lon="6.73438">
        <ele>1222</ele>
        <time>2022-07-19T14:20:30Z</time>
      </trkpt>
      <trkpt lat="44.41928" lon="6.73438">
        <ele>1221.8</ele>
        <time>2022-07-19T14:20:39Z</time>
      </trkpt>
      <trkpt lat="44.41928" lon="6.73438">
        <ele>1221.8</ele>
        <time>2022-07-19T14:20:43Z</time>
      </trkpt>
      <trkpt lat="44.41928" lon="6.73438">
        <ele>1221.8</ele>
        <time>2022-07-19T14:20:47Z</time>
      </trkpt>
      <trkpt lat="44.41928" lon="6.73438">
        <ele>1221.8</ele>
        <time>2022-07-19T14:20:52Z</time>
      </trkpt>
      <trkpt lat="44.41928" lon="6.73438">
        <ele>1221.8</ele>
        <time>2022-07-19T14:20:56Z</time>
      </trkpt>
      <trkpt lat="44.41928" lon="6.73438">
        <ele>1221.8</ele>
        <time>2022-07-19T14:21:00Z</time>
      </trkpt>
      <trkpt lat="44.41928" lon="6.73438">
        <ele>1221.8</ele>
        <time>2022-07-19T14:21:23Z</time>
      </trkpt>
      <trkpt lat="44.41928" lon="6.73438">
        <ele>1221.8</ele>
        <time>2022-07-19T14:21:35Z</time>
      </trkpt>
      <trkpt lat="44.41928" lon="6.73438">
        <ele>1221.8</ele>
        <time>2022-07-19T14:21:39Z</time>
      </trkpt>
      <trkpt lat="44.41929" lon="6.73437">
        <ele>1221.8</ele>
        <time>2022-07-19T14:21:40Z</time>
      </trkpt>
      <trkpt lat="44.41929" lon="6.73436">
        <ele>1221.8</ele>
        <time>2022-07-19T14:21:41Z</time>
      </trkpt>
      <trkpt lat="44.41929" lon="6.73435">
        <ele>1221.8</ele>
        <time>2022-07-19T14:21:42Z</time>
      </trkpt>
      <trkpt lat="44.41929" lon="6.73434">
        <ele>1221.8</ele>
        <time>2022-07-19T14:21:43Z</time>
      </trkpt>
      <trkpt lat="44.41929" lon="6.73434">
        <ele>1221.8</ele>
        <time>2022-07-19T14:21:47Z</time>
      </trkpt>
      <trkpt lat="44.41935" lon="6.73425">
        <ele>1221.8</ele>
        <time>2022-07-19T14:21:51Z</time>
      </trkpt>
      <trkpt lat="44.41936" lon="6.73423">
        <ele>1221.8</ele>
        <time>2022-07-19T14:21:52Z</time>
      </trkpt>
      <trkpt lat="44.41936" lon="6.73423">
        <ele>1221.8</ele>
        <time>2022-07-19T14:21:53Z</time>
      </trkpt>
      <trkpt lat="44.41936" lon="6.73422">
        <ele>1221.8</ele>
        <time>2022-07-19T14:21:54Z</time>
      </trkpt>
      <trkpt lat="44.41936" lon="6.73422">
        <ele>1221.8</ele>
        <time>2022-07-19T14:21:55Z</time>
      </trkpt>
      <trkpt lat="44.41936" lon="6.73421">
        <ele>1221.8</ele>
        <time>2022-07-19T14:21:56Z</time>
      </trkpt>
      <trkpt lat="44.41937" lon="6.73421">
        <ele>1221.8</ele>
        <time>2022-07-19T14:21:57Z</time>
      </trkpt>
      <trkpt lat="44.41937" lon="6.7342">
        <ele>1221.6</ele>
        <time>2022-07-19T14:21:58Z</time>
      </trkpt>
      <trkpt lat="44.41937" lon="6.7342">
        <ele>1221.6</ele>
        <time>2022-07-19T14:21:59Z</time>
      </trkpt>
      <trkpt lat="44.41937" lon="6.73419">
        <ele>1221.6</ele>
        <time>2022-07-19T14:22:00Z</time>
      </trkpt>
      <trkpt lat="44.41937" lon="6.73419">
        <ele>1221.6</ele>
        <time>2022-07-19T14:22:01Z</time>
      </trkpt>
      <trkpt lat="44.41937" lon="6.73418">
        <ele>1221.6</ele>
        <time>2022-07-19T14:22:02Z</time>
      </trkpt>
      <trkpt lat="44.41937" lon="6.73418">
        <ele>1221.6</ele>
        <time>2022-07-19T14:22:03Z</time>
      </trkpt>
      <trkpt lat="44.41938" lon="6.73417">
        <ele>1221.6</ele>
        <time>2022-07-19T14:22:04Z</time>
      </trkpt>
      <trkpt lat="44.41938" lon="6.73417">
        <ele>1221.6</ele>
        <time>2022-07-19T14:22:05Z</time>
      </trkpt>
      <trkpt lat="44.41938" lon="6.73416">
        <ele>1221.6</ele>
        <time>2022-07-19T14:22:06Z</time>
      </trkpt>
      <trkpt lat="44.41938" lon="6.73416">
        <ele>1221.6</ele>
        <time>2022-07-19T14:22:07Z</time>
      </trkpt>
      <trkpt lat="44.41938" lon="6.73415">
        <ele>1221.6</ele>
        <time>2022-07-19T14:22:08Z</time>
      </trkpt>
      <trkpt lat="44.41938" lon="6.73415">
        <ele>1221.6</ele>
        <time>2022-07-19T14:22:09Z</time>
      </trkpt>
      <trkpt lat="44.41939" lon="6.73414">
        <ele>1221.6</ele>
        <time>2022-07-19T14:22:10Z</time>
      </trkpt>
      <trkpt lat="44.41939" lon="6.73414">
        <ele>1221.6</ele>
        <time>2022-07-19T14:22:11Z</time>
      </trkpt>
      <trkpt lat="44.41939" lon="6.73413">
        <ele>1221.6</ele>
        <time>2022-07-19T14:22:12Z</time>
      </trkpt>
      <trkpt lat="44.41939" lon="6.73413">
        <ele>1221.6</ele>
        <time>2022-07-19T14:22:13Z</time>
      </trkpt>
      <trkpt lat="44.41939" lon="6.73412">
        <ele>1221.2</ele>
        <time>2022-07-19T14:24:50Z</time>
      </trkpt>
      <trkpt lat="44.41939" lon="6.73412">
        <ele>1221.2</ele>
        <time>2022-07-19T14:24:51Z</time>
      </trkpt>
      <trkpt lat="44.4194" lon="6.73411">
        <ele>1221.2</ele>
        <time>2022-07-19T14:24:52Z</time>
      </trkpt>
      <trkpt lat="44.4194" lon="6.73411">
        <ele>1221.2</ele>
        <time>2022-07-19T14:24:53Z</time>
      </trkpt>
      <trkpt lat="44.4194" lon="6.7341">
        <ele>1221.2</ele>
        <time>2022-07-19T14:24:54Z</time>
      </trkpt>
      <trkpt lat="44.4194" lon="6.7341">
        <ele>1221.2</ele>
        <time>2022-07-19T14:24:55Z</time>
      </trkpt>
      <trkpt lat="44.4194" lon="6.73409">
        <ele>1221.2</ele>
        <time>2022-07-19T14:24:56Z</time>
      </trkpt>
      <trkpt lat="44.4194" lon="6.73409">
        <ele>1221.4</ele>
        <time>2022-07-19T14:24:57Z</time>
      </trkpt>
      <trkpt lat="44.41941" lon="6.73408">
        <ele>1221.4</ele>
        <time>2022-07-19T14:24:58Z</time>
      </trkpt>
      <trkpt lat="44.41941" lon="6.73408">
        <ele>1221.4</ele>
        <time>2022-07-19T14:24:59Z</time>
      </trkpt>
      <trkpt lat="44.41941" lon="6.73407">
        <ele>1221.4</ele>
        <time>2022-07-19T14:25:00Z</time>
      </trkpt>
      <trkpt lat="44.41942" lon="6.73407">
        <ele>1221.4</ele>
        <time>2022-07-19T14:25:01Z</time>
      </trkpt>
      <trkpt lat="44.41944" lon="6.73408">
        <ele>1221.4</ele>
        <time>2022-07-19T14:25:02Z</time>
      </trkpt>
      <trkpt lat="44.41945" lon="6.73408">
        <ele>1221.4</ele>
        <time>2022-07-19T14:25:03Z</time>
      </trkpt>
      <trkpt lat="44.41947" lon="6.7341">
        <ele>1221.4</ele>
        <time>2022-07-19T14:25:04Z</time>
      </trkpt>
      <trkpt lat="44.41948" lon="6.73411">
        <ele>1221.4</ele>
        <time>2022-07-19T14:25:05Z</time>
      </trkpt>
      <trkpt lat="44.4195" lon="6.73413">
        <ele>1221.4</ele>
        <time>2022-07-19T14:25:06Z</time>
      </trkpt>
      <trkpt lat="44.41952" lon="6.73414">
        <ele>1221.4</ele>
        <time>2022-07-19T14:25:07Z</time>
      </trkpt>
      <trkpt lat="44.41954" lon="6.73416">
        <ele>1221.4</ele>
        <time>2022-07-19T14:25:08Z</time>
      </trkpt>
      <trkpt lat="44.41955" lon="6.73418">
        <ele>1221.4</ele>
        <time>2022-07-19T14:25:09Z</time>
      </trkpt>
      <trkpt lat="44.41956" lon="6.73421">
        <ele>1221.4</ele>
        <time>2022-07-19T14:25:10Z</time>
      </trkpt>
      <trkpt lat="44.41958" lon="6.73425">
        <ele>1221.4</ele>
        <time>2022-07-19T14:25:11Z</time>
      </trkpt>
      <trkpt lat="44.4196" lon="6.73429">
        <ele>1221.4</ele>
        <time>2022-07-19T14:25:12Z</time>
      </trkpt>
      <trkpt lat="44.41962" lon="6.73431">
        <ele>1221.4</ele>
        <time>2022-07-19T14:25:13Z</time>
      </trkpt>
      <trkpt lat="44.41963" lon="6.73434">
        <ele>1221.6</ele>
        <time>2022-07-19T14:25:14Z</time>
      </trkpt>
      <trkpt lat="44.41965" lon="6.73437">
        <ele>1221.6</ele>
        <time>2022-07-19T14:25:15Z</time>
      </trkpt>
      <trkpt lat="44.41967" lon="6.73441">
        <ele>1221.6</ele>
        <time>2022-07-19T14:25:16Z</time>
      </trkpt>
      <trkpt lat="44.41969" lon="6.73444">
        <ele>1221.6</ele>
        <time>2022-07-19T14:25:17Z</time>
      </trkpt>
      <trkpt lat="44.41971" lon="6.73447">
        <ele>1221.6</ele>
        <time>2022-07-19T14:25:18Z</time>
      </trkpt>
      <trkpt lat="44.41973" lon="6.73451">
        <ele>1222</ele>
        <time>2022-07-19T14:25:19Z</time>
      </trkpt>
      <trkpt lat="44.41976" lon="6.73455">
        <ele>1222</ele>
        <time>2022-07-19T14:25:20Z</time>
      </trkpt>
      <trkpt lat="44.41978" lon="6.73459">
        <ele>1222</ele>
        <time>2022-07-19T14:25:21Z</time>
      </trkpt>
      <trkpt lat="44.41981" lon="6.73463">
        <ele>1222.2</ele>
        <time>2022-07-19T14:25:22Z</time>
      </trkpt>
      <trkpt lat="44.41983" lon="6.73468">
        <ele>1222.2</ele>
        <time>2022-07-19T14:25:23Z</time>
      </trkpt>
      <trkpt lat="44.41985" lon="6.73473">
        <ele>1222.2</ele>
        <time>2022-07-19T14:25:24Z</time>
      </trkpt>
      <trkpt lat="44.41987" lon="6.73478">
        <ele>1222.2</ele>
        <time>2022-07-19T14:25:25Z</time>
      </trkpt>
      <trkpt lat="44.41989" lon="6.73483">
        <ele>1222.2</ele>
        <time>2022-07-19T14:25:26Z</time>
      </trkpt>
      <trkpt lat="44.4199" lon="6.73488">
        <ele>1222.4</ele>
        <time>2022-07-19T14:25:27Z</time>
      </trkpt>
      <trkpt lat="44.41992" lon="6.73494">
        <ele>1222.4</ele>
        <time>2022-07-19T14:25:28Z</time>
      </trkpt>
      <trkpt lat="44.41994" lon="6.73499">
        <ele>1222.4</ele>
        <time>2022-07-19T14:25:29Z</time>
      </trkpt>
      <trkpt lat="44.41996" lon="6.73504">
        <ele>1222.4</ele>
        <time>2022-07-19T14:25:30Z</time>
      </trkpt>
      <trkpt lat="44.41998" lon="6.7351">
        <ele>1222.6</ele>
        <time>2022-07-19T14:25:31Z</time>
      </trkpt>
      <trkpt lat="44.41999" lon="6.73516">
        <ele>1222.6</ele>
        <time>2022-07-19T14:25:32Z</time>
      </trkpt>
      <trkpt lat="44.42001" lon="6.73521">
        <ele>1222.6</ele>
        <time>2022-07-19T14:25:33Z</time>
      </trkpt>
      <trkpt lat="44.42003" lon="6.73527">
        <ele>1222.8</ele>
        <time>2022-07-19T14:25:34Z</time>
      </trkpt>
      <trkpt lat="44.42005" lon="6.73533">
        <ele>1222.8</ele>
        <time>2022-07-19T14:25:35Z</time>
      </trkpt>
      <trkpt lat="44.42007" lon="6.73538">
        <ele>1222.8</ele>
        <time>2022-07-19T14:25:36Z</time>
      </trkpt>
      <trkpt lat="44.42009" lon="6.73544">
        <ele>1222.8</ele>
        <time>2022-07-19T14:25:37Z</time>
      </trkpt>
      <trkpt lat="44.4201" lon="6.73549">
        <ele>1223.2</ele>
        <time>2022-07-19T14:25:38Z</time>
      </trkpt>
      <trkpt lat="44.42012" lon="6.73555">
        <ele>1223.2</ele>
        <time>2022-07-19T14:25:39Z</time>
      </trkpt>
      <trkpt lat="44.42013" lon="6.73561">
        <ele>1223.2</ele>
        <time>2022-07-19T14:25:40Z</time>
      </trkpt>
      <trkpt lat="44.42013" lon="6.73567">
        <ele>1223.2</ele>
        <time>2022-07-19T14:25:41Z</time>
      </trkpt>
      <trkpt lat="44.42013" lon="6.73573">
        <ele>1223.2</ele>
        <time>2022-07-19T14:25:42Z</time>
      </trkpt>
      <trkpt lat="44.42013" lon="6.7358">
        <ele>1223.2</ele>
        <time>2022-07-19T14:25:43Z</time>
      </trkpt>
      <trkpt lat="44.42013" lon="6.73586">
        <ele>1223.4</ele>
        <time>2022-07-19T14:25:44Z</time>
      </trkpt>
      <trkpt lat="44.42013" lon="6.73593">
        <ele>1223.4</ele>
        <time>2022-07-19T14:25:45Z</time>
      </trkpt>
      <trkpt lat="44.42013" lon="6.73599">
        <ele>1223.4</ele>
        <time>2022-07-19T14:25:46Z</time>
      </trkpt>
      <trkpt lat="44.42014" lon="6.73605">
        <ele>1223.6</ele>
        <time>2022-07-19T14:25:47Z</time>
      </trkpt>
      <trkpt lat="44.42014" lon="6.73612">
        <ele>1223.6</ele>
        <time>2022-07-19T14:25:48Z</time>
      </trkpt>
      <trkpt lat="44.42016" lon="6.73618">
        <ele>1223.6</ele>
        <time>2022-07-19T14:25:49Z</time>
      </trkpt>
      <trkpt lat="44.42018" lon="6.73624">
        <ele>1223.8</ele>
        <time>2022-07-19T14:25:50Z</time>
      </trkpt>
      <trkpt lat="44.42021" lon="6.73629">
        <ele>1223.8</ele>
        <time>2022-07-19T14:25:51Z</time>
      </trkpt>
      <trkpt lat="44.42024" lon="6.73634">
        <ele>1223.8</ele>
        <time>2022-07-19T14:25:52Z</time>
      </trkpt>
      <trkpt lat="44.42028" lon="6.73639">
        <ele>1223.8</ele>
        <time>2022-07-19T14:25:53Z</time>
      </trkpt>
      <trkpt lat="44.42032" lon="6.73643">
        <ele>1223.8</ele>
        <time>2022-07-19T14:25:54Z</time>
      </trkpt>
      <trkpt lat="44.42036" lon="6.73647">
        <ele>1223.8</ele>
        <time>2022-07-19T14:25:55Z</time>
      </trkpt>
      <trkpt lat="44.4204" lon="6.7365">
        <ele>1223.8</ele>
        <time>2022-07-19T14:25:56Z</time>
      </trkpt>
      <trkpt lat="44.42044" lon="6.73654">
        <ele>1223.8</ele>
        <time>2022-07-19T14:25:57Z</time>
      </trkpt>
      <trkpt lat="44.42048" lon="6.73658">
        <ele>1223.8</ele>
        <time>2022-07-19T14:25:58Z</time>
      </trkpt>
      <trkpt lat="44.42052" lon="6.73662">
        <ele>1224.2</ele>
        <time>2022-07-19T14:25:59Z</time>
      </trkpt>
      <trkpt lat="44.42057" lon="6.73666">
        <ele>1224.2</ele>
        <time>2022-07-19T14:26:00Z</time>
      </trkpt>
      <trkpt lat="44.42061" lon="6.73669">
        <ele>1224.2</ele>
        <time>2022-07-19T14:26:01Z</time>
      </trkpt>
      <trkpt lat="44.42066" lon="6.73671">
        <ele>1224.4</ele>
        <time>2022-07-19T14:26:02Z</time>
      </trkpt>
      <trkpt lat="44.42071" lon="6.73673">
        <ele>1224.4</ele>
        <time>2022-07-19T14:26:03Z</time>
      </trkpt>
      <trkpt lat="44.42076" lon="6.73675">
        <ele>1224.4</ele>
        <time>2022-07-19T14:26:04Z</time>
      </trkpt>
      <trkpt lat="44.4208" lon="6.73677">
        <ele>1224.4</ele>
        <time>2022-07-19T14:26:05Z</time>
      </trkpt>
      <trkpt lat="44.42085" lon="6.73679">
        <ele>1224.6</ele>
        <time>2022-07-19T14:26:06Z</time>
      </trkpt>
      <trkpt lat="44.4209" lon="6.73682">
        <ele>1224.6</ele>
        <time>2022-07-19T14:26:07Z</time>
      </trkpt>
      <trkpt lat="44.42095" lon="6.73684">
        <ele>1224.8</ele>
        <time>2022-07-19T14:26:08Z</time>
      </trkpt>
      <trkpt lat="44.42099" lon="6.73686">
        <ele>1224.8</ele>
        <time>2022-07-19T14:26:09Z</time>
      </trkpt>
      <trkpt lat="44.42104" lon="6.73688">
        <ele>1224.8</ele>
        <time>2022-07-19T14:26:10Z</time>
      </trkpt>
      <trkpt lat="44.42109" lon="6.7369">
        <ele>1224.8</ele>
        <time>2022-07-19T14:26:11Z</time>
      </trkpt>
      <trkpt lat="44.42113" lon="6.73691">
        <ele>1225.2</ele>
        <time>2022-07-19T14:26:12Z</time>
      </trkpt>
      <trkpt lat="44.42118" lon="6.73693">
        <ele>1225.2</ele>
        <time>2022-07-19T14:26:13Z</time>
      </trkpt>
      <trkpt lat="44.42122" lon="6.73695">
        <ele>1225.4</ele>
        <time>2022-07-19T14:26:14Z</time>
      </trkpt>
      <trkpt lat="44.42127" lon="6.73697">
        <ele>1225.4</ele>
        <time>2022-07-19T14:26:15Z</time>
      </trkpt>
      <trkpt lat="44.42132" lon="6.73699">
        <ele>1225.6</ele>
        <time>2022-07-19T14:26:16Z</time>
      </trkpt>
      <trkpt lat="44.42137" lon="6.737">
        <ele>1225.6</ele>
        <time>2022-07-19T14:26:17Z</time>
      </trkpt>
      <trkpt lat="44.42142" lon="6.73702">
        <ele>1225.6</ele>
        <time>2022-07-19T14:26:18Z</time>
      </trkpt>
      <trkpt lat="44.42146" lon="6.73704">
        <ele>1225.8</ele>
        <time>2022-07-19T14:26:19Z</time>
      </trkpt>
      <trkpt lat="44.42151" lon="6.73705">
        <ele>1225.8</ele>
        <time>2022-07-19T14:26:20Z</time>
      </trkpt>
      <trkpt lat="44.42156" lon="6.73707">
        <ele>1226</ele>
        <time>2022-07-19T14:26:21Z</time>
      </trkpt>
      <trkpt lat="44.42161" lon="6.73709">
        <ele>1226</ele>
        <time>2022-07-19T14:26:22Z</time>
      </trkpt>
      <trkpt lat="44.42166" lon="6.7371">
        <ele>1226</ele>
        <time>2022-07-19T14:26:23Z</time>
      </trkpt>
      <trkpt lat="44.4217" lon="6.73711">
        <ele>1226.4</ele>
        <time>2022-07-19T14:26:24Z</time>
      </trkpt>
      <trkpt lat="44.42175" lon="6.73713">
        <ele>1226.4</ele>
        <time>2022-07-19T14:26:25Z</time>
      </trkpt>
      <trkpt lat="44.4218" lon="6.73714">
        <ele>1226.4</ele>
        <time>2022-07-19T14:26:26Z</time>
      </trkpt>
      <trkpt lat="44.42185" lon="6.73715">
        <ele>1226.4</ele>
        <time>2022-07-19T14:26:27Z</time>
      </trkpt>
      <trkpt lat="44.42189" lon="6.73717">
        <ele>1226.4</ele>
        <time>2022-07-19T14:26:28Z</time>
      </trkpt>
      <trkpt lat="44.42194" lon="6.73718">
        <ele>1226.6</ele>
        <time>2022-07-19T14:26:29Z</time>
      </trkpt>
      <trkpt lat="44.42198" lon="6.73719">
        <ele>1226.6</ele>
        <time>2022-07-19T14:26:30Z</time>
      </trkpt>
      <trkpt lat="44.42203" lon="6.7372">
        <ele>1226.6</ele>
        <time>2022-07-19T14:26:31Z</time>
      </trkpt>
      <trkpt lat="44.42207" lon="6.73721">
        <ele>1226.6</ele>
        <time>2022-07-19T14:26:32Z</time>
      </trkpt>
      <trkpt lat="44.42211" lon="6.73722">
        <ele>1226.8</ele>
        <time>2022-07-19T14:26:33Z</time>
      </trkpt>
      <trkpt lat="44.42216" lon="6.73723">
        <ele>1226.8</ele>
        <time>2022-07-19T14:26:34Z</time>
      </trkpt>
      <trkpt lat="44.4222" lon="6.73723">
        <ele>1227</ele>
        <time>2022-07-19T14:26:35Z</time>
      </trkpt>
      <trkpt lat="44.42224" lon="6.73724">
        <ele>1227</ele>
        <time>2022-07-19T14:26:36Z</time>
      </trkpt>
      <trkpt lat="44.42228" lon="6.73724">
        <ele>1227.4</ele>
        <time>2022-07-19T14:26:37Z</time>
      </trkpt>
      <trkpt lat="44.42232" lon="6.73724">
        <ele>1227.4</ele>
        <time>2022-07-19T14:26:38Z</time>
      </trkpt>
      <trkpt lat="44.42237" lon="6.73724">
        <ele>1227.6</ele>
        <time>2022-07-19T14:26:39Z</time>
      </trkpt>
      <trkpt lat="44.42241" lon="6.73724">
        <ele>1227.8</ele>
        <time>2022-07-19T14:26:40Z</time>
      </trkpt>
      <trkpt lat="44.42245" lon="6.73724">
        <ele>1227.8</ele>
        <time>2022-07-19T14:26:41Z</time>
      </trkpt>
      <trkpt lat="44.4225" lon="6.73724">
        <ele>1228</ele>
        <time>2022-07-19T14:26:42Z</time>
      </trkpt>
      <trkpt lat="44.42254" lon="6.73724">
        <ele>1228</ele>
        <time>2022-07-19T14:26:43Z</time>
      </trkpt>
      <trkpt lat="44.42258" lon="6.73723">
        <ele>1228.4</ele>
        <time>2022-07-19T14:26:44Z</time>
      </trkpt>
      <trkpt lat="44.42262" lon="6.73724">
        <ele>1228.4</ele>
        <time>2022-07-19T14:26:45Z</time>
      </trkpt>
      <trkpt lat="44.42266" lon="6.73723">
        <ele>1228.6</ele>
        <time>2022-07-19T14:26:46Z</time>
      </trkpt>
      <trkpt lat="44.4227" lon="6.73723">
        <ele>1228.6</ele>
        <time>2022-07-19T14:26:47Z</time>
      </trkpt>
      <trkpt lat="44.42274" lon="6.73723">
        <ele>1229</ele>
        <time>2022-07-19T14:26:48Z</time>
      </trkpt>
      <trkpt lat="44.42278" lon="6.73723">
        <ele>1229</ele>
        <time>2022-07-19T14:26:49Z</time>
      </trkpt>
      <trkpt lat="44.42282" lon="6.73723">
        <ele>1229.2</ele>
        <time>2022-07-19T14:26:50Z</time>
      </trkpt>
      <trkpt lat="44.42287" lon="6.73722">
        <ele>1229.2</ele>
        <time>2022-07-19T14:26:51Z</time>
      </trkpt>
      <trkpt lat="44.42291" lon="6.73722">
        <ele>1229.6</ele>
        <time>2022-07-19T14:26:52Z</time>
      </trkpt>
      <trkpt lat="44.42295" lon="6.73722">
        <ele>1229.6</ele>
        <time>2022-07-19T14:26:53Z</time>
      </trkpt>
      <trkpt lat="44.42299" lon="6.73722">
        <ele>1229.8</ele>
        <time>2022-07-19T14:26:54Z</time>
      </trkpt>
      <trkpt lat="44.42303" lon="6.73722">
        <ele>1229.8</ele>
        <time>2022-07-19T14:26:55Z</time>
      </trkpt>
      <trkpt lat="44.42306" lon="6.73722">
        <ele>1230.2</ele>
        <time>2022-07-19T14:26:56Z</time>
      </trkpt>
      <trkpt lat="44.4231" lon="6.73722">
        <ele>1230.2</ele>
        <time>2022-07-19T14:26:57Z</time>
      </trkpt>
      <trkpt lat="44.42314" lon="6.73721">
        <ele>1230.4</ele>
        <time>2022-07-19T14:26:58Z</time>
      </trkpt>
      <trkpt lat="44.42318" lon="6.73721">
        <ele>1230.4</ele>
        <time>2022-07-19T14:26:59Z</time>
      </trkpt>
      <trkpt lat="44.42322" lon="6.73721">
        <ele>1230.8</ele>
        <time>2022-07-19T14:27:00Z</time>
      </trkpt>
      <trkpt lat="44.42326" lon="6.7372">
        <ele>1230.8</ele>
        <time>2022-07-19T14:27:01Z</time>
      </trkpt>
      <trkpt lat="44.4233" lon="6.7372">
        <ele>1231</ele>
        <time>2022-07-19T14:27:02Z</time>
      </trkpt>
      <trkpt lat="44.42334" lon="6.7372">
        <ele>1231</ele>
        <time>2022-07-19T14:27:03Z</time>
      </trkpt>
      <trkpt lat="44.42338" lon="6.7372">
        <ele>1231.2</ele>
        <time>2022-07-19T14:27:04Z</time>
      </trkpt>
      <trkpt lat="44.42342" lon="6.73719">
        <ele>1231.2</ele>
        <time>2022-07-19T14:27:05Z</time>
      </trkpt>
      <trkpt lat="44.42346" lon="6.73719">
        <ele>1231.6</ele>
        <time>2022-07-19T14:27:06Z</time>
      </trkpt>
      <trkpt lat="44.4235" lon="6.73719">
        <ele>1231.6</ele>
        <time>2022-07-19T14:27:07Z</time>
      </trkpt>
      <trkpt lat="44.42354" lon="6.73718">
        <ele>1231.8</ele>
        <time>2022-07-19T14:27:08Z</time>
      </trkpt>
      <trkpt lat="44.42358" lon="6.73718">
        <ele>1231.8</ele>
        <time>2022-07-19T14:27:09Z</time>
      </trkpt>
      <trkpt lat="44.42362" lon="6.73718">
        <ele>1232.2</ele>
        <time>2022-07-19T14:27:10Z</time>
      </trkpt>
      <trkpt lat="44.42367" lon="6.73717">
        <ele>1232.2</ele>
        <time>2022-07-19T14:27:11Z</time>
      </trkpt>
      <trkpt lat="44.42371" lon="6.73717">
        <ele>1232.4</ele>
        <time>2022-07-19T14:27:12Z</time>
      </trkpt>
      <trkpt lat="44.42375" lon="6.73717">
        <ele>1232.4</ele>
        <time>2022-07-19T14:27:13Z</time>
      </trkpt>
      <trkpt lat="44.42379" lon="6.73717">
        <ele>1232.6</ele>
        <time>2022-07-19T14:27:14Z</time>
      </trkpt>
      <trkpt lat="44.42384" lon="6.73717">
        <ele>1232.6</ele>
        <time>2022-07-19T14:27:15Z</time>
      </trkpt>
      <trkpt lat="44.42388" lon="6.73716">
        <ele>1232.8</ele>
        <time>2022-07-19T14:27:16Z</time>
      </trkpt>
      <trkpt lat="44.42392" lon="6.73716">
        <ele>1232.8</ele>
        <time>2022-07-19T14:27:17Z</time>
      </trkpt>
      <trkpt lat="44.42396" lon="6.73716">
        <ele>1233.2</ele>
        <time>2022-07-19T14:27:18Z</time>
      </trkpt>
      <trkpt lat="44.424" lon="6.73715">
        <ele>1233.2</ele>
        <time>2022-07-19T14:27:19Z</time>
      </trkpt>
      <trkpt lat="44.42405" lon="6.73715">
        <ele>1233.4</ele>
        <time>2022-07-19T14:27:20Z</time>
      </trkpt>
      <trkpt lat="44.42409" lon="6.73715">
        <ele>1233.4</ele>
        <time>2022-07-19T14:27:21Z</time>
      </trkpt>
      <trkpt lat="44.42413" lon="6.73715">
        <ele>1233.6</ele>
        <time>2022-07-19T14:27:22Z</time>
      </trkpt>
      <trkpt lat="44.42417" lon="6.73714">
        <ele>1233.6</ele>
        <time>2022-07-19T14:27:23Z</time>
      </trkpt>
      <trkpt lat="44.42421" lon="6.73714">
        <ele>1233.8</ele>
        <time>2022-07-19T14:27:24Z</time>
      </trkpt>
      <trkpt lat="44.42425" lon="6.73714">
        <ele>1233.8</ele>
        <time>2022-07-19T14:27:25Z</time>
      </trkpt>
      <trkpt lat="44.4243" lon="6.73713">
        <ele>1233.8</ele>
        <time>2022-07-19T14:27:26Z</time>
      </trkpt>
      <trkpt lat="44.42434" lon="6.73712">
        <ele>1234.2</ele>
        <time>2022-07-19T14:27:27Z</time>
      </trkpt>
      <trkpt lat="44.42439" lon="6.73712">
        <ele>1234.2</ele>
        <time>2022-07-19T14:27:28Z</time>
      </trkpt>
      <trkpt lat="44.42444" lon="6.73711">
        <ele>1234.2</ele>
        <time>2022-07-19T14:27:29Z</time>
      </trkpt>
      <trkpt lat="44.42449" lon="6.73711">
        <ele>1234.2</ele>
        <time>2022-07-19T14:27:30Z</time>
      </trkpt>
      <trkpt lat="44.42454" lon="6.73711">
        <ele>1234.2</ele>
        <time>2022-07-19T14:27:31Z</time>
      </trkpt>
      <trkpt lat="44.42459" lon="6.7371">
        <ele>1234.2</ele>
        <time>2022-07-19T14:27:32Z</time>
      </trkpt>
      <trkpt lat="44.42464" lon="6.73709">
        <ele>1234.4</ele>
        <time>2022-07-19T14:27:33Z</time>
      </trkpt>
      <trkpt lat="44.42469" lon="6.73709">
        <ele>1234.4</ele>
        <time>2022-07-19T14:27:34Z</time>
      </trkpt>
      <trkpt lat="44.42474" lon="6.73708">
        <ele>1234.4</ele>
        <time>2022-07-19T14:27:35Z</time>
      </trkpt>
      <trkpt lat="44.42478" lon="6.73708">
        <ele>1234.4</ele>
        <time>2022-07-19T14:27:36Z</time>
      </trkpt>
      <trkpt lat="44.42483" lon="6.73707">
        <ele>1234.4</ele>
        <time>2022-07-19T14:27:37Z</time>
      </trkpt>
      <trkpt lat="44.42487" lon="6.73707">
        <ele>1234.6</ele>
        <time>2022-07-19T14:27:38Z</time>
      </trkpt>
      <trkpt lat="44.42492" lon="6.73706">
        <ele>1234.6</ele>
        <time>2022-07-19T14:27:39Z</time>
      </trkpt>
      <trkpt lat="44.42497" lon="6.73706">
        <ele>1234.6</ele>
        <time>2022-07-19T14:27:40Z</time>
      </trkpt>
      <trkpt lat="44.42501" lon="6.73706">
        <ele>1234.6</ele>
        <time>2022-07-19T14:27:41Z</time>
      </trkpt>
      <trkpt lat="44.42506" lon="6.73706">
        <ele>1234.6</ele>
        <time>2022-07-19T14:27:42Z</time>
      </trkpt>
      <trkpt lat="44.42511" lon="6.73706">
        <ele>1234.6</ele>
        <time>2022-07-19T14:27:43Z</time>
      </trkpt>
      <trkpt lat="44.42516" lon="6.73706">
        <ele>1234.6</ele>
        <time>2022-07-19T14:27:44Z</time>
      </trkpt>
      <trkpt lat="44.4252" lon="6.73705">
        <ele>1234.6</ele>
        <time>2022-07-19T14:27:45Z</time>
      </trkpt>
      <trkpt lat="44.42525" lon="6.73705">
        <ele>1234.6</ele>
        <time>2022-07-19T14:27:46Z</time>
      </trkpt>
      <trkpt lat="44.4253" lon="6.73704">
        <ele>1234.6</ele>
        <time>2022-07-19T14:27:47Z</time>
      </trkpt>
      <trkpt lat="44.42535" lon="6.73704">
        <ele>1234.6</ele>
        <time>2022-07-19T14:27:48Z</time>
      </trkpt>
      <trkpt lat="44.4254" lon="6.73704">
        <ele>1234.6</ele>
        <time>2022-07-19T14:27:49Z</time>
      </trkpt>
      <trkpt lat="44.42545" lon="6.73703">
        <ele>1234.8</ele>
        <time>2022-07-19T14:27:50Z</time>
      </trkpt>
      <trkpt lat="44.42549" lon="6.73703">
        <ele>1234.8</ele>
        <time>2022-07-19T14:27:51Z</time>
      </trkpt>
      <trkpt lat="44.42554" lon="6.73703">
        <ele>1234.8</ele>
        <time>2022-07-19T14:27:52Z</time>
      </trkpt>
      <trkpt lat="44.42559" lon="6.73703">
        <ele>1235</ele>
        <time>2022-07-19T14:27:53Z</time>
      </trkpt>
      <trkpt lat="44.42564" lon="6.73703">
        <ele>1235</ele>
        <time>2022-07-19T14:27:54Z</time>
      </trkpt>
      <trkpt lat="44.42569" lon="6.73703">
        <ele>1235</ele>
        <time>2022-07-19T14:27:55Z</time>
      </trkpt>
      <trkpt lat="44.42574" lon="6.73703">
        <ele>1235.4</ele>
        <time>2022-07-19T14:27:56Z</time>
      </trkpt>
      <trkpt lat="44.42579" lon="6.73703">
        <ele>1235.4</ele>
        <time>2022-07-19T14:27:57Z</time>
      </trkpt>
      <trkpt lat="44.42584" lon="6.73703">
        <ele>1235.4</ele>
        <time>2022-07-19T14:27:58Z</time>
      </trkpt>
      <trkpt lat="44.42589" lon="6.73704">
        <ele>1235.4</ele>
        <time>2022-07-19T14:27:59Z</time>
      </trkpt>
      <trkpt lat="44.42594" lon="6.73704">
        <ele>1235.4</ele>
        <time>2022-07-19T14:28:00Z</time>
      </trkpt>
      <trkpt lat="44.42599" lon="6.73704">
        <ele>1235.4</ele>
        <time>2022-07-19T14:28:01Z</time>
      </trkpt>
      <trkpt lat="44.42604" lon="6.73704">
        <ele>1235.4</ele>
        <time>2022-07-19T14:28:02Z</time>
      </trkpt>
      <trkpt lat="44.42609" lon="6.73704">
        <ele>1235.4</ele>
        <time>2022-07-19T14:28:03Z</time>
      </trkpt>
      <trkpt lat="44.42613" lon="6.73703">
        <ele>1235.4</ele>
        <time>2022-07-19T14:28:04Z</time>
      </trkpt>
      <trkpt lat="44.42618" lon="6.73703">
        <ele>1235.4</ele>
        <time>2022-07-19T14:28:05Z</time>
      </trkpt>
      <trkpt lat="44.42622" lon="6.73703">
        <ele>1235.6</ele>
        <time>2022-07-19T14:28:06Z</time>
      </trkpt>
      <trkpt lat="44.42626" lon="6.73702">
        <ele>1235.6</ele>
        <time>2022-07-19T14:28:07Z</time>
      </trkpt>
      <trkpt lat="44.4263" lon="6.73702">
        <ele>1235.8</ele>
        <time>2022-07-19T14:28:08Z</time>
      </trkpt>
      <trkpt lat="44.42635" lon="6.73702">
        <ele>1235.8</ele>
        <time>2022-07-19T14:28:09Z</time>
      </trkpt>
      <trkpt lat="44.4264" lon="6.73702">
        <ele>1235.8</ele>
        <time>2022-07-19T14:28:10Z</time>
      </trkpt>
      <trkpt lat="44.42645" lon="6.73701">
        <ele>1236</ele>
        <time>2022-07-19T14:28:11Z</time>
      </trkpt>
      <trkpt lat="44.4265" lon="6.737">
        <ele>1236</ele>
        <time>2022-07-19T14:28:12Z</time>
      </trkpt>
      <trkpt lat="44.42654" lon="6.737">
        <ele>1236</ele>
        <time>2022-07-19T14:28:13Z</time>
      </trkpt>
      <trkpt lat="44.42659" lon="6.737">
        <ele>1236</ele>
        <time>2022-07-19T14:28:14Z</time>
      </trkpt>
      <trkpt lat="44.42664" lon="6.737">
        <ele>1236</ele>
        <time>2022-07-19T14:28:15Z</time>
      </trkpt>
      <trkpt lat="44.42669" lon="6.73699">
        <ele>1236.4</ele>
        <time>2022-07-19T14:28:16Z</time>
      </trkpt>
      <trkpt lat="44.42673" lon="6.73699">
        <ele>1236.4</ele>
        <time>2022-07-19T14:28:17Z</time>
      </trkpt>
      <trkpt lat="44.42678" lon="6.73699">
        <ele>1236.4</ele>
        <time>2022-07-19T14:28:18Z</time>
      </trkpt>
      <trkpt lat="44.42683" lon="6.73699">
        <ele>1236.4</ele>
        <time>2022-07-19T14:28:19Z</time>
      </trkpt>
      <trkpt lat="44.42688" lon="6.73699">
        <ele>1236.6</ele>
        <time>2022-07-19T14:28:20Z</time>
      </trkpt>
      <trkpt lat="44.42693" lon="6.73699">
        <ele>1236.6</ele>
        <time>2022-07-19T14:28:21Z</time>
      </trkpt>
      <trkpt lat="44.42699" lon="6.73698">
        <ele>1236.6</ele>
        <time>2022-07-19T14:28:22Z</time>
      </trkpt>
      <trkpt lat="44.42704" lon="6.73698">
        <ele>1236.6</ele>
        <time>2022-07-19T14:28:23Z</time>
      </trkpt>
      <trkpt lat="44.42709" lon="6.73697">
        <ele>1236.6</ele>
        <time>2022-07-19T14:28:24Z</time>
      </trkpt>
      <trkpt lat="44.42714" lon="6.73697">
        <ele>1236.6</ele>
        <time>2022-07-19T14:28:25Z</time>
      </trkpt>
      <trkpt lat="44.42719" lon="6.73697">
        <ele>1236.6</ele>
        <time>2022-07-19T14:28:26Z</time>
      </trkpt>
      <trkpt lat="44.42724" lon="6.73697">
        <ele>1236.6</ele>
        <time>2022-07-19T14:28:27Z</time>
      </trkpt>
      <trkpt lat="44.42729" lon="6.73696">
        <ele>1236.8</ele>
        <time>2022-07-19T14:28:28Z</time>
      </trkpt>
      <trkpt lat="44.42733" lon="6.73695">
        <ele>1236.8</ele>
        <time>2022-07-19T14:28:29Z</time>
      </trkpt>
      <trkpt lat="44.42738" lon="6.73694">
        <ele>1236.8</ele>
        <time>2022-07-19T14:28:30Z</time>
      </trkpt>
      <trkpt lat="44.42743" lon="6.73692">
        <ele>1236.8</ele>
        <time>2022-07-19T14:28:31Z</time>
      </trkpt>
      <trkpt lat="44.42748" lon="6.73691">
        <ele>1236.8</ele>
        <time>2022-07-19T14:28:32Z</time>
      </trkpt>
      <trkpt lat="44.42753" lon="6.73689">
        <ele>1236.8</ele>
        <time>2022-07-19T14:28:33Z</time>
      </trkpt>
      <trkpt lat="44.42757" lon="6.73687">
        <ele>1236.8</ele>
        <time>2022-07-19T14:28:34Z</time>
      </trkpt>
      <trkpt lat="44.42762" lon="6.73685">
        <ele>1236.8</ele>
        <time>2022-07-19T14:28:35Z</time>
      </trkpt>
      <trkpt lat="44.42766" lon="6.73683">
        <ele>1236.8</ele>
        <time>2022-07-19T14:28:36Z</time>
      </trkpt>
      <trkpt lat="44.42771" lon="6.73681">
        <ele>1236.8</ele>
        <time>2022-07-19T14:28:37Z</time>
      </trkpt>
      <trkpt lat="44.42776" lon="6.73678">
        <ele>1236.8</ele>
        <time>2022-07-19T14:28:38Z</time>
      </trkpt>
      <trkpt lat="44.4278" lon="6.73676">
        <ele>1236.8</ele>
        <time>2022-07-19T14:28:39Z</time>
      </trkpt>
      <trkpt lat="44.42785" lon="6.73674">
        <ele>1236.8</ele>
        <time>2022-07-19T14:28:40Z</time>
      </trkpt>
      <trkpt lat="44.42789" lon="6.73671">
        <ele>1236.8</ele>
        <time>2022-07-19T14:28:42Z</time>
      </trkpt>
      <trkpt lat="44.42794" lon="6.73669">
        <ele>1237</ele>
        <time>2022-07-19T14:28:43Z</time>
      </trkpt>
      <trkpt lat="44.42798" lon="6.73667">
        <ele>1237</ele>
        <time>2022-07-19T14:28:44Z</time>
      </trkpt>
      <trkpt lat="44.42803" lon="6.73664">
        <ele>1237</ele>
        <time>2022-07-19T14:28:45Z</time>
      </trkpt>
      <trkpt lat="44.42807" lon="6.73662">
        <ele>1237</ele>
        <time>2022-07-19T14:28:46Z</time>
      </trkpt>
      <trkpt lat="44.42812" lon="6.73659">
        <ele>1237</ele>
        <time>2022-07-19T14:28:47Z</time>
      </trkpt>
      <trkpt lat="44.42816" lon="6.73657">
        <ele>1237</ele>
        <time>2022-07-19T14:28:48Z</time>
      </trkpt>
      <trkpt lat="44.42821" lon="6.73654">
        <ele>1237</ele>
        <time>2022-07-19T14:28:49Z</time>
      </trkpt>
      <trkpt lat="44.42825" lon="6.73652">
        <ele>1237</ele>
        <time>2022-07-19T14:28:50Z</time>
      </trkpt>
      <trkpt lat="44.4283" lon="6.7365">
        <ele>1237.2</ele>
        <time>2022-07-19T14:28:51Z</time>
      </trkpt>
      <trkpt lat="44.42834" lon="6.73647">
        <ele>1237.2</ele>
        <time>2022-07-19T14:28:52Z</time>
      </trkpt>
      <trkpt lat="44.42839" lon="6.73645">
        <ele>1237.2</ele>
        <time>2022-07-19T14:28:53Z</time>
      </trkpt>
      <trkpt lat="44.42844" lon="6.73643">
        <ele>1237.2</ele>
        <time>2022-07-19T14:28:54Z</time>
      </trkpt>
      <trkpt lat="44.42848" lon="6.73641">
        <ele>1237.6</ele>
        <time>2022-07-19T14:28:55Z</time>
      </trkpt>
      <trkpt lat="44.42853" lon="6.73639">
        <ele>1237.6</ele>
        <time>2022-07-19T14:28:56Z</time>
      </trkpt>
      <trkpt lat="44.42858" lon="6.73637">
        <ele>1237.6</ele>
        <time>2022-07-19T14:28:57Z</time>
      </trkpt>
      <trkpt lat="44.42863" lon="6.73636">
        <ele>1237.6</ele>
        <time>2022-07-19T14:28:58Z</time>
      </trkpt>
      <trkpt lat="44.42869" lon="6.73636">
        <ele>1237.8</ele>
        <time>2022-07-19T14:28:59Z</time>
      </trkpt>
      <trkpt lat="44.42874" lon="6.73634">
        <ele>1237.8</ele>
        <time>2022-07-19T14:29:00Z</time>
      </trkpt>
      <trkpt lat="44.42879" lon="6.73634">
        <ele>1237.8</ele>
        <time>2022-07-19T14:29:01Z</time>
      </trkpt>
      <trkpt lat="44.42885" lon="6.73633">
        <ele>1237.8</ele>
        <time>2022-07-19T14:29:02Z</time>
      </trkpt>
      <trkpt lat="44.4289" lon="6.73633">
        <ele>1237.8</ele>
        <time>2022-07-19T14:29:03Z</time>
      </trkpt>
      <trkpt lat="44.42896" lon="6.73633">
        <ele>1237.8</ele>
        <time>2022-07-19T14:29:04Z</time>
      </trkpt>
      <trkpt lat="44.42901" lon="6.73632">
        <ele>1238</ele>
        <time>2022-07-19T14:29:05Z</time>
      </trkpt>
      <trkpt lat="44.42906" lon="6.73633">
        <ele>1238</ele>
        <time>2022-07-19T14:29:06Z</time>
      </trkpt>
      <trkpt lat="44.42911" lon="6.73634">
        <ele>1238</ele>
        <time>2022-07-19T14:29:07Z</time>
      </trkpt>
      <trkpt lat="44.42916" lon="6.73634">
        <ele>1238</ele>
        <time>2022-07-19T14:29:08Z</time>
      </trkpt>
      <trkpt lat="44.42921" lon="6.73635">
        <ele>1238</ele>
        <time>2022-07-19T14:29:09Z</time>
      </trkpt>
      <trkpt lat="44.42926" lon="6.73636">
        <ele>1238</ele>
        <time>2022-07-19T14:29:10Z</time>
      </trkpt>
      <trkpt lat="44.42931" lon="6.73637">
        <ele>1238</ele>
        <time>2022-07-19T14:29:11Z</time>
      </trkpt>
      <trkpt lat="44.42935" lon="6.73639">
        <ele>1238</ele>
        <time>2022-07-19T14:29:12Z</time>
      </trkpt>
      <trkpt lat="44.4294" lon="6.73641">
        <ele>1238.2</ele>
        <time>2022-07-19T14:29:13Z</time>
      </trkpt>
      <trkpt lat="44.42945" lon="6.73643">
        <ele>1238.2</ele>
        <time>2022-07-19T14:29:14Z</time>
      </trkpt>
      <trkpt lat="44.4295" lon="6.73645">
        <ele>1238.2</ele>
        <time>2022-07-19T14:29:15Z</time>
      </trkpt>
      <trkpt lat="44.42956" lon="6.73647">
        <ele>1238.2</ele>
        <time>2022-07-19T14:29:16Z</time>
      </trkpt>
      <trkpt lat="44.42961" lon="6.7365">
        <ele>1238.2</ele>
        <time>2022-07-19T14:29:17Z</time>
      </trkpt>
      <trkpt lat="44.42965" lon="6.73653">
        <ele>1238.2</ele>
        <time>2022-07-19T14:29:18Z</time>
      </trkpt>
      <trkpt lat="44.4297" lon="6.73657">
        <ele>1238.2</ele>
        <time>2022-07-19T14:29:19Z</time>
      </trkpt>
      <trkpt lat="44.42975" lon="6.73661">
        <ele>1238.2</ele>
        <time>2022-07-19T14:29:20Z</time>
      </trkpt>
      <trkpt lat="44.4298" lon="6.73665">
        <ele>1238.2</ele>
        <time>2022-07-19T14:29:21Z</time>
      </trkpt>
      <trkpt lat="44.42984" lon="6.7367">
        <ele>1238.2</ele>
        <time>2022-07-19T14:29:22Z</time>
      </trkpt>
      <trkpt lat="44.42989" lon="6.73674">
        <ele>1238.2</ele>
        <time>2022-07-19T14:29:23Z</time>
      </trkpt>
      <trkpt lat="44.42993" lon="6.73678">
        <ele>1238.2</ele>
        <time>2022-07-19T14:29:24Z</time>
      </trkpt>
      <trkpt lat="44.42997" lon="6.73683">
        <ele>1238.2</ele>
        <time>2022-07-19T14:29:25Z</time>
      </trkpt>
      <trkpt lat="44.43001" lon="6.73687">
        <ele>1238.2</ele>
        <time>2022-07-19T14:29:26Z</time>
      </trkpt>
      <trkpt lat="44.43005" lon="6.73692">
        <ele>1238.4</ele>
        <time>2022-07-19T14:29:27Z</time>
      </trkpt>
      <trkpt lat="44.43009" lon="6.73697">
        <ele>1238.4</ele>
        <time>2022-07-19T14:29:28Z</time>
      </trkpt>
      <trkpt lat="44.43012" lon="6.73702">
        <ele>1238.4</ele>
        <time>2022-07-19T14:29:29Z</time>
      </trkpt>
      <trkpt lat="44.43016" lon="6.73707">
        <ele>1238.4</ele>
        <time>2022-07-19T14:29:30Z</time>
      </trkpt>
      <trkpt lat="44.4302" lon="6.73712">
        <ele>1238.4</ele>
        <time>2022-07-19T14:29:31Z</time>
      </trkpt>
      <trkpt lat="44.43023" lon="6.73718">
        <ele>1238.4</ele>
        <time>2022-07-19T14:29:32Z</time>
      </trkpt>
      <trkpt lat="44.43026" lon="6.73723">
        <ele>1238.4</ele>
        <time>2022-07-19T14:29:33Z</time>
      </trkpt>
      <trkpt lat="44.43029" lon="6.73729">
        <ele>1238.4</ele>
        <time>2022-07-19T14:29:34Z</time>
      </trkpt>
      <trkpt lat="44.43033" lon="6.73735">
        <ele>1238.4</ele>
        <time>2022-07-19T14:29:35Z</time>
      </trkpt>
      <trkpt lat="44.43036" lon="6.73741">
        <ele>1238.4</ele>
        <time>2022-07-19T14:29:36Z</time>
      </trkpt>
      <trkpt lat="44.4304" lon="6.73747">
        <ele>1238.4</ele>
        <time>2022-07-19T14:29:37Z</time>
      </trkpt>
      <trkpt lat="44.43043" lon="6.73754">
        <ele>1238.4</ele>
        <time>2022-07-19T14:29:38Z</time>
      </trkpt>
      <trkpt lat="44.43047" lon="6.7376">
        <ele>1238.4</ele>
        <time>2022-07-19T14:29:39Z</time>
      </trkpt>
      <trkpt lat="44.4305" lon="6.73766">
        <ele>1238.8</ele>
        <time>2022-07-19T14:29:40Z</time>
      </trkpt>
      <trkpt lat="44.43053" lon="6.73772">
        <ele>1238.8</ele>
        <time>2022-07-19T14:29:41Z</time>
      </trkpt>
      <trkpt lat="44.43056" lon="6.73778">
        <ele>1238.8</ele>
        <time>2022-07-19T14:29:42Z</time>
      </trkpt>
      <trkpt lat="44.43059" lon="6.73785">
        <ele>1238.8</ele>
        <time>2022-07-19T14:29:43Z</time>
      </trkpt>
      <trkpt lat="44.43062" lon="6.73791">
        <ele>1238.8</ele>
        <time>2022-07-19T14:29:44Z</time>
      </trkpt>
      <trkpt lat="44.43065" lon="6.73797">
        <ele>1239</ele>
        <time>2022-07-19T14:29:45Z</time>
      </trkpt>
      <trkpt lat="44.43068" lon="6.73803">
        <ele>1239</ele>
        <time>2022-07-19T14:29:46Z</time>
      </trkpt>
      <trkpt lat="44.43072" lon="6.73809">
        <ele>1239</ele>
        <time>2022-07-19T14:29:47Z</time>
      </trkpt>
      <trkpt lat="44.43075" lon="6.73814">
        <ele>1239</ele>
        <time>2022-07-19T14:29:48Z</time>
      </trkpt>
      <trkpt lat="44.43079" lon="6.73819">
        <ele>1239.2</ele>
        <time>2022-07-19T14:29:49Z</time>
      </trkpt>
      <trkpt lat="44.43082" lon="6.73824">
        <ele>1239.2</ele>
        <time>2022-07-19T14:29:50Z</time>
      </trkpt>
      <trkpt lat="44.43086" lon="6.73829">
        <ele>1239.2</ele>
        <time>2022-07-19T14:29:51Z</time>
      </trkpt>
      <trkpt lat="44.4309" lon="6.73833">
        <ele>1239.4</ele>
        <time>2022-07-19T14:29:52Z</time>
      </trkpt>
      <trkpt lat="44.43093" lon="6.73837">
        <ele>1239.4</ele>
        <time>2022-07-19T14:29:53Z</time>
      </trkpt>
      <trkpt lat="44.43097" lon="6.73841">
        <ele>1239.4</ele>
        <time>2022-07-19T14:29:54Z</time>
      </trkpt>
      <trkpt lat="44.43101" lon="6.73845">
        <ele>1239.6</ele>
        <time>2022-07-19T14:29:55Z</time>
      </trkpt>
      <trkpt lat="44.43105" lon="6.73847">
        <ele>1239.6</ele>
        <time>2022-07-19T14:29:56Z</time>
      </trkpt>
      <trkpt lat="44.43109" lon="6.7385">
        <ele>1239.6</ele>
        <time>2022-07-19T14:29:57Z</time>
      </trkpt>
      <trkpt lat="44.43114" lon="6.73853">
        <ele>1239.6</ele>
        <time>2022-07-19T14:29:58Z</time>
      </trkpt>
      <trkpt lat="44.43118" lon="6.73855">
        <ele>1240</ele>
        <time>2022-07-19T14:29:59Z</time>
      </trkpt>
      <trkpt lat="44.43123" lon="6.73857">
        <ele>1240</ele>
        <time>2022-07-19T14:30:00Z</time>
      </trkpt>
      <trkpt lat="44.43128" lon="6.73859">
        <ele>1240</ele>
        <time>2022-07-19T14:30:01Z</time>
      </trkpt>
      <trkpt lat="44.43133" lon="6.7386">
        <ele>1240.2</ele>
        <time>2022-07-19T14:30:02Z</time>
      </trkpt>
      <trkpt lat="44.43138" lon="6.73862">
        <ele>1240.2</ele>
        <time>2022-07-19T14:30:03Z</time>
      </trkpt>
      <trkpt lat="44.43142" lon="6.73863">
        <ele>1240.2</ele>
        <time>2022-07-19T14:30:04Z</time>
      </trkpt>
      <trkpt lat="44.43147" lon="6.73864">
        <ele>1240.4</ele>
        <time>2022-07-19T14:30:05Z</time>
      </trkpt>
      <trkpt lat="44.43152" lon="6.73866">
        <ele>1240.4</ele>
        <time>2022-07-19T14:30:06Z</time>
      </trkpt>
      <trkpt lat="44.43157" lon="6.73868">
        <ele>1240.4</ele>
        <time>2022-07-19T14:30:07Z</time>
      </trkpt>
      <trkpt lat="44.43162" lon="6.7387">
        <ele>1240.4</ele>
        <time>2022-07-19T14:30:08Z</time>
      </trkpt>
      <trkpt lat="44.43167" lon="6.73873">
        <ele>1240.4</ele>
        <time>2022-07-19T14:30:09Z</time>
      </trkpt>
      <trkpt lat="44.43172" lon="6.73876">
        <ele>1240.6</ele>
        <time>2022-07-19T14:30:10Z</time>
      </trkpt>
      <trkpt lat="44.43176" lon="6.7388">
        <ele>1240.6</ele>
        <time>2022-07-19T14:30:11Z</time>
      </trkpt>
      <trkpt lat="44.43181" lon="6.73884">
        <ele>1240.6</ele>
        <time>2022-07-19T14:30:12Z</time>
      </trkpt>
      <trkpt lat="44.43185" lon="6.73888">
        <ele>1240.8</ele>
        <time>2022-07-19T14:30:13Z</time>
      </trkpt>
      <trkpt lat="44.43189" lon="6.73893">
        <ele>1240.8</ele>
        <time>2022-07-19T14:30:14Z</time>
      </trkpt>
      <trkpt lat="44.43192" lon="6.73898">
        <ele>1240.8</ele>
        <time>2022-07-19T14:30:15Z</time>
      </trkpt>
      <trkpt lat="44.43195" lon="6.73902">
        <ele>1240.8</ele>
        <time>2022-07-19T14:30:16Z</time>
      </trkpt>
      <trkpt lat="44.43198" lon="6.73907">
        <ele>1240.8</ele>
        <time>2022-07-19T14:30:17Z</time>
      </trkpt>
      <trkpt lat="44.432" lon="6.73912">
        <ele>1240.8</ele>
        <time>2022-07-19T14:30:18Z</time>
      </trkpt>
      <trkpt lat="44.43203" lon="6.73918">
        <ele>1241.2</ele>
        <time>2022-07-19T14:30:19Z</time>
      </trkpt>
      <trkpt lat="44.43206" lon="6.73923">
        <ele>1241.2</ele>
        <time>2022-07-19T14:30:20Z</time>
      </trkpt>
      <trkpt lat="44.43208" lon="6.73929">
        <ele>1241.2</ele>
        <time>2022-07-19T14:30:21Z</time>
      </trkpt>
      <trkpt lat="44.43211" lon="6.73934">
        <ele>1241.4</ele>
        <time>2022-07-19T14:30:22Z</time>
      </trkpt>
      <trkpt lat="44.43214" lon="6.73939">
        <ele>1241.4</ele>
        <time>2022-07-19T14:30:23Z</time>
      </trkpt>
      <trkpt lat="44.43217" lon="6.73944">
        <ele>1241.6</ele>
        <time>2022-07-19T14:30:24Z</time>
      </trkpt>
      <trkpt lat="44.4322" lon="6.73949">
        <ele>1241.6</ele>
        <time>2022-07-19T14:30:25Z</time>
      </trkpt>
      <trkpt lat="44.43223" lon="6.73954">
        <ele>1242</ele>
        <time>2022-07-19T14:30:26Z</time>
      </trkpt>
      <trkpt lat="44.43225" lon="6.73959">
        <ele>1242</ele>
        <time>2022-07-19T14:30:27Z</time>
      </trkpt>
      <trkpt lat="44.43228" lon="6.73964">
        <ele>1242.2</ele>
        <time>2022-07-19T14:30:28Z</time>
      </trkpt>
      <trkpt lat="44.43231" lon="6.73969">
        <ele>1242.2</ele>
        <time>2022-07-19T14:30:29Z</time>
      </trkpt>
      <trkpt lat="44.43234" lon="6.73975">
        <ele>1242.2</ele>
        <time>2022-07-19T14:30:30Z</time>
      </trkpt>
      <trkpt lat="44.43236" lon="6.7398">
        <ele>1242.6</ele>
        <time>2022-07-19T14:30:31Z</time>
      </trkpt>
      <trkpt lat="44.43239" lon="6.73985">
        <ele>1242.6</ele>
        <time>2022-07-19T14:30:32Z</time>
      </trkpt>
      <trkpt lat="44.43242" lon="6.7399">
        <ele>1242.6</ele>
        <time>2022-07-19T14:30:33Z</time>
      </trkpt>
      <trkpt lat="44.43245" lon="6.73995">
        <ele>1242.8</ele>
        <time>2022-07-19T14:30:34Z</time>
      </trkpt>
      <trkpt lat="44.43248" lon="6.74">
        <ele>1242.8</ele>
        <time>2022-07-19T14:30:35Z</time>
      </trkpt>
      <trkpt lat="44.43251" lon="6.74005">
        <ele>1242.8</ele>
        <time>2022-07-19T14:30:36Z</time>
      </trkpt>
      <trkpt lat="44.43254" lon="6.7401">
        <ele>1243.2</ele>
        <time>2022-07-19T14:30:37Z</time>
      </trkpt>
      <trkpt lat="44.43257" lon="6.74014">
        <ele>1243.2</ele>
        <time>2022-07-19T14:30:38Z</time>
      </trkpt>
      <trkpt lat="44.4326" lon="6.74019">
        <ele>1243.4</ele>
        <time>2022-07-19T14:30:39Z</time>
      </trkpt>
      <trkpt lat="44.43262" lon="6.74023">
        <ele>1243.4</ele>
        <time>2022-07-19T14:30:40Z</time>
      </trkpt>
      <trkpt lat="44.43265" lon="6.74028">
        <ele>1243.8</ele>
        <time>2022-07-19T14:30:41Z</time>
      </trkpt>
      <trkpt lat="44.43268" lon="6.74032">
        <ele>1243.8</ele>
        <time>2022-07-19T14:30:42Z</time>
      </trkpt>
      <trkpt lat="44.43272" lon="6.74036">
        <ele>1244.2</ele>
        <time>2022-07-19T14:30:43Z</time>
      </trkpt>
      <trkpt lat="44.43275" lon="6.7404">
        <ele>1244.4</ele>
        <time>2022-07-19T14:30:44Z</time>
      </trkpt>
      <trkpt lat="44.43278" lon="6.74044">
        <ele>1244.6</ele>
        <time>2022-07-19T14:30:45Z</time>
      </trkpt>
      <trkpt lat="44.43281" lon="6.74047">
        <ele>1244.6</ele>
        <time>2022-07-19T14:30:46Z</time>
      </trkpt>
      <trkpt lat="44.43285" lon="6.74051">
        <ele>1244.8</ele>
        <time>2022-07-19T14:30:47Z</time>
      </trkpt>
      <trkpt lat="44.43288" lon="6.74054">
        <ele>1244.8</ele>
        <time>2022-07-19T14:30:48Z</time>
      </trkpt>
      <trkpt lat="44.43292" lon="6.74057">
        <ele>1244.8</ele>
        <time>2022-07-19T14:30:49Z</time>
      </trkpt>
      <trkpt lat="44.43296" lon="6.74061">
        <ele>1245</ele>
        <time>2022-07-19T14:30:50Z</time>
      </trkpt>
      <trkpt lat="44.433" lon="6.74064">
        <ele>1245</ele>
        <time>2022-07-19T14:30:51Z</time>
      </trkpt>
      <trkpt lat="44.43304" lon="6.74068">
        <ele>1245</ele>
        <time>2022-07-19T14:30:52Z</time>
      </trkpt>
      <trkpt lat="44.43308" lon="6.74071">
        <ele>1245</ele>
        <time>2022-07-19T14:30:53Z</time>
      </trkpt>
      <trkpt lat="44.43312" lon="6.74075">
        <ele>1245.2</ele>
        <time>2022-07-19T14:30:54Z</time>
      </trkpt>
      <trkpt lat="44.43316" lon="6.74078">
        <ele>1245.2</ele>
        <time>2022-07-19T14:30:55Z</time>
      </trkpt>
      <trkpt lat="44.43321" lon="6.74081">
        <ele>1245.2</ele>
        <time>2022-07-19T14:30:56Z</time>
      </trkpt>
      <trkpt lat="44.43325" lon="6.74084">
        <ele>1245.2</ele>
        <time>2022-07-19T14:30:57Z</time>
      </trkpt>
      <trkpt lat="44.4333" lon="6.74088">
        <ele>1245.2</ele>
        <time>2022-07-19T14:30:58Z</time>
      </trkpt>
      <trkpt lat="44.43334" lon="6.74091">
        <ele>1245.2</ele>
        <time>2022-07-19T14:30:59Z</time>
      </trkpt>
      <trkpt lat="44.43338" lon="6.74095">
        <ele>1245.2</ele>
        <time>2022-07-19T14:31:00Z</time>
      </trkpt>
      <trkpt lat="44.43342" lon="6.74099">
        <ele>1245.2</ele>
        <time>2022-07-19T14:31:01Z</time>
      </trkpt>
      <trkpt lat="44.43346" lon="6.74104">
        <ele>1245.2</ele>
        <time>2022-07-19T14:31:02Z</time>
      </trkpt>
      <trkpt lat="44.43349" lon="6.74108">
        <ele>1245.2</ele>
        <time>2022-07-19T14:31:03Z</time>
      </trkpt>
      <trkpt lat="44.43353" lon="6.74112">
        <ele>1245.4</ele>
        <time>2022-07-19T14:31:04Z</time>
      </trkpt>
      <trkpt lat="44.43356" lon="6.74117">
        <ele>1245.4</ele>
        <time>2022-07-19T14:31:05Z</time>
      </trkpt>
      <trkpt lat="44.43359" lon="6.74122">
        <ele>1245.4</ele>
        <time>2022-07-19T14:31:06Z</time>
      </trkpt>
      <trkpt lat="44.43362" lon="6.74127">
        <ele>1245.4</ele>
        <time>2022-07-19T14:31:07Z</time>
      </trkpt>
      <trkpt lat="44.43365" lon="6.74133">
        <ele>1245.8</ele>
        <time>2022-07-19T14:31:08Z</time>
      </trkpt>
      <trkpt lat="44.43368" lon="6.74139">
        <ele>1245.8</ele>
        <time>2022-07-19T14:31:09Z</time>
      </trkpt>
      <trkpt lat="44.4337" lon="6.74145">
        <ele>1245.8</ele>
        <time>2022-07-19T14:31:10Z</time>
      </trkpt>
      <trkpt lat="44.43372" lon="6.74151">
        <ele>1245.8</ele>
        <time>2022-07-19T14:31:11Z</time>
      </trkpt>
      <trkpt lat="44.43374" lon="6.74157">
        <ele>1245.8</ele>
        <time>2022-07-19T14:31:12Z</time>
      </trkpt>
      <trkpt lat="44.43376" lon="6.74164">
        <ele>1246</ele>
        <time>2022-07-19T14:31:13Z</time>
      </trkpt>
      <trkpt lat="44.43378" lon="6.7417">
        <ele>1246</ele>
        <time>2022-07-19T14:31:14Z</time>
      </trkpt>
      <trkpt lat="44.4338" lon="6.74177">
        <ele>1246</ele>
        <time>2022-07-19T14:31:15Z</time>
      </trkpt>
      <trkpt lat="44.43381" lon="6.74183">
        <ele>1246</ele>
        <time>2022-07-19T14:31:16Z</time>
      </trkpt>
      <trkpt lat="44.43383" lon="6.7419">
        <ele>1246</ele>
        <time>2022-07-19T14:31:17Z</time>
      </trkpt>
      <trkpt lat="44.43385" lon="6.74197">
        <ele>1246</ele>
        <time>2022-07-19T14:31:18Z</time>
      </trkpt>
      <trkpt lat="44.43386" lon="6.74203">
        <ele>1246.2</ele>
        <time>2022-07-19T14:31:19Z</time>
      </trkpt>
      <trkpt lat="44.43388" lon="6.7421">
        <ele>1246.2</ele>
        <time>2022-07-19T14:31:20Z</time>
      </trkpt>
      <trkpt lat="44.4339" lon="6.74216">
        <ele>1246.2</ele>
        <time>2022-07-19T14:31:21Z</time>
      </trkpt>
      <trkpt lat="44.43392" lon="6.74223">
        <ele>1246.2</ele>
        <time>2022-07-19T14:31:22Z</time>
      </trkpt>
      <trkpt lat="44.43393" lon="6.7423">
        <ele>1246.4</ele>
        <time>2022-07-19T14:31:23Z</time>
      </trkpt>
      <trkpt lat="44.43395" lon="6.74236">
        <ele>1246.4</ele>
        <time>2022-07-19T14:31:24Z</time>
      </trkpt>
      <trkpt lat="44.43397" lon="6.74243">
        <ele>1246.8</ele>
        <time>2022-07-19T14:31:25Z</time>
      </trkpt>
      <trkpt lat="44.43398" lon="6.74249">
        <ele>1246.8</ele>
        <time>2022-07-19T14:31:26Z</time>
      </trkpt>
      <trkpt lat="44.434" lon="6.74256">
        <ele>1247</ele>
        <time>2022-07-19T14:31:27Z</time>
      </trkpt>
      <trkpt lat="44.43402" lon="6.74262">
        <ele>1247</ele>
        <time>2022-07-19T14:31:28Z</time>
      </trkpt>
      <trkpt lat="44.43403" lon="6.74268">
        <ele>1247.2</ele>
        <time>2022-07-19T14:31:29Z</time>
      </trkpt>
      <trkpt lat="44.43405" lon="6.74274">
        <ele>1247.2</ele>
        <time>2022-07-19T14:31:30Z</time>
      </trkpt>
      <trkpt lat="44.43406" lon="6.7428">
        <ele>1247.4</ele>
        <time>2022-07-19T14:31:31Z</time>
      </trkpt>
      <trkpt lat="44.43407" lon="6.74285">
        <ele>1247.8</ele>
        <time>2022-07-19T14:31:32Z</time>
      </trkpt>
      <trkpt lat="44.43408" lon="6.74291">
        <ele>1247.8</ele>
        <time>2022-07-19T14:31:33Z</time>
      </trkpt>
      <trkpt lat="44.4341" lon="6.74296">
        <ele>1248.2</ele>
        <time>2022-07-19T14:31:34Z</time>
      </trkpt>
      <trkpt lat="44.43411" lon="6.74302">
        <ele>1248.2</ele>
        <time>2022-07-19T14:31:35Z</time>
      </trkpt>
      <trkpt lat="44.43413" lon="6.74307">
        <ele>1248.2</ele>
        <time>2022-07-19T14:31:36Z</time>
      </trkpt>
      <trkpt lat="44.43415" lon="6.74312">
        <ele>1248.4</ele>
        <time>2022-07-19T14:31:37Z</time>
      </trkpt>
      <trkpt lat="44.43416" lon="6.74318">
        <ele>1248.4</ele>
        <time>2022-07-19T14:31:38Z</time>
      </trkpt>
      <trkpt lat="44.43417" lon="6.74323">
        <ele>1248.6</ele>
        <time>2022-07-19T14:31:39Z</time>
      </trkpt>
      <trkpt lat="44.43418" lon="6.74328">
        <ele>1248.6</ele>
        <time>2022-07-19T14:31:40Z</time>
      </trkpt>
      <trkpt lat="44.4342" lon="6.74334">
        <ele>1249</ele>
        <time>2022-07-19T14:31:41Z</time>
      </trkpt>
      <trkpt lat="44.43421" lon="6.74339">
        <ele>1249</ele>
        <time>2022-07-19T14:31:42Z</time>
      </trkpt>
      <trkpt lat="44.43423" lon="6.74344">
        <ele>1249.4</ele>
        <time>2022-07-19T14:31:43Z</time>
      </trkpt>
      <trkpt lat="44.43425" lon="6.74349">
        <ele>1249.4</ele>
        <time>2022-07-19T14:31:44Z</time>
      </trkpt>
      <trkpt lat="44.43427" lon="6.74355">
        <ele>1249.8</ele>
        <time>2022-07-19T14:31:45Z</time>
      </trkpt>
      <trkpt lat="44.43429" lon="6.7436">
        <ele>1250</ele>
        <time>2022-07-19T14:31:46Z</time>
      </trkpt>
      <trkpt lat="44.4343" lon="6.74365">
        <ele>1250</ele>
        <time>2022-07-19T14:31:47Z</time>
      </trkpt>
      <trkpt lat="44.43432" lon="6.7437">
        <ele>1250.2</ele>
        <time>2022-07-19T14:31:48Z</time>
      </trkpt>
      <trkpt lat="44.43434" lon="6.74374">
        <ele>1250.2</ele>
        <time>2022-07-19T14:31:49Z</time>
      </trkpt>
      <trkpt lat="44.43436" lon="6.74378">
        <ele>1250.6</ele>
        <time>2022-07-19T14:31:50Z</time>
      </trkpt>
      <trkpt lat="44.43439" lon="6.74382">
        <ele>1250.6</ele>
        <time>2022-07-19T14:31:51Z</time>
      </trkpt>
      <trkpt lat="44.43442" lon="6.74385">
        <ele>1250.8</ele>
        <time>2022-07-19T14:31:52Z</time>
      </trkpt>
      <trkpt lat="44.43445" lon="6.74388">
        <ele>1250.8</ele>
        <time>2022-07-19T14:31:53Z</time>
      </trkpt>
      <trkpt lat="44.43448" lon="6.74391">
        <ele>1251.2</ele>
        <time>2022-07-19T14:31:54Z</time>
      </trkpt>
      <trkpt lat="44.43451" lon="6.74393">
        <ele>1251.4</ele>
        <time>2022-07-19T14:31:55Z</time>
      </trkpt>
      <trkpt lat="44.43454" lon="6.74395">
        <ele>1251.4</ele>
        <time>2022-07-19T14:31:56Z</time>
      </trkpt>
      <trkpt lat="44.43458" lon="6.74396">
        <ele>1251.6</ele>
        <time>2022-07-19T14:31:57Z</time>
      </trkpt>
      <trkpt lat="44.43462" lon="6.74397">
        <ele>1251.6</ele>
        <time>2022-07-19T14:31:58Z</time>
      </trkpt>
      <trkpt lat="44.43465" lon="6.74399">
        <ele>1252</ele>
        <time>2022-07-19T14:31:59Z</time>
      </trkpt>
      <trkpt lat="44.43469" lon="6.744">
        <ele>1252.2</ele>
        <time>2022-07-19T14:32:00Z</time>
      </trkpt>
      <trkpt lat="44.43472" lon="6.74401">
        <ele>1252.2</ele>
        <time>2022-07-19T14:32:01Z</time>
      </trkpt>
      <trkpt lat="44.43478" lon="6.74402">
        <ele>1252.2</ele>
        <time>2022-07-19T14:32:02Z</time>
      </trkpt>
      <trkpt lat="44.4348" lon="6.74402">
        <ele>1252.4</ele>
        <time>2022-07-19T14:32:03Z</time>
      </trkpt>
      <trkpt lat="44.43484" lon="6.74403">
        <ele>1252.4</ele>
        <time>2022-07-19T14:32:04Z</time>
      </trkpt>
      <trkpt lat="44.43487" lon="6.74404">
        <ele>1252.6</ele>
        <time>2022-07-19T14:32:05Z</time>
      </trkpt>
      <trkpt lat="44.43491" lon="6.74404">
        <ele>1252.6</ele>
        <time>2022-07-19T14:32:06Z</time>
      </trkpt>
      <trkpt lat="44.43495" lon="6.74405">
        <ele>1253</ele>
        <time>2022-07-19T14:32:07Z</time>
      </trkpt>
      <trkpt lat="44.43498" lon="6.74406">
        <ele>1253</ele>
        <time>2022-07-19T14:32:08Z</time>
      </trkpt>
      <trkpt lat="44.43502" lon="6.74406">
        <ele>1253</ele>
        <time>2022-07-19T14:32:09Z</time>
      </trkpt>
      <trkpt lat="44.43506" lon="6.74407">
        <ele>1253.2</ele>
        <time>2022-07-19T14:32:10Z</time>
      </trkpt>
      <trkpt lat="44.43509" lon="6.74408">
        <ele>1253.2</ele>
        <time>2022-07-19T14:32:11Z</time>
      </trkpt>
      <trkpt lat="44.43513" lon="6.74409">
        <ele>1253.6</ele>
        <time>2022-07-19T14:32:12Z</time>
      </trkpt>
      <trkpt lat="44.43517" lon="6.7441">
        <ele>1253.6</ele>
        <time>2022-07-19T14:32:13Z</time>
      </trkpt>
      <trkpt lat="44.4352" lon="6.7441">
        <ele>1253.6</ele>
        <time>2022-07-19T14:32:14Z</time>
      </trkpt>
      <trkpt lat="44.43524" lon="6.74411">
        <ele>1253.8</ele>
        <time>2022-07-19T14:32:15Z</time>
      </trkpt>
      <trkpt lat="44.43528" lon="6.7441">
        <ele>1253.8</ele>
        <time>2022-07-19T14:32:16Z</time>
      </trkpt>
      <trkpt lat="44.43532" lon="6.7441">
        <ele>1253.8</ele>
        <time>2022-07-19T14:32:17Z</time>
      </trkpt>
      <trkpt lat="44.43536" lon="6.7441">
        <ele>1254</ele>
        <time>2022-07-19T14:32:18Z</time>
      </trkpt>
      <trkpt lat="44.4354" lon="6.7441">
        <ele>1254</ele>
        <time>2022-07-19T14:32:19Z</time>
      </trkpt>
      <trkpt lat="44.43544" lon="6.74409">
        <ele>1254.2</ele>
        <time>2022-07-19T14:32:20Z</time>
      </trkpt>
      <trkpt lat="44.43548" lon="6.74408">
        <ele>1254.2</ele>
        <time>2022-07-19T14:32:21Z</time>
      </trkpt>
      <trkpt lat="44.43552" lon="6.74406">
        <ele>1254.2</ele>
        <time>2022-07-19T14:32:22Z</time>
      </trkpt>
      <trkpt lat="44.43556" lon="6.74404">
        <ele>1254.4</ele>
        <time>2022-07-19T14:32:23Z</time>
      </trkpt>
      <trkpt lat="44.4356" lon="6.74402">
        <ele>1254.4</ele>
        <time>2022-07-19T14:32:24Z</time>
      </trkpt>
      <trkpt lat="44.43564" lon="6.744">
        <ele>1254.4</ele>
        <time>2022-07-19T14:32:25Z</time>
      </trkpt>
      <trkpt lat="44.43568" lon="6.74398">
        <ele>1254.8</ele>
        <time>2022-07-19T14:32:26Z</time>
      </trkpt>
      <trkpt lat="44.43572" lon="6.74394">
        <ele>1254.8</ele>
        <time>2022-07-19T14:32:27Z</time>
      </trkpt>
      <trkpt lat="44.43575" lon="6.74391">
        <ele>1254.8</ele>
        <time>2022-07-19T14:32:28Z</time>
      </trkpt>
      <trkpt lat="44.4358" lon="6.74388">
        <ele>1254.8</ele>
        <time>2022-07-19T14:32:29Z</time>
      </trkpt>
      <trkpt lat="44.43584" lon="6.74384">
        <ele>1254.8</ele>
        <time>2022-07-19T14:32:30Z</time>
      </trkpt>
      <trkpt lat="44.43588" lon="6.74381">
        <ele>1254.8</ele>
        <time>2022-07-19T14:32:31Z</time>
      </trkpt>
      <trkpt lat="44.43593" lon="6.74378">
        <ele>1255</ele>
        <time>2022-07-19T14:32:32Z</time>
      </trkpt>
      <trkpt lat="44.43598" lon="6.74375">
        <ele>1255</ele>
        <time>2022-07-19T14:32:33Z</time>
      </trkpt>
      <trkpt lat="44.43603" lon="6.74372">
        <ele>1255</ele>
        <time>2022-07-19T14:32:34Z</time>
      </trkpt>
      <trkpt lat="44.43608" lon="6.7437">
        <ele>1255</ele>
        <time>2022-07-19T14:32:35Z</time>
      </trkpt>
      <trkpt lat="44.43613" lon="6.74368">
        <ele>1255</ele>
        <time>2022-07-19T14:32:36Z</time>
      </trkpt>
      <trkpt lat="44.43618" lon="6.74367">
        <ele>1255.2</ele>
        <time>2022-07-19T14:32:37Z</time>
      </trkpt>
      <trkpt lat="44.43624" lon="6.74366">
        <ele>1255.2</ele>
        <time>2022-07-19T14:32:38Z</time>
      </trkpt>
      <trkpt lat="44.43629" lon="6.74367">
        <ele>1255.2</ele>
        <time>2022-07-19T14:32:39Z</time>
      </trkpt>
      <trkpt lat="44.43633" lon="6.74369">
        <ele>1255.2</ele>
        <time>2022-07-19T14:32:40Z</time>
      </trkpt>
      <trkpt lat="44.43639" lon="6.74371">
        <ele>1255.2</ele>
        <time>2022-07-19T14:32:41Z</time>
      </trkpt>
      <trkpt lat="44.43644" lon="6.74374">
        <ele>1255.6</ele>
        <time>2022-07-19T14:32:42Z</time>
      </trkpt>
      <trkpt lat="44.43649" lon="6.74376">
        <ele>1255.6</ele>
        <time>2022-07-19T14:32:43Z</time>
      </trkpt>
      <trkpt lat="44.43654" lon="6.74379">
        <ele>1255.6</ele>
        <time>2022-07-19T14:32:44Z</time>
      </trkpt>
      <trkpt lat="44.43659" lon="6.74381">
        <ele>1255.8</ele>
        <time>2022-07-19T14:32:45Z</time>
      </trkpt>
      <trkpt lat="44.43663" lon="6.74383">
        <ele>1255.8</ele>
        <time>2022-07-19T14:32:46Z</time>
      </trkpt>
      <trkpt lat="44.43668" lon="6.74385">
        <ele>1255.8</ele>
        <time>2022-07-19T14:32:47Z</time>
      </trkpt>
      <trkpt lat="44.43672" lon="6.74386">
        <ele>1256</ele>
        <time>2022-07-19T14:32:48Z</time>
      </trkpt>
      <trkpt lat="44.43677" lon="6.74387">
        <ele>1256</ele>
        <time>2022-07-19T14:32:49Z</time>
      </trkpt>
      <trkpt lat="44.43682" lon="6.74389">
        <ele>1256</ele>
        <time>2022-07-19T14:32:50Z</time>
      </trkpt>
      <trkpt lat="44.43687" lon="6.74391">
        <ele>1256</ele>
        <time>2022-07-19T14:32:51Z</time>
      </trkpt>
      <trkpt lat="44.43692" lon="6.74392">
        <ele>1256.2</ele>
        <time>2022-07-19T14:32:52Z</time>
      </trkpt>
      <trkpt lat="44.43697" lon="6.74394">
        <ele>1256.2</ele>
        <time>2022-07-19T14:32:53Z</time>
      </trkpt>
      <trkpt lat="44.43701" lon="6.74395">
        <ele>1256.2</ele>
        <time>2022-07-19T14:32:54Z</time>
      </trkpt>
      <trkpt lat="44.43706" lon="6.74397">
        <ele>1256.6</ele>
        <time>2022-07-19T14:32:55Z</time>
      </trkpt>
      <trkpt lat="44.4371" lon="6.74399">
        <ele>1256.6</ele>
        <time>2022-07-19T14:32:56Z</time>
      </trkpt>
      <trkpt lat="44.43714" lon="6.744">
        <ele>1256.6</ele>
        <time>2022-07-19T14:32:57Z</time>
      </trkpt>
      <trkpt lat="44.43719" lon="6.74401">
        <ele>1256.6</ele>
        <time>2022-07-19T14:32:58Z</time>
      </trkpt>
      <trkpt lat="44.43723" lon="6.74403">
        <ele>1256.8</ele>
        <time>2022-07-19T14:32:59Z</time>
      </trkpt>
      <trkpt lat="44.43732" lon="6.74406">
        <ele>1256.8</ele>
        <time>2022-07-19T14:33:00Z</time>
      </trkpt>
      <trkpt lat="44.43737" lon="6.74407">
        <ele>1256.8</ele>
        <time>2022-07-19T14:33:01Z</time>
      </trkpt>
      <trkpt lat="44.43741" lon="6.74408">
        <ele>1256.8</ele>
        <time>2022-07-19T14:33:02Z</time>
      </trkpt>
      <trkpt lat="44.43746" lon="6.7441">
        <ele>1257</ele>
        <time>2022-07-19T14:33:03Z</time>
      </trkpt>
      <trkpt lat="44.43751" lon="6.7441">
        <ele>1257</ele>
        <time>2022-07-19T14:33:04Z</time>
      </trkpt>
      <trkpt lat="44.43756" lon="6.7441">
        <ele>1257</ele>
        <time>2022-07-19T14:33:05Z</time>
      </trkpt>
      <trkpt lat="44.4376" lon="6.7441">
        <ele>1257.2</ele>
        <time>2022-07-19T14:33:06Z</time>
      </trkpt>
      <trkpt lat="44.43765" lon="6.74409">
        <ele>1257.2</ele>
        <time>2022-07-19T14:33:07Z</time>
      </trkpt>
      <trkpt lat="44.43769" lon="6.74407">
        <ele>1257.4</ele>
        <time>2022-07-19T14:33:08Z</time>
      </trkpt>
      <trkpt lat="44.43774" lon="6.74405">
        <ele>1257.4</ele>
        <time>2022-07-19T14:33:09Z</time>
      </trkpt>
      <trkpt lat="44.43779" lon="6.74403">
        <ele>1257.4</ele>
        <time>2022-07-19T14:33:10Z</time>
      </trkpt>
      <trkpt lat="44.43783" lon="6.744">
        <ele>1257.6</ele>
        <time>2022-07-19T14:33:11Z</time>
      </trkpt>
      <trkpt lat="44.43788" lon="6.74398">
        <ele>1257.6</ele>
        <time>2022-07-19T14:33:12Z</time>
      </trkpt>
      <trkpt lat="44.43793" lon="6.74395">
        <ele>1257.6</ele>
        <time>2022-07-19T14:33:13Z</time>
      </trkpt>
      <trkpt lat="44.43799" lon="6.74392">
        <ele>1257.6</ele>
        <time>2022-07-19T14:33:14Z</time>
      </trkpt>
      <trkpt lat="44.43804" lon="6.7439">
        <ele>1257.6</ele>
        <time>2022-07-19T14:33:15Z</time>
      </trkpt>
      <trkpt lat="44.43809" lon="6.74388">
        <ele>1257.8</ele>
        <time>2022-07-19T14:33:16Z</time>
      </trkpt>
      <trkpt lat="44.43814" lon="6.74387">
        <ele>1257.8</ele>
        <time>2022-07-19T14:33:17Z</time>
      </trkpt>
      <trkpt lat="44.43819" lon="6.74386">
        <ele>1257.8</ele>
        <time>2022-07-19T14:33:18Z</time>
      </trkpt>
      <trkpt lat="44.43824" lon="6.74385">
        <ele>1257.8</ele>
        <time>2022-07-19T14:33:19Z</time>
      </trkpt>
      <trkpt lat="44.43829" lon="6.74386">
        <ele>1257.8</ele>
        <time>2022-07-19T14:33:20Z</time>
      </trkpt>
      <trkpt lat="44.43834" lon="6.74386">
        <ele>1257.8</ele>
        <time>2022-07-19T14:33:21Z</time>
      </trkpt>
      <trkpt lat="44.43839" lon="6.74388">
        <ele>1257.8</ele>
        <time>2022-07-19T14:33:22Z</time>
      </trkpt>
      <trkpt lat="44.43843" lon="6.74389">
        <ele>1257.8</ele>
        <time>2022-07-19T14:33:23Z</time>
      </trkpt>
      <trkpt lat="44.43848" lon="6.7439">
        <ele>1257.8</ele>
        <time>2022-07-19T14:33:24Z</time>
      </trkpt>
      <trkpt lat="44.43852" lon="6.74392">
        <ele>1258</ele>
        <time>2022-07-19T14:33:25Z</time>
      </trkpt>
      <trkpt lat="44.43856" lon="6.74393">
        <ele>1258</ele>
        <time>2022-07-19T14:33:26Z</time>
      </trkpt>
      <trkpt lat="44.4386" lon="6.74395">
        <ele>1258.4</ele>
        <time>2022-07-19T14:33:27Z</time>
      </trkpt>
      <trkpt lat="44.43865" lon="6.74396">
        <ele>1258.4</ele>
        <time>2022-07-19T14:33:28Z</time>
      </trkpt>
      <trkpt lat="44.43869" lon="6.74396">
        <ele>1258.4</ele>
        <time>2022-07-19T14:33:29Z</time>
      </trkpt>
      <trkpt lat="44.43874" lon="6.74397">
        <ele>1258.4</ele>
        <time>2022-07-19T14:33:30Z</time>
      </trkpt>
      <trkpt lat="44.43878" lon="6.74396">
        <ele>1258.6</ele>
        <time>2022-07-19T14:33:31Z</time>
      </trkpt>
      <trkpt lat="44.43883" lon="6.74395">
        <ele>1258.6</ele>
        <time>2022-07-19T14:33:32Z</time>
      </trkpt>
      <trkpt lat="44.43887" lon="6.74394">
        <ele>1259</ele>
        <time>2022-07-19T14:33:33Z</time>
      </trkpt>
      <trkpt lat="44.43892" lon="6.74392">
        <ele>1259</ele>
        <time>2022-07-19T14:33:34Z</time>
      </trkpt>
      <trkpt lat="44.43897" lon="6.74389">
        <ele>1259</ele>
        <time>2022-07-19T14:33:35Z</time>
      </trkpt>
      <trkpt lat="44.43902" lon="6.74386">
        <ele>1259</ele>
        <time>2022-07-19T14:33:36Z</time>
      </trkpt>
      <trkpt lat="44.43906" lon="6.74383">
        <ele>1259.2</ele>
        <time>2022-07-19T14:33:37Z</time>
      </trkpt>
      <trkpt lat="44.4391" lon="6.7438">
        <ele>1259.4</ele>
        <time>2022-07-19T14:33:38Z</time>
      </trkpt>
      <trkpt lat="44.43914" lon="6.74377">
        <ele>1259.4</ele>
        <time>2022-07-19T14:33:39Z</time>
      </trkpt>
      <trkpt lat="44.43918" lon="6.74373">
        <ele>1259.6</ele>
        <time>2022-07-19T14:33:40Z</time>
      </trkpt>
      <trkpt lat="44.43921" lon="6.74369">
        <ele>1259.6</ele>
        <time>2022-07-19T14:33:41Z</time>
      </trkpt>
      <trkpt lat="44.43924" lon="6.74365">
        <ele>1259.6</ele>
        <time>2022-07-19T14:33:42Z</time>
      </trkpt>
      <trkpt lat="44.43928" lon="6.7436">
        <ele>1259.6</ele>
        <time>2022-07-19T14:33:43Z</time>
      </trkpt>
      <trkpt lat="44.43931" lon="6.74356">
        <ele>1259.6</ele>
        <time>2022-07-19T14:33:44Z</time>
      </trkpt>
      <trkpt lat="44.43935" lon="6.74351">
        <ele>1259.6</ele>
        <time>2022-07-19T14:33:45Z</time>
      </trkpt>
      <trkpt lat="44.43939" lon="6.74346">
        <ele>1260</ele>
        <time>2022-07-19T14:33:46Z</time>
      </trkpt>
      <trkpt lat="44.43943" lon="6.74341">
        <ele>1260</ele>
        <time>2022-07-19T14:33:47Z</time>
      </trkpt>
      <trkpt lat="44.43946" lon="6.74335">
        <ele>1260</ele>
        <time>2022-07-19T14:33:48Z</time>
      </trkpt>
      <trkpt lat="44.43949" lon="6.74329">
        <ele>1260</ele>
        <time>2022-07-19T14:33:49Z</time>
      </trkpt>
      <trkpt lat="44.43953" lon="6.74323">
        <ele>1260</ele>
        <time>2022-07-19T14:33:50Z</time>
      </trkpt>
      <trkpt lat="44.43956" lon="6.74317">
        <ele>1260</ele>
        <time>2022-07-19T14:33:51Z</time>
      </trkpt>
      <trkpt lat="44.4396" lon="6.74311">
        <ele>1260</ele>
        <time>2022-07-19T14:33:52Z</time>
      </trkpt>
      <trkpt lat="44.43964" lon="6.74305">
        <ele>1260</ele>
        <time>2022-07-19T14:33:53Z</time>
      </trkpt>
      <trkpt lat="44.43968" lon="6.74299">
        <ele>1260</ele>
        <time>2022-07-19T14:33:54Z</time>
      </trkpt>
      <trkpt lat="44.43972" lon="6.74293">
        <ele>1260</ele>
        <time>2022-07-19T14:33:55Z</time>
      </trkpt>
      <trkpt lat="44.43977" lon="6.74288">
        <ele>1260</ele>
        <time>2022-07-19T14:33:56Z</time>
      </trkpt>
      <trkpt lat="44.43982" lon="6.74284">
        <ele>1260</ele>
        <time>2022-07-19T14:33:57Z</time>
      </trkpt>
      <trkpt lat="44.43987" lon="6.7428">
        <ele>1260</ele>
        <time>2022-07-19T14:33:58Z</time>
      </trkpt>
      <trkpt lat="44.43992" lon="6.74278">
        <ele>1260.2</ele>
        <time>2022-07-19T14:33:59Z</time>
      </trkpt>
      <trkpt lat="44.43997" lon="6.74276">
        <ele>1260.2</ele>
        <time>2022-07-19T14:34:00Z</time>
      </trkpt>
      <trkpt lat="44.44002" lon="6.74275">
        <ele>1260.2</ele>
        <time>2022-07-19T14:34:01Z</time>
      </trkpt>
      <trkpt lat="44.44007" lon="6.74275">
        <ele>1260.4</ele>
        <time>2022-07-19T14:34:02Z</time>
      </trkpt>
      <trkpt lat="44.44012" lon="6.74275">
        <ele>1260.4</ele>
        <time>2022-07-19T14:34:03Z</time>
      </trkpt>
      <trkpt lat="44.44017" lon="6.74275">
        <ele>1260.6</ele>
        <time>2022-07-19T14:34:04Z</time>
      </trkpt>
      <trkpt lat="44.44022" lon="6.74276">
        <ele>1260.6</ele>
        <time>2022-07-19T14:34:05Z</time>
      </trkpt>
      <trkpt lat="44.44027" lon="6.74276">
        <ele>1260.6</ele>
        <time>2022-07-19T14:34:06Z</time>
      </trkpt>
      <trkpt lat="44.44032" lon="6.74277">
        <ele>1260.6</ele>
        <time>2022-07-19T14:34:07Z</time>
      </trkpt>
      <trkpt lat="44.44036" lon="6.74277">
        <ele>1260.6</ele>
        <time>2022-07-19T14:34:08Z</time>
      </trkpt>
      <trkpt lat="44.44041" lon="6.74277">
        <ele>1260.6</ele>
        <time>2022-07-19T14:34:09Z</time>
      </trkpt>
      <trkpt lat="44.44046" lon="6.74277">
        <ele>1260.6</ele>
        <time>2022-07-19T14:34:10Z</time>
      </trkpt>
      <trkpt lat="44.4405" lon="6.74276">
        <ele>1260.6</ele>
        <time>2022-07-19T14:34:11Z</time>
      </trkpt>
      <trkpt lat="44.44054" lon="6.74275">
        <ele>1261</ele>
        <time>2022-07-19T14:34:12Z</time>
      </trkpt>
      <trkpt lat="44.44059" lon="6.74273">
        <ele>1261</ele>
        <time>2022-07-19T14:34:13Z</time>
      </trkpt>
      <trkpt lat="44.44063" lon="6.74271">
        <ele>1261.2</ele>
        <time>2022-07-19T14:34:14Z</time>
      </trkpt>
      <trkpt lat="44.44068" lon="6.74269">
        <ele>1261.4</ele>
        <time>2022-07-19T14:34:15Z</time>
      </trkpt>
      <trkpt lat="44.44072" lon="6.74267">
        <ele>1261.4</ele>
        <time>2022-07-19T14:34:16Z</time>
      </trkpt>
      <trkpt lat="44.44076" lon="6.74264">
        <ele>1261.6</ele>
        <time>2022-07-19T14:34:17Z</time>
      </trkpt>
      <trkpt lat="44.44081" lon="6.74261">
        <ele>1261.6</ele>
        <time>2022-07-19T14:34:18Z</time>
      </trkpt>
      <trkpt lat="44.44085" lon="6.74258">
        <ele>1261.6</ele>
        <time>2022-07-19T14:34:19Z</time>
      </trkpt>
      <trkpt lat="44.44089" lon="6.74254">
        <ele>1261.6</ele>
        <time>2022-07-19T14:34:20Z</time>
      </trkpt>
      <trkpt lat="44.44094" lon="6.7425">
        <ele>1261.6</ele>
        <time>2022-07-19T14:34:21Z</time>
      </trkpt>
      <trkpt lat="44.44098" lon="6.74246">
        <ele>1262</ele>
        <time>2022-07-19T14:34:22Z</time>
      </trkpt>
      <trkpt lat="44.44103" lon="6.74242">
        <ele>1262</ele>
        <time>2022-07-19T14:34:23Z</time>
      </trkpt>
      <trkpt lat="44.44107" lon="6.74238">
        <ele>1262</ele>
        <time>2022-07-19T14:34:24Z</time>
      </trkpt>
      <trkpt lat="44.44112" lon="6.74233">
        <ele>1262</ele>
        <time>2022-07-19T14:34:25Z</time>
      </trkpt>
      <trkpt lat="44.44116" lon="6.74228">
        <ele>1262.2</ele>
        <time>2022-07-19T14:34:26Z</time>
      </trkpt>
      <trkpt lat="44.44121" lon="6.74224">
        <ele>1262.2</ele>
        <time>2022-07-19T14:34:27Z</time>
      </trkpt>
      <trkpt lat="44.44125" lon="6.74219">
        <ele>1262.2</ele>
        <time>2022-07-19T14:34:28Z</time>
      </trkpt>
      <trkpt lat="44.4413" lon="6.74214">
        <ele>1262.4</ele>
        <time>2022-07-19T14:34:29Z</time>
      </trkpt>
      <trkpt lat="44.44134" lon="6.7421">
        <ele>1262.4</ele>
        <time>2022-07-19T14:34:30Z</time>
      </trkpt>
      <trkpt lat="44.44139" lon="6.74206">
        <ele>1262.4</ele>
        <time>2022-07-19T14:34:31Z</time>
      </trkpt>
      <trkpt lat="44.44145" lon="6.74203">
        <ele>1262.6</ele>
        <time>2022-07-19T14:34:32Z</time>
      </trkpt>
      <trkpt lat="44.4415" lon="6.742">
        <ele>1262.6</ele>
        <time>2022-07-19T14:34:33Z</time>
      </trkpt>
      <trkpt lat="44.44156" lon="6.74197">
        <ele>1262.6</ele>
        <time>2022-07-19T14:34:34Z</time>
      </trkpt>
      <trkpt lat="44.44162" lon="6.74196">
        <ele>1262.6</ele>
        <time>2022-07-19T14:34:35Z</time>
      </trkpt>
      <trkpt lat="44.44168" lon="6.74195">
        <ele>1262.6</ele>
        <time>2022-07-19T14:34:36Z</time>
      </trkpt>
      <trkpt lat="44.44173" lon="6.74195">
        <ele>1262.4</ele>
        <time>2022-07-19T14:34:37Z</time>
      </trkpt>
      <trkpt lat="44.44179" lon="6.74195">
        <ele>1262.4</ele>
        <time>2022-07-19T14:34:38Z</time>
      </trkpt>
      <trkpt lat="44.44184" lon="6.74195">
        <ele>1262.4</ele>
        <time>2022-07-19T14:34:39Z</time>
      </trkpt>
      <trkpt lat="44.44189" lon="6.74196">
        <ele>1262.6</ele>
        <time>2022-07-19T14:34:40Z</time>
      </trkpt>
      <trkpt lat="44.44194" lon="6.74198">
        <ele>1262.6</ele>
        <time>2022-07-19T14:34:41Z</time>
      </trkpt>
      <trkpt lat="44.44199" lon="6.74199">
        <ele>1262.6</ele>
        <time>2022-07-19T14:34:42Z</time>
      </trkpt>
      <trkpt lat="44.44204" lon="6.742">
        <ele>1263</ele>
        <time>2022-07-19T14:34:43Z</time>
      </trkpt>
      <trkpt lat="44.44208" lon="6.74202">
        <ele>1263</ele>
        <time>2022-07-19T14:34:44Z</time>
      </trkpt>
      <trkpt lat="44.44213" lon="6.74203">
        <ele>1263.4</ele>
        <time>2022-07-19T14:34:45Z</time>
      </trkpt>
      <trkpt lat="44.44217" lon="6.74204">
        <ele>1263.4</ele>
        <time>2022-07-19T14:34:46Z</time>
      </trkpt>
      <trkpt lat="44.44222" lon="6.74205">
        <ele>1263.6</ele>
        <time>2022-07-19T14:34:47Z</time>
      </trkpt>
      <trkpt lat="44.44226" lon="6.74206">
        <ele>1263.6</ele>
        <time>2022-07-19T14:34:48Z</time>
      </trkpt>
      <trkpt lat="44.4423" lon="6.74206">
        <ele>1263.8</ele>
        <time>2022-07-19T14:34:49Z</time>
      </trkpt>
      <trkpt lat="44.44234" lon="6.74207">
        <ele>1263.8</ele>
        <time>2022-07-19T14:34:50Z</time>
      </trkpt>
      <trkpt lat="44.44237" lon="6.74207">
        <ele>1264.2</ele>
        <time>2022-07-19T14:34:51Z</time>
      </trkpt>
      <trkpt lat="44.44242" lon="6.74207">
        <ele>1264.2</ele>
        <time>2022-07-19T14:34:52Z</time>
      </trkpt>
      <trkpt lat="44.44247" lon="6.74206">
        <ele>1264.4</ele>
        <time>2022-07-19T14:34:53Z</time>
      </trkpt>
      <trkpt lat="44.44252" lon="6.74206">
        <ele>1264.4</ele>
        <time>2022-07-19T14:34:54Z</time>
      </trkpt>
      <trkpt lat="44.44257" lon="6.74207">
        <ele>1264.4</ele>
        <time>2022-07-19T14:34:55Z</time>
      </trkpt>
      <trkpt lat="44.44263" lon="6.74207">
        <ele>1264.4</ele>
        <time>2022-07-19T14:34:56Z</time>
      </trkpt>
      <trkpt lat="44.44268" lon="6.74208">
        <ele>1264.6</ele>
        <time>2022-07-19T14:34:57Z</time>
      </trkpt>
      <trkpt lat="44.44273" lon="6.74208">
        <ele>1264.6</ele>
        <time>2022-07-19T14:34:58Z</time>
      </trkpt>
      <trkpt lat="44.44278" lon="6.74208">
        <ele>1264.6</ele>
        <time>2022-07-19T14:34:59Z</time>
      </trkpt>
      <trkpt lat="44.44283" lon="6.74208">
        <ele>1265</ele>
        <time>2022-07-19T14:35:00Z</time>
      </trkpt>
      <trkpt lat="44.44288" lon="6.74209">
        <ele>1265</ele>
        <time>2022-07-19T14:35:01Z</time>
      </trkpt>
      <trkpt lat="44.44294" lon="6.7421">
        <ele>1265</ele>
        <time>2022-07-19T14:35:02Z</time>
      </trkpt>
      <trkpt lat="44.44299" lon="6.7421">
        <ele>1265</ele>
        <time>2022-07-19T14:35:03Z</time>
      </trkpt>
      <trkpt lat="44.44304" lon="6.74211">
        <ele>1265</ele>
        <time>2022-07-19T14:35:04Z</time>
      </trkpt>
      <trkpt lat="44.4431" lon="6.74212">
        <ele>1265.2</ele>
        <time>2022-07-19T14:35:05Z</time>
      </trkpt>
      <trkpt lat="44.44316" lon="6.74214">
        <ele>1265.2</ele>
        <time>2022-07-19T14:35:06Z</time>
      </trkpt>
      <trkpt lat="44.44321" lon="6.74217">
        <ele>1265.2</ele>
        <time>2022-07-19T14:35:07Z</time>
      </trkpt>
      <trkpt lat="44.44327" lon="6.7422">
        <ele>1265.4</ele>
        <time>2022-07-19T14:35:08Z</time>
      </trkpt>
      <trkpt lat="44.44333" lon="6.74223">
        <ele>1265.4</ele>
        <time>2022-07-19T14:35:09Z</time>
      </trkpt>
      <trkpt lat="44.44339" lon="6.74226">
        <ele>1265.4</ele>
        <time>2022-07-19T14:35:10Z</time>
      </trkpt>
      <trkpt lat="44.44345" lon="6.7423">
        <ele>1265.8</ele>
        <time>2022-07-19T14:35:11Z</time>
      </trkpt>
      <trkpt lat="44.44351" lon="6.74233">
        <ele>1265.8</ele>
        <time>2022-07-19T14:35:12Z</time>
      </trkpt>
      <trkpt lat="44.44356" lon="6.74237">
        <ele>1265.8</ele>
        <time>2022-07-19T14:35:13Z</time>
      </trkpt>
      <trkpt lat="44.44361" lon="6.7424">
        <ele>1265.8</ele>
        <time>2022-07-19T14:35:14Z</time>
      </trkpt>
      <trkpt lat="44.44367" lon="6.74244">
        <ele>1266</ele>
        <time>2022-07-19T14:35:15Z</time>
      </trkpt>
      <trkpt lat="44.44372" lon="6.74247">
        <ele>1266</ele>
        <time>2022-07-19T14:35:16Z</time>
      </trkpt>
      <trkpt lat="44.44376" lon="6.7425">
        <ele>1266</ele>
        <time>2022-07-19T14:35:17Z</time>
      </trkpt>
      <trkpt lat="44.44381" lon="6.74253">
        <ele>1266</ele>
        <time>2022-07-19T14:35:18Z</time>
      </trkpt>
      <trkpt lat="44.44386" lon="6.74256">
        <ele>1266.2</ele>
        <time>2022-07-19T14:35:19Z</time>
      </trkpt>
      <trkpt lat="44.44391" lon="6.74258">
        <ele>1266.2</ele>
        <time>2022-07-19T14:35:20Z</time>
      </trkpt>
      <trkpt lat="44.44396" lon="6.7426">
        <ele>1266.2</ele>
        <time>2022-07-19T14:35:21Z</time>
      </trkpt>
      <trkpt lat="44.44402" lon="6.74263">
        <ele>1266.2</ele>
        <time>2022-07-19T14:35:22Z</time>
      </trkpt>
      <trkpt lat="44.44408" lon="6.74264">
        <ele>1266.4</ele>
        <time>2022-07-19T14:35:23Z</time>
      </trkpt>
      <trkpt lat="44.44413" lon="6.74265">
        <ele>1266.4</ele>
        <time>2022-07-19T14:35:24Z</time>
      </trkpt>
      <trkpt lat="44.44419" lon="6.74266">
        <ele>1266.4</ele>
        <time>2022-07-19T14:35:25Z</time>
      </trkpt>
      <trkpt lat="44.44424" lon="6.74266">
        <ele>1266.4</ele>
        <time>2022-07-19T14:35:26Z</time>
      </trkpt>
      <trkpt lat="44.4443" lon="6.74267">
        <ele>1266.4</ele>
        <time>2022-07-19T14:35:27Z</time>
      </trkpt>
      <trkpt lat="44.44436" lon="6.74266">
        <ele>1266.8</ele>
        <time>2022-07-19T14:35:28Z</time>
      </trkpt>
      <trkpt lat="44.44442" lon="6.74266">
        <ele>1266.8</ele>
        <time>2022-07-19T14:35:29Z</time>
      </trkpt>
      <trkpt lat="44.44448" lon="6.74265">
        <ele>1266.8</ele>
        <time>2022-07-19T14:35:30Z</time>
      </trkpt>
      <trkpt lat="44.44454" lon="6.74263">
        <ele>1266.8</ele>
        <time>2022-07-19T14:35:31Z</time>
      </trkpt>
      <trkpt lat="44.4446" lon="6.74262">
        <ele>1266.8</ele>
        <time>2022-07-19T14:35:32Z</time>
      </trkpt>
      <trkpt lat="44.44466" lon="6.7426">
        <ele>1266.8</ele>
        <time>2022-07-19T14:35:33Z</time>
      </trkpt>
      <trkpt lat="44.44471" lon="6.74258">
        <ele>1266.8</ele>
        <time>2022-07-19T14:35:34Z</time>
      </trkpt>
      <trkpt lat="44.44477" lon="6.74256">
        <ele>1267</ele>
        <time>2022-07-19T14:35:35Z</time>
      </trkpt>
      <trkpt lat="44.44482" lon="6.74253">
        <ele>1267</ele>
        <time>2022-07-19T14:35:36Z</time>
      </trkpt>
      <trkpt lat="44.44488" lon="6.74251">
        <ele>1267</ele>
        <time>2022-07-19T14:35:37Z</time>
      </trkpt>
      <trkpt lat="44.44493" lon="6.74248">
        <ele>1267</ele>
        <time>2022-07-19T14:35:38Z</time>
      </trkpt>
      <trkpt lat="44.44498" lon="6.74244">
        <ele>1267</ele>
        <time>2022-07-19T14:35:39Z</time>
      </trkpt>
      <trkpt lat="44.44502" lon="6.74241">
        <ele>1267.4</ele>
        <time>2022-07-19T14:35:40Z</time>
      </trkpt>
      <trkpt lat="44.44507" lon="6.74238">
        <ele>1267.4</ele>
        <time>2022-07-19T14:35:41Z</time>
      </trkpt>
      <trkpt lat="44.44512" lon="6.74234">
        <ele>1267.4</ele>
        <time>2022-07-19T14:35:42Z</time>
      </trkpt>
      <trkpt lat="44.44517" lon="6.74231">
        <ele>1267.4</ele>
        <time>2022-07-19T14:35:43Z</time>
      </trkpt>
      <trkpt lat="44.44522" lon="6.74228">
        <ele>1267.6</ele>
        <time>2022-07-19T14:35:44Z</time>
      </trkpt>
      <trkpt lat="44.44527" lon="6.74224">
        <ele>1267.6</ele>
        <time>2022-07-19T14:35:45Z</time>
      </trkpt>
      <trkpt lat="44.44532" lon="6.74221">
        <ele>1267.6</ele>
        <time>2022-07-19T14:35:46Z</time>
      </trkpt>
      <trkpt lat="44.44537" lon="6.74218">
        <ele>1267.8</ele>
        <time>2022-07-19T14:35:47Z</time>
      </trkpt>
      <trkpt lat="44.44542" lon="6.74215">
        <ele>1267.8</ele>
        <time>2022-07-19T14:35:48Z</time>
      </trkpt>
      <trkpt lat="44.44547" lon="6.74212">
        <ele>1267.8</ele>
        <time>2022-07-19T14:35:49Z</time>
      </trkpt>
      <trkpt lat="44.44552" lon="6.74208">
        <ele>1268</ele>
        <time>2022-07-19T14:35:50Z</time>
      </trkpt>
      <trkpt lat="44.44557" lon="6.74205">
        <ele>1268</ele>
        <time>2022-07-19T14:35:51Z</time>
      </trkpt>
      <trkpt lat="44.44562" lon="6.74202">
        <ele>1268</ele>
        <time>2022-07-19T14:35:52Z</time>
      </trkpt>
      <trkpt lat="44.44566" lon="6.74198">
        <ele>1268</ele>
        <time>2022-07-19T14:35:53Z</time>
      </trkpt>
      <trkpt lat="44.44571" lon="6.74195">
        <ele>1268.4</ele>
        <time>2022-07-19T14:35:54Z</time>
      </trkpt>
      <trkpt lat="44.44575" lon="6.74191">
        <ele>1268.4</ele>
        <time>2022-07-19T14:35:55Z</time>
      </trkpt>
      <trkpt lat="44.4458" lon="6.74187">
        <ele>1268.6</ele>
        <time>2022-07-19T14:35:56Z</time>
      </trkpt>
      <trkpt lat="44.44584" lon="6.74183">
        <ele>1268.6</ele>
        <time>2022-07-19T14:35:57Z</time>
      </trkpt>
      <trkpt lat="44.44588" lon="6.74179">
        <ele>1268.6</ele>
        <time>2022-07-19T14:35:58Z</time>
      </trkpt>
      <trkpt lat="44.44592" lon="6.74175">
        <ele>1269</ele>
        <time>2022-07-19T14:35:59Z</time>
      </trkpt>
      <trkpt lat="44.44596" lon="6.74171">
        <ele>1269</ele>
        <time>2022-07-19T14:36:00Z</time>
      </trkpt>
      <trkpt lat="44.446" lon="6.74167">
        <ele>1269.2</ele>
        <time>2022-07-19T14:36:01Z</time>
      </trkpt>
      <trkpt lat="44.44604" lon="6.74163">
        <ele>1269.2</ele>
        <time>2022-07-19T14:36:02Z</time>
      </trkpt>
      <trkpt lat="44.44608" lon="6.74159">
        <ele>1269.2</ele>
        <time>2022-07-19T14:36:03Z</time>
      </trkpt>
      <trkpt lat="44.44612" lon="6.74155">
        <ele>1269.4</ele>
        <time>2022-07-19T14:36:04Z</time>
      </trkpt>
      <trkpt lat="44.44616" lon="6.7415">
        <ele>1269.4</ele>
        <time>2022-07-19T14:36:05Z</time>
      </trkpt>
      <trkpt lat="44.4462" lon="6.74146">
        <ele>1269.4</ele>
        <time>2022-07-19T14:36:06Z</time>
      </trkpt>
      <trkpt lat="44.44625" lon="6.74142">
        <ele>1269.4</ele>
        <time>2022-07-19T14:36:07Z</time>
      </trkpt>
      <trkpt lat="44.44629" lon="6.74137">
        <ele>1269.6</ele>
        <time>2022-07-19T14:36:08Z</time>
      </trkpt>
      <trkpt lat="44.44634" lon="6.74133">
        <ele>1269.6</ele>
        <time>2022-07-19T14:36:09Z</time>
      </trkpt>
      <trkpt lat="44.44638" lon="6.74128">
        <ele>1269.6</ele>
        <time>2022-07-19T14:36:10Z</time>
      </trkpt>
      <trkpt lat="44.44643" lon="6.74124">
        <ele>1269.6</ele>
        <time>2022-07-19T14:36:11Z</time>
      </trkpt>
      <trkpt lat="44.44647" lon="6.74119">
        <ele>1269.6</ele>
        <time>2022-07-19T14:36:12Z</time>
      </trkpt>
      <trkpt lat="44.44652" lon="6.74114">
        <ele>1269.8</ele>
        <time>2022-07-19T14:36:13Z</time>
      </trkpt>
      <trkpt lat="44.44656" lon="6.74109">
        <ele>1269.8</ele>
        <time>2022-07-19T14:36:14Z</time>
      </trkpt>
      <trkpt lat="44.44661" lon="6.74104">
        <ele>1270.2</ele>
        <time>2022-07-19T14:36:15Z</time>
      </trkpt>
      <trkpt lat="44.44665" lon="6.741">
        <ele>1270.2</ele>
        <time>2022-07-19T14:36:16Z</time>
      </trkpt>
      <trkpt lat="44.4467" lon="6.74095">
        <ele>1270.2</ele>
        <time>2022-07-19T14:36:17Z</time>
      </trkpt>
      <trkpt lat="44.44674" lon="6.74091">
        <ele>1270.2</ele>
        <time>2022-07-19T14:36:18Z</time>
      </trkpt>
      <trkpt lat="44.44678" lon="6.74087">
        <ele>1270.2</ele>
        <time>2022-07-19T14:36:19Z</time>
      </trkpt>
      <trkpt lat="44.44683" lon="6.74082">
        <ele>1270.4</ele>
        <time>2022-07-19T14:36:20Z</time>
      </trkpt>
      <trkpt lat="44.44687" lon="6.74078">
        <ele>1270.4</ele>
        <time>2022-07-19T14:36:21Z</time>
      </trkpt>
      <trkpt lat="44.44691" lon="6.74074">
        <ele>1270.4</ele>
        <time>2022-07-19T14:36:22Z</time>
      </trkpt>
      <trkpt lat="44.44695" lon="6.7407">
        <ele>1270.4</ele>
        <time>2022-07-19T14:36:23Z</time>
      </trkpt>
      <trkpt lat="44.44699" lon="6.74066">
        <ele>1270.4</ele>
        <time>2022-07-19T14:36:24Z</time>
      </trkpt>
      <trkpt lat="44.44704" lon="6.74062">
        <ele>1270.4</ele>
        <time>2022-07-19T14:36:25Z</time>
      </trkpt>
      <trkpt lat="44.44708" lon="6.74058">
        <ele>1270.6</ele>
        <time>2022-07-19T14:36:26Z</time>
      </trkpt>
      <trkpt lat="44.44712" lon="6.74054">
        <ele>1270.6</ele>
        <time>2022-07-19T14:36:27Z</time>
      </trkpt>
      <trkpt lat="44.44717" lon="6.7405">
        <ele>1270.6</ele>
        <time>2022-07-19T14:36:28Z</time>
      </trkpt>
      <trkpt lat="44.44721" lon="6.74046">
        <ele>1270.8</ele>
        <time>2022-07-19T14:36:29Z</time>
      </trkpt>
      <trkpt lat="44.44726" lon="6.74043">
        <ele>1270.8</ele>
        <time>2022-07-19T14:36:30Z</time>
      </trkpt>
      <trkpt lat="44.44731" lon="6.74039">
        <ele>1270.8</ele>
        <time>2022-07-19T14:36:31Z</time>
      </trkpt>
      <trkpt lat="44.44736" lon="6.74036">
        <ele>1270.8</ele>
        <time>2022-07-19T14:36:32Z</time>
      </trkpt>
      <trkpt lat="44.44741" lon="6.74033">
        <ele>1270.8</ele>
        <time>2022-07-19T14:36:33Z</time>
      </trkpt>
      <trkpt lat="44.44746" lon="6.7403">
        <ele>1270.8</ele>
        <time>2022-07-19T14:36:34Z</time>
      </trkpt>
      <trkpt lat="44.44751" lon="6.74027">
        <ele>1270.8</ele>
        <time>2022-07-19T14:36:35Z</time>
      </trkpt>
      <trkpt lat="44.44756" lon="6.74025">
        <ele>1270.8</ele>
        <time>2022-07-19T14:36:36Z</time>
      </trkpt>
      <trkpt lat="44.44761" lon="6.74024">
        <ele>1270.8</ele>
        <time>2022-07-19T14:36:37Z</time>
      </trkpt>
      <trkpt lat="44.44767" lon="6.74023">
        <ele>1270.8</ele>
        <time>2022-07-19T14:36:38Z</time>
      </trkpt>
      <trkpt lat="44.44772" lon="6.74022">
        <ele>1270.8</ele>
        <time>2022-07-19T14:36:39Z</time>
      </trkpt>
      <trkpt lat="44.44778" lon="6.74022">
        <ele>1271</ele>
        <time>2022-07-19T14:36:40Z</time>
      </trkpt>
      <trkpt lat="44.44783" lon="6.74022">
        <ele>1271</ele>
        <time>2022-07-19T14:36:41Z</time>
      </trkpt>
      <trkpt lat="44.44789" lon="6.74022">
        <ele>1271</ele>
        <time>2022-07-19T14:36:43Z</time>
      </trkpt>
      <trkpt lat="44.44795" lon="6.74022">
        <ele>1271</ele>
        <time>2022-07-19T14:36:44Z</time>
      </trkpt>
      <trkpt lat="44.44801" lon="6.74023">
        <ele>1271</ele>
        <time>2022-07-19T14:36:45Z</time>
      </trkpt>
      <trkpt lat="44.44806" lon="6.74024">
        <ele>1271</ele>
        <time>2022-07-19T14:36:46Z</time>
      </trkpt>
      <trkpt lat="44.44812" lon="6.74026">
        <ele>1271</ele>
        <time>2022-07-19T14:36:47Z</time>
      </trkpt>
      <trkpt lat="44.44818" lon="6.74027">
        <ele>1271</ele>
        <time>2022-07-19T14:36:48Z</time>
      </trkpt>
      <trkpt lat="44.44823" lon="6.74029">
        <ele>1271</ele>
        <time>2022-07-19T14:36:49Z</time>
      </trkpt>
      <trkpt lat="44.44829" lon="6.7403">
        <ele>1271</ele>
        <time>2022-07-19T14:36:50Z</time>
      </trkpt>
      <trkpt lat="44.44834" lon="6.74032">
        <ele>1271.4</ele>
        <time>2022-07-19T14:36:51Z</time>
      </trkpt>
      <trkpt lat="44.4484" lon="6.74034">
        <ele>1271.4</ele>
        <time>2022-07-19T14:36:52Z</time>
      </trkpt>
      <trkpt lat="44.44846" lon="6.74036">
        <ele>1271</ele>
        <time>2022-07-19T14:36:53Z</time>
      </trkpt>
      <trkpt lat="44.44852" lon="6.74038">
        <ele>1271</ele>
        <time>2022-07-19T14:36:54Z</time>
      </trkpt>
      <trkpt lat="44.44857" lon="6.7404">
        <ele>1271</ele>
        <time>2022-07-19T14:36:55Z</time>
      </trkpt>
      <trkpt lat="44.44863" lon="6.74042">
        <ele>1271</ele>
        <time>2022-07-19T14:36:56Z</time>
      </trkpt>
      <trkpt lat="44.44869" lon="6.74044">
        <ele>1271</ele>
        <time>2022-07-19T14:36:57Z</time>
      </trkpt>
      <trkpt lat="44.44874" lon="6.74045">
        <ele>1271</ele>
        <time>2022-07-19T14:36:58Z</time>
      </trkpt>
      <trkpt lat="44.4488" lon="6.74047">
        <ele>1271</ele>
        <time>2022-07-19T14:36:59Z</time>
      </trkpt>
      <trkpt lat="44.44886" lon="6.74049">
        <ele>1271</ele>
        <time>2022-07-19T14:37:00Z</time>
      </trkpt>
      <trkpt lat="44.44892" lon="6.7405">
        <ele>1271</ele>
        <time>2022-07-19T14:37:01Z</time>
      </trkpt>
      <trkpt lat="44.44898" lon="6.74052">
        <ele>1271</ele>
        <time>2022-07-19T14:37:02Z</time>
      </trkpt>
      <trkpt lat="44.44903" lon="6.74053">
        <ele>1271</ele>
        <time>2022-07-19T14:37:03Z</time>
      </trkpt>
      <trkpt lat="44.44909" lon="6.74055">
        <ele>1271</ele>
        <time>2022-07-19T14:37:04Z</time>
      </trkpt>
      <trkpt lat="44.44915" lon="6.74056">
        <ele>1271</ele>
        <time>2022-07-19T14:37:05Z</time>
      </trkpt>
      <trkpt lat="44.44921" lon="6.74058">
        <ele>1271</ele>
        <time>2022-07-19T14:37:06Z</time>
      </trkpt>
      <trkpt lat="44.44927" lon="6.74059">
        <ele>1271</ele>
        <time>2022-07-19T14:37:07Z</time>
      </trkpt>
      <trkpt lat="44.44933" lon="6.7406">
        <ele>1271</ele>
        <time>2022-07-19T14:37:08Z</time>
      </trkpt>
      <trkpt lat="44.44939" lon="6.74061">
        <ele>1271</ele>
        <time>2022-07-19T14:37:09Z</time>
      </trkpt>
      <trkpt lat="44.44945" lon="6.74062">
        <ele>1271</ele>
        <time>2022-07-19T14:37:10Z</time>
      </trkpt>
      <trkpt lat="44.44951" lon="6.74064">
        <ele>1271.4</ele>
        <time>2022-07-19T14:37:11Z</time>
      </trkpt>
      <trkpt lat="44.44957" lon="6.74065">
        <ele>1271.4</ele>
        <time>2022-07-19T14:37:12Z</time>
      </trkpt>
      <trkpt lat="44.44963" lon="6.74066">
        <ele>1271.4</ele>
        <time>2022-07-19T14:37:13Z</time>
      </trkpt>
      <trkpt lat="44.44969" lon="6.74067">
        <ele>1271.4</ele>
        <time>2022-07-19T14:37:14Z</time>
      </trkpt>
      <trkpt lat="44.44975" lon="6.74069">
        <ele>1271.4</ele>
        <time>2022-07-19T14:37:15Z</time>
      </trkpt>
      <trkpt lat="44.4498" lon="6.74071">
        <ele>1271.4</ele>
        <time>2022-07-19T14:37:16Z</time>
      </trkpt>
      <trkpt lat="44.44986" lon="6.74073">
        <ele>1271.4</ele>
        <time>2022-07-19T14:37:17Z</time>
      </trkpt>
      <trkpt lat="44.44991" lon="6.74076">
        <ele>1271.4</ele>
        <time>2022-07-19T14:37:18Z</time>
      </trkpt>
      <trkpt lat="44.44996" lon="6.74079">
        <ele>1271.6</ele>
        <time>2022-07-19T14:37:19Z</time>
      </trkpt>
      <trkpt lat="44.45001" lon="6.74083">
        <ele>1271.6</ele>
        <time>2022-07-19T14:37:20Z</time>
      </trkpt>
      <trkpt lat="44.45006" lon="6.74087">
        <ele>1271.6</ele>
        <time>2022-07-19T14:37:21Z</time>
      </trkpt>
      <trkpt lat="44.45011" lon="6.74091">
        <ele>1271.8</ele>
        <time>2022-07-19T14:37:22Z</time>
      </trkpt>
      <trkpt lat="44.45015" lon="6.74096">
        <ele>1271.8</ele>
        <time>2022-07-19T14:37:23Z</time>
      </trkpt>
      <trkpt lat="44.4502" lon="6.741">
        <ele>1271.8</ele>
        <time>2022-07-19T14:37:24Z</time>
      </trkpt>
      <trkpt lat="44.45024" lon="6.74105">
        <ele>1272</ele>
        <time>2022-07-19T14:37:25Z</time>
      </trkpt>
      <trkpt lat="44.45028" lon="6.7411">
        <ele>1272</ele>
        <time>2022-07-19T14:37:26Z</time>
      </trkpt>
      <trkpt lat="44.45033" lon="6.74115">
        <ele>1272</ele>
        <time>2022-07-19T14:37:27Z</time>
      </trkpt>
      <trkpt lat="44.45037" lon="6.7412">
        <ele>1272.4</ele>
        <time>2022-07-19T14:37:28Z</time>
      </trkpt>
      <trkpt lat="44.45042" lon="6.74125">
        <ele>1272.4</ele>
        <time>2022-07-19T14:37:29Z</time>
      </trkpt>
      <trkpt lat="44.45046" lon="6.7413">
        <ele>1272.6</ele>
        <time>2022-07-19T14:37:30Z</time>
      </trkpt>
      <trkpt lat="44.4505" lon="6.74135">
        <ele>1272.6</ele>
        <time>2022-07-19T14:37:31Z</time>
      </trkpt>
      <trkpt lat="44.45055" lon="6.7414">
        <ele>1272.6</ele>
        <time>2022-07-19T14:37:32Z</time>
      </trkpt>
      <trkpt lat="44.45059" lon="6.74145">
        <ele>1272.8</ele>
        <time>2022-07-19T14:37:33Z</time>
      </trkpt>
      <trkpt lat="44.45063" lon="6.7415">
        <ele>1272.8</ele>
        <time>2022-07-19T14:37:34Z</time>
      </trkpt>
      <trkpt lat="44.45068" lon="6.74155">
        <ele>1273</ele>
        <time>2022-07-19T14:37:35Z</time>
      </trkpt>
      <trkpt lat="44.45072" lon="6.7416">
        <ele>1273</ele>
        <time>2022-07-19T14:37:36Z</time>
      </trkpt>
      <trkpt lat="44.45076" lon="6.74165">
        <ele>1273.2</ele>
        <time>2022-07-19T14:37:37Z</time>
      </trkpt>
      <trkpt lat="44.4508" lon="6.7417">
        <ele>1273.2</ele>
        <time>2022-07-19T14:37:38Z</time>
      </trkpt>
      <trkpt lat="44.45085" lon="6.74175">
        <ele>1273.2</ele>
        <time>2022-07-19T14:37:39Z</time>
      </trkpt>
      <trkpt lat="44.45089" lon="6.74181">
        <ele>1273.2</ele>
        <time>2022-07-19T14:37:40Z</time>
      </trkpt>
      <trkpt lat="44.45094" lon="6.74186">
        <ele>1273.2</ele>
        <time>2022-07-19T14:37:41Z</time>
      </trkpt>
      <trkpt lat="44.45099" lon="6.74191">
        <ele>1273.2</ele>
        <time>2022-07-19T14:37:42Z</time>
      </trkpt>
      <trkpt lat="44.45103" lon="6.74196">
        <ele>1273.2</ele>
        <time>2022-07-19T14:37:43Z</time>
      </trkpt>
      <trkpt lat="44.45108" lon="6.74202">
        <ele>1273.2</ele>
        <time>2022-07-19T14:37:44Z</time>
      </trkpt>
      <trkpt lat="44.45113" lon="6.74207">
        <ele>1273.2</ele>
        <time>2022-07-19T14:37:45Z</time>
      </trkpt>
      <trkpt lat="44.45118" lon="6.74212">
        <ele>1273.2</ele>
        <time>2022-07-19T14:37:46Z</time>
      </trkpt>
      <trkpt lat="44.45123" lon="6.74217">
        <ele>1273.2</ele>
        <time>2022-07-19T14:37:47Z</time>
      </trkpt>
      <trkpt lat="44.45128" lon="6.74221">
        <ele>1273.2</ele>
        <time>2022-07-19T14:37:48Z</time>
      </trkpt>
      <trkpt lat="44.45132" lon="6.74226">
        <ele>1273.4</ele>
        <time>2022-07-19T14:37:49Z</time>
      </trkpt>
      <trkpt lat="44.45137" lon="6.7423">
        <ele>1273.8</ele>
        <time>2022-07-19T14:37:50Z</time>
      </trkpt>
      <trkpt lat="44.45142" lon="6.74235">
        <ele>1273.8</ele>
        <time>2022-07-19T14:37:51Z</time>
      </trkpt>
      <trkpt lat="44.45147" lon="6.74239">
        <ele>1273.8</ele>
        <time>2022-07-19T14:37:52Z</time>
      </trkpt>
      <trkpt lat="44.45152" lon="6.74243">
        <ele>1273.8</ele>
        <time>2022-07-19T14:37:53Z</time>
      </trkpt>
      <trkpt lat="44.45157" lon="6.74246">
        <ele>1274</ele>
        <time>2022-07-19T14:37:54Z</time>
      </trkpt>
      <trkpt lat="44.45161" lon="6.7425">
        <ele>1274</ele>
        <time>2022-07-19T14:37:55Z</time>
      </trkpt>
      <trkpt lat="44.45166" lon="6.74254">
        <ele>1274</ele>
        <time>2022-07-19T14:37:56Z</time>
      </trkpt>
      <trkpt lat="44.45171" lon="6.74258">
        <ele>1274</ele>
        <time>2022-07-19T14:37:57Z</time>
      </trkpt>
      <trkpt lat="44.45175" lon="6.74261">
        <ele>1274</ele>
        <time>2022-07-19T14:37:58Z</time>
      </trkpt>
      <trkpt lat="44.4518" lon="6.74265">
        <ele>1274</ele>
        <time>2022-07-19T14:37:59Z</time>
      </trkpt>
      <trkpt lat="44.45184" lon="6.74268">
        <ele>1274.4</ele>
        <time>2022-07-19T14:38:00Z</time>
      </trkpt>
      <trkpt lat="44.45189" lon="6.74272">
        <ele>1274.4</ele>
        <time>2022-07-19T14:38:01Z</time>
      </trkpt>
      <trkpt lat="44.45193" lon="6.74275">
        <ele>1274.4</ele>
        <time>2022-07-19T14:38:02Z</time>
      </trkpt>
      <trkpt lat="44.45198" lon="6.74279">
        <ele>1274.4</ele>
        <time>2022-07-19T14:38:03Z</time>
      </trkpt>
      <trkpt lat="44.45203" lon="6.74282">
        <ele>1274.4</ele>
        <time>2022-07-19T14:38:04Z</time>
      </trkpt>
      <trkpt lat="44.45207" lon="6.74285">
        <ele>1274.4</ele>
        <time>2022-07-19T14:38:05Z</time>
      </trkpt>
      <trkpt lat="44.45212" lon="6.74287">
        <ele>1274.4</ele>
        <time>2022-07-19T14:38:06Z</time>
      </trkpt>
      <trkpt lat="44.45217" lon="6.7429">
        <ele>1274.4</ele>
        <time>2022-07-19T14:38:07Z</time>
      </trkpt>
      <trkpt lat="44.45222" lon="6.74293">
        <ele>1274.4</ele>
        <time>2022-07-19T14:38:08Z</time>
      </trkpt>
      <trkpt lat="44.45227" lon="6.74295">
        <ele>1274.4</ele>
        <time>2022-07-19T14:38:09Z</time>
      </trkpt>
      <trkpt lat="44.45232" lon="6.74297">
        <ele>1274.4</ele>
        <time>2022-07-19T14:38:10Z</time>
      </trkpt>
      <trkpt lat="44.45237" lon="6.743">
        <ele>1274.4</ele>
        <time>2022-07-19T14:38:11Z</time>
      </trkpt>
      <trkpt lat="44.45243" lon="6.74303">
        <ele>1274.4</ele>
        <time>2022-07-19T14:38:12Z</time>
      </trkpt>
      <trkpt lat="44.45248" lon="6.74306">
        <ele>1274.2</ele>
        <time>2022-07-19T14:38:13Z</time>
      </trkpt>
      <trkpt lat="44.45254" lon="6.74309">
        <ele>1274.2</ele>
        <time>2022-07-19T14:38:14Z</time>
      </trkpt>
      <trkpt lat="44.45259" lon="6.74313">
        <ele>1274.2</ele>
        <time>2022-07-19T14:38:15Z</time>
      </trkpt>
      <trkpt lat="44.45264" lon="6.74318">
        <ele>1274.2</ele>
        <time>2022-07-19T14:38:16Z</time>
      </trkpt>
      <trkpt lat="44.45269" lon="6.74323">
        <ele>1274.2</ele>
        <time>2022-07-19T14:38:17Z</time>
      </trkpt>
      <trkpt lat="44.45273" lon="6.74329">
        <ele>1274.2</ele>
        <time>2022-07-19T14:38:18Z</time>
      </trkpt>
      <trkpt lat="44.45277" lon="6.74334">
        <ele>1274.2</ele>
        <time>2022-07-19T14:38:19Z</time>
      </trkpt>
      <trkpt lat="44.45281" lon="6.7434">
        <ele>1274.6</ele>
        <time>2022-07-19T14:38:20Z</time>
      </trkpt>
      <trkpt lat="44.45285" lon="6.74346">
        <ele>1274.6</ele>
        <time>2022-07-19T14:38:21Z</time>
      </trkpt>
      <trkpt lat="44.45288" lon="6.74351">
        <ele>1274.6</ele>
        <time>2022-07-19T14:38:22Z</time>
      </trkpt>
      <trkpt lat="44.45292" lon="6.74357">
        <ele>1274.6</ele>
        <time>2022-07-19T14:38:23Z</time>
      </trkpt>
      <trkpt lat="44.45295" lon="6.74362">
        <ele>1274.6</ele>
        <time>2022-07-19T14:38:24Z</time>
      </trkpt>
      <trkpt lat="44.45299" lon="6.74367">
        <ele>1274.8</ele>
        <time>2022-07-19T14:38:25Z</time>
      </trkpt>
      <trkpt lat="44.45303" lon="6.74373">
        <ele>1274.8</ele>
        <time>2022-07-19T14:38:26Z</time>
      </trkpt>
      <trkpt lat="44.45307" lon="6.74377">
        <ele>1275.2</ele>
        <time>2022-07-19T14:38:27Z</time>
      </trkpt>
      <trkpt lat="44.45311" lon="6.7438">
        <ele>1275.2</ele>
        <time>2022-07-19T14:38:28Z</time>
      </trkpt>
      <trkpt lat="44.45316" lon="6.74383">
        <ele>1275.4</ele>
        <time>2022-07-19T14:38:29Z</time>
      </trkpt>
      <trkpt lat="44.45321" lon="6.74386">
        <ele>1275.8</ele>
        <time>2022-07-19T14:38:30Z</time>
      </trkpt>
      <trkpt lat="44.45326" lon="6.74387">
        <ele>1275.8</ele>
        <time>2022-07-19T14:38:31Z</time>
      </trkpt>
      <trkpt lat="44.45332" lon="6.74388">
        <ele>1276</ele>
        <time>2022-07-19T14:38:32Z</time>
      </trkpt>
      <trkpt lat="44.45337" lon="6.74389">
        <ele>1276</ele>
        <time>2022-07-19T14:38:33Z</time>
      </trkpt>
      <trkpt lat="44.45342" lon="6.74389">
        <ele>1276</ele>
        <time>2022-07-19T14:38:34Z</time>
      </trkpt>
      <trkpt lat="44.45348" lon="6.74388">
        <ele>1276.4</ele>
        <time>2022-07-19T14:38:35Z</time>
      </trkpt>
      <trkpt lat="44.45353" lon="6.74387">
        <ele>1276.4</ele>
        <time>2022-07-19T14:38:36Z</time>
      </trkpt>
      <trkpt lat="44.45358" lon="6.74385">
        <ele>1276.4</ele>
        <time>2022-07-19T14:38:37Z</time>
      </trkpt>
      <trkpt lat="44.45363" lon="6.74382">
        <ele>1276.4</ele>
        <time>2022-07-19T14:38:38Z</time>
      </trkpt>
      <trkpt lat="44.45369" lon="6.7438">
        <ele>1276.6</ele>
        <time>2022-07-19T14:38:39Z</time>
      </trkpt>
      <trkpt lat="44.45374" lon="6.74377">
        <ele>1276.6</ele>
        <time>2022-07-19T14:38:40Z</time>
      </trkpt>
      <trkpt lat="44.45379" lon="6.74374">
        <ele>1276.6</ele>
        <time>2022-07-19T14:38:41Z</time>
      </trkpt>
      <trkpt lat="44.45385" lon="6.74372">
        <ele>1276.6</ele>
        <time>2022-07-19T14:38:42Z</time>
      </trkpt>
      <trkpt lat="44.4539" lon="6.7437">
        <ele>1276.6</ele>
        <time>2022-07-19T14:38:43Z</time>
      </trkpt>
      <trkpt lat="44.45396" lon="6.74368">
        <ele>1276.6</ele>
        <time>2022-07-19T14:38:44Z</time>
      </trkpt>
      <trkpt lat="44.45401" lon="6.74367">
        <ele>1276.6</ele>
        <time>2022-07-19T14:38:45Z</time>
      </trkpt>
      <trkpt lat="44.45407" lon="6.74366">
        <ele>1276.8</ele>
        <time>2022-07-19T14:38:46Z</time>
      </trkpt>
      <trkpt lat="44.45412" lon="6.74366">
        <ele>1277</ele>
        <time>2022-07-19T14:38:47Z</time>
      </trkpt>
      <trkpt lat="44.45417" lon="6.74365">
        <ele>1277</ele>
        <time>2022-07-19T14:38:48Z</time>
      </trkpt>
      <trkpt lat="44.45422" lon="6.74365">
        <ele>1277</ele>
        <time>2022-07-19T14:38:49Z</time>
      </trkpt>
      <trkpt lat="44.45426" lon="6.74365">
        <ele>1277.4</ele>
        <time>2022-07-19T14:38:50Z</time>
      </trkpt>
      <trkpt lat="44.45431" lon="6.74365">
        <ele>1277.4</ele>
        <time>2022-07-19T14:38:51Z</time>
      </trkpt>
      <trkpt lat="44.45436" lon="6.74365">
        <ele>1277.6</ele>
        <time>2022-07-19T14:38:52Z</time>
      </trkpt>
      <trkpt lat="44.4544" lon="6.74365">
        <ele>1277.6</ele>
        <time>2022-07-19T14:38:53Z</time>
      </trkpt>
      <trkpt lat="44.45445" lon="6.74365">
        <ele>1277.6</ele>
        <time>2022-07-19T14:38:54Z</time>
      </trkpt>
      <trkpt lat="44.45449" lon="6.74365">
        <ele>1277.8</ele>
        <time>2022-07-19T14:38:55Z</time>
      </trkpt>
      <trkpt lat="44.45454" lon="6.74364">
        <ele>1277.8</ele>
        <time>2022-07-19T14:38:56Z</time>
      </trkpt>
      <trkpt lat="44.45458" lon="6.74364">
        <ele>1277.8</ele>
        <time>2022-07-19T14:38:57Z</time>
      </trkpt>
      <trkpt lat="44.45462" lon="6.74364">
        <ele>1277.8</ele>
        <time>2022-07-19T14:38:58Z</time>
      </trkpt>
      <trkpt lat="44.45467" lon="6.74364">
        <ele>1278</ele>
        <time>2022-07-19T14:38:59Z</time>
      </trkpt>
      <trkpt lat="44.45472" lon="6.74364">
        <ele>1278</ele>
        <time>2022-07-19T14:39:00Z</time>
      </trkpt>
      <trkpt lat="44.45476" lon="6.74364">
        <ele>1278</ele>
        <time>2022-07-19T14:39:01Z</time>
      </trkpt>
      <trkpt lat="44.45481" lon="6.74364">
        <ele>1278</ele>
        <time>2022-07-19T14:39:02Z</time>
      </trkpt>
      <trkpt lat="44.45485" lon="6.74364">
        <ele>1278.2</ele>
        <time>2022-07-19T14:39:03Z</time>
      </trkpt>
      <trkpt lat="44.45489" lon="6.74363">
        <ele>1278.2</ele>
        <time>2022-07-19T14:39:04Z</time>
      </trkpt>
      <trkpt lat="44.45494" lon="6.74364">
        <ele>1278.2</ele>
        <time>2022-07-19T14:39:05Z</time>
      </trkpt>
      <trkpt lat="44.45498" lon="6.74364">
        <ele>1278.6</ele>
        <time>2022-07-19T14:39:06Z</time>
      </trkpt>
      <trkpt lat="44.45503" lon="6.74364">
        <ele>1278.6</ele>
        <time>2022-07-19T14:39:07Z</time>
      </trkpt>
      <trkpt lat="44.45507" lon="6.74365">
        <ele>1278.8</ele>
        <time>2022-07-19T14:39:08Z</time>
      </trkpt>
      <trkpt lat="44.45511" lon="6.74365">
        <ele>1278.8</ele>
        <time>2022-07-19T14:39:09Z</time>
      </trkpt>
      <trkpt lat="44.45516" lon="6.74366">
        <ele>1278.8</ele>
        <time>2022-07-19T14:39:10Z</time>
      </trkpt>
      <trkpt lat="44.4552" lon="6.74367">
        <ele>1279.2</ele>
        <time>2022-07-19T14:39:11Z</time>
      </trkpt>
      <trkpt lat="44.45524" lon="6.74368">
        <ele>1279.2</ele>
        <time>2022-07-19T14:39:12Z</time>
      </trkpt>
      <trkpt lat="44.45528" lon="6.7437">
        <ele>1279.4</ele>
        <time>2022-07-19T14:39:13Z</time>
      </trkpt>
      <trkpt lat="44.45532" lon="6.74371">
        <ele>1279.4</ele>
        <time>2022-07-19T14:39:14Z</time>
      </trkpt>
      <trkpt lat="44.45537" lon="6.74373">
        <ele>1279.4</ele>
        <time>2022-07-19T14:39:15Z</time>
      </trkpt>
      <trkpt lat="44.4554" lon="6.74374">
        <ele>1279.6</ele>
        <time>2022-07-19T14:39:16Z</time>
      </trkpt>
      <trkpt lat="44.45544" lon="6.74377">
        <ele>1279.6</ele>
        <time>2022-07-19T14:39:17Z</time>
      </trkpt>
      <trkpt lat="44.45548" lon="6.7438">
        <ele>1280</ele>
        <time>2022-07-19T14:39:18Z</time>
      </trkpt>
      <trkpt lat="44.45552" lon="6.74382">
        <ele>1280</ele>
        <time>2022-07-19T14:39:19Z</time>
      </trkpt>
      <trkpt lat="44.45556" lon="6.74384">
        <ele>1280.2</ele>
        <time>2022-07-19T14:39:20Z</time>
      </trkpt>
      <trkpt lat="44.4556" lon="6.74387">
        <ele>1280.2</ele>
        <time>2022-07-19T14:39:21Z</time>
      </trkpt>
      <trkpt lat="44.45564" lon="6.74389">
        <ele>1280.2</ele>
        <time>2022-07-19T14:39:22Z</time>
      </trkpt>
      <trkpt lat="44.45567" lon="6.74392">
        <ele>1280.6</ele>
        <time>2022-07-19T14:39:23Z</time>
      </trkpt>
      <trkpt lat="44.45571" lon="6.74394">
        <ele>1280.6</ele>
        <time>2022-07-19T14:39:24Z</time>
      </trkpt>
      <trkpt lat="44.45575" lon="6.74397">
        <ele>1280.8</ele>
        <time>2022-07-19T14:39:25Z</time>
      </trkpt>
      <trkpt lat="44.45579" lon="6.744">
        <ele>1280.8</ele>
        <time>2022-07-19T14:39:26Z</time>
      </trkpt>
      <trkpt lat="44.45583" lon="6.74402">
        <ele>1281.2</ele>
        <time>2022-07-19T14:39:27Z</time>
      </trkpt>
      <trkpt lat="44.45587" lon="6.74404">
        <ele>1281.6</ele>
        <time>2022-07-19T14:39:28Z</time>
      </trkpt>
      <trkpt lat="44.45591" lon="6.74406">
        <ele>1281.6</ele>
        <time>2022-07-19T14:39:29Z</time>
      </trkpt>
      <trkpt lat="44.45596" lon="6.74407">
        <ele>1281.8</ele>
        <time>2022-07-19T14:39:30Z</time>
      </trkpt>
      <trkpt lat="44.456" lon="6.74408">
        <ele>1281.8</ele>
        <time>2022-07-19T14:39:31Z</time>
      </trkpt>
      <trkpt lat="44.45605" lon="6.74408">
        <ele>1282.2</ele>
        <time>2022-07-19T14:39:32Z</time>
      </trkpt>
      <trkpt lat="44.4561" lon="6.74409">
        <ele>1282.2</ele>
        <time>2022-07-19T14:39:33Z</time>
      </trkpt>
      <trkpt lat="44.45614" lon="6.74409">
        <ele>1282.2</ele>
        <time>2022-07-19T14:39:34Z</time>
      </trkpt>
      <trkpt lat="44.45619" lon="6.74409">
        <ele>1282.4</ele>
        <time>2022-07-19T14:39:35Z</time>
      </trkpt>
      <trkpt lat="44.45623" lon="6.74409">
        <ele>1282.4</ele>
        <time>2022-07-19T14:39:36Z</time>
      </trkpt>
      <trkpt lat="44.45628" lon="6.74409">
        <ele>1282.4</ele>
        <time>2022-07-19T14:39:37Z</time>
      </trkpt>
      <trkpt lat="44.45633" lon="6.74409">
        <ele>1282.6</ele>
        <time>2022-07-19T14:39:38Z</time>
      </trkpt>
      <trkpt lat="44.45637" lon="6.74409">
        <ele>1282.6</ele>
        <time>2022-07-19T14:39:39Z</time>
      </trkpt>
      <trkpt lat="44.45641" lon="6.74409">
        <ele>1283</ele>
        <time>2022-07-19T14:39:40Z</time>
      </trkpt>
      <trkpt lat="44.45646" lon="6.74409">
        <ele>1283</ele>
        <time>2022-07-19T14:39:41Z</time>
      </trkpt>
      <trkpt lat="44.4565" lon="6.74409">
        <ele>1283.4</ele>
        <time>2022-07-19T14:39:42Z</time>
      </trkpt>
      <trkpt lat="44.45654" lon="6.74409">
        <ele>1283.4</ele>
        <time>2022-07-19T14:39:43Z</time>
      </trkpt>
      <trkpt lat="44.45658" lon="6.74409">
        <ele>1283.6</ele>
        <time>2022-07-19T14:39:44Z</time>
      </trkpt>
      <trkpt lat="44.45662" lon="6.7441">
        <ele>1283.6</ele>
        <time>2022-07-19T14:39:45Z</time>
      </trkpt>
      <trkpt lat="44.45666" lon="6.7441">
        <ele>1284</ele>
        <time>2022-07-19T14:39:46Z</time>
      </trkpt>
      <trkpt lat="44.45669" lon="6.7441">
        <ele>1284</ele>
        <time>2022-07-19T14:39:47Z</time>
      </trkpt>
      <trkpt lat="44.45673" lon="6.74411">
        <ele>1284.2</ele>
        <time>2022-07-19T14:39:48Z</time>
      </trkpt>
      <trkpt lat="44.45677" lon="6.74412">
        <ele>1284.2</ele>
        <time>2022-07-19T14:39:49Z</time>
      </trkpt>
      <trkpt lat="44.45681" lon="6.74413">
        <ele>1284.4</ele>
        <time>2022-07-19T14:39:50Z</time>
      </trkpt>
      <trkpt lat="44.45684" lon="6.74414">
        <ele>1284.4</ele>
        <time>2022-07-19T14:39:51Z</time>
      </trkpt>
      <trkpt lat="44.45688" lon="6.74416">
        <ele>1284.4</ele>
        <time>2022-07-19T14:39:52Z</time>
      </trkpt>
      <trkpt lat="44.45691" lon="6.74418">
        <ele>1284.8</ele>
        <time>2022-07-19T14:39:53Z</time>
      </trkpt>
      <trkpt lat="44.45695" lon="6.7442">
        <ele>1284.8</ele>
        <time>2022-07-19T14:39:54Z</time>
      </trkpt>
      <trkpt lat="44.45699" lon="6.74422">
        <ele>1284.8</ele>
        <time>2022-07-19T14:39:55Z</time>
      </trkpt>
      <trkpt lat="44.45702" lon="6.74424">
        <ele>1285.2</ele>
        <time>2022-07-19T14:39:56Z</time>
      </trkpt>
      <trkpt lat="44.45706" lon="6.74427">
        <ele>1285.2</ele>
        <time>2022-07-19T14:39:57Z</time>
      </trkpt>
      <trkpt lat="44.4571" lon="6.74429">
        <ele>1285.6</ele>
        <time>2022-07-19T14:39:58Z</time>
      </trkpt>
      <trkpt lat="44.45714" lon="6.74431">
        <ele>1285.6</ele>
        <time>2022-07-19T14:39:59Z</time>
      </trkpt>
      <trkpt lat="44.45718" lon="6.74433">
        <ele>1285.8</ele>
        <time>2022-07-19T14:40:00Z</time>
      </trkpt>
      <trkpt lat="44.45722" lon="6.74436">
        <ele>1285.8</ele>
        <time>2022-07-19T14:40:01Z</time>
      </trkpt>
      <trkpt lat="44.45725" lon="6.74439">
        <ele>1286.2</ele>
        <time>2022-07-19T14:40:02Z</time>
      </trkpt>
      <trkpt lat="44.45729" lon="6.74441">
        <ele>1286.2</ele>
        <time>2022-07-19T14:40:03Z</time>
      </trkpt>
      <trkpt lat="44.45732" lon="6.74444">
        <ele>1286.4</ele>
        <time>2022-07-19T14:40:04Z</time>
      </trkpt>
      <trkpt lat="44.45736" lon="6.74446">
        <ele>1286.4</ele>
        <time>2022-07-19T14:40:05Z</time>
      </trkpt>
      <trkpt lat="44.45739" lon="6.74449">
        <ele>1286.8</ele>
        <time>2022-07-19T14:40:06Z</time>
      </trkpt>
      <trkpt lat="44.45742" lon="6.74451">
        <ele>1286.8</ele>
        <time>2022-07-19T14:40:07Z</time>
      </trkpt>
      <trkpt lat="44.45746" lon="6.74453">
        <ele>1287.2</ele>
        <time>2022-07-19T14:40:08Z</time>
      </trkpt>
      <trkpt lat="44.45749" lon="6.74456">
        <ele>1287.4</ele>
        <time>2022-07-19T14:40:09Z</time>
      </trkpt>
      <trkpt lat="44.45752" lon="6.74458">
        <ele>1287.6</ele>
        <time>2022-07-19T14:40:10Z</time>
      </trkpt>
      <trkpt lat="44.45755" lon="6.7446">
        <ele>1287.6</ele>
        <time>2022-07-19T14:40:11Z</time>
      </trkpt>
      <trkpt lat="44.45758" lon="6.74463">
        <ele>1287.8</ele>
        <time>2022-07-19T14:40:12Z</time>
      </trkpt>
      <trkpt lat="44.45762" lon="6.74465">
        <ele>1287.8</ele>
        <time>2022-07-19T14:40:13Z</time>
      </trkpt>
      <trkpt lat="44.45765" lon="6.74467">
        <ele>1287.8</ele>
        <time>2022-07-19T14:40:14Z</time>
      </trkpt>
      <trkpt lat="44.45768" lon="6.7447">
        <ele>1288.2</ele>
        <time>2022-07-19T14:40:15Z</time>
      </trkpt>
      <trkpt lat="44.45771" lon="6.74472">
        <ele>1288.2</ele>
        <time>2022-07-19T14:40:16Z</time>
      </trkpt>
      <trkpt lat="44.45774" lon="6.74475">
        <ele>1288.4</ele>
        <time>2022-07-19T14:40:17Z</time>
      </trkpt>
      <trkpt lat="44.45777" lon="6.74478">
        <ele>1288.4</ele>
        <time>2022-07-19T14:40:18Z</time>
      </trkpt>
      <trkpt lat="44.4578" lon="6.74481">
        <ele>1288.6</ele>
        <time>2022-07-19T14:40:19Z</time>
      </trkpt>
      <trkpt lat="44.45784" lon="6.74484">
        <ele>1288.6</ele>
        <time>2022-07-19T14:40:20Z</time>
      </trkpt>
      <trkpt lat="44.45786" lon="6.74488">
        <ele>1289</ele>
        <time>2022-07-19T14:40:21Z</time>
      </trkpt>
      <trkpt lat="44.45789" lon="6.74491">
        <ele>1289</ele>
        <time>2022-07-19T14:40:22Z</time>
      </trkpt>
      <trkpt lat="44.45792" lon="6.74495">
        <ele>1289.4</ele>
        <time>2022-07-19T14:40:23Z</time>
      </trkpt>
      <trkpt lat="44.45795" lon="6.74499">
        <ele>1289.4</ele>
        <time>2022-07-19T14:40:24Z</time>
      </trkpt>
      <trkpt lat="44.45798" lon="6.74503">
        <ele>1289.4</ele>
        <time>2022-07-19T14:40:25Z</time>
      </trkpt>
      <trkpt lat="44.458" lon="6.74508">
        <ele>1289.6</ele>
        <time>2022-07-19T14:40:26Z</time>
      </trkpt>
      <trkpt lat="44.45802" lon="6.74512">
        <ele>1289.6</ele>
        <time>2022-07-19T14:40:27Z</time>
      </trkpt>
      <trkpt lat="44.45805" lon="6.74518">
        <ele>1289.6</ele>
        <time>2022-07-19T14:40:28Z</time>
      </trkpt>
      <trkpt lat="44.45807" lon="6.74523">
        <ele>1289.8</ele>
        <time>2022-07-19T14:40:29Z</time>
      </trkpt>
      <trkpt lat="44.45809" lon="6.74529">
        <ele>1289.8</ele>
        <time>2022-07-19T14:40:30Z</time>
      </trkpt>
      <trkpt lat="44.45811" lon="6.74535">
        <ele>1289.8</ele>
        <time>2022-07-19T14:40:31Z</time>
      </trkpt>
      <trkpt lat="44.45812" lon="6.74541">
        <ele>1289.8</ele>
        <time>2022-07-19T14:40:32Z</time>
      </trkpt>
      <trkpt lat="44.45814" lon="6.74548">
        <ele>1289.8</ele>
        <time>2022-07-19T14:40:33Z</time>
      </trkpt>
      <trkpt lat="44.45815" lon="6.74555">
        <ele>1289.8</ele>
        <time>2022-07-19T14:40:34Z</time>
      </trkpt>
      <trkpt lat="44.45817" lon="6.74563">
        <ele>1289.8</ele>
        <time>2022-07-19T14:40:35Z</time>
      </trkpt>
      <trkpt lat="44.45818" lon="6.74571">
        <ele>1289.4</ele>
        <time>2022-07-19T14:40:36Z</time>
      </trkpt>
      <trkpt lat="44.45818" lon="6.7458">
        <ele>1289.4</ele>
        <time>2022-07-19T14:40:37Z</time>
      </trkpt>
      <trkpt lat="44.45819" lon="6.74588">
        <ele>1289.2</ele>
        <time>2022-07-19T14:40:38Z</time>
      </trkpt>
      <trkpt lat="44.4582" lon="6.74598">
        <ele>1289.2</ele>
        <time>2022-07-19T14:40:39Z</time>
      </trkpt>
      <trkpt lat="44.45821" lon="6.74607">
        <ele>1289</ele>
        <time>2022-07-19T14:40:40Z</time>
      </trkpt>
      <trkpt lat="44.45823" lon="6.74616">
        <ele>1289</ele>
        <time>2022-07-19T14:40:41Z</time>
      </trkpt>
      <trkpt lat="44.45825" lon="6.74625">
        <ele>1288.6</ele>
        <time>2022-07-19T14:40:42Z</time>
      </trkpt>
      <trkpt lat="44.45828" lon="6.74634">
        <ele>1288.6</ele>
        <time>2022-07-19T14:40:43Z</time>
      </trkpt>
      <trkpt lat="44.45832" lon="6.74642">
        <ele>1288.4</ele>
        <time>2022-07-19T14:40:44Z</time>
      </trkpt>
      <trkpt lat="44.45836" lon="6.7465">
        <ele>1288.4</ele>
        <time>2022-07-19T14:40:45Z</time>
      </trkpt>
      <trkpt lat="44.45841" lon="6.74657">
        <ele>1288.4</ele>
        <time>2022-07-19T14:40:46Z</time>
      </trkpt>
      <trkpt lat="44.45847" lon="6.74662">
        <ele>1288.4</ele>
        <time>2022-07-19T14:40:47Z</time>
      </trkpt>
      <trkpt lat="44.45853" lon="6.74666">
        <ele>1288.2</ele>
        <time>2022-07-19T14:40:48Z</time>
      </trkpt>
      <trkpt lat="44.45859" lon="6.74669">
        <ele>1288.2</ele>
        <time>2022-07-19T14:40:49Z</time>
      </trkpt>
      <trkpt lat="44.45864" lon="6.74672">
        <ele>1288.2</ele>
        <time>2022-07-19T14:40:50Z</time>
      </trkpt>
      <trkpt lat="44.4587" lon="6.74673">
        <ele>1288.2</ele>
        <time>2022-07-19T14:40:51Z</time>
      </trkpt>
      <trkpt lat="44.45876" lon="6.74674">
        <ele>1288.2</ele>
        <time>2022-07-19T14:40:52Z</time>
      </trkpt>
      <trkpt lat="44.45882" lon="6.74675">
        <ele>1288.2</ele>
        <time>2022-07-19T14:40:53Z</time>
      </trkpt>
      <trkpt lat="44.45888" lon="6.74675">
        <ele>1288.2</ele>
        <time>2022-07-19T14:40:54Z</time>
      </trkpt>
      <trkpt lat="44.45894" lon="6.74676">
        <ele>1288.4</ele>
        <time>2022-07-19T14:40:55Z</time>
      </trkpt>
      <trkpt lat="44.45899" lon="6.74676">
        <ele>1288.4</ele>
        <time>2022-07-19T14:40:56Z</time>
      </trkpt>
      <trkpt lat="44.45905" lon="6.74677">
        <ele>1288.4</ele>
        <time>2022-07-19T14:40:57Z</time>
      </trkpt>
      <trkpt lat="44.4591" lon="6.74677">
        <ele>1288.8</ele>
        <time>2022-07-19T14:40:58Z</time>
      </trkpt>
      <trkpt lat="44.45922" lon="6.74678">
        <ele>1288.8</ele>
        <time>2022-07-19T14:40:59Z</time>
      </trkpt>
      <trkpt lat="44.45927" lon="6.74679">
        <ele>1289</ele>
        <time>2022-07-19T14:41:00Z</time>
      </trkpt>
      <trkpt lat="44.45932" lon="6.7468">
        <ele>1289</ele>
        <time>2022-07-19T14:41:01Z</time>
      </trkpt>
      <trkpt lat="44.45938" lon="6.74681">
        <ele>1289.4</ele>
        <time>2022-07-19T14:41:02Z</time>
      </trkpt>
      <trkpt lat="44.45943" lon="6.74682">
        <ele>1289.4</ele>
        <time>2022-07-19T14:41:03Z</time>
      </trkpt>
      <trkpt lat="44.45948" lon="6.74683">
        <ele>1289.6</ele>
        <time>2022-07-19T14:41:04Z</time>
      </trkpt>
      <trkpt lat="44.45953" lon="6.74684">
        <ele>1289.6</ele>
        <time>2022-07-19T14:41:05Z</time>
      </trkpt>
      <trkpt lat="44.45958" lon="6.74686">
        <ele>1289.6</ele>
        <time>2022-07-19T14:41:06Z</time>
      </trkpt>
      <trkpt lat="44.45963" lon="6.74687">
        <ele>1289.8</ele>
        <time>2022-07-19T14:41:07Z</time>
      </trkpt>
      <trkpt lat="44.45967" lon="6.74689">
        <ele>1289.8</ele>
        <time>2022-07-19T14:41:08Z</time>
      </trkpt>
      <trkpt lat="44.45972" lon="6.7469">
        <ele>1289.8</ele>
        <time>2022-07-19T14:41:09Z</time>
      </trkpt>
      <trkpt lat="44.45976" lon="6.74692">
        <ele>1290.2</ele>
        <time>2022-07-19T14:41:10Z</time>
      </trkpt>
      <trkpt lat="44.45981" lon="6.74694">
        <ele>1290.2</ele>
        <time>2022-07-19T14:41:11Z</time>
      </trkpt>
      <trkpt lat="44.45985" lon="6.74696">
        <ele>1290.2</ele>
        <time>2022-07-19T14:41:12Z</time>
      </trkpt>
      <trkpt lat="44.4599" lon="6.74698">
        <ele>1290.6</ele>
        <time>2022-07-19T14:41:13Z</time>
      </trkpt>
      <trkpt lat="44.45994" lon="6.747">
        <ele>1290.6</ele>
        <time>2022-07-19T14:41:14Z</time>
      </trkpt>
      <trkpt lat="44.45998" lon="6.74702">
        <ele>1290.6</ele>
        <time>2022-07-19T14:41:15Z</time>
      </trkpt>
      <trkpt lat="44.46003" lon="6.74705">
        <ele>1290.8</ele>
        <time>2022-07-19T14:41:16Z</time>
      </trkpt>
      <trkpt lat="44.46007" lon="6.74708">
        <ele>1290.8</ele>
        <time>2022-07-19T14:41:17Z</time>
      </trkpt>
      <trkpt lat="44.46011" lon="6.7471">
        <ele>1291</ele>
        <time>2022-07-19T14:41:18Z</time>
      </trkpt>
      <trkpt lat="44.46015" lon="6.74713">
        <ele>1291</ele>
        <time>2022-07-19T14:41:19Z</time>
      </trkpt>
      <trkpt lat="44.46019" lon="6.74716">
        <ele>1291.4</ele>
        <time>2022-07-19T14:41:20Z</time>
      </trkpt>
      <trkpt lat="44.46023" lon="6.74719">
        <ele>1291.4</ele>
        <time>2022-07-19T14:41:21Z</time>
      </trkpt>
      <trkpt lat="44.46027" lon="6.74722">
        <ele>1291.4</ele>
        <time>2022-07-19T14:41:22Z</time>
      </trkpt>
      <trkpt lat="44.46031" lon="6.74725">
        <ele>1291.6</ele>
        <time>2022-07-19T14:41:23Z</time>
      </trkpt>
      <trkpt lat="44.46035" lon="6.74728">
        <ele>1291.6</ele>
        <time>2022-07-19T14:41:24Z</time>
      </trkpt>
      <trkpt lat="44.46039" lon="6.74732">
        <ele>1291.6</ele>
        <time>2022-07-19T14:41:25Z</time>
      </trkpt>
      <trkpt lat="44.46043" lon="6.74735">
        <ele>1291.8</ele>
        <time>2022-07-19T14:41:26Z</time>
      </trkpt>
      <trkpt lat="44.46046" lon="6.74739">
        <ele>1291.8</ele>
        <time>2022-07-19T14:41:27Z</time>
      </trkpt>
      <trkpt lat="44.4605" lon="6.74743">
        <ele>1291.8</ele>
        <time>2022-07-19T14:41:28Z</time>
      </trkpt>
      <trkpt lat="44.46054" lon="6.74747">
        <ele>1292.2</ele>
        <time>2022-07-19T14:41:29Z</time>
      </trkpt>
      <trkpt lat="44.46058" lon="6.7475">
        <ele>1292.2</ele>
        <time>2022-07-19T14:41:30Z</time>
      </trkpt>
      <trkpt lat="44.46062" lon="6.74754">
        <ele>1292.2</ele>
        <time>2022-07-19T14:41:31Z</time>
      </trkpt>
      <trkpt lat="44.46065" lon="6.74758">
        <ele>1292.4</ele>
        <time>2022-07-19T14:41:32Z</time>
      </trkpt>
      <trkpt lat="44.46069" lon="6.74762">
        <ele>1292.4</ele>
        <time>2022-07-19T14:41:33Z</time>
      </trkpt>
      <trkpt lat="44.46073" lon="6.74766">
        <ele>1292.6</ele>
        <time>2022-07-19T14:41:34Z</time>
      </trkpt>
      <trkpt lat="44.46076" lon="6.74771">
        <ele>1292.6</ele>
        <time>2022-07-19T14:41:35Z</time>
      </trkpt>
      <trkpt lat="44.4608" lon="6.74775">
        <ele>1292.6</ele>
        <time>2022-07-19T14:41:36Z</time>
      </trkpt>
      <trkpt lat="44.46084" lon="6.74779">
        <ele>1293</ele>
        <time>2022-07-19T14:41:37Z</time>
      </trkpt>
      <trkpt lat="44.46087" lon="6.74783">
        <ele>1293</ele>
        <time>2022-07-19T14:41:38Z</time>
      </trkpt>
      <trkpt lat="44.4609" lon="6.74788">
        <ele>1293.2</ele>
        <time>2022-07-19T14:41:39Z</time>
      </trkpt>
      <trkpt lat="44.46094" lon="6.74793">
        <ele>1293.2</ele>
        <time>2022-07-19T14:41:40Z</time>
      </trkpt>
      <trkpt lat="44.46097" lon="6.74798">
        <ele>1293.2</ele>
        <time>2022-07-19T14:41:41Z</time>
      </trkpt>
      <trkpt lat="44.46101" lon="6.74803">
        <ele>1293.4</ele>
        <time>2022-07-19T14:41:42Z</time>
      </trkpt>
      <trkpt lat="44.46104" lon="6.74808">
        <ele>1293.4</ele>
        <time>2022-07-19T14:41:43Z</time>
      </trkpt>
      <trkpt lat="44.46107" lon="6.74813">
        <ele>1293.8</ele>
        <time>2022-07-19T14:41:44Z</time>
      </trkpt>
      <trkpt lat="44.4611" lon="6.74818">
        <ele>1293.8</ele>
        <time>2022-07-19T14:41:45Z</time>
      </trkpt>
      <trkpt lat="44.46113" lon="6.74824">
        <ele>1293.8</ele>
        <time>2022-07-19T14:41:46Z</time>
      </trkpt>
      <trkpt lat="44.46116" lon="6.74829">
        <ele>1294</ele>
        <time>2022-07-19T14:41:47Z</time>
      </trkpt>
      <trkpt lat="44.46119" lon="6.74834">
        <ele>1294</ele>
        <time>2022-07-19T14:41:48Z</time>
      </trkpt>
      <trkpt lat="44.46122" lon="6.74839">
        <ele>1294</ele>
        <time>2022-07-19T14:41:49Z</time>
      </trkpt>
      <trkpt lat="44.46125" lon="6.74844">
        <ele>1294.2</ele>
        <time>2022-07-19T14:41:50Z</time>
      </trkpt>
      <trkpt lat="44.46128" lon="6.74849">
        <ele>1294.2</ele>
        <time>2022-07-19T14:41:51Z</time>
      </trkpt>
      <trkpt lat="44.46131" lon="6.74854">
        <ele>1294.2</ele>
        <time>2022-07-19T14:41:52Z</time>
      </trkpt>
      <trkpt lat="44.46134" lon="6.74859">
        <ele>1294.2</ele>
        <time>2022-07-19T14:41:53Z</time>
      </trkpt>
      <trkpt lat="44.46138" lon="6.74864">
        <ele>1294.4</ele>
        <time>2022-07-19T14:41:54Z</time>
      </trkpt>
      <trkpt lat="44.46141" lon="6.7487">
        <ele>1294.4</ele>
        <time>2022-07-19T14:41:55Z</time>
      </trkpt>
      <trkpt lat="44.46144" lon="6.74875">
        <ele>1294.4</ele>
        <time>2022-07-19T14:41:56Z</time>
      </trkpt>
      <trkpt lat="44.46148" lon="6.7488">
        <ele>1294.6</ele>
        <time>2022-07-19T14:41:57Z</time>
      </trkpt>
      <trkpt lat="44.46151" lon="6.74886">
        <ele>1294.6</ele>
        <time>2022-07-19T14:41:58Z</time>
      </trkpt>
      <trkpt lat="44.46155" lon="6.74891">
        <ele>1294.6</ele>
        <time>2022-07-19T14:41:59Z</time>
      </trkpt>
      <trkpt lat="44.46158" lon="6.74896">
        <ele>1294.6</ele>
        <time>2022-07-19T14:42:00Z</time>
      </trkpt>
      <trkpt lat="44.46162" lon="6.74901">
        <ele>1294.8</ele>
        <time>2022-07-19T14:42:01Z</time>
      </trkpt>
      <trkpt lat="44.46166" lon="6.74906">
        <ele>1294.8</ele>
        <time>2022-07-19T14:42:02Z</time>
      </trkpt>
      <trkpt lat="44.4617" lon="6.74911">
        <ele>1294.8</ele>
        <time>2022-07-19T14:42:03Z</time>
      </trkpt>
      <trkpt lat="44.46174" lon="6.74917">
        <ele>1294.8</ele>
        <time>2022-07-19T14:42:04Z</time>
      </trkpt>
      <trkpt lat="44.46178" lon="6.74922">
        <ele>1294.8</ele>
        <time>2022-07-19T14:42:05Z</time>
      </trkpt>
      <trkpt lat="44.46182" lon="6.74927">
        <ele>1294.8</ele>
        <time>2022-07-19T14:42:06Z</time>
      </trkpt>
      <trkpt lat="44.46186" lon="6.74933">
        <ele>1294.8</ele>
        <time>2022-07-19T14:42:07Z</time>
      </trkpt>
      <trkpt lat="44.4619" lon="6.74938">
        <ele>1295.2</ele>
        <time>2022-07-19T14:42:08Z</time>
      </trkpt>
      <trkpt lat="44.46195" lon="6.74944">
        <ele>1295.2</ele>
        <time>2022-07-19T14:42:09Z</time>
      </trkpt>
      <trkpt lat="44.46199" lon="6.7495">
        <ele>1295.2</ele>
        <time>2022-07-19T14:42:10Z</time>
      </trkpt>
      <trkpt lat="44.46203" lon="6.74955">
        <ele>1295.2</ele>
        <time>2022-07-19T14:42:11Z</time>
      </trkpt>
      <trkpt lat="44.46207" lon="6.74961">
        <ele>1295.4</ele>
        <time>2022-07-19T14:42:12Z</time>
      </trkpt>
      <trkpt lat="44.46211" lon="6.74967">
        <ele>1295.4</ele>
        <time>2022-07-19T14:42:13Z</time>
      </trkpt>
      <trkpt lat="44.46215" lon="6.74972">
        <ele>1295.4</ele>
        <time>2022-07-19T14:42:14Z</time>
      </trkpt>
      <trkpt lat="44.46219" lon="6.74977">
        <ele>1295.4</ele>
        <time>2022-07-19T14:42:15Z</time>
      </trkpt>
      <trkpt lat="44.46223" lon="6.74982">
        <ele>1295.4</ele>
        <time>2022-07-19T14:42:16Z</time>
      </trkpt>
      <trkpt lat="44.46227" lon="6.74988">
        <ele>1295.6</ele>
        <time>2022-07-19T14:42:17Z</time>
      </trkpt>
      <trkpt lat="44.46232" lon="6.74993">
        <ele>1295.6</ele>
        <time>2022-07-19T14:42:18Z</time>
      </trkpt>
      <trkpt lat="44.46236" lon="6.74997">
        <ele>1295.6</ele>
        <time>2022-07-19T14:42:19Z</time>
      </trkpt>
      <trkpt lat="44.46241" lon="6.75002">
        <ele>1295.6</ele>
        <time>2022-07-19T14:42:20Z</time>
      </trkpt>
      <trkpt lat="44.46246" lon="6.75006">
        <ele>1295.6</ele>
        <time>2022-07-19T14:42:21Z</time>
      </trkpt>
      <trkpt lat="44.46251" lon="6.75009">
        <ele>1295.6</ele>
        <time>2022-07-19T14:42:22Z</time>
      </trkpt>
      <trkpt lat="44.46256" lon="6.75012">
        <ele>1295.6</ele>
        <time>2022-07-19T14:42:23Z</time>
      </trkpt>
      <trkpt lat="44.46262" lon="6.75015">
        <ele>1295.6</ele>
        <time>2022-07-19T14:42:24Z</time>
      </trkpt>
      <trkpt lat="44.46267" lon="6.75018">
        <ele>1295.6</ele>
        <time>2022-07-19T14:42:25Z</time>
      </trkpt>
      <trkpt lat="44.46272" lon="6.7502">
        <ele>1295.6</ele>
        <time>2022-07-19T14:42:26Z</time>
      </trkpt>
      <trkpt lat="44.46278" lon="6.75022">
        <ele>1295.6</ele>
        <time>2022-07-19T14:42:27Z</time>
      </trkpt>
      <trkpt lat="44.46284" lon="6.75023">
        <ele>1295.6</ele>
        <time>2022-07-19T14:42:28Z</time>
      </trkpt>
      <trkpt lat="44.46289" lon="6.75025">
        <ele>1295.6</ele>
        <time>2022-07-19T14:42:29Z</time>
      </trkpt>
      <trkpt lat="44.46295" lon="6.75027">
        <ele>1295.6</ele>
        <time>2022-07-19T14:42:30Z</time>
      </trkpt>
      <trkpt lat="44.463" lon="6.75028">
        <ele>1295.6</ele>
        <time>2022-07-19T14:42:31Z</time>
      </trkpt>
      <trkpt lat="44.46306" lon="6.7503">
        <ele>1295.6</ele>
        <time>2022-07-19T14:42:32Z</time>
      </trkpt>
      <trkpt lat="44.46311" lon="6.75032">
        <ele>1295.6</ele>
        <time>2022-07-19T14:42:33Z</time>
      </trkpt>
      <trkpt lat="44.46317" lon="6.75034">
        <ele>1295.6</ele>
        <time>2022-07-19T14:42:34Z</time>
      </trkpt>
      <trkpt lat="44.46322" lon="6.75037">
        <ele>1295.6</ele>
        <time>2022-07-19T14:42:35Z</time>
      </trkpt>
      <trkpt lat="44.46328" lon="6.75039">
        <ele>1295.6</ele>
        <time>2022-07-19T14:42:36Z</time>
      </trkpt>
      <trkpt lat="44.46333" lon="6.75042">
        <ele>1295.6</ele>
        <time>2022-07-19T14:42:37Z</time>
      </trkpt>
      <trkpt lat="44.46338" lon="6.75045">
        <ele>1295.6</ele>
        <time>2022-07-19T14:42:38Z</time>
      </trkpt>
      <trkpt lat="44.46343" lon="6.75049">
        <ele>1295.6</ele>
        <time>2022-07-19T14:42:39Z</time>
      </trkpt>
      <trkpt lat="44.46347" lon="6.75054">
        <ele>1295.6</ele>
        <time>2022-07-19T14:42:40Z</time>
      </trkpt>
      <trkpt lat="44.46352" lon="6.75059">
        <ele>1295.6</ele>
        <time>2022-07-19T14:42:41Z</time>
      </trkpt>
      <trkpt lat="44.46357" lon="6.75064">
        <ele>1295.6</ele>
        <time>2022-07-19T14:42:42Z</time>
      </trkpt>
      <trkpt lat="44.46361" lon="6.75069">
        <ele>1295.6</ele>
        <time>2022-07-19T14:42:43Z</time>
      </trkpt>
      <trkpt lat="44.46366" lon="6.75074">
        <ele>1295.6</ele>
        <time>2022-07-19T14:42:44Z</time>
      </trkpt>
      <trkpt lat="44.4637" lon="6.7508">
        <ele>1295.6</ele>
        <time>2022-07-19T14:42:45Z</time>
      </trkpt>
      <trkpt lat="44.46374" lon="6.75086">
        <ele>1295.6</ele>
        <time>2022-07-19T14:42:46Z</time>
      </trkpt>
      <trkpt lat="44.46378" lon="6.75091">
        <ele>1295.6</ele>
        <time>2022-07-19T14:42:47Z</time>
      </trkpt>
      <trkpt lat="44.46382" lon="6.75096">
        <ele>1295.6</ele>
        <time>2022-07-19T14:42:48Z</time>
      </trkpt>
      <trkpt lat="44.46386" lon="6.75101">
        <ele>1295.6</ele>
        <time>2022-07-19T14:42:49Z</time>
      </trkpt>
      <trkpt lat="44.46389" lon="6.75106">
        <ele>1295.6</ele>
        <time>2022-07-19T14:42:50Z</time>
      </trkpt>
      <trkpt lat="44.46393" lon="6.75111">
        <ele>1295.6</ele>
        <time>2022-07-19T14:42:51Z</time>
      </trkpt>
      <trkpt lat="44.46397" lon="6.75116">
        <ele>1295.6</ele>
        <time>2022-07-19T14:42:52Z</time>
      </trkpt>
      <trkpt lat="44.46401" lon="6.75121">
        <ele>1295.6</ele>
        <time>2022-07-19T14:42:53Z</time>
      </trkpt>
      <trkpt lat="44.46405" lon="6.75126">
        <ele>1295.6</ele>
        <time>2022-07-19T14:42:54Z</time>
      </trkpt>
      <trkpt lat="44.4641" lon="6.75131">
        <ele>1295.6</ele>
        <time>2022-07-19T14:42:55Z</time>
      </trkpt>
      <trkpt lat="44.46414" lon="6.75137">
        <ele>1295.6</ele>
        <time>2022-07-19T14:42:56Z</time>
      </trkpt>
      <trkpt lat="44.46418" lon="6.75142">
        <ele>1295.6</ele>
        <time>2022-07-19T14:42:57Z</time>
      </trkpt>
      <trkpt lat="44.46422" lon="6.75148">
        <ele>1295.6</ele>
        <time>2022-07-19T14:42:58Z</time>
      </trkpt>
      <trkpt lat="44.46427" lon="6.75153">
        <ele>1295.6</ele>
        <time>2022-07-19T14:42:59Z</time>
      </trkpt>
      <trkpt lat="44.46432" lon="6.75158">
        <ele>1295.6</ele>
        <time>2022-07-19T14:43:00Z</time>
      </trkpt>
      <trkpt lat="44.46436" lon="6.75164">
        <ele>1295.6</ele>
        <time>2022-07-19T14:43:01Z</time>
      </trkpt>
      <trkpt lat="44.46441" lon="6.75169">
        <ele>1295.6</ele>
        <time>2022-07-19T14:43:02Z</time>
      </trkpt>
      <trkpt lat="44.46445" lon="6.75175">
        <ele>1295.6</ele>
        <time>2022-07-19T14:43:03Z</time>
      </trkpt>
      <trkpt lat="44.4645" lon="6.7518">
        <ele>1295.6</ele>
        <time>2022-07-19T14:43:04Z</time>
      </trkpt>
      <trkpt lat="44.46455" lon="6.75186">
        <ele>1295.6</ele>
        <time>2022-07-19T14:43:05Z</time>
      </trkpt>
      <trkpt lat="44.4646" lon="6.75192">
        <ele>1295.6</ele>
        <time>2022-07-19T14:43:06Z</time>
      </trkpt>
      <trkpt lat="44.46465" lon="6.75199">
        <ele>1295.6</ele>
        <time>2022-07-19T14:43:07Z</time>
      </trkpt>
      <trkpt lat="44.46469" lon="6.75205">
        <ele>1295.6</ele>
        <time>2022-07-19T14:43:08Z</time>
      </trkpt>
      <trkpt lat="44.46474" lon="6.75212">
        <ele>1295.6</ele>
        <time>2022-07-19T14:43:09Z</time>
      </trkpt>
      <trkpt lat="44.46478" lon="6.75219">
        <ele>1295.6</ele>
        <time>2022-07-19T14:43:10Z</time>
      </trkpt>
      <trkpt lat="44.46482" lon="6.75226">
        <ele>1295.6</ele>
        <time>2022-07-19T14:43:11Z</time>
      </trkpt>
      <trkpt lat="44.46486" lon="6.75233">
        <ele>1295.4</ele>
        <time>2022-07-19T14:43:12Z</time>
      </trkpt>
      <trkpt lat="44.46489" lon="6.75239">
        <ele>1295.4</ele>
        <time>2022-07-19T14:43:13Z</time>
      </trkpt>
      <trkpt lat="44.46493" lon="6.75246">
        <ele>1295.4</ele>
        <time>2022-07-19T14:43:14Z</time>
      </trkpt>
      <trkpt lat="44.46496" lon="6.75253">
        <ele>1295.4</ele>
        <time>2022-07-19T14:43:15Z</time>
      </trkpt>
      <trkpt lat="44.46499" lon="6.7526">
        <ele>1295.4</ele>
        <time>2022-07-19T14:43:16Z</time>
      </trkpt>
      <trkpt lat="44.46503" lon="6.75267">
        <ele>1295.2</ele>
        <time>2022-07-19T14:43:17Z</time>
      </trkpt>
      <trkpt lat="44.46506" lon="6.75273">
        <ele>1295.2</ele>
        <time>2022-07-19T14:43:18Z</time>
      </trkpt>
      <trkpt lat="44.4651" lon="6.7528">
        <ele>1295.2</ele>
        <time>2022-07-19T14:43:19Z</time>
      </trkpt>
      <trkpt lat="44.46513" lon="6.75287">
        <ele>1295.2</ele>
        <time>2022-07-19T14:43:20Z</time>
      </trkpt>
      <trkpt lat="44.46516" lon="6.75294">
        <ele>1295.2</ele>
        <time>2022-07-19T14:43:21Z</time>
      </trkpt>
      <trkpt lat="44.46518" lon="6.75302">
        <ele>1294.8</ele>
        <time>2022-07-19T14:43:22Z</time>
      </trkpt>
      <trkpt lat="44.46521" lon="6.75309">
        <ele>1294.8</ele>
        <time>2022-07-19T14:43:23Z</time>
      </trkpt>
      <trkpt lat="44.46523" lon="6.75316">
        <ele>1294.8</ele>
        <time>2022-07-19T14:43:24Z</time>
      </trkpt>
      <trkpt lat="44.46525" lon="6.75324">
        <ele>1294.8</ele>
        <time>2022-07-19T14:43:25Z</time>
      </trkpt>
      <trkpt lat="44.46527" lon="6.75332">
        <ele>1294.6</ele>
        <time>2022-07-19T14:43:26Z</time>
      </trkpt>
      <trkpt lat="44.46528" lon="6.75341">
        <ele>1294.6</ele>
        <time>2022-07-19T14:43:27Z</time>
      </trkpt>
      <trkpt lat="44.46529" lon="6.7535">
        <ele>1294.6</ele>
        <time>2022-07-19T14:43:28Z</time>
      </trkpt>
      <trkpt lat="44.4653" lon="6.75359">
        <ele>1294.6</ele>
        <time>2022-07-19T14:43:29Z</time>
      </trkpt>
      <trkpt lat="44.4653" lon="6.75368">
        <ele>1294.4</ele>
        <time>2022-07-19T14:43:30Z</time>
      </trkpt>
      <trkpt lat="44.4653" lon="6.75377">
        <ele>1294.4</ele>
        <time>2022-07-19T14:43:31Z</time>
      </trkpt>
      <trkpt lat="44.4653" lon="6.75386">
        <ele>1294.4</ele>
        <time>2022-07-19T14:43:32Z</time>
      </trkpt>
      <trkpt lat="44.46529" lon="6.75395">
        <ele>1294.4</ele>
        <time>2022-07-19T14:43:33Z</time>
      </trkpt>
      <trkpt lat="44.46528" lon="6.75404">
        <ele>1294.4</ele>
        <time>2022-07-19T14:43:34Z</time>
      </trkpt>
      <trkpt lat="44.46528" lon="6.75413">
        <ele>1294.4</ele>
        <time>2022-07-19T14:43:35Z</time>
      </trkpt>
      <trkpt lat="44.46527" lon="6.75421">
        <ele>1294.4</ele>
        <time>2022-07-19T14:43:36Z</time>
      </trkpt>
      <trkpt lat="44.46526" lon="6.7543">
        <ele>1294.6</ele>
        <time>2022-07-19T14:43:37Z</time>
      </trkpt>
      <trkpt lat="44.46524" lon="6.75438">
        <ele>1294.6</ele>
        <time>2022-07-19T14:43:38Z</time>
      </trkpt>
      <trkpt lat="44.46523" lon="6.75445">
        <ele>1294.8</ele>
        <time>2022-07-19T14:43:39Z</time>
      </trkpt>
      <trkpt lat="44.46522" lon="6.75453">
        <ele>1295.2</ele>
        <time>2022-07-19T14:43:40Z</time>
      </trkpt>
      <trkpt lat="44.46521" lon="6.75461">
        <ele>1295.2</ele>
        <time>2022-07-19T14:43:41Z</time>
      </trkpt>
      <trkpt lat="44.4652" lon="6.75469">
        <ele>1295.4</ele>
        <time>2022-07-19T14:43:42Z</time>
      </trkpt>
      <trkpt lat="44.46519" lon="6.75476">
        <ele>1295.4</ele>
        <time>2022-07-19T14:43:43Z</time>
      </trkpt>
      <trkpt lat="44.46518" lon="6.75484">
        <ele>1295.6</ele>
        <time>2022-07-19T14:43:44Z</time>
      </trkpt>
      <trkpt lat="44.46517" lon="6.75491">
        <ele>1295.6</ele>
        <time>2022-07-19T14:43:45Z</time>
      </trkpt>
      <trkpt lat="44.46515" lon="6.75499">
        <ele>1295.6</ele>
        <time>2022-07-19T14:43:46Z</time>
      </trkpt>
      <trkpt lat="44.46514" lon="6.75506">
        <ele>1295.6</ele>
        <time>2022-07-19T14:43:47Z</time>
      </trkpt>
      <trkpt lat="44.46513" lon="6.75514">
        <ele>1295.8</ele>
        <time>2022-07-19T14:43:48Z</time>
      </trkpt>
      <trkpt lat="44.46512" lon="6.75522">
        <ele>1295.8</ele>
        <time>2022-07-19T14:43:49Z</time>
      </trkpt>
      <trkpt lat="44.46511" lon="6.75529">
        <ele>1295.8</ele>
        <time>2022-07-19T14:43:50Z</time>
      </trkpt>
      <trkpt lat="44.4651" lon="6.75537">
        <ele>1295.8</ele>
        <time>2022-07-19T14:43:51Z</time>
      </trkpt>
      <trkpt lat="44.46509" lon="6.75545">
        <ele>1295.8</ele>
        <time>2022-07-19T14:43:52Z</time>
      </trkpt>
      <trkpt lat="44.46508" lon="6.75552">
        <ele>1296.2</ele>
        <time>2022-07-19T14:43:53Z</time>
      </trkpt>
      <trkpt lat="44.46506" lon="6.7556">
        <ele>1296.2</ele>
        <time>2022-07-19T14:43:54Z</time>
      </trkpt>
      <trkpt lat="44.46505" lon="6.75568">
        <ele>1296.4</ele>
        <time>2022-07-19T14:43:55Z</time>
      </trkpt>
      <trkpt lat="44.46504" lon="6.75576">
        <ele>1296.4</ele>
        <time>2022-07-19T14:43:56Z</time>
      </trkpt>
      <trkpt lat="44.46503" lon="6.75584">
        <ele>1296.4</ele>
        <time>2022-07-19T14:43:57Z</time>
      </trkpt>
      <trkpt lat="44.46502" lon="6.75592">
        <ele>1296.4</ele>
        <time>2022-07-19T14:43:58Z</time>
      </trkpt>
      <trkpt lat="44.465" lon="6.756">
        <ele>1296.4</ele>
        <time>2022-07-19T14:43:59Z</time>
      </trkpt>
      <trkpt lat="44.46499" lon="6.75609">
        <ele>1296.4</ele>
        <time>2022-07-19T14:44:00Z</time>
      </trkpt>
      <trkpt lat="44.46498" lon="6.75617">
        <ele>1296.4</ele>
        <time>2022-07-19T14:44:01Z</time>
      </trkpt>
      <trkpt lat="44.46497" lon="6.75625">
        <ele>1296.4</ele>
        <time>2022-07-19T14:44:02Z</time>
      </trkpt>
      <trkpt lat="44.46496" lon="6.75634">
        <ele>1296.4</ele>
        <time>2022-07-19T14:44:03Z</time>
      </trkpt>
      <trkpt lat="44.46495" lon="6.75643">
        <ele>1296.4</ele>
        <time>2022-07-19T14:44:04Z</time>
      </trkpt>
      <trkpt lat="44.46495" lon="6.75652">
        <ele>1296.4</ele>
        <time>2022-07-19T14:44:05Z</time>
      </trkpt>
      <trkpt lat="44.46496" lon="6.75661">
        <ele>1296.4</ele>
        <time>2022-07-19T14:44:06Z</time>
      </trkpt>
      <trkpt lat="44.46496" lon="6.7567">
        <ele>1296</ele>
        <time>2022-07-19T14:44:07Z</time>
      </trkpt>
      <trkpt lat="44.46497" lon="6.75679">
        <ele>1296</ele>
        <time>2022-07-19T14:44:08Z</time>
      </trkpt>
      <trkpt lat="44.46498" lon="6.75687">
        <ele>1295.8</ele>
        <time>2022-07-19T14:44:09Z</time>
      </trkpt>
      <trkpt lat="44.46499" lon="6.75695">
        <ele>1295.8</ele>
        <time>2022-07-19T14:44:10Z</time>
      </trkpt>
      <trkpt lat="44.46501" lon="6.75703">
        <ele>1295.8</ele>
        <time>2022-07-19T14:44:11Z</time>
      </trkpt>
      <trkpt lat="44.46503" lon="6.75711">
        <ele>1295.8</ele>
        <time>2022-07-19T14:44:12Z</time>
      </trkpt>
      <trkpt lat="44.46505" lon="6.75719">
        <ele>1295.6</ele>
        <time>2022-07-19T14:44:13Z</time>
      </trkpt>
      <trkpt lat="44.46507" lon="6.75726">
        <ele>1295.6</ele>
        <time>2022-07-19T14:44:14Z</time>
      </trkpt>
      <trkpt lat="44.4651" lon="6.75734">
        <ele>1295.6</ele>
        <time>2022-07-19T14:44:15Z</time>
      </trkpt>
      <trkpt lat="44.46513" lon="6.75741">
        <ele>1295.6</ele>
        <time>2022-07-19T14:44:16Z</time>
      </trkpt>
      <trkpt lat="44.46517" lon="6.75749">
        <ele>1295.2</ele>
        <time>2022-07-19T14:44:17Z</time>
      </trkpt>
      <trkpt lat="44.4652" lon="6.75756">
        <ele>1295.2</ele>
        <time>2022-07-19T14:44:18Z</time>
      </trkpt>
      <trkpt lat="44.46524" lon="6.75764">
        <ele>1295.2</ele>
        <time>2022-07-19T14:44:19Z</time>
      </trkpt>
      <trkpt lat="44.46528" lon="6.75771">
        <ele>1295.2</ele>
        <time>2022-07-19T14:44:20Z</time>
      </trkpt>
      <trkpt lat="44.46532" lon="6.75779">
        <ele>1295.2</ele>
        <time>2022-07-19T14:44:21Z</time>
      </trkpt>
      <trkpt lat="44.46535" lon="6.75786">
        <ele>1295.2</ele>
        <time>2022-07-19T14:44:22Z</time>
      </trkpt>
      <trkpt lat="44.46539" lon="6.75793">
        <ele>1295.2</ele>
        <time>2022-07-19T14:44:23Z</time>
      </trkpt>
      <trkpt lat="44.46542" lon="6.75799">
        <ele>1295.2</ele>
        <time>2022-07-19T14:44:24Z</time>
      </trkpt>
      <trkpt lat="44.46545" lon="6.75806">
        <ele>1295.2</ele>
        <time>2022-07-19T14:44:25Z</time>
      </trkpt>
      <trkpt lat="44.46548" lon="6.75812">
        <ele>1295.2</ele>
        <time>2022-07-19T14:44:26Z</time>
      </trkpt>
      <trkpt lat="44.46552" lon="6.75818">
        <ele>1295.2</ele>
        <time>2022-07-19T14:44:27Z</time>
      </trkpt>
      <trkpt lat="44.46555" lon="6.75824">
        <ele>1295.2</ele>
        <time>2022-07-19T14:44:28Z</time>
      </trkpt>
      <trkpt lat="44.46557" lon="6.75829">
        <ele>1295.2</ele>
        <time>2022-07-19T14:44:29Z</time>
      </trkpt>
      <trkpt lat="44.4656" lon="6.75835">
        <ele>1295.6</ele>
        <time>2022-07-19T14:44:30Z</time>
      </trkpt>
      <trkpt lat="44.46563" lon="6.7584">
        <ele>1295.6</ele>
        <time>2022-07-19T14:44:31Z</time>
      </trkpt>
      <trkpt lat="44.46565" lon="6.75846">
        <ele>1295.8</ele>
        <time>2022-07-19T14:44:32Z</time>
      </trkpt>
      <trkpt lat="44.46568" lon="6.75852">
        <ele>1295.8</ele>
        <time>2022-07-19T14:44:33Z</time>
      </trkpt>
      <trkpt lat="44.46571" lon="6.75858">
        <ele>1295.8</ele>
        <time>2022-07-19T14:44:34Z</time>
      </trkpt>
      <trkpt lat="44.46574" lon="6.75863">
        <ele>1296.2</ele>
        <time>2022-07-19T14:44:35Z</time>
      </trkpt>
      <trkpt lat="44.46577" lon="6.75869">
        <ele>1296.2</ele>
        <time>2022-07-19T14:44:36Z</time>
      </trkpt>
      <trkpt lat="44.4658" lon="6.75875">
        <ele>1296.4</ele>
        <time>2022-07-19T14:44:37Z</time>
      </trkpt>
      <trkpt lat="44.46583" lon="6.7588">
        <ele>1296.4</ele>
        <time>2022-07-19T14:44:38Z</time>
      </trkpt>
      <trkpt lat="44.46585" lon="6.75886">
        <ele>1296.4</ele>
        <time>2022-07-19T14:44:39Z</time>
      </trkpt>
      <trkpt lat="44.46588" lon="6.75892">
        <ele>1296.6</ele>
        <time>2022-07-19T14:44:40Z</time>
      </trkpt>
      <trkpt lat="44.46591" lon="6.75897">
        <ele>1297</ele>
        <time>2022-07-19T14:44:42Z</time>
      </trkpt>
      <trkpt lat="44.46594" lon="6.75903">
        <ele>1297</ele>
        <time>2022-07-19T14:44:43Z</time>
      </trkpt>
      <trkpt lat="44.46596" lon="6.75909">
        <ele>1297</ele>
        <time>2022-07-19T14:44:44Z</time>
      </trkpt>
      <trkpt lat="44.46599" lon="6.75914">
        <ele>1297</ele>
        <time>2022-07-19T14:44:45Z</time>
      </trkpt>
      <trkpt lat="44.46601" lon="6.7592">
        <ele>1297.2</ele>
        <time>2022-07-19T14:44:46Z</time>
      </trkpt>
      <trkpt lat="44.46604" lon="6.75926">
        <ele>1297.2</ele>
        <time>2022-07-19T14:44:47Z</time>
      </trkpt>
      <trkpt lat="44.46607" lon="6.75931">
        <ele>1297.2</ele>
        <time>2022-07-19T14:44:48Z</time>
      </trkpt>
      <trkpt lat="44.4661" lon="6.75937">
        <ele>1297.4</ele>
        <time>2022-07-19T14:44:49Z</time>
      </trkpt>
      <trkpt lat="44.46612" lon="6.75942">
        <ele>1297.4</ele>
        <time>2022-07-19T14:44:50Z</time>
      </trkpt>
      <trkpt lat="44.46615" lon="6.75947">
        <ele>1297.8</ele>
        <time>2022-07-19T14:44:51Z</time>
      </trkpt>
      <trkpt lat="44.46618" lon="6.75952">
        <ele>1297.8</ele>
        <time>2022-07-19T14:44:52Z</time>
      </trkpt>
      <trkpt lat="44.46621" lon="6.75957">
        <ele>1298</ele>
        <time>2022-07-19T14:44:53Z</time>
      </trkpt>
      <trkpt lat="44.46624" lon="6.75962">
        <ele>1298</ele>
        <time>2022-07-19T14:44:54Z</time>
      </trkpt>
      <trkpt lat="44.46626" lon="6.75967">
        <ele>1298</ele>
        <time>2022-07-19T14:44:55Z</time>
      </trkpt>
      <trkpt lat="44.46629" lon="6.75972">
        <ele>1298.4</ele>
        <time>2022-07-19T14:44:56Z</time>
      </trkpt>
      <trkpt lat="44.46632" lon="6.75977">
        <ele>1298.4</ele>
        <time>2022-07-19T14:44:57Z</time>
      </trkpt>
      <trkpt lat="44.46635" lon="6.75981">
        <ele>1298.4</ele>
        <time>2022-07-19T14:44:58Z</time>
      </trkpt>
      <trkpt lat="44.46638" lon="6.75986">
        <ele>1298.6</ele>
        <time>2022-07-19T14:44:59Z</time>
      </trkpt>
      <trkpt lat="44.46641" lon="6.7599">
        <ele>1298.6</ele>
        <time>2022-07-19T14:45:00Z</time>
      </trkpt>
      <trkpt lat="44.46645" lon="6.75995">
        <ele>1298.6</ele>
        <time>2022-07-19T14:45:01Z</time>
      </trkpt>
      <trkpt lat="44.46647" lon="6.75999">
        <ele>1298.6</ele>
        <time>2022-07-19T14:45:02Z</time>
      </trkpt>
      <trkpt lat="44.4665" lon="6.76004">
        <ele>1298.6</ele>
        <time>2022-07-19T14:45:03Z</time>
      </trkpt>
      <trkpt lat="44.46653" lon="6.76009">
        <ele>1298.8</ele>
        <time>2022-07-19T14:45:04Z</time>
      </trkpt>
      <trkpt lat="44.46656" lon="6.76014">
        <ele>1298.8</ele>
        <time>2022-07-19T14:45:05Z</time>
      </trkpt>
      <trkpt lat="44.46659" lon="6.76019">
        <ele>1298.8</ele>
        <time>2022-07-19T14:45:06Z</time>
      </trkpt>
      <trkpt lat="44.46662" lon="6.76024">
        <ele>1298.8</ele>
        <time>2022-07-19T14:45:07Z</time>
      </trkpt>
      <trkpt lat="44.46665" lon="6.76029">
        <ele>1298.8</ele>
        <time>2022-07-19T14:45:08Z</time>
      </trkpt>
      <trkpt lat="44.46668" lon="6.76033">
        <ele>1298.8</ele>
        <time>2022-07-19T14:45:09Z</time>
      </trkpt>
      <trkpt lat="44.4667" lon="6.76038">
        <ele>1298.8</ele>
        <time>2022-07-19T14:45:10Z</time>
      </trkpt>
      <trkpt lat="44.46673" lon="6.76043">
        <ele>1299</ele>
        <time>2022-07-19T14:45:11Z</time>
      </trkpt>
      <trkpt lat="44.46676" lon="6.76049">
        <ele>1299</ele>
        <time>2022-07-19T14:45:12Z</time>
      </trkpt>
      <trkpt lat="44.46678" lon="6.76054">
        <ele>1299</ele>
        <time>2022-07-19T14:45:13Z</time>
      </trkpt>
      <trkpt lat="44.46681" lon="6.76059">
        <ele>1299.2</ele>
        <time>2022-07-19T14:45:14Z</time>
      </trkpt>
      <trkpt lat="44.46683" lon="6.76065">
        <ele>1299.2</ele>
        <time>2022-07-19T14:45:15Z</time>
      </trkpt>
      <trkpt lat="44.46686" lon="6.7607">
        <ele>1299.6</ele>
        <time>2022-07-19T14:45:16Z</time>
      </trkpt>
      <trkpt lat="44.46688" lon="6.76075">
        <ele>1299.6</ele>
        <time>2022-07-19T14:45:17Z</time>
      </trkpt>
      <trkpt lat="44.46691" lon="6.76081">
        <ele>1299.6</ele>
        <time>2022-07-19T14:45:18Z</time>
      </trkpt>
      <trkpt lat="44.46693" lon="6.76087">
        <ele>1300</ele>
        <time>2022-07-19T14:45:19Z</time>
      </trkpt>
      <trkpt lat="44.46696" lon="6.76093">
        <ele>1300</ele>
        <time>2022-07-19T14:45:20Z</time>
      </trkpt>
      <trkpt lat="44.46698" lon="6.76098">
        <ele>1300.2</ele>
        <time>2022-07-19T14:45:21Z</time>
      </trkpt>
      <trkpt lat="44.46701" lon="6.76104">
        <ele>1300.2</ele>
        <time>2022-07-19T14:45:22Z</time>
      </trkpt>
      <trkpt lat="44.46703" lon="6.7611">
        <ele>1300.4</ele>
        <time>2022-07-19T14:45:23Z</time>
      </trkpt>
      <trkpt lat="44.46706" lon="6.76115">
        <ele>1300.4</ele>
        <time>2022-07-19T14:45:24Z</time>
      </trkpt>
      <trkpt lat="44.46708" lon="6.76121">
        <ele>1300.8</ele>
        <time>2022-07-19T14:45:25Z</time>
      </trkpt>
      <trkpt lat="44.46711" lon="6.76126">
        <ele>1300.8</ele>
        <time>2022-07-19T14:45:26Z</time>
      </trkpt>
      <trkpt lat="44.46713" lon="6.76132">
        <ele>1300.8</ele>
        <time>2022-07-19T14:45:27Z</time>
      </trkpt>
      <trkpt lat="44.46716" lon="6.76138">
        <ele>1301</ele>
        <time>2022-07-19T14:45:28Z</time>
      </trkpt>
      <trkpt lat="44.46719" lon="6.76143">
        <ele>1301</ele>
        <time>2022-07-19T14:45:29Z</time>
      </trkpt>
      <trkpt lat="44.46722" lon="6.76148">
        <ele>1301.2</ele>
        <time>2022-07-19T14:45:30Z</time>
      </trkpt>
      <trkpt lat="44.46724" lon="6.76154">
        <ele>1301.2</ele>
        <time>2022-07-19T14:45:31Z</time>
      </trkpt>
      <trkpt lat="44.46727" lon="6.76159">
        <ele>1301.4</ele>
        <time>2022-07-19T14:45:32Z</time>
      </trkpt>
      <trkpt lat="44.4673" lon="6.76164">
        <ele>1301.4</ele>
        <time>2022-07-19T14:45:33Z</time>
      </trkpt>
      <trkpt lat="44.46734" lon="6.76169">
        <ele>1301.6</ele>
        <time>2022-07-19T14:45:34Z</time>
      </trkpt>
      <trkpt lat="44.46737" lon="6.76173">
        <ele>1301.6</ele>
        <time>2022-07-19T14:45:35Z</time>
      </trkpt>
      <trkpt lat="44.46741" lon="6.76177">
        <ele>1301.8</ele>
        <time>2022-07-19T14:45:36Z</time>
      </trkpt>
      <trkpt lat="44.46745" lon="6.76181">
        <ele>1301.8</ele>
        <time>2022-07-19T14:45:37Z</time>
      </trkpt>
      <trkpt lat="44.46749" lon="6.76184">
        <ele>1301.8</ele>
        <time>2022-07-19T14:45:38Z</time>
      </trkpt>
      <trkpt lat="44.46753" lon="6.76187">
        <ele>1301.8</ele>
        <time>2022-07-19T14:45:39Z</time>
      </trkpt>
      <trkpt lat="44.46757" lon="6.7619">
        <ele>1302</ele>
        <time>2022-07-19T14:45:40Z</time>
      </trkpt>
      <trkpt lat="44.46762" lon="6.76193">
        <ele>1302</ele>
        <time>2022-07-19T14:45:41Z</time>
      </trkpt>
      <trkpt lat="44.46766" lon="6.76195">
        <ele>1302</ele>
        <time>2022-07-19T14:45:42Z</time>
      </trkpt>
      <trkpt lat="44.46771" lon="6.76198">
        <ele>1302.4</ele>
        <time>2022-07-19T14:45:43Z</time>
      </trkpt>
      <trkpt lat="44.46775" lon="6.762">
        <ele>1302.4</ele>
        <time>2022-07-19T14:45:44Z</time>
      </trkpt>
      <trkpt lat="44.4678" lon="6.76202">
        <ele>1302.4</ele>
        <time>2022-07-19T14:45:45Z</time>
      </trkpt>
      <trkpt lat="44.46785" lon="6.76204">
        <ele>1302.6</ele>
        <time>2022-07-19T14:45:46Z</time>
      </trkpt>
      <trkpt lat="44.46789" lon="6.76207">
        <ele>1302.6</ele>
        <time>2022-07-19T14:45:47Z</time>
      </trkpt>
      <trkpt lat="44.46794" lon="6.76209">
        <ele>1302.6</ele>
        <time>2022-07-19T14:45:48Z</time>
      </trkpt>
      <trkpt lat="44.46798" lon="6.76211">
        <ele>1302.8</ele>
        <time>2022-07-19T14:45:49Z</time>
      </trkpt>
      <trkpt lat="44.46803" lon="6.76213">
        <ele>1302.8</ele>
        <time>2022-07-19T14:45:50Z</time>
      </trkpt>
      <trkpt lat="44.46807" lon="6.76215">
        <ele>1302.8</ele>
        <time>2022-07-19T14:45:51Z</time>
      </trkpt>
      <trkpt lat="44.46812" lon="6.76217">
        <ele>1303</ele>
        <time>2022-07-19T14:45:52Z</time>
      </trkpt>
      <trkpt lat="44.46816" lon="6.76219">
        <ele>1303.2</ele>
        <time>2022-07-19T14:45:53Z</time>
      </trkpt>
      <trkpt lat="44.46821" lon="6.76221">
        <ele>1303.2</ele>
        <time>2022-07-19T14:45:54Z</time>
      </trkpt>
      <trkpt lat="44.46825" lon="6.76223">
        <ele>1303.4</ele>
        <time>2022-07-19T14:45:55Z</time>
      </trkpt>
      <trkpt lat="44.46829" lon="6.76225">
        <ele>1303.4</ele>
        <time>2022-07-19T14:45:56Z</time>
      </trkpt>
      <trkpt lat="44.46834" lon="6.76227">
        <ele>1303.4</ele>
        <time>2022-07-19T14:45:57Z</time>
      </trkpt>
      <trkpt lat="44.46842" lon="6.76231">
        <ele>1303.8</ele>
        <time>2022-07-19T14:45:58Z</time>
      </trkpt>
      <trkpt lat="44.46847" lon="6.76234">
        <ele>1303.8</ele>
        <time>2022-07-19T14:45:59Z</time>
      </trkpt>
      <trkpt lat="44.46851" lon="6.76236">
        <ele>1303.8</ele>
        <time>2022-07-19T14:46:00Z</time>
      </trkpt>
      <trkpt lat="44.46856" lon="6.76238">
        <ele>1303.8</ele>
        <time>2022-07-19T14:46:01Z</time>
      </trkpt>
      <trkpt lat="44.46861" lon="6.7624">
        <ele>1303.8</ele>
        <time>2022-07-19T14:46:02Z</time>
      </trkpt>
      <trkpt lat="44.46865" lon="6.76242">
        <ele>1304</ele>
        <time>2022-07-19T14:46:03Z</time>
      </trkpt>
      <trkpt lat="44.46869" lon="6.76244">
        <ele>1304</ele>
        <time>2022-07-19T14:46:04Z</time>
      </trkpt>
      <trkpt lat="44.46874" lon="6.76246">
        <ele>1304.2</ele>
        <time>2022-07-19T14:46:05Z</time>
      </trkpt>
      <trkpt lat="44.46878" lon="6.76249">
        <ele>1304.2</ele>
        <time>2022-07-19T14:46:06Z</time>
      </trkpt>
      <trkpt lat="44.46883" lon="6.76251">
        <ele>1304.2</ele>
        <time>2022-07-19T14:46:07Z</time>
      </trkpt>
      <trkpt lat="44.46887" lon="6.76253">
        <ele>1304.6</ele>
        <time>2022-07-19T14:46:08Z</time>
      </trkpt>
      <trkpt lat="44.46892" lon="6.76255">
        <ele>1304.6</ele>
        <time>2022-07-19T14:46:09Z</time>
      </trkpt>
      <trkpt lat="44.46896" lon="6.76258">
        <ele>1304.6</ele>
        <time>2022-07-19T14:46:10Z</time>
      </trkpt>
      <trkpt lat="44.469" lon="6.76259">
        <ele>1304.8</ele>
        <time>2022-07-19T14:46:11Z</time>
      </trkpt>
      <trkpt lat="44.46905" lon="6.76262">
        <ele>1304.8</ele>
        <time>2022-07-19T14:46:12Z</time>
      </trkpt>
      <trkpt lat="44.46909" lon="6.76264">
        <ele>1305</ele>
        <time>2022-07-19T14:46:13Z</time>
      </trkpt>
      <trkpt lat="44.46914" lon="6.76266">
        <ele>1305</ele>
        <time>2022-07-19T14:46:14Z</time>
      </trkpt>
      <trkpt lat="44.46918" lon="6.76268">
        <ele>1305.4</ele>
        <time>2022-07-19T14:46:15Z</time>
      </trkpt>
      <trkpt lat="44.46923" lon="6.7627">
        <ele>1305.4</ele>
        <time>2022-07-19T14:46:16Z</time>
      </trkpt>
      <trkpt lat="44.46927" lon="6.76272">
        <ele>1305.4</ele>
        <time>2022-07-19T14:46:17Z</time>
      </trkpt>
      <trkpt lat="44.46932" lon="6.76274">
        <ele>1305.6</ele>
        <time>2022-07-19T14:46:18Z</time>
      </trkpt>
      <trkpt lat="44.46936" lon="6.76276">
        <ele>1305.6</ele>
        <time>2022-07-19T14:46:19Z</time>
      </trkpt>
      <trkpt lat="44.46941" lon="6.76278">
        <ele>1305.6</ele>
        <time>2022-07-19T14:46:20Z</time>
      </trkpt>
      <trkpt lat="44.46945" lon="6.7628">
        <ele>1306</ele>
        <time>2022-07-19T14:46:21Z</time>
      </trkpt>
      <trkpt lat="44.46949" lon="6.76282">
        <ele>1306</ele>
        <time>2022-07-19T14:46:22Z</time>
      </trkpt>
      <trkpt lat="44.46954" lon="6.76285">
        <ele>1306.2</ele>
        <time>2022-07-19T14:46:23Z</time>
      </trkpt>
      <trkpt lat="44.46958" lon="6.76287">
        <ele>1306.2</ele>
        <time>2022-07-19T14:46:24Z</time>
      </trkpt>
      <trkpt lat="44.46962" lon="6.76289">
        <ele>1306.2</ele>
        <time>2022-07-19T14:46:25Z</time>
      </trkpt>
      <trkpt lat="44.46967" lon="6.76292">
        <ele>1306.4</ele>
        <time>2022-07-19T14:46:26Z</time>
      </trkpt>
      <trkpt lat="44.46971" lon="6.76295">
        <ele>1306.4</ele>
        <time>2022-07-19T14:46:27Z</time>
      </trkpt>
      <trkpt lat="44.46975" lon="6.76297">
        <ele>1306.4</ele>
        <time>2022-07-19T14:46:28Z</time>
      </trkpt>
      <trkpt lat="44.4698" lon="6.76299">
        <ele>1306.6</ele>
        <time>2022-07-19T14:46:29Z</time>
      </trkpt>
      <trkpt lat="44.46984" lon="6.76302">
        <ele>1306.6</ele>
        <time>2022-07-19T14:46:30Z</time>
      </trkpt>
      <trkpt lat="44.46989" lon="6.76304">
        <ele>1306.8</ele>
        <time>2022-07-19T14:46:31Z</time>
      </trkpt>
      <trkpt lat="44.46993" lon="6.76307">
        <ele>1306.8</ele>
        <time>2022-07-19T14:46:32Z</time>
      </trkpt>
      <trkpt lat="44.46998" lon="6.76309">
        <ele>1306.8</ele>
        <time>2022-07-19T14:46:33Z</time>
      </trkpt>
      <trkpt lat="44.47002" lon="6.76311">
        <ele>1307</ele>
        <time>2022-07-19T14:46:34Z</time>
      </trkpt>
      <trkpt lat="44.47007" lon="6.76313">
        <ele>1307</ele>
        <time>2022-07-19T14:46:35Z</time>
      </trkpt>
      <trkpt lat="44.47011" lon="6.76316">
        <ele>1307</ele>
        <time>2022-07-19T14:46:36Z</time>
      </trkpt>
      <trkpt lat="44.47015" lon="6.76318">
        <ele>1307.4</ele>
        <time>2022-07-19T14:46:37Z</time>
      </trkpt>
      <trkpt lat="44.47019" lon="6.7632">
        <ele>1307.4</ele>
        <time>2022-07-19T14:46:38Z</time>
      </trkpt>
      <trkpt lat="44.47024" lon="6.76322">
        <ele>1307.4</ele>
        <time>2022-07-19T14:46:39Z</time>
      </trkpt>
      <trkpt lat="44.47028" lon="6.76324">
        <ele>1307.8</ele>
        <time>2022-07-19T14:46:40Z</time>
      </trkpt>
      <trkpt lat="44.47032" lon="6.76327">
        <ele>1307.8</ele>
        <time>2022-07-19T14:46:41Z</time>
      </trkpt>
      <trkpt lat="44.47036" lon="6.76329">
        <ele>1308</ele>
        <time>2022-07-19T14:46:42Z</time>
      </trkpt>
      <trkpt lat="44.4704" lon="6.76332">
        <ele>1308</ele>
        <time>2022-07-19T14:46:43Z</time>
      </trkpt>
      <trkpt lat="44.47044" lon="6.76334">
        <ele>1308.4</ele>
        <time>2022-07-19T14:46:44Z</time>
      </trkpt>
      <trkpt lat="44.47048" lon="6.76337">
        <ele>1308.4</ele>
        <time>2022-07-19T14:46:45Z</time>
      </trkpt>
      <trkpt lat="44.47052" lon="6.7634">
        <ele>1308.6</ele>
        <time>2022-07-19T14:46:46Z</time>
      </trkpt>
      <trkpt lat="44.47055" lon="6.76344">
        <ele>1308.6</ele>
        <time>2022-07-19T14:46:47Z</time>
      </trkpt>
      <trkpt lat="44.47059" lon="6.76347">
        <ele>1308.6</ele>
        <time>2022-07-19T14:46:48Z</time>
      </trkpt>
      <trkpt lat="44.47063" lon="6.7635">
        <ele>1308.8</ele>
        <time>2022-07-19T14:46:49Z</time>
      </trkpt>
      <trkpt lat="44.47066" lon="6.76353">
        <ele>1308.8</ele>
        <time>2022-07-19T14:46:50Z</time>
      </trkpt>
      <trkpt lat="44.4707" lon="6.76357">
        <ele>1308.8</ele>
        <time>2022-07-19T14:46:51Z</time>
      </trkpt>
      <trkpt lat="44.47074" lon="6.7636">
        <ele>1309.2</ele>
        <time>2022-07-19T14:46:52Z</time>
      </trkpt>
      <trkpt lat="44.47077" lon="6.76363">
        <ele>1309.2</ele>
        <time>2022-07-19T14:46:53Z</time>
      </trkpt>
      <trkpt lat="44.47081" lon="6.76367">
        <ele>1309.4</ele>
        <time>2022-07-19T14:46:54Z</time>
      </trkpt>
      <trkpt lat="44.47084" lon="6.7637">
        <ele>1309.4</ele>
        <time>2022-07-19T14:46:55Z</time>
      </trkpt>
      <trkpt lat="44.47088" lon="6.76372">
        <ele>1309.6</ele>
        <time>2022-07-19T14:46:56Z</time>
      </trkpt>
      <trkpt lat="44.47092" lon="6.76374">
        <ele>1309.6</ele>
        <time>2022-07-19T14:46:57Z</time>
      </trkpt>
      <trkpt lat="44.47096" lon="6.76376">
        <ele>1310</ele>
        <time>2022-07-19T14:46:58Z</time>
      </trkpt>
      <trkpt lat="44.471" lon="6.76378">
        <ele>1310</ele>
        <time>2022-07-19T14:46:59Z</time>
      </trkpt>
      <trkpt lat="44.47104" lon="6.76379">
        <ele>1310.2</ele>
        <time>2022-07-19T14:47:00Z</time>
      </trkpt>
      <trkpt lat="44.47108" lon="6.76381">
        <ele>1310.2</ele>
        <time>2022-07-19T14:47:01Z</time>
      </trkpt>
      <trkpt lat="44.47113" lon="6.76382">
        <ele>1310.4</ele>
        <time>2022-07-19T14:47:02Z</time>
      </trkpt>
      <trkpt lat="44.47117" lon="6.76382">
        <ele>1310.4</ele>
        <time>2022-07-19T14:47:03Z</time>
      </trkpt>
      <trkpt lat="44.47122" lon="6.76382">
        <ele>1310.4</ele>
        <time>2022-07-19T14:47:04Z</time>
      </trkpt>
      <trkpt lat="44.47127" lon="6.76381">
        <ele>1310.8</ele>
        <time>2022-07-19T14:47:05Z</time>
      </trkpt>
      <trkpt lat="44.47132" lon="6.7638">
        <ele>1310.8</ele>
        <time>2022-07-19T14:47:06Z</time>
      </trkpt>
      <trkpt lat="44.47137" lon="6.76379">
        <ele>1310.8</ele>
        <time>2022-07-19T14:47:07Z</time>
      </trkpt>
      <trkpt lat="44.47142" lon="6.76378">
        <ele>1310.8</ele>
        <time>2022-07-19T14:47:08Z</time>
      </trkpt>
      <trkpt lat="44.47147" lon="6.76375">
        <ele>1310.8</ele>
        <time>2022-07-19T14:47:09Z</time>
      </trkpt>
      <trkpt lat="44.47152" lon="6.76373">
        <ele>1310.8</ele>
        <time>2022-07-19T14:47:10Z</time>
      </trkpt>
      <trkpt lat="44.47156" lon="6.76369">
        <ele>1311</ele>
        <time>2022-07-19T14:47:11Z</time>
      </trkpt>
      <trkpt lat="44.47161" lon="6.76366">
        <ele>1311</ele>
        <time>2022-07-19T14:47:12Z</time>
      </trkpt>
      <trkpt lat="44.47165" lon="6.76363">
        <ele>1311</ele>
        <time>2022-07-19T14:47:13Z</time>
      </trkpt>
      <trkpt lat="44.4717" lon="6.7636">
        <ele>1311</ele>
        <time>2022-07-19T14:47:14Z</time>
      </trkpt>
      <trkpt lat="44.47174" lon="6.76357">
        <ele>1311</ele>
        <time>2022-07-19T14:47:15Z</time>
      </trkpt>
      <trkpt lat="44.47179" lon="6.76353">
        <ele>1311</ele>
        <time>2022-07-19T14:47:16Z</time>
      </trkpt>
      <trkpt lat="44.47183" lon="6.7635">
        <ele>1311</ele>
        <time>2022-07-19T14:47:17Z</time>
      </trkpt>
      <trkpt lat="44.47188" lon="6.76347">
        <ele>1311</ele>
        <time>2022-07-19T14:47:18Z</time>
      </trkpt>
      <trkpt lat="44.47192" lon="6.76343">
        <ele>1311</ele>
        <time>2022-07-19T14:47:19Z</time>
      </trkpt>
      <trkpt lat="44.47196" lon="6.7634">
        <ele>1311</ele>
        <time>2022-07-19T14:47:20Z</time>
      </trkpt>
      <trkpt lat="44.47201" lon="6.76337">
        <ele>1311</ele>
        <time>2022-07-19T14:47:21Z</time>
      </trkpt>
      <trkpt lat="44.47205" lon="6.76333">
        <ele>1311</ele>
        <time>2022-07-19T14:47:22Z</time>
      </trkpt>
      <trkpt lat="44.4721" lon="6.7633">
        <ele>1311</ele>
        <time>2022-07-19T14:47:23Z</time>
      </trkpt>
      <trkpt lat="44.47214" lon="6.76327">
        <ele>1311</ele>
        <time>2022-07-19T14:47:24Z</time>
      </trkpt>
      <trkpt lat="44.47219" lon="6.76324">
        <ele>1311</ele>
        <time>2022-07-19T14:47:25Z</time>
      </trkpt>
      <trkpt lat="44.47224" lon="6.76321">
        <ele>1311</ele>
        <time>2022-07-19T14:47:26Z</time>
      </trkpt>
      <trkpt lat="44.47229" lon="6.76318">
        <ele>1310.6</ele>
        <time>2022-07-19T14:47:27Z</time>
      </trkpt>
      <trkpt lat="44.47234" lon="6.76316">
        <ele>1310.6</ele>
        <time>2022-07-19T14:47:28Z</time>
      </trkpt>
      <trkpt lat="44.47238" lon="6.76314">
        <ele>1310.6</ele>
        <time>2022-07-19T14:47:29Z</time>
      </trkpt>
      <trkpt lat="44.47243" lon="6.76311">
        <ele>1310.6</ele>
        <time>2022-07-19T14:47:30Z</time>
      </trkpt>
      <trkpt lat="44.47248" lon="6.76308">
        <ele>1310.6</ele>
        <time>2022-07-19T14:47:31Z</time>
      </trkpt>
      <trkpt lat="44.47252" lon="6.76305">
        <ele>1310.4</ele>
        <time>2022-07-19T14:47:32Z</time>
      </trkpt>
      <trkpt lat="44.47257" lon="6.76301">
        <ele>1310.4</ele>
        <time>2022-07-19T14:47:33Z</time>
      </trkpt>
      <trkpt lat="44.47261" lon="6.76297">
        <ele>1310.4</ele>
        <time>2022-07-19T14:47:34Z</time>
      </trkpt>
      <trkpt lat="44.47266" lon="6.76293">
        <ele>1310.4</ele>
        <time>2022-07-19T14:47:35Z</time>
      </trkpt>
      <trkpt lat="44.47271" lon="6.76289">
        <ele>1310.4</ele>
        <time>2022-07-19T14:47:36Z</time>
      </trkpt>
      <trkpt lat="44.47275" lon="6.76285">
        <ele>1310.4</ele>
        <time>2022-07-19T14:47:37Z</time>
      </trkpt>
      <trkpt lat="44.4728" lon="6.76282">
        <ele>1310</ele>
        <time>2022-07-19T14:47:38Z</time>
      </trkpt>
      <trkpt lat="44.47285" lon="6.76279">
        <ele>1310</ele>
        <time>2022-07-19T14:47:39Z</time>
      </trkpt>
      <trkpt lat="44.4729" lon="6.76276">
        <ele>1310</ele>
        <time>2022-07-19T14:47:40Z</time>
      </trkpt>
      <trkpt lat="44.47295" lon="6.76273">
        <ele>1310</ele>
        <time>2022-07-19T14:47:41Z</time>
      </trkpt>
      <trkpt lat="44.47299" lon="6.7627">
        <ele>1310</ele>
        <time>2022-07-19T14:47:42Z</time>
      </trkpt>
      <trkpt lat="44.47304" lon="6.76267">
        <ele>1310</ele>
        <time>2022-07-19T14:47:43Z</time>
      </trkpt>
      <trkpt lat="44.47309" lon="6.76265">
        <ele>1310</ele>
        <time>2022-07-19T14:47:44Z</time>
      </trkpt>
      <trkpt lat="44.47313" lon="6.76262">
        <ele>1310</ele>
        <time>2022-07-19T14:47:45Z</time>
      </trkpt>
      <trkpt lat="44.47318" lon="6.7626">
        <ele>1310</ele>
        <time>2022-07-19T14:47:46Z</time>
      </trkpt>
      <trkpt lat="44.47322" lon="6.76257">
        <ele>1310</ele>
        <time>2022-07-19T14:47:47Z</time>
      </trkpt>
      <trkpt lat="44.47327" lon="6.76255">
        <ele>1310</ele>
        <time>2022-07-19T14:47:48Z</time>
      </trkpt>
      <trkpt lat="44.47332" lon="6.76252">
        <ele>1310</ele>
        <time>2022-07-19T14:47:49Z</time>
      </trkpt>
      <trkpt lat="44.47336" lon="6.76249">
        <ele>1310</ele>
        <time>2022-07-19T14:47:50Z</time>
      </trkpt>
      <trkpt lat="44.47341" lon="6.76246">
        <ele>1310</ele>
        <time>2022-07-19T14:47:51Z</time>
      </trkpt>
      <trkpt lat="44.47345" lon="6.76243">
        <ele>1310</ele>
        <time>2022-07-19T14:47:52Z</time>
      </trkpt>
      <trkpt lat="44.4735" lon="6.7624">
        <ele>1310</ele>
        <time>2022-07-19T14:47:53Z</time>
      </trkpt>
      <trkpt lat="44.47354" lon="6.76237">
        <ele>1310</ele>
        <time>2022-07-19T14:47:54Z</time>
      </trkpt>
      <trkpt lat="44.47359" lon="6.76235">
        <ele>1310.4</ele>
        <time>2022-07-19T14:47:55Z</time>
      </trkpt>
      <trkpt lat="44.47364" lon="6.76232">
        <ele>1310.4</ele>
        <time>2022-07-19T14:47:56Z</time>
      </trkpt>
      <trkpt lat="44.47368" lon="6.76229">
        <ele>1310.4</ele>
        <time>2022-07-19T14:47:57Z</time>
      </trkpt>
      <trkpt lat="44.47373" lon="6.76226">
        <ele>1310.4</ele>
        <time>2022-07-19T14:47:58Z</time>
      </trkpt>
      <trkpt lat="44.47378" lon="6.76223">
        <ele>1310.4</ele>
        <time>2022-07-19T14:47:59Z</time>
      </trkpt>
      <trkpt lat="44.47382" lon="6.7622">
        <ele>1310.4</ele>
        <time>2022-07-19T14:48:00Z</time>
      </trkpt>
      <trkpt lat="44.47387" lon="6.76218">
        <ele>1310.4</ele>
        <time>2022-07-19T14:48:01Z</time>
      </trkpt>
      <trkpt lat="44.47392" lon="6.76215">
        <ele>1310.4</ele>
        <time>2022-07-19T14:48:02Z</time>
      </trkpt>
      <trkpt lat="44.47396" lon="6.76212">
        <ele>1310.4</ele>
        <time>2022-07-19T14:48:03Z</time>
      </trkpt>
      <trkpt lat="44.47401" lon="6.76209">
        <ele>1310.4</ele>
        <time>2022-07-19T14:48:04Z</time>
      </trkpt>
      <trkpt lat="44.47406" lon="6.76207">
        <ele>1310.4</ele>
        <time>2022-07-19T14:48:05Z</time>
      </trkpt>
      <trkpt lat="44.47411" lon="6.76204">
        <ele>1310.4</ele>
        <time>2022-07-19T14:48:06Z</time>
      </trkpt>
      <trkpt lat="44.47416" lon="6.76201">
        <ele>1310.6</ele>
        <time>2022-07-19T14:48:07Z</time>
      </trkpt>
      <trkpt lat="44.4742" lon="6.76199">
        <ele>1310.6</ele>
        <time>2022-07-19T14:48:08Z</time>
      </trkpt>
      <trkpt lat="44.47425" lon="6.76196">
        <ele>1310.6</ele>
        <time>2022-07-19T14:48:09Z</time>
      </trkpt>
      <trkpt lat="44.47429" lon="6.76194">
        <ele>1310.6</ele>
        <time>2022-07-19T14:48:10Z</time>
      </trkpt>
      <trkpt lat="44.47434" lon="6.76191">
        <ele>1310.6</ele>
        <time>2022-07-19T14:48:11Z</time>
      </trkpt>
      <trkpt lat="44.47438" lon="6.76189">
        <ele>1310.6</ele>
        <time>2022-07-19T14:48:12Z</time>
      </trkpt>
      <trkpt lat="44.47442" lon="6.76186">
        <ele>1310.8</ele>
        <time>2022-07-19T14:48:13Z</time>
      </trkpt>
      <trkpt lat="44.47446" lon="6.76183">
        <ele>1310.8</ele>
        <time>2022-07-19T14:48:14Z</time>
      </trkpt>
      <trkpt lat="44.47451" lon="6.76181">
        <ele>1310.8</ele>
        <time>2022-07-19T14:48:15Z</time>
      </trkpt>
      <trkpt lat="44.47455" lon="6.76179">
        <ele>1310.8</ele>
        <time>2022-07-19T14:48:16Z</time>
      </trkpt>
      <trkpt lat="44.4746" lon="6.76176">
        <ele>1311</ele>
        <time>2022-07-19T14:48:17Z</time>
      </trkpt>
      <trkpt lat="44.47464" lon="6.76174">
        <ele>1311</ele>
        <time>2022-07-19T14:48:18Z</time>
      </trkpt>
      <trkpt lat="44.47469" lon="6.76171">
        <ele>1311</ele>
        <time>2022-07-19T14:48:19Z</time>
      </trkpt>
      <trkpt lat="44.47474" lon="6.76168">
        <ele>1311</ele>
        <time>2022-07-19T14:48:20Z</time>
      </trkpt>
      <trkpt lat="44.47479" lon="6.76166">
        <ele>1311</ele>
        <time>2022-07-19T14:48:21Z</time>
      </trkpt>
      <trkpt lat="44.47483" lon="6.76163">
        <ele>1311.4</ele>
        <time>2022-07-19T14:48:22Z</time>
      </trkpt>
      <trkpt lat="44.47488" lon="6.7616">
        <ele>1311.4</ele>
        <time>2022-07-19T14:48:23Z</time>
      </trkpt>
      <trkpt lat="44.47493" lon="6.76157">
        <ele>1311.4</ele>
        <time>2022-07-19T14:48:24Z</time>
      </trkpt>
      <trkpt lat="44.47497" lon="6.76155">
        <ele>1311.4</ele>
        <time>2022-07-19T14:48:25Z</time>
      </trkpt>
      <trkpt lat="44.47501" lon="6.76152">
        <ele>1311.4</ele>
        <time>2022-07-19T14:48:27Z</time>
      </trkpt>
      <trkpt lat="44.47506" lon="6.7615">
        <ele>1311.4</ele>
        <time>2022-07-19T14:48:28Z</time>
      </trkpt>
      <trkpt lat="44.4751" lon="6.76147">
        <ele>1311.4</ele>
        <time>2022-07-19T14:48:29Z</time>
      </trkpt>
      <trkpt lat="44.47514" lon="6.76145">
        <ele>1311.4</ele>
        <time>2022-07-19T14:48:30Z</time>
      </trkpt>
      <trkpt lat="44.47519" lon="6.76143">
        <ele>1311.4</ele>
        <time>2022-07-19T14:48:31Z</time>
      </trkpt>
      <trkpt lat="44.47523" lon="6.7614">
        <ele>1311.4</ele>
        <time>2022-07-19T14:48:32Z</time>
      </trkpt>
      <trkpt lat="44.47528" lon="6.76138">
        <ele>1311.4</ele>
        <time>2022-07-19T14:48:33Z</time>
      </trkpt>
      <trkpt lat="44.47532" lon="6.76135">
        <ele>1311.4</ele>
        <time>2022-07-19T14:48:34Z</time>
      </trkpt>
      <trkpt lat="44.47537" lon="6.76133">
        <ele>1311.4</ele>
        <time>2022-07-19T14:48:35Z</time>
      </trkpt>
      <trkpt lat="44.47542" lon="6.7613">
        <ele>1311</ele>
        <time>2022-07-19T14:48:36Z</time>
      </trkpt>
      <trkpt lat="44.47547" lon="6.76128">
        <ele>1311</ele>
        <time>2022-07-19T14:48:37Z</time>
      </trkpt>
      <trkpt lat="44.47552" lon="6.76126">
        <ele>1311</ele>
        <time>2022-07-19T14:48:38Z</time>
      </trkpt>
      <trkpt lat="44.47557" lon="6.76123">
        <ele>1310.8</ele>
        <time>2022-07-19T14:48:39Z</time>
      </trkpt>
      <trkpt lat="44.47562" lon="6.7612">
        <ele>1310.8</ele>
        <time>2022-07-19T14:48:40Z</time>
      </trkpt>
      <trkpt lat="44.47567" lon="6.76118">
        <ele>1310.8</ele>
        <time>2022-07-19T14:48:41Z</time>
      </trkpt>
      <trkpt lat="44.47572" lon="6.76115">
        <ele>1310.8</ele>
        <time>2022-07-19T14:48:42Z</time>
      </trkpt>
      <trkpt lat="44.47577" lon="6.76112">
        <ele>1310.8</ele>
        <time>2022-07-19T14:48:43Z</time>
      </trkpt>
      <trkpt lat="44.47582" lon="6.76109">
        <ele>1310.8</ele>
        <time>2022-07-19T14:48:44Z</time>
      </trkpt>
      <trkpt lat="44.47586" lon="6.76107">
        <ele>1310.8</ele>
        <time>2022-07-19T14:48:45Z</time>
      </trkpt>
      <trkpt lat="44.47591" lon="6.76104">
        <ele>1310.8</ele>
        <time>2022-07-19T14:48:46Z</time>
      </trkpt>
      <trkpt lat="44.47596" lon="6.76102">
        <ele>1311</ele>
        <time>2022-07-19T14:48:47Z</time>
      </trkpt>
      <trkpt lat="44.476" lon="6.76099">
        <ele>1311</ele>
        <time>2022-07-19T14:48:48Z</time>
      </trkpt>
      <trkpt lat="44.47605" lon="6.76096">
        <ele>1311</ele>
        <time>2022-07-19T14:48:49Z</time>
      </trkpt>
      <trkpt lat="44.4761" lon="6.76094">
        <ele>1311</ele>
        <time>2022-07-19T14:48:50Z</time>
      </trkpt>
      <trkpt lat="44.47616" lon="6.76091">
        <ele>1311</ele>
        <time>2022-07-19T14:48:51Z</time>
      </trkpt>
      <trkpt lat="44.47621" lon="6.76088">
        <ele>1311</ele>
        <time>2022-07-19T14:48:52Z</time>
      </trkpt>
      <trkpt lat="44.47626" lon="6.76085">
        <ele>1311</ele>
        <time>2022-07-19T14:48:53Z</time>
      </trkpt>
      <trkpt lat="44.47632" lon="6.76082">
        <ele>1311</ele>
        <time>2022-07-19T14:48:54Z</time>
      </trkpt>
      <trkpt lat="44.47637" lon="6.76079">
        <ele>1311</ele>
        <time>2022-07-19T14:48:55Z</time>
      </trkpt>
      <trkpt lat="44.47643" lon="6.76076">
        <ele>1311</ele>
        <time>2022-07-19T14:48:56Z</time>
      </trkpt>
      <trkpt lat="44.47648" lon="6.76073">
        <ele>1311.2</ele>
        <time>2022-07-19T14:48:57Z</time>
      </trkpt>
      <trkpt lat="44.47653" lon="6.7607">
        <ele>1311.2</ele>
        <time>2022-07-19T14:48:58Z</time>
      </trkpt>
      <trkpt lat="44.47658" lon="6.76066">
        <ele>1311.2</ele>
        <time>2022-07-19T14:48:59Z</time>
      </trkpt>
      <trkpt lat="44.47663" lon="6.76063">
        <ele>1311.4</ele>
        <time>2022-07-19T14:49:00Z</time>
      </trkpt>
      <trkpt lat="44.47668" lon="6.76059">
        <ele>1311.4</ele>
        <time>2022-07-19T14:49:01Z</time>
      </trkpt>
      <trkpt lat="44.47673" lon="6.76055">
        <ele>1311.4</ele>
        <time>2022-07-19T14:49:02Z</time>
      </trkpt>
      <trkpt lat="44.47678" lon="6.76051">
        <ele>1311.4</ele>
        <time>2022-07-19T14:49:03Z</time>
      </trkpt>
      <trkpt lat="44.47682" lon="6.76046">
        <ele>1311.4</ele>
        <time>2022-07-19T14:49:04Z</time>
      </trkpt>
      <trkpt lat="44.47686" lon="6.76041">
        <ele>1311.4</ele>
        <time>2022-07-19T14:49:05Z</time>
      </trkpt>
      <trkpt lat="44.4769" lon="6.76036">
        <ele>1311.4</ele>
        <time>2022-07-19T14:49:06Z</time>
      </trkpt>
      <trkpt lat="44.47694" lon="6.76031">
        <ele>1311.6</ele>
        <time>2022-07-19T14:49:07Z</time>
      </trkpt>
      <trkpt lat="44.47698" lon="6.76025">
        <ele>1311.6</ele>
        <time>2022-07-19T14:49:08Z</time>
      </trkpt>
      <trkpt lat="44.47702" lon="6.76019">
        <ele>1311.6</ele>
        <time>2022-07-19T14:49:09Z</time>
      </trkpt>
      <trkpt lat="44.47705" lon="6.76013">
        <ele>1312.2</ele>
        <time>2022-07-19T14:49:10Z</time>
      </trkpt>
      <trkpt lat="44.47708" lon="6.76007">
        <ele>1312.2</ele>
        <time>2022-07-19T14:49:11Z</time>
      </trkpt>
      <trkpt lat="44.47711" lon="6.76">
        <ele>1312.2</ele>
        <time>2022-07-19T14:49:12Z</time>
      </trkpt>
      <trkpt lat="44.47714" lon="6.75994">
        <ele>1312.2</ele>
        <time>2022-07-19T14:49:13Z</time>
      </trkpt>
      <trkpt lat="44.47717" lon="6.75988">
        <ele>1312.2</ele>
        <time>2022-07-19T14:49:14Z</time>
      </trkpt>
      <trkpt lat="44.4772" lon="6.75981">
        <ele>1312.2</ele>
        <time>2022-07-19T14:49:15Z</time>
      </trkpt>
      <trkpt lat="44.47723" lon="6.75975">
        <ele>1312.2</ele>
        <time>2022-07-19T14:49:16Z</time>
      </trkpt>
      <trkpt lat="44.47726" lon="6.75968">
        <ele>1312.2</ele>
        <time>2022-07-19T14:49:17Z</time>
      </trkpt>
      <trkpt lat="44.47729" lon="6.75961">
        <ele>1312</ele>
        <time>2022-07-19T14:49:18Z</time>
      </trkpt>
      <trkpt lat="44.47732" lon="6.75954">
        <ele>1312</ele>
        <time>2022-07-19T14:49:19Z</time>
      </trkpt>
      <trkpt lat="44.47735" lon="6.75947">
        <ele>1312</ele>
        <time>2022-07-19T14:49:20Z</time>
      </trkpt>
      <trkpt lat="44.47738" lon="6.7594">
        <ele>1312</ele>
        <time>2022-07-19T14:49:21Z</time>
      </trkpt>
      <trkpt lat="44.47741" lon="6.75934">
        <ele>1312</ele>
        <time>2022-07-19T14:49:22Z</time>
      </trkpt>
      <trkpt lat="44.47744" lon="6.75927">
        <ele>1312</ele>
        <time>2022-07-19T14:49:23Z</time>
      </trkpt>
      <trkpt lat="44.47747" lon="6.75921">
        <ele>1312</ele>
        <time>2022-07-19T14:49:24Z</time>
      </trkpt>
      <trkpt lat="44.4775" lon="6.75914">
        <ele>1312</ele>
        <time>2022-07-19T14:49:25Z</time>
      </trkpt>
      <trkpt lat="44.47753" lon="6.75908">
        <ele>1312</ele>
        <time>2022-07-19T14:49:26Z</time>
      </trkpt>
      <trkpt lat="44.47756" lon="6.75901">
        <ele>1312</ele>
        <time>2022-07-19T14:49:27Z</time>
      </trkpt>
      <trkpt lat="44.47759" lon="6.75895">
        <ele>1312</ele>
        <time>2022-07-19T14:49:28Z</time>
      </trkpt>
      <trkpt lat="44.47762" lon="6.75889">
        <ele>1312</ele>
        <time>2022-07-19T14:49:29Z</time>
      </trkpt>
      <trkpt lat="44.47765" lon="6.75883">
        <ele>1312.2</ele>
        <time>2022-07-19T14:49:30Z</time>
      </trkpt>
      <trkpt lat="44.47769" lon="6.75877">
        <ele>1312.2</ele>
        <time>2022-07-19T14:49:31Z</time>
      </trkpt>
      <trkpt lat="44.47771" lon="6.7587">
        <ele>1312.2</ele>
        <time>2022-07-19T14:49:32Z</time>
      </trkpt>
      <trkpt lat="44.47774" lon="6.75864">
        <ele>1312.2</ele>
        <time>2022-07-19T14:49:33Z</time>
      </trkpt>
      <trkpt lat="44.47777" lon="6.75858">
        <ele>1312.4</ele>
        <time>2022-07-19T14:49:34Z</time>
      </trkpt>
      <trkpt lat="44.4778" lon="6.75852">
        <ele>1312.4</ele>
        <time>2022-07-19T14:49:35Z</time>
      </trkpt>
      <trkpt lat="44.47783" lon="6.75846">
        <ele>1312.8</ele>
        <time>2022-07-19T14:49:36Z</time>
      </trkpt>
      <trkpt lat="44.47785" lon="6.7584">
        <ele>1312.8</ele>
        <time>2022-07-19T14:49:37Z</time>
      </trkpt>
      <trkpt lat="44.47788" lon="6.75835">
        <ele>1313</ele>
        <time>2022-07-19T14:49:38Z</time>
      </trkpt>
      <trkpt lat="44.47791" lon="6.75829">
        <ele>1313</ele>
        <time>2022-07-19T14:49:39Z</time>
      </trkpt>
      <trkpt lat="44.47794" lon="6.75823">
        <ele>1313.4</ele>
        <time>2022-07-19T14:49:40Z</time>
      </trkpt>
      <trkpt lat="44.47797" lon="6.75817">
        <ele>1313.4</ele>
        <time>2022-07-19T14:49:41Z</time>
      </trkpt>
      <trkpt lat="44.47801" lon="6.75812">
        <ele>1313.6</ele>
        <time>2022-07-19T14:49:42Z</time>
      </trkpt>
      <trkpt lat="44.47804" lon="6.75807">
        <ele>1313.6</ele>
        <time>2022-07-19T14:49:43Z</time>
      </trkpt>
      <trkpt lat="44.47807" lon="6.75802">
        <ele>1314</ele>
        <time>2022-07-19T14:49:44Z</time>
      </trkpt>
      <trkpt lat="44.4781" lon="6.75796">
        <ele>1314</ele>
        <time>2022-07-19T14:49:45Z</time>
      </trkpt>
      <trkpt lat="44.47813" lon="6.75792">
        <ele>1314.4</ele>
        <time>2022-07-19T14:49:46Z</time>
      </trkpt>
      <trkpt lat="44.47816" lon="6.75787">
        <ele>1314.4</ele>
        <time>2022-07-19T14:49:47Z</time>
      </trkpt>
      <trkpt lat="44.47819" lon="6.75783">
        <ele>1314.6</ele>
        <time>2022-07-19T14:49:48Z</time>
      </trkpt>
      <trkpt lat="44.47822" lon="6.75779">
        <ele>1314.6</ele>
        <time>2022-07-19T14:49:49Z</time>
      </trkpt>
      <trkpt lat="44.47825" lon="6.75775">
        <ele>1314.8</ele>
        <time>2022-07-19T14:49:50Z</time>
      </trkpt>
      <trkpt lat="44.47828" lon="6.75771">
        <ele>1315</ele>
        <time>2022-07-19T14:49:51Z</time>
      </trkpt>
      <trkpt lat="44.47831" lon="6.75767">
        <ele>1315.2</ele>
        <time>2022-07-19T14:49:52Z</time>
      </trkpt>
      <trkpt lat="44.47834" lon="6.75764">
        <ele>1315.6</ele>
        <time>2022-07-19T14:49:53Z</time>
      </trkpt>
      <trkpt lat="44.47837" lon="6.7576">
        <ele>1315.6</ele>
        <time>2022-07-19T14:49:54Z</time>
      </trkpt>
      <trkpt lat="44.4784" lon="6.75757">
        <ele>1316</ele>
        <time>2022-07-19T14:49:55Z</time>
      </trkpt>
      <trkpt lat="44.47843" lon="6.75753">
        <ele>1316.2</ele>
        <time>2022-07-19T14:49:56Z</time>
      </trkpt>
      <trkpt lat="44.47846" lon="6.75749">
        <ele>1316.4</ele>
        <time>2022-07-19T14:49:57Z</time>
      </trkpt>
      <trkpt lat="44.47849" lon="6.75745">
        <ele>1316.6</ele>
        <time>2022-07-19T14:49:58Z</time>
      </trkpt>
      <trkpt lat="44.47852" lon="6.75741">
        <ele>1316.8</ele>
        <time>2022-07-19T14:49:59Z</time>
      </trkpt>
      <trkpt lat="44.47856" lon="6.75737">
        <ele>1317.2</ele>
        <time>2022-07-19T14:50:00Z</time>
      </trkpt>
      <trkpt lat="44.47859" lon="6.75732">
        <ele>1317.4</ele>
        <time>2022-07-19T14:50:01Z</time>
      </trkpt>
      <trkpt lat="44.47862" lon="6.75728">
        <ele>1317.6</ele>
        <time>2022-07-19T14:50:02Z</time>
      </trkpt>
      <trkpt lat="44.47865" lon="6.75725">
        <ele>1317.8</ele>
        <time>2022-07-19T14:50:03Z</time>
      </trkpt>
      <trkpt lat="44.47869" lon="6.75722">
        <ele>1317.8</ele>
        <time>2022-07-19T14:50:04Z</time>
      </trkpt>
      <trkpt lat="44.47872" lon="6.75718">
        <ele>1318</ele>
        <time>2022-07-19T14:50:05Z</time>
      </trkpt>
      <trkpt lat="44.47875" lon="6.75715">
        <ele>1318</ele>
        <time>2022-07-19T14:50:06Z</time>
      </trkpt>
      <trkpt lat="44.47878" lon="6.75713">
        <ele>1318.4</ele>
        <time>2022-07-19T14:50:07Z</time>
      </trkpt>
      <trkpt lat="44.47881" lon="6.7571">
        <ele>1318.4</ele>
        <time>2022-07-19T14:50:08Z</time>
      </trkpt>
      <trkpt lat="44.47884" lon="6.75707">
        <ele>1318.6</ele>
        <time>2022-07-19T14:50:09Z</time>
      </trkpt>
      <trkpt lat="44.47887" lon="6.75704">
        <ele>1318.6</ele>
        <time>2022-07-19T14:50:10Z</time>
      </trkpt>
      <trkpt lat="44.47889" lon="6.75701">
        <ele>1319</ele>
        <time>2022-07-19T14:50:11Z</time>
      </trkpt>
      <trkpt lat="44.47892" lon="6.75698">
        <ele>1319.2</ele>
        <time>2022-07-19T14:50:12Z</time>
      </trkpt>
      <trkpt lat="44.47895" lon="6.75695">
        <ele>1319.2</ele>
        <time>2022-07-19T14:50:13Z</time>
      </trkpt>
      <trkpt lat="44.47898" lon="6.75692">
        <ele>1319.6</ele>
        <time>2022-07-19T14:50:14Z</time>
      </trkpt>
      <trkpt lat="44.47902" lon="6.75689">
        <ele>1319.8</ele>
        <time>2022-07-19T14:50:15Z</time>
      </trkpt>
      <trkpt lat="44.47905" lon="6.75686">
        <ele>1320</ele>
        <time>2022-07-19T14:50:16Z</time>
      </trkpt>
      <trkpt lat="44.47908" lon="6.75683">
        <ele>1320</ele>
        <time>2022-07-19T14:50:17Z</time>
      </trkpt>
      <trkpt lat="44.47911" lon="6.7568">
        <ele>1320.4</ele>
        <time>2022-07-19T14:50:18Z</time>
      </trkpt>
      <trkpt lat="44.47913" lon="6.75677">
        <ele>1320.4</ele>
        <time>2022-07-19T14:50:19Z</time>
      </trkpt>
      <trkpt lat="44.47916" lon="6.75674">
        <ele>1320.8</ele>
        <time>2022-07-19T14:50:20Z</time>
      </trkpt>
      <trkpt lat="44.47919" lon="6.75672">
        <ele>1320.8</ele>
        <time>2022-07-19T14:50:21Z</time>
      </trkpt>
      <trkpt lat="44.47922" lon="6.75669">
        <ele>1321.2</ele>
        <time>2022-07-19T14:50:22Z</time>
      </trkpt>
      <trkpt lat="44.47925" lon="6.75666">
        <ele>1321.2</ele>
        <time>2022-07-19T14:50:23Z</time>
      </trkpt>
      <trkpt lat="44.47927" lon="6.75664">
        <ele>1321.4</ele>
        <time>2022-07-19T14:50:24Z</time>
      </trkpt>
      <trkpt lat="44.4793" lon="6.75661">
        <ele>1321.4</ele>
        <time>2022-07-19T14:50:25Z</time>
      </trkpt>
      <trkpt lat="44.47933" lon="6.75658">
        <ele>1321.8</ele>
        <time>2022-07-19T14:50:26Z</time>
      </trkpt>
      <trkpt lat="44.47936" lon="6.75655">
        <ele>1321.8</ele>
        <time>2022-07-19T14:50:27Z</time>
      </trkpt>
      <trkpt lat="44.47939" lon="6.75652">
        <ele>1322</ele>
        <time>2022-07-19T14:50:28Z</time>
      </trkpt>
      <trkpt lat="44.47942" lon="6.75649">
        <ele>1322.2</ele>
        <time>2022-07-19T14:50:29Z</time>
      </trkpt>
      <trkpt lat="44.47945" lon="6.75645">
        <ele>1322.2</ele>
        <time>2022-07-19T14:50:30Z</time>
      </trkpt>
      <trkpt lat="44.47948" lon="6.75642">
        <ele>1322.6</ele>
        <time>2022-07-19T14:50:31Z</time>
      </trkpt>
      <trkpt lat="44.47952" lon="6.75638">
        <ele>1322.6</ele>
        <time>2022-07-19T14:50:32Z</time>
      </trkpt>
      <trkpt lat="44.47955" lon="6.75635">
        <ele>1322.8</ele>
        <time>2022-07-19T14:50:33Z</time>
      </trkpt>
      <trkpt lat="44.47958" lon="6.75631">
        <ele>1322.8</ele>
        <time>2022-07-19T14:50:34Z</time>
      </trkpt>
      <trkpt lat="44.47962" lon="6.75626">
        <ele>1322.8</ele>
        <time>2022-07-19T14:50:35Z</time>
      </trkpt>
      <trkpt lat="44.47965" lon="6.75622">
        <ele>1323</ele>
        <time>2022-07-19T14:50:36Z</time>
      </trkpt>
      <trkpt lat="44.47968" lon="6.75618">
        <ele>1323</ele>
        <time>2022-07-19T14:50:37Z</time>
      </trkpt>
      <trkpt lat="44.47972" lon="6.75613">
        <ele>1323</ele>
        <time>2022-07-19T14:50:38Z</time>
      </trkpt>
      <trkpt lat="44.47975" lon="6.75608">
        <ele>1323</ele>
        <time>2022-07-19T14:50:39Z</time>
      </trkpt>
      <trkpt lat="44.47979" lon="6.75603">
        <ele>1323.2</ele>
        <time>2022-07-19T14:50:40Z</time>
      </trkpt>
      <trkpt lat="44.47982" lon="6.75598">
        <ele>1323.2</ele>
        <time>2022-07-19T14:50:41Z</time>
      </trkpt>
      <trkpt lat="44.47985" lon="6.75593">
        <ele>1323.2</ele>
        <time>2022-07-19T14:50:42Z</time>
      </trkpt>
      <trkpt lat="44.47988" lon="6.75588">
        <ele>1323.2</ele>
        <time>2022-07-19T14:50:43Z</time>
      </trkpt>
      <trkpt lat="44.47991" lon="6.75582">
        <ele>1323.2</ele>
        <time>2022-07-19T14:50:44Z</time>
      </trkpt>
      <trkpt lat="44.47995" lon="6.75577">
        <ele>1323.2</ele>
        <time>2022-07-19T14:50:45Z</time>
      </trkpt>
      <trkpt lat="44.47998" lon="6.75571">
        <ele>1323.2</ele>
        <time>2022-07-19T14:50:46Z</time>
      </trkpt>
      <trkpt lat="44.48" lon="6.75566">
        <ele>1323.2</ele>
        <time>2022-07-19T14:50:47Z</time>
      </trkpt>
      <trkpt lat="44.48003" lon="6.7556">
        <ele>1323.2</ele>
        <time>2022-07-19T14:50:48Z</time>
      </trkpt>
      <trkpt lat="44.48006" lon="6.75554">
        <ele>1323.2</ele>
        <time>2022-07-19T14:50:49Z</time>
      </trkpt>
      <trkpt lat="44.48009" lon="6.75549">
        <ele>1323.2</ele>
        <time>2022-07-19T14:50:50Z</time>
      </trkpt>
      <trkpt lat="44.48011" lon="6.75543">
        <ele>1323.2</ele>
        <time>2022-07-19T14:50:51Z</time>
      </trkpt>
      <trkpt lat="44.48014" lon="6.75536">
        <ele>1323.2</ele>
        <time>2022-07-19T14:50:52Z</time>
      </trkpt>
      <trkpt lat="44.48017" lon="6.7553">
        <ele>1323.2</ele>
        <time>2022-07-19T14:50:53Z</time>
      </trkpt>
      <trkpt lat="44.48019" lon="6.75524">
        <ele>1323.2</ele>
        <time>2022-07-19T14:50:54Z</time>
      </trkpt>
      <trkpt lat="44.48022" lon="6.75517">
        <ele>1323.2</ele>
        <time>2022-07-19T14:50:55Z</time>
      </trkpt>
      <trkpt lat="44.48024" lon="6.7551">
        <ele>1323.4</ele>
        <time>2022-07-19T14:50:56Z</time>
      </trkpt>
      <trkpt lat="44.48026" lon="6.75503">
        <ele>1323.4</ele>
        <time>2022-07-19T14:50:57Z</time>
      </trkpt>
      <trkpt lat="44.48029" lon="6.75496">
        <ele>1323.4</ele>
        <time>2022-07-19T14:50:58Z</time>
      </trkpt>
      <trkpt lat="44.48031" lon="6.75489">
        <ele>1323.4</ele>
        <time>2022-07-19T14:50:59Z</time>
      </trkpt>
      <trkpt lat="44.48033" lon="6.75482">
        <ele>1323.6</ele>
        <time>2022-07-19T14:51:00Z</time>
      </trkpt>
      <trkpt lat="44.48035" lon="6.75474">
        <ele>1323.6</ele>
        <time>2022-07-19T14:51:01Z</time>
      </trkpt>
      <trkpt lat="44.48037" lon="6.75467">
        <ele>1323.6</ele>
        <time>2022-07-19T14:51:02Z</time>
      </trkpt>
      <trkpt lat="44.48039" lon="6.75459">
        <ele>1323.6</ele>
        <time>2022-07-19T14:51:03Z</time>
      </trkpt>
      <trkpt lat="44.4804" lon="6.75452">
        <ele>1323.4</ele>
        <time>2022-07-19T14:51:04Z</time>
      </trkpt>
      <trkpt lat="44.48042" lon="6.75444">
        <ele>1323.4</ele>
        <time>2022-07-19T14:51:05Z</time>
      </trkpt>
      <trkpt lat="44.48043" lon="6.75437">
        <ele>1323.4</ele>
        <time>2022-07-19T14:51:06Z</time>
      </trkpt>
      <trkpt lat="44.48045" lon="6.75429">
        <ele>1323.4</ele>
        <time>2022-07-19T14:51:07Z</time>
      </trkpt>
      <trkpt lat="44.48046" lon="6.75422">
        <ele>1323.4</ele>
        <time>2022-07-19T14:51:08Z</time>
      </trkpt>
      <trkpt lat="44.48048" lon="6.75414">
        <ele>1323.4</ele>
        <time>2022-07-19T14:51:09Z</time>
      </trkpt>
      <trkpt lat="44.48049" lon="6.75406">
        <ele>1323.4</ele>
        <time>2022-07-19T14:51:10Z</time>
      </trkpt>
      <trkpt lat="44.4805" lon="6.75399">
        <ele>1323.4</ele>
        <time>2022-07-19T14:51:11Z</time>
      </trkpt>
      <trkpt lat="44.48052" lon="6.75391">
        <ele>1323.4</ele>
        <time>2022-07-19T14:51:12Z</time>
      </trkpt>
      <trkpt lat="44.48053" lon="6.75384">
        <ele>1323.6</ele>
        <time>2022-07-19T14:51:13Z</time>
      </trkpt>
      <trkpt lat="44.48055" lon="6.75376">
        <ele>1323.6</ele>
        <time>2022-07-19T14:51:14Z</time>
      </trkpt>
      <trkpt lat="44.48057" lon="6.75369">
        <ele>1323.6</ele>
        <time>2022-07-19T14:51:15Z</time>
      </trkpt>
      <trkpt lat="44.48058" lon="6.75361">
        <ele>1323.8</ele>
        <time>2022-07-19T14:51:16Z</time>
      </trkpt>
      <trkpt lat="44.4806" lon="6.75354">
        <ele>1323.8</ele>
        <time>2022-07-19T14:51:17Z</time>
      </trkpt>
      <trkpt lat="44.48061" lon="6.75346">
        <ele>1323.8</ele>
        <time>2022-07-19T14:51:18Z</time>
      </trkpt>
      <trkpt lat="44.48063" lon="6.75339">
        <ele>1323.8</ele>
        <time>2022-07-19T14:51:19Z</time>
      </trkpt>
      <trkpt lat="44.48066" lon="6.75331">
        <ele>1324</ele>
        <time>2022-07-19T14:51:20Z</time>
      </trkpt>
      <trkpt lat="44.48069" lon="6.75324">
        <ele>1324</ele>
        <time>2022-07-19T14:51:21Z</time>
      </trkpt>
      <trkpt lat="44.48072" lon="6.75317">
        <ele>1324</ele>
        <time>2022-07-19T14:51:22Z</time>
      </trkpt>
      <trkpt lat="44.48075" lon="6.7531">
        <ele>1324</ele>
        <time>2022-07-19T14:51:23Z</time>
      </trkpt>
      <trkpt lat="44.48079" lon="6.75304">
        <ele>1324</ele>
        <time>2022-07-19T14:51:24Z</time>
      </trkpt>
      <trkpt lat="44.48082" lon="6.75298">
        <ele>1324</ele>
        <time>2022-07-19T14:51:25Z</time>
      </trkpt>
      <trkpt lat="44.48086" lon="6.75291">
        <ele>1324</ele>
        <time>2022-07-19T14:51:26Z</time>
      </trkpt>
      <trkpt lat="44.48089" lon="6.75285">
        <ele>1324</ele>
        <time>2022-07-19T14:51:27Z</time>
      </trkpt>
      <trkpt lat="44.48092" lon="6.75279">
        <ele>1324</ele>
        <time>2022-07-19T14:51:28Z</time>
      </trkpt>
      <trkpt lat="44.48096" lon="6.75274">
        <ele>1324.2</ele>
        <time>2022-07-19T14:51:29Z</time>
      </trkpt>
      <trkpt lat="44.48099" lon="6.75268">
        <ele>1324.2</ele>
        <time>2022-07-19T14:51:30Z</time>
      </trkpt>
      <trkpt lat="44.48103" lon="6.75263">
        <ele>1324.2</ele>
        <time>2022-07-19T14:51:31Z</time>
      </trkpt>
      <trkpt lat="44.48106" lon="6.75257">
        <ele>1324.2</ele>
        <time>2022-07-19T14:51:32Z</time>
      </trkpt>
      <trkpt lat="44.48109" lon="6.75252">
        <ele>1324.2</ele>
        <time>2022-07-19T14:51:33Z</time>
      </trkpt>
      <trkpt lat="44.48112" lon="6.75247">
        <ele>1324.2</ele>
        <time>2022-07-19T14:51:34Z</time>
      </trkpt>
      <trkpt lat="44.48116" lon="6.75242">
        <ele>1324.2</ele>
        <time>2022-07-19T14:51:35Z</time>
      </trkpt>
      <trkpt lat="44.48119" lon="6.75237">
        <ele>1324.6</ele>
        <time>2022-07-19T14:51:36Z</time>
      </trkpt>
      <trkpt lat="44.48122" lon="6.75232">
        <ele>1324.6</ele>
        <time>2022-07-19T14:51:37Z</time>
      </trkpt>
      <trkpt lat="44.48125" lon="6.75227">
        <ele>1324.6</ele>
        <time>2022-07-19T14:51:38Z</time>
      </trkpt>
      <trkpt lat="44.48128" lon="6.75222">
        <ele>1324.6</ele>
        <time>2022-07-19T14:51:39Z</time>
      </trkpt>
      <trkpt lat="44.48132" lon="6.75217">
        <ele>1324.6</ele>
        <time>2022-07-19T14:51:40Z</time>
      </trkpt>
      <trkpt lat="44.48135" lon="6.75212">
        <ele>1324.8</ele>
        <time>2022-07-19T14:51:41Z</time>
      </trkpt>
      <trkpt lat="44.48139" lon="6.75207">
        <ele>1324.8</ele>
        <time>2022-07-19T14:51:42Z</time>
      </trkpt>
      <trkpt lat="44.48142" lon="6.75202">
        <ele>1324.8</ele>
        <time>2022-07-19T14:51:43Z</time>
      </trkpt>
      <trkpt lat="44.48145" lon="6.75197">
        <ele>1325</ele>
        <time>2022-07-19T14:51:44Z</time>
      </trkpt>
      <trkpt lat="44.48148" lon="6.75191">
        <ele>1325</ele>
        <time>2022-07-19T14:51:45Z</time>
      </trkpt>
      <trkpt lat="44.48151" lon="6.75186">
        <ele>1325.2</ele>
        <time>2022-07-19T14:51:46Z</time>
      </trkpt>
      <trkpt lat="44.48155" lon="6.75181">
        <ele>1325.2</ele>
        <time>2022-07-19T14:51:47Z</time>
      </trkpt>
      <trkpt lat="44.48158" lon="6.75176">
        <ele>1325.4</ele>
        <time>2022-07-19T14:51:48Z</time>
      </trkpt>
      <trkpt lat="44.48162" lon="6.75171">
        <ele>1325.4</ele>
        <time>2022-07-19T14:51:49Z</time>
      </trkpt>
      <trkpt lat="44.48165" lon="6.75166">
        <ele>1325.4</ele>
        <time>2022-07-19T14:51:50Z</time>
      </trkpt>
      <trkpt lat="44.48169" lon="6.75161">
        <ele>1325.8</ele>
        <time>2022-07-19T14:51:51Z</time>
      </trkpt>
      <trkpt lat="44.48173" lon="6.75156">
        <ele>1326</ele>
        <time>2022-07-19T14:51:52Z</time>
      </trkpt>
      <trkpt lat="44.48177" lon="6.75152">
        <ele>1326</ele>
        <time>2022-07-19T14:51:53Z</time>
      </trkpt>
      <trkpt lat="44.4818" lon="6.75147">
        <ele>1326</ele>
        <time>2022-07-19T14:51:54Z</time>
      </trkpt>
      <trkpt lat="44.48184" lon="6.75143">
        <ele>1326.2</ele>
        <time>2022-07-19T14:51:55Z</time>
      </trkpt>
      <trkpt lat="44.48188" lon="6.75138">
        <ele>1326.2</ele>
        <time>2022-07-19T14:51:56Z</time>
      </trkpt>
      <trkpt lat="44.48192" lon="6.75135">
        <ele>1326.2</ele>
        <time>2022-07-19T14:51:57Z</time>
      </trkpt>
      <trkpt lat="44.48196" lon="6.7513">
        <ele>1326.4</ele>
        <time>2022-07-19T14:51:58Z</time>
      </trkpt>
      <trkpt lat="44.482" lon="6.75127">
        <ele>1326.4</ele>
        <time>2022-07-19T14:51:59Z</time>
      </trkpt>
      <trkpt lat="44.48203" lon="6.75123">
        <ele>1326.4</ele>
        <time>2022-07-19T14:52:00Z</time>
      </trkpt>
      <trkpt lat="44.48207" lon="6.75119">
        <ele>1326.6</ele>
        <time>2022-07-19T14:52:01Z</time>
      </trkpt>
      <trkpt lat="44.48211" lon="6.75115">
        <ele>1326.8</ele>
        <time>2022-07-19T14:52:02Z</time>
      </trkpt>
      <trkpt lat="44.48215" lon="6.75111">
        <ele>1326.8</ele>
        <time>2022-07-19T14:52:03Z</time>
      </trkpt>
      <trkpt lat="44.48219" lon="6.75108">
        <ele>1327</ele>
        <time>2022-07-19T14:52:04Z</time>
      </trkpt>
      <trkpt lat="44.48222" lon="6.75104">
        <ele>1327</ele>
        <time>2022-07-19T14:52:05Z</time>
      </trkpt>
      <trkpt lat="44.48225" lon="6.75099">
        <ele>1327.4</ele>
        <time>2022-07-19T14:52:06Z</time>
      </trkpt>
      <trkpt lat="44.48229" lon="6.75095">
        <ele>1327.4</ele>
        <time>2022-07-19T14:52:07Z</time>
      </trkpt>
      <trkpt lat="44.48232" lon="6.75092">
        <ele>1327.6</ele>
        <time>2022-07-19T14:52:08Z</time>
      </trkpt>
      <trkpt lat="44.48236" lon="6.75088">
        <ele>1327.6</ele>
        <time>2022-07-19T14:52:09Z</time>
      </trkpt>
      <trkpt lat="44.48239" lon="6.75084">
        <ele>1327.8</ele>
        <time>2022-07-19T14:52:10Z</time>
      </trkpt>
      <trkpt lat="44.48243" lon="6.7508">
        <ele>1327.8</ele>
        <time>2022-07-19T14:52:11Z</time>
      </trkpt>
      <trkpt lat="44.48246" lon="6.75077">
        <ele>1328</ele>
        <time>2022-07-19T14:52:12Z</time>
      </trkpt>
      <trkpt lat="44.4825" lon="6.75073">
        <ele>1328</ele>
        <time>2022-07-19T14:52:13Z</time>
      </trkpt>
      <trkpt lat="44.48253" lon="6.75069">
        <ele>1328.4</ele>
        <time>2022-07-19T14:52:14Z</time>
      </trkpt>
      <trkpt lat="44.48257" lon="6.75065">
        <ele>1328.4</ele>
        <time>2022-07-19T14:52:15Z</time>
      </trkpt>
      <trkpt lat="44.48263" lon="6.75057">
        <ele>1328.4</ele>
        <time>2022-07-19T14:52:16Z</time>
      </trkpt>
      <trkpt lat="44.48267" lon="6.75053">
        <ele>1328.4</ele>
        <time>2022-07-19T14:52:17Z</time>
      </trkpt>
      <trkpt lat="44.4827" lon="6.75048">
        <ele>1328.6</ele>
        <time>2022-07-19T14:52:18Z</time>
      </trkpt>
      <trkpt lat="44.48274" lon="6.75044">
        <ele>1328.6</ele>
        <time>2022-07-19T14:52:19Z</time>
      </trkpt>
      <trkpt lat="44.48277" lon="6.75041">
        <ele>1328.6</ele>
        <time>2022-07-19T14:52:20Z</time>
      </trkpt>
      <trkpt lat="44.48281" lon="6.75037">
        <ele>1328.6</ele>
        <time>2022-07-19T14:52:21Z</time>
      </trkpt>
      <trkpt lat="44.48284" lon="6.75033">
        <ele>1329</ele>
        <time>2022-07-19T14:52:22Z</time>
      </trkpt>
      <trkpt lat="44.48288" lon="6.7503">
        <ele>1329</ele>
        <time>2022-07-19T14:52:23Z</time>
      </trkpt>
      <trkpt lat="44.48292" lon="6.75026">
        <ele>1329</ele>
        <time>2022-07-19T14:52:24Z</time>
      </trkpt>
      <trkpt lat="44.48296" lon="6.75022">
        <ele>1329.2</ele>
        <time>2022-07-19T14:52:25Z</time>
      </trkpt>
      <trkpt lat="44.48299" lon="6.75018">
        <ele>1329.2</ele>
        <time>2022-07-19T14:52:26Z</time>
      </trkpt>
      <trkpt lat="44.48303" lon="6.75015">
        <ele>1329.2</ele>
        <time>2022-07-19T14:52:27Z</time>
      </trkpt>
      <trkpt lat="44.48307" lon="6.75012">
        <ele>1329.4</ele>
        <time>2022-07-19T14:52:28Z</time>
      </trkpt>
      <trkpt lat="44.4831" lon="6.75009">
        <ele>1329.4</ele>
        <time>2022-07-19T14:52:29Z</time>
      </trkpt>
      <trkpt lat="44.48314" lon="6.75006">
        <ele>1329.6</ele>
        <time>2022-07-19T14:52:30Z</time>
      </trkpt>
      <trkpt lat="44.48317" lon="6.75003">
        <ele>1329.6</ele>
        <time>2022-07-19T14:52:31Z</time>
      </trkpt>
      <trkpt lat="44.4832" lon="6.74999">
        <ele>1330</ele>
        <time>2022-07-19T14:52:32Z</time>
      </trkpt>
      <trkpt lat="44.48324" lon="6.74996">
        <ele>1330</ele>
        <time>2022-07-19T14:52:33Z</time>
      </trkpt>
      <trkpt lat="44.48327" lon="6.74993">
        <ele>1330.2</ele>
        <time>2022-07-19T14:52:34Z</time>
      </trkpt>
      <trkpt lat="44.4833" lon="6.74989">
        <ele>1330.2</ele>
        <time>2022-07-19T14:52:35Z</time>
      </trkpt>
      <trkpt lat="44.48333" lon="6.74986">
        <ele>1330.6</ele>
        <time>2022-07-19T14:52:36Z</time>
      </trkpt>
      <trkpt lat="44.48336" lon="6.74982">
        <ele>1330.6</ele>
        <time>2022-07-19T14:52:37Z</time>
      </trkpt>
      <trkpt lat="44.4834" lon="6.74979">
        <ele>1330.8</ele>
        <time>2022-07-19T14:52:38Z</time>
      </trkpt>
      <trkpt lat="44.48343" lon="6.74976">
        <ele>1330.8</ele>
        <time>2022-07-19T14:52:39Z</time>
      </trkpt>
      <trkpt lat="44.48346" lon="6.74973">
        <ele>1331</ele>
        <time>2022-07-19T14:52:40Z</time>
      </trkpt>
      <trkpt lat="44.4835" lon="6.74969">
        <ele>1331</ele>
        <time>2022-07-19T14:52:41Z</time>
      </trkpt>
      <trkpt lat="44.48353" lon="6.74966">
        <ele>1331.4</ele>
        <time>2022-07-19T14:52:42Z</time>
      </trkpt>
      <trkpt lat="44.48356" lon="6.74962">
        <ele>1331.4</ele>
        <time>2022-07-19T14:52:43Z</time>
      </trkpt>
      <trkpt lat="44.4836" lon="6.74958">
        <ele>1331.6</ele>
        <time>2022-07-19T14:52:44Z</time>
      </trkpt>
      <trkpt lat="44.48363" lon="6.74953">
        <ele>1331.6</ele>
        <time>2022-07-19T14:52:45Z</time>
      </trkpt>
      <trkpt lat="44.48366" lon="6.74948">
        <ele>1331.6</ele>
        <time>2022-07-19T14:52:46Z</time>
      </trkpt>
      <trkpt lat="44.4837" lon="6.74944">
        <ele>1331.8</ele>
        <time>2022-07-19T14:52:47Z</time>
      </trkpt>
      <trkpt lat="44.48374" lon="6.74939">
        <ele>1331.8</ele>
        <time>2022-07-19T14:52:48Z</time>
      </trkpt>
      <trkpt lat="44.48377" lon="6.74934">
        <ele>1331.8</ele>
        <time>2022-07-19T14:52:49Z</time>
      </trkpt>
      <trkpt lat="44.48381" lon="6.74929">
        <ele>1332.2</ele>
        <time>2022-07-19T14:52:50Z</time>
      </trkpt>
      <trkpt lat="44.48384" lon="6.74924">
        <ele>1332.2</ele>
        <time>2022-07-19T14:52:51Z</time>
      </trkpt>
      <trkpt lat="44.48388" lon="6.74918">
        <ele>1332.2</ele>
        <time>2022-07-19T14:52:52Z</time>
      </trkpt>
      <trkpt lat="44.48391" lon="6.74913">
        <ele>1332.2</ele>
        <time>2022-07-19T14:52:53Z</time>
      </trkpt>
      <trkpt lat="44.48395" lon="6.74908">
        <ele>1332.2</ele>
        <time>2022-07-19T14:52:54Z</time>
      </trkpt>
      <trkpt lat="44.48398" lon="6.74902">
        <ele>1332.4</ele>
        <time>2022-07-19T14:52:55Z</time>
      </trkpt>
      <trkpt lat="44.48401" lon="6.74896">
        <ele>1332.4</ele>
        <time>2022-07-19T14:52:56Z</time>
      </trkpt>
      <trkpt lat="44.48404" lon="6.74891">
        <ele>1332.4</ele>
        <time>2022-07-19T14:52:57Z</time>
      </trkpt>
      <trkpt lat="44.48407" lon="6.74886">
        <ele>1332.6</ele>
        <time>2022-07-19T14:52:58Z</time>
      </trkpt>
      <trkpt lat="44.48411" lon="6.74881">
        <ele>1332.6</ele>
        <time>2022-07-19T14:52:59Z</time>
      </trkpt>
      <trkpt lat="44.48414" lon="6.74877">
        <ele>1332.8</ele>
        <time>2022-07-19T14:53:00Z</time>
      </trkpt>
      <trkpt lat="44.48418" lon="6.74872">
        <ele>1332.8</ele>
        <time>2022-07-19T14:53:01Z</time>
      </trkpt>
      <trkpt lat="44.48422" lon="6.74868">
        <ele>1332.8</ele>
        <time>2022-07-19T14:53:02Z</time>
      </trkpt>
      <trkpt lat="44.48425" lon="6.74864">
        <ele>1332.8</ele>
        <time>2022-07-19T14:53:03Z</time>
      </trkpt>
      <trkpt lat="44.48429" lon="6.74859">
        <ele>1333</ele>
        <time>2022-07-19T14:53:04Z</time>
      </trkpt>
      <trkpt lat="44.48433" lon="6.74855">
        <ele>1333</ele>
        <time>2022-07-19T14:53:05Z</time>
      </trkpt>
      <trkpt lat="44.48438" lon="6.74851">
        <ele>1333</ele>
        <time>2022-07-19T14:53:06Z</time>
      </trkpt>
      <trkpt lat="44.48442" lon="6.74846">
        <ele>1333.4</ele>
        <time>2022-07-19T14:53:07Z</time>
      </trkpt>
      <trkpt lat="44.48446" lon="6.74842">
        <ele>1333.4</ele>
        <time>2022-07-19T14:53:08Z</time>
      </trkpt>
      <trkpt lat="44.4845" lon="6.74838">
        <ele>1333.4</ele>
        <time>2022-07-19T14:53:09Z</time>
      </trkpt>
      <trkpt lat="44.48454" lon="6.74834">
        <ele>1333.6</ele>
        <time>2022-07-19T14:53:10Z</time>
      </trkpt>
      <trkpt lat="44.48458" lon="6.74831">
        <ele>1333.6</ele>
        <time>2022-07-19T14:53:11Z</time>
      </trkpt>
      <trkpt lat="44.48463" lon="6.74828">
        <ele>1333.6</ele>
        <time>2022-07-19T14:53:12Z</time>
      </trkpt>
      <trkpt lat="44.48467" lon="6.74825">
        <ele>1333.6</ele>
        <time>2022-07-19T14:53:13Z</time>
      </trkpt>
      <trkpt lat="44.48471" lon="6.74823">
        <ele>1333.6</ele>
        <time>2022-07-19T14:53:14Z</time>
      </trkpt>
      <trkpt lat="44.48475" lon="6.7482">
        <ele>1333.8</ele>
        <time>2022-07-19T14:53:15Z</time>
      </trkpt>
      <trkpt lat="44.4848" lon="6.74817">
        <ele>1333.8</ele>
        <time>2022-07-19T14:53:16Z</time>
      </trkpt>
      <trkpt lat="44.48484" lon="6.74814">
        <ele>1333.8</ele>
        <time>2022-07-19T14:53:17Z</time>
      </trkpt>
      <trkpt lat="44.48488" lon="6.74811">
        <ele>1333.8</ele>
        <time>2022-07-19T14:53:18Z</time>
      </trkpt>
      <trkpt lat="44.48492" lon="6.74808">
        <ele>1333.8</ele>
        <time>2022-07-19T14:53:19Z</time>
      </trkpt>
      <trkpt lat="44.48496" lon="6.74805">
        <ele>1334</ele>
        <time>2022-07-19T14:53:20Z</time>
      </trkpt>
      <trkpt lat="44.485" lon="6.74802">
        <ele>1334</ele>
        <time>2022-07-19T14:53:21Z</time>
      </trkpt>
      <trkpt lat="44.48504" lon="6.74799">
        <ele>1334.2</ele>
        <time>2022-07-19T14:53:22Z</time>
      </trkpt>
      <trkpt lat="44.48508" lon="6.74797">
        <ele>1334.2</ele>
        <time>2022-07-19T14:53:23Z</time>
      </trkpt>
      <trkpt lat="44.48512" lon="6.74794">
        <ele>1334.6</ele>
        <time>2022-07-19T14:53:24Z</time>
      </trkpt>
      <trkpt lat="44.48516" lon="6.74791">
        <ele>1334.6</ele>
        <time>2022-07-19T14:53:25Z</time>
      </trkpt>
      <trkpt lat="44.4852" lon="6.74789">
        <ele>1334.8</ele>
        <time>2022-07-19T14:53:26Z</time>
      </trkpt>
      <trkpt lat="44.48524" lon="6.74786">
        <ele>1334.8</ele>
        <time>2022-07-19T14:53:27Z</time>
      </trkpt>
      <trkpt lat="44.48528" lon="6.74783">
        <ele>1335.2</ele>
        <time>2022-07-19T14:53:28Z</time>
      </trkpt>
      <trkpt lat="44.48532" lon="6.74781">
        <ele>1335.2</ele>
        <time>2022-07-19T14:53:29Z</time>
      </trkpt>
      <trkpt lat="44.48536" lon="6.74778">
        <ele>1335.4</ele>
        <time>2022-07-19T14:53:30Z</time>
      </trkpt>
      <trkpt lat="44.48541" lon="6.74776">
        <ele>1335.4</ele>
        <time>2022-07-19T14:53:31Z</time>
      </trkpt>
      <trkpt lat="44.48545" lon="6.74774">
        <ele>1335.4</ele>
        <time>2022-07-19T14:53:32Z</time>
      </trkpt>
      <trkpt lat="44.48549" lon="6.74772">
        <ele>1335.6</ele>
        <time>2022-07-19T14:53:33Z</time>
      </trkpt>
      <trkpt lat="44.48553" lon="6.74769">
        <ele>1335.6</ele>
        <time>2022-07-19T14:53:34Z</time>
      </trkpt>
      <trkpt lat="44.48558" lon="6.74768">
        <ele>1336</ele>
        <time>2022-07-19T14:53:35Z</time>
      </trkpt>
      <trkpt lat="44.48562" lon="6.74766">
        <ele>1336</ele>
        <time>2022-07-19T14:53:36Z</time>
      </trkpt>
      <trkpt lat="44.48567" lon="6.74765">
        <ele>1336.2</ele>
        <time>2022-07-19T14:53:37Z</time>
      </trkpt>
      <trkpt lat="44.48571" lon="6.74763">
        <ele>1336.2</ele>
        <time>2022-07-19T14:53:38Z</time>
      </trkpt>
      <trkpt lat="44.48576" lon="6.74761">
        <ele>1336.2</ele>
        <time>2022-07-19T14:53:39Z</time>
      </trkpt>
      <trkpt lat="44.4858" lon="6.7476">
        <ele>1336.4</ele>
        <time>2022-07-19T14:53:40Z</time>
      </trkpt>
      <trkpt lat="44.48584" lon="6.74758">
        <ele>1336.4</ele>
        <time>2022-07-19T14:53:41Z</time>
      </trkpt>
      <trkpt lat="44.48589" lon="6.74757">
        <ele>1336.6</ele>
        <time>2022-07-19T14:53:42Z</time>
      </trkpt>
      <trkpt lat="44.48593" lon="6.74755">
        <ele>1336.6</ele>
        <time>2022-07-19T14:53:43Z</time>
      </trkpt>
      <trkpt lat="44.48598" lon="6.74753">
        <ele>1337</ele>
        <time>2022-07-19T14:53:44Z</time>
      </trkpt>
      <trkpt lat="44.48602" lon="6.74752">
        <ele>1337</ele>
        <time>2022-07-19T14:53:45Z</time>
      </trkpt>
      <trkpt lat="44.48607" lon="6.74749">
        <ele>1337.2</ele>
        <time>2022-07-19T14:53:46Z</time>
      </trkpt>
      <trkpt lat="44.48611" lon="6.74746">
        <ele>1337.2</ele>
        <time>2022-07-19T14:53:47Z</time>
      </trkpt>
      <trkpt lat="44.48615" lon="6.74743">
        <ele>1337.2</ele>
        <time>2022-07-19T14:53:48Z</time>
      </trkpt>
      <trkpt lat="44.48619" lon="6.74739">
        <ele>1337.2</ele>
        <time>2022-07-19T14:53:49Z</time>
      </trkpt>
      <trkpt lat="44.48623" lon="6.74734">
        <ele>1337.2</ele>
        <time>2022-07-19T14:53:50Z</time>
      </trkpt>
      <trkpt lat="44.48626" lon="6.74729">
        <ele>1337.2</ele>
        <time>2022-07-19T14:53:51Z</time>
      </trkpt>
      <trkpt lat="44.4863" lon="6.74724">
        <ele>1337.2</ele>
        <time>2022-07-19T14:53:52Z</time>
      </trkpt>
      <trkpt lat="44.48633" lon="6.74718">
        <ele>1337.2</ele>
        <time>2022-07-19T14:53:53Z</time>
      </trkpt>
      <trkpt lat="44.48637" lon="6.74712">
        <ele>1337.4</ele>
        <time>2022-07-19T14:53:54Z</time>
      </trkpt>
      <trkpt lat="44.4864" lon="6.74706">
        <ele>1337.4</ele>
        <time>2022-07-19T14:53:55Z</time>
      </trkpt>
      <trkpt lat="44.48643" lon="6.74701">
        <ele>1337.4</ele>
        <time>2022-07-19T14:53:56Z</time>
      </trkpt>
      <trkpt lat="44.48647" lon="6.74695">
        <ele>1337.4</ele>
        <time>2022-07-19T14:53:57Z</time>
      </trkpt>
      <trkpt lat="44.4865" lon="6.74689">
        <ele>1337.6</ele>
        <time>2022-07-19T14:53:58Z</time>
      </trkpt>
      <trkpt lat="44.48654" lon="6.74684">
        <ele>1337.6</ele>
        <time>2022-07-19T14:53:59Z</time>
      </trkpt>
      <trkpt lat="44.48657" lon="6.74678">
        <ele>1337.6</ele>
        <time>2022-07-19T14:54:00Z</time>
      </trkpt>
      <trkpt lat="44.4866" lon="6.74673">
        <ele>1337.6</ele>
        <time>2022-07-19T14:54:01Z</time>
      </trkpt>
      <trkpt lat="44.48664" lon="6.74668">
        <ele>1337.6</ele>
        <time>2022-07-19T14:54:02Z</time>
      </trkpt>
      <trkpt lat="44.48667" lon="6.74663">
        <ele>1337.6</ele>
        <time>2022-07-19T14:54:03Z</time>
      </trkpt>
      <trkpt lat="44.4867" lon="6.74658">
        <ele>1338</ele>
        <time>2022-07-19T14:54:04Z</time>
      </trkpt>
      <trkpt lat="44.48674" lon="6.74653">
        <ele>1338</ele>
        <time>2022-07-19T14:54:05Z</time>
      </trkpt>
      <trkpt lat="44.48677" lon="6.74648">
        <ele>1338.2</ele>
        <time>2022-07-19T14:54:06Z</time>
      </trkpt>
      <trkpt lat="44.48681" lon="6.74643">
        <ele>1338.2</ele>
        <time>2022-07-19T14:54:07Z</time>
      </trkpt>
      <trkpt lat="44.48684" lon="6.74638">
        <ele>1338.4</ele>
        <time>2022-07-19T14:54:08Z</time>
      </trkpt>
      <trkpt lat="44.48687" lon="6.74633">
        <ele>1338.4</ele>
        <time>2022-07-19T14:54:09Z</time>
      </trkpt>
      <trkpt lat="44.48691" lon="6.74629">
        <ele>1338.4</ele>
        <time>2022-07-19T14:54:10Z</time>
      </trkpt>
      <trkpt lat="44.48695" lon="6.74624">
        <ele>1338.6</ele>
        <time>2022-07-19T14:54:11Z</time>
      </trkpt>
      <trkpt lat="44.48699" lon="6.7462">
        <ele>1338.6</ele>
        <time>2022-07-19T14:54:12Z</time>
      </trkpt>
      <trkpt lat="44.48702" lon="6.74616">
        <ele>1338.6</ele>
        <time>2022-07-19T14:54:13Z</time>
      </trkpt>
      <trkpt lat="44.48706" lon="6.74612">
        <ele>1338.8</ele>
        <time>2022-07-19T14:54:14Z</time>
      </trkpt>
      <trkpt lat="44.4871" lon="6.74608">
        <ele>1338.8</ele>
        <time>2022-07-19T14:54:15Z</time>
      </trkpt>
      <trkpt lat="44.48714" lon="6.74604">
        <ele>1338.8</ele>
        <time>2022-07-19T14:54:16Z</time>
      </trkpt>
      <trkpt lat="44.48719" lon="6.746">
        <ele>1339</ele>
        <time>2022-07-19T14:54:17Z</time>
      </trkpt>
      <trkpt lat="44.48723" lon="6.74597">
        <ele>1339</ele>
        <time>2022-07-19T14:54:18Z</time>
      </trkpt>
      <trkpt lat="44.48727" lon="6.74593">
        <ele>1339.4</ele>
        <time>2022-07-19T14:54:19Z</time>
      </trkpt>
      <trkpt lat="44.48732" lon="6.7459">
        <ele>1339.4</ele>
        <time>2022-07-19T14:54:20Z</time>
      </trkpt>
      <trkpt lat="44.48736" lon="6.74587">
        <ele>1339.4</ele>
        <time>2022-07-19T14:54:21Z</time>
      </trkpt>
      <trkpt lat="44.48741" lon="6.74585">
        <ele>1339.6</ele>
        <time>2022-07-19T14:54:22Z</time>
      </trkpt>
      <trkpt lat="44.48745" lon="6.74582">
        <ele>1339.6</ele>
        <time>2022-07-19T14:54:23Z</time>
      </trkpt>
      <trkpt lat="44.4875" lon="6.7458">
        <ele>1339.6</ele>
        <time>2022-07-19T14:54:24Z</time>
      </trkpt>
      <trkpt lat="44.48754" lon="6.74577">
        <ele>1339.8</ele>
        <time>2022-07-19T14:54:25Z</time>
      </trkpt>
      <trkpt lat="44.48759" lon="6.74575">
        <ele>1339.8</ele>
        <time>2022-07-19T14:54:26Z</time>
      </trkpt>
      <trkpt lat="44.48763" lon="6.74573">
        <ele>1340.2</ele>
        <time>2022-07-19T14:54:27Z</time>
      </trkpt>
      <trkpt lat="44.48768" lon="6.74571">
        <ele>1340.2</ele>
        <time>2022-07-19T14:54:28Z</time>
      </trkpt>
      <trkpt lat="44.48772" lon="6.74568">
        <ele>1340.4</ele>
        <time>2022-07-19T14:54:29Z</time>
      </trkpt>
      <trkpt lat="44.48777" lon="6.74565">
        <ele>1340.4</ele>
        <time>2022-07-19T14:54:30Z</time>
      </trkpt>
      <trkpt lat="44.48781" lon="6.74563">
        <ele>1340.8</ele>
        <time>2022-07-19T14:54:31Z</time>
      </trkpt>
      <trkpt lat="44.48785" lon="6.7456">
        <ele>1340.8</ele>
        <time>2022-07-19T14:54:32Z</time>
      </trkpt>
      <trkpt lat="44.4879" lon="6.74558">
        <ele>1341</ele>
        <time>2022-07-19T14:54:33Z</time>
      </trkpt>
      <trkpt lat="44.48794" lon="6.74555">
        <ele>1341</ele>
        <time>2022-07-19T14:54:34Z</time>
      </trkpt>
      <trkpt lat="44.48798" lon="6.74552">
        <ele>1341.4</ele>
        <time>2022-07-19T14:54:35Z</time>
      </trkpt>
      <trkpt lat="44.48802" lon="6.74549">
        <ele>1341.4</ele>
        <time>2022-07-19T14:54:36Z</time>
      </trkpt>
      <trkpt lat="44.48806" lon="6.74546">
        <ele>1341.6</ele>
        <time>2022-07-19T14:54:37Z</time>
      </trkpt>
      <trkpt lat="44.48809" lon="6.74542">
        <ele>1341.6</ele>
        <time>2022-07-19T14:54:38Z</time>
      </trkpt>
      <trkpt lat="44.48813" lon="6.74539">
        <ele>1341.8</ele>
        <time>2022-07-19T14:54:39Z</time>
      </trkpt>
      <trkpt lat="44.48817" lon="6.74536">
        <ele>1341.8</ele>
        <time>2022-07-19T14:54:40Z</time>
      </trkpt>
      <trkpt lat="44.48821" lon="6.74532">
        <ele>1342</ele>
        <time>2022-07-19T14:54:41Z</time>
      </trkpt>
      <trkpt lat="44.48824" lon="6.74528">
        <ele>1342</ele>
        <time>2022-07-19T14:54:42Z</time>
      </trkpt>
      <trkpt lat="44.48828" lon="6.74524">
        <ele>1342.2</ele>
        <time>2022-07-19T14:54:43Z</time>
      </trkpt>
      <trkpt lat="44.48832" lon="6.74521">
        <ele>1342.2</ele>
        <time>2022-07-19T14:54:44Z</time>
      </trkpt>
      <trkpt lat="44.48835" lon="6.74517">
        <ele>1342.6</ele>
        <time>2022-07-19T14:54:45Z</time>
      </trkpt>
      <trkpt lat="44.48839" lon="6.74514">
        <ele>1342.8</ele>
        <time>2022-07-19T14:54:46Z</time>
      </trkpt>
      <trkpt lat="44.48842" lon="6.7451">
        <ele>1342.8</ele>
        <time>2022-07-19T14:54:47Z</time>
      </trkpt>
      <trkpt lat="44.48845" lon="6.74506">
        <ele>1343</ele>
        <time>2022-07-19T14:54:48Z</time>
      </trkpt>
      <trkpt lat="44.48849" lon="6.74503">
        <ele>1343</ele>
        <time>2022-07-19T14:54:49Z</time>
      </trkpt>
      <trkpt lat="44.48852" lon="6.74499">
        <ele>1343</ele>
        <time>2022-07-19T14:54:50Z</time>
      </trkpt>
      <trkpt lat="44.48855" lon="6.74495">
        <ele>1343.2</ele>
        <time>2022-07-19T14:54:51Z</time>
      </trkpt>
      <trkpt lat="44.48858" lon="6.74491">
        <ele>1343.2</ele>
        <time>2022-07-19T14:54:52Z</time>
      </trkpt>
      <trkpt lat="44.48861" lon="6.74486">
        <ele>1343.6</ele>
        <time>2022-07-19T14:54:53Z</time>
      </trkpt>
      <trkpt lat="44.48864" lon="6.74482">
        <ele>1343.6</ele>
        <time>2022-07-19T14:54:54Z</time>
      </trkpt>
      <trkpt lat="44.48867" lon="6.74478">
        <ele>1343.8</ele>
        <time>2022-07-19T14:54:55Z</time>
      </trkpt>
      <trkpt lat="44.4887" lon="6.74474">
        <ele>1343.8</ele>
        <time>2022-07-19T14:54:56Z</time>
      </trkpt>
      <trkpt lat="44.48873" lon="6.7447">
        <ele>1344</ele>
        <time>2022-07-19T14:54:57Z</time>
      </trkpt>
      <trkpt lat="44.48876" lon="6.74466">
        <ele>1344</ele>
        <time>2022-07-19T14:54:58Z</time>
      </trkpt>
      <trkpt lat="44.48878" lon="6.74461">
        <ele>1344.4</ele>
        <time>2022-07-19T14:54:59Z</time>
      </trkpt>
      <trkpt lat="44.48881" lon="6.74457">
        <ele>1344.4</ele>
        <time>2022-07-19T14:55:00Z</time>
      </trkpt>
      <trkpt lat="44.48883" lon="6.74452">
        <ele>1344.6</ele>
        <time>2022-07-19T14:55:01Z</time>
      </trkpt>
      <trkpt lat="44.48886" lon="6.74447">
        <ele>1344.6</ele>
        <time>2022-07-19T14:55:02Z</time>
      </trkpt>
      <trkpt lat="44.48888" lon="6.74443">
        <ele>1345</ele>
        <time>2022-07-19T14:55:03Z</time>
      </trkpt>
      <trkpt lat="44.48891" lon="6.74438">
        <ele>1345</ele>
        <time>2022-07-19T14:55:04Z</time>
      </trkpt>
      <trkpt lat="44.48893" lon="6.74433">
        <ele>1345</ele>
        <time>2022-07-19T14:55:05Z</time>
      </trkpt>
      <trkpt lat="44.48895" lon="6.74429">
        <ele>1345.4</ele>
        <time>2022-07-19T14:55:06Z</time>
      </trkpt>
      <trkpt lat="44.48898" lon="6.74424">
        <ele>1345.4</ele>
        <time>2022-07-19T14:55:07Z</time>
      </trkpt>
      <trkpt lat="44.48899" lon="6.74419">
        <ele>1345.6</ele>
        <time>2022-07-19T14:55:08Z</time>
      </trkpt>
      <trkpt lat="44.48902" lon="6.74415">
        <ele>1345.6</ele>
        <time>2022-07-19T14:55:09Z</time>
      </trkpt>
      <trkpt lat="44.48904" lon="6.7441">
        <ele>1345.8</ele>
        <time>2022-07-19T14:55:10Z</time>
      </trkpt>
      <trkpt lat="44.48906" lon="6.74406">
        <ele>1346</ele>
        <time>2022-07-19T14:55:11Z</time>
      </trkpt>
      <trkpt lat="44.48907" lon="6.74402">
        <ele>1346</ele>
        <time>2022-07-19T14:55:12Z</time>
      </trkpt>
      <trkpt lat="44.48909" lon="6.74398">
        <ele>1346.4</ele>
        <time>2022-07-19T14:55:13Z</time>
      </trkpt>
      <trkpt lat="44.48911" lon="6.74393">
        <ele>1346.6</ele>
        <time>2022-07-19T14:55:14Z</time>
      </trkpt>
      <trkpt lat="44.48913" lon="6.74389">
        <ele>1346.8</ele>
        <time>2022-07-19T14:55:15Z</time>
      </trkpt>
      <trkpt lat="44.48916" lon="6.74386">
        <ele>1346.8</ele>
        <time>2022-07-19T14:55:16Z</time>
      </trkpt>
      <trkpt lat="44.48919" lon="6.74382">
        <ele>1347.2</ele>
        <time>2022-07-19T14:55:17Z</time>
      </trkpt>
      <trkpt lat="44.48921" lon="6.74378">
        <ele>1347.4</ele>
        <time>2022-07-19T14:55:18Z</time>
      </trkpt>
      <trkpt lat="44.48923" lon="6.74375">
        <ele>1347.8</ele>
        <time>2022-07-19T14:55:19Z</time>
      </trkpt>
      <trkpt lat="44.48926" lon="6.74371">
        <ele>1347.8</ele>
        <time>2022-07-19T14:55:20Z</time>
      </trkpt>
      <trkpt lat="44.48928" lon="6.74367">
        <ele>1348</ele>
        <time>2022-07-19T14:55:21Z</time>
      </trkpt>
      <trkpt lat="44.48931" lon="6.74364">
        <ele>1348</ele>
        <time>2022-07-19T14:55:22Z</time>
      </trkpt>
      <trkpt lat="44.48934" lon="6.7436">
        <ele>1348.2</ele>
        <time>2022-07-19T14:55:23Z</time>
      </trkpt>
      <trkpt lat="44.48936" lon="6.74357">
        <ele>1348.2</ele>
        <time>2022-07-19T14:55:24Z</time>
      </trkpt>
      <trkpt lat="44.4894" lon="6.74353">
        <ele>1348.2</ele>
        <time>2022-07-19T14:55:25Z</time>
      </trkpt>
      <trkpt lat="44.48943" lon="6.7435">
        <ele>1348.4</ele>
        <time>2022-07-19T14:55:26Z</time>
      </trkpt>
      <trkpt lat="44.48947" lon="6.74347">
        <ele>1348.4</ele>
        <time>2022-07-19T14:55:27Z</time>
      </trkpt>
      <trkpt lat="44.4895" lon="6.74344">
        <ele>1348.4</ele>
        <time>2022-07-19T14:55:28Z</time>
      </trkpt>
      <trkpt lat="44.48953" lon="6.74341">
        <ele>1348.6</ele>
        <time>2022-07-19T14:55:29Z</time>
      </trkpt>
      <trkpt lat="44.48956" lon="6.74339">
        <ele>1348.6</ele>
        <time>2022-07-19T14:55:30Z</time>
      </trkpt>
      <trkpt lat="44.4896" lon="6.74336">
        <ele>1349</ele>
        <time>2022-07-19T14:55:31Z</time>
      </trkpt>
      <trkpt lat="44.48963" lon="6.74334">
        <ele>1349</ele>
        <time>2022-07-19T14:55:32Z</time>
      </trkpt>
      <trkpt lat="44.48966" lon="6.74332">
        <ele>1349.2</ele>
        <time>2022-07-19T14:55:33Z</time>
      </trkpt>
      <trkpt lat="44.48969" lon="6.74331">
        <ele>1349.2</ele>
        <time>2022-07-19T14:55:34Z</time>
      </trkpt>
      <trkpt lat="44.48973" lon="6.74329">
        <ele>1349.4</ele>
        <time>2022-07-19T14:55:35Z</time>
      </trkpt>
      <trkpt lat="44.48976" lon="6.74328">
        <ele>1349.4</ele>
        <time>2022-07-19T14:55:36Z</time>
      </trkpt>
      <trkpt lat="44.4898" lon="6.74327">
        <ele>1349.8</ele>
        <time>2022-07-19T14:55:37Z</time>
      </trkpt>
      <trkpt lat="44.48983" lon="6.74326">
        <ele>1349.8</ele>
        <time>2022-07-19T14:55:38Z</time>
      </trkpt>
      <trkpt lat="44.48987" lon="6.74326">
        <ele>1350</ele>
        <time>2022-07-19T14:55:39Z</time>
      </trkpt>
      <trkpt lat="44.4899" lon="6.74325">
        <ele>1350</ele>
        <time>2022-07-19T14:55:40Z</time>
      </trkpt>
      <trkpt lat="44.48994" lon="6.74324">
        <ele>1350.4</ele>
        <time>2022-07-19T14:55:42Z</time>
      </trkpt>
      <trkpt lat="44.48997" lon="6.74324">
        <ele>1350.6</ele>
        <time>2022-07-19T14:55:43Z</time>
      </trkpt>
      <trkpt lat="44.49001" lon="6.74323">
        <ele>1350.6</ele>
        <time>2022-07-19T14:55:44Z</time>
      </trkpt>
      <trkpt lat="44.49004" lon="6.74323">
        <ele>1350.8</ele>
        <time>2022-07-19T14:55:45Z</time>
      </trkpt>
      <trkpt lat="44.49008" lon="6.74322">
        <ele>1350.8</ele>
        <time>2022-07-19T14:55:46Z</time>
      </trkpt>
      <trkpt lat="44.49011" lon="6.74321">
        <ele>1351</ele>
        <time>2022-07-19T14:55:47Z</time>
      </trkpt>
      <trkpt lat="44.49014" lon="6.74321">
        <ele>1351</ele>
        <time>2022-07-19T14:55:48Z</time>
      </trkpt>
      <trkpt lat="44.49018" lon="6.7432">
        <ele>1351.4</ele>
        <time>2022-07-19T14:55:49Z</time>
      </trkpt>
      <trkpt lat="44.49021" lon="6.74319">
        <ele>1351.4</ele>
        <time>2022-07-19T14:55:50Z</time>
      </trkpt>
      <trkpt lat="44.49024" lon="6.74318">
        <ele>1351.6</ele>
        <time>2022-07-19T14:55:51Z</time>
      </trkpt>
      <trkpt lat="44.49027" lon="6.74316">
        <ele>1351.6</ele>
        <time>2022-07-19T14:55:52Z</time>
      </trkpt>
      <trkpt lat="44.49031" lon="6.74315">
        <ele>1352</ele>
        <time>2022-07-19T14:55:53Z</time>
      </trkpt>
      <trkpt lat="44.49034" lon="6.74314">
        <ele>1352</ele>
        <time>2022-07-19T14:55:54Z</time>
      </trkpt>
      <trkpt lat="44.49037" lon="6.74313">
        <ele>1352.2</ele>
        <time>2022-07-19T14:55:55Z</time>
      </trkpt>
      <trkpt lat="44.4904" lon="6.74311">
        <ele>1352.2</ele>
        <time>2022-07-19T14:55:56Z</time>
      </trkpt>
      <trkpt lat="44.49043" lon="6.74309">
        <ele>1352.6</ele>
        <time>2022-07-19T14:55:57Z</time>
      </trkpt>
      <trkpt lat="44.49046" lon="6.74307">
        <ele>1352.6</ele>
        <time>2022-07-19T14:55:58Z</time>
      </trkpt>
      <trkpt lat="44.49048" lon="6.74305">
        <ele>1352.8</ele>
        <time>2022-07-19T14:55:59Z</time>
      </trkpt>
      <trkpt lat="44.49052" lon="6.74303">
        <ele>1352.8</ele>
        <time>2022-07-19T14:56:00Z</time>
      </trkpt>
      <trkpt lat="44.49055" lon="6.74301">
        <ele>1353.2</ele>
        <time>2022-07-19T14:56:01Z</time>
      </trkpt>
      <trkpt lat="44.49058" lon="6.74298">
        <ele>1353.2</ele>
        <time>2022-07-19T14:56:02Z</time>
      </trkpt>
      <trkpt lat="44.49061" lon="6.74296">
        <ele>1353.4</ele>
        <time>2022-07-19T14:56:03Z</time>
      </trkpt>
      <trkpt lat="44.49064" lon="6.74293">
        <ele>1353.6</ele>
        <time>2022-07-19T14:56:04Z</time>
      </trkpt>
      <trkpt lat="44.49067" lon="6.74291">
        <ele>1353.6</ele>
        <time>2022-07-19T14:56:05Z</time>
      </trkpt>
      <trkpt lat="44.4907" lon="6.74288">
        <ele>1354</ele>
        <time>2022-07-19T14:56:06Z</time>
      </trkpt>
      <trkpt lat="44.49073" lon="6.74286">
        <ele>1354</ele>
        <time>2022-07-19T14:56:07Z</time>
      </trkpt>
      <trkpt lat="44.49076" lon="6.74283">
        <ele>1354.4</ele>
        <time>2022-07-19T14:56:08Z</time>
      </trkpt>
      <trkpt lat="44.49079" lon="6.7428">
        <ele>1354.4</ele>
        <time>2022-07-19T14:56:09Z</time>
      </trkpt>
      <trkpt lat="44.49082" lon="6.74277">
        <ele>1354.6</ele>
        <time>2022-07-19T14:56:10Z</time>
      </trkpt>
      <trkpt lat="44.49085" lon="6.74274">
        <ele>1354.8</ele>
        <time>2022-07-19T14:56:11Z</time>
      </trkpt>
      <trkpt lat="44.49087" lon="6.74271">
        <ele>1354.8</ele>
        <time>2022-07-19T14:56:12Z</time>
      </trkpt>
      <trkpt lat="44.4909" lon="6.74268">
        <ele>1355.2</ele>
        <time>2022-07-19T14:56:13Z</time>
      </trkpt>
      <trkpt lat="44.49093" lon="6.74265">
        <ele>1355.2</ele>
        <time>2022-07-19T14:56:14Z</time>
      </trkpt>
      <trkpt lat="44.49096" lon="6.74261">
        <ele>1355.6</ele>
        <time>2022-07-19T14:56:15Z</time>
      </trkpt>
      <trkpt lat="44.49098" lon="6.74258">
        <ele>1355.6</ele>
        <time>2022-07-19T14:56:16Z</time>
      </trkpt>
      <trkpt lat="44.491" lon="6.74254">
        <ele>1355.8</ele>
        <time>2022-07-19T14:56:17Z</time>
      </trkpt>
      <trkpt lat="44.49103" lon="6.74251">
        <ele>1355.8</ele>
        <time>2022-07-19T14:56:18Z</time>
      </trkpt>
      <trkpt lat="44.49106" lon="6.74247">
        <ele>1356.2</ele>
        <time>2022-07-19T14:56:19Z</time>
      </trkpt>
      <trkpt lat="44.49108" lon="6.74244">
        <ele>1356.2</ele>
        <time>2022-07-19T14:56:20Z</time>
      </trkpt>
      <trkpt lat="44.49111" lon="6.74241">
        <ele>1356.2</ele>
        <time>2022-07-19T14:56:21Z</time>
      </trkpt>
      <trkpt lat="44.49113" lon="6.74238">
        <ele>1356.2</ele>
        <time>2022-07-19T14:56:22Z</time>
      </trkpt>
      <trkpt lat="44.49116" lon="6.74235">
        <ele>1356.4</ele>
        <time>2022-07-19T14:56:23Z</time>
      </trkpt>
      <trkpt lat="44.49119" lon="6.74232">
        <ele>1356.4</ele>
        <time>2022-07-19T14:56:24Z</time>
      </trkpt>
      <trkpt lat="44.49122" lon="6.74229">
        <ele>1356.8</ele>
        <time>2022-07-19T14:56:25Z</time>
      </trkpt>
      <trkpt lat="44.49125" lon="6.74226">
        <ele>1356.8</ele>
        <time>2022-07-19T14:56:26Z</time>
      </trkpt>
      <trkpt lat="44.49128" lon="6.74224">
        <ele>1357.2</ele>
        <time>2022-07-19T14:56:27Z</time>
      </trkpt>
      <trkpt lat="44.49131" lon="6.74222">
        <ele>1357.2</ele>
        <time>2022-07-19T14:56:28Z</time>
      </trkpt>
      <trkpt lat="44.49135" lon="6.7422">
        <ele>1357.4</ele>
        <time>2022-07-19T14:56:29Z</time>
      </trkpt>
      <trkpt lat="44.49139" lon="6.74218">
        <ele>1357.4</ele>
        <time>2022-07-19T14:56:30Z</time>
      </trkpt>
      <trkpt lat="44.49142" lon="6.74217">
        <ele>1357.6</ele>
        <time>2022-07-19T14:56:31Z</time>
      </trkpt>
      <trkpt lat="44.49145" lon="6.74215">
        <ele>1357.6</ele>
        <time>2022-07-19T14:56:32Z</time>
      </trkpt>
      <trkpt lat="44.49149" lon="6.74214">
        <ele>1358</ele>
        <time>2022-07-19T14:56:33Z</time>
      </trkpt>
      <trkpt lat="44.49152" lon="6.74213">
        <ele>1358.2</ele>
        <time>2022-07-19T14:56:34Z</time>
      </trkpt>
      <trkpt lat="44.49156" lon="6.74213">
        <ele>1358.4</ele>
        <time>2022-07-19T14:56:35Z</time>
      </trkpt>
      <trkpt lat="44.49159" lon="6.74212">
        <ele>1358.8</ele>
        <time>2022-07-19T14:56:36Z</time>
      </trkpt>
      <trkpt lat="44.49163" lon="6.74212">
        <ele>1358.8</ele>
        <time>2022-07-19T14:56:37Z</time>
      </trkpt>
      <trkpt lat="44.49166" lon="6.74211">
        <ele>1359.2</ele>
        <time>2022-07-19T14:56:38Z</time>
      </trkpt>
      <trkpt lat="44.4917" lon="6.74211">
        <ele>1359.2</ele>
        <time>2022-07-19T14:56:39Z</time>
      </trkpt>
      <trkpt lat="44.49173" lon="6.74211">
        <ele>1359.6</ele>
        <time>2022-07-19T14:56:40Z</time>
      </trkpt>
      <trkpt lat="44.49176" lon="6.7421">
        <ele>1359.6</ele>
        <time>2022-07-19T14:56:41Z</time>
      </trkpt>
      <trkpt lat="44.4918" lon="6.7421">
        <ele>1359.8</ele>
        <time>2022-07-19T14:56:42Z</time>
      </trkpt>
      <trkpt lat="44.49183" lon="6.7421">
        <ele>1359.8</ele>
        <time>2022-07-19T14:56:43Z</time>
      </trkpt>
      <trkpt lat="44.49187" lon="6.7421">
        <ele>1360.2</ele>
        <time>2022-07-19T14:56:44Z</time>
      </trkpt>
      <trkpt lat="44.4919" lon="6.7421">
        <ele>1360.4</ele>
        <time>2022-07-19T14:56:45Z</time>
      </trkpt>
      <trkpt lat="44.49194" lon="6.7421">
        <ele>1360.6</ele>
        <time>2022-07-19T14:56:46Z</time>
      </trkpt>
      <trkpt lat="44.49197" lon="6.7421">
        <ele>1360.6</ele>
        <time>2022-07-19T14:56:47Z</time>
      </trkpt>
      <trkpt lat="44.49201" lon="6.7421">
        <ele>1360.8</ele>
        <time>2022-07-19T14:56:48Z</time>
      </trkpt>
      <trkpt lat="44.49204" lon="6.7421">
        <ele>1360.8</ele>
        <time>2022-07-19T14:56:49Z</time>
      </trkpt>
      <trkpt lat="44.49208" lon="6.7421">
        <ele>1361.2</ele>
        <time>2022-07-19T14:56:50Z</time>
      </trkpt>
      <trkpt lat="44.49211" lon="6.7421">
        <ele>1361.2</ele>
        <time>2022-07-19T14:56:51Z</time>
      </trkpt>
      <trkpt lat="44.49215" lon="6.7421">
        <ele>1361.6</ele>
        <time>2022-07-19T14:56:52Z</time>
      </trkpt>
      <trkpt lat="44.49218" lon="6.7421">
        <ele>1361.6</ele>
        <time>2022-07-19T14:56:53Z</time>
      </trkpt>
      <trkpt lat="44.49221" lon="6.7421">
        <ele>1361.8</ele>
        <time>2022-07-19T14:56:54Z</time>
      </trkpt>
      <trkpt lat="44.49225" lon="6.7421">
        <ele>1361.8</ele>
        <time>2022-07-19T14:56:55Z</time>
      </trkpt>
      <trkpt lat="44.49228" lon="6.74209">
        <ele>1362.2</ele>
        <time>2022-07-19T14:56:56Z</time>
      </trkpt>
      <trkpt lat="44.49231" lon="6.74209">
        <ele>1362.2</ele>
        <time>2022-07-19T14:56:57Z</time>
      </trkpt>
      <trkpt lat="44.49234" lon="6.74209">
        <ele>1362.4</ele>
        <time>2022-07-19T14:56:58Z</time>
      </trkpt>
      <trkpt lat="44.49237" lon="6.74209">
        <ele>1362.6</ele>
        <time>2022-07-19T14:56:59Z</time>
      </trkpt>
      <trkpt lat="44.4924" lon="6.7421">
        <ele>1362.6</ele>
        <time>2022-07-19T14:57:00Z</time>
      </trkpt>
      <trkpt lat="44.49244" lon="6.7421">
        <ele>1362.8</ele>
        <time>2022-07-19T14:57:01Z</time>
      </trkpt>
      <trkpt lat="44.49247" lon="6.7421">
        <ele>1362.8</ele>
        <time>2022-07-19T14:57:02Z</time>
      </trkpt>
      <trkpt lat="44.4925" lon="6.7421">
        <ele>1363</ele>
        <time>2022-07-19T14:57:03Z</time>
      </trkpt>
      <trkpt lat="44.49253" lon="6.7421">
        <ele>1363</ele>
        <time>2022-07-19T14:57:04Z</time>
      </trkpt>
      <trkpt lat="44.49257" lon="6.7421">
        <ele>1363.4</ele>
        <time>2022-07-19T14:57:05Z</time>
      </trkpt>
      <trkpt lat="44.4926" lon="6.7421">
        <ele>1363.4</ele>
        <time>2022-07-19T14:57:06Z</time>
      </trkpt>
      <trkpt lat="44.49264" lon="6.74209">
        <ele>1363.6</ele>
        <time>2022-07-19T14:57:07Z</time>
      </trkpt>
      <trkpt lat="44.49267" lon="6.74209">
        <ele>1363.6</ele>
        <time>2022-07-19T14:57:08Z</time>
      </trkpt>
      <trkpt lat="44.49271" lon="6.74208">
        <ele>1364</ele>
        <time>2022-07-19T14:57:09Z</time>
      </trkpt>
      <trkpt lat="44.49274" lon="6.74208">
        <ele>1364</ele>
        <time>2022-07-19T14:57:10Z</time>
      </trkpt>
      <trkpt lat="44.49277" lon="6.74207">
        <ele>1364.2</ele>
        <time>2022-07-19T14:57:11Z</time>
      </trkpt>
      <trkpt lat="44.4928" lon="6.74207">
        <ele>1364.2</ele>
        <time>2022-07-19T14:57:12Z</time>
      </trkpt>
      <trkpt lat="44.49284" lon="6.74206">
        <ele>1364.2</ele>
        <time>2022-07-19T14:57:13Z</time>
      </trkpt>
      <trkpt lat="44.49287" lon="6.74205">
        <ele>1364.6</ele>
        <time>2022-07-19T14:57:14Z</time>
      </trkpt>
      <trkpt lat="44.4929" lon="6.74204">
        <ele>1364.6</ele>
        <time>2022-07-19T14:57:15Z</time>
      </trkpt>
      <trkpt lat="44.49293" lon="6.74203">
        <ele>1364.8</ele>
        <time>2022-07-19T14:57:16Z</time>
      </trkpt>
      <trkpt lat="44.49297" lon="6.74202">
        <ele>1365</ele>
        <time>2022-07-19T14:57:17Z</time>
      </trkpt>
      <trkpt lat="44.493" lon="6.74201">
        <ele>1365.2</ele>
        <time>2022-07-19T14:57:18Z</time>
      </trkpt>
      <trkpt lat="44.49303" lon="6.742">
        <ele>1365.2</ele>
        <time>2022-07-19T14:57:19Z</time>
      </trkpt>
      <trkpt lat="44.49307" lon="6.74198">
        <ele>1365.6</ele>
        <time>2022-07-19T14:57:20Z</time>
      </trkpt>
      <trkpt lat="44.4931" lon="6.74197">
        <ele>1365.6</ele>
        <time>2022-07-19T14:57:21Z</time>
      </trkpt>
      <trkpt lat="44.49314" lon="6.74194">
        <ele>1365.8</ele>
        <time>2022-07-19T14:57:22Z</time>
      </trkpt>
      <trkpt lat="44.49317" lon="6.74192">
        <ele>1365.8</ele>
        <time>2022-07-19T14:57:23Z</time>
      </trkpt>
      <trkpt lat="44.4932" lon="6.7419">
        <ele>1365.8</ele>
        <time>2022-07-19T14:57:24Z</time>
      </trkpt>
      <trkpt lat="44.49323" lon="6.74187">
        <ele>1366</ele>
        <time>2022-07-19T14:57:25Z</time>
      </trkpt>
      <trkpt lat="44.49326" lon="6.74184">
        <ele>1366</ele>
        <time>2022-07-19T14:57:26Z</time>
      </trkpt>
      <trkpt lat="44.4933" lon="6.74181">
        <ele>1366.4</ele>
        <time>2022-07-19T14:57:27Z</time>
      </trkpt>
      <trkpt lat="44.49333" lon="6.74179">
        <ele>1366.4</ele>
        <time>2022-07-19T14:57:28Z</time>
      </trkpt>
      <trkpt lat="44.49337" lon="6.74176">
        <ele>1366.4</ele>
        <time>2022-07-19T14:57:29Z</time>
      </trkpt>
      <trkpt lat="44.4934" lon="6.74174">
        <ele>1366.6</ele>
        <time>2022-07-19T14:57:30Z</time>
      </trkpt>
      <trkpt lat="44.49344" lon="6.74172">
        <ele>1366.6</ele>
        <time>2022-07-19T14:57:31Z</time>
      </trkpt>
      <trkpt lat="44.49347" lon="6.74169">
        <ele>1366.6</ele>
        <time>2022-07-19T14:57:32Z</time>
      </trkpt>
      <trkpt lat="44.49351" lon="6.74167">
        <ele>1366.8</ele>
        <time>2022-07-19T14:57:33Z</time>
      </trkpt>
      <trkpt lat="44.49354" lon="6.74165">
        <ele>1366.8</ele>
        <time>2022-07-19T14:57:34Z</time>
      </trkpt>
      <trkpt lat="44.49358" lon="6.74163">
        <ele>1367.2</ele>
        <time>2022-07-19T14:57:35Z</time>
      </trkpt>
      <trkpt lat="44.49362" lon="6.74161">
        <ele>1367.2</ele>
        <time>2022-07-19T14:57:36Z</time>
      </trkpt>
      <trkpt lat="44.49365" lon="6.74159">
        <ele>1367.4</ele>
        <time>2022-07-19T14:57:37Z</time>
      </trkpt>
      <trkpt lat="44.49369" lon="6.74156">
        <ele>1367.4</ele>
        <time>2022-07-19T14:57:38Z</time>
      </trkpt>
      <trkpt lat="44.49373" lon="6.74154">
        <ele>1367.6</ele>
        <time>2022-07-19T14:57:39Z</time>
      </trkpt>
      <trkpt lat="44.49377" lon="6.74152">
        <ele>1367.6</ele>
        <time>2022-07-19T14:57:40Z</time>
      </trkpt>
      <trkpt lat="44.4938" lon="6.7415">
        <ele>1367.8</ele>
        <time>2022-07-19T14:57:41Z</time>
      </trkpt>
      <trkpt lat="44.49385" lon="6.74148">
        <ele>1367.8</ele>
        <time>2022-07-19T14:57:42Z</time>
      </trkpt>
      <trkpt lat="44.49389" lon="6.74147">
        <ele>1367.8</ele>
        <time>2022-07-19T14:57:43Z</time>
      </trkpt>
      <trkpt lat="44.49393" lon="6.74145">
        <ele>1368.2</ele>
        <time>2022-07-19T14:57:44Z</time>
      </trkpt>
      <trkpt lat="44.49397" lon="6.74143">
        <ele>1368.2</ele>
        <time>2022-07-19T14:57:45Z</time>
      </trkpt>
      <trkpt lat="44.49401" lon="6.74141">
        <ele>1368.2</ele>
        <time>2022-07-19T14:57:46Z</time>
      </trkpt>
      <trkpt lat="44.49405" lon="6.7414">
        <ele>1368.2</ele>
        <time>2022-07-19T14:57:47Z</time>
      </trkpt>
      <trkpt lat="44.49409" lon="6.74138">
        <ele>1368.4</ele>
        <time>2022-07-19T14:57:48Z</time>
      </trkpt>
      <trkpt lat="44.49413" lon="6.74137">
        <ele>1368.4</ele>
        <time>2022-07-19T14:57:49Z</time>
      </trkpt>
      <trkpt lat="44.49417" lon="6.74135">
        <ele>1368.4</ele>
        <time>2022-07-19T14:57:50Z</time>
      </trkpt>
      <trkpt lat="44.49421" lon="6.74133">
        <ele>1368.4</ele>
        <time>2022-07-19T14:57:51Z</time>
      </trkpt>
      <trkpt lat="44.49425" lon="6.74132">
        <ele>1368.6</ele>
        <time>2022-07-19T14:57:52Z</time>
      </trkpt>
      <trkpt lat="44.49429" lon="6.7413">
        <ele>1368.6</ele>
        <time>2022-07-19T14:57:53Z</time>
      </trkpt>
      <trkpt lat="44.49433" lon="6.74129">
        <ele>1368.6</ele>
        <time>2022-07-19T14:57:54Z</time>
      </trkpt>
      <trkpt lat="44.49437" lon="6.74128">
        <ele>1369</ele>
        <time>2022-07-19T14:57:55Z</time>
      </trkpt>
      <trkpt lat="44.49441" lon="6.74127">
        <ele>1369</ele>
        <time>2022-07-19T14:57:56Z</time>
      </trkpt>
      <trkpt lat="44.49446" lon="6.74126">
        <ele>1369</ele>
        <time>2022-07-19T14:57:57Z</time>
      </trkpt>
      <trkpt lat="44.4945" lon="6.74125">
        <ele>1369</ele>
        <time>2022-07-19T14:57:58Z</time>
      </trkpt>
      <trkpt lat="44.49454" lon="6.74124">
        <ele>1369.2</ele>
        <time>2022-07-19T14:57:59Z</time>
      </trkpt>
      <trkpt lat="44.49458" lon="6.74123">
        <ele>1369.2</ele>
        <time>2022-07-19T14:58:00Z</time>
      </trkpt>
      <trkpt lat="44.49462" lon="6.74121">
        <ele>1369.6</ele>
        <time>2022-07-19T14:58:01Z</time>
      </trkpt>
      <trkpt lat="44.49466" lon="6.7412">
        <ele>1369.6</ele>
        <time>2022-07-19T14:58:02Z</time>
      </trkpt>
      <trkpt lat="44.4947" lon="6.74119">
        <ele>1369.8</ele>
        <time>2022-07-19T14:58:03Z</time>
      </trkpt>
      <trkpt lat="44.49474" lon="6.74117">
        <ele>1369.8</ele>
        <time>2022-07-19T14:58:04Z</time>
      </trkpt>
      <trkpt lat="44.49478" lon="6.74116">
        <ele>1370.2</ele>
        <time>2022-07-19T14:58:05Z</time>
      </trkpt>
      <trkpt lat="44.49482" lon="6.74115">
        <ele>1370.2</ele>
        <time>2022-07-19T14:58:06Z</time>
      </trkpt>
      <trkpt lat="44.49486" lon="6.74114">
        <ele>1370.4</ele>
        <time>2022-07-19T14:58:07Z</time>
      </trkpt>
      <trkpt lat="44.49491" lon="6.74112">
        <ele>1370.4</ele>
        <time>2022-07-19T14:58:08Z</time>
      </trkpt>
      <trkpt lat="44.49495" lon="6.74111">
        <ele>1370.4</ele>
        <time>2022-07-19T14:58:09Z</time>
      </trkpt>
      <trkpt lat="44.49499" lon="6.74109">
        <ele>1370.6</ele>
        <time>2022-07-19T14:58:10Z</time>
      </trkpt>
      <trkpt lat="44.49503" lon="6.74108">
        <ele>1370.6</ele>
        <time>2022-07-19T14:58:11Z</time>
      </trkpt>
      <trkpt lat="44.49508" lon="6.74107">
        <ele>1371</ele>
        <time>2022-07-19T14:58:12Z</time>
      </trkpt>
      <trkpt lat="44.49513" lon="6.74106">
        <ele>1371</ele>
        <time>2022-07-19T14:58:13Z</time>
      </trkpt>
      <trkpt lat="44.49518" lon="6.74104">
        <ele>1371</ele>
        <time>2022-07-19T14:58:14Z</time>
      </trkpt>
      <trkpt lat="44.49523" lon="6.74103">
        <ele>1371.2</ele>
        <time>2022-07-19T14:58:15Z</time>
      </trkpt>
      <trkpt lat="44.49528" lon="6.74101">
        <ele>1371.2</ele>
        <time>2022-07-19T14:58:16Z</time>
      </trkpt>
      <trkpt lat="44.49533" lon="6.741">
        <ele>1371.4</ele>
        <time>2022-07-19T14:58:17Z</time>
      </trkpt>
      <trkpt lat="44.49538" lon="6.74098">
        <ele>1371.4</ele>
        <time>2022-07-19T14:58:18Z</time>
      </trkpt>
      <trkpt lat="44.49544" lon="6.74097">
        <ele>1371.4</ele>
        <time>2022-07-19T14:58:19Z</time>
      </trkpt>
      <trkpt lat="44.49549" lon="6.74096">
        <ele>1371.6</ele>
        <time>2022-07-19T14:58:20Z</time>
      </trkpt>
      <trkpt lat="44.49554" lon="6.74094">
        <ele>1371.6</ele>
        <time>2022-07-19T14:58:21Z</time>
      </trkpt>
      <trkpt lat="44.49559" lon="6.74093">
        <ele>1371.8</ele>
        <time>2022-07-19T14:58:22Z</time>
      </trkpt>
      <trkpt lat="44.49564" lon="6.74091">
        <ele>1372</ele>
        <time>2022-07-19T14:58:23Z</time>
      </trkpt>
      <trkpt lat="44.49568" lon="6.7409">
        <ele>1372</ele>
        <time>2022-07-19T14:58:24Z</time>
      </trkpt>
      <trkpt lat="44.49573" lon="6.74088">
        <ele>1372</ele>
        <time>2022-07-19T14:58:25Z</time>
      </trkpt>
      <trkpt lat="44.49577" lon="6.74086">
        <ele>1372</ele>
        <time>2022-07-19T14:58:26Z</time>
      </trkpt>
      <trkpt lat="44.49582" lon="6.74085">
        <ele>1372.4</ele>
        <time>2022-07-19T14:58:27Z</time>
      </trkpt>
      <trkpt lat="44.49587" lon="6.74084">
        <ele>1372.4</ele>
        <time>2022-07-19T14:58:28Z</time>
      </trkpt>
      <trkpt lat="44.49591" lon="6.74082">
        <ele>1372.4</ele>
        <time>2022-07-19T14:58:29Z</time>
      </trkpt>
      <trkpt lat="44.49596" lon="6.74081">
        <ele>1372.6</ele>
        <time>2022-07-19T14:58:30Z</time>
      </trkpt>
      <trkpt lat="44.496" lon="6.74079">
        <ele>1372.6</ele>
        <time>2022-07-19T14:58:31Z</time>
      </trkpt>
      <trkpt lat="44.49604" lon="6.74077">
        <ele>1372.6</ele>
        <time>2022-07-19T14:58:32Z</time>
      </trkpt>
      <trkpt lat="44.49608" lon="6.74074">
        <ele>1372.8</ele>
        <time>2022-07-19T14:58:33Z</time>
      </trkpt>
      <trkpt lat="44.49612" lon="6.74072">
        <ele>1372.8</ele>
        <time>2022-07-19T14:58:34Z</time>
      </trkpt>
      <trkpt lat="44.49616" lon="6.7407">
        <ele>1373</ele>
        <time>2022-07-19T14:58:35Z</time>
      </trkpt>
      <trkpt lat="44.4962" lon="6.74067">
        <ele>1373</ele>
        <time>2022-07-19T14:58:36Z</time>
      </trkpt>
      <trkpt lat="44.49625" lon="6.74064">
        <ele>1373</ele>
        <time>2022-07-19T14:58:37Z</time>
      </trkpt>
      <trkpt lat="44.49629" lon="6.74062">
        <ele>1373.2</ele>
        <time>2022-07-19T14:58:38Z</time>
      </trkpt>
      <trkpt lat="44.49633" lon="6.74059">
        <ele>1373.2</ele>
        <time>2022-07-19T14:58:39Z</time>
      </trkpt>
      <trkpt lat="44.49637" lon="6.74056">
        <ele>1373.2</ele>
        <time>2022-07-19T14:58:40Z</time>
      </trkpt>
      <trkpt lat="44.49642" lon="6.74054">
        <ele>1373.6</ele>
        <time>2022-07-19T14:58:41Z</time>
      </trkpt>
      <trkpt lat="44.49646" lon="6.74051">
        <ele>1373.6</ele>
        <time>2022-07-19T14:58:42Z</time>
      </trkpt>
      <trkpt lat="44.4965" lon="6.74048">
        <ele>1373.6</ele>
        <time>2022-07-19T14:58:43Z</time>
      </trkpt>
      <trkpt lat="44.49654" lon="6.74045">
        <ele>1373.6</ele>
        <time>2022-07-19T14:58:44Z</time>
      </trkpt>
      <trkpt lat="44.49658" lon="6.74041">
        <ele>1373.6</ele>
        <time>2022-07-19T14:58:45Z</time>
      </trkpt>
      <trkpt lat="44.49663" lon="6.74038">
        <ele>1373.8</ele>
        <time>2022-07-19T14:58:46Z</time>
      </trkpt>
      <trkpt lat="44.49667" lon="6.74034">
        <ele>1373.8</ele>
        <time>2022-07-19T14:58:47Z</time>
      </trkpt>
      <trkpt lat="44.49671" lon="6.74031">
        <ele>1373.8</ele>
        <time>2022-07-19T14:58:48Z</time>
      </trkpt>
      <trkpt lat="44.49676" lon="6.74027">
        <ele>1373.8</ele>
        <time>2022-07-19T14:58:49Z</time>
      </trkpt>
      <trkpt lat="44.4968" lon="6.74023">
        <ele>1373.8</ele>
        <time>2022-07-19T14:58:50Z</time>
      </trkpt>
      <trkpt lat="44.49684" lon="6.74019">
        <ele>1374.2</ele>
        <time>2022-07-19T14:58:51Z</time>
      </trkpt>
      <trkpt lat="44.49689" lon="6.74015">
        <ele>1374.2</ele>
        <time>2022-07-19T14:58:52Z</time>
      </trkpt>
      <trkpt lat="44.49693" lon="6.74011">
        <ele>1374.2</ele>
        <time>2022-07-19T14:58:53Z</time>
      </trkpt>
      <trkpt lat="44.49697" lon="6.74007">
        <ele>1374.2</ele>
        <time>2022-07-19T14:58:54Z</time>
      </trkpt>
      <trkpt lat="44.49702" lon="6.74004">
        <ele>1374.4</ele>
        <time>2022-07-19T14:58:55Z</time>
      </trkpt>
      <trkpt lat="44.49706" lon="6.74">
        <ele>1374.4</ele>
        <time>2022-07-19T14:58:56Z</time>
      </trkpt>
      <trkpt lat="44.4971" lon="6.73996">
        <ele>1374.4</ele>
        <time>2022-07-19T14:58:57Z</time>
      </trkpt>
      <trkpt lat="44.49715" lon="6.73993">
        <ele>1374.4</ele>
        <time>2022-07-19T14:58:58Z</time>
      </trkpt>
      <trkpt lat="44.49719" lon="6.7399">
        <ele>1374.6</ele>
        <time>2022-07-19T14:58:59Z</time>
      </trkpt>
      <trkpt lat="44.49723" lon="6.73986">
        <ele>1374.6</ele>
        <time>2022-07-19T14:59:00Z</time>
      </trkpt>
      <trkpt lat="44.49727" lon="6.73983">
        <ele>1374.6</ele>
        <time>2022-07-19T14:59:01Z</time>
      </trkpt>
      <trkpt lat="44.49732" lon="6.73979">
        <ele>1374.8</ele>
        <time>2022-07-19T14:59:02Z</time>
      </trkpt>
      <trkpt lat="44.49736" lon="6.73976">
        <ele>1374.8</ele>
        <time>2022-07-19T14:59:03Z</time>
      </trkpt>
      <trkpt lat="44.4974" lon="6.73973">
        <ele>1374.8</ele>
        <time>2022-07-19T14:59:04Z</time>
      </trkpt>
      <trkpt lat="44.49744" lon="6.73969">
        <ele>1374.8</ele>
        <time>2022-07-19T14:59:05Z</time>
      </trkpt>
      <trkpt lat="44.49748" lon="6.73967">
        <ele>1375</ele>
        <time>2022-07-19T14:59:06Z</time>
      </trkpt>
      <trkpt lat="44.49753" lon="6.73964">
        <ele>1375</ele>
        <time>2022-07-19T14:59:07Z</time>
      </trkpt>
      <trkpt lat="44.49757" lon="6.73961">
        <ele>1375</ele>
        <time>2022-07-19T14:59:08Z</time>
      </trkpt>
      <trkpt lat="44.49761" lon="6.73958">
        <ele>1375.4</ele>
        <time>2022-07-19T14:59:09Z</time>
      </trkpt>
      <trkpt lat="44.49765" lon="6.73956">
        <ele>1375.4</ele>
        <time>2022-07-19T14:59:10Z</time>
      </trkpt>
      <trkpt lat="44.49769" lon="6.73954">
        <ele>1375.6</ele>
        <time>2022-07-19T14:59:11Z</time>
      </trkpt>
      <trkpt lat="44.49774" lon="6.73951">
        <ele>1375.6</ele>
        <time>2022-07-19T14:59:12Z</time>
      </trkpt>
      <trkpt lat="44.49778" lon="6.73949">
        <ele>1375.8</ele>
        <time>2022-07-19T14:59:13Z</time>
      </trkpt>
      <trkpt lat="44.49782" lon="6.73947">
        <ele>1375.8</ele>
        <time>2022-07-19T14:59:14Z</time>
      </trkpt>
      <trkpt lat="44.49786" lon="6.73944">
        <ele>1375.8</ele>
        <time>2022-07-19T14:59:15Z</time>
      </trkpt>
      <trkpt lat="44.4979" lon="6.73941">
        <ele>1376.2</ele>
        <time>2022-07-19T14:59:16Z</time>
      </trkpt>
      <trkpt lat="44.49795" lon="6.73939">
        <ele>1376.2</ele>
        <time>2022-07-19T14:59:17Z</time>
      </trkpt>
      <trkpt lat="44.49799" lon="6.73936">
        <ele>1376.4</ele>
        <time>2022-07-19T14:59:18Z</time>
      </trkpt>
      <trkpt lat="44.49804" lon="6.73933">
        <ele>1376.4</ele>
        <time>2022-07-19T14:59:19Z</time>
      </trkpt>
      <trkpt lat="44.49809" lon="6.73931">
        <ele>1376.4</ele>
        <time>2022-07-19T14:59:20Z</time>
      </trkpt>
      <trkpt lat="44.49814" lon="6.73929">
        <ele>1376.4</ele>
        <time>2022-07-19T14:59:21Z</time>
      </trkpt>
      <trkpt lat="44.49819" lon="6.73926">
        <ele>1376.4</ele>
        <time>2022-07-19T14:59:22Z</time>
      </trkpt>
      <trkpt lat="44.49825" lon="6.73924">
        <ele>1376.4</ele>
        <time>2022-07-19T14:59:23Z</time>
      </trkpt>
      <trkpt lat="44.4983" lon="6.73922">
        <ele>1376.4</ele>
        <time>2022-07-19T14:59:24Z</time>
      </trkpt>
      <trkpt lat="44.49836" lon="6.73921">
        <ele>1376.4</ele>
        <time>2022-07-19T14:59:25Z</time>
      </trkpt>
      <trkpt lat="44.49842" lon="6.7392">
        <ele>1376.4</ele>
        <time>2022-07-19T14:59:26Z</time>
      </trkpt>
      <trkpt lat="44.49847" lon="6.7392">
        <ele>1376.4</ele>
        <time>2022-07-19T14:59:27Z</time>
      </trkpt>
      <trkpt lat="44.49852" lon="6.73921">
        <ele>1376.4</ele>
        <time>2022-07-19T14:59:28Z</time>
      </trkpt>
      <trkpt lat="44.49858" lon="6.73922">
        <ele>1376.4</ele>
        <time>2022-07-19T14:59:29Z</time>
      </trkpt>
      <trkpt lat="44.49864" lon="6.73924">
        <ele>1376.4</ele>
        <time>2022-07-19T14:59:30Z</time>
      </trkpt>
      <trkpt lat="44.4987" lon="6.73926">
        <ele>1376.4</ele>
        <time>2022-07-19T14:59:31Z</time>
      </trkpt>
      <trkpt lat="44.49875" lon="6.73927">
        <ele>1376.6</ele>
        <time>2022-07-19T14:59:32Z</time>
      </trkpt>
      <trkpt lat="44.49881" lon="6.73928">
        <ele>1376.6</ele>
        <time>2022-07-19T14:59:33Z</time>
      </trkpt>
      <trkpt lat="44.49887" lon="6.7393">
        <ele>1376.6</ele>
        <time>2022-07-19T14:59:34Z</time>
      </trkpt>
      <trkpt lat="44.49893" lon="6.73932">
        <ele>1376.6</ele>
        <time>2022-07-19T14:59:35Z</time>
      </trkpt>
      <trkpt lat="44.49899" lon="6.73933">
        <ele>1376.6</ele>
        <time>2022-07-19T14:59:36Z</time>
      </trkpt>
      <trkpt lat="44.49905" lon="6.73934">
        <ele>1376.6</ele>
        <time>2022-07-19T14:59:37Z</time>
      </trkpt>
      <trkpt lat="44.49911" lon="6.73935">
        <ele>1376.6</ele>
        <time>2022-07-19T14:59:38Z</time>
      </trkpt>
      <trkpt lat="44.49917" lon="6.73937">
        <ele>1376.6</ele>
        <time>2022-07-19T14:59:39Z</time>
      </trkpt>
      <trkpt lat="44.49922" lon="6.73938">
        <ele>1376.6</ele>
        <time>2022-07-19T14:59:40Z</time>
      </trkpt>
      <trkpt lat="44.49928" lon="6.7394">
        <ele>1376.6</ele>
        <time>2022-07-19T14:59:41Z</time>
      </trkpt>
      <trkpt lat="44.49934" lon="6.73942">
        <ele>1376.2</ele>
        <time>2022-07-19T14:59:42Z</time>
      </trkpt>
      <trkpt lat="44.4994" lon="6.73945">
        <ele>1376.2</ele>
        <time>2022-07-19T14:59:43Z</time>
      </trkpt>
      <trkpt lat="44.49945" lon="6.73947">
        <ele>1376.2</ele>
        <time>2022-07-19T14:59:44Z</time>
      </trkpt>
      <trkpt lat="44.49951" lon="6.73951">
        <ele>1376.2</ele>
        <time>2022-07-19T14:59:45Z</time>
      </trkpt>
      <trkpt lat="44.49956" lon="6.73955">
        <ele>1376.2</ele>
        <time>2022-07-19T14:59:46Z</time>
      </trkpt>
      <trkpt lat="44.49962" lon="6.73959">
        <ele>1376.2</ele>
        <time>2022-07-19T14:59:47Z</time>
      </trkpt>
      <trkpt lat="44.49967" lon="6.73962">
        <ele>1376.2</ele>
        <time>2022-07-19T14:59:48Z</time>
      </trkpt>
      <trkpt lat="44.49972" lon="6.73966">
        <ele>1376.2</ele>
        <time>2022-07-19T14:59:49Z</time>
      </trkpt>
      <trkpt lat="44.49977" lon="6.7397">
        <ele>1376.2</ele>
        <time>2022-07-19T14:59:50Z</time>
      </trkpt>
      <trkpt lat="44.49981" lon="6.73975">
        <ele>1376.2</ele>
        <time>2022-07-19T14:59:51Z</time>
      </trkpt>
      <trkpt lat="44.49986" lon="6.73979">
        <ele>1376.2</ele>
        <time>2022-07-19T14:59:52Z</time>
      </trkpt>
      <trkpt lat="44.4999" lon="6.73983">
        <ele>1376.4</ele>
        <time>2022-07-19T14:59:53Z</time>
      </trkpt>
      <trkpt lat="44.49995" lon="6.73987">
        <ele>1376.4</ele>
        <time>2022-07-19T14:59:54Z</time>
      </trkpt>
      <trkpt lat="44.5" lon="6.73991">
        <ele>1376.8</ele>
        <time>2022-07-19T14:59:55Z</time>
      </trkpt>
      <trkpt lat="44.50004" lon="6.73995">
        <ele>1376.8</ele>
        <time>2022-07-19T14:59:56Z</time>
      </trkpt>
      <trkpt lat="44.50008" lon="6.73999">
        <ele>1377</ele>
        <time>2022-07-19T14:59:57Z</time>
      </trkpt>
      <trkpt lat="44.50013" lon="6.74003">
        <ele>1377</ele>
        <time>2022-07-19T14:59:58Z</time>
      </trkpt>
      <trkpt lat="44.50017" lon="6.74007">
        <ele>1377.2</ele>
        <time>2022-07-19T14:59:59Z</time>
      </trkpt>
      <trkpt lat="44.50022" lon="6.74011">
        <ele>1377.2</ele>
        <time>2022-07-19T15:00:00Z</time>
      </trkpt>
      <trkpt lat="44.50027" lon="6.74014">
        <ele>1377.2</ele>
        <time>2022-07-19T15:00:01Z</time>
      </trkpt>
      <trkpt lat="44.50032" lon="6.74018">
        <ele>1377.2</ele>
        <time>2022-07-19T15:00:02Z</time>
      </trkpt>
      <trkpt lat="44.50037" lon="6.74022">
        <ele>1377.6</ele>
        <time>2022-07-19T15:00:03Z</time>
      </trkpt>
      <trkpt lat="44.50042" lon="6.74025">
        <ele>1377.6</ele>
        <time>2022-07-19T15:00:04Z</time>
      </trkpt>
      <trkpt lat="44.50047" lon="6.74029">
        <ele>1377.6</ele>
        <time>2022-07-19T15:00:05Z</time>
      </trkpt>
      <trkpt lat="44.50057" lon="6.74036">
        <ele>1377.6</ele>
        <time>2022-07-19T15:00:06Z</time>
      </trkpt>
      <trkpt lat="44.50062" lon="6.74039">
        <ele>1377.6</ele>
        <time>2022-07-19T15:00:07Z</time>
      </trkpt>
      <trkpt lat="44.50067" lon="6.74042">
        <ele>1377.6</ele>
        <time>2022-07-19T15:00:08Z</time>
      </trkpt>
      <trkpt lat="44.50073" lon="6.74045">
        <ele>1377.6</ele>
        <time>2022-07-19T15:00:09Z</time>
      </trkpt>
      <trkpt lat="44.50078" lon="6.74048">
        <ele>1377.6</ele>
        <time>2022-07-19T15:00:10Z</time>
      </trkpt>
      <trkpt lat="44.50083" lon="6.7405">
        <ele>1378</ele>
        <time>2022-07-19T15:00:11Z</time>
      </trkpt>
      <trkpt lat="44.50088" lon="6.74052">
        <ele>1378</ele>
        <time>2022-07-19T15:00:12Z</time>
      </trkpt>
      <trkpt lat="44.50093" lon="6.74054">
        <ele>1378</ele>
        <time>2022-07-19T15:00:13Z</time>
      </trkpt>
      <trkpt lat="44.50098" lon="6.74055">
        <ele>1378.2</ele>
        <time>2022-07-19T15:00:14Z</time>
      </trkpt>
      <trkpt lat="44.50103" lon="6.74057">
        <ele>1378.2</ele>
        <time>2022-07-19T15:00:15Z</time>
      </trkpt>
      <trkpt lat="44.50107" lon="6.74057">
        <ele>1378.2</ele>
        <time>2022-07-19T15:00:16Z</time>
      </trkpt>
      <trkpt lat="44.50111" lon="6.74058">
        <ele>1378.6</ele>
        <time>2022-07-19T15:00:17Z</time>
      </trkpt>
      <trkpt lat="44.50115" lon="6.74059">
        <ele>1378.6</ele>
        <time>2022-07-19T15:00:18Z</time>
      </trkpt>
      <trkpt lat="44.5012" lon="6.7406">
        <ele>1378.8</ele>
        <time>2022-07-19T15:00:19Z</time>
      </trkpt>
      <trkpt lat="44.50124" lon="6.74061">
        <ele>1378.8</ele>
        <time>2022-07-19T15:00:20Z</time>
      </trkpt>
      <trkpt lat="44.50129" lon="6.7406">
        <ele>1379</ele>
        <time>2022-07-19T15:00:21Z</time>
      </trkpt>
      <trkpt lat="44.50133" lon="6.7406">
        <ele>1379</ele>
        <time>2022-07-19T15:00:22Z</time>
      </trkpt>
      <trkpt lat="44.50138" lon="6.7406">
        <ele>1379</ele>
        <time>2022-07-19T15:00:23Z</time>
      </trkpt>
      <trkpt lat="44.50143" lon="6.7406">
        <ele>1379.2</ele>
        <time>2022-07-19T15:00:24Z</time>
      </trkpt>
      <trkpt lat="44.50148" lon="6.7406">
        <ele>1379.2</ele>
        <time>2022-07-19T15:00:25Z</time>
      </trkpt>
      <trkpt lat="44.50152" lon="6.74059">
        <ele>1379.2</ele>
        <time>2022-07-19T15:00:26Z</time>
      </trkpt>
      <trkpt lat="44.50157" lon="6.74059">
        <ele>1379.2</ele>
        <time>2022-07-19T15:00:27Z</time>
      </trkpt>
      <trkpt lat="44.50162" lon="6.74058">
        <ele>1379.4</ele>
        <time>2022-07-19T15:00:28Z</time>
      </trkpt>
      <trkpt lat="44.50167" lon="6.74058">
        <ele>1379.4</ele>
        <time>2022-07-19T15:00:29Z</time>
      </trkpt>
      <trkpt lat="44.50171" lon="6.74058">
        <ele>1379.4</ele>
        <time>2022-07-19T15:00:30Z</time>
      </trkpt>
      <trkpt lat="44.50176" lon="6.74058">
        <ele>1379.4</ele>
        <time>2022-07-19T15:00:31Z</time>
      </trkpt>
      <trkpt lat="44.50181" lon="6.74057">
        <ele>1379.6</ele>
        <time>2022-07-19T15:00:32Z</time>
      </trkpt>
      <trkpt lat="44.50185" lon="6.74057">
        <ele>1379.6</ele>
        <time>2022-07-19T15:00:33Z</time>
      </trkpt>
      <trkpt lat="44.5019" lon="6.74058">
        <ele>1379.6</ele>
        <time>2022-07-19T15:00:34Z</time>
      </trkpt>
      <trkpt lat="44.50195" lon="6.7406">
        <ele>1380</ele>
        <time>2022-07-19T15:00:35Z</time>
      </trkpt>
      <trkpt lat="44.502" lon="6.74061">
        <ele>1380</ele>
        <time>2022-07-19T15:00:36Z</time>
      </trkpt>
      <trkpt lat="44.50205" lon="6.74062">
        <ele>1380.2</ele>
        <time>2022-07-19T15:00:37Z</time>
      </trkpt>
      <trkpt lat="44.5021" lon="6.74064">
        <ele>1380.2</ele>
        <time>2022-07-19T15:00:38Z</time>
      </trkpt>
      <trkpt lat="44.50215" lon="6.74065">
        <ele>1380.4</ele>
        <time>2022-07-19T15:00:39Z</time>
      </trkpt>
      <trkpt lat="44.50219" lon="6.74067">
        <ele>1380.4</ele>
        <time>2022-07-19T15:00:40Z</time>
      </trkpt>
      <trkpt lat="44.50224" lon="6.7407">
        <ele>1380.4</ele>
        <time>2022-07-19T15:00:41Z</time>
      </trkpt>
      <trkpt lat="44.50228" lon="6.74073">
        <ele>1380.6</ele>
        <time>2022-07-19T15:00:42Z</time>
      </trkpt>
      <trkpt lat="44.50232" lon="6.74076">
        <ele>1380.6</ele>
        <time>2022-07-19T15:00:43Z</time>
      </trkpt>
      <trkpt lat="44.50236" lon="6.74079">
        <ele>1380.6</ele>
        <time>2022-07-19T15:00:44Z</time>
      </trkpt>
      <trkpt lat="44.5024" lon="6.74082">
        <ele>1381</ele>
        <time>2022-07-19T15:00:45Z</time>
      </trkpt>
      <trkpt lat="44.50244" lon="6.74085">
        <ele>1381</ele>
        <time>2022-07-19T15:00:46Z</time>
      </trkpt>
      <trkpt lat="44.50248" lon="6.74089">
        <ele>1381.2</ele>
        <time>2022-07-19T15:00:47Z</time>
      </trkpt>
      <trkpt lat="44.50252" lon="6.74093">
        <ele>1381.2</ele>
        <time>2022-07-19T15:00:48Z</time>
      </trkpt>
      <trkpt lat="44.50256" lon="6.74097">
        <ele>1381.4</ele>
        <time>2022-07-19T15:00:49Z</time>
      </trkpt>
      <trkpt lat="44.50259" lon="6.74102">
        <ele>1381.4</ele>
        <time>2022-07-19T15:00:50Z</time>
      </trkpt>
      <trkpt lat="44.50262" lon="6.74107">
        <ele>1381.4</ele>
        <time>2022-07-19T15:00:51Z</time>
      </trkpt>
      <trkpt lat="44.50265" lon="6.74112">
        <ele>1381.6</ele>
        <time>2022-07-19T15:00:52Z</time>
      </trkpt>
      <trkpt lat="44.50268" lon="6.74117">
        <ele>1381.6</ele>
        <time>2022-07-19T15:00:53Z</time>
      </trkpt>
      <trkpt lat="44.5027" lon="6.74122">
        <ele>1382</ele>
        <time>2022-07-19T15:00:54Z</time>
      </trkpt>
      <trkpt lat="44.50273" lon="6.74127">
        <ele>1382</ele>
        <time>2022-07-19T15:00:55Z</time>
      </trkpt>
      <trkpt lat="44.50275" lon="6.74132">
        <ele>1382.2</ele>
        <time>2022-07-19T15:00:56Z</time>
      </trkpt>
      <trkpt lat="44.50277" lon="6.74137">
        <ele>1382.2</ele>
        <time>2022-07-19T15:00:57Z</time>
      </trkpt>
      <trkpt lat="44.50279" lon="6.74142">
        <ele>1382.4</ele>
        <time>2022-07-19T15:00:58Z</time>
      </trkpt>
      <trkpt lat="44.5028" lon="6.74147">
        <ele>1382.4</ele>
        <time>2022-07-19T15:00:59Z</time>
      </trkpt>
      <trkpt lat="44.50282" lon="6.74152">
        <ele>1382.6</ele>
        <time>2022-07-19T15:01:00Z</time>
      </trkpt>
      <trkpt lat="44.50283" lon="6.74156">
        <ele>1382.6</ele>
        <time>2022-07-19T15:01:01Z</time>
      </trkpt>
      <trkpt lat="44.50284" lon="6.7416">
        <ele>1383</ele>
        <time>2022-07-19T15:01:02Z</time>
      </trkpt>
      <trkpt lat="44.50285" lon="6.74165">
        <ele>1383.2</ele>
        <time>2022-07-19T15:01:03Z</time>
      </trkpt>
      <trkpt lat="44.50286" lon="6.74169">
        <ele>1383.2</ele>
        <time>2022-07-19T15:01:04Z</time>
      </trkpt>
      <trkpt lat="44.50287" lon="6.74173">
        <ele>1383.6</ele>
        <time>2022-07-19T15:01:05Z</time>
      </trkpt>
      <trkpt lat="44.50287" lon="6.74177">
        <ele>1384</ele>
        <time>2022-07-19T15:01:06Z</time>
      </trkpt>
      <trkpt lat="44.50288" lon="6.74181">
        <ele>1384</ele>
        <time>2022-07-19T15:01:07Z</time>
      </trkpt>
      <trkpt lat="44.50288" lon="6.74186">
        <ele>1384.4</ele>
        <time>2022-07-19T15:01:08Z</time>
      </trkpt>
      <trkpt lat="44.50289" lon="6.7419">
        <ele>1384.6</ele>
        <time>2022-07-19T15:01:09Z</time>
      </trkpt>
      <trkpt lat="44.50289" lon="6.74195">
        <ele>1384.6</ele>
        <time>2022-07-19T15:01:10Z</time>
      </trkpt>
      <trkpt lat="44.5029" lon="6.74199">
        <ele>1385</ele>
        <time>2022-07-19T15:01:11Z</time>
      </trkpt>
      <trkpt lat="44.5029" lon="6.74203">
        <ele>1385.2</ele>
        <time>2022-07-19T15:01:12Z</time>
      </trkpt>
      <trkpt lat="44.50291" lon="6.74207">
        <ele>1385.2</ele>
        <time>2022-07-19T15:01:13Z</time>
      </trkpt>
      <trkpt lat="44.50292" lon="6.74211">
        <ele>1385.6</ele>
        <time>2022-07-19T15:01:14Z</time>
      </trkpt>
      <trkpt lat="44.50292" lon="6.74215">
        <ele>1385.8</ele>
        <time>2022-07-19T15:01:15Z</time>
      </trkpt>
      <trkpt lat="44.50292" lon="6.7422">
        <ele>1386</ele>
        <time>2022-07-19T15:01:16Z</time>
      </trkpt>
      <trkpt lat="44.50293" lon="6.74224">
        <ele>1386.4</ele>
        <time>2022-07-19T15:01:17Z</time>
      </trkpt>
      <trkpt lat="44.50293" lon="6.74228">
        <ele>1386.4</ele>
        <time>2022-07-19T15:01:18Z</time>
      </trkpt>
      <trkpt lat="44.50294" lon="6.74232">
        <ele>1386.8</ele>
        <time>2022-07-19T15:01:19Z</time>
      </trkpt>
      <trkpt lat="44.50295" lon="6.74236">
        <ele>1386.8</ele>
        <time>2022-07-19T15:01:20Z</time>
      </trkpt>
      <trkpt lat="44.50296" lon="6.74239">
        <ele>1387.2</ele>
        <time>2022-07-19T15:01:21Z</time>
      </trkpt>
      <trkpt lat="44.50296" lon="6.74243">
        <ele>1387.4</ele>
        <time>2022-07-19T15:01:22Z</time>
      </trkpt>
      <trkpt lat="44.50297" lon="6.74247">
        <ele>1387.4</ele>
        <time>2022-07-19T15:01:23Z</time>
      </trkpt>
      <trkpt lat="44.50298" lon="6.7425">
        <ele>1387.8</ele>
        <time>2022-07-19T15:01:24Z</time>
      </trkpt>
      <trkpt lat="44.50299" lon="6.74254">
        <ele>1388</ele>
        <time>2022-07-19T15:01:25Z</time>
      </trkpt>
      <trkpt lat="44.503" lon="6.74257">
        <ele>1388</ele>
        <time>2022-07-19T15:01:26Z</time>
      </trkpt>
      <trkpt lat="44.50301" lon="6.74261">
        <ele>1388.4</ele>
        <time>2022-07-19T15:01:27Z</time>
      </trkpt>
      <trkpt lat="44.50301" lon="6.74264">
        <ele>1388.4</ele>
        <time>2022-07-19T15:01:28Z</time>
      </trkpt>
      <trkpt lat="44.50302" lon="6.74267">
        <ele>1388.8</ele>
        <time>2022-07-19T15:01:29Z</time>
      </trkpt>
      <trkpt lat="44.50302" lon="6.7427">
        <ele>1388.8</ele>
        <time>2022-07-19T15:01:30Z</time>
      </trkpt>
      <trkpt lat="44.50303" lon="6.74273">
        <ele>1389.2</ele>
        <time>2022-07-19T15:01:31Z</time>
      </trkpt>
      <trkpt lat="44.50304" lon="6.74276">
        <ele>1389.2</ele>
        <time>2022-07-19T15:01:32Z</time>
      </trkpt>
      <trkpt lat="44.50306" lon="6.74279">
        <ele>1389.6</ele>
        <time>2022-07-19T15:01:33Z</time>
      </trkpt>
      <trkpt lat="44.50307" lon="6.74281">
        <ele>1389.6</ele>
        <time>2022-07-19T15:01:34Z</time>
      </trkpt>
      <trkpt lat="44.50308" lon="6.74284">
        <ele>1389.8</ele>
        <time>2022-07-19T15:01:35Z</time>
      </trkpt>
      <trkpt lat="44.5031" lon="6.74287">
        <ele>1389.8</ele>
        <time>2022-07-19T15:01:36Z</time>
      </trkpt>
      <trkpt lat="44.50312" lon="6.74289">
        <ele>1390</ele>
        <time>2022-07-19T15:01:37Z</time>
      </trkpt>
      <trkpt lat="44.50313" lon="6.74291">
        <ele>1390</ele>
        <time>2022-07-19T15:01:38Z</time>
      </trkpt>
      <trkpt lat="44.50314" lon="6.74293">
        <ele>1390.4</ele>
        <time>2022-07-19T15:01:39Z</time>
      </trkpt>
      <trkpt lat="44.50316" lon="6.74295">
        <ele>1390.4</ele>
        <time>2022-07-19T15:01:40Z</time>
      </trkpt>
      <trkpt lat="44.50318" lon="6.74297">
        <ele>1390.8</ele>
        <time>2022-07-19T15:01:41Z</time>
      </trkpt>
      <trkpt lat="44.5032" lon="6.74298">
        <ele>1391</ele>
        <time>2022-07-19T15:01:43Z</time>
      </trkpt>
      <trkpt lat="44.50321" lon="6.74299">
        <ele>1391</ele>
        <time>2022-07-19T15:01:44Z</time>
      </trkpt>
      <trkpt lat="44.50323" lon="6.743">
        <ele>1391.4</ele>
        <time>2022-07-19T15:01:45Z</time>
      </trkpt>
      <trkpt lat="44.50325" lon="6.74301">
        <ele>1391.4</ele>
        <time>2022-07-19T15:01:46Z</time>
      </trkpt>
      <trkpt lat="44.50328" lon="6.74301">
        <ele>1391.6</ele>
        <time>2022-07-19T15:01:47Z</time>
      </trkpt>
      <trkpt lat="44.5033" lon="6.74302">
        <ele>1391.6</ele>
        <time>2022-07-19T15:01:48Z</time>
      </trkpt>
      <trkpt lat="44.50333" lon="6.74302">
        <ele>1392</ele>
        <time>2022-07-19T15:01:49Z</time>
      </trkpt>
      <trkpt lat="44.50335" lon="6.74302">
        <ele>1392</ele>
        <time>2022-07-19T15:01:50Z</time>
      </trkpt>
      <trkpt lat="44.50337" lon="6.74303">
        <ele>1392.4</ele>
        <time>2022-07-19T15:01:51Z</time>
      </trkpt>
      <trkpt lat="44.50339" lon="6.74303">
        <ele>1392.4</ele>
        <time>2022-07-19T15:01:52Z</time>
      </trkpt>
      <trkpt lat="44.50341" lon="6.74304">
        <ele>1392.6</ele>
        <time>2022-07-19T15:01:53Z</time>
      </trkpt>
      <trkpt lat="44.50344" lon="6.74304">
        <ele>1392.6</ele>
        <time>2022-07-19T15:01:54Z</time>
      </trkpt>
      <trkpt lat="44.50346" lon="6.74304">
        <ele>1392.8</ele>
        <time>2022-07-19T15:01:55Z</time>
      </trkpt>
      <trkpt lat="44.50347" lon="6.74306">
        <ele>1392.8</ele>
        <time>2022-07-19T15:01:56Z</time>
      </trkpt>
      <trkpt lat="44.50349" lon="6.74308">
        <ele>1392.8</ele>
        <time>2022-07-19T15:01:57Z</time>
      </trkpt>
      <trkpt lat="44.50351" lon="6.74309">
        <ele>1393.2</ele>
        <time>2022-07-19T15:01:58Z</time>
      </trkpt>
      <trkpt lat="44.50353" lon="6.7431">
        <ele>1393.6</ele>
        <time>2022-07-19T15:01:59Z</time>
      </trkpt>
      <trkpt lat="44.50355" lon="6.74311">
        <ele>1393.6</ele>
        <time>2022-07-19T15:02:00Z</time>
      </trkpt>
      <trkpt lat="44.50357" lon="6.74312">
        <ele>1393.6</ele>
        <time>2022-07-19T15:02:01Z</time>
      </trkpt>
      <trkpt lat="44.50359" lon="6.74313">
        <ele>1393.8</ele>
        <time>2022-07-19T15:02:02Z</time>
      </trkpt>
      <trkpt lat="44.50361" lon="6.74314">
        <ele>1393.8</ele>
        <time>2022-07-19T15:02:03Z</time>
      </trkpt>
      <trkpt lat="44.50363" lon="6.74314">
        <ele>1394</ele>
        <time>2022-07-19T15:02:04Z</time>
      </trkpt>
      <trkpt lat="44.50365" lon="6.74315">
        <ele>1394</ele>
        <time>2022-07-19T15:02:05Z</time>
      </trkpt>
      <trkpt lat="44.50366" lon="6.74316">
        <ele>1394.4</ele>
        <time>2022-07-19T15:02:06Z</time>
      </trkpt>
      <trkpt lat="44.50368" lon="6.74317">
        <ele>1394.4</ele>
        <time>2022-07-19T15:02:07Z</time>
      </trkpt>
      <trkpt lat="44.5037" lon="6.74318">
        <ele>1394.6</ele>
        <time>2022-07-19T15:02:08Z</time>
      </trkpt>
      <trkpt lat="44.50372" lon="6.74319">
        <ele>1394.6</ele>
        <time>2022-07-19T15:02:09Z</time>
      </trkpt>
      <trkpt lat="44.50373" lon="6.7432">
        <ele>1394.8</ele>
        <time>2022-07-19T15:02:10Z</time>
      </trkpt>
      <trkpt lat="44.50375" lon="6.74322">
        <ele>1394.8</ele>
        <time>2022-07-19T15:02:11Z</time>
      </trkpt>
      <trkpt lat="44.50377" lon="6.74323">
        <ele>1395.2</ele>
        <time>2022-07-19T15:02:12Z</time>
      </trkpt>
      <trkpt lat="44.50378" lon="6.74324">
        <ele>1395.2</ele>
        <time>2022-07-19T15:02:13Z</time>
      </trkpt>
      <trkpt lat="44.50379" lon="6.74325">
        <ele>1395.4</ele>
        <time>2022-07-19T15:02:14Z</time>
      </trkpt>
      <trkpt lat="44.50379" lon="6.74325">
        <ele>1395.4</ele>
        <time>2022-07-19T15:02:15Z</time>
      </trkpt>
      <trkpt lat="44.50379" lon="6.74325">
        <ele>1395.4</ele>
        <time>2022-07-19T15:02:16Z</time>
      </trkpt>
      <trkpt lat="44.50379" lon="6.74325">
        <ele>1395.4</ele>
        <time>2022-07-19T15:02:17Z</time>
      </trkpt>
      <trkpt lat="44.5038" lon="6.74325">
        <ele>1395.4</ele>
        <time>2022-07-19T15:02:19Z</time>
      </trkpt>
      <trkpt lat="44.5038" lon="6.74325">
        <ele>1395.6</ele>
        <time>2022-07-19T15:02:20Z</time>
      </trkpt>
      <trkpt lat="44.5038" lon="6.74325">
        <ele>1395.6</ele>
        <time>2022-07-19T15:02:21Z</time>
      </trkpt>
      <trkpt lat="44.5038" lon="6.74326">
        <ele>1395.6</ele>
        <time>2022-07-19T15:02:22Z</time>
      </trkpt>
      <trkpt lat="44.5038" lon="6.74326">
        <ele>1395.6</ele>
        <time>2022-07-19T15:02:23Z</time>
      </trkpt>
      <trkpt lat="44.50381" lon="6.74326">
        <ele>1395.6</ele>
        <time>2022-07-19T15:02:28Z</time>
      </trkpt>
      <trkpt lat="44.50381" lon="6.74326">
        <ele>1395.6</ele>
        <time>2022-07-19T15:02:29Z</time>
      </trkpt>
      <trkpt lat="44.50381" lon="6.74326">
        <ele>1395.6</ele>
        <time>2022-07-19T15:02:30Z</time>
      </trkpt>
      <trkpt lat="44.50381" lon="6.74326">
        <ele>1395.6</ele>
        <time>2022-07-19T15:02:31Z</time>
      </trkpt>
      <trkpt lat="44.50382" lon="6.74326">
        <ele>1395.6</ele>
        <time>2022-07-19T15:02:32Z</time>
      </trkpt>
      <trkpt lat="44.50382" lon="6.74327">
        <ele>1395.6</ele>
        <time>2022-07-19T15:02:33Z</time>
      </trkpt>
      <trkpt lat="44.50382" lon="6.74327">
        <ele>1395.6</ele>
        <time>2022-07-19T15:02:34Z</time>
      </trkpt>
      <trkpt lat="44.50382" lon="6.74327">
        <ele>1395.8</ele>
        <time>2022-07-19T15:02:35Z</time>
      </trkpt>
      <trkpt lat="44.50383" lon="6.74327">
        <ele>1395.8</ele>
        <time>2022-07-19T15:02:36Z</time>
      </trkpt>
      <trkpt lat="44.50383" lon="6.74327">
        <ele>1395.8</ele>
        <time>2022-07-19T15:02:37Z</time>
      </trkpt>
      <trkpt lat="44.50383" lon="6.74327">
        <ele>1395.8</ele>
        <time>2022-07-19T15:02:38Z</time>
      </trkpt>
      <trkpt lat="44.50383" lon="6.74327">
        <ele>1395.8</ele>
        <time>2022-07-19T15:02:39Z</time>
      </trkpt>
      <trkpt lat="44.50383" lon="6.74328">
        <ele>1395.8</ele>
        <time>2022-07-19T15:02:40Z</time>
      </trkpt>
      <trkpt lat="44.50384" lon="6.74328">
        <ele>1395.8</ele>
        <time>2022-07-19T15:02:41Z</time>
      </trkpt>
      <trkpt lat="44.50384" lon="6.74328">
        <ele>1395.8</ele>
        <time>2022-07-19T15:02:42Z</time>
      </trkpt>
      <trkpt lat="44.50384" lon="6.74328">
        <ele>1395.8</ele>
        <time>2022-07-19T15:02:43Z</time>
      </trkpt>
      <trkpt lat="44.50384" lon="6.74328">
        <ele>1395.8</ele>
        <time>2022-07-19T15:02:44Z</time>
      </trkpt>
      <trkpt lat="44.50385" lon="6.74328">
        <ele>1395.8</ele>
        <time>2022-07-19T15:02:45Z</time>
      </trkpt>
      <trkpt lat="44.50385" lon="6.74328">
        <ele>1395.8</ele>
        <time>2022-07-19T15:02:46Z</time>
      </trkpt>
      <trkpt lat="44.50385" lon="6.74329">
        <ele>1395.8</ele>
        <time>2022-07-19T15:02:47Z</time>
      </trkpt>
      <trkpt lat="44.50385" lon="6.74329">
        <ele>1395.8</ele>
        <time>2022-07-19T15:02:48Z</time>
      </trkpt>
      <trkpt lat="44.50385" lon="6.74329">
        <ele>1396</ele>
        <time>2022-07-19T15:02:49Z</time>
      </trkpt>
      <trkpt lat="44.50386" lon="6.74329">
        <ele>1396</ele>
        <time>2022-07-19T15:02:50Z</time>
      </trkpt>
      <trkpt lat="44.50387" lon="6.7433">
        <ele>1396.2</ele>
        <time>2022-07-19T15:02:51Z</time>
      </trkpt>
      <trkpt lat="44.50388" lon="6.74331">
        <ele>1396.2</ele>
        <time>2022-07-19T15:02:52Z</time>
      </trkpt>
      <trkpt lat="44.50389" lon="6.74333">
        <ele>1396.2</ele>
        <time>2022-07-19T15:02:53Z</time>
      </trkpt>
      <trkpt lat="44.50391" lon="6.74334">
        <ele>1396.2</ele>
        <time>2022-07-19T15:02:54Z</time>
      </trkpt>
      <trkpt lat="44.50392" lon="6.74334">
        <ele>1396.6</ele>
        <time>2022-07-19T15:02:55Z</time>
      </trkpt>
      <trkpt lat="44.50394" lon="6.74335">
        <ele>1396.6</ele>
        <time>2022-07-19T15:02:56Z</time>
      </trkpt>
      <trkpt lat="44.50395" lon="6.74336">
        <ele>1396.8</ele>
        <time>2022-07-19T15:02:57Z</time>
      </trkpt>
      <trkpt lat="44.50396" lon="6.74338">
        <ele>1396.8</ele>
        <time>2022-07-19T15:02:58Z</time>
      </trkpt>
      <trkpt lat="44.50397" lon="6.7434">
        <ele>1397.2</ele>
        <time>2022-07-19T15:02:59Z</time>
      </trkpt>
      <trkpt lat="44.50398" lon="6.74341">
        <ele>1397.2</ele>
        <time>2022-07-19T15:03:00Z</time>
      </trkpt>
      <trkpt lat="44.50399" lon="6.74342">
        <ele>1397.4</ele>
        <time>2022-07-19T15:03:01Z</time>
      </trkpt>
      <trkpt lat="44.50401" lon="6.74343">
        <ele>1397.4</ele>
        <time>2022-07-19T15:03:02Z</time>
      </trkpt>
      <trkpt lat="44.50402" lon="6.74344">
        <ele>1397.8</ele>
        <time>2022-07-19T15:03:03Z</time>
      </trkpt>
      <trkpt lat="44.50403" lon="6.74345">
        <ele>1397.8</ele>
        <time>2022-07-19T15:03:04Z</time>
      </trkpt>
      <trkpt lat="44.50404" lon="6.74346">
        <ele>1398</ele>
        <time>2022-07-19T15:03:05Z</time>
      </trkpt>
      <trkpt lat="44.50405" lon="6.74347">
        <ele>1398</ele>
        <time>2022-07-19T15:03:06Z</time>
      </trkpt>
      <trkpt lat="44.50406" lon="6.74349">
        <ele>1398.2</ele>
        <time>2022-07-19T15:03:07Z</time>
      </trkpt>
      <trkpt lat="44.50408" lon="6.7435">
        <ele>1398.2</ele>
        <time>2022-07-19T15:03:08Z</time>
      </trkpt>
      <trkpt lat="44.50409" lon="6.74352">
        <ele>1398.6</ele>
        <time>2022-07-19T15:03:09Z</time>
      </trkpt>
      <trkpt lat="44.5041" lon="6.74353">
        <ele>1398.6</ele>
        <time>2022-07-19T15:03:10Z</time>
      </trkpt>
      <trkpt lat="44.50411" lon="6.74355">
        <ele>1398.8</ele>
        <time>2022-07-19T15:03:11Z</time>
      </trkpt>
      <trkpt lat="44.50412" lon="6.74356">
        <ele>1398.8</ele>
        <time>2022-07-19T15:03:12Z</time>
      </trkpt>
      <trkpt lat="44.50413" lon="6.74358">
        <ele>1399</ele>
        <time>2022-07-19T15:03:13Z</time>
      </trkpt>
      <trkpt lat="44.50414" lon="6.74359">
        <ele>1399</ele>
        <time>2022-07-19T15:03:14Z</time>
      </trkpt>
      <trkpt lat="44.50415" lon="6.74361">
        <ele>1399</ele>
        <time>2022-07-19T15:03:15Z</time>
      </trkpt>
      <trkpt lat="44.50416" lon="6.74362">
        <ele>1399.4</ele>
        <time>2022-07-19T15:03:16Z</time>
      </trkpt>
      <trkpt lat="44.50417" lon="6.74364">
        <ele>1399.4</ele>
        <time>2022-07-19T15:03:17Z</time>
      </trkpt>
      <trkpt lat="44.50417" lon="6.74367">
        <ele>1399.4</ele>
        <time>2022-07-19T15:03:18Z</time>
      </trkpt>
      <trkpt lat="44.50418" lon="6.7437">
        <ele>1399.6</ele>
        <time>2022-07-19T15:03:19Z</time>
      </trkpt>
      <trkpt lat="44.50419" lon="6.74372">
        <ele>1399.6</ele>
        <time>2022-07-19T15:03:20Z</time>
      </trkpt>
      <trkpt lat="44.50419" lon="6.74376">
        <ele>1400</ele>
        <time>2022-07-19T15:03:21Z</time>
      </trkpt>
      <trkpt lat="44.50419" lon="6.7438">
        <ele>1400</ele>
        <time>2022-07-19T15:03:22Z</time>
      </trkpt>
      <trkpt lat="44.50419" lon="6.74383">
        <ele>1400.2</ele>
        <time>2022-07-19T15:03:23Z</time>
      </trkpt>
      <trkpt lat="44.5042" lon="6.74387">
        <ele>1400.2</ele>
        <time>2022-07-19T15:03:24Z</time>
      </trkpt>
      <trkpt lat="44.5042" lon="6.7439">
        <ele>1400.4</ele>
        <time>2022-07-19T15:03:25Z</time>
      </trkpt>
      <trkpt lat="44.5042" lon="6.74394">
        <ele>1400.4</ele>
        <time>2022-07-19T15:03:26Z</time>
      </trkpt>
      <trkpt lat="44.5042" lon="6.74397">
        <ele>1400.8</ele>
        <time>2022-07-19T15:03:27Z</time>
      </trkpt>
      <trkpt lat="44.50421" lon="6.74404">
        <ele>1400.8</ele>
        <time>2022-07-19T15:03:28Z</time>
      </trkpt>
      <trkpt lat="44.50423" lon="6.74408">
        <ele>1400.8</ele>
        <time>2022-07-19T15:03:29Z</time>
      </trkpt>
      <trkpt lat="44.50424" lon="6.74414">
        <ele>1401</ele>
        <time>2022-07-19T15:03:30Z</time>
      </trkpt>
      <trkpt lat="44.50426" lon="6.74418">
        <ele>1401</ele>
        <time>2022-07-19T15:03:31Z</time>
      </trkpt>
      <trkpt lat="44.50425" lon="6.74421">
        <ele>1401.2</ele>
        <time>2022-07-19T15:03:32Z</time>
      </trkpt>
      <trkpt lat="44.50424" lon="6.74424">
        <ele>1401.2</ele>
        <time>2022-07-19T15:03:33Z</time>
      </trkpt>
      <trkpt lat="44.50425" lon="6.74428">
        <ele>1401.4</ele>
        <time>2022-07-19T15:03:34Z</time>
      </trkpt>
      <trkpt lat="44.50426" lon="6.74432">
        <ele>1401.4</ele>
        <time>2022-07-19T15:03:35Z</time>
      </trkpt>
      <trkpt lat="44.50428" lon="6.74435">
        <ele>1401.8</ele>
        <time>2022-07-19T15:03:36Z</time>
      </trkpt>
      <trkpt lat="44.50429" lon="6.74438">
        <ele>1401.8</ele>
        <time>2022-07-19T15:03:37Z</time>
      </trkpt>
      <trkpt lat="44.5043" lon="6.7444">
        <ele>1401.8</ele>
        <time>2022-07-19T15:03:38Z</time>
      </trkpt>
      <trkpt lat="44.50427" lon="6.74443">
        <ele>1402</ele>
        <time>2022-07-19T15:03:39Z</time>
      </trkpt>
      <trkpt lat="44.50425" lon="6.74446">
        <ele>1402</ele>
        <time>2022-07-19T15:03:40Z</time>
      </trkpt>
      <trkpt lat="44.50424" lon="6.74449">
        <ele>1402</ele>
        <time>2022-07-19T15:03:41Z</time>
      </trkpt>
      <trkpt lat="44.50424" lon="6.74452">
        <ele>1402.4</ele>
        <time>2022-07-19T15:03:42Z</time>
      </trkpt>
      <trkpt lat="44.50423" lon="6.74455">
        <ele>1402.4</ele>
        <time>2022-07-19T15:03:43Z</time>
      </trkpt>
      <trkpt lat="44.50422" lon="6.74458">
        <ele>1402.6</ele>
        <time>2022-07-19T15:03:44Z</time>
      </trkpt>
      <trkpt lat="44.50422" lon="6.74461">
        <ele>1402.6</ele>
        <time>2022-07-19T15:03:45Z</time>
      </trkpt>
      <trkpt lat="44.50421" lon="6.74464">
        <ele>1402.6</ele>
        <time>2022-07-19T15:03:46Z</time>
      </trkpt>
      <trkpt lat="44.50418" lon="6.74468">
        <ele>1402.8</ele>
        <time>2022-07-19T15:03:47Z</time>
      </trkpt>
      <trkpt lat="44.50416" lon="6.74473">
        <ele>1402.8</ele>
        <time>2022-07-19T15:03:48Z</time>
      </trkpt>
      <trkpt lat="44.50411" lon="6.74482">
        <ele>1403</ele>
        <time>2022-07-19T15:03:49Z</time>
      </trkpt>
      <trkpt lat="44.50409" lon="6.74489">
        <ele>1403</ele>
        <time>2022-07-19T15:03:50Z</time>
      </trkpt>
      <trkpt lat="44.50407" lon="6.74497">
        <ele>1403</ele>
        <time>2022-07-19T15:03:51Z</time>
      </trkpt>
      <trkpt lat="44.50405" lon="6.74505">
        <ele>1403.4</ele>
        <time>2022-07-19T15:03:52Z</time>
      </trkpt>
      <trkpt lat="44.50405" lon="6.74508">
        <ele>1403.4</ele>
        <time>2022-07-19T15:03:53Z</time>
      </trkpt>
      <trkpt lat="44.50405" lon="6.74511">
        <ele>1403.6</ele>
        <time>2022-07-19T15:03:54Z</time>
      </trkpt>
      <trkpt lat="44.50407" lon="6.74513">
        <ele>1403.6</ele>
        <time>2022-07-19T15:03:55Z</time>
      </trkpt>
      <trkpt lat="44.5041" lon="6.74517">
        <ele>1403.6</ele>
        <time>2022-07-19T15:03:56Z</time>
      </trkpt>
      <trkpt lat="44.50411" lon="6.74521">
        <ele>1404</ele>
        <time>2022-07-19T15:03:57Z</time>
      </trkpt>
      <trkpt lat="44.50419" lon="6.74526">
        <ele>1404</ele>
        <time>2022-07-19T15:03:58Z</time>
      </trkpt>
      <trkpt lat="44.50424" lon="6.74527">
        <ele>1404</ele>
        <time>2022-07-19T15:03:59Z</time>
      </trkpt>
      <trkpt lat="44.50433" lon="6.7453">
        <ele>1404.2</ele>
        <time>2022-07-19T15:04:00Z</time>
      </trkpt>
      <trkpt lat="44.5044" lon="6.74532">
        <ele>1404.2</ele>
        <time>2022-07-19T15:04:01Z</time>
      </trkpt>
      <trkpt lat="44.50448" lon="6.74534">
        <ele>1404.4</ele>
        <time>2022-07-19T15:04:02Z</time>
      </trkpt>
      <trkpt lat="44.50454" lon="6.74531">
        <ele>1404.4</ele>
        <time>2022-07-19T15:04:03Z</time>
      </trkpt>
      <trkpt lat="44.50475" lon="6.74532">
        <ele>1404.4</ele>
        <time>2022-07-19T15:04:04Z</time>
      </trkpt>
      <trkpt lat="44.50497" lon="6.74533">
        <ele>1404.6</ele>
        <time>2022-07-19T15:04:05Z</time>
      </trkpt>
      <trkpt lat="44.50509" lon="6.74526">
        <ele>1404.6</ele>
        <time>2022-07-19T15:04:06Z</time>
      </trkpt>
      <trkpt lat="44.50519" lon="6.74518">
        <ele>1404.6</ele>
        <time>2022-07-19T15:04:07Z</time>
      </trkpt>
      <trkpt lat="44.50527" lon="6.74515">
        <ele>1405</ele>
        <time>2022-07-19T15:04:08Z</time>
      </trkpt>
      <trkpt lat="44.50533" lon="6.74513">
        <ele>1405</ele>
        <time>2022-07-19T15:04:09Z</time>
      </trkpt>
      <trkpt lat="44.50539" lon="6.74511">
        <ele>1405</ele>
        <time>2022-07-19T15:04:10Z</time>
      </trkpt>
      <trkpt lat="44.50544" lon="6.74511">
        <ele>1405.2</ele>
        <time>2022-07-19T15:04:11Z</time>
      </trkpt>
      <trkpt lat="44.50548" lon="6.74512">
        <ele>1405.2</ele>
        <time>2022-07-19T15:04:12Z</time>
      </trkpt>
      <trkpt lat="44.50552" lon="6.74514">
        <ele>1405.4</ele>
        <time>2022-07-19T15:04:13Z</time>
      </trkpt>
      <trkpt lat="44.50556" lon="6.74515">
        <ele>1405.4</ele>
        <time>2022-07-19T15:04:14Z</time>
      </trkpt>
      <trkpt lat="44.5056" lon="6.74517">
        <ele>1405.6</ele>
        <time>2022-07-19T15:04:15Z</time>
      </trkpt>
      <trkpt lat="44.50564" lon="6.74518">
        <ele>1405.6</ele>
        <time>2022-07-19T15:04:16Z</time>
      </trkpt>
      <trkpt lat="44.50567" lon="6.74519">
        <ele>1405.6</ele>
        <time>2022-07-19T15:04:17Z</time>
      </trkpt>
      <trkpt lat="44.50571" lon="6.7452">
        <ele>1406</ele>
        <time>2022-07-19T15:04:18Z</time>
      </trkpt>
      <trkpt lat="44.50574" lon="6.74521">
        <ele>1406</ele>
        <time>2022-07-19T15:04:19Z</time>
      </trkpt>
      <trkpt lat="44.50578" lon="6.74522">
        <ele>1406</ele>
        <time>2022-07-19T15:04:20Z</time>
      </trkpt>
      <trkpt lat="44.50581" lon="6.74524">
        <ele>1406.2</ele>
        <time>2022-07-19T15:04:21Z</time>
      </trkpt>
      <trkpt lat="44.50584" lon="6.74525">
        <ele>1406.2</ele>
        <time>2022-07-19T15:04:22Z</time>
      </trkpt>
      <trkpt lat="44.50588" lon="6.74526">
        <ele>1406.2</ele>
        <time>2022-07-19T15:04:23Z</time>
      </trkpt>
      <trkpt lat="44.50591" lon="6.74527">
        <ele>1406.4</ele>
        <time>2022-07-19T15:04:25Z</time>
      </trkpt>
      <trkpt lat="44.50594" lon="6.74529">
        <ele>1406.4</ele>
        <time>2022-07-19T15:04:26Z</time>
      </trkpt>
      <trkpt lat="44.50597" lon="6.7453">
        <ele>1406.6</ele>
        <time>2022-07-19T15:04:27Z</time>
      </trkpt>
      <trkpt lat="44.50601" lon="6.74531">
        <ele>1406.6</ele>
        <time>2022-07-19T15:04:28Z</time>
      </trkpt>
      <trkpt lat="44.50604" lon="6.74533">
        <ele>1407</ele>
        <time>2022-07-19T15:04:29Z</time>
      </trkpt>
      <trkpt lat="44.50607" lon="6.74534">
        <ele>1407</ele>
        <time>2022-07-19T15:04:30Z</time>
      </trkpt>
      <trkpt lat="44.5061" lon="6.74535">
        <ele>1407.2</ele>
        <time>2022-07-19T15:04:31Z</time>
      </trkpt>
      <trkpt lat="44.50613" lon="6.74537">
        <ele>1407.2</ele>
        <time>2022-07-19T15:04:32Z</time>
      </trkpt>
      <trkpt lat="44.50617" lon="6.74537">
        <ele>1407.2</ele>
        <time>2022-07-19T15:04:33Z</time>
      </trkpt>
      <trkpt lat="44.5062" lon="6.74538">
        <ele>1407.2</ele>
        <time>2022-07-19T15:04:34Z</time>
      </trkpt>
      <trkpt lat="44.50623" lon="6.74539">
        <ele>1407.6</ele>
        <time>2022-07-19T15:04:35Z</time>
      </trkpt>
      <trkpt lat="44.50626" lon="6.7454">
        <ele>1407.6</ele>
        <time>2022-07-19T15:04:36Z</time>
      </trkpt>
      <trkpt lat="44.50629" lon="6.74541">
        <ele>1407.6</ele>
        <time>2022-07-19T15:04:37Z</time>
      </trkpt>
      <trkpt lat="44.50632" lon="6.74543">
        <ele>1407.8</ele>
        <time>2022-07-19T15:04:38Z</time>
      </trkpt>
      <trkpt lat="44.50635" lon="6.74544">
        <ele>1407.8</ele>
        <time>2022-07-19T15:04:39Z</time>
      </trkpt>
      <trkpt lat="44.50638" lon="6.74545">
        <ele>1408</ele>
        <time>2022-07-19T15:04:40Z</time>
      </trkpt>
      <trkpt lat="44.50641" lon="6.74546">
        <ele>1408</ele>
        <time>2022-07-19T15:04:41Z</time>
      </trkpt>
      <trkpt lat="44.50645" lon="6.74547">
        <ele>1408.2</ele>
        <time>2022-07-19T15:04:42Z</time>
      </trkpt>
      <trkpt lat="44.50648" lon="6.74548">
        <ele>1408.2</ele>
        <time>2022-07-19T15:04:43Z</time>
      </trkpt>
      <trkpt lat="44.50651" lon="6.7455">
        <ele>1408.2</ele>
        <time>2022-07-19T15:04:44Z</time>
      </trkpt>
      <trkpt lat="44.50654" lon="6.74552">
        <ele>1408.4</ele>
        <time>2022-07-19T15:04:45Z</time>
      </trkpt>
      <trkpt lat="44.50657" lon="6.74553">
        <ele>1408.4</ele>
        <time>2022-07-19T15:04:46Z</time>
      </trkpt>
      <trkpt lat="44.5066" lon="6.74554">
        <ele>1408.8</ele>
        <time>2022-07-19T15:04:47Z</time>
      </trkpt>
      <trkpt lat="44.50664" lon="6.74555">
        <ele>1408.8</ele>
        <time>2022-07-19T15:04:48Z</time>
      </trkpt>
      <trkpt lat="44.50667" lon="6.74556">
        <ele>1408.8</ele>
        <time>2022-07-19T15:04:49Z</time>
      </trkpt>
      <trkpt lat="44.5067" lon="6.74556">
        <ele>1409</ele>
        <time>2022-07-19T15:04:50Z</time>
      </trkpt>
      <trkpt lat="44.50673" lon="6.74558">
        <ele>1409</ele>
        <time>2022-07-19T15:04:51Z</time>
      </trkpt>
      <trkpt lat="44.50676" lon="6.74559">
        <ele>1409</ele>
        <time>2022-07-19T15:04:52Z</time>
      </trkpt>
      <trkpt lat="44.50679" lon="6.7456">
        <ele>1409.2</ele>
        <time>2022-07-19T15:04:53Z</time>
      </trkpt>
      <trkpt lat="44.50682" lon="6.74561">
        <ele>1409.2</ele>
        <time>2022-07-19T15:04:54Z</time>
      </trkpt>
      <trkpt lat="44.50686" lon="6.74563">
        <ele>1409.4</ele>
        <time>2022-07-19T15:04:55Z</time>
      </trkpt>
      <trkpt lat="44.50689" lon="6.74564">
        <ele>1409.4</ele>
        <time>2022-07-19T15:04:56Z</time>
      </trkpt>
      <trkpt lat="44.50692" lon="6.74565">
        <ele>1409.4</ele>
        <time>2022-07-19T15:04:57Z</time>
      </trkpt>
      <trkpt lat="44.50695" lon="6.74567">
        <ele>1409.8</ele>
        <time>2022-07-19T15:04:58Z</time>
      </trkpt>
      <trkpt lat="44.50698" lon="6.74569">
        <ele>1409.8</ele>
        <time>2022-07-19T15:04:59Z</time>
      </trkpt>
      <trkpt lat="44.50701" lon="6.74571">
        <ele>1409.8</ele>
        <time>2022-07-19T15:05:00Z</time>
      </trkpt>
      <trkpt lat="44.50704" lon="6.74572">
        <ele>1409.8</ele>
        <time>2022-07-19T15:05:01Z</time>
      </trkpt>
      <trkpt lat="44.50707" lon="6.74574">
        <ele>1409.8</ele>
        <time>2022-07-19T15:05:02Z</time>
      </trkpt>
      <trkpt lat="44.5071" lon="6.74575">
        <ele>1410.4</ele>
        <time>2022-07-19T15:05:03Z</time>
      </trkpt>
      <trkpt lat="44.50713" lon="6.74577">
        <ele>1410.4</ele>
        <time>2022-07-19T15:05:04Z</time>
      </trkpt>
      <trkpt lat="44.50716" lon="6.74579">
        <ele>1410.4</ele>
        <time>2022-07-19T15:05:05Z</time>
      </trkpt>
      <trkpt lat="44.50719" lon="6.74581">
        <ele>1410.4</ele>
        <time>2022-07-19T15:05:06Z</time>
      </trkpt>
      <trkpt lat="44.50721" lon="6.74582">
        <ele>1410.8</ele>
        <time>2022-07-19T15:05:07Z</time>
      </trkpt>
      <trkpt lat="44.509" lon="6.74639">
        <ele>1414.8</ele>
        <time>2022-07-19T15:05:58Z</time>
      </trkpt>
      <trkpt lat="44.50908" lon="6.7464">
        <ele>1414.8</ele>
        <time>2022-07-19T15:05:59Z</time>
      </trkpt>
      <trkpt lat="44.50917" lon="6.74642">
        <ele>1414.8</ele>
        <time>2022-07-19T15:06:00Z</time>
      </trkpt>
      <trkpt lat="44.50919" lon="6.74646">
        <ele>1414.8</ele>
        <time>2022-07-19T15:06:01Z</time>
      </trkpt>
      <trkpt lat="44.50922" lon="6.74646">
        <ele>1414.8</ele>
        <time>2022-07-19T15:06:02Z</time>
      </trkpt>
      <trkpt lat="44.50926" lon="6.74648">
        <ele>1415.2</ele>
        <time>2022-07-19T15:06:03Z</time>
      </trkpt>
      <trkpt lat="44.50929" lon="6.74649">
        <ele>1415.2</ele>
        <time>2022-07-19T15:06:04Z</time>
      </trkpt>
      <trkpt lat="44.50932" lon="6.7465">
        <ele>1415.2</ele>
        <time>2022-07-19T15:06:05Z</time>
      </trkpt>
      <trkpt lat="44.50935" lon="6.74651">
        <ele>1415.4</ele>
        <time>2022-07-19T15:06:06Z</time>
      </trkpt>
      <trkpt lat="44.50938" lon="6.74653">
        <ele>1415.4</ele>
        <time>2022-07-19T15:06:07Z</time>
      </trkpt>
      <trkpt lat="44.50941" lon="6.74654">
        <ele>1415.6</ele>
        <time>2022-07-19T15:06:08Z</time>
      </trkpt>
      <trkpt lat="44.50944" lon="6.74655">
        <ele>1415.6</ele>
        <time>2022-07-19T15:06:09Z</time>
      </trkpt>
      <trkpt lat="44.50947" lon="6.74657">
        <ele>1415.6</ele>
        <time>2022-07-19T15:06:10Z</time>
      </trkpt>
      <trkpt lat="44.5095" lon="6.74658">
        <ele>1416</ele>
        <time>2022-07-19T15:06:11Z</time>
      </trkpt>
      <trkpt lat="44.50953" lon="6.74659">
        <ele>1416</ele>
        <time>2022-07-19T15:06:12Z</time>
      </trkpt>
      <trkpt lat="44.50956" lon="6.7466">
        <ele>1416</ele>
        <time>2022-07-19T15:06:13Z</time>
      </trkpt>
      <trkpt lat="44.5096" lon="6.74661">
        <ele>1416</ele>
        <time>2022-07-19T15:06:14Z</time>
      </trkpt>
      <trkpt lat="44.50963" lon="6.74662">
        <ele>1416</ele>
        <time>2022-07-19T15:06:15Z</time>
      </trkpt>
      <trkpt lat="44.50966" lon="6.74664">
        <ele>1416.2</ele>
        <time>2022-07-19T15:06:16Z</time>
      </trkpt>
      <trkpt lat="44.5097" lon="6.74665">
        <ele>1416.2</ele>
        <time>2022-07-19T15:06:17Z</time>
      </trkpt>
      <trkpt lat="44.50973" lon="6.74666">
        <ele>1416.2</ele>
        <time>2022-07-19T15:06:18Z</time>
      </trkpt>
      <trkpt lat="44.50976" lon="6.74668">
        <ele>1416.4</ele>
        <time>2022-07-19T15:06:19Z</time>
      </trkpt>
      <trkpt lat="44.5098" lon="6.74669">
        <ele>1416.4</ele>
        <time>2022-07-19T15:06:20Z</time>
      </trkpt>
      <trkpt lat="44.50983" lon="6.7467">
        <ele>1416.8</ele>
        <time>2022-07-19T15:06:21Z</time>
      </trkpt>
      <trkpt lat="44.50986" lon="6.7467">
        <ele>1416.8</ele>
        <time>2022-07-19T15:06:22Z</time>
      </trkpt>
      <trkpt lat="44.50989" lon="6.7467">
        <ele>1417.2</ele>
        <time>2022-07-19T15:06:23Z</time>
      </trkpt>
      <trkpt lat="44.50991" lon="6.7467">
        <ele>1417.4</ele>
        <time>2022-07-19T15:06:24Z</time>
      </trkpt>
      <trkpt lat="44.50994" lon="6.7467">
        <ele>1417.4</ele>
        <time>2022-07-19T15:06:25Z</time>
      </trkpt>
      <trkpt lat="44.50997" lon="6.7467">
        <ele>1417.6</ele>
        <time>2022-07-19T15:06:26Z</time>
      </trkpt>
      <trkpt lat="44.50999" lon="6.7467">
        <ele>1417.6</ele>
        <time>2022-07-19T15:06:27Z</time>
      </trkpt>
      <trkpt lat="44.51002" lon="6.74669">
        <ele>1418.2</ele>
        <time>2022-07-19T15:06:28Z</time>
      </trkpt>
      <trkpt lat="44.51004" lon="6.74668">
        <ele>1418.4</ele>
        <time>2022-07-19T15:06:29Z</time>
      </trkpt>
      <trkpt lat="44.51006" lon="6.74666">
        <ele>1418.4</ele>
        <time>2022-07-19T15:06:30Z</time>
      </trkpt>
      <trkpt lat="44.51008" lon="6.74665">
        <ele>1418.6</ele>
        <time>2022-07-19T15:06:31Z</time>
      </trkpt>
      <trkpt lat="44.5101" lon="6.74663">
        <ele>1418.8</ele>
        <time>2022-07-19T15:06:32Z</time>
      </trkpt>
      <trkpt lat="44.51012" lon="6.74662">
        <ele>1419.2</ele>
        <time>2022-07-19T15:06:33Z</time>
      </trkpt>
      <trkpt lat="44.51014" lon="6.74661">
        <ele>1419.4</ele>
        <time>2022-07-19T15:06:34Z</time>
      </trkpt>
      <trkpt lat="44.51016" lon="6.74659">
        <ele>1419.4</ele>
        <time>2022-07-19T15:06:35Z</time>
      </trkpt>
      <trkpt lat="44.51018" lon="6.74657">
        <ele>1419.8</ele>
        <time>2022-07-19T15:06:36Z</time>
      </trkpt>
      <trkpt lat="44.51019" lon="6.74654">
        <ele>1419.8</ele>
        <time>2022-07-19T15:06:37Z</time>
      </trkpt>
      <trkpt lat="44.5102" lon="6.74652">
        <ele>1420.2</ele>
        <time>2022-07-19T15:06:38Z</time>
      </trkpt>
      <trkpt lat="44.51021" lon="6.74649">
        <ele>1420.4</ele>
        <time>2022-07-19T15:06:39Z</time>
      </trkpt>
      <trkpt lat="44.51022" lon="6.74646">
        <ele>1420.6</ele>
        <time>2022-07-19T15:06:40Z</time>
      </trkpt>
      <trkpt lat="44.51023" lon="6.74644">
        <ele>1420.8</ele>
        <time>2022-07-19T15:06:41Z</time>
      </trkpt>
      <trkpt lat="44.51024" lon="6.74642">
        <ele>1420.8</ele>
        <time>2022-07-19T15:06:42Z</time>
      </trkpt>
      <trkpt lat="44.51026" lon="6.7464">
        <ele>1421.2</ele>
        <time>2022-07-19T15:06:43Z</time>
      </trkpt>
      <trkpt lat="44.51027" lon="6.74637">
        <ele>1421.2</ele>
        <time>2022-07-19T15:06:44Z</time>
      </trkpt>
      <trkpt lat="44.51028" lon="6.74635">
        <ele>1421.4</ele>
        <time>2022-07-19T15:06:45Z</time>
      </trkpt>
      <trkpt lat="44.51028" lon="6.74632">
        <ele>1421.4</ele>
        <time>2022-07-19T15:06:46Z</time>
      </trkpt>
      <trkpt lat="44.51029" lon="6.7463">
        <ele>1421.6</ele>
        <time>2022-07-19T15:06:47Z</time>
      </trkpt>
      <trkpt lat="44.5103" lon="6.74628">
        <ele>1421.6</ele>
        <time>2022-07-19T15:06:48Z</time>
      </trkpt>
      <trkpt lat="44.51031" lon="6.74626">
        <ele>1422</ele>
        <time>2022-07-19T15:06:49Z</time>
      </trkpt>
      <trkpt lat="44.51032" lon="6.74623">
        <ele>1422</ele>
        <time>2022-07-19T15:06:50Z</time>
      </trkpt>
      <trkpt lat="44.51032" lon="6.74621">
        <ele>1422.2</ele>
        <time>2022-07-19T15:06:51Z</time>
      </trkpt>
      <trkpt lat="44.51033" lon="6.74619">
        <ele>1422.2</ele>
        <time>2022-07-19T15:06:52Z</time>
      </trkpt>
      <trkpt lat="44.51033" lon="6.74616">
        <ele>1422.6</ele>
        <time>2022-07-19T15:06:53Z</time>
      </trkpt>
      <trkpt lat="44.51034" lon="6.74613">
        <ele>1422.6</ele>
        <time>2022-07-19T15:06:54Z</time>
      </trkpt>
      <trkpt lat="44.51034" lon="6.7461">
        <ele>1422.8</ele>
        <time>2022-07-19T15:06:55Z</time>
      </trkpt>
      <trkpt lat="44.51034" lon="6.74607">
        <ele>1422.8</ele>
        <time>2022-07-19T15:06:56Z</time>
      </trkpt>
      <trkpt lat="44.51035" lon="6.74605">
        <ele>1423</ele>
        <time>2022-07-19T15:06:57Z</time>
      </trkpt>
      <trkpt lat="44.51035" lon="6.74602">
        <ele>1423</ele>
        <time>2022-07-19T15:06:58Z</time>
      </trkpt>
      <trkpt lat="44.51036" lon="6.74599">
        <ele>1423.2</ele>
        <time>2022-07-19T15:06:59Z</time>
      </trkpt>
      <trkpt lat="44.51036" lon="6.74596">
        <ele>1423.2</ele>
        <time>2022-07-19T15:07:00Z</time>
      </trkpt>
      <trkpt lat="44.51037" lon="6.74593">
        <ele>1423.6</ele>
        <time>2022-07-19T15:07:01Z</time>
      </trkpt>
      <trkpt lat="44.51037" lon="6.7459">
        <ele>1423.6</ele>
        <time>2022-07-19T15:07:02Z</time>
      </trkpt>
      <trkpt lat="44.51037" lon="6.74588">
        <ele>1423.8</ele>
        <time>2022-07-19T15:07:03Z</time>
      </trkpt>
      <trkpt lat="44.51038" lon="6.74585">
        <ele>1423.8</ele>
        <time>2022-07-19T15:07:04Z</time>
      </trkpt>
      <trkpt lat="44.51038" lon="6.74583">
        <ele>1424</ele>
        <time>2022-07-19T15:07:05Z</time>
      </trkpt>
      <trkpt lat="44.51038" lon="6.7458">
        <ele>1424</ele>
        <time>2022-07-19T15:07:06Z</time>
      </trkpt>
      <trkpt lat="44.51038" lon="6.74578">
        <ele>1424.4</ele>
        <time>2022-07-19T15:07:07Z</time>
      </trkpt>
      <trkpt lat="44.51038" lon="6.74575">
        <ele>1424.6</ele>
        <time>2022-07-19T15:07:08Z</time>
      </trkpt>
      <trkpt lat="44.51039" lon="6.74572">
        <ele>1424.6</ele>
        <time>2022-07-19T15:07:09Z</time>
      </trkpt>
      <trkpt lat="44.51039" lon="6.7457">
        <ele>1425</ele>
        <time>2022-07-19T15:07:10Z</time>
      </trkpt>
      <trkpt lat="44.5104" lon="6.74567">
        <ele>1425</ele>
        <time>2022-07-19T15:07:11Z</time>
      </trkpt>
      <trkpt lat="44.5104" lon="6.74564">
        <ele>1425.2</ele>
        <time>2022-07-19T15:07:12Z</time>
      </trkpt>
      <trkpt lat="44.51041" lon="6.74562">
        <ele>1425.2</ele>
        <time>2022-07-19T15:07:13Z</time>
      </trkpt>
      <trkpt lat="44.51042" lon="6.74559">
        <ele>1425.4</ele>
        <time>2022-07-19T15:07:14Z</time>
      </trkpt>
      <trkpt lat="44.51043" lon="6.74556">
        <ele>1425.4</ele>
        <time>2022-07-19T15:07:15Z</time>
      </trkpt>
      <trkpt lat="44.51043" lon="6.74553">
        <ele>1425.4</ele>
        <time>2022-07-19T15:07:16Z</time>
      </trkpt>
      <trkpt lat="44.51044" lon="6.74551">
        <ele>1425.8</ele>
        <time>2022-07-19T15:07:17Z</time>
      </trkpt>
      <trkpt lat="44.51044" lon="6.74548">
        <ele>1425.8</ele>
        <time>2022-07-19T15:07:18Z</time>
      </trkpt>
      <trkpt lat="44.51045" lon="6.74545">
        <ele>1426.2</ele>
        <time>2022-07-19T15:07:19Z</time>
      </trkpt>
      <trkpt lat="44.51045" lon="6.74543">
        <ele>1426.4</ele>
        <time>2022-07-19T15:07:20Z</time>
      </trkpt>
      <trkpt lat="44.51046" lon="6.7454">
        <ele>1426.4</ele>
        <time>2022-07-19T15:07:21Z</time>
      </trkpt>
      <trkpt lat="44.51047" lon="6.74537">
        <ele>1426.6</ele>
        <time>2022-07-19T15:07:22Z</time>
      </trkpt>
      <trkpt lat="44.51047" lon="6.74535">
        <ele>1426.6</ele>
        <time>2022-07-19T15:07:23Z</time>
      </trkpt>
      <trkpt lat="44.51048" lon="6.74532">
        <ele>1427</ele>
        <time>2022-07-19T15:07:24Z</time>
      </trkpt>
      <trkpt lat="44.51049" lon="6.74529">
        <ele>1427</ele>
        <time>2022-07-19T15:07:25Z</time>
      </trkpt>
      <trkpt lat="44.5105" lon="6.74527">
        <ele>1427.4</ele>
        <time>2022-07-19T15:07:26Z</time>
      </trkpt>
      <trkpt lat="44.51051" lon="6.74524">
        <ele>1427.6</ele>
        <time>2022-07-19T15:07:27Z</time>
      </trkpt>
      <trkpt lat="44.51052" lon="6.74522">
        <ele>1427.6</ele>
        <time>2022-07-19T15:07:28Z</time>
      </trkpt>
      <trkpt lat="44.51054" lon="6.74519">
        <ele>1427.8</ele>
        <time>2022-07-19T15:07:29Z</time>
      </trkpt>
      <trkpt lat="44.51055" lon="6.74516">
        <ele>1427.8</ele>
        <time>2022-07-19T15:07:30Z</time>
      </trkpt>
      <trkpt lat="44.51057" lon="6.74514">
        <ele>1428.2</ele>
        <time>2022-07-19T15:07:31Z</time>
      </trkpt>
      <trkpt lat="44.51058" lon="6.74512">
        <ele>1428.2</ele>
        <time>2022-07-19T15:07:32Z</time>
      </trkpt>
      <trkpt lat="44.51059" lon="6.7451">
        <ele>1428.4</ele>
        <time>2022-07-19T15:07:33Z</time>
      </trkpt>
      <trkpt lat="44.5106" lon="6.74507">
        <ele>1428.4</ele>
        <time>2022-07-19T15:07:34Z</time>
      </trkpt>
      <trkpt lat="44.51061" lon="6.74505">
        <ele>1428.8</ele>
        <time>2022-07-19T15:07:35Z</time>
      </trkpt>
      <trkpt lat="44.51063" lon="6.74503">
        <ele>1428.8</ele>
        <time>2022-07-19T15:07:36Z</time>
      </trkpt>
      <trkpt lat="44.51064" lon="6.74501">
        <ele>1429</ele>
        <time>2022-07-19T15:07:37Z</time>
      </trkpt>
      <trkpt lat="44.51065" lon="6.74498">
        <ele>1429</ele>
        <time>2022-07-19T15:07:38Z</time>
      </trkpt>
      <trkpt lat="44.51067" lon="6.74496">
        <ele>1429.4</ele>
        <time>2022-07-19T15:07:39Z</time>
      </trkpt>
      <trkpt lat="44.51068" lon="6.74494">
        <ele>1429.6</ele>
        <time>2022-07-19T15:07:40Z</time>
      </trkpt>
      <trkpt lat="44.51069" lon="6.74491">
        <ele>1429.6</ele>
        <time>2022-07-19T15:07:41Z</time>
      </trkpt>
      <trkpt lat="44.51071" lon="6.74489">
        <ele>1429.6</ele>
        <time>2022-07-19T15:07:42Z</time>
      </trkpt>
      <trkpt lat="44.51072" lon="6.74487">
        <ele>1429.6</ele>
        <time>2022-07-19T15:07:43Z</time>
      </trkpt>
      <trkpt lat="44.51073" lon="6.74484">
        <ele>1430</ele>
        <time>2022-07-19T15:07:44Z</time>
      </trkpt>
      <trkpt lat="44.51075" lon="6.74482">
        <ele>1430</ele>
        <time>2022-07-19T15:07:45Z</time>
      </trkpt>
      <trkpt lat="44.51076" lon="6.7448">
        <ele>1430.2</ele>
        <time>2022-07-19T15:07:47Z</time>
      </trkpt>
      <trkpt lat="44.51078" lon="6.74478">
        <ele>1430.6</ele>
        <time>2022-07-19T15:07:48Z</time>
      </trkpt>
      <trkpt lat="44.51079" lon="6.74475">
        <ele>1430.6</ele>
        <time>2022-07-19T15:07:49Z</time>
      </trkpt>
      <trkpt lat="44.51081" lon="6.74473">
        <ele>1430.8</ele>
        <time>2022-07-19T15:07:50Z</time>
      </trkpt>
      <trkpt lat="44.51082" lon="6.74471">
        <ele>1430.8</ele>
        <time>2022-07-19T15:07:51Z</time>
      </trkpt>
      <trkpt lat="44.51084" lon="6.74469">
        <ele>1431.2</ele>
        <time>2022-07-19T15:07:52Z</time>
      </trkpt>
      <trkpt lat="44.51085" lon="6.74467">
        <ele>1431.2</ele>
        <time>2022-07-19T15:07:53Z</time>
      </trkpt>
      <trkpt lat="44.51087" lon="6.74465">
        <ele>1431.4</ele>
        <time>2022-07-19T15:07:54Z</time>
      </trkpt>
      <trkpt lat="44.51088" lon="6.74463">
        <ele>1431.4</ele>
        <time>2022-07-19T15:07:55Z</time>
      </trkpt>
      <trkpt lat="44.51089" lon="6.74461">
        <ele>1431.6</ele>
        <time>2022-07-19T15:07:56Z</time>
      </trkpt>
      <trkpt lat="44.51091" lon="6.74459">
        <ele>1431.6</ele>
        <time>2022-07-19T15:07:57Z</time>
      </trkpt>
      <trkpt lat="44.51092" lon="6.74457">
        <ele>1432</ele>
        <time>2022-07-19T15:07:58Z</time>
      </trkpt>
      <trkpt lat="44.51093" lon="6.74456">
        <ele>1432</ele>
        <time>2022-07-19T15:07:59Z</time>
      </trkpt>
      <trkpt lat="44.51095" lon="6.74454">
        <ele>1432.4</ele>
        <time>2022-07-19T15:08:00Z</time>
      </trkpt>
      <trkpt lat="44.51096" lon="6.74453">
        <ele>1432.6</ele>
        <time>2022-07-19T15:08:01Z</time>
      </trkpt>
      <trkpt lat="44.51097" lon="6.74451">
        <ele>1432.6</ele>
        <time>2022-07-19T15:08:02Z</time>
      </trkpt>
      <trkpt lat="44.51099" lon="6.74449">
        <ele>1432.8</ele>
        <time>2022-07-19T15:08:03Z</time>
      </trkpt>
      <trkpt lat="44.511" lon="6.74447">
        <ele>1432.8</ele>
        <time>2022-07-19T15:08:04Z</time>
      </trkpt>
      <trkpt lat="44.51102" lon="6.74446">
        <ele>1433</ele>
        <time>2022-07-19T15:08:05Z</time>
      </trkpt>
      <trkpt lat="44.51103" lon="6.74444">
        <ele>1433</ele>
        <time>2022-07-19T15:08:06Z</time>
      </trkpt>
      <trkpt lat="44.51105" lon="6.74442">
        <ele>1433.2</ele>
        <time>2022-07-19T15:08:07Z</time>
      </trkpt>
      <trkpt lat="44.51107" lon="6.74441">
        <ele>1433.2</ele>
        <time>2022-07-19T15:08:08Z</time>
      </trkpt>
      <trkpt lat="44.51108" lon="6.74439">
        <ele>1433.4</ele>
        <time>2022-07-19T15:08:09Z</time>
      </trkpt>
      <trkpt lat="44.5111" lon="6.74438">
        <ele>1433.4</ele>
        <time>2022-07-19T15:08:10Z</time>
      </trkpt>
      <trkpt lat="44.51112" lon="6.74436">
        <ele>1433.8</ele>
        <time>2022-07-19T15:08:11Z</time>
      </trkpt>
      <trkpt lat="44.51113" lon="6.74435">
        <ele>1433.8</ele>
        <time>2022-07-19T15:08:12Z</time>
      </trkpt>
      <trkpt lat="44.51115" lon="6.74434">
        <ele>1433.8</ele>
        <time>2022-07-19T15:08:13Z</time>
      </trkpt>
      <trkpt lat="44.51117" lon="6.74432">
        <ele>1433.8</ele>
        <time>2022-07-19T15:08:14Z</time>
      </trkpt>
      <trkpt lat="44.51119" lon="6.74431">
        <ele>1434</ele>
        <time>2022-07-19T15:08:15Z</time>
      </trkpt>
      <trkpt lat="44.51121" lon="6.7443">
        <ele>1434</ele>
        <time>2022-07-19T15:08:16Z</time>
      </trkpt>
      <trkpt lat="44.51123" lon="6.74429">
        <ele>1434.4</ele>
        <time>2022-07-19T15:08:17Z</time>
      </trkpt>
      <trkpt lat="44.51125" lon="6.74428">
        <ele>1434.4</ele>
        <time>2022-07-19T15:08:18Z</time>
      </trkpt>
      <trkpt lat="44.51127" lon="6.74427">
        <ele>1434.6</ele>
        <time>2022-07-19T15:08:19Z</time>
      </trkpt>
      <trkpt lat="44.51129" lon="6.74425">
        <ele>1434.6</ele>
        <time>2022-07-19T15:08:20Z</time>
      </trkpt>
      <trkpt lat="44.51131" lon="6.74425">
        <ele>1434.6</ele>
        <time>2022-07-19T15:08:21Z</time>
      </trkpt>
      <trkpt lat="44.51133" lon="6.74424">
        <ele>1435</ele>
        <time>2022-07-19T15:08:22Z</time>
      </trkpt>
      <trkpt lat="44.51137" lon="6.74422">
        <ele>1435.2</ele>
        <time>2022-07-19T15:08:24Z</time>
      </trkpt>
      <trkpt lat="44.51139" lon="6.74421">
        <ele>1435.2</ele>
        <time>2022-07-19T15:08:25Z</time>
      </trkpt>
      <trkpt lat="44.51141" lon="6.74421">
        <ele>1435.4</ele>
        <time>2022-07-19T15:08:26Z</time>
      </trkpt>
      <trkpt lat="44.51144" lon="6.74421">
        <ele>1435.4</ele>
        <time>2022-07-19T15:08:27Z</time>
      </trkpt>
      <trkpt lat="44.51146" lon="6.7442">
        <ele>1435.8</ele>
        <time>2022-07-19T15:08:28Z</time>
      </trkpt>
      <trkpt lat="44.51148" lon="6.74419">
        <ele>1435.8</ele>
        <time>2022-07-19T15:08:29Z</time>
      </trkpt>
      <trkpt lat="44.5115" lon="6.74419">
        <ele>1436</ele>
        <time>2022-07-19T15:08:30Z</time>
      </trkpt>
      <trkpt lat="44.51152" lon="6.74419">
        <ele>1436</ele>
        <time>2022-07-19T15:08:31Z</time>
      </trkpt>
      <trkpt lat="44.51154" lon="6.7442">
        <ele>1436</ele>
        <time>2022-07-19T15:08:32Z</time>
      </trkpt>
      <trkpt lat="44.51156" lon="6.7442">
        <ele>1436.2</ele>
        <time>2022-07-19T15:08:33Z</time>
      </trkpt>
      <trkpt lat="44.51158" lon="6.74421">
        <ele>1436.2</ele>
        <time>2022-07-19T15:08:34Z</time>
      </trkpt>
      <trkpt lat="44.5116" lon="6.74421">
        <ele>1436.6</ele>
        <time>2022-07-19T15:08:35Z</time>
      </trkpt>
      <trkpt lat="44.51163" lon="6.74421">
        <ele>1436.6</ele>
        <time>2022-07-19T15:08:36Z</time>
      </trkpt>
      <trkpt lat="44.51165" lon="6.74421">
        <ele>1436.8</ele>
        <time>2022-07-19T15:08:37Z</time>
      </trkpt>
      <trkpt lat="44.51167" lon="6.74421">
        <ele>1437</ele>
        <time>2022-07-19T15:08:38Z</time>
      </trkpt>
      <trkpt lat="44.5117" lon="6.74421">
        <ele>1437</ele>
        <time>2022-07-19T15:08:39Z</time>
      </trkpt>
      <trkpt lat="44.51172" lon="6.74421">
        <ele>1437.2</ele>
        <time>2022-07-19T15:08:40Z</time>
      </trkpt>
      <trkpt lat="44.51175" lon="6.74421">
        <ele>1437.2</ele>
        <time>2022-07-19T15:08:41Z</time>
      </trkpt>
      <trkpt lat="44.51177" lon="6.74421">
        <ele>1437.6</ele>
        <time>2022-07-19T15:08:42Z</time>
      </trkpt>
      <trkpt lat="44.51179" lon="6.74422">
        <ele>1437.6</ele>
        <time>2022-07-19T15:08:43Z</time>
      </trkpt>
      <trkpt lat="44.51181" lon="6.74423">
        <ele>1437.8</ele>
        <time>2022-07-19T15:08:44Z</time>
      </trkpt>
      <trkpt lat="44.51183" lon="6.74424">
        <ele>1437.8</ele>
        <time>2022-07-19T15:08:45Z</time>
      </trkpt>
      <trkpt lat="44.51185" lon="6.74424">
        <ele>1438</ele>
        <time>2022-07-19T15:08:46Z</time>
      </trkpt>
      <trkpt lat="44.51187" lon="6.74425">
        <ele>1438.4</ele>
        <time>2022-07-19T15:08:47Z</time>
      </trkpt>
      <trkpt lat="44.5119" lon="6.74426">
        <ele>1438.4</ele>
        <time>2022-07-19T15:08:48Z</time>
      </trkpt>
      <trkpt lat="44.51192" lon="6.74427">
        <ele>1438.6</ele>
        <time>2022-07-19T15:08:49Z</time>
      </trkpt>
      <trkpt lat="44.51194" lon="6.74427">
        <ele>1438.6</ele>
        <time>2022-07-19T15:08:50Z</time>
      </trkpt>
      <trkpt lat="44.51197" lon="6.74427">
        <ele>1438.6</ele>
        <time>2022-07-19T15:08:51Z</time>
      </trkpt>
      <trkpt lat="44.51199" lon="6.74427">
        <ele>1438.8</ele>
        <time>2022-07-19T15:08:52Z</time>
      </trkpt>
      <trkpt lat="44.51201" lon="6.74428">
        <ele>1438.8</ele>
        <time>2022-07-19T15:08:53Z</time>
      </trkpt>
      <trkpt lat="44.51204" lon="6.74428">
        <ele>1439.2</ele>
        <time>2022-07-19T15:08:54Z</time>
      </trkpt>
      <trkpt lat="44.51206" lon="6.74429">
        <ele>1439.2</ele>
        <time>2022-07-19T15:08:55Z</time>
      </trkpt>
      <trkpt lat="44.51208" lon="6.74429">
        <ele>1439.6</ele>
        <time>2022-07-19T15:08:56Z</time>
      </trkpt>
      <trkpt lat="44.51211" lon="6.7443">
        <ele>1439.6</ele>
        <time>2022-07-19T15:08:57Z</time>
      </trkpt>
      <trkpt lat="44.51213" lon="6.7443">
        <ele>1439.8</ele>
        <time>2022-07-19T15:08:58Z</time>
      </trkpt>
      <trkpt lat="44.51215" lon="6.7443">
        <ele>1440</ele>
        <time>2022-07-19T15:08:59Z</time>
      </trkpt>
      <trkpt lat="44.51217" lon="6.7443">
        <ele>1440</ele>
        <time>2022-07-19T15:09:00Z</time>
      </trkpt>
      <trkpt lat="44.5122" lon="6.7443">
        <ele>1440.2</ele>
        <time>2022-07-19T15:09:01Z</time>
      </trkpt>
      <trkpt lat="44.51222" lon="6.7443">
        <ele>1440.2</ele>
        <time>2022-07-19T15:09:02Z</time>
      </trkpt>
      <trkpt lat="44.51225" lon="6.7443">
        <ele>1440.4</ele>
        <time>2022-07-19T15:09:03Z</time>
      </trkpt>
      <trkpt lat="44.51227" lon="6.7443">
        <ele>1440.4</ele>
        <time>2022-07-19T15:09:04Z</time>
      </trkpt>
      <trkpt lat="44.5123" lon="6.7443">
        <ele>1440.8</ele>
        <time>2022-07-19T15:09:05Z</time>
      </trkpt>
      <trkpt lat="44.51232" lon="6.74429">
        <ele>1440.8</ele>
        <time>2022-07-19T15:09:06Z</time>
      </trkpt>
      <trkpt lat="44.51235" lon="6.74429">
        <ele>1441</ele>
        <time>2022-07-19T15:09:07Z</time>
      </trkpt>
      <trkpt lat="44.51237" lon="6.74428">
        <ele>1441</ele>
        <time>2022-07-19T15:09:08Z</time>
      </trkpt>
      <trkpt lat="44.51239" lon="6.74428">
        <ele>1441</ele>
        <time>2022-07-19T15:09:09Z</time>
      </trkpt>
      <trkpt lat="44.51241" lon="6.74428">
        <ele>1441.2</ele>
        <time>2022-07-19T15:09:10Z</time>
      </trkpt>
      <trkpt lat="44.51244" lon="6.74427">
        <ele>1441.2</ele>
        <time>2022-07-19T15:09:11Z</time>
      </trkpt>
      <trkpt lat="44.51246" lon="6.74427">
        <ele>1441.2</ele>
        <time>2022-07-19T15:09:12Z</time>
      </trkpt>
      <trkpt lat="44.51248" lon="6.74427">
        <ele>1441.6</ele>
        <time>2022-07-19T15:09:13Z</time>
      </trkpt>
      <trkpt lat="44.5125" lon="6.74426">
        <ele>1441.6</ele>
        <time>2022-07-19T15:09:14Z</time>
      </trkpt>
      <trkpt lat="44.51253" lon="6.74426">
        <ele>1441.6</ele>
        <time>2022-07-19T15:09:15Z</time>
      </trkpt>
      <trkpt lat="44.51255" lon="6.74425">
        <ele>1441.8</ele>
        <time>2022-07-19T15:09:16Z</time>
      </trkpt>
      <trkpt lat="44.51258" lon="6.74425">
        <ele>1441.8</ele>
        <time>2022-07-19T15:09:17Z</time>
      </trkpt>
      <trkpt lat="44.5126" lon="6.74425">
        <ele>1441.8</ele>
        <time>2022-07-19T15:09:18Z</time>
      </trkpt>
      <trkpt lat="44.51263" lon="6.74425">
        <ele>1442</ele>
        <time>2022-07-19T15:09:19Z</time>
      </trkpt>
      <trkpt lat="44.51266" lon="6.74426">
        <ele>1442</ele>
        <time>2022-07-19T15:09:20Z</time>
      </trkpt>
      <trkpt lat="44.51268" lon="6.74426">
        <ele>1442</ele>
        <time>2022-07-19T15:09:21Z</time>
      </trkpt>
      <trkpt lat="44.51271" lon="6.74426">
        <ele>1442.2</ele>
        <time>2022-07-19T15:09:22Z</time>
      </trkpt>
      <trkpt lat="44.51273" lon="6.74425">
        <ele>1442.2</ele>
        <time>2022-07-19T15:09:23Z</time>
      </trkpt>
      <trkpt lat="44.51276" lon="6.74425">
        <ele>1442.2</ele>
        <time>2022-07-19T15:09:24Z</time>
      </trkpt>
      <trkpt lat="44.51279" lon="6.74424">
        <ele>1442.2</ele>
        <time>2022-07-19T15:09:25Z</time>
      </trkpt>
      <trkpt lat="44.51281" lon="6.74424">
        <ele>1442.6</ele>
        <time>2022-07-19T15:09:26Z</time>
      </trkpt>
      <trkpt lat="44.51284" lon="6.74424">
        <ele>1442.6</ele>
        <time>2022-07-19T15:09:27Z</time>
      </trkpt>
      <trkpt lat="44.51286" lon="6.74424">
        <ele>1442.8</ele>
        <time>2022-07-19T15:09:28Z</time>
      </trkpt>
      <trkpt lat="44.51289" lon="6.74424">
        <ele>1442.8</ele>
        <time>2022-07-19T15:09:29Z</time>
      </trkpt>
      <trkpt lat="44.51292" lon="6.74423">
        <ele>1442.8</ele>
        <time>2022-07-19T15:09:30Z</time>
      </trkpt>
      <trkpt lat="44.51294" lon="6.74423">
        <ele>1443</ele>
        <time>2022-07-19T15:09:31Z</time>
      </trkpt>
      <trkpt lat="44.51297" lon="6.74423">
        <ele>1443</ele>
        <time>2022-07-19T15:09:32Z</time>
      </trkpt>
      <trkpt lat="44.51299" lon="6.74422">
        <ele>1443</ele>
        <time>2022-07-19T15:09:33Z</time>
      </trkpt>
      <trkpt lat="44.51302" lon="6.74422">
        <ele>1443.4</ele>
        <time>2022-07-19T15:09:34Z</time>
      </trkpt>
      <trkpt lat="44.51304" lon="6.74422">
        <ele>1443.4</ele>
        <time>2022-07-19T15:09:35Z</time>
      </trkpt>
      <trkpt lat="44.51307" lon="6.74422">
        <ele>1443.6</ele>
        <time>2022-07-19T15:09:36Z</time>
      </trkpt>
      <trkpt lat="44.51309" lon="6.74421">
        <ele>1443.6</ele>
        <time>2022-07-19T15:09:37Z</time>
      </trkpt>
      <trkpt lat="44.51312" lon="6.74421">
        <ele>1443.6</ele>
        <time>2022-07-19T15:09:38Z</time>
      </trkpt>
      <trkpt lat="44.51314" lon="6.74421">
        <ele>1443.8</ele>
        <time>2022-07-19T15:09:39Z</time>
      </trkpt>
      <trkpt lat="44.51317" lon="6.74421">
        <ele>1443.8</ele>
        <time>2022-07-19T15:09:40Z</time>
      </trkpt>
      <trkpt lat="44.5132" lon="6.74421">
        <ele>1443.8</ele>
        <time>2022-07-19T15:09:41Z</time>
      </trkpt>
      <trkpt lat="44.51323" lon="6.7442">
        <ele>1443.8</ele>
        <time>2022-07-19T15:09:42Z</time>
      </trkpt>
      <trkpt lat="44.51326" lon="6.7442">
        <ele>1444</ele>
        <time>2022-07-19T15:09:43Z</time>
      </trkpt>
      <trkpt lat="44.51329" lon="6.7442">
        <ele>1444</ele>
        <time>2022-07-19T15:09:44Z</time>
      </trkpt>
      <trkpt lat="44.51331" lon="6.7442">
        <ele>1444</ele>
        <time>2022-07-19T15:09:45Z</time>
      </trkpt>
      <trkpt lat="44.51334" lon="6.7442">
        <ele>1444</ele>
        <time>2022-07-19T15:09:46Z</time>
      </trkpt>
      <trkpt lat="44.51337" lon="6.7442">
        <ele>1444.2</ele>
        <time>2022-07-19T15:09:47Z</time>
      </trkpt>
      <trkpt lat="44.5134" lon="6.74419">
        <ele>1444.2</ele>
        <time>2022-07-19T15:09:48Z</time>
      </trkpt>
      <trkpt lat="44.51343" lon="6.74419">
        <ele>1444.2</ele>
        <time>2022-07-19T15:09:49Z</time>
      </trkpt>
      <trkpt lat="44.51345" lon="6.74419">
        <ele>1444.2</ele>
        <time>2022-07-19T15:09:50Z</time>
      </trkpt>
      <trkpt lat="44.51348" lon="6.74419">
        <ele>1444.6</ele>
        <time>2022-07-19T15:09:51Z</time>
      </trkpt>
      <trkpt lat="44.51351" lon="6.74419">
        <ele>1444.6</ele>
        <time>2022-07-19T15:09:52Z</time>
      </trkpt>
      <trkpt lat="44.51354" lon="6.74419">
        <ele>1444.6</ele>
        <time>2022-07-19T15:09:53Z</time>
      </trkpt>
      <trkpt lat="44.51357" lon="6.74419">
        <ele>1444.6</ele>
        <time>2022-07-19T15:09:54Z</time>
      </trkpt>
      <trkpt lat="44.51359" lon="6.74418">
        <ele>1444.6</ele>
        <time>2022-07-19T15:09:55Z</time>
      </trkpt>
      <trkpt lat="44.51362" lon="6.74418">
        <ele>1444.8</ele>
        <time>2022-07-19T15:09:56Z</time>
      </trkpt>
      <trkpt lat="44.51365" lon="6.74418">
        <ele>1444.8</ele>
        <time>2022-07-19T15:09:57Z</time>
      </trkpt>
      <trkpt lat="44.51367" lon="6.74417">
        <ele>1445</ele>
        <time>2022-07-19T15:09:58Z</time>
      </trkpt>
      <trkpt lat="44.5137" lon="6.74417">
        <ele>1445</ele>
        <time>2022-07-19T15:09:59Z</time>
      </trkpt>
      <trkpt lat="44.51373" lon="6.74417">
        <ele>1445</ele>
        <time>2022-07-19T15:10:00Z</time>
      </trkpt>
      <trkpt lat="44.51375" lon="6.74417">
        <ele>1445.2</ele>
        <time>2022-07-19T15:10:01Z</time>
      </trkpt>
      <trkpt lat="44.51378" lon="6.74416">
        <ele>1445.2</ele>
        <time>2022-07-19T15:10:02Z</time>
      </trkpt>
      <trkpt lat="44.51381" lon="6.74416">
        <ele>1445.2</ele>
        <time>2022-07-19T15:10:03Z</time>
      </trkpt>
      <trkpt lat="44.51383" lon="6.74416">
        <ele>1445.2</ele>
        <time>2022-07-19T15:10:04Z</time>
      </trkpt>
      <trkpt lat="44.51386" lon="6.74416">
        <ele>1445.6</ele>
        <time>2022-07-19T15:10:05Z</time>
      </trkpt>
      <trkpt lat="44.51388" lon="6.74416">
        <ele>1445.6</ele>
        <time>2022-07-19T15:10:06Z</time>
      </trkpt>
      <trkpt lat="44.51391" lon="6.74416">
        <ele>1445.6</ele>
        <time>2022-07-19T15:10:07Z</time>
      </trkpt>
      <trkpt lat="44.51394" lon="6.74416">
        <ele>1445.8</ele>
        <time>2022-07-19T15:10:08Z</time>
      </trkpt>
      <trkpt lat="44.51396" lon="6.74415">
        <ele>1445.8</ele>
        <time>2022-07-19T15:10:09Z</time>
      </trkpt>
      <trkpt lat="44.51399" lon="6.74416">
        <ele>1446</ele>
        <time>2022-07-19T15:10:10Z</time>
      </trkpt>
      <trkpt lat="44.51402" lon="6.74416">
        <ele>1446</ele>
        <time>2022-07-19T15:10:11Z</time>
      </trkpt>
      <trkpt lat="44.51404" lon="6.74415">
        <ele>1446.2</ele>
        <time>2022-07-19T15:10:12Z</time>
      </trkpt>
      <trkpt lat="44.51407" lon="6.74415">
        <ele>1446.2</ele>
        <time>2022-07-19T15:10:13Z</time>
      </trkpt>
      <trkpt lat="44.5141" lon="6.74415">
        <ele>1446.4</ele>
        <time>2022-07-19T15:10:14Z</time>
      </trkpt>
      <trkpt lat="44.51413" lon="6.74415">
        <ele>1446.4</ele>
        <time>2022-07-19T15:10:15Z</time>
      </trkpt>
      <trkpt lat="44.51415" lon="6.74414">
        <ele>1446.4</ele>
        <time>2022-07-19T15:10:16Z</time>
      </trkpt>
      <trkpt lat="44.51418" lon="6.74414">
        <ele>1446.6</ele>
        <time>2022-07-19T15:10:17Z</time>
      </trkpt>
      <trkpt lat="44.51421" lon="6.74414">
        <ele>1446.6</ele>
        <time>2022-07-19T15:10:18Z</time>
      </trkpt>
      <trkpt lat="44.51423" lon="6.74414">
        <ele>1446.6</ele>
        <time>2022-07-19T15:10:19Z</time>
      </trkpt>
      <trkpt lat="44.51426" lon="6.74413">
        <ele>1447</ele>
        <time>2022-07-19T15:10:20Z</time>
      </trkpt>
      <trkpt lat="44.51429" lon="6.74413">
        <ele>1447</ele>
        <time>2022-07-19T15:10:21Z</time>
      </trkpt>
      <trkpt lat="44.51431" lon="6.74413">
        <ele>1447</ele>
        <time>2022-07-19T15:10:22Z</time>
      </trkpt>
      <trkpt lat="44.51434" lon="6.74413">
        <ele>1447.4</ele>
        <time>2022-07-19T15:10:23Z</time>
      </trkpt>
      <trkpt lat="44.51436" lon="6.74412">
        <ele>1447.4</ele>
        <time>2022-07-19T15:10:24Z</time>
      </trkpt>
      <trkpt lat="44.51439" lon="6.74412">
        <ele>1447.4</ele>
        <time>2022-07-19T15:10:25Z</time>
      </trkpt>
      <trkpt lat="44.51442" lon="6.74412">
        <ele>1447.4</ele>
        <time>2022-07-19T15:10:26Z</time>
      </trkpt>
      <trkpt lat="44.51444" lon="6.74412">
        <ele>1447.6</ele>
        <time>2022-07-19T15:10:27Z</time>
      </trkpt>
      <trkpt lat="44.51446" lon="6.74412">
        <ele>1447.6</ele>
        <time>2022-07-19T15:10:28Z</time>
      </trkpt>
      <trkpt lat="44.51449" lon="6.74412">
        <ele>1447.8</ele>
        <time>2022-07-19T15:10:29Z</time>
      </trkpt>
      <trkpt lat="44.51452" lon="6.74412">
        <ele>1447.8</ele>
        <time>2022-07-19T15:10:30Z</time>
      </trkpt>
      <trkpt lat="44.51454" lon="6.74411">
        <ele>1448</ele>
        <time>2022-07-19T15:10:31Z</time>
      </trkpt>
      <trkpt lat="44.51457" lon="6.74411">
        <ele>1448</ele>
        <time>2022-07-19T15:10:32Z</time>
      </trkpt>
      <trkpt lat="44.51459" lon="6.74411">
        <ele>1448.4</ele>
        <time>2022-07-19T15:10:33Z</time>
      </trkpt>
      <trkpt lat="44.51462" lon="6.74411">
        <ele>1448.4</ele>
        <time>2022-07-19T15:10:34Z</time>
      </trkpt>
      <trkpt lat="44.51464" lon="6.7441">
        <ele>1448.6</ele>
        <time>2022-07-19T15:10:35Z</time>
      </trkpt>
      <trkpt lat="44.51466" lon="6.7441">
        <ele>1448.6</ele>
        <time>2022-07-19T15:10:36Z</time>
      </trkpt>
      <trkpt lat="44.51469" lon="6.7441">
        <ele>1448.6</ele>
        <time>2022-07-19T15:10:37Z</time>
      </trkpt>
      <trkpt lat="44.51471" lon="6.74409">
        <ele>1448.6</ele>
        <time>2022-07-19T15:10:38Z</time>
      </trkpt>
      <trkpt lat="44.51473" lon="6.74409">
        <ele>1448.8</ele>
        <time>2022-07-19T15:10:39Z</time>
      </trkpt>
      <trkpt lat="44.51476" lon="6.74409">
        <ele>1448.8</ele>
        <time>2022-07-19T15:10:40Z</time>
      </trkpt>
      <trkpt lat="44.51478" lon="6.74409">
        <ele>1448.8</ele>
        <time>2022-07-19T15:10:41Z</time>
      </trkpt>
      <trkpt lat="44.51481" lon="6.74409">
        <ele>1448.8</ele>
        <time>2022-07-19T15:10:42Z</time>
      </trkpt>
      <trkpt lat="44.51483" lon="6.74408">
        <ele>1449.2</ele>
        <time>2022-07-19T15:10:43Z</time>
      </trkpt>
      <trkpt lat="44.51486" lon="6.74408">
        <ele>1449.2</ele>
        <time>2022-07-19T15:10:44Z</time>
      </trkpt>
      <trkpt lat="44.51488" lon="6.74408">
        <ele>1449.2</ele>
        <time>2022-07-19T15:10:45Z</time>
      </trkpt>
      <trkpt lat="44.51491" lon="6.74408">
        <ele>1449.4</ele>
        <time>2022-07-19T15:10:46Z</time>
      </trkpt>
      <trkpt lat="44.51493" lon="6.74407">
        <ele>1449.4</ele>
        <time>2022-07-19T15:10:47Z</time>
      </trkpt>
      <trkpt lat="44.51496" lon="6.74407">
        <ele>1449.8</ele>
        <time>2022-07-19T15:10:48Z</time>
      </trkpt>
      <trkpt lat="44.51498" lon="6.74407">
        <ele>1449.8</ele>
        <time>2022-07-19T15:10:49Z</time>
      </trkpt>
      <trkpt lat="44.51501" lon="6.74407">
        <ele>1449.8</ele>
        <time>2022-07-19T15:10:50Z</time>
      </trkpt>
      <trkpt lat="44.51504" lon="6.74406">
        <ele>1450</ele>
        <time>2022-07-19T15:10:51Z</time>
      </trkpt>
      <trkpt lat="44.51507" lon="6.74406">
        <ele>1450</ele>
        <time>2022-07-19T15:10:52Z</time>
      </trkpt>
      <trkpt lat="44.51509" lon="6.74406">
        <ele>1450</ele>
        <time>2022-07-19T15:10:53Z</time>
      </trkpt>
      <trkpt lat="44.51512" lon="6.74406">
        <ele>1450.2</ele>
        <time>2022-07-19T15:10:54Z</time>
      </trkpt>
      <trkpt lat="44.51515" lon="6.74406">
        <ele>1450.2</ele>
        <time>2022-07-19T15:10:55Z</time>
      </trkpt>
      <trkpt lat="44.51518" lon="6.74406">
        <ele>1450.6</ele>
        <time>2022-07-19T15:10:56Z</time>
      </trkpt>
      <trkpt lat="44.5152" lon="6.74405">
        <ele>1450.6</ele>
        <time>2022-07-19T15:10:57Z</time>
      </trkpt>
      <trkpt lat="44.51523" lon="6.74405">
        <ele>1450.6</ele>
        <time>2022-07-19T15:10:58Z</time>
      </trkpt>
      <trkpt lat="44.51526" lon="6.74405">
        <ele>1450.8</ele>
        <time>2022-07-19T15:10:59Z</time>
      </trkpt>
      <trkpt lat="44.51528" lon="6.74405">
        <ele>1451.2</ele>
        <time>2022-07-19T15:11:00Z</time>
      </trkpt>
      <trkpt lat="44.51531" lon="6.74405">
        <ele>1451.2</ele>
        <time>2022-07-19T15:11:01Z</time>
      </trkpt>
      <trkpt lat="44.51534" lon="6.74405">
        <ele>1451.4</ele>
        <time>2022-07-19T15:11:02Z</time>
      </trkpt>
      <trkpt lat="44.51537" lon="6.74406">
        <ele>1451.4</ele>
        <time>2022-07-19T15:11:03Z</time>
      </trkpt>
      <trkpt lat="44.5154" lon="6.74406">
        <ele>1451.6</ele>
        <time>2022-07-19T15:11:04Z</time>
      </trkpt>
      <trkpt lat="44.51542" lon="6.74407">
        <ele>1451.6</ele>
        <time>2022-07-19T15:11:05Z</time>
      </trkpt>
      <trkpt lat="44.51545" lon="6.74408">
        <ele>1451.6</ele>
        <time>2022-07-19T15:11:06Z</time>
      </trkpt>
      <trkpt lat="44.51548" lon="6.7441">
        <ele>1451.6</ele>
        <time>2022-07-19T15:11:07Z</time>
      </trkpt>
      <trkpt lat="44.51551" lon="6.74412">
        <ele>1451.6</ele>
        <time>2022-07-19T15:11:08Z</time>
      </trkpt>
      <trkpt lat="44.51554" lon="6.74414">
        <ele>1451.6</ele>
        <time>2022-07-19T15:11:09Z</time>
      </trkpt>
      <trkpt lat="44.51556" lon="6.74417">
        <ele>1451.8</ele>
        <time>2022-07-19T15:11:10Z</time>
      </trkpt>
      <trkpt lat="44.51558" lon="6.74421">
        <ele>1451.8</ele>
        <time>2022-07-19T15:11:11Z</time>
      </trkpt>
      <trkpt lat="44.5156" lon="6.74424">
        <ele>1451.8</ele>
        <time>2022-07-19T15:11:12Z</time>
      </trkpt>
      <trkpt lat="44.51562" lon="6.74428">
        <ele>1451.8</ele>
        <time>2022-07-19T15:11:13Z</time>
      </trkpt>
      <trkpt lat="44.51563" lon="6.74432">
        <ele>1452</ele>
        <time>2022-07-19T15:11:14Z</time>
      </trkpt>
      <trkpt lat="44.51565" lon="6.74436">
        <ele>1452</ele>
        <time>2022-07-19T15:11:15Z</time>
      </trkpt>
      <trkpt lat="44.51565" lon="6.74441">
        <ele>1452</ele>
        <time>2022-07-19T15:11:16Z</time>
      </trkpt>
      <trkpt lat="44.51565" lon="6.74445">
        <ele>1452.4</ele>
        <time>2022-07-19T15:11:17Z</time>
      </trkpt>
      <trkpt lat="44.51565" lon="6.7445">
        <ele>1452.4</ele>
        <time>2022-07-19T15:11:18Z</time>
      </trkpt>
      <trkpt lat="44.51564" lon="6.74455">
        <ele>1452.4</ele>
        <time>2022-07-19T15:11:19Z</time>
      </trkpt>
      <trkpt lat="44.51563" lon="6.74459">
        <ele>1452.4</ele>
        <time>2022-07-19T15:11:20Z</time>
      </trkpt>
      <trkpt lat="44.51562" lon="6.74463">
        <ele>1452.4</ele>
        <time>2022-07-19T15:11:21Z</time>
      </trkpt>
      <trkpt lat="44.51561" lon="6.74466">
        <ele>1452.6</ele>
        <time>2022-07-19T15:11:22Z</time>
      </trkpt>
      <trkpt lat="44.5156" lon="6.7447">
        <ele>1452.6</ele>
        <time>2022-07-19T15:11:23Z</time>
      </trkpt>
      <trkpt lat="44.51559" lon="6.74474">
        <ele>1452.8</ele>
        <time>2022-07-19T15:11:24Z</time>
      </trkpt>
      <trkpt lat="44.51558" lon="6.74477">
        <ele>1452.8</ele>
        <time>2022-07-19T15:11:25Z</time>
      </trkpt>
      <trkpt lat="44.51556" lon="6.74481">
        <ele>1453.2</ele>
        <time>2022-07-19T15:11:26Z</time>
      </trkpt>
      <trkpt lat="44.51555" lon="6.74485">
        <ele>1453.2</ele>
        <time>2022-07-19T15:11:27Z</time>
      </trkpt>
      <trkpt lat="44.51553" lon="6.74488">
        <ele>1453.2</ele>
        <time>2022-07-19T15:11:28Z</time>
      </trkpt>
      <trkpt lat="44.51551" lon="6.74493">
        <ele>1453.2</ele>
        <time>2022-07-19T15:11:29Z</time>
      </trkpt>
      <trkpt lat="44.5155" lon="6.74497">
        <ele>1453.2</ele>
        <time>2022-07-19T15:11:30Z</time>
      </trkpt>
      <trkpt lat="44.51548" lon="6.74501">
        <ele>1453.4</ele>
        <time>2022-07-19T15:11:31Z</time>
      </trkpt>
      <trkpt lat="44.51547" lon="6.74505">
        <ele>1453.4</ele>
        <time>2022-07-19T15:11:32Z</time>
      </trkpt>
      <trkpt lat="44.51546" lon="6.7451">
        <ele>1453.6</ele>
        <time>2022-07-19T15:11:33Z</time>
      </trkpt>
      <trkpt lat="44.51545" lon="6.74514">
        <ele>1453.6</ele>
        <time>2022-07-19T15:11:34Z</time>
      </trkpt>
      <trkpt lat="44.51544" lon="6.74518">
        <ele>1453.6</ele>
        <time>2022-07-19T15:11:35Z</time>
      </trkpt>
      <trkpt lat="44.51543" lon="6.74522">
        <ele>1453.8</ele>
        <time>2022-07-19T15:11:36Z</time>
      </trkpt>
      <trkpt lat="44.51542" lon="6.74526">
        <ele>1453.8</ele>
        <time>2022-07-19T15:11:37Z</time>
      </trkpt>
      <trkpt lat="44.51541" lon="6.7453">
        <ele>1453.8</ele>
        <time>2022-07-19T15:11:38Z</time>
      </trkpt>
      <trkpt lat="44.5154" lon="6.74535">
        <ele>1454.2</ele>
        <time>2022-07-19T15:11:39Z</time>
      </trkpt>
      <trkpt lat="44.51539" lon="6.74539">
        <ele>1454.2</ele>
        <time>2022-07-19T15:11:40Z</time>
      </trkpt>
      <trkpt lat="44.51538" lon="6.74543">
        <ele>1454.2</ele>
        <time>2022-07-19T15:11:41Z</time>
      </trkpt>
      <trkpt lat="44.51537" lon="6.74547">
        <ele>1454.2</ele>
        <time>2022-07-19T15:11:42Z</time>
      </trkpt>
      <trkpt lat="44.51536" lon="6.74551">
        <ele>1454.2</ele>
        <time>2022-07-19T15:11:43Z</time>
      </trkpt>
      <trkpt lat="44.51534" lon="6.74556">
        <ele>1454.2</ele>
        <time>2022-07-19T15:11:44Z</time>
      </trkpt>
      <trkpt lat="44.51533" lon="6.7456">
        <ele>1454.2</ele>
        <time>2022-07-19T15:11:45Z</time>
      </trkpt>
      <trkpt lat="44.51531" lon="6.74565">
        <ele>1454.2</ele>
        <time>2022-07-19T15:11:46Z</time>
      </trkpt>
      <trkpt lat="44.51529" lon="6.74569">
        <ele>1454.2</ele>
        <time>2022-07-19T15:11:47Z</time>
      </trkpt>
      <trkpt lat="44.51528" lon="6.74574">
        <ele>1454.4</ele>
        <time>2022-07-19T15:11:48Z</time>
      </trkpt>
      <trkpt lat="44.51526" lon="6.74579">
        <ele>1454.4</ele>
        <time>2022-07-19T15:11:49Z</time>
      </trkpt>
      <trkpt lat="44.51524" lon="6.74583">
        <ele>1454.4</ele>
        <time>2022-07-19T15:11:50Z</time>
      </trkpt>
      <trkpt lat="44.51522" lon="6.74587">
        <ele>1454.4</ele>
        <time>2022-07-19T15:11:51Z</time>
      </trkpt>
      <trkpt lat="44.5152" lon="6.74591">
        <ele>1454.4</ele>
        <time>2022-07-19T15:11:52Z</time>
      </trkpt>
      <trkpt lat="44.51518" lon="6.74595">
        <ele>1454.8</ele>
        <time>2022-07-19T15:11:53Z</time>
      </trkpt>
      <trkpt lat="44.51516" lon="6.74599">
        <ele>1454.8</ele>
        <time>2022-07-19T15:11:54Z</time>
      </trkpt>
      <trkpt lat="44.51513" lon="6.74603">
        <ele>1454.8</ele>
        <time>2022-07-19T15:11:55Z</time>
      </trkpt>
      <trkpt lat="44.51511" lon="6.74606">
        <ele>1455</ele>
        <time>2022-07-19T15:11:56Z</time>
      </trkpt>
      <trkpt lat="44.51509" lon="6.7461">
        <ele>1455</ele>
        <time>2022-07-19T15:11:57Z</time>
      </trkpt>
      <trkpt lat="44.51507" lon="6.74614">
        <ele>1455</ele>
        <time>2022-07-19T15:11:58Z</time>
      </trkpt>
      <trkpt lat="44.51505" lon="6.74617">
        <ele>1455</ele>
        <time>2022-07-19T15:11:59Z</time>
      </trkpt>
      <trkpt lat="44.51502" lon="6.74621">
        <ele>1455.2</ele>
        <time>2022-07-19T15:12:00Z</time>
      </trkpt>
      <trkpt lat="44.515" lon="6.74625">
        <ele>1455.2</ele>
        <time>2022-07-19T15:12:01Z</time>
      </trkpt>
      <trkpt lat="44.51498" lon="6.74629">
        <ele>1455.2</ele>
        <time>2022-07-19T15:12:02Z</time>
      </trkpt>
      <trkpt lat="44.51496" lon="6.74632">
        <ele>1455.2</ele>
        <time>2022-07-19T15:12:03Z</time>
      </trkpt>
      <trkpt lat="44.51493" lon="6.74636">
        <ele>1455.2</ele>
        <time>2022-07-19T15:12:04Z</time>
      </trkpt>
      <trkpt lat="44.51491" lon="6.7464">
        <ele>1455.2</ele>
        <time>2022-07-19T15:12:05Z</time>
      </trkpt>
      <trkpt lat="44.51489" lon="6.74645">
        <ele>1455.2</ele>
        <time>2022-07-19T15:12:06Z</time>
      </trkpt>
      <trkpt lat="44.51486" lon="6.74649">
        <ele>1455.4</ele>
        <time>2022-07-19T15:12:07Z</time>
      </trkpt>
      <trkpt lat="44.51484" lon="6.74654">
        <ele>1455.4</ele>
        <time>2022-07-19T15:12:08Z</time>
      </trkpt>
      <trkpt lat="44.51482" lon="6.74658">
        <ele>1455.4</ele>
        <time>2022-07-19T15:12:09Z</time>
      </trkpt>
      <trkpt lat="44.51481" lon="6.74663">
        <ele>1455.6</ele>
        <time>2022-07-19T15:12:10Z</time>
      </trkpt>
      <trkpt lat="44.51479" lon="6.74668">
        <ele>1455.6</ele>
        <time>2022-07-19T15:12:11Z</time>
      </trkpt>
      <trkpt lat="44.51477" lon="6.74673">
        <ele>1455.6</ele>
        <time>2022-07-19T15:12:12Z</time>
      </trkpt>
      <trkpt lat="44.51476" lon="6.74678">
        <ele>1455.6</ele>
        <time>2022-07-19T15:12:13Z</time>
      </trkpt>
      <trkpt lat="44.51475" lon="6.74684">
        <ele>1455.6</ele>
        <time>2022-07-19T15:12:14Z</time>
      </trkpt>
      <trkpt lat="44.51474" lon="6.7469">
        <ele>1455.6</ele>
        <time>2022-07-19T15:12:15Z</time>
      </trkpt>
      <trkpt lat="44.51473" lon="6.74696">
        <ele>1455.6</ele>
        <time>2022-07-19T15:12:16Z</time>
      </trkpt>
      <trkpt lat="44.51472" lon="6.74702">
        <ele>1455.4</ele>
        <time>2022-07-19T15:12:17Z</time>
      </trkpt>
      <trkpt lat="44.51472" lon="6.74709">
        <ele>1455.4</ele>
        <time>2022-07-19T15:12:18Z</time>
      </trkpt>
      <trkpt lat="44.51471" lon="6.74716">
        <ele>1455.4</ele>
        <time>2022-07-19T15:12:19Z</time>
      </trkpt>
      <trkpt lat="44.5147" lon="6.74722">
        <ele>1455.4</ele>
        <time>2022-07-19T15:12:20Z</time>
      </trkpt>
      <trkpt lat="44.5147" lon="6.74729">
        <ele>1455.4</ele>
        <time>2022-07-19T15:12:21Z</time>
      </trkpt>
      <trkpt lat="44.51469" lon="6.74736">
        <ele>1455.8</ele>
        <time>2022-07-19T15:12:22Z</time>
      </trkpt>
      <trkpt lat="44.51468" lon="6.74742">
        <ele>1455.8</ele>
        <time>2022-07-19T15:12:23Z</time>
      </trkpt>
      <trkpt lat="44.51468" lon="6.74749">
        <ele>1455.8</ele>
        <time>2022-07-19T15:12:24Z</time>
      </trkpt>
      <trkpt lat="44.51467" lon="6.74755">
        <ele>1456</ele>
        <time>2022-07-19T15:12:25Z</time>
      </trkpt>
      <trkpt lat="44.51467" lon="6.74761">
        <ele>1456</ele>
        <time>2022-07-19T15:12:26Z</time>
      </trkpt>
      <trkpt lat="44.51466" lon="6.74767">
        <ele>1456</ele>
        <time>2022-07-19T15:12:27Z</time>
      </trkpt>
      <trkpt lat="44.51466" lon="6.74772">
        <ele>1456.2</ele>
        <time>2022-07-19T15:12:28Z</time>
      </trkpt>
      <trkpt lat="44.51465" lon="6.74778">
        <ele>1456.2</ele>
        <time>2022-07-19T15:12:29Z</time>
      </trkpt>
      <trkpt lat="44.51465" lon="6.74783">
        <ele>1456.2</ele>
        <time>2022-07-19T15:12:30Z</time>
      </trkpt>
      <trkpt lat="44.51464" lon="6.74788">
        <ele>1456.2</ele>
        <time>2022-07-19T15:12:31Z</time>
      </trkpt>
      <trkpt lat="44.51464" lon="6.74794">
        <ele>1456.2</ele>
        <time>2022-07-19T15:12:32Z</time>
      </trkpt>
      <trkpt lat="44.51463" lon="6.74799">
        <ele>1456.6</ele>
        <time>2022-07-19T15:12:33Z</time>
      </trkpt>
      <trkpt lat="44.51462" lon="6.74805">
        <ele>1456.6</ele>
        <time>2022-07-19T15:12:34Z</time>
      </trkpt>
      <trkpt lat="44.51461" lon="6.7481">
        <ele>1456.6</ele>
        <time>2022-07-19T15:12:35Z</time>
      </trkpt>
      <trkpt lat="44.51461" lon="6.74816">
        <ele>1456.6</ele>
        <time>2022-07-19T15:12:36Z</time>
      </trkpt>
      <trkpt lat="44.5146" lon="6.74822">
        <ele>1456.8</ele>
        <time>2022-07-19T15:12:37Z</time>
      </trkpt>
      <trkpt lat="44.5146" lon="6.74828">
        <ele>1456.8</ele>
        <time>2022-07-19T15:12:38Z</time>
      </trkpt>
      <trkpt lat="44.5146" lon="6.74834">
        <ele>1456.8</ele>
        <time>2022-07-19T15:12:39Z</time>
      </trkpt>
      <trkpt lat="44.5146" lon="6.74841">
        <ele>1456.8</ele>
        <time>2022-07-19T15:12:40Z</time>
      </trkpt>
      <trkpt lat="44.51459" lon="6.74847">
        <ele>1456.8</ele>
        <time>2022-07-19T15:12:41Z</time>
      </trkpt>
      <trkpt lat="44.51459" lon="6.74853">
        <ele>1457</ele>
        <time>2022-07-19T15:12:42Z</time>
      </trkpt>
      <trkpt lat="44.5146" lon="6.74858">
        <ele>1457</ele>
        <time>2022-07-19T15:12:43Z</time>
      </trkpt>
      <trkpt lat="44.5146" lon="6.74864">
        <ele>1457.2</ele>
        <time>2022-07-19T15:12:44Z</time>
      </trkpt>
      <trkpt lat="44.51461" lon="6.74869">
        <ele>1457.2</ele>
        <time>2022-07-19T15:12:45Z</time>
      </trkpt>
      <trkpt lat="44.51462" lon="6.74874">
        <ele>1457.6</ele>
        <time>2022-07-19T15:12:46Z</time>
      </trkpt>
      <trkpt lat="44.51463" lon="6.74878">
        <ele>1457.6</ele>
        <time>2022-07-19T15:12:47Z</time>
      </trkpt>
      <trkpt lat="44.51465" lon="6.74883">
        <ele>1457.8</ele>
        <time>2022-07-19T15:12:48Z</time>
      </trkpt>
      <trkpt lat="44.51466" lon="6.74887">
        <ele>1457.8</ele>
        <time>2022-07-19T15:12:49Z</time>
      </trkpt>
      <trkpt lat="44.51467" lon="6.74891">
        <ele>1458.2</ele>
        <time>2022-07-19T15:12:50Z</time>
      </trkpt>
      <trkpt lat="44.51468" lon="6.74895">
        <ele>1458.2</ele>
        <time>2022-07-19T15:12:51Z</time>
      </trkpt>
      <trkpt lat="44.51469" lon="6.74899">
        <ele>1458.4</ele>
        <time>2022-07-19T15:12:52Z</time>
      </trkpt>
      <trkpt lat="44.51471" lon="6.74903">
        <ele>1458.4</ele>
        <time>2022-07-19T15:12:53Z</time>
      </trkpt>
      <trkpt lat="44.51472" lon="6.74907">
        <ele>1458.8</ele>
        <time>2022-07-19T15:12:54Z</time>
      </trkpt>
      <trkpt lat="44.51474" lon="6.74911">
        <ele>1459</ele>
        <time>2022-07-19T15:12:55Z</time>
      </trkpt>
      <trkpt lat="44.51475" lon="6.74914">
        <ele>1459</ele>
        <time>2022-07-19T15:12:56Z</time>
      </trkpt>
      <trkpt lat="44.51477" lon="6.74917">
        <ele>1459.4</ele>
        <time>2022-07-19T15:12:57Z</time>
      </trkpt>
      <trkpt lat="44.51478" lon="6.7492">
        <ele>1459.4</ele>
        <time>2022-07-19T15:12:58Z</time>
      </trkpt>
      <trkpt lat="44.5148" lon="6.74924">
        <ele>1459.6</ele>
        <time>2022-07-19T15:12:59Z</time>
      </trkpt>
      <trkpt lat="44.51481" lon="6.74927">
        <ele>1459.6</ele>
        <time>2022-07-19T15:13:00Z</time>
      </trkpt>
      <trkpt lat="44.51482" lon="6.7493">
        <ele>1460</ele>
        <time>2022-07-19T15:13:01Z</time>
      </trkpt>
      <trkpt lat="44.51483" lon="6.74933">
        <ele>1460.2</ele>
        <time>2022-07-19T15:13:02Z</time>
      </trkpt>
      <trkpt lat="44.51485" lon="6.74936">
        <ele>1460.2</ele>
        <time>2022-07-19T15:13:03Z</time>
      </trkpt>
      <trkpt lat="44.51486" lon="6.74939">
        <ele>1460.6</ele>
        <time>2022-07-19T15:13:04Z</time>
      </trkpt>
      <trkpt lat="44.51488" lon="6.74941">
        <ele>1460.6</ele>
        <time>2022-07-19T15:13:05Z</time>
      </trkpt>
      <trkpt lat="44.51489" lon="6.74944">
        <ele>1461</ele>
        <time>2022-07-19T15:13:06Z</time>
      </trkpt>
      <trkpt lat="44.51491" lon="6.74947">
        <ele>1461.2</ele>
        <time>2022-07-19T15:13:07Z</time>
      </trkpt>
      <trkpt lat="44.51492" lon="6.7495">
        <ele>1461.2</ele>
        <time>2022-07-19T15:13:08Z</time>
      </trkpt>
      <trkpt lat="44.51493" lon="6.74953">
        <ele>1461.6</ele>
        <time>2022-07-19T15:13:09Z</time>
      </trkpt>
      <trkpt lat="44.51494" lon="6.74956">
        <ele>1461.6</ele>
        <time>2022-07-19T15:13:10Z</time>
      </trkpt>
      <trkpt lat="44.51495" lon="6.74959">
        <ele>1462</ele>
        <time>2022-07-19T15:13:11Z</time>
      </trkpt>
      <trkpt lat="44.51496" lon="6.74962">
        <ele>1462</ele>
        <time>2022-07-19T15:13:12Z</time>
      </trkpt>
      <trkpt lat="44.51498" lon="6.74965">
        <ele>1462.4</ele>
        <time>2022-07-19T15:13:13Z</time>
      </trkpt>
      <trkpt lat="44.51499" lon="6.74968">
        <ele>1462.4</ele>
        <time>2022-07-19T15:13:14Z</time>
      </trkpt>
      <trkpt lat="44.51501" lon="6.7497">
        <ele>1462.8</ele>
        <time>2022-07-19T15:13:15Z</time>
      </trkpt>
      <trkpt lat="44.51502" lon="6.74973">
        <ele>1462.8</ele>
        <time>2022-07-19T15:13:16Z</time>
      </trkpt>
      <trkpt lat="44.51504" lon="6.74975">
        <ele>1463.2</ele>
        <time>2022-07-19T15:13:17Z</time>
      </trkpt>
      <trkpt lat="44.51506" lon="6.74978">
        <ele>1463.2</ele>
        <time>2022-07-19T15:13:18Z</time>
      </trkpt>
      <trkpt lat="44.51507" lon="6.7498">
        <ele>1463.6</ele>
        <time>2022-07-19T15:13:19Z</time>
      </trkpt>
      <trkpt lat="44.51508" lon="6.74983">
        <ele>1464</ele>
        <time>2022-07-19T15:13:20Z</time>
      </trkpt>
      <trkpt lat="44.5151" lon="6.74986">
        <ele>1464.2</ele>
        <time>2022-07-19T15:13:21Z</time>
      </trkpt>
      <trkpt lat="44.51511" lon="6.74989">
        <ele>1464.4</ele>
        <time>2022-07-19T15:13:22Z</time>
      </trkpt>
      <trkpt lat="44.51513" lon="6.74992">
        <ele>1464.4</ele>
        <time>2022-07-19T15:13:23Z</time>
      </trkpt>
      <trkpt lat="44.51514" lon="6.74995">
        <ele>1464.8</ele>
        <time>2022-07-19T15:13:24Z</time>
      </trkpt>
      <trkpt lat="44.51515" lon="6.74998">
        <ele>1465</ele>
        <time>2022-07-19T15:13:25Z</time>
      </trkpt>
      <trkpt lat="44.51517" lon="6.75001">
        <ele>1465.4</ele>
        <time>2022-07-19T15:13:26Z</time>
      </trkpt>
      <trkpt lat="44.51519" lon="6.75004">
        <ele>1465.4</ele>
        <time>2022-07-19T15:13:27Z</time>
      </trkpt>
      <trkpt lat="44.5152" lon="6.75006">
        <ele>1465.6</ele>
        <time>2022-07-19T15:13:28Z</time>
      </trkpt>
      <trkpt lat="44.51522" lon="6.75009">
        <ele>1466</ele>
        <time>2022-07-19T15:13:29Z</time>
      </trkpt>
      <trkpt lat="44.51523" lon="6.75012">
        <ele>1466.2</ele>
        <time>2022-07-19T15:13:30Z</time>
      </trkpt>
      <trkpt lat="44.51525" lon="6.75014">
        <ele>1466.2</ele>
        <time>2022-07-19T15:13:31Z</time>
      </trkpt>
      <trkpt lat="44.51526" lon="6.75017">
        <ele>1466.4</ele>
        <time>2022-07-19T15:13:32Z</time>
      </trkpt>
      <trkpt lat="44.51528" lon="6.75019">
        <ele>1466.8</ele>
        <time>2022-07-19T15:13:33Z</time>
      </trkpt>
      <trkpt lat="44.51529" lon="6.75021">
        <ele>1467</ele>
        <time>2022-07-19T15:13:34Z</time>
      </trkpt>
      <trkpt lat="44.51531" lon="6.75023">
        <ele>1467.2</ele>
        <time>2022-07-19T15:13:35Z</time>
      </trkpt>
      <trkpt lat="44.51533" lon="6.75025">
        <ele>1467.2</ele>
        <time>2022-07-19T15:13:36Z</time>
      </trkpt>
      <trkpt lat="44.51534" lon="6.75028">
        <ele>1467.6</ele>
        <time>2022-07-19T15:13:37Z</time>
      </trkpt>
      <trkpt lat="44.51536" lon="6.7503">
        <ele>1467.6</ele>
        <time>2022-07-19T15:13:38Z</time>
      </trkpt>
      <trkpt lat="44.51538" lon="6.75032">
        <ele>1467.8</ele>
        <time>2022-07-19T15:13:39Z</time>
      </trkpt>
      <trkpt lat="44.5154" lon="6.75034">
        <ele>1467.8</ele>
        <time>2022-07-19T15:13:40Z</time>
      </trkpt>
      <trkpt lat="44.51542" lon="6.75036">
        <ele>1468.2</ele>
        <time>2022-07-19T15:13:41Z</time>
      </trkpt>
      <trkpt lat="44.51543" lon="6.75038">
        <ele>1468.2</ele>
        <time>2022-07-19T15:13:42Z</time>
      </trkpt>
      <trkpt lat="44.51545" lon="6.7504">
        <ele>1468.6</ele>
        <time>2022-07-19T15:13:43Z</time>
      </trkpt>
      <trkpt lat="44.51547" lon="6.75042">
        <ele>1468.6</ele>
        <time>2022-07-19T15:13:44Z</time>
      </trkpt>
      <trkpt lat="44.51549" lon="6.75043">
        <ele>1468.8</ele>
        <time>2022-07-19T15:13:45Z</time>
      </trkpt>
      <trkpt lat="44.51551" lon="6.75045">
        <ele>1468.8</ele>
        <time>2022-07-19T15:13:46Z</time>
      </trkpt>
      <trkpt lat="44.51552" lon="6.75046">
        <ele>1469.2</ele>
        <time>2022-07-19T15:13:47Z</time>
      </trkpt>
      <trkpt lat="44.51554" lon="6.75048">
        <ele>1469.2</ele>
        <time>2022-07-19T15:13:48Z</time>
      </trkpt>
      <trkpt lat="44.51556" lon="6.7505">
        <ele>1469.6</ele>
        <time>2022-07-19T15:13:49Z</time>
      </trkpt>
      <trkpt lat="44.51557" lon="6.75052">
        <ele>1469.6</ele>
        <time>2022-07-19T15:13:50Z</time>
      </trkpt>
      <trkpt lat="44.51559" lon="6.75054">
        <ele>1470</ele>
        <time>2022-07-19T15:13:51Z</time>
      </trkpt>
      <trkpt lat="44.5156" lon="6.75056">
        <ele>1470.2</ele>
        <time>2022-07-19T15:13:52Z</time>
      </trkpt>
      <trkpt lat="44.51562" lon="6.75057">
        <ele>1470.2</ele>
        <time>2022-07-19T15:13:53Z</time>
      </trkpt>
      <trkpt lat="44.51564" lon="6.75058">
        <ele>1470.4</ele>
        <time>2022-07-19T15:13:54Z</time>
      </trkpt>
      <trkpt lat="44.51565" lon="6.7506">
        <ele>1470.4</ele>
        <time>2022-07-19T15:13:55Z</time>
      </trkpt>
      <trkpt lat="44.51567" lon="6.75061">
        <ele>1470.8</ele>
        <time>2022-07-19T15:13:56Z</time>
      </trkpt>
      <trkpt lat="44.51569" lon="6.75063">
        <ele>1470.8</ele>
        <time>2022-07-19T15:13:57Z</time>
      </trkpt>
      <trkpt lat="44.51571" lon="6.75064">
        <ele>1471</ele>
        <time>2022-07-19T15:13:58Z</time>
      </trkpt>
      <trkpt lat="44.51573" lon="6.75066">
        <ele>1471</ele>
        <time>2022-07-19T15:13:59Z</time>
      </trkpt>
      <trkpt lat="44.51574" lon="6.75067">
        <ele>1471.4</ele>
        <time>2022-07-19T15:14:00Z</time>
      </trkpt>
      <trkpt lat="44.51576" lon="6.75068">
        <ele>1471.6</ele>
        <time>2022-07-19T15:14:01Z</time>
      </trkpt>
      <trkpt lat="44.51578" lon="6.7507">
        <ele>1471.6</ele>
        <time>2022-07-19T15:14:02Z</time>
      </trkpt>
      <trkpt lat="44.5158" lon="6.75071">
        <ele>1472</ele>
        <time>2022-07-19T15:14:03Z</time>
      </trkpt>
      <trkpt lat="44.51582" lon="6.75072">
        <ele>1472.2</ele>
        <time>2022-07-19T15:14:04Z</time>
      </trkpt>
      <trkpt lat="44.51584" lon="6.75073">
        <ele>1472.2</ele>
        <time>2022-07-19T15:14:05Z</time>
      </trkpt>
      <trkpt lat="44.51585" lon="6.75074">
        <ele>1472.6</ele>
        <time>2022-07-19T15:14:06Z</time>
      </trkpt>
      <trkpt lat="44.51587" lon="6.75075">
        <ele>1472.6</ele>
        <time>2022-07-19T15:14:07Z</time>
      </trkpt>
      <trkpt lat="44.51589" lon="6.75076">
        <ele>1472.8</ele>
        <time>2022-07-19T15:14:08Z</time>
      </trkpt>
      <trkpt lat="44.51591" lon="6.75077">
        <ele>1472.8</ele>
        <time>2022-07-19T15:14:09Z</time>
      </trkpt>
      <trkpt lat="44.51593" lon="6.75079">
        <ele>1473.2</ele>
        <time>2022-07-19T15:14:10Z</time>
      </trkpt>
      <trkpt lat="44.51596" lon="6.7508">
        <ele>1473.4</ele>
        <time>2022-07-19T15:14:11Z</time>
      </trkpt>
      <trkpt lat="44.51598" lon="6.75081">
        <ele>1473.6</ele>
        <time>2022-07-19T15:14:12Z</time>
      </trkpt>
      <trkpt lat="44.516" lon="6.75082">
        <ele>1473.8</ele>
        <time>2022-07-19T15:14:13Z</time>
      </trkpt>
      <trkpt lat="44.51602" lon="6.75083">
        <ele>1473.8</ele>
        <time>2022-07-19T15:14:14Z</time>
      </trkpt>
      <trkpt lat="44.51605" lon="6.75084">
        <ele>1474.4</ele>
        <time>2022-07-19T15:14:15Z</time>
      </trkpt>
      <trkpt lat="44.51607" lon="6.75084">
        <ele>1474.4</ele>
        <time>2022-07-19T15:14:16Z</time>
      </trkpt>
      <trkpt lat="44.51609" lon="6.75085">
        <ele>1474.6</ele>
        <time>2022-07-19T15:14:17Z</time>
      </trkpt>
      <trkpt lat="44.51612" lon="6.75086">
        <ele>1474.6</ele>
        <time>2022-07-19T15:14:18Z</time>
      </trkpt>
      <trkpt lat="44.51614" lon="6.75087">
        <ele>1475</ele>
        <time>2022-07-19T15:14:19Z</time>
      </trkpt>
      <trkpt lat="44.51616" lon="6.75087">
        <ele>1475.2</ele>
        <time>2022-07-19T15:14:20Z</time>
      </trkpt>
      <trkpt lat="44.51618" lon="6.75088">
        <ele>1475.2</ele>
        <time>2022-07-19T15:14:21Z</time>
      </trkpt>
      <trkpt lat="44.51621" lon="6.75088">
        <ele>1475.4</ele>
        <time>2022-07-19T15:14:22Z</time>
      </trkpt>
      <trkpt lat="44.51623" lon="6.75089">
        <ele>1475.6</ele>
        <time>2022-07-19T15:14:23Z</time>
      </trkpt>
      <trkpt lat="44.51625" lon="6.75089">
        <ele>1475.6</ele>
        <time>2022-07-19T15:14:24Z</time>
      </trkpt>
      <trkpt lat="44.51628" lon="6.7509">
        <ele>1476</ele>
        <time>2022-07-19T15:14:25Z</time>
      </trkpt>
      <trkpt lat="44.5163" lon="6.75091">
        <ele>1476</ele>
        <time>2022-07-19T15:14:26Z</time>
      </trkpt>
      <trkpt lat="44.51633" lon="6.75092">
        <ele>1476.2</ele>
        <time>2022-07-19T15:14:27Z</time>
      </trkpt>
      <trkpt lat="44.51635" lon="6.75092">
        <ele>1476.2</ele>
        <time>2022-07-19T15:14:28Z</time>
      </trkpt>
      <trkpt lat="44.51637" lon="6.75093">
        <ele>1476.6</ele>
        <time>2022-07-19T15:14:29Z</time>
      </trkpt>
      <trkpt lat="44.5164" lon="6.75093">
        <ele>1476.8</ele>
        <time>2022-07-19T15:14:30Z</time>
      </trkpt>
      <trkpt lat="44.51642" lon="6.75094">
        <ele>1476.8</ele>
        <time>2022-07-19T15:14:31Z</time>
      </trkpt>
      <trkpt lat="44.51644" lon="6.75094">
        <ele>1477.2</ele>
        <time>2022-07-19T15:14:32Z</time>
      </trkpt>
      <trkpt lat="44.51646" lon="6.75094">
        <ele>1477.2</ele>
        <time>2022-07-19T15:14:33Z</time>
      </trkpt>
      <trkpt lat="44.51648" lon="6.75095">
        <ele>1477.6</ele>
        <time>2022-07-19T15:14:34Z</time>
      </trkpt>
      <trkpt lat="44.5165" lon="6.75095">
        <ele>1477.8</ele>
        <time>2022-07-19T15:14:35Z</time>
      </trkpt>
      <trkpt lat="44.51652" lon="6.75096">
        <ele>1478</ele>
        <time>2022-07-19T15:14:36Z</time>
      </trkpt>
      <trkpt lat="44.51654" lon="6.75096">
        <ele>1478</ele>
        <time>2022-07-19T15:14:37Z</time>
      </trkpt>
      <trkpt lat="44.51659" lon="6.75096">
        <ele>1478.2</ele>
        <time>2022-07-19T15:14:38Z</time>
      </trkpt>
      <trkpt lat="44.51661" lon="6.75097">
        <ele>1478.2</ele>
        <time>2022-07-19T15:14:39Z</time>
      </trkpt>
      <trkpt lat="44.51663" lon="6.75097">
        <ele>1478.4</ele>
        <time>2022-07-19T15:14:40Z</time>
      </trkpt>
      <trkpt lat="44.51665" lon="6.75098">
        <ele>1478.4</ele>
        <time>2022-07-19T15:14:41Z</time>
      </trkpt>
      <trkpt lat="44.51667" lon="6.75099">
        <ele>1478.8</ele>
        <time>2022-07-19T15:14:42Z</time>
      </trkpt>
      <trkpt lat="44.51669" lon="6.75099">
        <ele>1478.8</ele>
        <time>2022-07-19T15:14:43Z</time>
      </trkpt>
      <trkpt lat="44.51672" lon="6.751">
        <ele>1479</ele>
        <time>2022-07-19T15:14:44Z</time>
      </trkpt>
      <trkpt lat="44.51674" lon="6.751">
        <ele>1479</ele>
        <time>2022-07-19T15:14:45Z</time>
      </trkpt>
      <trkpt lat="44.51676" lon="6.75101">
        <ele>1479.4</ele>
        <time>2022-07-19T15:14:46Z</time>
      </trkpt>
      <trkpt lat="44.51678" lon="6.75101">
        <ele>1479.4</ele>
        <time>2022-07-19T15:14:47Z</time>
      </trkpt>
      <trkpt lat="44.51681" lon="6.75101">
        <ele>1479.6</ele>
        <time>2022-07-19T15:14:48Z</time>
      </trkpt>
      <trkpt lat="44.51683" lon="6.75102">
        <ele>1479.6</ele>
        <time>2022-07-19T15:14:49Z</time>
      </trkpt>
      <trkpt lat="44.51685" lon="6.75103">
        <ele>1479.6</ele>
        <time>2022-07-19T15:14:50Z</time>
      </trkpt>
      <trkpt lat="44.51687" lon="6.75104">
        <ele>1480</ele>
        <time>2022-07-19T15:14:51Z</time>
      </trkpt>
      <trkpt lat="44.51689" lon="6.75105">
        <ele>1480</ele>
        <time>2022-07-19T15:14:52Z</time>
      </trkpt>
      <trkpt lat="44.51691" lon="6.75105">
        <ele>1480.2</ele>
        <time>2022-07-19T15:14:53Z</time>
      </trkpt>
      <trkpt lat="44.51693" lon="6.75105">
        <ele>1480.2</ele>
        <time>2022-07-19T15:14:54Z</time>
      </trkpt>
      <trkpt lat="44.51695" lon="6.75105">
        <ele>1480.6</ele>
        <time>2022-07-19T15:14:55Z</time>
      </trkpt>
      <trkpt lat="44.51697" lon="6.75106">
        <ele>1480.6</ele>
        <time>2022-07-19T15:14:56Z</time>
      </trkpt>
      <trkpt lat="44.51699" lon="6.75106">
        <ele>1481</ele>
        <time>2022-07-19T15:14:57Z</time>
      </trkpt>
      <trkpt lat="44.51701" lon="6.75107">
        <ele>1481</ele>
        <time>2022-07-19T15:14:58Z</time>
      </trkpt>
      <trkpt lat="44.51703" lon="6.75108">
        <ele>1481.2</ele>
        <time>2022-07-19T15:14:59Z</time>
      </trkpt>
      <trkpt lat="44.51705" lon="6.75109">
        <ele>1481.2</ele>
        <time>2022-07-19T15:15:00Z</time>
      </trkpt>
      <trkpt lat="44.51707" lon="6.7511">
        <ele>1481.4</ele>
        <time>2022-07-19T15:15:01Z</time>
      </trkpt>
      <trkpt lat="44.51709" lon="6.75111">
        <ele>1481.4</ele>
        <time>2022-07-19T15:15:02Z</time>
      </trkpt>
      <trkpt lat="44.51711" lon="6.75112">
        <ele>1481.6</ele>
        <time>2022-07-19T15:15:03Z</time>
      </trkpt>
      <trkpt lat="44.51714" lon="6.75114">
        <ele>1481.6</ele>
        <time>2022-07-19T15:15:04Z</time>
      </trkpt>
      <trkpt lat="44.51716" lon="6.75115">
        <ele>1482</ele>
        <time>2022-07-19T15:15:05Z</time>
      </trkpt>
      <trkpt lat="44.51719" lon="6.75116">
        <ele>1482</ele>
        <time>2022-07-19T15:15:06Z</time>
      </trkpt>
      <trkpt lat="44.51721" lon="6.75117">
        <ele>1482.4</ele>
        <time>2022-07-19T15:15:07Z</time>
      </trkpt>
      <trkpt lat="44.51723" lon="6.75118">
        <ele>1482.6</ele>
        <time>2022-07-19T15:15:08Z</time>
      </trkpt>
      <trkpt lat="44.51725" lon="6.7512">
        <ele>1482.8</ele>
        <time>2022-07-19T15:15:09Z</time>
      </trkpt>
      <trkpt lat="44.51727" lon="6.75122">
        <ele>1483</ele>
        <time>2022-07-19T15:15:10Z</time>
      </trkpt>
      <trkpt lat="44.51729" lon="6.75124">
        <ele>1483</ele>
        <time>2022-07-19T15:15:11Z</time>
      </trkpt>
      <trkpt lat="44.51731" lon="6.75126">
        <ele>1483.2</ele>
        <time>2022-07-19T15:15:12Z</time>
      </trkpt>
      <trkpt lat="44.51734" lon="6.75128">
        <ele>1483.2</ele>
        <time>2022-07-19T15:15:13Z</time>
      </trkpt>
      <trkpt lat="44.51736" lon="6.7513">
        <ele>1483.6</ele>
        <time>2022-07-19T15:15:14Z</time>
      </trkpt>
      <trkpt lat="44.51738" lon="6.75132">
        <ele>1483.6</ele>
        <time>2022-07-19T15:15:15Z</time>
      </trkpt>
      <trkpt lat="44.5174" lon="6.75135">
        <ele>1484</ele>
        <time>2022-07-19T15:15:16Z</time>
      </trkpt>
      <trkpt lat="44.51741" lon="6.75137">
        <ele>1484</ele>
        <time>2022-07-19T15:15:17Z</time>
      </trkpt>
      <trkpt lat="44.51743" lon="6.75139">
        <ele>1484.2</ele>
        <time>2022-07-19T15:15:18Z</time>
      </trkpt>
      <trkpt lat="44.51744" lon="6.75142">
        <ele>1484.2</ele>
        <time>2022-07-19T15:15:19Z</time>
      </trkpt>
      <trkpt lat="44.51746" lon="6.75145">
        <ele>1484.6</ele>
        <time>2022-07-19T15:15:20Z</time>
      </trkpt>
      <trkpt lat="44.51747" lon="6.75148">
        <ele>1484.8</ele>
        <time>2022-07-19T15:15:21Z</time>
      </trkpt>
      <trkpt lat="44.51748" lon="6.75151">
        <ele>1484.8</ele>
        <time>2022-07-19T15:15:22Z</time>
      </trkpt>
      <trkpt lat="44.51749" lon="6.75154">
        <ele>1485</ele>
        <time>2022-07-19T15:15:23Z</time>
      </trkpt>
      <trkpt lat="44.5175" lon="6.75157">
        <ele>1485</ele>
        <time>2022-07-19T15:15:24Z</time>
      </trkpt>
      <trkpt lat="44.51751" lon="6.7516">
        <ele>1485.4</ele>
        <time>2022-07-19T15:15:25Z</time>
      </trkpt>
      <trkpt lat="44.51752" lon="6.75163">
        <ele>1485.6</ele>
        <time>2022-07-19T15:15:26Z</time>
      </trkpt>
      <trkpt lat="44.51753" lon="6.75166">
        <ele>1485.8</ele>
        <time>2022-07-19T15:15:27Z</time>
      </trkpt>
      <trkpt lat="44.51755" lon="6.75169">
        <ele>1486</ele>
        <time>2022-07-19T15:15:28Z</time>
      </trkpt>
      <trkpt lat="44.51755" lon="6.75171">
        <ele>1486.4</ele>
        <time>2022-07-19T15:15:29Z</time>
      </trkpt>
      <trkpt lat="44.51756" lon="6.75174">
        <ele>1486.6</ele>
        <time>2022-07-19T15:15:30Z</time>
      </trkpt>
      <trkpt lat="44.51757" lon="6.75177">
        <ele>1486.6</ele>
        <time>2022-07-19T15:15:31Z</time>
      </trkpt>
      <trkpt lat="44.51758" lon="6.7518">
        <ele>1486.8</ele>
        <time>2022-07-19T15:15:32Z</time>
      </trkpt>
      <trkpt lat="44.51759" lon="6.75183">
        <ele>1486.8</ele>
        <time>2022-07-19T15:15:33Z</time>
      </trkpt>
      <trkpt lat="44.51759" lon="6.75187">
        <ele>1487</ele>
        <time>2022-07-19T15:15:34Z</time>
      </trkpt>
      <trkpt lat="44.5176" lon="6.7519">
        <ele>1487</ele>
        <time>2022-07-19T15:15:35Z</time>
      </trkpt>
      <trkpt lat="44.5176" lon="6.75193">
        <ele>1487.4</ele>
        <time>2022-07-19T15:15:36Z</time>
      </trkpt>
      <trkpt lat="44.5176" lon="6.75197">
        <ele>1487.4</ele>
        <time>2022-07-19T15:15:37Z</time>
      </trkpt>
      <trkpt lat="44.51761" lon="6.752">
        <ele>1487.8</ele>
        <time>2022-07-19T15:15:38Z</time>
      </trkpt>
      <trkpt lat="44.51761" lon="6.75204">
        <ele>1487.8</ele>
        <time>2022-07-19T15:15:39Z</time>
      </trkpt>
      <trkpt lat="44.51761" lon="6.75207">
        <ele>1488</ele>
        <time>2022-07-19T15:15:40Z</time>
      </trkpt>
      <trkpt lat="44.51761" lon="6.75211">
        <ele>1488</ele>
        <time>2022-07-19T15:15:41Z</time>
      </trkpt>
      <trkpt lat="44.51761" lon="6.75214">
        <ele>1488.4</ele>
        <time>2022-07-19T15:15:42Z</time>
      </trkpt>
      <trkpt lat="44.51761" lon="6.75218">
        <ele>1488.4</ele>
        <time>2022-07-19T15:15:43Z</time>
      </trkpt>
      <trkpt lat="44.51761" lon="6.75221">
        <ele>1488.8</ele>
        <time>2022-07-19T15:15:44Z</time>
      </trkpt>
      <trkpt lat="44.51761" lon="6.75225">
        <ele>1488.8</ele>
        <time>2022-07-19T15:15:45Z</time>
      </trkpt>
      <trkpt lat="44.51761" lon="6.75228">
        <ele>1489.2</ele>
        <time>2022-07-19T15:15:46Z</time>
      </trkpt>
      <trkpt lat="44.51761" lon="6.75232">
        <ele>1489.2</ele>
        <time>2022-07-19T15:15:47Z</time>
      </trkpt>
      <trkpt lat="44.51761" lon="6.75235">
        <ele>1489.4</ele>
        <time>2022-07-19T15:15:48Z</time>
      </trkpt>
      <trkpt lat="44.51761" lon="6.75239">
        <ele>1489.4</ele>
        <time>2022-07-19T15:15:49Z</time>
      </trkpt>
      <trkpt lat="44.51761" lon="6.75242">
        <ele>1489.8</ele>
        <time>2022-07-19T15:15:50Z</time>
      </trkpt>
      <trkpt lat="44.51761" lon="6.75246">
        <ele>1489.8</ele>
        <time>2022-07-19T15:15:51Z</time>
      </trkpt>
      <trkpt lat="44.51761" lon="6.7525">
        <ele>1490</ele>
        <time>2022-07-19T15:15:52Z</time>
      </trkpt>
      <trkpt lat="44.51762" lon="6.75253">
        <ele>1490</ele>
        <time>2022-07-19T15:15:53Z</time>
      </trkpt>
      <trkpt lat="44.51762" lon="6.75257">
        <ele>1490</ele>
        <time>2022-07-19T15:15:54Z</time>
      </trkpt>
      <trkpt lat="44.51763" lon="6.7526">
        <ele>1490.4</ele>
        <time>2022-07-19T15:15:55Z</time>
      </trkpt>
      <trkpt lat="44.51765" lon="6.75263">
        <ele>1490.4</ele>
        <time>2022-07-19T15:15:56Z</time>
      </trkpt>
      <trkpt lat="44.51766" lon="6.75266">
        <ele>1490.6</ele>
        <time>2022-07-19T15:15:57Z</time>
      </trkpt>
      <trkpt lat="44.51767" lon="6.75269">
        <ele>1490.6</ele>
        <time>2022-07-19T15:15:58Z</time>
      </trkpt>
      <trkpt lat="44.51769" lon="6.75272">
        <ele>1490.8</ele>
        <time>2022-07-19T15:15:59Z</time>
      </trkpt>
      <trkpt lat="44.5177" lon="6.75275">
        <ele>1490.8</ele>
        <time>2022-07-19T15:16:00Z</time>
      </trkpt>
      <trkpt lat="44.51772" lon="6.75277">
        <ele>1491</ele>
        <time>2022-07-19T15:16:01Z</time>
      </trkpt>
      <trkpt lat="44.51774" lon="6.75279">
        <ele>1491</ele>
        <time>2022-07-19T15:16:02Z</time>
      </trkpt>
      <trkpt lat="44.51776" lon="6.75281">
        <ele>1491.4</ele>
        <time>2022-07-19T15:16:03Z</time>
      </trkpt>
      <trkpt lat="44.51778" lon="6.75282">
        <ele>1491.4</ele>
        <time>2022-07-19T15:16:04Z</time>
      </trkpt>
      <trkpt lat="44.51781" lon="6.75282">
        <ele>1491.6</ele>
        <time>2022-07-19T15:16:05Z</time>
      </trkpt>
      <trkpt lat="44.51783" lon="6.75282">
        <ele>1491.6</ele>
        <time>2022-07-19T15:16:06Z</time>
      </trkpt>
      <trkpt lat="44.51785" lon="6.75282">
        <ele>1491.6</ele>
        <time>2022-07-19T15:16:07Z</time>
      </trkpt>
      <trkpt lat="44.51788" lon="6.75282">
        <ele>1492</ele>
        <time>2022-07-19T15:16:08Z</time>
      </trkpt>
      <trkpt lat="44.5179" lon="6.75281">
        <ele>1492</ele>
        <time>2022-07-19T15:16:09Z</time>
      </trkpt>
      <trkpt lat="44.51792" lon="6.7528">
        <ele>1492.2</ele>
        <time>2022-07-19T15:16:10Z</time>
      </trkpt>
      <trkpt lat="44.51794" lon="6.75279">
        <ele>1492.4</ele>
        <time>2022-07-19T15:16:11Z</time>
      </trkpt>
      <trkpt lat="44.51796" lon="6.75277">
        <ele>1492.6</ele>
        <time>2022-07-19T15:16:12Z</time>
      </trkpt>
      <trkpt lat="44.51797" lon="6.75275">
        <ele>1492.8</ele>
        <time>2022-07-19T15:16:13Z</time>
      </trkpt>
      <trkpt lat="44.51799" lon="6.75272">
        <ele>1493</ele>
        <time>2022-07-19T15:16:14Z</time>
      </trkpt>
      <trkpt lat="44.518" lon="6.7527">
        <ele>1493</ele>
        <time>2022-07-19T15:16:15Z</time>
      </trkpt>
      <trkpt lat="44.51801" lon="6.75267">
        <ele>1493.4</ele>
        <time>2022-07-19T15:16:16Z</time>
      </trkpt>
      <trkpt lat="44.51802" lon="6.75264">
        <ele>1493.4</ele>
        <time>2022-07-19T15:16:17Z</time>
      </trkpt>
      <trkpt lat="44.51803" lon="6.75261">
        <ele>1493.6</ele>
        <time>2022-07-19T15:16:18Z</time>
      </trkpt>
      <trkpt lat="44.51803" lon="6.75257">
        <ele>1493.6</ele>
        <time>2022-07-19T15:16:19Z</time>
      </trkpt>
      <trkpt lat="44.51804" lon="6.75254">
        <ele>1493.8</ele>
        <time>2022-07-19T15:16:20Z</time>
      </trkpt>
      <trkpt lat="44.51805" lon="6.75251">
        <ele>1493.8</ele>
        <time>2022-07-19T15:16:21Z</time>
      </trkpt>
      <trkpt lat="44.51806" lon="6.75247">
        <ele>1494</ele>
        <time>2022-07-19T15:16:22Z</time>
      </trkpt>
      <trkpt lat="44.51806" lon="6.75244">
        <ele>1494</ele>
        <time>2022-07-19T15:16:23Z</time>
      </trkpt>
      <trkpt lat="44.51807" lon="6.75241">
        <ele>1494.4</ele>
        <time>2022-07-19T15:16:24Z</time>
      </trkpt>
      <trkpt lat="44.51807" lon="6.75237">
        <ele>1494.4</ele>
        <time>2022-07-19T15:16:25Z</time>
      </trkpt>
      <trkpt lat="44.51807" lon="6.75233">
        <ele>1494.6</ele>
        <time>2022-07-19T15:16:26Z</time>
      </trkpt>
      <trkpt lat="44.51808" lon="6.7523">
        <ele>1494.6</ele>
        <time>2022-07-19T15:16:27Z</time>
      </trkpt>
      <trkpt lat="44.51808" lon="6.75226">
        <ele>1495</ele>
        <time>2022-07-19T15:16:28Z</time>
      </trkpt>
      <trkpt lat="44.51808" lon="6.75222">
        <ele>1495</ele>
        <time>2022-07-19T15:16:29Z</time>
      </trkpt>
      <trkpt lat="44.51809" lon="6.75219">
        <ele>1495.2</ele>
        <time>2022-07-19T15:16:30Z</time>
      </trkpt>
      <trkpt lat="44.51809" lon="6.75215">
        <ele>1495.2</ele>
        <time>2022-07-19T15:16:31Z</time>
      </trkpt>
      <trkpt lat="44.51809" lon="6.75211">
        <ele>1495.6</ele>
        <time>2022-07-19T15:16:32Z</time>
      </trkpt>
      <trkpt lat="44.51809" lon="6.75207">
        <ele>1495.8</ele>
        <time>2022-07-19T15:16:33Z</time>
      </trkpt>
      <trkpt lat="44.51809" lon="6.75203">
        <ele>1495.8</ele>
        <time>2022-07-19T15:16:34Z</time>
      </trkpt>
      <trkpt lat="44.51809" lon="6.752">
        <ele>1495.8</ele>
        <time>2022-07-19T15:16:35Z</time>
      </trkpt>
      <trkpt lat="44.51809" lon="6.75196">
        <ele>1496.2</ele>
        <time>2022-07-19T15:16:36Z</time>
      </trkpt>
      <trkpt lat="44.51809" lon="6.75192">
        <ele>1496.4</ele>
        <time>2022-07-19T15:16:37Z</time>
      </trkpt>
      <trkpt lat="44.51809" lon="6.75189">
        <ele>1496.4</ele>
        <time>2022-07-19T15:16:38Z</time>
      </trkpt>
      <trkpt lat="44.51809" lon="6.75186">
        <ele>1496.6</ele>
        <time>2022-07-19T15:16:39Z</time>
      </trkpt>
      <trkpt lat="44.51808" lon="6.75182">
        <ele>1496.6</ele>
        <time>2022-07-19T15:16:40Z</time>
      </trkpt>
      <trkpt lat="44.51808" lon="6.75178">
        <ele>1496.8</ele>
        <time>2022-07-19T15:16:41Z</time>
      </trkpt>
      <trkpt lat="44.51808" lon="6.75175">
        <ele>1496.8</ele>
        <time>2022-07-19T15:16:42Z</time>
      </trkpt>
      <trkpt lat="44.51807" lon="6.75171">
        <ele>1497.2</ele>
        <time>2022-07-19T15:16:43Z</time>
      </trkpt>
      <trkpt lat="44.51806" lon="6.75168">
        <ele>1497.2</ele>
        <time>2022-07-19T15:16:44Z</time>
      </trkpt>
      <trkpt lat="44.51805" lon="6.75164">
        <ele>1497.4</ele>
        <time>2022-07-19T15:16:45Z</time>
      </trkpt>
      <trkpt lat="44.51804" lon="6.7516">
        <ele>1497.6</ele>
        <time>2022-07-19T15:16:46Z</time>
      </trkpt>
      <trkpt lat="44.51803" lon="6.75156">
        <ele>1497.6</ele>
        <time>2022-07-19T15:16:47Z</time>
      </trkpt>
      <trkpt lat="44.51802" lon="6.75153">
        <ele>1498</ele>
        <time>2022-07-19T15:16:48Z</time>
      </trkpt>
      <trkpt lat="44.51801" lon="6.75149">
        <ele>1498.2</ele>
        <time>2022-07-19T15:16:50Z</time>
      </trkpt>
      <trkpt lat="44.518" lon="6.75145">
        <ele>1498.4</ele>
        <time>2022-07-19T15:16:51Z</time>
      </trkpt>
      <trkpt lat="44.51799" lon="6.75141">
        <ele>1498.4</ele>
        <time>2022-07-19T15:16:52Z</time>
      </trkpt>
      <trkpt lat="44.51798" lon="6.75138">
        <ele>1498.8</ele>
        <time>2022-07-19T15:16:53Z</time>
      </trkpt>
      <trkpt lat="44.51797" lon="6.75134">
        <ele>1498.8</ele>
        <time>2022-07-19T15:16:54Z</time>
      </trkpt>
      <trkpt lat="44.51795" lon="6.75131">
        <ele>1499.2</ele>
        <time>2022-07-19T15:16:55Z</time>
      </trkpt>
      <trkpt lat="44.51794" lon="6.75128">
        <ele>1499.4</ele>
        <time>2022-07-19T15:16:56Z</time>
      </trkpt>
      <trkpt lat="44.51793" lon="6.75125">
        <ele>1499.4</ele>
        <time>2022-07-19T15:16:57Z</time>
      </trkpt>
      <trkpt lat="44.51791" lon="6.75122">
        <ele>1500</ele>
        <time>2022-07-19T15:16:58Z</time>
      </trkpt>
      <trkpt lat="44.5179" lon="6.75119">
        <ele>1500.2</ele>
        <time>2022-07-19T15:16:59Z</time>
      </trkpt>
      <trkpt lat="44.51789" lon="6.75115">
        <ele>1500.2</ele>
        <time>2022-07-19T15:17:00Z</time>
      </trkpt>
      <trkpt lat="44.51787" lon="6.75112">
        <ele>1500.6</ele>
        <time>2022-07-19T15:17:01Z</time>
      </trkpt>
      <trkpt lat="44.51786" lon="6.75109">
        <ele>1500.6</ele>
        <time>2022-07-19T15:17:02Z</time>
      </trkpt>
      <trkpt lat="44.51785" lon="6.75106">
        <ele>1501</ele>
        <time>2022-07-19T15:17:03Z</time>
      </trkpt>
      <trkpt lat="44.51783" lon="6.75103">
        <ele>1501</ele>
        <time>2022-07-19T15:17:04Z</time>
      </trkpt>
      <trkpt lat="44.51782" lon="6.75099">
        <ele>1501.4</ele>
        <time>2022-07-19T15:17:05Z</time>
      </trkpt>
      <trkpt lat="44.51781" lon="6.75096">
        <ele>1501.4</ele>
        <time>2022-07-19T15:17:06Z</time>
      </trkpt>
      <trkpt lat="44.51779" lon="6.75093">
        <ele>1501.8</ele>
        <time>2022-07-19T15:17:07Z</time>
      </trkpt>
      <trkpt lat="44.51778" lon="6.7509">
        <ele>1501.8</ele>
        <time>2022-07-19T15:17:08Z</time>
      </trkpt>
      <trkpt lat="44.51777" lon="6.75087">
        <ele>1502.2</ele>
        <time>2022-07-19T15:17:09Z</time>
      </trkpt>
      <trkpt lat="44.51776" lon="6.75084">
        <ele>1502.2</ele>
        <time>2022-07-19T15:17:10Z</time>
      </trkpt>
      <trkpt lat="44.51775" lon="6.75081">
        <ele>1502.4</ele>
        <time>2022-07-19T15:17:11Z</time>
      </trkpt>
      <trkpt lat="44.51773" lon="6.75078">
        <ele>1502.4</ele>
        <time>2022-07-19T15:17:12Z</time>
      </trkpt>
      <trkpt lat="44.51772" lon="6.75075">
        <ele>1502.8</ele>
        <time>2022-07-19T15:17:13Z</time>
      </trkpt>
      <trkpt lat="44.51771" lon="6.75072">
        <ele>1502.8</ele>
        <time>2022-07-19T15:17:14Z</time>
      </trkpt>
      <trkpt lat="44.5177" lon="6.75068">
        <ele>1503.2</ele>
        <time>2022-07-19T15:17:15Z</time>
      </trkpt>
      <trkpt lat="44.51769" lon="6.75065">
        <ele>1503.2</ele>
        <time>2022-07-19T15:17:16Z</time>
      </trkpt>
      <trkpt lat="44.51767" lon="6.75063">
        <ele>1503.6</ele>
        <time>2022-07-19T15:17:17Z</time>
      </trkpt>
      <trkpt lat="44.51766" lon="6.7506">
        <ele>1503.6</ele>
        <time>2022-07-19T15:17:18Z</time>
      </trkpt>
      <trkpt lat="44.51764" lon="6.75057">
        <ele>1503.8</ele>
        <time>2022-07-19T15:17:19Z</time>
      </trkpt>
      <trkpt lat="44.51763" lon="6.75053">
        <ele>1503.8</ele>
        <time>2022-07-19T15:17:20Z</time>
      </trkpt>
      <trkpt lat="44.51762" lon="6.7505">
        <ele>1504.2</ele>
        <time>2022-07-19T15:17:21Z</time>
      </trkpt>
      <trkpt lat="44.51761" lon="6.75047">
        <ele>1504.2</ele>
        <time>2022-07-19T15:17:22Z</time>
      </trkpt>
      <trkpt lat="44.51759" lon="6.75045">
        <ele>1504.4</ele>
        <time>2022-07-19T15:17:23Z</time>
      </trkpt>
      <trkpt lat="44.51758" lon="6.75042">
        <ele>1504.8</ele>
        <time>2022-07-19T15:17:24Z</time>
      </trkpt>
      <trkpt lat="44.51757" lon="6.75039">
        <ele>1504.8</ele>
        <time>2022-07-19T15:17:25Z</time>
      </trkpt>
      <trkpt lat="44.51756" lon="6.75037">
        <ele>1505</ele>
        <time>2022-07-19T15:17:26Z</time>
      </trkpt>
      <trkpt lat="44.51756" lon="6.75034">
        <ele>1505</ele>
        <time>2022-07-19T15:17:27Z</time>
      </trkpt>
      <trkpt lat="44.51755" lon="6.75032">
        <ele>1505.4</ele>
        <time>2022-07-19T15:17:28Z</time>
      </trkpt>
      <trkpt lat="44.51754" lon="6.75029">
        <ele>1505.6</ele>
        <time>2022-07-19T15:17:29Z</time>
      </trkpt>
      <trkpt lat="44.51753" lon="6.75027">
        <ele>1505.6</ele>
        <time>2022-07-19T15:17:30Z</time>
      </trkpt>
      <trkpt lat="44.51752" lon="6.75025">
        <ele>1505.8</ele>
        <time>2022-07-19T15:17:31Z</time>
      </trkpt>
      <trkpt lat="44.51751" lon="6.75022">
        <ele>1505.8</ele>
        <time>2022-07-19T15:17:32Z</time>
      </trkpt>
      <trkpt lat="44.5175" lon="6.75019">
        <ele>1506.2</ele>
        <time>2022-07-19T15:17:33Z</time>
      </trkpt>
      <trkpt lat="44.51749" lon="6.75017">
        <ele>1506.2</ele>
        <time>2022-07-19T15:17:34Z</time>
      </trkpt>
      <trkpt lat="44.51748" lon="6.75014">
        <ele>1506.6</ele>
        <time>2022-07-19T15:17:35Z</time>
      </trkpt>
      <trkpt lat="44.51746" lon="6.75011">
        <ele>1506.8</ele>
        <time>2022-07-19T15:17:36Z</time>
      </trkpt>
      <trkpt lat="44.51745" lon="6.75008">
        <ele>1506.8</ele>
        <time>2022-07-19T15:17:37Z</time>
      </trkpt>
      <trkpt lat="44.51744" lon="6.75005">
        <ele>1506.8</ele>
        <time>2022-07-19T15:17:38Z</time>
      </trkpt>
      <trkpt lat="44.51743" lon="6.75002">
        <ele>1507.2</ele>
        <time>2022-07-19T15:17:39Z</time>
      </trkpt>
      <trkpt lat="44.51742" lon="6.75">
        <ele>1507.2</ele>
        <time>2022-07-19T15:17:40Z</time>
      </trkpt>
      <trkpt lat="44.51741" lon="6.74997">
        <ele>1507.6</ele>
        <time>2022-07-19T15:17:41Z</time>
      </trkpt>
      <trkpt lat="44.51739" lon="6.74994">
        <ele>1507.6</ele>
        <time>2022-07-19T15:17:42Z</time>
      </trkpt>
      <trkpt lat="44.51738" lon="6.74991">
        <ele>1508</ele>
        <time>2022-07-19T15:17:43Z</time>
      </trkpt>
      <trkpt lat="44.51737" lon="6.74988">
        <ele>1508</ele>
        <time>2022-07-19T15:17:44Z</time>
      </trkpt>
      <trkpt lat="44.51736" lon="6.74985">
        <ele>1508.2</ele>
        <time>2022-07-19T15:17:45Z</time>
      </trkpt>
      <trkpt lat="44.51736" lon="6.74982">
        <ele>1508.2</ele>
        <time>2022-07-19T15:17:46Z</time>
      </trkpt>
      <trkpt lat="44.51735" lon="6.74979">
        <ele>1508.6</ele>
        <time>2022-07-19T15:17:47Z</time>
      </trkpt>
      <trkpt lat="44.51733" lon="6.74976">
        <ele>1508.8</ele>
        <time>2022-07-19T15:17:48Z</time>
      </trkpt>
      <trkpt lat="44.51733" lon="6.74972">
        <ele>1508.8</ele>
        <time>2022-07-19T15:17:49Z</time>
      </trkpt>
      <trkpt lat="44.51732" lon="6.74969">
        <ele>1509.2</ele>
        <time>2022-07-19T15:17:50Z</time>
      </trkpt>
      <trkpt lat="44.51731" lon="6.74966">
        <ele>1509.2</ele>
        <time>2022-07-19T15:17:51Z</time>
      </trkpt>
      <trkpt lat="44.5173" lon="6.74963">
        <ele>1509.4</ele>
        <time>2022-07-19T15:17:52Z</time>
      </trkpt>
      <trkpt lat="44.51729" lon="6.7496">
        <ele>1509.4</ele>
        <time>2022-07-19T15:17:53Z</time>
      </trkpt>
      <trkpt lat="44.51728" lon="6.74957">
        <ele>1509.4</ele>
        <time>2022-07-19T15:17:54Z</time>
      </trkpt>
      <trkpt lat="44.51727" lon="6.74953">
        <ele>1509.8</ele>
        <time>2022-07-19T15:17:55Z</time>
      </trkpt>
      <trkpt lat="44.51726" lon="6.7495">
        <ele>1509.8</ele>
        <time>2022-07-19T15:17:56Z</time>
      </trkpt>
      <trkpt lat="44.51725" lon="6.74947">
        <ele>1510</ele>
        <time>2022-07-19T15:17:57Z</time>
      </trkpt>
      <trkpt lat="44.51725" lon="6.74944">
        <ele>1510</ele>
        <time>2022-07-19T15:17:58Z</time>
      </trkpt>
      <trkpt lat="44.51724" lon="6.74941">
        <ele>1510.2</ele>
        <time>2022-07-19T15:17:59Z</time>
      </trkpt>
      <trkpt lat="44.51723" lon="6.74938">
        <ele>1510.2</ele>
        <time>2022-07-19T15:18:00Z</time>
      </trkpt>
      <trkpt lat="44.51722" lon="6.74935">
        <ele>1510.6</ele>
        <time>2022-07-19T15:18:01Z</time>
      </trkpt>
      <trkpt lat="44.51721" lon="6.74932">
        <ele>1510.6</ele>
        <time>2022-07-19T15:18:02Z</time>
      </trkpt>
      <trkpt lat="44.51721" lon="6.74929">
        <ele>1511</ele>
        <time>2022-07-19T15:18:03Z</time>
      </trkpt>
      <trkpt lat="44.5172" lon="6.74926">
        <ele>1511</ele>
        <time>2022-07-19T15:18:04Z</time>
      </trkpt>
      <trkpt lat="44.51719" lon="6.74923">
        <ele>1511.2</ele>
        <time>2022-07-19T15:18:05Z</time>
      </trkpt>
      <trkpt lat="44.51719" lon="6.7492">
        <ele>1511.4</ele>
        <time>2022-07-19T15:18:06Z</time>
      </trkpt>
      <trkpt lat="44.51718" lon="6.74917">
        <ele>1511.4</ele>
        <time>2022-07-19T15:18:07Z</time>
      </trkpt>
      <trkpt lat="44.51718" lon="6.74913">
        <ele>1511.6</ele>
        <time>2022-07-19T15:18:08Z</time>
      </trkpt>
      <trkpt lat="44.51717" lon="6.7491">
        <ele>1511.6</ele>
        <time>2022-07-19T15:18:09Z</time>
      </trkpt>
      <trkpt lat="44.51717" lon="6.74907">
        <ele>1511.8</ele>
        <time>2022-07-19T15:18:10Z</time>
      </trkpt>
      <trkpt lat="44.51716" lon="6.74904">
        <ele>1511.8</ele>
        <time>2022-07-19T15:18:11Z</time>
      </trkpt>
      <trkpt lat="44.51716" lon="6.74901">
        <ele>1512.2</ele>
        <time>2022-07-19T15:18:12Z</time>
      </trkpt>
      <trkpt lat="44.51716" lon="6.74898">
        <ele>1512.2</ele>
        <time>2022-07-19T15:18:13Z</time>
      </trkpt>
      <trkpt lat="44.51715" lon="6.74895">
        <ele>1512.4</ele>
        <time>2022-07-19T15:18:14Z</time>
      </trkpt>
      <trkpt lat="44.51715" lon="6.74892">
        <ele>1512.6</ele>
        <time>2022-07-19T15:18:15Z</time>
      </trkpt>
      <trkpt lat="44.51714" lon="6.74889">
        <ele>1512.6</ele>
        <time>2022-07-19T15:18:16Z</time>
      </trkpt>
      <trkpt lat="44.51714" lon="6.74886">
        <ele>1513</ele>
        <time>2022-07-19T15:18:17Z</time>
      </trkpt>
      <trkpt lat="44.51714" lon="6.74883">
        <ele>1513</ele>
        <time>2022-07-19T15:18:18Z</time>
      </trkpt>
      <trkpt lat="44.51714" lon="6.7488">
        <ele>1513.4</ele>
        <time>2022-07-19T15:18:19Z</time>
      </trkpt>
      <trkpt lat="44.51713" lon="6.74876">
        <ele>1513.4</ele>
        <time>2022-07-19T15:18:20Z</time>
      </trkpt>
      <trkpt lat="44.51714" lon="6.74873">
        <ele>1513.8</ele>
        <time>2022-07-19T15:18:21Z</time>
      </trkpt>
      <trkpt lat="44.51714" lon="6.7487">
        <ele>1514.2</ele>
        <time>2022-07-19T15:18:22Z</time>
      </trkpt>
      <trkpt lat="44.51714" lon="6.74867">
        <ele>1514.4</ele>
        <time>2022-07-19T15:18:23Z</time>
      </trkpt>
      <trkpt lat="44.51714" lon="6.74864">
        <ele>1514.6</ele>
        <time>2022-07-19T15:18:24Z</time>
      </trkpt>
      <trkpt lat="44.51714" lon="6.74861">
        <ele>1514.6</ele>
        <time>2022-07-19T15:18:25Z</time>
      </trkpt>
      <trkpt lat="44.51713" lon="6.74858">
        <ele>1515</ele>
        <time>2022-07-19T15:18:26Z</time>
      </trkpt>
      <trkpt lat="44.51714" lon="6.74855">
        <ele>1515</ele>
        <time>2022-07-19T15:18:27Z</time>
      </trkpt>
      <trkpt lat="44.51714" lon="6.74852">
        <ele>1515.4</ele>
        <time>2022-07-19T15:18:28Z</time>
      </trkpt>
      <trkpt lat="44.51714" lon="6.7485">
        <ele>1515.6</ele>
        <time>2022-07-19T15:18:29Z</time>
      </trkpt>
      <trkpt lat="44.51714" lon="6.74847">
        <ele>1515.8</ele>
        <time>2022-07-19T15:18:30Z</time>
      </trkpt>
      <trkpt lat="44.51714" lon="6.74845">
        <ele>1515.8</ele>
        <time>2022-07-19T15:18:31Z</time>
      </trkpt>
      <trkpt lat="44.51714" lon="6.74842">
        <ele>1516</ele>
        <time>2022-07-19T15:18:32Z</time>
      </trkpt>
      <trkpt lat="44.51715" lon="6.74839">
        <ele>1516</ele>
        <time>2022-07-19T15:18:33Z</time>
      </trkpt>
      <trkpt lat="44.51715" lon="6.74837">
        <ele>1516.4</ele>
        <time>2022-07-19T15:18:34Z</time>
      </trkpt>
      <trkpt lat="44.51716" lon="6.74834">
        <ele>1516.4</ele>
        <time>2022-07-19T15:18:35Z</time>
      </trkpt>
      <trkpt lat="44.51716" lon="6.74831">
        <ele>1516.8</ele>
        <time>2022-07-19T15:18:36Z</time>
      </trkpt>
      <trkpt lat="44.51716" lon="6.74829">
        <ele>1516.8</ele>
        <time>2022-07-19T15:18:37Z</time>
      </trkpt>
      <trkpt lat="44.51717" lon="6.74826">
        <ele>1517</ele>
        <time>2022-07-19T15:18:38Z</time>
      </trkpt>
      <trkpt lat="44.51717" lon="6.74823">
        <ele>1517</ele>
        <time>2022-07-19T15:18:39Z</time>
      </trkpt>
      <trkpt lat="44.51717" lon="6.74821">
        <ele>1517.4</ele>
        <time>2022-07-19T15:18:40Z</time>
      </trkpt>
      <trkpt lat="44.51717" lon="6.74818">
        <ele>1517.4</ele>
        <time>2022-07-19T15:18:41Z</time>
      </trkpt>
      <trkpt lat="44.51717" lon="6.74815">
        <ele>1517.8</ele>
        <time>2022-07-19T15:18:42Z</time>
      </trkpt>
      <trkpt lat="44.51717" lon="6.74813">
        <ele>1517.8</ele>
        <time>2022-07-19T15:18:43Z</time>
      </trkpt>
      <trkpt lat="44.51718" lon="6.74811">
        <ele>1518.2</ele>
        <time>2022-07-19T15:18:44Z</time>
      </trkpt>
      <trkpt lat="44.51718" lon="6.74808">
        <ele>1518.2</ele>
        <time>2022-07-19T15:18:45Z</time>
      </trkpt>
      <trkpt lat="44.51718" lon="6.74806">
        <ele>1518.4</ele>
        <time>2022-07-19T15:18:46Z</time>
      </trkpt>
      <trkpt lat="44.51719" lon="6.74803">
        <ele>1518.4</ele>
        <time>2022-07-19T15:18:47Z</time>
      </trkpt>
      <trkpt lat="44.51719" lon="6.74801">
        <ele>1518.6</ele>
        <time>2022-07-19T15:18:48Z</time>
      </trkpt>
      <trkpt lat="44.51719" lon="6.74799">
        <ele>1518.6</ele>
        <time>2022-07-19T15:18:49Z</time>
      </trkpt>
      <trkpt lat="44.51719" lon="6.74796">
        <ele>1519</ele>
        <time>2022-07-19T15:18:50Z</time>
      </trkpt>
      <trkpt lat="44.51719" lon="6.74794">
        <ele>1519.2</ele>
        <time>2022-07-19T15:18:51Z</time>
      </trkpt>
      <trkpt lat="44.5172" lon="6.74792">
        <ele>1519.2</ele>
        <time>2022-07-19T15:18:52Z</time>
      </trkpt>
      <trkpt lat="44.5172" lon="6.7479">
        <ele>1519.2</ele>
        <time>2022-07-19T15:18:53Z</time>
      </trkpt>
      <trkpt lat="44.51721" lon="6.74787">
        <ele>1519.6</ele>
        <time>2022-07-19T15:18:54Z</time>
      </trkpt>
      <trkpt lat="44.51721" lon="6.74785">
        <ele>1519.6</ele>
        <time>2022-07-19T15:18:55Z</time>
      </trkpt>
      <trkpt lat="44.51721" lon="6.74783">
        <ele>1520</ele>
        <time>2022-07-19T15:18:56Z</time>
      </trkpt>
      <trkpt lat="44.51722" lon="6.7478">
        <ele>1520</ele>
        <time>2022-07-19T15:18:57Z</time>
      </trkpt>
      <trkpt lat="44.51722" lon="6.74778">
        <ele>1520.2</ele>
        <time>2022-07-19T15:18:58Z</time>
      </trkpt>
      <trkpt lat="44.51722" lon="6.74776">
        <ele>1520.2</ele>
        <time>2022-07-19T15:18:59Z</time>
      </trkpt>
      <trkpt lat="44.51723" lon="6.74773">
        <ele>1520.6</ele>
        <time>2022-07-19T15:19:00Z</time>
      </trkpt>
      <trkpt lat="44.51724" lon="6.74771">
        <ele>1520.6</ele>
        <time>2022-07-19T15:19:01Z</time>
      </trkpt>
      <trkpt lat="44.51724" lon="6.74769">
        <ele>1520.8</ele>
        <time>2022-07-19T15:19:02Z</time>
      </trkpt>
      <trkpt lat="44.51725" lon="6.74766">
        <ele>1520.8</ele>
        <time>2022-07-19T15:19:03Z</time>
      </trkpt>
      <trkpt lat="44.51726" lon="6.74764">
        <ele>1521.2</ele>
        <time>2022-07-19T15:19:04Z</time>
      </trkpt>
      <trkpt lat="44.51726" lon="6.74761">
        <ele>1521.2</ele>
        <time>2022-07-19T15:19:05Z</time>
      </trkpt>
      <trkpt lat="44.51727" lon="6.74759">
        <ele>1521.6</ele>
        <time>2022-07-19T15:19:06Z</time>
      </trkpt>
      <trkpt lat="44.51728" lon="6.74756">
        <ele>1521.6</ele>
        <time>2022-07-19T15:19:07Z</time>
      </trkpt>
      <trkpt lat="44.51728" lon="6.74754">
        <ele>1521.8</ele>
        <time>2022-07-19T15:19:08Z</time>
      </trkpt>
      <trkpt lat="44.51729" lon="6.74752">
        <ele>1521.8</ele>
        <time>2022-07-19T15:19:09Z</time>
      </trkpt>
      <trkpt lat="44.5173" lon="6.7475">
        <ele>1522.2</ele>
        <time>2022-07-19T15:19:10Z</time>
      </trkpt>
      <trkpt lat="44.51731" lon="6.74747">
        <ele>1522.2</ele>
        <time>2022-07-19T15:19:11Z</time>
      </trkpt>
      <trkpt lat="44.51732" lon="6.74745">
        <ele>1522.4</ele>
        <time>2022-07-19T15:19:12Z</time>
      </trkpt>
      <trkpt lat="44.51733" lon="6.74743">
        <ele>1522.6</ele>
        <time>2022-07-19T15:19:13Z</time>
      </trkpt>
      <trkpt lat="44.51733" lon="6.74741">
        <ele>1522.6</ele>
        <time>2022-07-19T15:19:14Z</time>
      </trkpt>
      <trkpt lat="44.51734" lon="6.74738">
        <ele>1523</ele>
        <time>2022-07-19T15:19:15Z</time>
      </trkpt>
      <trkpt lat="44.51735" lon="6.74736">
        <ele>1523</ele>
        <time>2022-07-19T15:19:16Z</time>
      </trkpt>
      <trkpt lat="44.51736" lon="6.74733">
        <ele>1523.4</ele>
        <time>2022-07-19T15:19:17Z</time>
      </trkpt>
      <trkpt lat="44.51736" lon="6.7473">
        <ele>1523.4</ele>
        <time>2022-07-19T15:19:18Z</time>
      </trkpt>
      <trkpt lat="44.51737" lon="6.74728">
        <ele>1523.6</ele>
        <time>2022-07-19T15:19:19Z</time>
      </trkpt>
      <trkpt lat="44.51738" lon="6.74725">
        <ele>1523.6</ele>
        <time>2022-07-19T15:19:20Z</time>
      </trkpt>
      <trkpt lat="44.51739" lon="6.74723">
        <ele>1524</ele>
        <time>2022-07-19T15:19:21Z</time>
      </trkpt>
      <trkpt lat="44.5174" lon="6.74721">
        <ele>1524</ele>
        <time>2022-07-19T15:19:22Z</time>
      </trkpt>
      <trkpt lat="44.51741" lon="6.74719">
        <ele>1524.2</ele>
        <time>2022-07-19T15:19:23Z</time>
      </trkpt>
      <trkpt lat="44.51742" lon="6.74716">
        <ele>1524.2</ele>
        <time>2022-07-19T15:19:24Z</time>
      </trkpt>
      <trkpt lat="44.51743" lon="6.74714">
        <ele>1524.6</ele>
        <time>2022-07-19T15:19:25Z</time>
      </trkpt>
      <trkpt lat="44.51744" lon="6.74712">
        <ele>1524.6</ele>
        <time>2022-07-19T15:19:26Z</time>
      </trkpt>
      <trkpt lat="44.51745" lon="6.7471">
        <ele>1524.6</ele>
        <time>2022-07-19T15:19:27Z</time>
      </trkpt>
      <trkpt lat="44.51746" lon="6.74708">
        <ele>1524.8</ele>
        <time>2022-07-19T15:19:28Z</time>
      </trkpt>
      <trkpt lat="44.51747" lon="6.74706">
        <ele>1524.8</ele>
        <time>2022-07-19T15:19:29Z</time>
      </trkpt>
      <trkpt lat="44.51748" lon="6.74704">
        <ele>1525.2</ele>
        <time>2022-07-19T15:19:30Z</time>
      </trkpt>
      <trkpt lat="44.51749" lon="6.74701">
        <ele>1525.4</ele>
        <time>2022-07-19T15:19:31Z</time>
      </trkpt>
      <trkpt lat="44.5175" lon="6.74699">
        <ele>1525.4</ele>
        <time>2022-07-19T15:19:32Z</time>
      </trkpt>
      <trkpt lat="44.51751" lon="6.74697">
        <ele>1525.6</ele>
        <time>2022-07-19T15:19:33Z</time>
      </trkpt>
      <trkpt lat="44.51752" lon="6.74695">
        <ele>1525.6</ele>
        <time>2022-07-19T15:19:34Z</time>
      </trkpt>
      <trkpt lat="44.51753" lon="6.74693">
        <ele>1526</ele>
        <time>2022-07-19T15:19:35Z</time>
      </trkpt>
      <trkpt lat="44.51754" lon="6.74691">
        <ele>1526</ele>
        <time>2022-07-19T15:19:36Z</time>
      </trkpt>
      <trkpt lat="44.51755" lon="6.74689">
        <ele>1526.4</ele>
        <time>2022-07-19T15:19:37Z</time>
      </trkpt>
      <trkpt lat="44.51756" lon="6.74688">
        <ele>1526.4</ele>
        <time>2022-07-19T15:19:38Z</time>
      </trkpt>
      <trkpt lat="44.51757" lon="6.74686">
        <ele>1526.4</ele>
        <time>2022-07-19T15:19:39Z</time>
      </trkpt>
      <trkpt lat="44.51758" lon="6.74684">
        <ele>1526.8</ele>
        <time>2022-07-19T15:19:40Z</time>
      </trkpt>
      <trkpt lat="44.51759" lon="6.74683">
        <ele>1527</ele>
        <time>2022-07-19T15:19:41Z</time>
      </trkpt>
      <trkpt lat="44.5176" lon="6.74681">
        <ele>1527.2</ele>
        <time>2022-07-19T15:19:42Z</time>
      </trkpt>
      <trkpt lat="44.51761" lon="6.74679">
        <ele>1527.2</ele>
        <time>2022-07-19T15:19:43Z</time>
      </trkpt>
      <trkpt lat="44.51761" lon="6.74677">
        <ele>1527.6</ele>
        <time>2022-07-19T15:19:44Z</time>
      </trkpt>
      <trkpt lat="44.51762" lon="6.74675">
        <ele>1527.6</ele>
        <time>2022-07-19T15:19:45Z</time>
      </trkpt>
      <trkpt lat="44.51763" lon="6.74673">
        <ele>1527.8</ele>
        <time>2022-07-19T15:19:46Z</time>
      </trkpt>
      <trkpt lat="44.51764" lon="6.74671">
        <ele>1527.8</ele>
        <time>2022-07-19T15:19:47Z</time>
      </trkpt>
      <trkpt lat="44.51765" lon="6.74669">
        <ele>1528.2</ele>
        <time>2022-07-19T15:19:48Z</time>
      </trkpt>
      <trkpt lat="44.51766" lon="6.74667">
        <ele>1528.2</ele>
        <time>2022-07-19T15:19:49Z</time>
      </trkpt>
      <trkpt lat="44.51767" lon="6.74665">
        <ele>1528.4</ele>
        <time>2022-07-19T15:19:50Z</time>
      </trkpt>
      <trkpt lat="44.51768" lon="6.74663">
        <ele>1528.6</ele>
        <time>2022-07-19T15:19:51Z</time>
      </trkpt>
      <trkpt lat="44.51769" lon="6.74661">
        <ele>1528.6</ele>
        <time>2022-07-19T15:19:52Z</time>
      </trkpt>
      <trkpt lat="44.5177" lon="6.74659">
        <ele>1529</ele>
        <time>2022-07-19T15:19:53Z</time>
      </trkpt>
      <trkpt lat="44.51771" lon="6.74657">
        <ele>1529</ele>
        <time>2022-07-19T15:19:54Z</time>
      </trkpt>
      <trkpt lat="44.51772" lon="6.74656">
        <ele>1529.2</ele>
        <time>2022-07-19T15:19:55Z</time>
      </trkpt>
      <trkpt lat="44.51773" lon="6.74654">
        <ele>1529.4</ele>
        <time>2022-07-19T15:19:56Z</time>
      </trkpt>
      <trkpt lat="44.51774" lon="6.74652">
        <ele>1529.4</ele>
        <time>2022-07-19T15:19:57Z</time>
      </trkpt>
      <trkpt lat="44.51775" lon="6.7465">
        <ele>1529.8</ele>
        <time>2022-07-19T15:19:58Z</time>
      </trkpt>
      <trkpt lat="44.51776" lon="6.74648">
        <ele>1530</ele>
        <time>2022-07-19T15:19:59Z</time>
      </trkpt>
      <trkpt lat="44.51777" lon="6.74646">
        <ele>1530</ele>
        <time>2022-07-19T15:20:00Z</time>
      </trkpt>
      <trkpt lat="44.51778" lon="6.74644">
        <ele>1530.4</ele>
        <time>2022-07-19T15:20:01Z</time>
      </trkpt>
      <trkpt lat="44.51779" lon="6.74643">
        <ele>1530.4</ele>
        <time>2022-07-19T15:20:02Z</time>
      </trkpt>
      <trkpt lat="44.5178" lon="6.74641">
        <ele>1530.6</ele>
        <time>2022-07-19T15:20:03Z</time>
      </trkpt>
      <trkpt lat="44.5178" lon="6.74639">
        <ele>1530.6</ele>
        <time>2022-07-19T15:20:04Z</time>
      </trkpt>
      <trkpt lat="44.51781" lon="6.74637">
        <ele>1531</ele>
        <time>2022-07-19T15:20:05Z</time>
      </trkpt>
      <trkpt lat="44.51782" lon="6.74635">
        <ele>1531</ele>
        <time>2022-07-19T15:20:06Z</time>
      </trkpt>
      <trkpt lat="44.51783" lon="6.74633">
        <ele>1531.2</ele>
        <time>2022-07-19T15:20:07Z</time>
      </trkpt>
      <trkpt lat="44.51784" lon="6.74631">
        <ele>1531.2</ele>
        <time>2022-07-19T15:20:08Z</time>
      </trkpt>
      <trkpt lat="44.51785" lon="6.7463">
        <ele>1531.4</ele>
        <time>2022-07-19T15:20:09Z</time>
      </trkpt>
      <trkpt lat="44.51787" lon="6.74628">
        <ele>1531.4</ele>
        <time>2022-07-19T15:20:10Z</time>
      </trkpt>
      <trkpt lat="44.51788" lon="6.74626">
        <ele>1531.8</ele>
        <time>2022-07-19T15:20:11Z</time>
      </trkpt>
      <trkpt lat="44.51788" lon="6.74624">
        <ele>1531.8</ele>
        <time>2022-07-19T15:20:12Z</time>
      </trkpt>
      <trkpt lat="44.51789" lon="6.74622">
        <ele>1532.2</ele>
        <time>2022-07-19T15:20:13Z</time>
      </trkpt>
      <trkpt lat="44.5179" lon="6.7462">
        <ele>1532.2</ele>
        <time>2022-07-19T15:20:14Z</time>
      </trkpt>
      <trkpt lat="44.51791" lon="6.74618">
        <ele>1532.4</ele>
        <time>2022-07-19T15:20:15Z</time>
      </trkpt>
      <trkpt lat="44.51792" lon="6.74616">
        <ele>1532.4</ele>
        <time>2022-07-19T15:20:16Z</time>
      </trkpt>
      <trkpt lat="44.51793" lon="6.74614">
        <ele>1532.8</ele>
        <time>2022-07-19T15:20:17Z</time>
      </trkpt>
      <trkpt lat="44.51794" lon="6.74612">
        <ele>1532.8</ele>
        <time>2022-07-19T15:20:18Z</time>
      </trkpt>
      <trkpt lat="44.51794" lon="6.7461">
        <ele>1533</ele>
        <time>2022-07-19T15:20:19Z</time>
      </trkpt>
      <trkpt lat="44.51795" lon="6.74608">
        <ele>1533</ele>
        <time>2022-07-19T15:20:20Z</time>
      </trkpt>
      <trkpt lat="44.51796" lon="6.74606">
        <ele>1533.4</ele>
        <time>2022-07-19T15:20:21Z</time>
      </trkpt>
      <trkpt lat="44.51797" lon="6.74605">
        <ele>1533.4</ele>
        <time>2022-07-19T15:20:22Z</time>
      </trkpt>
      <trkpt lat="44.51799" lon="6.74603">
        <ele>1533.6</ele>
        <time>2022-07-19T15:20:23Z</time>
      </trkpt>
      <trkpt lat="44.51799" lon="6.74601">
        <ele>1533.6</ele>
        <time>2022-07-19T15:20:24Z</time>
      </trkpt>
      <trkpt lat="44.518" lon="6.74599">
        <ele>1534</ele>
        <time>2022-07-19T15:20:25Z</time>
      </trkpt>
      <trkpt lat="44.51801" lon="6.74598">
        <ele>1534</ele>
        <time>2022-07-19T15:20:26Z</time>
      </trkpt>
      <trkpt lat="44.51802" lon="6.74596">
        <ele>1534.2</ele>
        <time>2022-07-19T15:20:27Z</time>
      </trkpt>
      <trkpt lat="44.51802" lon="6.74594">
        <ele>1534.4</ele>
        <time>2022-07-19T15:20:28Z</time>
      </trkpt>
      <trkpt lat="44.51803" lon="6.74593">
        <ele>1534.4</ele>
        <time>2022-07-19T15:20:29Z</time>
      </trkpt>
      <trkpt lat="44.51804" lon="6.74592">
        <ele>1534.8</ele>
        <time>2022-07-19T15:20:30Z</time>
      </trkpt>
      <trkpt lat="44.51805" lon="6.7459">
        <ele>1535</ele>
        <time>2022-07-19T15:20:31Z</time>
      </trkpt>
      <trkpt lat="44.51806" lon="6.74589">
        <ele>1535</ele>
        <time>2022-07-19T15:20:32Z</time>
      </trkpt>
      <trkpt lat="44.51807" lon="6.74587">
        <ele>1535.2</ele>
        <time>2022-07-19T15:20:33Z</time>
      </trkpt>
      <trkpt lat="44.51808" lon="6.74586">
        <ele>1535.2</ele>
        <time>2022-07-19T15:20:34Z</time>
      </trkpt>
      <trkpt lat="44.51809" lon="6.74585">
        <ele>1535.6</ele>
        <time>2022-07-19T15:20:35Z</time>
      </trkpt>
      <trkpt lat="44.5181" lon="6.74583">
        <ele>1535.6</ele>
        <time>2022-07-19T15:20:36Z</time>
      </trkpt>
      <trkpt lat="44.51811" lon="6.74581">
        <ele>1535.8</ele>
        <time>2022-07-19T15:20:37Z</time>
      </trkpt>
      <trkpt lat="44.51812" lon="6.7458">
        <ele>1535.8</ele>
        <time>2022-07-19T15:20:38Z</time>
      </trkpt>
      <trkpt lat="44.51813" lon="6.74578">
        <ele>1536.2</ele>
        <time>2022-07-19T15:20:39Z</time>
      </trkpt>
      <trkpt lat="44.51814" lon="6.74576">
        <ele>1536.2</ele>
        <time>2022-07-19T15:20:40Z</time>
      </trkpt>
      <trkpt lat="44.51815" lon="6.74575">
        <ele>1536.4</ele>
        <time>2022-07-19T15:20:41Z</time>
      </trkpt>
      <trkpt lat="44.51816" lon="6.74573">
        <ele>1536.4</ele>
        <time>2022-07-19T15:20:42Z</time>
      </trkpt>
      <trkpt lat="44.51818" lon="6.74572">
        <ele>1536.8</ele>
        <time>2022-07-19T15:20:43Z</time>
      </trkpt>
      <trkpt lat="44.51819" lon="6.74571">
        <ele>1537</ele>
        <time>2022-07-19T15:20:44Z</time>
      </trkpt>
      <trkpt lat="44.51819" lon="6.74569">
        <ele>1537</ele>
        <time>2022-07-19T15:20:45Z</time>
      </trkpt>
      <trkpt lat="44.5182" lon="6.74568">
        <ele>1537.2</ele>
        <time>2022-07-19T15:20:46Z</time>
      </trkpt>
      <trkpt lat="44.51821" lon="6.74567">
        <ele>1537.2</ele>
        <time>2022-07-19T15:20:47Z</time>
      </trkpt>
      <trkpt lat="44.51822" lon="6.74565">
        <ele>1537.4</ele>
        <time>2022-07-19T15:20:48Z</time>
      </trkpt>
      <trkpt lat="44.51823" lon="6.74564">
        <ele>1537.4</ele>
        <time>2022-07-19T15:20:49Z</time>
      </trkpt>
      <trkpt lat="44.51825" lon="6.74563">
        <ele>1537.8</ele>
        <time>2022-07-19T15:20:50Z</time>
      </trkpt>
      <trkpt lat="44.51826" lon="6.74561">
        <ele>1537.8</ele>
        <time>2022-07-19T15:20:51Z</time>
      </trkpt>
      <trkpt lat="44.51827" lon="6.74559">
        <ele>1538</ele>
        <time>2022-07-19T15:20:52Z</time>
      </trkpt>
      <trkpt lat="44.51829" lon="6.74558">
        <ele>1538</ele>
        <time>2022-07-19T15:20:53Z</time>
      </trkpt>
      <trkpt lat="44.5183" lon="6.74556">
        <ele>1538.2</ele>
        <time>2022-07-19T15:20:54Z</time>
      </trkpt>
      <trkpt lat="44.51831" lon="6.74554">
        <ele>1538.2</ele>
        <time>2022-07-19T15:20:55Z</time>
      </trkpt>
      <trkpt lat="44.51832" lon="6.74552">
        <ele>1538.6</ele>
        <time>2022-07-19T15:20:56Z</time>
      </trkpt>
      <trkpt lat="44.51834" lon="6.7455">
        <ele>1538.6</ele>
        <time>2022-07-19T15:20:57Z</time>
      </trkpt>
      <trkpt lat="44.51835" lon="6.74549">
        <ele>1539</ele>
        <time>2022-07-19T15:20:58Z</time>
      </trkpt>
      <trkpt lat="44.51837" lon="6.74547">
        <ele>1539</ele>
        <time>2022-07-19T15:20:59Z</time>
      </trkpt>
      <trkpt lat="44.51838" lon="6.74546">
        <ele>1539.2</ele>
        <time>2022-07-19T15:21:00Z</time>
      </trkpt>
      <trkpt lat="44.5184" lon="6.74544">
        <ele>1539.2</ele>
        <time>2022-07-19T15:21:01Z</time>
      </trkpt>
      <trkpt lat="44.51842" lon="6.74543">
        <ele>1539.6</ele>
        <time>2022-07-19T15:21:02Z</time>
      </trkpt>
      <trkpt lat="44.51844" lon="6.74541">
        <ele>1539.6</ele>
        <time>2022-07-19T15:21:03Z</time>
      </trkpt>
      <trkpt lat="44.51845" lon="6.7454">
        <ele>1539.8</ele>
        <time>2022-07-19T15:21:04Z</time>
      </trkpt>
      <trkpt lat="44.51847" lon="6.74538">
        <ele>1539.8</ele>
        <time>2022-07-19T15:21:05Z</time>
      </trkpt>
      <trkpt lat="44.51849" lon="6.74536">
        <ele>1540.2</ele>
        <time>2022-07-19T15:21:06Z</time>
      </trkpt>
      <trkpt lat="44.5185" lon="6.74535">
        <ele>1540.2</ele>
        <time>2022-07-19T15:21:07Z</time>
      </trkpt>
      <trkpt lat="44.51852" lon="6.74533">
        <ele>1540.4</ele>
        <time>2022-07-19T15:21:08Z</time>
      </trkpt>
      <trkpt lat="44.51853" lon="6.74532">
        <ele>1540.8</ele>
        <time>2022-07-19T15:21:09Z</time>
      </trkpt>
      <trkpt lat="44.51855" lon="6.7453">
        <ele>1540.8</ele>
        <time>2022-07-19T15:21:10Z</time>
      </trkpt>
      <trkpt lat="44.51857" lon="6.74529">
        <ele>1541</ele>
        <time>2022-07-19T15:21:11Z</time>
      </trkpt>
      <trkpt lat="44.51859" lon="6.74527">
        <ele>1541</ele>
        <time>2022-07-19T15:21:12Z</time>
      </trkpt>
      <trkpt lat="44.5186" lon="6.74525">
        <ele>1541.4</ele>
        <time>2022-07-19T15:21:13Z</time>
      </trkpt>
      <trkpt lat="44.51862" lon="6.74523">
        <ele>1541.4</ele>
        <time>2022-07-19T15:21:14Z</time>
      </trkpt>
      <trkpt lat="44.51863" lon="6.74521">
        <ele>1541.8</ele>
        <time>2022-07-19T15:21:15Z</time>
      </trkpt>
      <trkpt lat="44.51865" lon="6.74519">
        <ele>1541.8</ele>
        <time>2022-07-19T15:21:16Z</time>
      </trkpt>
      <trkpt lat="44.51867" lon="6.74518">
        <ele>1542.2</ele>
        <time>2022-07-19T15:21:17Z</time>
      </trkpt>
      <trkpt lat="44.51869" lon="6.74517">
        <ele>1542.2</ele>
        <time>2022-07-19T15:21:18Z</time>
      </trkpt>
      <trkpt lat="44.51871" lon="6.74515">
        <ele>1542.4</ele>
        <time>2022-07-19T15:21:19Z</time>
      </trkpt>
      <trkpt lat="44.51872" lon="6.74513">
        <ele>1542.4</ele>
        <time>2022-07-19T15:21:20Z</time>
      </trkpt>
      <trkpt lat="44.51874" lon="6.74511">
        <ele>1542.6</ele>
        <time>2022-07-19T15:21:21Z</time>
      </trkpt>
      <trkpt lat="44.51876" lon="6.7451">
        <ele>1542.6</ele>
        <time>2022-07-19T15:21:22Z</time>
      </trkpt>
      <trkpt lat="44.51879" lon="6.74507">
        <ele>1543</ele>
        <time>2022-07-19T15:21:23Z</time>
      </trkpt>
      <trkpt lat="44.51881" lon="6.74506">
        <ele>1543</ele>
        <time>2022-07-19T15:21:24Z</time>
      </trkpt>
      <trkpt lat="44.51882" lon="6.74504">
        <ele>1543.4</ele>
        <time>2022-07-19T15:21:25Z</time>
      </trkpt>
      <trkpt lat="44.51884" lon="6.74502">
        <ele>1543.4</ele>
        <time>2022-07-19T15:21:26Z</time>
      </trkpt>
      <trkpt lat="44.51885" lon="6.74501">
        <ele>1543.8</ele>
        <time>2022-07-19T15:21:27Z</time>
      </trkpt>
      <trkpt lat="44.51887" lon="6.74499">
        <ele>1543.8</ele>
        <time>2022-07-19T15:21:28Z</time>
      </trkpt>
      <trkpt lat="44.51889" lon="6.74498">
        <ele>1544</ele>
        <time>2022-07-19T15:21:29Z</time>
      </trkpt>
      <trkpt lat="44.5189" lon="6.74497">
        <ele>1544</ele>
        <time>2022-07-19T15:21:30Z</time>
      </trkpt>
      <trkpt lat="44.51892" lon="6.74496">
        <ele>1544.4</ele>
        <time>2022-07-19T15:21:31Z</time>
      </trkpt>
      <trkpt lat="44.51894" lon="6.74495">
        <ele>1544.4</ele>
        <time>2022-07-19T15:21:32Z</time>
      </trkpt>
      <trkpt lat="44.51895" lon="6.74493">
        <ele>1544.6</ele>
        <time>2022-07-19T15:21:33Z</time>
      </trkpt>
      <trkpt lat="44.51897" lon="6.74491">
        <ele>1544.8</ele>
        <time>2022-07-19T15:21:34Z</time>
      </trkpt>
      <trkpt lat="44.51898" lon="6.7449">
        <ele>1544.8</ele>
        <time>2022-07-19T15:21:35Z</time>
      </trkpt>
      <trkpt lat="44.51899" lon="6.74488">
        <ele>1545.2</ele>
        <time>2022-07-19T15:21:36Z</time>
      </trkpt>
      <trkpt lat="44.51901" lon="6.74487">
        <ele>1545.2</ele>
        <time>2022-07-19T15:21:37Z</time>
      </trkpt>
      <trkpt lat="44.51902" lon="6.74486">
        <ele>1545.6</ele>
        <time>2022-07-19T15:21:38Z</time>
      </trkpt>
      <trkpt lat="44.51904" lon="6.74485">
        <ele>1545.6</ele>
        <time>2022-07-19T15:21:39Z</time>
      </trkpt>
      <trkpt lat="44.51906" lon="6.74483">
        <ele>1546</ele>
        <time>2022-07-19T15:21:40Z</time>
      </trkpt>
      <trkpt lat="44.51907" lon="6.74482">
        <ele>1546</ele>
        <time>2022-07-19T15:21:41Z</time>
      </trkpt>
      <trkpt lat="44.51909" lon="6.74481">
        <ele>1546.4</ele>
        <time>2022-07-19T15:21:42Z</time>
      </trkpt>
      <trkpt lat="44.5191" lon="6.7448">
        <ele>1546.4</ele>
        <time>2022-07-19T15:21:43Z</time>
      </trkpt>
      <trkpt lat="44.51912" lon="6.74479">
        <ele>1546.8</ele>
        <time>2022-07-19T15:21:44Z</time>
      </trkpt>
      <trkpt lat="44.51913" lon="6.74477">
        <ele>1546.8</ele>
        <time>2022-07-19T15:21:45Z</time>
      </trkpt>
      <trkpt lat="44.51915" lon="6.74476">
        <ele>1547</ele>
        <time>2022-07-19T15:21:46Z</time>
      </trkpt>
      <trkpt lat="44.51916" lon="6.74474">
        <ele>1547.2</ele>
        <time>2022-07-19T15:21:47Z</time>
      </trkpt>
      <trkpt lat="44.51918" lon="6.74473">
        <ele>1547.2</ele>
        <time>2022-07-19T15:21:48Z</time>
      </trkpt>
      <trkpt lat="44.5192" lon="6.74472">
        <ele>1547.6</ele>
        <time>2022-07-19T15:21:49Z</time>
      </trkpt>
      <trkpt lat="44.51921" lon="6.74471">
        <ele>1547.6</ele>
        <time>2022-07-19T15:21:50Z</time>
      </trkpt>
      <trkpt lat="44.51923" lon="6.7447">
        <ele>1548</ele>
        <time>2022-07-19T15:21:51Z</time>
      </trkpt>
      <trkpt lat="44.51924" lon="6.74468">
        <ele>1548</ele>
        <time>2022-07-19T15:21:52Z</time>
      </trkpt>
      <trkpt lat="44.51926" lon="6.74467">
        <ele>1548.2</ele>
        <time>2022-07-19T15:21:53Z</time>
      </trkpt>
      <trkpt lat="44.51927" lon="6.74466">
        <ele>1548.2</ele>
        <time>2022-07-19T15:21:54Z</time>
      </trkpt>
      <trkpt lat="44.51929" lon="6.74465">
        <ele>1548.6</ele>
        <time>2022-07-19T15:21:55Z</time>
      </trkpt>
      <trkpt lat="44.5193" lon="6.74463">
        <ele>1548.6</ele>
        <time>2022-07-19T15:21:56Z</time>
      </trkpt>
      <trkpt lat="44.51931" lon="6.74461">
        <ele>1548.8</ele>
        <time>2022-07-19T15:21:57Z</time>
      </trkpt>
      <trkpt lat="44.51933" lon="6.7446">
        <ele>1548.8</ele>
        <time>2022-07-19T15:21:58Z</time>
      </trkpt>
      <trkpt lat="44.51934" lon="6.74459">
        <ele>1549.2</ele>
        <time>2022-07-19T15:21:59Z</time>
      </trkpt>
      <trkpt lat="44.51936" lon="6.74457">
        <ele>1549.2</ele>
        <time>2022-07-19T15:22:00Z</time>
      </trkpt>
      <trkpt lat="44.51937" lon="6.74456">
        <ele>1549.4</ele>
        <time>2022-07-19T15:22:01Z</time>
      </trkpt>
      <trkpt lat="44.51939" lon="6.74455">
        <ele>1549.4</ele>
        <time>2022-07-19T15:22:02Z</time>
      </trkpt>
      <trkpt lat="44.5194" lon="6.74454">
        <ele>1549.6</ele>
        <time>2022-07-19T15:22:03Z</time>
      </trkpt>
      <trkpt lat="44.51942" lon="6.74452">
        <ele>1549.6</ele>
        <time>2022-07-19T15:22:04Z</time>
      </trkpt>
      <trkpt lat="44.51943" lon="6.74451">
        <ele>1550</ele>
        <time>2022-07-19T15:22:05Z</time>
      </trkpt>
      <trkpt lat="44.51945" lon="6.7445">
        <ele>1550.2</ele>
        <time>2022-07-19T15:22:06Z</time>
      </trkpt>
      <trkpt lat="44.51946" lon="6.74448">
        <ele>1550.2</ele>
        <time>2022-07-19T15:22:07Z</time>
      </trkpt>
      <trkpt lat="44.51947" lon="6.74447">
        <ele>1550.4</ele>
        <time>2022-07-19T15:22:08Z</time>
      </trkpt>
      <trkpt lat="44.51949" lon="6.74446">
        <ele>1550.4</ele>
        <time>2022-07-19T15:22:09Z</time>
      </trkpt>
      <trkpt lat="44.5195" lon="6.74445">
        <ele>1550.6</ele>
        <time>2022-07-19T15:22:10Z</time>
      </trkpt>
      <trkpt lat="44.51952" lon="6.74443">
        <ele>1550.6</ele>
        <time>2022-07-19T15:22:11Z</time>
      </trkpt>
      <trkpt lat="44.51953" lon="6.74442">
        <ele>1551</ele>
        <time>2022-07-19T15:22:12Z</time>
      </trkpt>
      <trkpt lat="44.51954" lon="6.74441">
        <ele>1551</ele>
        <time>2022-07-19T15:22:13Z</time>
      </trkpt>
      <trkpt lat="44.51956" lon="6.74439">
        <ele>1551.4</ele>
        <time>2022-07-19T15:22:14Z</time>
      </trkpt>
      <trkpt lat="44.51957" lon="6.74438">
        <ele>1551.6</ele>
        <time>2022-07-19T15:22:15Z</time>
      </trkpt>
      <trkpt lat="44.51959" lon="6.74437">
        <ele>1551.6</ele>
        <time>2022-07-19T15:22:16Z</time>
      </trkpt>
      <trkpt lat="44.5196" lon="6.74436">
        <ele>1552</ele>
        <time>2022-07-19T15:22:17Z</time>
      </trkpt>
      <trkpt lat="44.51962" lon="6.74435">
        <ele>1552</ele>
        <time>2022-07-19T15:22:18Z</time>
      </trkpt>
      <trkpt lat="44.51963" lon="6.74433">
        <ele>1552.4</ele>
        <time>2022-07-19T15:22:19Z</time>
      </trkpt>
      <trkpt lat="44.51964" lon="6.74432">
        <ele>1552.4</ele>
        <time>2022-07-19T15:22:20Z</time>
      </trkpt>
      <trkpt lat="44.51966" lon="6.74431">
        <ele>1552.6</ele>
        <time>2022-07-19T15:22:21Z</time>
      </trkpt>
      <trkpt lat="44.51967" lon="6.74429">
        <ele>1552.6</ele>
        <time>2022-07-19T15:22:22Z</time>
      </trkpt>
      <trkpt lat="44.51969" lon="6.74428">
        <ele>1553</ele>
        <time>2022-07-19T15:22:24Z</time>
      </trkpt>
      <trkpt lat="44.5197" lon="6.74427">
        <ele>1553.4</ele>
        <time>2022-07-19T15:22:25Z</time>
      </trkpt>
      <trkpt lat="44.51972" lon="6.74425">
        <ele>1553.4</ele>
        <time>2022-07-19T15:22:26Z</time>
      </trkpt>
      <trkpt lat="44.51973" lon="6.74424">
        <ele>1553.8</ele>
        <time>2022-07-19T15:22:27Z</time>
      </trkpt>
      <trkpt lat="44.51974" lon="6.74422">
        <ele>1553.8</ele>
        <time>2022-07-19T15:22:28Z</time>
      </trkpt>
      <trkpt lat="44.51976" lon="6.74421">
        <ele>1554</ele>
        <time>2022-07-19T15:22:29Z</time>
      </trkpt>
      <trkpt lat="44.51977" lon="6.7442">
        <ele>1554</ele>
        <time>2022-07-19T15:22:30Z</time>
      </trkpt>
      <trkpt lat="44.51978" lon="6.74418">
        <ele>1554.2</ele>
        <time>2022-07-19T15:22:31Z</time>
      </trkpt>
      <trkpt lat="44.5198" lon="6.74417">
        <ele>1554.4</ele>
        <time>2022-07-19T15:22:32Z</time>
      </trkpt>
      <trkpt lat="44.51981" lon="6.74415">
        <ele>1554.4</ele>
        <time>2022-07-19T15:22:33Z</time>
      </trkpt>
      <trkpt lat="44.51982" lon="6.74414">
        <ele>1554.8</ele>
        <time>2022-07-19T15:22:34Z</time>
      </trkpt>
      <trkpt lat="44.51984" lon="6.74412">
        <ele>1554.8</ele>
        <time>2022-07-19T15:22:35Z</time>
      </trkpt>
      <trkpt lat="44.51985" lon="6.74411">
        <ele>1555.2</ele>
        <time>2022-07-19T15:22:36Z</time>
      </trkpt>
      <trkpt lat="44.51987" lon="6.74409">
        <ele>1555.2</ele>
        <time>2022-07-19T15:22:37Z</time>
      </trkpt>
      <trkpt lat="44.51988" lon="6.74407">
        <ele>1555.6</ele>
        <time>2022-07-19T15:22:38Z</time>
      </trkpt>
      <trkpt lat="44.5199" lon="6.74406">
        <ele>1555.6</ele>
        <time>2022-07-19T15:22:39Z</time>
      </trkpt>
      <trkpt lat="44.51991" lon="6.74404">
        <ele>1555.8</ele>
        <time>2022-07-19T15:22:40Z</time>
      </trkpt>
      <trkpt lat="44.51992" lon="6.74402">
        <ele>1555.8</ele>
        <time>2022-07-19T15:22:41Z</time>
      </trkpt>
      <trkpt lat="44.51994" lon="6.744">
        <ele>1556.2</ele>
        <time>2022-07-19T15:22:42Z</time>
      </trkpt>
      <trkpt lat="44.51995" lon="6.74398">
        <ele>1556.2</ele>
        <time>2022-07-19T15:22:43Z</time>
      </trkpt>
      <trkpt lat="44.51996" lon="6.74397">
        <ele>1556.4</ele>
        <time>2022-07-19T15:22:44Z</time>
      </trkpt>
      <trkpt lat="44.51998" lon="6.74395">
        <ele>1556.4</ele>
        <time>2022-07-19T15:22:45Z</time>
      </trkpt>
      <trkpt lat="44.51999" lon="6.74394">
        <ele>1556.8</ele>
        <time>2022-07-19T15:22:46Z</time>
      </trkpt>
      <trkpt lat="44.52" lon="6.74393">
        <ele>1557</ele>
        <time>2022-07-19T15:22:47Z</time>
      </trkpt>
      <trkpt lat="44.52002" lon="6.74391">
        <ele>1557</ele>
        <time>2022-07-19T15:22:48Z</time>
      </trkpt>
      <trkpt lat="44.52003" lon="6.74389">
        <ele>1557.4</ele>
        <time>2022-07-19T15:22:49Z</time>
      </trkpt>
      <trkpt lat="44.52004" lon="6.74388">
        <ele>1557.4</ele>
        <time>2022-07-19T15:22:50Z</time>
      </trkpt>
      <trkpt lat="44.52005" lon="6.74386">
        <ele>1557.6</ele>
        <time>2022-07-19T15:22:51Z</time>
      </trkpt>
      <trkpt lat="44.52007" lon="6.74384">
        <ele>1557.6</ele>
        <time>2022-07-19T15:22:52Z</time>
      </trkpt>
      <trkpt lat="44.52008" lon="6.74383">
        <ele>1558</ele>
        <time>2022-07-19T15:22:53Z</time>
      </trkpt>
      <trkpt lat="44.52009" lon="6.74381">
        <ele>1558</ele>
        <time>2022-07-19T15:22:54Z</time>
      </trkpt>
      <trkpt lat="44.5201" lon="6.74379">
        <ele>1558.2</ele>
        <time>2022-07-19T15:22:55Z</time>
      </trkpt>
      <trkpt lat="44.52012" lon="6.74377">
        <ele>1558.2</ele>
        <time>2022-07-19T15:22:56Z</time>
      </trkpt>
      <trkpt lat="44.52013" lon="6.74376">
        <ele>1558.4</ele>
        <time>2022-07-19T15:22:57Z</time>
      </trkpt>
      <trkpt lat="44.52014" lon="6.74374">
        <ele>1558.8</ele>
        <time>2022-07-19T15:22:58Z</time>
      </trkpt>
      <trkpt lat="44.52015" lon="6.74372">
        <ele>1558.8</ele>
        <time>2022-07-19T15:22:59Z</time>
      </trkpt>
      <trkpt lat="44.52016" lon="6.7437">
        <ele>1559</ele>
        <time>2022-07-19T15:23:00Z</time>
      </trkpt>
      <trkpt lat="44.52017" lon="6.74368">
        <ele>1559</ele>
        <time>2022-07-19T15:23:01Z</time>
      </trkpt>
      <trkpt lat="44.52019" lon="6.74366">
        <ele>1559.2</ele>
        <time>2022-07-19T15:23:02Z</time>
      </trkpt>
      <trkpt lat="44.5202" lon="6.74364">
        <ele>1559.2</ele>
        <time>2022-07-19T15:23:03Z</time>
      </trkpt>
      <trkpt lat="44.52021" lon="6.74362">
        <ele>1559.2</ele>
        <time>2022-07-19T15:23:04Z</time>
      </trkpt>
      <trkpt lat="44.52022" lon="6.7436">
        <ele>1559.6</ele>
        <time>2022-07-19T15:23:05Z</time>
      </trkpt>
      <trkpt lat="44.52023" lon="6.74358">
        <ele>1559.6</ele>
        <time>2022-07-19T15:23:06Z</time>
      </trkpt>
      <trkpt lat="44.52024" lon="6.74356">
        <ele>1559.6</ele>
        <time>2022-07-19T15:23:07Z</time>
      </trkpt>
      <trkpt lat="44.52025" lon="6.74353">
        <ele>1560</ele>
        <time>2022-07-19T15:23:08Z</time>
      </trkpt>
      <trkpt lat="44.52026" lon="6.74351">
        <ele>1560</ele>
        <time>2022-07-19T15:23:09Z</time>
      </trkpt>
      <trkpt lat="44.52026" lon="6.74348">
        <ele>1560.2</ele>
        <time>2022-07-19T15:23:10Z</time>
      </trkpt>
      <trkpt lat="44.52027" lon="6.74345">
        <ele>1560.2</ele>
        <time>2022-07-19T15:23:11Z</time>
      </trkpt>
      <trkpt lat="44.52028" lon="6.74342">
        <ele>1560.4</ele>
        <time>2022-07-19T15:23:12Z</time>
      </trkpt>
      <trkpt lat="44.52029" lon="6.74339">
        <ele>1560.4</ele>
        <time>2022-07-19T15:23:13Z</time>
      </trkpt>
      <trkpt lat="44.5203" lon="6.74336">
        <ele>1560.6</ele>
        <time>2022-07-19T15:23:14Z</time>
      </trkpt>
      <trkpt lat="44.52031" lon="6.74333">
        <ele>1560.6</ele>
        <time>2022-07-19T15:23:15Z</time>
      </trkpt>
      <trkpt lat="44.52031" lon="6.7433">
        <ele>1560.6</ele>
        <time>2022-07-19T15:23:16Z</time>
      </trkpt>
      <trkpt lat="44.52032" lon="6.74327">
        <ele>1561</ele>
        <time>2022-07-19T15:23:17Z</time>
      </trkpt>
      <trkpt lat="44.52033" lon="6.74324">
        <ele>1561</ele>
        <time>2022-07-19T15:23:18Z</time>
      </trkpt>
      <trkpt lat="44.52034" lon="6.74321">
        <ele>1561</ele>
        <time>2022-07-19T15:23:19Z</time>
      </trkpt>
      <trkpt lat="44.52035" lon="6.74318">
        <ele>1561.4</ele>
        <time>2022-07-19T15:23:20Z</time>
      </trkpt>
      <trkpt lat="44.52035" lon="6.74315">
        <ele>1561.4</ele>
        <time>2022-07-19T15:23:21Z</time>
      </trkpt>
      <trkpt lat="44.52036" lon="6.74312">
        <ele>1561.6</ele>
        <time>2022-07-19T15:23:22Z</time>
      </trkpt>
      <trkpt lat="44.52036" lon="6.74309">
        <ele>1561.6</ele>
        <time>2022-07-19T15:23:23Z</time>
      </trkpt>
      <trkpt lat="44.52036" lon="6.74306">
        <ele>1562</ele>
        <time>2022-07-19T15:23:24Z</time>
      </trkpt>
      <trkpt lat="44.52037" lon="6.74303">
        <ele>1562</ele>
        <time>2022-07-19T15:23:25Z</time>
      </trkpt>
      <trkpt lat="44.52037" lon="6.743">
        <ele>1562.2</ele>
        <time>2022-07-19T15:23:26Z</time>
      </trkpt>
      <trkpt lat="44.52037" lon="6.74298">
        <ele>1562.2</ele>
        <time>2022-07-19T15:23:27Z</time>
      </trkpt>
      <trkpt lat="44.52037" lon="6.74295">
        <ele>1562.6</ele>
        <time>2022-07-19T15:23:28Z</time>
      </trkpt>
      <trkpt lat="44.52037" lon="6.74292">
        <ele>1562.6</ele>
        <time>2022-07-19T15:23:29Z</time>
      </trkpt>
      <trkpt lat="44.52038" lon="6.7429">
        <ele>1562.8</ele>
        <time>2022-07-19T15:23:30Z</time>
      </trkpt>
      <trkpt lat="44.52038" lon="6.74287">
        <ele>1563.2</ele>
        <time>2022-07-19T15:23:31Z</time>
      </trkpt>
      <trkpt lat="44.52038" lon="6.74284">
        <ele>1563.2</ele>
        <time>2022-07-19T15:23:32Z</time>
      </trkpt>
      <trkpt lat="44.52038" lon="6.74282">
        <ele>1563.2</ele>
        <time>2022-07-19T15:23:33Z</time>
      </trkpt>
      <trkpt lat="44.52038" lon="6.74279">
        <ele>1563.2</ele>
        <time>2022-07-19T15:23:34Z</time>
      </trkpt>
      <trkpt lat="44.52037" lon="6.74276">
        <ele>1563.4</ele>
        <time>2022-07-19T15:23:35Z</time>
      </trkpt>
      <trkpt lat="44.52037" lon="6.74273">
        <ele>1563.4</ele>
        <time>2022-07-19T15:23:36Z</time>
      </trkpt>
      <trkpt lat="44.52037" lon="6.74271">
        <ele>1563.6</ele>
        <time>2022-07-19T15:23:37Z</time>
      </trkpt>
      <trkpt lat="44.52037" lon="6.74268">
        <ele>1563.6</ele>
        <time>2022-07-19T15:23:38Z</time>
      </trkpt>
      <trkpt lat="44.52037" lon="6.74265">
        <ele>1563.6</ele>
        <time>2022-07-19T15:23:39Z</time>
      </trkpt>
      <trkpt lat="44.52037" lon="6.74262">
        <ele>1564</ele>
        <time>2022-07-19T15:23:40Z</time>
      </trkpt>
      <trkpt lat="44.52037" lon="6.7426">
        <ele>1564</ele>
        <time>2022-07-19T15:23:41Z</time>
      </trkpt>
      <trkpt lat="44.52036" lon="6.74257">
        <ele>1564.2</ele>
        <time>2022-07-19T15:23:42Z</time>
      </trkpt>
      <trkpt lat="44.52036" lon="6.74254">
        <ele>1564.2</ele>
        <time>2022-07-19T15:23:43Z</time>
      </trkpt>
      <trkpt lat="44.52036" lon="6.74251">
        <ele>1564.2</ele>
        <time>2022-07-19T15:23:44Z</time>
      </trkpt>
      <trkpt lat="44.52035" lon="6.74248">
        <ele>1564.4</ele>
        <time>2022-07-19T15:23:45Z</time>
      </trkpt>
      <trkpt lat="44.52035" lon="6.74245">
        <ele>1564.4</ele>
        <time>2022-07-19T15:23:46Z</time>
      </trkpt>
      <trkpt lat="44.52035" lon="6.74243">
        <ele>1564.4</ele>
        <time>2022-07-19T15:23:47Z</time>
      </trkpt>
      <trkpt lat="44.52034" lon="6.7424">
        <ele>1564.8</ele>
        <time>2022-07-19T15:23:48Z</time>
      </trkpt>
      <trkpt lat="44.52034" lon="6.74237">
        <ele>1564.8</ele>
        <time>2022-07-19T15:23:49Z</time>
      </trkpt>
      <trkpt lat="44.52034" lon="6.74234">
        <ele>1565</ele>
        <time>2022-07-19T15:23:50Z</time>
      </trkpt>
      <trkpt lat="44.52033" lon="6.74231">
        <ele>1565</ele>
        <time>2022-07-19T15:23:51Z</time>
      </trkpt>
      <trkpt lat="44.52033" lon="6.74228">
        <ele>1565.4</ele>
        <time>2022-07-19T15:23:52Z</time>
      </trkpt>
      <trkpt lat="44.52032" lon="6.74226">
        <ele>1565.4</ele>
        <time>2022-07-19T15:23:53Z</time>
      </trkpt>
      <trkpt lat="44.52031" lon="6.74223">
        <ele>1565.4</ele>
        <time>2022-07-19T15:23:54Z</time>
      </trkpt>
      <trkpt lat="44.52031" lon="6.7422">
        <ele>1565.6</ele>
        <time>2022-07-19T15:23:55Z</time>
      </trkpt>
      <trkpt lat="44.5203" lon="6.74217">
        <ele>1565.6</ele>
        <time>2022-07-19T15:23:56Z</time>
      </trkpt>
      <trkpt lat="44.5203" lon="6.74215">
        <ele>1565.8</ele>
        <time>2022-07-19T15:23:57Z</time>
      </trkpt>
      <trkpt lat="44.5203" lon="6.74212">
        <ele>1565.8</ele>
        <time>2022-07-19T15:23:58Z</time>
      </trkpt>
      <trkpt lat="44.5203" lon="6.74209">
        <ele>1566</ele>
        <time>2022-07-19T15:23:59Z</time>
      </trkpt>
      <trkpt lat="44.5203" lon="6.74206">
        <ele>1566</ele>
        <time>2022-07-19T15:24:00Z</time>
      </trkpt>
      <trkpt lat="44.5203" lon="6.74204">
        <ele>1566.4</ele>
        <time>2022-07-19T15:24:01Z</time>
      </trkpt>
      <trkpt lat="44.52029" lon="6.74201">
        <ele>1566.4</ele>
        <time>2022-07-19T15:24:02Z</time>
      </trkpt>
      <trkpt lat="44.52029" lon="6.74198">
        <ele>1566.6</ele>
        <time>2022-07-19T15:24:03Z</time>
      </trkpt>
      <trkpt lat="44.52029" lon="6.74195">
        <ele>1566.6</ele>
        <time>2022-07-19T15:24:04Z</time>
      </trkpt>
      <trkpt lat="44.52028" lon="6.74192">
        <ele>1566.6</ele>
        <time>2022-07-19T15:24:05Z</time>
      </trkpt>
      <trkpt lat="44.52027" lon="6.74189">
        <ele>1567</ele>
        <time>2022-07-19T15:24:06Z</time>
      </trkpt>
      <trkpt lat="44.52027" lon="6.74187">
        <ele>1567</ele>
        <time>2022-07-19T15:24:07Z</time>
      </trkpt>
      <trkpt lat="44.52026" lon="6.74184">
        <ele>1567</ele>
        <time>2022-07-19T15:24:08Z</time>
      </trkpt>
      <trkpt lat="44.52025" lon="6.74181">
        <ele>1567.2</ele>
        <time>2022-07-19T15:24:09Z</time>
      </trkpt>
      <trkpt lat="44.52025" lon="6.74178">
        <ele>1567.2</ele>
        <time>2022-07-19T15:24:10Z</time>
      </trkpt>
      <trkpt lat="44.52024" lon="6.74175">
        <ele>1567.6</ele>
        <time>2022-07-19T15:24:11Z</time>
      </trkpt>
      <trkpt lat="44.52024" lon="6.74172">
        <ele>1567.6</ele>
        <time>2022-07-19T15:24:12Z</time>
      </trkpt>
      <trkpt lat="44.52023" lon="6.74169">
        <ele>1567.8</ele>
        <time>2022-07-19T15:24:13Z</time>
      </trkpt>
      <trkpt lat="44.52022" lon="6.74167">
        <ele>1567.8</ele>
        <time>2022-07-19T15:24:14Z</time>
      </trkpt>
      <trkpt lat="44.52021" lon="6.74164">
        <ele>1567.8</ele>
        <time>2022-07-19T15:24:15Z</time>
      </trkpt>
      <trkpt lat="44.52021" lon="6.74161">
        <ele>1568.2</ele>
        <time>2022-07-19T15:24:16Z</time>
      </trkpt>
      <trkpt lat="44.5202" lon="6.74158">
        <ele>1568.2</ele>
        <time>2022-07-19T15:24:17Z</time>
      </trkpt>
      <trkpt lat="44.52019" lon="6.74156">
        <ele>1568.4</ele>
        <time>2022-07-19T15:24:18Z</time>
      </trkpt>
      <trkpt lat="44.52019" lon="6.74153">
        <ele>1568.4</ele>
        <time>2022-07-19T15:24:19Z</time>
      </trkpt>
      <trkpt lat="44.52018" lon="6.7415">
        <ele>1568.6</ele>
        <time>2022-07-19T15:24:20Z</time>
      </trkpt>
      <trkpt lat="44.52017" lon="6.74148">
        <ele>1568.6</ele>
        <time>2022-07-19T15:24:21Z</time>
      </trkpt>
      <trkpt lat="44.52017" lon="6.74145">
        <ele>1568.6</ele>
        <time>2022-07-19T15:24:22Z</time>
      </trkpt>
      <trkpt lat="44.52016" lon="6.74142">
        <ele>1569</ele>
        <time>2022-07-19T15:24:23Z</time>
      </trkpt>
      <trkpt lat="44.52016" lon="6.74139">
        <ele>1569.2</ele>
        <time>2022-07-19T15:24:24Z</time>
      </trkpt>
      <trkpt lat="44.52015" lon="6.74137">
        <ele>1569.2</ele>
        <time>2022-07-19T15:24:25Z</time>
      </trkpt>
      <trkpt lat="44.52014" lon="6.74134">
        <ele>1569.6</ele>
        <time>2022-07-19T15:24:26Z</time>
      </trkpt>
      <trkpt lat="44.52014" lon="6.74131">
        <ele>1569.6</ele>
        <time>2022-07-19T15:24:27Z</time>
      </trkpt>
      <trkpt lat="44.52013" lon="6.74128">
        <ele>1569.8</ele>
        <time>2022-07-19T15:24:28Z</time>
      </trkpt>
      <trkpt lat="44.52012" lon="6.74125">
        <ele>1570</ele>
        <time>2022-07-19T15:24:29Z</time>
      </trkpt>
      <trkpt lat="44.52011" lon="6.74123">
        <ele>1570</ele>
        <time>2022-07-19T15:24:30Z</time>
      </trkpt>
      <trkpt lat="44.52011" lon="6.7412">
        <ele>1570.4</ele>
        <time>2022-07-19T15:24:31Z</time>
      </trkpt>
      <trkpt lat="44.52011" lon="6.74117">
        <ele>1570.4</ele>
        <time>2022-07-19T15:24:32Z</time>
      </trkpt>
      <trkpt lat="44.52011" lon="6.74114">
        <ele>1570.6</ele>
        <time>2022-07-19T15:24:33Z</time>
      </trkpt>
      <trkpt lat="44.52011" lon="6.74112">
        <ele>1571</ele>
        <time>2022-07-19T15:24:34Z</time>
      </trkpt>
      <trkpt lat="44.52011" lon="6.74109">
        <ele>1571.2</ele>
        <time>2022-07-19T15:24:35Z</time>
      </trkpt>
      <trkpt lat="44.52011" lon="6.74106">
        <ele>1571.2</ele>
        <time>2022-07-19T15:24:36Z</time>
      </trkpt>
      <trkpt lat="44.52012" lon="6.74103">
        <ele>1571.6</ele>
        <time>2022-07-19T15:24:37Z</time>
      </trkpt>
      <trkpt lat="44.52012" lon="6.741">
        <ele>1571.6</ele>
        <time>2022-07-19T15:24:38Z</time>
      </trkpt>
      <trkpt lat="44.52012" lon="6.74097">
        <ele>1571.8</ele>
        <time>2022-07-19T15:24:39Z</time>
      </trkpt>
      <trkpt lat="44.52013" lon="6.74095">
        <ele>1571.8</ele>
        <time>2022-07-19T15:24:40Z</time>
      </trkpt>
      <trkpt lat="44.52013" lon="6.74092">
        <ele>1572.2</ele>
        <time>2022-07-19T15:24:41Z</time>
      </trkpt>
      <trkpt lat="44.52014" lon="6.7409">
        <ele>1572.2</ele>
        <time>2022-07-19T15:24:42Z</time>
      </trkpt>
      <trkpt lat="44.52015" lon="6.74087">
        <ele>1572.4</ele>
        <time>2022-07-19T15:24:43Z</time>
      </trkpt>
      <trkpt lat="44.52016" lon="6.74085">
        <ele>1572.4</ele>
        <time>2022-07-19T15:24:44Z</time>
      </trkpt>
      <trkpt lat="44.52016" lon="6.74082">
        <ele>1572.8</ele>
        <time>2022-07-19T15:24:45Z</time>
      </trkpt>
      <trkpt lat="44.52017" lon="6.7408">
        <ele>1572.8</ele>
        <time>2022-07-19T15:24:46Z</time>
      </trkpt>
      <trkpt lat="44.52019" lon="6.74078">
        <ele>1573</ele>
        <time>2022-07-19T15:24:47Z</time>
      </trkpt>
      <trkpt lat="44.5202" lon="6.74076">
        <ele>1573</ele>
        <time>2022-07-19T15:24:48Z</time>
      </trkpt>
      <trkpt lat="44.52021" lon="6.74074">
        <ele>1573.4</ele>
        <time>2022-07-19T15:24:49Z</time>
      </trkpt>
      <trkpt lat="44.52022" lon="6.74071">
        <ele>1573.4</ele>
        <time>2022-07-19T15:24:50Z</time>
      </trkpt>
      <trkpt lat="44.52023" lon="6.74069">
        <ele>1573.6</ele>
        <time>2022-07-19T15:24:51Z</time>
      </trkpt>
      <trkpt lat="44.52025" lon="6.74068">
        <ele>1573.6</ele>
        <time>2022-07-19T15:24:52Z</time>
      </trkpt>
      <trkpt lat="44.52026" lon="6.74066">
        <ele>1574</ele>
        <time>2022-07-19T15:24:53Z</time>
      </trkpt>
      <trkpt lat="44.52028" lon="6.74064">
        <ele>1574</ele>
        <time>2022-07-19T15:24:54Z</time>
      </trkpt>
      <trkpt lat="44.52029" lon="6.74062">
        <ele>1574.2</ele>
        <time>2022-07-19T15:24:55Z</time>
      </trkpt>
      <trkpt lat="44.52031" lon="6.7406">
        <ele>1574.4</ele>
        <time>2022-07-19T15:24:56Z</time>
      </trkpt>
      <trkpt lat="44.52032" lon="6.74059">
        <ele>1574.4</ele>
        <time>2022-07-19T15:24:57Z</time>
      </trkpt>
      <trkpt lat="44.52034" lon="6.74057">
        <ele>1574.6</ele>
        <time>2022-07-19T15:24:58Z</time>
      </trkpt>
      <trkpt lat="44.52036" lon="6.74056">
        <ele>1574.6</ele>
        <time>2022-07-19T15:24:59Z</time>
      </trkpt>
      <trkpt lat="44.52038" lon="6.74055">
        <ele>1574.6</ele>
        <time>2022-07-19T15:25:00Z</time>
      </trkpt>
      <trkpt lat="44.5204" lon="6.74053">
        <ele>1575</ele>
        <time>2022-07-19T15:25:01Z</time>
      </trkpt>
      <trkpt lat="44.52042" lon="6.74052">
        <ele>1575.2</ele>
        <time>2022-07-19T15:25:02Z</time>
      </trkpt>
      <trkpt lat="44.52044" lon="6.74051">
        <ele>1575.2</ele>
        <time>2022-07-19T15:25:03Z</time>
      </trkpt>
      <trkpt lat="44.52046" lon="6.74051">
        <ele>1575.4</ele>
        <time>2022-07-19T15:25:04Z</time>
      </trkpt>
      <trkpt lat="44.52048" lon="6.7405">
        <ele>1575.4</ele>
        <time>2022-07-19T15:25:05Z</time>
      </trkpt>
      <trkpt lat="44.5205" lon="6.74049">
        <ele>1575.4</ele>
        <time>2022-07-19T15:25:06Z</time>
      </trkpt>
      <trkpt lat="44.52052" lon="6.74049">
        <ele>1575.8</ele>
        <time>2022-07-19T15:25:07Z</time>
      </trkpt>
      <trkpt lat="44.52054" lon="6.74049">
        <ele>1575.8</ele>
        <time>2022-07-19T15:25:08Z</time>
      </trkpt>
      <trkpt lat="44.52056" lon="6.74049">
        <ele>1575.8</ele>
        <time>2022-07-19T15:25:09Z</time>
      </trkpt>
      <trkpt lat="44.52059" lon="6.74049">
        <ele>1576</ele>
        <time>2022-07-19T15:25:10Z</time>
      </trkpt>
      <trkpt lat="44.52061" lon="6.74049">
        <ele>1576</ele>
        <time>2022-07-19T15:25:11Z</time>
      </trkpt>
      <trkpt lat="44.52063" lon="6.74049">
        <ele>1576</ele>
        <time>2022-07-19T15:25:12Z</time>
      </trkpt>
      <trkpt lat="44.52065" lon="6.7405">
        <ele>1576</ele>
        <time>2022-07-19T15:25:13Z</time>
      </trkpt>
      <trkpt lat="44.52068" lon="6.7405">
        <ele>1576.2</ele>
        <time>2022-07-19T15:25:14Z</time>
      </trkpt>
      <trkpt lat="44.5207" lon="6.74051">
        <ele>1576.2</ele>
        <time>2022-07-19T15:25:15Z</time>
      </trkpt>
      <trkpt lat="44.52072" lon="6.74051">
        <ele>1576.2</ele>
        <time>2022-07-19T15:25:16Z</time>
      </trkpt>
      <trkpt lat="44.52075" lon="6.74052">
        <ele>1576.2</ele>
        <time>2022-07-19T15:25:17Z</time>
      </trkpt>
      <trkpt lat="44.52077" lon="6.74052">
        <ele>1576.4</ele>
        <time>2022-07-19T15:25:18Z</time>
      </trkpt>
      <trkpt lat="44.52079" lon="6.74053">
        <ele>1576.4</ele>
        <time>2022-07-19T15:25:19Z</time>
      </trkpt>
      <trkpt lat="44.52081" lon="6.74053">
        <ele>1576.4</ele>
        <time>2022-07-19T15:25:20Z</time>
      </trkpt>
      <trkpt lat="44.52084" lon="6.74054">
        <ele>1576.4</ele>
        <time>2022-07-19T15:25:21Z</time>
      </trkpt>
      <trkpt lat="44.52086" lon="6.74055">
        <ele>1576.4</ele>
        <time>2022-07-19T15:25:22Z</time>
      </trkpt>
      <trkpt lat="44.52088" lon="6.74055">
        <ele>1576.6</ele>
        <time>2022-07-19T15:25:23Z</time>
      </trkpt>
      <trkpt lat="44.52091" lon="6.74056">
        <ele>1576.6</ele>
        <time>2022-07-19T15:25:24Z</time>
      </trkpt>
      <trkpt lat="44.52093" lon="6.74056">
        <ele>1576.6</ele>
        <time>2022-07-19T15:25:25Z</time>
      </trkpt>
      <trkpt lat="44.52096" lon="6.74057">
        <ele>1576.6</ele>
        <time>2022-07-19T15:25:26Z</time>
      </trkpt>
      <trkpt lat="44.52098" lon="6.74058">
        <ele>1576.6</ele>
        <time>2022-07-19T15:25:27Z</time>
      </trkpt>
      <trkpt lat="44.521" lon="6.74058">
        <ele>1576.6</ele>
        <time>2022-07-19T15:25:28Z</time>
      </trkpt>
      <trkpt lat="44.52103" lon="6.74059">
        <ele>1576.6</ele>
        <time>2022-07-19T15:25:29Z</time>
      </trkpt>
      <trkpt lat="44.52105" lon="6.7406">
        <ele>1576.6</ele>
        <time>2022-07-19T15:25:30Z</time>
      </trkpt>
      <trkpt lat="44.52107" lon="6.7406">
        <ele>1577</ele>
        <time>2022-07-19T15:25:31Z</time>
      </trkpt>
      <trkpt lat="44.5211" lon="6.74061">
        <ele>1577</ele>
        <time>2022-07-19T15:25:32Z</time>
      </trkpt>
      <trkpt lat="44.52112" lon="6.74061">
        <ele>1577.2</ele>
        <time>2022-07-19T15:25:33Z</time>
      </trkpt>
      <trkpt lat="44.52114" lon="6.74061">
        <ele>1577.2</ele>
        <time>2022-07-19T15:25:34Z</time>
      </trkpt>
      <trkpt lat="44.52116" lon="6.74062">
        <ele>1577.2</ele>
        <time>2022-07-19T15:25:35Z</time>
      </trkpt>
      <trkpt lat="44.52118" lon="6.74062">
        <ele>1577.6</ele>
        <time>2022-07-19T15:25:36Z</time>
      </trkpt>
      <trkpt lat="44.5212" lon="6.74062">
        <ele>1577.6</ele>
        <time>2022-07-19T15:25:37Z</time>
      </trkpt>
      <trkpt lat="44.52122" lon="6.74062">
        <ele>1577.8</ele>
        <time>2022-07-19T15:25:38Z</time>
      </trkpt>
      <trkpt lat="44.52124" lon="6.74062">
        <ele>1578</ele>
        <time>2022-07-19T15:25:39Z</time>
      </trkpt>
      <trkpt lat="44.52125" lon="6.74062">
        <ele>1578</ele>
        <time>2022-07-19T15:25:40Z</time>
      </trkpt>
      <trkpt lat="44.52126" lon="6.74062">
        <ele>1578</ele>
        <time>2022-07-19T15:25:41Z</time>
      </trkpt>
      <trkpt lat="44.52127" lon="6.74062">
        <ele>1578.4</ele>
        <time>2022-07-19T15:25:42Z</time>
      </trkpt>
      <trkpt lat="44.52127" lon="6.74062">
        <ele>1578.4</ele>
        <time>2022-07-19T15:25:43Z</time>
      </trkpt>
      <trkpt lat="44.5213" lon="6.74062">
        <ele>1578.6</ele>
        <time>2022-07-19T15:25:48Z</time>
      </trkpt>
      <trkpt lat="44.52131" lon="6.74061">
        <ele>1578.6</ele>
        <time>2022-07-19T15:25:49Z</time>
      </trkpt>
      <trkpt lat="44.52132" lon="6.74061">
        <ele>1578.6</ele>
        <time>2022-07-19T15:25:50Z</time>
      </trkpt>
      <trkpt lat="44.52133" lon="6.7406">
        <ele>1578.6</ele>
        <time>2022-07-19T15:25:51Z</time>
      </trkpt>
      <trkpt lat="44.52134" lon="6.7406">
        <ele>1578.6</ele>
        <time>2022-07-19T15:25:52Z</time>
      </trkpt>
      <trkpt lat="44.52135" lon="6.74059">
        <ele>1578.8</ele>
        <time>2022-07-19T15:25:53Z</time>
      </trkpt>
      <trkpt lat="44.52136" lon="6.74059">
        <ele>1578.8</ele>
        <time>2022-07-19T15:25:54Z</time>
      </trkpt>
      <trkpt lat="44.52137" lon="6.74059">
        <ele>1578.8</ele>
        <time>2022-07-19T15:25:55Z</time>
      </trkpt>
      <trkpt lat="44.52139" lon="6.74058">
        <ele>1579</ele>
        <time>2022-07-19T15:25:56Z</time>
      </trkpt>
      <trkpt lat="44.5214" lon="6.74058">
        <ele>1579</ele>
        <time>2022-07-19T15:25:57Z</time>
      </trkpt>
      <trkpt lat="44.52141" lon="6.74057">
        <ele>1579</ele>
        <time>2022-07-19T15:25:58Z</time>
      </trkpt>
      <trkpt lat="44.52142" lon="6.74056">
        <ele>1579.4</ele>
        <time>2022-07-19T15:25:59Z</time>
      </trkpt>
      <trkpt lat="44.52143" lon="6.74055">
        <ele>1579.4</ele>
        <time>2022-07-19T15:26:00Z</time>
      </trkpt>
      <trkpt lat="44.52144" lon="6.74055">
        <ele>1579.6</ele>
        <time>2022-07-19T15:26:01Z</time>
      </trkpt>
      <trkpt lat="44.52145" lon="6.74054">
        <ele>1579.6</ele>
        <time>2022-07-19T15:26:02Z</time>
      </trkpt>
      <trkpt lat="44.52146" lon="6.74053">
        <ele>1579.6</ele>
        <time>2022-07-19T15:26:03Z</time>
      </trkpt>
      <trkpt lat="44.52148" lon="6.74052">
        <ele>1579.6</ele>
        <time>2022-07-19T15:26:04Z</time>
      </trkpt>
      <trkpt lat="44.52149" lon="6.74051">
        <ele>1579.6</ele>
        <time>2022-07-19T15:26:05Z</time>
      </trkpt>
      <trkpt lat="44.5215" lon="6.7405">
        <ele>1579.8</ele>
        <time>2022-07-19T15:26:06Z</time>
      </trkpt>
      <trkpt lat="44.52151" lon="6.74049">
        <ele>1579.8</ele>
        <time>2022-07-19T15:26:07Z</time>
      </trkpt>
      <trkpt lat="44.52152" lon="6.74048">
        <ele>1580</ele>
        <time>2022-07-19T15:26:08Z</time>
      </trkpt>
      <trkpt lat="44.52153" lon="6.74047">
        <ele>1580</ele>
        <time>2022-07-19T15:26:09Z</time>
      </trkpt>
      <trkpt lat="44.52154" lon="6.74046">
        <ele>1580</ele>
        <time>2022-07-19T15:26:10Z</time>
      </trkpt>
      <trkpt lat="44.52154" lon="6.74045">
        <ele>1580</ele>
        <time>2022-07-19T15:26:11Z</time>
      </trkpt>
      <trkpt lat="44.52155" lon="6.74044">
        <ele>1580.2</ele>
        <time>2022-07-19T15:26:12Z</time>
      </trkpt>
      <trkpt lat="44.52156" lon="6.74043">
        <ele>1580.2</ele>
        <time>2022-07-19T15:26:13Z</time>
      </trkpt>
      <trkpt lat="44.52157" lon="6.74041">
        <ele>1580.2</ele>
        <time>2022-07-19T15:26:14Z</time>
      </trkpt>
      <trkpt lat="44.52158" lon="6.7404">
        <ele>1580.2</ele>
        <time>2022-07-19T15:26:15Z</time>
      </trkpt>
      <trkpt lat="44.52159" lon="6.74039">
        <ele>1580.6</ele>
        <time>2022-07-19T15:26:16Z</time>
      </trkpt>
      <trkpt lat="44.52159" lon="6.74037">
        <ele>1580.6</ele>
        <time>2022-07-19T15:26:17Z</time>
      </trkpt>
      <trkpt lat="44.5216" lon="6.74036">
        <ele>1580.8</ele>
        <time>2022-07-19T15:26:18Z</time>
      </trkpt>
      <trkpt lat="44.52161" lon="6.74034">
        <ele>1580.8</ele>
        <time>2022-07-19T15:26:19Z</time>
      </trkpt>
      <trkpt lat="44.52162" lon="6.74033">
        <ele>1581</ele>
        <time>2022-07-19T15:26:20Z</time>
      </trkpt>
      <trkpt lat="44.52162" lon="6.74032">
        <ele>1581</ele>
        <time>2022-07-19T15:26:21Z</time>
      </trkpt>
      <trkpt lat="44.52163" lon="6.7403">
        <ele>1581</ele>
        <time>2022-07-19T15:26:22Z</time>
      </trkpt>
      <trkpt lat="44.52164" lon="6.74029">
        <ele>1581</ele>
        <time>2022-07-19T15:26:23Z</time>
      </trkpt>
      <trkpt lat="44.52164" lon="6.74027">
        <ele>1581.4</ele>
        <time>2022-07-19T15:26:24Z</time>
      </trkpt>
      <trkpt lat="44.52165" lon="6.74026">
        <ele>1581.4</ele>
        <time>2022-07-19T15:26:25Z</time>
      </trkpt>
      <trkpt lat="44.52166" lon="6.74025">
        <ele>1581.4</ele>
        <time>2022-07-19T15:26:26Z</time>
      </trkpt>
      <trkpt lat="44.52166" lon="6.74023">
        <ele>1581.8</ele>
        <time>2022-07-19T15:26:27Z</time>
      </trkpt>
      <trkpt lat="44.52167" lon="6.74021">
        <ele>1581.8</ele>
        <time>2022-07-19T15:26:28Z</time>
      </trkpt>
      <trkpt lat="44.52168" lon="6.7402">
        <ele>1582</ele>
        <time>2022-07-19T15:26:29Z</time>
      </trkpt>
      <trkpt lat="44.52168" lon="6.74018">
        <ele>1582</ele>
        <time>2022-07-19T15:26:30Z</time>
      </trkpt>
      <trkpt lat="44.52169" lon="6.74017">
        <ele>1582.2</ele>
        <time>2022-07-19T15:26:31Z</time>
      </trkpt>
      <trkpt lat="44.52169" lon="6.74015">
        <ele>1582.2</ele>
        <time>2022-07-19T15:26:32Z</time>
      </trkpt>
      <trkpt lat="44.5217" lon="6.74014">
        <ele>1582.2</ele>
        <time>2022-07-19T15:26:33Z</time>
      </trkpt>
      <trkpt lat="44.52171" lon="6.74012">
        <ele>1582.2</ele>
        <time>2022-07-19T15:26:34Z</time>
      </trkpt>
      <trkpt lat="44.52172" lon="6.74011">
        <ele>1582.6</ele>
        <time>2022-07-19T15:26:35Z</time>
      </trkpt>
      <trkpt lat="44.52173" lon="6.7401">
        <ele>1582.6</ele>
        <time>2022-07-19T15:26:36Z</time>
      </trkpt>
      <trkpt lat="44.52174" lon="6.74009">
        <ele>1582.6</ele>
        <time>2022-07-19T15:26:37Z</time>
      </trkpt>
      <trkpt lat="44.52174" lon="6.74007">
        <ele>1582.6</ele>
        <time>2022-07-19T15:26:38Z</time>
      </trkpt>
      <trkpt lat="44.52175" lon="6.74005">
        <ele>1582.8</ele>
        <time>2022-07-19T15:26:39Z</time>
      </trkpt>
      <trkpt lat="44.52175" lon="6.74004">
        <ele>1582.8</ele>
        <time>2022-07-19T15:26:40Z</time>
      </trkpt>
      <trkpt lat="44.52176" lon="6.74002">
        <ele>1582.8</ele>
        <time>2022-07-19T15:26:41Z</time>
      </trkpt>
      <trkpt lat="44.52177" lon="6.74">
        <ele>1583</ele>
        <time>2022-07-19T15:26:42Z</time>
      </trkpt>
      <trkpt lat="44.52177" lon="6.73999">
        <ele>1583</ele>
        <time>2022-07-19T15:26:43Z</time>
      </trkpt>
      <trkpt lat="44.52178" lon="6.73997">
        <ele>1583.4</ele>
        <time>2022-07-19T15:26:44Z</time>
      </trkpt>
      <trkpt lat="44.52179" lon="6.73996">
        <ele>1583.4</ele>
        <time>2022-07-19T15:26:45Z</time>
      </trkpt>
      <trkpt lat="44.52179" lon="6.73994">
        <ele>1583.6</ele>
        <time>2022-07-19T15:26:46Z</time>
      </trkpt>
      <trkpt lat="44.5218" lon="6.73993">
        <ele>1583.6</ele>
        <time>2022-07-19T15:26:47Z</time>
      </trkpt>
      <trkpt lat="44.5218" lon="6.73991">
        <ele>1583.6</ele>
        <time>2022-07-19T15:26:48Z</time>
      </trkpt>
      <trkpt lat="44.52181" lon="6.7399">
        <ele>1583.6</ele>
        <time>2022-07-19T15:26:49Z</time>
      </trkpt>
      <trkpt lat="44.52182" lon="6.73989">
        <ele>1583.8</ele>
        <time>2022-07-19T15:26:50Z</time>
      </trkpt>
      <trkpt lat="44.52183" lon="6.73988">
        <ele>1583.8</ele>
        <time>2022-07-19T15:26:51Z</time>
      </trkpt>
      <trkpt lat="44.52184" lon="6.73986">
        <ele>1583.8</ele>
        <time>2022-07-19T15:26:52Z</time>
      </trkpt>
      <trkpt lat="44.52185" lon="6.73985">
        <ele>1584</ele>
        <time>2022-07-19T15:26:53Z</time>
      </trkpt>
      <trkpt lat="44.52185" lon="6.73984">
        <ele>1584</ele>
        <time>2022-07-19T15:26:54Z</time>
      </trkpt>
      <trkpt lat="44.52186" lon="6.73982">
        <ele>1584</ele>
        <time>2022-07-19T15:26:55Z</time>
      </trkpt>
      <trkpt lat="44.52187" lon="6.73981">
        <ele>1584</ele>
        <time>2022-07-19T15:26:56Z</time>
      </trkpt>
      <trkpt lat="44.52187" lon="6.73979">
        <ele>1584.4</ele>
        <time>2022-07-19T15:26:57Z</time>
      </trkpt>
      <trkpt lat="44.52188" lon="6.73977">
        <ele>1584.4</ele>
        <time>2022-07-19T15:26:58Z</time>
      </trkpt>
      <trkpt lat="44.52189" lon="6.73976">
        <ele>1584.6</ele>
        <time>2022-07-19T15:26:59Z</time>
      </trkpt>
      <trkpt lat="44.52189" lon="6.73974">
        <ele>1584.6</ele>
        <time>2022-07-19T15:27:00Z</time>
      </trkpt>
      <trkpt lat="44.5219" lon="6.73973">
        <ele>1584.6</ele>
        <time>2022-07-19T15:27:01Z</time>
      </trkpt>
      <trkpt lat="44.52191" lon="6.73971">
        <ele>1584.6</ele>
        <time>2022-07-19T15:27:02Z</time>
      </trkpt>
      <trkpt lat="44.52192" lon="6.7397">
        <ele>1584.6</ele>
        <time>2022-07-19T15:27:03Z</time>
      </trkpt>
      <trkpt lat="44.52193" lon="6.73969">
        <ele>1584.6</ele>
        <time>2022-07-19T15:27:04Z</time>
      </trkpt>
      <trkpt lat="44.52194" lon="6.73968">
        <ele>1584.8</ele>
        <time>2022-07-19T15:27:05Z</time>
      </trkpt>
      <trkpt lat="44.52195" lon="6.73966">
        <ele>1584.8</ele>
        <time>2022-07-19T15:27:06Z</time>
      </trkpt>
      <trkpt lat="44.52196" lon="6.73965">
        <ele>1584.8</ele>
        <time>2022-07-19T15:27:07Z</time>
      </trkpt>
      <trkpt lat="44.52197" lon="6.73964">
        <ele>1585</ele>
        <time>2022-07-19T15:27:08Z</time>
      </trkpt>
      <trkpt lat="44.52198" lon="6.73963">
        <ele>1585</ele>
        <time>2022-07-19T15:27:09Z</time>
      </trkpt>
      <trkpt lat="44.52199" lon="6.73962">
        <ele>1585</ele>
        <time>2022-07-19T15:27:10Z</time>
      </trkpt>
      <trkpt lat="44.522" lon="6.73961">
        <ele>1585.2</ele>
        <time>2022-07-19T15:27:11Z</time>
      </trkpt>
      <trkpt lat="44.52201" lon="6.7396">
        <ele>1585.2</ele>
        <time>2022-07-19T15:27:12Z</time>
      </trkpt>
      <trkpt lat="44.52202" lon="6.73959">
        <ele>1585.2</ele>
        <time>2022-07-19T15:27:13Z</time>
      </trkpt>
      <trkpt lat="44.52203" lon="6.73958">
        <ele>1585.2</ele>
        <time>2022-07-19T15:27:14Z</time>
      </trkpt>
      <trkpt lat="44.52204" lon="6.73957">
        <ele>1585.4</ele>
        <time>2022-07-19T15:27:15Z</time>
      </trkpt>
      <trkpt lat="44.52205" lon="6.73956">
        <ele>1585.4</ele>
        <time>2022-07-19T15:27:16Z</time>
      </trkpt>
      <trkpt lat="44.52206" lon="6.73955">
        <ele>1585.8</ele>
        <time>2022-07-19T15:27:17Z</time>
      </trkpt>
      <trkpt lat="44.52207" lon="6.73954">
        <ele>1585.8</ele>
        <time>2022-07-19T15:27:18Z</time>
      </trkpt>
      <trkpt lat="44.52209" lon="6.73953">
        <ele>1586</ele>
        <time>2022-07-19T15:27:19Z</time>
      </trkpt>
      <trkpt lat="44.5221" lon="6.73953">
        <ele>1586</ele>
        <time>2022-07-19T15:27:20Z</time>
      </trkpt>
      <trkpt lat="44.52211" lon="6.73952">
        <ele>1586</ele>
        <time>2022-07-19T15:27:21Z</time>
      </trkpt>
      <trkpt lat="44.52212" lon="6.73951">
        <ele>1586.2</ele>
        <time>2022-07-19T15:27:22Z</time>
      </trkpt>
      <trkpt lat="44.52213" lon="6.7395">
        <ele>1586.2</ele>
        <time>2022-07-19T15:27:23Z</time>
      </trkpt>
      <trkpt lat="44.52214" lon="6.7395">
        <ele>1586.2</ele>
        <time>2022-07-19T15:27:24Z</time>
      </trkpt>
      <trkpt lat="44.52215" lon="6.73949">
        <ele>1586.6</ele>
        <time>2022-07-19T15:27:25Z</time>
      </trkpt>
      <trkpt lat="44.52217" lon="6.73949">
        <ele>1586.6</ele>
        <time>2022-07-19T15:27:26Z</time>
      </trkpt>
      <trkpt lat="44.52218" lon="6.73948">
        <ele>1586.8</ele>
        <time>2022-07-19T15:27:27Z</time>
      </trkpt>
      <trkpt lat="44.52219" lon="6.73948">
        <ele>1586.8</ele>
        <time>2022-07-19T15:27:28Z</time>
      </trkpt>
      <trkpt lat="44.5222" lon="6.73947">
        <ele>1587</ele>
        <time>2022-07-19T15:27:29Z</time>
      </trkpt>
      <trkpt lat="44.52221" lon="6.73947">
        <ele>1587</ele>
        <time>2022-07-19T15:27:30Z</time>
      </trkpt>
      <trkpt lat="44.52223" lon="6.73947">
        <ele>1587</ele>
        <time>2022-07-19T15:27:31Z</time>
      </trkpt>
      <trkpt lat="44.52224" lon="6.73946">
        <ele>1587.2</ele>
        <time>2022-07-19T15:27:32Z</time>
      </trkpt>
      <trkpt lat="44.52225" lon="6.73946">
        <ele>1587.2</ele>
        <time>2022-07-19T15:27:33Z</time>
      </trkpt>
      <trkpt lat="44.52226" lon="6.73946">
        <ele>1587.2</ele>
        <time>2022-07-19T15:27:34Z</time>
      </trkpt>
      <trkpt lat="44.52228" lon="6.73946">
        <ele>1587.4</ele>
        <time>2022-07-19T15:27:35Z</time>
      </trkpt>
      <trkpt lat="44.52229" lon="6.73945">
        <ele>1587.4</ele>
        <time>2022-07-19T15:27:36Z</time>
      </trkpt>
      <trkpt lat="44.5223" lon="6.73945">
        <ele>1587.6</ele>
        <time>2022-07-19T15:27:37Z</time>
      </trkpt>
      <trkpt lat="44.52231" lon="6.73945">
        <ele>1587.6</ele>
        <time>2022-07-19T15:27:38Z</time>
      </trkpt>
      <trkpt lat="44.52232" lon="6.73944">
        <ele>1588</ele>
        <time>2022-07-19T15:27:39Z</time>
      </trkpt>
      <trkpt lat="44.52234" lon="6.73944">
        <ele>1588</ele>
        <time>2022-07-19T15:27:40Z</time>
      </trkpt>
      <trkpt lat="44.52235" lon="6.73944">
        <ele>1588.2</ele>
        <time>2022-07-19T15:27:41Z</time>
      </trkpt>
      <trkpt lat="44.52236" lon="6.73944">
        <ele>1588.2</ele>
        <time>2022-07-19T15:27:42Z</time>
      </trkpt>
      <trkpt lat="44.52237" lon="6.73943">
        <ele>1588.2</ele>
        <time>2022-07-19T15:27:43Z</time>
      </trkpt>
      <trkpt lat="44.52238" lon="6.73943">
        <ele>1588.6</ele>
        <time>2022-07-19T15:27:44Z</time>
      </trkpt>
      <trkpt lat="44.52239" lon="6.73943">
        <ele>1588.6</ele>
        <time>2022-07-19T15:27:45Z</time>
      </trkpt>
      <trkpt lat="44.52241" lon="6.73943">
        <ele>1588.8</ele>
        <time>2022-07-19T15:27:46Z</time>
      </trkpt>
      <trkpt lat="44.52242" lon="6.73942">
        <ele>1588.8</ele>
        <time>2022-07-19T15:27:47Z</time>
      </trkpt>
      <trkpt lat="44.52243" lon="6.73942">
        <ele>1589</ele>
        <time>2022-07-19T15:27:48Z</time>
      </trkpt>
      <trkpt lat="44.52244" lon="6.73942">
        <ele>1589</ele>
        <time>2022-07-19T15:27:49Z</time>
      </trkpt>
      <trkpt lat="44.52245" lon="6.73941">
        <ele>1589.4</ele>
        <time>2022-07-19T15:27:50Z</time>
      </trkpt>
      <trkpt lat="44.52246" lon="6.73941">
        <ele>1589.4</ele>
        <time>2022-07-19T15:27:51Z</time>
      </trkpt>
      <trkpt lat="44.52247" lon="6.7394">
        <ele>1589.6</ele>
        <time>2022-07-19T15:27:52Z</time>
      </trkpt>
      <trkpt lat="44.52249" lon="6.7394">
        <ele>1589.6</ele>
        <time>2022-07-19T15:27:53Z</time>
      </trkpt>
      <trkpt lat="44.5225" lon="6.7394">
        <ele>1590</ele>
        <time>2022-07-19T15:27:54Z</time>
      </trkpt>
      <trkpt lat="44.52251" lon="6.7394">
        <ele>1590</ele>
        <time>2022-07-19T15:27:55Z</time>
      </trkpt>
      <trkpt lat="44.52252" lon="6.7394">
        <ele>1590.2</ele>
        <time>2022-07-19T15:27:56Z</time>
      </trkpt>
      <trkpt lat="44.52253" lon="6.7394">
        <ele>1590.2</ele>
        <time>2022-07-19T15:27:57Z</time>
      </trkpt>
      <trkpt lat="44.52254" lon="6.7394">
        <ele>1590.2</ele>
        <time>2022-07-19T15:27:58Z</time>
      </trkpt>
      <trkpt lat="44.52255" lon="6.73939">
        <ele>1590.4</ele>
        <time>2022-07-19T15:27:59Z</time>
      </trkpt>
      <trkpt lat="44.52256" lon="6.73939">
        <ele>1590.4</ele>
        <time>2022-07-19T15:28:00Z</time>
      </trkpt>
      <trkpt lat="44.52257" lon="6.73939">
        <ele>1590.6</ele>
        <time>2022-07-19T15:28:01Z</time>
      </trkpt>
      <trkpt lat="44.52259" lon="6.73939">
        <ele>1590.6</ele>
        <time>2022-07-19T15:28:02Z</time>
      </trkpt>
      <trkpt lat="44.5226" lon="6.73939">
        <ele>1590.8</ele>
        <time>2022-07-19T15:28:04Z</time>
      </trkpt>
      <trkpt lat="44.52261" lon="6.73938">
        <ele>1590.8</ele>
        <time>2022-07-19T15:28:05Z</time>
      </trkpt>
      <trkpt lat="44.52262" lon="6.73938">
        <ele>1590.8</ele>
        <time>2022-07-19T15:28:06Z</time>
      </trkpt>
      <trkpt lat="44.52264" lon="6.73938">
        <ele>1591.2</ele>
        <time>2022-07-19T15:28:07Z</time>
      </trkpt>
      <trkpt lat="44.52265" lon="6.73938">
        <ele>1591.2</ele>
        <time>2022-07-19T15:28:08Z</time>
      </trkpt>
      <trkpt lat="44.52266" lon="6.73938">
        <ele>1591.4</ele>
        <time>2022-07-19T15:28:09Z</time>
      </trkpt>
      <trkpt lat="44.52267" lon="6.73937">
        <ele>1591.4</ele>
        <time>2022-07-19T15:28:10Z</time>
      </trkpt>
      <trkpt lat="44.52268" lon="6.73937">
        <ele>1591.4</ele>
        <time>2022-07-19T15:28:11Z</time>
      </trkpt>
      <trkpt lat="44.52269" lon="6.73936">
        <ele>1591.4</ele>
        <time>2022-07-19T15:28:12Z</time>
      </trkpt>
      <trkpt lat="44.52271" lon="6.73936">
        <ele>1591.4</ele>
        <time>2022-07-19T15:28:13Z</time>
      </trkpt>
      <trkpt lat="44.52272" lon="6.73935">
        <ele>1591.4</ele>
        <time>2022-07-19T15:28:14Z</time>
      </trkpt>
      <trkpt lat="44.52273" lon="6.73935">
        <ele>1591.4</ele>
        <time>2022-07-19T15:28:15Z</time>
      </trkpt>
      <trkpt lat="44.52274" lon="6.73934">
        <ele>1591.6</ele>
        <time>2022-07-19T15:28:16Z</time>
      </trkpt>
      <trkpt lat="44.52275" lon="6.73934">
        <ele>1591.6</ele>
        <time>2022-07-19T15:28:17Z</time>
      </trkpt>
      <trkpt lat="44.52277" lon="6.73933">
        <ele>1591.6</ele>
        <time>2022-07-19T15:28:18Z</time>
      </trkpt>
      <trkpt lat="44.52278" lon="6.73933">
        <ele>1591.8</ele>
        <time>2022-07-19T15:28:19Z</time>
      </trkpt>
      <trkpt lat="44.52279" lon="6.73932">
        <ele>1591.8</ele>
        <time>2022-07-19T15:28:20Z</time>
      </trkpt>
      <trkpt lat="44.5228" lon="6.73932">
        <ele>1591.8</ele>
        <time>2022-07-19T15:28:21Z</time>
      </trkpt>
      <trkpt lat="44.52281" lon="6.73931">
        <ele>1592</ele>
        <time>2022-07-19T15:28:22Z</time>
      </trkpt>
      <trkpt lat="44.52282" lon="6.73931">
        <ele>1592</ele>
        <time>2022-07-19T15:28:23Z</time>
      </trkpt>
      <trkpt lat="44.52283" lon="6.7393">
        <ele>1592</ele>
        <time>2022-07-19T15:28:24Z</time>
      </trkpt>
      <trkpt lat="44.52284" lon="6.73929">
        <ele>1592.4</ele>
        <time>2022-07-19T15:28:25Z</time>
      </trkpt>
      <trkpt lat="44.52285" lon="6.73928">
        <ele>1592.4</ele>
        <time>2022-07-19T15:28:26Z</time>
      </trkpt>
      <trkpt lat="44.52286" lon="6.73928">
        <ele>1592.4</ele>
        <time>2022-07-19T15:28:27Z</time>
      </trkpt>
      <trkpt lat="44.52287" lon="6.73927">
        <ele>1592.6</ele>
        <time>2022-07-19T15:28:28Z</time>
      </trkpt>
      <trkpt lat="44.52287" lon="6.73927">
        <ele>1592.6</ele>
        <time>2022-07-19T15:28:29Z</time>
      </trkpt>
      <trkpt lat="44.52288" lon="6.73927">
        <ele>1592.8</ele>
        <time>2022-07-19T15:28:30Z</time>
      </trkpt>
      <trkpt lat="44.52288" lon="6.73927">
        <ele>1592.8</ele>
        <time>2022-07-19T15:28:35Z</time>
      </trkpt>
      <trkpt lat="44.52288" lon="6.73927">
        <ele>1592.8</ele>
        <time>2022-07-19T15:29:10Z</time>
      </trkpt>
      <trkpt lat="44.52288" lon="6.73927">
        <ele>1592.8</ele>
        <time>2022-07-19T15:29:14Z</time>
      </trkpt>
      <trkpt lat="44.52288" lon="6.73927">
        <ele>1592.4</ele>
        <time>2022-07-19T15:29:40Z</time>
      </trkpt>
      <trkpt lat="44.5229" lon="6.73923">
        <ele>1592.4</ele>
        <time>2022-07-19T15:29:41Z</time>
      </trkpt>
      <trkpt lat="44.52291" lon="6.73922">
        <ele>1592.4</ele>
        <time>2022-07-19T15:29:42Z</time>
      </trkpt>
      <trkpt lat="44.52291" lon="6.73921">
        <ele>1592.4</ele>
        <time>2022-07-19T15:29:43Z</time>
      </trkpt>
      <trkpt lat="44.52291" lon="6.73921">
        <ele>1592.4</ele>
        <time>2022-07-19T15:29:44Z</time>
      </trkpt>
      <trkpt lat="44.52292" lon="6.7392">
        <ele>1592.6</ele>
        <time>2022-07-19T15:29:45Z</time>
      </trkpt>
      <trkpt lat="44.52292" lon="6.7392">
        <ele>1592.6</ele>
        <time>2022-07-19T15:29:46Z</time>
      </trkpt>
      <trkpt lat="44.52292" lon="6.73919">
        <ele>1592.6</ele>
        <time>2022-07-19T15:29:47Z</time>
      </trkpt>
      <trkpt lat="44.52292" lon="6.73919">
        <ele>1593</ele>
        <time>2022-07-19T15:29:48Z</time>
      </trkpt>
      <trkpt lat="44.52293" lon="6.73918">
        <ele>1593</ele>
        <time>2022-07-19T15:29:49Z</time>
      </trkpt>
      <trkpt lat="44.52293" lon="6.73918">
        <ele>1593</ele>
        <time>2022-07-19T15:29:50Z</time>
      </trkpt>
      <trkpt lat="44.52293" lon="6.73917">
        <ele>1593</ele>
        <time>2022-07-19T15:29:51Z</time>
      </trkpt>
      <trkpt lat="44.52293" lon="6.73917">
        <ele>1593</ele>
        <time>2022-07-19T15:29:53Z</time>
      </trkpt>
      <trkpt lat="44.52294" lon="6.73916">
        <ele>1593</ele>
        <time>2022-07-19T15:29:54Z</time>
      </trkpt>
      <trkpt lat="44.52294" lon="6.73916">
        <ele>1593</ele>
        <time>2022-07-19T15:29:55Z</time>
      </trkpt>
      <trkpt lat="44.52294" lon="6.73915">
        <ele>1593</ele>
        <time>2022-07-19T15:29:56Z</time>
      </trkpt>
      <trkpt lat="44.52294" lon="6.73915">
        <ele>1593</ele>
        <time>2022-07-19T15:29:57Z</time>
      </trkpt>
      <trkpt lat="44.52295" lon="6.73914">
        <ele>1593</ele>
        <time>2022-07-19T15:29:58Z</time>
      </trkpt>
      <trkpt lat="44.52295" lon="6.73914">
        <ele>1592.4</ele>
        <time>2022-07-19T15:31:04Z</time>
      </trkpt>
      <trkpt lat="44.52295" lon="6.73913">
        <ele>1592.4</ele>
        <time>2022-07-19T15:31:05Z</time>
      </trkpt>
      <trkpt lat="44.52295" lon="6.73912">
        <ele>1592.4</ele>
        <time>2022-07-19T15:31:06Z</time>
      </trkpt>
      <trkpt lat="44.52296" lon="6.73912">
        <ele>1592.4</ele>
        <time>2022-07-19T15:31:07Z</time>
      </trkpt>
      <trkpt lat="44.52296" lon="6.73911">
        <ele>1592.8</ele>
        <time>2022-07-19T15:31:08Z</time>
      </trkpt>
      <trkpt lat="44.52296" lon="6.73911">
        <ele>1592.8</ele>
        <time>2022-07-19T15:31:09Z</time>
      </trkpt>
      <trkpt lat="44.52296" lon="6.7391">
        <ele>1592.8</ele>
        <time>2022-07-19T15:31:10Z</time>
      </trkpt>
      <trkpt lat="44.52297" lon="6.7391">
        <ele>1592.8</ele>
        <time>2022-07-19T15:31:11Z</time>
      </trkpt>
      <trkpt lat="44.52297" lon="6.73909">
        <ele>1592.8</ele>
        <time>2022-07-19T15:31:12Z</time>
      </trkpt>
      <trkpt lat="44.52297" lon="6.73909">
        <ele>1592.8</ele>
        <time>2022-07-19T15:31:13Z</time>
      </trkpt>
      <trkpt lat="44.52297" lon="6.73908">
        <ele>1592.8</ele>
        <time>2022-07-19T15:31:14Z</time>
      </trkpt>
      <trkpt lat="44.52298" lon="6.73908">
        <ele>1592.8</ele>
        <time>2022-07-19T15:31:15Z</time>
      </trkpt>
      <trkpt lat="44.52298" lon="6.73906">
        <ele>1592.8</ele>
        <time>2022-07-19T15:31:16Z</time>
      </trkpt>
      <trkpt lat="44.52299" lon="6.73905">
        <ele>1593</ele>
        <time>2022-07-19T15:31:17Z</time>
      </trkpt>
      <trkpt lat="44.523" lon="6.73903">
        <ele>1593</ele>
        <time>2022-07-19T15:31:18Z</time>
      </trkpt>
      <trkpt lat="44.52301" lon="6.73902">
        <ele>1593.2</ele>
        <time>2022-07-19T15:31:19Z</time>
      </trkpt>
      <trkpt lat="44.52302" lon="6.73901">
        <ele>1593.2</ele>
        <time>2022-07-19T15:31:20Z</time>
      </trkpt>
      <trkpt lat="44.52303" lon="6.73899">
        <ele>1593.6</ele>
        <time>2022-07-19T15:31:21Z</time>
      </trkpt>
      <trkpt lat="44.52303" lon="6.73897">
        <ele>1593.6</ele>
        <time>2022-07-19T15:31:22Z</time>
      </trkpt>
      <trkpt lat="44.52304" lon="6.73896">
        <ele>1593.8</ele>
        <time>2022-07-19T15:31:23Z</time>
      </trkpt>
      <trkpt lat="44.52304" lon="6.73894">
        <ele>1593.8</ele>
        <time>2022-07-19T15:31:24Z</time>
      </trkpt>
      <trkpt lat="44.52305" lon="6.73893">
        <ele>1594</ele>
        <time>2022-07-19T15:31:25Z</time>
      </trkpt>
      <trkpt lat="44.52306" lon="6.73891">
        <ele>1594</ele>
        <time>2022-07-19T15:31:26Z</time>
      </trkpt>
      <trkpt lat="44.52307" lon="6.7389">
        <ele>1594.4</ele>
        <time>2022-07-19T15:31:27Z</time>
      </trkpt>
      <trkpt lat="44.52308" lon="6.73888">
        <ele>1594.4</ele>
        <time>2022-07-19T15:31:28Z</time>
      </trkpt>
      <trkpt lat="44.52308" lon="6.73887">
        <ele>1594.4</ele>
        <time>2022-07-19T15:31:29Z</time>
      </trkpt>
      <trkpt lat="44.52309" lon="6.73885">
        <ele>1594.6</ele>
        <time>2022-07-19T15:31:30Z</time>
      </trkpt>
      <trkpt lat="44.5231" lon="6.73883">
        <ele>1594.6</ele>
        <time>2022-07-19T15:31:31Z</time>
      </trkpt>
      <trkpt lat="44.52311" lon="6.73881">
        <ele>1594.8</ele>
        <time>2022-07-19T15:31:32Z</time>
      </trkpt>
      <trkpt lat="44.52312" lon="6.73879">
        <ele>1594.8</ele>
        <time>2022-07-19T15:31:33Z</time>
      </trkpt>
      <trkpt lat="44.52313" lon="6.73877">
        <ele>1595.2</ele>
        <time>2022-07-19T15:31:34Z</time>
      </trkpt>
      <trkpt lat="44.52313" lon="6.73875">
        <ele>1595.2</ele>
        <time>2022-07-19T15:31:35Z</time>
      </trkpt>
      <trkpt lat="44.52314" lon="6.73873">
        <ele>1595.4</ele>
        <time>2022-07-19T15:31:36Z</time>
      </trkpt>
      <trkpt lat="44.52314" lon="6.73871">
        <ele>1595.4</ele>
        <time>2022-07-19T15:31:37Z</time>
      </trkpt>
      <trkpt lat="44.52315" lon="6.73868">
        <ele>1595.6</ele>
        <time>2022-07-19T15:31:38Z</time>
      </trkpt>
      <trkpt lat="44.52315" lon="6.73866">
        <ele>1595.6</ele>
        <time>2022-07-19T15:31:39Z</time>
      </trkpt>
      <trkpt lat="44.52315" lon="6.73863">
        <ele>1596</ele>
        <time>2022-07-19T15:31:40Z</time>
      </trkpt>
      <trkpt lat="44.52316" lon="6.73861">
        <ele>1596</ele>
        <time>2022-07-19T15:31:41Z</time>
      </trkpt>
      <trkpt lat="44.52316" lon="6.73859">
        <ele>1596</ele>
        <time>2022-07-19T15:31:42Z</time>
      </trkpt>
      <trkpt lat="44.52317" lon="6.73857">
        <ele>1596.4</ele>
        <time>2022-07-19T15:31:43Z</time>
      </trkpt>
      <trkpt lat="44.52317" lon="6.73854">
        <ele>1596.4</ele>
        <time>2022-07-19T15:31:44Z</time>
      </trkpt>
      <trkpt lat="44.52317" lon="6.73852">
        <ele>1596.6</ele>
        <time>2022-07-19T15:31:45Z</time>
      </trkpt>
      <trkpt lat="44.52317" lon="6.73849">
        <ele>1596.6</ele>
        <time>2022-07-19T15:31:46Z</time>
      </trkpt>
      <trkpt lat="44.52317" lon="6.73847">
        <ele>1596.8</ele>
        <time>2022-07-19T15:31:47Z</time>
      </trkpt>
      <trkpt lat="44.52316" lon="6.73845">
        <ele>1596.8</ele>
        <time>2022-07-19T15:31:48Z</time>
      </trkpt>
      <trkpt lat="44.52316" lon="6.73842">
        <ele>1597.2</ele>
        <time>2022-07-19T15:31:49Z</time>
      </trkpt>
      <trkpt lat="44.52316" lon="6.7384">
        <ele>1597.4</ele>
        <time>2022-07-19T15:31:50Z</time>
      </trkpt>
      <trkpt lat="44.52317" lon="6.73838">
        <ele>1597.4</ele>
        <time>2022-07-19T15:31:51Z</time>
      </trkpt>
      <trkpt lat="44.52317" lon="6.73835">
        <ele>1597.6</ele>
        <time>2022-07-19T15:31:52Z</time>
      </trkpt>
      <trkpt lat="44.52317" lon="6.73833">
        <ele>1597.6</ele>
        <time>2022-07-19T15:31:53Z</time>
      </trkpt>
      <trkpt lat="44.52317" lon="6.7383">
        <ele>1598</ele>
        <time>2022-07-19T15:31:54Z</time>
      </trkpt>
      <trkpt lat="44.52316" lon="6.73828">
        <ele>1598</ele>
        <time>2022-07-19T15:31:55Z</time>
      </trkpt>
      <trkpt lat="44.52316" lon="6.73826">
        <ele>1598.2</ele>
        <time>2022-07-19T15:31:56Z</time>
      </trkpt>
      <trkpt lat="44.52316" lon="6.73824">
        <ele>1598.2</ele>
        <time>2022-07-19T15:31:57Z</time>
      </trkpt>
      <trkpt lat="44.52315" lon="6.73822">
        <ele>1598.2</ele>
        <time>2022-07-19T15:31:58Z</time>
      </trkpt>
      <trkpt lat="44.52315" lon="6.7382">
        <ele>1598.6</ele>
        <time>2022-07-19T15:31:59Z</time>
      </trkpt>
      <trkpt lat="44.52314" lon="6.73818">
        <ele>1598.8</ele>
        <time>2022-07-19T15:32:00Z</time>
      </trkpt>
      <trkpt lat="44.52314" lon="6.73816">
        <ele>1598.8</ele>
        <time>2022-07-19T15:32:01Z</time>
      </trkpt>
      <trkpt lat="44.52314" lon="6.73814">
        <ele>1599</ele>
        <time>2022-07-19T15:32:02Z</time>
      </trkpt>
      <trkpt lat="44.52313" lon="6.73811">
        <ele>1599</ele>
        <time>2022-07-19T15:32:03Z</time>
      </trkpt>
      <trkpt lat="44.52313" lon="6.73809">
        <ele>1599.4</ele>
        <time>2022-07-19T15:32:04Z</time>
      </trkpt>
      <trkpt lat="44.52312" lon="6.73807">
        <ele>1599.4</ele>
        <time>2022-07-19T15:32:05Z</time>
      </trkpt>
      <trkpt lat="44.52311" lon="6.73805">
        <ele>1599.6</ele>
        <time>2022-07-19T15:32:06Z</time>
      </trkpt>
      <trkpt lat="44.5231" lon="6.73802">
        <ele>1599.8</ele>
        <time>2022-07-19T15:32:07Z</time>
      </trkpt>
      <trkpt lat="44.52309" lon="6.738">
        <ele>1599.8</ele>
        <time>2022-07-19T15:32:08Z</time>
      </trkpt>
      <trkpt lat="44.52308" lon="6.73798">
        <ele>1600.2</ele>
        <time>2022-07-19T15:32:09Z</time>
      </trkpt>
      <trkpt lat="44.52308" lon="6.73796">
        <ele>1600.2</ele>
        <time>2022-07-19T15:32:10Z</time>
      </trkpt>
      <trkpt lat="44.52308" lon="6.73793">
        <ele>1600.2</ele>
        <time>2022-07-19T15:32:11Z</time>
      </trkpt>
      <trkpt lat="44.52308" lon="6.73791">
        <ele>1600.4</ele>
        <time>2022-07-19T15:32:12Z</time>
      </trkpt>
      <trkpt lat="44.52307" lon="6.73789">
        <ele>1600.4</ele>
        <time>2022-07-19T15:32:13Z</time>
      </trkpt>
      <trkpt lat="44.52306" lon="6.73787">
        <ele>1600.4</ele>
        <time>2022-07-19T15:32:14Z</time>
      </trkpt>
      <trkpt lat="44.52305" lon="6.73784">
        <ele>1600.6</ele>
        <time>2022-07-19T15:32:15Z</time>
      </trkpt>
      <trkpt lat="44.52305" lon="6.73782">
        <ele>1600.6</ele>
        <time>2022-07-19T15:32:16Z</time>
      </trkpt>
      <trkpt lat="44.52305" lon="6.7378">
        <ele>1600.8</ele>
        <time>2022-07-19T15:32:17Z</time>
      </trkpt>
      <trkpt lat="44.52304" lon="6.73777">
        <ele>1600.8</ele>
        <time>2022-07-19T15:32:18Z</time>
      </trkpt>
      <trkpt lat="44.52304" lon="6.73775">
        <ele>1601.2</ele>
        <time>2022-07-19T15:32:19Z</time>
      </trkpt>
      <trkpt lat="44.52303" lon="6.73773">
        <ele>1601.2</ele>
        <time>2022-07-19T15:32:20Z</time>
      </trkpt>
      <trkpt lat="44.52303" lon="6.73771">
        <ele>1601.4</ele>
        <time>2022-07-19T15:32:21Z</time>
      </trkpt>
      <trkpt lat="44.52302" lon="6.73769">
        <ele>1601.4</ele>
        <time>2022-07-19T15:32:22Z</time>
      </trkpt>
      <trkpt lat="44.52302" lon="6.73766">
        <ele>1601.6</ele>
        <time>2022-07-19T15:32:23Z</time>
      </trkpt>
      <trkpt lat="44.52301" lon="6.73764">
        <ele>1601.6</ele>
        <time>2022-07-19T15:32:24Z</time>
      </trkpt>
      <trkpt lat="44.52301" lon="6.73761">
        <ele>1601.8</ele>
        <time>2022-07-19T15:32:25Z</time>
      </trkpt>
      <trkpt lat="44.523" lon="6.73759">
        <ele>1601.8</ele>
        <time>2022-07-19T15:32:26Z</time>
      </trkpt>
      <trkpt lat="44.523" lon="6.73757">
        <ele>1602</ele>
        <time>2022-07-19T15:32:27Z</time>
      </trkpt>
      <trkpt lat="44.523" lon="6.73754">
        <ele>1602</ele>
        <time>2022-07-19T15:32:28Z</time>
      </trkpt>
      <trkpt lat="44.523" lon="6.73751">
        <ele>1602.4</ele>
        <time>2022-07-19T15:32:29Z</time>
      </trkpt>
      <trkpt lat="44.52299" lon="6.73749">
        <ele>1602.4</ele>
        <time>2022-07-19T15:32:30Z</time>
      </trkpt>
      <trkpt lat="44.52299" lon="6.73746">
        <ele>1602.6</ele>
        <time>2022-07-19T15:32:31Z</time>
      </trkpt>
      <trkpt lat="44.52299" lon="6.73743">
        <ele>1602.6</ele>
        <time>2022-07-19T15:32:32Z</time>
      </trkpt>
      <trkpt lat="44.52298" lon="6.73741">
        <ele>1602.8</ele>
        <time>2022-07-19T15:32:33Z</time>
      </trkpt>
      <trkpt lat="44.52298" lon="6.73738">
        <ele>1602.8</ele>
        <time>2022-07-19T15:32:34Z</time>
      </trkpt>
      <trkpt lat="44.52298" lon="6.73735">
        <ele>1603</ele>
        <time>2022-07-19T15:32:35Z</time>
      </trkpt>
      <trkpt lat="44.52298" lon="6.73733">
        <ele>1603</ele>
        <time>2022-07-19T15:32:36Z</time>
      </trkpt>
      <trkpt lat="44.52298" lon="6.7373">
        <ele>1603.2</ele>
        <time>2022-07-19T15:32:37Z</time>
      </trkpt>
      <trkpt lat="44.52298" lon="6.73728">
        <ele>1603.2</ele>
        <time>2022-07-19T15:32:38Z</time>
      </trkpt>
      <trkpt lat="44.52298" lon="6.73725">
        <ele>1603.6</ele>
        <time>2022-07-19T15:32:39Z</time>
      </trkpt>
      <trkpt lat="44.52299" lon="6.73723">
        <ele>1603.6</ele>
        <time>2022-07-19T15:32:40Z</time>
      </trkpt>
      <trkpt lat="44.52299" lon="6.7372">
        <ele>1603.8</ele>
        <time>2022-07-19T15:32:41Z</time>
      </trkpt>
      <trkpt lat="44.52299" lon="6.73718">
        <ele>1603.8</ele>
        <time>2022-07-19T15:32:42Z</time>
      </trkpt>
      <trkpt lat="44.52299" lon="6.73715">
        <ele>1604.2</ele>
        <time>2022-07-19T15:32:43Z</time>
      </trkpt>
      <trkpt lat="44.52299" lon="6.73713">
        <ele>1604.2</ele>
        <time>2022-07-19T15:32:44Z</time>
      </trkpt>
      <trkpt lat="44.52299" lon="6.73711">
        <ele>1604.4</ele>
        <time>2022-07-19T15:32:45Z</time>
      </trkpt>
      <trkpt lat="44.523" lon="6.73708">
        <ele>1604.6</ele>
        <time>2022-07-19T15:32:46Z</time>
      </trkpt>
      <trkpt lat="44.523" lon="6.73706">
        <ele>1604.6</ele>
        <time>2022-07-19T15:32:47Z</time>
      </trkpt>
      <trkpt lat="44.523" lon="6.73703">
        <ele>1604.8</ele>
        <time>2022-07-19T15:32:48Z</time>
      </trkpt>
      <trkpt lat="44.52301" lon="6.73701">
        <ele>1604.8</ele>
        <time>2022-07-19T15:32:49Z</time>
      </trkpt>
      <trkpt lat="44.52301" lon="6.73698">
        <ele>1605</ele>
        <time>2022-07-19T15:32:50Z</time>
      </trkpt>
      <trkpt lat="44.52301" lon="6.73696">
        <ele>1605</ele>
        <time>2022-07-19T15:32:51Z</time>
      </trkpt>
      <trkpt lat="44.52302" lon="6.73693">
        <ele>1605</ele>
        <time>2022-07-19T15:32:52Z</time>
      </trkpt>
      <trkpt lat="44.52302" lon="6.73691">
        <ele>1605.4</ele>
        <time>2022-07-19T15:32:53Z</time>
      </trkpt>
      <trkpt lat="44.52303" lon="6.73688">
        <ele>1605.4</ele>
        <time>2022-07-19T15:32:54Z</time>
      </trkpt>
      <trkpt lat="44.52304" lon="6.73686">
        <ele>1605.8</ele>
        <time>2022-07-19T15:32:55Z</time>
      </trkpt>
      <trkpt lat="44.52305" lon="6.73683">
        <ele>1605.8</ele>
        <time>2022-07-19T15:32:56Z</time>
      </trkpt>
      <trkpt lat="44.52305" lon="6.7368">
        <ele>1606</ele>
        <time>2022-07-19T15:32:57Z</time>
      </trkpt>
      <trkpt lat="44.52306" lon="6.73677">
        <ele>1606</ele>
        <time>2022-07-19T15:32:58Z</time>
      </trkpt>
      <trkpt lat="44.52307" lon="6.73675">
        <ele>1606</ele>
        <time>2022-07-19T15:32:59Z</time>
      </trkpt>
      <trkpt lat="44.52307" lon="6.73672">
        <ele>1606.4</ele>
        <time>2022-07-19T15:33:00Z</time>
      </trkpt>
      <trkpt lat="44.52308" lon="6.7367">
        <ele>1606.4</ele>
        <time>2022-07-19T15:33:01Z</time>
      </trkpt>
      <trkpt lat="44.52309" lon="6.73667">
        <ele>1606.6</ele>
        <time>2022-07-19T15:33:02Z</time>
      </trkpt>
      <trkpt lat="44.52309" lon="6.73664">
        <ele>1606.8</ele>
        <time>2022-07-19T15:33:03Z</time>
      </trkpt>
      <trkpt lat="44.5231" lon="6.73662">
        <ele>1607.2</ele>
        <time>2022-07-19T15:33:04Z</time>
      </trkpt>
      <trkpt lat="44.52311" lon="6.73659">
        <ele>1607.2</ele>
        <time>2022-07-19T15:33:05Z</time>
      </trkpt>
      <trkpt lat="44.52312" lon="6.73657">
        <ele>1607.4</ele>
        <time>2022-07-19T15:33:06Z</time>
      </trkpt>
      <trkpt lat="44.52313" lon="6.73654">
        <ele>1607.4</ele>
        <time>2022-07-19T15:33:07Z</time>
      </trkpt>
      <trkpt lat="44.52313" lon="6.73651">
        <ele>1607.8</ele>
        <time>2022-07-19T15:33:08Z</time>
      </trkpt>
      <trkpt lat="44.52314" lon="6.73649">
        <ele>1607.8</ele>
        <time>2022-07-19T15:33:09Z</time>
      </trkpt>
      <trkpt lat="44.52315" lon="6.73646">
        <ele>1608</ele>
        <time>2022-07-19T15:33:10Z</time>
      </trkpt>
      <trkpt lat="44.52315" lon="6.73643">
        <ele>1608</ele>
        <time>2022-07-19T15:33:11Z</time>
      </trkpt>
      <trkpt lat="44.52316" lon="6.73641">
        <ele>1608.2</ele>
        <time>2022-07-19T15:33:12Z</time>
      </trkpt>
      <trkpt lat="44.52316" lon="6.73638">
        <ele>1608.2</ele>
        <time>2022-07-19T15:33:13Z</time>
      </trkpt>
      <trkpt lat="44.52317" lon="6.73635">
        <ele>1608.6</ele>
        <time>2022-07-19T15:33:14Z</time>
      </trkpt>
      <trkpt lat="44.52317" lon="6.73633">
        <ele>1608.6</ele>
        <time>2022-07-19T15:33:15Z</time>
      </trkpt>
      <trkpt lat="44.52318" lon="6.7363">
        <ele>1608.8</ele>
        <time>2022-07-19T15:33:17Z</time>
      </trkpt>
      <trkpt lat="44.52318" lon="6.73627">
        <ele>1608.8</ele>
        <time>2022-07-19T15:33:18Z</time>
      </trkpt>
      <trkpt lat="44.52319" lon="6.73625">
        <ele>1609.2</ele>
        <time>2022-07-19T15:33:19Z</time>
      </trkpt>
      <trkpt lat="44.52319" lon="6.73622">
        <ele>1609.2</ele>
        <time>2022-07-19T15:33:20Z</time>
      </trkpt>
      <trkpt lat="44.5232" lon="6.73619">
        <ele>1609.4</ele>
        <time>2022-07-19T15:33:21Z</time>
      </trkpt>
      <trkpt lat="44.52321" lon="6.73617">
        <ele>1609.4</ele>
        <time>2022-07-19T15:33:22Z</time>
      </trkpt>
      <trkpt lat="44.52321" lon="6.73614">
        <ele>1609.8</ele>
        <time>2022-07-19T15:33:23Z</time>
      </trkpt>
      <trkpt lat="44.52322" lon="6.73612">
        <ele>1609.8</ele>
        <time>2022-07-19T15:33:24Z</time>
      </trkpt>
      <trkpt lat="44.52322" lon="6.73609">
        <ele>1610</ele>
        <time>2022-07-19T15:33:25Z</time>
      </trkpt>
      <trkpt lat="44.52323" lon="6.73607">
        <ele>1610</ele>
        <time>2022-07-19T15:33:26Z</time>
      </trkpt>
      <trkpt lat="44.52324" lon="6.73604">
        <ele>1610.2</ele>
        <time>2022-07-19T15:33:27Z</time>
      </trkpt>
      <trkpt lat="44.52324" lon="6.73602">
        <ele>1610.6</ele>
        <time>2022-07-19T15:33:28Z</time>
      </trkpt>
      <trkpt lat="44.52325" lon="6.73599">
        <ele>1610.6</ele>
        <time>2022-07-19T15:33:29Z</time>
      </trkpt>
      <trkpt lat="44.52326" lon="6.73597">
        <ele>1610.6</ele>
        <time>2022-07-19T15:33:30Z</time>
      </trkpt>
      <trkpt lat="44.52326" lon="6.73594">
        <ele>1610.8</ele>
        <time>2022-07-19T15:33:31Z</time>
      </trkpt>
      <trkpt lat="44.52327" lon="6.73591">
        <ele>1610.8</ele>
        <time>2022-07-19T15:33:32Z</time>
      </trkpt>
      <trkpt lat="44.52328" lon="6.73589">
        <ele>1611.2</ele>
        <time>2022-07-19T15:33:33Z</time>
      </trkpt>
      <trkpt lat="44.52328" lon="6.73586">
        <ele>1611.2</ele>
        <time>2022-07-19T15:33:34Z</time>
      </trkpt>
      <trkpt lat="44.52328" lon="6.73583">
        <ele>1611.2</ele>
        <time>2022-07-19T15:33:35Z</time>
      </trkpt>
      <trkpt lat="44.52329" lon="6.7358">
        <ele>1611.4</ele>
        <time>2022-07-19T15:33:36Z</time>
      </trkpt>
      <trkpt lat="44.52329" lon="6.73578">
        <ele>1611.4</ele>
        <time>2022-07-19T15:33:37Z</time>
      </trkpt>
      <trkpt lat="44.5233" lon="6.73575">
        <ele>1611.8</ele>
        <time>2022-07-19T15:33:38Z</time>
      </trkpt>
      <trkpt lat="44.52331" lon="6.73573">
        <ele>1612</ele>
        <time>2022-07-19T15:33:39Z</time>
      </trkpt>
      <trkpt lat="44.52332" lon="6.7357">
        <ele>1612</ele>
        <time>2022-07-19T15:33:40Z</time>
      </trkpt>
      <trkpt lat="44.52333" lon="6.73567">
        <ele>1612.2</ele>
        <time>2022-07-19T15:33:41Z</time>
      </trkpt>
      <trkpt lat="44.52334" lon="6.73565">
        <ele>1612.2</ele>
        <time>2022-07-19T15:33:42Z</time>
      </trkpt>
      <trkpt lat="44.52334" lon="6.73562">
        <ele>1612.4</ele>
        <time>2022-07-19T15:33:43Z</time>
      </trkpt>
      <trkpt lat="44.52335" lon="6.73559">
        <ele>1612.4</ele>
        <time>2022-07-19T15:33:44Z</time>
      </trkpt>
      <trkpt lat="44.52335" lon="6.73556">
        <ele>1612.8</ele>
        <time>2022-07-19T15:33:45Z</time>
      </trkpt>
      <trkpt lat="44.52336" lon="6.73553">
        <ele>1612.8</ele>
        <time>2022-07-19T15:33:46Z</time>
      </trkpt>
      <trkpt lat="44.52336" lon="6.73551">
        <ele>1613</ele>
        <time>2022-07-19T15:33:47Z</time>
      </trkpt>
      <trkpt lat="44.52337" lon="6.73548">
        <ele>1613</ele>
        <time>2022-07-19T15:33:48Z</time>
      </trkpt>
      <trkpt lat="44.52337" lon="6.73545">
        <ele>1613.4</ele>
        <time>2022-07-19T15:33:49Z</time>
      </trkpt>
      <trkpt lat="44.52338" lon="6.73542">
        <ele>1613.4</ele>
        <time>2022-07-19T15:33:50Z</time>
      </trkpt>
      <trkpt lat="44.52338" lon="6.73539">
        <ele>1613.6</ele>
        <time>2022-07-19T15:33:51Z</time>
      </trkpt>
      <trkpt lat="44.52339" lon="6.73536">
        <ele>1613.6</ele>
        <time>2022-07-19T15:33:52Z</time>
      </trkpt>
      <trkpt lat="44.52339" lon="6.73534">
        <ele>1613.8</ele>
        <time>2022-07-19T15:33:53Z</time>
      </trkpt>
      <trkpt lat="44.52339" lon="6.73531">
        <ele>1613.8</ele>
        <time>2022-07-19T15:33:54Z</time>
      </trkpt>
      <trkpt lat="44.5234" lon="6.73528">
        <ele>1614.2</ele>
        <time>2022-07-19T15:33:55Z</time>
      </trkpt>
      <trkpt lat="44.5234" lon="6.73525">
        <ele>1614.2</ele>
        <time>2022-07-19T15:33:56Z</time>
      </trkpt>
      <trkpt lat="44.5234" lon="6.73522">
        <ele>1614.4</ele>
        <time>2022-07-19T15:33:57Z</time>
      </trkpt>
      <trkpt lat="44.52341" lon="6.73519">
        <ele>1614.4</ele>
        <time>2022-07-19T15:33:58Z</time>
      </trkpt>
      <trkpt lat="44.52341" lon="6.73517">
        <ele>1614.6</ele>
        <time>2022-07-19T15:33:59Z</time>
      </trkpt>
      <trkpt lat="44.52341" lon="6.73514">
        <ele>1614.6</ele>
        <time>2022-07-19T15:34:00Z</time>
      </trkpt>
      <trkpt lat="44.52341" lon="6.73511">
        <ele>1615</ele>
        <time>2022-07-19T15:34:01Z</time>
      </trkpt>
      <trkpt lat="44.52341" lon="6.73508">
        <ele>1615</ele>
        <time>2022-07-19T15:34:02Z</time>
      </trkpt>
      <trkpt lat="44.5234" lon="6.73505">
        <ele>1615.2</ele>
        <time>2022-07-19T15:34:03Z</time>
      </trkpt>
      <trkpt lat="44.5234" lon="6.73503">
        <ele>1615.2</ele>
        <time>2022-07-19T15:34:04Z</time>
      </trkpt>
      <trkpt lat="44.5234" lon="6.735">
        <ele>1615.4</ele>
        <time>2022-07-19T15:34:05Z</time>
      </trkpt>
      <trkpt lat="44.52339" lon="6.73497">
        <ele>1615.4</ele>
        <time>2022-07-19T15:34:06Z</time>
      </trkpt>
      <trkpt lat="44.52338" lon="6.73494">
        <ele>1615.4</ele>
        <time>2022-07-19T15:34:07Z</time>
      </trkpt>
      <trkpt lat="44.52338" lon="6.73491">
        <ele>1615.6</ele>
        <time>2022-07-19T15:34:08Z</time>
      </trkpt>
      <trkpt lat="44.52337" lon="6.73487">
        <ele>1615.6</ele>
        <time>2022-07-19T15:34:09Z</time>
      </trkpt>
      <trkpt lat="44.52336" lon="6.73483">
        <ele>1615.6</ele>
        <time>2022-07-19T15:34:10Z</time>
      </trkpt>
      <trkpt lat="44.52334" lon="6.73478">
        <ele>1615.6</ele>
        <time>2022-07-19T15:34:11Z</time>
      </trkpt>
      <trkpt lat="44.52333" lon="6.73472">
        <ele>1615.4</ele>
        <time>2022-07-19T15:34:12Z</time>
      </trkpt>
      <trkpt lat="44.52332" lon="6.73466">
        <ele>1615.4</ele>
        <time>2022-07-19T15:34:13Z</time>
      </trkpt>
      <trkpt lat="44.52331" lon="6.7346">
        <ele>1615.2</ele>
        <time>2022-07-19T15:34:14Z</time>
      </trkpt>
      <trkpt lat="44.5233" lon="6.73454">
        <ele>1615.2</ele>
        <time>2022-07-19T15:34:15Z</time>
      </trkpt>
      <trkpt lat="44.52329" lon="6.73448">
        <ele>1615.2</ele>
        <time>2022-07-19T15:34:16Z</time>
      </trkpt>
      <trkpt lat="44.52329" lon="6.73443">
        <ele>1615.2</ele>
        <time>2022-07-19T15:34:17Z</time>
      </trkpt>
      <trkpt lat="44.52328" lon="6.73438">
        <ele>1615.2</ele>
        <time>2022-07-19T15:34:18Z</time>
      </trkpt>
      <trkpt lat="44.52328" lon="6.73433">
        <ele>1615.2</ele>
        <time>2022-07-19T15:34:19Z</time>
      </trkpt>
      <trkpt lat="44.52328" lon="6.73429">
        <ele>1615.4</ele>
        <time>2022-07-19T15:34:20Z</time>
      </trkpt>
      <trkpt lat="44.52328" lon="6.73425">
        <ele>1615.4</ele>
        <time>2022-07-19T15:34:21Z</time>
      </trkpt>
      <trkpt lat="44.52328" lon="6.73421">
        <ele>1615.8</ele>
        <time>2022-07-19T15:34:22Z</time>
      </trkpt>
      <trkpt lat="44.52329" lon="6.73417">
        <ele>1615.8</ele>
        <time>2022-07-19T15:34:23Z</time>
      </trkpt>
      <trkpt lat="44.52329" lon="6.73414">
        <ele>1616</ele>
        <time>2022-07-19T15:34:24Z</time>
      </trkpt>
      <trkpt lat="44.5233" lon="6.73411">
        <ele>1616</ele>
        <time>2022-07-19T15:34:25Z</time>
      </trkpt>
      <trkpt lat="44.5233" lon="6.73407">
        <ele>1616.4</ele>
        <time>2022-07-19T15:34:26Z</time>
      </trkpt>
      <trkpt lat="44.52331" lon="6.73404">
        <ele>1616.4</ele>
        <time>2022-07-19T15:34:27Z</time>
      </trkpt>
      <trkpt lat="44.52332" lon="6.734">
        <ele>1616.8</ele>
        <time>2022-07-19T15:34:28Z</time>
      </trkpt>
      <trkpt lat="44.52332" lon="6.73397">
        <ele>1617</ele>
        <time>2022-07-19T15:34:29Z</time>
      </trkpt>
      <trkpt lat="44.52332" lon="6.73394">
        <ele>1617.2</ele>
        <time>2022-07-19T15:34:30Z</time>
      </trkpt>
      <trkpt lat="44.52333" lon="6.7339">
        <ele>1617.2</ele>
        <time>2022-07-19T15:34:31Z</time>
      </trkpt>
      <trkpt lat="44.52334" lon="6.73388">
        <ele>1617.4</ele>
        <time>2022-07-19T15:34:32Z</time>
      </trkpt>
      <trkpt lat="44.52335" lon="6.73385">
        <ele>1617.4</ele>
        <time>2022-07-19T15:34:33Z</time>
      </trkpt>
      <trkpt lat="44.52335" lon="6.73382">
        <ele>1617.6</ele>
        <time>2022-07-19T15:34:34Z</time>
      </trkpt>
      <trkpt lat="44.52336" lon="6.73379">
        <ele>1617.6</ele>
        <time>2022-07-19T15:34:35Z</time>
      </trkpt>
      <trkpt lat="44.52336" lon="6.73376">
        <ele>1618</ele>
        <time>2022-07-19T15:34:36Z</time>
      </trkpt>
      <trkpt lat="44.52337" lon="6.73373">
        <ele>1618</ele>
        <time>2022-07-19T15:34:37Z</time>
      </trkpt>
      <trkpt lat="44.52337" lon="6.73371">
        <ele>1618.2</ele>
        <time>2022-07-19T15:34:38Z</time>
      </trkpt>
      <trkpt lat="44.52338" lon="6.73368">
        <ele>1618.2</ele>
        <time>2022-07-19T15:34:39Z</time>
      </trkpt>
      <trkpt lat="44.52339" lon="6.73366">
        <ele>1618.6</ele>
        <time>2022-07-19T15:34:40Z</time>
      </trkpt>
      <trkpt lat="44.52339" lon="6.73363">
        <ele>1618.6</ele>
        <time>2022-07-19T15:34:41Z</time>
      </trkpt>
      <trkpt lat="44.5234" lon="6.73361">
        <ele>1619</ele>
        <time>2022-07-19T15:34:42Z</time>
      </trkpt>
      <trkpt lat="44.52341" lon="6.73359">
        <ele>1619.2</ele>
        <time>2022-07-19T15:34:43Z</time>
      </trkpt>
      <trkpt lat="44.52342" lon="6.73356">
        <ele>1619.4</ele>
        <time>2022-07-19T15:34:44Z</time>
      </trkpt>
      <trkpt lat="44.52342" lon="6.73354">
        <ele>1619.4</ele>
        <time>2022-07-19T15:34:45Z</time>
      </trkpt>
      <trkpt lat="44.52343" lon="6.73353">
        <ele>1619.8</ele>
        <time>2022-07-19T15:34:46Z</time>
      </trkpt>
      <trkpt lat="44.52344" lon="6.73351">
        <ele>1619.8</ele>
        <time>2022-07-19T15:34:47Z</time>
      </trkpt>
      <trkpt lat="44.52345" lon="6.73349">
        <ele>1620.2</ele>
        <time>2022-07-19T15:34:48Z</time>
      </trkpt>
      <trkpt lat="44.52346" lon="6.73347">
        <ele>1620.6</ele>
        <time>2022-07-19T15:34:49Z</time>
      </trkpt>
      <trkpt lat="44.52347" lon="6.73345">
        <ele>1620.8</ele>
        <time>2022-07-19T15:34:50Z</time>
      </trkpt>
      <trkpt lat="44.52348" lon="6.73343">
        <ele>1621</ele>
        <time>2022-07-19T15:34:51Z</time>
      </trkpt>
      <trkpt lat="44.52348" lon="6.73341">
        <ele>1621.2</ele>
        <time>2022-07-19T15:34:52Z</time>
      </trkpt>
      <trkpt lat="44.5235" lon="6.73339">
        <ele>1621.6</ele>
        <time>2022-07-19T15:34:53Z</time>
      </trkpt>
      <trkpt lat="44.5235" lon="6.73337">
        <ele>1621.8</ele>
        <time>2022-07-19T15:34:54Z</time>
      </trkpt>
      <trkpt lat="44.52351" lon="6.73335">
        <ele>1622</ele>
        <time>2022-07-19T15:34:55Z</time>
      </trkpt>
      <trkpt lat="44.52352" lon="6.73333">
        <ele>1622.4</ele>
        <time>2022-07-19T15:34:56Z</time>
      </trkpt>
      <trkpt lat="44.52353" lon="6.73331">
        <ele>1622.6</ele>
        <time>2022-07-19T15:34:57Z</time>
      </trkpt>
      <trkpt lat="44.52354" lon="6.73329">
        <ele>1622.6</ele>
        <time>2022-07-19T15:34:58Z</time>
      </trkpt>
      <trkpt lat="44.52355" lon="6.73327">
        <ele>1623.2</ele>
        <time>2022-07-19T15:34:59Z</time>
      </trkpt>
      <trkpt lat="44.52357" lon="6.73325">
        <ele>1623.4</ele>
        <time>2022-07-19T15:35:00Z</time>
      </trkpt>
      <trkpt lat="44.52358" lon="6.73323">
        <ele>1623.6</ele>
        <time>2022-07-19T15:35:01Z</time>
      </trkpt>
      <trkpt lat="44.52359" lon="6.73321">
        <ele>1624</ele>
        <time>2022-07-19T15:35:02Z</time>
      </trkpt>
      <trkpt lat="44.5236" lon="6.73319">
        <ele>1624.2</ele>
        <time>2022-07-19T15:35:03Z</time>
      </trkpt>
      <trkpt lat="44.52361" lon="6.73318">
        <ele>1624.4</ele>
        <time>2022-07-19T15:35:04Z</time>
      </trkpt>
      <trkpt lat="44.52362" lon="6.73316">
        <ele>1624.4</ele>
        <time>2022-07-19T15:35:05Z</time>
      </trkpt>
      <trkpt lat="44.52363" lon="6.73314">
        <ele>1624.8</ele>
        <time>2022-07-19T15:35:06Z</time>
      </trkpt>
      <trkpt lat="44.52364" lon="6.73312">
        <ele>1624.8</ele>
        <time>2022-07-19T15:35:07Z</time>
      </trkpt>
      <trkpt lat="44.52365" lon="6.7331">
        <ele>1625.2</ele>
        <time>2022-07-19T15:35:08Z</time>
      </trkpt>
      <trkpt lat="44.52366" lon="6.73308">
        <ele>1625.4</ele>
        <time>2022-07-19T15:35:09Z</time>
      </trkpt>
      <trkpt lat="44.52367" lon="6.73306">
        <ele>1625.4</ele>
        <time>2022-07-19T15:35:10Z</time>
      </trkpt>
      <trkpt lat="44.52369" lon="6.73305">
        <ele>1625.8</ele>
        <time>2022-07-19T15:35:11Z</time>
      </trkpt>
      <trkpt lat="44.5237" lon="6.73303">
        <ele>1625.8</ele>
        <time>2022-07-19T15:35:12Z</time>
      </trkpt>
      <trkpt lat="44.52371" lon="6.73301">
        <ele>1626.2</ele>
        <time>2022-07-19T15:35:13Z</time>
      </trkpt>
      <trkpt lat="44.52372" lon="6.73299">
        <ele>1626.2</ele>
        <time>2022-07-19T15:35:14Z</time>
      </trkpt>
      <trkpt lat="44.52374" lon="6.73297">
        <ele>1626.4</ele>
        <time>2022-07-19T15:35:15Z</time>
      </trkpt>
      <trkpt lat="44.52375" lon="6.73295">
        <ele>1626.4</ele>
        <time>2022-07-19T15:35:16Z</time>
      </trkpt>
      <trkpt lat="44.52376" lon="6.73293">
        <ele>1626.8</ele>
        <time>2022-07-19T15:35:17Z</time>
      </trkpt>
      <trkpt lat="44.52377" lon="6.73291">
        <ele>1626.8</ele>
        <time>2022-07-19T15:35:18Z</time>
      </trkpt>
      <trkpt lat="44.52379" lon="6.73289">
        <ele>1627</ele>
        <time>2022-07-19T15:35:19Z</time>
      </trkpt>
      <trkpt lat="44.52381" lon="6.73287">
        <ele>1627</ele>
        <time>2022-07-19T15:35:20Z</time>
      </trkpt>
      <trkpt lat="44.52382" lon="6.73285">
        <ele>1627</ele>
        <time>2022-07-19T15:35:21Z</time>
      </trkpt>
      <trkpt lat="44.52384" lon="6.73284">
        <ele>1627.2</ele>
        <time>2022-07-19T15:35:22Z</time>
      </trkpt>
      <trkpt lat="44.52385" lon="6.73282">
        <ele>1627.2</ele>
        <time>2022-07-19T15:35:23Z</time>
      </trkpt>
      <trkpt lat="44.52387" lon="6.7328">
        <ele>1627.4</ele>
        <time>2022-07-19T15:35:24Z</time>
      </trkpt>
      <trkpt lat="44.52389" lon="6.73279">
        <ele>1627.4</ele>
        <time>2022-07-19T15:35:25Z</time>
      </trkpt>
      <trkpt lat="44.52391" lon="6.73277">
        <ele>1627.4</ele>
        <time>2022-07-19T15:35:26Z</time>
      </trkpt>
      <trkpt lat="44.52393" lon="6.73275">
        <ele>1627.8</ele>
        <time>2022-07-19T15:35:27Z</time>
      </trkpt>
      <trkpt lat="44.52394" lon="6.73274">
        <ele>1627.8</ele>
        <time>2022-07-19T15:35:28Z</time>
      </trkpt>
      <trkpt lat="44.52396" lon="6.73272">
        <ele>1628</ele>
        <time>2022-07-19T15:35:29Z</time>
      </trkpt>
      <trkpt lat="44.52398" lon="6.73271">
        <ele>1628</ele>
        <time>2022-07-19T15:35:30Z</time>
      </trkpt>
      <trkpt lat="44.524" lon="6.73269">
        <ele>1628.2</ele>
        <time>2022-07-19T15:35:31Z</time>
      </trkpt>
      <trkpt lat="44.52401" lon="6.73268">
        <ele>1628.2</ele>
        <time>2022-07-19T15:35:32Z</time>
      </trkpt>
      <trkpt lat="44.52403" lon="6.73266">
        <ele>1628.4</ele>
        <time>2022-07-19T15:35:33Z</time>
      </trkpt>
      <trkpt lat="44.52405" lon="6.73265">
        <ele>1628.4</ele>
        <time>2022-07-19T15:35:34Z</time>
      </trkpt>
      <trkpt lat="44.52406" lon="6.73263">
        <ele>1628.8</ele>
        <time>2022-07-19T15:35:35Z</time>
      </trkpt>
      <trkpt lat="44.52408" lon="6.73262">
        <ele>1628.8</ele>
        <time>2022-07-19T15:35:36Z</time>
      </trkpt>
      <trkpt lat="44.5241" lon="6.73261">
        <ele>1628.8</ele>
        <time>2022-07-19T15:35:37Z</time>
      </trkpt>
      <trkpt lat="44.52412" lon="6.7326">
        <ele>1629</ele>
        <time>2022-07-19T15:35:38Z</time>
      </trkpt>
      <trkpt lat="44.52414" lon="6.73259">
        <ele>1629</ele>
        <time>2022-07-19T15:35:39Z</time>
      </trkpt>
      <trkpt lat="44.52415" lon="6.73257">
        <ele>1629.2</ele>
        <time>2022-07-19T15:35:40Z</time>
      </trkpt>
      <trkpt lat="44.52417" lon="6.73256">
        <ele>1629.2</ele>
        <time>2022-07-19T15:35:41Z</time>
      </trkpt>
      <trkpt lat="44.52419" lon="6.73255">
        <ele>1629.6</ele>
        <time>2022-07-19T15:35:42Z</time>
      </trkpt>
      <trkpt lat="44.52421" lon="6.73253">
        <ele>1629.6</ele>
        <time>2022-07-19T15:35:43Z</time>
      </trkpt>
      <trkpt lat="44.52422" lon="6.73252">
        <ele>1629.8</ele>
        <time>2022-07-19T15:35:44Z</time>
      </trkpt>
      <trkpt lat="44.52424" lon="6.73251">
        <ele>1630</ele>
        <time>2022-07-19T15:35:45Z</time>
      </trkpt>
      <trkpt lat="44.52426" lon="6.7325">
        <ele>1630</ele>
        <time>2022-07-19T15:35:46Z</time>
      </trkpt>
      <trkpt lat="44.52427" lon="6.7325">
        <ele>1630.4</ele>
        <time>2022-07-19T15:35:47Z</time>
      </trkpt>
      <trkpt lat="44.52429" lon="6.73249">
        <ele>1630.4</ele>
        <time>2022-07-19T15:35:48Z</time>
      </trkpt>
      <trkpt lat="44.52431" lon="6.73249">
        <ele>1630.8</ele>
        <time>2022-07-19T15:35:49Z</time>
      </trkpt>
      <trkpt lat="44.52432" lon="6.73248">
        <ele>1630.8</ele>
        <time>2022-07-19T15:35:50Z</time>
      </trkpt>
      <trkpt lat="44.52434" lon="6.73248">
        <ele>1631</ele>
        <time>2022-07-19T15:35:51Z</time>
      </trkpt>
      <trkpt lat="44.52436" lon="6.73247">
        <ele>1631</ele>
        <time>2022-07-19T15:35:52Z</time>
      </trkpt>
      <trkpt lat="44.52438" lon="6.73246">
        <ele>1631.4</ele>
        <time>2022-07-19T15:35:53Z</time>
      </trkpt>
      <trkpt lat="44.5244" lon="6.73246">
        <ele>1631.4</ele>
        <time>2022-07-19T15:35:54Z</time>
      </trkpt>
      <trkpt lat="44.52442" lon="6.73246">
        <ele>1631.4</ele>
        <time>2022-07-19T15:35:55Z</time>
      </trkpt>
      <trkpt lat="44.52444" lon="6.73245">
        <ele>1631.6</ele>
        <time>2022-07-19T15:35:56Z</time>
      </trkpt>
      <trkpt lat="44.52446" lon="6.73245">
        <ele>1631.6</ele>
        <time>2022-07-19T15:35:57Z</time>
      </trkpt>
      <trkpt lat="44.52448" lon="6.73245">
        <ele>1632</ele>
        <time>2022-07-19T15:35:58Z</time>
      </trkpt>
      <trkpt lat="44.52449" lon="6.73244">
        <ele>1632</ele>
        <time>2022-07-19T15:35:59Z</time>
      </trkpt>
      <trkpt lat="44.52452" lon="6.73244">
        <ele>1632.2</ele>
        <time>2022-07-19T15:36:00Z</time>
      </trkpt>
      <trkpt lat="44.52454" lon="6.73243">
        <ele>1632.2</ele>
        <time>2022-07-19T15:36:01Z</time>
      </trkpt>
      <trkpt lat="44.52456" lon="6.73243">
        <ele>1632.2</ele>
        <time>2022-07-19T15:36:02Z</time>
      </trkpt>
      <trkpt lat="44.52458" lon="6.73242">
        <ele>1632.2</ele>
        <time>2022-07-19T15:36:03Z</time>
      </trkpt>
      <trkpt lat="44.52461" lon="6.73241">
        <ele>1632.2</ele>
        <time>2022-07-19T15:36:04Z</time>
      </trkpt>
      <trkpt lat="44.52463" lon="6.7324">
        <ele>1632.2</ele>
        <time>2022-07-19T15:36:05Z</time>
      </trkpt>
      <trkpt lat="44.52465" lon="6.73239">
        <ele>1632.4</ele>
        <time>2022-07-19T15:36:06Z</time>
      </trkpt>
      <trkpt lat="44.52467" lon="6.73238">
        <ele>1632.4</ele>
        <time>2022-07-19T15:36:07Z</time>
      </trkpt>
      <trkpt lat="44.52469" lon="6.73236">
        <ele>1632.4</ele>
        <time>2022-07-19T15:36:08Z</time>
      </trkpt>
      <trkpt lat="44.52472" lon="6.73235">
        <ele>1632.6</ele>
        <time>2022-07-19T15:36:09Z</time>
      </trkpt>
      <trkpt lat="44.52474" lon="6.73233">
        <ele>1632.6</ele>
        <time>2022-07-19T15:36:10Z</time>
      </trkpt>
      <trkpt lat="44.52476" lon="6.73232">
        <ele>1632.8</ele>
        <time>2022-07-19T15:36:11Z</time>
      </trkpt>
      <trkpt lat="44.52478" lon="6.7323">
        <ele>1632.8</ele>
        <time>2022-07-19T15:36:12Z</time>
      </trkpt>
      <trkpt lat="44.5248" lon="6.73227">
        <ele>1632.8</ele>
        <time>2022-07-19T15:36:13Z</time>
      </trkpt>
      <trkpt lat="44.52483" lon="6.73225">
        <ele>1633.2</ele>
        <time>2022-07-19T15:36:14Z</time>
      </trkpt>
      <trkpt lat="44.52485" lon="6.73222">
        <ele>1633.2</ele>
        <time>2022-07-19T15:36:15Z</time>
      </trkpt>
      <trkpt lat="44.52486" lon="6.73219">
        <ele>1633.2</ele>
        <time>2022-07-19T15:36:16Z</time>
      </trkpt>
      <trkpt lat="44.52488" lon="6.73216">
        <ele>1633.4</ele>
        <time>2022-07-19T15:36:17Z</time>
      </trkpt>
      <trkpt lat="44.52489" lon="6.73212">
        <ele>1633.4</ele>
        <time>2022-07-19T15:36:18Z</time>
      </trkpt>
      <trkpt lat="44.5249" lon="6.73209">
        <ele>1633.4</ele>
        <time>2022-07-19T15:36:19Z</time>
      </trkpt>
      <trkpt lat="44.52491" lon="6.73205">
        <ele>1633.4</ele>
        <time>2022-07-19T15:36:20Z</time>
      </trkpt>
      <trkpt lat="44.52492" lon="6.73201">
        <ele>1633.8</ele>
        <time>2022-07-19T15:36:21Z</time>
      </trkpt>
      <trkpt lat="44.52493" lon="6.73196">
        <ele>1633.8</ele>
        <time>2022-07-19T15:36:22Z</time>
      </trkpt>
      <trkpt lat="44.52493" lon="6.73192">
        <ele>1633.8</ele>
        <time>2022-07-19T15:36:23Z</time>
      </trkpt>
      <trkpt lat="44.52493" lon="6.73188">
        <ele>1634</ele>
        <time>2022-07-19T15:36:24Z</time>
      </trkpt>
      <trkpt lat="44.52493" lon="6.73183">
        <ele>1634</ele>
        <time>2022-07-19T15:36:25Z</time>
      </trkpt>
      <trkpt lat="44.52494" lon="6.73179">
        <ele>1634</ele>
        <time>2022-07-19T15:36:26Z</time>
      </trkpt>
      <trkpt lat="44.52494" lon="6.73174">
        <ele>1634</ele>
        <time>2022-07-19T15:36:27Z</time>
      </trkpt>
      <trkpt lat="44.52494" lon="6.7317">
        <ele>1634</ele>
        <time>2022-07-19T15:36:28Z</time>
      </trkpt>
      <trkpt lat="44.52494" lon="6.73165">
        <ele>1634.4</ele>
        <time>2022-07-19T15:36:29Z</time>
      </trkpt>
      <trkpt lat="44.52494" lon="6.73161">
        <ele>1634.4</ele>
        <time>2022-07-19T15:36:30Z</time>
      </trkpt>
      <trkpt lat="44.52494" lon="6.73157">
        <ele>1634.6</ele>
        <time>2022-07-19T15:36:31Z</time>
      </trkpt>
      <trkpt lat="44.52495" lon="6.73152">
        <ele>1634.6</ele>
        <time>2022-07-19T15:36:32Z</time>
      </trkpt>
      <trkpt lat="44.52495" lon="6.73148">
        <ele>1634.8</ele>
        <time>2022-07-19T15:36:33Z</time>
      </trkpt>
      <trkpt lat="44.52496" lon="6.73144">
        <ele>1634.8</ele>
        <time>2022-07-19T15:36:34Z</time>
      </trkpt>
      <trkpt lat="44.52496" lon="6.7314">
        <ele>1635</ele>
        <time>2022-07-19T15:36:35Z</time>
      </trkpt>
      <trkpt lat="44.52497" lon="6.73136">
        <ele>1635</ele>
        <time>2022-07-19T15:36:36Z</time>
      </trkpt>
      <trkpt lat="44.52497" lon="6.73131">
        <ele>1635</ele>
        <time>2022-07-19T15:36:37Z</time>
      </trkpt>
      <trkpt lat="44.52498" lon="6.73127">
        <ele>1635</ele>
        <time>2022-07-19T15:36:38Z</time>
      </trkpt>
      <trkpt lat="44.52499" lon="6.73123">
        <ele>1635.4</ele>
        <time>2022-07-19T15:36:39Z</time>
      </trkpt>
      <trkpt lat="44.52499" lon="6.73119">
        <ele>1635.4</ele>
        <time>2022-07-19T15:36:40Z</time>
      </trkpt>
      <trkpt lat="44.525" lon="6.73116">
        <ele>1635.6</ele>
        <time>2022-07-19T15:36:41Z</time>
      </trkpt>
      <trkpt lat="44.525" lon="6.73112">
        <ele>1635.6</ele>
        <time>2022-07-19T15:36:42Z</time>
      </trkpt>
      <trkpt lat="44.525" lon="6.73108">
        <ele>1636</ele>
        <time>2022-07-19T15:36:43Z</time>
      </trkpt>
      <trkpt lat="44.52501" lon="6.73104">
        <ele>1636</ele>
        <time>2022-07-19T15:36:44Z</time>
      </trkpt>
      <trkpt lat="44.52502" lon="6.731">
        <ele>1636.2</ele>
        <time>2022-07-19T15:36:45Z</time>
      </trkpt>
      <trkpt lat="44.52502" lon="6.73096">
        <ele>1636.4</ele>
        <time>2022-07-19T15:36:46Z</time>
      </trkpt>
      <trkpt lat="44.52503" lon="6.73092">
        <ele>1636.4</ele>
        <time>2022-07-19T15:36:47Z</time>
      </trkpt>
      <trkpt lat="44.52503" lon="6.73089">
        <ele>1636.6</ele>
        <time>2022-07-19T15:36:48Z</time>
      </trkpt>
      <trkpt lat="44.52504" lon="6.73085">
        <ele>1636.6</ele>
        <time>2022-07-19T15:36:49Z</time>
      </trkpt>
      <trkpt lat="44.52504" lon="6.73081">
        <ele>1637</ele>
        <time>2022-07-19T15:36:50Z</time>
      </trkpt>
      <trkpt lat="44.52505" lon="6.73077">
        <ele>1637</ele>
        <time>2022-07-19T15:36:51Z</time>
      </trkpt>
      <trkpt lat="44.52505" lon="6.73073">
        <ele>1637.2</ele>
        <time>2022-07-19T15:36:52Z</time>
      </trkpt>
      <trkpt lat="44.52506" lon="6.73069">
        <ele>1637.4</ele>
        <time>2022-07-19T15:36:53Z</time>
      </trkpt>
      <trkpt lat="44.52507" lon="6.73065">
        <ele>1637.4</ele>
        <time>2022-07-19T15:36:54Z</time>
      </trkpt>
      <trkpt lat="44.52507" lon="6.73061">
        <ele>1637.4</ele>
        <time>2022-07-19T15:36:55Z</time>
      </trkpt>
      <trkpt lat="44.52508" lon="6.73058">
        <ele>1637.6</ele>
        <time>2022-07-19T15:36:56Z</time>
      </trkpt>
      <trkpt lat="44.52508" lon="6.73054">
        <ele>1637.6</ele>
        <time>2022-07-19T15:36:57Z</time>
      </trkpt>
      <trkpt lat="44.52509" lon="6.7305">
        <ele>1638</ele>
        <time>2022-07-19T15:36:58Z</time>
      </trkpt>
      <trkpt lat="44.52509" lon="6.73046">
        <ele>1638</ele>
        <time>2022-07-19T15:36:59Z</time>
      </trkpt>
      <trkpt lat="44.5251" lon="6.73042">
        <ele>1638</ele>
        <time>2022-07-19T15:37:00Z</time>
      </trkpt>
      <trkpt lat="44.5251" lon="6.73038">
        <ele>1638</ele>
        <time>2022-07-19T15:37:01Z</time>
      </trkpt>
      <trkpt lat="44.5251" lon="6.73034">
        <ele>1638</ele>
        <time>2022-07-19T15:37:02Z</time>
      </trkpt>
      <trkpt lat="44.5251" lon="6.7303">
        <ele>1638</ele>
        <time>2022-07-19T15:37:03Z</time>
      </trkpt>
      <trkpt lat="44.5251" lon="6.73026">
        <ele>1638.2</ele>
        <time>2022-07-19T15:37:04Z</time>
      </trkpt>
      <trkpt lat="44.5251" lon="6.73022">
        <ele>1638.2</ele>
        <time>2022-07-19T15:37:05Z</time>
      </trkpt>
      <trkpt lat="44.52511" lon="6.73017">
        <ele>1638.4</ele>
        <time>2022-07-19T15:37:06Z</time>
      </trkpt>
      <trkpt lat="44.52511" lon="6.73013">
        <ele>1638.4</ele>
        <time>2022-07-19T15:37:07Z</time>
      </trkpt>
      <trkpt lat="44.52511" lon="6.73009">
        <ele>1638.4</ele>
        <time>2022-07-19T15:37:08Z</time>
      </trkpt>
      <trkpt lat="44.52511" lon="6.73004">
        <ele>1638.4</ele>
        <time>2022-07-19T15:37:09Z</time>
      </trkpt>
      <trkpt lat="44.52511" lon="6.73">
        <ele>1638.6</ele>
        <time>2022-07-19T15:37:10Z</time>
      </trkpt>
      <trkpt lat="44.5251" lon="6.72995">
        <ele>1638.6</ele>
        <time>2022-07-19T15:37:11Z</time>
      </trkpt>
      <trkpt lat="44.5251" lon="6.72991">
        <ele>1638.6</ele>
        <time>2022-07-19T15:37:12Z</time>
      </trkpt>
      <trkpt lat="44.5251" lon="6.72987">
        <ele>1638.8</ele>
        <time>2022-07-19T15:37:13Z</time>
      </trkpt>
      <trkpt lat="44.5251" lon="6.72982">
        <ele>1638.8</ele>
        <time>2022-07-19T15:37:14Z</time>
      </trkpt>
      <trkpt lat="44.5251" lon="6.72978">
        <ele>1638.8</ele>
        <time>2022-07-19T15:37:15Z</time>
      </trkpt>
      <trkpt lat="44.52509" lon="6.72973">
        <ele>1638.8</ele>
        <time>2022-07-19T15:37:16Z</time>
      </trkpt>
      <trkpt lat="44.52509" lon="6.72968">
        <ele>1638.8</ele>
        <time>2022-07-19T15:37:17Z</time>
      </trkpt>
      <trkpt lat="44.52509" lon="6.72963">
        <ele>1638.8</ele>
        <time>2022-07-19T15:37:18Z</time>
      </trkpt>
      <trkpt lat="44.52509" lon="6.72958">
        <ele>1639</ele>
        <time>2022-07-19T15:37:19Z</time>
      </trkpt>
      <trkpt lat="44.52508" lon="6.72953">
        <ele>1639</ele>
        <time>2022-07-19T15:37:20Z</time>
      </trkpt>
      <trkpt lat="44.52508" lon="6.72947">
        <ele>1639</ele>
        <time>2022-07-19T15:37:21Z</time>
      </trkpt>
      <trkpt lat="44.52508" lon="6.72942">
        <ele>1639</ele>
        <time>2022-07-19T15:37:22Z</time>
      </trkpt>
      <trkpt lat="44.52508" lon="6.72936">
        <ele>1639.4</ele>
        <time>2022-07-19T15:37:23Z</time>
      </trkpt>
      <trkpt lat="44.52508" lon="6.72931">
        <ele>1639.4</ele>
        <time>2022-07-19T15:37:24Z</time>
      </trkpt>
      <trkpt lat="44.52508" lon="6.72925">
        <ele>1639.4</ele>
        <time>2022-07-19T15:37:25Z</time>
      </trkpt>
      <trkpt lat="44.52508" lon="6.7292">
        <ele>1639.6</ele>
        <time>2022-07-19T15:37:26Z</time>
      </trkpt>
      <trkpt lat="44.52508" lon="6.72914">
        <ele>1639.6</ele>
        <time>2022-07-19T15:37:27Z</time>
      </trkpt>
      <trkpt lat="44.52507" lon="6.72908">
        <ele>1639.6</ele>
        <time>2022-07-19T15:37:28Z</time>
      </trkpt>
      <trkpt lat="44.52507" lon="6.72903">
        <ele>1639.6</ele>
        <time>2022-07-19T15:37:29Z</time>
      </trkpt>
      <trkpt lat="44.52507" lon="6.72897">
        <ele>1639.6</ele>
        <time>2022-07-19T15:37:30Z</time>
      </trkpt>
      <trkpt lat="44.52507" lon="6.72891">
        <ele>1639.6</ele>
        <time>2022-07-19T15:37:31Z</time>
      </trkpt>
      <trkpt lat="44.52507" lon="6.72886">
        <ele>1639.8</ele>
        <time>2022-07-19T15:37:32Z</time>
      </trkpt>
      <trkpt lat="44.52507" lon="6.7288">
        <ele>1639.8</ele>
        <time>2022-07-19T15:37:33Z</time>
      </trkpt>
      <trkpt lat="44.52507" lon="6.72873">
        <ele>1639.8</ele>
        <time>2022-07-19T15:37:34Z</time>
      </trkpt>
      <trkpt lat="44.52508" lon="6.72867">
        <ele>1639.8</ele>
        <time>2022-07-19T15:37:35Z</time>
      </trkpt>
      <trkpt lat="44.52508" lon="6.72861">
        <ele>1639.8</ele>
        <time>2022-07-19T15:37:36Z</time>
      </trkpt>
      <trkpt lat="44.52509" lon="6.72854">
        <ele>1639.8</ele>
        <time>2022-07-19T15:37:37Z</time>
      </trkpt>
      <trkpt lat="44.5251" lon="6.72848">
        <ele>1639.8</ele>
        <time>2022-07-19T15:37:38Z</time>
      </trkpt>
      <trkpt lat="44.52512" lon="6.72842">
        <ele>1640</ele>
        <time>2022-07-19T15:37:39Z</time>
      </trkpt>
      <trkpt lat="44.52514" lon="6.72837">
        <ele>1640</ele>
        <time>2022-07-19T15:37:40Z</time>
      </trkpt>
      <trkpt lat="44.52516" lon="6.72831">
        <ele>1640</ele>
        <time>2022-07-19T15:37:41Z</time>
      </trkpt>
      <trkpt lat="44.52519" lon="6.72826">
        <ele>1640.2</ele>
        <time>2022-07-19T15:37:42Z</time>
      </trkpt>
      <trkpt lat="44.52521" lon="6.72821">
        <ele>1640.2</ele>
        <time>2022-07-19T15:37:43Z</time>
      </trkpt>
      <trkpt lat="44.52523" lon="6.72816">
        <ele>1640.2</ele>
        <time>2022-07-19T15:37:44Z</time>
      </trkpt>
      <trkpt lat="44.52525" lon="6.7281">
        <ele>1640.2</ele>
        <time>2022-07-19T15:37:45Z</time>
      </trkpt>
      <trkpt lat="44.52527" lon="6.72804">
        <ele>1640.2</ele>
        <time>2022-07-19T15:37:46Z</time>
      </trkpt>
      <trkpt lat="44.52528" lon="6.72798">
        <ele>1640.2</ele>
        <time>2022-07-19T15:37:47Z</time>
      </trkpt>
      <trkpt lat="44.5253" lon="6.72792">
        <ele>1640.2</ele>
        <time>2022-07-19T15:37:48Z</time>
      </trkpt>
      <trkpt lat="44.52531" lon="6.72785">
        <ele>1640.2</ele>
        <time>2022-07-19T15:37:49Z</time>
      </trkpt>
      <trkpt lat="44.52532" lon="6.72779">
        <ele>1640.2</ele>
        <time>2022-07-19T15:37:50Z</time>
      </trkpt>
      <trkpt lat="44.52534" lon="6.72772">
        <ele>1640.2</ele>
        <time>2022-07-19T15:37:51Z</time>
      </trkpt>
      <trkpt lat="44.52535" lon="6.72765">
        <ele>1640.2</ele>
        <time>2022-07-19T15:37:52Z</time>
      </trkpt>
      <trkpt lat="44.52535" lon="6.72758">
        <ele>1640.2</ele>
        <time>2022-07-19T15:37:53Z</time>
      </trkpt>
      <trkpt lat="44.52536" lon="6.72751">
        <ele>1640.2</ele>
        <time>2022-07-19T15:37:54Z</time>
      </trkpt>
      <trkpt lat="44.52537" lon="6.72745">
        <ele>1640.2</ele>
        <time>2022-07-19T15:37:55Z</time>
      </trkpt>
      <trkpt lat="44.52537" lon="6.72738">
        <ele>1640.2</ele>
        <time>2022-07-19T15:37:56Z</time>
      </trkpt>
      <trkpt lat="44.52538" lon="6.72732">
        <ele>1640.6</ele>
        <time>2022-07-19T15:37:57Z</time>
      </trkpt>
      <trkpt lat="44.52538" lon="6.72726">
        <ele>1640.6</ele>
        <time>2022-07-19T15:37:58Z</time>
      </trkpt>
      <trkpt lat="44.52539" lon="6.7272">
        <ele>1640.6</ele>
        <time>2022-07-19T15:37:59Z</time>
      </trkpt>
      <trkpt lat="44.5254" lon="6.72715">
        <ele>1640.6</ele>
        <time>2022-07-19T15:38:00Z</time>
      </trkpt>
      <trkpt lat="44.52542" lon="6.72709">
        <ele>1640.8</ele>
        <time>2022-07-19T15:38:01Z</time>
      </trkpt>
      <trkpt lat="44.52544" lon="6.72705">
        <ele>1640.8</ele>
        <time>2022-07-19T15:38:02Z</time>
      </trkpt>
      <trkpt lat="44.52547" lon="6.727">
        <ele>1640.8</ele>
        <time>2022-07-19T15:38:03Z</time>
      </trkpt>
      <trkpt lat="44.5255" lon="6.72696">
        <ele>1640.8</ele>
        <time>2022-07-19T15:38:04Z</time>
      </trkpt>
      <trkpt lat="44.52553" lon="6.72692">
        <ele>1641.2</ele>
        <time>2022-07-19T15:38:05Z</time>
      </trkpt>
      <trkpt lat="44.52556" lon="6.72689">
        <ele>1641.2</ele>
        <time>2022-07-19T15:38:06Z</time>
      </trkpt>
      <trkpt lat="44.5256" lon="6.72686">
        <ele>1641.2</ele>
        <time>2022-07-19T15:38:07Z</time>
      </trkpt>
      <trkpt lat="44.52564" lon="6.72684">
        <ele>1641.2</ele>
        <time>2022-07-19T15:38:08Z</time>
      </trkpt>
      <trkpt lat="44.52568" lon="6.72683">
        <ele>1641.2</ele>
        <time>2022-07-19T15:38:09Z</time>
      </trkpt>
      <trkpt lat="44.52573" lon="6.72682">
        <ele>1641.2</ele>
        <time>2022-07-19T15:38:10Z</time>
      </trkpt>
      <trkpt lat="44.52577" lon="6.72681">
        <ele>1641.4</ele>
        <time>2022-07-19T15:38:11Z</time>
      </trkpt>
      <trkpt lat="44.52582" lon="6.72681">
        <ele>1641.4</ele>
        <time>2022-07-19T15:38:12Z</time>
      </trkpt>
      <trkpt lat="44.52586" lon="6.7268">
        <ele>1641.4</ele>
        <time>2022-07-19T15:38:13Z</time>
      </trkpt>
      <trkpt lat="44.5259" lon="6.72679">
        <ele>1641.4</ele>
        <time>2022-07-19T15:38:14Z</time>
      </trkpt>
      <trkpt lat="44.52594" lon="6.72678">
        <ele>1641.6</ele>
        <time>2022-07-19T15:38:15Z</time>
      </trkpt>
      <trkpt lat="44.52598" lon="6.72677">
        <ele>1641.6</ele>
        <time>2022-07-19T15:38:16Z</time>
      </trkpt>
      <trkpt lat="44.52602" lon="6.72676">
        <ele>1641.6</ele>
        <time>2022-07-19T15:38:17Z</time>
      </trkpt>
      <trkpt lat="44.52605" lon="6.72674">
        <ele>1641.6</ele>
        <time>2022-07-19T15:38:18Z</time>
      </trkpt>
      <trkpt lat="44.52608" lon="6.72671">
        <ele>1641.6</ele>
        <time>2022-07-19T15:38:19Z</time>
      </trkpt>
      <trkpt lat="44.52612" lon="6.72668">
        <ele>1641.6</ele>
        <time>2022-07-19T15:38:20Z</time>
      </trkpt>
      <trkpt lat="44.52615" lon="6.72665">
        <ele>1641.6</ele>
        <time>2022-07-19T15:38:21Z</time>
      </trkpt>
      <trkpt lat="44.52618" lon="6.72661">
        <ele>1641.6</ele>
        <time>2022-07-19T15:38:22Z</time>
      </trkpt>
      <trkpt lat="44.52621" lon="6.72657">
        <ele>1641.6</ele>
        <time>2022-07-19T15:38:23Z</time>
      </trkpt>
      <trkpt lat="44.52624" lon="6.72653">
        <ele>1641.6</ele>
        <time>2022-07-19T15:38:24Z</time>
      </trkpt>
      <trkpt lat="44.52626" lon="6.72649">
        <ele>1641.6</ele>
        <time>2022-07-19T15:38:25Z</time>
      </trkpt>
      <trkpt lat="44.52629" lon="6.72645">
        <ele>1641.6</ele>
        <time>2022-07-19T15:38:26Z</time>
      </trkpt>
      <trkpt lat="44.52631" lon="6.72641">
        <ele>1641.6</ele>
        <time>2022-07-19T15:38:27Z</time>
      </trkpt>
      <trkpt lat="44.52633" lon="6.72638">
        <ele>1641.8</ele>
        <time>2022-07-19T15:38:28Z</time>
      </trkpt>
      <trkpt lat="44.52634" lon="6.72634">
        <ele>1641.8</ele>
        <time>2022-07-19T15:38:29Z</time>
      </trkpt>
      <trkpt lat="44.52636" lon="6.7263">
        <ele>1641.8</ele>
        <time>2022-07-19T15:38:30Z</time>
      </trkpt>
      <trkpt lat="44.52636" lon="6.72625">
        <ele>1641.8</ele>
        <time>2022-07-19T15:38:31Z</time>
      </trkpt>
      <trkpt lat="44.52637" lon="6.72621">
        <ele>1642</ele>
        <time>2022-07-19T15:38:32Z</time>
      </trkpt>
      <trkpt lat="44.52637" lon="6.72616">
        <ele>1642</ele>
        <time>2022-07-19T15:38:33Z</time>
      </trkpt>
      <trkpt lat="44.52637" lon="6.72612">
        <ele>1642</ele>
        <time>2022-07-19T15:38:34Z</time>
      </trkpt>
      <trkpt lat="44.52636" lon="6.72608">
        <ele>1642</ele>
        <time>2022-07-19T15:38:35Z</time>
      </trkpt>
      <trkpt lat="44.52634" lon="6.72604">
        <ele>1642</ele>
        <time>2022-07-19T15:38:36Z</time>
      </trkpt>
      <trkpt lat="44.52631" lon="6.72601">
        <ele>1642</ele>
        <time>2022-07-19T15:38:37Z</time>
      </trkpt>
      <trkpt lat="44.52628" lon="6.726">
        <ele>1642</ele>
        <time>2022-07-19T15:38:38Z</time>
      </trkpt>
      <trkpt lat="44.52625" lon="6.72598">
        <ele>1642</ele>
        <time>2022-07-19T15:38:39Z</time>
      </trkpt>
      <trkpt lat="44.52621" lon="6.72597">
        <ele>1642</ele>
        <time>2022-07-19T15:38:40Z</time>
      </trkpt>
      <trkpt lat="44.52617" lon="6.72598">
        <ele>1642</ele>
        <time>2022-07-19T15:38:41Z</time>
      </trkpt>
      <trkpt lat="44.52612" lon="6.72599">
        <ele>1642</ele>
        <time>2022-07-19T15:38:42Z</time>
      </trkpt>
      <trkpt lat="44.52608" lon="6.726">
        <ele>1642</ele>
        <time>2022-07-19T15:38:43Z</time>
      </trkpt>
      <trkpt lat="44.52603" lon="6.72601">
        <ele>1642</ele>
        <time>2022-07-19T15:38:44Z</time>
      </trkpt>
      <trkpt lat="44.52599" lon="6.72601">
        <ele>1642</ele>
        <time>2022-07-19T15:38:45Z</time>
      </trkpt>
      <trkpt lat="44.52594" lon="6.72601">
        <ele>1642</ele>
        <time>2022-07-19T15:38:46Z</time>
      </trkpt>
      <trkpt lat="44.52589" lon="6.726">
        <ele>1642</ele>
        <time>2022-07-19T15:38:47Z</time>
      </trkpt>
      <trkpt lat="44.52583" lon="6.72599">
        <ele>1642</ele>
        <time>2022-07-19T15:38:48Z</time>
      </trkpt>
      <trkpt lat="44.52578" lon="6.72597">
        <ele>1642</ele>
        <time>2022-07-19T15:38:49Z</time>
      </trkpt>
      <trkpt lat="44.52573" lon="6.72594">
        <ele>1642</ele>
        <time>2022-07-19T15:38:50Z</time>
      </trkpt>
      <trkpt lat="44.52569" lon="6.7259">
        <ele>1642</ele>
        <time>2022-07-19T15:38:51Z</time>
      </trkpt>
      <trkpt lat="44.52565" lon="6.72585">
        <ele>1642</ele>
        <time>2022-07-19T15:38:52Z</time>
      </trkpt>
      <trkpt lat="44.52561" lon="6.72579">
        <ele>1642</ele>
        <time>2022-07-19T15:38:53Z</time>
      </trkpt>
      <trkpt lat="44.52558" lon="6.72573">
        <ele>1642</ele>
        <time>2022-07-19T15:38:54Z</time>
      </trkpt>
      <trkpt lat="44.52556" lon="6.72566">
        <ele>1642</ele>
        <time>2022-07-19T15:38:55Z</time>
      </trkpt>
      <trkpt lat="44.52555" lon="6.7256">
        <ele>1642</ele>
        <time>2022-07-19T15:38:56Z</time>
      </trkpt>
      <trkpt lat="44.52554" lon="6.72553">
        <ele>1642</ele>
        <time>2022-07-19T15:38:57Z</time>
      </trkpt>
      <trkpt lat="44.52553" lon="6.72546">
        <ele>1642.2</ele>
        <time>2022-07-19T15:38:58Z</time>
      </trkpt>
      <trkpt lat="44.52551" lon="6.72539">
        <ele>1642.2</ele>
        <time>2022-07-19T15:38:59Z</time>
      </trkpt>
      <trkpt lat="44.5255" lon="6.72532">
        <ele>1642.4</ele>
        <time>2022-07-19T15:39:00Z</time>
      </trkpt>
      <trkpt lat="44.52549" lon="6.72525">
        <ele>1642.4</ele>
        <time>2022-07-19T15:39:01Z</time>
      </trkpt>
      <trkpt lat="44.52547" lon="6.72515">
        <ele>1642.4</ele>
        <time>2022-07-19T15:39:02Z</time>
      </trkpt>
      <trkpt lat="44.52546" lon="6.72512">
        <ele>1642.4</ele>
        <time>2022-07-19T15:39:03Z</time>
      </trkpt>
      <trkpt lat="44.52545" lon="6.72506">
        <ele>1642.4</ele>
        <time>2022-07-19T15:39:04Z</time>
      </trkpt>
      <trkpt lat="44.52545" lon="6.72499">
        <ele>1642.4</ele>
        <time>2022-07-19T15:39:05Z</time>
      </trkpt>
      <trkpt lat="44.52545" lon="6.72493">
        <ele>1642.4</ele>
        <time>2022-07-19T15:39:06Z</time>
      </trkpt>
      <trkpt lat="44.52546" lon="6.72487">
        <ele>1642.4</ele>
        <time>2022-07-19T15:39:07Z</time>
      </trkpt>
      <trkpt lat="44.52547" lon="6.7248">
        <ele>1642.4</ele>
        <time>2022-07-19T15:39:08Z</time>
      </trkpt>
      <trkpt lat="44.52548" lon="6.72474">
        <ele>1642.4</ele>
        <time>2022-07-19T15:39:09Z</time>
      </trkpt>
      <trkpt lat="44.52549" lon="6.72468">
        <ele>1642.4</ele>
        <time>2022-07-19T15:39:10Z</time>
      </trkpt>
      <trkpt lat="44.52549" lon="6.72461">
        <ele>1642.4</ele>
        <time>2022-07-19T15:39:11Z</time>
      </trkpt>
      <trkpt lat="44.52549" lon="6.72455">
        <ele>1642.2</ele>
        <time>2022-07-19T15:39:12Z</time>
      </trkpt>
      <trkpt lat="44.52548" lon="6.7245">
        <ele>1642.2</ele>
        <time>2022-07-19T15:39:13Z</time>
      </trkpt>
      <trkpt lat="44.52548" lon="6.72444">
        <ele>1642.2</ele>
        <time>2022-07-19T15:39:14Z</time>
      </trkpt>
      <trkpt lat="44.52547" lon="6.72439">
        <ele>1642.2</ele>
        <time>2022-07-19T15:39:15Z</time>
      </trkpt>
      <trkpt lat="44.52546" lon="6.72434">
        <ele>1642.2</ele>
        <time>2022-07-19T15:39:16Z</time>
      </trkpt>
      <trkpt lat="44.52545" lon="6.72428">
        <ele>1642.2</ele>
        <time>2022-07-19T15:39:17Z</time>
      </trkpt>
      <trkpt lat="44.52545" lon="6.72423">
        <ele>1642.2</ele>
        <time>2022-07-19T15:39:18Z</time>
      </trkpt>
      <trkpt lat="44.52544" lon="6.72417">
        <ele>1642.2</ele>
        <time>2022-07-19T15:39:19Z</time>
      </trkpt>
      <trkpt lat="44.52544" lon="6.72411">
        <ele>1642.2</ele>
        <time>2022-07-19T15:39:20Z</time>
      </trkpt>
      <trkpt lat="44.52543" lon="6.72405">
        <ele>1642.4</ele>
        <time>2022-07-19T15:39:21Z</time>
      </trkpt>
      <trkpt lat="44.52542" lon="6.72399">
        <ele>1642.4</ele>
        <time>2022-07-19T15:39:22Z</time>
      </trkpt>
      <trkpt lat="44.52542" lon="6.72393">
        <ele>1642.4</ele>
        <time>2022-07-19T15:39:23Z</time>
      </trkpt>
      <trkpt lat="44.52541" lon="6.72386">
        <ele>1642.4</ele>
        <time>2022-07-19T15:39:24Z</time>
      </trkpt>
      <trkpt lat="44.5254" lon="6.7238">
        <ele>1642.4</ele>
        <time>2022-07-19T15:39:25Z</time>
      </trkpt>
      <trkpt lat="44.5254" lon="6.72374">
        <ele>1642.6</ele>
        <time>2022-07-19T15:39:26Z</time>
      </trkpt>
      <trkpt lat="44.5254" lon="6.72368">
        <ele>1642.6</ele>
        <time>2022-07-19T15:39:27Z</time>
      </trkpt>
      <trkpt lat="44.5254" lon="6.72363">
        <ele>1643</ele>
        <time>2022-07-19T15:39:28Z</time>
      </trkpt>
      <trkpt lat="44.5254" lon="6.72358">
        <ele>1643.2</ele>
        <time>2022-07-19T15:39:29Z</time>
      </trkpt>
      <trkpt lat="44.5254" lon="6.72353">
        <ele>1643.2</ele>
        <time>2022-07-19T15:39:30Z</time>
      </trkpt>
      <trkpt lat="44.5254" lon="6.72349">
        <ele>1643.6</ele>
        <time>2022-07-19T15:39:31Z</time>
      </trkpt>
      <trkpt lat="44.52541" lon="6.72345">
        <ele>1643.6</ele>
        <time>2022-07-19T15:39:32Z</time>
      </trkpt>
      <trkpt lat="44.52541" lon="6.72342">
        <ele>1644</ele>
        <time>2022-07-19T15:39:33Z</time>
      </trkpt>
      <trkpt lat="44.52542" lon="6.72339">
        <ele>1644.2</ele>
        <time>2022-07-19T15:39:34Z</time>
      </trkpt>
      <trkpt lat="44.52542" lon="6.72336">
        <ele>1644.2</ele>
        <time>2022-07-19T15:39:35Z</time>
      </trkpt>
      <trkpt lat="44.52543" lon="6.72333">
        <ele>1644.6</ele>
        <time>2022-07-19T15:39:36Z</time>
      </trkpt>
      <trkpt lat="44.52544" lon="6.7233">
        <ele>1644.8</ele>
        <time>2022-07-19T15:39:37Z</time>
      </trkpt>
      <trkpt lat="44.52545" lon="6.72327">
        <ele>1645</ele>
        <time>2022-07-19T15:39:38Z</time>
      </trkpt>
      <trkpt lat="44.52545" lon="6.72324">
        <ele>1645.2</ele>
        <time>2022-07-19T15:39:39Z</time>
      </trkpt>
      <trkpt lat="44.52545" lon="6.72321">
        <ele>1645.4</ele>
        <time>2022-07-19T15:39:40Z</time>
      </trkpt>
      <trkpt lat="44.52546" lon="6.72319">
        <ele>1645.6</ele>
        <time>2022-07-19T15:39:41Z</time>
      </trkpt>
      <trkpt lat="44.52546" lon="6.72316">
        <ele>1645.8</ele>
        <time>2022-07-19T15:39:42Z</time>
      </trkpt>
      <trkpt lat="44.52547" lon="6.72314">
        <ele>1645.8</ele>
        <time>2022-07-19T15:39:43Z</time>
      </trkpt>
      <trkpt lat="44.52547" lon="6.72311">
        <ele>1646.2</ele>
        <time>2022-07-19T15:39:44Z</time>
      </trkpt>
      <trkpt lat="44.52548" lon="6.72309">
        <ele>1646.2</ele>
        <time>2022-07-19T15:39:45Z</time>
      </trkpt>
      <trkpt lat="44.52549" lon="6.72306">
        <ele>1646.6</ele>
        <time>2022-07-19T15:39:46Z</time>
      </trkpt>
      <trkpt lat="44.52549" lon="6.72304">
        <ele>1646.6</ele>
        <time>2022-07-19T15:39:47Z</time>
      </trkpt>
      <trkpt lat="44.52549" lon="6.72301">
        <ele>1647</ele>
        <time>2022-07-19T15:39:48Z</time>
      </trkpt>
      <trkpt lat="44.52549" lon="6.72299">
        <ele>1647.2</ele>
        <time>2022-07-19T15:39:49Z</time>
      </trkpt>
      <trkpt lat="44.5255" lon="6.72296">
        <ele>1647.2</ele>
        <time>2022-07-19T15:39:50Z</time>
      </trkpt>
      <trkpt lat="44.5255" lon="6.72294">
        <ele>1647.6</ele>
        <time>2022-07-19T15:39:51Z</time>
      </trkpt>
      <trkpt lat="44.52551" lon="6.72291">
        <ele>1647.8</ele>
        <time>2022-07-19T15:39:52Z</time>
      </trkpt>
      <trkpt lat="44.52551" lon="6.72288">
        <ele>1648</ele>
        <time>2022-07-19T15:39:53Z</time>
      </trkpt>
      <trkpt lat="44.52552" lon="6.72286">
        <ele>1648</ele>
        <time>2022-07-19T15:39:54Z</time>
      </trkpt>
      <trkpt lat="44.52552" lon="6.72283">
        <ele>1648.4</ele>
        <time>2022-07-19T15:39:55Z</time>
      </trkpt>
      <trkpt lat="44.52553" lon="6.72281">
        <ele>1648.4</ele>
        <time>2022-07-19T15:39:56Z</time>
      </trkpt>
      <trkpt lat="44.52554" lon="6.72278">
        <ele>1648.6</ele>
        <time>2022-07-19T15:39:57Z</time>
      </trkpt>
      <trkpt lat="44.52554" lon="6.72276">
        <ele>1648.6</ele>
        <time>2022-07-19T15:39:58Z</time>
      </trkpt>
      <trkpt lat="44.52554" lon="6.72273">
        <ele>1649</ele>
        <time>2022-07-19T15:39:59Z</time>
      </trkpt>
      <trkpt lat="44.52554" lon="6.72271">
        <ele>1649.2</ele>
        <time>2022-07-19T15:40:00Z</time>
      </trkpt>
      <trkpt lat="44.52555" lon="6.72268">
        <ele>1649.4</ele>
        <time>2022-07-19T15:40:01Z</time>
      </trkpt>
      <trkpt lat="44.52555" lon="6.72266">
        <ele>1649.4</ele>
        <time>2022-07-19T15:40:02Z</time>
      </trkpt>
      <trkpt lat="44.52555" lon="6.72263">
        <ele>1649.8</ele>
        <time>2022-07-19T15:40:03Z</time>
      </trkpt>
      <trkpt lat="44.52555" lon="6.7226">
        <ele>1650</ele>
        <time>2022-07-19T15:40:04Z</time>
      </trkpt>
      <trkpt lat="44.52555" lon="6.72258">
        <ele>1650.2</ele>
        <time>2022-07-19T15:40:05Z</time>
      </trkpt>
      <trkpt lat="44.52556" lon="6.72256">
        <ele>1650.4</ele>
        <time>2022-07-19T15:40:06Z</time>
      </trkpt>
      <trkpt lat="44.52556" lon="6.72253">
        <ele>1650.8</ele>
        <time>2022-07-19T15:40:07Z</time>
      </trkpt>
      <trkpt lat="44.52556" lon="6.72251">
        <ele>1650.8</ele>
        <time>2022-07-19T15:40:08Z</time>
      </trkpt>
      <trkpt lat="44.52556" lon="6.72249">
        <ele>1651</ele>
        <time>2022-07-19T15:40:09Z</time>
      </trkpt>
      <trkpt lat="44.52557" lon="6.72246">
        <ele>1651.2</ele>
        <time>2022-07-19T15:40:10Z</time>
      </trkpt>
      <trkpt lat="44.52557" lon="6.72244">
        <ele>1651.2</ele>
        <time>2022-07-19T15:40:11Z</time>
      </trkpt>
      <trkpt lat="44.52558" lon="6.72242">
        <ele>1651.6</ele>
        <time>2022-07-19T15:40:12Z</time>
      </trkpt>
      <trkpt lat="44.52559" lon="6.7224">
        <ele>1651.8</ele>
        <time>2022-07-19T15:40:13Z</time>
      </trkpt>
      <trkpt lat="44.52559" lon="6.72238">
        <ele>1652</ele>
        <time>2022-07-19T15:40:14Z</time>
      </trkpt>
      <trkpt lat="44.5256" lon="6.72236">
        <ele>1652</ele>
        <time>2022-07-19T15:40:15Z</time>
      </trkpt>
      <trkpt lat="44.5256" lon="6.72234">
        <ele>1652.4</ele>
        <time>2022-07-19T15:40:16Z</time>
      </trkpt>
      <trkpt lat="44.52561" lon="6.72232">
        <ele>1652.4</ele>
        <time>2022-07-19T15:40:17Z</time>
      </trkpt>
      <trkpt lat="44.52561" lon="6.7223">
        <ele>1652.8</ele>
        <time>2022-07-19T15:40:18Z</time>
      </trkpt>
      <trkpt lat="44.52562" lon="6.72228">
        <ele>1652.8</ele>
        <time>2022-07-19T15:40:19Z</time>
      </trkpt>
      <trkpt lat="44.52563" lon="6.72226">
        <ele>1653</ele>
        <time>2022-07-19T15:40:20Z</time>
      </trkpt>
      <trkpt lat="44.52564" lon="6.72224">
        <ele>1653</ele>
        <time>2022-07-19T15:40:21Z</time>
      </trkpt>
      <trkpt lat="44.52565" lon="6.7222">
        <ele>1653.4</ele>
        <time>2022-07-19T15:40:22Z</time>
      </trkpt>
      <trkpt lat="44.52566" lon="6.72218">
        <ele>1653.6</ele>
        <time>2022-07-19T15:40:23Z</time>
      </trkpt>
      <trkpt lat="44.52567" lon="6.72216">
        <ele>1653.6</ele>
        <time>2022-07-19T15:40:24Z</time>
      </trkpt>
      <trkpt lat="44.52568" lon="6.72214">
        <ele>1654</ele>
        <time>2022-07-19T15:40:25Z</time>
      </trkpt>
      <trkpt lat="44.52569" lon="6.72212">
        <ele>1654.2</ele>
        <time>2022-07-19T15:40:26Z</time>
      </trkpt>
      <trkpt lat="44.5257" lon="6.7221">
        <ele>1654.2</ele>
        <time>2022-07-19T15:40:27Z</time>
      </trkpt>
      <trkpt lat="44.5257" lon="6.72208">
        <ele>1654.4</ele>
        <time>2022-07-19T15:40:28Z</time>
      </trkpt>
      <trkpt lat="44.52571" lon="6.72206">
        <ele>1654.4</ele>
        <time>2022-07-19T15:40:29Z</time>
      </trkpt>
      <trkpt lat="44.52571" lon="6.72204">
        <ele>1654.8</ele>
        <time>2022-07-19T15:40:30Z</time>
      </trkpt>
      <trkpt lat="44.52572" lon="6.72202">
        <ele>1655</ele>
        <time>2022-07-19T15:40:31Z</time>
      </trkpt>
      <trkpt lat="44.52572" lon="6.722">
        <ele>1655</ele>
        <time>2022-07-19T15:40:32Z</time>
      </trkpt>
      <trkpt lat="44.52573" lon="6.72198">
        <ele>1655.4</ele>
        <time>2022-07-19T15:40:33Z</time>
      </trkpt>
      <trkpt lat="44.52573" lon="6.72196">
        <ele>1655.6</ele>
        <time>2022-07-19T15:40:34Z</time>
      </trkpt>
      <trkpt lat="44.52573" lon="6.72194">
        <ele>1655.8</ele>
        <time>2022-07-19T15:40:35Z</time>
      </trkpt>
      <trkpt lat="44.52573" lon="6.72192">
        <ele>1656.2</ele>
        <time>2022-07-19T15:40:36Z</time>
      </trkpt>
      <trkpt lat="44.52574" lon="6.7219">
        <ele>1656.2</ele>
        <time>2022-07-19T15:40:37Z</time>
      </trkpt>
      <trkpt lat="44.52574" lon="6.72188">
        <ele>1656.4</ele>
        <time>2022-07-19T15:40:38Z</time>
      </trkpt>
      <trkpt lat="44.52575" lon="6.72186">
        <ele>1656.4</ele>
        <time>2022-07-19T15:40:39Z</time>
      </trkpt>
      <trkpt lat="44.52575" lon="6.72184">
        <ele>1656.8</ele>
        <time>2022-07-19T15:40:40Z</time>
      </trkpt>
      <trkpt lat="44.52575" lon="6.72182">
        <ele>1656.8</ele>
        <time>2022-07-19T15:40:41Z</time>
      </trkpt>
      <trkpt lat="44.52576" lon="6.72181">
        <ele>1657</ele>
        <time>2022-07-19T15:40:42Z</time>
      </trkpt>
      <trkpt lat="44.52576" lon="6.72179">
        <ele>1657.2</ele>
        <time>2022-07-19T15:40:43Z</time>
      </trkpt>
      <trkpt lat="44.52577" lon="6.72176">
        <ele>1657.2</ele>
        <time>2022-07-19T15:40:44Z</time>
      </trkpt>
      <trkpt lat="44.52577" lon="6.72174">
        <ele>1657.6</ele>
        <time>2022-07-19T15:40:45Z</time>
      </trkpt>
      <trkpt lat="44.52578" lon="6.72172">
        <ele>1657.6</ele>
        <time>2022-07-19T15:40:46Z</time>
      </trkpt>
      <trkpt lat="44.52578" lon="6.7217">
        <ele>1657.8</ele>
        <time>2022-07-19T15:40:47Z</time>
      </trkpt>
      <trkpt lat="44.52578" lon="6.72168">
        <ele>1657.8</ele>
        <time>2022-07-19T15:40:48Z</time>
      </trkpt>
      <trkpt lat="44.52579" lon="6.72166">
        <ele>1658.2</ele>
        <time>2022-07-19T15:40:49Z</time>
      </trkpt>
      <trkpt lat="44.52579" lon="6.72163">
        <ele>1658.2</ele>
        <time>2022-07-19T15:40:50Z</time>
      </trkpt>
      <trkpt lat="44.52579" lon="6.72161">
        <ele>1658.4</ele>
        <time>2022-07-19T15:40:51Z</time>
      </trkpt>
      <trkpt lat="44.5258" lon="6.72159">
        <ele>1658.4</ele>
        <time>2022-07-19T15:40:52Z</time>
      </trkpt>
      <trkpt lat="44.5258" lon="6.72157">
        <ele>1658.8</ele>
        <time>2022-07-19T15:40:53Z</time>
      </trkpt>
      <trkpt lat="44.52581" lon="6.72155">
        <ele>1658.8</ele>
        <time>2022-07-19T15:40:54Z</time>
      </trkpt>
      <trkpt lat="44.52581" lon="6.72153">
        <ele>1659</ele>
        <time>2022-07-19T15:40:55Z</time>
      </trkpt>
      <trkpt lat="44.52581" lon="6.7215">
        <ele>1659</ele>
        <time>2022-07-19T15:40:56Z</time>
      </trkpt>
      <trkpt lat="44.52581" lon="6.72148">
        <ele>1659.4</ele>
        <time>2022-07-19T15:40:57Z</time>
      </trkpt>
      <trkpt lat="44.52582" lon="6.72146">
        <ele>1659.4</ele>
        <time>2022-07-19T15:40:58Z</time>
      </trkpt>
      <trkpt lat="44.52582" lon="6.72144">
        <ele>1659.6</ele>
        <time>2022-07-19T15:40:59Z</time>
      </trkpt>
      <trkpt lat="44.52583" lon="6.72142">
        <ele>1659.6</ele>
        <time>2022-07-19T15:41:00Z</time>
      </trkpt>
      <trkpt lat="44.52584" lon="6.7214">
        <ele>1659.8</ele>
        <time>2022-07-19T15:41:01Z</time>
      </trkpt>
      <trkpt lat="44.52584" lon="6.72138">
        <ele>1659.8</ele>
        <time>2022-07-19T15:41:02Z</time>
      </trkpt>
      <trkpt lat="44.52585" lon="6.72136">
        <ele>1660.2</ele>
        <time>2022-07-19T15:41:03Z</time>
      </trkpt>
      <trkpt lat="44.52585" lon="6.72133">
        <ele>1660.2</ele>
        <time>2022-07-19T15:41:04Z</time>
      </trkpt>
      <trkpt lat="44.52586" lon="6.72131">
        <ele>1660.6</ele>
        <time>2022-07-19T15:41:05Z</time>
      </trkpt>
      <trkpt lat="44.52586" lon="6.72129">
        <ele>1660.8</ele>
        <time>2022-07-19T15:41:06Z</time>
      </trkpt>
      <trkpt lat="44.52587" lon="6.72127">
        <ele>1660.8</ele>
        <time>2022-07-19T15:41:07Z</time>
      </trkpt>
      <trkpt lat="44.52588" lon="6.72125">
        <ele>1661.2</ele>
        <time>2022-07-19T15:41:08Z</time>
      </trkpt>
      <trkpt lat="44.52588" lon="6.72123">
        <ele>1661.4</ele>
        <time>2022-07-19T15:41:09Z</time>
      </trkpt>
      <trkpt lat="44.52589" lon="6.72121">
        <ele>1661.4</ele>
        <time>2022-07-19T15:41:10Z</time>
      </trkpt>
      <trkpt lat="44.5259" lon="6.72119">
        <ele>1661.8</ele>
        <time>2022-07-19T15:41:11Z</time>
      </trkpt>
      <trkpt lat="44.5259" lon="6.72117">
        <ele>1662</ele>
        <time>2022-07-19T15:41:12Z</time>
      </trkpt>
      <trkpt lat="44.52591" lon="6.72115">
        <ele>1662</ele>
        <time>2022-07-19T15:41:13Z</time>
      </trkpt>
      <trkpt lat="44.52592" lon="6.72112">
        <ele>1662.4</ele>
        <time>2022-07-19T15:41:14Z</time>
      </trkpt>
      <trkpt lat="44.52592" lon="6.7211">
        <ele>1662.4</ele>
        <time>2022-07-19T15:41:15Z</time>
      </trkpt>
      <trkpt lat="44.52593" lon="6.72108">
        <ele>1662.8</ele>
        <time>2022-07-19T15:41:16Z</time>
      </trkpt>
      <trkpt lat="44.52593" lon="6.72106">
        <ele>1663</ele>
        <time>2022-07-19T15:41:17Z</time>
      </trkpt>
      <trkpt lat="44.52594" lon="6.72104">
        <ele>1663.2</ele>
        <time>2022-07-19T15:41:18Z</time>
      </trkpt>
      <trkpt lat="44.52595" lon="6.72102">
        <ele>1663.6</ele>
        <time>2022-07-19T15:41:19Z</time>
      </trkpt>
      <trkpt lat="44.52596" lon="6.72101">
        <ele>1663.8</ele>
        <time>2022-07-19T15:41:20Z</time>
      </trkpt>
      <trkpt lat="44.52596" lon="6.72099">
        <ele>1663.8</ele>
        <time>2022-07-19T15:41:21Z</time>
      </trkpt>
      <trkpt lat="44.52597" lon="6.72096">
        <ele>1664.2</ele>
        <time>2022-07-19T15:41:22Z</time>
      </trkpt>
      <trkpt lat="44.52598" lon="6.72094">
        <ele>1664.4</ele>
        <time>2022-07-19T15:41:23Z</time>
      </trkpt>
      <trkpt lat="44.52598" lon="6.72092">
        <ele>1664.6</ele>
        <time>2022-07-19T15:41:24Z</time>
      </trkpt>
      <trkpt lat="44.52599" lon="6.7209">
        <ele>1664.6</ele>
        <time>2022-07-19T15:41:25Z</time>
      </trkpt>
      <trkpt lat="44.52599" lon="6.72088">
        <ele>1664.8</ele>
        <time>2022-07-19T15:41:26Z</time>
      </trkpt>
      <trkpt lat="44.526" lon="6.72086">
        <ele>1664.8</ele>
        <time>2022-07-19T15:41:27Z</time>
      </trkpt>
      <trkpt lat="44.52601" lon="6.72084">
        <ele>1664.8</ele>
        <time>2022-07-19T15:41:28Z</time>
      </trkpt>
      <trkpt lat="44.52602" lon="6.72082">
        <ele>1665.2</ele>
        <time>2022-07-19T15:41:29Z</time>
      </trkpt>
      <trkpt lat="44.52602" lon="6.7208">
        <ele>1665.2</ele>
        <time>2022-07-19T15:41:30Z</time>
      </trkpt>
      <trkpt lat="44.52603" lon="6.72078">
        <ele>1665.4</ele>
        <time>2022-07-19T15:41:31Z</time>
      </trkpt>
      <trkpt lat="44.52604" lon="6.72076">
        <ele>1665.4</ele>
        <time>2022-07-19T15:41:32Z</time>
      </trkpt>
      <trkpt lat="44.52604" lon="6.72074">
        <ele>1665.8</ele>
        <time>2022-07-19T15:41:33Z</time>
      </trkpt>
      <trkpt lat="44.52605" lon="6.72072">
        <ele>1665.8</ele>
        <time>2022-07-19T15:41:34Z</time>
      </trkpt>
      <trkpt lat="44.52605" lon="6.7207">
        <ele>1666.2</ele>
        <time>2022-07-19T15:41:35Z</time>
      </trkpt>
      <trkpt lat="44.52606" lon="6.72068">
        <ele>1666.2</ele>
        <time>2022-07-19T15:41:36Z</time>
      </trkpt>
      <trkpt lat="44.52607" lon="6.72066">
        <ele>1666.4</ele>
        <time>2022-07-19T15:41:37Z</time>
      </trkpt>
      <trkpt lat="44.52607" lon="6.72064">
        <ele>1666.4</ele>
        <time>2022-07-19T15:41:38Z</time>
      </trkpt>
      <trkpt lat="44.52608" lon="6.72062">
        <ele>1666.6</ele>
        <time>2022-07-19T15:41:39Z</time>
      </trkpt>
      <trkpt lat="44.52608" lon="6.7206">
        <ele>1666.6</ele>
        <time>2022-07-19T15:41:40Z</time>
      </trkpt>
      <trkpt lat="44.52609" lon="6.72058">
        <ele>1667</ele>
        <time>2022-07-19T15:41:41Z</time>
      </trkpt>
      <trkpt lat="44.5261" lon="6.72057">
        <ele>1667</ele>
        <time>2022-07-19T15:41:42Z</time>
      </trkpt>
      <trkpt lat="44.5261" lon="6.72054">
        <ele>1667.4</ele>
        <time>2022-07-19T15:41:43Z</time>
      </trkpt>
      <trkpt lat="44.52611" lon="6.72052">
        <ele>1667.4</ele>
        <time>2022-07-19T15:41:44Z</time>
      </trkpt>
      <trkpt lat="44.52611" lon="6.7205">
        <ele>1667.8</ele>
        <time>2022-07-19T15:41:45Z</time>
      </trkpt>
      <trkpt lat="44.52612" lon="6.72048">
        <ele>1667.8</ele>
        <time>2022-07-19T15:41:46Z</time>
      </trkpt>
      <trkpt lat="44.52612" lon="6.72047">
        <ele>1668</ele>
        <time>2022-07-19T15:41:47Z</time>
      </trkpt>
      <trkpt lat="44.52613" lon="6.72045">
        <ele>1668</ele>
        <time>2022-07-19T15:41:48Z</time>
      </trkpt>
      <trkpt lat="44.52613" lon="6.72043">
        <ele>1668.4</ele>
        <time>2022-07-19T15:41:49Z</time>
      </trkpt>
      <trkpt lat="44.52614" lon="6.72041">
        <ele>1668.4</ele>
        <time>2022-07-19T15:41:50Z</time>
      </trkpt>
      <trkpt lat="44.52615" lon="6.72039">
        <ele>1668.8</ele>
        <time>2022-07-19T15:41:51Z</time>
      </trkpt>
      <trkpt lat="44.52615" lon="6.72037">
        <ele>1669</ele>
        <time>2022-07-19T15:41:52Z</time>
      </trkpt>
      <trkpt lat="44.52616" lon="6.72035">
        <ele>1669.2</ele>
        <time>2022-07-19T15:41:53Z</time>
      </trkpt>
      <trkpt lat="44.52616" lon="6.72033">
        <ele>1669.4</ele>
        <time>2022-07-19T15:41:54Z</time>
      </trkpt>
      <trkpt lat="44.52617" lon="6.72032">
        <ele>1669.4</ele>
        <time>2022-07-19T15:41:55Z</time>
      </trkpt>
      <trkpt lat="44.52618" lon="6.7203">
        <ele>1669.8</ele>
        <time>2022-07-19T15:41:56Z</time>
      </trkpt>
      <trkpt lat="44.52618" lon="6.72028">
        <ele>1670</ele>
        <time>2022-07-19T15:41:57Z</time>
      </trkpt>
      <trkpt lat="44.52619" lon="6.72026">
        <ele>1670</ele>
        <time>2022-07-19T15:41:58Z</time>
      </trkpt>
      <trkpt lat="44.52619" lon="6.72024">
        <ele>1670</ele>
        <time>2022-07-19T15:41:59Z</time>
      </trkpt>
      <trkpt lat="44.5262" lon="6.72022">
        <ele>1670.4</ele>
        <time>2022-07-19T15:42:00Z</time>
      </trkpt>
      <trkpt lat="44.5262" lon="6.7202">
        <ele>1670.4</ele>
        <time>2022-07-19T15:42:01Z</time>
      </trkpt>
      <trkpt lat="44.52621" lon="6.72018">
        <ele>1670.6</ele>
        <time>2022-07-19T15:42:02Z</time>
      </trkpt>
      <trkpt lat="44.52622" lon="6.72016">
        <ele>1670.6</ele>
        <time>2022-07-19T15:42:03Z</time>
      </trkpt>
      <trkpt lat="44.52622" lon="6.72014">
        <ele>1670.8</ele>
        <time>2022-07-19T15:42:04Z</time>
      </trkpt>
      <trkpt lat="44.52623" lon="6.72012">
        <ele>1670.8</ele>
        <time>2022-07-19T15:42:05Z</time>
      </trkpt>
      <trkpt lat="44.52623" lon="6.72011">
        <ele>1671</ele>
        <time>2022-07-19T15:42:06Z</time>
      </trkpt>
      <trkpt lat="44.52624" lon="6.72009">
        <ele>1671</ele>
        <time>2022-07-19T15:42:07Z</time>
      </trkpt>
      <trkpt lat="44.52625" lon="6.72007">
        <ele>1671.2</ele>
        <time>2022-07-19T15:42:08Z</time>
      </trkpt>
      <trkpt lat="44.52626" lon="6.72005">
        <ele>1671.2</ele>
        <time>2022-07-19T15:42:09Z</time>
      </trkpt>
      <trkpt lat="44.52626" lon="6.72004">
        <ele>1671.2</ele>
        <time>2022-07-19T15:42:10Z</time>
      </trkpt>
      <trkpt lat="44.52627" lon="6.72002">
        <ele>1671.6</ele>
        <time>2022-07-19T15:42:11Z</time>
      </trkpt>
      <trkpt lat="44.52628" lon="6.72">
        <ele>1671.6</ele>
        <time>2022-07-19T15:42:12Z</time>
      </trkpt>
      <trkpt lat="44.52629" lon="6.71999">
        <ele>1671.8</ele>
        <time>2022-07-19T15:42:13Z</time>
      </trkpt>
      <trkpt lat="44.5263" lon="6.71997">
        <ele>1671.8</ele>
        <time>2022-07-19T15:42:14Z</time>
      </trkpt>
      <trkpt lat="44.52631" lon="6.71995">
        <ele>1672.2</ele>
        <time>2022-07-19T15:42:15Z</time>
      </trkpt>
      <trkpt lat="44.52631" lon="6.71994">
        <ele>1672.2</ele>
        <time>2022-07-19T15:42:16Z</time>
      </trkpt>
      <trkpt lat="44.52632" lon="6.71992">
        <ele>1672.6</ele>
        <time>2022-07-19T15:42:17Z</time>
      </trkpt>
      <trkpt lat="44.52633" lon="6.7199">
        <ele>1672.6</ele>
        <time>2022-07-19T15:42:18Z</time>
      </trkpt>
      <trkpt lat="44.52634" lon="6.71988">
        <ele>1672.8</ele>
        <time>2022-07-19T15:42:19Z</time>
      </trkpt>
      <trkpt lat="44.52635" lon="6.71986">
        <ele>1672.8</ele>
        <time>2022-07-19T15:42:20Z</time>
      </trkpt>
      <trkpt lat="44.52635" lon="6.71985">
        <ele>1673.2</ele>
        <time>2022-07-19T15:42:21Z</time>
      </trkpt>
      <trkpt lat="44.52636" lon="6.71983">
        <ele>1673.2</ele>
        <time>2022-07-19T15:42:22Z</time>
      </trkpt>
      <trkpt lat="44.52637" lon="6.71981">
        <ele>1673.4</ele>
        <time>2022-07-19T15:42:23Z</time>
      </trkpt>
      <trkpt lat="44.52638" lon="6.71979">
        <ele>1673.4</ele>
        <time>2022-07-19T15:42:24Z</time>
      </trkpt>
      <trkpt lat="44.52639" lon="6.71978">
        <ele>1673.8</ele>
        <time>2022-07-19T15:42:25Z</time>
      </trkpt>
      <trkpt lat="44.5264" lon="6.71976">
        <ele>1673.8</ele>
        <time>2022-07-19T15:42:26Z</time>
      </trkpt>
      <trkpt lat="44.5264" lon="6.71974">
        <ele>1674</ele>
        <time>2022-07-19T15:42:27Z</time>
      </trkpt>
      <trkpt lat="44.52641" lon="6.71972">
        <ele>1674.4</ele>
        <time>2022-07-19T15:42:28Z</time>
      </trkpt>
      <trkpt lat="44.52642" lon="6.71971">
        <ele>1674.6</ele>
        <time>2022-07-19T15:42:29Z</time>
      </trkpt>
      <trkpt lat="44.52643" lon="6.71969">
        <ele>1674.8</ele>
        <time>2022-07-19T15:42:30Z</time>
      </trkpt>
      <trkpt lat="44.52644" lon="6.71968">
        <ele>1674.8</ele>
        <time>2022-07-19T15:42:31Z</time>
      </trkpt>
      <trkpt lat="44.52645" lon="6.71966">
        <ele>1675.2</ele>
        <time>2022-07-19T15:42:32Z</time>
      </trkpt>
      <trkpt lat="44.52646" lon="6.71964">
        <ele>1675.2</ele>
        <time>2022-07-19T15:42:33Z</time>
      </trkpt>
      <trkpt lat="44.52647" lon="6.71962">
        <ele>1675.6</ele>
        <time>2022-07-19T15:42:34Z</time>
      </trkpt>
      <trkpt lat="44.52648" lon="6.71961">
        <ele>1675.6</ele>
        <time>2022-07-19T15:42:35Z</time>
      </trkpt>
      <trkpt lat="44.52648" lon="6.71959">
        <ele>1675.8</ele>
        <time>2022-07-19T15:42:36Z</time>
      </trkpt>
      <trkpt lat="44.52649" lon="6.71957">
        <ele>1675.8</ele>
        <time>2022-07-19T15:42:37Z</time>
      </trkpt>
      <trkpt lat="44.5265" lon="6.71955">
        <ele>1675.8</ele>
        <time>2022-07-19T15:42:38Z</time>
      </trkpt>
      <trkpt lat="44.5265" lon="6.71953">
        <ele>1676.2</ele>
        <time>2022-07-19T15:42:39Z</time>
      </trkpt>
      <trkpt lat="44.52651" lon="6.71951">
        <ele>1676.2</ele>
        <time>2022-07-19T15:42:40Z</time>
      </trkpt>
      <trkpt lat="44.52652" lon="6.71949">
        <ele>1676.6</ele>
        <time>2022-07-19T15:42:41Z</time>
      </trkpt>
      <trkpt lat="44.52653" lon="6.71947">
        <ele>1676.8</ele>
        <time>2022-07-19T15:42:42Z</time>
      </trkpt>
      <trkpt lat="44.52653" lon="6.71946">
        <ele>1677.2</ele>
        <time>2022-07-19T15:42:43Z</time>
      </trkpt>
      <trkpt lat="44.52654" lon="6.71944">
        <ele>1677.2</ele>
        <time>2022-07-19T15:42:44Z</time>
      </trkpt>
      <trkpt lat="44.52654" lon="6.71942">
        <ele>1677.4</ele>
        <time>2022-07-19T15:42:45Z</time>
      </trkpt>
      <trkpt lat="44.52655" lon="6.7194">
        <ele>1677.4</ele>
        <time>2022-07-19T15:42:46Z</time>
      </trkpt>
      <trkpt lat="44.52655" lon="6.71938">
        <ele>1677.8</ele>
        <time>2022-07-19T15:42:47Z</time>
      </trkpt>
      <trkpt lat="44.52656" lon="6.71936">
        <ele>1678</ele>
        <time>2022-07-19T15:42:48Z</time>
      </trkpt>
      <trkpt lat="44.52656" lon="6.71934">
        <ele>1678.2</ele>
        <time>2022-07-19T15:42:49Z</time>
      </trkpt>
      <trkpt lat="44.52657" lon="6.71932">
        <ele>1678.2</ele>
        <time>2022-07-19T15:42:50Z</time>
      </trkpt>
      <trkpt lat="44.52657" lon="6.7193">
        <ele>1678.6</ele>
        <time>2022-07-19T15:42:51Z</time>
      </trkpt>
      <trkpt lat="44.52658" lon="6.71928">
        <ele>1678.8</ele>
        <time>2022-07-19T15:42:52Z</time>
      </trkpt>
      <trkpt lat="44.52658" lon="6.71927">
        <ele>1679</ele>
        <time>2022-07-19T15:42:53Z</time>
      </trkpt>
      <trkpt lat="44.52659" lon="6.71925">
        <ele>1679</ele>
        <time>2022-07-19T15:42:54Z</time>
      </trkpt>
      <trkpt lat="44.52659" lon="6.71923">
        <ele>1679.2</ele>
        <time>2022-07-19T15:42:55Z</time>
      </trkpt>
      <trkpt lat="44.5266" lon="6.71921">
        <ele>1679.2</ele>
        <time>2022-07-19T15:42:56Z</time>
      </trkpt>
      <trkpt lat="44.5266" lon="6.7192">
        <ele>1679.6</ele>
        <time>2022-07-19T15:42:57Z</time>
      </trkpt>
      <trkpt lat="44.5266" lon="6.71918">
        <ele>1679.8</ele>
        <time>2022-07-19T15:42:58Z</time>
      </trkpt>
      <trkpt lat="44.52661" lon="6.71916">
        <ele>1679.8</ele>
        <time>2022-07-19T15:42:59Z</time>
      </trkpt>
      <trkpt lat="44.52661" lon="6.71914">
        <ele>1680</ele>
        <time>2022-07-19T15:43:00Z</time>
      </trkpt>
      <trkpt lat="44.52661" lon="6.71912">
        <ele>1680</ele>
        <time>2022-07-19T15:43:01Z</time>
      </trkpt>
      <trkpt lat="44.52662" lon="6.71911">
        <ele>1680.4</ele>
        <time>2022-07-19T15:43:02Z</time>
      </trkpt>
      <trkpt lat="44.52662" lon="6.71909">
        <ele>1680.8</ele>
        <time>2022-07-19T15:43:03Z</time>
      </trkpt>
      <trkpt lat="44.52663" lon="6.71908">
        <ele>1680.8</ele>
        <time>2022-07-19T15:43:04Z</time>
      </trkpt>
      <trkpt lat="44.52663" lon="6.71906">
        <ele>1681</ele>
        <time>2022-07-19T15:43:05Z</time>
      </trkpt>
      <trkpt lat="44.52664" lon="6.71904">
        <ele>1681</ele>
        <time>2022-07-19T15:43:06Z</time>
      </trkpt>
      <trkpt lat="44.52664" lon="6.71903">
        <ele>1681.4</ele>
        <time>2022-07-19T15:43:08Z</time>
      </trkpt>
      <trkpt lat="44.52664" lon="6.71901">
        <ele>1681.8</ele>
        <time>2022-07-19T15:43:09Z</time>
      </trkpt>
      <trkpt lat="44.52665" lon="6.71899">
        <ele>1681.8</ele>
        <time>2022-07-19T15:43:10Z</time>
      </trkpt>
      <trkpt lat="44.52665" lon="6.71897">
        <ele>1681.8</ele>
        <time>2022-07-19T15:43:11Z</time>
      </trkpt>
      <trkpt lat="44.52665" lon="6.71896">
        <ele>1682</ele>
        <time>2022-07-19T15:43:12Z</time>
      </trkpt>
      <trkpt lat="44.52666" lon="6.71894">
        <ele>1682</ele>
        <time>2022-07-19T15:43:13Z</time>
      </trkpt>
      <trkpt lat="44.52666" lon="6.71892">
        <ele>1682</ele>
        <time>2022-07-19T15:43:14Z</time>
      </trkpt>
      <trkpt lat="44.52666" lon="6.71891">
        <ele>1682.4</ele>
        <time>2022-07-19T15:43:15Z</time>
      </trkpt>
      <trkpt lat="44.52666" lon="6.71889">
        <ele>1682.4</ele>
        <time>2022-07-19T15:43:16Z</time>
      </trkpt>
      <trkpt lat="44.52666" lon="6.71887">
        <ele>1682.6</ele>
        <time>2022-07-19T15:43:17Z</time>
      </trkpt>
      <trkpt lat="44.52667" lon="6.71885">
        <ele>1682.6</ele>
        <time>2022-07-19T15:43:18Z</time>
      </trkpt>
      <trkpt lat="44.52667" lon="6.71883">
        <ele>1683</ele>
        <time>2022-07-19T15:43:19Z</time>
      </trkpt>
      <trkpt lat="44.52668" lon="6.71881">
        <ele>1683</ele>
        <time>2022-07-19T15:43:20Z</time>
      </trkpt>
      <trkpt lat="44.52668" lon="6.7188">
        <ele>1683.2</ele>
        <time>2022-07-19T15:43:21Z</time>
      </trkpt>
      <trkpt lat="44.52668" lon="6.71878">
        <ele>1683.2</ele>
        <time>2022-07-19T15:43:22Z</time>
      </trkpt>
      <trkpt lat="44.52668" lon="6.71876">
        <ele>1683.4</ele>
        <time>2022-07-19T15:43:23Z</time>
      </trkpt>
      <trkpt lat="44.52668" lon="6.71874">
        <ele>1683.4</ele>
        <time>2022-07-19T15:43:24Z</time>
      </trkpt>
      <trkpt lat="44.52669" lon="6.71872">
        <ele>1683.8</ele>
        <time>2022-07-19T15:43:25Z</time>
      </trkpt>
      <trkpt lat="44.52669" lon="6.7187">
        <ele>1683.8</ele>
        <time>2022-07-19T15:43:26Z</time>
      </trkpt>
      <trkpt lat="44.52669" lon="6.71868">
        <ele>1684.2</ele>
        <time>2022-07-19T15:43:27Z</time>
      </trkpt>
      <trkpt lat="44.52669" lon="6.71866">
        <ele>1684.4</ele>
        <time>2022-07-19T15:43:28Z</time>
      </trkpt>
      <trkpt lat="44.5267" lon="6.71864">
        <ele>1684.4</ele>
        <time>2022-07-19T15:43:29Z</time>
      </trkpt>
      <trkpt lat="44.5267" lon="6.71862">
        <ele>1684.6</ele>
        <time>2022-07-19T15:43:30Z</time>
      </trkpt>
      <trkpt lat="44.5267" lon="6.7186">
        <ele>1684.8</ele>
        <time>2022-07-19T15:43:31Z</time>
      </trkpt>
      <trkpt lat="44.52671" lon="6.71858">
        <ele>1685</ele>
        <time>2022-07-19T15:43:32Z</time>
      </trkpt>
      <trkpt lat="44.52671" lon="6.71856">
        <ele>1685</ele>
        <time>2022-07-19T15:43:33Z</time>
      </trkpt>
      <trkpt lat="44.52672" lon="6.71854">
        <ele>1685.4</ele>
        <time>2022-07-19T15:43:34Z</time>
      </trkpt>
      <trkpt lat="44.52672" lon="6.71853">
        <ele>1685.6</ele>
        <time>2022-07-19T15:43:35Z</time>
      </trkpt>
      <trkpt lat="44.52672" lon="6.71851">
        <ele>1685.8</ele>
        <time>2022-07-19T15:43:36Z</time>
      </trkpt>
      <trkpt lat="44.52673" lon="6.71849">
        <ele>1686</ele>
        <time>2022-07-19T15:43:37Z</time>
      </trkpt>
      <trkpt lat="44.52673" lon="6.71846">
        <ele>1686</ele>
        <time>2022-07-19T15:43:38Z</time>
      </trkpt>
      <trkpt lat="44.52673" lon="6.71844">
        <ele>1686.4</ele>
        <time>2022-07-19T15:43:39Z</time>
      </trkpt>
      <trkpt lat="44.52674" lon="6.71842">
        <ele>1686.6</ele>
        <time>2022-07-19T15:43:40Z</time>
      </trkpt>
      <trkpt lat="44.52675" lon="6.7184">
        <ele>1686.8</ele>
        <time>2022-07-19T15:43:41Z</time>
      </trkpt>
      <trkpt lat="44.52676" lon="6.71838">
        <ele>1687.2</ele>
        <time>2022-07-19T15:43:42Z</time>
      </trkpt>
      <trkpt lat="44.52677" lon="6.71836">
        <ele>1687.4</ele>
        <time>2022-07-19T15:43:43Z</time>
      </trkpt>
      <trkpt lat="44.52678" lon="6.71835">
        <ele>1687.6</ele>
        <time>2022-07-19T15:43:44Z</time>
      </trkpt>
      <trkpt lat="44.52679" lon="6.71833">
        <ele>1687.6</ele>
        <time>2022-07-19T15:43:45Z</time>
      </trkpt>
      <trkpt lat="44.5268" lon="6.71832">
        <ele>1688</ele>
        <time>2022-07-19T15:43:46Z</time>
      </trkpt>
      <trkpt lat="44.52681" lon="6.71831">
        <ele>1688.4</ele>
        <time>2022-07-19T15:43:47Z</time>
      </trkpt>
      <trkpt lat="44.52682" lon="6.7183">
        <ele>1688.4</ele>
        <time>2022-07-19T15:43:48Z</time>
      </trkpt>
      <trkpt lat="44.52683" lon="6.71829">
        <ele>1688.6</ele>
        <time>2022-07-19T15:43:49Z</time>
      </trkpt>
      <trkpt lat="44.52684" lon="6.71828">
        <ele>1688.6</ele>
        <time>2022-07-19T15:43:50Z</time>
      </trkpt>
      <trkpt lat="44.52686" lon="6.71827">
        <ele>1689</ele>
        <time>2022-07-19T15:43:51Z</time>
      </trkpt>
      <trkpt lat="44.52687" lon="6.71826">
        <ele>1689</ele>
        <time>2022-07-19T15:43:52Z</time>
      </trkpt>
      <trkpt lat="44.52688" lon="6.71825">
        <ele>1689.2</ele>
        <time>2022-07-19T15:43:53Z</time>
      </trkpt>
      <trkpt lat="44.5269" lon="6.71824">
        <ele>1689.2</ele>
        <time>2022-07-19T15:43:54Z</time>
      </trkpt>
      <trkpt lat="44.52691" lon="6.71823">
        <ele>1689.6</ele>
        <time>2022-07-19T15:43:55Z</time>
      </trkpt>
      <trkpt lat="44.52692" lon="6.71821">
        <ele>1689.8</ele>
        <time>2022-07-19T15:43:56Z</time>
      </trkpt>
      <trkpt lat="44.52693" lon="6.7182">
        <ele>1689.8</ele>
        <time>2022-07-19T15:43:57Z</time>
      </trkpt>
      <trkpt lat="44.52694" lon="6.7182">
        <ele>1690</ele>
        <time>2022-07-19T15:43:58Z</time>
      </trkpt>
      <trkpt lat="44.52696" lon="6.71819">
        <ele>1690</ele>
        <time>2022-07-19T15:43:59Z</time>
      </trkpt>
      <trkpt lat="44.52697" lon="6.71818">
        <ele>1690.4</ele>
        <time>2022-07-19T15:44:00Z</time>
      </trkpt>
      <trkpt lat="44.52698" lon="6.71817">
        <ele>1690.4</ele>
        <time>2022-07-19T15:44:01Z</time>
      </trkpt>
      <trkpt lat="44.52699" lon="6.71816">
        <ele>1690.8</ele>
        <time>2022-07-19T15:44:02Z</time>
      </trkpt>
      <trkpt lat="44.527" lon="6.71815">
        <ele>1690.8</ele>
        <time>2022-07-19T15:44:03Z</time>
      </trkpt>
      <trkpt lat="44.52702" lon="6.71814">
        <ele>1691.2</ele>
        <time>2022-07-19T15:44:04Z</time>
      </trkpt>
      <trkpt lat="44.52703" lon="6.71813">
        <ele>1691.4</ele>
        <time>2022-07-19T15:44:05Z</time>
      </trkpt>
      <trkpt lat="44.52704" lon="6.71812">
        <ele>1691.6</ele>
        <time>2022-07-19T15:44:06Z</time>
      </trkpt>
      <trkpt lat="44.52705" lon="6.71811">
        <ele>1692</ele>
        <time>2022-07-19T15:44:07Z</time>
      </trkpt>
      <trkpt lat="44.52706" lon="6.7181">
        <ele>1692</ele>
        <time>2022-07-19T15:44:08Z</time>
      </trkpt>
      <trkpt lat="44.52707" lon="6.71809">
        <ele>1692.2</ele>
        <time>2022-07-19T15:44:09Z</time>
      </trkpt>
      <trkpt lat="44.52708" lon="6.71808">
        <ele>1692.2</ele>
        <time>2022-07-19T15:44:10Z</time>
      </trkpt>
      <trkpt lat="44.52709" lon="6.71807">
        <ele>1692.6</ele>
        <time>2022-07-19T15:44:11Z</time>
      </trkpt>
      <trkpt lat="44.5271" lon="6.71806">
        <ele>1692.6</ele>
        <time>2022-07-19T15:44:12Z</time>
      </trkpt>
      <trkpt lat="44.52711" lon="6.71805">
        <ele>1692.6</ele>
        <time>2022-07-19T15:44:13Z</time>
      </trkpt>
      <trkpt lat="44.52712" lon="6.71804">
        <ele>1692.8</ele>
        <time>2022-07-19T15:44:14Z</time>
      </trkpt>
      <trkpt lat="44.52713" lon="6.71803">
        <ele>1692.8</ele>
        <time>2022-07-19T15:44:15Z</time>
      </trkpt>
      <trkpt lat="44.52715" lon="6.71801">
        <ele>1693.2</ele>
        <time>2022-07-19T15:44:16Z</time>
      </trkpt>
      <trkpt lat="44.52715" lon="6.718">
        <ele>1693.2</ele>
        <time>2022-07-19T15:44:17Z</time>
      </trkpt>
      <trkpt lat="44.52716" lon="6.71799">
        <ele>1693.4</ele>
        <time>2022-07-19T15:44:18Z</time>
      </trkpt>
      <trkpt lat="44.52717" lon="6.71797">
        <ele>1693.4</ele>
        <time>2022-07-19T15:44:19Z</time>
      </trkpt>
      <trkpt lat="44.52718" lon="6.71795">
        <ele>1693.8</ele>
        <time>2022-07-19T15:44:20Z</time>
      </trkpt>
      <trkpt lat="44.52718" lon="6.71793">
        <ele>1693.8</ele>
        <time>2022-07-19T15:44:21Z</time>
      </trkpt>
      <trkpt lat="44.52719" lon="6.71792">
        <ele>1694.2</ele>
        <time>2022-07-19T15:44:22Z</time>
      </trkpt>
      <trkpt lat="44.52719" lon="6.7179">
        <ele>1694.2</ele>
        <time>2022-07-19T15:44:23Z</time>
      </trkpt>
      <trkpt lat="44.52719" lon="6.71788">
        <ele>1694.4</ele>
        <time>2022-07-19T15:44:24Z</time>
      </trkpt>
      <trkpt lat="44.52719" lon="6.71786">
        <ele>1694.4</ele>
        <time>2022-07-19T15:44:25Z</time>
      </trkpt>
      <trkpt lat="44.52719" lon="6.71784">
        <ele>1694.6</ele>
        <time>2022-07-19T15:44:26Z</time>
      </trkpt>
      <trkpt lat="44.52718" lon="6.71782">
        <ele>1694.6</ele>
        <time>2022-07-19T15:44:27Z</time>
      </trkpt>
      <trkpt lat="44.52718" lon="6.7178">
        <ele>1695</ele>
        <time>2022-07-19T15:44:28Z</time>
      </trkpt>
      <trkpt lat="44.52717" lon="6.71778">
        <ele>1695</ele>
        <time>2022-07-19T15:44:29Z</time>
      </trkpt>
      <trkpt lat="44.52717" lon="6.71776">
        <ele>1695</ele>
        <time>2022-07-19T15:44:30Z</time>
      </trkpt>
      <trkpt lat="44.52716" lon="6.71774">
        <ele>1695.2</ele>
        <time>2022-07-19T15:44:31Z</time>
      </trkpt>
      <trkpt lat="44.52715" lon="6.71772">
        <ele>1695.4</ele>
        <time>2022-07-19T15:44:32Z</time>
      </trkpt>
      <trkpt lat="44.52714" lon="6.7177">
        <ele>1695.4</ele>
        <time>2022-07-19T15:44:33Z</time>
      </trkpt>
      <trkpt lat="44.52713" lon="6.71769">
        <ele>1695.6</ele>
        <time>2022-07-19T15:44:34Z</time>
      </trkpt>
      <trkpt lat="44.52712" lon="6.71767">
        <ele>1695.6</ele>
        <time>2022-07-19T15:44:35Z</time>
      </trkpt>
      <trkpt lat="44.52711" lon="6.71766">
        <ele>1695.8</ele>
        <time>2022-07-19T15:44:36Z</time>
      </trkpt>
      <trkpt lat="44.5271" lon="6.71765">
        <ele>1695.8</ele>
        <time>2022-07-19T15:44:37Z</time>
      </trkpt>
      <trkpt lat="44.52708" lon="6.71764">
        <ele>1695.8</ele>
        <time>2022-07-19T15:44:38Z</time>
      </trkpt>
      <trkpt lat="44.52707" lon="6.71763">
        <ele>1696.2</ele>
        <time>2022-07-19T15:44:39Z</time>
      </trkpt>
      <trkpt lat="44.52706" lon="6.71761">
        <ele>1696.2</ele>
        <time>2022-07-19T15:44:40Z</time>
      </trkpt>
      <trkpt lat="44.52705" lon="6.7176">
        <ele>1696.4</ele>
        <time>2022-07-19T15:44:41Z</time>
      </trkpt>
      <trkpt lat="44.52703" lon="6.71759">
        <ele>1696.4</ele>
        <time>2022-07-19T15:44:42Z</time>
      </trkpt>
      <trkpt lat="44.52702" lon="6.71758">
        <ele>1696.6</ele>
        <time>2022-07-19T15:44:43Z</time>
      </trkpt>
      <trkpt lat="44.52701" lon="6.71757">
        <ele>1696.6</ele>
        <time>2022-07-19T15:44:44Z</time>
      </trkpt>
      <trkpt lat="44.527" lon="6.71756">
        <ele>1696.6</ele>
        <time>2022-07-19T15:44:45Z</time>
      </trkpt>
      <trkpt lat="44.52699" lon="6.71754">
        <ele>1697</ele>
        <time>2022-07-19T15:44:46Z</time>
      </trkpt>
      <trkpt lat="44.52698" lon="6.71753">
        <ele>1697</ele>
        <time>2022-07-19T15:44:47Z</time>
      </trkpt>
      <trkpt lat="44.52697" lon="6.71751">
        <ele>1697</ele>
        <time>2022-07-19T15:44:48Z</time>
      </trkpt>
      <trkpt lat="44.52695" lon="6.7175">
        <ele>1697.4</ele>
        <time>2022-07-19T15:44:49Z</time>
      </trkpt>
      <trkpt lat="44.52695" lon="6.71748">
        <ele>1697.4</ele>
        <time>2022-07-19T15:44:50Z</time>
      </trkpt>
      <trkpt lat="44.52694" lon="6.71747">
        <ele>1697.6</ele>
        <time>2022-07-19T15:44:51Z</time>
      </trkpt>
      <trkpt lat="44.52693" lon="6.71745">
        <ele>1697.6</ele>
        <time>2022-07-19T15:44:52Z</time>
      </trkpt>
      <trkpt lat="44.52692" lon="6.71743">
        <ele>1698</ele>
        <time>2022-07-19T15:44:53Z</time>
      </trkpt>
      <trkpt lat="44.52692" lon="6.71741">
        <ele>1698</ele>
        <time>2022-07-19T15:44:54Z</time>
      </trkpt>
      <trkpt lat="44.52691" lon="6.71739">
        <ele>1698.4</ele>
        <time>2022-07-19T15:44:55Z</time>
      </trkpt>
      <trkpt lat="44.52691" lon="6.71737">
        <ele>1698.4</ele>
        <time>2022-07-19T15:44:56Z</time>
      </trkpt>
      <trkpt lat="44.5269" lon="6.71736">
        <ele>1698.6</ele>
        <time>2022-07-19T15:44:57Z</time>
      </trkpt>
      <trkpt lat="44.5269" lon="6.71734">
        <ele>1698.6</ele>
        <time>2022-07-19T15:44:58Z</time>
      </trkpt>
      <trkpt lat="44.52689" lon="6.71732">
        <ele>1699</ele>
        <time>2022-07-19T15:44:59Z</time>
      </trkpt>
      <trkpt lat="44.52689" lon="6.71729">
        <ele>1699</ele>
        <time>2022-07-19T15:45:00Z</time>
      </trkpt>
      <trkpt lat="44.52689" lon="6.71727">
        <ele>1699.4</ele>
        <time>2022-07-19T15:45:01Z</time>
      </trkpt>
      <trkpt lat="44.52689" lon="6.71725">
        <ele>1699.4</ele>
        <time>2022-07-19T15:45:02Z</time>
      </trkpt>
      <trkpt lat="44.5269" lon="6.71723">
        <ele>1699.6</ele>
        <time>2022-07-19T15:45:03Z</time>
      </trkpt>
      <trkpt lat="44.5269" lon="6.7172">
        <ele>1699.8</ele>
        <time>2022-07-19T15:45:04Z</time>
      </trkpt>
      <trkpt lat="44.5269" lon="6.71718">
        <ele>1699.8</ele>
        <time>2022-07-19T15:45:05Z</time>
      </trkpt>
      <trkpt lat="44.5269" lon="6.71716">
        <ele>1700.2</ele>
        <time>2022-07-19T15:45:06Z</time>
      </trkpt>
      <trkpt lat="44.5269" lon="6.71714">
        <ele>1700.2</ele>
        <time>2022-07-19T15:45:07Z</time>
      </trkpt>
      <trkpt lat="44.52691" lon="6.71712">
        <ele>1700.4</ele>
        <time>2022-07-19T15:45:08Z</time>
      </trkpt>
      <trkpt lat="44.52691" lon="6.7171">
        <ele>1700.4</ele>
        <time>2022-07-19T15:45:09Z</time>
      </trkpt>
      <trkpt lat="44.52691" lon="6.71708">
        <ele>1700.8</ele>
        <time>2022-07-19T15:45:10Z</time>
      </trkpt>
      <trkpt lat="44.52691" lon="6.71706">
        <ele>1701</ele>
        <time>2022-07-19T15:45:11Z</time>
      </trkpt>
      <trkpt lat="44.52691" lon="6.71704">
        <ele>1701</ele>
        <time>2022-07-19T15:45:12Z</time>
      </trkpt>
      <trkpt lat="44.52692" lon="6.71702">
        <ele>1701.4</ele>
        <time>2022-07-19T15:45:13Z</time>
      </trkpt>
      <trkpt lat="44.52692" lon="6.717">
        <ele>1701.6</ele>
        <time>2022-07-19T15:45:14Z</time>
      </trkpt>
      <trkpt lat="44.52693" lon="6.71698">
        <ele>1701.6</ele>
        <time>2022-07-19T15:45:15Z</time>
      </trkpt>
      <trkpt lat="44.52693" lon="6.71696">
        <ele>1702</ele>
        <time>2022-07-19T15:45:16Z</time>
      </trkpt>
      <trkpt lat="44.52693" lon="6.71694">
        <ele>1702.4</ele>
        <time>2022-07-19T15:45:17Z</time>
      </trkpt>
      <trkpt lat="44.52694" lon="6.71693">
        <ele>1702.6</ele>
        <time>2022-07-19T15:45:18Z</time>
      </trkpt>
      <trkpt lat="44.52694" lon="6.71691">
        <ele>1702.6</ele>
        <time>2022-07-19T15:45:19Z</time>
      </trkpt>
      <trkpt lat="44.52694" lon="6.71689">
        <ele>1702.8</ele>
        <time>2022-07-19T15:45:20Z</time>
      </trkpt>
      <trkpt lat="44.52695" lon="6.71687">
        <ele>1702.8</ele>
        <time>2022-07-19T15:45:21Z</time>
      </trkpt>
      <trkpt lat="44.52695" lon="6.71685">
        <ele>1703.2</ele>
        <time>2022-07-19T15:45:22Z</time>
      </trkpt>
      <trkpt lat="44.52695" lon="6.71683">
        <ele>1703.2</ele>
        <time>2022-07-19T15:45:23Z</time>
      </trkpt>
      <trkpt lat="44.52696" lon="6.71682">
        <ele>1703.6</ele>
        <time>2022-07-19T15:45:24Z</time>
      </trkpt>
      <trkpt lat="44.52696" lon="6.7168">
        <ele>1703.6</ele>
        <time>2022-07-19T15:45:25Z</time>
      </trkpt>
      <trkpt lat="44.52696" lon="6.71678">
        <ele>1703.8</ele>
        <time>2022-07-19T15:45:26Z</time>
      </trkpt>
      <trkpt lat="44.52696" lon="6.71675">
        <ele>1703.8</ele>
        <time>2022-07-19T15:45:27Z</time>
      </trkpt>
      <trkpt lat="44.52695" lon="6.71674">
        <ele>1704.2</ele>
        <time>2022-07-19T15:45:28Z</time>
      </trkpt>
      <trkpt lat="44.52695" lon="6.71672">
        <ele>1704.6</ele>
        <time>2022-07-19T15:45:29Z</time>
      </trkpt>
      <trkpt lat="44.52695" lon="6.7167">
        <ele>1704.6</ele>
        <time>2022-07-19T15:45:30Z</time>
      </trkpt>
      <trkpt lat="44.52695" lon="6.71668">
        <ele>1705</ele>
        <time>2022-07-19T15:45:31Z</time>
      </trkpt>
      <trkpt lat="44.52695" lon="6.71666">
        <ele>1705</ele>
        <time>2022-07-19T15:45:32Z</time>
      </trkpt>
      <trkpt lat="44.52696" lon="6.71665">
        <ele>1705.2</ele>
        <time>2022-07-19T15:45:33Z</time>
      </trkpt>
      <trkpt lat="44.52696" lon="6.71663">
        <ele>1705.2</ele>
        <time>2022-07-19T15:45:34Z</time>
      </trkpt>
      <trkpt lat="44.52696" lon="6.71661">
        <ele>1705.2</ele>
        <time>2022-07-19T15:45:35Z</time>
      </trkpt>
      <trkpt lat="44.52696" lon="6.71659">
        <ele>1705.6</ele>
        <time>2022-07-19T15:45:36Z</time>
      </trkpt>
      <trkpt lat="44.52697" lon="6.71657">
        <ele>1705.6</ele>
        <time>2022-07-19T15:45:37Z</time>
      </trkpt>
      <trkpt lat="44.52697" lon="6.71655">
        <ele>1705.8</ele>
        <time>2022-07-19T15:45:38Z</time>
      </trkpt>
      <trkpt lat="44.52698" lon="6.71653">
        <ele>1705.8</ele>
        <time>2022-07-19T15:45:39Z</time>
      </trkpt>
      <trkpt lat="44.52699" lon="6.71652">
        <ele>1706.2</ele>
        <time>2022-07-19T15:45:40Z</time>
      </trkpt>
      <trkpt lat="44.52699" lon="6.7165">
        <ele>1706.2</ele>
        <time>2022-07-19T15:45:41Z</time>
      </trkpt>
      <trkpt lat="44.52699" lon="6.71648">
        <ele>1706.6</ele>
        <time>2022-07-19T15:45:42Z</time>
      </trkpt>
      <trkpt lat="44.527" lon="6.71646">
        <ele>1706.6</ele>
        <time>2022-07-19T15:45:43Z</time>
      </trkpt>
      <trkpt lat="44.527" lon="6.71644">
        <ele>1707</ele>
        <time>2022-07-19T15:45:44Z</time>
      </trkpt>
      <trkpt lat="44.527" lon="6.71642">
        <ele>1707</ele>
        <time>2022-07-19T15:45:45Z</time>
      </trkpt>
      <trkpt lat="44.527" lon="6.7164">
        <ele>1707.2</ele>
        <time>2022-07-19T15:45:46Z</time>
      </trkpt>
      <trkpt lat="44.527" lon="6.71638">
        <ele>1707.2</ele>
        <time>2022-07-19T15:45:47Z</time>
      </trkpt>
      <trkpt lat="44.527" lon="6.71636">
        <ele>1707.8</ele>
        <time>2022-07-19T15:45:48Z</time>
      </trkpt>
      <trkpt lat="44.527" lon="6.71634">
        <ele>1707.8</ele>
        <time>2022-07-19T15:45:49Z</time>
      </trkpt>
      <trkpt lat="44.527" lon="6.71632">
        <ele>1708.2</ele>
        <time>2022-07-19T15:45:50Z</time>
      </trkpt>
      <trkpt lat="44.527" lon="6.7163">
        <ele>1708.2</ele>
        <time>2022-07-19T15:45:51Z</time>
      </trkpt>
      <trkpt lat="44.527" lon="6.71628">
        <ele>1708.4</ele>
        <time>2022-07-19T15:45:52Z</time>
      </trkpt>
      <trkpt lat="44.527" lon="6.71625">
        <ele>1708.4</ele>
        <time>2022-07-19T15:45:53Z</time>
      </trkpt>
      <trkpt lat="44.527" lon="6.71623">
        <ele>1708.8</ele>
        <time>2022-07-19T15:45:54Z</time>
      </trkpt>
      <trkpt lat="44.527" lon="6.71621">
        <ele>1708.8</ele>
        <time>2022-07-19T15:45:55Z</time>
      </trkpt>
      <trkpt lat="44.527" lon="6.71619">
        <ele>1709</ele>
        <time>2022-07-19T15:45:56Z</time>
      </trkpt>
      <trkpt lat="44.527" lon="6.71617">
        <ele>1709</ele>
        <time>2022-07-19T15:45:57Z</time>
      </trkpt>
      <trkpt lat="44.52701" lon="6.71616">
        <ele>1709.4</ele>
        <time>2022-07-19T15:45:58Z</time>
      </trkpt>
      <trkpt lat="44.52701" lon="6.71614">
        <ele>1709.4</ele>
        <time>2022-07-19T15:45:59Z</time>
      </trkpt>
      <trkpt lat="44.52701" lon="6.71612">
        <ele>1709.6</ele>
        <time>2022-07-19T15:46:00Z</time>
      </trkpt>
      <trkpt lat="44.52701" lon="6.7161">
        <ele>1709.6</ele>
        <time>2022-07-19T15:46:01Z</time>
      </trkpt>
      <trkpt lat="44.527" lon="6.71608">
        <ele>1710</ele>
        <time>2022-07-19T15:46:02Z</time>
      </trkpt>
      <trkpt lat="44.527" lon="6.71606">
        <ele>1710</ele>
        <time>2022-07-19T15:46:03Z</time>
      </trkpt>
      <trkpt lat="44.527" lon="6.71604">
        <ele>1710.2</ele>
        <time>2022-07-19T15:46:04Z</time>
      </trkpt>
      <trkpt lat="44.527" lon="6.71602">
        <ele>1710.2</ele>
        <time>2022-07-19T15:46:05Z</time>
      </trkpt>
      <trkpt lat="44.527" lon="6.716">
        <ele>1710.6</ele>
        <time>2022-07-19T15:46:06Z</time>
      </trkpt>
      <trkpt lat="44.527" lon="6.71598">
        <ele>1710.6</ele>
        <time>2022-07-19T15:46:07Z</time>
      </trkpt>
      <trkpt lat="44.527" lon="6.71596">
        <ele>1710.8</ele>
        <time>2022-07-19T15:46:08Z</time>
      </trkpt>
      <trkpt lat="44.527" lon="6.71594">
        <ele>1711</ele>
        <time>2022-07-19T15:46:09Z</time>
      </trkpt>
      <trkpt lat="44.527" lon="6.71592">
        <ele>1711</ele>
        <time>2022-07-19T15:46:10Z</time>
      </trkpt>
      <trkpt lat="44.527" lon="6.7159">
        <ele>1711.4</ele>
        <time>2022-07-19T15:46:11Z</time>
      </trkpt>
      <trkpt lat="44.527" lon="6.71588">
        <ele>1711.4</ele>
        <time>2022-07-19T15:46:12Z</time>
      </trkpt>
      <trkpt lat="44.527" lon="6.71585">
        <ele>1711.4</ele>
        <time>2022-07-19T15:46:13Z</time>
      </trkpt>
      <trkpt lat="44.527" lon="6.71583">
        <ele>1711.6</ele>
        <time>2022-07-19T15:46:14Z</time>
      </trkpt>
      <trkpt lat="44.527" lon="6.71581">
        <ele>1711.6</ele>
        <time>2022-07-19T15:46:15Z</time>
      </trkpt>
      <trkpt lat="44.527" lon="6.71579">
        <ele>1711.8</ele>
        <time>2022-07-19T15:46:16Z</time>
      </trkpt>
      <trkpt lat="44.527" lon="6.71578">
        <ele>1711.8</ele>
        <time>2022-07-19T15:46:17Z</time>
      </trkpt>
      <trkpt lat="44.527" lon="6.71576">
        <ele>1712.2</ele>
        <time>2022-07-19T15:46:18Z</time>
      </trkpt>
      <trkpt lat="44.527" lon="6.71574">
        <ele>1712.2</ele>
        <time>2022-07-19T15:46:19Z</time>
      </trkpt>
      <trkpt lat="44.527" lon="6.71572">
        <ele>1712.4</ele>
        <time>2022-07-19T15:46:20Z</time>
      </trkpt>
      <trkpt lat="44.527" lon="6.7157">
        <ele>1712.4</ele>
        <time>2022-07-19T15:46:21Z</time>
      </trkpt>
      <trkpt lat="44.527" lon="6.71568">
        <ele>1712.8</ele>
        <time>2022-07-19T15:46:22Z</time>
      </trkpt>
      <trkpt lat="44.527" lon="6.71566">
        <ele>1712.8</ele>
        <time>2022-07-19T15:46:23Z</time>
      </trkpt>
      <trkpt lat="44.527" lon="6.71564">
        <ele>1713.2</ele>
        <time>2022-07-19T15:46:24Z</time>
      </trkpt>
      <trkpt lat="44.52701" lon="6.71562">
        <ele>1713.2</ele>
        <time>2022-07-19T15:46:25Z</time>
      </trkpt>
      <trkpt lat="44.527" lon="6.7156">
        <ele>1713.6</ele>
        <time>2022-07-19T15:46:26Z</time>
      </trkpt>
      <trkpt lat="44.527" lon="6.71558">
        <ele>1713.6</ele>
        <time>2022-07-19T15:46:27Z</time>
      </trkpt>
      <trkpt lat="44.527" lon="6.71556">
        <ele>1713.8</ele>
        <time>2022-07-19T15:46:28Z</time>
      </trkpt>
      <trkpt lat="44.527" lon="6.71554">
        <ele>1713.8</ele>
        <time>2022-07-19T15:46:29Z</time>
      </trkpt>
      <trkpt lat="44.527" lon="6.71552">
        <ele>1713.8</ele>
        <time>2022-07-19T15:46:30Z</time>
      </trkpt>
      <trkpt lat="44.527" lon="6.7155">
        <ele>1714.2</ele>
        <time>2022-07-19T15:46:31Z</time>
      </trkpt>
      <trkpt lat="44.52699" lon="6.71549">
        <ele>1714.2</ele>
        <time>2022-07-19T15:46:32Z</time>
      </trkpt>
      <trkpt lat="44.52699" lon="6.71547">
        <ele>1714.4</ele>
        <time>2022-07-19T15:46:33Z</time>
      </trkpt>
      <trkpt lat="44.52698" lon="6.71545">
        <ele>1714.8</ele>
        <time>2022-07-19T15:46:34Z</time>
      </trkpt>
      <trkpt lat="44.52698" lon="6.71543">
        <ele>1714.8</ele>
        <time>2022-07-19T15:46:35Z</time>
      </trkpt>
      <trkpt lat="44.52698" lon="6.71541">
        <ele>1715</ele>
        <time>2022-07-19T15:46:36Z</time>
      </trkpt>
      <trkpt lat="44.52698" lon="6.7154">
        <ele>1715</ele>
        <time>2022-07-19T15:46:37Z</time>
      </trkpt>
      <trkpt lat="44.52697" lon="6.71538">
        <ele>1715.2</ele>
        <time>2022-07-19T15:46:38Z</time>
      </trkpt>
      <trkpt lat="44.52697" lon="6.71536">
        <ele>1715.2</ele>
        <time>2022-07-19T15:46:39Z</time>
      </trkpt>
      <trkpt lat="44.52697" lon="6.71534">
        <ele>1715.4</ele>
        <time>2022-07-19T15:46:40Z</time>
      </trkpt>
      <trkpt lat="44.52697" lon="6.71532">
        <ele>1715.4</ele>
        <time>2022-07-19T15:46:41Z</time>
      </trkpt>
      <trkpt lat="44.52696" lon="6.7153">
        <ele>1715.6</ele>
        <time>2022-07-19T15:46:42Z</time>
      </trkpt>
      <trkpt lat="44.52697" lon="6.71529">
        <ele>1715.6</ele>
        <time>2022-07-19T15:46:43Z</time>
      </trkpt>
      <trkpt lat="44.52697" lon="6.71526">
        <ele>1716</ele>
        <time>2022-07-19T15:46:44Z</time>
      </trkpt>
      <trkpt lat="44.52697" lon="6.71524">
        <ele>1716</ele>
        <time>2022-07-19T15:46:45Z</time>
      </trkpt>
      <trkpt lat="44.52697" lon="6.71522">
        <ele>1716.2</ele>
        <time>2022-07-19T15:46:46Z</time>
      </trkpt>
      <trkpt lat="44.52696" lon="6.7152">
        <ele>1716.2</ele>
        <time>2022-07-19T15:46:47Z</time>
      </trkpt>
      <trkpt lat="44.52696" lon="6.71518">
        <ele>1716.6</ele>
        <time>2022-07-19T15:46:48Z</time>
      </trkpt>
      <trkpt lat="44.52696" lon="6.71516">
        <ele>1716.6</ele>
        <time>2022-07-19T15:46:49Z</time>
      </trkpt>
      <trkpt lat="44.52696" lon="6.71514">
        <ele>1716.8</ele>
        <time>2022-07-19T15:46:50Z</time>
      </trkpt>
      <trkpt lat="44.52697" lon="6.71512">
        <ele>1716.8</ele>
        <time>2022-07-19T15:46:51Z</time>
      </trkpt>
      <trkpt lat="44.52698" lon="6.7151">
        <ele>1717.4</ele>
        <time>2022-07-19T15:46:52Z</time>
      </trkpt>
      <trkpt lat="44.52698" lon="6.71508">
        <ele>1717.4</ele>
        <time>2022-07-19T15:46:53Z</time>
      </trkpt>
      <trkpt lat="44.52699" lon="6.71507">
        <ele>1717.8</ele>
        <time>2022-07-19T15:46:54Z</time>
      </trkpt>
      <trkpt lat="44.527" lon="6.71505">
        <ele>1717.8</ele>
        <time>2022-07-19T15:46:55Z</time>
      </trkpt>
      <trkpt lat="44.52702" lon="6.71504">
        <ele>1718.2</ele>
        <time>2022-07-19T15:46:56Z</time>
      </trkpt>
      <trkpt lat="44.52703" lon="6.71504">
        <ele>1718.4</ele>
        <time>2022-07-19T15:46:57Z</time>
      </trkpt>
      <trkpt lat="44.52704" lon="6.71503">
        <ele>1718.6</ele>
        <time>2022-07-19T15:46:58Z</time>
      </trkpt>
      <trkpt lat="44.52706" lon="6.71502">
        <ele>1718.8</ele>
        <time>2022-07-19T15:46:59Z</time>
      </trkpt>
      <trkpt lat="44.52708" lon="6.71502">
        <ele>1719</ele>
        <time>2022-07-19T15:47:00Z</time>
      </trkpt>
      <trkpt lat="44.52709" lon="6.71503">
        <ele>1719</ele>
        <time>2022-07-19T15:47:01Z</time>
      </trkpt>
      <trkpt lat="44.52711" lon="6.71504">
        <ele>1719.4</ele>
        <time>2022-07-19T15:47:02Z</time>
      </trkpt>
      <trkpt lat="44.52712" lon="6.71505">
        <ele>1719.4</ele>
        <time>2022-07-19T15:47:03Z</time>
      </trkpt>
      <trkpt lat="44.52714" lon="6.71507">
        <ele>1719.8</ele>
        <time>2022-07-19T15:47:04Z</time>
      </trkpt>
      <trkpt lat="44.52714" lon="6.71509">
        <ele>1719.8</ele>
        <time>2022-07-19T15:47:05Z</time>
      </trkpt>
      <trkpt lat="44.52715" lon="6.7151">
        <ele>1720</ele>
        <time>2022-07-19T15:47:06Z</time>
      </trkpt>
      <trkpt lat="44.52716" lon="6.71512">
        <ele>1720</ele>
        <time>2022-07-19T15:47:07Z</time>
      </trkpt>
      <trkpt lat="44.52717" lon="6.71514">
        <ele>1720.4</ele>
        <time>2022-07-19T15:47:08Z</time>
      </trkpt>
      <trkpt lat="44.52717" lon="6.71516">
        <ele>1720.4</ele>
        <time>2022-07-19T15:47:09Z</time>
      </trkpt>
      <trkpt lat="44.52717" lon="6.71518">
        <ele>1720.6</ele>
        <time>2022-07-19T15:47:10Z</time>
      </trkpt>
      <trkpt lat="44.52717" lon="6.71521">
        <ele>1720.6</ele>
        <time>2022-07-19T15:47:11Z</time>
      </trkpt>
      <trkpt lat="44.52717" lon="6.71523">
        <ele>1721</ele>
        <time>2022-07-19T15:47:12Z</time>
      </trkpt>
      <trkpt lat="44.52717" lon="6.71525">
        <ele>1721.2</ele>
        <time>2022-07-19T15:47:13Z</time>
      </trkpt>
      <trkpt lat="44.52717" lon="6.71527">
        <ele>1721.2</ele>
        <time>2022-07-19T15:47:14Z</time>
      </trkpt>
      <trkpt lat="44.52718" lon="6.71529">
        <ele>1721.2</ele>
        <time>2022-07-19T15:47:15Z</time>
      </trkpt>
      <trkpt lat="44.52718" lon="6.71531">
        <ele>1721.6</ele>
        <time>2022-07-19T15:47:16Z</time>
      </trkpt>
      <trkpt lat="44.52718" lon="6.71533">
        <ele>1721.6</ele>
        <time>2022-07-19T15:47:17Z</time>
      </trkpt>
      <trkpt lat="44.52718" lon="6.71535">
        <ele>1721.8</ele>
        <time>2022-07-19T15:47:18Z</time>
      </trkpt>
      <trkpt lat="44.52718" lon="6.71537">
        <ele>1722</ele>
        <time>2022-07-19T15:47:19Z</time>
      </trkpt>
      <trkpt lat="44.52719" lon="6.71539">
        <ele>1722.4</ele>
        <time>2022-07-19T15:47:20Z</time>
      </trkpt>
      <trkpt lat="44.52719" lon="6.71542">
        <ele>1722.4</ele>
        <time>2022-07-19T15:47:21Z</time>
      </trkpt>
      <trkpt lat="44.52719" lon="6.71544">
        <ele>1722.6</ele>
        <time>2022-07-19T15:47:22Z</time>
      </trkpt>
      <trkpt lat="44.52719" lon="6.71546">
        <ele>1722.6</ele>
        <time>2022-07-19T15:47:23Z</time>
      </trkpt>
      <trkpt lat="44.52719" lon="6.71548">
        <ele>1723</ele>
        <time>2022-07-19T15:47:24Z</time>
      </trkpt>
      <trkpt lat="44.5272" lon="6.7155">
        <ele>1723</ele>
        <time>2022-07-19T15:47:25Z</time>
      </trkpt>
      <trkpt lat="44.5272" lon="6.71552">
        <ele>1723.2</ele>
        <time>2022-07-19T15:47:26Z</time>
      </trkpt>
      <trkpt lat="44.5272" lon="6.71554">
        <ele>1723.2</ele>
        <time>2022-07-19T15:47:27Z</time>
      </trkpt>
      <trkpt lat="44.52721" lon="6.71556">
        <ele>1723.4</ele>
        <time>2022-07-19T15:47:28Z</time>
      </trkpt>
      <trkpt lat="44.52722" lon="6.71557">
        <ele>1723.4</ele>
        <time>2022-07-19T15:47:29Z</time>
      </trkpt>
      <trkpt lat="44.52722" lon="6.71559">
        <ele>1723.8</ele>
        <time>2022-07-19T15:47:30Z</time>
      </trkpt>
      <trkpt lat="44.52723" lon="6.71561">
        <ele>1724.2</ele>
        <time>2022-07-19T15:47:31Z</time>
      </trkpt>
      <trkpt lat="44.52723" lon="6.71563">
        <ele>1724.2</ele>
        <time>2022-07-19T15:47:32Z</time>
      </trkpt>
      <trkpt lat="44.52724" lon="6.71565">
        <ele>1724.4</ele>
        <time>2022-07-19T15:47:33Z</time>
      </trkpt>
      <trkpt lat="44.52724" lon="6.71567">
        <ele>1724.4</ele>
        <time>2022-07-19T15:47:34Z</time>
      </trkpt>
      <trkpt lat="44.52725" lon="6.71568">
        <ele>1724.8</ele>
        <time>2022-07-19T15:47:35Z</time>
      </trkpt>
      <trkpt lat="44.52725" lon="6.7157">
        <ele>1724.8</ele>
        <time>2022-07-19T15:47:36Z</time>
      </trkpt>
      <trkpt lat="44.52726" lon="6.71572">
        <ele>1725</ele>
        <time>2022-07-19T15:47:37Z</time>
      </trkpt>
      <trkpt lat="44.52726" lon="6.71574">
        <ele>1725</ele>
        <time>2022-07-19T15:47:38Z</time>
      </trkpt>
      <trkpt lat="44.52727" lon="6.71576">
        <ele>1725.4</ele>
        <time>2022-07-19T15:47:39Z</time>
      </trkpt>
      <trkpt lat="44.52728" lon="6.71577">
        <ele>1725.4</ele>
        <time>2022-07-19T15:47:40Z</time>
      </trkpt>
      <trkpt lat="44.52729" lon="6.71579">
        <ele>1725.6</ele>
        <time>2022-07-19T15:47:41Z</time>
      </trkpt>
      <trkpt lat="44.5273" lon="6.7158">
        <ele>1725.6</ele>
        <time>2022-07-19T15:47:42Z</time>
      </trkpt>
      <trkpt lat="44.52731" lon="6.71582">
        <ele>1726</ele>
        <time>2022-07-19T15:47:43Z</time>
      </trkpt>
      <trkpt lat="44.52732" lon="6.71583">
        <ele>1726.2</ele>
        <time>2022-07-19T15:47:44Z</time>
      </trkpt>
      <trkpt lat="44.52732" lon="6.71585">
        <ele>1726.4</ele>
        <time>2022-07-19T15:47:45Z</time>
      </trkpt>
      <trkpt lat="44.52733" lon="6.71586">
        <ele>1726.6</ele>
        <time>2022-07-19T15:47:46Z</time>
      </trkpt>
      <trkpt lat="44.52734" lon="6.71588">
        <ele>1726.6</ele>
        <time>2022-07-19T15:47:47Z</time>
      </trkpt>
      <trkpt lat="44.52734" lon="6.7159">
        <ele>1727</ele>
        <time>2022-07-19T15:47:48Z</time>
      </trkpt>
      <trkpt lat="44.52735" lon="6.71592">
        <ele>1727.2</ele>
        <time>2022-07-19T15:47:49Z</time>
      </trkpt>
      <trkpt lat="44.52736" lon="6.71593">
        <ele>1727.2</ele>
        <time>2022-07-19T15:47:50Z</time>
      </trkpt>
      <trkpt lat="44.52736" lon="6.71595">
        <ele>1727.4</ele>
        <time>2022-07-19T15:47:51Z</time>
      </trkpt>
      <trkpt lat="44.52737" lon="6.71597">
        <ele>1727.4</ele>
        <time>2022-07-19T15:47:52Z</time>
      </trkpt>
      <trkpt lat="44.52738" lon="6.71599">
        <ele>1727.8</ele>
        <time>2022-07-19T15:47:53Z</time>
      </trkpt>
      <trkpt lat="44.52739" lon="6.71601">
        <ele>1727.8</ele>
        <time>2022-07-19T15:47:54Z</time>
      </trkpt>
      <trkpt lat="44.52739" lon="6.71603">
        <ele>1728.2</ele>
        <time>2022-07-19T15:47:55Z</time>
      </trkpt>
      <trkpt lat="44.5274" lon="6.71604">
        <ele>1728.2</ele>
        <time>2022-07-19T15:47:56Z</time>
      </trkpt>
      <trkpt lat="44.52741" lon="6.71606">
        <ele>1728.4</ele>
        <time>2022-07-19T15:47:57Z</time>
      </trkpt>
      <trkpt lat="44.52742" lon="6.71608">
        <ele>1728.4</ele>
        <time>2022-07-19T15:47:58Z</time>
      </trkpt>
      <trkpt lat="44.52742" lon="6.7161">
        <ele>1728.8</ele>
        <time>2022-07-19T15:47:59Z</time>
      </trkpt>
      <trkpt lat="44.52743" lon="6.71611">
        <ele>1728.8</ele>
        <time>2022-07-19T15:48:00Z</time>
      </trkpt>
      <trkpt lat="44.52744" lon="6.71613">
        <ele>1729.2</ele>
        <time>2022-07-19T15:48:01Z</time>
      </trkpt>
      <trkpt lat="44.52745" lon="6.71615">
        <ele>1729.2</ele>
        <time>2022-07-19T15:48:02Z</time>
      </trkpt>
      <trkpt lat="44.52746" lon="6.71616">
        <ele>1729.4</ele>
        <time>2022-07-19T15:48:03Z</time>
      </trkpt>
      <trkpt lat="44.52746" lon="6.71618">
        <ele>1729.4</ele>
        <time>2022-07-19T15:48:04Z</time>
      </trkpt>
      <trkpt lat="44.52747" lon="6.7162">
        <ele>1729.6</ele>
        <time>2022-07-19T15:48:05Z</time>
      </trkpt>
      <trkpt lat="44.52748" lon="6.71621">
        <ele>1729.6</ele>
        <time>2022-07-19T15:48:06Z</time>
      </trkpt>
      <trkpt lat="44.52749" lon="6.71623">
        <ele>1730</ele>
        <time>2022-07-19T15:48:07Z</time>
      </trkpt>
      <trkpt lat="44.5275" lon="6.71625">
        <ele>1730</ele>
        <time>2022-07-19T15:48:08Z</time>
      </trkpt>
      <trkpt lat="44.52751" lon="6.71627">
        <ele>1730.2</ele>
        <time>2022-07-19T15:48:09Z</time>
      </trkpt>
      <trkpt lat="44.52751" lon="6.71629">
        <ele>1730.2</ele>
        <time>2022-07-19T15:48:10Z</time>
      </trkpt>
      <trkpt lat="44.52752" lon="6.71631">
        <ele>1730.6</ele>
        <time>2022-07-19T15:48:11Z</time>
      </trkpt>
      <trkpt lat="44.52753" lon="6.71633">
        <ele>1730.6</ele>
        <time>2022-07-19T15:48:12Z</time>
      </trkpt>
      <trkpt lat="44.52754" lon="6.71635">
        <ele>1730.8</ele>
        <time>2022-07-19T15:48:13Z</time>
      </trkpt>
      <trkpt lat="44.52755" lon="6.71636">
        <ele>1730.8</ele>
        <time>2022-07-19T15:48:14Z</time>
      </trkpt>
      <trkpt lat="44.52756" lon="6.71638">
        <ele>1731</ele>
        <time>2022-07-19T15:48:15Z</time>
      </trkpt>
      <trkpt lat="44.52756" lon="6.7164">
        <ele>1731</ele>
        <time>2022-07-19T15:48:16Z</time>
      </trkpt>
      <trkpt lat="44.52757" lon="6.71641">
        <ele>1731.4</ele>
        <time>2022-07-19T15:48:17Z</time>
      </trkpt>
      <trkpt lat="44.52757" lon="6.71643">
        <ele>1731.4</ele>
        <time>2022-07-19T15:48:18Z</time>
      </trkpt>
      <trkpt lat="44.52758" lon="6.71646">
        <ele>1731.6</ele>
        <time>2022-07-19T15:48:19Z</time>
      </trkpt>
      <trkpt lat="44.52758" lon="6.71648">
        <ele>1731.6</ele>
        <time>2022-07-19T15:48:20Z</time>
      </trkpt>
      <trkpt lat="44.52758" lon="6.7165">
        <ele>1731.8</ele>
        <time>2022-07-19T15:48:21Z</time>
      </trkpt>
      <trkpt lat="44.52759" lon="6.71652">
        <ele>1731.8</ele>
        <time>2022-07-19T15:48:22Z</time>
      </trkpt>
      <trkpt lat="44.52759" lon="6.71654">
        <ele>1732.2</ele>
        <time>2022-07-19T15:48:23Z</time>
      </trkpt>
      <trkpt lat="44.5276" lon="6.71656">
        <ele>1732.2</ele>
        <time>2022-07-19T15:48:24Z</time>
      </trkpt>
      <trkpt lat="44.5276" lon="6.71658">
        <ele>1732.4</ele>
        <time>2022-07-19T15:48:25Z</time>
      </trkpt>
      <trkpt lat="44.52761" lon="6.7166">
        <ele>1732.4</ele>
        <time>2022-07-19T15:48:26Z</time>
      </trkpt>
      <trkpt lat="44.52761" lon="6.71662">
        <ele>1732.6</ele>
        <time>2022-07-19T15:48:27Z</time>
      </trkpt>
      <trkpt lat="44.52762" lon="6.71665">
        <ele>1732.6</ele>
        <time>2022-07-19T15:48:28Z</time>
      </trkpt>
      <trkpt lat="44.52762" lon="6.71667">
        <ele>1732.6</ele>
        <time>2022-07-19T15:48:29Z</time>
      </trkpt>
      <trkpt lat="44.52763" lon="6.71668">
        <ele>1733</ele>
        <time>2022-07-19T15:48:30Z</time>
      </trkpt>
      <trkpt lat="44.52764" lon="6.7167">
        <ele>1733</ele>
        <time>2022-07-19T15:48:31Z</time>
      </trkpt>
      <trkpt lat="44.52765" lon="6.71672">
        <ele>1733.2</ele>
        <time>2022-07-19T15:48:32Z</time>
      </trkpt>
      <trkpt lat="44.52765" lon="6.71674">
        <ele>1733.2</ele>
        <time>2022-07-19T15:48:33Z</time>
      </trkpt>
      <trkpt lat="44.52766" lon="6.71676">
        <ele>1733.4</ele>
        <time>2022-07-19T15:48:34Z</time>
      </trkpt>
      <trkpt lat="44.52766" lon="6.71678">
        <ele>1733.4</ele>
        <time>2022-07-19T15:48:35Z</time>
      </trkpt>
      <trkpt lat="44.52767" lon="6.7168">
        <ele>1733.6</ele>
        <time>2022-07-19T15:48:36Z</time>
      </trkpt>
      <trkpt lat="44.52768" lon="6.71682">
        <ele>1733.6</ele>
        <time>2022-07-19T15:48:37Z</time>
      </trkpt>
      <trkpt lat="44.52769" lon="6.71684">
        <ele>1733.6</ele>
        <time>2022-07-19T15:48:38Z</time>
      </trkpt>
      <trkpt lat="44.52769" lon="6.71686">
        <ele>1734</ele>
        <time>2022-07-19T15:48:39Z</time>
      </trkpt>
      <trkpt lat="44.5277" lon="6.71687">
        <ele>1734</ele>
        <time>2022-07-19T15:48:40Z</time>
      </trkpt>
      <trkpt lat="44.52771" lon="6.71689">
        <ele>1734.2</ele>
        <time>2022-07-19T15:48:41Z</time>
      </trkpt>
      <trkpt lat="44.52772" lon="6.71691">
        <ele>1734.4</ele>
        <time>2022-07-19T15:48:42Z</time>
      </trkpt>
      <trkpt lat="44.52773" lon="6.71692">
        <ele>1734.8</ele>
        <time>2022-07-19T15:48:43Z</time>
      </trkpt>
      <trkpt lat="44.52774" lon="6.71694">
        <ele>1735</ele>
        <time>2022-07-19T15:48:44Z</time>
      </trkpt>
      <trkpt lat="44.52776" lon="6.71695">
        <ele>1735</ele>
        <time>2022-07-19T15:48:45Z</time>
      </trkpt>
      <trkpt lat="44.52777" lon="6.71697">
        <ele>1735.2</ele>
        <time>2022-07-19T15:48:46Z</time>
      </trkpt>
      <trkpt lat="44.52778" lon="6.71698">
        <ele>1735.2</ele>
        <time>2022-07-19T15:48:47Z</time>
      </trkpt>
      <trkpt lat="44.52779" lon="6.717">
        <ele>1735.4</ele>
        <time>2022-07-19T15:48:48Z</time>
      </trkpt>
      <trkpt lat="44.5278" lon="6.71702">
        <ele>1735.4</ele>
        <time>2022-07-19T15:48:49Z</time>
      </trkpt>
      <trkpt lat="44.52781" lon="6.71704">
        <ele>1735.8</ele>
        <time>2022-07-19T15:48:50Z</time>
      </trkpt>
      <trkpt lat="44.52782" lon="6.71705">
        <ele>1735.8</ele>
        <time>2022-07-19T15:48:51Z</time>
      </trkpt>
      <trkpt lat="44.52783" lon="6.71707">
        <ele>1736.2</ele>
        <time>2022-07-19T15:48:52Z</time>
      </trkpt>
      <trkpt lat="44.52784" lon="6.71708">
        <ele>1736.2</ele>
        <time>2022-07-19T15:48:53Z</time>
      </trkpt>
      <trkpt lat="44.52785" lon="6.7171">
        <ele>1736.4</ele>
        <time>2022-07-19T15:48:54Z</time>
      </trkpt>
      <trkpt lat="44.52786" lon="6.71711">
        <ele>1736.4</ele>
        <time>2022-07-19T15:48:55Z</time>
      </trkpt>
      <trkpt lat="44.52787" lon="6.71712">
        <ele>1736.6</ele>
        <time>2022-07-19T15:48:56Z</time>
      </trkpt>
      <trkpt lat="44.52788" lon="6.71713">
        <ele>1736.6</ele>
        <time>2022-07-19T15:48:57Z</time>
      </trkpt>
      <trkpt lat="44.52789" lon="6.71714">
        <ele>1737</ele>
        <time>2022-07-19T15:48:58Z</time>
      </trkpt>
      <trkpt lat="44.5279" lon="6.71715">
        <ele>1737</ele>
        <time>2022-07-19T15:48:59Z</time>
      </trkpt>
      <trkpt lat="44.52792" lon="6.71716">
        <ele>1737.4</ele>
        <time>2022-07-19T15:49:00Z</time>
      </trkpt>
      <trkpt lat="44.52792" lon="6.71718">
        <ele>1737.4</ele>
        <time>2022-07-19T15:49:01Z</time>
      </trkpt>
      <trkpt lat="44.52794" lon="6.71719">
        <ele>1737.6</ele>
        <time>2022-07-19T15:49:02Z</time>
      </trkpt>
      <trkpt lat="44.52794" lon="6.71721">
        <ele>1737.8</ele>
        <time>2022-07-19T15:49:03Z</time>
      </trkpt>
      <trkpt lat="44.52795" lon="6.71722">
        <ele>1737.8</ele>
        <time>2022-07-19T15:49:04Z</time>
      </trkpt>
      <trkpt lat="44.52796" lon="6.71724">
        <ele>1738</ele>
        <time>2022-07-19T15:49:05Z</time>
      </trkpt>
      <trkpt lat="44.52797" lon="6.71725">
        <ele>1738</ele>
        <time>2022-07-19T15:49:06Z</time>
      </trkpt>
      <trkpt lat="44.52798" lon="6.71727">
        <ele>1738.4</ele>
        <time>2022-07-19T15:49:07Z</time>
      </trkpt>
      <trkpt lat="44.52799" lon="6.71728">
        <ele>1738.6</ele>
        <time>2022-07-19T15:49:08Z</time>
      </trkpt>
      <trkpt lat="44.52799" lon="6.7173">
        <ele>1738.6</ele>
        <time>2022-07-19T15:49:09Z</time>
      </trkpt>
      <trkpt lat="44.528" lon="6.71732">
        <ele>1739</ele>
        <time>2022-07-19T15:49:10Z</time>
      </trkpt>
      <trkpt lat="44.528" lon="6.71734">
        <ele>1739.2</ele>
        <time>2022-07-19T15:49:11Z</time>
      </trkpt>
      <trkpt lat="44.52801" lon="6.71736">
        <ele>1739.2</ele>
        <time>2022-07-19T15:49:12Z</time>
      </trkpt>
      <trkpt lat="44.52801" lon="6.71738">
        <ele>1739.6</ele>
        <time>2022-07-19T15:49:13Z</time>
      </trkpt>
      <trkpt lat="44.52802" lon="6.7174">
        <ele>1739.6</ele>
        <time>2022-07-19T15:49:14Z</time>
      </trkpt>
      <trkpt lat="44.52802" lon="6.71742">
        <ele>1739.8</ele>
        <time>2022-07-19T15:49:15Z</time>
      </trkpt>
      <trkpt lat="44.52802" lon="6.71744">
        <ele>1739.8</ele>
        <time>2022-07-19T15:49:16Z</time>
      </trkpt>
      <trkpt lat="44.52803" lon="6.71746">
        <ele>1740.2</ele>
        <time>2022-07-19T15:49:17Z</time>
      </trkpt>
      <trkpt lat="44.52803" lon="6.71748">
        <ele>1740.2</ele>
        <time>2022-07-19T15:49:18Z</time>
      </trkpt>
      <trkpt lat="44.52803" lon="6.7175">
        <ele>1740.6</ele>
        <time>2022-07-19T15:49:19Z</time>
      </trkpt>
      <trkpt lat="44.52803" lon="6.71752">
        <ele>1740.6</ele>
        <time>2022-07-19T15:49:20Z</time>
      </trkpt>
      <trkpt lat="44.52804" lon="6.71754">
        <ele>1740.8</ele>
        <time>2022-07-19T15:49:21Z</time>
      </trkpt>
      <trkpt lat="44.52804" lon="6.71756">
        <ele>1740.8</ele>
        <time>2022-07-19T15:49:22Z</time>
      </trkpt>
      <trkpt lat="44.52804" lon="6.71758">
        <ele>1741</ele>
        <time>2022-07-19T15:49:23Z</time>
      </trkpt>
      <trkpt lat="44.52805" lon="6.7176">
        <ele>1741</ele>
        <time>2022-07-19T15:49:24Z</time>
      </trkpt>
      <trkpt lat="44.52805" lon="6.71763">
        <ele>1741.2</ele>
        <time>2022-07-19T15:49:25Z</time>
      </trkpt>
      <trkpt lat="44.52805" lon="6.71765">
        <ele>1741.4</ele>
        <time>2022-07-19T15:49:26Z</time>
      </trkpt>
      <trkpt lat="44.52806" lon="6.71767">
        <ele>1741.4</ele>
        <time>2022-07-19T15:49:27Z</time>
      </trkpt>
      <trkpt lat="44.52806" lon="6.71769">
        <ele>1741.8</ele>
        <time>2022-07-19T15:49:28Z</time>
      </trkpt>
      <trkpt lat="44.52806" lon="6.71771">
        <ele>1741.8</ele>
        <time>2022-07-19T15:49:29Z</time>
      </trkpt>
      <trkpt lat="44.52806" lon="6.71773">
        <ele>1742.2</ele>
        <time>2022-07-19T15:49:30Z</time>
      </trkpt>
      <trkpt lat="44.52807" lon="6.71775">
        <ele>1742.2</ele>
        <time>2022-07-19T15:49:31Z</time>
      </trkpt>
      <trkpt lat="44.52806" lon="6.71777">
        <ele>1742.4</ele>
        <time>2022-07-19T15:49:32Z</time>
      </trkpt>
      <trkpt lat="44.52806" lon="6.71779">
        <ele>1742.4</ele>
        <time>2022-07-19T15:49:33Z</time>
      </trkpt>
      <trkpt lat="44.52806" lon="6.71781">
        <ele>1742.8</ele>
        <time>2022-07-19T15:49:34Z</time>
      </trkpt>
      <trkpt lat="44.52805" lon="6.71785">
        <ele>1742.8</ele>
        <time>2022-07-19T15:49:35Z</time>
      </trkpt>
      <trkpt lat="44.52805" lon="6.71787">
        <ele>1743.2</ele>
        <time>2022-07-19T15:49:36Z</time>
      </trkpt>
      <trkpt lat="44.52805" lon="6.71789">
        <ele>1743.2</ele>
        <time>2022-07-19T15:49:37Z</time>
      </trkpt>
      <trkpt lat="44.52805" lon="6.71791">
        <ele>1743.4</ele>
        <time>2022-07-19T15:49:38Z</time>
      </trkpt>
      <trkpt lat="44.52804" lon="6.71793">
        <ele>1743.4</ele>
        <time>2022-07-19T15:49:39Z</time>
      </trkpt>
      <trkpt lat="44.52804" lon="6.71795">
        <ele>1743.8</ele>
        <time>2022-07-19T15:49:40Z</time>
      </trkpt>
      <trkpt lat="44.52804" lon="6.71797">
        <ele>1743.8</ele>
        <time>2022-07-19T15:49:41Z</time>
      </trkpt>
      <trkpt lat="44.52804" lon="6.71799">
        <ele>1744</ele>
        <time>2022-07-19T15:49:42Z</time>
      </trkpt>
      <trkpt lat="44.52804" lon="6.71801">
        <ele>1744</ele>
        <time>2022-07-19T15:49:43Z</time>
      </trkpt>
      <trkpt lat="44.52804" lon="6.71803">
        <ele>1744.4</ele>
        <time>2022-07-19T15:49:44Z</time>
      </trkpt>
      <trkpt lat="44.52804" lon="6.71805">
        <ele>1744.4</ele>
        <time>2022-07-19T15:49:45Z</time>
      </trkpt>
      <trkpt lat="44.52804" lon="6.71808">
        <ele>1744.6</ele>
        <time>2022-07-19T15:49:46Z</time>
      </trkpt>
      <trkpt lat="44.52804" lon="6.7181">
        <ele>1744.8</ele>
        <time>2022-07-19T15:49:47Z</time>
      </trkpt>
      <trkpt lat="44.52804" lon="6.71812">
        <ele>1744.8</ele>
        <time>2022-07-19T15:49:48Z</time>
      </trkpt>
      <trkpt lat="44.52804" lon="6.71814">
        <ele>1745.2</ele>
        <time>2022-07-19T15:49:49Z</time>
      </trkpt>
      <trkpt lat="44.52804" lon="6.71816">
        <ele>1745.4</ele>
        <time>2022-07-19T15:49:50Z</time>
      </trkpt>
      <trkpt lat="44.52804" lon="6.71818">
        <ele>1745.4</ele>
        <time>2022-07-19T15:49:51Z</time>
      </trkpt>
      <trkpt lat="44.52804" lon="6.71821">
        <ele>1745.8</ele>
        <time>2022-07-19T15:49:52Z</time>
      </trkpt>
      <trkpt lat="44.52804" lon="6.71823">
        <ele>1745.8</ele>
        <time>2022-07-19T15:49:53Z</time>
      </trkpt>
      <trkpt lat="44.52805" lon="6.71825">
        <ele>1746</ele>
        <time>2022-07-19T15:49:54Z</time>
      </trkpt>
      <trkpt lat="44.52805" lon="6.71828">
        <ele>1746</ele>
        <time>2022-07-19T15:49:55Z</time>
      </trkpt>
      <trkpt lat="44.52805" lon="6.7183">
        <ele>1746.4</ele>
        <time>2022-07-19T15:49:56Z</time>
      </trkpt>
      <trkpt lat="44.52806" lon="6.71832">
        <ele>1746.4</ele>
        <time>2022-07-19T15:49:57Z</time>
      </trkpt>
      <trkpt lat="44.52807" lon="6.71834">
        <ele>1746.6</ele>
        <time>2022-07-19T15:49:58Z</time>
      </trkpt>
      <trkpt lat="44.52807" lon="6.71836">
        <ele>1746.6</ele>
        <time>2022-07-19T15:49:59Z</time>
      </trkpt>
      <trkpt lat="44.52808" lon="6.71838">
        <ele>1746.8</ele>
        <time>2022-07-19T15:50:00Z</time>
      </trkpt>
      <trkpt lat="44.52808" lon="6.71841">
        <ele>1746.8</ele>
        <time>2022-07-19T15:50:01Z</time>
      </trkpt>
      <trkpt lat="44.52808" lon="6.71843">
        <ele>1747.2</ele>
        <time>2022-07-19T15:50:02Z</time>
      </trkpt>
      <trkpt lat="44.52809" lon="6.71845">
        <ele>1747.2</ele>
        <time>2022-07-19T15:50:03Z</time>
      </trkpt>
      <trkpt lat="44.52809" lon="6.71847">
        <ele>1747.4</ele>
        <time>2022-07-19T15:50:04Z</time>
      </trkpt>
      <trkpt lat="44.52809" lon="6.71848">
        <ele>1747.4</ele>
        <time>2022-07-19T15:50:05Z</time>
      </trkpt>
      <trkpt lat="44.5281" lon="6.7185">
        <ele>1747.4</ele>
        <time>2022-07-19T15:50:06Z</time>
      </trkpt>
      <trkpt lat="44.5281" lon="6.71852">
        <ele>1747.6</ele>
        <time>2022-07-19T15:50:07Z</time>
      </trkpt>
      <trkpt lat="44.52811" lon="6.71854">
        <ele>1747.6</ele>
        <time>2022-07-19T15:50:08Z</time>
      </trkpt>
      <trkpt lat="44.52812" lon="6.71855">
        <ele>1747.8</ele>
        <time>2022-07-19T15:50:09Z</time>
      </trkpt>
      <trkpt lat="44.52812" lon="6.71857">
        <ele>1747.8</ele>
        <time>2022-07-19T15:50:10Z</time>
      </trkpt>
      <trkpt lat="44.52813" lon="6.71859">
        <ele>1747.8</ele>
        <time>2022-07-19T15:50:11Z</time>
      </trkpt>
      <trkpt lat="44.52813" lon="6.71861">
        <ele>1748.2</ele>
        <time>2022-07-19T15:50:12Z</time>
      </trkpt>
      <trkpt lat="44.52814" lon="6.71863">
        <ele>1748.4</ele>
        <time>2022-07-19T15:50:13Z</time>
      </trkpt>
      <trkpt lat="44.52814" lon="6.71865">
        <ele>1748.4</ele>
        <time>2022-07-19T15:50:14Z</time>
      </trkpt>
      <trkpt lat="44.52814" lon="6.71867">
        <ele>1748.6</ele>
        <time>2022-07-19T15:50:15Z</time>
      </trkpt>
      <trkpt lat="44.52815" lon="6.71869">
        <ele>1748.6</ele>
        <time>2022-07-19T15:50:16Z</time>
      </trkpt>
      <trkpt lat="44.52815" lon="6.71871">
        <ele>1749</ele>
        <time>2022-07-19T15:50:17Z</time>
      </trkpt>
      <trkpt lat="44.52816" lon="6.71873">
        <ele>1749</ele>
        <time>2022-07-19T15:50:18Z</time>
      </trkpt>
      <trkpt lat="44.52816" lon="6.71875">
        <ele>1749.2</ele>
        <time>2022-07-19T15:50:19Z</time>
      </trkpt>
      <trkpt lat="44.52817" lon="6.71876">
        <ele>1749.2</ele>
        <time>2022-07-19T15:50:20Z</time>
      </trkpt>
      <trkpt lat="44.52817" lon="6.71878">
        <ele>1749.6</ele>
        <time>2022-07-19T15:50:21Z</time>
      </trkpt>
      <trkpt lat="44.52818" lon="6.7188">
        <ele>1749.6</ele>
        <time>2022-07-19T15:50:22Z</time>
      </trkpt>
      <trkpt lat="44.52818" lon="6.71881">
        <ele>1750</ele>
        <time>2022-07-19T15:50:23Z</time>
      </trkpt>
      <trkpt lat="44.52819" lon="6.71883">
        <ele>1750</ele>
        <time>2022-07-19T15:50:24Z</time>
      </trkpt>
      <trkpt lat="44.52819" lon="6.71885">
        <ele>1750.4</ele>
        <time>2022-07-19T15:50:25Z</time>
      </trkpt>
      <trkpt lat="44.52819" lon="6.71888">
        <ele>1750.4</ele>
        <time>2022-07-19T15:50:26Z</time>
      </trkpt>
      <trkpt lat="44.52819" lon="6.71889">
        <ele>1750.6</ele>
        <time>2022-07-19T15:50:27Z</time>
      </trkpt>
      <trkpt lat="44.52819" lon="6.71891">
        <ele>1750.6</ele>
        <time>2022-07-19T15:50:28Z</time>
      </trkpt>
      <trkpt lat="44.52819" lon="6.71893">
        <ele>1750.8</ele>
        <time>2022-07-19T15:50:29Z</time>
      </trkpt>
      <trkpt lat="44.5282" lon="6.71895">
        <ele>1750.8</ele>
        <time>2022-07-19T15:50:30Z</time>
      </trkpt>
      <trkpt lat="44.52821" lon="6.71897">
        <ele>1750.8</ele>
        <time>2022-07-19T15:50:31Z</time>
      </trkpt>
      <trkpt lat="44.52821" lon="6.71898">
        <ele>1751.2</ele>
        <time>2022-07-19T15:50:32Z</time>
      </trkpt>
      <trkpt lat="44.52821" lon="6.719">
        <ele>1751.2</ele>
        <time>2022-07-19T15:50:33Z</time>
      </trkpt>
      <trkpt lat="44.52822" lon="6.71902">
        <ele>1751.4</ele>
        <time>2022-07-19T15:50:34Z</time>
      </trkpt>
      <trkpt lat="44.52822" lon="6.71904">
        <ele>1751.4</ele>
        <time>2022-07-19T15:50:35Z</time>
      </trkpt>
      <trkpt lat="44.52822" lon="6.71906">
        <ele>1751.6</ele>
        <time>2022-07-19T15:50:36Z</time>
      </trkpt>
      <trkpt lat="44.52822" lon="6.71908">
        <ele>1751.6</ele>
        <time>2022-07-19T15:50:37Z</time>
      </trkpt>
      <trkpt lat="44.52823" lon="6.71909">
        <ele>1752</ele>
        <time>2022-07-19T15:50:38Z</time>
      </trkpt>
      <trkpt lat="44.52824" lon="6.71911">
        <ele>1752</ele>
        <time>2022-07-19T15:50:39Z</time>
      </trkpt>
      <trkpt lat="44.52824" lon="6.71912">
        <ele>1752.4</ele>
        <time>2022-07-19T15:50:40Z</time>
      </trkpt>
      <trkpt lat="44.52825" lon="6.71914">
        <ele>1752.4</ele>
        <time>2022-07-19T15:50:41Z</time>
      </trkpt>
      <trkpt lat="44.52825" lon="6.71916">
        <ele>1752.6</ele>
        <time>2022-07-19T15:50:42Z</time>
      </trkpt>
      <trkpt lat="44.52826" lon="6.71918">
        <ele>1752.6</ele>
        <time>2022-07-19T15:50:43Z</time>
      </trkpt>
      <trkpt lat="44.52826" lon="6.7192">
        <ele>1752.8</ele>
        <time>2022-07-19T15:50:44Z</time>
      </trkpt>
      <trkpt lat="44.52826" lon="6.71922">
        <ele>1752.8</ele>
        <time>2022-07-19T15:50:45Z</time>
      </trkpt>
      <trkpt lat="44.52827" lon="6.71923">
        <ele>1752.8</ele>
        <time>2022-07-19T15:50:46Z</time>
      </trkpt>
      <trkpt lat="44.52827" lon="6.71925">
        <ele>1753.2</ele>
        <time>2022-07-19T15:50:47Z</time>
      </trkpt>
      <trkpt lat="44.52827" lon="6.71927">
        <ele>1753.2</ele>
        <time>2022-07-19T15:50:48Z</time>
      </trkpt>
      <trkpt lat="44.52827" lon="6.71929">
        <ele>1753.4</ele>
        <time>2022-07-19T15:50:49Z</time>
      </trkpt>
      <trkpt lat="44.52828" lon="6.71931">
        <ele>1753.4</ele>
        <time>2022-07-19T15:50:50Z</time>
      </trkpt>
      <trkpt lat="44.52829" lon="6.71933">
        <ele>1753.8</ele>
        <time>2022-07-19T15:50:51Z</time>
      </trkpt>
      <trkpt lat="44.52829" lon="6.71935">
        <ele>1753.8</ele>
        <time>2022-07-19T15:50:52Z</time>
      </trkpt>
      <trkpt lat="44.5283" lon="6.71937">
        <ele>1754.2</ele>
        <time>2022-07-19T15:50:54Z</time>
      </trkpt>
      <trkpt lat="44.5283" lon="6.71939">
        <ele>1754.2</ele>
        <time>2022-07-19T15:50:55Z</time>
      </trkpt>
      <trkpt lat="44.5283" lon="6.7194">
        <ele>1754.6</ele>
        <time>2022-07-19T15:50:56Z</time>
      </trkpt>
      <trkpt lat="44.52831" lon="6.71942">
        <ele>1754.6</ele>
        <time>2022-07-19T15:50:57Z</time>
      </trkpt>
      <trkpt lat="44.52831" lon="6.71944">
        <ele>1754.6</ele>
        <time>2022-07-19T15:50:58Z</time>
      </trkpt>
      <trkpt lat="44.52831" lon="6.71946">
        <ele>1755</ele>
        <time>2022-07-19T15:50:59Z</time>
      </trkpt>
      <trkpt lat="44.52832" lon="6.71948">
        <ele>1755</ele>
        <time>2022-07-19T15:51:00Z</time>
      </trkpt>
      <trkpt lat="44.52832" lon="6.7195">
        <ele>1755.4</ele>
        <time>2022-07-19T15:51:01Z</time>
      </trkpt>
      <trkpt lat="44.52832" lon="6.71952">
        <ele>1755.4</ele>
        <time>2022-07-19T15:51:02Z</time>
      </trkpt>
      <trkpt lat="44.52833" lon="6.71954">
        <ele>1755.8</ele>
        <time>2022-07-19T15:51:03Z</time>
      </trkpt>
      <trkpt lat="44.52834" lon="6.71956">
        <ele>1755.8</ele>
        <time>2022-07-19T15:51:04Z</time>
      </trkpt>
      <trkpt lat="44.52834" lon="6.71957">
        <ele>1756</ele>
        <time>2022-07-19T15:51:05Z</time>
      </trkpt>
      <trkpt lat="44.52834" lon="6.71959">
        <ele>1756</ele>
        <time>2022-07-19T15:51:06Z</time>
      </trkpt>
      <trkpt lat="44.52834" lon="6.71961">
        <ele>1756.4</ele>
        <time>2022-07-19T15:51:07Z</time>
      </trkpt>
      <trkpt lat="44.52834" lon="6.71963">
        <ele>1756.4</ele>
        <time>2022-07-19T15:51:08Z</time>
      </trkpt>
      <trkpt lat="44.52835" lon="6.71965">
        <ele>1756.6</ele>
        <time>2022-07-19T15:51:09Z</time>
      </trkpt>
      <trkpt lat="44.52835" lon="6.71967">
        <ele>1756.6</ele>
        <time>2022-07-19T15:51:10Z</time>
      </trkpt>
      <trkpt lat="44.52835" lon="6.71969">
        <ele>1757</ele>
        <time>2022-07-19T15:51:11Z</time>
      </trkpt>
      <trkpt lat="44.52836" lon="6.7197">
        <ele>1757</ele>
        <time>2022-07-19T15:51:12Z</time>
      </trkpt>
      <trkpt lat="44.52836" lon="6.71972">
        <ele>1757</ele>
        <time>2022-07-19T15:51:13Z</time>
      </trkpt>
      <trkpt lat="44.52837" lon="6.71974">
        <ele>1757.2</ele>
        <time>2022-07-19T15:51:14Z</time>
      </trkpt>
      <trkpt lat="44.52837" lon="6.71976">
        <ele>1757.2</ele>
        <time>2022-07-19T15:51:15Z</time>
      </trkpt>
      <trkpt lat="44.52837" lon="6.71977">
        <ele>1757.4</ele>
        <time>2022-07-19T15:51:16Z</time>
      </trkpt>
      <trkpt lat="44.52837" lon="6.71979">
        <ele>1757.4</ele>
        <time>2022-07-19T15:51:17Z</time>
      </trkpt>
      <trkpt lat="44.52838" lon="6.71981">
        <ele>1757.4</ele>
        <time>2022-07-19T15:51:18Z</time>
      </trkpt>
      <trkpt lat="44.52838" lon="6.71983">
        <ele>1757.4</ele>
        <time>2022-07-19T15:51:19Z</time>
      </trkpt>
      <trkpt lat="44.52838" lon="6.71985">
        <ele>1757.8</ele>
        <time>2022-07-19T15:51:20Z</time>
      </trkpt>
      <trkpt lat="44.52838" lon="6.71987">
        <ele>1757.8</ele>
        <time>2022-07-19T15:51:21Z</time>
      </trkpt>
      <trkpt lat="44.52838" lon="6.71989">
        <ele>1758.2</ele>
        <time>2022-07-19T15:51:22Z</time>
      </trkpt>
      <trkpt lat="44.52839" lon="6.71991">
        <ele>1758.2</ele>
        <time>2022-07-19T15:51:23Z</time>
      </trkpt>
      <trkpt lat="44.52839" lon="6.71993">
        <ele>1758.4</ele>
        <time>2022-07-19T15:51:24Z</time>
      </trkpt>
      <trkpt lat="44.52839" lon="6.71994">
        <ele>1758.4</ele>
        <time>2022-07-19T15:51:25Z</time>
      </trkpt>
      <trkpt lat="44.52839" lon="6.71996">
        <ele>1758.6</ele>
        <time>2022-07-19T15:51:26Z</time>
      </trkpt>
      <trkpt lat="44.52839" lon="6.71998">
        <ele>1758.6</ele>
        <time>2022-07-19T15:51:27Z</time>
      </trkpt>
      <trkpt lat="44.5284" lon="6.71999">
        <ele>1758.8</ele>
        <time>2022-07-19T15:51:28Z</time>
      </trkpt>
      <trkpt lat="44.5284" lon="6.72001">
        <ele>1758.8</ele>
        <time>2022-07-19T15:51:29Z</time>
      </trkpt>
      <trkpt lat="44.52841" lon="6.72003">
        <ele>1759</ele>
        <time>2022-07-19T15:51:30Z</time>
      </trkpt>
      <trkpt lat="44.52841" lon="6.72004">
        <ele>1759</ele>
        <time>2022-07-19T15:51:31Z</time>
      </trkpt>
      <trkpt lat="44.52842" lon="6.72006">
        <ele>1759.2</ele>
        <time>2022-07-19T15:51:32Z</time>
      </trkpt>
      <trkpt lat="44.52842" lon="6.72008">
        <ele>1759.2</ele>
        <time>2022-07-19T15:51:33Z</time>
      </trkpt>
      <trkpt lat="44.52842" lon="6.7201">
        <ele>1759.6</ele>
        <time>2022-07-19T15:51:34Z</time>
      </trkpt>
      <trkpt lat="44.52842" lon="6.72012">
        <ele>1759.6</ele>
        <time>2022-07-19T15:51:35Z</time>
      </trkpt>
      <trkpt lat="44.52843" lon="6.72014">
        <ele>1759.8</ele>
        <time>2022-07-19T15:51:36Z</time>
      </trkpt>
      <trkpt lat="44.52843" lon="6.72016">
        <ele>1759.8</ele>
        <time>2022-07-19T15:51:37Z</time>
      </trkpt>
      <trkpt lat="44.52843" lon="6.72018">
        <ele>1760.2</ele>
        <time>2022-07-19T15:51:38Z</time>
      </trkpt>
      <trkpt lat="44.52844" lon="6.72019">
        <ele>1760.2</ele>
        <time>2022-07-19T15:51:39Z</time>
      </trkpt>
      <trkpt lat="44.52844" lon="6.72021">
        <ele>1760.4</ele>
        <time>2022-07-19T15:51:40Z</time>
      </trkpt>
      <trkpt lat="44.52844" lon="6.72024">
        <ele>1760.4</ele>
        <time>2022-07-19T15:51:41Z</time>
      </trkpt>
      <trkpt lat="44.52845" lon="6.72025">
        <ele>1760.8</ele>
        <time>2022-07-19T15:51:42Z</time>
      </trkpt>
      <trkpt lat="44.52845" lon="6.72027">
        <ele>1760.8</ele>
        <time>2022-07-19T15:51:43Z</time>
      </trkpt>
      <trkpt lat="44.52845" lon="6.72029">
        <ele>1761</ele>
        <time>2022-07-19T15:51:44Z</time>
      </trkpt>
      <trkpt lat="44.52846" lon="6.72031">
        <ele>1761</ele>
        <time>2022-07-19T15:51:45Z</time>
      </trkpt>
      <trkpt lat="44.52846" lon="6.72033">
        <ele>1761.2</ele>
        <time>2022-07-19T15:51:46Z</time>
      </trkpt>
      <trkpt lat="44.52846" lon="6.72035">
        <ele>1761.2</ele>
        <time>2022-07-19T15:51:47Z</time>
      </trkpt>
      <trkpt lat="44.52847" lon="6.72037">
        <ele>1761.6</ele>
        <time>2022-07-19T15:51:48Z</time>
      </trkpt>
      <trkpt lat="44.52847" lon="6.72039">
        <ele>1761.6</ele>
        <time>2022-07-19T15:51:49Z</time>
      </trkpt>
      <trkpt lat="44.52847" lon="6.72041">
        <ele>1761.6</ele>
        <time>2022-07-19T15:51:50Z</time>
      </trkpt>
      <trkpt lat="44.52848" lon="6.72043">
        <ele>1762</ele>
        <time>2022-07-19T15:51:51Z</time>
      </trkpt>
      <trkpt lat="44.52848" lon="6.72045">
        <ele>1762</ele>
        <time>2022-07-19T15:51:52Z</time>
      </trkpt>
      <trkpt lat="44.52849" lon="6.72047">
        <ele>1762.2</ele>
        <time>2022-07-19T15:51:53Z</time>
      </trkpt>
      <trkpt lat="44.52849" lon="6.72049">
        <ele>1762.2</ele>
        <time>2022-07-19T15:51:54Z</time>
      </trkpt>
      <trkpt lat="44.52849" lon="6.72051">
        <ele>1762.6</ele>
        <time>2022-07-19T15:51:55Z</time>
      </trkpt>
      <trkpt lat="44.52849" lon="6.72053">
        <ele>1762.6</ele>
        <time>2022-07-19T15:51:56Z</time>
      </trkpt>
      <trkpt lat="44.52849" lon="6.72056">
        <ele>1762.8</ele>
        <time>2022-07-19T15:51:57Z</time>
      </trkpt>
      <trkpt lat="44.5285" lon="6.72058">
        <ele>1762.8</ele>
        <time>2022-07-19T15:51:58Z</time>
      </trkpt>
      <trkpt lat="44.5285" lon="6.7206">
        <ele>1763</ele>
        <time>2022-07-19T15:51:59Z</time>
      </trkpt>
      <trkpt lat="44.52851" lon="6.72062">
        <ele>1763</ele>
        <time>2022-07-19T15:52:00Z</time>
      </trkpt>
      <trkpt lat="44.52851" lon="6.72064">
        <ele>1763.2</ele>
        <time>2022-07-19T15:52:01Z</time>
      </trkpt>
      <trkpt lat="44.52851" lon="6.72066">
        <ele>1763.2</ele>
        <time>2022-07-19T15:52:02Z</time>
      </trkpt>
      <trkpt lat="44.52851" lon="6.72068">
        <ele>1763.6</ele>
        <time>2022-07-19T15:52:03Z</time>
      </trkpt>
      <trkpt lat="44.52851" lon="6.7207">
        <ele>1763.6</ele>
        <time>2022-07-19T15:52:04Z</time>
      </trkpt>
      <trkpt lat="44.52851" lon="6.72072">
        <ele>1763.8</ele>
        <time>2022-07-19T15:52:05Z</time>
      </trkpt>
      <trkpt lat="44.52851" lon="6.72075">
        <ele>1763.8</ele>
        <time>2022-07-19T15:52:06Z</time>
      </trkpt>
      <trkpt lat="44.52852" lon="6.72077">
        <ele>1764.2</ele>
        <time>2022-07-19T15:52:07Z</time>
      </trkpt>
      <trkpt lat="44.52852" lon="6.72079">
        <ele>1764.2</ele>
        <time>2022-07-19T15:52:08Z</time>
      </trkpt>
      <trkpt lat="44.52853" lon="6.72081">
        <ele>1764.4</ele>
        <time>2022-07-19T15:52:09Z</time>
      </trkpt>
      <trkpt lat="44.52853" lon="6.72083">
        <ele>1764.4</ele>
        <time>2022-07-19T15:52:10Z</time>
      </trkpt>
      <trkpt lat="44.52853" lon="6.72085">
        <ele>1764.8</ele>
        <time>2022-07-19T15:52:11Z</time>
      </trkpt>
      <trkpt lat="44.52854" lon="6.72087">
        <ele>1764.8</ele>
        <time>2022-07-19T15:52:12Z</time>
      </trkpt>
      <trkpt lat="44.52854" lon="6.72089">
        <ele>1765</ele>
        <time>2022-07-19T15:52:13Z</time>
      </trkpt>
      <trkpt lat="44.52854" lon="6.72091">
        <ele>1765</ele>
        <time>2022-07-19T15:52:14Z</time>
      </trkpt>
      <trkpt lat="44.52855" lon="6.72093">
        <ele>1765.4</ele>
        <time>2022-07-19T15:52:15Z</time>
      </trkpt>
      <trkpt lat="44.52855" lon="6.72095">
        <ele>1765.4</ele>
        <time>2022-07-19T15:52:16Z</time>
      </trkpt>
      <trkpt lat="44.52855" lon="6.72097">
        <ele>1765.6</ele>
        <time>2022-07-19T15:52:17Z</time>
      </trkpt>
      <trkpt lat="44.52855" lon="6.72099">
        <ele>1765.6</ele>
        <time>2022-07-19T15:52:18Z</time>
      </trkpt>
      <trkpt lat="44.52854" lon="6.72101">
        <ele>1766</ele>
        <time>2022-07-19T15:52:19Z</time>
      </trkpt>
      <trkpt lat="44.52855" lon="6.72103">
        <ele>1766</ele>
        <time>2022-07-19T15:52:20Z</time>
      </trkpt>
      <trkpt lat="44.52855" lon="6.72105">
        <ele>1766.2</ele>
        <time>2022-07-19T15:52:21Z</time>
      </trkpt>
      <trkpt lat="44.52855" lon="6.72107">
        <ele>1766.2</ele>
        <time>2022-07-19T15:52:22Z</time>
      </trkpt>
      <trkpt lat="44.52856" lon="6.72109">
        <ele>1766.4</ele>
        <time>2022-07-19T15:52:23Z</time>
      </trkpt>
      <trkpt lat="44.52856" lon="6.72111">
        <ele>1766.4</ele>
        <time>2022-07-19T15:52:24Z</time>
      </trkpt>
      <trkpt lat="44.52856" lon="6.72113">
        <ele>1766.8</ele>
        <time>2022-07-19T15:52:25Z</time>
      </trkpt>
      <trkpt lat="44.52856" lon="6.72115">
        <ele>1766.8</ele>
        <time>2022-07-19T15:52:26Z</time>
      </trkpt>
      <trkpt lat="44.52857" lon="6.72116">
        <ele>1767</ele>
        <time>2022-07-19T15:52:27Z</time>
      </trkpt>
      <trkpt lat="44.52857" lon="6.72118">
        <ele>1767</ele>
        <time>2022-07-19T15:52:28Z</time>
      </trkpt>
      <trkpt lat="44.52858" lon="6.7212">
        <ele>1767.4</ele>
        <time>2022-07-19T15:52:29Z</time>
      </trkpt>
      <trkpt lat="44.52858" lon="6.72122">
        <ele>1767.4</ele>
        <time>2022-07-19T15:52:30Z</time>
      </trkpt>
      <trkpt lat="44.52858" lon="6.72124">
        <ele>1767.6</ele>
        <time>2022-07-19T15:52:31Z</time>
      </trkpt>
      <trkpt lat="44.52858" lon="6.72127">
        <ele>1767.6</ele>
        <time>2022-07-19T15:52:32Z</time>
      </trkpt>
      <trkpt lat="44.52859" lon="6.72129">
        <ele>1767.8</ele>
        <time>2022-07-19T15:52:33Z</time>
      </trkpt>
      <trkpt lat="44.52859" lon="6.72131">
        <ele>1767.8</ele>
        <time>2022-07-19T15:52:34Z</time>
      </trkpt>
      <trkpt lat="44.52859" lon="6.72132">
        <ele>1768.2</ele>
        <time>2022-07-19T15:52:35Z</time>
      </trkpt>
      <trkpt lat="44.5286" lon="6.72134">
        <ele>1768.2</ele>
        <time>2022-07-19T15:52:36Z</time>
      </trkpt>
      <trkpt lat="44.5286" lon="6.72136">
        <ele>1768.4</ele>
        <time>2022-07-19T15:52:37Z</time>
      </trkpt>
      <trkpt lat="44.5286" lon="6.72138">
        <ele>1768.4</ele>
        <time>2022-07-19T15:52:38Z</time>
      </trkpt>
      <trkpt lat="44.5286" lon="6.7214">
        <ele>1768.8</ele>
        <time>2022-07-19T15:52:39Z</time>
      </trkpt>
      <trkpt lat="44.52861" lon="6.72142">
        <ele>1768.8</ele>
        <time>2022-07-19T15:52:40Z</time>
      </trkpt>
      <trkpt lat="44.52861" lon="6.72144">
        <ele>1768.8</ele>
        <time>2022-07-19T15:52:41Z</time>
      </trkpt>
      <trkpt lat="44.52862" lon="6.72146">
        <ele>1769.2</ele>
        <time>2022-07-19T15:52:42Z</time>
      </trkpt>
      <trkpt lat="44.52862" lon="6.72148">
        <ele>1769.2</ele>
        <time>2022-07-19T15:52:43Z</time>
      </trkpt>
      <trkpt lat="44.52862" lon="6.72149">
        <ele>1769.4</ele>
        <time>2022-07-19T15:52:44Z</time>
      </trkpt>
      <trkpt lat="44.52862" lon="6.72152">
        <ele>1769.4</ele>
        <time>2022-07-19T15:52:45Z</time>
      </trkpt>
      <trkpt lat="44.52862" lon="6.72154">
        <ele>1769.6</ele>
        <time>2022-07-19T15:52:46Z</time>
      </trkpt>
      <trkpt lat="44.52862" lon="6.72156">
        <ele>1769.6</ele>
        <time>2022-07-19T15:52:47Z</time>
      </trkpt>
      <trkpt lat="44.52863" lon="6.72158">
        <ele>1770</ele>
        <time>2022-07-19T15:52:48Z</time>
      </trkpt>
      <trkpt lat="44.52863" lon="6.7216">
        <ele>1770</ele>
        <time>2022-07-19T15:52:49Z</time>
      </trkpt>
      <trkpt lat="44.52862" lon="6.72162">
        <ele>1770.2</ele>
        <time>2022-07-19T15:52:50Z</time>
      </trkpt>
      <trkpt lat="44.52862" lon="6.72164">
        <ele>1770.2</ele>
        <time>2022-07-19T15:52:51Z</time>
      </trkpt>
      <trkpt lat="44.52862" lon="6.72166">
        <ele>1770.4</ele>
        <time>2022-07-19T15:52:52Z</time>
      </trkpt>
      <trkpt lat="44.52863" lon="6.72168">
        <ele>1770.4</ele>
        <time>2022-07-19T15:52:53Z</time>
      </trkpt>
      <trkpt lat="44.52863" lon="6.7217">
        <ele>1770.8</ele>
        <time>2022-07-19T15:52:54Z</time>
      </trkpt>
      <trkpt lat="44.52863" lon="6.72172">
        <ele>1770.8</ele>
        <time>2022-07-19T15:52:55Z</time>
      </trkpt>
      <trkpt lat="44.52863" lon="6.72174">
        <ele>1771</ele>
        <time>2022-07-19T15:52:56Z</time>
      </trkpt>
      <trkpt lat="44.52863" lon="6.72176">
        <ele>1771</ele>
        <time>2022-07-19T15:52:57Z</time>
      </trkpt>
      <trkpt lat="44.52863" lon="6.72178">
        <ele>1771.4</ele>
        <time>2022-07-19T15:52:58Z</time>
      </trkpt>
      <trkpt lat="44.52863" lon="6.7218">
        <ele>1771.4</ele>
        <time>2022-07-19T15:52:59Z</time>
      </trkpt>
      <trkpt lat="44.52862" lon="6.72182">
        <ele>1771.6</ele>
        <time>2022-07-19T15:53:00Z</time>
      </trkpt>
      <trkpt lat="44.52862" lon="6.72184">
        <ele>1771.6</ele>
        <time>2022-07-19T15:53:01Z</time>
      </trkpt>
      <trkpt lat="44.52862" lon="6.72186">
        <ele>1771.8</ele>
        <time>2022-07-19T15:53:02Z</time>
      </trkpt>
      <trkpt lat="44.52862" lon="6.72188">
        <ele>1771.8</ele>
        <time>2022-07-19T15:53:03Z</time>
      </trkpt>
      <trkpt lat="44.52862" lon="6.7219">
        <ele>1772.2</ele>
        <time>2022-07-19T15:53:04Z</time>
      </trkpt>
      <trkpt lat="44.52862" lon="6.72192">
        <ele>1772.4</ele>
        <time>2022-07-19T15:53:05Z</time>
      </trkpt>
      <trkpt lat="44.52862" lon="6.72194">
        <ele>1772.4</ele>
        <time>2022-07-19T15:53:06Z</time>
      </trkpt>
      <trkpt lat="44.52861" lon="6.72196">
        <ele>1772.8</ele>
        <time>2022-07-19T15:53:07Z</time>
      </trkpt>
      <trkpt lat="44.52861" lon="6.72198">
        <ele>1772.8</ele>
        <time>2022-07-19T15:53:08Z</time>
      </trkpt>
      <trkpt lat="44.52861" lon="6.72199">
        <ele>1773</ele>
        <time>2022-07-19T15:53:09Z</time>
      </trkpt>
      <trkpt lat="44.52861" lon="6.72201">
        <ele>1773</ele>
        <time>2022-07-19T15:53:10Z</time>
      </trkpt>
      <trkpt lat="44.52861" lon="6.72203">
        <ele>1773.4</ele>
        <time>2022-07-19T15:53:11Z</time>
      </trkpt>
      <trkpt lat="44.5286" lon="6.72205">
        <ele>1773.4</ele>
        <time>2022-07-19T15:53:12Z</time>
      </trkpt>
      <trkpt lat="44.5286" lon="6.72207">
        <ele>1773.6</ele>
        <time>2022-07-19T15:53:13Z</time>
      </trkpt>
      <trkpt lat="44.5286" lon="6.72209">
        <ele>1773.6</ele>
        <time>2022-07-19T15:53:14Z</time>
      </trkpt>
      <trkpt lat="44.5286" lon="6.72211">
        <ele>1773.6</ele>
        <time>2022-07-19T15:53:15Z</time>
      </trkpt>
      <trkpt lat="44.52861" lon="6.72214">
        <ele>1774</ele>
        <time>2022-07-19T15:53:16Z</time>
      </trkpt>
      <trkpt lat="44.52862" lon="6.72216">
        <ele>1774</ele>
        <time>2022-07-19T15:53:17Z</time>
      </trkpt>
      <trkpt lat="44.52862" lon="6.72218">
        <ele>1774.2</ele>
        <time>2022-07-19T15:53:18Z</time>
      </trkpt>
      <trkpt lat="44.52863" lon="6.7222">
        <ele>1774.2</ele>
        <time>2022-07-19T15:53:19Z</time>
      </trkpt>
      <trkpt lat="44.52864" lon="6.72221">
        <ele>1774.4</ele>
        <time>2022-07-19T15:53:20Z</time>
      </trkpt>
      <trkpt lat="44.52865" lon="6.72223">
        <ele>1774.4</ele>
        <time>2022-07-19T15:53:21Z</time>
      </trkpt>
      <trkpt lat="44.52866" lon="6.72225">
        <ele>1774.8</ele>
        <time>2022-07-19T15:53:22Z</time>
      </trkpt>
      <trkpt lat="44.52868" lon="6.72226">
        <ele>1774.8</ele>
        <time>2022-07-19T15:53:23Z</time>
      </trkpt>
      <trkpt lat="44.52869" lon="6.72226">
        <ele>1774.8</ele>
        <time>2022-07-19T15:53:24Z</time>
      </trkpt>
      <trkpt lat="44.52871" lon="6.72227">
        <ele>1774.8</ele>
        <time>2022-07-19T15:53:25Z</time>
      </trkpt>
      <trkpt lat="44.52873" lon="6.72227">
        <ele>1775</ele>
        <time>2022-07-19T15:53:26Z</time>
      </trkpt>
      <trkpt lat="44.52875" lon="6.72227">
        <ele>1775</ele>
        <time>2022-07-19T15:53:27Z</time>
      </trkpt>
      <trkpt lat="44.52876" lon="6.72226">
        <ele>1775.2</ele>
        <time>2022-07-19T15:53:28Z</time>
      </trkpt>
      <trkpt lat="44.52878" lon="6.72224">
        <ele>1775.2</ele>
        <time>2022-07-19T15:53:29Z</time>
      </trkpt>
      <trkpt lat="44.5288" lon="6.72222">
        <ele>1775.2</ele>
        <time>2022-07-19T15:53:30Z</time>
      </trkpt>
      <trkpt lat="44.52881" lon="6.7222">
        <ele>1775.4</ele>
        <time>2022-07-19T15:53:31Z</time>
      </trkpt>
      <trkpt lat="44.52882" lon="6.72218">
        <ele>1775.4</ele>
        <time>2022-07-19T15:53:32Z</time>
      </trkpt>
      <trkpt lat="44.52884" lon="6.72216">
        <ele>1775.4</ele>
        <time>2022-07-19T15:53:33Z</time>
      </trkpt>
      <trkpt lat="44.52884" lon="6.72214">
        <ele>1775.6</ele>
        <time>2022-07-19T15:53:34Z</time>
      </trkpt>
      <trkpt lat="44.52885" lon="6.72211">
        <ele>1775.6</ele>
        <time>2022-07-19T15:53:35Z</time>
      </trkpt>
      <trkpt lat="44.52886" lon="6.72209">
        <ele>1776</ele>
        <time>2022-07-19T15:53:36Z</time>
      </trkpt>
      <trkpt lat="44.52887" lon="6.72207">
        <ele>1776</ele>
        <time>2022-07-19T15:53:37Z</time>
      </trkpt>
      <trkpt lat="44.52887" lon="6.72204">
        <ele>1776.2</ele>
        <time>2022-07-19T15:53:38Z</time>
      </trkpt>
      <trkpt lat="44.52888" lon="6.72202">
        <ele>1776.2</ele>
        <time>2022-07-19T15:53:39Z</time>
      </trkpt>
      <trkpt lat="44.52888" lon="6.72199">
        <ele>1776.6</ele>
        <time>2022-07-19T15:53:40Z</time>
      </trkpt>
      <trkpt lat="44.52889" lon="6.72197">
        <ele>1776.6</ele>
        <time>2022-07-19T15:53:41Z</time>
      </trkpt>
      <trkpt lat="44.52889" lon="6.72194">
        <ele>1776.8</ele>
        <time>2022-07-19T15:53:42Z</time>
      </trkpt>
      <trkpt lat="44.52889" lon="6.72191">
        <ele>1776.8</ele>
        <time>2022-07-19T15:53:43Z</time>
      </trkpt>
      <trkpt lat="44.52889" lon="6.72189">
        <ele>1777.2</ele>
        <time>2022-07-19T15:53:44Z</time>
      </trkpt>
      <trkpt lat="44.52888" lon="6.72186">
        <ele>1777.2</ele>
        <time>2022-07-19T15:53:45Z</time>
      </trkpt>
      <trkpt lat="44.52888" lon="6.72183">
        <ele>1777.2</ele>
        <time>2022-07-19T15:53:46Z</time>
      </trkpt>
      <trkpt lat="44.52888" lon="6.72181">
        <ele>1777.4</ele>
        <time>2022-07-19T15:53:47Z</time>
      </trkpt>
      <trkpt lat="44.52888" lon="6.72178">
        <ele>1777.4</ele>
        <time>2022-07-19T15:53:48Z</time>
      </trkpt>
      <trkpt lat="44.52888" lon="6.72175">
        <ele>1777.8</ele>
        <time>2022-07-19T15:53:49Z</time>
      </trkpt>
      <trkpt lat="44.52888" lon="6.72172">
        <ele>1777.8</ele>
        <time>2022-07-19T15:53:50Z</time>
      </trkpt>
      <trkpt lat="44.52887" lon="6.7217">
        <ele>1778</ele>
        <time>2022-07-19T15:53:51Z</time>
      </trkpt>
      <trkpt lat="44.52887" lon="6.72167">
        <ele>1778</ele>
        <time>2022-07-19T15:53:52Z</time>
      </trkpt>
      <trkpt lat="44.52887" lon="6.72165">
        <ele>1778</ele>
        <time>2022-07-19T15:53:53Z</time>
      </trkpt>
      <trkpt lat="44.52887" lon="6.72162">
        <ele>1778.4</ele>
        <time>2022-07-19T15:53:54Z</time>
      </trkpt>
      <trkpt lat="44.52887" lon="6.7216">
        <ele>1778.4</ele>
        <time>2022-07-19T15:53:55Z</time>
      </trkpt>
      <trkpt lat="44.52887" lon="6.72157">
        <ele>1778.6</ele>
        <time>2022-07-19T15:53:56Z</time>
      </trkpt>
      <trkpt lat="44.52887" lon="6.72155">
        <ele>1778.6</ele>
        <time>2022-07-19T15:53:57Z</time>
      </trkpt>
      <trkpt lat="44.52887" lon="6.72152">
        <ele>1779</ele>
        <time>2022-07-19T15:53:58Z</time>
      </trkpt>
      <trkpt lat="44.52887" lon="6.7215">
        <ele>1779</ele>
        <time>2022-07-19T15:53:59Z</time>
      </trkpt>
      <trkpt lat="44.52887" lon="6.72147">
        <ele>1779.4</ele>
        <time>2022-07-19T15:54:00Z</time>
      </trkpt>
      <trkpt lat="44.52887" lon="6.72145">
        <ele>1779.4</ele>
        <time>2022-07-19T15:54:01Z</time>
      </trkpt>
      <trkpt lat="44.52888" lon="6.72143">
        <ele>1779.8</ele>
        <time>2022-07-19T15:54:02Z</time>
      </trkpt>
      <trkpt lat="44.52888" lon="6.7214">
        <ele>1779.8</ele>
        <time>2022-07-19T15:54:03Z</time>
      </trkpt>
      <trkpt lat="44.52888" lon="6.72138">
        <ele>1780</ele>
        <time>2022-07-19T15:54:04Z</time>
      </trkpt>
      <trkpt lat="44.52888" lon="6.72135">
        <ele>1780</ele>
        <time>2022-07-19T15:54:05Z</time>
      </trkpt>
      <trkpt lat="44.52888" lon="6.72133">
        <ele>1780.4</ele>
        <time>2022-07-19T15:54:06Z</time>
      </trkpt>
      <trkpt lat="44.52888" lon="6.72131">
        <ele>1780.4</ele>
        <time>2022-07-19T15:54:07Z</time>
      </trkpt>
      <trkpt lat="44.52888" lon="6.72128">
        <ele>1780.8</ele>
        <time>2022-07-19T15:54:08Z</time>
      </trkpt>
      <trkpt lat="44.52889" lon="6.72126">
        <ele>1780.8</ele>
        <time>2022-07-19T15:54:09Z</time>
      </trkpt>
      <trkpt lat="44.52889" lon="6.72124">
        <ele>1781.2</ele>
        <time>2022-07-19T15:54:10Z</time>
      </trkpt>
      <trkpt lat="44.5289" lon="6.72122">
        <ele>1781.4</ele>
        <time>2022-07-19T15:54:11Z</time>
      </trkpt>
      <trkpt lat="44.5289" lon="6.72119">
        <ele>1781.4</ele>
        <time>2022-07-19T15:54:12Z</time>
      </trkpt>
      <trkpt lat="44.52891" lon="6.72117">
        <ele>1781.6</ele>
        <time>2022-07-19T15:54:13Z</time>
      </trkpt>
      <trkpt lat="44.52891" lon="6.72115">
        <ele>1781.8</ele>
        <time>2022-07-19T15:54:14Z</time>
      </trkpt>
      <trkpt lat="44.52891" lon="6.72112">
        <ele>1781.8</ele>
        <time>2022-07-19T15:54:15Z</time>
      </trkpt>
      <trkpt lat="44.52892" lon="6.7211">
        <ele>1782.2</ele>
        <time>2022-07-19T15:54:16Z</time>
      </trkpt>
      <trkpt lat="44.52892" lon="6.72107">
        <ele>1782.2</ele>
        <time>2022-07-19T15:54:17Z</time>
      </trkpt>
      <trkpt lat="44.52893" lon="6.72105">
        <ele>1782.6</ele>
        <time>2022-07-19T15:54:18Z</time>
      </trkpt>
      <trkpt lat="44.52893" lon="6.72103">
        <ele>1782.8</ele>
        <time>2022-07-19T15:54:19Z</time>
      </trkpt>
      <trkpt lat="44.52894" lon="6.721">
        <ele>1782.8</ele>
        <time>2022-07-19T15:54:20Z</time>
      </trkpt>
      <trkpt lat="44.52894" lon="6.72098">
        <ele>1783.2</ele>
        <time>2022-07-19T15:54:21Z</time>
      </trkpt>
      <trkpt lat="44.52895" lon="6.72096">
        <ele>1783.2</ele>
        <time>2022-07-19T15:54:22Z</time>
      </trkpt>
      <trkpt lat="44.52895" lon="6.72094">
        <ele>1783.4</ele>
        <time>2022-07-19T15:54:23Z</time>
      </trkpt>
      <trkpt lat="44.52895" lon="6.72092">
        <ele>1783.8</ele>
        <time>2022-07-19T15:54:24Z</time>
      </trkpt>
      <trkpt lat="44.52895" lon="6.72089">
        <ele>1783.8</ele>
        <time>2022-07-19T15:54:25Z</time>
      </trkpt>
      <trkpt lat="44.52896" lon="6.72087">
        <ele>1784</ele>
        <time>2022-07-19T15:54:26Z</time>
      </trkpt>
      <trkpt lat="44.52896" lon="6.72085">
        <ele>1784</ele>
        <time>2022-07-19T15:54:27Z</time>
      </trkpt>
      <trkpt lat="44.52896" lon="6.72083">
        <ele>1784.4</ele>
        <time>2022-07-19T15:54:28Z</time>
      </trkpt>
      <trkpt lat="44.52897" lon="6.7208">
        <ele>1784.4</ele>
        <time>2022-07-19T15:54:29Z</time>
      </trkpt>
      <trkpt lat="44.52897" lon="6.72078">
        <ele>1784.6</ele>
        <time>2022-07-19T15:54:30Z</time>
      </trkpt>
      <trkpt lat="44.52897" lon="6.72076">
        <ele>1784.6</ele>
        <time>2022-07-19T15:54:31Z</time>
      </trkpt>
      <trkpt lat="44.52898" lon="6.72074">
        <ele>1785</ele>
        <time>2022-07-19T15:54:32Z</time>
      </trkpt>
      <trkpt lat="44.52898" lon="6.72071">
        <ele>1785</ele>
        <time>2022-07-19T15:54:33Z</time>
      </trkpt>
      <trkpt lat="44.52898" lon="6.72069">
        <ele>1785.4</ele>
        <time>2022-07-19T15:54:34Z</time>
      </trkpt>
      <trkpt lat="44.52899" lon="6.72067">
        <ele>1785.4</ele>
        <time>2022-07-19T15:54:35Z</time>
      </trkpt>
      <trkpt lat="44.529" lon="6.72065">
        <ele>1785.6</ele>
        <time>2022-07-19T15:54:36Z</time>
      </trkpt>
      <trkpt lat="44.529" lon="6.72062">
        <ele>1785.6</ele>
        <time>2022-07-19T15:54:37Z</time>
      </trkpt>
      <trkpt lat="44.529" lon="6.7206">
        <ele>1786</ele>
        <time>2022-07-19T15:54:38Z</time>
      </trkpt>
      <trkpt lat="44.529" lon="6.72058">
        <ele>1786</ele>
        <time>2022-07-19T15:54:39Z</time>
      </trkpt>
      <trkpt lat="44.52901" lon="6.72056">
        <ele>1786.4</ele>
        <time>2022-07-19T15:54:40Z</time>
      </trkpt>
      <trkpt lat="44.52901" lon="6.72054">
        <ele>1786.4</ele>
        <time>2022-07-19T15:54:41Z</time>
      </trkpt>
      <trkpt lat="44.52902" lon="6.72052">
        <ele>1786.6</ele>
        <time>2022-07-19T15:54:42Z</time>
      </trkpt>
      <trkpt lat="44.52902" lon="6.7205">
        <ele>1786.6</ele>
        <time>2022-07-19T15:54:43Z</time>
      </trkpt>
      <trkpt lat="44.52902" lon="6.72048">
        <ele>1787</ele>
        <time>2022-07-19T15:54:44Z</time>
      </trkpt>
      <trkpt lat="44.52902" lon="6.72046">
        <ele>1787</ele>
        <time>2022-07-19T15:54:45Z</time>
      </trkpt>
      <trkpt lat="44.52902" lon="6.72043">
        <ele>1787.4</ele>
        <time>2022-07-19T15:54:46Z</time>
      </trkpt>
      <trkpt lat="44.52902" lon="6.72041">
        <ele>1787.4</ele>
        <time>2022-07-19T15:54:47Z</time>
      </trkpt>
      <trkpt lat="44.52902" lon="6.72039">
        <ele>1787.6</ele>
        <time>2022-07-19T15:54:48Z</time>
      </trkpt>
      <trkpt lat="44.52902" lon="6.72037">
        <ele>1787.6</ele>
        <time>2022-07-19T15:54:49Z</time>
      </trkpt>
      <trkpt lat="44.52903" lon="6.72034">
        <ele>1788</ele>
        <time>2022-07-19T15:54:50Z</time>
      </trkpt>
      <trkpt lat="44.52903" lon="6.72032">
        <ele>1788</ele>
        <time>2022-07-19T15:54:51Z</time>
      </trkpt>
      <trkpt lat="44.52903" lon="6.7203">
        <ele>1788.4</ele>
        <time>2022-07-19T15:54:52Z</time>
      </trkpt>
      <trkpt lat="44.52903" lon="6.72028">
        <ele>1788.4</ele>
        <time>2022-07-19T15:54:53Z</time>
      </trkpt>
      <trkpt lat="44.52903" lon="6.72026">
        <ele>1788.6</ele>
        <time>2022-07-19T15:54:54Z</time>
      </trkpt>
      <trkpt lat="44.52904" lon="6.72024">
        <ele>1788.6</ele>
        <time>2022-07-19T15:54:55Z</time>
      </trkpt>
      <trkpt lat="44.52904" lon="6.72022">
        <ele>1789</ele>
        <time>2022-07-19T15:54:56Z</time>
      </trkpt>
      <trkpt lat="44.52904" lon="6.7202">
        <ele>1789</ele>
        <time>2022-07-19T15:54:57Z</time>
      </trkpt>
      <trkpt lat="44.52905" lon="6.72018">
        <ele>1789.2</ele>
        <time>2022-07-19T15:54:58Z</time>
      </trkpt>
      <trkpt lat="44.52905" lon="6.72016">
        <ele>1789.2</ele>
        <time>2022-07-19T15:54:59Z</time>
      </trkpt>
      <trkpt lat="44.52905" lon="6.72014">
        <ele>1789.6</ele>
        <time>2022-07-19T15:55:00Z</time>
      </trkpt>
      <trkpt lat="44.52905" lon="6.72012">
        <ele>1789.6</ele>
        <time>2022-07-19T15:55:01Z</time>
      </trkpt>
      <trkpt lat="44.52905" lon="6.7201">
        <ele>1789.8</ele>
        <time>2022-07-19T15:55:02Z</time>
      </trkpt>
      <trkpt lat="44.52905" lon="6.72009">
        <ele>1790</ele>
        <time>2022-07-19T15:55:03Z</time>
      </trkpt>
      <trkpt lat="44.52906" lon="6.72007">
        <ele>1790</ele>
        <time>2022-07-19T15:55:04Z</time>
      </trkpt>
      <trkpt lat="44.52906" lon="6.72005">
        <ele>1790.2</ele>
        <time>2022-07-19T15:55:05Z</time>
      </trkpt>
      <trkpt lat="44.52906" lon="6.72003">
        <ele>1790.2</ele>
        <time>2022-07-19T15:55:06Z</time>
      </trkpt>
      <trkpt lat="44.52906" lon="6.72001">
        <ele>1790.6</ele>
        <time>2022-07-19T15:55:07Z</time>
      </trkpt>
      <trkpt lat="44.52906" lon="6.71999">
        <ele>1790.6</ele>
        <time>2022-07-19T15:55:08Z</time>
      </trkpt>
      <trkpt lat="44.52907" lon="6.71997">
        <ele>1790.8</ele>
        <time>2022-07-19T15:55:09Z</time>
      </trkpt>
      <trkpt lat="44.52907" lon="6.71995">
        <ele>1790.8</ele>
        <time>2022-07-19T15:55:10Z</time>
      </trkpt>
      <trkpt lat="44.52907" lon="6.71993">
        <ele>1791</ele>
        <time>2022-07-19T15:55:11Z</time>
      </trkpt>
      <trkpt lat="44.52908" lon="6.71991">
        <ele>1791.4</ele>
        <time>2022-07-19T15:55:12Z</time>
      </trkpt>
      <trkpt lat="44.52908" lon="6.71989">
        <ele>1791.4</ele>
        <time>2022-07-19T15:55:13Z</time>
      </trkpt>
      <trkpt lat="44.52908" lon="6.71986">
        <ele>1791.6</ele>
        <time>2022-07-19T15:55:14Z</time>
      </trkpt>
      <trkpt lat="44.52908" lon="6.71984">
        <ele>1791.6</ele>
        <time>2022-07-19T15:55:15Z</time>
      </trkpt>
      <trkpt lat="44.52908" lon="6.71982">
        <ele>1791.8</ele>
        <time>2022-07-19T15:55:16Z</time>
      </trkpt>
      <trkpt lat="44.52908" lon="6.71981">
        <ele>1791.8</ele>
        <time>2022-07-19T15:55:17Z</time>
      </trkpt>
      <trkpt lat="44.52908" lon="6.71979">
        <ele>1792</ele>
        <time>2022-07-19T15:55:18Z</time>
      </trkpt>
      <trkpt lat="44.52908" lon="6.71977">
        <ele>1792</ele>
        <time>2022-07-19T15:55:19Z</time>
      </trkpt>
      <trkpt lat="44.52909" lon="6.71975">
        <ele>1792.4</ele>
        <time>2022-07-19T15:55:20Z</time>
      </trkpt>
      <trkpt lat="44.52909" lon="6.71973">
        <ele>1792.4</ele>
        <time>2022-07-19T15:55:21Z</time>
      </trkpt>
      <trkpt lat="44.52909" lon="6.71972">
        <ele>1792.6</ele>
        <time>2022-07-19T15:55:22Z</time>
      </trkpt>
      <trkpt lat="44.52909" lon="6.7197">
        <ele>1792.6</ele>
        <time>2022-07-19T15:55:23Z</time>
      </trkpt>
      <trkpt lat="44.52909" lon="6.71968">
        <ele>1793</ele>
        <time>2022-07-19T15:55:24Z</time>
      </trkpt>
      <trkpt lat="44.52909" lon="6.71967">
        <ele>1793</ele>
        <time>2022-07-19T15:55:25Z</time>
      </trkpt>
      <trkpt lat="44.5291" lon="6.71965">
        <ele>1793.4</ele>
        <time>2022-07-19T15:55:26Z</time>
      </trkpt>
      <trkpt lat="44.5291" lon="6.71963">
        <ele>1793.4</ele>
        <time>2022-07-19T15:55:27Z</time>
      </trkpt>
      <trkpt lat="44.5291" lon="6.71962">
        <ele>1793.8</ele>
        <time>2022-07-19T15:55:28Z</time>
      </trkpt>
      <trkpt lat="44.52911" lon="6.7196">
        <ele>1793.8</ele>
        <time>2022-07-19T15:55:29Z</time>
      </trkpt>
      <trkpt lat="44.52911" lon="6.71959">
        <ele>1793.8</ele>
        <time>2022-07-19T15:55:30Z</time>
      </trkpt>
      <trkpt lat="44.52912" lon="6.71957">
        <ele>1794</ele>
        <time>2022-07-19T15:55:31Z</time>
      </trkpt>
      <trkpt lat="44.52912" lon="6.71955">
        <ele>1794</ele>
        <time>2022-07-19T15:55:32Z</time>
      </trkpt>
      <trkpt lat="44.52912" lon="6.71953">
        <ele>1794</ele>
        <time>2022-07-19T15:55:33Z</time>
      </trkpt>
      <trkpt lat="44.52912" lon="6.71951">
        <ele>1794.4</ele>
        <time>2022-07-19T15:55:34Z</time>
      </trkpt>
      <trkpt lat="44.52912" lon="6.71949">
        <ele>1794.4</ele>
        <time>2022-07-19T15:55:35Z</time>
      </trkpt>
      <trkpt lat="44.52912" lon="6.71948">
        <ele>1794.6</ele>
        <time>2022-07-19T15:55:36Z</time>
      </trkpt>
      <trkpt lat="44.52912" lon="6.71944">
        <ele>1794.6</ele>
        <time>2022-07-19T15:55:37Z</time>
      </trkpt>
      <trkpt lat="44.52913" lon="6.71943">
        <ele>1794.8</ele>
        <time>2022-07-19T15:55:38Z</time>
      </trkpt>
      <trkpt lat="44.52913" lon="6.71941">
        <ele>1794.8</ele>
        <time>2022-07-19T15:55:39Z</time>
      </trkpt>
      <trkpt lat="44.52913" lon="6.71939">
        <ele>1794.8</ele>
        <time>2022-07-19T15:55:40Z</time>
      </trkpt>
      <trkpt lat="44.52913" lon="6.71937">
        <ele>1795.2</ele>
        <time>2022-07-19T15:55:41Z</time>
      </trkpt>
      <trkpt lat="44.52914" lon="6.71936">
        <ele>1795.2</ele>
        <time>2022-07-19T15:55:42Z</time>
      </trkpt>
      <trkpt lat="44.52914" lon="6.71934">
        <ele>1795.4</ele>
        <time>2022-07-19T15:55:43Z</time>
      </trkpt>
      <trkpt lat="44.52914" lon="6.71932">
        <ele>1795.4</ele>
        <time>2022-07-19T15:55:44Z</time>
      </trkpt>
      <trkpt lat="44.52914" lon="6.7193">
        <ele>1795.8</ele>
        <time>2022-07-19T15:55:45Z</time>
      </trkpt>
      <trkpt lat="44.52915" lon="6.71928">
        <ele>1795.8</ele>
        <time>2022-07-19T15:55:46Z</time>
      </trkpt>
      <trkpt lat="44.52915" lon="6.71926">
        <ele>1796</ele>
        <time>2022-07-19T15:55:47Z</time>
      </trkpt>
      <trkpt lat="44.52916" lon="6.71924">
        <ele>1796</ele>
        <time>2022-07-19T15:55:48Z</time>
      </trkpt>
      <trkpt lat="44.52916" lon="6.71922">
        <ele>1796.4</ele>
        <time>2022-07-19T15:55:49Z</time>
      </trkpt>
      <trkpt lat="44.52916" lon="6.7192">
        <ele>1796.4</ele>
        <time>2022-07-19T15:55:50Z</time>
      </trkpt>
      <trkpt lat="44.52917" lon="6.71918">
        <ele>1796.6</ele>
        <time>2022-07-19T15:55:51Z</time>
      </trkpt>
      <trkpt lat="44.52917" lon="6.71916">
        <ele>1796.6</ele>
        <time>2022-07-19T15:55:52Z</time>
      </trkpt>
      <trkpt lat="44.52918" lon="6.71914">
        <ele>1797</ele>
        <time>2022-07-19T15:55:53Z</time>
      </trkpt>
      <trkpt lat="44.52918" lon="6.71912">
        <ele>1797</ele>
        <time>2022-07-19T15:55:54Z</time>
      </trkpt>
      <trkpt lat="44.52918" lon="6.7191">
        <ele>1797</ele>
        <time>2022-07-19T15:55:55Z</time>
      </trkpt>
      <trkpt lat="44.52918" lon="6.71908">
        <ele>1797.4</ele>
        <time>2022-07-19T15:55:56Z</time>
      </trkpt>
      <trkpt lat="44.52918" lon="6.71906">
        <ele>1797.4</ele>
        <time>2022-07-19T15:55:57Z</time>
      </trkpt>
      <trkpt lat="44.52919" lon="6.71904">
        <ele>1797.8</ele>
        <time>2022-07-19T15:55:58Z</time>
      </trkpt>
      <trkpt lat="44.52919" lon="6.71902">
        <ele>1797.8</ele>
        <time>2022-07-19T15:55:59Z</time>
      </trkpt>
      <trkpt lat="44.52919" lon="6.719">
        <ele>1798.2</ele>
        <time>2022-07-19T15:56:00Z</time>
      </trkpt>
      <trkpt lat="44.52919" lon="6.71898">
        <ele>1798.2</ele>
        <time>2022-07-19T15:56:01Z</time>
      </trkpt>
      <trkpt lat="44.52919" lon="6.71896">
        <ele>1798.2</ele>
        <time>2022-07-19T15:56:02Z</time>
      </trkpt>
      <trkpt lat="44.52919" lon="6.71894">
        <ele>1798.4</ele>
        <time>2022-07-19T15:56:03Z</time>
      </trkpt>
      <trkpt lat="44.5292" lon="6.71892">
        <ele>1798.4</ele>
        <time>2022-07-19T15:56:04Z</time>
      </trkpt>
      <trkpt lat="44.5292" lon="6.7189">
        <ele>1798.6</ele>
        <time>2022-07-19T15:56:05Z</time>
      </trkpt>
      <trkpt lat="44.52921" lon="6.71888">
        <ele>1798.6</ele>
        <time>2022-07-19T15:56:06Z</time>
      </trkpt>
      <trkpt lat="44.52921" lon="6.71886">
        <ele>1799</ele>
        <time>2022-07-19T15:56:07Z</time>
      </trkpt>
      <trkpt lat="44.52921" lon="6.71884">
        <ele>1799</ele>
        <time>2022-07-19T15:56:08Z</time>
      </trkpt>
      <trkpt lat="44.52922" lon="6.71881">
        <ele>1799.4</ele>
        <time>2022-07-19T15:56:09Z</time>
      </trkpt>
      <trkpt lat="44.52922" lon="6.71879">
        <ele>1799.4</ele>
        <time>2022-07-19T15:56:10Z</time>
      </trkpt>
      <trkpt lat="44.52922" lon="6.71877">
        <ele>1799.6</ele>
        <time>2022-07-19T15:56:11Z</time>
      </trkpt>
      <trkpt lat="44.52922" lon="6.71875">
        <ele>1799.6</ele>
        <time>2022-07-19T15:56:12Z</time>
      </trkpt>
      <trkpt lat="44.52922" lon="6.71873">
        <ele>1799.8</ele>
        <time>2022-07-19T15:56:13Z</time>
      </trkpt>
      <trkpt lat="44.52922" lon="6.71871">
        <ele>1799.8</ele>
        <time>2022-07-19T15:56:14Z</time>
      </trkpt>
      <trkpt lat="44.52922" lon="6.71869">
        <ele>1800.2</ele>
        <time>2022-07-19T15:56:15Z</time>
      </trkpt>
      <trkpt lat="44.52923" lon="6.71867">
        <ele>1800.6</ele>
        <time>2022-07-19T15:56:16Z</time>
      </trkpt>
      <trkpt lat="44.52923" lon="6.71865">
        <ele>1800.6</ele>
        <time>2022-07-19T15:56:17Z</time>
      </trkpt>
      <trkpt lat="44.52923" lon="6.71863">
        <ele>1800.8</ele>
        <time>2022-07-19T15:56:18Z</time>
      </trkpt>
      <trkpt lat="44.52924" lon="6.71861">
        <ele>1800.8</ele>
        <time>2022-07-19T15:56:19Z</time>
      </trkpt>
      <trkpt lat="44.52924" lon="6.71859">
        <ele>1801</ele>
        <time>2022-07-19T15:56:20Z</time>
      </trkpt>
      <trkpt lat="44.52924" lon="6.71857">
        <ele>1801</ele>
        <time>2022-07-19T15:56:21Z</time>
      </trkpt>
      <trkpt lat="44.52924" lon="6.71855">
        <ele>1801.4</ele>
        <time>2022-07-19T15:56:22Z</time>
      </trkpt>
      <trkpt lat="44.52925" lon="6.71853">
        <ele>1801.4</ele>
        <time>2022-07-19T15:56:23Z</time>
      </trkpt>
      <trkpt lat="44.52925" lon="6.71851">
        <ele>1801.6</ele>
        <time>2022-07-19T15:56:24Z</time>
      </trkpt>
      <trkpt lat="44.52925" lon="6.71849">
        <ele>1801.6</ele>
        <time>2022-07-19T15:56:25Z</time>
      </trkpt>
      <trkpt lat="44.52925" lon="6.71847">
        <ele>1801.8</ele>
        <time>2022-07-19T15:56:26Z</time>
      </trkpt>
      <trkpt lat="44.52925" lon="6.71845">
        <ele>1802</ele>
        <time>2022-07-19T15:56:27Z</time>
      </trkpt>
      <trkpt lat="44.52925" lon="6.71843">
        <ele>1802</ele>
        <time>2022-07-19T15:56:28Z</time>
      </trkpt>
      <trkpt lat="44.52925" lon="6.71841">
        <ele>1802.4</ele>
        <time>2022-07-19T15:56:29Z</time>
      </trkpt>
      <trkpt lat="44.52925" lon="6.7184">
        <ele>1802.4</ele>
        <time>2022-07-19T15:56:30Z</time>
      </trkpt>
      <trkpt lat="44.52925" lon="6.71838">
        <ele>1802.6</ele>
        <time>2022-07-19T15:56:31Z</time>
      </trkpt>
      <trkpt lat="44.52925" lon="6.71835">
        <ele>1802.6</ele>
        <time>2022-07-19T15:56:32Z</time>
      </trkpt>
      <trkpt lat="44.52925" lon="6.71833">
        <ele>1802.8</ele>
        <time>2022-07-19T15:56:33Z</time>
      </trkpt>
      <trkpt lat="44.52926" lon="6.71831">
        <ele>1802.8</ele>
        <time>2022-07-19T15:56:34Z</time>
      </trkpt>
      <trkpt lat="44.52926" lon="6.71829">
        <ele>1803.2</ele>
        <time>2022-07-19T15:56:35Z</time>
      </trkpt>
      <trkpt lat="44.52927" lon="6.71827">
        <ele>1803.2</ele>
        <time>2022-07-19T15:56:36Z</time>
      </trkpt>
      <trkpt lat="44.52927" lon="6.71825">
        <ele>1803.6</ele>
        <time>2022-07-19T15:56:37Z</time>
      </trkpt>
      <trkpt lat="44.52927" lon="6.71823">
        <ele>1803.6</ele>
        <time>2022-07-19T15:56:38Z</time>
      </trkpt>
      <trkpt lat="44.52927" lon="6.71821">
        <ele>1804</ele>
        <time>2022-07-19T15:56:39Z</time>
      </trkpt>
      <trkpt lat="44.52927" lon="6.71819">
        <ele>1804</ele>
        <time>2022-07-19T15:56:40Z</time>
      </trkpt>
      <trkpt lat="44.52927" lon="6.71817">
        <ele>1804.2</ele>
        <time>2022-07-19T15:56:41Z</time>
      </trkpt>
      <trkpt lat="44.52927" lon="6.71815">
        <ele>1804.2</ele>
        <time>2022-07-19T15:56:42Z</time>
      </trkpt>
      <trkpt lat="44.52927" lon="6.71813">
        <ele>1804.4</ele>
        <time>2022-07-19T15:56:43Z</time>
      </trkpt>
      <trkpt lat="44.52928" lon="6.7181">
        <ele>1804.6</ele>
        <time>2022-07-19T15:56:44Z</time>
      </trkpt>
      <trkpt lat="44.52928" lon="6.71808">
        <ele>1804.6</ele>
        <time>2022-07-19T15:56:45Z</time>
      </trkpt>
      <trkpt lat="44.52928" lon="6.71806">
        <ele>1805</ele>
        <time>2022-07-19T15:56:46Z</time>
      </trkpt>
      <trkpt lat="44.52929" lon="6.71804">
        <ele>1805.4</ele>
        <time>2022-07-19T15:56:47Z</time>
      </trkpt>
      <trkpt lat="44.52929" lon="6.71803">
        <ele>1805.6</ele>
        <time>2022-07-19T15:56:48Z</time>
      </trkpt>
      <trkpt lat="44.52929" lon="6.71801">
        <ele>1805.6</ele>
        <time>2022-07-19T15:56:49Z</time>
      </trkpt>
      <trkpt lat="44.52929" lon="6.71799">
        <ele>1805.8</ele>
        <time>2022-07-19T15:56:50Z</time>
      </trkpt>
      <trkpt lat="44.52929" lon="6.71797">
        <ele>1805.8</ele>
        <time>2022-07-19T15:56:51Z</time>
      </trkpt>
      <trkpt lat="44.52929" lon="6.71795">
        <ele>1806.2</ele>
        <time>2022-07-19T15:56:52Z</time>
      </trkpt>
      <trkpt lat="44.52929" lon="6.71793">
        <ele>1806.2</ele>
        <time>2022-07-19T15:56:53Z</time>
      </trkpt>
      <trkpt lat="44.52929" lon="6.71791">
        <ele>1806.4</ele>
        <time>2022-07-19T15:56:54Z</time>
      </trkpt>
      <trkpt lat="44.5293" lon="6.71789">
        <ele>1806.4</ele>
        <time>2022-07-19T15:56:55Z</time>
      </trkpt>
      <trkpt lat="44.5293" lon="6.71787">
        <ele>1806.8</ele>
        <time>2022-07-19T15:56:56Z</time>
      </trkpt>
      <trkpt lat="44.52931" lon="6.71785">
        <ele>1806.8</ele>
        <time>2022-07-19T15:56:57Z</time>
      </trkpt>
      <trkpt lat="44.52931" lon="6.71783">
        <ele>1807</ele>
        <time>2022-07-19T15:56:58Z</time>
      </trkpt>
      <trkpt lat="44.52931" lon="6.71781">
        <ele>1807</ele>
        <time>2022-07-19T15:56:59Z</time>
      </trkpt>
      <trkpt lat="44.52932" lon="6.71779">
        <ele>1807.4</ele>
        <time>2022-07-19T15:57:00Z</time>
      </trkpt>
      <trkpt lat="44.52932" lon="6.71777">
        <ele>1807.6</ele>
        <time>2022-07-19T15:57:02Z</time>
      </trkpt>
      <trkpt lat="44.52932" lon="6.71775">
        <ele>1807.8</ele>
        <time>2022-07-19T15:57:03Z</time>
      </trkpt>
      <trkpt lat="44.52932" lon="6.71773">
        <ele>1807.8</ele>
        <time>2022-07-19T15:57:04Z</time>
      </trkpt>
      <trkpt lat="44.52932" lon="6.71771">
        <ele>1808.2</ele>
        <time>2022-07-19T15:57:05Z</time>
      </trkpt>
      <trkpt lat="44.52932" lon="6.71769">
        <ele>1808.4</ele>
        <time>2022-07-19T15:57:06Z</time>
      </trkpt>
      <trkpt lat="44.52932" lon="6.71767">
        <ele>1808.4</ele>
        <time>2022-07-19T15:57:07Z</time>
      </trkpt>
      <trkpt lat="44.52933" lon="6.71765">
        <ele>1808.4</ele>
        <time>2022-07-19T15:57:08Z</time>
      </trkpt>
      <trkpt lat="44.52933" lon="6.71763">
        <ele>1808.8</ele>
        <time>2022-07-19T15:57:09Z</time>
      </trkpt>
      <trkpt lat="44.52934" lon="6.71761">
        <ele>1808.8</ele>
        <time>2022-07-19T15:57:10Z</time>
      </trkpt>
      <trkpt lat="44.52934" lon="6.71759">
        <ele>1809</ele>
        <time>2022-07-19T15:57:11Z</time>
      </trkpt>
      <trkpt lat="44.52934" lon="6.71757">
        <ele>1809</ele>
        <time>2022-07-19T15:57:12Z</time>
      </trkpt>
      <trkpt lat="44.52934" lon="6.71755">
        <ele>1809.4</ele>
        <time>2022-07-19T15:57:13Z</time>
      </trkpt>
      <trkpt lat="44.52935" lon="6.71753">
        <ele>1809.4</ele>
        <time>2022-07-19T15:57:14Z</time>
      </trkpt>
      <trkpt lat="44.52935" lon="6.71751">
        <ele>1809.6</ele>
        <time>2022-07-19T15:57:15Z</time>
      </trkpt>
      <trkpt lat="44.52935" lon="6.71749">
        <ele>1809.6</ele>
        <time>2022-07-19T15:57:16Z</time>
      </trkpt>
      <trkpt lat="44.52935" lon="6.71747">
        <ele>1810</ele>
        <time>2022-07-19T15:57:17Z</time>
      </trkpt>
      <trkpt lat="44.52935" lon="6.71745">
        <ele>1810</ele>
        <time>2022-07-19T15:57:18Z</time>
      </trkpt>
      <trkpt lat="44.52936" lon="6.71743">
        <ele>1810.4</ele>
        <time>2022-07-19T15:57:19Z</time>
      </trkpt>
      <trkpt lat="44.52936" lon="6.71741">
        <ele>1810.4</ele>
        <time>2022-07-19T15:57:20Z</time>
      </trkpt>
      <trkpt lat="44.52936" lon="6.71739">
        <ele>1810.6</ele>
        <time>2022-07-19T15:57:21Z</time>
      </trkpt>
      <trkpt lat="44.52937" lon="6.71737">
        <ele>1810.8</ele>
        <time>2022-07-19T15:57:22Z</time>
      </trkpt>
      <trkpt lat="44.52937" lon="6.71735">
        <ele>1811</ele>
        <time>2022-07-19T15:57:23Z</time>
      </trkpt>
      <trkpt lat="44.52937" lon="6.71733">
        <ele>1811</ele>
        <time>2022-07-19T15:57:24Z</time>
      </trkpt>
      <trkpt lat="44.52938" lon="6.71731">
        <ele>1811.4</ele>
        <time>2022-07-19T15:57:25Z</time>
      </trkpt>
      <trkpt lat="44.52938" lon="6.71729">
        <ele>1811.6</ele>
        <time>2022-07-19T15:57:26Z</time>
      </trkpt>
      <trkpt lat="44.52938" lon="6.71727">
        <ele>1811.8</ele>
        <time>2022-07-19T15:57:27Z</time>
      </trkpt>
      <trkpt lat="44.52939" lon="6.71725">
        <ele>1811.8</ele>
        <time>2022-07-19T15:57:28Z</time>
      </trkpt>
      <trkpt lat="44.5294" lon="6.71723">
        <ele>1812.2</ele>
        <time>2022-07-19T15:57:29Z</time>
      </trkpt>
      <trkpt lat="44.5294" lon="6.71721">
        <ele>1812.2</ele>
        <time>2022-07-19T15:57:30Z</time>
      </trkpt>
      <trkpt lat="44.52941" lon="6.71719">
        <ele>1812.4</ele>
        <time>2022-07-19T15:57:31Z</time>
      </trkpt>
      <trkpt lat="44.52941" lon="6.71717">
        <ele>1812.4</ele>
        <time>2022-07-19T15:57:32Z</time>
      </trkpt>
      <trkpt lat="44.52942" lon="6.71715">
        <ele>1812.8</ele>
        <time>2022-07-19T15:57:33Z</time>
      </trkpt>
      <trkpt lat="44.52942" lon="6.71713">
        <ele>1812.8</ele>
        <time>2022-07-19T15:57:34Z</time>
      </trkpt>
      <trkpt lat="44.52943" lon="6.71711">
        <ele>1813.2</ele>
        <time>2022-07-19T15:57:35Z</time>
      </trkpt>
      <trkpt lat="44.52943" lon="6.7171">
        <ele>1813.2</ele>
        <time>2022-07-19T15:57:36Z</time>
      </trkpt>
      <trkpt lat="44.52943" lon="6.71708">
        <ele>1813.4</ele>
        <time>2022-07-19T15:57:37Z</time>
      </trkpt>
      <trkpt lat="44.52944" lon="6.71706">
        <ele>1813.4</ele>
        <time>2022-07-19T15:57:38Z</time>
      </trkpt>
      <trkpt lat="44.52944" lon="6.71704">
        <ele>1813.8</ele>
        <time>2022-07-19T15:57:39Z</time>
      </trkpt>
      <trkpt lat="44.52944" lon="6.71702">
        <ele>1813.8</ele>
        <time>2022-07-19T15:57:40Z</time>
      </trkpt>
      <trkpt lat="44.52944" lon="6.717">
        <ele>1814</ele>
        <time>2022-07-19T15:57:41Z</time>
      </trkpt>
      <trkpt lat="44.52944" lon="6.71698">
        <ele>1814</ele>
        <time>2022-07-19T15:57:42Z</time>
      </trkpt>
      <trkpt lat="44.52943" lon="6.71696">
        <ele>1814.4</ele>
        <time>2022-07-19T15:57:43Z</time>
      </trkpt>
      <trkpt lat="44.52943" lon="6.71694">
        <ele>1814.4</ele>
        <time>2022-07-19T15:57:44Z</time>
      </trkpt>
      <trkpt lat="44.52943" lon="6.71692">
        <ele>1814.6</ele>
        <time>2022-07-19T15:57:45Z</time>
      </trkpt>
      <trkpt lat="44.52942" lon="6.7169">
        <ele>1814.6</ele>
        <time>2022-07-19T15:57:46Z</time>
      </trkpt>
      <trkpt lat="44.52942" lon="6.71688">
        <ele>1814.8</ele>
        <time>2022-07-19T15:57:47Z</time>
      </trkpt>
      <trkpt lat="44.52942" lon="6.71686">
        <ele>1814.8</ele>
        <time>2022-07-19T15:57:48Z</time>
      </trkpt>
      <trkpt lat="44.52942" lon="6.71685">
        <ele>1815.2</ele>
        <time>2022-07-19T15:57:49Z</time>
      </trkpt>
      <trkpt lat="44.52941" lon="6.71683">
        <ele>1815.2</ele>
        <time>2022-07-19T15:57:50Z</time>
      </trkpt>
      <trkpt lat="44.52941" lon="6.71681">
        <ele>1815.6</ele>
        <time>2022-07-19T15:57:51Z</time>
      </trkpt>
      <trkpt lat="44.5294" lon="6.71679">
        <ele>1815.6</ele>
        <time>2022-07-19T15:57:52Z</time>
      </trkpt>
      <trkpt lat="44.5294" lon="6.71677">
        <ele>1815.8</ele>
        <time>2022-07-19T15:57:53Z</time>
      </trkpt>
      <trkpt lat="44.52939" lon="6.71675">
        <ele>1815.8</ele>
        <time>2022-07-19T15:57:54Z</time>
      </trkpt>
      <trkpt lat="44.52939" lon="6.71673">
        <ele>1816.2</ele>
        <time>2022-07-19T15:57:55Z</time>
      </trkpt>
      <trkpt lat="44.52939" lon="6.71671">
        <ele>1816.2</ele>
        <time>2022-07-19T15:57:56Z</time>
      </trkpt>
      <trkpt lat="44.52939" lon="6.71669">
        <ele>1816.6</ele>
        <time>2022-07-19T15:57:57Z</time>
      </trkpt>
      <trkpt lat="44.52938" lon="6.71667">
        <ele>1816.6</ele>
        <time>2022-07-19T15:57:58Z</time>
      </trkpt>
      <trkpt lat="44.52938" lon="6.71665">
        <ele>1816.8</ele>
        <time>2022-07-19T15:57:59Z</time>
      </trkpt>
      <trkpt lat="44.52938" lon="6.71663">
        <ele>1816.8</ele>
        <time>2022-07-19T15:58:00Z</time>
      </trkpt>
      <trkpt lat="44.52937" lon="6.71661">
        <ele>1817.2</ele>
        <time>2022-07-19T15:58:01Z</time>
      </trkpt>
      <trkpt lat="44.52937" lon="6.71659">
        <ele>1817.2</ele>
        <time>2022-07-19T15:58:02Z</time>
      </trkpt>
      <trkpt lat="44.52936" lon="6.71657">
        <ele>1817.2</ele>
        <time>2022-07-19T15:58:03Z</time>
      </trkpt>
      <trkpt lat="44.52936" lon="6.71655">
        <ele>1817.4</ele>
        <time>2022-07-19T15:58:04Z</time>
      </trkpt>
      <trkpt lat="44.52936" lon="6.71653">
        <ele>1817.4</ele>
        <time>2022-07-19T15:58:05Z</time>
      </trkpt>
      <trkpt lat="44.52935" lon="6.71651">
        <ele>1817.8</ele>
        <time>2022-07-19T15:58:06Z</time>
      </trkpt>
      <trkpt lat="44.52935" lon="6.71649">
        <ele>1817.8</ele>
        <time>2022-07-19T15:58:07Z</time>
      </trkpt>
      <trkpt lat="44.52935" lon="6.71647">
        <ele>1818</ele>
        <time>2022-07-19T15:58:08Z</time>
      </trkpt>
      <trkpt lat="44.52934" lon="6.71644">
        <ele>1818.2</ele>
        <time>2022-07-19T15:58:09Z</time>
      </trkpt>
      <trkpt lat="44.52934" lon="6.71642">
        <ele>1818.4</ele>
        <time>2022-07-19T15:58:10Z</time>
      </trkpt>
      <trkpt lat="44.52934" lon="6.71639">
        <ele>1818.6</ele>
        <time>2022-07-19T15:58:11Z</time>
      </trkpt>
      <trkpt lat="44.52934" lon="6.71637">
        <ele>1818.6</ele>
        <time>2022-07-19T15:58:12Z</time>
      </trkpt>
      <trkpt lat="44.52934" lon="6.71635">
        <ele>1819</ele>
        <time>2022-07-19T15:58:13Z</time>
      </trkpt>
      <trkpt lat="44.52935" lon="6.71633">
        <ele>1819</ele>
        <time>2022-07-19T15:58:14Z</time>
      </trkpt>
      <trkpt lat="44.52934" lon="6.7163">
        <ele>1819.2</ele>
        <time>2022-07-19T15:58:15Z</time>
      </trkpt>
      <trkpt lat="44.52934" lon="6.71628">
        <ele>1819.2</ele>
        <time>2022-07-19T15:58:16Z</time>
      </trkpt>
      <trkpt lat="44.52934" lon="6.71625">
        <ele>1819.6</ele>
        <time>2022-07-19T15:58:17Z</time>
      </trkpt>
      <trkpt lat="44.52934" lon="6.71623">
        <ele>1819.6</ele>
        <time>2022-07-19T15:58:18Z</time>
      </trkpt>
      <trkpt lat="44.52934" lon="6.71621">
        <ele>1819.8</ele>
        <time>2022-07-19T15:58:19Z</time>
      </trkpt>
      <trkpt lat="44.52934" lon="6.71619">
        <ele>1820.2</ele>
        <time>2022-07-19T15:58:20Z</time>
      </trkpt>
      <trkpt lat="44.52933" lon="6.71617">
        <ele>1820.4</ele>
        <time>2022-07-19T15:58:21Z</time>
      </trkpt>
      <trkpt lat="44.52933" lon="6.71615">
        <ele>1820.4</ele>
        <time>2022-07-19T15:58:22Z</time>
      </trkpt>
      <trkpt lat="44.52934" lon="6.71613">
        <ele>1820.6</ele>
        <time>2022-07-19T15:58:23Z</time>
      </trkpt>
      <trkpt lat="44.52934" lon="6.71611">
        <ele>1820.6</ele>
        <time>2022-07-19T15:58:24Z</time>
      </trkpt>
      <trkpt lat="44.52935" lon="6.71609">
        <ele>1820.8</ele>
        <time>2022-07-19T15:58:25Z</time>
      </trkpt>
      <trkpt lat="44.52935" lon="6.71607">
        <ele>1820.8</ele>
        <time>2022-07-19T15:58:26Z</time>
      </trkpt>
      <trkpt lat="44.52935" lon="6.71605">
        <ele>1821.2</ele>
        <time>2022-07-19T15:58:27Z</time>
      </trkpt>
      <trkpt lat="44.52935" lon="6.71602">
        <ele>1821.4</ele>
        <time>2022-07-19T15:58:28Z</time>
      </trkpt>
      <trkpt lat="44.52935" lon="6.716">
        <ele>1821.4</ele>
        <time>2022-07-19T15:58:29Z</time>
      </trkpt>
      <trkpt lat="44.52935" lon="6.71598">
        <ele>1821.8</ele>
        <time>2022-07-19T15:58:30Z</time>
      </trkpt>
      <trkpt lat="44.52935" lon="6.71596">
        <ele>1821.8</ele>
        <time>2022-07-19T15:58:31Z</time>
      </trkpt>
      <trkpt lat="44.52935" lon="6.71594">
        <ele>1822</ele>
        <time>2022-07-19T15:58:32Z</time>
      </trkpt>
      <trkpt lat="44.52935" lon="6.71592">
        <ele>1822.2</ele>
        <time>2022-07-19T15:58:33Z</time>
      </trkpt>
      <trkpt lat="44.52936" lon="6.7159">
        <ele>1822.2</ele>
        <time>2022-07-19T15:58:34Z</time>
      </trkpt>
      <trkpt lat="44.52936" lon="6.71588">
        <ele>1822.4</ele>
        <time>2022-07-19T15:58:35Z</time>
      </trkpt>
      <trkpt lat="44.52936" lon="6.71586">
        <ele>1822.6</ele>
        <time>2022-07-19T15:58:36Z</time>
      </trkpt>
      <trkpt lat="44.52937" lon="6.71584">
        <ele>1823</ele>
        <time>2022-07-19T15:58:37Z</time>
      </trkpt>
      <trkpt lat="44.52937" lon="6.71582">
        <ele>1823.2</ele>
        <time>2022-07-19T15:58:38Z</time>
      </trkpt>
      <trkpt lat="44.52937" lon="6.71579">
        <ele>1823.2</ele>
        <time>2022-07-19T15:58:39Z</time>
      </trkpt>
      <trkpt lat="44.52937" lon="6.71577">
        <ele>1823.6</ele>
        <time>2022-07-19T15:58:40Z</time>
      </trkpt>
      <trkpt lat="44.52937" lon="6.71575">
        <ele>1823.6</ele>
        <time>2022-07-19T15:58:41Z</time>
      </trkpt>
      <trkpt lat="44.52937" lon="6.71573">
        <ele>1823.8</ele>
        <time>2022-07-19T15:58:42Z</time>
      </trkpt>
      <trkpt lat="44.52937" lon="6.71571">
        <ele>1823.8</ele>
        <time>2022-07-19T15:58:43Z</time>
      </trkpt>
      <trkpt lat="44.52938" lon="6.71569">
        <ele>1824</ele>
        <time>2022-07-19T15:58:44Z</time>
      </trkpt>
      <trkpt lat="44.52938" lon="6.71567">
        <ele>1824</ele>
        <time>2022-07-19T15:58:45Z</time>
      </trkpt>
      <trkpt lat="44.52938" lon="6.71566">
        <ele>1824.4</ele>
        <time>2022-07-19T15:58:46Z</time>
      </trkpt>
      <trkpt lat="44.52938" lon="6.71564">
        <ele>1824.6</ele>
        <time>2022-07-19T15:58:47Z</time>
      </trkpt>
      <trkpt lat="44.52939" lon="6.71562">
        <ele>1824.6</ele>
        <time>2022-07-19T15:58:48Z</time>
      </trkpt>
      <trkpt lat="44.52939" lon="6.7156">
        <ele>1824.8</ele>
        <time>2022-07-19T15:58:49Z</time>
      </trkpt>
      <trkpt lat="44.5294" lon="6.71557">
        <ele>1824.8</ele>
        <time>2022-07-19T15:58:50Z</time>
      </trkpt>
      <trkpt lat="44.5294" lon="6.71555">
        <ele>1825.2</ele>
        <time>2022-07-19T15:58:51Z</time>
      </trkpt>
      <trkpt lat="44.5294" lon="6.71553">
        <ele>1825.2</ele>
        <time>2022-07-19T15:58:52Z</time>
      </trkpt>
      <trkpt lat="44.52941" lon="6.71551">
        <ele>1825.6</ele>
        <time>2022-07-19T15:58:53Z</time>
      </trkpt>
      <trkpt lat="44.52941" lon="6.71549">
        <ele>1825.6</ele>
        <time>2022-07-19T15:58:54Z</time>
      </trkpt>
      <trkpt lat="44.52941" lon="6.71548">
        <ele>1825.6</ele>
        <time>2022-07-19T15:58:55Z</time>
      </trkpt>
      <trkpt lat="44.52941" lon="6.71546">
        <ele>1825.8</ele>
        <time>2022-07-19T15:58:56Z</time>
      </trkpt>
      <trkpt lat="44.52942" lon="6.71544">
        <ele>1825.8</ele>
        <time>2022-07-19T15:58:57Z</time>
      </trkpt>
      <trkpt lat="44.52942" lon="6.71542">
        <ele>1826.2</ele>
        <time>2022-07-19T15:58:58Z</time>
      </trkpt>
      <trkpt lat="44.52942" lon="6.7154">
        <ele>1826.2</ele>
        <time>2022-07-19T15:58:59Z</time>
      </trkpt>
      <trkpt lat="44.52943" lon="6.71538">
        <ele>1826.4</ele>
        <time>2022-07-19T15:59:00Z</time>
      </trkpt>
      <trkpt lat="44.52943" lon="6.71536">
        <ele>1826.4</ele>
        <time>2022-07-19T15:59:01Z</time>
      </trkpt>
      <trkpt lat="44.52943" lon="6.71534">
        <ele>1826.6</ele>
        <time>2022-07-19T15:59:02Z</time>
      </trkpt>
      <trkpt lat="44.52943" lon="6.71533">
        <ele>1826.6</ele>
        <time>2022-07-19T15:59:03Z</time>
      </trkpt>
      <trkpt lat="44.52943" lon="6.71531">
        <ele>1827</ele>
        <time>2022-07-19T15:59:04Z</time>
      </trkpt>
      <trkpt lat="44.52944" lon="6.71529">
        <ele>1827</ele>
        <time>2022-07-19T15:59:05Z</time>
      </trkpt>
      <trkpt lat="44.52944" lon="6.71527">
        <ele>1827.2</ele>
        <time>2022-07-19T15:59:06Z</time>
      </trkpt>
      <trkpt lat="44.52944" lon="6.71525">
        <ele>1827.2</ele>
        <time>2022-07-19T15:59:07Z</time>
      </trkpt>
      <trkpt lat="44.52944" lon="6.71523">
        <ele>1827.2</ele>
        <time>2022-07-19T15:59:08Z</time>
      </trkpt>
      <trkpt lat="44.52945" lon="6.71521">
        <ele>1827.4</ele>
        <time>2022-07-19T15:59:09Z</time>
      </trkpt>
      <trkpt lat="44.52945" lon="6.71519">
        <ele>1827.4</ele>
        <time>2022-07-19T15:59:10Z</time>
      </trkpt>
      <trkpt lat="44.52945" lon="6.71517">
        <ele>1827.6</ele>
        <time>2022-07-19T15:59:11Z</time>
      </trkpt>
      <trkpt lat="44.52945" lon="6.71515">
        <ele>1827.6</ele>
        <time>2022-07-19T15:59:12Z</time>
      </trkpt>
      <trkpt lat="44.52945" lon="6.71514">
        <ele>1828</ele>
        <time>2022-07-19T15:59:13Z</time>
      </trkpt>
      <trkpt lat="44.52945" lon="6.71512">
        <ele>1828</ele>
        <time>2022-07-19T15:59:14Z</time>
      </trkpt>
      <trkpt lat="44.52945" lon="6.7151">
        <ele>1828.4</ele>
        <time>2022-07-19T15:59:15Z</time>
      </trkpt>
      <trkpt lat="44.52945" lon="6.71508">
        <ele>1828.4</ele>
        <time>2022-07-19T15:59:16Z</time>
      </trkpt>
      <trkpt lat="44.52946" lon="6.71506">
        <ele>1828.8</ele>
        <time>2022-07-19T15:59:17Z</time>
      </trkpt>
      <trkpt lat="44.52946" lon="6.71504">
        <ele>1829</ele>
        <time>2022-07-19T15:59:18Z</time>
      </trkpt>
      <trkpt lat="44.52946" lon="6.71502">
        <ele>1829</ele>
        <time>2022-07-19T15:59:19Z</time>
      </trkpt>
      <trkpt lat="44.52946" lon="6.715">
        <ele>1829.2</ele>
        <time>2022-07-19T15:59:20Z</time>
      </trkpt>
      <trkpt lat="44.52946" lon="6.71499">
        <ele>1829.2</ele>
        <time>2022-07-19T15:59:21Z</time>
      </trkpt>
      <trkpt lat="44.52946" lon="6.71497">
        <ele>1829.6</ele>
        <time>2022-07-19T15:59:22Z</time>
      </trkpt>
      <trkpt lat="44.52946" lon="6.71495">
        <ele>1829.6</ele>
        <time>2022-07-19T15:59:23Z</time>
      </trkpt>
      <trkpt lat="44.52947" lon="6.71494">
        <ele>1829.8</ele>
        <time>2022-07-19T15:59:24Z</time>
      </trkpt>
      <trkpt lat="44.52947" lon="6.71492">
        <ele>1829.8</ele>
        <time>2022-07-19T15:59:25Z</time>
      </trkpt>
      <trkpt lat="44.52947" lon="6.7149">
        <ele>1830.2</ele>
        <time>2022-07-19T15:59:26Z</time>
      </trkpt>
      <trkpt lat="44.52947" lon="6.71489">
        <ele>1830.2</ele>
        <time>2022-07-19T15:59:27Z</time>
      </trkpt>
      <trkpt lat="44.52947" lon="6.71487">
        <ele>1830.4</ele>
        <time>2022-07-19T15:59:28Z</time>
      </trkpt>
      <trkpt lat="44.52947" lon="6.71485">
        <ele>1830.4</ele>
        <time>2022-07-19T15:59:29Z</time>
      </trkpt>
      <trkpt lat="44.52947" lon="6.71483">
        <ele>1830.6</ele>
        <time>2022-07-19T15:59:30Z</time>
      </trkpt>
      <trkpt lat="44.52947" lon="6.71481">
        <ele>1830.8</ele>
        <time>2022-07-19T15:59:31Z</time>
      </trkpt>
      <trkpt lat="44.52947" lon="6.71479">
        <ele>1831</ele>
        <time>2022-07-19T15:59:32Z</time>
      </trkpt>
      <trkpt lat="44.52947" lon="6.71477">
        <ele>1831</ele>
        <time>2022-07-19T15:59:33Z</time>
      </trkpt>
      <trkpt lat="44.52947" lon="6.71475">
        <ele>1831.4</ele>
        <time>2022-07-19T15:59:34Z</time>
      </trkpt>
      <trkpt lat="44.52947" lon="6.71473">
        <ele>1831.4</ele>
        <time>2022-07-19T15:59:35Z</time>
      </trkpt>
      <trkpt lat="44.52947" lon="6.71471">
        <ele>1831.6</ele>
        <time>2022-07-19T15:59:36Z</time>
      </trkpt>
      <trkpt lat="44.52947" lon="6.7147">
        <ele>1831.6</ele>
        <time>2022-07-19T15:59:37Z</time>
      </trkpt>
      <trkpt lat="44.52948" lon="6.71468">
        <ele>1831.8</ele>
        <time>2022-07-19T15:59:38Z</time>
      </trkpt>
      <trkpt lat="44.52948" lon="6.71466">
        <ele>1831.8</ele>
        <time>2022-07-19T15:59:39Z</time>
      </trkpt>
      <trkpt lat="44.52948" lon="6.71464">
        <ele>1832.2</ele>
        <time>2022-07-19T15:59:40Z</time>
      </trkpt>
      <trkpt lat="44.52947" lon="6.71462">
        <ele>1832.2</ele>
        <time>2022-07-19T15:59:41Z</time>
      </trkpt>
      <trkpt lat="44.52947" lon="6.7146">
        <ele>1832.6</ele>
        <time>2022-07-19T15:59:42Z</time>
      </trkpt>
      <trkpt lat="44.52947" lon="6.71458">
        <ele>1832.6</ele>
        <time>2022-07-19T15:59:43Z</time>
      </trkpt>
      <trkpt lat="44.52948" lon="6.71456">
        <ele>1832.8</ele>
        <time>2022-07-19T15:59:44Z</time>
      </trkpt>
      <trkpt lat="44.52948" lon="6.71454">
        <ele>1832.8</ele>
        <time>2022-07-19T15:59:45Z</time>
      </trkpt>
      <trkpt lat="44.52949" lon="6.71452">
        <ele>1833</ele>
        <time>2022-07-19T15:59:46Z</time>
      </trkpt>
      <trkpt lat="44.52949" lon="6.7145">
        <ele>1833</ele>
        <time>2022-07-19T15:59:47Z</time>
      </trkpt>
      <trkpt lat="44.52949" lon="6.71448">
        <ele>1833.4</ele>
        <time>2022-07-19T15:59:48Z</time>
      </trkpt>
      <trkpt lat="44.5295" lon="6.71446">
        <ele>1833.4</ele>
        <time>2022-07-19T15:59:49Z</time>
      </trkpt>
      <trkpt lat="44.5295" lon="6.71444">
        <ele>1833.6</ele>
        <time>2022-07-19T15:59:50Z</time>
      </trkpt>
      <trkpt lat="44.5295" lon="6.71442">
        <ele>1833.6</ele>
        <time>2022-07-19T15:59:51Z</time>
      </trkpt>
      <trkpt lat="44.52949" lon="6.7144">
        <ele>1834</ele>
        <time>2022-07-19T15:59:52Z</time>
      </trkpt>
      <trkpt lat="44.52949" lon="6.71438">
        <ele>1834.2</ele>
        <time>2022-07-19T15:59:53Z</time>
      </trkpt>
      <trkpt lat="44.5295" lon="6.71436">
        <ele>1834.2</ele>
        <time>2022-07-19T15:59:54Z</time>
      </trkpt>
      <trkpt lat="44.5295" lon="6.71434">
        <ele>1834.4</ele>
        <time>2022-07-19T15:59:55Z</time>
      </trkpt>
      <trkpt lat="44.52951" lon="6.71432">
        <ele>1834.4</ele>
        <time>2022-07-19T15:59:56Z</time>
      </trkpt>
      <trkpt lat="44.52951" lon="6.7143">
        <ele>1834.8</ele>
        <time>2022-07-19T15:59:57Z</time>
      </trkpt>
      <trkpt lat="44.52951" lon="6.71428">
        <ele>1834.8</ele>
        <time>2022-07-19T15:59:58Z</time>
      </trkpt>
      <trkpt lat="44.52952" lon="6.71426">
        <ele>1835</ele>
        <time>2022-07-19T15:59:59Z</time>
      </trkpt>
      <trkpt lat="44.52952" lon="6.71424">
        <ele>1835</ele>
        <time>2022-07-19T16:00:00Z</time>
      </trkpt>
      <trkpt lat="44.52952" lon="6.71422">
        <ele>1835.2</ele>
        <time>2022-07-19T16:00:01Z</time>
      </trkpt>
      <trkpt lat="44.52953" lon="6.7142">
        <ele>1835.2</ele>
        <time>2022-07-19T16:00:02Z</time>
      </trkpt>
      <trkpt lat="44.52953" lon="6.71418">
        <ele>1835.4</ele>
        <time>2022-07-19T16:00:03Z</time>
      </trkpt>
      <trkpt lat="44.52953" lon="6.71416">
        <ele>1835.4</ele>
        <time>2022-07-19T16:00:04Z</time>
      </trkpt>
      <trkpt lat="44.52953" lon="6.71414">
        <ele>1835.8</ele>
        <time>2022-07-19T16:00:05Z</time>
      </trkpt>
      <trkpt lat="44.52954" lon="6.71412">
        <ele>1835.8</ele>
        <time>2022-07-19T16:00:06Z</time>
      </trkpt>
      <trkpt lat="44.52954" lon="6.7141">
        <ele>1836</ele>
        <time>2022-07-19T16:00:07Z</time>
      </trkpt>
      <trkpt lat="44.52955" lon="6.71408">
        <ele>1836</ele>
        <time>2022-07-19T16:00:08Z</time>
      </trkpt>
      <trkpt lat="44.52955" lon="6.71406">
        <ele>1836.4</ele>
        <time>2022-07-19T16:00:09Z</time>
      </trkpt>
      <trkpt lat="44.52956" lon="6.71404">
        <ele>1836.4</ele>
        <time>2022-07-19T16:00:10Z</time>
      </trkpt>
      <trkpt lat="44.52956" lon="6.71402">
        <ele>1836.6</ele>
        <time>2022-07-19T16:00:11Z</time>
      </trkpt>
      <trkpt lat="44.52956" lon="6.714">
        <ele>1836.6</ele>
        <time>2022-07-19T16:00:12Z</time>
      </trkpt>
      <trkpt lat="44.52957" lon="6.71399">
        <ele>1836.8</ele>
        <time>2022-07-19T16:00:13Z</time>
      </trkpt>
      <trkpt lat="44.52957" lon="6.71397">
        <ele>1836.8</ele>
        <time>2022-07-19T16:00:14Z</time>
      </trkpt>
      <trkpt lat="44.52958" lon="6.71395">
        <ele>1837.2</ele>
        <time>2022-07-19T16:00:15Z</time>
      </trkpt>
      <trkpt lat="44.52959" lon="6.71394">
        <ele>1837.2</ele>
        <time>2022-07-19T16:00:16Z</time>
      </trkpt>
      <trkpt lat="44.52959" lon="6.71392">
        <ele>1837.2</ele>
        <time>2022-07-19T16:00:17Z</time>
      </trkpt>
      <trkpt lat="44.5296" lon="6.7139">
        <ele>1837.4</ele>
        <time>2022-07-19T16:00:18Z</time>
      </trkpt>
      <trkpt lat="44.5296" lon="6.71388">
        <ele>1837.4</ele>
        <time>2022-07-19T16:00:19Z</time>
      </trkpt>
      <trkpt lat="44.5296" lon="6.71386">
        <ele>1837.8</ele>
        <time>2022-07-19T16:00:20Z</time>
      </trkpt>
      <trkpt lat="44.52961" lon="6.71384">
        <ele>1837.8</ele>
        <time>2022-07-19T16:00:21Z</time>
      </trkpt>
      <trkpt lat="44.52961" lon="6.71383">
        <ele>1838</ele>
        <time>2022-07-19T16:00:22Z</time>
      </trkpt>
      <trkpt lat="44.52961" lon="6.71381">
        <ele>1838.2</ele>
        <time>2022-07-19T16:00:23Z</time>
      </trkpt>
      <trkpt lat="44.52962" lon="6.71379">
        <ele>1838.2</ele>
        <time>2022-07-19T16:00:24Z</time>
      </trkpt>
      <trkpt lat="44.52962" lon="6.71378">
        <ele>1838.6</ele>
        <time>2022-07-19T16:00:25Z</time>
      </trkpt>
      <trkpt lat="44.52962" lon="6.71376">
        <ele>1838.6</ele>
        <time>2022-07-19T16:00:26Z</time>
      </trkpt>
      <trkpt lat="44.52963" lon="6.71375">
        <ele>1838.8</ele>
        <time>2022-07-19T16:00:27Z</time>
      </trkpt>
      <trkpt lat="44.52963" lon="6.71373">
        <ele>1838.8</ele>
        <time>2022-07-19T16:00:28Z</time>
      </trkpt>
      <trkpt lat="44.52963" lon="6.71371">
        <ele>1839.2</ele>
        <time>2022-07-19T16:00:29Z</time>
      </trkpt>
      <trkpt lat="44.52964" lon="6.7137">
        <ele>1839.4</ele>
        <time>2022-07-19T16:00:30Z</time>
      </trkpt>
      <trkpt lat="44.52964" lon="6.71368">
        <ele>1839.4</ele>
        <time>2022-07-19T16:00:31Z</time>
      </trkpt>
      <trkpt lat="44.52965" lon="6.71367">
        <ele>1839.8</ele>
        <time>2022-07-19T16:00:32Z</time>
      </trkpt>
      <trkpt lat="44.52965" lon="6.71365">
        <ele>1840</ele>
        <time>2022-07-19T16:00:33Z</time>
      </trkpt>
      <trkpt lat="44.52965" lon="6.71364">
        <ele>1840</ele>
        <time>2022-07-19T16:00:34Z</time>
      </trkpt>
      <trkpt lat="44.52966" lon="6.71362">
        <ele>1840.2</ele>
        <time>2022-07-19T16:00:35Z</time>
      </trkpt>
      <trkpt lat="44.52966" lon="6.7136">
        <ele>1840.2</ele>
        <time>2022-07-19T16:00:36Z</time>
      </trkpt>
      <trkpt lat="44.52966" lon="6.71359">
        <ele>1840.6</ele>
        <time>2022-07-19T16:00:37Z</time>
      </trkpt>
      <trkpt lat="44.52966" lon="6.71357">
        <ele>1840.6</ele>
        <time>2022-07-19T16:00:38Z</time>
      </trkpt>
      <trkpt lat="44.52966" lon="6.71355">
        <ele>1840.8</ele>
        <time>2022-07-19T16:00:39Z</time>
      </trkpt>
      <trkpt lat="44.52966" lon="6.71354">
        <ele>1840.8</ele>
        <time>2022-07-19T16:00:40Z</time>
      </trkpt>
      <trkpt lat="44.52966" lon="6.71352">
        <ele>1841</ele>
        <time>2022-07-19T16:00:41Z</time>
      </trkpt>
      <trkpt lat="44.52967" lon="6.7135">
        <ele>1841</ele>
        <time>2022-07-19T16:00:42Z</time>
      </trkpt>
      <trkpt lat="44.52967" lon="6.71349">
        <ele>1841.4</ele>
        <time>2022-07-19T16:00:43Z</time>
      </trkpt>
      <trkpt lat="44.52967" lon="6.71347">
        <ele>1841.6</ele>
        <time>2022-07-19T16:00:44Z</time>
      </trkpt>
      <trkpt lat="44.52967" lon="6.71345">
        <ele>1841.6</ele>
        <time>2022-07-19T16:00:45Z</time>
      </trkpt>
      <trkpt lat="44.52967" lon="6.71344">
        <ele>1842</ele>
        <time>2022-07-19T16:00:46Z</time>
      </trkpt>
      <trkpt lat="44.52967" lon="6.71342">
        <ele>1842</ele>
        <time>2022-07-19T16:00:47Z</time>
      </trkpt>
      <trkpt lat="44.52966" lon="6.7134">
        <ele>1842.2</ele>
        <time>2022-07-19T16:00:48Z</time>
      </trkpt>
      <trkpt lat="44.52966" lon="6.71338">
        <ele>1842.2</ele>
        <time>2022-07-19T16:00:49Z</time>
      </trkpt>
      <trkpt lat="44.52966" lon="6.71337">
        <ele>1842.2</ele>
        <time>2022-07-19T16:00:50Z</time>
      </trkpt>
      <trkpt lat="44.52966" lon="6.71335">
        <ele>1842.4</ele>
        <time>2022-07-19T16:00:51Z</time>
      </trkpt>
      <trkpt lat="44.52965" lon="6.71333">
        <ele>1842.4</ele>
        <time>2022-07-19T16:00:52Z</time>
      </trkpt>
      <trkpt lat="44.52965" lon="6.71332">
        <ele>1842.6</ele>
        <time>2022-07-19T16:00:53Z</time>
      </trkpt>
      <trkpt lat="44.52964" lon="6.7133">
        <ele>1842.6</ele>
        <time>2022-07-19T16:00:54Z</time>
      </trkpt>
      <trkpt lat="44.52964" lon="6.71329">
        <ele>1842.8</ele>
        <time>2022-07-19T16:00:55Z</time>
      </trkpt>
      <trkpt lat="44.52963" lon="6.71327">
        <ele>1842.8</ele>
        <time>2022-07-19T16:00:56Z</time>
      </trkpt>
      <trkpt lat="44.52963" lon="6.71325">
        <ele>1843.2</ele>
        <time>2022-07-19T16:00:57Z</time>
      </trkpt>
      <trkpt lat="44.52963" lon="6.71324">
        <ele>1843.2</ele>
        <time>2022-07-19T16:00:58Z</time>
      </trkpt>
      <trkpt lat="44.52963" lon="6.71322">
        <ele>1843.4</ele>
        <time>2022-07-19T16:00:59Z</time>
      </trkpt>
      <trkpt lat="44.52962" lon="6.7132">
        <ele>1843.4</ele>
        <time>2022-07-19T16:01:00Z</time>
      </trkpt>
      <trkpt lat="44.52962" lon="6.71319">
        <ele>1843.6</ele>
        <time>2022-07-19T16:01:01Z</time>
      </trkpt>
      <trkpt lat="44.52962" lon="6.71317">
        <ele>1843.6</ele>
        <time>2022-07-19T16:01:02Z</time>
      </trkpt>
      <trkpt lat="44.52961" lon="6.71316">
        <ele>1843.6</ele>
        <time>2022-07-19T16:01:03Z</time>
      </trkpt>
      <trkpt lat="44.52961" lon="6.71314">
        <ele>1844</ele>
        <time>2022-07-19T16:01:04Z</time>
      </trkpt>
      <trkpt lat="44.5296" lon="6.71313">
        <ele>1844</ele>
        <time>2022-07-19T16:01:05Z</time>
      </trkpt>
      <trkpt lat="44.5296" lon="6.71311">
        <ele>1844.2</ele>
        <time>2022-07-19T16:01:06Z</time>
      </trkpt>
      <trkpt lat="44.52959" lon="6.7131">
        <ele>1844.2</ele>
        <time>2022-07-19T16:01:07Z</time>
      </trkpt>
      <trkpt lat="44.52959" lon="6.71308">
        <ele>1844.4</ele>
        <time>2022-07-19T16:01:08Z</time>
      </trkpt>
      <trkpt lat="44.52959" lon="6.71306">
        <ele>1844.4</ele>
        <time>2022-07-19T16:01:09Z</time>
      </trkpt>
      <trkpt lat="44.52958" lon="6.71305">
        <ele>1844.4</ele>
        <time>2022-07-19T16:01:10Z</time>
      </trkpt>
      <trkpt lat="44.52958" lon="6.71303">
        <ele>1844.8</ele>
        <time>2022-07-19T16:01:11Z</time>
      </trkpt>
      <trkpt lat="44.52958" lon="6.71301">
        <ele>1844.8</ele>
        <time>2022-07-19T16:01:12Z</time>
      </trkpt>
      <trkpt lat="44.52958" lon="6.713">
        <ele>1845</ele>
        <time>2022-07-19T16:01:13Z</time>
      </trkpt>
      <trkpt lat="44.52957" lon="6.71298">
        <ele>1845</ele>
        <time>2022-07-19T16:01:14Z</time>
      </trkpt>
      <trkpt lat="44.52957" lon="6.71296">
        <ele>1845.2</ele>
        <time>2022-07-19T16:01:15Z</time>
      </trkpt>
      <trkpt lat="44.52957" lon="6.71295">
        <ele>1845.2</ele>
        <time>2022-07-19T16:01:16Z</time>
      </trkpt>
      <trkpt lat="44.52957" lon="6.71293">
        <ele>1845.6</ele>
        <time>2022-07-19T16:01:17Z</time>
      </trkpt>
      <trkpt lat="44.52957" lon="6.71291">
        <ele>1845.6</ele>
        <time>2022-07-19T16:01:18Z</time>
      </trkpt>
      <trkpt lat="44.52957" lon="6.71289">
        <ele>1845.8</ele>
        <time>2022-07-19T16:01:19Z</time>
      </trkpt>
      <trkpt lat="44.52956" lon="6.71288">
        <ele>1845.8</ele>
        <time>2022-07-19T16:01:20Z</time>
      </trkpt>
      <trkpt lat="44.52956" lon="6.71286">
        <ele>1846.2</ele>
        <time>2022-07-19T16:01:21Z</time>
      </trkpt>
      <trkpt lat="44.52956" lon="6.71284">
        <ele>1846.2</ele>
        <time>2022-07-19T16:01:22Z</time>
      </trkpt>
      <trkpt lat="44.52955" lon="6.71283">
        <ele>1846.4</ele>
        <time>2022-07-19T16:01:23Z</time>
      </trkpt>
      <trkpt lat="44.52955" lon="6.71281">
        <ele>1846.4</ele>
        <time>2022-07-19T16:01:24Z</time>
      </trkpt>
      <trkpt lat="44.52955" lon="6.71279">
        <ele>1846.8</ele>
        <time>2022-07-19T16:01:25Z</time>
      </trkpt>
      <trkpt lat="44.52955" lon="6.71277">
        <ele>1846.8</ele>
        <time>2022-07-19T16:01:26Z</time>
      </trkpt>
      <trkpt lat="44.52955" lon="6.71275">
        <ele>1846.8</ele>
        <time>2022-07-19T16:01:27Z</time>
      </trkpt>
      <trkpt lat="44.52955" lon="6.71274">
        <ele>1847.2</ele>
        <time>2022-07-19T16:01:28Z</time>
      </trkpt>
      <trkpt lat="44.52955" lon="6.71272">
        <ele>1847.2</ele>
        <time>2022-07-19T16:01:29Z</time>
      </trkpt>
      <trkpt lat="44.52955" lon="6.7127">
        <ele>1847.4</ele>
        <time>2022-07-19T16:01:30Z</time>
      </trkpt>
      <trkpt lat="44.52955" lon="6.71269">
        <ele>1847.4</ele>
        <time>2022-07-19T16:01:31Z</time>
      </trkpt>
      <trkpt lat="44.52955" lon="6.71267">
        <ele>1847.6</ele>
        <time>2022-07-19T16:01:32Z</time>
      </trkpt>
      <trkpt lat="44.52955" lon="6.71265">
        <ele>1847.6</ele>
        <time>2022-07-19T16:01:33Z</time>
      </trkpt>
      <trkpt lat="44.52955" lon="6.71263">
        <ele>1847.8</ele>
        <time>2022-07-19T16:01:34Z</time>
      </trkpt>
      <trkpt lat="44.52955" lon="6.71262">
        <ele>1847.8</ele>
        <time>2022-07-19T16:01:35Z</time>
      </trkpt>
      <trkpt lat="44.52955" lon="6.7126">
        <ele>1848.2</ele>
        <time>2022-07-19T16:01:36Z</time>
      </trkpt>
      <trkpt lat="44.52955" lon="6.71258">
        <ele>1848.2</ele>
        <time>2022-07-19T16:01:37Z</time>
      </trkpt>
      <trkpt lat="44.52955" lon="6.71257">
        <ele>1848.4</ele>
        <time>2022-07-19T16:01:38Z</time>
      </trkpt>
      <trkpt lat="44.52955" lon="6.71255">
        <ele>1848.4</ele>
        <time>2022-07-19T16:01:39Z</time>
      </trkpt>
      <trkpt lat="44.52955" lon="6.71253">
        <ele>1848.6</ele>
        <time>2022-07-19T16:01:40Z</time>
      </trkpt>
      <trkpt lat="44.52955" lon="6.71251">
        <ele>1848.6</ele>
        <time>2022-07-19T16:01:41Z</time>
      </trkpt>
      <trkpt lat="44.52955" lon="6.71249">
        <ele>1848.8</ele>
        <time>2022-07-19T16:01:42Z</time>
      </trkpt>
      <trkpt lat="44.52955" lon="6.71248">
        <ele>1848.8</ele>
        <time>2022-07-19T16:01:43Z</time>
      </trkpt>
      <trkpt lat="44.52955" lon="6.71246">
        <ele>1848.8</ele>
        <time>2022-07-19T16:01:44Z</time>
      </trkpt>
      <trkpt lat="44.52955" lon="6.71244">
        <ele>1849.2</ele>
        <time>2022-07-19T16:01:45Z</time>
      </trkpt>
      <trkpt lat="44.52954" lon="6.71242">
        <ele>1849.2</ele>
        <time>2022-07-19T16:01:46Z</time>
      </trkpt>
      <trkpt lat="44.52954" lon="6.7124">
        <ele>1849.4</ele>
        <time>2022-07-19T16:01:47Z</time>
      </trkpt>
      <trkpt lat="44.52954" lon="6.71238">
        <ele>1849.4</ele>
        <time>2022-07-19T16:01:48Z</time>
      </trkpt>
      <trkpt lat="44.52955" lon="6.71236">
        <ele>1849.8</ele>
        <time>2022-07-19T16:01:49Z</time>
      </trkpt>
      <trkpt lat="44.52955" lon="6.71234">
        <ele>1849.8</ele>
        <time>2022-07-19T16:01:50Z</time>
      </trkpt>
      <trkpt lat="44.52955" lon="6.71232">
        <ele>1850</ele>
        <time>2022-07-19T16:01:51Z</time>
      </trkpt>
      <trkpt lat="44.52955" lon="6.71231">
        <ele>1850</ele>
        <time>2022-07-19T16:01:52Z</time>
      </trkpt>
      <trkpt lat="44.52955" lon="6.71229">
        <ele>1850</ele>
        <time>2022-07-19T16:01:53Z</time>
      </trkpt>
      <trkpt lat="44.52955" lon="6.71227">
        <ele>1850.4</ele>
        <time>2022-07-19T16:01:54Z</time>
      </trkpt>
      <trkpt lat="44.52955" lon="6.71226">
        <ele>1850.4</ele>
        <time>2022-07-19T16:01:55Z</time>
      </trkpt>
      <trkpt lat="44.52956" lon="6.71224">
        <ele>1850.6</ele>
        <time>2022-07-19T16:01:56Z</time>
      </trkpt>
      <trkpt lat="44.52956" lon="6.71222">
        <ele>1850.6</ele>
        <time>2022-07-19T16:01:57Z</time>
      </trkpt>
      <trkpt lat="44.52956" lon="6.7122">
        <ele>1850.8</ele>
        <time>2022-07-19T16:01:58Z</time>
      </trkpt>
      <trkpt lat="44.52956" lon="6.71219">
        <ele>1850.8</ele>
        <time>2022-07-19T16:01:59Z</time>
      </trkpt>
      <trkpt lat="44.52957" lon="6.71217">
        <ele>1851</ele>
        <time>2022-07-19T16:02:00Z</time>
      </trkpt>
      <trkpt lat="44.52957" lon="6.71215">
        <ele>1851</ele>
        <time>2022-07-19T16:02:01Z</time>
      </trkpt>
      <trkpt lat="44.52957" lon="6.71213">
        <ele>1851.4</ele>
        <time>2022-07-19T16:02:02Z</time>
      </trkpt>
      <trkpt lat="44.52957" lon="6.71212">
        <ele>1851.4</ele>
        <time>2022-07-19T16:02:03Z</time>
      </trkpt>
      <trkpt lat="44.52958" lon="6.7121">
        <ele>1851.4</ele>
        <time>2022-07-19T16:02:04Z</time>
      </trkpt>
      <trkpt lat="44.52958" lon="6.71208">
        <ele>1851.6</ele>
        <time>2022-07-19T16:02:05Z</time>
      </trkpt>
      <trkpt lat="44.52959" lon="6.71206">
        <ele>1851.6</ele>
        <time>2022-07-19T16:02:06Z</time>
      </trkpt>
      <trkpt lat="44.52959" lon="6.71204">
        <ele>1851.6</ele>
        <time>2022-07-19T16:02:07Z</time>
      </trkpt>
      <trkpt lat="44.52959" lon="6.71202">
        <ele>1852</ele>
        <time>2022-07-19T16:02:08Z</time>
      </trkpt>
      <trkpt lat="44.5296" lon="6.712">
        <ele>1852</ele>
        <time>2022-07-19T16:02:09Z</time>
      </trkpt>
      <trkpt lat="44.5296" lon="6.71198">
        <ele>1852.4</ele>
        <time>2022-07-19T16:02:10Z</time>
      </trkpt>
      <trkpt lat="44.52961" lon="6.71196">
        <ele>1852.4</ele>
        <time>2022-07-19T16:02:11Z</time>
      </trkpt>
      <trkpt lat="44.52961" lon="6.71194">
        <ele>1852.6</ele>
        <time>2022-07-19T16:02:12Z</time>
      </trkpt>
      <trkpt lat="44.52962" lon="6.71192">
        <ele>1852.6</ele>
        <time>2022-07-19T16:02:13Z</time>
      </trkpt>
      <trkpt lat="44.52962" lon="6.7119">
        <ele>1852.8</ele>
        <time>2022-07-19T16:02:14Z</time>
      </trkpt>
      <trkpt lat="44.52963" lon="6.71188">
        <ele>1852.8</ele>
        <time>2022-07-19T16:02:15Z</time>
      </trkpt>
      <trkpt lat="44.52964" lon="6.71186">
        <ele>1853</ele>
        <time>2022-07-19T16:02:16Z</time>
      </trkpt>
      <trkpt lat="44.52964" lon="6.71183">
        <ele>1853</ele>
        <time>2022-07-19T16:02:17Z</time>
      </trkpt>
      <trkpt lat="44.52965" lon="6.71181">
        <ele>1853</ele>
        <time>2022-07-19T16:02:18Z</time>
      </trkpt>
      <trkpt lat="44.52965" lon="6.71179">
        <ele>1853.4</ele>
        <time>2022-07-19T16:02:19Z</time>
      </trkpt>
      <trkpt lat="44.52966" lon="6.71177">
        <ele>1853.4</ele>
        <time>2022-07-19T16:02:20Z</time>
      </trkpt>
      <trkpt lat="44.52966" lon="6.71175">
        <ele>1853.8</ele>
        <time>2022-07-19T16:02:21Z</time>
      </trkpt>
      <trkpt lat="44.52967" lon="6.71173">
        <ele>1853.8</ele>
        <time>2022-07-19T16:02:22Z</time>
      </trkpt>
      <trkpt lat="44.52967" lon="6.71171">
        <ele>1854</ele>
        <time>2022-07-19T16:02:23Z</time>
      </trkpt>
      <trkpt lat="44.52968" lon="6.71169">
        <ele>1854</ele>
        <time>2022-07-19T16:02:24Z</time>
      </trkpt>
      <trkpt lat="44.52968" lon="6.71167">
        <ele>1854.4</ele>
        <time>2022-07-19T16:02:25Z</time>
      </trkpt>
      <trkpt lat="44.52969" lon="6.71165">
        <ele>1854.4</ele>
        <time>2022-07-19T16:02:26Z</time>
      </trkpt>
      <trkpt lat="44.52969" lon="6.71163">
        <ele>1854.6</ele>
        <time>2022-07-19T16:02:27Z</time>
      </trkpt>
      <trkpt lat="44.5297" lon="6.71161">
        <ele>1854.8</ele>
        <time>2022-07-19T16:02:28Z</time>
      </trkpt>
      <trkpt lat="44.52971" lon="6.71159">
        <ele>1854.8</ele>
        <time>2022-07-19T16:02:29Z</time>
      </trkpt>
      <trkpt lat="44.52973" lon="6.71157">
        <ele>1855</ele>
        <time>2022-07-19T16:02:30Z</time>
      </trkpt>
      <trkpt lat="44.52973" lon="6.71155">
        <ele>1855</ele>
        <time>2022-07-19T16:02:31Z</time>
      </trkpt>
      <trkpt lat="44.52974" lon="6.71153">
        <ele>1855.4</ele>
        <time>2022-07-19T16:02:32Z</time>
      </trkpt>
      <trkpt lat="44.52975" lon="6.71151">
        <ele>1855.4</ele>
        <time>2022-07-19T16:02:33Z</time>
      </trkpt>
      <trkpt lat="44.52976" lon="6.71149">
        <ele>1855.8</ele>
        <time>2022-07-19T16:02:34Z</time>
      </trkpt>
      <trkpt lat="44.52976" lon="6.71147">
        <ele>1856.2</ele>
        <time>2022-07-19T16:02:35Z</time>
      </trkpt>
      <trkpt lat="44.52977" lon="6.71146">
        <ele>1856.2</ele>
        <time>2022-07-19T16:02:36Z</time>
      </trkpt>
      <trkpt lat="44.52978" lon="6.71144">
        <ele>1856.6</ele>
        <time>2022-07-19T16:02:37Z</time>
      </trkpt>
      <trkpt lat="44.52979" lon="6.71142">
        <ele>1856.6</ele>
        <time>2022-07-19T16:02:38Z</time>
      </trkpt>
      <trkpt lat="44.5298" lon="6.7114">
        <ele>1856.8</ele>
        <time>2022-07-19T16:02:39Z</time>
      </trkpt>
      <trkpt lat="44.5298" lon="6.71138">
        <ele>1856.8</ele>
        <time>2022-07-19T16:02:40Z</time>
      </trkpt>
      <trkpt lat="44.52981" lon="6.71137">
        <ele>1856.8</ele>
        <time>2022-07-19T16:02:41Z</time>
      </trkpt>
      <trkpt lat="44.52982" lon="6.71135">
        <ele>1857.4</ele>
        <time>2022-07-19T16:02:42Z</time>
      </trkpt>
      <trkpt lat="44.52983" lon="6.71133">
        <ele>1857.6</ele>
        <time>2022-07-19T16:02:43Z</time>
      </trkpt>
      <trkpt lat="44.52984" lon="6.71131">
        <ele>1857.6</ele>
        <time>2022-07-19T16:02:44Z</time>
      </trkpt>
      <trkpt lat="44.52985" lon="6.7113">
        <ele>1857.8</ele>
        <time>2022-07-19T16:02:45Z</time>
      </trkpt>
      <trkpt lat="44.52986" lon="6.71128">
        <ele>1857.8</ele>
        <time>2022-07-19T16:02:46Z</time>
      </trkpt>
      <trkpt lat="44.52987" lon="6.71127">
        <ele>1858</ele>
        <time>2022-07-19T16:02:47Z</time>
      </trkpt>
      <trkpt lat="44.52989" lon="6.71125">
        <ele>1858</ele>
        <time>2022-07-19T16:02:48Z</time>
      </trkpt>
      <trkpt lat="44.5299" lon="6.71124">
        <ele>1858.4</ele>
        <time>2022-07-19T16:02:49Z</time>
      </trkpt>
      <trkpt lat="44.52991" lon="6.71122">
        <ele>1858.8</ele>
        <time>2022-07-19T16:02:50Z</time>
      </trkpt>
      <trkpt lat="44.52992" lon="6.7112">
        <ele>1858.8</ele>
        <time>2022-07-19T16:02:51Z</time>
      </trkpt>
      <trkpt lat="44.52993" lon="6.71118">
        <ele>1859</ele>
        <time>2022-07-19T16:02:52Z</time>
      </trkpt>
      <trkpt lat="44.52994" lon="6.71117">
        <ele>1859</ele>
        <time>2022-07-19T16:02:53Z</time>
      </trkpt>
      <trkpt lat="44.52995" lon="6.71115">
        <ele>1859.4</ele>
        <time>2022-07-19T16:02:54Z</time>
      </trkpt>
      <trkpt lat="44.52996" lon="6.71113">
        <ele>1859.4</ele>
        <time>2022-07-19T16:02:55Z</time>
      </trkpt>
      <trkpt lat="44.52998" lon="6.71112">
        <ele>1859.6</ele>
        <time>2022-07-19T16:02:56Z</time>
      </trkpt>
      <trkpt lat="44.52999" lon="6.7111">
        <ele>1859.6</ele>
        <time>2022-07-19T16:02:57Z</time>
      </trkpt>
      <trkpt lat="44.53" lon="6.71108">
        <ele>1860</ele>
        <time>2022-07-19T16:02:58Z</time>
      </trkpt>
      <trkpt lat="44.53001" lon="6.71106">
        <ele>1860</ele>
        <time>2022-07-19T16:02:59Z</time>
      </trkpt>
      <trkpt lat="44.53002" lon="6.71105">
        <ele>1860.4</ele>
        <time>2022-07-19T16:03:00Z</time>
      </trkpt>
      <trkpt lat="44.53003" lon="6.71103">
        <ele>1860.4</ele>
        <time>2022-07-19T16:03:01Z</time>
      </trkpt>
      <trkpt lat="44.53004" lon="6.71101">
        <ele>1860.6</ele>
        <time>2022-07-19T16:03:02Z</time>
      </trkpt>
      <trkpt lat="44.53005" lon="6.711">
        <ele>1860.6</ele>
        <time>2022-07-19T16:03:03Z</time>
      </trkpt>
      <trkpt lat="44.53006" lon="6.71098">
        <ele>1861</ele>
        <time>2022-07-19T16:03:04Z</time>
      </trkpt>
      <trkpt lat="44.53007" lon="6.71096">
        <ele>1861</ele>
        <time>2022-07-19T16:03:05Z</time>
      </trkpt>
      <trkpt lat="44.53008" lon="6.71095">
        <ele>1861.2</ele>
        <time>2022-07-19T16:03:06Z</time>
      </trkpt>
      <trkpt lat="44.53009" lon="6.71093">
        <ele>1861.2</ele>
        <time>2022-07-19T16:03:07Z</time>
      </trkpt>
      <trkpt lat="44.5301" lon="6.71092">
        <ele>1861.4</ele>
        <time>2022-07-19T16:03:08Z</time>
      </trkpt>
      <trkpt lat="44.53011" lon="6.7109">
        <ele>1861.4</ele>
        <time>2022-07-19T16:03:09Z</time>
      </trkpt>
      <trkpt lat="44.53011" lon="6.71089">
        <ele>1861.6</ele>
        <time>2022-07-19T16:03:10Z</time>
      </trkpt>
      <trkpt lat="44.53012" lon="6.71087">
        <ele>1861.6</ele>
        <time>2022-07-19T16:03:11Z</time>
      </trkpt>
      <trkpt lat="44.53013" lon="6.71086">
        <ele>1862</ele>
        <time>2022-07-19T16:03:12Z</time>
      </trkpt>
      <trkpt lat="44.53014" lon="6.71084">
        <ele>1862</ele>
        <time>2022-07-19T16:03:13Z</time>
      </trkpt>
      <trkpt lat="44.53015" lon="6.71083">
        <ele>1862.4</ele>
        <time>2022-07-19T16:03:14Z</time>
      </trkpt>
      <trkpt lat="44.53016" lon="6.71082">
        <ele>1862.4</ele>
        <time>2022-07-19T16:03:15Z</time>
      </trkpt>
      <trkpt lat="44.53017" lon="6.71081">
        <ele>1862.6</ele>
        <time>2022-07-19T16:03:16Z</time>
      </trkpt>
      <trkpt lat="44.53019" lon="6.7108">
        <ele>1862.6</ele>
        <time>2022-07-19T16:03:17Z</time>
      </trkpt>
      <trkpt lat="44.53019" lon="6.71078">
        <ele>1862.8</ele>
        <time>2022-07-19T16:03:18Z</time>
      </trkpt>
      <trkpt lat="44.5302" lon="6.71077">
        <ele>1862.8</ele>
        <time>2022-07-19T16:03:19Z</time>
      </trkpt>
      <trkpt lat="44.53021" lon="6.71075">
        <ele>1863</ele>
        <time>2022-07-19T16:03:20Z</time>
      </trkpt>
      <trkpt lat="44.53022" lon="6.71074">
        <ele>1863.2</ele>
        <time>2022-07-19T16:03:21Z</time>
      </trkpt>
      <trkpt lat="44.53023" lon="6.71072">
        <ele>1863.2</ele>
        <time>2022-07-19T16:03:22Z</time>
      </trkpt>
      <trkpt lat="44.53024" lon="6.71071">
        <ele>1863.4</ele>
        <time>2022-07-19T16:03:23Z</time>
      </trkpt>
      <trkpt lat="44.53024" lon="6.71069">
        <ele>1863.4</ele>
        <time>2022-07-19T16:03:24Z</time>
      </trkpt>
      <trkpt lat="44.53025" lon="6.71067">
        <ele>1863.8</ele>
        <time>2022-07-19T16:03:25Z</time>
      </trkpt>
      <trkpt lat="44.53027" lon="6.71066">
        <ele>1863.8</ele>
        <time>2022-07-19T16:03:26Z</time>
      </trkpt>
      <trkpt lat="44.53028" lon="6.71064">
        <ele>1864</ele>
        <time>2022-07-19T16:03:27Z</time>
      </trkpt>
      <trkpt lat="44.53029" lon="6.71063">
        <ele>1864.4</ele>
        <time>2022-07-19T16:03:28Z</time>
      </trkpt>
      <trkpt lat="44.5303" lon="6.71061">
        <ele>1864.6</ele>
        <time>2022-07-19T16:03:29Z</time>
      </trkpt>
      <trkpt lat="44.5303" lon="6.71059">
        <ele>1864.8</ele>
        <time>2022-07-19T16:03:30Z</time>
      </trkpt>
      <trkpt lat="44.53031" lon="6.71057">
        <ele>1864.8</ele>
        <time>2022-07-19T16:03:31Z</time>
      </trkpt>
      <trkpt lat="44.53032" lon="6.71055">
        <ele>1864.8</ele>
        <time>2022-07-19T16:03:32Z</time>
      </trkpt>
      <trkpt lat="44.53033" lon="6.71054">
        <ele>1865</ele>
        <time>2022-07-19T16:03:33Z</time>
      </trkpt>
      <trkpt lat="44.53034" lon="6.71052">
        <ele>1865</ele>
        <time>2022-07-19T16:03:34Z</time>
      </trkpt>
      <trkpt lat="44.53035" lon="6.7105">
        <ele>1865.4</ele>
        <time>2022-07-19T16:03:35Z</time>
      </trkpt>
      <trkpt lat="44.53036" lon="6.71049">
        <ele>1865.4</ele>
        <time>2022-07-19T16:03:36Z</time>
      </trkpt>
      <trkpt lat="44.53037" lon="6.71048">
        <ele>1865.6</ele>
        <time>2022-07-19T16:03:37Z</time>
      </trkpt>
      <trkpt lat="44.53039" lon="6.71046">
        <ele>1865.6</ele>
        <time>2022-07-19T16:03:38Z</time>
      </trkpt>
      <trkpt lat="44.5304" lon="6.71045">
        <ele>1865.6</ele>
        <time>2022-07-19T16:03:39Z</time>
      </trkpt>
      <trkpt lat="44.53041" lon="6.71043">
        <ele>1865.8</ele>
        <time>2022-07-19T16:03:40Z</time>
      </trkpt>
      <trkpt lat="44.53042" lon="6.71041">
        <ele>1865.8</ele>
        <time>2022-07-19T16:03:41Z</time>
      </trkpt>
      <trkpt lat="44.53043" lon="6.71039">
        <ele>1865.8</ele>
        <time>2022-07-19T16:03:42Z</time>
      </trkpt>
      <trkpt lat="44.53043" lon="6.71037">
        <ele>1866.2</ele>
        <time>2022-07-19T16:03:43Z</time>
      </trkpt>
      <trkpt lat="44.53044" lon="6.71035">
        <ele>1866.2</ele>
        <time>2022-07-19T16:03:44Z</time>
      </trkpt>
      <trkpt lat="44.53045" lon="6.71033">
        <ele>1866.4</ele>
        <time>2022-07-19T16:03:45Z</time>
      </trkpt>
      <trkpt lat="44.53046" lon="6.71031">
        <ele>1866.6</ele>
        <time>2022-07-19T16:03:46Z</time>
      </trkpt>
      <trkpt lat="44.53047" lon="6.71029">
        <ele>1866.6</ele>
        <time>2022-07-19T16:03:47Z</time>
      </trkpt>
      <trkpt lat="44.53047" lon="6.71027">
        <ele>1867</ele>
        <time>2022-07-19T16:03:48Z</time>
      </trkpt>
      <trkpt lat="44.53048" lon="6.71025">
        <ele>1867</ele>
        <time>2022-07-19T16:03:49Z</time>
      </trkpt>
      <trkpt lat="44.53049" lon="6.71023">
        <ele>1867.2</ele>
        <time>2022-07-19T16:03:50Z</time>
      </trkpt>
      <trkpt lat="44.5305" lon="6.71021">
        <ele>1867.4</ele>
        <time>2022-07-19T16:03:51Z</time>
      </trkpt>
      <trkpt lat="44.5305" lon="6.71019">
        <ele>1867.4</ele>
        <time>2022-07-19T16:03:52Z</time>
      </trkpt>
      <trkpt lat="44.53051" lon="6.71016">
        <ele>1867.4</ele>
        <time>2022-07-19T16:03:53Z</time>
      </trkpt>
      <trkpt lat="44.53052" lon="6.71014">
        <ele>1867.8</ele>
        <time>2022-07-19T16:03:54Z</time>
      </trkpt>
      <trkpt lat="44.53052" lon="6.71012">
        <ele>1867.8</ele>
        <time>2022-07-19T16:03:55Z</time>
      </trkpt>
      <trkpt lat="44.53053" lon="6.7101">
        <ele>1867.8</ele>
        <time>2022-07-19T16:03:56Z</time>
      </trkpt>
      <trkpt lat="44.53054" lon="6.71008">
        <ele>1868</ele>
        <time>2022-07-19T16:03:57Z</time>
      </trkpt>
      <trkpt lat="44.53055" lon="6.71005">
        <ele>1868</ele>
        <time>2022-07-19T16:03:58Z</time>
      </trkpt>
      <trkpt lat="44.53055" lon="6.71003">
        <ele>1868.2</ele>
        <time>2022-07-19T16:03:59Z</time>
      </trkpt>
      <trkpt lat="44.53056" lon="6.71001">
        <ele>1868.2</ele>
        <time>2022-07-19T16:04:00Z</time>
      </trkpt>
      <trkpt lat="44.53057" lon="6.70999">
        <ele>1868.6</ele>
        <time>2022-07-19T16:04:01Z</time>
      </trkpt>
      <trkpt lat="44.53058" lon="6.70997">
        <ele>1868.6</ele>
        <time>2022-07-19T16:04:02Z</time>
      </trkpt>
      <trkpt lat="44.53059" lon="6.70996">
        <ele>1868.8</ele>
        <time>2022-07-19T16:04:03Z</time>
      </trkpt>
      <trkpt lat="44.5306" lon="6.70994">
        <ele>1869</ele>
        <time>2022-07-19T16:04:04Z</time>
      </trkpt>
      <trkpt lat="44.53061" lon="6.70992">
        <ele>1869</ele>
        <time>2022-07-19T16:04:05Z</time>
      </trkpt>
      <trkpt lat="44.53062" lon="6.7099">
        <ele>1869.4</ele>
        <time>2022-07-19T16:04:06Z</time>
      </trkpt>
      <trkpt lat="44.53063" lon="6.70988">
        <ele>1869.4</ele>
        <time>2022-07-19T16:04:07Z</time>
      </trkpt>
      <trkpt lat="44.53065" lon="6.70988">
        <ele>1869.6</ele>
        <time>2022-07-19T16:04:08Z</time>
      </trkpt>
      <trkpt lat="44.53067" lon="6.70988">
        <ele>1869.6</ele>
        <time>2022-07-19T16:04:09Z</time>
      </trkpt>
      <trkpt lat="44.53069" lon="6.70988">
        <ele>1869.8</ele>
        <time>2022-07-19T16:04:10Z</time>
      </trkpt>
      <trkpt lat="44.53071" lon="6.70989">
        <ele>1869.8</ele>
        <time>2022-07-19T16:04:11Z</time>
      </trkpt>
      <trkpt lat="44.53073" lon="6.7099">
        <ele>1870.2</ele>
        <time>2022-07-19T16:04:12Z</time>
      </trkpt>
      <trkpt lat="44.53075" lon="6.70991">
        <ele>1870.2</ele>
        <time>2022-07-19T16:04:13Z</time>
      </trkpt>
      <trkpt lat="44.53076" lon="6.70993">
        <ele>1870.2</ele>
        <time>2022-07-19T16:04:14Z</time>
      </trkpt>
      <trkpt lat="44.53078" lon="6.70995">
        <ele>1870.4</ele>
        <time>2022-07-19T16:04:15Z</time>
      </trkpt>
      <trkpt lat="44.53079" lon="6.70997">
        <ele>1870.4</ele>
        <time>2022-07-19T16:04:16Z</time>
      </trkpt>
      <trkpt lat="44.5308" lon="6.71">
        <ele>1870.8</ele>
        <time>2022-07-19T16:04:17Z</time>
      </trkpt>
      <trkpt lat="44.53081" lon="6.71002">
        <ele>1870.8</ele>
        <time>2022-07-19T16:04:18Z</time>
      </trkpt>
      <trkpt lat="44.53081" lon="6.71005">
        <ele>1871.2</ele>
        <time>2022-07-19T16:04:19Z</time>
      </trkpt>
      <trkpt lat="44.53081" lon="6.71008">
        <ele>1871.2</ele>
        <time>2022-07-19T16:04:20Z</time>
      </trkpt>
      <trkpt lat="44.53081" lon="6.7101">
        <ele>1871.2</ele>
        <time>2022-07-19T16:04:21Z</time>
      </trkpt>
      <trkpt lat="44.5308" lon="6.71012">
        <ele>1871.4</ele>
        <time>2022-07-19T16:04:22Z</time>
      </trkpt>
      <trkpt lat="44.5308" lon="6.71015">
        <ele>1871.4</ele>
        <time>2022-07-19T16:04:23Z</time>
      </trkpt>
      <trkpt lat="44.53079" lon="6.71017">
        <ele>1871.8</ele>
        <time>2022-07-19T16:04:24Z</time>
      </trkpt>
      <trkpt lat="44.53078" lon="6.7102">
        <ele>1871.8</ele>
        <time>2022-07-19T16:04:25Z</time>
      </trkpt>
      <trkpt lat="44.53078" lon="6.71023">
        <ele>1872</ele>
        <time>2022-07-19T16:04:26Z</time>
      </trkpt>
      <trkpt lat="44.53076" lon="6.71025">
        <ele>1872</ele>
        <time>2022-07-19T16:04:27Z</time>
      </trkpt>
      <trkpt lat="44.53076" lon="6.71027">
        <ele>1872</ele>
        <time>2022-07-19T16:04:28Z</time>
      </trkpt>
      <trkpt lat="44.53075" lon="6.71029">
        <ele>1872.2</ele>
        <time>2022-07-19T16:04:29Z</time>
      </trkpt>
      <trkpt lat="44.53073" lon="6.71032">
        <ele>1872.2</ele>
        <time>2022-07-19T16:04:30Z</time>
      </trkpt>
      <trkpt lat="44.53072" lon="6.71034">
        <ele>1872.4</ele>
        <time>2022-07-19T16:04:31Z</time>
      </trkpt>
      <trkpt lat="44.5307" lon="6.71036">
        <ele>1872.4</ele>
        <time>2022-07-19T16:04:32Z</time>
      </trkpt>
      <trkpt lat="44.53069" lon="6.71038">
        <ele>1872.4</ele>
        <time>2022-07-19T16:04:33Z</time>
      </trkpt>
      <trkpt lat="44.53067" lon="6.71041">
        <ele>1872.6</ele>
        <time>2022-07-19T16:04:34Z</time>
      </trkpt>
      <trkpt lat="44.53066" lon="6.71043">
        <ele>1872.6</ele>
        <time>2022-07-19T16:04:35Z</time>
      </trkpt>
      <trkpt lat="44.53065" lon="6.71046">
        <ele>1872.6</ele>
        <time>2022-07-19T16:04:36Z</time>
      </trkpt>
      <trkpt lat="44.53063" lon="6.71048">
        <ele>1873</ele>
        <time>2022-07-19T16:04:37Z</time>
      </trkpt>
      <trkpt lat="44.53062" lon="6.7105">
        <ele>1873</ele>
        <time>2022-07-19T16:04:38Z</time>
      </trkpt>
      <trkpt lat="44.5306" lon="6.71053">
        <ele>1873.2</ele>
        <time>2022-07-19T16:04:39Z</time>
      </trkpt>
      <trkpt lat="44.53059" lon="6.71055">
        <ele>1873.2</ele>
        <time>2022-07-19T16:04:40Z</time>
      </trkpt>
      <trkpt lat="44.53057" lon="6.71057">
        <ele>1873.4</ele>
        <time>2022-07-19T16:04:41Z</time>
      </trkpt>
      <trkpt lat="44.53056" lon="6.71059">
        <ele>1873.4</ele>
        <time>2022-07-19T16:04:42Z</time>
      </trkpt>
      <trkpt lat="44.53055" lon="6.71061">
        <ele>1873.4</ele>
        <time>2022-07-19T16:04:43Z</time>
      </trkpt>
      <trkpt lat="44.53055" lon="6.71064">
        <ele>1873.8</ele>
        <time>2022-07-19T16:04:44Z</time>
      </trkpt>
      <trkpt lat="44.53054" lon="6.71066">
        <ele>1873.8</ele>
        <time>2022-07-19T16:04:45Z</time>
      </trkpt>
      <trkpt lat="44.53053" lon="6.71068">
        <ele>1874.2</ele>
        <time>2022-07-19T16:04:46Z</time>
      </trkpt>
      <trkpt lat="44.53051" lon="6.71073">
        <ele>1874.2</ele>
        <time>2022-07-19T16:04:47Z</time>
      </trkpt>
      <trkpt lat="44.5305" lon="6.71075">
        <ele>1874.4</ele>
        <time>2022-07-19T16:04:48Z</time>
      </trkpt>
      <trkpt lat="44.53049" lon="6.71078">
        <ele>1874.4</ele>
        <time>2022-07-19T16:04:49Z</time>
      </trkpt>
      <trkpt lat="44.53048" lon="6.7108">
        <ele>1874.8</ele>
        <time>2022-07-19T16:04:50Z</time>
      </trkpt>
      <trkpt lat="44.53047" lon="6.71082">
        <ele>1874.8</ele>
        <time>2022-07-19T16:04:51Z</time>
      </trkpt>
      <trkpt lat="44.53046" lon="6.71084">
        <ele>1875</ele>
        <time>2022-07-19T16:04:52Z</time>
      </trkpt>
      <trkpt lat="44.53045" lon="6.71086">
        <ele>1875</ele>
        <time>2022-07-19T16:04:53Z</time>
      </trkpt>
      <trkpt lat="44.53044" lon="6.71089">
        <ele>1875.4</ele>
        <time>2022-07-19T16:04:54Z</time>
      </trkpt>
      <trkpt lat="44.53044" lon="6.71091">
        <ele>1875.4</ele>
        <time>2022-07-19T16:04:55Z</time>
      </trkpt>
      <trkpt lat="44.53043" lon="6.71094">
        <ele>1875.6</ele>
        <time>2022-07-19T16:04:56Z</time>
      </trkpt>
      <trkpt lat="44.53042" lon="6.71096">
        <ele>1875.8</ele>
        <time>2022-07-19T16:04:57Z</time>
      </trkpt>
      <trkpt lat="44.53042" lon="6.71099">
        <ele>1875.8</ele>
        <time>2022-07-19T16:04:58Z</time>
      </trkpt>
      <trkpt lat="44.53041" lon="6.71102">
        <ele>1876</ele>
        <time>2022-07-19T16:04:59Z</time>
      </trkpt>
      <trkpt lat="44.5304" lon="6.71105">
        <ele>1876</ele>
        <time>2022-07-19T16:05:00Z</time>
      </trkpt>
      <trkpt lat="44.5304" lon="6.71107">
        <ele>1876.2</ele>
        <time>2022-07-19T16:05:01Z</time>
      </trkpt>
      <trkpt lat="44.53039" lon="6.7111">
        <ele>1876.2</ele>
        <time>2022-07-19T16:05:02Z</time>
      </trkpt>
      <trkpt lat="44.53038" lon="6.71113">
        <ele>1876.6</ele>
        <time>2022-07-19T16:05:03Z</time>
      </trkpt>
      <trkpt lat="44.53038" lon="6.71116">
        <ele>1876.6</ele>
        <time>2022-07-19T16:05:04Z</time>
      </trkpt>
      <trkpt lat="44.53037" lon="6.71119">
        <ele>1876.8</ele>
        <time>2022-07-19T16:05:05Z</time>
      </trkpt>
      <trkpt lat="44.53037" lon="6.71121">
        <ele>1876.8</ele>
        <time>2022-07-19T16:05:06Z</time>
      </trkpt>
      <trkpt lat="44.53037" lon="6.71124">
        <ele>1876.8</ele>
        <time>2022-07-19T16:05:07Z</time>
      </trkpt>
      <trkpt lat="44.53037" lon="6.71127">
        <ele>1877.2</ele>
        <time>2022-07-19T16:05:08Z</time>
      </trkpt>
      <trkpt lat="44.53037" lon="6.71129">
        <ele>1877.2</ele>
        <time>2022-07-19T16:05:09Z</time>
      </trkpt>
      <trkpt lat="44.53037" lon="6.71132">
        <ele>1877.2</ele>
        <time>2022-07-19T16:05:10Z</time>
      </trkpt>
      <trkpt lat="44.53037" lon="6.71134">
        <ele>1877.4</ele>
        <time>2022-07-19T16:05:11Z</time>
      </trkpt>
      <trkpt lat="44.53037" lon="6.71137">
        <ele>1877.4</ele>
        <time>2022-07-19T16:05:12Z</time>
      </trkpt>
      <trkpt lat="44.53037" lon="6.7114">
        <ele>1877.8</ele>
        <time>2022-07-19T16:05:13Z</time>
      </trkpt>
      <trkpt lat="44.53037" lon="6.71142">
        <ele>1877.8</ele>
        <time>2022-07-19T16:05:14Z</time>
      </trkpt>
      <trkpt lat="44.53037" lon="6.71145">
        <ele>1878</ele>
        <time>2022-07-19T16:05:15Z</time>
      </trkpt>
      <trkpt lat="44.53037" lon="6.71147">
        <ele>1878</ele>
        <time>2022-07-19T16:05:16Z</time>
      </trkpt>
      <trkpt lat="44.53037" lon="6.7115">
        <ele>1878.4</ele>
        <time>2022-07-19T16:05:17Z</time>
      </trkpt>
      <trkpt lat="44.53038" lon="6.71152">
        <ele>1878.4</ele>
        <time>2022-07-19T16:05:18Z</time>
      </trkpt>
      <trkpt lat="44.53038" lon="6.71155">
        <ele>1878.6</ele>
        <time>2022-07-19T16:05:19Z</time>
      </trkpt>
      <trkpt lat="44.53038" lon="6.71157">
        <ele>1878.6</ele>
        <time>2022-07-19T16:05:20Z</time>
      </trkpt>
      <trkpt lat="44.53038" lon="6.71159">
        <ele>1878.8</ele>
        <time>2022-07-19T16:05:21Z</time>
      </trkpt>
      <trkpt lat="44.53039" lon="6.71162">
        <ele>1878.8</ele>
        <time>2022-07-19T16:05:22Z</time>
      </trkpt>
      <trkpt lat="44.53039" lon="6.71164">
        <ele>1879</ele>
        <time>2022-07-19T16:05:23Z</time>
      </trkpt>
      <trkpt lat="44.53039" lon="6.71167">
        <ele>1879</ele>
        <time>2022-07-19T16:05:24Z</time>
      </trkpt>
      <trkpt lat="44.5304" lon="6.71169">
        <ele>1879.4</ele>
        <time>2022-07-19T16:05:25Z</time>
      </trkpt>
      <trkpt lat="44.5304" lon="6.71171">
        <ele>1879.4</ele>
        <time>2022-07-19T16:05:26Z</time>
      </trkpt>
      <trkpt lat="44.5304" lon="6.71173">
        <ele>1879.6</ele>
        <time>2022-07-19T16:05:27Z</time>
      </trkpt>
      <trkpt lat="44.53041" lon="6.71175">
        <ele>1879.6</ele>
        <time>2022-07-19T16:05:28Z</time>
      </trkpt>
      <trkpt lat="44.53042" lon="6.71177">
        <ele>1879.8</ele>
        <time>2022-07-19T16:05:29Z</time>
      </trkpt>
      <trkpt lat="44.53042" lon="6.71179">
        <ele>1879.8</ele>
        <time>2022-07-19T16:05:30Z</time>
      </trkpt>
      <trkpt lat="44.53043" lon="6.71181">
        <ele>1880</ele>
        <time>2022-07-19T16:05:31Z</time>
      </trkpt>
      <trkpt lat="44.53044" lon="6.71183">
        <ele>1880</ele>
        <time>2022-07-19T16:05:32Z</time>
      </trkpt>
      <trkpt lat="44.53044" lon="6.71185">
        <ele>1880.4</ele>
        <time>2022-07-19T16:05:33Z</time>
      </trkpt>
      <trkpt lat="44.53045" lon="6.71187">
        <ele>1880.4</ele>
        <time>2022-07-19T16:05:34Z</time>
      </trkpt>
      <trkpt lat="44.53046" lon="6.71189">
        <ele>1880.6</ele>
        <time>2022-07-19T16:05:35Z</time>
      </trkpt>
      <trkpt lat="44.53046" lon="6.71191">
        <ele>1880.6</ele>
        <time>2022-07-19T16:05:36Z</time>
      </trkpt>
      <trkpt lat="44.53047" lon="6.71193">
        <ele>1881</ele>
        <time>2022-07-19T16:05:37Z</time>
      </trkpt>
      <trkpt lat="44.53047" lon="6.71195">
        <ele>1881</ele>
        <time>2022-07-19T16:05:38Z</time>
      </trkpt>
      <trkpt lat="44.53048" lon="6.71197">
        <ele>1881.2</ele>
        <time>2022-07-19T16:05:39Z</time>
      </trkpt>
      <trkpt lat="44.53049" lon="6.71199">
        <ele>1881.2</ele>
        <time>2022-07-19T16:05:40Z</time>
      </trkpt>
      <trkpt lat="44.53049" lon="6.712">
        <ele>1881.6</ele>
        <time>2022-07-19T16:05:41Z</time>
      </trkpt>
      <trkpt lat="44.5305" lon="6.71202">
        <ele>1881.6</ele>
        <time>2022-07-19T16:05:42Z</time>
      </trkpt>
      <trkpt lat="44.53051" lon="6.71204">
        <ele>1881.8</ele>
        <time>2022-07-19T16:05:43Z</time>
      </trkpt>
      <trkpt lat="44.53052" lon="6.71206">
        <ele>1881.8</ele>
        <time>2022-07-19T16:05:44Z</time>
      </trkpt>
      <trkpt lat="44.53052" lon="6.71208">
        <ele>1881.8</ele>
        <time>2022-07-19T16:05:45Z</time>
      </trkpt>
      <trkpt lat="44.53053" lon="6.7121">
        <ele>1882.2</ele>
        <time>2022-07-19T16:05:46Z</time>
      </trkpt>
      <trkpt lat="44.53054" lon="6.71212">
        <ele>1882.2</ele>
        <time>2022-07-19T16:05:47Z</time>
      </trkpt>
      <trkpt lat="44.53054" lon="6.71214">
        <ele>1882.4</ele>
        <time>2022-07-19T16:05:48Z</time>
      </trkpt>
      <trkpt lat="44.53055" lon="6.71217">
        <ele>1882.4</ele>
        <time>2022-07-19T16:05:49Z</time>
      </trkpt>
      <trkpt lat="44.53057" lon="6.7122">
        <ele>1882.8</ele>
        <time>2022-07-19T16:05:51Z</time>
      </trkpt>
      <trkpt lat="44.53058" lon="6.71222">
        <ele>1883.2</ele>
        <time>2022-07-19T16:05:52Z</time>
      </trkpt>
      <trkpt lat="44.53058" lon="6.71224">
        <ele>1883.2</ele>
        <time>2022-07-19T16:05:53Z</time>
      </trkpt>
      <trkpt lat="44.53059" lon="6.71226">
        <ele>1883.2</ele>
        <time>2022-07-19T16:05:54Z</time>
      </trkpt>
      <trkpt lat="44.5306" lon="6.71228">
        <ele>1883.6</ele>
        <time>2022-07-19T16:05:55Z</time>
      </trkpt>
      <trkpt lat="44.53061" lon="6.7123">
        <ele>1883.6</ele>
        <time>2022-07-19T16:05:56Z</time>
      </trkpt>
      <trkpt lat="44.53062" lon="6.71231">
        <ele>1884</ele>
        <time>2022-07-19T16:05:57Z</time>
      </trkpt>
      <trkpt lat="44.53063" lon="6.71233">
        <ele>1884</ele>
        <time>2022-07-19T16:05:58Z</time>
      </trkpt>
      <trkpt lat="44.53064" lon="6.71234">
        <ele>1884.2</ele>
        <time>2022-07-19T16:05:59Z</time>
      </trkpt>
      <trkpt lat="44.53065" lon="6.71236">
        <ele>1884.2</ele>
        <time>2022-07-19T16:06:00Z</time>
      </trkpt>
      <trkpt lat="44.53066" lon="6.71238">
        <ele>1884.6</ele>
        <time>2022-07-19T16:06:01Z</time>
      </trkpt>
      <trkpt lat="44.53067" lon="6.7124">
        <ele>1884.6</ele>
        <time>2022-07-19T16:06:02Z</time>
      </trkpt>
      <trkpt lat="44.53067" lon="6.71242">
        <ele>1884.8</ele>
        <time>2022-07-19T16:06:03Z</time>
      </trkpt>
      <trkpt lat="44.53068" lon="6.71244">
        <ele>1884.8</ele>
        <time>2022-07-19T16:06:04Z</time>
      </trkpt>
      <trkpt lat="44.53068" lon="6.71246">
        <ele>1885.2</ele>
        <time>2022-07-19T16:06:05Z</time>
      </trkpt>
      <trkpt lat="44.53069" lon="6.71248">
        <ele>1885.2</ele>
        <time>2022-07-19T16:06:06Z</time>
      </trkpt>
      <trkpt lat="44.53069" lon="6.7125">
        <ele>1885.6</ele>
        <time>2022-07-19T16:06:07Z</time>
      </trkpt>
      <trkpt lat="44.5307" lon="6.71252">
        <ele>1885.6</ele>
        <time>2022-07-19T16:06:08Z</time>
      </trkpt>
      <trkpt lat="44.53071" lon="6.71254">
        <ele>1885.8</ele>
        <time>2022-07-19T16:06:09Z</time>
      </trkpt>
      <trkpt lat="44.53071" lon="6.71255">
        <ele>1885.8</ele>
        <time>2022-07-19T16:06:10Z</time>
      </trkpt>
      <trkpt lat="44.53072" lon="6.71257">
        <ele>1885.8</ele>
        <time>2022-07-19T16:06:11Z</time>
      </trkpt>
      <trkpt lat="44.53072" lon="6.71259">
        <ele>1886.2</ele>
        <time>2022-07-19T16:06:12Z</time>
      </trkpt>
      <trkpt lat="44.53073" lon="6.71261">
        <ele>1886.2</ele>
        <time>2022-07-19T16:06:13Z</time>
      </trkpt>
      <trkpt lat="44.53074" lon="6.71263">
        <ele>1886.4</ele>
        <time>2022-07-19T16:06:14Z</time>
      </trkpt>
      <trkpt lat="44.53075" lon="6.71265">
        <ele>1886.6</ele>
        <time>2022-07-19T16:06:15Z</time>
      </trkpt>
      <trkpt lat="44.53075" lon="6.71267">
        <ele>1886.6</ele>
        <time>2022-07-19T16:06:16Z</time>
      </trkpt>
      <trkpt lat="44.53076" lon="6.71269">
        <ele>1887</ele>
        <time>2022-07-19T16:06:17Z</time>
      </trkpt>
      <trkpt lat="44.53077" lon="6.7127">
        <ele>1887</ele>
        <time>2022-07-19T16:06:18Z</time>
      </trkpt>
      <trkpt lat="44.53078" lon="6.71271">
        <ele>1887.2</ele>
        <time>2022-07-19T16:06:19Z</time>
      </trkpt>
      <trkpt lat="44.53079" lon="6.71272">
        <ele>1887.2</ele>
        <time>2022-07-19T16:06:20Z</time>
      </trkpt>
      <trkpt lat="44.5308" lon="6.71274">
        <ele>1887.6</ele>
        <time>2022-07-19T16:06:21Z</time>
      </trkpt>
      <trkpt lat="44.53081" lon="6.71276">
        <ele>1887.6</ele>
        <time>2022-07-19T16:06:22Z</time>
      </trkpt>
      <trkpt lat="44.53081" lon="6.71278">
        <ele>1887.8</ele>
        <time>2022-07-19T16:06:23Z</time>
      </trkpt>
      <trkpt lat="44.53081" lon="6.7128">
        <ele>1887.8</ele>
        <time>2022-07-19T16:06:24Z</time>
      </trkpt>
      <trkpt lat="44.53082" lon="6.71282">
        <ele>1888</ele>
        <time>2022-07-19T16:06:25Z</time>
      </trkpt>
      <trkpt lat="44.53082" lon="6.71284">
        <ele>1888</ele>
        <time>2022-07-19T16:06:26Z</time>
      </trkpt>
      <trkpt lat="44.53083" lon="6.71285">
        <ele>1888.4</ele>
        <time>2022-07-19T16:06:28Z</time>
      </trkpt>
      <trkpt lat="44.53084" lon="6.71287">
        <ele>1888.6</ele>
        <time>2022-07-19T16:06:29Z</time>
      </trkpt>
      <trkpt lat="44.53085" lon="6.71289">
        <ele>1888.6</ele>
        <time>2022-07-19T16:06:30Z</time>
      </trkpt>
      <trkpt lat="44.53085" lon="6.7129">
        <ele>1889</ele>
        <time>2022-07-19T16:06:31Z</time>
      </trkpt>
      <trkpt lat="44.53086" lon="6.71291">
        <ele>1889</ele>
        <time>2022-07-19T16:06:32Z</time>
      </trkpt>
      <trkpt lat="44.53087" lon="6.71293">
        <ele>1889.4</ele>
        <time>2022-07-19T16:06:33Z</time>
      </trkpt>
      <trkpt lat="44.53088" lon="6.71294">
        <ele>1889.4</ele>
        <time>2022-07-19T16:06:34Z</time>
      </trkpt>
      <trkpt lat="44.53089" lon="6.71296">
        <ele>1889.6</ele>
        <time>2022-07-19T16:06:35Z</time>
      </trkpt>
      <trkpt lat="44.5309" lon="6.71297">
        <ele>1889.6</ele>
        <time>2022-07-19T16:06:36Z</time>
      </trkpt>
      <trkpt lat="44.53092" lon="6.71298">
        <ele>1889.8</ele>
        <time>2022-07-19T16:06:37Z</time>
      </trkpt>
      <trkpt lat="44.53093" lon="6.713">
        <ele>1889.8</ele>
        <time>2022-07-19T16:06:38Z</time>
      </trkpt>
      <trkpt lat="44.53094" lon="6.71301">
        <ele>1890.2</ele>
        <time>2022-07-19T16:06:39Z</time>
      </trkpt>
      <trkpt lat="44.53095" lon="6.71302">
        <ele>1890.4</ele>
        <time>2022-07-19T16:06:40Z</time>
      </trkpt>
      <trkpt lat="44.53096" lon="6.71303">
        <ele>1890.4</ele>
        <time>2022-07-19T16:06:41Z</time>
      </trkpt>
      <trkpt lat="44.53098" lon="6.71304">
        <ele>1890.4</ele>
        <time>2022-07-19T16:06:42Z</time>
      </trkpt>
      <trkpt lat="44.53099" lon="6.71305">
        <ele>1890.6</ele>
        <time>2022-07-19T16:06:43Z</time>
      </trkpt>
      <trkpt lat="44.531" lon="6.71306">
        <ele>1890.6</ele>
        <time>2022-07-19T16:06:44Z</time>
      </trkpt>
      <trkpt lat="44.53102" lon="6.71308">
        <ele>1891</ele>
        <time>2022-07-19T16:06:45Z</time>
      </trkpt>
      <trkpt lat="44.53103" lon="6.71309">
        <ele>1891</ele>
        <time>2022-07-19T16:06:46Z</time>
      </trkpt>
      <trkpt lat="44.53104" lon="6.7131">
        <ele>1891.2</ele>
        <time>2022-07-19T16:06:47Z</time>
      </trkpt>
      <trkpt lat="44.53106" lon="6.7131">
        <ele>1891.2</ele>
        <time>2022-07-19T16:06:48Z</time>
      </trkpt>
      <trkpt lat="44.53107" lon="6.71311">
        <ele>1891.4</ele>
        <time>2022-07-19T16:06:49Z</time>
      </trkpt>
      <trkpt lat="44.53109" lon="6.71311">
        <ele>1891.4</ele>
        <time>2022-07-19T16:06:50Z</time>
      </trkpt>
      <trkpt lat="44.5311" lon="6.71312">
        <ele>1891.6</ele>
        <time>2022-07-19T16:06:51Z</time>
      </trkpt>
      <trkpt lat="44.53112" lon="6.71312">
        <ele>1891.6</ele>
        <time>2022-07-19T16:06:52Z</time>
      </trkpt>
      <trkpt lat="44.53114" lon="6.71313">
        <ele>1892</ele>
        <time>2022-07-19T16:06:53Z</time>
      </trkpt>
      <trkpt lat="44.53115" lon="6.71313">
        <ele>1892</ele>
        <time>2022-07-19T16:06:54Z</time>
      </trkpt>
      <trkpt lat="44.53117" lon="6.71312">
        <ele>1892</ele>
        <time>2022-07-19T16:06:55Z</time>
      </trkpt>
      <trkpt lat="44.53119" lon="6.71312">
        <ele>1892.2</ele>
        <time>2022-07-19T16:06:56Z</time>
      </trkpt>
      <trkpt lat="44.5312" lon="6.71311">
        <ele>1892.2</ele>
        <time>2022-07-19T16:06:57Z</time>
      </trkpt>
      <trkpt lat="44.53122" lon="6.71311">
        <ele>1892.2</ele>
        <time>2022-07-19T16:06:58Z</time>
      </trkpt>
      <trkpt lat="44.53123" lon="6.7131">
        <ele>1892.4</ele>
        <time>2022-07-19T16:06:59Z</time>
      </trkpt>
      <trkpt lat="44.53125" lon="6.71309">
        <ele>1892.4</ele>
        <time>2022-07-19T16:07:00Z</time>
      </trkpt>
      <trkpt lat="44.53127" lon="6.71308">
        <ele>1892.6</ele>
        <time>2022-07-19T16:07:01Z</time>
      </trkpt>
      <trkpt lat="44.53128" lon="6.71307">
        <ele>1892.6</ele>
        <time>2022-07-19T16:07:02Z</time>
      </trkpt>
      <trkpt lat="44.53129" lon="6.71305">
        <ele>1892.8</ele>
        <time>2022-07-19T16:07:03Z</time>
      </trkpt>
      <trkpt lat="44.53131" lon="6.71303">
        <ele>1892.8</ele>
        <time>2022-07-19T16:07:04Z</time>
      </trkpt>
      <trkpt lat="44.53132" lon="6.71302">
        <ele>1892.8</ele>
        <time>2022-07-19T16:07:05Z</time>
      </trkpt>
      <trkpt lat="44.53134" lon="6.71299">
        <ele>1893.2</ele>
        <time>2022-07-19T16:07:06Z</time>
      </trkpt>
      <trkpt lat="44.53135" lon="6.71297">
        <ele>1893.2</ele>
        <time>2022-07-19T16:07:07Z</time>
      </trkpt>
      <trkpt lat="44.53136" lon="6.71295">
        <ele>1893.4</ele>
        <time>2022-07-19T16:07:08Z</time>
      </trkpt>
      <trkpt lat="44.53137" lon="6.71293">
        <ele>1893.4</ele>
        <time>2022-07-19T16:07:09Z</time>
      </trkpt>
      <trkpt lat="44.53139" lon="6.71291">
        <ele>1893.4</ele>
        <time>2022-07-19T16:07:10Z</time>
      </trkpt>
      <trkpt lat="44.5314" lon="6.71289">
        <ele>1893.8</ele>
        <time>2022-07-19T16:07:11Z</time>
      </trkpt>
      <trkpt lat="44.5314" lon="6.71286">
        <ele>1893.8</ele>
        <time>2022-07-19T16:07:12Z</time>
      </trkpt>
      <trkpt lat="44.53141" lon="6.71284">
        <ele>1894</ele>
        <time>2022-07-19T16:07:13Z</time>
      </trkpt>
      <trkpt lat="44.53142" lon="6.71281">
        <ele>1894</ele>
        <time>2022-07-19T16:07:14Z</time>
      </trkpt>
      <trkpt lat="44.53142" lon="6.71278">
        <ele>1894</ele>
        <time>2022-07-19T16:07:15Z</time>
      </trkpt>
      <trkpt lat="44.53142" lon="6.71276">
        <ele>1894.4</ele>
        <time>2022-07-19T16:07:16Z</time>
      </trkpt>
      <trkpt lat="44.53142" lon="6.71273">
        <ele>1894.4</ele>
        <time>2022-07-19T16:07:17Z</time>
      </trkpt>
      <trkpt lat="44.53143" lon="6.71271">
        <ele>1894.6</ele>
        <time>2022-07-19T16:07:18Z</time>
      </trkpt>
      <trkpt lat="44.53143" lon="6.71268">
        <ele>1894.6</ele>
        <time>2022-07-19T16:07:19Z</time>
      </trkpt>
      <trkpt lat="44.53143" lon="6.71265">
        <ele>1894.6</ele>
        <time>2022-07-19T16:07:20Z</time>
      </trkpt>
      <trkpt lat="44.53142" lon="6.71263">
        <ele>1895</ele>
        <time>2022-07-19T16:07:21Z</time>
      </trkpt>
      <trkpt lat="44.53141" lon="6.71257">
        <ele>1895.2</ele>
        <time>2022-07-19T16:07:22Z</time>
      </trkpt>
      <trkpt lat="44.53141" lon="6.71255">
        <ele>1895.2</ele>
        <time>2022-07-19T16:07:23Z</time>
      </trkpt>
      <trkpt lat="44.5314" lon="6.71253">
        <ele>1895.6</ele>
        <time>2022-07-19T16:07:24Z</time>
      </trkpt>
      <trkpt lat="44.53139" lon="6.7125">
        <ele>1895.6</ele>
        <time>2022-07-19T16:07:25Z</time>
      </trkpt>
      <trkpt lat="44.53139" lon="6.71248">
        <ele>1896</ele>
        <time>2022-07-19T16:07:26Z</time>
      </trkpt>
      <trkpt lat="44.53139" lon="6.71245">
        <ele>1896.2</ele>
        <time>2022-07-19T16:07:27Z</time>
      </trkpt>
      <trkpt lat="44.53138" lon="6.71243">
        <ele>1896.2</ele>
        <time>2022-07-19T16:07:28Z</time>
      </trkpt>
      <trkpt lat="44.53137" lon="6.71241">
        <ele>1896.4</ele>
        <time>2022-07-19T16:07:29Z</time>
      </trkpt>
      <trkpt lat="44.53137" lon="6.71239">
        <ele>1896.4</ele>
        <time>2022-07-19T16:07:30Z</time>
      </trkpt>
      <trkpt lat="44.53136" lon="6.71236">
        <ele>1896.4</ele>
        <time>2022-07-19T16:07:31Z</time>
      </trkpt>
      <trkpt lat="44.53135" lon="6.71234">
        <ele>1896.8</ele>
        <time>2022-07-19T16:07:32Z</time>
      </trkpt>
      <trkpt lat="44.53134" lon="6.71232">
        <ele>1897</ele>
        <time>2022-07-19T16:07:33Z</time>
      </trkpt>
      <trkpt lat="44.53134" lon="6.7123">
        <ele>1897</ele>
        <time>2022-07-19T16:07:34Z</time>
      </trkpt>
      <trkpt lat="44.53133" lon="6.71227">
        <ele>1897.2</ele>
        <time>2022-07-19T16:07:35Z</time>
      </trkpt>
      <trkpt lat="44.53132" lon="6.71225">
        <ele>1897.2</ele>
        <time>2022-07-19T16:07:36Z</time>
      </trkpt>
      <trkpt lat="44.53131" lon="6.71223">
        <ele>1897.4</ele>
        <time>2022-07-19T16:07:37Z</time>
      </trkpt>
      <trkpt lat="44.5313" lon="6.7122">
        <ele>1897.4</ele>
        <time>2022-07-19T16:07:38Z</time>
      </trkpt>
      <trkpt lat="44.53129" lon="6.71218">
        <ele>1897.8</ele>
        <time>2022-07-19T16:07:39Z</time>
      </trkpt>
      <trkpt lat="44.53128" lon="6.71216">
        <ele>1897.8</ele>
        <time>2022-07-19T16:07:40Z</time>
      </trkpt>
      <trkpt lat="44.53128" lon="6.71213">
        <ele>1898</ele>
        <time>2022-07-19T16:07:41Z</time>
      </trkpt>
      <trkpt lat="44.53127" lon="6.71211">
        <ele>1898.2</ele>
        <time>2022-07-19T16:07:42Z</time>
      </trkpt>
      <trkpt lat="44.53126" lon="6.71209">
        <ele>1898.2</ele>
        <time>2022-07-19T16:07:43Z</time>
      </trkpt>
      <trkpt lat="44.53126" lon="6.71207">
        <ele>1898.6</ele>
        <time>2022-07-19T16:07:44Z</time>
      </trkpt>
      <trkpt lat="44.53125" lon="6.71204">
        <ele>1898.6</ele>
        <time>2022-07-19T16:07:45Z</time>
      </trkpt>
      <trkpt lat="44.53124" lon="6.71202">
        <ele>1899</ele>
        <time>2022-07-19T16:07:46Z</time>
      </trkpt>
      <trkpt lat="44.53124" lon="6.712">
        <ele>1899</ele>
        <time>2022-07-19T16:07:47Z</time>
      </trkpt>
      <trkpt lat="44.53123" lon="6.71198">
        <ele>1899.2</ele>
        <time>2022-07-19T16:07:48Z</time>
      </trkpt>
      <trkpt lat="44.53123" lon="6.71196">
        <ele>1899.2</ele>
        <time>2022-07-19T16:07:49Z</time>
      </trkpt>
      <trkpt lat="44.53122" lon="6.71194">
        <ele>1899.6</ele>
        <time>2022-07-19T16:07:50Z</time>
      </trkpt>
      <trkpt lat="44.53121" lon="6.71192">
        <ele>1899.6</ele>
        <time>2022-07-19T16:07:51Z</time>
      </trkpt>
      <trkpt lat="44.53121" lon="6.7119">
        <ele>1900</ele>
        <time>2022-07-19T16:07:52Z</time>
      </trkpt>
      <trkpt lat="44.5312" lon="6.71188">
        <ele>1900</ele>
        <time>2022-07-19T16:07:53Z</time>
      </trkpt>
      <trkpt lat="44.53119" lon="6.71186">
        <ele>1900.4</ele>
        <time>2022-07-19T16:07:54Z</time>
      </trkpt>
      <trkpt lat="44.53118" lon="6.71184">
        <ele>1900.6</ele>
        <time>2022-07-19T16:07:55Z</time>
      </trkpt>
      <trkpt lat="44.53118" lon="6.71182">
        <ele>1900.6</ele>
        <time>2022-07-19T16:07:56Z</time>
      </trkpt>
      <trkpt lat="44.53117" lon="6.71181">
        <ele>1901</ele>
        <time>2022-07-19T16:07:57Z</time>
      </trkpt>
      <trkpt lat="44.53117" lon="6.71179">
        <ele>1901</ele>
        <time>2022-07-19T16:07:58Z</time>
      </trkpt>
      <trkpt lat="44.53117" lon="6.71177">
        <ele>1901.2</ele>
        <time>2022-07-19T16:07:59Z</time>
      </trkpt>
      <trkpt lat="44.53116" lon="6.71174">
        <ele>1901.2</ele>
        <time>2022-07-19T16:08:00Z</time>
      </trkpt>
      <trkpt lat="44.53116" lon="6.71172">
        <ele>1901.6</ele>
        <time>2022-07-19T16:08:01Z</time>
      </trkpt>
      <trkpt lat="44.53116" lon="6.7117">
        <ele>1901.6</ele>
        <time>2022-07-19T16:08:02Z</time>
      </trkpt>
      <trkpt lat="44.53115" lon="6.71168">
        <ele>1901.8</ele>
        <time>2022-07-19T16:08:03Z</time>
      </trkpt>
      <trkpt lat="44.53115" lon="6.71166">
        <ele>1901.8</ele>
        <time>2022-07-19T16:08:04Z</time>
      </trkpt>
      <trkpt lat="44.53114" lon="6.71164">
        <ele>1902.2</ele>
        <time>2022-07-19T16:08:05Z</time>
      </trkpt>
      <trkpt lat="44.53114" lon="6.71161">
        <ele>1902.4</ele>
        <time>2022-07-19T16:08:06Z</time>
      </trkpt>
      <trkpt lat="44.53114" lon="6.71159">
        <ele>1902.4</ele>
        <time>2022-07-19T16:08:07Z</time>
      </trkpt>
      <trkpt lat="44.53113" lon="6.71157">
        <ele>1902.6</ele>
        <time>2022-07-19T16:08:08Z</time>
      </trkpt>
      <trkpt lat="44.53113" lon="6.71155">
        <ele>1902.6</ele>
        <time>2022-07-19T16:08:09Z</time>
      </trkpt>
      <trkpt lat="44.53113" lon="6.71152">
        <ele>1903</ele>
        <time>2022-07-19T16:08:10Z</time>
      </trkpt>
      <trkpt lat="44.53113" lon="6.7115">
        <ele>1903.4</ele>
        <time>2022-07-19T16:08:11Z</time>
      </trkpt>
      <trkpt lat="44.53113" lon="6.71148">
        <ele>1903.6</ele>
        <time>2022-07-19T16:08:12Z</time>
      </trkpt>
      <trkpt lat="44.53112" lon="6.71146">
        <ele>1903.6</ele>
        <time>2022-07-19T16:08:13Z</time>
      </trkpt>
      <trkpt lat="44.53112" lon="6.71144">
        <ele>1903.8</ele>
        <time>2022-07-19T16:08:14Z</time>
      </trkpt>
      <trkpt lat="44.53112" lon="6.71142">
        <ele>1903.8</ele>
        <time>2022-07-19T16:08:15Z</time>
      </trkpt>
      <trkpt lat="44.53112" lon="6.7114">
        <ele>1904.2</ele>
        <time>2022-07-19T16:08:16Z</time>
      </trkpt>
      <trkpt lat="44.53112" lon="6.71137">
        <ele>1904.2</ele>
        <time>2022-07-19T16:08:17Z</time>
      </trkpt>
      <trkpt lat="44.53112" lon="6.71135">
        <ele>1904.6</ele>
        <time>2022-07-19T16:08:18Z</time>
      </trkpt>
      <trkpt lat="44.53112" lon="6.71133">
        <ele>1904.6</ele>
        <time>2022-07-19T16:08:19Z</time>
      </trkpt>
      <trkpt lat="44.53113" lon="6.7113">
        <ele>1905</ele>
        <time>2022-07-19T16:08:20Z</time>
      </trkpt>
      <trkpt lat="44.53113" lon="6.71128">
        <ele>1905</ele>
        <time>2022-07-19T16:08:21Z</time>
      </trkpt>
      <trkpt lat="44.53113" lon="6.71126">
        <ele>1905.2</ele>
        <time>2022-07-19T16:08:22Z</time>
      </trkpt>
      <trkpt lat="44.53113" lon="6.71124">
        <ele>1905.2</ele>
        <time>2022-07-19T16:08:23Z</time>
      </trkpt>
      <trkpt lat="44.53113" lon="6.71122">
        <ele>1905.4</ele>
        <time>2022-07-19T16:08:24Z</time>
      </trkpt>
      <trkpt lat="44.53113" lon="6.7112">
        <ele>1905.4</ele>
        <time>2022-07-19T16:08:25Z</time>
      </trkpt>
      <trkpt lat="44.53114" lon="6.71117">
        <ele>1905.8</ele>
        <time>2022-07-19T16:08:26Z</time>
      </trkpt>
      <trkpt lat="44.53114" lon="6.71115">
        <ele>1905.8</ele>
        <time>2022-07-19T16:08:27Z</time>
      </trkpt>
      <trkpt lat="44.53114" lon="6.71113">
        <ele>1906</ele>
        <time>2022-07-19T16:08:28Z</time>
      </trkpt>
      <trkpt lat="44.53114" lon="6.71111">
        <ele>1906</ele>
        <time>2022-07-19T16:08:29Z</time>
      </trkpt>
      <trkpt lat="44.53114" lon="6.71108">
        <ele>1906.4</ele>
        <time>2022-07-19T16:08:30Z</time>
      </trkpt>
      <trkpt lat="44.53115" lon="6.71106">
        <ele>1906.4</ele>
        <time>2022-07-19T16:08:31Z</time>
      </trkpt>
      <trkpt lat="44.53115" lon="6.71104">
        <ele>1906.8</ele>
        <time>2022-07-19T16:08:32Z</time>
      </trkpt>
      <trkpt lat="44.53115" lon="6.71101">
        <ele>1906.8</ele>
        <time>2022-07-19T16:08:33Z</time>
      </trkpt>
      <trkpt lat="44.53116" lon="6.71099">
        <ele>1907</ele>
        <time>2022-07-19T16:08:34Z</time>
      </trkpt>
      <trkpt lat="44.53117" lon="6.71097">
        <ele>1907</ele>
        <time>2022-07-19T16:08:35Z</time>
      </trkpt>
      <trkpt lat="44.53117" lon="6.71095">
        <ele>1907.4</ele>
        <time>2022-07-19T16:08:36Z</time>
      </trkpt>
      <trkpt lat="44.53118" lon="6.71093">
        <ele>1907.4</ele>
        <time>2022-07-19T16:08:37Z</time>
      </trkpt>
      <trkpt lat="44.53118" lon="6.7109">
        <ele>1907.6</ele>
        <time>2022-07-19T16:08:38Z</time>
      </trkpt>
      <trkpt lat="44.53119" lon="6.71088">
        <ele>1907.6</ele>
        <time>2022-07-19T16:08:39Z</time>
      </trkpt>
      <trkpt lat="44.5312" lon="6.71086">
        <ele>1908</ele>
        <time>2022-07-19T16:08:40Z</time>
      </trkpt>
      <trkpt lat="44.5312" lon="6.71084">
        <ele>1908</ele>
        <time>2022-07-19T16:08:41Z</time>
      </trkpt>
      <trkpt lat="44.53121" lon="6.71082">
        <ele>1908.2</ele>
        <time>2022-07-19T16:08:42Z</time>
      </trkpt>
      <trkpt lat="44.53121" lon="6.7108">
        <ele>1908.2</ele>
        <time>2022-07-19T16:08:43Z</time>
      </trkpt>
      <trkpt lat="44.53122" lon="6.71078">
        <ele>1908.6</ele>
        <time>2022-07-19T16:08:44Z</time>
      </trkpt>
      <trkpt lat="44.53123" lon="6.71076">
        <ele>1908.6</ele>
        <time>2022-07-19T16:08:45Z</time>
      </trkpt>
      <trkpt lat="44.53123" lon="6.71074">
        <ele>1908.8</ele>
        <time>2022-07-19T16:08:46Z</time>
      </trkpt>
      <trkpt lat="44.53124" lon="6.71072">
        <ele>1909</ele>
        <time>2022-07-19T16:08:47Z</time>
      </trkpt>
      <trkpt lat="44.53125" lon="6.7107">
        <ele>1909.2</ele>
        <time>2022-07-19T16:08:48Z</time>
      </trkpt>
      <trkpt lat="44.53126" lon="6.71068">
        <ele>1909.2</ele>
        <time>2022-07-19T16:08:49Z</time>
      </trkpt>
      <trkpt lat="44.53127" lon="6.71066">
        <ele>1909.8</ele>
        <time>2022-07-19T16:08:50Z</time>
      </trkpt>
      <trkpt lat="44.53128" lon="6.71064">
        <ele>1909.8</ele>
        <time>2022-07-19T16:08:51Z</time>
      </trkpt>
      <trkpt lat="44.53128" lon="6.71062">
        <ele>1910</ele>
        <time>2022-07-19T16:08:52Z</time>
      </trkpt>
      <trkpt lat="44.53129" lon="6.7106">
        <ele>1910.4</ele>
        <time>2022-07-19T16:08:53Z</time>
      </trkpt>
      <trkpt lat="44.5313" lon="6.71059">
        <ele>1910.6</ele>
        <time>2022-07-19T16:08:54Z</time>
      </trkpt>
      <trkpt lat="44.53131" lon="6.71057">
        <ele>1910.6</ele>
        <time>2022-07-19T16:08:55Z</time>
      </trkpt>
      <trkpt lat="44.53132" lon="6.71055">
        <ele>1910.8</ele>
        <time>2022-07-19T16:08:56Z</time>
      </trkpt>
      <trkpt lat="44.53132" lon="6.71053">
        <ele>1910.8</ele>
        <time>2022-07-19T16:08:57Z</time>
      </trkpt>
      <trkpt lat="44.53133" lon="6.71052">
        <ele>1911</ele>
        <time>2022-07-19T16:08:58Z</time>
      </trkpt>
      <trkpt lat="44.53134" lon="6.7105">
        <ele>1911.4</ele>
        <time>2022-07-19T16:08:59Z</time>
      </trkpt>
      <trkpt lat="44.53135" lon="6.71049">
        <ele>1911.4</ele>
        <time>2022-07-19T16:09:00Z</time>
      </trkpt>
      <trkpt lat="44.53136" lon="6.71047">
        <ele>1911.8</ele>
        <time>2022-07-19T16:09:01Z</time>
      </trkpt>
      <trkpt lat="44.53137" lon="6.71046">
        <ele>1911.8</ele>
        <time>2022-07-19T16:09:02Z</time>
      </trkpt>
      <trkpt lat="44.53138" lon="6.71045">
        <ele>1912</ele>
        <time>2022-07-19T16:09:03Z</time>
      </trkpt>
      <trkpt lat="44.53139" lon="6.71044">
        <ele>1912</ele>
        <time>2022-07-19T16:09:04Z</time>
      </trkpt>
      <trkpt lat="44.5314" lon="6.71042">
        <ele>1912.4</ele>
        <time>2022-07-19T16:09:05Z</time>
      </trkpt>
      <trkpt lat="44.53141" lon="6.71041">
        <ele>1912.4</ele>
        <time>2022-07-19T16:09:06Z</time>
      </trkpt>
      <trkpt lat="44.53142" lon="6.7104">
        <ele>1912.6</ele>
        <time>2022-07-19T16:09:07Z</time>
      </trkpt>
      <trkpt lat="44.53143" lon="6.71038">
        <ele>1912.8</ele>
        <time>2022-07-19T16:09:08Z</time>
      </trkpt>
      <trkpt lat="44.53144" lon="6.71037">
        <ele>1912.8</ele>
        <time>2022-07-19T16:09:09Z</time>
      </trkpt>
      <trkpt lat="44.53144" lon="6.71035">
        <ele>1913.2</ele>
        <time>2022-07-19T16:09:10Z</time>
      </trkpt>
      <trkpt lat="44.53145" lon="6.71034">
        <ele>1913.2</ele>
        <time>2022-07-19T16:09:11Z</time>
      </trkpt>
      <trkpt lat="44.53146" lon="6.71033">
        <ele>1913.4</ele>
        <time>2022-07-19T16:09:12Z</time>
      </trkpt>
      <trkpt lat="44.53148" lon="6.71032">
        <ele>1913.4</ele>
        <time>2022-07-19T16:09:13Z</time>
      </trkpt>
      <trkpt lat="44.53149" lon="6.71031">
        <ele>1913.6</ele>
        <time>2022-07-19T16:09:14Z</time>
      </trkpt>
      <trkpt lat="44.5315" lon="6.7103">
        <ele>1913.6</ele>
        <time>2022-07-19T16:09:15Z</time>
      </trkpt>
      <trkpt lat="44.53151" lon="6.71029">
        <ele>1914</ele>
        <time>2022-07-19T16:09:16Z</time>
      </trkpt>
      <trkpt lat="44.53153" lon="6.71028">
        <ele>1914</ele>
        <time>2022-07-19T16:09:17Z</time>
      </trkpt>
      <trkpt lat="44.53154" lon="6.71027">
        <ele>1914.2</ele>
        <time>2022-07-19T16:09:18Z</time>
      </trkpt>
      <trkpt lat="44.53155" lon="6.71026">
        <ele>1914.6</ele>
        <time>2022-07-19T16:09:19Z</time>
      </trkpt>
      <trkpt lat="44.53156" lon="6.71025">
        <ele>1914.6</ele>
        <time>2022-07-19T16:09:20Z</time>
      </trkpt>
      <trkpt lat="44.53157" lon="6.71023">
        <ele>1914.6</ele>
        <time>2022-07-19T16:09:21Z</time>
      </trkpt>
      <trkpt lat="44.53158" lon="6.71022">
        <ele>1914.8</ele>
        <time>2022-07-19T16:09:22Z</time>
      </trkpt>
      <trkpt lat="44.53159" lon="6.71021">
        <ele>1914.8</ele>
        <time>2022-07-19T16:09:23Z</time>
      </trkpt>
      <trkpt lat="44.5316" lon="6.71019">
        <ele>1915.2</ele>
        <time>2022-07-19T16:09:24Z</time>
      </trkpt>
      <trkpt lat="44.53161" lon="6.71018">
        <ele>1915.2</ele>
        <time>2022-07-19T16:09:25Z</time>
      </trkpt>
      <trkpt lat="44.53162" lon="6.71017">
        <ele>1915.4</ele>
        <time>2022-07-19T16:09:26Z</time>
      </trkpt>
      <trkpt lat="44.53163" lon="6.71017">
        <ele>1915.4</ele>
        <time>2022-07-19T16:09:27Z</time>
      </trkpt>
      <trkpt lat="44.53164" lon="6.71016">
        <ele>1915.6</ele>
        <time>2022-07-19T16:09:28Z</time>
      </trkpt>
      <trkpt lat="44.53165" lon="6.71015">
        <ele>1915.6</ele>
        <time>2022-07-19T16:09:29Z</time>
      </trkpt>
      <trkpt lat="44.53167" lon="6.71014">
        <ele>1916</ele>
        <time>2022-07-19T16:09:30Z</time>
      </trkpt>
      <trkpt lat="44.53168" lon="6.71013">
        <ele>1916.2</ele>
        <time>2022-07-19T16:09:31Z</time>
      </trkpt>
      <trkpt lat="44.53169" lon="6.71012">
        <ele>1916.2</ele>
        <time>2022-07-19T16:09:32Z</time>
      </trkpt>
      <trkpt lat="44.5317" lon="6.71011">
        <ele>1916.4</ele>
        <time>2022-07-19T16:09:33Z</time>
      </trkpt>
      <trkpt lat="44.53171" lon="6.7101">
        <ele>1916.4</ele>
        <time>2022-07-19T16:09:34Z</time>
      </trkpt>
      <trkpt lat="44.53173" lon="6.71009">
        <ele>1916.8</ele>
        <time>2022-07-19T16:09:35Z</time>
      </trkpt>
      <trkpt lat="44.53174" lon="6.71008">
        <ele>1916.8</ele>
        <time>2022-07-19T16:09:36Z</time>
      </trkpt>
      <trkpt lat="44.53175" lon="6.71007">
        <ele>1917</ele>
        <time>2022-07-19T16:09:37Z</time>
      </trkpt>
      <trkpt lat="44.53177" lon="6.71006">
        <ele>1917</ele>
        <time>2022-07-19T16:09:38Z</time>
      </trkpt>
      <trkpt lat="44.53178" lon="6.71005">
        <ele>1917.4</ele>
        <time>2022-07-19T16:09:39Z</time>
      </trkpt>
      <trkpt lat="44.53179" lon="6.71003">
        <ele>1917.6</ele>
        <time>2022-07-19T16:09:40Z</time>
      </trkpt>
      <trkpt lat="44.53181" lon="6.71002">
        <ele>1917.8</ele>
        <time>2022-07-19T16:09:41Z</time>
      </trkpt>
      <trkpt lat="44.53182" lon="6.71001">
        <ele>1918</ele>
        <time>2022-07-19T16:09:42Z</time>
      </trkpt>
      <trkpt lat="44.53184" lon="6.70999">
        <ele>1918</ele>
        <time>2022-07-19T16:09:43Z</time>
      </trkpt>
      <trkpt lat="44.53186" lon="6.70997">
        <ele>1918.2</ele>
        <time>2022-07-19T16:09:44Z</time>
      </trkpt>
      <trkpt lat="44.53188" lon="6.70995">
        <ele>1918.6</ele>
        <time>2022-07-19T16:09:45Z</time>
      </trkpt>
      <trkpt lat="44.5319" lon="6.70993">
        <ele>1918.6</ele>
        <time>2022-07-19T16:09:46Z</time>
      </trkpt>
      <trkpt lat="44.53192" lon="6.70992">
        <ele>1918.8</ele>
        <time>2022-07-19T16:09:47Z</time>
      </trkpt>
      <trkpt lat="44.53193" lon="6.7099">
        <ele>1919.2</ele>
        <time>2022-07-19T16:09:48Z</time>
      </trkpt>
      <trkpt lat="44.53195" lon="6.70988">
        <ele>1919.4</ele>
        <time>2022-07-19T16:09:49Z</time>
      </trkpt>
      <trkpt lat="44.53197" lon="6.70986">
        <ele>1919.4</ele>
        <time>2022-07-19T16:09:51Z</time>
      </trkpt>
      <trkpt lat="44.53198" lon="6.70985">
        <ele>1919.8</ele>
        <time>2022-07-19T16:09:52Z</time>
      </trkpt>
      <trkpt lat="44.532" lon="6.70984">
        <ele>1919.8</ele>
        <time>2022-07-19T16:09:53Z</time>
      </trkpt>
      <trkpt lat="44.53201" lon="6.70983">
        <ele>1920</ele>
        <time>2022-07-19T16:09:54Z</time>
      </trkpt>
      <trkpt lat="44.53206" lon="6.70979">
        <ele>1920.6</ele>
        <time>2022-07-19T16:10:17Z</time>
      </trkpt>
      <trkpt lat="44.53207" lon="6.70979">
        <ele>1920.6</ele>
        <time>2022-07-19T16:10:18Z</time>
      </trkpt>
      <trkpt lat="44.53208" lon="6.70978">
        <ele>1920.8</ele>
        <time>2022-07-19T16:10:19Z</time>
      </trkpt>
      <trkpt lat="44.53209" lon="6.70977">
        <ele>1920.8</ele>
        <time>2022-07-19T16:10:20Z</time>
      </trkpt>
      <trkpt lat="44.53209" lon="6.70976">
        <ele>1920.8</ele>
        <time>2022-07-19T16:10:21Z</time>
      </trkpt>
      <trkpt lat="44.5321" lon="6.70976">
        <ele>1921</ele>
        <time>2022-07-19T16:10:22Z</time>
      </trkpt>
      <trkpt lat="44.53211" lon="6.70975">
        <ele>1921</ele>
        <time>2022-07-19T16:10:23Z</time>
      </trkpt>
      <trkpt lat="44.53212" lon="6.70974">
        <ele>1921.2</ele>
        <time>2022-07-19T16:10:24Z</time>
      </trkpt>
      <trkpt lat="44.53213" lon="6.70973">
        <ele>1921.2</ele>
        <time>2022-07-19T16:10:25Z</time>
      </trkpt>
      <trkpt lat="44.53214" lon="6.70973">
        <ele>1921.2</ele>
        <time>2022-07-19T16:10:26Z</time>
      </trkpt>
      <trkpt lat="44.53215" lon="6.70972">
        <ele>1921.6</ele>
        <time>2022-07-19T16:10:27Z</time>
      </trkpt>
      <trkpt lat="44.53216" lon="6.70971">
        <ele>1921.6</ele>
        <time>2022-07-19T16:10:28Z</time>
      </trkpt>
      <trkpt lat="44.53216" lon="6.7097">
        <ele>1921.8</ele>
        <time>2022-07-19T16:10:29Z</time>
      </trkpt>
      <trkpt lat="44.53217" lon="6.7097">
        <ele>1921.8</ele>
        <time>2022-07-19T16:10:30Z</time>
      </trkpt>
      <trkpt lat="44.53218" lon="6.70969">
        <ele>1922.2</ele>
        <time>2022-07-19T16:10:31Z</time>
      </trkpt>
      <trkpt lat="44.53219" lon="6.70968">
        <ele>1922.2</ele>
        <time>2022-07-19T16:10:32Z</time>
      </trkpt>
      <trkpt lat="44.53222" lon="6.70962">
        <ele>1922.8</ele>
        <time>2022-07-19T16:13:27Z</time>
      </trkpt>
      <trkpt lat="44.53224" lon="6.70961">
        <ele>1922.8</ele>
        <time>2022-07-19T16:13:28Z</time>
      </trkpt>
      <trkpt lat="44.53225" lon="6.7096">
        <ele>1923</ele>
        <time>2022-07-19T16:13:29Z</time>
      </trkpt>
      <trkpt lat="44.53226" lon="6.70959">
        <ele>1923.4</ele>
        <time>2022-07-19T16:13:30Z</time>
      </trkpt>
      <trkpt lat="44.53228" lon="6.70957">
        <ele>1923.6</ele>
        <time>2022-07-19T16:13:31Z</time>
      </trkpt>
      <trkpt lat="44.53229" lon="6.70956">
        <ele>1923.6</ele>
        <time>2022-07-19T16:13:32Z</time>
      </trkpt>
      <trkpt lat="44.5323" lon="6.70955">
        <ele>1924</ele>
        <time>2022-07-19T16:13:33Z</time>
      </trkpt>
      <trkpt lat="44.53231" lon="6.70953">
        <ele>1924.2</ele>
        <time>2022-07-19T16:13:34Z</time>
      </trkpt>
      <trkpt lat="44.53232" lon="6.70952">
        <ele>1924.2</ele>
        <time>2022-07-19T16:13:35Z</time>
      </trkpt>
      <trkpt lat="44.53233" lon="6.7095">
        <ele>1924.4</ele>
        <time>2022-07-19T16:13:36Z</time>
      </trkpt>
      <trkpt lat="44.53234" lon="6.70949">
        <ele>1924.4</ele>
        <time>2022-07-19T16:13:37Z</time>
      </trkpt>
      <trkpt lat="44.53235" lon="6.70948">
        <ele>1924.8</ele>
        <time>2022-07-19T16:13:38Z</time>
      </trkpt>
      <trkpt lat="44.53237" lon="6.70946">
        <ele>1924.8</ele>
        <time>2022-07-19T16:13:39Z</time>
      </trkpt>
      <trkpt lat="44.53238" lon="6.70945">
        <ele>1925.2</ele>
        <time>2022-07-19T16:13:40Z</time>
      </trkpt>
      <trkpt lat="44.53239" lon="6.70943">
        <ele>1925.2</ele>
        <time>2022-07-19T16:13:41Z</time>
      </trkpt>
      <trkpt lat="44.5324" lon="6.70942">
        <ele>1925.4</ele>
        <time>2022-07-19T16:13:42Z</time>
      </trkpt>
      <trkpt lat="44.53241" lon="6.7094">
        <ele>1925.4</ele>
        <time>2022-07-19T16:13:43Z</time>
      </trkpt>
      <trkpt lat="44.53242" lon="6.70939">
        <ele>1925.8</ele>
        <time>2022-07-19T16:13:44Z</time>
      </trkpt>
      <trkpt lat="44.53243" lon="6.70937">
        <ele>1925.8</ele>
        <time>2022-07-19T16:13:45Z</time>
      </trkpt>
      <trkpt lat="44.53244" lon="6.70936">
        <ele>1926</ele>
        <time>2022-07-19T16:13:46Z</time>
      </trkpt>
      <trkpt lat="44.53245" lon="6.70934">
        <ele>1926</ele>
        <time>2022-07-19T16:13:47Z</time>
      </trkpt>
      <trkpt lat="44.53246" lon="6.70932">
        <ele>1926.2</ele>
        <time>2022-07-19T16:13:48Z</time>
      </trkpt>
      <trkpt lat="44.53247" lon="6.7093">
        <ele>1926.2</ele>
        <time>2022-07-19T16:13:49Z</time>
      </trkpt>
      <trkpt lat="44.53248" lon="6.70928">
        <ele>1926.6</ele>
        <time>2022-07-19T16:13:50Z</time>
      </trkpt>
      <trkpt lat="44.53248" lon="6.70927">
        <ele>1926.8</ele>
        <time>2022-07-19T16:13:51Z</time>
      </trkpt>
      <trkpt lat="44.53249" lon="6.70925">
        <ele>1926.8</ele>
        <time>2022-07-19T16:13:52Z</time>
      </trkpt>
      <trkpt lat="44.5325" lon="6.70923">
        <ele>1927</ele>
        <time>2022-07-19T16:13:53Z</time>
      </trkpt>
      <trkpt lat="44.53251" lon="6.70921">
        <ele>1927</ele>
        <time>2022-07-19T16:13:54Z</time>
      </trkpt>
      <trkpt lat="44.53251" lon="6.70919">
        <ele>1927</ele>
        <time>2022-07-19T16:13:55Z</time>
      </trkpt>
      <trkpt lat="44.53252" lon="6.70917">
        <ele>1927.4</ele>
        <time>2022-07-19T16:13:56Z</time>
      </trkpt>
      <trkpt lat="44.53253" lon="6.70915">
        <ele>1927.4</ele>
        <time>2022-07-19T16:13:57Z</time>
      </trkpt>
      <trkpt lat="44.53253" lon="6.70913">
        <ele>1927.8</ele>
        <time>2022-07-19T16:13:58Z</time>
      </trkpt>
      <trkpt lat="44.53254" lon="6.70912">
        <ele>1927.8</ele>
        <time>2022-07-19T16:13:59Z</time>
      </trkpt>
      <trkpt lat="44.53255" lon="6.7091">
        <ele>1928</ele>
        <time>2022-07-19T16:14:00Z</time>
      </trkpt>
      <trkpt lat="44.53255" lon="6.70908">
        <ele>1928</ele>
        <time>2022-07-19T16:14:01Z</time>
      </trkpt>
      <trkpt lat="44.53256" lon="6.70907">
        <ele>1928</ele>
        <time>2022-07-19T16:14:02Z</time>
      </trkpt>
      <trkpt lat="44.53257" lon="6.70905">
        <ele>1928.2</ele>
        <time>2022-07-19T16:14:03Z</time>
      </trkpt>
      <trkpt lat="44.53258" lon="6.70903">
        <ele>1928.2</ele>
        <time>2022-07-19T16:14:04Z</time>
      </trkpt>
      <trkpt lat="44.53258" lon="6.70901">
        <ele>1928.4</ele>
        <time>2022-07-19T16:14:05Z</time>
      </trkpt>
      <trkpt lat="44.53259" lon="6.709">
        <ele>1928.4</ele>
        <time>2022-07-19T16:14:06Z</time>
      </trkpt>
      <trkpt lat="44.5326" lon="6.70898">
        <ele>1928.8</ele>
        <time>2022-07-19T16:14:07Z</time>
      </trkpt>
      <trkpt lat="44.53261" lon="6.70897">
        <ele>1929</ele>
        <time>2022-07-19T16:14:08Z</time>
      </trkpt>
      <trkpt lat="44.53261" lon="6.70895">
        <ele>1929</ele>
        <time>2022-07-19T16:14:09Z</time>
      </trkpt>
      <trkpt lat="44.53262" lon="6.70894">
        <ele>1929</ele>
        <time>2022-07-19T16:14:10Z</time>
      </trkpt>
      <trkpt lat="44.53263" lon="6.70892">
        <ele>1929.2</ele>
        <time>2022-07-19T16:14:11Z</time>
      </trkpt>
      <trkpt lat="44.53264" lon="6.70891">
        <ele>1929.2</ele>
        <time>2022-07-19T16:14:12Z</time>
      </trkpt>
      <trkpt lat="44.53265" lon="6.7089">
        <ele>1929.4</ele>
        <time>2022-07-19T16:14:13Z</time>
      </trkpt>
      <trkpt lat="44.53266" lon="6.70888">
        <ele>1929.4</ele>
        <time>2022-07-19T16:14:14Z</time>
      </trkpt>
      <trkpt lat="44.53267" lon="6.70887">
        <ele>1929.4</ele>
        <time>2022-07-19T16:14:15Z</time>
      </trkpt>
      <trkpt lat="44.53268" lon="6.70885">
        <ele>1929.8</ele>
        <time>2022-07-19T16:14:16Z</time>
      </trkpt>
      <trkpt lat="44.53269" lon="6.70884">
        <ele>1929.8</ele>
        <time>2022-07-19T16:14:17Z</time>
      </trkpt>
      <trkpt lat="44.5327" lon="6.70883">
        <ele>1930</ele>
        <time>2022-07-19T16:14:18Z</time>
      </trkpt>
      <trkpt lat="44.53271" lon="6.70881">
        <ele>1930</ele>
        <time>2022-07-19T16:14:19Z</time>
      </trkpt>
      <trkpt lat="44.53272" lon="6.7088">
        <ele>1930.4</ele>
        <time>2022-07-19T16:14:20Z</time>
      </trkpt>
      <trkpt lat="44.53272" lon="6.70878">
        <ele>1930.4</ele>
        <time>2022-07-19T16:14:21Z</time>
      </trkpt>
      <trkpt lat="44.53273" lon="6.70877">
        <ele>1930.6</ele>
        <time>2022-07-19T16:14:22Z</time>
      </trkpt>
      <trkpt lat="44.53274" lon="6.70875">
        <ele>1930.6</ele>
        <time>2022-07-19T16:14:23Z</time>
      </trkpt>
      <trkpt lat="44.53275" lon="6.70874">
        <ele>1930.8</ele>
        <time>2022-07-19T16:14:24Z</time>
      </trkpt>
      <trkpt lat="44.53276" lon="6.70874">
        <ele>1930.8</ele>
        <time>2022-07-19T16:14:25Z</time>
      </trkpt>
      <trkpt lat="44.53277" lon="6.70873">
        <ele>1931</ele>
        <time>2022-07-19T16:14:26Z</time>
      </trkpt>
      <trkpt lat="44.53278" lon="6.70871">
        <ele>1931</ele>
        <time>2022-07-19T16:14:27Z</time>
      </trkpt>
      <trkpt lat="44.53279" lon="6.7087">
        <ele>1931.4</ele>
        <time>2022-07-19T16:14:28Z</time>
      </trkpt>
      <trkpt lat="44.53283" lon="6.70865">
        <ele>1931.8</ele>
        <time>2022-07-19T16:14:32Z</time>
      </trkpt>
      <trkpt lat="44.53284" lon="6.70864">
        <ele>1931.8</ele>
        <time>2022-07-19T16:14:33Z</time>
      </trkpt>
      <trkpt lat="44.53284" lon="6.70862">
        <ele>1932.2</ele>
        <time>2022-07-19T16:14:34Z</time>
      </trkpt>
      <trkpt lat="44.53285" lon="6.7086">
        <ele>1932.2</ele>
        <time>2022-07-19T16:14:35Z</time>
      </trkpt>
      <trkpt lat="44.53286" lon="6.70859">
        <ele>1932.4</ele>
        <time>2022-07-19T16:14:36Z</time>
      </trkpt>
      <trkpt lat="44.53287" lon="6.70857">
        <ele>1932.4</ele>
        <time>2022-07-19T16:14:37Z</time>
      </trkpt>
      <trkpt lat="44.53287" lon="6.70855">
        <ele>1932.6</ele>
        <time>2022-07-19T16:14:38Z</time>
      </trkpt>
      <trkpt lat="44.53288" lon="6.70854">
        <ele>1932.8</ele>
        <time>2022-07-19T16:14:39Z</time>
      </trkpt>
      <trkpt lat="44.53289" lon="6.70852">
        <ele>1932.8</ele>
        <time>2022-07-19T16:14:40Z</time>
      </trkpt>
      <trkpt lat="44.5329" lon="6.70851">
        <ele>1932.8</ele>
        <time>2022-07-19T16:14:41Z</time>
      </trkpt>
      <trkpt lat="44.5329" lon="6.70849">
        <ele>1932.8</ele>
        <time>2022-07-19T16:14:42Z</time>
      </trkpt>
      <trkpt lat="44.53291" lon="6.70847">
        <ele>1933.2</ele>
        <time>2022-07-19T16:14:43Z</time>
      </trkpt>
      <trkpt lat="44.53291" lon="6.70845">
        <ele>1933.2</ele>
        <time>2022-07-19T16:14:44Z</time>
      </trkpt>
      <trkpt lat="44.53291" lon="6.70843">
        <ele>1933.4</ele>
        <time>2022-07-19T16:14:45Z</time>
      </trkpt>
      <trkpt lat="44.53292" lon="6.70841">
        <ele>1933.4</ele>
        <time>2022-07-19T16:14:46Z</time>
      </trkpt>
      <trkpt lat="44.53292" lon="6.70839">
        <ele>1933.6</ele>
        <time>2022-07-19T16:14:47Z</time>
      </trkpt>
      <trkpt lat="44.53292" lon="6.70836">
        <ele>1933.6</ele>
        <time>2022-07-19T16:14:48Z</time>
      </trkpt>
      <trkpt lat="44.53293" lon="6.70834">
        <ele>1933.6</ele>
        <time>2022-07-19T16:14:49Z</time>
      </trkpt>
      <trkpt lat="44.53293" lon="6.70832">
        <ele>1934</ele>
        <time>2022-07-19T16:14:50Z</time>
      </trkpt>
      <trkpt lat="44.53294" lon="6.7083">
        <ele>1934</ele>
        <time>2022-07-19T16:14:51Z</time>
      </trkpt>
      <trkpt lat="44.53294" lon="6.70828">
        <ele>1934</ele>
        <time>2022-07-19T16:14:52Z</time>
      </trkpt>
      <trkpt lat="44.53294" lon="6.70825">
        <ele>1934.4</ele>
        <time>2022-07-19T16:14:53Z</time>
      </trkpt>
      <trkpt lat="44.53294" lon="6.70823">
        <ele>1934.6</ele>
        <time>2022-07-19T16:14:54Z</time>
      </trkpt>
      <trkpt lat="44.53294" lon="6.7082">
        <ele>1934.6</ele>
        <time>2022-07-19T16:14:55Z</time>
      </trkpt>
      <trkpt lat="44.53294" lon="6.70818">
        <ele>1934.8</ele>
        <time>2022-07-19T16:14:56Z</time>
      </trkpt>
      <trkpt lat="44.53294" lon="6.70816">
        <ele>1934.8</ele>
        <time>2022-07-19T16:14:57Z</time>
      </trkpt>
      <trkpt lat="44.53294" lon="6.70814">
        <ele>1935.2</ele>
        <time>2022-07-19T16:14:58Z</time>
      </trkpt>
      <trkpt lat="44.53293" lon="6.70812">
        <ele>1935.2</ele>
        <time>2022-07-19T16:14:59Z</time>
      </trkpt>
      <trkpt lat="44.53293" lon="6.7081">
        <ele>1935.4</ele>
        <time>2022-07-19T16:15:00Z</time>
      </trkpt>
      <trkpt lat="44.53292" lon="6.70807">
        <ele>1935.6</ele>
        <time>2022-07-19T16:15:01Z</time>
      </trkpt>
      <trkpt lat="44.53292" lon="6.70805">
        <ele>1935.6</ele>
        <time>2022-07-19T16:15:02Z</time>
      </trkpt>
      <trkpt lat="44.53292" lon="6.70803">
        <ele>1936</ele>
        <time>2022-07-19T16:15:03Z</time>
      </trkpt>
      <trkpt lat="44.53292" lon="6.70801">
        <ele>1936</ele>
        <time>2022-07-19T16:15:04Z</time>
      </trkpt>
      <trkpt lat="44.53291" lon="6.70799">
        <ele>1936.4</ele>
        <time>2022-07-19T16:15:05Z</time>
      </trkpt>
      <trkpt lat="44.53291" lon="6.70797">
        <ele>1936.4</ele>
        <time>2022-07-19T16:15:06Z</time>
      </trkpt>
      <trkpt lat="44.53291" lon="6.70795">
        <ele>1936.6</ele>
        <time>2022-07-19T16:15:07Z</time>
      </trkpt>
      <trkpt lat="44.53291" lon="6.70793">
        <ele>1936.6</ele>
        <time>2022-07-19T16:15:08Z</time>
      </trkpt>
      <trkpt lat="44.5329" lon="6.70792">
        <ele>1937</ele>
        <time>2022-07-19T16:15:09Z</time>
      </trkpt>
      <trkpt lat="44.53289" lon="6.7079">
        <ele>1937</ele>
        <time>2022-07-19T16:15:10Z</time>
      </trkpt>
      <trkpt lat="44.53288" lon="6.70788">
        <ele>1937.2</ele>
        <time>2022-07-19T16:15:11Z</time>
      </trkpt>
      <trkpt lat="44.53288" lon="6.70786">
        <ele>1937.2</ele>
        <time>2022-07-19T16:15:12Z</time>
      </trkpt>
      <trkpt lat="44.53287" lon="6.70784">
        <ele>1937.6</ele>
        <time>2022-07-19T16:15:13Z</time>
      </trkpt>
      <trkpt lat="44.53286" lon="6.70783">
        <ele>1937.6</ele>
        <time>2022-07-19T16:15:14Z</time>
      </trkpt>
      <trkpt lat="44.53285" lon="6.70782">
        <ele>1937.8</ele>
        <time>2022-07-19T16:15:15Z</time>
      </trkpt>
      <trkpt lat="44.53284" lon="6.7078">
        <ele>1937.8</ele>
        <time>2022-07-19T16:15:16Z</time>
      </trkpt>
      <trkpt lat="44.53283" lon="6.70779">
        <ele>1938</ele>
        <time>2022-07-19T16:15:17Z</time>
      </trkpt>
      <trkpt lat="44.53282" lon="6.70777">
        <ele>1938</ele>
        <time>2022-07-19T16:15:18Z</time>
      </trkpt>
      <trkpt lat="44.5328" lon="6.70776">
        <ele>1938</ele>
        <time>2022-07-19T16:15:19Z</time>
      </trkpt>
      <trkpt lat="44.53279" lon="6.70774">
        <ele>1938.4</ele>
        <time>2022-07-19T16:15:20Z</time>
      </trkpt>
      <trkpt lat="44.53277" lon="6.70773">
        <ele>1938.4</ele>
        <time>2022-07-19T16:15:21Z</time>
      </trkpt>
      <trkpt lat="44.53275" lon="6.70772">
        <ele>1938.4</ele>
        <time>2022-07-19T16:15:22Z</time>
      </trkpt>
      <trkpt lat="44.53273" lon="6.70771">
        <ele>1938.4</ele>
        <time>2022-07-19T16:15:23Z</time>
      </trkpt>
      <trkpt lat="44.53271" lon="6.7077">
        <ele>1938.6</ele>
        <time>2022-07-19T16:15:24Z</time>
      </trkpt>
      <trkpt lat="44.53269" lon="6.7077">
        <ele>1938.6</ele>
        <time>2022-07-19T16:15:25Z</time>
      </trkpt>
      <trkpt lat="44.53267" lon="6.70769">
        <ele>1938.6</ele>
        <time>2022-07-19T16:15:26Z</time>
      </trkpt>
      <trkpt lat="44.53266" lon="6.70768">
        <ele>1939</ele>
        <time>2022-07-19T16:15:27Z</time>
      </trkpt>
      <trkpt lat="44.53264" lon="6.70767">
        <ele>1939</ele>
        <time>2022-07-19T16:15:28Z</time>
      </trkpt>
      <trkpt lat="44.53262" lon="6.70766">
        <ele>1939.2</ele>
        <time>2022-07-19T16:15:29Z</time>
      </trkpt>
      <trkpt lat="44.53261" lon="6.70765">
        <ele>1939.2</ele>
        <time>2022-07-19T16:15:30Z</time>
      </trkpt>
      <trkpt lat="44.53259" lon="6.70764">
        <ele>1939.6</ele>
        <time>2022-07-19T16:15:31Z</time>
      </trkpt>
      <trkpt lat="44.53257" lon="6.70763">
        <ele>1939.6</ele>
        <time>2022-07-19T16:15:32Z</time>
      </trkpt>
      <trkpt lat="44.53256" lon="6.70761">
        <ele>1939.8</ele>
        <time>2022-07-19T16:15:33Z</time>
      </trkpt>
      <trkpt lat="44.53254" lon="6.7076">
        <ele>1939.8</ele>
        <time>2022-07-19T16:15:34Z</time>
      </trkpt>
      <trkpt lat="44.53253" lon="6.70758">
        <ele>1940</ele>
        <time>2022-07-19T16:15:35Z</time>
      </trkpt>
      <trkpt lat="44.53251" lon="6.70757">
        <ele>1940</ele>
        <time>2022-07-19T16:15:36Z</time>
      </trkpt>
      <trkpt lat="44.5325" lon="6.70755">
        <ele>1940.4</ele>
        <time>2022-07-19T16:15:37Z</time>
      </trkpt>
      <trkpt lat="44.53249" lon="6.70754">
        <ele>1940.4</ele>
        <time>2022-07-19T16:15:38Z</time>
      </trkpt>
      <trkpt lat="44.53247" lon="6.70752">
        <ele>1940.6</ele>
        <time>2022-07-19T16:15:39Z</time>
      </trkpt>
      <trkpt lat="44.53246" lon="6.70751">
        <ele>1940.8</ele>
        <time>2022-07-19T16:15:40Z</time>
      </trkpt>
      <trkpt lat="44.53244" lon="6.70749">
        <ele>1941.2</ele>
        <time>2022-07-19T16:15:41Z</time>
      </trkpt>
      <trkpt lat="44.53243" lon="6.70748">
        <ele>1941.4</ele>
        <time>2022-07-19T16:15:42Z</time>
      </trkpt>
      <trkpt lat="44.53242" lon="6.70746">
        <ele>1941.6</ele>
        <time>2022-07-19T16:15:43Z</time>
      </trkpt>
      <trkpt lat="44.53241" lon="6.70744">
        <ele>1941.6</ele>
        <time>2022-07-19T16:15:44Z</time>
      </trkpt>
      <trkpt lat="44.5324" lon="6.70742">
        <ele>1942</ele>
        <time>2022-07-19T16:15:45Z</time>
      </trkpt>
      <trkpt lat="44.53239" lon="6.7074">
        <ele>1942</ele>
        <time>2022-07-19T16:15:46Z</time>
      </trkpt>
      <trkpt lat="44.53238" lon="6.70738">
        <ele>1942.2</ele>
        <time>2022-07-19T16:15:47Z</time>
      </trkpt>
      <trkpt lat="44.53238" lon="6.70735">
        <ele>1942.2</ele>
        <time>2022-07-19T16:15:48Z</time>
      </trkpt>
      <trkpt lat="44.53237" lon="6.70733">
        <ele>1942.4</ele>
        <time>2022-07-19T16:15:49Z</time>
      </trkpt>
      <trkpt lat="44.53237" lon="6.7073">
        <ele>1942.4</ele>
        <time>2022-07-19T16:15:50Z</time>
      </trkpt>
      <trkpt lat="44.53237" lon="6.70728">
        <ele>1942.6</ele>
        <time>2022-07-19T16:15:51Z</time>
      </trkpt>
      <trkpt lat="44.53237" lon="6.70725">
        <ele>1942.6</ele>
        <time>2022-07-19T16:15:52Z</time>
      </trkpt>
      <trkpt lat="44.53236" lon="6.70722">
        <ele>1943</ele>
        <time>2022-07-19T16:15:53Z</time>
      </trkpt>
      <trkpt lat="44.53236" lon="6.70719">
        <ele>1943</ele>
        <time>2022-07-19T16:15:54Z</time>
      </trkpt>
      <trkpt lat="44.53236" lon="6.70716">
        <ele>1943.2</ele>
        <time>2022-07-19T16:15:55Z</time>
      </trkpt>
      <trkpt lat="44.53235" lon="6.70714">
        <ele>1943.2</ele>
        <time>2022-07-19T16:15:56Z</time>
      </trkpt>
      <trkpt lat="44.53235" lon="6.70711">
        <ele>1943.6</ele>
        <time>2022-07-19T16:15:57Z</time>
      </trkpt>
      <trkpt lat="44.53235" lon="6.70708">
        <ele>1943.6</ele>
        <time>2022-07-19T16:15:58Z</time>
      </trkpt>
      <trkpt lat="44.53234" lon="6.70705">
        <ele>1944</ele>
        <time>2022-07-19T16:15:59Z</time>
      </trkpt>
      <trkpt lat="44.53234" lon="6.70702">
        <ele>1944</ele>
        <time>2022-07-19T16:16:00Z</time>
      </trkpt>
      <trkpt lat="44.53234" lon="6.70699">
        <ele>1944.2</ele>
        <time>2022-07-19T16:16:01Z</time>
      </trkpt>
      <trkpt lat="44.53235" lon="6.70697">
        <ele>1944.2</ele>
        <time>2022-07-19T16:16:02Z</time>
      </trkpt>
      <trkpt lat="44.53235" lon="6.70694">
        <ele>1944.6</ele>
        <time>2022-07-19T16:16:03Z</time>
      </trkpt>
      <trkpt lat="44.53235" lon="6.70691">
        <ele>1944.6</ele>
        <time>2022-07-19T16:16:04Z</time>
      </trkpt>
      <trkpt lat="44.53234" lon="6.70688">
        <ele>1944.8</ele>
        <time>2022-07-19T16:16:05Z</time>
      </trkpt>
      <trkpt lat="44.53234" lon="6.70686">
        <ele>1944.8</ele>
        <time>2022-07-19T16:16:06Z</time>
      </trkpt>
      <trkpt lat="44.53234" lon="6.70683">
        <ele>1945.2</ele>
        <time>2022-07-19T16:16:07Z</time>
      </trkpt>
      <trkpt lat="44.53234" lon="6.7068">
        <ele>1945.2</ele>
        <time>2022-07-19T16:16:08Z</time>
      </trkpt>
      <trkpt lat="44.53234" lon="6.70678">
        <ele>1945.6</ele>
        <time>2022-07-19T16:16:09Z</time>
      </trkpt>
      <trkpt lat="44.53234" lon="6.70675">
        <ele>1945.6</ele>
        <time>2022-07-19T16:16:10Z</time>
      </trkpt>
      <trkpt lat="44.53234" lon="6.70672">
        <ele>1945.8</ele>
        <time>2022-07-19T16:16:11Z</time>
      </trkpt>
      <trkpt lat="44.53234" lon="6.70669">
        <ele>1946</ele>
        <time>2022-07-19T16:16:13Z</time>
      </trkpt>
      <trkpt lat="44.53234" lon="6.70667">
        <ele>1946</ele>
        <time>2022-07-19T16:16:14Z</time>
      </trkpt>
      <trkpt lat="44.53233" lon="6.70664">
        <ele>1946.4</ele>
        <time>2022-07-19T16:16:15Z</time>
      </trkpt>
      <trkpt lat="44.53233" lon="6.70661">
        <ele>1946.4</ele>
        <time>2022-07-19T16:16:16Z</time>
      </trkpt>
      <trkpt lat="44.53233" lon="6.70659">
        <ele>1946.6</ele>
        <time>2022-07-19T16:16:17Z</time>
      </trkpt>
      <trkpt lat="44.53233" lon="6.70656">
        <ele>1946.6</ele>
        <time>2022-07-19T16:16:18Z</time>
      </trkpt>
      <trkpt lat="44.53234" lon="6.70653">
        <ele>1947</ele>
        <time>2022-07-19T16:16:19Z</time>
      </trkpt>
      <trkpt lat="44.53234" lon="6.70651">
        <ele>1947</ele>
        <time>2022-07-19T16:16:20Z</time>
      </trkpt>
      <trkpt lat="44.53234" lon="6.70648">
        <ele>1947</ele>
        <time>2022-07-19T16:16:21Z</time>
      </trkpt>
      <trkpt lat="44.53234" lon="6.70646">
        <ele>1947.4</ele>
        <time>2022-07-19T16:16:22Z</time>
      </trkpt>
      <trkpt lat="44.53234" lon="6.70643">
        <ele>1947.4</ele>
        <time>2022-07-19T16:16:23Z</time>
      </trkpt>
      <trkpt lat="44.53234" lon="6.70641">
        <ele>1947.6</ele>
        <time>2022-07-19T16:16:24Z</time>
      </trkpt>
      <trkpt lat="44.53234" lon="6.70638">
        <ele>1947.6</ele>
        <time>2022-07-19T16:16:25Z</time>
      </trkpt>
      <trkpt lat="44.53234" lon="6.70636">
        <ele>1947.6</ele>
        <time>2022-07-19T16:16:26Z</time>
      </trkpt>
      <trkpt lat="44.53234" lon="6.70633">
        <ele>1948</ele>
        <time>2022-07-19T16:16:27Z</time>
      </trkpt>
      <trkpt lat="44.53234" lon="6.70631">
        <ele>1948</ele>
        <time>2022-07-19T16:16:28Z</time>
      </trkpt>
      <trkpt lat="44.53234" lon="6.70629">
        <ele>1948</ele>
        <time>2022-07-19T16:16:29Z</time>
      </trkpt>
      <trkpt lat="44.53233" lon="6.70626">
        <ele>1948.2</ele>
        <time>2022-07-19T16:16:30Z</time>
      </trkpt>
      <trkpt lat="44.53233" lon="6.70624">
        <ele>1948.2</ele>
        <time>2022-07-19T16:16:31Z</time>
      </trkpt>
      <trkpt lat="44.53234" lon="6.70622">
        <ele>1948.4</ele>
        <time>2022-07-19T16:16:32Z</time>
      </trkpt>
      <trkpt lat="44.53234" lon="6.70619">
        <ele>1948.4</ele>
        <time>2022-07-19T16:16:33Z</time>
      </trkpt>
      <trkpt lat="44.53234" lon="6.70617">
        <ele>1948.8</ele>
        <time>2022-07-19T16:16:34Z</time>
      </trkpt>
      <trkpt lat="44.53234" lon="6.70615">
        <ele>1948.8</ele>
        <time>2022-07-19T16:16:35Z</time>
      </trkpt>
      <trkpt lat="44.53234" lon="6.70613">
        <ele>1949</ele>
        <time>2022-07-19T16:16:36Z</time>
      </trkpt>
      <trkpt lat="44.53234" lon="6.70611">
        <ele>1949</ele>
        <time>2022-07-19T16:16:37Z</time>
      </trkpt>
      <trkpt lat="44.53234" lon="6.70608">
        <ele>1949.2</ele>
        <time>2022-07-19T16:16:38Z</time>
      </trkpt>
      <trkpt lat="44.53234" lon="6.70606">
        <ele>1949.4</ele>
        <time>2022-07-19T16:16:39Z</time>
      </trkpt>
      <trkpt lat="44.53234" lon="6.70603">
        <ele>1949.4</ele>
        <time>2022-07-19T16:16:40Z</time>
      </trkpt>
      <trkpt lat="44.53234" lon="6.70601">
        <ele>1949.4</ele>
        <time>2022-07-19T16:16:41Z</time>
      </trkpt>
      <trkpt lat="44.53234" lon="6.70598">
        <ele>1949.8</ele>
        <time>2022-07-19T16:16:42Z</time>
      </trkpt>
      <trkpt lat="44.53234" lon="6.70596">
        <ele>1949.8</ele>
        <time>2022-07-19T16:16:43Z</time>
      </trkpt>
      <trkpt lat="44.53234" lon="6.70593">
        <ele>1950</ele>
        <time>2022-07-19T16:16:44Z</time>
      </trkpt>
      <trkpt lat="44.53234" lon="6.70591">
        <ele>1950</ele>
        <time>2022-07-19T16:16:45Z</time>
      </trkpt>
      <trkpt lat="44.53234" lon="6.70588">
        <ele>1950.4</ele>
        <time>2022-07-19T16:16:46Z</time>
      </trkpt>
      <trkpt lat="44.53234" lon="6.70586">
        <ele>1950.4</ele>
        <time>2022-07-19T16:16:47Z</time>
      </trkpt>
      <trkpt lat="44.53233" lon="6.70583">
        <ele>1950.6</ele>
        <time>2022-07-19T16:16:48Z</time>
      </trkpt>
      <trkpt lat="44.53233" lon="6.70581">
        <ele>1950.6</ele>
        <time>2022-07-19T16:16:49Z</time>
      </trkpt>
      <trkpt lat="44.53233" lon="6.70578">
        <ele>1951</ele>
        <time>2022-07-19T16:16:50Z</time>
      </trkpt>
      <trkpt lat="44.53233" lon="6.70575">
        <ele>1951</ele>
        <time>2022-07-19T16:16:51Z</time>
      </trkpt>
      <trkpt lat="44.53234" lon="6.70573">
        <ele>1951.2</ele>
        <time>2022-07-19T16:16:52Z</time>
      </trkpt>
      <trkpt lat="44.53234" lon="6.7057">
        <ele>1951.2</ele>
        <time>2022-07-19T16:16:53Z</time>
      </trkpt>
      <trkpt lat="44.53234" lon="6.70568">
        <ele>1951.6</ele>
        <time>2022-07-19T16:16:54Z</time>
      </trkpt>
      <trkpt lat="44.53233" lon="6.70565">
        <ele>1951.6</ele>
        <time>2022-07-19T16:16:55Z</time>
      </trkpt>
      <trkpt lat="44.53233" lon="6.70563">
        <ele>1951.8</ele>
        <time>2022-07-19T16:16:56Z</time>
      </trkpt>
      <trkpt lat="44.53233" lon="6.7056">
        <ele>1951.8</ele>
        <time>2022-07-19T16:16:57Z</time>
      </trkpt>
      <trkpt lat="44.53233" lon="6.70558">
        <ele>1952.2</ele>
        <time>2022-07-19T16:16:58Z</time>
      </trkpt>
      <trkpt lat="44.53233" lon="6.70555">
        <ele>1952.2</ele>
        <time>2022-07-19T16:16:59Z</time>
      </trkpt>
      <trkpt lat="44.53233" lon="6.70553">
        <ele>1952.2</ele>
        <time>2022-07-19T16:17:00Z</time>
      </trkpt>
      <trkpt lat="44.53233" lon="6.7055">
        <ele>1952.4</ele>
        <time>2022-07-19T16:17:01Z</time>
      </trkpt>
      <trkpt lat="44.53233" lon="6.70548">
        <ele>1952.4</ele>
        <time>2022-07-19T16:17:02Z</time>
      </trkpt>
      <trkpt lat="44.53233" lon="6.70545">
        <ele>1952.8</ele>
        <time>2022-07-19T16:17:03Z</time>
      </trkpt>
      <trkpt lat="44.53233" lon="6.70543">
        <ele>1952.8</ele>
        <time>2022-07-19T16:17:04Z</time>
      </trkpt>
      <trkpt lat="44.53233" lon="6.7054">
        <ele>1953</ele>
        <time>2022-07-19T16:17:05Z</time>
      </trkpt>
      <trkpt lat="44.53233" lon="6.70538">
        <ele>1953</ele>
        <time>2022-07-19T16:17:06Z</time>
      </trkpt>
      <trkpt lat="44.53232" lon="6.70536">
        <ele>1953.2</ele>
        <time>2022-07-19T16:17:07Z</time>
      </trkpt>
      <trkpt lat="44.53232" lon="6.70533">
        <ele>1953.2</ele>
        <time>2022-07-19T16:17:08Z</time>
      </trkpt>
      <trkpt lat="44.53232" lon="6.70531">
        <ele>1953.4</ele>
        <time>2022-07-19T16:17:09Z</time>
      </trkpt>
      <trkpt lat="44.53231" lon="6.70529">
        <ele>1953.4</ele>
        <time>2022-07-19T16:17:10Z</time>
      </trkpt>
      <trkpt lat="44.53231" lon="6.70526">
        <ele>1953.6</ele>
        <time>2022-07-19T16:17:11Z</time>
      </trkpt>
      <trkpt lat="44.53231" lon="6.70524">
        <ele>1953.6</ele>
        <time>2022-07-19T16:17:12Z</time>
      </trkpt>
      <trkpt lat="44.5323" lon="6.70521">
        <ele>1954</ele>
        <time>2022-07-19T16:17:13Z</time>
      </trkpt>
      <trkpt lat="44.5323" lon="6.70519">
        <ele>1954</ele>
        <time>2022-07-19T16:17:14Z</time>
      </trkpt>
      <trkpt lat="44.53229" lon="6.70517">
        <ele>1954.2</ele>
        <time>2022-07-19T16:17:15Z</time>
      </trkpt>
      <trkpt lat="44.53229" lon="6.70514">
        <ele>1954.4</ele>
        <time>2022-07-19T16:17:16Z</time>
      </trkpt>
      <trkpt lat="44.53228" lon="6.70512">
        <ele>1954.4</ele>
        <time>2022-07-19T16:17:17Z</time>
      </trkpt>
      <trkpt lat="44.53228" lon="6.7051">
        <ele>1954.8</ele>
        <time>2022-07-19T16:17:18Z</time>
      </trkpt>
      <trkpt lat="44.53227" lon="6.70507">
        <ele>1954.8</ele>
        <time>2022-07-19T16:17:19Z</time>
      </trkpt>
      <trkpt lat="44.53227" lon="6.70505">
        <ele>1954.8</ele>
        <time>2022-07-19T16:17:20Z</time>
      </trkpt>
      <trkpt lat="44.53226" lon="6.70502">
        <ele>1955</ele>
        <time>2022-07-19T16:17:21Z</time>
      </trkpt>
      <trkpt lat="44.53225" lon="6.70499">
        <ele>1955</ele>
        <time>2022-07-19T16:17:22Z</time>
      </trkpt>
      <trkpt lat="44.53225" lon="6.70497">
        <ele>1955.2</ele>
        <time>2022-07-19T16:17:23Z</time>
      </trkpt>
      <trkpt lat="44.53224" lon="6.70494">
        <ele>1955.2</ele>
        <time>2022-07-19T16:17:24Z</time>
      </trkpt>
      <trkpt lat="44.53223" lon="6.70492">
        <ele>1955.6</ele>
        <time>2022-07-19T16:17:25Z</time>
      </trkpt>
      <trkpt lat="44.53222" lon="6.7049">
        <ele>1955.6</ele>
        <time>2022-07-19T16:17:26Z</time>
      </trkpt>
      <trkpt lat="44.53221" lon="6.70488">
        <ele>1955.8</ele>
        <time>2022-07-19T16:17:27Z</time>
      </trkpt>
      <trkpt lat="44.5322" lon="6.70485">
        <ele>1955.8</ele>
        <time>2022-07-19T16:17:28Z</time>
      </trkpt>
      <trkpt lat="44.5322" lon="6.70483">
        <ele>1956.2</ele>
        <time>2022-07-19T16:17:29Z</time>
      </trkpt>
      <trkpt lat="44.53219" lon="6.7048">
        <ele>1956.2</ele>
        <time>2022-07-19T16:17:30Z</time>
      </trkpt>
      <trkpt lat="44.53219" lon="6.70478">
        <ele>1956.4</ele>
        <time>2022-07-19T16:17:31Z</time>
      </trkpt>
      <trkpt lat="44.53219" lon="6.70475">
        <ele>1956.4</ele>
        <time>2022-07-19T16:17:32Z</time>
      </trkpt>
      <trkpt lat="44.53218" lon="6.70473">
        <ele>1956.8</ele>
        <time>2022-07-19T16:17:33Z</time>
      </trkpt>
      <trkpt lat="44.53218" lon="6.70471">
        <ele>1956.8</ele>
        <time>2022-07-19T16:17:34Z</time>
      </trkpt>
      <trkpt lat="44.53217" lon="6.70468">
        <ele>1957</ele>
        <time>2022-07-19T16:17:35Z</time>
      </trkpt>
      <trkpt lat="44.53217" lon="6.70466">
        <ele>1957.2</ele>
        <time>2022-07-19T16:17:36Z</time>
      </trkpt>
      <trkpt lat="44.53216" lon="6.70464">
        <ele>1957.2</ele>
        <time>2022-07-19T16:17:37Z</time>
      </trkpt>
      <trkpt lat="44.53216" lon="6.70462">
        <ele>1957.4</ele>
        <time>2022-07-19T16:17:38Z</time>
      </trkpt>
      <trkpt lat="44.53215" lon="6.70459">
        <ele>1957.6</ele>
        <time>2022-07-19T16:17:39Z</time>
      </trkpt>
      <trkpt lat="44.53215" lon="6.70457">
        <ele>1957.6</ele>
        <time>2022-07-19T16:17:40Z</time>
      </trkpt>
      <trkpt lat="44.53214" lon="6.70455">
        <ele>1958</ele>
        <time>2022-07-19T16:17:41Z</time>
      </trkpt>
      <trkpt lat="44.53214" lon="6.70453">
        <ele>1958</ele>
        <time>2022-07-19T16:17:42Z</time>
      </trkpt>
      <trkpt lat="44.53214" lon="6.7045">
        <ele>1958.2</ele>
        <time>2022-07-19T16:17:43Z</time>
      </trkpt>
      <trkpt lat="44.53214" lon="6.70448">
        <ele>1958.2</ele>
        <time>2022-07-19T16:17:44Z</time>
      </trkpt>
      <trkpt lat="44.53214" lon="6.70445">
        <ele>1958.4</ele>
        <time>2022-07-19T16:17:45Z</time>
      </trkpt>
      <trkpt lat="44.53213" lon="6.70443">
        <ele>1958.4</ele>
        <time>2022-07-19T16:17:46Z</time>
      </trkpt>
      <trkpt lat="44.53213" lon="6.7044">
        <ele>1958.8</ele>
        <time>2022-07-19T16:17:47Z</time>
      </trkpt>
      <trkpt lat="44.53213" lon="6.70438">
        <ele>1959</ele>
        <time>2022-07-19T16:17:48Z</time>
      </trkpt>
      <trkpt lat="44.53213" lon="6.70436">
        <ele>1959</ele>
        <time>2022-07-19T16:17:49Z</time>
      </trkpt>
      <trkpt lat="44.53213" lon="6.70433">
        <ele>1959.4</ele>
        <time>2022-07-19T16:17:50Z</time>
      </trkpt>
      <trkpt lat="44.53213" lon="6.70431">
        <ele>1959.4</ele>
        <time>2022-07-19T16:17:51Z</time>
      </trkpt>
      <trkpt lat="44.53213" lon="6.70429">
        <ele>1959.6</ele>
        <time>2022-07-19T16:17:52Z</time>
      </trkpt>
      <trkpt lat="44.53213" lon="6.70427">
        <ele>1959.6</ele>
        <time>2022-07-19T16:17:53Z</time>
      </trkpt>
      <trkpt lat="44.53213" lon="6.70424">
        <ele>1959.8</ele>
        <time>2022-07-19T16:17:54Z</time>
      </trkpt>
      <trkpt lat="44.53213" lon="6.70422">
        <ele>1959.8</ele>
        <time>2022-07-19T16:17:55Z</time>
      </trkpt>
      <trkpt lat="44.53213" lon="6.7042">
        <ele>1960</ele>
        <time>2022-07-19T16:17:56Z</time>
      </trkpt>
      <trkpt lat="44.53214" lon="6.70417">
        <ele>1960</ele>
        <time>2022-07-19T16:17:57Z</time>
      </trkpt>
      <trkpt lat="44.53214" lon="6.70415">
        <ele>1960.2</ele>
        <time>2022-07-19T16:17:58Z</time>
      </trkpt>
      <trkpt lat="44.53214" lon="6.70413">
        <ele>1960.2</ele>
        <time>2022-07-19T16:17:59Z</time>
      </trkpt>
      <trkpt lat="44.53214" lon="6.70411">
        <ele>1960.4</ele>
        <time>2022-07-19T16:18:00Z</time>
      </trkpt>
      <trkpt lat="44.53214" lon="6.70408">
        <ele>1960.4</ele>
        <time>2022-07-19T16:18:01Z</time>
      </trkpt>
      <trkpt lat="44.53214" lon="6.70406">
        <ele>1960.8</ele>
        <time>2022-07-19T16:18:02Z</time>
      </trkpt>
      <trkpt lat="44.53215" lon="6.70403">
        <ele>1960.8</ele>
        <time>2022-07-19T16:18:03Z</time>
      </trkpt>
      <trkpt lat="44.53215" lon="6.70401">
        <ele>1961</ele>
        <time>2022-07-19T16:18:04Z</time>
      </trkpt>
      <trkpt lat="44.53215" lon="6.70399">
        <ele>1961</ele>
        <time>2022-07-19T16:18:05Z</time>
      </trkpt>
      <trkpt lat="44.53215" lon="6.70397">
        <ele>1961</ele>
        <time>2022-07-19T16:18:06Z</time>
      </trkpt>
      <trkpt lat="44.53215" lon="6.70395">
        <ele>1961.4</ele>
        <time>2022-07-19T16:18:07Z</time>
      </trkpt>
      <trkpt lat="44.53216" lon="6.70392">
        <ele>1961.4</ele>
        <time>2022-07-19T16:18:08Z</time>
      </trkpt>
      <trkpt lat="44.53216" lon="6.7039">
        <ele>1961.6</ele>
        <time>2022-07-19T16:18:09Z</time>
      </trkpt>
      <trkpt lat="44.53216" lon="6.70388">
        <ele>1961.6</ele>
        <time>2022-07-19T16:18:10Z</time>
      </trkpt>
      <trkpt lat="44.53216" lon="6.70386">
        <ele>1961.8</ele>
        <time>2022-07-19T16:18:11Z</time>
      </trkpt>
      <trkpt lat="44.53217" lon="6.70383">
        <ele>1961.8</ele>
        <time>2022-07-19T16:18:12Z</time>
      </trkpt>
      <trkpt lat="44.53217" lon="6.70381">
        <ele>1962</ele>
        <time>2022-07-19T16:18:13Z</time>
      </trkpt>
      <trkpt lat="44.53217" lon="6.70379">
        <ele>1962</ele>
        <time>2022-07-19T16:18:14Z</time>
      </trkpt>
      <trkpt lat="44.53217" lon="6.70377">
        <ele>1962.4</ele>
        <time>2022-07-19T16:18:15Z</time>
      </trkpt>
      <trkpt lat="44.53218" lon="6.70374">
        <ele>1962.4</ele>
        <time>2022-07-19T16:18:16Z</time>
      </trkpt>
      <trkpt lat="44.53218" lon="6.70372">
        <ele>1962.6</ele>
        <time>2022-07-19T16:18:17Z</time>
      </trkpt>
      <trkpt lat="44.53218" lon="6.7037">
        <ele>1962.6</ele>
        <time>2022-07-19T16:18:18Z</time>
      </trkpt>
      <trkpt lat="44.53218" lon="6.70368">
        <ele>1962.8</ele>
        <time>2022-07-19T16:18:19Z</time>
      </trkpt>
      <trkpt lat="44.53219" lon="6.70365">
        <ele>1962.8</ele>
        <time>2022-07-19T16:18:20Z</time>
      </trkpt>
      <trkpt lat="44.53219" lon="6.70363">
        <ele>1963.2</ele>
        <time>2022-07-19T16:18:21Z</time>
      </trkpt>
      <trkpt lat="44.53219" lon="6.70361">
        <ele>1963.4</ele>
        <time>2022-07-19T16:18:22Z</time>
      </trkpt>
      <trkpt lat="44.53219" lon="6.70358">
        <ele>1963.4</ele>
        <time>2022-07-19T16:18:23Z</time>
      </trkpt>
      <trkpt lat="44.53219" lon="6.70356">
        <ele>1963.6</ele>
        <time>2022-07-19T16:18:24Z</time>
      </trkpt>
      <trkpt lat="44.53219" lon="6.70354">
        <ele>1963.6</ele>
        <time>2022-07-19T16:18:25Z</time>
      </trkpt>
      <trkpt lat="44.53219" lon="6.70352">
        <ele>1963.8</ele>
        <time>2022-07-19T16:18:26Z</time>
      </trkpt>
      <trkpt lat="44.53219" lon="6.70349">
        <ele>1963.8</ele>
        <time>2022-07-19T16:18:27Z</time>
      </trkpt>
      <trkpt lat="44.53219" lon="6.70347">
        <ele>1964</ele>
        <time>2022-07-19T16:18:28Z</time>
      </trkpt>
      <trkpt lat="44.53219" lon="6.70345">
        <ele>1964</ele>
        <time>2022-07-19T16:18:29Z</time>
      </trkpt>
      <trkpt lat="44.53219" lon="6.70343">
        <ele>1964.2</ele>
        <time>2022-07-19T16:18:30Z</time>
      </trkpt>
      <trkpt lat="44.53219" lon="6.70341">
        <ele>1964.2</ele>
        <time>2022-07-19T16:18:31Z</time>
      </trkpt>
      <trkpt lat="44.5322" lon="6.70338">
        <ele>1964.2</ele>
        <time>2022-07-19T16:18:32Z</time>
      </trkpt>
      <trkpt lat="44.5322" lon="6.70336">
        <ele>1964.8</ele>
        <time>2022-07-19T16:18:33Z</time>
      </trkpt>
      <trkpt lat="44.5322" lon="6.70334">
        <ele>1965</ele>
        <time>2022-07-19T16:18:34Z</time>
      </trkpt>
      <trkpt lat="44.53221" lon="6.70332">
        <ele>1965</ele>
        <time>2022-07-19T16:18:35Z</time>
      </trkpt>
      <trkpt lat="44.53221" lon="6.7033">
        <ele>1965.2</ele>
        <time>2022-07-19T16:18:36Z</time>
      </trkpt>
      <trkpt lat="44.53221" lon="6.70328">
        <ele>1965.2</ele>
        <time>2022-07-19T16:18:37Z</time>
      </trkpt>
      <trkpt lat="44.53221" lon="6.70325">
        <ele>1965.6</ele>
        <time>2022-07-19T16:18:38Z</time>
      </trkpt>
      <trkpt lat="44.53221" lon="6.70323">
        <ele>1965.6</ele>
        <time>2022-07-19T16:18:39Z</time>
      </trkpt>
      <trkpt lat="44.53221" lon="6.70321">
        <ele>1965.8</ele>
        <time>2022-07-19T16:18:40Z</time>
      </trkpt>
      <trkpt lat="44.53221" lon="6.70319">
        <ele>1965.8</ele>
        <time>2022-07-19T16:18:41Z</time>
      </trkpt>
      <trkpt lat="44.53221" lon="6.70317">
        <ele>1965.8</ele>
        <time>2022-07-19T16:18:42Z</time>
      </trkpt>
      <trkpt lat="44.53221" lon="6.70314">
        <ele>1966.2</ele>
        <time>2022-07-19T16:18:43Z</time>
      </trkpt>
      <trkpt lat="44.53221" lon="6.70312">
        <ele>1966.2</ele>
        <time>2022-07-19T16:18:44Z</time>
      </trkpt>
      <trkpt lat="44.53221" lon="6.7031">
        <ele>1966.4</ele>
        <time>2022-07-19T16:18:45Z</time>
      </trkpt>
      <trkpt lat="44.53221" lon="6.70307">
        <ele>1966.4</ele>
        <time>2022-07-19T16:18:46Z</time>
      </trkpt>
      <trkpt lat="44.53221" lon="6.70305">
        <ele>1966.6</ele>
        <time>2022-07-19T16:18:47Z</time>
      </trkpt>
      <trkpt lat="44.53221" lon="6.70303">
        <ele>1966.6</ele>
        <time>2022-07-19T16:18:48Z</time>
      </trkpt>
      <trkpt lat="44.53221" lon="6.70301">
        <ele>1966.8</ele>
        <time>2022-07-19T16:18:49Z</time>
      </trkpt>
      <trkpt lat="44.53221" lon="6.70298">
        <ele>1966.8</ele>
        <time>2022-07-19T16:18:50Z</time>
      </trkpt>
      <trkpt lat="44.53221" lon="6.70296">
        <ele>1967.2</ele>
        <time>2022-07-19T16:18:51Z</time>
      </trkpt>
      <trkpt lat="44.5322" lon="6.70293">
        <ele>1967.2</ele>
        <time>2022-07-19T16:18:52Z</time>
      </trkpt>
      <trkpt lat="44.5322" lon="6.70291">
        <ele>1967.4</ele>
        <time>2022-07-19T16:18:53Z</time>
      </trkpt>
      <trkpt lat="44.5322" lon="6.70289">
        <ele>1967.4</ele>
        <time>2022-07-19T16:18:54Z</time>
      </trkpt>
      <trkpt lat="44.5322" lon="6.70287">
        <ele>1967.8</ele>
        <time>2022-07-19T16:18:55Z</time>
      </trkpt>
      <trkpt lat="44.53219" lon="6.70285">
        <ele>1967.8</ele>
        <time>2022-07-19T16:18:56Z</time>
      </trkpt>
      <trkpt lat="44.53219" lon="6.70282">
        <ele>1968</ele>
        <time>2022-07-19T16:18:57Z</time>
      </trkpt>
      <trkpt lat="44.53218" lon="6.7028">
        <ele>1968</ele>
        <time>2022-07-19T16:18:58Z</time>
      </trkpt>
      <trkpt lat="44.53218" lon="6.70278">
        <ele>1968.2</ele>
        <time>2022-07-19T16:18:59Z</time>
      </trkpt>
      <trkpt lat="44.53217" lon="6.70275">
        <ele>1968.2</ele>
        <time>2022-07-19T16:19:00Z</time>
      </trkpt>
      <trkpt lat="44.53217" lon="6.70273">
        <ele>1968.6</ele>
        <time>2022-07-19T16:19:01Z</time>
      </trkpt>
      <trkpt lat="44.53217" lon="6.7027">
        <ele>1968.6</ele>
        <time>2022-07-19T16:19:02Z</time>
      </trkpt>
      <trkpt lat="44.53216" lon="6.70268">
        <ele>1968.8</ele>
        <time>2022-07-19T16:19:03Z</time>
      </trkpt>
      <trkpt lat="44.53216" lon="6.70265">
        <ele>1968.8</ele>
        <time>2022-07-19T16:19:04Z</time>
      </trkpt>
      <trkpt lat="44.53215" lon="6.70263">
        <ele>1969</ele>
        <time>2022-07-19T16:19:05Z</time>
      </trkpt>
      <trkpt lat="44.53214" lon="6.70261">
        <ele>1969</ele>
        <time>2022-07-19T16:19:06Z</time>
      </trkpt>
      <trkpt lat="44.53213" lon="6.70258">
        <ele>1969.4</ele>
        <time>2022-07-19T16:19:07Z</time>
      </trkpt>
      <trkpt lat="44.53213" lon="6.70256">
        <ele>1969.4</ele>
        <time>2022-07-19T16:19:08Z</time>
      </trkpt>
      <trkpt lat="44.53212" lon="6.70254">
        <ele>1969.6</ele>
        <time>2022-07-19T16:19:09Z</time>
      </trkpt>
      <trkpt lat="44.53211" lon="6.70251">
        <ele>1969.6</ele>
        <time>2022-07-19T16:19:10Z</time>
      </trkpt>
      <trkpt lat="44.5321" lon="6.70246">
        <ele>1970</ele>
        <time>2022-07-19T16:19:11Z</time>
      </trkpt>
      <trkpt lat="44.53209" lon="6.70244">
        <ele>1970</ele>
        <time>2022-07-19T16:19:12Z</time>
      </trkpt>
      <trkpt lat="44.53209" lon="6.70242">
        <ele>1970.2</ele>
        <time>2022-07-19T16:19:13Z</time>
      </trkpt>
      <trkpt lat="44.53208" lon="6.70239">
        <ele>1970.2</ele>
        <time>2022-07-19T16:19:14Z</time>
      </trkpt>
      <trkpt lat="44.53207" lon="6.70237">
        <ele>1970.6</ele>
        <time>2022-07-19T16:19:15Z</time>
      </trkpt>
      <trkpt lat="44.53206" lon="6.70234">
        <ele>1970.6</ele>
        <time>2022-07-19T16:19:16Z</time>
      </trkpt>
      <trkpt lat="44.53206" lon="6.70232">
        <ele>1970.8</ele>
        <time>2022-07-19T16:19:17Z</time>
      </trkpt>
      <trkpt lat="44.53205" lon="6.7023">
        <ele>1970.8</ele>
        <time>2022-07-19T16:19:18Z</time>
      </trkpt>
      <trkpt lat="44.53204" lon="6.70227">
        <ele>1970.8</ele>
        <time>2022-07-19T16:19:19Z</time>
      </trkpt>
      <trkpt lat="44.53203" lon="6.70225">
        <ele>1971.2</ele>
        <time>2022-07-19T16:19:20Z</time>
      </trkpt>
      <trkpt lat="44.53202" lon="6.70223">
        <ele>1971.2</ele>
        <time>2022-07-19T16:19:21Z</time>
      </trkpt>
      <trkpt lat="44.53201" lon="6.70221">
        <ele>1971.4</ele>
        <time>2022-07-19T16:19:22Z</time>
      </trkpt>
      <trkpt lat="44.532" lon="6.70219">
        <ele>1971.4</ele>
        <time>2022-07-19T16:19:23Z</time>
      </trkpt>
      <trkpt lat="44.53199" lon="6.70217">
        <ele>1971.8</ele>
        <time>2022-07-19T16:19:24Z</time>
      </trkpt>
      <trkpt lat="44.53198" lon="6.70214">
        <ele>1971.8</ele>
        <time>2022-07-19T16:19:25Z</time>
      </trkpt>
      <trkpt lat="44.53198" lon="6.70212">
        <ele>1972</ele>
        <time>2022-07-19T16:19:26Z</time>
      </trkpt>
      <trkpt lat="44.53197" lon="6.70209">
        <ele>1972</ele>
        <time>2022-07-19T16:19:27Z</time>
      </trkpt>
      <trkpt lat="44.53197" lon="6.70207">
        <ele>1972.4</ele>
        <time>2022-07-19T16:19:28Z</time>
      </trkpt>
      <trkpt lat="44.53196" lon="6.70205">
        <ele>1972.4</ele>
        <time>2022-07-19T16:19:29Z</time>
      </trkpt>
      <trkpt lat="44.53195" lon="6.70203">
        <ele>1972.4</ele>
        <time>2022-07-19T16:19:30Z</time>
      </trkpt>
      <trkpt lat="44.53195" lon="6.702">
        <ele>1972.6</ele>
        <time>2022-07-19T16:19:31Z</time>
      </trkpt>
      <trkpt lat="44.53194" lon="6.70198">
        <ele>1972.6</ele>
        <time>2022-07-19T16:19:32Z</time>
      </trkpt>
      <trkpt lat="44.53193" lon="6.70196">
        <ele>1972.6</ele>
        <time>2022-07-19T16:19:33Z</time>
      </trkpt>
      <trkpt lat="44.53193" lon="6.70194">
        <ele>1972.8</ele>
        <time>2022-07-19T16:19:34Z</time>
      </trkpt>
      <trkpt lat="44.53192" lon="6.70192">
        <ele>1972.8</ele>
        <time>2022-07-19T16:19:35Z</time>
      </trkpt>
      <trkpt lat="44.53191" lon="6.70189">
        <ele>1972.8</ele>
        <time>2022-07-19T16:19:36Z</time>
      </trkpt>
      <trkpt lat="44.5319" lon="6.70187">
        <ele>1973.2</ele>
        <time>2022-07-19T16:19:37Z</time>
      </trkpt>
      <trkpt lat="44.53189" lon="6.70185">
        <ele>1973.2</ele>
        <time>2022-07-19T16:19:38Z</time>
      </trkpt>
      <trkpt lat="44.53188" lon="6.70183">
        <ele>1973.4</ele>
        <time>2022-07-19T16:19:39Z</time>
      </trkpt>
      <trkpt lat="44.53187" lon="6.70181">
        <ele>1973.4</ele>
        <time>2022-07-19T16:19:40Z</time>
      </trkpt>
      <trkpt lat="44.53186" lon="6.70179">
        <ele>1973.6</ele>
        <time>2022-07-19T16:19:41Z</time>
      </trkpt>
      <trkpt lat="44.53185" lon="6.70176">
        <ele>1973.6</ele>
        <time>2022-07-19T16:19:42Z</time>
      </trkpt>
      <trkpt lat="44.53184" lon="6.70174">
        <ele>1974</ele>
        <time>2022-07-19T16:19:43Z</time>
      </trkpt>
      <trkpt lat="44.53183" lon="6.70172">
        <ele>1974</ele>
        <time>2022-07-19T16:19:44Z</time>
      </trkpt>
      <trkpt lat="44.53182" lon="6.7017">
        <ele>1974.2</ele>
        <time>2022-07-19T16:19:45Z</time>
      </trkpt>
      <trkpt lat="44.53181" lon="6.70168">
        <ele>1974.2</ele>
        <time>2022-07-19T16:19:46Z</time>
      </trkpt>
      <trkpt lat="44.53181" lon="6.70165">
        <ele>1974.4</ele>
        <time>2022-07-19T16:19:47Z</time>
      </trkpt>
      <trkpt lat="44.5318" lon="6.70163">
        <ele>1974.4</ele>
        <time>2022-07-19T16:19:48Z</time>
      </trkpt>
      <trkpt lat="44.5318" lon="6.70161">
        <ele>1974.6</ele>
        <time>2022-07-19T16:19:49Z</time>
      </trkpt>
      <trkpt lat="44.53179" lon="6.70158">
        <ele>1974.6</ele>
        <time>2022-07-19T16:19:50Z</time>
      </trkpt>
      <trkpt lat="44.53178" lon="6.70156">
        <ele>1974.8</ele>
        <time>2022-07-19T16:19:51Z</time>
      </trkpt>
      <trkpt lat="44.53178" lon="6.70154">
        <ele>1974.8</ele>
        <time>2022-07-19T16:19:52Z</time>
      </trkpt>
      <trkpt lat="44.53179" lon="6.70151">
        <ele>1975.2</ele>
        <time>2022-07-19T16:19:53Z</time>
      </trkpt>
      <trkpt lat="44.53179" lon="6.70149">
        <ele>1975.2</ele>
        <time>2022-07-19T16:19:54Z</time>
      </trkpt>
      <trkpt lat="44.5318" lon="6.70147">
        <ele>1975.4</ele>
        <time>2022-07-19T16:19:55Z</time>
      </trkpt>
      <trkpt lat="44.53182" lon="6.70145">
        <ele>1975.6</ele>
        <time>2022-07-19T16:19:56Z</time>
      </trkpt>
      <trkpt lat="44.53183" lon="6.70143">
        <ele>1975.6</ele>
        <time>2022-07-19T16:19:57Z</time>
      </trkpt>
      <trkpt lat="44.53185" lon="6.70141">
        <ele>1975.6</ele>
        <time>2022-07-19T16:19:58Z</time>
      </trkpt>
      <trkpt lat="44.53187" lon="6.7014">
        <ele>1976</ele>
        <time>2022-07-19T16:19:59Z</time>
      </trkpt>
      <trkpt lat="44.53189" lon="6.7014">
        <ele>1976</ele>
        <time>2022-07-19T16:20:00Z</time>
      </trkpt>
      <trkpt lat="44.53191" lon="6.7014">
        <ele>1976.2</ele>
        <time>2022-07-19T16:20:01Z</time>
      </trkpt>
      <trkpt lat="44.53193" lon="6.7014">
        <ele>1976.2</ele>
        <time>2022-07-19T16:20:02Z</time>
      </trkpt>
      <trkpt lat="44.53195" lon="6.70141">
        <ele>1976.4</ele>
        <time>2022-07-19T16:20:03Z</time>
      </trkpt>
      <trkpt lat="44.53197" lon="6.70142">
        <ele>1976.4</ele>
        <time>2022-07-19T16:20:04Z</time>
      </trkpt>
      <trkpt lat="44.53199" lon="6.70143">
        <ele>1976.6</ele>
        <time>2022-07-19T16:20:05Z</time>
      </trkpt>
      <trkpt lat="44.53201" lon="6.70145">
        <ele>1976.6</ele>
        <time>2022-07-19T16:20:06Z</time>
      </trkpt>
      <trkpt lat="44.53203" lon="6.70147">
        <ele>1976.8</ele>
        <time>2022-07-19T16:20:07Z</time>
      </trkpt>
      <trkpt lat="44.53204" lon="6.70149">
        <ele>1976.8</ele>
        <time>2022-07-19T16:20:08Z</time>
      </trkpt>
      <trkpt lat="44.53205" lon="6.70152">
        <ele>1977.2</ele>
        <time>2022-07-19T16:20:09Z</time>
      </trkpt>
      <trkpt lat="44.53206" lon="6.70155">
        <ele>1977.2</ele>
        <time>2022-07-19T16:20:10Z</time>
      </trkpt>
      <trkpt lat="44.53207" lon="6.70158">
        <ele>1977.4</ele>
        <time>2022-07-19T16:20:11Z</time>
      </trkpt>
      <trkpt lat="44.53208" lon="6.70161">
        <ele>1977.4</ele>
        <time>2022-07-19T16:20:12Z</time>
      </trkpt>
      <trkpt lat="44.53209" lon="6.70164">
        <ele>1977.8</ele>
        <time>2022-07-19T16:20:13Z</time>
      </trkpt>
      <trkpt lat="44.5321" lon="6.70167">
        <ele>1977.8</ele>
        <time>2022-07-19T16:20:14Z</time>
      </trkpt>
      <trkpt lat="44.53211" lon="6.7017">
        <ele>1977.8</ele>
        <time>2022-07-19T16:20:15Z</time>
      </trkpt>
      <trkpt lat="44.53213" lon="6.70173">
        <ele>1978</ele>
        <time>2022-07-19T16:20:16Z</time>
      </trkpt>
      <trkpt lat="44.53214" lon="6.70176">
        <ele>1978</ele>
        <time>2022-07-19T16:20:17Z</time>
      </trkpt>
      <trkpt lat="44.53214" lon="6.70179">
        <ele>1978.4</ele>
        <time>2022-07-19T16:20:18Z</time>
      </trkpt>
      <trkpt lat="44.53215" lon="6.70182">
        <ele>1978.4</ele>
        <time>2022-07-19T16:20:19Z</time>
      </trkpt>
      <trkpt lat="44.53217" lon="6.70185">
        <ele>1978.6</ele>
        <time>2022-07-19T16:20:20Z</time>
      </trkpt>
      <trkpt lat="44.53217" lon="6.70188">
        <ele>1978.6</ele>
        <time>2022-07-19T16:20:21Z</time>
      </trkpt>
      <trkpt lat="44.53218" lon="6.70191">
        <ele>1978.8</ele>
        <time>2022-07-19T16:20:22Z</time>
      </trkpt>
      <trkpt lat="44.53219" lon="6.70194">
        <ele>1978.8</ele>
        <time>2022-07-19T16:20:23Z</time>
      </trkpt>
      <trkpt lat="44.5322" lon="6.70197">
        <ele>1979.2</ele>
        <time>2022-07-19T16:20:24Z</time>
      </trkpt>
      <trkpt lat="44.53221" lon="6.702">
        <ele>1979.2</ele>
        <time>2022-07-19T16:20:25Z</time>
      </trkpt>
      <trkpt lat="44.53221" lon="6.70203">
        <ele>1979.4</ele>
        <time>2022-07-19T16:20:26Z</time>
      </trkpt>
      <trkpt lat="44.53222" lon="6.70206">
        <ele>1979.4</ele>
        <time>2022-07-19T16:20:27Z</time>
      </trkpt>
      <trkpt lat="44.53223" lon="6.70209">
        <ele>1979.8</ele>
        <time>2022-07-19T16:20:28Z</time>
      </trkpt>
      <trkpt lat="44.53224" lon="6.70212">
        <ele>1979.8</ele>
        <time>2022-07-19T16:20:29Z</time>
      </trkpt>
      <trkpt lat="44.53224" lon="6.70215">
        <ele>1980</ele>
        <time>2022-07-19T16:20:30Z</time>
      </trkpt>
      <trkpt lat="44.53225" lon="6.70218">
        <ele>1980</ele>
        <time>2022-07-19T16:20:31Z</time>
      </trkpt>
      <trkpt lat="44.53225" lon="6.70221">
        <ele>1980.4</ele>
        <time>2022-07-19T16:20:32Z</time>
      </trkpt>
      <trkpt lat="44.53226" lon="6.70224">
        <ele>1980.4</ele>
        <time>2022-07-19T16:20:33Z</time>
      </trkpt>
      <trkpt lat="44.53227" lon="6.70226">
        <ele>1980.6</ele>
        <time>2022-07-19T16:20:34Z</time>
      </trkpt>
      <trkpt lat="44.53228" lon="6.70229">
        <ele>1980.6</ele>
        <time>2022-07-19T16:20:35Z</time>
      </trkpt>
      <trkpt lat="44.53229" lon="6.70232">
        <ele>1981</ele>
        <time>2022-07-19T16:20:36Z</time>
      </trkpt>
      <trkpt lat="44.5323" lon="6.70234">
        <ele>1981</ele>
        <time>2022-07-19T16:20:37Z</time>
      </trkpt>
      <trkpt lat="44.53231" lon="6.70237">
        <ele>1981.4</ele>
        <time>2022-07-19T16:20:38Z</time>
      </trkpt>
      <trkpt lat="44.53231" lon="6.70239">
        <ele>1981.4</ele>
        <time>2022-07-19T16:20:39Z</time>
      </trkpt>
      <trkpt lat="44.53232" lon="6.70242">
        <ele>1981.6</ele>
        <time>2022-07-19T16:20:40Z</time>
      </trkpt>
      <trkpt lat="44.53233" lon="6.70245">
        <ele>1981.6</ele>
        <time>2022-07-19T16:20:41Z</time>
      </trkpt>
      <trkpt lat="44.53233" lon="6.70248">
        <ele>1981.8</ele>
        <time>2022-07-19T16:20:42Z</time>
      </trkpt>
      <trkpt lat="44.53234" lon="6.70251">
        <ele>1981.8</ele>
        <time>2022-07-19T16:20:43Z</time>
      </trkpt>
      <trkpt lat="44.53234" lon="6.70255">
        <ele>1982.2</ele>
        <time>2022-07-19T16:20:44Z</time>
      </trkpt>
      <trkpt lat="44.53235" lon="6.70258">
        <ele>1982.4</ele>
        <time>2022-07-19T16:20:45Z</time>
      </trkpt>
      <trkpt lat="44.53236" lon="6.70261">
        <ele>1982.4</ele>
        <time>2022-07-19T16:20:46Z</time>
      </trkpt>
      <trkpt lat="44.53237" lon="6.70264">
        <ele>1982.8</ele>
        <time>2022-07-19T16:20:47Z</time>
      </trkpt>
      <trkpt lat="44.53238" lon="6.70267">
        <ele>1983.2</ele>
        <time>2022-07-19T16:20:48Z</time>
      </trkpt>
      <trkpt lat="44.53239" lon="6.7027">
        <ele>1983.2</ele>
        <time>2022-07-19T16:20:49Z</time>
      </trkpt>
      <trkpt lat="44.53239" lon="6.70272">
        <ele>1983.4</ele>
        <time>2022-07-19T16:20:50Z</time>
      </trkpt>
      <trkpt lat="44.5324" lon="6.70275">
        <ele>1983.8</ele>
        <time>2022-07-19T16:20:51Z</time>
      </trkpt>
      <trkpt lat="44.53241" lon="6.70278">
        <ele>1984</ele>
        <time>2022-07-19T16:20:52Z</time>
      </trkpt>
      <trkpt lat="44.53242" lon="6.7028">
        <ele>1984</ele>
        <time>2022-07-19T16:20:53Z</time>
      </trkpt>
      <trkpt lat="44.53242" lon="6.70283">
        <ele>1984.4</ele>
        <time>2022-07-19T16:20:54Z</time>
      </trkpt>
      <trkpt lat="44.53243" lon="6.70285">
        <ele>1984.4</ele>
        <time>2022-07-19T16:20:55Z</time>
      </trkpt>
      <trkpt lat="44.53244" lon="6.70288">
        <ele>1984.8</ele>
        <time>2022-07-19T16:20:56Z</time>
      </trkpt>
      <trkpt lat="44.53245" lon="6.7029">
        <ele>1984.8</ele>
        <time>2022-07-19T16:20:57Z</time>
      </trkpt>
      <trkpt lat="44.53246" lon="6.70292">
        <ele>1985</ele>
        <time>2022-07-19T16:20:58Z</time>
      </trkpt>
      <trkpt lat="44.53246" lon="6.70295">
        <ele>1985</ele>
        <time>2022-07-19T16:20:59Z</time>
      </trkpt>
      <trkpt lat="44.53247" lon="6.70297">
        <ele>1985.4</ele>
        <time>2022-07-19T16:21:00Z</time>
      </trkpt>
      <trkpt lat="44.53248" lon="6.70299">
        <ele>1985.6</ele>
        <time>2022-07-19T16:21:01Z</time>
      </trkpt>
      <trkpt lat="44.53248" lon="6.70301">
        <ele>1985.6</ele>
        <time>2022-07-19T16:21:02Z</time>
      </trkpt>
      <trkpt lat="44.53249" lon="6.70303">
        <ele>1986</ele>
        <time>2022-07-19T16:21:03Z</time>
      </trkpt>
      <trkpt lat="44.5325" lon="6.70305">
        <ele>1986</ele>
        <time>2022-07-19T16:21:04Z</time>
      </trkpt>
      <trkpt lat="44.53251" lon="6.70307">
        <ele>1986.4</ele>
        <time>2022-07-19T16:21:05Z</time>
      </trkpt>
      <trkpt lat="44.53252" lon="6.70308">
        <ele>1986.4</ele>
        <time>2022-07-19T16:21:06Z</time>
      </trkpt>
      <trkpt lat="44.53253" lon="6.7031">
        <ele>1986.8</ele>
        <time>2022-07-19T16:21:07Z</time>
      </trkpt>
      <trkpt lat="44.53254" lon="6.70312">
        <ele>1986.8</ele>
        <time>2022-07-19T16:21:08Z</time>
      </trkpt>
      <trkpt lat="44.53254" lon="6.70314">
        <ele>1987</ele>
        <time>2022-07-19T16:21:09Z</time>
      </trkpt>
      <trkpt lat="44.53255" lon="6.70316">
        <ele>1987</ele>
        <time>2022-07-19T16:21:10Z</time>
      </trkpt>
      <trkpt lat="44.53256" lon="6.70318">
        <ele>1987.2</ele>
        <time>2022-07-19T16:21:11Z</time>
      </trkpt>
      <trkpt lat="44.53257" lon="6.7032">
        <ele>1987.6</ele>
        <time>2022-07-19T16:21:12Z</time>
      </trkpt>
      <trkpt lat="44.53258" lon="6.70322">
        <ele>1987.6</ele>
        <time>2022-07-19T16:21:13Z</time>
      </trkpt>
      <trkpt lat="44.53259" lon="6.70324">
        <ele>1987.8</ele>
        <time>2022-07-19T16:21:14Z</time>
      </trkpt>
      <trkpt lat="44.5326" lon="6.70326">
        <ele>1987.8</ele>
        <time>2022-07-19T16:21:15Z</time>
      </trkpt>
      <trkpt lat="44.53261" lon="6.70327">
        <ele>1988</ele>
        <time>2022-07-19T16:21:16Z</time>
      </trkpt>
      <trkpt lat="44.53262" lon="6.70329">
        <ele>1988</ele>
        <time>2022-07-19T16:21:17Z</time>
      </trkpt>
      <trkpt lat="44.53263" lon="6.70331">
        <ele>1988.4</ele>
        <time>2022-07-19T16:21:18Z</time>
      </trkpt>
      <trkpt lat="44.53264" lon="6.70332">
        <ele>1988.4</ele>
        <time>2022-07-19T16:21:19Z</time>
      </trkpt>
      <trkpt lat="44.53265" lon="6.70334">
        <ele>1988.4</ele>
        <time>2022-07-19T16:21:20Z</time>
      </trkpt>
      <trkpt lat="44.53266" lon="6.70336">
        <ele>1988.4</ele>
        <time>2022-07-19T16:21:21Z</time>
      </trkpt>
      <trkpt lat="44.53268" lon="6.70338">
        <ele>1988.6</ele>
        <time>2022-07-19T16:21:22Z</time>
      </trkpt>
      <trkpt lat="44.53269" lon="6.7034">
        <ele>1988.6</ele>
        <time>2022-07-19T16:21:23Z</time>
      </trkpt>
      <trkpt lat="44.5327" lon="6.70341">
        <ele>1989</ele>
        <time>2022-07-19T16:21:24Z</time>
      </trkpt>
      <trkpt lat="44.53271" lon="6.70343">
        <ele>1989</ele>
        <time>2022-07-19T16:21:25Z</time>
      </trkpt>
      <trkpt lat="44.53272" lon="6.70346">
        <ele>1989</ele>
        <time>2022-07-19T16:21:26Z</time>
      </trkpt>
      <trkpt lat="44.53272" lon="6.70348">
        <ele>1989.2</ele>
        <time>2022-07-19T16:21:27Z</time>
      </trkpt>
      <trkpt lat="44.53273" lon="6.7035">
        <ele>1989.2</ele>
        <time>2022-07-19T16:21:28Z</time>
      </trkpt>
      <trkpt lat="44.53274" lon="6.70352">
        <ele>1989.4</ele>
        <time>2022-07-19T16:21:29Z</time>
      </trkpt>
      <trkpt lat="44.53275" lon="6.70354">
        <ele>1989.6</ele>
        <time>2022-07-19T16:21:30Z</time>
      </trkpt>
      <trkpt lat="44.53276" lon="6.70356">
        <ele>1989.6</ele>
        <time>2022-07-19T16:21:31Z</time>
      </trkpt>
      <trkpt lat="44.53277" lon="6.70357">
        <ele>1990</ele>
        <time>2022-07-19T16:21:32Z</time>
      </trkpt>
      <trkpt lat="44.53278" lon="6.70359">
        <ele>1990</ele>
        <time>2022-07-19T16:21:33Z</time>
      </trkpt>
      <trkpt lat="44.53279" lon="6.70361">
        <ele>1990.4</ele>
        <time>2022-07-19T16:21:34Z</time>
      </trkpt>
      <trkpt lat="44.5328" lon="6.70362">
        <ele>1990.4</ele>
        <time>2022-07-19T16:21:35Z</time>
      </trkpt>
      <trkpt lat="44.53281" lon="6.70365">
        <ele>1990.6</ele>
        <time>2022-07-19T16:21:36Z</time>
      </trkpt>
      <trkpt lat="44.53282" lon="6.70367">
        <ele>1990.6</ele>
        <time>2022-07-19T16:21:37Z</time>
      </trkpt>
      <trkpt lat="44.53282" lon="6.70369">
        <ele>1990.8</ele>
        <time>2022-07-19T16:21:38Z</time>
      </trkpt>
      <trkpt lat="44.53283" lon="6.70371">
        <ele>1990.8</ele>
        <time>2022-07-19T16:21:39Z</time>
      </trkpt>
      <trkpt lat="44.53284" lon="6.70373">
        <ele>1991.4</ele>
        <time>2022-07-19T16:21:40Z</time>
      </trkpt>
      <trkpt lat="44.53284" lon="6.70375">
        <ele>1991.4</ele>
        <time>2022-07-19T16:21:41Z</time>
      </trkpt>
      <trkpt lat="44.53284" lon="6.70377">
        <ele>1991.6</ele>
        <time>2022-07-19T16:21:42Z</time>
      </trkpt>
      <trkpt lat="44.53285" lon="6.70379">
        <ele>1991.8</ele>
        <time>2022-07-19T16:21:43Z</time>
      </trkpt>
      <trkpt lat="44.53285" lon="6.70381">
        <ele>1991.8</ele>
        <time>2022-07-19T16:21:44Z</time>
      </trkpt>
      <trkpt lat="44.53286" lon="6.70383">
        <ele>1992</ele>
        <time>2022-07-19T16:21:45Z</time>
      </trkpt>
      <trkpt lat="44.53287" lon="6.70385">
        <ele>1992</ele>
        <time>2022-07-19T16:21:46Z</time>
      </trkpt>
      <trkpt lat="44.53287" lon="6.70387">
        <ele>1992.2</ele>
        <time>2022-07-19T16:21:47Z</time>
      </trkpt>
      <trkpt lat="44.53288" lon="6.70389">
        <ele>1992.2</ele>
        <time>2022-07-19T16:21:48Z</time>
      </trkpt>
      <trkpt lat="44.53288" lon="6.70391">
        <ele>1992.4</ele>
        <time>2022-07-19T16:21:49Z</time>
      </trkpt>
      <trkpt lat="44.53289" lon="6.70393">
        <ele>1992.6</ele>
        <time>2022-07-19T16:21:50Z</time>
      </trkpt>
      <trkpt lat="44.5329" lon="6.70395">
        <ele>1992.8</ele>
        <time>2022-07-19T16:21:51Z</time>
      </trkpt>
      <trkpt lat="44.5329" lon="6.70397">
        <ele>1992.8</ele>
        <time>2022-07-19T16:21:52Z</time>
      </trkpt>
      <trkpt lat="44.5329" lon="6.70399">
        <ele>1993.2</ele>
        <time>2022-07-19T16:21:53Z</time>
      </trkpt>
      <trkpt lat="44.53291" lon="6.70401">
        <ele>1993.2</ele>
        <time>2022-07-19T16:21:54Z</time>
      </trkpt>
      <trkpt lat="44.53291" lon="6.70403">
        <ele>1993.4</ele>
        <time>2022-07-19T16:21:55Z</time>
      </trkpt>
      <trkpt lat="44.53291" lon="6.70404">
        <ele>1993.4</ele>
        <time>2022-07-19T16:21:56Z</time>
      </trkpt>
      <trkpt lat="44.53292" lon="6.70406">
        <ele>1993.8</ele>
        <time>2022-07-19T16:21:57Z</time>
      </trkpt>
      <trkpt lat="44.53292" lon="6.70408">
        <ele>1993.8</ele>
        <time>2022-07-19T16:21:58Z</time>
      </trkpt>
      <trkpt lat="44.53293" lon="6.7041">
        <ele>1994</ele>
        <time>2022-07-19T16:21:59Z</time>
      </trkpt>
      <trkpt lat="44.53293" lon="6.70412">
        <ele>1994</ele>
        <time>2022-07-19T16:22:00Z</time>
      </trkpt>
      <trkpt lat="44.53293" lon="6.70414">
        <ele>1994.2</ele>
        <time>2022-07-19T16:22:01Z</time>
      </trkpt>
      <trkpt lat="44.53293" lon="6.70416">
        <ele>1994.2</ele>
        <time>2022-07-19T16:22:02Z</time>
      </trkpt>
      <trkpt lat="44.53294" lon="6.70418">
        <ele>1994.6</ele>
        <time>2022-07-19T16:22:03Z</time>
      </trkpt>
      <trkpt lat="44.53294" lon="6.7042">
        <ele>1994.6</ele>
        <time>2022-07-19T16:22:04Z</time>
      </trkpt>
      <trkpt lat="44.53295" lon="6.70422">
        <ele>1994.8</ele>
        <time>2022-07-19T16:22:05Z</time>
      </trkpt>
      <trkpt lat="44.53295" lon="6.70424">
        <ele>1994.8</ele>
        <time>2022-07-19T16:22:06Z</time>
      </trkpt>
      <trkpt lat="44.53296" lon="6.70426">
        <ele>1995.2</ele>
        <time>2022-07-19T16:22:07Z</time>
      </trkpt>
      <trkpt lat="44.53296" lon="6.70428">
        <ele>1995.2</ele>
        <time>2022-07-19T16:22:08Z</time>
      </trkpt>
      <trkpt lat="44.53296" lon="6.7043">
        <ele>1995.4</ele>
        <time>2022-07-19T16:22:09Z</time>
      </trkpt>
      <trkpt lat="44.53297" lon="6.70432">
        <ele>1995.4</ele>
        <time>2022-07-19T16:22:10Z</time>
      </trkpt>
      <trkpt lat="44.53298" lon="6.70434">
        <ele>1995.8</ele>
        <time>2022-07-19T16:22:11Z</time>
      </trkpt>
      <trkpt lat="44.53298" lon="6.70436">
        <ele>1995.8</ele>
        <time>2022-07-19T16:22:12Z</time>
      </trkpt>
      <trkpt lat="44.53299" lon="6.70437">
        <ele>1996</ele>
        <time>2022-07-19T16:22:13Z</time>
      </trkpt>
      <trkpt lat="44.533" lon="6.70439">
        <ele>1996</ele>
        <time>2022-07-19T16:22:14Z</time>
      </trkpt>
      <trkpt lat="44.533" lon="6.70441">
        <ele>1996.4</ele>
        <time>2022-07-19T16:22:15Z</time>
      </trkpt>
      <trkpt lat="44.53301" lon="6.70443">
        <ele>1996.4</ele>
        <time>2022-07-19T16:22:16Z</time>
      </trkpt>
      <trkpt lat="44.53301" lon="6.70445">
        <ele>1996.8</ele>
        <time>2022-07-19T16:22:17Z</time>
      </trkpt>
      <trkpt lat="44.53302" lon="6.70447">
        <ele>1996.8</ele>
        <time>2022-07-19T16:22:18Z</time>
      </trkpt>
      <trkpt lat="44.53303" lon="6.70449">
        <ele>1997</ele>
        <time>2022-07-19T16:22:19Z</time>
      </trkpt>
      <trkpt lat="44.53303" lon="6.70451">
        <ele>1997</ele>
        <time>2022-07-19T16:22:20Z</time>
      </trkpt>
      <trkpt lat="44.53304" lon="6.70453">
        <ele>1997.2</ele>
        <time>2022-07-19T16:22:21Z</time>
      </trkpt>
      <trkpt lat="44.53305" lon="6.70454">
        <ele>1997.2</ele>
        <time>2022-07-19T16:22:22Z</time>
      </trkpt>
      <trkpt lat="44.53306" lon="6.70456">
        <ele>1997.6</ele>
        <time>2022-07-19T16:22:23Z</time>
      </trkpt>
      <trkpt lat="44.53307" lon="6.70458">
        <ele>1997.6</ele>
        <time>2022-07-19T16:22:24Z</time>
      </trkpt>
      <trkpt lat="44.53308" lon="6.70459">
        <ele>1997.8</ele>
        <time>2022-07-19T16:22:25Z</time>
      </trkpt>
      <trkpt lat="44.53309" lon="6.70461">
        <ele>1997.8</ele>
        <time>2022-07-19T16:22:26Z</time>
      </trkpt>
      <trkpt lat="44.5331" lon="6.70462">
        <ele>1998</ele>
        <time>2022-07-19T16:22:27Z</time>
      </trkpt>
      <trkpt lat="44.53311" lon="6.70464">
        <ele>1998</ele>
        <time>2022-07-19T16:22:28Z</time>
      </trkpt>
      <trkpt lat="44.53312" lon="6.70465">
        <ele>1998.2</ele>
        <time>2022-07-19T16:22:29Z</time>
      </trkpt>
      <trkpt lat="44.53313" lon="6.70466">
        <ele>1998.2</ele>
        <time>2022-07-19T16:22:30Z</time>
      </trkpt>
      <trkpt lat="44.53314" lon="6.70468">
        <ele>1998.4</ele>
        <time>2022-07-19T16:22:31Z</time>
      </trkpt>
      <trkpt lat="44.53316" lon="6.70469">
        <ele>1998.4</ele>
        <time>2022-07-19T16:22:32Z</time>
      </trkpt>
      <trkpt lat="44.53317" lon="6.7047">
        <ele>1998.8</ele>
        <time>2022-07-19T16:22:33Z</time>
      </trkpt>
      <trkpt lat="44.53319" lon="6.70471">
        <ele>1998.8</ele>
        <time>2022-07-19T16:22:34Z</time>
      </trkpt>
      <trkpt lat="44.53321" lon="6.70471">
        <ele>1999</ele>
        <time>2022-07-19T16:22:35Z</time>
      </trkpt>
      <trkpt lat="44.53322" lon="6.70472">
        <ele>1999</ele>
        <time>2022-07-19T16:22:36Z</time>
      </trkpt>
      <trkpt lat="44.53324" lon="6.70473">
        <ele>1999.2</ele>
        <time>2022-07-19T16:22:37Z</time>
      </trkpt>
      <trkpt lat="44.53325" lon="6.70473">
        <ele>1999.2</ele>
        <time>2022-07-19T16:22:38Z</time>
      </trkpt>
      <trkpt lat="44.53326" lon="6.70474">
        <ele>1999.6</ele>
        <time>2022-07-19T16:22:39Z</time>
      </trkpt>
      <trkpt lat="44.53328" lon="6.70474">
        <ele>1999.6</ele>
        <time>2022-07-19T16:22:40Z</time>
      </trkpt>
      <trkpt lat="44.5333" lon="6.70475">
        <ele>1999.6</ele>
        <time>2022-07-19T16:22:41Z</time>
      </trkpt>
      <trkpt lat="44.53331" lon="6.70475">
        <ele>2000</ele>
        <time>2022-07-19T16:22:42Z</time>
      </trkpt>
      <trkpt lat="44.53333" lon="6.70475">
        <ele>2000</ele>
        <time>2022-07-19T16:22:43Z</time>
      </trkpt>
      <trkpt lat="44.53335" lon="6.70474">
        <ele>2000.2</ele>
        <time>2022-07-19T16:22:44Z</time>
      </trkpt>
      <trkpt lat="44.53336" lon="6.70474">
        <ele>2000.2</ele>
        <time>2022-07-19T16:22:45Z</time>
      </trkpt>
      <trkpt lat="44.53338" lon="6.70474">
        <ele>2000.4</ele>
        <time>2022-07-19T16:22:46Z</time>
      </trkpt>
      <trkpt lat="44.53339" lon="6.70475">
        <ele>2000.4</ele>
        <time>2022-07-19T16:22:47Z</time>
      </trkpt>
      <trkpt lat="44.53341" lon="6.70474">
        <ele>2000.8</ele>
        <time>2022-07-19T16:22:48Z</time>
      </trkpt>
      <trkpt lat="44.53343" lon="6.70474">
        <ele>2000.8</ele>
        <time>2022-07-19T16:22:49Z</time>
      </trkpt>
      <trkpt lat="44.53344" lon="6.70473">
        <ele>2001.2</ele>
        <time>2022-07-19T16:22:50Z</time>
      </trkpt>
      <trkpt lat="44.53346" lon="6.70473">
        <ele>2001.2</ele>
        <time>2022-07-19T16:22:51Z</time>
      </trkpt>
      <trkpt lat="44.53347" lon="6.70473">
        <ele>2001.4</ele>
        <time>2022-07-19T16:22:52Z</time>
      </trkpt>
      <trkpt lat="44.53349" lon="6.70473">
        <ele>2001.4</ele>
        <time>2022-07-19T16:22:53Z</time>
      </trkpt>
      <trkpt lat="44.53351" lon="6.70472">
        <ele>2001.8</ele>
        <time>2022-07-19T16:22:54Z</time>
      </trkpt>
      <trkpt lat="44.53352" lon="6.70472">
        <ele>2001.8</ele>
        <time>2022-07-19T16:22:55Z</time>
      </trkpt>
      <trkpt lat="44.53354" lon="6.70471">
        <ele>2002</ele>
        <time>2022-07-19T16:22:56Z</time>
      </trkpt>
      <trkpt lat="44.53356" lon="6.7047">
        <ele>2002</ele>
        <time>2022-07-19T16:22:57Z</time>
      </trkpt>
      <trkpt lat="44.53357" lon="6.70469">
        <ele>2002.4</ele>
        <time>2022-07-19T16:22:58Z</time>
      </trkpt>
      <trkpt lat="44.53359" lon="6.70468">
        <ele>2002.4</ele>
        <time>2022-07-19T16:22:59Z</time>
      </trkpt>
      <trkpt lat="44.53361" lon="6.70467">
        <ele>2002.6</ele>
        <time>2022-07-19T16:23:00Z</time>
      </trkpt>
      <trkpt lat="44.53362" lon="6.70467">
        <ele>2002.8</ele>
        <time>2022-07-19T16:23:01Z</time>
      </trkpt>
      <trkpt lat="44.53364" lon="6.70466">
        <ele>2002.8</ele>
        <time>2022-07-19T16:23:02Z</time>
      </trkpt>
      <trkpt lat="44.53365" lon="6.70465">
        <ele>2003</ele>
        <time>2022-07-19T16:23:03Z</time>
      </trkpt>
      <trkpt lat="44.53367" lon="6.70464">
        <ele>2003</ele>
        <time>2022-07-19T16:23:04Z</time>
      </trkpt>
      <trkpt lat="44.53368" lon="6.70463">
        <ele>2003.4</ele>
        <time>2022-07-19T16:23:05Z</time>
      </trkpt>
      <trkpt lat="44.5337" lon="6.70463">
        <ele>2003.4</ele>
        <time>2022-07-19T16:23:06Z</time>
      </trkpt>
      <trkpt lat="44.53371" lon="6.70462">
        <ele>2003.6</ele>
        <time>2022-07-19T16:23:07Z</time>
      </trkpt>
      <trkpt lat="44.53373" lon="6.70461">
        <ele>2003.6</ele>
        <time>2022-07-19T16:23:08Z</time>
      </trkpt>
      <trkpt lat="44.53374" lon="6.7046">
        <ele>2003.8</ele>
        <time>2022-07-19T16:23:09Z</time>
      </trkpt>
      <trkpt lat="44.53375" lon="6.70458">
        <ele>2003.8</ele>
        <time>2022-07-19T16:23:10Z</time>
      </trkpt>
      <trkpt lat="44.53377" lon="6.70457">
        <ele>2004.2</ele>
        <time>2022-07-19T16:23:11Z</time>
      </trkpt>
      <trkpt lat="44.53378" lon="6.70457">
        <ele>2004.2</ele>
        <time>2022-07-19T16:23:12Z</time>
      </trkpt>
      <trkpt lat="44.5338" lon="6.70456">
        <ele>2004.4</ele>
        <time>2022-07-19T16:23:13Z</time>
      </trkpt>
      <trkpt lat="44.53381" lon="6.70455">
        <ele>2004.4</ele>
        <time>2022-07-19T16:23:14Z</time>
      </trkpt>
      <trkpt lat="44.53383" lon="6.70455">
        <ele>2004.8</ele>
        <time>2022-07-19T16:23:15Z</time>
      </trkpt>
      <trkpt lat="44.53384" lon="6.70454">
        <ele>2004.8</ele>
        <time>2022-07-19T16:23:16Z</time>
      </trkpt>
      <trkpt lat="44.53385" lon="6.70453">
        <ele>2005</ele>
        <time>2022-07-19T16:23:17Z</time>
      </trkpt>
      <trkpt lat="44.53387" lon="6.70452">
        <ele>2005</ele>
        <time>2022-07-19T16:23:18Z</time>
      </trkpt>
      <trkpt lat="44.53388" lon="6.70452">
        <ele>2005.2</ele>
        <time>2022-07-19T16:23:19Z</time>
      </trkpt>
      <trkpt lat="44.5339" lon="6.70452">
        <ele>2005.2</ele>
        <time>2022-07-19T16:23:20Z</time>
      </trkpt>
      <trkpt lat="44.53392" lon="6.70452">
        <ele>2005.6</ele>
        <time>2022-07-19T16:23:21Z</time>
      </trkpt>
      <trkpt lat="44.53393" lon="6.70452">
        <ele>2005.6</ele>
        <time>2022-07-19T16:23:22Z</time>
      </trkpt>
      <trkpt lat="44.53395" lon="6.70452">
        <ele>2005.8</ele>
        <time>2022-07-19T16:23:23Z</time>
      </trkpt>
      <trkpt lat="44.53397" lon="6.70451">
        <ele>2005.8</ele>
        <time>2022-07-19T16:23:24Z</time>
      </trkpt>
      <trkpt lat="44.53398" lon="6.70451">
        <ele>2006.2</ele>
        <time>2022-07-19T16:23:25Z</time>
      </trkpt>
      <trkpt lat="44.534" lon="6.7045">
        <ele>2006.2</ele>
        <time>2022-07-19T16:23:26Z</time>
      </trkpt>
      <trkpt lat="44.53401" lon="6.7045">
        <ele>2006.4</ele>
        <time>2022-07-19T16:23:27Z</time>
      </trkpt>
      <trkpt lat="44.53402" lon="6.7045">
        <ele>2006.6</ele>
        <time>2022-07-19T16:23:28Z</time>
      </trkpt>
      <trkpt lat="44.53404" lon="6.7045">
        <ele>2006.6</ele>
        <time>2022-07-19T16:23:29Z</time>
      </trkpt>
      <trkpt lat="44.53405" lon="6.7045">
        <ele>2007</ele>
        <time>2022-07-19T16:23:30Z</time>
      </trkpt>
      <trkpt lat="44.53407" lon="6.7045">
        <ele>2007</ele>
        <time>2022-07-19T16:23:31Z</time>
      </trkpt>
      <trkpt lat="44.53408" lon="6.70451">
        <ele>2007.2</ele>
        <time>2022-07-19T16:23:32Z</time>
      </trkpt>
      <trkpt lat="44.53409" lon="6.70452">
        <ele>2007.2</ele>
        <time>2022-07-19T16:23:33Z</time>
      </trkpt>
      <trkpt lat="44.53411" lon="6.70452">
        <ele>2007.6</ele>
        <time>2022-07-19T16:23:34Z</time>
      </trkpt>
      <trkpt lat="44.53412" lon="6.70452">
        <ele>2007.6</ele>
        <time>2022-07-19T16:23:35Z</time>
      </trkpt>
      <trkpt lat="44.53414" lon="6.70452">
        <ele>2007.6</ele>
        <time>2022-07-19T16:23:36Z</time>
      </trkpt>
      <trkpt lat="44.53415" lon="6.70453">
        <ele>2007.8</ele>
        <time>2022-07-19T16:23:37Z</time>
      </trkpt>
      <trkpt lat="44.53416" lon="6.70453">
        <ele>2007.8</ele>
        <time>2022-07-19T16:23:38Z</time>
      </trkpt>
      <trkpt lat="44.53418" lon="6.70454">
        <ele>2008</ele>
        <time>2022-07-19T16:23:39Z</time>
      </trkpt>
      <trkpt lat="44.53419" lon="6.70454">
        <ele>2008</ele>
        <time>2022-07-19T16:23:40Z</time>
      </trkpt>
      <trkpt lat="44.53421" lon="6.70454">
        <ele>2008.4</ele>
        <time>2022-07-19T16:23:41Z</time>
      </trkpt>
      <trkpt lat="44.53422" lon="6.70455">
        <ele>2008.4</ele>
        <time>2022-07-19T16:23:42Z</time>
      </trkpt>
      <trkpt lat="44.53423" lon="6.70456">
        <ele>2008.6</ele>
        <time>2022-07-19T16:23:43Z</time>
      </trkpt>
      <trkpt lat="44.53425" lon="6.70457">
        <ele>2008.6</ele>
        <time>2022-07-19T16:23:44Z</time>
      </trkpt>
      <trkpt lat="44.53426" lon="6.70458">
        <ele>2009</ele>
        <time>2022-07-19T16:23:45Z</time>
      </trkpt>
      <trkpt lat="44.53428" lon="6.70458">
        <ele>2009</ele>
        <time>2022-07-19T16:23:46Z</time>
      </trkpt>
      <trkpt lat="44.53429" lon="6.70459">
        <ele>2009.4</ele>
        <time>2022-07-19T16:23:47Z</time>
      </trkpt>
      <trkpt lat="44.53431" lon="6.7046">
        <ele>2009.4</ele>
        <time>2022-07-19T16:23:48Z</time>
      </trkpt>
      <trkpt lat="44.53432" lon="6.70462">
        <ele>2009.6</ele>
        <time>2022-07-19T16:23:49Z</time>
      </trkpt>
      <trkpt lat="44.53434" lon="6.70463">
        <ele>2009.6</ele>
        <time>2022-07-19T16:23:50Z</time>
      </trkpt>
      <trkpt lat="44.53435" lon="6.70464">
        <ele>2009.8</ele>
        <time>2022-07-19T16:23:51Z</time>
      </trkpt>
      <trkpt lat="44.53437" lon="6.70465">
        <ele>2009.8</ele>
        <time>2022-07-19T16:23:52Z</time>
      </trkpt>
      <trkpt lat="44.53438" lon="6.70466">
        <ele>2010.2</ele>
        <time>2022-07-19T16:23:53Z</time>
      </trkpt>
      <trkpt lat="44.5344" lon="6.70467">
        <ele>2010.6</ele>
        <time>2022-07-19T16:23:54Z</time>
      </trkpt>
      <trkpt lat="44.53441" lon="6.70468">
        <ele>2010.6</ele>
        <time>2022-07-19T16:23:55Z</time>
      </trkpt>
      <trkpt lat="44.53443" lon="6.70468">
        <ele>2010.8</ele>
        <time>2022-07-19T16:23:56Z</time>
      </trkpt>
      <trkpt lat="44.53444" lon="6.70469">
        <ele>2010.8</ele>
        <time>2022-07-19T16:23:57Z</time>
      </trkpt>
      <trkpt lat="44.53445" lon="6.7047">
        <ele>2011.2</ele>
        <time>2022-07-19T16:23:58Z</time>
      </trkpt>
      <trkpt lat="44.53447" lon="6.7047">
        <ele>2011.2</ele>
        <time>2022-07-19T16:23:59Z</time>
      </trkpt>
      <trkpt lat="44.53448" lon="6.70471">
        <ele>2011.4</ele>
        <time>2022-07-19T16:24:00Z</time>
      </trkpt>
      <trkpt lat="44.5345" lon="6.70471">
        <ele>2011.4</ele>
        <time>2022-07-19T16:24:01Z</time>
      </trkpt>
      <trkpt lat="44.53451" lon="6.70472">
        <ele>2011.8</ele>
        <time>2022-07-19T16:24:02Z</time>
      </trkpt>
      <trkpt lat="44.53452" lon="6.70474">
        <ele>2011.8</ele>
        <time>2022-07-19T16:24:03Z</time>
      </trkpt>
      <trkpt lat="44.53453" lon="6.70475">
        <ele>2012</ele>
        <time>2022-07-19T16:24:04Z</time>
      </trkpt>
      <trkpt lat="44.53455" lon="6.70477">
        <ele>2012</ele>
        <time>2022-07-19T16:24:05Z</time>
      </trkpt>
      <trkpt lat="44.53456" lon="6.70478">
        <ele>2012.4</ele>
        <time>2022-07-19T16:24:06Z</time>
      </trkpt>
      <trkpt lat="44.53457" lon="6.70479">
        <ele>2012.4</ele>
        <time>2022-07-19T16:24:07Z</time>
      </trkpt>
      <trkpt lat="44.53459" lon="6.7048">
        <ele>2012.6</ele>
        <time>2022-07-19T16:24:08Z</time>
      </trkpt>
      <trkpt lat="44.5346" lon="6.70481">
        <ele>2012.6</ele>
        <time>2022-07-19T16:24:09Z</time>
      </trkpt>
      <trkpt lat="44.53461" lon="6.70482">
        <ele>2013</ele>
        <time>2022-07-19T16:24:10Z</time>
      </trkpt>
      <trkpt lat="44.53462" lon="6.70483">
        <ele>2013.2</ele>
        <time>2022-07-19T16:24:11Z</time>
      </trkpt>
      <trkpt lat="44.53464" lon="6.70483">
        <ele>2013.2</ele>
        <time>2022-07-19T16:24:12Z</time>
      </trkpt>
      <trkpt lat="44.53465" lon="6.70484">
        <ele>2013.4</ele>
        <time>2022-07-19T16:24:13Z</time>
      </trkpt>
      <trkpt lat="44.53467" lon="6.70484">
        <ele>2013.6</ele>
        <time>2022-07-19T16:24:14Z</time>
      </trkpt>
      <trkpt lat="44.53469" lon="6.70484">
        <ele>2013.6</ele>
        <time>2022-07-19T16:24:15Z</time>
      </trkpt>
      <trkpt lat="44.5347" lon="6.70485">
        <ele>2013.8</ele>
        <time>2022-07-19T16:24:16Z</time>
      </trkpt>
      <trkpt lat="44.53472" lon="6.70485">
        <ele>2013.8</ele>
        <time>2022-07-19T16:24:17Z</time>
      </trkpt>
      <trkpt lat="44.53473" lon="6.70486">
        <ele>2014.2</ele>
        <time>2022-07-19T16:24:18Z</time>
      </trkpt>
      <trkpt lat="44.53475" lon="6.70486">
        <ele>2014.4</ele>
        <time>2022-07-19T16:24:19Z</time>
      </trkpt>
      <trkpt lat="44.53476" lon="6.70487">
        <ele>2014.6</ele>
        <time>2022-07-19T16:24:20Z</time>
      </trkpt>
      <trkpt lat="44.53478" lon="6.70487">
        <ele>2014.6</ele>
        <time>2022-07-19T16:24:21Z</time>
      </trkpt>
      <trkpt lat="44.53479" lon="6.70487">
        <ele>2015</ele>
        <time>2022-07-19T16:24:22Z</time>
      </trkpt>
      <trkpt lat="44.53481" lon="6.70488">
        <ele>2015</ele>
        <time>2022-07-19T16:24:23Z</time>
      </trkpt>
      <trkpt lat="44.53482" lon="6.70488">
        <ele>2015.2</ele>
        <time>2022-07-19T16:24:24Z</time>
      </trkpt>
      <trkpt lat="44.53484" lon="6.70489">
        <ele>2015.2</ele>
        <time>2022-07-19T16:24:25Z</time>
      </trkpt>
      <trkpt lat="44.53486" lon="6.70488">
        <ele>2015.2</ele>
        <time>2022-07-19T16:24:26Z</time>
      </trkpt>
      <trkpt lat="44.53487" lon="6.70488">
        <ele>2015.4</ele>
        <time>2022-07-19T16:24:27Z</time>
      </trkpt>
      <trkpt lat="44.53489" lon="6.70488">
        <ele>2015.4</ele>
        <time>2022-07-19T16:24:28Z</time>
      </trkpt>
      <trkpt lat="44.53491" lon="6.70487">
        <ele>2016</ele>
        <time>2022-07-19T16:24:29Z</time>
      </trkpt>
      <trkpt lat="44.53493" lon="6.70487">
        <ele>2016.2</ele>
        <time>2022-07-19T16:24:30Z</time>
      </trkpt>
      <trkpt lat="44.53495" lon="6.70486">
        <ele>2016.4</ele>
        <time>2022-07-19T16:24:31Z</time>
      </trkpt>
      <trkpt lat="44.53497" lon="6.70485">
        <ele>2016.6</ele>
        <time>2022-07-19T16:24:32Z</time>
      </trkpt>
      <trkpt lat="44.53499" lon="6.70485">
        <ele>2016.6</ele>
        <time>2022-07-19T16:24:33Z</time>
      </trkpt>
      <trkpt lat="44.53501" lon="6.70485">
        <ele>2017</ele>
        <time>2022-07-19T16:24:34Z</time>
      </trkpt>
      <trkpt lat="44.53503" lon="6.70484">
        <ele>2017</ele>
        <time>2022-07-19T16:24:35Z</time>
      </trkpt>
      <trkpt lat="44.53505" lon="6.70484">
        <ele>2017.4</ele>
        <time>2022-07-19T16:24:36Z</time>
      </trkpt>
      <trkpt lat="44.53507" lon="6.70484">
        <ele>2017.6</ele>
        <time>2022-07-19T16:24:37Z</time>
      </trkpt>
      <trkpt lat="44.53509" lon="6.70483">
        <ele>2017.6</ele>
        <time>2022-07-19T16:24:38Z</time>
      </trkpt>
      <trkpt lat="44.53511" lon="6.70482">
        <ele>2017.8</ele>
        <time>2022-07-19T16:24:39Z</time>
      </trkpt>
      <trkpt lat="44.53513" lon="6.70482">
        <ele>2018.2</ele>
        <time>2022-07-19T16:24:40Z</time>
      </trkpt>
      <trkpt lat="44.53515" lon="6.70481">
        <ele>2018.4</ele>
        <time>2022-07-19T16:24:41Z</time>
      </trkpt>
      <trkpt lat="44.53516" lon="6.7048">
        <ele>2018.6</ele>
        <time>2022-07-19T16:24:42Z</time>
      </trkpt>
      <trkpt lat="44.53518" lon="6.70479">
        <ele>2018.6</ele>
        <time>2022-07-19T16:24:43Z</time>
      </trkpt>
      <trkpt lat="44.5352" lon="6.70477">
        <ele>2019</ele>
        <time>2022-07-19T16:24:45Z</time>
      </trkpt>
      <trkpt lat="44.53522" lon="6.70476">
        <ele>2019.2</ele>
        <time>2022-07-19T16:24:46Z</time>
      </trkpt>
      <trkpt lat="44.53523" lon="6.70475">
        <ele>2019.2</ele>
        <time>2022-07-19T16:24:47Z</time>
      </trkpt>
      <trkpt lat="44.53525" lon="6.70473">
        <ele>2019.4</ele>
        <time>2022-07-19T16:24:48Z</time>
      </trkpt>
      <trkpt lat="44.53526" lon="6.70472">
        <ele>2019.4</ele>
        <time>2022-07-19T16:24:49Z</time>
      </trkpt>
      <trkpt lat="44.53528" lon="6.7047">
        <ele>2019.8</ele>
        <time>2022-07-19T16:24:50Z</time>
      </trkpt>
      <trkpt lat="44.5353" lon="6.70469">
        <ele>2020</ele>
        <time>2022-07-19T16:24:51Z</time>
      </trkpt>
      <trkpt lat="44.53531" lon="6.70468">
        <ele>2020</ele>
        <time>2022-07-19T16:24:52Z</time>
      </trkpt>
      <trkpt lat="44.53533" lon="6.70467">
        <ele>2020.2</ele>
        <time>2022-07-19T16:24:53Z</time>
      </trkpt>
      <trkpt lat="44.53535" lon="6.70465">
        <ele>2020.2</ele>
        <time>2022-07-19T16:24:54Z</time>
      </trkpt>
      <trkpt lat="44.53536" lon="6.70464">
        <ele>2020.6</ele>
        <time>2022-07-19T16:24:55Z</time>
      </trkpt>
      <trkpt lat="44.53537" lon="6.70462">
        <ele>2020.6</ele>
        <time>2022-07-19T16:24:56Z</time>
      </trkpt>
      <trkpt lat="44.53539" lon="6.70461">
        <ele>2020.8</ele>
        <time>2022-07-19T16:24:57Z</time>
      </trkpt>
      <trkpt lat="44.5354" lon="6.70459">
        <ele>2020.8</ele>
        <time>2022-07-19T16:24:58Z</time>
      </trkpt>
      <trkpt lat="44.53541" lon="6.70457">
        <ele>2021.2</ele>
        <time>2022-07-19T16:24:59Z</time>
      </trkpt>
      <trkpt lat="44.53542" lon="6.70455">
        <ele>2021.2</ele>
        <time>2022-07-19T16:25:00Z</time>
      </trkpt>
      <trkpt lat="44.53544" lon="6.70453">
        <ele>2021.4</ele>
        <time>2022-07-19T16:25:01Z</time>
      </trkpt>
      <trkpt lat="44.53545" lon="6.70451">
        <ele>2021.6</ele>
        <time>2022-07-19T16:25:02Z</time>
      </trkpt>
      <trkpt lat="44.53547" lon="6.7045">
        <ele>2021.6</ele>
        <time>2022-07-19T16:25:03Z</time>
      </trkpt>
      <trkpt lat="44.53548" lon="6.70448">
        <ele>2022</ele>
        <time>2022-07-19T16:25:04Z</time>
      </trkpt>
      <trkpt lat="44.53549" lon="6.70447">
        <ele>2022</ele>
        <time>2022-07-19T16:25:05Z</time>
      </trkpt>
      <trkpt lat="44.53551" lon="6.70445">
        <ele>2022.4</ele>
        <time>2022-07-19T16:25:06Z</time>
      </trkpt>
      <trkpt lat="44.53552" lon="6.70443">
        <ele>2022.4</ele>
        <time>2022-07-19T16:25:07Z</time>
      </trkpt>
      <trkpt lat="44.53553" lon="6.70441">
        <ele>2022.6</ele>
        <time>2022-07-19T16:25:08Z</time>
      </trkpt>
      <trkpt lat="44.53554" lon="6.70439">
        <ele>2022.6</ele>
        <time>2022-07-19T16:25:09Z</time>
      </trkpt>
      <trkpt lat="44.53555" lon="6.70437">
        <ele>2023</ele>
        <time>2022-07-19T16:25:10Z</time>
      </trkpt>
      <trkpt lat="44.53556" lon="6.70435">
        <ele>2023</ele>
        <time>2022-07-19T16:25:11Z</time>
      </trkpt>
      <trkpt lat="44.53557" lon="6.70433">
        <ele>2023.2</ele>
        <time>2022-07-19T16:25:12Z</time>
      </trkpt>
      <trkpt lat="44.53559" lon="6.70431">
        <ele>2023.2</ele>
        <time>2022-07-19T16:25:13Z</time>
      </trkpt>
      <trkpt lat="44.53559" lon="6.70429">
        <ele>2023.6</ele>
        <time>2022-07-19T16:25:14Z</time>
      </trkpt>
      <trkpt lat="44.5356" lon="6.70427">
        <ele>2023.6</ele>
        <time>2022-07-19T16:25:15Z</time>
      </trkpt>
      <trkpt lat="44.53562" lon="6.70425">
        <ele>2024</ele>
        <time>2022-07-19T16:25:16Z</time>
      </trkpt>
      <trkpt lat="44.53563" lon="6.70423">
        <ele>2024</ele>
        <time>2022-07-19T16:25:17Z</time>
      </trkpt>
      <trkpt lat="44.53564" lon="6.70421">
        <ele>2024.2</ele>
        <time>2022-07-19T16:25:18Z</time>
      </trkpt>
      <trkpt lat="44.53565" lon="6.70418">
        <ele>2024.2</ele>
        <time>2022-07-19T16:25:19Z</time>
      </trkpt>
      <trkpt lat="44.53565" lon="6.70416">
        <ele>2024.6</ele>
        <time>2022-07-19T16:25:20Z</time>
      </trkpt>
      <trkpt lat="44.53566" lon="6.70414">
        <ele>2024.6</ele>
        <time>2022-07-19T16:25:21Z</time>
      </trkpt>
      <trkpt lat="44.53568" lon="6.70412">
        <ele>2024.8</ele>
        <time>2022-07-19T16:25:22Z</time>
      </trkpt>
      <trkpt lat="44.53569" lon="6.70411">
        <ele>2024.8</ele>
        <time>2022-07-19T16:25:23Z</time>
      </trkpt>
      <trkpt lat="44.5357" lon="6.70409">
        <ele>2025</ele>
        <time>2022-07-19T16:25:24Z</time>
      </trkpt>
      <trkpt lat="44.53571" lon="6.70407">
        <ele>2025</ele>
        <time>2022-07-19T16:25:25Z</time>
      </trkpt>
      <trkpt lat="44.53573" lon="6.70405">
        <ele>2025.2</ele>
        <time>2022-07-19T16:25:26Z</time>
      </trkpt>
      <trkpt lat="44.53574" lon="6.70403">
        <ele>2025.2</ele>
        <time>2022-07-19T16:25:27Z</time>
      </trkpt>
      <trkpt lat="44.53575" lon="6.70401">
        <ele>2025.4</ele>
        <time>2022-07-19T16:25:28Z</time>
      </trkpt>
      <trkpt lat="44.53577" lon="6.704">
        <ele>2025.4</ele>
        <time>2022-07-19T16:25:29Z</time>
      </trkpt>
      <trkpt lat="44.53578" lon="6.70398">
        <ele>2025.8</ele>
        <time>2022-07-19T16:25:30Z</time>
      </trkpt>
      <trkpt lat="44.53579" lon="6.70396">
        <ele>2025.8</ele>
        <time>2022-07-19T16:25:31Z</time>
      </trkpt>
      <trkpt lat="44.5358" lon="6.70394">
        <ele>2026</ele>
        <time>2022-07-19T16:25:32Z</time>
      </trkpt>
      <trkpt lat="44.53581" lon="6.70392">
        <ele>2026</ele>
        <time>2022-07-19T16:25:33Z</time>
      </trkpt>
      <trkpt lat="44.53582" lon="6.7039">
        <ele>2026.4</ele>
        <time>2022-07-19T16:25:34Z</time>
      </trkpt>
      <trkpt lat="44.53583" lon="6.70389">
        <ele>2026.4</ele>
        <time>2022-07-19T16:25:35Z</time>
      </trkpt>
      <trkpt lat="44.53584" lon="6.70387">
        <ele>2026.6</ele>
        <time>2022-07-19T16:25:36Z</time>
      </trkpt>
      <trkpt lat="44.53586" lon="6.70385">
        <ele>2026.6</ele>
        <time>2022-07-19T16:25:37Z</time>
      </trkpt>
      <trkpt lat="44.53587" lon="6.70384">
        <ele>2026.8</ele>
        <time>2022-07-19T16:25:38Z</time>
      </trkpt>
      <trkpt lat="44.53588" lon="6.70382">
        <ele>2026.8</ele>
        <time>2022-07-19T16:25:39Z</time>
      </trkpt>
      <trkpt lat="44.53589" lon="6.7038">
        <ele>2027.2</ele>
        <time>2022-07-19T16:25:40Z</time>
      </trkpt>
      <trkpt lat="44.5359" lon="6.70378">
        <ele>2027.4</ele>
        <time>2022-07-19T16:25:41Z</time>
      </trkpt>
      <trkpt lat="44.53591" lon="6.70376">
        <ele>2027.4</ele>
        <time>2022-07-19T16:25:42Z</time>
      </trkpt>
      <trkpt lat="44.53592" lon="6.70374">
        <ele>2027.6</ele>
        <time>2022-07-19T16:25:43Z</time>
      </trkpt>
      <trkpt lat="44.53594" lon="6.70372">
        <ele>2027.8</ele>
        <time>2022-07-19T16:25:44Z</time>
      </trkpt>
      <trkpt lat="44.53595" lon="6.7037">
        <ele>2027.8</ele>
        <time>2022-07-19T16:25:45Z</time>
      </trkpt>
      <trkpt lat="44.53596" lon="6.70368">
        <ele>2028.2</ele>
        <time>2022-07-19T16:25:46Z</time>
      </trkpt>
      <trkpt lat="44.53598" lon="6.70366">
        <ele>2028.4</ele>
        <time>2022-07-19T16:25:47Z</time>
      </trkpt>
      <trkpt lat="44.53599" lon="6.70364">
        <ele>2028.4</ele>
        <time>2022-07-19T16:25:48Z</time>
      </trkpt>
      <trkpt lat="44.536" lon="6.70362">
        <ele>2028.6</ele>
        <time>2022-07-19T16:25:49Z</time>
      </trkpt>
      <trkpt lat="44.53601" lon="6.70359">
        <ele>2028.6</ele>
        <time>2022-07-19T16:25:50Z</time>
      </trkpt>
      <trkpt lat="44.53603" lon="6.70357">
        <ele>2028.8</ele>
        <time>2022-07-19T16:25:51Z</time>
      </trkpt>
      <trkpt lat="44.53605" lon="6.70355">
        <ele>2028.8</ele>
        <time>2022-07-19T16:25:52Z</time>
      </trkpt>
      <trkpt lat="44.53606" lon="6.70353">
        <ele>2029.2</ele>
        <time>2022-07-19T16:25:53Z</time>
      </trkpt>
      <trkpt lat="44.5361" lon="6.7035">
        <ele>2029.4</ele>
        <time>2022-07-19T16:25:54Z</time>
      </trkpt>
      <trkpt lat="44.53612" lon="6.70348">
        <ele>2029.8</ele>
        <time>2022-07-19T16:25:56Z</time>
      </trkpt>
      <trkpt lat="44.53614" lon="6.70347">
        <ele>2029.8</ele>
        <time>2022-07-19T16:25:57Z</time>
      </trkpt>
      <trkpt lat="44.53616" lon="6.70345">
        <ele>2030.2</ele>
        <time>2022-07-19T16:25:58Z</time>
      </trkpt>
      <trkpt lat="44.53618" lon="6.70344">
        <ele>2030.2</ele>
        <time>2022-07-19T16:25:59Z</time>
      </trkpt>
      <trkpt lat="44.5362" lon="6.70343">
        <ele>2030.4</ele>
        <time>2022-07-19T16:26:00Z</time>
      </trkpt>
      <trkpt lat="44.53622" lon="6.70342">
        <ele>2030.6</ele>
        <time>2022-07-19T16:26:01Z</time>
      </trkpt>
      <trkpt lat="44.53625" lon="6.70341">
        <ele>2030.8</ele>
        <time>2022-07-19T16:26:02Z</time>
      </trkpt>
      <trkpt lat="44.53627" lon="6.7034">
        <ele>2030.8</ele>
        <time>2022-07-19T16:26:03Z</time>
      </trkpt>
      <trkpt lat="44.53629" lon="6.70339">
        <ele>2031</ele>
        <time>2022-07-19T16:26:04Z</time>
      </trkpt>
      <trkpt lat="44.53631" lon="6.70339">
        <ele>2031</ele>
        <time>2022-07-19T16:26:05Z</time>
      </trkpt>
      <trkpt lat="44.53633" lon="6.70338">
        <ele>2031.4</ele>
        <time>2022-07-19T16:26:06Z</time>
      </trkpt>
      <trkpt lat="44.53636" lon="6.70337">
        <ele>2031.4</ele>
        <time>2022-07-19T16:26:07Z</time>
      </trkpt>
      <trkpt lat="44.53638" lon="6.70337">
        <ele>2031.6</ele>
        <time>2022-07-19T16:26:08Z</time>
      </trkpt>
      <trkpt lat="44.5364" lon="6.70337">
        <ele>2031.6</ele>
        <time>2022-07-19T16:26:09Z</time>
      </trkpt>
      <trkpt lat="44.53642" lon="6.70336">
        <ele>2032</ele>
        <time>2022-07-19T16:26:10Z</time>
      </trkpt>
      <trkpt lat="44.53644" lon="6.70336">
        <ele>2032.2</ele>
        <time>2022-07-19T16:26:11Z</time>
      </trkpt>
      <trkpt lat="44.53646" lon="6.70335">
        <ele>2032.4</ele>
        <time>2022-07-19T16:26:12Z</time>
      </trkpt>
      <trkpt lat="44.53648" lon="6.70335">
        <ele>2032.4</ele>
        <time>2022-07-19T16:26:13Z</time>
      </trkpt>
      <trkpt lat="44.5365" lon="6.70335">
        <ele>2032.8</ele>
        <time>2022-07-19T16:26:14Z</time>
      </trkpt>
      <trkpt lat="44.53652" lon="6.70335">
        <ele>2033</ele>
        <time>2022-07-19T16:26:15Z</time>
      </trkpt>
      <trkpt lat="44.53654" lon="6.70334">
        <ele>2033</ele>
        <time>2022-07-19T16:26:16Z</time>
      </trkpt>
      <trkpt lat="44.53656" lon="6.70334">
        <ele>2033.4</ele>
        <time>2022-07-19T16:26:17Z</time>
      </trkpt>
      <trkpt lat="44.53658" lon="6.70334">
        <ele>2033.6</ele>
        <time>2022-07-19T16:26:18Z</time>
      </trkpt>
      <trkpt lat="44.5366" lon="6.70334">
        <ele>2033.8</ele>
        <time>2022-07-19T16:26:19Z</time>
      </trkpt>
      <trkpt lat="44.53662" lon="6.70333">
        <ele>2033.8</ele>
        <time>2022-07-19T16:26:20Z</time>
      </trkpt>
      <trkpt lat="44.53664" lon="6.70333">
        <ele>2034.2</ele>
        <time>2022-07-19T16:26:21Z</time>
      </trkpt>
      <trkpt lat="44.53665" lon="6.70333">
        <ele>2034.2</ele>
        <time>2022-07-19T16:26:22Z</time>
      </trkpt>
      <trkpt lat="44.53667" lon="6.70332">
        <ele>2034.6</ele>
        <time>2022-07-19T16:26:23Z</time>
      </trkpt>
      <trkpt lat="44.53669" lon="6.70332">
        <ele>2034.8</ele>
        <time>2022-07-19T16:26:24Z</time>
      </trkpt>
      <trkpt lat="44.5367" lon="6.70332">
        <ele>2035</ele>
        <time>2022-07-19T16:26:25Z</time>
      </trkpt>
      <trkpt lat="44.53672" lon="6.70332">
        <ele>2035</ele>
        <time>2022-07-19T16:26:26Z</time>
      </trkpt>
      <trkpt lat="44.53674" lon="6.70332">
        <ele>2035.2</ele>
        <time>2022-07-19T16:26:27Z</time>
      </trkpt>
      <trkpt lat="44.53675" lon="6.70331">
        <ele>2035.4</ele>
        <time>2022-07-19T16:26:28Z</time>
      </trkpt>
      <trkpt lat="44.53677" lon="6.70331">
        <ele>2035.4</ele>
        <time>2022-07-19T16:26:29Z</time>
      </trkpt>
      <trkpt lat="44.53679" lon="6.7033">
        <ele>2035.8</ele>
        <time>2022-07-19T16:26:30Z</time>
      </trkpt>
      <trkpt lat="44.5368" lon="6.7033">
        <ele>2035.8</ele>
        <time>2022-07-19T16:26:31Z</time>
      </trkpt>
      <trkpt lat="44.53682" lon="6.7033">
        <ele>2036.2</ele>
        <time>2022-07-19T16:26:32Z</time>
      </trkpt>
      <trkpt lat="44.53683" lon="6.70329">
        <ele>2036.2</ele>
        <time>2022-07-19T16:26:33Z</time>
      </trkpt>
      <trkpt lat="44.53685" lon="6.70328">
        <ele>2036.6</ele>
        <time>2022-07-19T16:26:34Z</time>
      </trkpt>
      <trkpt lat="44.53686" lon="6.70327">
        <ele>2036.6</ele>
        <time>2022-07-19T16:26:35Z</time>
      </trkpt>
      <trkpt lat="44.53687" lon="6.70326">
        <ele>2036.8</ele>
        <time>2022-07-19T16:26:36Z</time>
      </trkpt>
      <trkpt lat="44.53689" lon="6.70326">
        <ele>2036.8</ele>
        <time>2022-07-19T16:26:37Z</time>
      </trkpt>
      <trkpt lat="44.5369" lon="6.70325">
        <ele>2037</ele>
        <time>2022-07-19T16:26:38Z</time>
      </trkpt>
      <trkpt lat="44.53692" lon="6.70325">
        <ele>2037</ele>
        <time>2022-07-19T16:26:39Z</time>
      </trkpt>
      <trkpt lat="44.53693" lon="6.70324">
        <ele>2037.2</ele>
        <time>2022-07-19T16:26:40Z</time>
      </trkpt>
      <trkpt lat="44.53695" lon="6.70324">
        <ele>2037.2</ele>
        <time>2022-07-19T16:26:41Z</time>
      </trkpt>
      <trkpt lat="44.53696" lon="6.70324">
        <ele>2037.6</ele>
        <time>2022-07-19T16:26:42Z</time>
      </trkpt>
      <trkpt lat="44.53698" lon="6.70324">
        <ele>2037.6</ele>
        <time>2022-07-19T16:26:43Z</time>
      </trkpt>
      <trkpt lat="44.537" lon="6.70323">
        <ele>2038</ele>
        <time>2022-07-19T16:26:44Z</time>
      </trkpt>
      <trkpt lat="44.53701" lon="6.70322">
        <ele>2038</ele>
        <time>2022-07-19T16:26:45Z</time>
      </trkpt>
      <trkpt lat="44.53703" lon="6.70322">
        <ele>2038.4</ele>
        <time>2022-07-19T16:26:46Z</time>
      </trkpt>
      <trkpt lat="44.53705" lon="6.70321">
        <ele>2038.4</ele>
        <time>2022-07-19T16:26:47Z</time>
      </trkpt>
      <trkpt lat="44.53707" lon="6.7032">
        <ele>2038.4</ele>
        <time>2022-07-19T16:26:48Z</time>
      </trkpt>
      <trkpt lat="44.53708" lon="6.70319">
        <ele>2038.8</ele>
        <time>2022-07-19T16:26:49Z</time>
      </trkpt>
      <trkpt lat="44.5371" lon="6.70318">
        <ele>2038.8</ele>
        <time>2022-07-19T16:26:50Z</time>
      </trkpt>
      <trkpt lat="44.53712" lon="6.70317">
        <ele>2039</ele>
        <time>2022-07-19T16:26:51Z</time>
      </trkpt>
      <trkpt lat="44.53713" lon="6.70316">
        <ele>2039</ele>
        <time>2022-07-19T16:26:52Z</time>
      </trkpt>
      <trkpt lat="44.53715" lon="6.70315">
        <ele>2039.4</ele>
        <time>2022-07-19T16:26:53Z</time>
      </trkpt>
      <trkpt lat="44.53717" lon="6.70313">
        <ele>2039.4</ele>
        <time>2022-07-19T16:26:54Z</time>
      </trkpt>
      <trkpt lat="44.53718" lon="6.70312">
        <ele>2039.6</ele>
        <time>2022-07-19T16:26:55Z</time>
      </trkpt>
      <trkpt lat="44.5372" lon="6.70311">
        <ele>2039.6</ele>
        <time>2022-07-19T16:26:56Z</time>
      </trkpt>
      <trkpt lat="44.53721" lon="6.7031">
        <ele>2040</ele>
        <time>2022-07-19T16:26:57Z</time>
      </trkpt>
      <trkpt lat="44.53723" lon="6.70309">
        <ele>2040</ele>
        <time>2022-07-19T16:26:58Z</time>
      </trkpt>
      <trkpt lat="44.53724" lon="6.70308">
        <ele>2040.4</ele>
        <time>2022-07-19T16:26:59Z</time>
      </trkpt>
      <trkpt lat="44.53726" lon="6.70307">
        <ele>2040.4</ele>
        <time>2022-07-19T16:27:00Z</time>
      </trkpt>
      <trkpt lat="44.53728" lon="6.70306">
        <ele>2040.4</ele>
        <time>2022-07-19T16:27:01Z</time>
      </trkpt>
      <trkpt lat="44.53729" lon="6.70306">
        <ele>2040.6</ele>
        <time>2022-07-19T16:27:02Z</time>
      </trkpt>
      <trkpt lat="44.53731" lon="6.70306">
        <ele>2040.8</ele>
        <time>2022-07-19T16:27:03Z</time>
      </trkpt>
      <trkpt lat="44.53733" lon="6.70305">
        <ele>2040.8</ele>
        <time>2022-07-19T16:27:04Z</time>
      </trkpt>
      <trkpt lat="44.53734" lon="6.70304">
        <ele>2041.2</ele>
        <time>2022-07-19T16:27:05Z</time>
      </trkpt>
      <trkpt lat="44.53736" lon="6.70304">
        <ele>2041.2</ele>
        <time>2022-07-19T16:27:06Z</time>
      </trkpt>
      <trkpt lat="44.53738" lon="6.70303">
        <ele>2041.4</ele>
        <time>2022-07-19T16:27:07Z</time>
      </trkpt>
      <trkpt lat="44.53739" lon="6.70302">
        <ele>2041.4</ele>
        <time>2022-07-19T16:27:08Z</time>
      </trkpt>
      <trkpt lat="44.53741" lon="6.70301">
        <ele>2041.8</ele>
        <time>2022-07-19T16:27:09Z</time>
      </trkpt>
      <trkpt lat="44.53742" lon="6.70301">
        <ele>2041.8</ele>
        <time>2022-07-19T16:27:10Z</time>
      </trkpt>
      <trkpt lat="44.53744" lon="6.703">
        <ele>2042.2</ele>
        <time>2022-07-19T16:27:11Z</time>
      </trkpt>
      <trkpt lat="44.53745" lon="6.703">
        <ele>2042.2</ele>
        <time>2022-07-19T16:27:12Z</time>
      </trkpt>
      <trkpt lat="44.53747" lon="6.703">
        <ele>2042.4</ele>
        <time>2022-07-19T16:27:13Z</time>
      </trkpt>
      <trkpt lat="44.53748" lon="6.703">
        <ele>2042.4</ele>
        <time>2022-07-19T16:27:14Z</time>
      </trkpt>
      <trkpt lat="44.5375" lon="6.70299">
        <ele>2042.8</ele>
        <time>2022-07-19T16:27:15Z</time>
      </trkpt>
      <trkpt lat="44.53751" lon="6.70299">
        <ele>2042.8</ele>
        <time>2022-07-19T16:27:16Z</time>
      </trkpt>
      <trkpt lat="44.53753" lon="6.70299">
        <ele>2043</ele>
        <time>2022-07-19T16:27:17Z</time>
      </trkpt>
      <trkpt lat="44.53754" lon="6.70298">
        <ele>2043</ele>
        <time>2022-07-19T16:27:18Z</time>
      </trkpt>
      <trkpt lat="44.53756" lon="6.70298">
        <ele>2043.2</ele>
        <time>2022-07-19T16:27:19Z</time>
      </trkpt>
      <trkpt lat="44.53757" lon="6.70298">
        <ele>2043.2</ele>
        <time>2022-07-19T16:27:20Z</time>
      </trkpt>
      <trkpt lat="44.53759" lon="6.70298">
        <ele>2043.6</ele>
        <time>2022-07-19T16:27:21Z</time>
      </trkpt>
      <trkpt lat="44.53761" lon="6.70299">
        <ele>2043.6</ele>
        <time>2022-07-19T16:27:22Z</time>
      </trkpt>
      <trkpt lat="44.53762" lon="6.70299">
        <ele>2043.8</ele>
        <time>2022-07-19T16:27:23Z</time>
      </trkpt>
      <trkpt lat="44.53764" lon="6.70299">
        <ele>2043.8</ele>
        <time>2022-07-19T16:27:24Z</time>
      </trkpt>
      <trkpt lat="44.53765" lon="6.70299">
        <ele>2044.2</ele>
        <time>2022-07-19T16:27:25Z</time>
      </trkpt>
      <trkpt lat="44.53767" lon="6.70298">
        <ele>2044.2</ele>
        <time>2022-07-19T16:27:26Z</time>
      </trkpt>
      <trkpt lat="44.53768" lon="6.70297">
        <ele>2044.4</ele>
        <time>2022-07-19T16:27:27Z</time>
      </trkpt>
      <trkpt lat="44.5377" lon="6.70296">
        <ele>2044.4</ele>
        <time>2022-07-19T16:27:28Z</time>
      </trkpt>
      <trkpt lat="44.53771" lon="6.70297">
        <ele>2044.8</ele>
        <time>2022-07-19T16:27:29Z</time>
      </trkpt>
      <trkpt lat="44.53773" lon="6.70298">
        <ele>2044.8</ele>
        <time>2022-07-19T16:27:30Z</time>
      </trkpt>
      <trkpt lat="44.53774" lon="6.70299">
        <ele>2045</ele>
        <time>2022-07-19T16:27:31Z</time>
      </trkpt>
      <trkpt lat="44.53776" lon="6.70299">
        <ele>2045</ele>
        <time>2022-07-19T16:27:32Z</time>
      </trkpt>
      <trkpt lat="44.53778" lon="6.70299">
        <ele>2045.4</ele>
        <time>2022-07-19T16:27:33Z</time>
      </trkpt>
      <trkpt lat="44.53779" lon="6.70299">
        <ele>2045.4</ele>
        <time>2022-07-19T16:27:34Z</time>
      </trkpt>
      <trkpt lat="44.53781" lon="6.70299">
        <ele>2045.8</ele>
        <time>2022-07-19T16:27:35Z</time>
      </trkpt>
      <trkpt lat="44.53783" lon="6.70299">
        <ele>2045.8</ele>
        <time>2022-07-19T16:27:36Z</time>
      </trkpt>
      <trkpt lat="44.53784" lon="6.70298">
        <ele>2046</ele>
        <time>2022-07-19T16:27:37Z</time>
      </trkpt>
      <trkpt lat="44.53786" lon="6.70298">
        <ele>2046.2</ele>
        <time>2022-07-19T16:27:38Z</time>
      </trkpt>
      <trkpt lat="44.53787" lon="6.70297">
        <ele>2046.2</ele>
        <time>2022-07-19T16:27:39Z</time>
      </trkpt>
      <trkpt lat="44.53789" lon="6.70297">
        <ele>2046.6</ele>
        <time>2022-07-19T16:27:40Z</time>
      </trkpt>
      <trkpt lat="44.5379" lon="6.70298">
        <ele>2046.6</ele>
        <time>2022-07-19T16:27:41Z</time>
      </trkpt>
      <trkpt lat="44.53792" lon="6.70298">
        <ele>2046.8</ele>
        <time>2022-07-19T16:27:42Z</time>
      </trkpt>
      <trkpt lat="44.53794" lon="6.70298">
        <ele>2046.8</ele>
        <time>2022-07-19T16:27:43Z</time>
      </trkpt>
      <trkpt lat="44.53795" lon="6.70299">
        <ele>2047.2</ele>
        <time>2022-07-19T16:27:44Z</time>
      </trkpt>
      <trkpt lat="44.53797" lon="6.70299">
        <ele>2047.2</ele>
        <time>2022-07-19T16:27:45Z</time>
      </trkpt>
      <trkpt lat="44.53798" lon="6.703">
        <ele>2047.4</ele>
        <time>2022-07-19T16:27:46Z</time>
      </trkpt>
      <trkpt lat="44.538" lon="6.703">
        <ele>2047.4</ele>
        <time>2022-07-19T16:27:47Z</time>
      </trkpt>
      <trkpt lat="44.53802" lon="6.703">
        <ele>2047.6</ele>
        <time>2022-07-19T16:27:48Z</time>
      </trkpt>
      <trkpt lat="44.53803" lon="6.703">
        <ele>2047.6</ele>
        <time>2022-07-19T16:27:49Z</time>
      </trkpt>
      <trkpt lat="44.53805" lon="6.703">
        <ele>2048</ele>
        <time>2022-07-19T16:27:50Z</time>
      </trkpt>
      <trkpt lat="44.53806" lon="6.703">
        <ele>2048</ele>
        <time>2022-07-19T16:27:51Z</time>
      </trkpt>
      <trkpt lat="44.53808" lon="6.70299">
        <ele>2048.2</ele>
        <time>2022-07-19T16:27:52Z</time>
      </trkpt>
      <trkpt lat="44.53809" lon="6.70298">
        <ele>2048.2</ele>
        <time>2022-07-19T16:27:53Z</time>
      </trkpt>
      <trkpt lat="44.53811" lon="6.70298">
        <ele>2048.6</ele>
        <time>2022-07-19T16:27:54Z</time>
      </trkpt>
      <trkpt lat="44.53812" lon="6.70298">
        <ele>2048.6</ele>
        <time>2022-07-19T16:27:55Z</time>
      </trkpt>
      <trkpt lat="44.53814" lon="6.70298">
        <ele>2048.8</ele>
        <time>2022-07-19T16:27:56Z</time>
      </trkpt>
      <trkpt lat="44.53815" lon="6.70298">
        <ele>2048.8</ele>
        <time>2022-07-19T16:27:57Z</time>
      </trkpt>
      <trkpt lat="44.53817" lon="6.70298">
        <ele>2049.2</ele>
        <time>2022-07-19T16:27:58Z</time>
      </trkpt>
      <trkpt lat="44.53819" lon="6.70299">
        <ele>2049.2</ele>
        <time>2022-07-19T16:27:59Z</time>
      </trkpt>
      <trkpt lat="44.5382" lon="6.70299">
        <ele>2049.4</ele>
        <time>2022-07-19T16:28:00Z</time>
      </trkpt>
      <trkpt lat="44.53822" lon="6.70299">
        <ele>2049.4</ele>
        <time>2022-07-19T16:28:01Z</time>
      </trkpt>
      <trkpt lat="44.53824" lon="6.70299">
        <ele>2049.8</ele>
        <time>2022-07-19T16:28:02Z</time>
      </trkpt>
      <trkpt lat="44.53826" lon="6.70299">
        <ele>2049.8</ele>
        <time>2022-07-19T16:28:03Z</time>
      </trkpt>
      <trkpt lat="44.53828" lon="6.70299">
        <ele>2050.2</ele>
        <time>2022-07-19T16:28:04Z</time>
      </trkpt>
      <trkpt lat="44.5383" lon="6.70298">
        <ele>2050.2</ele>
        <time>2022-07-19T16:28:05Z</time>
      </trkpt>
      <trkpt lat="44.53831" lon="6.70298">
        <ele>2050.4</ele>
        <time>2022-07-19T16:28:06Z</time>
      </trkpt>
      <trkpt lat="44.53833" lon="6.70298">
        <ele>2050.4</ele>
        <time>2022-07-19T16:28:07Z</time>
      </trkpt>
      <trkpt lat="44.53835" lon="6.70298">
        <ele>2050.8</ele>
        <time>2022-07-19T16:28:08Z</time>
      </trkpt>
      <trkpt lat="44.53837" lon="6.70297">
        <ele>2051</ele>
        <time>2022-07-19T16:28:09Z</time>
      </trkpt>
      <trkpt lat="44.53839" lon="6.70297">
        <ele>2051</ele>
        <time>2022-07-19T16:28:10Z</time>
      </trkpt>
      <trkpt lat="44.5384" lon="6.70296">
        <ele>2051.2</ele>
        <time>2022-07-19T16:28:11Z</time>
      </trkpt>
      <trkpt lat="44.53842" lon="6.70296">
        <ele>2051.2</ele>
        <time>2022-07-19T16:28:12Z</time>
      </trkpt>
      <trkpt lat="44.53844" lon="6.70296">
        <ele>2051.6</ele>
        <time>2022-07-19T16:28:13Z</time>
      </trkpt>
      <trkpt lat="44.53846" lon="6.70295">
        <ele>2051.6</ele>
        <time>2022-07-19T16:28:14Z</time>
      </trkpt>
      <trkpt lat="44.53847" lon="6.70294">
        <ele>2051.8</ele>
        <time>2022-07-19T16:28:15Z</time>
      </trkpt>
      <trkpt lat="44.53849" lon="6.70293">
        <ele>2051.8</ele>
        <time>2022-07-19T16:28:16Z</time>
      </trkpt>
      <trkpt lat="44.53851" lon="6.70293">
        <ele>2052</ele>
        <time>2022-07-19T16:28:17Z</time>
      </trkpt>
      <trkpt lat="44.53852" lon="6.70293">
        <ele>2052</ele>
        <time>2022-07-19T16:28:18Z</time>
      </trkpt>
      <trkpt lat="44.53854" lon="6.70293">
        <ele>2052.2</ele>
        <time>2022-07-19T16:28:19Z</time>
      </trkpt>
      <trkpt lat="44.53856" lon="6.70293">
        <ele>2052.6</ele>
        <time>2022-07-19T16:28:20Z</time>
      </trkpt>
      <trkpt lat="44.53857" lon="6.70293">
        <ele>2052.8</ele>
        <time>2022-07-19T16:28:21Z</time>
      </trkpt>
      <trkpt lat="44.53859" lon="6.70293">
        <ele>2052.8</ele>
        <time>2022-07-19T16:28:22Z</time>
      </trkpt>
      <trkpt lat="44.53861" lon="6.70293">
        <ele>2053</ele>
        <time>2022-07-19T16:28:23Z</time>
      </trkpt>
      <trkpt lat="44.53862" lon="6.70293">
        <ele>2053</ele>
        <time>2022-07-19T16:28:24Z</time>
      </trkpt>
      <trkpt lat="44.53864" lon="6.70293">
        <ele>2053.4</ele>
        <time>2022-07-19T16:28:25Z</time>
      </trkpt>
      <trkpt lat="44.53866" lon="6.70292">
        <ele>2053.4</ele>
        <time>2022-07-19T16:28:26Z</time>
      </trkpt>
      <trkpt lat="44.53867" lon="6.70292">
        <ele>2053.8</ele>
        <time>2022-07-19T16:28:27Z</time>
      </trkpt>
      <trkpt lat="44.5387" lon="6.7029">
        <ele>2053.8</ele>
        <time>2022-07-19T16:28:28Z</time>
      </trkpt>
      <trkpt lat="44.53872" lon="6.70289">
        <ele>2054</ele>
        <time>2022-07-19T16:28:29Z</time>
      </trkpt>
      <trkpt lat="44.53873" lon="6.70288">
        <ele>2054</ele>
        <time>2022-07-19T16:28:30Z</time>
      </trkpt>
      <trkpt lat="44.53874" lon="6.70287">
        <ele>2054.4</ele>
        <time>2022-07-19T16:28:31Z</time>
      </trkpt>
      <trkpt lat="44.53876" lon="6.70286">
        <ele>2054.4</ele>
        <time>2022-07-19T16:28:32Z</time>
      </trkpt>
      <trkpt lat="44.53877" lon="6.70286">
        <ele>2054.6</ele>
        <time>2022-07-19T16:28:33Z</time>
      </trkpt>
      <trkpt lat="44.53879" lon="6.70286">
        <ele>2054.6</ele>
        <time>2022-07-19T16:28:34Z</time>
      </trkpt>
      <trkpt lat="44.53881" lon="6.70286">
        <ele>2054.8</ele>
        <time>2022-07-19T16:28:35Z</time>
      </trkpt>
      <trkpt lat="44.53883" lon="6.70285">
        <ele>2054.8</ele>
        <time>2022-07-19T16:28:36Z</time>
      </trkpt>
      <trkpt lat="44.53885" lon="6.70284">
        <ele>2055</ele>
        <time>2022-07-19T16:28:37Z</time>
      </trkpt>
      <trkpt lat="44.53886" lon="6.70284">
        <ele>2055</ele>
        <time>2022-07-19T16:28:38Z</time>
      </trkpt>
      <trkpt lat="44.53887" lon="6.70283">
        <ele>2055.4</ele>
        <time>2022-07-19T16:28:39Z</time>
      </trkpt>
      <trkpt lat="44.53889" lon="6.70283">
        <ele>2055.8</ele>
        <time>2022-07-19T16:29:32Z</time>
      </trkpt>
      <trkpt lat="44.5389" lon="6.70283">
        <ele>2055.8</ele>
        <time>2022-07-19T16:29:33Z</time>
      </trkpt>
      <trkpt lat="44.53891" lon="6.70281">
        <ele>2055.8</ele>
        <time>2022-07-19T16:29:34Z</time>
      </trkpt>
      <trkpt lat="44.53892" lon="6.7028">
        <ele>2055.8</ele>
        <time>2022-07-19T16:29:35Z</time>
      </trkpt>
      <trkpt lat="44.53893" lon="6.70279">
        <ele>2055.8</ele>
        <time>2022-07-19T16:29:36Z</time>
      </trkpt>
      <trkpt lat="44.53894" lon="6.70279">
        <ele>2055.6</ele>
        <time>2022-07-19T16:29:37Z</time>
      </trkpt>
      <trkpt lat="44.53895" lon="6.70278">
        <ele>2055.6</ele>
        <time>2022-07-19T16:29:38Z</time>
      </trkpt>
      <trkpt lat="44.53896" lon="6.70277">
        <ele>2055.6</ele>
        <time>2022-07-19T16:29:39Z</time>
      </trkpt>
      <trkpt lat="44.53897" lon="6.70277">
        <ele>2055.6</ele>
        <time>2022-07-19T16:29:40Z</time>
      </trkpt>
      <trkpt lat="44.53898" lon="6.70277">
        <ele>2055.4</ele>
        <time>2022-07-19T16:29:41Z</time>
      </trkpt>
      <trkpt lat="44.53899" lon="6.70276">
        <ele>2055.4</ele>
        <time>2022-07-19T16:29:42Z</time>
      </trkpt>
      <trkpt lat="44.539" lon="6.70276">
        <ele>2055.4</ele>
        <time>2022-07-19T16:29:43Z</time>
      </trkpt>
      <trkpt lat="44.53901" lon="6.70276">
        <ele>2055.4</ele>
        <time>2022-07-19T16:29:44Z</time>
      </trkpt>
      <trkpt lat="44.53902" lon="6.70276">
        <ele>2055.4</ele>
        <time>2022-07-19T16:29:45Z</time>
      </trkpt>
      <trkpt lat="44.53903" lon="6.70275">
        <ele>2055.2</ele>
        <time>2022-07-19T16:29:46Z</time>
      </trkpt>
      <trkpt lat="44.53904" lon="6.70275">
        <ele>2055.2</ele>
        <time>2022-07-19T16:29:47Z</time>
      </trkpt>
      <trkpt lat="44.53905" lon="6.70274">
        <ele>2055.2</ele>
        <time>2022-07-19T16:29:48Z</time>
      </trkpt>
      <trkpt lat="44.53906" lon="6.70273">
        <ele>2055.2</ele>
        <time>2022-07-19T16:29:49Z</time>
      </trkpt>
      <trkpt lat="44.53907" lon="6.70272">
        <ele>2055.2</ele>
        <time>2022-07-19T16:29:50Z</time>
      </trkpt>
      <trkpt lat="44.53908" lon="6.70271">
        <ele>2055.2</ele>
        <time>2022-07-19T16:29:51Z</time>
      </trkpt>
      <trkpt lat="44.53909" lon="6.70271">
        <ele>2055.2</ele>
        <time>2022-07-19T16:29:52Z</time>
      </trkpt>
      <trkpt lat="44.5391" lon="6.7027">
        <ele>2055.2</ele>
        <time>2022-07-19T16:29:53Z</time>
      </trkpt>
      <trkpt lat="44.53911" lon="6.7027">
        <ele>2055.2</ele>
        <time>2022-07-19T16:29:54Z</time>
      </trkpt>
      <trkpt lat="44.53912" lon="6.70269">
        <ele>2055.2</ele>
        <time>2022-07-19T16:29:55Z</time>
      </trkpt>
      <trkpt lat="44.53913" lon="6.70269">
        <ele>2055.2</ele>
        <time>2022-07-19T16:29:56Z</time>
      </trkpt>
      <trkpt lat="44.53914" lon="6.70269">
        <ele>2055.2</ele>
        <time>2022-07-19T16:29:57Z</time>
      </trkpt>
      <trkpt lat="44.53915" lon="6.70269">
        <ele>2055.2</ele>
        <time>2022-07-19T16:29:58Z</time>
      </trkpt>
      <trkpt lat="44.53916" lon="6.70268">
        <ele>2055.2</ele>
        <time>2022-07-19T16:29:59Z</time>
      </trkpt>
      <trkpt lat="44.53917" lon="6.70268">
        <ele>2055.2</ele>
        <time>2022-07-19T16:30:00Z</time>
      </trkpt>
      <trkpt lat="44.53916" lon="6.70266">
        <ele>2055.4</ele>
        <time>2022-07-19T16:34:07Z</time>
      </trkpt>
      <trkpt lat="44.53915" lon="6.70266">
        <ele>2055.4</ele>
        <time>2022-07-19T16:34:08Z</time>
      </trkpt>
      <trkpt lat="44.53914" lon="6.70266">
        <ele>2055.4</ele>
        <time>2022-07-19T16:34:09Z</time>
      </trkpt>
      <trkpt lat="44.53917" lon="6.70254">
        <ele>2055.4</ele>
        <time>2022-07-19T16:34:29Z</time>
      </trkpt>
      <trkpt lat="44.53918" lon="6.70252">
        <ele>2055.4</ele>
        <time>2022-07-19T16:34:30Z</time>
      </trkpt>
      <trkpt lat="44.53919" lon="6.7025">
        <ele>2055.4</ele>
        <time>2022-07-19T16:34:31Z</time>
      </trkpt>
      <trkpt lat="44.53921" lon="6.70248">
        <ele>2055.4</ele>
        <time>2022-07-19T16:34:32Z</time>
      </trkpt>
      <trkpt lat="44.53922" lon="6.70247">
        <ele>2055.4</ele>
        <time>2022-07-19T16:34:33Z</time>
      </trkpt>
      <trkpt lat="44.53924" lon="6.70245">
        <ele>2055.4</ele>
        <time>2022-07-19T16:34:34Z</time>
      </trkpt>
      <trkpt lat="44.53926" lon="6.70244">
        <ele>2055.4</ele>
        <time>2022-07-19T16:34:35Z</time>
      </trkpt>
      <trkpt lat="44.53928" lon="6.70243">
        <ele>2055.4</ele>
        <time>2022-07-19T16:34:36Z</time>
      </trkpt>
      <trkpt lat="44.5393" lon="6.70242">
        <ele>2055.4</ele>
        <time>2022-07-19T16:34:37Z</time>
      </trkpt>
      <trkpt lat="44.53933" lon="6.70241">
        <ele>2055.4</ele>
        <time>2022-07-19T16:34:38Z</time>
      </trkpt>
      <trkpt lat="44.53936" lon="6.70239">
        <ele>2055</ele>
        <time>2022-07-19T16:34:39Z</time>
      </trkpt>
      <trkpt lat="44.53939" lon="6.70238">
        <ele>2055</ele>
        <time>2022-07-19T16:34:40Z</time>
      </trkpt>
      <trkpt lat="44.53943" lon="6.70236">
        <ele>2055</ele>
        <time>2022-07-19T16:34:41Z</time>
      </trkpt>
      <trkpt lat="44.53946" lon="6.70235">
        <ele>2055</ele>
        <time>2022-07-19T16:34:42Z</time>
      </trkpt>
      <trkpt lat="44.5395" lon="6.70233">
        <ele>2054.8</ele>
        <time>2022-07-19T16:34:43Z</time>
      </trkpt>
      <trkpt lat="44.53954" lon="6.70231">
        <ele>2054.8</ele>
        <time>2022-07-19T16:34:44Z</time>
      </trkpt>
      <trkpt lat="44.53958" lon="6.70229">
        <ele>2054.6</ele>
        <time>2022-07-19T16:34:45Z</time>
      </trkpt>
      <trkpt lat="44.53962" lon="6.70228">
        <ele>2054.6</ele>
        <time>2022-07-19T16:34:46Z</time>
      </trkpt>
      <trkpt lat="44.53967" lon="6.70227">
        <ele>2054.6</ele>
        <time>2022-07-19T16:34:47Z</time>
      </trkpt>
      <trkpt lat="44.53972" lon="6.70225">
        <ele>2054.2</ele>
        <time>2022-07-19T16:34:48Z</time>
      </trkpt>
      <trkpt lat="44.53978" lon="6.70223">
        <ele>2054.2</ele>
        <time>2022-07-19T16:34:49Z</time>
      </trkpt>
      <trkpt lat="44.53984" lon="6.70222">
        <ele>2053.8</ele>
        <time>2022-07-19T16:34:50Z</time>
      </trkpt>
      <trkpt lat="44.53991" lon="6.7022">
        <ele>2053.4</ele>
        <time>2022-07-19T16:34:51Z</time>
      </trkpt>
      <trkpt lat="44.53998" lon="6.70219">
        <ele>2053</ele>
        <time>2022-07-19T16:34:52Z</time>
      </trkpt>
      <trkpt lat="44.54005" lon="6.7022">
        <ele>2052.6</ele>
        <time>2022-07-19T16:34:53Z</time>
      </trkpt>
      <trkpt lat="44.54013" lon="6.70221">
        <ele>2052</ele>
        <time>2022-07-19T16:34:54Z</time>
      </trkpt>
      <trkpt lat="44.54021" lon="6.70225">
        <ele>2051.4</ele>
        <time>2022-07-19T16:34:55Z</time>
      </trkpt>
      <trkpt lat="44.5403" lon="6.7023">
        <ele>2051</ele>
        <time>2022-07-19T16:34:56Z</time>
      </trkpt>
      <trkpt lat="44.54038" lon="6.70236">
        <ele>2050</ele>
        <time>2022-07-19T16:34:57Z</time>
      </trkpt>
      <trkpt lat="44.54047" lon="6.70241">
        <ele>2049.2</ele>
        <time>2022-07-19T16:34:58Z</time>
      </trkpt>
      <trkpt lat="44.54057" lon="6.70246">
        <ele>2048.4</ele>
        <time>2022-07-19T16:34:59Z</time>
      </trkpt>
      <trkpt lat="44.54068" lon="6.70248">
        <ele>2047.6</ele>
        <time>2022-07-19T16:35:00Z</time>
      </trkpt>
      <trkpt lat="44.5408" lon="6.7025">
        <ele>2046.6</ele>
        <time>2022-07-19T16:35:01Z</time>
      </trkpt>
      <trkpt lat="44.54091" lon="6.70251">
        <ele>2045.6</ele>
        <time>2022-07-19T16:35:02Z</time>
      </trkpt>
      <trkpt lat="44.54104" lon="6.70251">
        <ele>2044.6</ele>
        <time>2022-07-19T16:35:03Z</time>
      </trkpt>
      <trkpt lat="44.54117" lon="6.70251">
        <ele>2043.6</ele>
        <time>2022-07-19T16:35:04Z</time>
      </trkpt>
      <trkpt lat="44.54131" lon="6.70251">
        <ele>2042.6</ele>
        <time>2022-07-19T16:35:05Z</time>
      </trkpt>
      <trkpt lat="44.54145" lon="6.70251">
        <ele>2041.6</ele>
        <time>2022-07-19T16:35:06Z</time>
      </trkpt>
      <trkpt lat="44.54158" lon="6.70252">
        <ele>2040.6</ele>
        <time>2022-07-19T16:35:07Z</time>
      </trkpt>
      <trkpt lat="44.54173" lon="6.70257">
        <ele>2039.6</ele>
        <time>2022-07-19T16:35:08Z</time>
      </trkpt>
      <trkpt lat="44.54186" lon="6.70262">
        <ele>2038.6</ele>
        <time>2022-07-19T16:35:09Z</time>
      </trkpt>
      <trkpt lat="44.54198" lon="6.70269">
        <ele>2037.8</ele>
        <time>2022-07-19T16:35:10Z</time>
      </trkpt>
      <trkpt lat="44.54209" lon="6.70277">
        <ele>2037</ele>
        <time>2022-07-19T16:35:11Z</time>
      </trkpt>
      <trkpt lat="44.54222" lon="6.70283">
        <ele>2036.2</ele>
        <time>2022-07-19T16:35:12Z</time>
      </trkpt>
      <trkpt lat="44.54234" lon="6.70286">
        <ele>2035.4</ele>
        <time>2022-07-19T16:35:13Z</time>
      </trkpt>
      <trkpt lat="44.54246" lon="6.70287">
        <ele>2034.8</ele>
        <time>2022-07-19T16:35:14Z</time>
      </trkpt>
      <trkpt lat="44.54259" lon="6.70285">
        <ele>2034.2</ele>
        <time>2022-07-19T16:35:15Z</time>
      </trkpt>
      <trkpt lat="44.54271" lon="6.7028">
        <ele>2033.6</ele>
        <time>2022-07-19T16:35:16Z</time>
      </trkpt>
      <trkpt lat="44.54282" lon="6.70275">
        <ele>2033</ele>
        <time>2022-07-19T16:35:17Z</time>
      </trkpt>
      <trkpt lat="44.54294" lon="6.70269">
        <ele>2032.6</ele>
        <time>2022-07-19T16:35:18Z</time>
      </trkpt>
      <trkpt lat="44.54305" lon="6.70265">
        <ele>2032</ele>
        <time>2022-07-19T16:35:19Z</time>
      </trkpt>
      <trkpt lat="44.54317" lon="6.70264">
        <ele>2031.6</ele>
        <time>2022-07-19T16:35:20Z</time>
      </trkpt>
      <trkpt lat="44.5433" lon="6.70265">
        <ele>2031.2</ele>
        <time>2022-07-19T16:35:21Z</time>
      </trkpt>
      <trkpt lat="44.54342" lon="6.70265">
        <ele>2030.8</ele>
        <time>2022-07-19T16:35:22Z</time>
      </trkpt>
      <trkpt lat="44.54355" lon="6.70263">
        <ele>2030.4</ele>
        <time>2022-07-19T16:35:23Z</time>
      </trkpt>
      <trkpt lat="44.54366" lon="6.70258">
        <ele>2030</ele>
        <time>2022-07-19T16:35:24Z</time>
      </trkpt>
      <trkpt lat="44.54376" lon="6.70252">
        <ele>2029.8</ele>
        <time>2022-07-19T16:35:25Z</time>
      </trkpt>
      <trkpt lat="44.54387" lon="6.70247">
        <ele>2029.4</ele>
        <time>2022-07-19T16:35:26Z</time>
      </trkpt>
      <trkpt lat="44.54398" lon="6.70243">
        <ele>2029.2</ele>
        <time>2022-07-19T16:35:27Z</time>
      </trkpt>
      <trkpt lat="44.5441" lon="6.70242">
        <ele>2029</ele>
        <time>2022-07-19T16:35:28Z</time>
      </trkpt>
      <trkpt lat="44.54422" lon="6.70243">
        <ele>2028.6</ele>
        <time>2022-07-19T16:35:29Z</time>
      </trkpt>
      <trkpt lat="44.54433" lon="6.70244">
        <ele>2028.2</ele>
        <time>2022-07-19T16:35:30Z</time>
      </trkpt>
      <trkpt lat="44.54445" lon="6.70244">
        <ele>2027.6</ele>
        <time>2022-07-19T16:35:31Z</time>
      </trkpt>
      <trkpt lat="44.54457" lon="6.70242">
        <ele>2026.8</ele>
        <time>2022-07-19T16:35:32Z</time>
      </trkpt>
      <trkpt lat="44.5447" lon="6.7024">
        <ele>2026</ele>
        <time>2022-07-19T16:35:33Z</time>
      </trkpt>
      <trkpt lat="44.54483" lon="6.70235">
        <ele>2025</ele>
        <time>2022-07-19T16:35:34Z</time>
      </trkpt>
      <trkpt lat="44.54497" lon="6.70232">
        <ele>2024.2</ele>
        <time>2022-07-19T16:35:35Z</time>
      </trkpt>
      <trkpt lat="44.54509" lon="6.70228">
        <ele>2023.4</ele>
        <time>2022-07-19T16:35:36Z</time>
      </trkpt>
      <trkpt lat="44.54523" lon="6.70223">
        <ele>2022.4</ele>
        <time>2022-07-19T16:35:37Z</time>
      </trkpt>
      <trkpt lat="44.54536" lon="6.70218">
        <ele>2021.6</ele>
        <time>2022-07-19T16:35:38Z</time>
      </trkpt>
      <trkpt lat="44.54549" lon="6.70216">
        <ele>2020.6</ele>
        <time>2022-07-19T16:35:39Z</time>
      </trkpt>
      <trkpt lat="44.54563" lon="6.70218">
        <ele>2019.8</ele>
        <time>2022-07-19T16:35:40Z</time>
      </trkpt>
      <trkpt lat="44.54577" lon="6.70221">
        <ele>2019</ele>
        <time>2022-07-19T16:35:41Z</time>
      </trkpt>
      <trkpt lat="44.5459" lon="6.70224">
        <ele>2018.4</ele>
        <time>2022-07-19T16:35:42Z</time>
      </trkpt>
      <trkpt lat="44.54605" lon="6.70225">
        <ele>2017.8</ele>
        <time>2022-07-19T16:35:43Z</time>
      </trkpt>
      <trkpt lat="44.54618" lon="6.70224">
        <ele>2017.2</ele>
        <time>2022-07-19T16:35:44Z</time>
      </trkpt>
      <trkpt lat="44.54631" lon="6.70224">
        <ele>2016.6</ele>
        <time>2022-07-19T16:35:45Z</time>
      </trkpt>
      <trkpt lat="44.54644" lon="6.70226">
        <ele>2015.8</ele>
        <time>2022-07-19T16:35:46Z</time>
      </trkpt>
      <trkpt lat="44.54657" lon="6.70229">
        <ele>2015.2</ele>
        <time>2022-07-19T16:35:47Z</time>
      </trkpt>
      <trkpt lat="44.5467" lon="6.70231">
        <ele>2014.6</ele>
        <time>2022-07-19T16:35:48Z</time>
      </trkpt>
      <trkpt lat="44.54684" lon="6.70233">
        <ele>2013.8</ele>
        <time>2022-07-19T16:35:49Z</time>
      </trkpt>
      <trkpt lat="44.54697" lon="6.70234">
        <ele>2013</ele>
        <time>2022-07-19T16:35:50Z</time>
      </trkpt>
      <trkpt lat="44.5471" lon="6.70236">
        <ele>2012.4</ele>
        <time>2022-07-19T16:35:51Z</time>
      </trkpt>
      <trkpt lat="44.54723" lon="6.70241">
        <ele>2011.6</ele>
        <time>2022-07-19T16:35:52Z</time>
      </trkpt>
      <trkpt lat="44.54736" lon="6.70247">
        <ele>2011</ele>
        <time>2022-07-19T16:35:53Z</time>
      </trkpt>
      <trkpt lat="44.54749" lon="6.70254">
        <ele>2010.2</ele>
        <time>2022-07-19T16:35:54Z</time>
      </trkpt>
      <trkpt lat="44.54761" lon="6.70263">
        <ele>2009.4</ele>
        <time>2022-07-19T16:35:55Z</time>
      </trkpt>
      <trkpt lat="44.54773" lon="6.70272">
        <ele>2008.6</ele>
        <time>2022-07-19T16:35:56Z</time>
      </trkpt>
      <trkpt lat="44.54784" lon="6.70278">
        <ele>2008</ele>
        <time>2022-07-19T16:35:57Z</time>
      </trkpt>
      <trkpt lat="44.54795" lon="6.70279">
        <ele>2007.2</ele>
        <time>2022-07-19T16:35:58Z</time>
      </trkpt>
      <trkpt lat="44.54808" lon="6.70277">
        <ele>2006.6</ele>
        <time>2022-07-19T16:35:59Z</time>
      </trkpt>
      <trkpt lat="44.5482" lon="6.70273">
        <ele>2005.8</ele>
        <time>2022-07-19T16:36:00Z</time>
      </trkpt>
      <trkpt lat="44.54831" lon="6.70265">
        <ele>2005.4</ele>
        <time>2022-07-19T16:36:01Z</time>
      </trkpt>
      <trkpt lat="44.54842" lon="6.70256">
        <ele>2004.8</ele>
        <time>2022-07-19T16:36:02Z</time>
      </trkpt>
      <trkpt lat="44.54853" lon="6.70246">
        <ele>2004</ele>
        <time>2022-07-19T16:36:03Z</time>
      </trkpt>
      <trkpt lat="44.54865" lon="6.70235">
        <ele>2003.4</ele>
        <time>2022-07-19T16:36:04Z</time>
      </trkpt>
      <trkpt lat="44.54876" lon="6.70225">
        <ele>2002.6</ele>
        <time>2022-07-19T16:36:05Z</time>
      </trkpt>
      <trkpt lat="44.54888" lon="6.70214">
        <ele>2002</ele>
        <time>2022-07-19T16:36:06Z</time>
      </trkpt>
      <trkpt lat="44.549" lon="6.70205">
        <ele>2001.2</ele>
        <time>2022-07-19T16:36:07Z</time>
      </trkpt>
      <trkpt lat="44.54913" lon="6.70197">
        <ele>2000.2</ele>
        <time>2022-07-19T16:36:08Z</time>
      </trkpt>
      <trkpt lat="44.54927" lon="6.70188">
        <ele>1999.4</ele>
        <time>2022-07-19T16:36:09Z</time>
      </trkpt>
      <trkpt lat="44.54941" lon="6.70178">
        <ele>1998.2</ele>
        <time>2022-07-19T16:36:10Z</time>
      </trkpt>
      <trkpt lat="44.54954" lon="6.70168">
        <ele>1997.2</ele>
        <time>2022-07-19T16:36:11Z</time>
      </trkpt>
      <trkpt lat="44.54966" lon="6.70157">
        <ele>1996.2</ele>
        <time>2022-07-19T16:36:12Z</time>
      </trkpt>
      <trkpt lat="44.5498" lon="6.70145">
        <ele>1995</ele>
        <time>2022-07-19T16:36:13Z</time>
      </trkpt>
      <trkpt lat="44.54993" lon="6.70135">
        <ele>1993.8</ele>
        <time>2022-07-19T16:36:14Z</time>
      </trkpt>
      <trkpt lat="44.55008" lon="6.70126">
        <ele>1992.4</ele>
        <time>2022-07-19T16:36:15Z</time>
      </trkpt>
      <trkpt lat="44.55022" lon="6.70119">
        <ele>1991</ele>
        <time>2022-07-19T16:36:16Z</time>
      </trkpt>
      <trkpt lat="44.55037" lon="6.70111">
        <ele>1989.6</ele>
        <time>2022-07-19T16:36:17Z</time>
      </trkpt>
      <trkpt lat="44.55052" lon="6.70103">
        <ele>1988.2</ele>
        <time>2022-07-19T16:36:18Z</time>
      </trkpt>
      <trkpt lat="44.55067" lon="6.70093">
        <ele>1986.8</ele>
        <time>2022-07-19T16:36:19Z</time>
      </trkpt>
      <trkpt lat="44.55082" lon="6.70082">
        <ele>1985.4</ele>
        <time>2022-07-19T16:36:20Z</time>
      </trkpt>
      <trkpt lat="44.55096" lon="6.7007">
        <ele>1984</ele>
        <time>2022-07-19T16:36:21Z</time>
      </trkpt>
      <trkpt lat="44.55108" lon="6.7006">
        <ele>1982.4</ele>
        <time>2022-07-19T16:36:22Z</time>
      </trkpt>
      <trkpt lat="44.55119" lon="6.70051">
        <ele>1981</ele>
        <time>2022-07-19T16:36:23Z</time>
      </trkpt>
      <trkpt lat="44.5513" lon="6.70045">
        <ele>1979.8</ele>
        <time>2022-07-19T16:36:24Z</time>
      </trkpt>
      <trkpt lat="44.55141" lon="6.7004">
        <ele>1978.4</ele>
        <time>2022-07-19T16:36:25Z</time>
      </trkpt>
      <trkpt lat="44.55153" lon="6.70038">
        <ele>1977.2</ele>
        <time>2022-07-19T16:36:26Z</time>
      </trkpt>
      <trkpt lat="44.55166" lon="6.70038">
        <ele>1975.8</ele>
        <time>2022-07-19T16:36:27Z</time>
      </trkpt>
      <trkpt lat="44.55179" lon="6.70042">
        <ele>1974.6</ele>
        <time>2022-07-19T16:36:28Z</time>
      </trkpt>
      <trkpt lat="44.55192" lon="6.70045">
        <ele>1973.2</ele>
        <time>2022-07-19T16:36:29Z</time>
      </trkpt>
      <trkpt lat="44.55204" lon="6.70047">
        <ele>1972</ele>
        <time>2022-07-19T16:36:30Z</time>
      </trkpt>
      <trkpt lat="44.55216" lon="6.70048">
        <ele>1970.8</ele>
        <time>2022-07-19T16:36:31Z</time>
      </trkpt>
      <trkpt lat="44.55228" lon="6.70046">
        <ele>1969.6</ele>
        <time>2022-07-19T16:36:32Z</time>
      </trkpt>
      <trkpt lat="44.55239" lon="6.7004">
        <ele>1968.6</ele>
        <time>2022-07-19T16:36:33Z</time>
      </trkpt>
      <trkpt lat="44.5525" lon="6.70032">
        <ele>1967.6</ele>
        <time>2022-07-19T16:36:34Z</time>
      </trkpt>
      <trkpt lat="44.55259" lon="6.70021">
        <ele>1966.4</ele>
        <time>2022-07-19T16:36:35Z</time>
      </trkpt>
      <trkpt lat="44.55266" lon="6.70007">
        <ele>1965.4</ele>
        <time>2022-07-19T16:36:36Z</time>
      </trkpt>
      <trkpt lat="44.55272" lon="6.69991">
        <ele>1964.2</ele>
        <time>2022-07-19T16:36:37Z</time>
      </trkpt>
      <trkpt lat="44.55278" lon="6.69975">
        <ele>1963</ele>
        <time>2022-07-19T16:36:38Z</time>
      </trkpt>
      <trkpt lat="44.55286" lon="6.6996">
        <ele>1961.8</ele>
        <time>2022-07-19T16:36:39Z</time>
      </trkpt>
      <trkpt lat="44.55296" lon="6.69946">
        <ele>1960.6</ele>
        <time>2022-07-19T16:36:40Z</time>
      </trkpt>
      <trkpt lat="44.55308" lon="6.69936">
        <ele>1959.4</ele>
        <time>2022-07-19T16:36:41Z</time>
      </trkpt>
      <trkpt lat="44.5532" lon="6.69927">
        <ele>1958.4</ele>
        <time>2022-07-19T16:36:42Z</time>
      </trkpt>
      <trkpt lat="44.55333" lon="6.6992">
        <ele>1957.2</ele>
        <time>2022-07-19T16:36:43Z</time>
      </trkpt>
      <trkpt lat="44.55347" lon="6.69913">
        <ele>1956.4</ele>
        <time>2022-07-19T16:36:44Z</time>
      </trkpt>
      <trkpt lat="44.55361" lon="6.69907">
        <ele>1955.6</ele>
        <time>2022-07-19T16:36:45Z</time>
      </trkpt>
      <trkpt lat="44.55374" lon="6.69902">
        <ele>1954.8</ele>
        <time>2022-07-19T16:36:46Z</time>
      </trkpt>
      <trkpt lat="44.55388" lon="6.69898">
        <ele>1954.2</ele>
        <time>2022-07-19T16:36:47Z</time>
      </trkpt>
      <trkpt lat="44.55402" lon="6.69896">
        <ele>1953.6</ele>
        <time>2022-07-19T16:36:48Z</time>
      </trkpt>
      <trkpt lat="44.55415" lon="6.69893">
        <ele>1953.2</ele>
        <time>2022-07-19T16:36:49Z</time>
      </trkpt>
      <trkpt lat="44.55428" lon="6.69891">
        <ele>1952.8</ele>
        <time>2022-07-19T16:36:50Z</time>
      </trkpt>
      <trkpt lat="44.55442" lon="6.69889">
        <ele>1952.4</ele>
        <time>2022-07-19T16:36:51Z</time>
      </trkpt>
      <trkpt lat="44.55454" lon="6.69886">
        <ele>1952</ele>
        <time>2022-07-19T16:36:52Z</time>
      </trkpt>
      <trkpt lat="44.55466" lon="6.69883">
        <ele>1951.8</ele>
        <time>2022-07-19T16:36:53Z</time>
      </trkpt>
      <trkpt lat="44.55478" lon="6.69881">
        <ele>1951.4</ele>
        <time>2022-07-19T16:36:54Z</time>
      </trkpt>
      <trkpt lat="44.5549" lon="6.69878">
        <ele>1951.2</ele>
        <time>2022-07-19T16:36:55Z</time>
      </trkpt>
      <trkpt lat="44.55502" lon="6.69875">
        <ele>1950.8</ele>
        <time>2022-07-19T16:36:56Z</time>
      </trkpt>
      <trkpt lat="44.55513" lon="6.69871">
        <ele>1950.8</ele>
        <time>2022-07-19T16:36:57Z</time>
      </trkpt>
      <trkpt lat="44.55523" lon="6.69866">
        <ele>1950.2</ele>
        <time>2022-07-19T16:36:58Z</time>
      </trkpt>
      <trkpt lat="44.55534" lon="6.69858">
        <ele>1950</ele>
        <time>2022-07-19T16:36:59Z</time>
      </trkpt>
      <trkpt lat="44.55544" lon="6.69851">
        <ele>1949.8</ele>
        <time>2022-07-19T16:37:00Z</time>
      </trkpt>
      <trkpt lat="44.55554" lon="6.69844">
        <ele>1949.4</ele>
        <time>2022-07-19T16:37:01Z</time>
      </trkpt>
      <trkpt lat="44.55563" lon="6.69835">
        <ele>1949</ele>
        <time>2022-07-19T16:37:02Z</time>
      </trkpt>
      <trkpt lat="44.55572" lon="6.69825">
        <ele>1948.8</ele>
        <time>2022-07-19T16:37:03Z</time>
      </trkpt>
      <trkpt lat="44.5558" lon="6.69815">
        <ele>1948.4</ele>
        <time>2022-07-19T16:37:04Z</time>
      </trkpt>
      <trkpt lat="44.55588" lon="6.69804">
        <ele>1948</ele>
        <time>2022-07-19T16:37:05Z</time>
      </trkpt>
      <trkpt lat="44.55596" lon="6.69793">
        <ele>1947.8</ele>
        <time>2022-07-19T16:37:06Z</time>
      </trkpt>
      <trkpt lat="44.55603" lon="6.69782">
        <ele>1947.4</ele>
        <time>2022-07-19T16:37:07Z</time>
      </trkpt>
      <trkpt lat="44.55611" lon="6.6977">
        <ele>1947.2</ele>
        <time>2022-07-19T16:37:08Z</time>
      </trkpt>
      <trkpt lat="44.55618" lon="6.69759">
        <ele>1946.8</ele>
        <time>2022-07-19T16:37:09Z</time>
      </trkpt>
      <trkpt lat="44.55626" lon="6.69749">
        <ele>1946.6</ele>
        <time>2022-07-19T16:37:10Z</time>
      </trkpt>
      <trkpt lat="44.55634" lon="6.69737">
        <ele>1946.2</ele>
        <time>2022-07-19T16:37:11Z</time>
      </trkpt>
      <trkpt lat="44.5564" lon="6.69724">
        <ele>1946</ele>
        <time>2022-07-19T16:37:12Z</time>
      </trkpt>
      <trkpt lat="44.55645" lon="6.69711">
        <ele>1945.6</ele>
        <time>2022-07-19T16:37:13Z</time>
      </trkpt>
      <trkpt lat="44.55649" lon="6.69697">
        <ele>1945.4</ele>
        <time>2022-07-19T16:37:14Z</time>
      </trkpt>
      <trkpt lat="44.55654" lon="6.69683">
        <ele>1945</ele>
        <time>2022-07-19T16:37:15Z</time>
      </trkpt>
      <trkpt lat="44.55658" lon="6.69669">
        <ele>1944.6</ele>
        <time>2022-07-19T16:37:16Z</time>
      </trkpt>
      <trkpt lat="44.55663" lon="6.69656">
        <ele>1944.4</ele>
        <time>2022-07-19T16:37:17Z</time>
      </trkpt>
      <trkpt lat="44.55667" lon="6.69642">
        <ele>1944</ele>
        <time>2022-07-19T16:37:18Z</time>
      </trkpt>
      <trkpt lat="44.55671" lon="6.69628">
        <ele>1943.6</ele>
        <time>2022-07-19T16:37:19Z</time>
      </trkpt>
      <trkpt lat="44.55674" lon="6.69614">
        <ele>1943.6</ele>
        <time>2022-07-19T16:37:20Z</time>
      </trkpt>
      <trkpt lat="44.55678" lon="6.696">
        <ele>1943.2</ele>
        <time>2022-07-19T16:37:21Z</time>
      </trkpt>
      <trkpt lat="44.55682" lon="6.69587">
        <ele>1943.2</ele>
        <time>2022-07-19T16:37:22Z</time>
      </trkpt>
      <trkpt lat="44.55686" lon="6.69574">
        <ele>1942.8</ele>
        <time>2022-07-19T16:37:23Z</time>
      </trkpt>
      <trkpt lat="44.55689" lon="6.69562">
        <ele>1942.8</ele>
        <time>2022-07-19T16:37:24Z</time>
      </trkpt>
      <trkpt lat="44.55693" lon="6.69549">
        <ele>1942.8</ele>
        <time>2022-07-19T16:37:25Z</time>
      </trkpt>
      <trkpt lat="44.55697" lon="6.69537">
        <ele>1943.2</ele>
        <time>2022-07-19T16:37:26Z</time>
      </trkpt>
      <trkpt lat="44.55701" lon="6.69526">
        <ele>1943.2</ele>
        <time>2022-07-19T16:37:27Z</time>
      </trkpt>
      <trkpt lat="44.55705" lon="6.69515">
        <ele>1943.2</ele>
        <time>2022-07-19T16:37:28Z</time>
      </trkpt>
      <trkpt lat="44.55709" lon="6.69504">
        <ele>1943.2</ele>
        <time>2022-07-19T16:37:29Z</time>
      </trkpt>
      <trkpt lat="44.55714" lon="6.69494">
        <ele>1943.2</ele>
        <time>2022-07-19T16:37:30Z</time>
      </trkpt>
      <trkpt lat="44.55719" lon="6.69483">
        <ele>1943.2</ele>
        <time>2022-07-19T16:37:31Z</time>
      </trkpt>
      <trkpt lat="44.55724" lon="6.69473">
        <ele>1943.2</ele>
        <time>2022-07-19T16:37:32Z</time>
      </trkpt>
      <trkpt lat="44.5573" lon="6.69464">
        <ele>1943.2</ele>
        <time>2022-07-19T16:37:33Z</time>
      </trkpt>
      <trkpt lat="44.55736" lon="6.69454">
        <ele>1943.2</ele>
        <time>2022-07-19T16:37:34Z</time>
      </trkpt>
      <trkpt lat="44.55741" lon="6.69445">
        <ele>1942.8</ele>
        <time>2022-07-19T16:37:35Z</time>
      </trkpt>
      <trkpt lat="44.55747" lon="6.69435">
        <ele>1942.8</ele>
        <time>2022-07-19T16:37:36Z</time>
      </trkpt>
      <trkpt lat="44.55753" lon="6.69426">
        <ele>1942.8</ele>
        <time>2022-07-19T16:37:37Z</time>
      </trkpt>
      <trkpt lat="44.55759" lon="6.69418">
        <ele>1942.8</ele>
        <time>2022-07-19T16:37:38Z</time>
      </trkpt>
      <trkpt lat="44.55766" lon="6.6941">
        <ele>1942.6</ele>
        <time>2022-07-19T16:37:39Z</time>
      </trkpt>
      <trkpt lat="44.55774" lon="6.69403">
        <ele>1942.6</ele>
        <time>2022-07-19T16:37:40Z</time>
      </trkpt>
      <trkpt lat="44.55781" lon="6.69397">
        <ele>1942.2</ele>
        <time>2022-07-19T16:37:41Z</time>
      </trkpt>
      <trkpt lat="44.55789" lon="6.69391">
        <ele>1942.2</ele>
        <time>2022-07-19T16:37:42Z</time>
      </trkpt>
      <trkpt lat="44.55796" lon="6.69384">
        <ele>1942</ele>
        <time>2022-07-19T16:37:43Z</time>
      </trkpt>
      <trkpt lat="44.55804" lon="6.69378">
        <ele>1942</ele>
        <time>2022-07-19T16:37:44Z</time>
      </trkpt>
      <trkpt lat="44.55811" lon="6.69372">
        <ele>1941.6</ele>
        <time>2022-07-19T16:37:45Z</time>
      </trkpt>
      <trkpt lat="44.55819" lon="6.69365">
        <ele>1941.6</ele>
        <time>2022-07-19T16:37:46Z</time>
      </trkpt>
      <trkpt lat="44.55826" lon="6.69359">
        <ele>1941.2</ele>
        <time>2022-07-19T16:37:47Z</time>
      </trkpt>
      <trkpt lat="44.55834" lon="6.69352">
        <ele>1941.2</ele>
        <time>2022-07-19T16:37:48Z</time>
      </trkpt>
      <trkpt lat="44.55842" lon="6.69345">
        <ele>1940.8</ele>
        <time>2022-07-19T16:37:49Z</time>
      </trkpt>
      <trkpt lat="44.55851" lon="6.69337">
        <ele>1940.4</ele>
        <time>2022-07-19T16:37:50Z</time>
      </trkpt>
      <trkpt lat="44.55859" lon="6.6933">
        <ele>1940</ele>
        <time>2022-07-19T16:37:51Z</time>
      </trkpt>
      <trkpt lat="44.55869" lon="6.69324">
        <ele>1939.6</ele>
        <time>2022-07-19T16:37:52Z</time>
      </trkpt>
      <trkpt lat="44.55879" lon="6.69318">
        <ele>1939</ele>
        <time>2022-07-19T16:37:53Z</time>
      </trkpt>
      <trkpt lat="44.55889" lon="6.69311">
        <ele>1938.2</ele>
        <time>2022-07-19T16:37:54Z</time>
      </trkpt>
      <trkpt lat="44.55899" lon="6.69303">
        <ele>1937.4</ele>
        <time>2022-07-19T16:37:55Z</time>
      </trkpt>
      <trkpt lat="44.5591" lon="6.69295">
        <ele>1936.8</ele>
        <time>2022-07-19T16:37:56Z</time>
      </trkpt>
      <trkpt lat="44.55921" lon="6.69286">
        <ele>1935.6</ele>
        <time>2022-07-19T16:37:57Z</time>
      </trkpt>
      <trkpt lat="44.55931" lon="6.69276">
        <ele>1934.6</ele>
        <time>2022-07-19T16:37:58Z</time>
      </trkpt>
      <trkpt lat="44.55942" lon="6.69265">
        <ele>1933.6</ele>
        <time>2022-07-19T16:37:59Z</time>
      </trkpt>
      <trkpt lat="44.55953" lon="6.69253">
        <ele>1932.4</ele>
        <time>2022-07-19T16:38:00Z</time>
      </trkpt>
      <trkpt lat="44.55963" lon="6.69242">
        <ele>1931.2</ele>
        <time>2022-07-19T16:38:01Z</time>
      </trkpt>
      <trkpt lat="44.55974" lon="6.6923">
        <ele>1930.2</ele>
        <time>2022-07-19T16:38:02Z</time>
      </trkpt>
      <trkpt lat="44.55985" lon="6.69219">
        <ele>1928.8</ele>
        <time>2022-07-19T16:38:03Z</time>
      </trkpt>
      <trkpt lat="44.55996" lon="6.69208">
        <ele>1927.4</ele>
        <time>2022-07-19T16:38:04Z</time>
      </trkpt>
      <trkpt lat="44.56006" lon="6.69196">
        <ele>1926</ele>
        <time>2022-07-19T16:38:05Z</time>
      </trkpt>
      <trkpt lat="44.56014" lon="6.69184">
        <ele>1924.6</ele>
        <time>2022-07-19T16:38:06Z</time>
      </trkpt>
      <trkpt lat="44.56022" lon="6.69171">
        <ele>1923.4</ele>
        <time>2022-07-19T16:38:07Z</time>
      </trkpt>
      <trkpt lat="44.56029" lon="6.69156">
        <ele>1922</ele>
        <time>2022-07-19T16:38:08Z</time>
      </trkpt>
      <trkpt lat="44.56034" lon="6.69139">
        <ele>1920.8</ele>
        <time>2022-07-19T16:38:09Z</time>
      </trkpt>
      <trkpt lat="44.56039" lon="6.69122">
        <ele>1919.8</ele>
        <time>2022-07-19T16:38:10Z</time>
      </trkpt>
      <trkpt lat="44.56044" lon="6.69106">
        <ele>1918.6</ele>
        <time>2022-07-19T16:38:11Z</time>
      </trkpt>
      <trkpt lat="44.56051" lon="6.69089">
        <ele>1917.2</ele>
        <time>2022-07-19T16:38:12Z</time>
      </trkpt>
      <trkpt lat="44.56061" lon="6.69074">
        <ele>1916</ele>
        <time>2022-07-19T16:38:13Z</time>
      </trkpt>
      <trkpt lat="44.56072" lon="6.69061">
        <ele>1914.8</ele>
        <time>2022-07-19T16:38:14Z</time>
      </trkpt>
      <trkpt lat="44.56084" lon="6.69051">
        <ele>1914</ele>
        <time>2022-07-19T16:38:15Z</time>
      </trkpt>
      <trkpt lat="44.56096" lon="6.69041">
        <ele>1913</ele>
        <time>2022-07-19T16:38:16Z</time>
      </trkpt>
      <trkpt lat="44.56108" lon="6.69032">
        <ele>1912.2</ele>
        <time>2022-07-19T16:38:17Z</time>
      </trkpt>
      <trkpt lat="44.5612" lon="6.69022">
        <ele>1911.6</ele>
        <time>2022-07-19T16:38:18Z</time>
      </trkpt>
      <trkpt lat="44.56131" lon="6.69012">
        <ele>1910.8</ele>
        <time>2022-07-19T16:38:19Z</time>
      </trkpt>
      <trkpt lat="44.56143" lon="6.69004">
        <ele>1910.2</ele>
        <time>2022-07-19T16:38:20Z</time>
      </trkpt>
      <trkpt lat="44.56154" lon="6.68994">
        <ele>1909.6</ele>
        <time>2022-07-19T16:38:21Z</time>
      </trkpt>
      <trkpt lat="44.56166" lon="6.68986">
        <ele>1909.2</ele>
        <time>2022-07-19T16:38:22Z</time>
      </trkpt>
      <trkpt lat="44.56177" lon="6.68978">
        <ele>1908.8</ele>
        <time>2022-07-19T16:38:23Z</time>
      </trkpt>
      <trkpt lat="44.56188" lon="6.6897">
        <ele>1908.6</ele>
        <time>2022-07-19T16:38:24Z</time>
      </trkpt>
      <trkpt lat="44.56199" lon="6.68964">
        <ele>1908.6</ele>
        <time>2022-07-19T16:38:25Z</time>
      </trkpt>
      <trkpt lat="44.56211" lon="6.6896">
        <ele>1908.4</ele>
        <time>2022-07-19T16:38:26Z</time>
      </trkpt>
      <trkpt lat="44.56221" lon="6.68954">
        <ele>1908.4</ele>
        <time>2022-07-19T16:38:27Z</time>
      </trkpt>
      <trkpt lat="44.56231" lon="6.68951">
        <ele>1908.4</ele>
        <time>2022-07-19T16:38:28Z</time>
      </trkpt>
      <trkpt lat="44.56241" lon="6.68949">
        <ele>1908.4</ele>
        <time>2022-07-19T16:38:29Z</time>
      </trkpt>
      <trkpt lat="44.56252" lon="6.68945">
        <ele>1908.4</ele>
        <time>2022-07-19T16:38:30Z</time>
      </trkpt>
      <trkpt lat="44.56261" lon="6.68943">
        <ele>1908.4</ele>
        <time>2022-07-19T16:38:31Z</time>
      </trkpt>
      <trkpt lat="44.56271" lon="6.6894">
        <ele>1908.4</ele>
        <time>2022-07-19T16:38:32Z</time>
      </trkpt>
      <trkpt lat="44.5628" lon="6.68937">
        <ele>1908.4</ele>
        <time>2022-07-19T16:38:33Z</time>
      </trkpt>
      <trkpt lat="44.56289" lon="6.68933">
        <ele>1908.6</ele>
        <time>2022-07-19T16:38:34Z</time>
      </trkpt>
      <trkpt lat="44.56297" lon="6.68928">
        <ele>1908.6</ele>
        <time>2022-07-19T16:38:35Z</time>
      </trkpt>
      <trkpt lat="44.56305" lon="6.68921">
        <ele>1908.6</ele>
        <time>2022-07-19T16:38:36Z</time>
      </trkpt>
      <trkpt lat="44.56312" lon="6.68914">
        <ele>1908.8</ele>
        <time>2022-07-19T16:38:37Z</time>
      </trkpt>
      <trkpt lat="44.56318" lon="6.68907">
        <ele>1908.8</ele>
        <time>2022-07-19T16:38:38Z</time>
      </trkpt>
      <trkpt lat="44.56325" lon="6.689">
        <ele>1908.8</ele>
        <time>2022-07-19T16:38:39Z</time>
      </trkpt>
      <trkpt lat="44.56331" lon="6.68892">
        <ele>1908.8</ele>
        <time>2022-07-19T16:38:40Z</time>
      </trkpt>
      <trkpt lat="44.56337" lon="6.68883">
        <ele>1908.6</ele>
        <time>2022-07-19T16:38:41Z</time>
      </trkpt>
      <trkpt lat="44.56344" lon="6.68874">
        <ele>1908.4</ele>
        <time>2022-07-19T16:38:42Z</time>
      </trkpt>
      <trkpt lat="44.5635" lon="6.68866">
        <ele>1908.2</ele>
        <time>2022-07-19T16:38:43Z</time>
      </trkpt>
      <trkpt lat="44.56356" lon="6.68857">
        <ele>1908</ele>
        <time>2022-07-19T16:38:44Z</time>
      </trkpt>
      <trkpt lat="44.56363" lon="6.68848">
        <ele>1907.6</ele>
        <time>2022-07-19T16:38:45Z</time>
      </trkpt>
      <trkpt lat="44.56369" lon="6.68838">
        <ele>1907.2</ele>
        <time>2022-07-19T16:38:46Z</time>
      </trkpt>
      <trkpt lat="44.56375" lon="6.68828">
        <ele>1907</ele>
        <time>2022-07-19T16:38:47Z</time>
      </trkpt>
      <trkpt lat="44.56381" lon="6.68817">
        <ele>1906.6</ele>
        <time>2022-07-19T16:38:48Z</time>
      </trkpt>
      <trkpt lat="44.56388" lon="6.68808">
        <ele>1906.2</ele>
        <time>2022-07-19T16:38:49Z</time>
      </trkpt>
      <trkpt lat="44.56395" lon="6.68798">
        <ele>1905.8</ele>
        <time>2022-07-19T16:38:50Z</time>
      </trkpt>
      <trkpt lat="44.56403" lon="6.68789">
        <ele>1905.2</ele>
        <time>2022-07-19T16:38:51Z</time>
      </trkpt>
      <trkpt lat="44.56411" lon="6.6878">
        <ele>1904.6</ele>
        <time>2022-07-19T16:38:52Z</time>
      </trkpt>
      <trkpt lat="44.56421" lon="6.68772">
        <ele>1904</ele>
        <time>2022-07-19T16:38:53Z</time>
      </trkpt>
      <trkpt lat="44.56431" lon="6.68766">
        <ele>1903.4</ele>
        <time>2022-07-19T16:38:54Z</time>
      </trkpt>
      <trkpt lat="44.56442" lon="6.68762">
        <ele>1902.6</ele>
        <time>2022-07-19T16:38:55Z</time>
      </trkpt>
      <trkpt lat="44.56454" lon="6.68758">
        <ele>1901.8</ele>
        <time>2022-07-19T16:38:56Z</time>
      </trkpt>
      <trkpt lat="44.56466" lon="6.68756">
        <ele>1901</ele>
        <time>2022-07-19T16:38:57Z</time>
      </trkpt>
      <trkpt lat="44.5648" lon="6.68753">
        <ele>1900.2</ele>
        <time>2022-07-19T16:38:58Z</time>
      </trkpt>
      <trkpt lat="44.56493" lon="6.68749">
        <ele>1899.2</ele>
        <time>2022-07-19T16:38:59Z</time>
      </trkpt>
      <trkpt lat="44.56505" lon="6.68742">
        <ele>1898.4</ele>
        <time>2022-07-19T16:39:00Z</time>
      </trkpt>
      <trkpt lat="44.56516" lon="6.68734">
        <ele>1897.4</ele>
        <time>2022-07-19T16:39:01Z</time>
      </trkpt>
      <trkpt lat="44.56527" lon="6.68724">
        <ele>1896.6</ele>
        <time>2022-07-19T16:39:02Z</time>
      </trkpt>
      <trkpt lat="44.56536" lon="6.68712">
        <ele>1895.6</ele>
        <time>2022-07-19T16:39:03Z</time>
      </trkpt>
      <trkpt lat="44.56545" lon="6.68698">
        <ele>1894.8</ele>
        <time>2022-07-19T16:39:04Z</time>
      </trkpt>
      <trkpt lat="44.56554" lon="6.68685">
        <ele>1894.2</ele>
        <time>2022-07-19T16:39:05Z</time>
      </trkpt>
      <trkpt lat="44.56563" lon="6.68673">
        <ele>1893.4</ele>
        <time>2022-07-19T16:39:06Z</time>
      </trkpt>
      <trkpt lat="44.56571" lon="6.68663">
        <ele>1892.8</ele>
        <time>2022-07-19T16:39:07Z</time>
      </trkpt>
      <trkpt lat="44.5658" lon="6.68655">
        <ele>1892.2</ele>
        <time>2022-07-19T16:39:08Z</time>
      </trkpt>
      <trkpt lat="44.56589" lon="6.68648">
        <ele>1891.8</ele>
        <time>2022-07-19T16:39:09Z</time>
      </trkpt>
      <trkpt lat="44.56598" lon="6.68641">
        <ele>1891.4</ele>
        <time>2022-07-19T16:39:10Z</time>
      </trkpt>
      <trkpt lat="44.56606" lon="6.68633">
        <ele>1891</ele>
        <time>2022-07-19T16:39:11Z</time>
      </trkpt>
      <trkpt lat="44.56614" lon="6.68625">
        <ele>1890.6</ele>
        <time>2022-07-19T16:39:12Z</time>
      </trkpt>
      <trkpt lat="44.56621" lon="6.68615">
        <ele>1890.2</ele>
        <time>2022-07-19T16:39:13Z</time>
      </trkpt>
      <trkpt lat="44.56629" lon="6.68608">
        <ele>1890</ele>
        <time>2022-07-19T16:39:14Z</time>
      </trkpt>
      <trkpt lat="44.56637" lon="6.68602">
        <ele>1890</ele>
        <time>2022-07-19T16:39:15Z</time>
      </trkpt>
      <trkpt lat="44.56644" lon="6.68595">
        <ele>1889.6</ele>
        <time>2022-07-19T16:39:16Z</time>
      </trkpt>
      <trkpt lat="44.56652" lon="6.68587">
        <ele>1889.6</ele>
        <time>2022-07-19T16:39:17Z</time>
      </trkpt>
      <trkpt lat="44.56658" lon="6.68578">
        <ele>1889</ele>
        <time>2022-07-19T16:39:18Z</time>
      </trkpt>
      <trkpt lat="44.56664" lon="6.68567">
        <ele>1888.8</ele>
        <time>2022-07-19T16:39:19Z</time>
      </trkpt>
      <trkpt lat="44.56669" lon="6.68556">
        <ele>1888.6</ele>
        <time>2022-07-19T16:39:20Z</time>
      </trkpt>
      <trkpt lat="44.56675" lon="6.68545">
        <ele>1888.2</ele>
        <time>2022-07-19T16:39:21Z</time>
      </trkpt>
      <trkpt lat="44.56682" lon="6.68535">
        <ele>1887.6</ele>
        <time>2022-07-19T16:39:22Z</time>
      </trkpt>
      <trkpt lat="44.56688" lon="6.68525">
        <ele>1887.2</ele>
        <time>2022-07-19T16:39:23Z</time>
      </trkpt>
      <trkpt lat="44.56696" lon="6.68516">
        <ele>1886.8</ele>
        <time>2022-07-19T16:39:24Z</time>
      </trkpt>
      <trkpt lat="44.56703" lon="6.68507">
        <ele>1886.2</ele>
        <time>2022-07-19T16:39:25Z</time>
      </trkpt>
      <trkpt lat="44.5671" lon="6.68501">
        <ele>1885.8</ele>
        <time>2022-07-19T16:39:26Z</time>
      </trkpt>
      <trkpt lat="44.56718" lon="6.68497">
        <ele>1885.4</ele>
        <time>2022-07-19T16:39:27Z</time>
      </trkpt>
      <trkpt lat="44.56727" lon="6.68495">
        <ele>1885</ele>
        <time>2022-07-19T16:39:28Z</time>
      </trkpt>
      <trkpt lat="44.56736" lon="6.68495">
        <ele>1884.6</ele>
        <time>2022-07-19T16:39:29Z</time>
      </trkpt>
      <trkpt lat="44.56745" lon="6.68496">
        <ele>1884.2</ele>
        <time>2022-07-19T16:39:30Z</time>
      </trkpt>
      <trkpt lat="44.56755" lon="6.68498">
        <ele>1883.6</ele>
        <time>2022-07-19T16:39:31Z</time>
      </trkpt>
      <trkpt lat="44.56765" lon="6.685">
        <ele>1883</ele>
        <time>2022-07-19T16:39:32Z</time>
      </trkpt>
      <trkpt lat="44.56775" lon="6.68503">
        <ele>1882.4</ele>
        <time>2022-07-19T16:39:33Z</time>
      </trkpt>
      <trkpt lat="44.56785" lon="6.68504">
        <ele>1881.8</ele>
        <time>2022-07-19T16:39:34Z</time>
      </trkpt>
      <trkpt lat="44.56797" lon="6.68504">
        <ele>1881</ele>
        <time>2022-07-19T16:39:35Z</time>
      </trkpt>
      <trkpt lat="44.56807" lon="6.68505">
        <ele>1880.2</ele>
        <time>2022-07-19T16:39:36Z</time>
      </trkpt>
      <trkpt lat="44.56818" lon="6.68503">
        <ele>1879.4</ele>
        <time>2022-07-19T16:39:37Z</time>
      </trkpt>
      <trkpt lat="44.56829" lon="6.68499">
        <ele>1878.6</ele>
        <time>2022-07-19T16:39:38Z</time>
      </trkpt>
      <trkpt lat="44.56841" lon="6.68494">
        <ele>1877.8</ele>
        <time>2022-07-19T16:39:39Z</time>
      </trkpt>
      <trkpt lat="44.56852" lon="6.68488">
        <ele>1876.8</ele>
        <time>2022-07-19T16:39:40Z</time>
      </trkpt>
      <trkpt lat="44.56864" lon="6.68484">
        <ele>1875.8</ele>
        <time>2022-07-19T16:39:41Z</time>
      </trkpt>
      <trkpt lat="44.56875" lon="6.6848">
        <ele>1874.8</ele>
        <time>2022-07-19T16:39:42Z</time>
      </trkpt>
      <trkpt lat="44.56888" lon="6.68476">
        <ele>1873.8</ele>
        <time>2022-07-19T16:39:43Z</time>
      </trkpt>
      <trkpt lat="44.569" lon="6.68471">
        <ele>1872.8</ele>
        <time>2022-07-19T16:39:44Z</time>
      </trkpt>
      <trkpt lat="44.5691" lon="6.68465">
        <ele>1872</ele>
        <time>2022-07-19T16:39:45Z</time>
      </trkpt>
      <trkpt lat="44.5692" lon="6.68459">
        <ele>1871.2</ele>
        <time>2022-07-19T16:39:46Z</time>
      </trkpt>
      <trkpt lat="44.56928" lon="6.68453">
        <ele>1869.6</ele>
        <time>2022-07-19T16:39:48Z</time>
      </trkpt>
      <trkpt lat="44.56934" lon="6.68447">
        <ele>1868.8</ele>
        <time>2022-07-19T16:39:49Z</time>
      </trkpt>
      <trkpt lat="44.5694" lon="6.68441">
        <ele>1868</ele>
        <time>2022-07-19T16:39:50Z</time>
      </trkpt>
      <trkpt lat="44.56944" lon="6.68434">
        <ele>1867.4</ele>
        <time>2022-07-19T16:39:51Z</time>
      </trkpt>
      <trkpt lat="44.56947" lon="6.68427">
        <ele>1866.6</ele>
        <time>2022-07-19T16:39:52Z</time>
      </trkpt>
      <trkpt lat="44.5695" lon="6.68418">
        <ele>1865.8</ele>
        <time>2022-07-19T16:39:53Z</time>
      </trkpt>
      <trkpt lat="44.56949" lon="6.68407">
        <ele>1865</ele>
        <time>2022-07-19T16:39:54Z</time>
      </trkpt>
      <trkpt lat="44.56948" lon="6.68397">
        <ele>1864.2</ele>
        <time>2022-07-19T16:39:55Z</time>
      </trkpt>
      <trkpt lat="44.56944" lon="6.68386">
        <ele>1863.2</ele>
        <time>2022-07-19T16:39:56Z</time>
      </trkpt>
      <trkpt lat="44.56939" lon="6.68377">
        <ele>1862.4</ele>
        <time>2022-07-19T16:39:57Z</time>
      </trkpt>
      <trkpt lat="44.56934" lon="6.68368">
        <ele>1861.6</ele>
        <time>2022-07-19T16:39:58Z</time>
      </trkpt>
      <trkpt lat="44.56929" lon="6.68359">
        <ele>1861</ele>
        <time>2022-07-19T16:39:59Z</time>
      </trkpt>
      <trkpt lat="44.56926" lon="6.6835">
        <ele>1860.2</ele>
        <time>2022-07-19T16:40:00Z</time>
      </trkpt>
      <trkpt lat="44.56923" lon="6.68341">
        <ele>1859.6</ele>
        <time>2022-07-19T16:40:01Z</time>
      </trkpt>
      <trkpt lat="44.56922" lon="6.68332">
        <ele>1859</ele>
        <time>2022-07-19T16:40:02Z</time>
      </trkpt>
      <trkpt lat="44.56922" lon="6.68323">
        <ele>1858.4</ele>
        <time>2022-07-19T16:40:03Z</time>
      </trkpt>
      <trkpt lat="44.56923" lon="6.68315">
        <ele>1857.6</ele>
        <time>2022-07-19T16:40:04Z</time>
      </trkpt>
      <trkpt lat="44.56926" lon="6.68309">
        <ele>1857</ele>
        <time>2022-07-19T16:40:05Z</time>
      </trkpt>
      <trkpt lat="44.56929" lon="6.68304">
        <ele>1856.4</ele>
        <time>2022-07-19T16:40:06Z</time>
      </trkpt>
      <trkpt lat="44.56932" lon="6.68299">
        <ele>1856</ele>
        <time>2022-07-19T16:40:07Z</time>
      </trkpt>
      <trkpt lat="44.56934" lon="6.68295">
        <ele>1855.6</ele>
        <time>2022-07-19T16:40:08Z</time>
      </trkpt>
      <trkpt lat="44.56937" lon="6.68291">
        <ele>1855.2</ele>
        <time>2022-07-19T16:40:09Z</time>
      </trkpt>
      <trkpt lat="44.56939" lon="6.68288">
        <ele>1854.8</ele>
        <time>2022-07-19T16:40:10Z</time>
      </trkpt>
      <trkpt lat="44.56941" lon="6.68286">
        <ele>1854.4</ele>
        <time>2022-07-19T16:40:11Z</time>
      </trkpt>
      <trkpt lat="44.56944" lon="6.68284">
        <ele>1854.2</ele>
        <time>2022-07-19T16:40:12Z</time>
      </trkpt>
      <trkpt lat="44.56946" lon="6.68282">
        <ele>1854</ele>
        <time>2022-07-19T16:40:13Z</time>
      </trkpt>
      <trkpt lat="44.56949" lon="6.6828">
        <ele>1853.8</ele>
        <time>2022-07-19T16:40:14Z</time>
      </trkpt>
      <trkpt lat="44.56952" lon="6.68277">
        <ele>1853.4</ele>
        <time>2022-07-19T16:40:15Z</time>
      </trkpt>
      <trkpt lat="44.56955" lon="6.68274">
        <ele>1853.2</ele>
        <time>2022-07-19T16:40:16Z</time>
      </trkpt>
      <trkpt lat="44.56957" lon="6.68272">
        <ele>1853.2</ele>
        <time>2022-07-19T16:40:17Z</time>
      </trkpt>
      <trkpt lat="44.5696" lon="6.68269">
        <ele>1852.8</ele>
        <time>2022-07-19T16:40:18Z</time>
      </trkpt>
      <trkpt lat="44.56963" lon="6.68267">
        <ele>1852.8</ele>
        <time>2022-07-19T16:40:19Z</time>
      </trkpt>
      <trkpt lat="44.56966" lon="6.68264">
        <ele>1852.4</ele>
        <time>2022-07-19T16:40:20Z</time>
      </trkpt>
      <trkpt lat="44.5697" lon="6.68261">
        <ele>1852.2</ele>
        <time>2022-07-19T16:40:21Z</time>
      </trkpt>
      <trkpt lat="44.56975" lon="6.68258">
        <ele>1851.8</ele>
        <time>2022-07-19T16:40:22Z</time>
      </trkpt>
      <trkpt lat="44.5698" lon="6.68257">
        <ele>1851.6</ele>
        <time>2022-07-19T16:40:23Z</time>
      </trkpt>
      <trkpt lat="44.56986" lon="6.68256">
        <ele>1851.2</ele>
        <time>2022-07-19T16:40:24Z</time>
      </trkpt>
      <trkpt lat="44.56992" lon="6.68256">
        <ele>1850.8</ele>
        <time>2022-07-19T16:40:25Z</time>
      </trkpt>
      <trkpt lat="44.56999" lon="6.68258">
        <ele>1850.2</ele>
        <time>2022-07-19T16:40:26Z</time>
      </trkpt>
      <trkpt lat="44.57006" lon="6.6826">
        <ele>1849.6</ele>
        <time>2022-07-19T16:40:27Z</time>
      </trkpt>
      <trkpt lat="44.57013" lon="6.68262">
        <ele>1849.2</ele>
        <time>2022-07-19T16:40:28Z</time>
      </trkpt>
      <trkpt lat="44.57021" lon="6.68264">
        <ele>1848.6</ele>
        <time>2022-07-19T16:40:29Z</time>
      </trkpt>
      <trkpt lat="44.57028" lon="6.68266">
        <ele>1847.8</ele>
        <time>2022-07-19T16:40:30Z</time>
      </trkpt>
      <trkpt lat="44.57036" lon="6.68269">
        <ele>1847.2</ele>
        <time>2022-07-19T16:40:31Z</time>
      </trkpt>
      <trkpt lat="44.57044" lon="6.68272">
        <ele>1846.8</ele>
        <time>2022-07-19T16:40:32Z</time>
      </trkpt>
      <trkpt lat="44.57052" lon="6.68274">
        <ele>1846.2</ele>
        <time>2022-07-19T16:40:33Z</time>
      </trkpt>
      <trkpt lat="44.5706" lon="6.68276">
        <ele>1845.4</ele>
        <time>2022-07-19T16:40:34Z</time>
      </trkpt>
      <trkpt lat="44.57068" lon="6.68276">
        <ele>1844.8</ele>
        <time>2022-07-19T16:40:35Z</time>
      </trkpt>
      <trkpt lat="44.57076" lon="6.68276">
        <ele>1844</ele>
        <time>2022-07-19T16:40:36Z</time>
      </trkpt>
      <trkpt lat="44.57084" lon="6.68274">
        <ele>1843.4</ele>
        <time>2022-07-19T16:40:37Z</time>
      </trkpt>
      <trkpt lat="44.57092" lon="6.6827">
        <ele>1842.6</ele>
        <time>2022-07-19T16:40:38Z</time>
      </trkpt>
      <trkpt lat="44.571" lon="6.68266">
        <ele>1841.8</ele>
        <time>2022-07-19T16:40:39Z</time>
      </trkpt>
      <trkpt lat="44.57107" lon="6.6826">
        <ele>1841.2</ele>
        <time>2022-07-19T16:40:40Z</time>
      </trkpt>
      <trkpt lat="44.57115" lon="6.68254">
        <ele>1840.4</ele>
        <time>2022-07-19T16:40:41Z</time>
      </trkpt>
      <trkpt lat="44.57122" lon="6.68246">
        <ele>1839.6</ele>
        <time>2022-07-19T16:40:42Z</time>
      </trkpt>
      <trkpt lat="44.57128" lon="6.68238">
        <ele>1839</ele>
        <time>2022-07-19T16:40:43Z</time>
      </trkpt>
      <trkpt lat="44.57134" lon="6.6823">
        <ele>1838.2</ele>
        <time>2022-07-19T16:40:44Z</time>
      </trkpt>
      <trkpt lat="44.57141" lon="6.68222">
        <ele>1837.4</ele>
        <time>2022-07-19T16:40:45Z</time>
      </trkpt>
      <trkpt lat="44.57146" lon="6.68214">
        <ele>1836.8</ele>
        <time>2022-07-19T16:40:46Z</time>
      </trkpt>
      <trkpt lat="44.57152" lon="6.68205">
        <ele>1836</ele>
        <time>2022-07-19T16:40:47Z</time>
      </trkpt>
      <trkpt lat="44.57158" lon="6.68196">
        <ele>1835.4</ele>
        <time>2022-07-19T16:40:48Z</time>
      </trkpt>
      <trkpt lat="44.57163" lon="6.68187">
        <ele>1834.6</ele>
        <time>2022-07-19T16:40:49Z</time>
      </trkpt>
      <trkpt lat="44.57167" lon="6.68177">
        <ele>1834</ele>
        <time>2022-07-19T16:40:50Z</time>
      </trkpt>
      <trkpt lat="44.5717" lon="6.68165">
        <ele>1833.2</ele>
        <time>2022-07-19T16:40:51Z</time>
      </trkpt>
      <trkpt lat="44.57171" lon="6.68152">
        <ele>1832.4</ele>
        <time>2022-07-19T16:40:52Z</time>
      </trkpt>
      <trkpt lat="44.57173" lon="6.68139">
        <ele>1831.8</ele>
        <time>2022-07-19T16:40:53Z</time>
      </trkpt>
      <trkpt lat="44.57173" lon="6.68125">
        <ele>1831</ele>
        <time>2022-07-19T16:40:54Z</time>
      </trkpt>
      <trkpt lat="44.57172" lon="6.68112">
        <ele>1830.2</ele>
        <time>2022-07-19T16:40:55Z</time>
      </trkpt>
      <trkpt lat="44.57172" lon="6.681">
        <ele>1829.4</ele>
        <time>2022-07-19T16:40:56Z</time>
      </trkpt>
      <trkpt lat="44.57171" lon="6.68087">
        <ele>1828.6</ele>
        <time>2022-07-19T16:40:57Z</time>
      </trkpt>
      <trkpt lat="44.5717" lon="6.68074">
        <ele>1828</ele>
        <time>2022-07-19T16:40:58Z</time>
      </trkpt>
      <trkpt lat="44.5717" lon="6.68063">
        <ele>1827.4</ele>
        <time>2022-07-19T16:40:59Z</time>
      </trkpt>
      <trkpt lat="44.57172" lon="6.68052">
        <ele>1826.6</ele>
        <time>2022-07-19T16:41:00Z</time>
      </trkpt>
      <trkpt lat="44.57174" lon="6.68041">
        <ele>1826.2</ele>
        <time>2022-07-19T16:41:01Z</time>
      </trkpt>
      <trkpt lat="44.57178" lon="6.68031">
        <ele>1825.6</ele>
        <time>2022-07-19T16:41:02Z</time>
      </trkpt>
      <trkpt lat="44.57183" lon="6.68023">
        <ele>1825</ele>
        <time>2022-07-19T16:41:03Z</time>
      </trkpt>
      <trkpt lat="44.57188" lon="6.68016">
        <ele>1824.6</ele>
        <time>2022-07-19T16:41:04Z</time>
      </trkpt>
      <trkpt lat="44.57195" lon="6.6801">
        <ele>1824</ele>
        <time>2022-07-19T16:41:05Z</time>
      </trkpt>
      <trkpt lat="44.57201" lon="6.68006">
        <ele>1823.6</ele>
        <time>2022-07-19T16:41:06Z</time>
      </trkpt>
      <trkpt lat="44.57207" lon="6.68003">
        <ele>1823.2</ele>
        <time>2022-07-19T16:41:07Z</time>
      </trkpt>
      <trkpt lat="44.57213" lon="6.68001">
        <ele>1822.8</ele>
        <time>2022-07-19T16:41:08Z</time>
      </trkpt>
      <trkpt lat="44.57219" lon="6.68001">
        <ele>1822.4</ele>
        <time>2022-07-19T16:41:09Z</time>
      </trkpt>
      <trkpt lat="44.57225" lon="6.68001">
        <ele>1822</ele>
        <time>2022-07-19T16:41:10Z</time>
      </trkpt>
      <trkpt lat="44.5723" lon="6.68001">
        <ele>1821.6</ele>
        <time>2022-07-19T16:41:11Z</time>
      </trkpt>
      <trkpt lat="44.57234" lon="6.68001">
        <ele>1821.4</ele>
        <time>2022-07-19T16:41:12Z</time>
      </trkpt>
      <trkpt lat="44.57237" lon="6.68001">
        <ele>1821</ele>
        <time>2022-07-19T16:41:13Z</time>
      </trkpt>
      <trkpt lat="44.5724" lon="6.68001">
        <ele>1820.8</ele>
        <time>2022-07-19T16:41:14Z</time>
      </trkpt>
      <trkpt lat="44.57241" lon="6.68001">
        <ele>1820.8</ele>
        <time>2022-07-19T16:41:15Z</time>
      </trkpt>
      <trkpt lat="44.57245" lon="6.68002">
        <ele>1819.8</ele>
        <time>2022-07-19T16:41:21Z</time>
      </trkpt>
      <trkpt lat="44.57247" lon="6.68002">
        <ele>1819.8</ele>
        <time>2022-07-19T16:41:22Z</time>
      </trkpt>
      <trkpt lat="44.5725" lon="6.68002">
        <ele>1819.6</ele>
        <time>2022-07-19T16:41:23Z</time>
      </trkpt>
      <trkpt lat="44.57253" lon="6.68002">
        <ele>1819.6</ele>
        <time>2022-07-19T16:41:24Z</time>
      </trkpt>
      <trkpt lat="44.57257" lon="6.68002">
        <ele>1819.6</ele>
        <time>2022-07-19T16:41:25Z</time>
      </trkpt>
      <trkpt lat="44.57261" lon="6.68003">
        <ele>1819.2</ele>
        <time>2022-07-19T16:41:26Z</time>
      </trkpt>
      <trkpt lat="44.57266" lon="6.68004">
        <ele>1819</ele>
        <time>2022-07-19T16:41:27Z</time>
      </trkpt>
      <trkpt lat="44.5727" lon="6.68005">
        <ele>1819</ele>
        <time>2022-07-19T16:41:28Z</time>
      </trkpt>
      <trkpt lat="44.57275" lon="6.68007">
        <ele>1818.6</ele>
        <time>2022-07-19T16:41:29Z</time>
      </trkpt>
      <trkpt lat="44.5728" lon="6.6801">
        <ele>1818.2</ele>
        <time>2022-07-19T16:41:30Z</time>
      </trkpt>
      <trkpt lat="44.57284" lon="6.68014">
        <ele>1818</ele>
        <time>2022-07-19T16:41:31Z</time>
      </trkpt>
      <trkpt lat="44.57289" lon="6.68019">
        <ele>1817.6</ele>
        <time>2022-07-19T16:41:32Z</time>
      </trkpt>
      <trkpt lat="44.57292" lon="6.68025">
        <ele>1817.2</ele>
        <time>2022-07-19T16:41:33Z</time>
      </trkpt>
      <trkpt lat="44.57295" lon="6.68031">
        <ele>1816.8</ele>
        <time>2022-07-19T16:41:34Z</time>
      </trkpt>
      <trkpt lat="44.57298" lon="6.68036">
        <ele>1816.6</ele>
        <time>2022-07-19T16:41:35Z</time>
      </trkpt>
      <trkpt lat="44.573" lon="6.68042">
        <ele>1816.2</ele>
        <time>2022-07-19T16:41:36Z</time>
      </trkpt>
      <trkpt lat="44.57302" lon="6.68049">
        <ele>1816</ele>
        <time>2022-07-19T16:41:37Z</time>
      </trkpt>
      <trkpt lat="44.57304" lon="6.68056">
        <ele>1815.8</ele>
        <time>2022-07-19T16:41:38Z</time>
      </trkpt>
      <trkpt lat="44.57307" lon="6.68063">
        <ele>1815.4</ele>
        <time>2022-07-19T16:41:39Z</time>
      </trkpt>
      <trkpt lat="44.57309" lon="6.68071">
        <ele>1815</ele>
        <time>2022-07-19T16:41:40Z</time>
      </trkpt>
      <trkpt lat="44.57311" lon="6.6808">
        <ele>1814.6</ele>
        <time>2022-07-19T16:41:41Z</time>
      </trkpt>
      <trkpt lat="44.57313" lon="6.68089">
        <ele>1814.4</ele>
        <time>2022-07-19T16:41:42Z</time>
      </trkpt>
      <trkpt lat="44.57316" lon="6.68099">
        <ele>1814</ele>
        <time>2022-07-19T16:41:43Z</time>
      </trkpt>
      <trkpt lat="44.57319" lon="6.6811">
        <ele>1813.4</ele>
        <time>2022-07-19T16:41:44Z</time>
      </trkpt>
      <trkpt lat="44.57323" lon="6.6812">
        <ele>1812.8</ele>
        <time>2022-07-19T16:41:45Z</time>
      </trkpt>
      <trkpt lat="44.57326" lon="6.68131">
        <ele>1812.4</ele>
        <time>2022-07-19T16:41:46Z</time>
      </trkpt>
      <trkpt lat="44.57329" lon="6.68143">
        <ele>1811.8</ele>
        <time>2022-07-19T16:41:47Z</time>
      </trkpt>
      <trkpt lat="44.57332" lon="6.68154">
        <ele>1811.2</ele>
        <time>2022-07-19T16:41:48Z</time>
      </trkpt>
      <trkpt lat="44.57335" lon="6.68164">
        <ele>1810.6</ele>
        <time>2022-07-19T16:41:49Z</time>
      </trkpt>
      <trkpt lat="44.5734" lon="6.68174">
        <ele>1810</ele>
        <time>2022-07-19T16:41:50Z</time>
      </trkpt>
      <trkpt lat="44.57347" lon="6.68183">
        <ele>1809.4</ele>
        <time>2022-07-19T16:41:51Z</time>
      </trkpt>
      <trkpt lat="44.57354" lon="6.68189">
        <ele>1808.8</ele>
        <time>2022-07-19T16:41:52Z</time>
      </trkpt>
      <trkpt lat="44.57363" lon="6.68195">
        <ele>1808.2</ele>
        <time>2022-07-19T16:41:53Z</time>
      </trkpt>
      <trkpt lat="44.57372" lon="6.68198">
        <ele>1807.6</ele>
        <time>2022-07-19T16:41:54Z</time>
      </trkpt>
      <trkpt lat="44.57382" lon="6.682">
        <ele>1806.8</ele>
        <time>2022-07-19T16:41:55Z</time>
      </trkpt>
      <trkpt lat="44.57393" lon="6.682">
        <ele>1806.2</ele>
        <time>2022-07-19T16:41:56Z</time>
      </trkpt>
      <trkpt lat="44.57404" lon="6.68197">
        <ele>1805.4</ele>
        <time>2022-07-19T16:41:57Z</time>
      </trkpt>
      <trkpt lat="44.57415" lon="6.68194">
        <ele>1804.6</ele>
        <time>2022-07-19T16:41:58Z</time>
      </trkpt>
      <trkpt lat="44.57427" lon="6.68192">
        <ele>1803.6</ele>
        <time>2022-07-19T16:41:59Z</time>
      </trkpt>
      <trkpt lat="44.57437" lon="6.6819">
        <ele>1802.8</ele>
        <time>2022-07-19T16:42:00Z</time>
      </trkpt>
      <trkpt lat="44.57448" lon="6.68188">
        <ele>1801.8</ele>
        <time>2022-07-19T16:42:01Z</time>
      </trkpt>
      <trkpt lat="44.57459" lon="6.68185">
        <ele>1801</ele>
        <time>2022-07-19T16:42:02Z</time>
      </trkpt>
      <trkpt lat="44.5747" lon="6.68182">
        <ele>1800.2</ele>
        <time>2022-07-19T16:42:03Z</time>
      </trkpt>
      <trkpt lat="44.57481" lon="6.6818">
        <ele>1799.4</ele>
        <time>2022-07-19T16:42:04Z</time>
      </trkpt>
      <trkpt lat="44.57491" lon="6.6818">
        <ele>1798.6</ele>
        <time>2022-07-19T16:42:05Z</time>
      </trkpt>
      <trkpt lat="44.57502" lon="6.68183">
        <ele>1797.8</ele>
        <time>2022-07-19T16:42:06Z</time>
      </trkpt>
      <trkpt lat="44.57513" lon="6.68188">
        <ele>1796.2</ele>
        <time>2022-07-19T16:42:07Z</time>
      </trkpt>
      <trkpt lat="44.57525" lon="6.68194">
        <ele>1795.4</ele>
        <time>2022-07-19T16:42:08Z</time>
      </trkpt>
      <trkpt lat="44.57536" lon="6.68201">
        <ele>1794.6</ele>
        <time>2022-07-19T16:42:09Z</time>
      </trkpt>
      <trkpt lat="44.57547" lon="6.68205">
        <ele>1793.6</ele>
        <time>2022-07-19T16:42:10Z</time>
      </trkpt>
      <trkpt lat="44.57557" lon="6.68209">
        <ele>1792.8</ele>
        <time>2022-07-19T16:42:11Z</time>
      </trkpt>
      <trkpt lat="44.57569" lon="6.68212">
        <ele>1791.8</ele>
        <time>2022-07-19T16:42:12Z</time>
      </trkpt>
      <trkpt lat="44.5758" lon="6.68213">
        <ele>1791</ele>
        <time>2022-07-19T16:42:13Z</time>
      </trkpt>
      <trkpt lat="44.57592" lon="6.68214">
        <ele>1789.8</ele>
        <time>2022-07-19T16:42:14Z</time>
      </trkpt>
      <trkpt lat="44.57605" lon="6.68212">
        <ele>1788.8</ele>
        <time>2022-07-19T16:42:15Z</time>
      </trkpt>
      <trkpt lat="44.57617" lon="6.68209">
        <ele>1787.8</ele>
        <time>2022-07-19T16:42:16Z</time>
      </trkpt>
      <trkpt lat="44.57628" lon="6.68206">
        <ele>1786.8</ele>
        <time>2022-07-19T16:42:17Z</time>
      </trkpt>
      <trkpt lat="44.57638" lon="6.68204">
        <ele>1785.8</ele>
        <time>2022-07-19T16:42:18Z</time>
      </trkpt>
      <trkpt lat="44.57648" lon="6.68205">
        <ele>1784.8</ele>
        <time>2022-07-19T16:42:19Z</time>
      </trkpt>
      <trkpt lat="44.57659" lon="6.68211">
        <ele>1784</ele>
        <time>2022-07-19T16:42:20Z</time>
      </trkpt>
      <trkpt lat="44.5767" lon="6.68219">
        <ele>1783</ele>
        <time>2022-07-19T16:42:21Z</time>
      </trkpt>
      <trkpt lat="44.5768" lon="6.68229">
        <ele>1782.2</ele>
        <time>2022-07-19T16:42:22Z</time>
      </trkpt>
      <trkpt lat="44.57691" lon="6.68239">
        <ele>1781.4</ele>
        <time>2022-07-19T16:42:23Z</time>
      </trkpt>
      <trkpt lat="44.57702" lon="6.68247">
        <ele>1780.4</ele>
        <time>2022-07-19T16:42:24Z</time>
      </trkpt>
      <trkpt lat="44.57712" lon="6.68255">
        <ele>1779.4</ele>
        <time>2022-07-19T16:42:25Z</time>
      </trkpt>
      <trkpt lat="44.57722" lon="6.68262">
        <ele>1778.4</ele>
        <time>2022-07-19T16:42:26Z</time>
      </trkpt>
      <trkpt lat="44.57732" lon="6.6827">
        <ele>1777.4</ele>
        <time>2022-07-19T16:42:27Z</time>
      </trkpt>
      <trkpt lat="44.57742" lon="6.68278">
        <ele>1776.4</ele>
        <time>2022-07-19T16:42:28Z</time>
      </trkpt>
      <trkpt lat="44.5775" lon="6.68285">
        <ele>1775.6</ele>
        <time>2022-07-19T16:42:29Z</time>
      </trkpt>
      <trkpt lat="44.57759" lon="6.68291">
        <ele>1774.6</ele>
        <time>2022-07-19T16:42:30Z</time>
      </trkpt>
      <trkpt lat="44.57767" lon="6.68294">
        <ele>1773.8</ele>
        <time>2022-07-19T16:42:31Z</time>
      </trkpt>
      <trkpt lat="44.57775" lon="6.68297">
        <ele>1772.8</ele>
        <time>2022-07-19T16:42:32Z</time>
      </trkpt>
      <trkpt lat="44.57784" lon="6.68297">
        <ele>1772</ele>
        <time>2022-07-19T16:42:33Z</time>
      </trkpt>
      <trkpt lat="44.57793" lon="6.68295">
        <ele>1771.2</ele>
        <time>2022-07-19T16:42:34Z</time>
      </trkpt>
      <trkpt lat="44.57803" lon="6.68293">
        <ele>1770.4</ele>
        <time>2022-07-19T16:42:35Z</time>
      </trkpt>
      <trkpt lat="44.57812" lon="6.6829">
        <ele>1769.8</ele>
        <time>2022-07-19T16:42:36Z</time>
      </trkpt>
      <trkpt lat="44.57821" lon="6.68287">
        <ele>1769</ele>
        <time>2022-07-19T16:42:37Z</time>
      </trkpt>
      <trkpt lat="44.5783" lon="6.68289">
        <ele>1768.4</ele>
        <time>2022-07-19T16:42:38Z</time>
      </trkpt>
      <trkpt lat="44.57837" lon="6.68292">
        <ele>1767.6</ele>
        <time>2022-07-19T16:42:39Z</time>
      </trkpt>
      <trkpt lat="44.57844" lon="6.68297">
        <ele>1767</ele>
        <time>2022-07-19T16:42:40Z</time>
      </trkpt>
      <trkpt lat="44.57849" lon="6.68303">
        <ele>1766.4</ele>
        <time>2022-07-19T16:42:41Z</time>
      </trkpt>
      <trkpt lat="44.57854" lon="6.6831">
        <ele>1765.8</ele>
        <time>2022-07-19T16:42:42Z</time>
      </trkpt>
      <trkpt lat="44.57859" lon="6.68319">
        <ele>1765.2</ele>
        <time>2022-07-19T16:42:43Z</time>
      </trkpt>
      <trkpt lat="44.57865" lon="6.68329">
        <ele>1764.6</ele>
        <time>2022-07-19T16:42:44Z</time>
      </trkpt>
      <trkpt lat="44.5787" lon="6.68339">
        <ele>1764</ele>
        <time>2022-07-19T16:42:45Z</time>
      </trkpt>
      <trkpt lat="44.57876" lon="6.68349">
        <ele>1763.4</ele>
        <time>2022-07-19T16:42:46Z</time>
      </trkpt>
      <trkpt lat="44.57881" lon="6.68361">
        <ele>1762.8</ele>
        <time>2022-07-19T16:42:47Z</time>
      </trkpt>
      <trkpt lat="44.57887" lon="6.68374">
        <ele>1762.2</ele>
        <time>2022-07-19T16:42:48Z</time>
      </trkpt>
      <trkpt lat="44.57893" lon="6.68387">
        <ele>1761.4</ele>
        <time>2022-07-19T16:42:49Z</time>
      </trkpt>
      <trkpt lat="44.579" lon="6.68398">
        <ele>1760.8</ele>
        <time>2022-07-19T16:42:50Z</time>
      </trkpt>
      <trkpt lat="44.57908" lon="6.68409">
        <ele>1760</ele>
        <time>2022-07-19T16:42:51Z</time>
      </trkpt>
      <trkpt lat="44.57917" lon="6.68418">
        <ele>1759.2</ele>
        <time>2022-07-19T16:42:52Z</time>
      </trkpt>
      <trkpt lat="44.57927" lon="6.68425">
        <ele>1758.2</ele>
        <time>2022-07-19T16:42:53Z</time>
      </trkpt>
      <trkpt lat="44.57939" lon="6.68431">
        <ele>1757.6</ele>
        <time>2022-07-19T16:42:54Z</time>
      </trkpt>
      <trkpt lat="44.57951" lon="6.68436">
        <ele>1756.6</ele>
        <time>2022-07-19T16:42:55Z</time>
      </trkpt>
      <trkpt lat="44.57964" lon="6.68439">
        <ele>1755.8</ele>
        <time>2022-07-19T16:42:56Z</time>
      </trkpt>
      <trkpt lat="44.57978" lon="6.6844">
        <ele>1755</ele>
        <time>2022-07-19T16:42:57Z</time>
      </trkpt>
      <trkpt lat="44.57991" lon="6.68443">
        <ele>1754</ele>
        <time>2022-07-19T16:42:58Z</time>
      </trkpt>
      <trkpt lat="44.58004" lon="6.68445">
        <ele>1753.2</ele>
        <time>2022-07-19T16:42:59Z</time>
      </trkpt>
      <trkpt lat="44.58015" lon="6.68448">
        <ele>1752.4</ele>
        <time>2022-07-19T16:43:00Z</time>
      </trkpt>
      <trkpt lat="44.58026" lon="6.68451">
        <ele>1751.6</ele>
        <time>2022-07-19T16:43:01Z</time>
      </trkpt>
      <trkpt lat="44.58036" lon="6.68452">
        <ele>1750.8</ele>
        <time>2022-07-19T16:43:02Z</time>
      </trkpt>
      <trkpt lat="44.58045" lon="6.6845">
        <ele>1750.4</ele>
        <time>2022-07-19T16:43:03Z</time>
      </trkpt>
      <trkpt lat="44.58055" lon="6.68447">
        <ele>1749.8</ele>
        <time>2022-07-19T16:43:04Z</time>
      </trkpt>
      <trkpt lat="44.58065" lon="6.68443">
        <ele>1749.4</ele>
        <time>2022-07-19T16:43:05Z</time>
      </trkpt>
      <trkpt lat="44.58074" lon="6.68437">
        <ele>1748.8</ele>
        <time>2022-07-19T16:43:06Z</time>
      </trkpt>
      <trkpt lat="44.58083" lon="6.68431">
        <ele>1748.4</ele>
        <time>2022-07-19T16:43:07Z</time>
      </trkpt>
      <trkpt lat="44.58092" lon="6.68423">
        <ele>1748</ele>
        <time>2022-07-19T16:43:08Z</time>
      </trkpt>
      <trkpt lat="44.581" lon="6.68415">
        <ele>1747.4</ele>
        <time>2022-07-19T16:43:09Z</time>
      </trkpt>
      <trkpt lat="44.5811" lon="6.68408">
        <ele>1746.8</ele>
        <time>2022-07-19T16:43:10Z</time>
      </trkpt>
      <trkpt lat="44.58119" lon="6.68399">
        <ele>1746.4</ele>
        <time>2022-07-19T16:43:11Z</time>
      </trkpt>
      <trkpt lat="44.58129" lon="6.68392">
        <ele>1746</ele>
        <time>2022-07-19T16:43:12Z</time>
      </trkpt>
      <trkpt lat="44.58139" lon="6.68384">
        <ele>1745.6</ele>
        <time>2022-07-19T16:43:13Z</time>
      </trkpt>
      <trkpt lat="44.5815" lon="6.68379">
        <ele>1745.2</ele>
        <time>2022-07-19T16:43:14Z</time>
      </trkpt>
      <trkpt lat="44.5816" lon="6.68373">
        <ele>1744.4</ele>
        <time>2022-07-19T16:43:15Z</time>
      </trkpt>
      <trkpt lat="44.58171" lon="6.68369">
        <ele>1744</ele>
        <time>2022-07-19T16:43:16Z</time>
      </trkpt>
      <trkpt lat="44.58182" lon="6.68364">
        <ele>1743.2</ele>
        <time>2022-07-19T16:43:17Z</time>
      </trkpt>
      <trkpt lat="44.58193" lon="6.68359">
        <ele>1742.6</ele>
        <time>2022-07-19T16:43:18Z</time>
      </trkpt>
      <trkpt lat="44.58205" lon="6.68354">
        <ele>1741.8</ele>
        <time>2022-07-19T16:43:19Z</time>
      </trkpt>
      <trkpt lat="44.58217" lon="6.6835">
        <ele>1741</ele>
        <time>2022-07-19T16:43:20Z</time>
      </trkpt>
      <trkpt lat="44.58229" lon="6.68344">
        <ele>1740.2</ele>
        <time>2022-07-19T16:43:21Z</time>
      </trkpt>
      <trkpt lat="44.58241" lon="6.68337">
        <ele>1739.4</ele>
        <time>2022-07-19T16:43:22Z</time>
      </trkpt>
      <trkpt lat="44.58253" lon="6.68328">
        <ele>1738.8</ele>
        <time>2022-07-19T16:43:23Z</time>
      </trkpt>
      <trkpt lat="44.58264" lon="6.68318">
        <ele>1737.8</ele>
        <time>2022-07-19T16:43:24Z</time>
      </trkpt>
      <trkpt lat="44.58275" lon="6.68308">
        <ele>1736.8</ele>
        <time>2022-07-19T16:43:25Z</time>
      </trkpt>
      <trkpt lat="44.58286" lon="6.68298">
        <ele>1735.8</ele>
        <time>2022-07-19T16:43:26Z</time>
      </trkpt>
      <trkpt lat="44.58298" lon="6.68289">
        <ele>1735</ele>
        <time>2022-07-19T16:43:27Z</time>
      </trkpt>
      <trkpt lat="44.58309" lon="6.68283">
        <ele>1734</ele>
        <time>2022-07-19T16:43:28Z</time>
      </trkpt>
      <trkpt lat="44.5832" lon="6.6828">
        <ele>1733.2</ele>
        <time>2022-07-19T16:43:29Z</time>
      </trkpt>
      <trkpt lat="44.58331" lon="6.6828">
        <ele>1732.4</ele>
        <time>2022-07-19T16:43:30Z</time>
      </trkpt>
      <trkpt lat="44.58342" lon="6.68281">
        <ele>1731.8</ele>
        <time>2022-07-19T16:43:31Z</time>
      </trkpt>
      <trkpt lat="44.58353" lon="6.68285">
        <ele>1731</ele>
        <time>2022-07-19T16:43:32Z</time>
      </trkpt>
      <trkpt lat="44.58364" lon="6.68291">
        <ele>1730.2</ele>
        <time>2022-07-19T16:43:33Z</time>
      </trkpt>
      <trkpt lat="44.58375" lon="6.68299">
        <ele>1729.4</ele>
        <time>2022-07-19T16:43:34Z</time>
      </trkpt>
      <trkpt lat="44.58385" lon="6.68308">
        <ele>1728.8</ele>
        <time>2022-07-19T16:43:35Z</time>
      </trkpt>
      <trkpt lat="44.58395" lon="6.68316">
        <ele>1728</ele>
        <time>2022-07-19T16:43:36Z</time>
      </trkpt>
      <trkpt lat="44.58405" lon="6.68324">
        <ele>1727.2</ele>
        <time>2022-07-19T16:43:37Z</time>
      </trkpt>
      <trkpt lat="44.58415" lon="6.68333">
        <ele>1726.4</ele>
        <time>2022-07-19T16:43:38Z</time>
      </trkpt>
      <trkpt lat="44.58425" lon="6.68341">
        <ele>1725.4</ele>
        <time>2022-07-19T16:43:39Z</time>
      </trkpt>
      <trkpt lat="44.58435" lon="6.68348">
        <ele>1724.6</ele>
        <time>2022-07-19T16:43:40Z</time>
      </trkpt>
      <trkpt lat="44.58444" lon="6.68356">
        <ele>1723.8</ele>
        <time>2022-07-19T16:43:41Z</time>
      </trkpt>
      <trkpt lat="44.58454" lon="6.68364">
        <ele>1723</ele>
        <time>2022-07-19T16:43:42Z</time>
      </trkpt>
      <trkpt lat="44.58463" lon="6.68372">
        <ele>1722.4</ele>
        <time>2022-07-19T16:43:43Z</time>
      </trkpt>
      <trkpt lat="44.58472" lon="6.68382">
        <ele>1721.6</ele>
        <time>2022-07-19T16:43:44Z</time>
      </trkpt>
      <trkpt lat="44.5848" lon="6.68395">
        <ele>1720.8</ele>
        <time>2022-07-19T16:43:45Z</time>
      </trkpt>
      <trkpt lat="44.58487" lon="6.68409">
        <ele>1720</ele>
        <time>2022-07-19T16:43:46Z</time>
      </trkpt>
      <trkpt lat="44.58496" lon="6.68421">
        <ele>1719.2</ele>
        <time>2022-07-19T16:43:47Z</time>
      </trkpt>
      <trkpt lat="44.58505" lon="6.68434">
        <ele>1718.4</ele>
        <time>2022-07-19T16:43:48Z</time>
      </trkpt>
      <trkpt lat="44.58515" lon="6.68445">
        <ele>1717.4</ele>
        <time>2022-07-19T16:43:49Z</time>
      </trkpt>
      <trkpt lat="44.58525" lon="6.68457">
        <ele>1716.6</ele>
        <time>2022-07-19T16:43:50Z</time>
      </trkpt>
      <trkpt lat="44.58535" lon="6.68469">
        <ele>1715.6</ele>
        <time>2022-07-19T16:43:51Z</time>
      </trkpt>
      <trkpt lat="44.58546" lon="6.68483">
        <ele>1714.4</ele>
        <time>2022-07-19T16:43:52Z</time>
      </trkpt>
      <trkpt lat="44.58556" lon="6.68498">
        <ele>1713.4</ele>
        <time>2022-07-19T16:43:53Z</time>
      </trkpt>
      <trkpt lat="44.58566" lon="6.68512">
        <ele>1712.2</ele>
        <time>2022-07-19T16:43:54Z</time>
      </trkpt>
      <trkpt lat="44.58576" lon="6.68526">
        <ele>1711</ele>
        <time>2022-07-19T16:43:55Z</time>
      </trkpt>
      <trkpt lat="44.58586" lon="6.6854">
        <ele>1710</ele>
        <time>2022-07-19T16:43:56Z</time>
      </trkpt>
      <trkpt lat="44.58597" lon="6.68552">
        <ele>1709</ele>
        <time>2022-07-19T16:43:57Z</time>
      </trkpt>
      <trkpt lat="44.58606" lon="6.68566">
        <ele>1707.8</ele>
        <time>2022-07-19T16:43:58Z</time>
      </trkpt>
      <trkpt lat="44.58615" lon="6.6858">
        <ele>1706.6</ele>
        <time>2022-07-19T16:43:59Z</time>
      </trkpt>
      <trkpt lat="44.58622" lon="6.68595">
        <ele>1705.4</ele>
        <time>2022-07-19T16:44:00Z</time>
      </trkpt>
      <trkpt lat="44.58629" lon="6.68611">
        <ele>1704.4</ele>
        <time>2022-07-19T16:44:01Z</time>
      </trkpt>
      <trkpt lat="44.58636" lon="6.68625">
        <ele>1703.2</ele>
        <time>2022-07-19T16:44:02Z</time>
      </trkpt>
      <trkpt lat="44.58643" lon="6.68637">
        <ele>1702.2</ele>
        <time>2022-07-19T16:44:03Z</time>
      </trkpt>
      <trkpt lat="44.58649" lon="6.68649">
        <ele>1701.4</ele>
        <time>2022-07-19T16:44:04Z</time>
      </trkpt>
      <trkpt lat="44.58657" lon="6.68659">
        <ele>1700.4</ele>
        <time>2022-07-19T16:44:05Z</time>
      </trkpt>
      <trkpt lat="44.58667" lon="6.68667">
        <ele>1699.6</ele>
        <time>2022-07-19T16:44:06Z</time>
      </trkpt>
      <trkpt lat="44.58678" lon="6.68673">
        <ele>1698.8</ele>
        <time>2022-07-19T16:44:07Z</time>
      </trkpt>
      <trkpt lat="44.5869" lon="6.68679">
        <ele>1697.8</ele>
        <time>2022-07-19T16:44:08Z</time>
      </trkpt>
      <trkpt lat="44.58702" lon="6.68685">
        <ele>1696.8</ele>
        <time>2022-07-19T16:44:09Z</time>
      </trkpt>
      <trkpt lat="44.58715" lon="6.68691">
        <ele>1695.8</ele>
        <time>2022-07-19T16:44:10Z</time>
      </trkpt>
      <trkpt lat="44.58727" lon="6.68698">
        <ele>1694.8</ele>
        <time>2022-07-19T16:44:11Z</time>
      </trkpt>
      <trkpt lat="44.58741" lon="6.68705">
        <ele>1693.6</ele>
        <time>2022-07-19T16:44:12Z</time>
      </trkpt>
      <trkpt lat="44.58755" lon="6.68713">
        <ele>1692.4</ele>
        <time>2022-07-19T16:44:13Z</time>
      </trkpt>
      <trkpt lat="44.58768" lon="6.6872">
        <ele>1691</ele>
        <time>2022-07-19T16:44:14Z</time>
      </trkpt>
      <trkpt lat="44.58782" lon="6.68727">
        <ele>1689.8</ele>
        <time>2022-07-19T16:44:15Z</time>
      </trkpt>
      <trkpt lat="44.58797" lon="6.68735">
        <ele>1688.6</ele>
        <time>2022-07-19T16:44:16Z</time>
      </trkpt>
      <trkpt lat="44.58811" lon="6.68742">
        <ele>1687.4</ele>
        <time>2022-07-19T16:44:17Z</time>
      </trkpt>
      <trkpt lat="44.58825" lon="6.68749">
        <ele>1686.2</ele>
        <time>2022-07-19T16:44:18Z</time>
      </trkpt>
      <trkpt lat="44.58838" lon="6.68757">
        <ele>1685.2</ele>
        <time>2022-07-19T16:44:19Z</time>
      </trkpt>
      <trkpt lat="44.58851" lon="6.68764">
        <ele>1684</ele>
        <time>2022-07-19T16:44:20Z</time>
      </trkpt>
      <trkpt lat="44.58864" lon="6.68769">
        <ele>1682.8</ele>
        <time>2022-07-19T16:44:21Z</time>
      </trkpt>
      <trkpt lat="44.58879" lon="6.68773">
        <ele>1681.8</ele>
        <time>2022-07-19T16:44:22Z</time>
      </trkpt>
      <trkpt lat="44.58893" lon="6.68775">
        <ele>1680.8</ele>
        <time>2022-07-19T16:44:23Z</time>
      </trkpt>
      <trkpt lat="44.58908" lon="6.68776">
        <ele>1679.6</ele>
        <time>2022-07-19T16:44:24Z</time>
      </trkpt>
      <trkpt lat="44.58923" lon="6.68779">
        <ele>1678.2</ele>
        <time>2022-07-19T16:44:25Z</time>
      </trkpt>
      <trkpt lat="44.58938" lon="6.68781">
        <ele>1677</ele>
        <time>2022-07-19T16:44:26Z</time>
      </trkpt>
      <trkpt lat="44.58953" lon="6.68783">
        <ele>1675.6</ele>
        <time>2022-07-19T16:44:27Z</time>
      </trkpt>
      <trkpt lat="44.58968" lon="6.68783">
        <ele>1674.4</ele>
        <time>2022-07-19T16:44:28Z</time>
      </trkpt>
      <trkpt lat="44.58982" lon="6.68782">
        <ele>1673</ele>
        <time>2022-07-19T16:44:29Z</time>
      </trkpt>
      <trkpt lat="44.58997" lon="6.6878">
        <ele>1671.6</ele>
        <time>2022-07-19T16:44:30Z</time>
      </trkpt>
      <trkpt lat="44.5901" lon="6.68776">
        <ele>1670.2</ele>
        <time>2022-07-19T16:44:31Z</time>
      </trkpt>
      <trkpt lat="44.59023" lon="6.68771">
        <ele>1668.8</ele>
        <time>2022-07-19T16:44:32Z</time>
      </trkpt>
      <trkpt lat="44.59036" lon="6.68769">
        <ele>1667.4</ele>
        <time>2022-07-19T16:44:33Z</time>
      </trkpt>
      <trkpt lat="44.59049" lon="6.68769">
        <ele>1666</ele>
        <time>2022-07-19T16:44:34Z</time>
      </trkpt>
      <trkpt lat="44.5906" lon="6.6877">
        <ele>1664.8</ele>
        <time>2022-07-19T16:44:35Z</time>
      </trkpt>
      <trkpt lat="44.59071" lon="6.68772">
        <ele>1663.6</ele>
        <time>2022-07-19T16:44:36Z</time>
      </trkpt>
      <trkpt lat="44.59081" lon="6.68776">
        <ele>1662.4</ele>
        <time>2022-07-19T16:44:37Z</time>
      </trkpt>
      <trkpt lat="44.5909" lon="6.6878">
        <ele>1661.4</ele>
        <time>2022-07-19T16:44:38Z</time>
      </trkpt>
      <trkpt lat="44.59098" lon="6.68788">
        <ele>1660.2</ele>
        <time>2022-07-19T16:44:39Z</time>
      </trkpt>
      <trkpt lat="44.59105" lon="6.68798">
        <ele>1659.2</ele>
        <time>2022-07-19T16:44:40Z</time>
      </trkpt>
      <trkpt lat="44.5911" lon="6.68811">
        <ele>1658.2</ele>
        <time>2022-07-19T16:44:41Z</time>
      </trkpt>
      <trkpt lat="44.59113" lon="6.68826">
        <ele>1657.4</ele>
        <time>2022-07-19T16:44:42Z</time>
      </trkpt>
      <trkpt lat="44.59115" lon="6.6884">
        <ele>1656.6</ele>
        <time>2022-07-19T16:44:43Z</time>
      </trkpt>
      <trkpt lat="44.59118" lon="6.68852">
        <ele>1655.8</ele>
        <time>2022-07-19T16:44:44Z</time>
      </trkpt>
      <trkpt lat="44.59122" lon="6.68864">
        <ele>1655.2</ele>
        <time>2022-07-19T16:44:45Z</time>
      </trkpt>
      <trkpt lat="44.59128" lon="6.68872">
        <ele>1654.4</ele>
        <time>2022-07-19T16:44:46Z</time>
      </trkpt>
      <trkpt lat="44.59135" lon="6.68878">
        <ele>1653.8</ele>
        <time>2022-07-19T16:44:47Z</time>
      </trkpt>
      <trkpt lat="44.59142" lon="6.68882">
        <ele>1653.2</ele>
        <time>2022-07-19T16:44:48Z</time>
      </trkpt>
      <trkpt lat="44.5915" lon="6.68884">
        <ele>1652.4</ele>
        <time>2022-07-19T16:44:49Z</time>
      </trkpt>
      <trkpt lat="44.59159" lon="6.68884">
        <ele>1651.8</ele>
        <time>2022-07-19T16:44:50Z</time>
      </trkpt>
      <trkpt lat="44.59167" lon="6.68883">
        <ele>1651.2</ele>
        <time>2022-07-19T16:44:51Z</time>
      </trkpt>
      <trkpt lat="44.59174" lon="6.68883">
        <ele>1650.6</ele>
        <time>2022-07-19T16:44:52Z</time>
      </trkpt>
      <trkpt lat="44.59181" lon="6.68883">
        <ele>1650</ele>
        <time>2022-07-19T16:44:53Z</time>
      </trkpt>
      <trkpt lat="44.59187" lon="6.68885">
        <ele>1649.4</ele>
        <time>2022-07-19T16:44:54Z</time>
      </trkpt>
      <trkpt lat="44.59192" lon="6.68886">
        <ele>1648.8</ele>
        <time>2022-07-19T16:44:55Z</time>
      </trkpt>
      <trkpt lat="44.59197" lon="6.68888">
        <ele>1648.4</ele>
        <time>2022-07-19T16:44:56Z</time>
      </trkpt>
      <trkpt lat="44.592" lon="6.68889">
        <ele>1648</ele>
        <time>2022-07-19T16:44:57Z</time>
      </trkpt>
      <trkpt lat="44.59203" lon="6.68889">
        <ele>1647.6</ele>
        <time>2022-07-19T16:44:58Z</time>
      </trkpt>
      <trkpt lat="44.59206" lon="6.6889">
        <ele>1647.2</ele>
        <time>2022-07-19T16:44:59Z</time>
      </trkpt>
      <trkpt lat="44.59209" lon="6.6889">
        <ele>1647</ele>
        <time>2022-07-19T16:45:00Z</time>
      </trkpt>
      <trkpt lat="44.5921" lon="6.6889">
        <ele>1646.6</ele>
        <time>2022-07-19T16:45:01Z</time>
      </trkpt>
      <trkpt lat="44.59211" lon="6.68891">
        <ele>1646.6</ele>
        <time>2022-07-19T16:45:02Z</time>
      </trkpt>
      <trkpt lat="44.59212" lon="6.68891">
        <ele>1646.2</ele>
        <time>2022-07-19T16:45:07Z</time>
      </trkpt>
      <trkpt lat="44.59213" lon="6.68891">
        <ele>1646.2</ele>
        <time>2022-07-19T16:45:08Z</time>
      </trkpt>
      <trkpt lat="44.59214" lon="6.68892">
        <ele>1646.2</ele>
        <time>2022-07-19T16:45:09Z</time>
      </trkpt>
      <trkpt lat="44.59215" lon="6.68892">
        <ele>1645.8</ele>
        <time>2022-07-19T16:46:17Z</time>
      </trkpt>
      <trkpt lat="44.59217" lon="6.68892">
        <ele>1645.6</ele>
        <time>2022-07-19T16:46:18Z</time>
      </trkpt>
      <trkpt lat="44.5922" lon="6.68894">
        <ele>1645.6</ele>
        <time>2022-07-19T16:46:19Z</time>
      </trkpt>
      <trkpt lat="44.59223" lon="6.68897">
        <ele>1645.4</ele>
        <time>2022-07-19T16:46:20Z</time>
      </trkpt>
      <trkpt lat="44.59227" lon="6.68899">
        <ele>1645</ele>
        <time>2022-07-19T16:46:21Z</time>
      </trkpt>
      <trkpt lat="44.59232" lon="6.68903">
        <ele>1644.8</ele>
        <time>2022-07-19T16:46:22Z</time>
      </trkpt>
      <trkpt lat="44.59237" lon="6.68906">
        <ele>1644.4</ele>
        <time>2022-07-19T16:46:23Z</time>
      </trkpt>
      <trkpt lat="44.59242" lon="6.6891">
        <ele>1644</ele>
        <time>2022-07-19T16:46:24Z</time>
      </trkpt>
      <trkpt lat="44.59248" lon="6.68914">
        <ele>1643.6</ele>
        <time>2022-07-19T16:46:25Z</time>
      </trkpt>
      <trkpt lat="44.59254" lon="6.68919">
        <ele>1643.2</ele>
        <time>2022-07-19T16:46:26Z</time>
      </trkpt>
      <trkpt lat="44.59259" lon="6.68924">
        <ele>1642.8</ele>
        <time>2022-07-19T16:46:27Z</time>
      </trkpt>
      <trkpt lat="44.59264" lon="6.68928">
        <ele>1642.2</ele>
        <time>2022-07-19T16:46:28Z</time>
      </trkpt>
      <trkpt lat="44.59269" lon="6.68933">
        <ele>1641.8</ele>
        <time>2022-07-19T16:46:29Z</time>
      </trkpt>
      <trkpt lat="44.59274" lon="6.68937">
        <ele>1641.4</ele>
        <time>2022-07-19T16:46:30Z</time>
      </trkpt>
      <trkpt lat="44.5928" lon="6.6894">
        <ele>1640.8</ele>
        <time>2022-07-19T16:46:31Z</time>
      </trkpt>
      <trkpt lat="44.59286" lon="6.68941">
        <ele>1640.4</ele>
        <time>2022-07-19T16:46:32Z</time>
      </trkpt>
      <trkpt lat="44.59292" lon="6.68941">
        <ele>1639.8</ele>
        <time>2022-07-19T16:46:33Z</time>
      </trkpt>
      <trkpt lat="44.59298" lon="6.68941">
        <ele>1639.4</ele>
        <time>2022-07-19T16:46:34Z</time>
      </trkpt>
      <trkpt lat="44.59303" lon="6.68941">
        <ele>1638.8</ele>
        <time>2022-07-19T16:46:35Z</time>
      </trkpt>
      <trkpt lat="44.59309" lon="6.68942">
        <ele>1638.4</ele>
        <time>2022-07-19T16:46:36Z</time>
      </trkpt>
      <trkpt lat="44.59315" lon="6.68941">
        <ele>1638</ele>
        <time>2022-07-19T16:46:37Z</time>
      </trkpt>
      <trkpt lat="44.59321" lon="6.6894">
        <ele>1637.6</ele>
        <time>2022-07-19T16:46:38Z</time>
      </trkpt>
      <trkpt lat="44.59327" lon="6.68939">
        <ele>1637.2</ele>
        <time>2022-07-19T16:46:39Z</time>
      </trkpt>
      <trkpt lat="44.59334" lon="6.68939">
        <ele>1636.6</ele>
        <time>2022-07-19T16:46:40Z</time>
      </trkpt>
      <trkpt lat="44.59341" lon="6.68939">
        <ele>1636.2</ele>
        <time>2022-07-19T16:46:41Z</time>
      </trkpt>
      <trkpt lat="44.59349" lon="6.6894">
        <ele>1635.8</ele>
        <time>2022-07-19T16:46:42Z</time>
      </trkpt>
      <trkpt lat="44.59357" lon="6.6894">
        <ele>1635.2</ele>
        <time>2022-07-19T16:46:43Z</time>
      </trkpt>
      <trkpt lat="44.59364" lon="6.68941">
        <ele>1634.8</ele>
        <time>2022-07-19T16:46:44Z</time>
      </trkpt>
      <trkpt lat="44.59373" lon="6.68942">
        <ele>1634.4</ele>
        <time>2022-07-19T16:46:45Z</time>
      </trkpt>
      <trkpt lat="44.59381" lon="6.68943">
        <ele>1634.2</ele>
        <time>2022-07-19T16:46:46Z</time>
      </trkpt>
      <trkpt lat="44.59388" lon="6.68945">
        <ele>1633.8</ele>
        <time>2022-07-19T16:46:47Z</time>
      </trkpt>
      <trkpt lat="44.59395" lon="6.68946">
        <ele>1633.6</ele>
        <time>2022-07-19T16:46:48Z</time>
      </trkpt>
      <trkpt lat="44.59402" lon="6.68948">
        <ele>1633.2</ele>
        <time>2022-07-19T16:46:49Z</time>
      </trkpt>
      <trkpt lat="44.59409" lon="6.68951">
        <ele>1633</ele>
        <time>2022-07-19T16:46:50Z</time>
      </trkpt>
      <trkpt lat="44.59417" lon="6.68955">
        <ele>1632.8</ele>
        <time>2022-07-19T16:46:51Z</time>
      </trkpt>
      <trkpt lat="44.59424" lon="6.6896">
        <ele>1632.8</ele>
        <time>2022-07-19T16:46:52Z</time>
      </trkpt>
      <trkpt lat="44.5943" lon="6.68965">
        <ele>1632.4</ele>
        <time>2022-07-19T16:46:53Z</time>
      </trkpt>
      <trkpt lat="44.59437" lon="6.68971">
        <ele>1632.4</ele>
        <time>2022-07-19T16:46:54Z</time>
      </trkpt>
      <trkpt lat="44.59444" lon="6.68977">
        <ele>1632.4</ele>
        <time>2022-07-19T16:46:55Z</time>
      </trkpt>
      <trkpt lat="44.59449" lon="6.68982">
        <ele>1632.4</ele>
        <time>2022-07-19T16:46:56Z</time>
      </trkpt>
      <trkpt lat="44.59455" lon="6.68986">
        <ele>1632</ele>
        <time>2022-07-19T16:46:57Z</time>
      </trkpt>
      <trkpt lat="44.59462" lon="6.68988">
        <ele>1632</ele>
        <time>2022-07-19T16:46:58Z</time>
      </trkpt>
      <trkpt lat="44.59468" lon="6.6899">
        <ele>1631.8</ele>
        <time>2022-07-19T16:46:59Z</time>
      </trkpt>
      <trkpt lat="44.59476" lon="6.68991">
        <ele>1631.6</ele>
        <time>2022-07-19T16:47:00Z</time>
      </trkpt>
      <trkpt lat="44.59483" lon="6.68991">
        <ele>1631.6</ele>
        <time>2022-07-19T16:47:01Z</time>
      </trkpt>
      <trkpt lat="44.5949" lon="6.68991">
        <ele>1631.4</ele>
        <time>2022-07-19T16:47:02Z</time>
      </trkpt>
      <trkpt lat="44.59498" lon="6.6899">
        <ele>1631.4</ele>
        <time>2022-07-19T16:47:03Z</time>
      </trkpt>
      <trkpt lat="44.59505" lon="6.68989">
        <ele>1631.4</ele>
        <time>2022-07-19T16:47:04Z</time>
      </trkpt>
      <trkpt lat="44.59512" lon="6.68989">
        <ele>1631.4</ele>
        <time>2022-07-19T16:47:05Z</time>
      </trkpt>
      <trkpt lat="44.59519" lon="6.68988">
        <ele>1631.4</ele>
        <time>2022-07-19T16:47:06Z</time>
      </trkpt>
      <trkpt lat="44.59526" lon="6.68988">
        <ele>1631.4</ele>
        <time>2022-07-19T16:47:07Z</time>
      </trkpt>
      <trkpt lat="44.59533" lon="6.68988">
        <ele>1631.4</ele>
        <time>2022-07-19T16:47:08Z</time>
      </trkpt>
      <trkpt lat="44.59539" lon="6.68987">
        <ele>1631.6</ele>
        <time>2022-07-19T16:47:09Z</time>
      </trkpt>
      <trkpt lat="44.59544" lon="6.68988">
        <ele>1631.8</ele>
        <time>2022-07-19T16:47:10Z</time>
      </trkpt>
      <trkpt lat="44.5955" lon="6.68988">
        <ele>1632</ele>
        <time>2022-07-19T16:47:11Z</time>
      </trkpt>
      <trkpt lat="44.59555" lon="6.68988">
        <ele>1632.2</ele>
        <time>2022-07-19T16:47:12Z</time>
      </trkpt>
      <trkpt lat="44.5956" lon="6.68988">
        <ele>1632.4</ele>
        <time>2022-07-19T16:47:13Z</time>
      </trkpt>
      <trkpt lat="44.59565" lon="6.68989">
        <ele>1632.6</ele>
        <time>2022-07-19T16:47:14Z</time>
      </trkpt>
      <trkpt lat="44.59569" lon="6.68989">
        <ele>1632.6</ele>
        <time>2022-07-19T16:47:15Z</time>
      </trkpt>
      <trkpt lat="44.59573" lon="6.68989">
        <ele>1633</ele>
        <time>2022-07-19T16:47:16Z</time>
      </trkpt>
      <trkpt lat="44.59577" lon="6.68989">
        <ele>1633.2</ele>
        <time>2022-07-19T16:47:17Z</time>
      </trkpt>
      <trkpt lat="44.59581" lon="6.68989">
        <ele>1633.4</ele>
        <time>2022-07-19T16:47:18Z</time>
      </trkpt>
      <trkpt lat="44.59584" lon="6.68989">
        <ele>1633.8</ele>
        <time>2022-07-19T16:47:19Z</time>
      </trkpt>
      <trkpt lat="44.59587" lon="6.6899">
        <ele>1634</ele>
        <time>2022-07-19T16:47:20Z</time>
      </trkpt>
      <trkpt lat="44.59591" lon="6.68989">
        <ele>1634</ele>
        <time>2022-07-19T16:47:21Z</time>
      </trkpt>
      <trkpt lat="44.59594" lon="6.68989">
        <ele>1634.2</ele>
        <time>2022-07-19T16:47:22Z</time>
      </trkpt>
      <trkpt lat="44.59597" lon="6.68988">
        <ele>1634.2</ele>
        <time>2022-07-19T16:47:23Z</time>
      </trkpt>
      <trkpt lat="44.596" lon="6.68989">
        <ele>1634.6</ele>
        <time>2022-07-19T16:47:24Z</time>
      </trkpt>
      <trkpt lat="44.59603" lon="6.68989">
        <ele>1634.6</ele>
        <time>2022-07-19T16:47:25Z</time>
      </trkpt>
      <trkpt lat="44.59606" lon="6.6899">
        <ele>1634.8</ele>
        <time>2022-07-19T16:47:26Z</time>
      </trkpt>
      <trkpt lat="44.5961" lon="6.68991">
        <ele>1635</ele>
        <time>2022-07-19T16:47:27Z</time>
      </trkpt>
      <trkpt lat="44.59613" lon="6.68991">
        <ele>1635</ele>
        <time>2022-07-19T16:47:28Z</time>
      </trkpt>
      <trkpt lat="44.59617" lon="6.68992">
        <ele>1635.4</ele>
        <time>2022-07-19T16:47:29Z</time>
      </trkpt>
      <trkpt lat="44.59621" lon="6.68993">
        <ele>1635.4</ele>
        <time>2022-07-19T16:47:30Z</time>
      </trkpt>
      <trkpt lat="44.59624" lon="6.68994">
        <ele>1635.8</ele>
        <time>2022-07-19T16:47:31Z</time>
      </trkpt>
      <trkpt lat="44.59627" lon="6.68995">
        <ele>1635.8</ele>
        <time>2022-07-19T16:47:32Z</time>
      </trkpt>
      <trkpt lat="44.5963" lon="6.68996">
        <ele>1636.2</ele>
        <time>2022-07-19T16:47:33Z</time>
      </trkpt>
      <trkpt lat="44.59634" lon="6.68996">
        <ele>1636.2</ele>
        <time>2022-07-19T16:47:34Z</time>
      </trkpt>
      <trkpt lat="44.59637" lon="6.68997">
        <ele>1636.6</ele>
        <time>2022-07-19T16:47:35Z</time>
      </trkpt>
      <trkpt lat="44.5964" lon="6.68997">
        <ele>1636.8</ele>
        <time>2022-07-19T16:47:36Z</time>
      </trkpt>
      <trkpt lat="44.59643" lon="6.68998">
        <ele>1637</ele>
        <time>2022-07-19T16:47:37Z</time>
      </trkpt>
      <trkpt lat="44.59646" lon="6.68998">
        <ele>1637</ele>
        <time>2022-07-19T16:47:38Z</time>
      </trkpt>
      <trkpt lat="44.59649" lon="6.68998">
        <ele>1637.4</ele>
        <time>2022-07-19T16:47:39Z</time>
      </trkpt>
      <trkpt lat="44.59652" lon="6.68999">
        <ele>1637.6</ele>
        <time>2022-07-19T16:47:40Z</time>
      </trkpt>
      <trkpt lat="44.59655" lon="6.68999">
        <ele>1637.6</ele>
        <time>2022-07-19T16:47:41Z</time>
      </trkpt>
      <trkpt lat="44.59658" lon="6.68999">
        <ele>1638</ele>
        <time>2022-07-19T16:47:42Z</time>
      </trkpt>
      <trkpt lat="44.59661" lon="6.68999">
        <ele>1638</ele>
        <time>2022-07-19T16:47:43Z</time>
      </trkpt>
      <trkpt lat="44.59664" lon="6.68999">
        <ele>1638.4</ele>
        <time>2022-07-19T16:47:44Z</time>
      </trkpt>
      <trkpt lat="44.59667" lon="6.68999">
        <ele>1638.4</ele>
        <time>2022-07-19T16:47:45Z</time>
      </trkpt>
      <trkpt lat="44.5967" lon="6.68999">
        <ele>1638.8</ele>
        <time>2022-07-19T16:47:46Z</time>
      </trkpt>
      <trkpt lat="44.59674" lon="6.68998">
        <ele>1638.8</ele>
        <time>2022-07-19T16:47:47Z</time>
      </trkpt>
      <trkpt lat="44.59677" lon="6.68998">
        <ele>1639</ele>
        <time>2022-07-19T16:47:48Z</time>
      </trkpt>
      <trkpt lat="44.5968" lon="6.68997">
        <ele>1639</ele>
        <time>2022-07-19T16:47:49Z</time>
      </trkpt>
      <trkpt lat="44.59683" lon="6.68997">
        <ele>1639.4</ele>
        <time>2022-07-19T16:47:50Z</time>
      </trkpt>
      <trkpt lat="44.59686" lon="6.68996">
        <ele>1639.4</ele>
        <time>2022-07-19T16:47:51Z</time>
      </trkpt>
      <trkpt lat="44.59689" lon="6.68996">
        <ele>1639.8</ele>
        <time>2022-07-19T16:47:52Z</time>
      </trkpt>
      <trkpt lat="44.59692" lon="6.68996">
        <ele>1639.8</ele>
        <time>2022-07-19T16:47:53Z</time>
      </trkpt>
      <trkpt lat="44.59695" lon="6.68995">
        <ele>1640.2</ele>
        <time>2022-07-19T16:47:54Z</time>
      </trkpt>
      <trkpt lat="44.59698" lon="6.68994">
        <ele>1640.2</ele>
        <time>2022-07-19T16:47:55Z</time>
      </trkpt>
      <trkpt lat="44.597" lon="6.68993">
        <ele>1640.4</ele>
        <time>2022-07-19T16:47:56Z</time>
      </trkpt>
      <trkpt lat="44.59703" lon="6.68992">
        <ele>1640.4</ele>
        <time>2022-07-19T16:47:57Z</time>
      </trkpt>
      <trkpt lat="44.59706" lon="6.68991">
        <ele>1640.8</ele>
        <time>2022-07-19T16:47:58Z</time>
      </trkpt>
      <trkpt lat="44.59709" lon="6.68991">
        <ele>1640.8</ele>
        <time>2022-07-19T16:47:59Z</time>
      </trkpt>
      <trkpt lat="44.59711" lon="6.6899">
        <ele>1641</ele>
        <time>2022-07-19T16:48:00Z</time>
      </trkpt>
      <trkpt lat="44.59714" lon="6.6899">
        <ele>1641</ele>
        <time>2022-07-19T16:48:01Z</time>
      </trkpt>
      <trkpt lat="44.59717" lon="6.68989">
        <ele>1641.4</ele>
        <time>2022-07-19T16:48:02Z</time>
      </trkpt>
      <trkpt lat="44.5972" lon="6.68989">
        <ele>1641.4</ele>
        <time>2022-07-19T16:48:03Z</time>
      </trkpt>
      <trkpt lat="44.59723" lon="6.68988">
        <ele>1641.6</ele>
        <time>2022-07-19T16:48:04Z</time>
      </trkpt>
      <trkpt lat="44.59726" lon="6.68987">
        <ele>1641.6</ele>
        <time>2022-07-19T16:48:05Z</time>
      </trkpt>
      <trkpt lat="44.59728" lon="6.68987">
        <ele>1642</ele>
        <time>2022-07-19T16:48:06Z</time>
      </trkpt>
      <trkpt lat="44.59731" lon="6.68986">
        <ele>1642</ele>
        <time>2022-07-19T16:48:07Z</time>
      </trkpt>
      <trkpt lat="44.59734" lon="6.68985">
        <ele>1642</ele>
        <time>2022-07-19T16:48:08Z</time>
      </trkpt>
      <trkpt lat="44.59737" lon="6.68984">
        <ele>1642.2</ele>
        <time>2022-07-19T16:48:09Z</time>
      </trkpt>
      <trkpt lat="44.59741" lon="6.68984">
        <ele>1642.2</ele>
        <time>2022-07-19T16:48:10Z</time>
      </trkpt>
      <trkpt lat="44.59744" lon="6.68983">
        <ele>1642.2</ele>
        <time>2022-07-19T16:48:11Z</time>
      </trkpt>
      <trkpt lat="44.59748" lon="6.68983">
        <ele>1642.4</ele>
        <time>2022-07-19T16:48:12Z</time>
      </trkpt>
      <trkpt lat="44.59751" lon="6.68983">
        <ele>1642.4</ele>
        <time>2022-07-19T16:48:13Z</time>
      </trkpt>
      <trkpt lat="44.59754" lon="6.68982">
        <ele>1642.4</ele>
        <time>2022-07-19T16:48:14Z</time>
      </trkpt>
      <trkpt lat="44.59758" lon="6.68982">
        <ele>1642.8</ele>
        <time>2022-07-19T16:48:15Z</time>
      </trkpt>
      <trkpt lat="44.59761" lon="6.68982">
        <ele>1642.8</ele>
        <time>2022-07-19T16:48:16Z</time>
      </trkpt>
      <trkpt lat="44.59764" lon="6.68981">
        <ele>1642.8</ele>
        <time>2022-07-19T16:48:17Z</time>
      </trkpt>
      <trkpt lat="44.59767" lon="6.68981">
        <ele>1642.8</ele>
        <time>2022-07-19T16:48:18Z</time>
      </trkpt>
      <trkpt lat="44.5977" lon="6.68981">
        <ele>1642.8</ele>
        <time>2022-07-19T16:48:19Z</time>
      </trkpt>
      <trkpt lat="44.59772" lon="6.68981">
        <ele>1642.8</ele>
        <time>2022-07-19T16:48:20Z</time>
      </trkpt>
      <trkpt lat="44.59775" lon="6.68981">
        <ele>1643</ele>
        <time>2022-07-19T16:48:21Z</time>
      </trkpt>
      <trkpt lat="44.59777" lon="6.68981">
        <ele>1643</ele>
        <time>2022-07-19T16:48:22Z</time>
      </trkpt>
      <trkpt lat="44.5978" lon="6.68981">
        <ele>1643</ele>
        <time>2022-07-19T16:48:23Z</time>
      </trkpt>
      <trkpt lat="44.59782" lon="6.68981">
        <ele>1643</ele>
        <time>2022-07-19T16:48:24Z</time>
      </trkpt>
      <trkpt lat="44.59784" lon="6.68981">
        <ele>1643</ele>
        <time>2022-07-19T16:48:25Z</time>
      </trkpt>
      <trkpt lat="44.59785" lon="6.68982">
        <ele>1643</ele>
        <time>2022-07-19T16:48:26Z</time>
      </trkpt>
      <trkpt lat="44.59785" lon="6.68982">
        <ele>1643</ele>
        <time>2022-07-19T16:48:27Z</time>
      </trkpt>
      <trkpt lat="44.59788" lon="6.68981">
        <ele>1643</ele>
        <time>2022-07-19T16:49:45Z</time>
      </trkpt>
      <trkpt lat="44.5979" lon="6.68981">
        <ele>1643</ele>
        <time>2022-07-19T16:49:46Z</time>
      </trkpt>
      <trkpt lat="44.59792" lon="6.68981">
        <ele>1643</ele>
        <time>2022-07-19T16:49:47Z</time>
      </trkpt>
      <trkpt lat="44.59794" lon="6.68981">
        <ele>1643</ele>
        <time>2022-07-19T16:49:48Z</time>
      </trkpt>
      <trkpt lat="44.59797" lon="6.68981">
        <ele>1643</ele>
        <time>2022-07-19T16:49:49Z</time>
      </trkpt>
      <trkpt lat="44.598" lon="6.6898">
        <ele>1643</ele>
        <time>2022-07-19T16:49:50Z</time>
      </trkpt>
      <trkpt lat="44.59804" lon="6.6898">
        <ele>1643</ele>
        <time>2022-07-19T16:49:51Z</time>
      </trkpt>
      <trkpt lat="44.59808" lon="6.68979">
        <ele>1643</ele>
        <time>2022-07-19T16:49:52Z</time>
      </trkpt>
      <trkpt lat="44.59812" lon="6.68979">
        <ele>1643</ele>
        <time>2022-07-19T16:49:53Z</time>
      </trkpt>
      <trkpt lat="44.59816" lon="6.68979">
        <ele>1642.8</ele>
        <time>2022-07-19T16:49:54Z</time>
      </trkpt>
      <trkpt lat="44.5982" lon="6.68978">
        <ele>1642.8</ele>
        <time>2022-07-19T16:49:55Z</time>
      </trkpt>
      <trkpt lat="44.59824" lon="6.68977">
        <ele>1642.8</ele>
        <time>2022-07-19T16:49:56Z</time>
      </trkpt>
      <trkpt lat="44.59829" lon="6.68977">
        <ele>1642.4</ele>
        <time>2022-07-19T16:49:57Z</time>
      </trkpt>
      <trkpt lat="44.59834" lon="6.68977">
        <ele>1642.4</ele>
        <time>2022-07-19T16:49:58Z</time>
      </trkpt>
      <trkpt lat="44.59839" lon="6.68977">
        <ele>1642.2</ele>
        <time>2022-07-19T16:49:59Z</time>
      </trkpt>
      <trkpt lat="44.59845" lon="6.68976">
        <ele>1642.2</ele>
        <time>2022-07-19T16:50:00Z</time>
      </trkpt>
      <trkpt lat="44.5985" lon="6.68976">
        <ele>1642.2</ele>
        <time>2022-07-19T16:50:01Z</time>
      </trkpt>
      <trkpt lat="44.59856" lon="6.68975">
        <ele>1641.8</ele>
        <time>2022-07-19T16:50:02Z</time>
      </trkpt>
      <trkpt lat="44.59862" lon="6.68975">
        <ele>1641.8</ele>
        <time>2022-07-19T16:50:03Z</time>
      </trkpt>
      <trkpt lat="44.59869" lon="6.68976">
        <ele>1641.4</ele>
        <time>2022-07-19T16:50:04Z</time>
      </trkpt>
      <trkpt lat="44.59876" lon="6.68977">
        <ele>1641.2</ele>
        <time>2022-07-19T16:50:05Z</time>
      </trkpt>
      <trkpt lat="44.59883" lon="6.68977">
        <ele>1640.8</ele>
        <time>2022-07-19T16:50:06Z</time>
      </trkpt>
      <trkpt lat="44.5989" lon="6.68978">
        <ele>1640.6</ele>
        <time>2022-07-19T16:50:07Z</time>
      </trkpt>
      <trkpt lat="44.59898" lon="6.68979">
        <ele>1640.2</ele>
        <time>2022-07-19T16:50:08Z</time>
      </trkpt>
      <trkpt lat="44.59906" lon="6.6898">
        <ele>1639.8</ele>
        <time>2022-07-19T16:50:09Z</time>
      </trkpt>
      <trkpt lat="44.59914" lon="6.68981">
        <ele>1639.6</ele>
        <time>2022-07-19T16:50:10Z</time>
      </trkpt>
      <trkpt lat="44.59923" lon="6.68983">
        <ele>1639.2</ele>
        <time>2022-07-19T16:50:11Z</time>
      </trkpt>
      <trkpt lat="44.59931" lon="6.68984">
        <ele>1638.8</ele>
        <time>2022-07-19T16:50:12Z</time>
      </trkpt>
      <trkpt lat="44.5994" lon="6.68986">
        <ele>1638.6</ele>
        <time>2022-07-19T16:50:13Z</time>
      </trkpt>
      <trkpt lat="44.59949" lon="6.68987">
        <ele>1638.2</ele>
        <time>2022-07-19T16:50:14Z</time>
      </trkpt>
      <trkpt lat="44.59958" lon="6.68988">
        <ele>1637.8</ele>
        <time>2022-07-19T16:50:15Z</time>
      </trkpt>
      <trkpt lat="44.59967" lon="6.68989">
        <ele>1637.4</ele>
        <time>2022-07-19T16:50:16Z</time>
      </trkpt>
      <trkpt lat="44.59977" lon="6.68989">
        <ele>1637.2</ele>
        <time>2022-07-19T16:50:17Z</time>
      </trkpt>
      <trkpt lat="44.59986" lon="6.68988">
        <ele>1636.8</ele>
        <time>2022-07-19T16:50:18Z</time>
      </trkpt>
      <trkpt lat="44.59996" lon="6.68985">
        <ele>1636.4</ele>
        <time>2022-07-19T16:50:19Z</time>
      </trkpt>
      <trkpt lat="44.60006" lon="6.68981">
        <ele>1636.2</ele>
        <time>2022-07-19T16:50:20Z</time>
      </trkpt>
      <trkpt lat="44.60015" lon="6.68977">
        <ele>1635.8</ele>
        <time>2022-07-19T16:50:21Z</time>
      </trkpt>
      <trkpt lat="44.60024" lon="6.68973">
        <ele>1635.6</ele>
        <time>2022-07-19T16:50:22Z</time>
      </trkpt>
      <trkpt lat="44.60033" lon="6.6897">
        <ele>1635.2</ele>
        <time>2022-07-19T16:50:23Z</time>
      </trkpt>
      <trkpt lat="44.60042" lon="6.68966">
        <ele>1635</ele>
        <time>2022-07-19T16:50:24Z</time>
      </trkpt>
      <trkpt lat="44.6005" lon="6.68962">
        <ele>1634.6</ele>
        <time>2022-07-19T16:50:25Z</time>
      </trkpt>
      <trkpt lat="44.60059" lon="6.68958">
        <ele>1634.4</ele>
        <time>2022-07-19T16:50:26Z</time>
      </trkpt>
      <trkpt lat="44.60068" lon="6.68954">
        <ele>1634.2</ele>
        <time>2022-07-19T16:50:27Z</time>
      </trkpt>
      <trkpt lat="44.60076" lon="6.6895">
        <ele>1634</ele>
        <time>2022-07-19T16:50:28Z</time>
      </trkpt>
      <trkpt lat="44.60084" lon="6.68946">
        <ele>1634</ele>
        <time>2022-07-19T16:50:29Z</time>
      </trkpt>
      <trkpt lat="44.60093" lon="6.68942">
        <ele>1633.8</ele>
        <time>2022-07-19T16:50:30Z</time>
      </trkpt>
      <trkpt lat="44.60101" lon="6.68939">
        <ele>1633.8</ele>
        <time>2022-07-19T16:50:31Z</time>
      </trkpt>
      <trkpt lat="44.60109" lon="6.68935">
        <ele>1633.8</ele>
        <time>2022-07-19T16:50:32Z</time>
      </trkpt>
      <trkpt lat="44.60117" lon="6.68931">
        <ele>1633.4</ele>
        <time>2022-07-19T16:50:33Z</time>
      </trkpt>
      <trkpt lat="44.60125" lon="6.68927">
        <ele>1633.4</ele>
        <time>2022-07-19T16:50:34Z</time>
      </trkpt>
      <trkpt lat="44.60133" lon="6.68924">
        <ele>1633.4</ele>
        <time>2022-07-19T16:50:35Z</time>
      </trkpt>
      <trkpt lat="44.60141" lon="6.6892">
        <ele>1633.2</ele>
        <time>2022-07-19T16:50:36Z</time>
      </trkpt>
      <trkpt lat="44.60148" lon="6.68917">
        <ele>1633.2</ele>
        <time>2022-07-19T16:50:37Z</time>
      </trkpt>
      <trkpt lat="44.60157" lon="6.68914">
        <ele>1633.2</ele>
        <time>2022-07-19T16:50:38Z</time>
      </trkpt>
      <trkpt lat="44.60165" lon="6.6891">
        <ele>1632.8</ele>
        <time>2022-07-19T16:50:39Z</time>
      </trkpt>
      <trkpt lat="44.60173" lon="6.68907">
        <ele>1632.8</ele>
        <time>2022-07-19T16:50:40Z</time>
      </trkpt>
      <trkpt lat="44.60182" lon="6.68904">
        <ele>1632.4</ele>
        <time>2022-07-19T16:50:41Z</time>
      </trkpt>
      <trkpt lat="44.6019" lon="6.68901">
        <ele>1632</ele>
        <time>2022-07-19T16:50:42Z</time>
      </trkpt>
      <trkpt lat="44.60199" lon="6.68899">
        <ele>1631.8</ele>
        <time>2022-07-19T16:50:43Z</time>
      </trkpt>
      <trkpt lat="44.60208" lon="6.68898">
        <ele>1631.4</ele>
        <time>2022-07-19T16:50:44Z</time>
      </trkpt>
      <trkpt lat="44.60218" lon="6.68897">
        <ele>1631.2</ele>
        <time>2022-07-19T16:50:45Z</time>
      </trkpt>
      <trkpt lat="44.60228" lon="6.68897">
        <ele>1630.8</ele>
        <time>2022-07-19T16:50:46Z</time>
      </trkpt>
      <trkpt lat="44.60239" lon="6.68899">
        <ele>1630.2</ele>
        <time>2022-07-19T16:50:47Z</time>
      </trkpt>
      <trkpt lat="44.60249" lon="6.68902">
        <ele>1629.8</ele>
        <time>2022-07-19T16:50:48Z</time>
      </trkpt>
      <trkpt lat="44.60259" lon="6.68903">
        <ele>1629.4</ele>
        <time>2022-07-19T16:50:49Z</time>
      </trkpt>
      <trkpt lat="44.6027" lon="6.68903">
        <ele>1628.8</ele>
        <time>2022-07-19T16:50:50Z</time>
      </trkpt>
      <trkpt lat="44.60281" lon="6.68901">
        <ele>1628.2</ele>
        <time>2022-07-19T16:50:51Z</time>
      </trkpt>
      <trkpt lat="44.60292" lon="6.68895">
        <ele>1627.6</ele>
        <time>2022-07-19T16:50:52Z</time>
      </trkpt>
      <trkpt lat="44.60302" lon="6.68888">
        <ele>1627</ele>
        <time>2022-07-19T16:50:53Z</time>
      </trkpt>
      <trkpt lat="44.60312" lon="6.68879">
        <ele>1626.2</ele>
        <time>2022-07-19T16:50:54Z</time>
      </trkpt>
      <trkpt lat="44.60321" lon="6.68871">
        <ele>1625.4</ele>
        <time>2022-07-19T16:50:55Z</time>
      </trkpt>
      <trkpt lat="44.60332" lon="6.68865">
        <ele>1624.8</ele>
        <time>2022-07-19T16:50:56Z</time>
      </trkpt>
      <trkpt lat="44.60343" lon="6.68861">
        <ele>1624</ele>
        <time>2022-07-19T16:50:57Z</time>
      </trkpt>
      <trkpt lat="44.60356" lon="6.68859">
        <ele>1623.4</ele>
        <time>2022-07-19T16:50:58Z</time>
      </trkpt>
      <trkpt lat="44.6037" lon="6.68858">
        <ele>1622.4</ele>
        <time>2022-07-19T16:50:59Z</time>
      </trkpt>
      <trkpt lat="44.60383" lon="6.6886">
        <ele>1621.8</ele>
        <time>2022-07-19T16:51:00Z</time>
      </trkpt>
      <trkpt lat="44.60397" lon="6.68862">
        <ele>1621</ele>
        <time>2022-07-19T16:51:01Z</time>
      </trkpt>
      <trkpt lat="44.6041" lon="6.68865">
        <ele>1620.4</ele>
        <time>2022-07-19T16:51:02Z</time>
      </trkpt>
      <trkpt lat="44.60423" lon="6.68868">
        <ele>1619.8</ele>
        <time>2022-07-19T16:51:03Z</time>
      </trkpt>
      <trkpt lat="44.60435" lon="6.68873">
        <ele>1619</ele>
        <time>2022-07-19T16:51:04Z</time>
      </trkpt>
      <trkpt lat="44.60447" lon="6.68879">
        <ele>1618.2</ele>
        <time>2022-07-19T16:51:05Z</time>
      </trkpt>
      <trkpt lat="44.60458" lon="6.68889">
        <ele>1617.4</ele>
        <time>2022-07-19T16:51:06Z</time>
      </trkpt>
      <trkpt lat="44.60468" lon="6.68901">
        <ele>1616.6</ele>
        <time>2022-07-19T16:51:07Z</time>
      </trkpt>
      <trkpt lat="44.60478" lon="6.68913">
        <ele>1616</ele>
        <time>2022-07-19T16:51:08Z</time>
      </trkpt>
      <trkpt lat="44.60487" lon="6.68924">
        <ele>1615.4</ele>
        <time>2022-07-19T16:51:09Z</time>
      </trkpt>
      <trkpt lat="44.60495" lon="6.68932">
        <ele>1614.8</ele>
        <time>2022-07-19T16:51:10Z</time>
      </trkpt>
      <trkpt lat="44.60505" lon="6.68937">
        <ele>1614.4</ele>
        <time>2022-07-19T16:51:11Z</time>
      </trkpt>
      <trkpt lat="44.60516" lon="6.68938">
        <ele>1614</ele>
        <time>2022-07-19T16:51:12Z</time>
      </trkpt>
      <trkpt lat="44.60527" lon="6.68937">
        <ele>1613.6</ele>
        <time>2022-07-19T16:51:13Z</time>
      </trkpt>
      <trkpt lat="44.60539" lon="6.68933">
        <ele>1613.2</ele>
        <time>2022-07-19T16:51:14Z</time>
      </trkpt>
      <trkpt lat="44.60549" lon="6.68927">
        <ele>1613</ele>
        <time>2022-07-19T16:51:15Z</time>
      </trkpt>
      <trkpt lat="44.6056" lon="6.68921">
        <ele>1612.6</ele>
        <time>2022-07-19T16:51:16Z</time>
      </trkpt>
      <trkpt lat="44.6057" lon="6.68916">
        <ele>1612.4</ele>
        <time>2022-07-19T16:51:17Z</time>
      </trkpt>
      <trkpt lat="44.60581" lon="6.68911">
        <ele>1612.4</ele>
        <time>2022-07-19T16:51:18Z</time>
      </trkpt>
      <trkpt lat="44.60591" lon="6.68906">
        <ele>1612</ele>
        <time>2022-07-19T16:51:19Z</time>
      </trkpt>
      <trkpt lat="44.60601" lon="6.68901">
        <ele>1612</ele>
        <time>2022-07-19T16:51:20Z</time>
      </trkpt>
      <trkpt lat="44.6061" lon="6.68896">
        <ele>1611.8</ele>
        <time>2022-07-19T16:51:21Z</time>
      </trkpt>
      <trkpt lat="44.60619" lon="6.68891">
        <ele>1611.8</ele>
        <time>2022-07-19T16:51:22Z</time>
      </trkpt>
      <trkpt lat="44.60629" lon="6.68888">
        <ele>1611.4</ele>
        <time>2022-07-19T16:51:23Z</time>
      </trkpt>
      <trkpt lat="44.60638" lon="6.68884">
        <ele>1611.4</ele>
        <time>2022-07-19T16:51:24Z</time>
      </trkpt>
      <trkpt lat="44.60648" lon="6.68881">
        <ele>1611.4</ele>
        <time>2022-07-19T16:51:25Z</time>
      </trkpt>
      <trkpt lat="44.60656" lon="6.68877">
        <ele>1611.4</ele>
        <time>2022-07-19T16:51:26Z</time>
      </trkpt>
      <trkpt lat="44.60665" lon="6.68872">
        <ele>1611.4</ele>
        <time>2022-07-19T16:51:27Z</time>
      </trkpt>
      <trkpt lat="44.60674" lon="6.68868">
        <ele>1611.2</ele>
        <time>2022-07-19T16:51:28Z</time>
      </trkpt>
      <trkpt lat="44.60683" lon="6.68863">
        <ele>1611.2</ele>
        <time>2022-07-19T16:51:29Z</time>
      </trkpt>
      <trkpt lat="44.60692" lon="6.68859">
        <ele>1611.2</ele>
        <time>2022-07-19T16:51:30Z</time>
      </trkpt>
      <trkpt lat="44.60701" lon="6.68857">
        <ele>1611.2</ele>
        <time>2022-07-19T16:51:31Z</time>
      </trkpt>
      <trkpt lat="44.60709" lon="6.68853">
        <ele>1611.2</ele>
        <time>2022-07-19T16:51:32Z</time>
      </trkpt>
      <trkpt lat="44.60718" lon="6.6885">
        <ele>1611.2</ele>
        <time>2022-07-19T16:51:33Z</time>
      </trkpt>
      <trkpt lat="44.60726" lon="6.68846">
        <ele>1611.2</ele>
        <time>2022-07-19T16:51:34Z</time>
      </trkpt>
      <trkpt lat="44.60734" lon="6.68843">
        <ele>1611.2</ele>
        <time>2022-07-19T16:51:35Z</time>
      </trkpt>
      <trkpt lat="44.60742" lon="6.6884">
        <ele>1611.2</ele>
        <time>2022-07-19T16:51:36Z</time>
      </trkpt>
      <trkpt lat="44.6075" lon="6.68838">
        <ele>1611.2</ele>
        <time>2022-07-19T16:51:37Z</time>
      </trkpt>
      <trkpt lat="44.60758" lon="6.68836">
        <ele>1611.2</ele>
        <time>2022-07-19T16:51:38Z</time>
      </trkpt>
      <trkpt lat="44.60766" lon="6.68835">
        <ele>1611.2</ele>
        <time>2022-07-19T16:51:39Z</time>
      </trkpt>
      <trkpt lat="44.60774" lon="6.68836">
        <ele>1611.2</ele>
        <time>2022-07-19T16:51:40Z</time>
      </trkpt>
      <trkpt lat="44.60782" lon="6.68837">
        <ele>1611.2</ele>
        <time>2022-07-19T16:51:41Z</time>
      </trkpt>
      <trkpt lat="44.6079" lon="6.68838">
        <ele>1611.6</ele>
        <time>2022-07-19T16:51:42Z</time>
      </trkpt>
      <trkpt lat="44.60797" lon="6.68841">
        <ele>1611.6</ele>
        <time>2022-07-19T16:51:43Z</time>
      </trkpt>
      <trkpt lat="44.60805" lon="6.68843">
        <ele>1611.8</ele>
        <time>2022-07-19T16:51:44Z</time>
      </trkpt>
      <trkpt lat="44.60812" lon="6.68844">
        <ele>1611.8</ele>
        <time>2022-07-19T16:51:45Z</time>
      </trkpt>
      <trkpt lat="44.60819" lon="6.68844">
        <ele>1611.8</ele>
        <time>2022-07-19T16:51:46Z</time>
      </trkpt>
      <trkpt lat="44.60827" lon="6.68843">
        <ele>1612</ele>
        <time>2022-07-19T16:51:47Z</time>
      </trkpt>
      <trkpt lat="44.60834" lon="6.6884">
        <ele>1612</ele>
        <time>2022-07-19T16:51:48Z</time>
      </trkpt>
      <trkpt lat="44.6084" lon="6.68838">
        <ele>1612.2</ele>
        <time>2022-07-19T16:51:49Z</time>
      </trkpt>
      <trkpt lat="44.60847" lon="6.68836">
        <ele>1612.2</ele>
        <time>2022-07-19T16:51:50Z</time>
      </trkpt>
      <trkpt lat="44.60853" lon="6.68836">
        <ele>1612.8</ele>
        <time>2022-07-19T16:51:51Z</time>
      </trkpt>
      <trkpt lat="44.60859" lon="6.68836">
        <ele>1613</ele>
        <time>2022-07-19T16:51:52Z</time>
      </trkpt>
      <trkpt lat="44.60865" lon="6.68837">
        <ele>1613.2</ele>
        <time>2022-07-19T16:51:53Z</time>
      </trkpt>
      <trkpt lat="44.6087" lon="6.68838">
        <ele>1613.2</ele>
        <time>2022-07-19T16:51:54Z</time>
      </trkpt>
      <trkpt lat="44.60875" lon="6.6884">
        <ele>1613.6</ele>
        <time>2022-07-19T16:51:55Z</time>
      </trkpt>
      <trkpt lat="44.6088" lon="6.68842">
        <ele>1614</ele>
        <time>2022-07-19T16:51:56Z</time>
      </trkpt>
      <trkpt lat="44.60885" lon="6.68844">
        <ele>1614.2</ele>
        <time>2022-07-19T16:51:57Z</time>
      </trkpt>
      <trkpt lat="44.60889" lon="6.68846">
        <ele>1614.6</ele>
        <time>2022-07-19T16:51:58Z</time>
      </trkpt>
      <trkpt lat="44.60894" lon="6.68847">
        <ele>1614.8</ele>
        <time>2022-07-19T16:51:59Z</time>
      </trkpt>
      <trkpt lat="44.60899" lon="6.68848">
        <ele>1614.8</ele>
        <time>2022-07-19T16:52:00Z</time>
      </trkpt>
      <trkpt lat="44.60903" lon="6.68849">
        <ele>1615.2</ele>
        <time>2022-07-19T16:52:01Z</time>
      </trkpt>
      <trkpt lat="44.60908" lon="6.6885">
        <ele>1615.2</ele>
        <time>2022-07-19T16:52:02Z</time>
      </trkpt>
      <trkpt lat="44.60913" lon="6.68849">
        <ele>1615.2</ele>
        <time>2022-07-19T16:52:03Z</time>
      </trkpt>
      <trkpt lat="44.60918" lon="6.68848">
        <ele>1615.6</ele>
        <time>2022-07-19T16:52:04Z</time>
      </trkpt>
      <trkpt lat="44.60923" lon="6.68848">
        <ele>1615.8</ele>
        <time>2022-07-19T16:52:05Z</time>
      </trkpt>
      <trkpt lat="44.60927" lon="6.68847">
        <ele>1615.8</ele>
        <time>2022-07-19T16:52:06Z</time>
      </trkpt>
      <trkpt lat="44.60932" lon="6.68847">
        <ele>1616</ele>
        <time>2022-07-19T16:52:07Z</time>
      </trkpt>
      <trkpt lat="44.60936" lon="6.68846">
        <ele>1616</ele>
        <time>2022-07-19T16:52:08Z</time>
      </trkpt>
      <trkpt lat="44.60941" lon="6.68845">
        <ele>1616</ele>
        <time>2022-07-19T16:52:09Z</time>
      </trkpt>
      <trkpt lat="44.60946" lon="6.68844">
        <ele>1616</ele>
        <time>2022-07-19T16:52:10Z</time>
      </trkpt>
      <trkpt lat="44.60951" lon="6.68844">
        <ele>1616</ele>
        <time>2022-07-19T16:52:11Z</time>
      </trkpt>
      <trkpt lat="44.60956" lon="6.68844">
        <ele>1616</ele>
        <time>2022-07-19T16:52:12Z</time>
      </trkpt>
      <trkpt lat="44.6096" lon="6.68844">
        <ele>1616</ele>
        <time>2022-07-19T16:52:13Z</time>
      </trkpt>
      <trkpt lat="44.60966" lon="6.68845">
        <ele>1616.2</ele>
        <time>2022-07-19T16:52:14Z</time>
      </trkpt>
      <trkpt lat="44.60971" lon="6.68847">
        <ele>1616.2</ele>
        <time>2022-07-19T16:52:15Z</time>
      </trkpt>
      <trkpt lat="44.60976" lon="6.68847">
        <ele>1616.2</ele>
        <time>2022-07-19T16:52:16Z</time>
      </trkpt>
      <trkpt lat="44.6098" lon="6.68847">
        <ele>1616.2</ele>
        <time>2022-07-19T16:52:17Z</time>
      </trkpt>
      <trkpt lat="44.60985" lon="6.68846">
        <ele>1616.2</ele>
        <time>2022-07-19T16:52:18Z</time>
      </trkpt>
      <trkpt lat="44.60989" lon="6.68844">
        <ele>1616.2</ele>
        <time>2022-07-19T16:52:19Z</time>
      </trkpt>
      <trkpt lat="44.60993" lon="6.6884">
        <ele>1616.2</ele>
        <time>2022-07-19T16:52:20Z</time>
      </trkpt>
      <trkpt lat="44.60997" lon="6.68836">
        <ele>1616.2</ele>
        <time>2022-07-19T16:52:21Z</time>
      </trkpt>
      <trkpt lat="44.61" lon="6.6883">
        <ele>1616.2</ele>
        <time>2022-07-19T16:52:22Z</time>
      </trkpt>
      <trkpt lat="44.61003" lon="6.68824">
        <ele>1616.2</ele>
        <time>2022-07-19T16:52:23Z</time>
      </trkpt>
      <trkpt lat="44.61007" lon="6.68819">
        <ele>1616.2</ele>
        <time>2022-07-19T16:52:24Z</time>
      </trkpt>
      <trkpt lat="44.6101" lon="6.68814">
        <ele>1616.2</ele>
        <time>2022-07-19T16:52:25Z</time>
      </trkpt>
      <trkpt lat="44.61013" lon="6.6881">
        <ele>1616.2</ele>
        <time>2022-07-19T16:52:26Z</time>
      </trkpt>
      <trkpt lat="44.61018" lon="6.68806">
        <ele>1616.4</ele>
        <time>2022-07-19T16:52:27Z</time>
      </trkpt>
      <trkpt lat="44.61022" lon="6.68805">
        <ele>1616.4</ele>
        <time>2022-07-19T16:52:28Z</time>
      </trkpt>
      <trkpt lat="44.61027" lon="6.68805">
        <ele>1616.4</ele>
        <time>2022-07-19T16:52:29Z</time>
      </trkpt>
      <trkpt lat="44.61032" lon="6.68806">
        <ele>1616.8</ele>
        <time>2022-07-19T16:52:30Z</time>
      </trkpt>
      <trkpt lat="44.61036" lon="6.68805">
        <ele>1616.8</ele>
        <time>2022-07-19T16:52:31Z</time>
      </trkpt>
      <trkpt lat="44.6104" lon="6.68803">
        <ele>1617</ele>
        <time>2022-07-19T16:52:32Z</time>
      </trkpt>
      <trkpt lat="44.61045" lon="6.68801">
        <ele>1617</ele>
        <time>2022-07-19T16:52:33Z</time>
      </trkpt>
      <trkpt lat="44.6105" lon="6.68799">
        <ele>1617</ele>
        <time>2022-07-19T16:52:34Z</time>
      </trkpt>
      <trkpt lat="44.61055" lon="6.68797">
        <ele>1617</ele>
        <time>2022-07-19T16:52:35Z</time>
      </trkpt>
      <trkpt lat="44.6106" lon="6.68795">
        <ele>1617</ele>
        <time>2022-07-19T16:52:36Z</time>
      </trkpt>
      <trkpt lat="44.61065" lon="6.68792">
        <ele>1617</ele>
        <time>2022-07-19T16:52:37Z</time>
      </trkpt>
      <trkpt lat="44.6107" lon="6.6879">
        <ele>1617</ele>
        <time>2022-07-19T16:52:38Z</time>
      </trkpt>
      <trkpt lat="44.61075" lon="6.68787">
        <ele>1617</ele>
        <time>2022-07-19T16:52:39Z</time>
      </trkpt>
      <trkpt lat="44.61081" lon="6.68784">
        <ele>1617</ele>
        <time>2022-07-19T16:52:40Z</time>
      </trkpt>
      <trkpt lat="44.61086" lon="6.68781">
        <ele>1617</ele>
        <time>2022-07-19T16:52:41Z</time>
      </trkpt>
      <trkpt lat="44.61091" lon="6.68778">
        <ele>1617</ele>
        <time>2022-07-19T16:52:42Z</time>
      </trkpt>
      <trkpt lat="44.61097" lon="6.68775">
        <ele>1617.4</ele>
        <time>2022-07-19T16:52:43Z</time>
      </trkpt>
      <trkpt lat="44.61102" lon="6.68773">
        <ele>1617.4</ele>
        <time>2022-07-19T16:52:44Z</time>
      </trkpt>
      <trkpt lat="44.61108" lon="6.68769">
        <ele>1617.4</ele>
        <time>2022-07-19T16:52:45Z</time>
      </trkpt>
      <trkpt lat="44.61114" lon="6.68766">
        <ele>1617.4</ele>
        <time>2022-07-19T16:52:46Z</time>
      </trkpt>
      <trkpt lat="44.61121" lon="6.68763">
        <ele>1617.2</ele>
        <time>2022-07-19T16:52:47Z</time>
      </trkpt>
      <trkpt lat="44.61127" lon="6.6876">
        <ele>1617.2</ele>
        <time>2022-07-19T16:52:48Z</time>
      </trkpt>
      <trkpt lat="44.61134" lon="6.68758">
        <ele>1617</ele>
        <time>2022-07-19T16:52:49Z</time>
      </trkpt>
      <trkpt lat="44.61141" lon="6.68754">
        <ele>1617</ele>
        <time>2022-07-19T16:52:50Z</time>
      </trkpt>
      <trkpt lat="44.61148" lon="6.68751">
        <ele>1617</ele>
        <time>2022-07-19T16:52:51Z</time>
      </trkpt>
      <trkpt lat="44.61156" lon="6.68748">
        <ele>1616.6</ele>
        <time>2022-07-19T16:52:52Z</time>
      </trkpt>
      <trkpt lat="44.61163" lon="6.68745">
        <ele>1616.6</ele>
        <time>2022-07-19T16:52:53Z</time>
      </trkpt>
      <trkpt lat="44.6117" lon="6.68742">
        <ele>1616.4</ele>
        <time>2022-07-19T16:52:54Z</time>
      </trkpt>
      <trkpt lat="44.61178" lon="6.68738">
        <ele>1616.2</ele>
        <time>2022-07-19T16:52:55Z</time>
      </trkpt>
      <trkpt lat="44.61185" lon="6.68735">
        <ele>1616.2</ele>
        <time>2022-07-19T16:52:56Z</time>
      </trkpt>
      <trkpt lat="44.61192" lon="6.68731">
        <ele>1615.8</ele>
        <time>2022-07-19T16:52:57Z</time>
      </trkpt>
      <trkpt lat="44.61199" lon="6.68728">
        <ele>1615.8</ele>
        <time>2022-07-19T16:52:58Z</time>
      </trkpt>
      <trkpt lat="44.61206" lon="6.68724">
        <ele>1615.8</ele>
        <time>2022-07-19T16:52:59Z</time>
      </trkpt>
      <trkpt lat="44.61214" lon="6.68721">
        <ele>1615.6</ele>
        <time>2022-07-19T16:53:00Z</time>
      </trkpt>
      <trkpt lat="44.61221" lon="6.68718">
        <ele>1615.6</ele>
        <time>2022-07-19T16:53:01Z</time>
      </trkpt>
      <trkpt lat="44.61228" lon="6.68715">
        <ele>1615.6</ele>
        <time>2022-07-19T16:53:02Z</time>
      </trkpt>
      <trkpt lat="44.61236" lon="6.68712">
        <ele>1615.2</ele>
        <time>2022-07-19T16:53:03Z</time>
      </trkpt>
      <trkpt lat="44.61243" lon="6.6871">
        <ele>1615.2</ele>
        <time>2022-07-19T16:53:04Z</time>
      </trkpt>
      <trkpt lat="44.61251" lon="6.68708">
        <ele>1615.2</ele>
        <time>2022-07-19T16:53:05Z</time>
      </trkpt>
      <trkpt lat="44.61258" lon="6.68706">
        <ele>1615.2</ele>
        <time>2022-07-19T16:53:06Z</time>
      </trkpt>
      <trkpt lat="44.61266" lon="6.68705">
        <ele>1615.2</ele>
        <time>2022-07-19T16:53:07Z</time>
      </trkpt>
      <trkpt lat="44.61273" lon="6.68704">
        <ele>1615.2</ele>
        <time>2022-07-19T16:53:08Z</time>
      </trkpt>
      <trkpt lat="44.6128" lon="6.68703">
        <ele>1615.2</ele>
        <time>2022-07-19T16:53:09Z</time>
      </trkpt>
      <trkpt lat="44.61287" lon="6.68702">
        <ele>1615.2</ele>
        <time>2022-07-19T16:53:10Z</time>
      </trkpt>
      <trkpt lat="44.61294" lon="6.68701">
        <ele>1615.2</ele>
        <time>2022-07-19T16:53:11Z</time>
      </trkpt>
      <trkpt lat="44.61301" lon="6.687">
        <ele>1615.4</ele>
        <time>2022-07-19T16:53:12Z</time>
      </trkpt>
      <trkpt lat="44.61308" lon="6.687">
        <ele>1615.4</ele>
        <time>2022-07-19T16:53:13Z</time>
      </trkpt>
      <trkpt lat="44.61314" lon="6.68698">
        <ele>1615.4</ele>
        <time>2022-07-19T16:53:14Z</time>
      </trkpt>
      <trkpt lat="44.6132" lon="6.68696">
        <ele>1615.8</ele>
        <time>2022-07-19T16:53:15Z</time>
      </trkpt>
      <trkpt lat="44.61326" lon="6.68693">
        <ele>1615.8</ele>
        <time>2022-07-19T16:53:16Z</time>
      </trkpt>
      <trkpt lat="44.61331" lon="6.68689">
        <ele>1616.2</ele>
        <time>2022-07-19T16:53:17Z</time>
      </trkpt>
      <trkpt lat="44.61336" lon="6.68684">
        <ele>1616.2</ele>
        <time>2022-07-19T16:53:18Z</time>
      </trkpt>
      <trkpt lat="44.6134" lon="6.6868">
        <ele>1616.4</ele>
        <time>2022-07-19T16:53:19Z</time>
      </trkpt>
      <trkpt lat="44.61345" lon="6.68675">
        <ele>1616.4</ele>
        <time>2022-07-19T16:53:20Z</time>
      </trkpt>
      <trkpt lat="44.61349" lon="6.6867">
        <ele>1616.8</ele>
        <time>2022-07-19T16:53:21Z</time>
      </trkpt>
      <trkpt lat="44.61353" lon="6.68665">
        <ele>1616.8</ele>
        <time>2022-07-19T16:53:22Z</time>
      </trkpt>
      <trkpt lat="44.61357" lon="6.68659">
        <ele>1616.8</ele>
        <time>2022-07-19T16:53:23Z</time>
      </trkpt>
      <trkpt lat="44.61361" lon="6.68653">
        <ele>1617</ele>
        <time>2022-07-19T16:53:24Z</time>
      </trkpt>
      <trkpt lat="44.61364" lon="6.68648">
        <ele>1617</ele>
        <time>2022-07-19T16:53:25Z</time>
      </trkpt>
      <trkpt lat="44.61367" lon="6.68642">
        <ele>1617.2</ele>
        <time>2022-07-19T16:53:26Z</time>
      </trkpt>
      <trkpt lat="44.6137" lon="6.68636">
        <ele>1617.2</ele>
        <time>2022-07-19T16:53:27Z</time>
      </trkpt>
      <trkpt lat="44.61373" lon="6.68631">
        <ele>1617.6</ele>
        <time>2022-07-19T16:53:28Z</time>
      </trkpt>
      <trkpt lat="44.61376" lon="6.68626">
        <ele>1617.6</ele>
        <time>2022-07-19T16:53:29Z</time>
      </trkpt>
      <trkpt lat="44.6138" lon="6.68621">
        <ele>1618</ele>
        <time>2022-07-19T16:53:30Z</time>
      </trkpt>
      <trkpt lat="44.61383" lon="6.68617">
        <ele>1618.2</ele>
        <time>2022-07-19T16:53:31Z</time>
      </trkpt>
      <trkpt lat="44.61387" lon="6.68612">
        <ele>1618.4</ele>
        <time>2022-07-19T16:53:32Z</time>
      </trkpt>
      <trkpt lat="44.6139" lon="6.68609">
        <ele>1618.6</ele>
        <time>2022-07-19T16:53:33Z</time>
      </trkpt>
      <trkpt lat="44.61394" lon="6.68606">
        <ele>1619</ele>
        <time>2022-07-19T16:53:34Z</time>
      </trkpt>
      <trkpt lat="44.61397" lon="6.68603">
        <ele>1619.6</ele>
        <time>2022-07-19T16:53:35Z</time>
      </trkpt>
      <trkpt lat="44.61401" lon="6.686">
        <ele>1620</ele>
        <time>2022-07-19T16:53:36Z</time>
      </trkpt>
      <trkpt lat="44.61404" lon="6.68598">
        <ele>1620</ele>
        <time>2022-07-19T16:53:37Z</time>
      </trkpt>
      <trkpt lat="44.61408" lon="6.68596">
        <ele>1620.4</ele>
        <time>2022-07-19T16:53:38Z</time>
      </trkpt>
      <trkpt lat="44.61412" lon="6.68594">
        <ele>1620.6</ele>
        <time>2022-07-19T16:53:39Z</time>
      </trkpt>
      <trkpt lat="44.61415" lon="6.68593">
        <ele>1620.8</ele>
        <time>2022-07-19T16:53:40Z</time>
      </trkpt>
      <trkpt lat="44.61418" lon="6.68591">
        <ele>1621</ele>
        <time>2022-07-19T16:53:41Z</time>
      </trkpt>
      <trkpt lat="44.61422" lon="6.6859">
        <ele>1621.2</ele>
        <time>2022-07-19T16:53:42Z</time>
      </trkpt>
      <trkpt lat="44.61426" lon="6.6859">
        <ele>1621.4</ele>
        <time>2022-07-19T16:53:43Z</time>
      </trkpt>
      <trkpt lat="44.6143" lon="6.68589">
        <ele>1621.4</ele>
        <time>2022-07-19T16:53:44Z</time>
      </trkpt>
      <trkpt lat="44.61433" lon="6.68588">
        <ele>1622</ele>
        <time>2022-07-19T16:53:45Z</time>
      </trkpt>
      <trkpt lat="44.61437" lon="6.68586">
        <ele>1622.2</ele>
        <time>2022-07-19T16:53:46Z</time>
      </trkpt>
      <trkpt lat="44.6144" lon="6.68585">
        <ele>1622.6</ele>
        <time>2022-07-19T16:53:47Z</time>
      </trkpt>
      <trkpt lat="44.61444" lon="6.68584">
        <ele>1622.8</ele>
        <time>2022-07-19T16:53:48Z</time>
      </trkpt>
      <trkpt lat="44.61446" lon="6.68583">
        <ele>1622.8</ele>
        <time>2022-07-19T16:53:49Z</time>
      </trkpt>
      <trkpt lat="44.61449" lon="6.68582">
        <ele>1623.2</ele>
        <time>2022-07-19T16:53:50Z</time>
      </trkpt>
      <trkpt lat="44.61452" lon="6.68581">
        <ele>1623.4</ele>
        <time>2022-07-19T16:53:51Z</time>
      </trkpt>
      <trkpt lat="44.61454" lon="6.6858">
        <ele>1623.4</ele>
        <time>2022-07-19T16:53:52Z</time>
      </trkpt>
      <trkpt lat="44.61457" lon="6.68579">
        <ele>1623.8</ele>
        <time>2022-07-19T16:53:53Z</time>
      </trkpt>
      <trkpt lat="44.61459" lon="6.68578">
        <ele>1623.8</ele>
        <time>2022-07-19T16:53:54Z</time>
      </trkpt>
      <trkpt lat="44.61462" lon="6.68577">
        <ele>1624.2</ele>
        <time>2022-07-19T16:53:55Z</time>
      </trkpt>
      <trkpt lat="44.61464" lon="6.68577">
        <ele>1624.4</ele>
        <time>2022-07-19T16:53:56Z</time>
      </trkpt>
      <trkpt lat="44.61467" lon="6.68576">
        <ele>1624.4</ele>
        <time>2022-07-19T16:53:57Z</time>
      </trkpt>
      <trkpt lat="44.6147" lon="6.68576">
        <ele>1624.8</ele>
        <time>2022-07-19T16:53:58Z</time>
      </trkpt>
      <trkpt lat="44.61472" lon="6.68576">
        <ele>1624.8</ele>
        <time>2022-07-19T16:53:59Z</time>
      </trkpt>
      <trkpt lat="44.61475" lon="6.68575">
        <ele>1624.8</ele>
        <time>2022-07-19T16:54:00Z</time>
      </trkpt>
      <trkpt lat="44.61478" lon="6.68575">
        <ele>1625.4</ele>
        <time>2022-07-19T16:54:01Z</time>
      </trkpt>
      <trkpt lat="44.6148" lon="6.68574">
        <ele>1625.6</ele>
        <time>2022-07-19T16:54:02Z</time>
      </trkpt>
      <trkpt lat="44.61482" lon="6.68573">
        <ele>1626</ele>
        <time>2022-07-19T16:54:03Z</time>
      </trkpt>
      <trkpt lat="44.61485" lon="6.68573">
        <ele>1626</ele>
        <time>2022-07-19T16:54:04Z</time>
      </trkpt>
      <trkpt lat="44.61487" lon="6.68572">
        <ele>1626.4</ele>
        <time>2022-07-19T16:54:05Z</time>
      </trkpt>
      <trkpt lat="44.6149" lon="6.68572">
        <ele>1626.4</ele>
        <time>2022-07-19T16:54:06Z</time>
      </trkpt>
      <trkpt lat="44.61492" lon="6.68573">
        <ele>1626.8</ele>
        <time>2022-07-19T16:54:07Z</time>
      </trkpt>
      <trkpt lat="44.61495" lon="6.68572">
        <ele>1627</ele>
        <time>2022-07-19T16:54:08Z</time>
      </trkpt>
      <trkpt lat="44.61497" lon="6.68573">
        <ele>1627.2</ele>
        <time>2022-07-19T16:54:09Z</time>
      </trkpt>
      <trkpt lat="44.615" lon="6.68573">
        <ele>1627.2</ele>
        <time>2022-07-19T16:54:10Z</time>
      </trkpt>
      <trkpt lat="44.61502" lon="6.68573">
        <ele>1627.6</ele>
        <time>2022-07-19T16:54:11Z</time>
      </trkpt>
      <trkpt lat="44.61505" lon="6.68573">
        <ele>1627.6</ele>
        <time>2022-07-19T16:54:12Z</time>
      </trkpt>
      <trkpt lat="44.61507" lon="6.68574">
        <ele>1628</ele>
        <time>2022-07-19T16:54:13Z</time>
      </trkpt>
      <trkpt lat="44.6151" lon="6.68574">
        <ele>1628.2</ele>
        <time>2022-07-19T16:54:14Z</time>
      </trkpt>
      <trkpt lat="44.61512" lon="6.68575">
        <ele>1628.6</ele>
        <time>2022-07-19T16:54:15Z</time>
      </trkpt>
      <trkpt lat="44.61515" lon="6.68576">
        <ele>1628.8</ele>
        <time>2022-07-19T16:54:16Z</time>
      </trkpt>
      <trkpt lat="44.61517" lon="6.68576">
        <ele>1629</ele>
        <time>2022-07-19T16:54:17Z</time>
      </trkpt>
      <trkpt lat="44.6152" lon="6.68576">
        <ele>1629</ele>
        <time>2022-07-19T16:54:18Z</time>
      </trkpt>
      <trkpt lat="44.61522" lon="6.68577">
        <ele>1629.4</ele>
        <time>2022-07-19T16:54:19Z</time>
      </trkpt>
      <trkpt lat="44.61525" lon="6.68578">
        <ele>1629.8</ele>
        <time>2022-07-19T16:54:20Z</time>
      </trkpt>
      <trkpt lat="44.61527" lon="6.68579">
        <ele>1629.8</ele>
        <time>2022-07-19T16:54:21Z</time>
      </trkpt>
      <trkpt lat="44.61529" lon="6.6858">
        <ele>1630</ele>
        <time>2022-07-19T16:54:22Z</time>
      </trkpt>
      <trkpt lat="44.61531" lon="6.68581">
        <ele>1630</ele>
        <time>2022-07-19T16:54:23Z</time>
      </trkpt>
      <trkpt lat="44.61534" lon="6.68581">
        <ele>1630.4</ele>
        <time>2022-07-19T16:54:24Z</time>
      </trkpt>
      <trkpt lat="44.61536" lon="6.68581">
        <ele>1630.4</ele>
        <time>2022-07-19T16:54:25Z</time>
      </trkpt>
      <trkpt lat="44.61538" lon="6.68581">
        <ele>1630.6</ele>
        <time>2022-07-19T16:54:26Z</time>
      </trkpt>
      <trkpt lat="44.6154" lon="6.68581">
        <ele>1630.6</ele>
        <time>2022-07-19T16:54:27Z</time>
      </trkpt>
      <trkpt lat="44.61542" lon="6.68581">
        <ele>1630.8</ele>
        <time>2022-07-19T16:54:28Z</time>
      </trkpt>
      <trkpt lat="44.61544" lon="6.68581">
        <ele>1631</ele>
        <time>2022-07-19T16:54:29Z</time>
      </trkpt>
      <trkpt lat="44.61547" lon="6.68582">
        <ele>1631</ele>
        <time>2022-07-19T16:54:30Z</time>
      </trkpt>
      <trkpt lat="44.61549" lon="6.68582">
        <ele>1631.4</ele>
        <time>2022-07-19T16:54:31Z</time>
      </trkpt>
      <trkpt lat="44.61551" lon="6.68582">
        <ele>1631.4</ele>
        <time>2022-07-19T16:54:32Z</time>
      </trkpt>
      <trkpt lat="44.61554" lon="6.68582">
        <ele>1631.6</ele>
        <time>2022-07-19T16:54:33Z</time>
      </trkpt>
      <trkpt lat="44.61556" lon="6.68582">
        <ele>1631.6</ele>
        <time>2022-07-19T16:54:34Z</time>
      </trkpt>
      <trkpt lat="44.61558" lon="6.68581">
        <ele>1631.8</ele>
        <time>2022-07-19T16:54:35Z</time>
      </trkpt>
      <trkpt lat="44.61561" lon="6.68581">
        <ele>1631.8</ele>
        <time>2022-07-19T16:54:36Z</time>
      </trkpt>
      <trkpt lat="44.61564" lon="6.6858">
        <ele>1632</ele>
        <time>2022-07-19T16:54:37Z</time>
      </trkpt>
      <trkpt lat="44.61566" lon="6.6858">
        <ele>1632</ele>
        <time>2022-07-19T16:54:38Z</time>
      </trkpt>
      <trkpt lat="44.61569" lon="6.6858">
        <ele>1632.2</ele>
        <time>2022-07-19T16:54:39Z</time>
      </trkpt>
      <trkpt lat="44.61571" lon="6.68579">
        <ele>1632.2</ele>
        <time>2022-07-19T16:54:40Z</time>
      </trkpt>
      <trkpt lat="44.61574" lon="6.68578">
        <ele>1632.2</ele>
        <time>2022-07-19T16:54:41Z</time>
      </trkpt>
      <trkpt lat="44.61577" lon="6.68578">
        <ele>1632.2</ele>
        <time>2022-07-19T16:54:42Z</time>
      </trkpt>
      <trkpt lat="44.6158" lon="6.68577">
        <ele>1632.6</ele>
        <time>2022-07-19T16:54:43Z</time>
      </trkpt>
      <trkpt lat="44.61583" lon="6.68576">
        <ele>1632.6</ele>
        <time>2022-07-19T16:54:44Z</time>
      </trkpt>
      <trkpt lat="44.61586" lon="6.68575">
        <ele>1632.6</ele>
        <time>2022-07-19T16:54:45Z</time>
      </trkpt>
      <trkpt lat="44.61589" lon="6.68575">
        <ele>1632.8</ele>
        <time>2022-07-19T16:54:46Z</time>
      </trkpt>
      <trkpt lat="44.61592" lon="6.68574">
        <ele>1632.8</ele>
        <time>2022-07-19T16:54:47Z</time>
      </trkpt>
      <trkpt lat="44.61595" lon="6.68573">
        <ele>1632.8</ele>
        <time>2022-07-19T16:54:48Z</time>
      </trkpt>
      <trkpt lat="44.61598" lon="6.68572">
        <ele>1633</ele>
        <time>2022-07-19T16:54:49Z</time>
      </trkpt>
      <trkpt lat="44.61601" lon="6.68571">
        <ele>1633</ele>
        <time>2022-07-19T16:54:50Z</time>
      </trkpt>
      <trkpt lat="44.61604" lon="6.6857">
        <ele>1633</ele>
        <time>2022-07-19T16:54:51Z</time>
      </trkpt>
      <trkpt lat="44.61607" lon="6.68568">
        <ele>1633.4</ele>
        <time>2022-07-19T16:54:52Z</time>
      </trkpt>
      <trkpt lat="44.61609" lon="6.68567">
        <ele>1633.4</ele>
        <time>2022-07-19T16:54:53Z</time>
      </trkpt>
      <trkpt lat="44.61612" lon="6.68565">
        <ele>1633.4</ele>
        <time>2022-07-19T16:54:54Z</time>
      </trkpt>
      <trkpt lat="44.61614" lon="6.68562">
        <ele>1633.4</ele>
        <time>2022-07-19T16:54:55Z</time>
      </trkpt>
      <trkpt lat="44.61617" lon="6.6856">
        <ele>1633.6</ele>
        <time>2022-07-19T16:54:56Z</time>
      </trkpt>
      <trkpt lat="44.6162" lon="6.68558">
        <ele>1633.6</ele>
        <time>2022-07-19T16:54:57Z</time>
      </trkpt>
      <trkpt lat="44.61622" lon="6.68555">
        <ele>1633.6</ele>
        <time>2022-07-19T16:54:58Z</time>
      </trkpt>
      <trkpt lat="44.61625" lon="6.68552">
        <ele>1633.6</ele>
        <time>2022-07-19T16:54:59Z</time>
      </trkpt>
      <trkpt lat="44.61628" lon="6.68549">
        <ele>1633.6</ele>
        <time>2022-07-19T16:55:00Z</time>
      </trkpt>
      <trkpt lat="44.61631" lon="6.68545">
        <ele>1633.6</ele>
        <time>2022-07-19T16:55:01Z</time>
      </trkpt>
      <trkpt lat="44.61635" lon="6.68543">
        <ele>1633.6</ele>
        <time>2022-07-19T16:55:02Z</time>
      </trkpt>
      <trkpt lat="44.61638" lon="6.6854">
        <ele>1633.6</ele>
        <time>2022-07-19T16:55:03Z</time>
      </trkpt>
      <trkpt lat="44.61643" lon="6.68539">
        <ele>1633.6</ele>
        <time>2022-07-19T16:55:04Z</time>
      </trkpt>
      <trkpt lat="44.61647" lon="6.68538">
        <ele>1633.6</ele>
        <time>2022-07-19T16:55:05Z</time>
      </trkpt>
      <trkpt lat="44.61651" lon="6.68537">
        <ele>1633.6</ele>
        <time>2022-07-19T16:55:06Z</time>
      </trkpt>
      <trkpt lat="44.61656" lon="6.68536">
        <ele>1633.6</ele>
        <time>2022-07-19T16:55:07Z</time>
      </trkpt>
      <trkpt lat="44.61661" lon="6.68536">
        <ele>1633.8</ele>
        <time>2022-07-19T16:55:08Z</time>
      </trkpt>
      <trkpt lat="44.61666" lon="6.68535">
        <ele>1633.8</ele>
        <time>2022-07-19T16:55:09Z</time>
      </trkpt>
      <trkpt lat="44.6167" lon="6.68534">
        <ele>1633.8</ele>
        <time>2022-07-19T16:55:10Z</time>
      </trkpt>
      <trkpt lat="44.61674" lon="6.68532">
        <ele>1634</ele>
        <time>2022-07-19T16:55:11Z</time>
      </trkpt>
      <trkpt lat="44.61679" lon="6.68531">
        <ele>1634</ele>
        <time>2022-07-19T16:55:12Z</time>
      </trkpt>
      <trkpt lat="44.61683" lon="6.6853">
        <ele>1634</ele>
        <time>2022-07-19T16:55:13Z</time>
      </trkpt>
      <trkpt lat="44.61687" lon="6.68528">
        <ele>1634.4</ele>
        <time>2022-07-19T16:55:14Z</time>
      </trkpt>
      <trkpt lat="44.61691" lon="6.68526">
        <ele>1634.4</ele>
        <time>2022-07-19T16:55:15Z</time>
      </trkpt>
      <trkpt lat="44.61695" lon="6.68524">
        <ele>1634.4</ele>
        <time>2022-07-19T16:55:16Z</time>
      </trkpt>
      <trkpt lat="44.61699" lon="6.68521">
        <ele>1634.4</ele>
        <time>2022-07-19T16:55:17Z</time>
      </trkpt>
      <trkpt lat="44.61703" lon="6.68518">
        <ele>1634.4</ele>
        <time>2022-07-19T16:55:18Z</time>
      </trkpt>
      <trkpt lat="44.61706" lon="6.68515">
        <ele>1634.4</ele>
        <time>2022-07-19T16:55:19Z</time>
      </trkpt>
      <trkpt lat="44.6171" lon="6.68513">
        <ele>1634.6</ele>
        <time>2022-07-19T16:55:20Z</time>
      </trkpt>
      <trkpt lat="44.61714" lon="6.6851">
        <ele>1634.6</ele>
        <time>2022-07-19T16:55:21Z</time>
      </trkpt>
      <trkpt lat="44.61717" lon="6.68507">
        <ele>1634.6</ele>
        <time>2022-07-19T16:55:22Z</time>
      </trkpt>
      <trkpt lat="44.61721" lon="6.68504">
        <ele>1634.6</ele>
        <time>2022-07-19T16:55:23Z</time>
      </trkpt>
      <trkpt lat="44.61724" lon="6.68502">
        <ele>1635</ele>
        <time>2022-07-19T16:55:24Z</time>
      </trkpt>
      <trkpt lat="44.61728" lon="6.68499">
        <ele>1635</ele>
        <time>2022-07-19T16:55:25Z</time>
      </trkpt>
      <trkpt lat="44.61731" lon="6.68497">
        <ele>1635.2</ele>
        <time>2022-07-19T16:55:26Z</time>
      </trkpt>
      <trkpt lat="44.61735" lon="6.68494">
        <ele>1635.2</ele>
        <time>2022-07-19T16:55:27Z</time>
      </trkpt>
      <trkpt lat="44.61738" lon="6.68491">
        <ele>1635.6</ele>
        <time>2022-07-19T16:55:28Z</time>
      </trkpt>
      <trkpt lat="44.61741" lon="6.68488">
        <ele>1635.6</ele>
        <time>2022-07-19T16:55:29Z</time>
      </trkpt>
      <trkpt lat="44.61745" lon="6.68485">
        <ele>1635.8</ele>
        <time>2022-07-19T16:55:30Z</time>
      </trkpt>
      <trkpt lat="44.61748" lon="6.68483">
        <ele>1636</ele>
        <time>2022-07-19T16:55:31Z</time>
      </trkpt>
      <trkpt lat="44.61752" lon="6.6848">
        <ele>1636</ele>
        <time>2022-07-19T16:55:32Z</time>
      </trkpt>
      <trkpt lat="44.61755" lon="6.68477">
        <ele>1636.2</ele>
        <time>2022-07-19T16:55:33Z</time>
      </trkpt>
      <trkpt lat="44.61758" lon="6.68474">
        <ele>1636.2</ele>
        <time>2022-07-19T16:55:34Z</time>
      </trkpt>
      <trkpt lat="44.61761" lon="6.68471">
        <ele>1636.4</ele>
        <time>2022-07-19T16:55:35Z</time>
      </trkpt>
      <trkpt lat="44.61764" lon="6.68468">
        <ele>1636.4</ele>
        <time>2022-07-19T16:55:36Z</time>
      </trkpt>
      <trkpt lat="44.61767" lon="6.68464">
        <ele>1636.4</ele>
        <time>2022-07-19T16:55:37Z</time>
      </trkpt>
      <trkpt lat="44.61771" lon="6.68461">
        <ele>1636.6</ele>
        <time>2022-07-19T16:55:38Z</time>
      </trkpt>
      <trkpt lat="44.61774" lon="6.68457">
        <ele>1636.6</ele>
        <time>2022-07-19T16:55:39Z</time>
      </trkpt>
      <trkpt lat="44.61778" lon="6.68453">
        <ele>1636.6</ele>
        <time>2022-07-19T16:55:40Z</time>
      </trkpt>
      <trkpt lat="44.61782" lon="6.6845">
        <ele>1636.6</ele>
        <time>2022-07-19T16:55:41Z</time>
      </trkpt>
      <trkpt lat="44.61786" lon="6.68445">
        <ele>1636.6</ele>
        <time>2022-07-19T16:55:42Z</time>
      </trkpt>
      <trkpt lat="44.6179" lon="6.68441">
        <ele>1636.6</ele>
        <time>2022-07-19T16:55:43Z</time>
      </trkpt>
      <trkpt lat="44.61794" lon="6.68436">
        <ele>1636.6</ele>
        <time>2022-07-19T16:55:44Z</time>
      </trkpt>
      <trkpt lat="44.61799" lon="6.68431">
        <ele>1636.6</ele>
        <time>2022-07-19T16:55:45Z</time>
      </trkpt>
      <trkpt lat="44.61804" lon="6.68427">
        <ele>1636.6</ele>
        <time>2022-07-19T16:55:47Z</time>
      </trkpt>
      <trkpt lat="44.61809" lon="6.68423">
        <ele>1636.4</ele>
        <time>2022-07-19T16:55:48Z</time>
      </trkpt>
      <trkpt lat="44.61814" lon="6.68419">
        <ele>1636.4</ele>
        <time>2022-07-19T16:55:49Z</time>
      </trkpt>
      <trkpt lat="44.61819" lon="6.68415">
        <ele>1636.4</ele>
        <time>2022-07-19T16:55:50Z</time>
      </trkpt>
      <trkpt lat="44.61824" lon="6.68412">
        <ele>1636.2</ele>
        <time>2022-07-19T16:55:51Z</time>
      </trkpt>
      <trkpt lat="44.6183" lon="6.68408">
        <ele>1636.2</ele>
        <time>2022-07-19T16:55:52Z</time>
      </trkpt>
      <trkpt lat="44.61836" lon="6.68405">
        <ele>1635.8</ele>
        <time>2022-07-19T16:55:53Z</time>
      </trkpt>
      <trkpt lat="44.61843" lon="6.68402">
        <ele>1635.8</ele>
        <time>2022-07-19T16:55:54Z</time>
      </trkpt>
      <trkpt lat="44.61849" lon="6.684">
        <ele>1635.6</ele>
        <time>2022-07-19T16:55:55Z</time>
      </trkpt>
      <trkpt lat="44.61856" lon="6.68397">
        <ele>1635.6</ele>
        <time>2022-07-19T16:55:56Z</time>
      </trkpt>
      <trkpt lat="44.61863" lon="6.68395">
        <ele>1635.4</ele>
        <time>2022-07-19T16:55:57Z</time>
      </trkpt>
      <trkpt lat="44.61869" lon="6.68393">
        <ele>1635.4</ele>
        <time>2022-07-19T16:55:58Z</time>
      </trkpt>
      <trkpt lat="44.61876" lon="6.68393">
        <ele>1635</ele>
        <time>2022-07-19T16:55:59Z</time>
      </trkpt>
      <trkpt lat="44.61884" lon="6.68394">
        <ele>1634.8</ele>
        <time>2022-07-19T16:56:00Z</time>
      </trkpt>
      <trkpt lat="44.61891" lon="6.68394">
        <ele>1634.6</ele>
        <time>2022-07-19T16:56:01Z</time>
      </trkpt>
      <trkpt lat="44.61899" lon="6.68394">
        <ele>1634.6</ele>
        <time>2022-07-19T16:56:02Z</time>
      </trkpt>
      <trkpt lat="44.61908" lon="6.68393">
        <ele>1634.2</ele>
        <time>2022-07-19T16:56:03Z</time>
      </trkpt>
      <trkpt lat="44.61916" lon="6.68391">
        <ele>1634</ele>
        <time>2022-07-19T16:56:04Z</time>
      </trkpt>
      <trkpt lat="44.61925" lon="6.68387">
        <ele>1633.8</ele>
        <time>2022-07-19T16:56:05Z</time>
      </trkpt>
      <trkpt lat="44.61933" lon="6.68383">
        <ele>1633.8</ele>
        <time>2022-07-19T16:56:06Z</time>
      </trkpt>
      <trkpt lat="44.6194" lon="6.68378">
        <ele>1633.4</ele>
        <time>2022-07-19T16:56:07Z</time>
      </trkpt>
      <trkpt lat="44.61948" lon="6.68373">
        <ele>1633.2</ele>
        <time>2022-07-19T16:56:08Z</time>
      </trkpt>
      <trkpt lat="44.61956" lon="6.68368">
        <ele>1632.8</ele>
        <time>2022-07-19T16:56:09Z</time>
      </trkpt>
      <trkpt lat="44.61964" lon="6.68365">
        <ele>1632.2</ele>
        <time>2022-07-19T16:56:10Z</time>
      </trkpt>
      <trkpt lat="44.61973" lon="6.68364">
        <ele>1631.8</ele>
        <time>2022-07-19T16:56:11Z</time>
      </trkpt>
      <trkpt lat="44.61983" lon="6.68366">
        <ele>1631.4</ele>
        <time>2022-07-19T16:56:12Z</time>
      </trkpt>
      <trkpt lat="44.61993" lon="6.68369">
        <ele>1630.8</ele>
        <time>2022-07-19T16:56:13Z</time>
      </trkpt>
      <trkpt lat="44.62003" lon="6.68376">
        <ele>1630.2</ele>
        <time>2022-07-19T16:56:14Z</time>
      </trkpt>
      <trkpt lat="44.62014" lon="6.68382">
        <ele>1629.6</ele>
        <time>2022-07-19T16:56:15Z</time>
      </trkpt>
      <trkpt lat="44.62025" lon="6.68388">
        <ele>1629.2</ele>
        <time>2022-07-19T16:56:16Z</time>
      </trkpt>
      <trkpt lat="44.62035" lon="6.68394">
        <ele>1628.4</ele>
        <time>2022-07-19T16:56:17Z</time>
      </trkpt>
      <trkpt lat="44.62046" lon="6.684">
        <ele>1627.8</ele>
        <time>2022-07-19T16:56:18Z</time>
      </trkpt>
      <trkpt lat="44.62057" lon="6.68405">
        <ele>1627.2</ele>
        <time>2022-07-19T16:56:19Z</time>
      </trkpt>
      <trkpt lat="44.62068" lon="6.68409">
        <ele>1626.4</ele>
        <time>2022-07-19T16:56:20Z</time>
      </trkpt>
      <trkpt lat="44.62079" lon="6.68411">
        <ele>1625.8</ele>
        <time>2022-07-19T16:56:21Z</time>
      </trkpt>
      <trkpt lat="44.62089" lon="6.68411">
        <ele>1625</ele>
        <time>2022-07-19T16:56:22Z</time>
      </trkpt>
      <trkpt lat="44.621" lon="6.68408">
        <ele>1624.4</ele>
        <time>2022-07-19T16:56:23Z</time>
      </trkpt>
      <trkpt lat="44.62111" lon="6.68402">
        <ele>1623.6</ele>
        <time>2022-07-19T16:56:24Z</time>
      </trkpt>
      <trkpt lat="44.62121" lon="6.68394">
        <ele>1623</ele>
        <time>2022-07-19T16:56:25Z</time>
      </trkpt>
      <trkpt lat="44.6213" lon="6.68382">
        <ele>1622.2</ele>
        <time>2022-07-19T16:56:26Z</time>
      </trkpt>
      <trkpt lat="44.62136" lon="6.68368">
        <ele>1621.4</ele>
        <time>2022-07-19T16:56:27Z</time>
      </trkpt>
      <trkpt lat="44.62142" lon="6.68353">
        <ele>1620.6</ele>
        <time>2022-07-19T16:56:28Z</time>
      </trkpt>
      <trkpt lat="44.62149" lon="6.68339">
        <ele>1619.6</ele>
        <time>2022-07-19T16:56:29Z</time>
      </trkpt>
      <trkpt lat="44.62157" lon="6.68326">
        <ele>1618.8</ele>
        <time>2022-07-19T16:56:30Z</time>
      </trkpt>
      <trkpt lat="44.62166" lon="6.68315">
        <ele>1618</ele>
        <time>2022-07-19T16:56:31Z</time>
      </trkpt>
      <trkpt lat="44.62175" lon="6.68305">
        <ele>1617</ele>
        <time>2022-07-19T16:56:32Z</time>
      </trkpt>
      <trkpt lat="44.62185" lon="6.68299">
        <ele>1616</ele>
        <time>2022-07-19T16:56:33Z</time>
      </trkpt>
      <trkpt lat="44.62195" lon="6.68295">
        <ele>1615.2</ele>
        <time>2022-07-19T16:56:34Z</time>
      </trkpt>
      <trkpt lat="44.62205" lon="6.68295">
        <ele>1614.2</ele>
        <time>2022-07-19T16:56:35Z</time>
      </trkpt>
      <trkpt lat="44.62217" lon="6.68297">
        <ele>1613.2</ele>
        <time>2022-07-19T16:56:36Z</time>
      </trkpt>
      <trkpt lat="44.62229" lon="6.683">
        <ele>1612.4</ele>
        <time>2022-07-19T16:56:37Z</time>
      </trkpt>
      <trkpt lat="44.62241" lon="6.68302">
        <ele>1611.4</ele>
        <time>2022-07-19T16:56:38Z</time>
      </trkpt>
      <trkpt lat="44.62253" lon="6.68305">
        <ele>1610.8</ele>
        <time>2022-07-19T16:56:39Z</time>
      </trkpt>
      <trkpt lat="44.62265" lon="6.68306">
        <ele>1610.2</ele>
        <time>2022-07-19T16:56:40Z</time>
      </trkpt>
      <trkpt lat="44.62278" lon="6.68307">
        <ele>1609.6</ele>
        <time>2022-07-19T16:56:41Z</time>
      </trkpt>
      <trkpt lat="44.62291" lon="6.68309">
        <ele>1609.2</ele>
        <time>2022-07-19T16:56:42Z</time>
      </trkpt>
      <trkpt lat="44.62302" lon="6.6831">
        <ele>1608.8</ele>
        <time>2022-07-19T16:56:43Z</time>
      </trkpt>
      <trkpt lat="44.62313" lon="6.68311">
        <ele>1608.6</ele>
        <time>2022-07-19T16:56:44Z</time>
      </trkpt>
      <trkpt lat="44.62323" lon="6.68313">
        <ele>1608.6</ele>
        <time>2022-07-19T16:56:45Z</time>
      </trkpt>
      <trkpt lat="44.62334" lon="6.68314">
        <ele>1608.2</ele>
        <time>2022-07-19T16:56:46Z</time>
      </trkpt>
      <trkpt lat="44.62345" lon="6.68316">
        <ele>1607.8</ele>
        <time>2022-07-19T16:56:47Z</time>
      </trkpt>
      <trkpt lat="44.62355" lon="6.68316">
        <ele>1607.6</ele>
        <time>2022-07-19T16:56:48Z</time>
      </trkpt>
      <trkpt lat="44.62366" lon="6.68318">
        <ele>1607.4</ele>
        <time>2022-07-19T16:56:49Z</time>
      </trkpt>
      <trkpt lat="44.62376" lon="6.6832">
        <ele>1607</ele>
        <time>2022-07-19T16:56:50Z</time>
      </trkpt>
      <trkpt lat="44.62386" lon="6.68322">
        <ele>1606.8</ele>
        <time>2022-07-19T16:56:51Z</time>
      </trkpt>
      <trkpt lat="44.62396" lon="6.68324">
        <ele>1606.6</ele>
        <time>2022-07-19T16:56:52Z</time>
      </trkpt>
      <trkpt lat="44.62406" lon="6.68328">
        <ele>1606.6</ele>
        <time>2022-07-19T16:56:53Z</time>
      </trkpt>
      <trkpt lat="44.62415" lon="6.68333">
        <ele>1606.2</ele>
        <time>2022-07-19T16:56:54Z</time>
      </trkpt>
      <trkpt lat="44.62425" lon="6.68337">
        <ele>1606.2</ele>
        <time>2022-07-19T16:56:55Z</time>
      </trkpt>
      <trkpt lat="44.62433" lon="6.68339">
        <ele>1606</ele>
        <time>2022-07-19T16:56:56Z</time>
      </trkpt>
      <trkpt lat="44.62443" lon="6.68341">
        <ele>1605.8</ele>
        <time>2022-07-19T16:56:57Z</time>
      </trkpt>
      <trkpt lat="44.62452" lon="6.68339">
        <ele>1605.8</ele>
        <time>2022-07-19T16:56:58Z</time>
      </trkpt>
      <trkpt lat="44.62461" lon="6.68335">
        <ele>1605.8</ele>
        <time>2022-07-19T16:56:59Z</time>
      </trkpt>
      <trkpt lat="44.6247" lon="6.68329">
        <ele>1605.8</ele>
        <time>2022-07-19T16:57:00Z</time>
      </trkpt>
      <trkpt lat="44.62478" lon="6.68322">
        <ele>1605.8</ele>
        <time>2022-07-19T16:57:01Z</time>
      </trkpt>
      <trkpt lat="44.62485" lon="6.68314">
        <ele>1605.8</ele>
        <time>2022-07-19T16:57:02Z</time>
      </trkpt>
      <trkpt lat="44.62491" lon="6.68306">
        <ele>1605.8</ele>
        <time>2022-07-19T16:57:03Z</time>
      </trkpt>
      <trkpt lat="44.62497" lon="6.68297">
        <ele>1605.8</ele>
        <time>2022-07-19T16:57:04Z</time>
      </trkpt>
      <trkpt lat="44.62503" lon="6.68288">
        <ele>1605.8</ele>
        <time>2022-07-19T16:57:05Z</time>
      </trkpt>
      <trkpt lat="44.62508" lon="6.68278">
        <ele>1605.8</ele>
        <time>2022-07-19T16:57:06Z</time>
      </trkpt>
      <trkpt lat="44.62513" lon="6.68269">
        <ele>1605.8</ele>
        <time>2022-07-19T16:57:07Z</time>
      </trkpt>
      <trkpt lat="44.62518" lon="6.6826">
        <ele>1605.8</ele>
        <time>2022-07-19T16:57:08Z</time>
      </trkpt>
      <trkpt lat="44.62523" lon="6.68251">
        <ele>1605.8</ele>
        <time>2022-07-19T16:57:09Z</time>
      </trkpt>
      <trkpt lat="44.62528" lon="6.68241">
        <ele>1606</ele>
        <time>2022-07-19T16:57:10Z</time>
      </trkpt>
      <trkpt lat="44.62532" lon="6.68232">
        <ele>1606</ele>
        <time>2022-07-19T16:57:11Z</time>
      </trkpt>
      <trkpt lat="44.62537" lon="6.68223">
        <ele>1606</ele>
        <time>2022-07-19T16:57:12Z</time>
      </trkpt>
      <trkpt lat="44.62541" lon="6.68215">
        <ele>1606</ele>
        <time>2022-07-19T16:57:13Z</time>
      </trkpt>
      <trkpt lat="44.62546" lon="6.68207">
        <ele>1606</ele>
        <time>2022-07-19T16:57:14Z</time>
      </trkpt>
      <trkpt lat="44.62551" lon="6.68199">
        <ele>1606</ele>
        <time>2022-07-19T16:57:15Z</time>
      </trkpt>
      <trkpt lat="44.62556" lon="6.68192">
        <ele>1606</ele>
        <time>2022-07-19T16:57:16Z</time>
      </trkpt>
      <trkpt lat="44.62561" lon="6.68184">
        <ele>1606</ele>
        <time>2022-07-19T16:57:17Z</time>
      </trkpt>
      <trkpt lat="44.62565" lon="6.68176">
        <ele>1606</ele>
        <time>2022-07-19T16:57:18Z</time>
      </trkpt>
      <trkpt lat="44.62569" lon="6.68167">
        <ele>1606</ele>
        <time>2022-07-19T16:57:19Z</time>
      </trkpt>
      <trkpt lat="44.62571" lon="6.68158">
        <ele>1605.8</ele>
        <time>2022-07-19T16:57:20Z</time>
      </trkpt>
      <trkpt lat="44.62572" lon="6.68148">
        <ele>1605.8</ele>
        <time>2022-07-19T16:57:21Z</time>
      </trkpt>
      <trkpt lat="44.62573" lon="6.68138">
        <ele>1605.8</ele>
        <time>2022-07-19T16:57:22Z</time>
      </trkpt>
      <trkpt lat="44.62571" lon="6.68127">
        <ele>1605.8</ele>
        <time>2022-07-19T16:57:23Z</time>
      </trkpt>
      <trkpt lat="44.62569" lon="6.68117">
        <ele>1605.8</ele>
        <time>2022-07-19T16:57:24Z</time>
      </trkpt>
      <trkpt lat="44.62566" lon="6.68107">
        <ele>1605.6</ele>
        <time>2022-07-19T16:57:25Z</time>
      </trkpt>
      <trkpt lat="44.62564" lon="6.68097">
        <ele>1605.6</ele>
        <time>2022-07-19T16:57:26Z</time>
      </trkpt>
      <trkpt lat="44.62563" lon="6.68087">
        <ele>1605.6</ele>
        <time>2022-07-19T16:57:27Z</time>
      </trkpt>
      <trkpt lat="44.62564" lon="6.68076">
        <ele>1605.2</ele>
        <time>2022-07-19T16:57:28Z</time>
      </trkpt>
      <trkpt lat="44.62567" lon="6.68065">
        <ele>1605</ele>
        <time>2022-07-19T16:57:29Z</time>
      </trkpt>
      <trkpt lat="44.62571" lon="6.68056">
        <ele>1604.6</ele>
        <time>2022-07-19T16:57:30Z</time>
      </trkpt>
      <trkpt lat="44.62577" lon="6.68048">
        <ele>1604.4</ele>
        <time>2022-07-19T16:57:31Z</time>
      </trkpt>
      <trkpt lat="44.62584" lon="6.68041">
        <ele>1604.2</ele>
        <time>2022-07-19T16:57:32Z</time>
      </trkpt>
      <trkpt lat="44.62592" lon="6.68035">
        <ele>1604</ele>
        <time>2022-07-19T16:57:33Z</time>
      </trkpt>
      <trkpt lat="44.62599" lon="6.6803">
        <ele>1603.6</ele>
        <time>2022-07-19T16:57:34Z</time>
      </trkpt>
      <trkpt lat="44.62607" lon="6.68025">
        <ele>1603.4</ele>
        <time>2022-07-19T16:57:35Z</time>
      </trkpt>
      <trkpt lat="44.62615" lon="6.6802">
        <ele>1603.2</ele>
        <time>2022-07-19T16:57:36Z</time>
      </trkpt>
      <trkpt lat="44.62624" lon="6.68015">
        <ele>1603.2</ele>
        <time>2022-07-19T16:57:37Z</time>
      </trkpt>
      <trkpt lat="44.62632" lon="6.68011">
        <ele>1602.8</ele>
        <time>2022-07-19T16:57:38Z</time>
      </trkpt>
      <trkpt lat="44.62641" lon="6.68007">
        <ele>1602.8</ele>
        <time>2022-07-19T16:57:39Z</time>
      </trkpt>
      <trkpt lat="44.62651" lon="6.68004">
        <ele>1602.6</ele>
        <time>2022-07-19T16:57:40Z</time>
      </trkpt>
      <trkpt lat="44.6266" lon="6.68002">
        <ele>1602.6</ele>
        <time>2022-07-19T16:57:41Z</time>
      </trkpt>
      <trkpt lat="44.62669" lon="6.68002">
        <ele>1602.2</ele>
        <time>2022-07-19T16:57:42Z</time>
      </trkpt>
      <trkpt lat="44.62678" lon="6.68003">
        <ele>1602.2</ele>
        <time>2022-07-19T16:57:43Z</time>
      </trkpt>
      <trkpt lat="44.62687" lon="6.68004">
        <ele>1601.8</ele>
        <time>2022-07-19T16:57:44Z</time>
      </trkpt>
      <trkpt lat="44.62695" lon="6.68005">
        <ele>1601.8</ele>
        <time>2022-07-19T16:57:45Z</time>
      </trkpt>
      <trkpt lat="44.62704" lon="6.68007">
        <ele>1601.6</ele>
        <time>2022-07-19T16:57:46Z</time>
      </trkpt>
      <trkpt lat="44.62713" lon="6.6801">
        <ele>1601.4</ele>
        <time>2022-07-19T16:57:47Z</time>
      </trkpt>
      <trkpt lat="44.62721" lon="6.68015">
        <ele>1601.2</ele>
        <time>2022-07-19T16:57:48Z</time>
      </trkpt>
      <trkpt lat="44.62729" lon="6.68022">
        <ele>1600.8</ele>
        <time>2022-07-19T16:57:49Z</time>
      </trkpt>
      <trkpt lat="44.62736" lon="6.68031">
        <ele>1600.4</ele>
        <time>2022-07-19T16:57:50Z</time>
      </trkpt>
      <trkpt lat="44.62742" lon="6.68043">
        <ele>1600</ele>
        <time>2022-07-19T16:57:51Z</time>
      </trkpt>
      <trkpt lat="44.62747" lon="6.68055">
        <ele>1599.4</ele>
        <time>2022-07-19T16:57:52Z</time>
      </trkpt>
      <trkpt lat="44.62753" lon="6.68068">
        <ele>1598.8</ele>
        <time>2022-07-19T16:57:53Z</time>
      </trkpt>
      <trkpt lat="44.62759" lon="6.68079">
        <ele>1598.2</ele>
        <time>2022-07-19T16:57:54Z</time>
      </trkpt>
      <trkpt lat="44.62765" lon="6.6809">
        <ele>1597.6</ele>
        <time>2022-07-19T16:57:55Z</time>
      </trkpt>
      <trkpt lat="44.62771" lon="6.68099">
        <ele>1596.8</ele>
        <time>2022-07-19T16:57:56Z</time>
      </trkpt>
      <trkpt lat="44.62778" lon="6.68107">
        <ele>1596</ele>
        <time>2022-07-19T16:57:57Z</time>
      </trkpt>
      <trkpt lat="44.62785" lon="6.68112">
        <ele>1595.4</ele>
        <time>2022-07-19T16:57:58Z</time>
      </trkpt>
      <trkpt lat="44.62793" lon="6.6811">
        <ele>1594.6</ele>
        <time>2022-07-19T16:57:59Z</time>
      </trkpt>
      <trkpt lat="44.62803" lon="6.68105">
        <ele>1594</ele>
        <time>2022-07-19T16:58:00Z</time>
      </trkpt>
      <trkpt lat="44.62812" lon="6.68099">
        <ele>1593.4</ele>
        <time>2022-07-19T16:58:01Z</time>
      </trkpt>
      <trkpt lat="44.62821" lon="6.68092">
        <ele>1592.6</ele>
        <time>2022-07-19T16:58:02Z</time>
      </trkpt>
      <trkpt lat="44.6283" lon="6.68083">
        <ele>1591.8</ele>
        <time>2022-07-19T16:58:03Z</time>
      </trkpt>
      <trkpt lat="44.62839" lon="6.68074">
        <ele>1591</ele>
        <time>2022-07-19T16:58:04Z</time>
      </trkpt>
      <trkpt lat="44.62849" lon="6.68064">
        <ele>1589.8</ele>
        <time>2022-07-19T16:58:05Z</time>
      </trkpt>
      <trkpt lat="44.62859" lon="6.68054">
        <ele>1589</ele>
        <time>2022-07-19T16:58:06Z</time>
      </trkpt>
      <trkpt lat="44.62867" lon="6.68041">
        <ele>1588.2</ele>
        <time>2022-07-19T16:58:07Z</time>
      </trkpt>
      <trkpt lat="44.62875" lon="6.68028">
        <ele>1587.4</ele>
        <time>2022-07-19T16:58:08Z</time>
      </trkpt>
      <trkpt lat="44.62883" lon="6.68014">
        <ele>1586.6</ele>
        <time>2022-07-19T16:58:09Z</time>
      </trkpt>
      <trkpt lat="44.62891" lon="6.68001">
        <ele>1585.6</ele>
        <time>2022-07-19T16:58:10Z</time>
      </trkpt>
      <trkpt lat="44.62899" lon="6.67987">
        <ele>1584.8</ele>
        <time>2022-07-19T16:58:11Z</time>
      </trkpt>
      <trkpt lat="44.62907" lon="6.67974">
        <ele>1583.8</ele>
        <time>2022-07-19T16:58:12Z</time>
      </trkpt>
      <trkpt lat="44.62915" lon="6.67961">
        <ele>1582.8</ele>
        <time>2022-07-19T16:58:13Z</time>
      </trkpt>
      <trkpt lat="44.62921" lon="6.67948">
        <ele>1581.8</ele>
        <time>2022-07-19T16:58:14Z</time>
      </trkpt>
      <trkpt lat="44.62925" lon="6.67935">
        <ele>1580.8</ele>
        <time>2022-07-19T16:58:15Z</time>
      </trkpt>
      <trkpt lat="44.62928" lon="6.6792">
        <ele>1580</ele>
        <time>2022-07-19T16:58:16Z</time>
      </trkpt>
      <trkpt lat="44.62933" lon="6.67907">
        <ele>1579</ele>
        <time>2022-07-19T16:58:17Z</time>
      </trkpt>
      <trkpt lat="44.62938" lon="6.67894">
        <ele>1578</ele>
        <time>2022-07-19T16:58:18Z</time>
      </trkpt>
      <trkpt lat="44.62946" lon="6.67883">
        <ele>1577</ele>
        <time>2022-07-19T16:58:19Z</time>
      </trkpt>
      <trkpt lat="44.62956" lon="6.67872">
        <ele>1576.2</ele>
        <time>2022-07-19T16:58:20Z</time>
      </trkpt>
      <trkpt lat="44.62965" lon="6.67861">
        <ele>1575</ele>
        <time>2022-07-19T16:58:21Z</time>
      </trkpt>
      <trkpt lat="44.62976" lon="6.67851">
        <ele>1574.2</ele>
        <time>2022-07-19T16:58:22Z</time>
      </trkpt>
      <trkpt lat="44.62986" lon="6.6784">
        <ele>1573.2</ele>
        <time>2022-07-19T16:58:23Z</time>
      </trkpt>
      <trkpt lat="44.62997" lon="6.6783">
        <ele>1572</ele>
        <time>2022-07-19T16:58:24Z</time>
      </trkpt>
      <trkpt lat="44.63009" lon="6.67819">
        <ele>1571</ele>
        <time>2022-07-19T16:58:25Z</time>
      </trkpt>
      <trkpt lat="44.6302" lon="6.67807">
        <ele>1570</ele>
        <time>2022-07-19T16:58:26Z</time>
      </trkpt>
      <trkpt lat="44.63031" lon="6.67796">
        <ele>1568.8</ele>
        <time>2022-07-19T16:58:27Z</time>
      </trkpt>
      <trkpt lat="44.63042" lon="6.67785">
        <ele>1567.8</ele>
        <time>2022-07-19T16:58:28Z</time>
      </trkpt>
      <trkpt lat="44.63053" lon="6.67773">
        <ele>1566.8</ele>
        <time>2022-07-19T16:58:29Z</time>
      </trkpt>
      <trkpt lat="44.63064" lon="6.67763">
        <ele>1565.8</ele>
        <time>2022-07-19T16:58:30Z</time>
      </trkpt>
      <trkpt lat="44.63074" lon="6.67754">
        <ele>1564.8</ele>
        <time>2022-07-19T16:58:31Z</time>
      </trkpt>
      <trkpt lat="44.63084" lon="6.67747">
        <ele>1563.8</ele>
        <time>2022-07-19T16:58:32Z</time>
      </trkpt>
      <trkpt lat="44.63094" lon="6.67743">
        <ele>1563</ele>
        <time>2022-07-19T16:58:33Z</time>
      </trkpt>
      <trkpt lat="44.63104" lon="6.67742">
        <ele>1562</ele>
        <time>2022-07-19T16:58:34Z</time>
      </trkpt>
      <trkpt lat="44.63114" lon="6.67742">
        <ele>1561.2</ele>
        <time>2022-07-19T16:58:35Z</time>
      </trkpt>
      <trkpt lat="44.63124" lon="6.6774">
        <ele>1560.2</ele>
        <time>2022-07-19T16:58:36Z</time>
      </trkpt>
      <trkpt lat="44.63134" lon="6.67734">
        <ele>1559.2</ele>
        <time>2022-07-19T16:58:37Z</time>
      </trkpt>
      <trkpt lat="44.63144" lon="6.67726">
        <ele>1558.2</ele>
        <time>2022-07-19T16:58:38Z</time>
      </trkpt>
      <trkpt lat="44.63151" lon="6.67714">
        <ele>1557.4</ele>
        <time>2022-07-19T16:58:39Z</time>
      </trkpt>
      <trkpt lat="44.63158" lon="6.67699">
        <ele>1556.2</ele>
        <time>2022-07-19T16:58:40Z</time>
      </trkpt>
      <trkpt lat="44.63166" lon="6.67687">
        <ele>1555.2</ele>
        <time>2022-07-19T16:58:41Z</time>
      </trkpt>
      <trkpt lat="44.63176" lon="6.67676">
        <ele>1554.2</ele>
        <time>2022-07-19T16:58:42Z</time>
      </trkpt>
      <trkpt lat="44.63188" lon="6.67668">
        <ele>1553</ele>
        <time>2022-07-19T16:58:43Z</time>
      </trkpt>
      <trkpt lat="44.63199" lon="6.67662">
        <ele>1552</ele>
        <time>2022-07-19T16:58:44Z</time>
      </trkpt>
      <trkpt lat="44.63212" lon="6.67659">
        <ele>1550.8</ele>
        <time>2022-07-19T16:58:45Z</time>
      </trkpt>
      <trkpt lat="44.63226" lon="6.67658">
        <ele>1549.8</ele>
        <time>2022-07-19T16:58:46Z</time>
      </trkpt>
      <trkpt lat="44.6324" lon="6.67658">
        <ele>1548.8</ele>
        <time>2022-07-19T16:58:47Z</time>
      </trkpt>
      <trkpt lat="44.63254" lon="6.6766">
        <ele>1547.6</ele>
        <time>2022-07-19T16:58:48Z</time>
      </trkpt>
      <trkpt lat="44.63268" lon="6.67666">
        <ele>1546.4</ele>
        <time>2022-07-19T16:58:49Z</time>
      </trkpt>
      <trkpt lat="44.63281" lon="6.67671">
        <ele>1545.4</ele>
        <time>2022-07-19T16:58:50Z</time>
      </trkpt>
      <trkpt lat="44.63294" lon="6.67674">
        <ele>1544.4</ele>
        <time>2022-07-19T16:58:51Z</time>
      </trkpt>
      <trkpt lat="44.63306" lon="6.67675">
        <ele>1543.4</ele>
        <time>2022-07-19T16:58:52Z</time>
      </trkpt>
      <trkpt lat="44.6332" lon="6.67672">
        <ele>1542.4</ele>
        <time>2022-07-19T16:58:53Z</time>
      </trkpt>
      <trkpt lat="44.63332" lon="6.67667">
        <ele>1541.2</ele>
        <time>2022-07-19T16:58:54Z</time>
      </trkpt>
      <trkpt lat="44.63344" lon="6.6766">
        <ele>1540.2</ele>
        <time>2022-07-19T16:58:55Z</time>
      </trkpt>
      <trkpt lat="44.63356" lon="6.6765">
        <ele>1539.2</ele>
        <time>2022-07-19T16:58:56Z</time>
      </trkpt>
      <trkpt lat="44.63368" lon="6.67637">
        <ele>1538</ele>
        <time>2022-07-19T16:58:57Z</time>
      </trkpt>
      <trkpt lat="44.63378" lon="6.67622">
        <ele>1537</ele>
        <time>2022-07-19T16:58:58Z</time>
      </trkpt>
      <trkpt lat="44.63387" lon="6.67606">
        <ele>1535.8</ele>
        <time>2022-07-19T16:58:59Z</time>
      </trkpt>
      <trkpt lat="44.63397" lon="6.6759">
        <ele>1534.6</ele>
        <time>2022-07-19T16:59:00Z</time>
      </trkpt>
      <trkpt lat="44.63407" lon="6.67576">
        <ele>1533.4</ele>
        <time>2022-07-19T16:59:01Z</time>
      </trkpt>
      <trkpt lat="44.63417" lon="6.67562">
        <ele>1532</ele>
        <time>2022-07-19T16:59:02Z</time>
      </trkpt>
      <trkpt lat="44.63427" lon="6.67548">
        <ele>1530.8</ele>
        <time>2022-07-19T16:59:03Z</time>
      </trkpt>
      <trkpt lat="44.63437" lon="6.67535">
        <ele>1529.8</ele>
        <time>2022-07-19T16:59:04Z</time>
      </trkpt>
      <trkpt lat="44.63445" lon="6.67522">
        <ele>1528.6</ele>
        <time>2022-07-19T16:59:05Z</time>
      </trkpt>
      <trkpt lat="44.63453" lon="6.6751">
        <ele>1527.6</ele>
        <time>2022-07-19T16:59:06Z</time>
      </trkpt>
      <trkpt lat="44.63459" lon="6.67497">
        <ele>1526.6</ele>
        <time>2022-07-19T16:59:07Z</time>
      </trkpt>
      <trkpt lat="44.63465" lon="6.67484">
        <ele>1525.6</ele>
        <time>2022-07-19T16:59:08Z</time>
      </trkpt>
      <trkpt lat="44.63469" lon="6.67469">
        <ele>1524.8</ele>
        <time>2022-07-19T16:59:09Z</time>
      </trkpt>
      <trkpt lat="44.63472" lon="6.67452">
        <ele>1523.6</ele>
        <time>2022-07-19T16:59:10Z</time>
      </trkpt>
      <trkpt lat="44.63473" lon="6.67435">
        <ele>1522.6</ele>
        <time>2022-07-19T16:59:11Z</time>
      </trkpt>
      <trkpt lat="44.63473" lon="6.67418">
        <ele>1521.6</ele>
        <time>2022-07-19T16:59:12Z</time>
      </trkpt>
      <trkpt lat="44.63472" lon="6.67398">
        <ele>1520.6</ele>
        <time>2022-07-19T16:59:13Z</time>
      </trkpt>
      <trkpt lat="44.6347" lon="6.67379">
        <ele>1519.6</ele>
        <time>2022-07-19T16:59:14Z</time>
      </trkpt>
      <trkpt lat="44.63467" lon="6.67362">
        <ele>1518.4</ele>
        <time>2022-07-19T16:59:15Z</time>
      </trkpt>
      <trkpt lat="44.63464" lon="6.67344">
        <ele>1517.4</ele>
        <time>2022-07-19T16:59:16Z</time>
      </trkpt>
      <trkpt lat="44.63461" lon="6.67327">
        <ele>1516.4</ele>
        <time>2022-07-19T16:59:17Z</time>
      </trkpt>
      <trkpt lat="44.63457" lon="6.6731">
        <ele>1515.4</ele>
        <time>2022-07-19T16:59:18Z</time>
      </trkpt>
      <trkpt lat="44.63451" lon="6.67295">
        <ele>1514.6</ele>
        <time>2022-07-19T16:59:19Z</time>
      </trkpt>
      <trkpt lat="44.63443" lon="6.6728">
        <ele>1513.6</ele>
        <time>2022-07-19T16:59:20Z</time>
      </trkpt>
      <trkpt lat="44.63433" lon="6.67267">
        <ele>1512.6</ele>
        <time>2022-07-19T16:59:21Z</time>
      </trkpt>
      <trkpt lat="44.63423" lon="6.67254">
        <ele>1511.6</ele>
        <time>2022-07-19T16:59:22Z</time>
      </trkpt>
      <trkpt lat="44.63411" lon="6.67242">
        <ele>1510.8</ele>
        <time>2022-07-19T16:59:23Z</time>
      </trkpt>
      <trkpt lat="44.634" lon="6.67231">
        <ele>1510</ele>
        <time>2022-07-19T16:59:24Z</time>
      </trkpt>
      <trkpt lat="44.6339" lon="6.67219">
        <ele>1509.4</ele>
        <time>2022-07-19T16:59:25Z</time>
      </trkpt>
      <trkpt lat="44.63381" lon="6.67208">
        <ele>1509</ele>
        <time>2022-07-19T16:59:26Z</time>
      </trkpt>
      <trkpt lat="44.63372" lon="6.672">
        <ele>1508.4</ele>
        <time>2022-07-19T16:59:27Z</time>
      </trkpt>
      <trkpt lat="44.63362" lon="6.67194">
        <ele>1507.8</ele>
        <time>2022-07-19T16:59:28Z</time>
      </trkpt>
      <trkpt lat="44.63352" lon="6.67193">
        <ele>1507.6</ele>
        <time>2022-07-19T16:59:29Z</time>
      </trkpt>
      <trkpt lat="44.63341" lon="6.67192">
        <ele>1507.2</ele>
        <time>2022-07-19T16:59:30Z</time>
      </trkpt>
      <trkpt lat="44.63331" lon="6.67192">
        <ele>1506.8</ele>
        <time>2022-07-19T16:59:31Z</time>
      </trkpt>
      <trkpt lat="44.63322" lon="6.67189">
        <ele>1506.4</ele>
        <time>2022-07-19T16:59:32Z</time>
      </trkpt>
      <trkpt lat="44.63314" lon="6.67183">
        <ele>1506</ele>
        <time>2022-07-19T16:59:33Z</time>
      </trkpt>
      <trkpt lat="44.63307" lon="6.67175">
        <ele>1505.6</ele>
        <time>2022-07-19T16:59:34Z</time>
      </trkpt>
      <trkpt lat="44.63301" lon="6.67164">
        <ele>1505.2</ele>
        <time>2022-07-19T16:59:35Z</time>
      </trkpt>
      <trkpt lat="44.63304" lon="6.67147">
        <ele>1504.8</ele>
        <time>2022-07-19T16:59:36Z</time>
      </trkpt>
      <trkpt lat="44.63306" lon="6.67134">
        <ele>1504.4</ele>
        <time>2022-07-19T16:59:37Z</time>
      </trkpt>
      <trkpt lat="44.6331" lon="6.67122">
        <ele>1504</ele>
        <time>2022-07-19T16:59:38Z</time>
      </trkpt>
      <trkpt lat="44.63316" lon="6.67111">
        <ele>1503.6</ele>
        <time>2022-07-19T16:59:39Z</time>
      </trkpt>
      <trkpt lat="44.63324" lon="6.671">
        <ele>1503.4</ele>
        <time>2022-07-19T16:59:40Z</time>
      </trkpt>
      <trkpt lat="44.63332" lon="6.67092">
        <ele>1502.8</ele>
        <time>2022-07-19T16:59:41Z</time>
      </trkpt>
      <trkpt lat="44.63341" lon="6.67085">
        <ele>1502.4</ele>
        <time>2022-07-19T16:59:42Z</time>
      </trkpt>
      <trkpt lat="44.63351" lon="6.67079">
        <ele>1501.6</ele>
        <time>2022-07-19T16:59:43Z</time>
      </trkpt>
      <trkpt lat="44.63361" lon="6.67072">
        <ele>1500.8</ele>
        <time>2022-07-19T16:59:44Z</time>
      </trkpt>
      <trkpt lat="44.63371" lon="6.67066">
        <ele>1500.2</ele>
        <time>2022-07-19T16:59:45Z</time>
      </trkpt>
      <trkpt lat="44.63381" lon="6.67058">
        <ele>1499.4</ele>
        <time>2022-07-19T16:59:46Z</time>
      </trkpt>
      <trkpt lat="44.63392" lon="6.67051">
        <ele>1498.4</ele>
        <time>2022-07-19T16:59:47Z</time>
      </trkpt>
      <trkpt lat="44.63403" lon="6.67043">
        <ele>1497.6</ele>
        <time>2022-07-19T16:59:48Z</time>
      </trkpt>
      <trkpt lat="44.63414" lon="6.67036">
        <ele>1496.6</ele>
        <time>2022-07-19T16:59:49Z</time>
      </trkpt>
      <trkpt lat="44.63425" lon="6.67028">
        <ele>1495.6</ele>
        <time>2022-07-19T16:59:50Z</time>
      </trkpt>
      <trkpt lat="44.63448" lon="6.6701">
        <ele>1494.4</ele>
        <time>2022-07-19T16:59:51Z</time>
      </trkpt>
      <trkpt lat="44.63458" lon="6.66999">
        <ele>1493.4</ele>
        <time>2022-07-19T16:59:52Z</time>
      </trkpt>
      <trkpt lat="44.63469" lon="6.6699">
        <ele>1492.4</ele>
        <time>2022-07-19T16:59:53Z</time>
      </trkpt>
      <trkpt lat="44.63478" lon="6.6698">
        <ele>1491.2</ele>
        <time>2022-07-19T16:59:54Z</time>
      </trkpt>
      <trkpt lat="44.63487" lon="6.66971">
        <ele>1490.2</ele>
        <time>2022-07-19T16:59:55Z</time>
      </trkpt>
      <trkpt lat="44.63496" lon="6.66965">
        <ele>1489.4</ele>
        <time>2022-07-19T16:59:56Z</time>
      </trkpt>
      <trkpt lat="44.63507" lon="6.66963">
        <ele>1488.4</ele>
        <time>2022-07-19T16:59:57Z</time>
      </trkpt>
      <trkpt lat="44.63518" lon="6.66963">
        <ele>1487.4</ele>
        <time>2022-07-19T16:59:58Z</time>
      </trkpt>
      <trkpt lat="44.6353" lon="6.66967">
        <ele>1486.4</ele>
        <time>2022-07-19T16:59:59Z</time>
      </trkpt>
      <trkpt lat="44.63542" lon="6.66972">
        <ele>1485.6</ele>
        <time>2022-07-19T17:00:00Z</time>
      </trkpt>
      <trkpt lat="44.63554" lon="6.66976">
        <ele>1484.6</ele>
        <time>2022-07-19T17:00:01Z</time>
      </trkpt>
      <trkpt lat="44.63567" lon="6.6698">
        <ele>1483.6</ele>
        <time>2022-07-19T17:00:02Z</time>
      </trkpt>
      <trkpt lat="44.6358" lon="6.66985">
        <ele>1482.6</ele>
        <time>2022-07-19T17:00:03Z</time>
      </trkpt>
      <trkpt lat="44.63593" lon="6.66989">
        <ele>1481.6</ele>
        <time>2022-07-19T17:00:04Z</time>
      </trkpt>
      <trkpt lat="44.63606" lon="6.66992">
        <ele>1480.6</ele>
        <time>2022-07-19T17:00:05Z</time>
      </trkpt>
      <trkpt lat="44.63619" lon="6.66995">
        <ele>1479.6</ele>
        <time>2022-07-19T17:00:06Z</time>
      </trkpt>
      <trkpt lat="44.63632" lon="6.66998">
        <ele>1478.6</ele>
        <time>2022-07-19T17:00:07Z</time>
      </trkpt>
      <trkpt lat="44.63645" lon="6.66999">
        <ele>1477.4</ele>
        <time>2022-07-19T17:00:08Z</time>
      </trkpt>
      <trkpt lat="44.63658" lon="6.66999">
        <ele>1476.4</ele>
        <time>2022-07-19T17:00:09Z</time>
      </trkpt>
      <trkpt lat="44.63672" lon="6.66999">
        <ele>1475.4</ele>
        <time>2022-07-19T17:00:10Z</time>
      </trkpt>
      <trkpt lat="44.63686" lon="6.66995">
        <ele>1474</ele>
        <time>2022-07-19T17:00:11Z</time>
      </trkpt>
      <trkpt lat="44.637" lon="6.66992">
        <ele>1472.8</ele>
        <time>2022-07-19T17:00:12Z</time>
      </trkpt>
      <trkpt lat="44.63712" lon="6.6699">
        <ele>1471.4</ele>
        <time>2022-07-19T17:00:13Z</time>
      </trkpt>
      <trkpt lat="44.63725" lon="6.66989">
        <ele>1470.2</ele>
        <time>2022-07-19T17:00:14Z</time>
      </trkpt>
      <trkpt lat="44.63736" lon="6.66987">
        <ele>1469</ele>
        <time>2022-07-19T17:00:15Z</time>
      </trkpt>
      <trkpt lat="44.63746" lon="6.66986">
        <ele>1467.8</ele>
        <time>2022-07-19T17:00:16Z</time>
      </trkpt>
      <trkpt lat="44.63754" lon="6.66986">
        <ele>1466.8</ele>
        <time>2022-07-19T17:00:17Z</time>
      </trkpt>
      <trkpt lat="44.63762" lon="6.66984">
        <ele>1465.8</ele>
        <time>2022-07-19T17:00:18Z</time>
      </trkpt>
      <trkpt lat="44.63768" lon="6.6698">
        <ele>1465.2</ele>
        <time>2022-07-19T17:00:19Z</time>
      </trkpt>
      <trkpt lat="44.63772" lon="6.66974">
        <ele>1464.4</ele>
        <time>2022-07-19T17:00:20Z</time>
      </trkpt>
      <trkpt lat="44.63775" lon="6.66966">
        <ele>1463.8</ele>
        <time>2022-07-19T17:00:21Z</time>
      </trkpt>
      <trkpt lat="44.63776" lon="6.66956">
        <ele>1463</ele>
        <time>2022-07-19T17:00:22Z</time>
      </trkpt>
      <trkpt lat="44.63769" lon="6.66946">
        <ele>1462.2</ele>
        <time>2022-07-19T17:00:23Z</time>
      </trkpt>
      <trkpt lat="44.63762" lon="6.66939">
        <ele>1461.6</ele>
        <time>2022-07-19T17:00:24Z</time>
      </trkpt>
      <trkpt lat="44.63754" lon="6.66935">
        <ele>1461</ele>
        <time>2022-07-19T17:00:25Z</time>
      </trkpt>
      <trkpt lat="44.63746" lon="6.66934">
        <ele>1460.4</ele>
        <time>2022-07-19T17:00:26Z</time>
      </trkpt>
      <trkpt lat="44.63737" lon="6.66934">
        <ele>1459.8</ele>
        <time>2022-07-19T17:00:27Z</time>
      </trkpt>
      <trkpt lat="44.63728" lon="6.66934">
        <ele>1459.4</ele>
        <time>2022-07-19T17:00:28Z</time>
      </trkpt>
      <trkpt lat="44.63718" lon="6.66934">
        <ele>1458.8</ele>
        <time>2022-07-19T17:00:29Z</time>
      </trkpt>
      <trkpt lat="44.63709" lon="6.66933">
        <ele>1458.2</ele>
        <time>2022-07-19T17:00:30Z</time>
      </trkpt>
      <trkpt lat="44.63699" lon="6.66932">
        <ele>1457.8</ele>
        <time>2022-07-19T17:00:31Z</time>
      </trkpt>
      <trkpt lat="44.63689" lon="6.66929">
        <ele>1457.4</ele>
        <time>2022-07-19T17:00:32Z</time>
      </trkpt>
      <trkpt lat="44.63681" lon="6.66924">
        <ele>1457</ele>
        <time>2022-07-19T17:00:33Z</time>
      </trkpt>
      <trkpt lat="44.63671" lon="6.66917">
        <ele>1456.6</ele>
        <time>2022-07-19T17:00:34Z</time>
      </trkpt>
      <trkpt lat="44.63662" lon="6.66911">
        <ele>1456.2</ele>
        <time>2022-07-19T17:00:35Z</time>
      </trkpt>
      <trkpt lat="44.63653" lon="6.66906">
        <ele>1455.6</ele>
        <time>2022-07-19T17:00:36Z</time>
      </trkpt>
      <trkpt lat="44.63644" lon="6.669">
        <ele>1455.2</ele>
        <time>2022-07-19T17:00:37Z</time>
      </trkpt>
      <trkpt lat="44.63636" lon="6.66894">
        <ele>1454.8</ele>
        <time>2022-07-19T17:00:38Z</time>
      </trkpt>
      <trkpt lat="44.63628" lon="6.66889">
        <ele>1454.4</ele>
        <time>2022-07-19T17:00:39Z</time>
      </trkpt>
      <trkpt lat="44.63622" lon="6.66883">
        <ele>1453.8</ele>
        <time>2022-07-19T17:00:40Z</time>
      </trkpt>
      <trkpt lat="44.63617" lon="6.66875">
        <ele>1453.4</ele>
        <time>2022-07-19T17:00:41Z</time>
      </trkpt>
      <trkpt lat="44.63615" lon="6.66867">
        <ele>1452.8</ele>
        <time>2022-07-19T17:00:42Z</time>
      </trkpt>
      <trkpt lat="44.63617" lon="6.66857">
        <ele>1452</ele>
        <time>2022-07-19T17:00:43Z</time>
      </trkpt>
      <trkpt lat="44.63621" lon="6.66848">
        <ele>1451.4</ele>
        <time>2022-07-19T17:00:44Z</time>
      </trkpt>
      <trkpt lat="44.63627" lon="6.66842">
        <ele>1450.8</ele>
        <time>2022-07-19T17:00:45Z</time>
      </trkpt>
      <trkpt lat="44.63635" lon="6.66838">
        <ele>1450.2</ele>
        <time>2022-07-19T17:00:46Z</time>
      </trkpt>
      <trkpt lat="44.63643" lon="6.66838">
        <ele>1449.8</ele>
        <time>2022-07-19T17:00:47Z</time>
      </trkpt>
      <trkpt lat="44.63651" lon="6.6684">
        <ele>1449.2</ele>
        <time>2022-07-19T17:00:48Z</time>
      </trkpt>
      <trkpt lat="44.63661" lon="6.66843">
        <ele>1448.8</ele>
        <time>2022-07-19T17:00:49Z</time>
      </trkpt>
      <trkpt lat="44.63672" lon="6.66847">
        <ele>1448.2</ele>
        <time>2022-07-19T17:00:50Z</time>
      </trkpt>
      <trkpt lat="44.63683" lon="6.6685">
        <ele>1447.6</ele>
        <time>2022-07-19T17:00:51Z</time>
      </trkpt>
      <trkpt lat="44.63693" lon="6.66852">
        <ele>1447.2</ele>
        <time>2022-07-19T17:00:52Z</time>
      </trkpt>
      <trkpt lat="44.63704" lon="6.66852">
        <ele>1446.6</ele>
        <time>2022-07-19T17:00:53Z</time>
      </trkpt>
      <trkpt lat="44.63715" lon="6.66851">
        <ele>1446</ele>
        <time>2022-07-19T17:00:54Z</time>
      </trkpt>
      <trkpt lat="44.63725" lon="6.66849">
        <ele>1445.4</ele>
        <time>2022-07-19T17:00:55Z</time>
      </trkpt>
      <trkpt lat="44.63736" lon="6.66844">
        <ele>1444.8</ele>
        <time>2022-07-19T17:00:56Z</time>
      </trkpt>
      <trkpt lat="44.63747" lon="6.66839">
        <ele>1444.2</ele>
        <time>2022-07-19T17:00:57Z</time>
      </trkpt>
      <trkpt lat="44.63758" lon="6.66833">
        <ele>1443.4</ele>
        <time>2022-07-19T17:00:58Z</time>
      </trkpt>
      <trkpt lat="44.63769" lon="6.66827">
        <ele>1442.6</ele>
        <time>2022-07-19T17:00:59Z</time>
      </trkpt>
      <trkpt lat="44.63781" lon="6.66821">
        <ele>1441.8</ele>
        <time>2022-07-19T17:01:00Z</time>
      </trkpt>
      <trkpt lat="44.63793" lon="6.66815">
        <ele>1441</ele>
        <time>2022-07-19T17:01:01Z</time>
      </trkpt>
      <trkpt lat="44.63805" lon="6.6681">
        <ele>1440</ele>
        <time>2022-07-19T17:01:02Z</time>
      </trkpt>
      <trkpt lat="44.63817" lon="6.66805">
        <ele>1439</ele>
        <time>2022-07-19T17:01:03Z</time>
      </trkpt>
      <trkpt lat="44.63828" lon="6.66799">
        <ele>1438</ele>
        <time>2022-07-19T17:01:04Z</time>
      </trkpt>
      <trkpt lat="44.63838" lon="6.6679">
        <ele>1437</ele>
        <time>2022-07-19T17:01:05Z</time>
      </trkpt>
      <trkpt lat="44.63847" lon="6.6678">
        <ele>1436.2</ele>
        <time>2022-07-19T17:01:06Z</time>
      </trkpt>
      <trkpt lat="44.63855" lon="6.66769">
        <ele>1435.2</ele>
        <time>2022-07-19T17:01:07Z</time>
      </trkpt>
      <trkpt lat="44.63862" lon="6.66759">
        <ele>1434.4</ele>
        <time>2022-07-19T17:01:08Z</time>
      </trkpt>
      <trkpt lat="44.63869" lon="6.66748">
        <ele>1433.6</ele>
        <time>2022-07-19T17:01:09Z</time>
      </trkpt>
      <trkpt lat="44.63875" lon="6.6674">
        <ele>1432.8</ele>
        <time>2022-07-19T17:01:10Z</time>
      </trkpt>
      <trkpt lat="44.63884" lon="6.66734">
        <ele>1432</ele>
        <time>2022-07-19T17:01:11Z</time>
      </trkpt>
      <trkpt lat="44.63894" lon="6.66732">
        <ele>1431.2</ele>
        <time>2022-07-19T17:01:12Z</time>
      </trkpt>
      <trkpt lat="44.63905" lon="6.66731">
        <ele>1430.4</ele>
        <time>2022-07-19T17:01:13Z</time>
      </trkpt>
      <trkpt lat="44.63916" lon="6.6673">
        <ele>1429.8</ele>
        <time>2022-07-19T17:01:14Z</time>
      </trkpt>
      <trkpt lat="44.63928" lon="6.6673">
        <ele>1428.8</ele>
        <time>2022-07-19T17:01:15Z</time>
      </trkpt>
      <trkpt lat="44.6394" lon="6.66732">
        <ele>1427.8</ele>
        <time>2022-07-19T17:01:16Z</time>
      </trkpt>
      <trkpt lat="44.63951" lon="6.66735">
        <ele>1426.8</ele>
        <time>2022-07-19T17:01:17Z</time>
      </trkpt>
      <trkpt lat="44.63962" lon="6.66739">
        <ele>1425.8</ele>
        <time>2022-07-19T17:01:18Z</time>
      </trkpt>
      <trkpt lat="44.63972" lon="6.66742">
        <ele>1424.8</ele>
        <time>2022-07-19T17:01:19Z</time>
      </trkpt>
      <trkpt lat="44.63979" lon="6.66742">
        <ele>1423.8</ele>
        <time>2022-07-19T17:01:20Z</time>
      </trkpt>
      <trkpt lat="44.63987" lon="6.66741">
        <ele>1423</ele>
        <time>2022-07-19T17:01:21Z</time>
      </trkpt>
      <trkpt lat="44.63993" lon="6.66738">
        <ele>1422.2</ele>
        <time>2022-07-19T17:01:22Z</time>
      </trkpt>
      <trkpt lat="44.63999" lon="6.66733">
        <ele>1421.4</ele>
        <time>2022-07-19T17:01:23Z</time>
      </trkpt>
      <trkpt lat="44.64002" lon="6.66727">
        <ele>1420.6</ele>
        <time>2022-07-19T17:01:24Z</time>
      </trkpt>
      <trkpt lat="44.64002" lon="6.66719">
        <ele>1420</ele>
        <time>2022-07-19T17:01:25Z</time>
      </trkpt>
      <trkpt lat="44.63999" lon="6.66709">
        <ele>1419.2</ele>
        <time>2022-07-19T17:01:26Z</time>
      </trkpt>
      <trkpt lat="44.63994" lon="6.66702">
        <ele>1418.6</ele>
        <time>2022-07-19T17:01:27Z</time>
      </trkpt>
      <trkpt lat="44.63986" lon="6.66696">
        <ele>1417.8</ele>
        <time>2022-07-19T17:01:28Z</time>
      </trkpt>
      <trkpt lat="44.63977" lon="6.66691">
        <ele>1417</ele>
        <time>2022-07-19T17:01:29Z</time>
      </trkpt>
      <trkpt lat="44.63967" lon="6.66685">
        <ele>1416</ele>
        <time>2022-07-19T17:01:30Z</time>
      </trkpt>
      <trkpt lat="44.63956" lon="6.66679">
        <ele>1415.2</ele>
        <time>2022-07-19T17:01:31Z</time>
      </trkpt>
      <trkpt lat="44.63945" lon="6.66674">
        <ele>1414.4</ele>
        <time>2022-07-19T17:01:32Z</time>
      </trkpt>
      <trkpt lat="44.63933" lon="6.66669">
        <ele>1413.4</ele>
        <time>2022-07-19T17:01:33Z</time>
      </trkpt>
      <trkpt lat="44.63922" lon="6.66664">
        <ele>1412.6</ele>
        <time>2022-07-19T17:01:34Z</time>
      </trkpt>
      <trkpt lat="44.63911" lon="6.66658">
        <ele>1411.4</ele>
        <time>2022-07-19T17:01:35Z</time>
      </trkpt>
      <trkpt lat="44.63899" lon="6.66653">
        <ele>1410.4</ele>
        <time>2022-07-19T17:01:36Z</time>
      </trkpt>
      <trkpt lat="44.63886" lon="6.66648">
        <ele>1409.6</ele>
        <time>2022-07-19T17:01:37Z</time>
      </trkpt>
      <trkpt lat="44.63873" lon="6.66642">
        <ele>1408.6</ele>
        <time>2022-07-19T17:01:38Z</time>
      </trkpt>
      <trkpt lat="44.6386" lon="6.66636">
        <ele>1407.2</ele>
        <time>2022-07-19T17:01:39Z</time>
      </trkpt>
      <trkpt lat="44.63848" lon="6.6663">
        <ele>1406</ele>
        <time>2022-07-19T17:01:40Z</time>
      </trkpt>
      <trkpt lat="44.63835" lon="6.66625">
        <ele>1404.8</ele>
        <time>2022-07-19T17:01:41Z</time>
      </trkpt>
      <trkpt lat="44.63823" lon="6.6662">
        <ele>1403.4</ele>
        <time>2022-07-19T17:01:42Z</time>
      </trkpt>
      <trkpt lat="44.63812" lon="6.66616">
        <ele>1402</ele>
        <time>2022-07-19T17:01:43Z</time>
      </trkpt>
      <trkpt lat="44.638" lon="6.66614">
        <ele>1401</ele>
        <time>2022-07-19T17:01:44Z</time>
      </trkpt>
      <trkpt lat="44.63789" lon="6.66614">
        <ele>1399.8</ele>
        <time>2022-07-19T17:01:45Z</time>
      </trkpt>
      <trkpt lat="44.63779" lon="6.66615">
        <ele>1399</ele>
        <time>2022-07-19T17:01:46Z</time>
      </trkpt>
      <trkpt lat="44.63769" lon="6.66616">
        <ele>1398</ele>
        <time>2022-07-19T17:01:47Z</time>
      </trkpt>
      <trkpt lat="44.6376" lon="6.66617">
        <ele>1397.2</ele>
        <time>2022-07-19T17:01:48Z</time>
      </trkpt>
      <trkpt lat="44.63752" lon="6.66618">
        <ele>1396.4</ele>
        <time>2022-07-19T17:01:49Z</time>
      </trkpt>
      <trkpt lat="44.63745" lon="6.66617">
        <ele>1395.4</ele>
        <time>2022-07-19T17:01:50Z</time>
      </trkpt>
      <trkpt lat="44.6374" lon="6.66614">
        <ele>1394.8</ele>
        <time>2022-07-19T17:01:51Z</time>
      </trkpt>
      <trkpt lat="44.63735" lon="6.66608">
        <ele>1394.2</ele>
        <time>2022-07-19T17:01:52Z</time>
      </trkpt>
      <trkpt lat="44.63733" lon="6.66599">
        <ele>1393.4</ele>
        <time>2022-07-19T17:01:53Z</time>
      </trkpt>
      <trkpt lat="44.63734" lon="6.6659">
        <ele>1392.8</ele>
        <time>2022-07-19T17:01:54Z</time>
      </trkpt>
      <trkpt lat="44.63739" lon="6.66582">
        <ele>1392</ele>
        <time>2022-07-19T17:01:55Z</time>
      </trkpt>
      <trkpt lat="44.63745" lon="6.66576">
        <ele>1391</ele>
        <time>2022-07-19T17:01:56Z</time>
      </trkpt>
      <trkpt lat="44.63754" lon="6.66574">
        <ele>1390.2</ele>
        <time>2022-07-19T17:01:57Z</time>
      </trkpt>
      <trkpt lat="44.63763" lon="6.66572">
        <ele>1389.2</ele>
        <time>2022-07-19T17:01:58Z</time>
      </trkpt>
      <trkpt lat="44.63775" lon="6.6657">
        <ele>1388.4</ele>
        <time>2022-07-19T17:01:59Z</time>
      </trkpt>
      <trkpt lat="44.63787" lon="6.66569">
        <ele>1387.4</ele>
        <time>2022-07-19T17:02:00Z</time>
      </trkpt>
      <trkpt lat="44.63798" lon="6.6657">
        <ele>1386.4</ele>
        <time>2022-07-19T17:02:01Z</time>
      </trkpt>
      <trkpt lat="44.6381" lon="6.66571">
        <ele>1385.6</ele>
        <time>2022-07-19T17:02:02Z</time>
      </trkpt>
      <trkpt lat="44.63822" lon="6.66573">
        <ele>1384.6</ele>
        <time>2022-07-19T17:02:03Z</time>
      </trkpt>
      <trkpt lat="44.63835" lon="6.66576">
        <ele>1383.6</ele>
        <time>2022-07-19T17:02:04Z</time>
      </trkpt>
      <trkpt lat="44.63848" lon="6.66575">
        <ele>1382.4</ele>
        <time>2022-07-19T17:02:05Z</time>
      </trkpt>
      <trkpt lat="44.63861" lon="6.66572">
        <ele>1381.2</ele>
        <time>2022-07-19T17:02:06Z</time>
      </trkpt>
      <trkpt lat="44.63875" lon="6.66568">
        <ele>1380.2</ele>
        <time>2022-07-19T17:02:07Z</time>
      </trkpt>
      <trkpt lat="44.63888" lon="6.66564">
        <ele>1378.8</ele>
        <time>2022-07-19T17:02:08Z</time>
      </trkpt>
      <trkpt lat="44.63902" lon="6.66561">
        <ele>1377.6</ele>
        <time>2022-07-19T17:02:09Z</time>
      </trkpt>
      <trkpt lat="44.63915" lon="6.66557">
        <ele>1376.6</ele>
        <time>2022-07-19T17:02:10Z</time>
      </trkpt>
      <trkpt lat="44.63928" lon="6.66556">
        <ele>1375.4</ele>
        <time>2022-07-19T17:02:11Z</time>
      </trkpt>
      <trkpt lat="44.63941" lon="6.66553">
        <ele>1374.4</ele>
        <time>2022-07-19T17:02:12Z</time>
      </trkpt>
      <trkpt lat="44.63953" lon="6.66552">
        <ele>1373.2</ele>
        <time>2022-07-19T17:02:13Z</time>
      </trkpt>
      <trkpt lat="44.63965" lon="6.66553">
        <ele>1372</ele>
        <time>2022-07-19T17:02:14Z</time>
      </trkpt>
      <trkpt lat="44.63976" lon="6.66556">
        <ele>1370.8</ele>
        <time>2022-07-19T17:02:15Z</time>
      </trkpt>
      <trkpt lat="44.63988" lon="6.66561">
        <ele>1369.6</ele>
        <time>2022-07-19T17:02:16Z</time>
      </trkpt>
      <trkpt lat="44.63999" lon="6.66566">
        <ele>1368.4</ele>
        <time>2022-07-19T17:02:17Z</time>
      </trkpt>
      <trkpt lat="44.64009" lon="6.6657">
        <ele>1367.4</ele>
        <time>2022-07-19T17:02:18Z</time>
      </trkpt>
      <trkpt lat="44.6402" lon="6.66572">
        <ele>1366.4</ele>
        <time>2022-07-19T17:02:19Z</time>
      </trkpt>
      <trkpt lat="44.64031" lon="6.66573">
        <ele>1365.2</ele>
        <time>2022-07-19T17:02:20Z</time>
      </trkpt>
      <trkpt lat="44.64043" lon="6.66569">
        <ele>1364.2</ele>
        <time>2022-07-19T17:02:21Z</time>
      </trkpt>
      <trkpt lat="44.64055" lon="6.66563">
        <ele>1363.2</ele>
        <time>2022-07-19T17:02:22Z</time>
      </trkpt>
      <trkpt lat="44.64067" lon="6.66557">
        <ele>1362</ele>
        <time>2022-07-19T17:02:23Z</time>
      </trkpt>
      <trkpt lat="44.64079" lon="6.66551">
        <ele>1361</ele>
        <time>2022-07-19T17:02:24Z</time>
      </trkpt>
      <trkpt lat="44.6409" lon="6.66545">
        <ele>1359.8</ele>
        <time>2022-07-19T17:02:25Z</time>
      </trkpt>
      <trkpt lat="44.641" lon="6.66538">
        <ele>1358.8</ele>
        <time>2022-07-19T17:02:26Z</time>
      </trkpt>
      <trkpt lat="44.64109" lon="6.66529">
        <ele>1357.8</ele>
        <time>2022-07-19T17:02:27Z</time>
      </trkpt>
      <trkpt lat="44.64116" lon="6.66518">
        <ele>1356.8</ele>
        <time>2022-07-19T17:02:28Z</time>
      </trkpt>
      <trkpt lat="44.64122" lon="6.66505">
        <ele>1355.8</ele>
        <time>2022-07-19T17:02:29Z</time>
      </trkpt>
      <trkpt lat="44.64128" lon="6.6649">
        <ele>1354.8</ele>
        <time>2022-07-19T17:02:30Z</time>
      </trkpt>
      <trkpt lat="44.64133" lon="6.66474">
        <ele>1353.8</ele>
        <time>2022-07-19T17:02:31Z</time>
      </trkpt>
      <trkpt lat="44.6414" lon="6.66458">
        <ele>1352.6</ele>
        <time>2022-07-19T17:02:32Z</time>
      </trkpt>
      <trkpt lat="44.64146" lon="6.66443">
        <ele>1351.4</ele>
        <time>2022-07-19T17:02:33Z</time>
      </trkpt>
      <trkpt lat="44.64152" lon="6.66426">
        <ele>1350.2</ele>
        <time>2022-07-19T17:02:34Z</time>
      </trkpt>
      <trkpt lat="44.64156" lon="6.66412">
        <ele>1348.8</ele>
        <time>2022-07-19T17:02:35Z</time>
      </trkpt>
      <trkpt lat="44.6416" lon="6.66398">
        <ele>1347.6</ele>
        <time>2022-07-19T17:02:36Z</time>
      </trkpt>
      <trkpt lat="44.64163" lon="6.66383">
        <ele>1346.6</ele>
        <time>2022-07-19T17:02:37Z</time>
      </trkpt>
      <trkpt lat="44.64166" lon="6.66369">
        <ele>1345.4</ele>
        <time>2022-07-19T17:02:38Z</time>
      </trkpt>
      <trkpt lat="44.64169" lon="6.66357">
        <ele>1344.2</ele>
        <time>2022-07-19T17:02:39Z</time>
      </trkpt>
      <trkpt lat="44.64175" lon="6.66347">
        <ele>1343</ele>
        <time>2022-07-19T17:02:40Z</time>
      </trkpt>
      <trkpt lat="44.64182" lon="6.6634">
        <ele>1342</ele>
        <time>2022-07-19T17:02:41Z</time>
      </trkpt>
      <trkpt lat="44.64191" lon="6.66335">
        <ele>1340.8</ele>
        <time>2022-07-19T17:02:42Z</time>
      </trkpt>
      <trkpt lat="44.64202" lon="6.66334">
        <ele>1339.8</ele>
        <time>2022-07-19T17:02:43Z</time>
      </trkpt>
      <trkpt lat="44.64214" lon="6.66334">
        <ele>1338.8</ele>
        <time>2022-07-19T17:02:44Z</time>
      </trkpt>
      <trkpt lat="44.64226" lon="6.66336">
        <ele>1337.6</ele>
        <time>2022-07-19T17:02:45Z</time>
      </trkpt>
      <trkpt lat="44.64238" lon="6.66336">
        <ele>1336.4</ele>
        <time>2022-07-19T17:02:46Z</time>
      </trkpt>
      <trkpt lat="44.6425" lon="6.66333">
        <ele>1335.2</ele>
        <time>2022-07-19T17:02:47Z</time>
      </trkpt>
      <trkpt lat="44.64262" lon="6.66328">
        <ele>1334</ele>
        <time>2022-07-19T17:02:48Z</time>
      </trkpt>
      <trkpt lat="44.64275" lon="6.66322">
        <ele>1332.8</ele>
        <time>2022-07-19T17:02:49Z</time>
      </trkpt>
      <trkpt lat="44.64286" lon="6.66315">
        <ele>1331.6</ele>
        <time>2022-07-19T17:02:50Z</time>
      </trkpt>
      <trkpt lat="44.64297" lon="6.66309">
        <ele>1330.4</ele>
        <time>2022-07-19T17:02:51Z</time>
      </trkpt>
      <trkpt lat="44.64307" lon="6.66303">
        <ele>1329.2</ele>
        <time>2022-07-19T17:02:52Z</time>
      </trkpt>
      <trkpt lat="44.64316" lon="6.66297">
        <ele>1328</ele>
        <time>2022-07-19T17:02:53Z</time>
      </trkpt>
      <trkpt lat="44.64324" lon="6.66291">
        <ele>1326.8</ele>
        <time>2022-07-19T17:02:54Z</time>
      </trkpt>
      <trkpt lat="44.6433" lon="6.66284">
        <ele>1325.8</ele>
        <time>2022-07-19T17:02:55Z</time>
      </trkpt>
      <trkpt lat="44.64333" lon="6.66276">
        <ele>1324.8</ele>
        <time>2022-07-19T17:02:56Z</time>
      </trkpt>
      <trkpt lat="44.64335" lon="6.66266">
        <ele>1323.8</ele>
        <time>2022-07-19T17:02:57Z</time>
      </trkpt>
      <trkpt lat="44.64335" lon="6.66256">
        <ele>1323</ele>
        <time>2022-07-19T17:02:58Z</time>
      </trkpt>
      <trkpt lat="44.64332" lon="6.66247">
        <ele>1322</ele>
        <time>2022-07-19T17:02:59Z</time>
      </trkpt>
      <trkpt lat="44.64328" lon="6.6624">
        <ele>1321.2</ele>
        <time>2022-07-19T17:03:00Z</time>
      </trkpt>
      <trkpt lat="44.64322" lon="6.66235">
        <ele>1320.4</ele>
        <time>2022-07-19T17:03:01Z</time>
      </trkpt>
      <trkpt lat="44.64314" lon="6.66232">
        <ele>1319.8</ele>
        <time>2022-07-19T17:03:02Z</time>
      </trkpt>
      <trkpt lat="44.64306" lon="6.66234">
        <ele>1319</ele>
        <time>2022-07-19T17:03:03Z</time>
      </trkpt>
      <trkpt lat="44.64298" lon="6.66238">
        <ele>1318.4</ele>
        <time>2022-07-19T17:03:04Z</time>
      </trkpt>
      <trkpt lat="44.64289" lon="6.66243">
        <ele>1317.6</ele>
        <time>2022-07-19T17:03:05Z</time>
      </trkpt>
      <trkpt lat="44.64278" lon="6.66246">
        <ele>1316.8</ele>
        <time>2022-07-19T17:03:06Z</time>
      </trkpt>
      <trkpt lat="44.64266" lon="6.66248">
        <ele>1315.8</ele>
        <time>2022-07-19T17:03:07Z</time>
      </trkpt>
      <trkpt lat="44.64254" lon="6.66247">
        <ele>1315</ele>
        <time>2022-07-19T17:03:08Z</time>
      </trkpt>
      <trkpt lat="44.64242" lon="6.66246">
        <ele>1313.8</ele>
        <time>2022-07-19T17:03:09Z</time>
      </trkpt>
      <trkpt lat="44.6423" lon="6.6625">
        <ele>1312.8</ele>
        <time>2022-07-19T17:03:10Z</time>
      </trkpt>
      <trkpt lat="44.6422" lon="6.66257">
        <ele>1311.6</ele>
        <time>2022-07-19T17:03:11Z</time>
      </trkpt>
      <trkpt lat="44.6421" lon="6.66263">
        <ele>1310.4</ele>
        <time>2022-07-19T17:03:12Z</time>
      </trkpt>
      <trkpt lat="44.64199" lon="6.66269">
        <ele>1309.2</ele>
        <time>2022-07-19T17:03:13Z</time>
      </trkpt>
      <trkpt lat="44.64187" lon="6.6627">
        <ele>1308</ele>
        <time>2022-07-19T17:03:14Z</time>
      </trkpt>
      <trkpt lat="44.64175" lon="6.66269">
        <ele>1307</ele>
        <time>2022-07-19T17:03:15Z</time>
      </trkpt>
      <trkpt lat="44.64164" lon="6.66266">
        <ele>1305.8</ele>
        <time>2022-07-19T17:03:16Z</time>
      </trkpt>
      <trkpt lat="44.64152" lon="6.66264">
        <ele>1304.8</ele>
        <time>2022-07-19T17:03:17Z</time>
      </trkpt>
      <trkpt lat="44.64143" lon="6.66262">
        <ele>1303.8</ele>
        <time>2022-07-19T17:03:18Z</time>
      </trkpt>
      <trkpt lat="44.64134" lon="6.66261">
        <ele>1302.8</ele>
        <time>2022-07-19T17:03:19Z</time>
      </trkpt>
      <trkpt lat="44.64126" lon="6.66261">
        <ele>1301.8</ele>
        <time>2022-07-19T17:03:20Z</time>
      </trkpt>
      <trkpt lat="44.64118" lon="6.66259">
        <ele>1300.8</ele>
        <time>2022-07-19T17:03:21Z</time>
      </trkpt>
      <trkpt lat="44.64112" lon="6.66254">
        <ele>1299.8</ele>
        <time>2022-07-19T17:03:22Z</time>
      </trkpt>
      <trkpt lat="44.64106" lon="6.66248">
        <ele>1298.8</ele>
        <time>2022-07-19T17:03:23Z</time>
      </trkpt>
      <trkpt lat="44.64104" lon="6.66239">
        <ele>1298</ele>
        <time>2022-07-19T17:03:24Z</time>
      </trkpt>
      <trkpt lat="44.64108" lon="6.66226">
        <ele>1297.2</ele>
        <time>2022-07-19T17:03:25Z</time>
      </trkpt>
      <trkpt lat="44.64113" lon="6.66214">
        <ele>1296.4</ele>
        <time>2022-07-19T17:03:26Z</time>
      </trkpt>
      <trkpt lat="44.64121" lon="6.66207">
        <ele>1295.4</ele>
        <time>2022-07-19T17:03:27Z</time>
      </trkpt>
      <trkpt lat="44.6413" lon="6.66203">
        <ele>1294.6</ele>
        <time>2022-07-19T17:03:28Z</time>
      </trkpt>
      <trkpt lat="44.64141" lon="6.66203">
        <ele>1293.8</ele>
        <time>2022-07-19T17:03:29Z</time>
      </trkpt>
      <trkpt lat="44.64153" lon="6.66204">
        <ele>1292.8</ele>
        <time>2022-07-19T17:03:30Z</time>
      </trkpt>
      <trkpt lat="44.64164" lon="6.66206">
        <ele>1291.8</ele>
        <time>2022-07-19T17:03:31Z</time>
      </trkpt>
      <trkpt lat="44.64176" lon="6.66208">
        <ele>1290.8</ele>
        <time>2022-07-19T17:03:32Z</time>
      </trkpt>
      <trkpt lat="44.64189" lon="6.66211">
        <ele>1289.8</ele>
        <time>2022-07-19T17:03:33Z</time>
      </trkpt>
      <trkpt lat="44.64201" lon="6.66212">
        <ele>1288.8</ele>
        <time>2022-07-19T17:03:34Z</time>
      </trkpt>
      <trkpt lat="44.64215" lon="6.66215">
        <ele>1287.6</ele>
        <time>2022-07-19T17:03:35Z</time>
      </trkpt>
      <trkpt lat="44.64228" lon="6.66216">
        <ele>1286.4</ele>
        <time>2022-07-19T17:03:36Z</time>
      </trkpt>
      <trkpt lat="44.64242" lon="6.66215">
        <ele>1285</ele>
        <time>2022-07-19T17:03:37Z</time>
      </trkpt>
      <trkpt lat="44.64255" lon="6.66208">
        <ele>1283.6</ele>
        <time>2022-07-19T17:03:38Z</time>
      </trkpt>
      <trkpt lat="44.64269" lon="6.66201">
        <ele>1282.4</ele>
        <time>2022-07-19T17:03:39Z</time>
      </trkpt>
      <trkpt lat="44.64281" lon="6.66194">
        <ele>1281</ele>
        <time>2022-07-19T17:03:40Z</time>
      </trkpt>
      <trkpt lat="44.64291" lon="6.66187">
        <ele>1279.6</ele>
        <time>2022-07-19T17:03:41Z</time>
      </trkpt>
      <trkpt lat="44.643" lon="6.6618">
        <ele>1278.2</ele>
        <time>2022-07-19T17:03:42Z</time>
      </trkpt>
      <trkpt lat="44.64307" lon="6.66172">
        <ele>1277</ele>
        <time>2022-07-19T17:03:43Z</time>
      </trkpt>
      <trkpt lat="44.64313" lon="6.66163">
        <ele>1275.8</ele>
        <time>2022-07-19T17:03:44Z</time>
      </trkpt>
      <trkpt lat="44.64316" lon="6.66151">
        <ele>1274.6</ele>
        <time>2022-07-19T17:03:45Z</time>
      </trkpt>
      <trkpt lat="44.64319" lon="6.66137">
        <ele>1273.6</ele>
        <time>2022-07-19T17:03:46Z</time>
      </trkpt>
      <trkpt lat="44.6432" lon="6.66123">
        <ele>1272.2</ele>
        <time>2022-07-19T17:03:47Z</time>
      </trkpt>
      <trkpt lat="44.6432" lon="6.66107">
        <ele>1271</ele>
        <time>2022-07-19T17:03:48Z</time>
      </trkpt>
      <trkpt lat="44.6432" lon="6.66091">
        <ele>1270</ele>
        <time>2022-07-19T17:03:49Z</time>
      </trkpt>
      <trkpt lat="44.64324" lon="6.66076">
        <ele>1269</ele>
        <time>2022-07-19T17:03:50Z</time>
      </trkpt>
      <trkpt lat="44.64331" lon="6.66063">
        <ele>1267.8</ele>
        <time>2022-07-19T17:03:51Z</time>
      </trkpt>
      <trkpt lat="44.64341" lon="6.66053">
        <ele>1266.8</ele>
        <time>2022-07-19T17:03:52Z</time>
      </trkpt>
      <trkpt lat="44.64352" lon="6.66044">
        <ele>1265.6</ele>
        <time>2022-07-19T17:03:53Z</time>
      </trkpt>
      <trkpt lat="44.64362" lon="6.66033">
        <ele>1264.4</ele>
        <time>2022-07-19T17:03:54Z</time>
      </trkpt>
      <trkpt lat="44.6437" lon="6.66019">
        <ele>1263.2</ele>
        <time>2022-07-19T17:03:55Z</time>
      </trkpt>
      <trkpt lat="44.64377" lon="6.66003">
        <ele>1262.2</ele>
        <time>2022-07-19T17:03:56Z</time>
      </trkpt>
      <trkpt lat="44.64383" lon="6.65986">
        <ele>1260.8</ele>
        <time>2022-07-19T17:03:57Z</time>
      </trkpt>
      <trkpt lat="44.6439" lon="6.6597">
        <ele>1259.4</ele>
        <time>2022-07-19T17:03:58Z</time>
      </trkpt>
      <trkpt lat="44.64398" lon="6.65954">
        <ele>1258</ele>
        <time>2022-07-19T17:03:59Z</time>
      </trkpt>
      <trkpt lat="44.64407" lon="6.6594">
        <ele>1256.6</ele>
        <time>2022-07-19T17:04:00Z</time>
      </trkpt>
      <trkpt lat="44.64417" lon="6.65927">
        <ele>1255.4</ele>
        <time>2022-07-19T17:04:01Z</time>
      </trkpt>
      <trkpt lat="44.6443" lon="6.65916">
        <ele>1254</ele>
        <time>2022-07-19T17:04:02Z</time>
      </trkpt>
      <trkpt lat="44.64443" lon="6.65906">
        <ele>1252.6</ele>
        <time>2022-07-19T17:04:03Z</time>
      </trkpt>
      <trkpt lat="44.64455" lon="6.65897">
        <ele>1251.4</ele>
        <time>2022-07-19T17:04:04Z</time>
      </trkpt>
      <trkpt lat="44.64467" lon="6.65889">
        <ele>1250.2</ele>
        <time>2022-07-19T17:04:05Z</time>
      </trkpt>
      <trkpt lat="44.64478" lon="6.6588">
        <ele>1249</ele>
        <time>2022-07-19T17:04:06Z</time>
      </trkpt>
      <trkpt lat="44.64488" lon="6.65874">
        <ele>1248</ele>
        <time>2022-07-19T17:04:07Z</time>
      </trkpt>
      <trkpt lat="44.64498" lon="6.65866">
        <ele>1247</ele>
        <time>2022-07-19T17:04:08Z</time>
      </trkpt>
      <trkpt lat="44.64507" lon="6.65857">
        <ele>1246</ele>
        <time>2022-07-19T17:04:09Z</time>
      </trkpt>
      <trkpt lat="44.64516" lon="6.65845">
        <ele>1245.2</ele>
        <time>2022-07-19T17:04:10Z</time>
      </trkpt>
      <trkpt lat="44.64523" lon="6.65832">
        <ele>1244.2</ele>
        <time>2022-07-19T17:04:11Z</time>
      </trkpt>
      <trkpt lat="44.6453" lon="6.65817">
        <ele>1243.2</ele>
        <time>2022-07-19T17:04:12Z</time>
      </trkpt>
      <trkpt lat="44.64537" lon="6.65801">
        <ele>1242.4</ele>
        <time>2022-07-19T17:04:13Z</time>
      </trkpt>
      <trkpt lat="44.64542" lon="6.65784">
        <ele>1241.4</ele>
        <time>2022-07-19T17:04:14Z</time>
      </trkpt>
      <trkpt lat="44.64547" lon="6.65769">
        <ele>1240.6</ele>
        <time>2022-07-19T17:04:15Z</time>
      </trkpt>
      <trkpt lat="44.64553" lon="6.65754">
        <ele>1239.8</ele>
        <time>2022-07-19T17:04:16Z</time>
      </trkpt>
      <trkpt lat="44.6456" lon="6.65742">
        <ele>1238.8</ele>
        <time>2022-07-19T17:04:17Z</time>
      </trkpt>
      <trkpt lat="44.64567" lon="6.65731">
        <ele>1237.8</ele>
        <time>2022-07-19T17:04:18Z</time>
      </trkpt>
      <trkpt lat="44.64574" lon="6.65722">
        <ele>1237</ele>
        <time>2022-07-19T17:04:19Z</time>
      </trkpt>
      <trkpt lat="44.6458" lon="6.65713">
        <ele>1236</ele>
        <time>2022-07-19T17:04:20Z</time>
      </trkpt>
      <trkpt lat="44.64587" lon="6.65704">
        <ele>1235.2</ele>
        <time>2022-07-19T17:04:21Z</time>
      </trkpt>
      <trkpt lat="44.64591" lon="6.65695">
        <ele>1234.4</ele>
        <time>2022-07-19T17:04:22Z</time>
      </trkpt>
      <trkpt lat="44.64595" lon="6.65686">
        <ele>1233.8</ele>
        <time>2022-07-19T17:04:23Z</time>
      </trkpt>
      <trkpt lat="44.64596" lon="6.65677">
        <ele>1233</ele>
        <time>2022-07-19T17:04:24Z</time>
      </trkpt>
      <trkpt lat="44.64595" lon="6.65666">
        <ele>1232.4</ele>
        <time>2022-07-19T17:04:25Z</time>
      </trkpt>
      <trkpt lat="44.64591" lon="6.65657">
        <ele>1231.8</ele>
        <time>2022-07-19T17:04:26Z</time>
      </trkpt>
      <trkpt lat="44.64585" lon="6.65651">
        <ele>1231.4</ele>
        <time>2022-07-19T17:04:27Z</time>
      </trkpt>
      <trkpt lat="44.64578" lon="6.65647">
        <ele>1231.4</ele>
        <time>2022-07-19T17:04:28Z</time>
      </trkpt>
      <trkpt lat="44.6457" lon="6.65645">
        <ele>1231</ele>
        <time>2022-07-19T17:04:29Z</time>
      </trkpt>
      <trkpt lat="44.64563" lon="6.65646">
        <ele>1230.2</ele>
        <time>2022-07-19T17:04:30Z</time>
      </trkpt>
      <trkpt lat="44.64555" lon="6.65649">
        <ele>1229.8</ele>
        <time>2022-07-19T17:04:31Z</time>
      </trkpt>
      <trkpt lat="44.64548" lon="6.65651">
        <ele>1229.6</ele>
        <time>2022-07-19T17:04:32Z</time>
      </trkpt>
      <trkpt lat="44.6454" lon="6.65654">
        <ele>1229.6</ele>
        <time>2022-07-19T17:04:33Z</time>
      </trkpt>
      <trkpt lat="44.64533" lon="6.65657">
        <ele>1229.2</ele>
        <time>2022-07-19T17:04:34Z</time>
      </trkpt>
      <trkpt lat="44.64525" lon="6.6566">
        <ele>1229.2</ele>
        <time>2022-07-19T17:04:35Z</time>
      </trkpt>
      <trkpt lat="44.64518" lon="6.65662">
        <ele>1228.8</ele>
        <time>2022-07-19T17:04:36Z</time>
      </trkpt>
      <trkpt lat="44.64511" lon="6.65664">
        <ele>1228.4</ele>
        <time>2022-07-19T17:04:37Z</time>
      </trkpt>
      <trkpt lat="44.64504" lon="6.65666">
        <ele>1228.4</ele>
        <time>2022-07-19T17:04:38Z</time>
      </trkpt>
      <trkpt lat="44.64497" lon="6.65668">
        <ele>1228.4</ele>
        <time>2022-07-19T17:04:39Z</time>
      </trkpt>
      <trkpt lat="44.64491" lon="6.6567">
        <ele>1228.2</ele>
        <time>2022-07-19T17:04:40Z</time>
      </trkpt>
      <trkpt lat="44.64484" lon="6.65672">
        <ele>1228.2</ele>
        <time>2022-07-19T17:04:41Z</time>
      </trkpt>
      <trkpt lat="44.64478" lon="6.65675">
        <ele>1228.2</ele>
        <time>2022-07-19T17:04:42Z</time>
      </trkpt>
      <trkpt lat="44.64472" lon="6.65678">
        <ele>1228</ele>
        <time>2022-07-19T17:04:43Z</time>
      </trkpt>
      <trkpt lat="44.64466" lon="6.65681">
        <ele>1228</ele>
        <time>2022-07-19T17:04:44Z</time>
      </trkpt>
      <trkpt lat="44.6446" lon="6.65684">
        <ele>1228</ele>
        <time>2022-07-19T17:04:45Z</time>
      </trkpt>
      <trkpt lat="44.64454" lon="6.65687">
        <ele>1228</ele>
        <time>2022-07-19T17:04:46Z</time>
      </trkpt>
      <trkpt lat="44.64448" lon="6.65691">
        <ele>1228</ele>
        <time>2022-07-19T17:04:47Z</time>
      </trkpt>
      <trkpt lat="44.64443" lon="6.65695">
        <ele>1227.6</ele>
        <time>2022-07-19T17:04:48Z</time>
      </trkpt>
      <trkpt lat="44.64437" lon="6.65699">
        <ele>1227.6</ele>
        <time>2022-07-19T17:04:49Z</time>
      </trkpt>
      <trkpt lat="44.64431" lon="6.65703">
        <ele>1227.2</ele>
        <time>2022-07-19T17:04:50Z</time>
      </trkpt>
      <trkpt lat="44.64425" lon="6.65707">
        <ele>1226.8</ele>
        <time>2022-07-19T17:04:51Z</time>
      </trkpt>
      <trkpt lat="44.64419" lon="6.65711">
        <ele>1226.4</ele>
        <time>2022-07-19T17:04:52Z</time>
      </trkpt>
      <trkpt lat="44.64413" lon="6.65716">
        <ele>1226.2</ele>
        <time>2022-07-19T17:04:53Z</time>
      </trkpt>
      <trkpt lat="44.64406" lon="6.6572">
        <ele>1226.2</ele>
        <time>2022-07-19T17:04:54Z</time>
      </trkpt>
      <trkpt lat="44.644" lon="6.65726">
        <ele>1225.8</ele>
        <time>2022-07-19T17:04:55Z</time>
      </trkpt>
      <trkpt lat="44.64394" lon="6.6573">
        <ele>1225.8</ele>
        <time>2022-07-19T17:04:56Z</time>
      </trkpt>
      <trkpt lat="44.64387" lon="6.65733">
        <ele>1225.4</ele>
        <time>2022-07-19T17:04:57Z</time>
      </trkpt>
      <trkpt lat="44.64381" lon="6.65734">
        <ele>1225</ele>
        <time>2022-07-19T17:04:58Z</time>
      </trkpt>
      <trkpt lat="44.64376" lon="6.65731">
        <ele>1224.6</ele>
        <time>2022-07-19T17:04:59Z</time>
      </trkpt>
      <trkpt lat="44.64372" lon="6.65726">
        <ele>1224.2</ele>
        <time>2022-07-19T17:05:00Z</time>
      </trkpt>
      <trkpt lat="44.64368" lon="6.65719">
        <ele>1223.6</ele>
        <time>2022-07-19T17:05:01Z</time>
      </trkpt>
      <trkpt lat="44.6437" lon="6.65709">
        <ele>1223</ele>
        <time>2022-07-19T17:05:02Z</time>
      </trkpt>
      <trkpt lat="44.64374" lon="6.657">
        <ele>1222.4</ele>
        <time>2022-07-19T17:05:03Z</time>
      </trkpt>
      <trkpt lat="44.6438" lon="6.65691">
        <ele>1221.6</ele>
        <time>2022-07-19T17:05:04Z</time>
      </trkpt>
      <trkpt lat="44.64388" lon="6.65685">
        <ele>1221</ele>
        <time>2022-07-19T17:05:05Z</time>
      </trkpt>
      <trkpt lat="44.64396" lon="6.65679">
        <ele>1220.4</ele>
        <time>2022-07-19T17:05:06Z</time>
      </trkpt>
      <trkpt lat="44.64405" lon="6.65675">
        <ele>1219.6</ele>
        <time>2022-07-19T17:05:07Z</time>
      </trkpt>
      <trkpt lat="44.64415" lon="6.65671">
        <ele>1219</ele>
        <time>2022-07-19T17:05:08Z</time>
      </trkpt>
      <trkpt lat="44.64425" lon="6.65666">
        <ele>1218.4</ele>
        <time>2022-07-19T17:05:09Z</time>
      </trkpt>
      <trkpt lat="44.64435" lon="6.65661">
        <ele>1217.6</ele>
        <time>2022-07-19T17:05:10Z</time>
      </trkpt>
      <trkpt lat="44.64446" lon="6.65654">
        <ele>1217</ele>
        <time>2022-07-19T17:05:11Z</time>
      </trkpt>
      <trkpt lat="44.64456" lon="6.65646">
        <ele>1216.4</ele>
        <time>2022-07-19T17:05:12Z</time>
      </trkpt>
      <trkpt lat="44.64466" lon="6.65638">
        <ele>1215.6</ele>
        <time>2022-07-19T17:05:13Z</time>
      </trkpt>
      <trkpt lat="44.64477" lon="6.6563">
        <ele>1215</ele>
        <time>2022-07-19T17:05:15Z</time>
      </trkpt>
      <trkpt lat="44.64487" lon="6.65621">
        <ele>1214.2</ele>
        <time>2022-07-19T17:05:16Z</time>
      </trkpt>
      <trkpt lat="44.64498" lon="6.65612">
        <ele>1213.4</ele>
        <time>2022-07-19T17:05:17Z</time>
      </trkpt>
      <trkpt lat="44.64507" lon="6.65601">
        <ele>1211.6</ele>
        <time>2022-07-19T17:05:18Z</time>
      </trkpt>
      <trkpt lat="44.64517" lon="6.65591">
        <ele>1210.6</ele>
        <time>2022-07-19T17:05:19Z</time>
      </trkpt>
      <trkpt lat="44.64527" lon="6.65581">
        <ele>1209.4</ele>
        <time>2022-07-19T17:05:20Z</time>
      </trkpt>
      <trkpt lat="44.64536" lon="6.65572">
        <ele>1208.6</ele>
        <time>2022-07-19T17:05:21Z</time>
      </trkpt>
      <trkpt lat="44.64544" lon="6.65563">
        <ele>1207.6</ele>
        <time>2022-07-19T17:05:22Z</time>
      </trkpt>
      <trkpt lat="44.64552" lon="6.65556">
        <ele>1206.8</ele>
        <time>2022-07-19T17:05:23Z</time>
      </trkpt>
      <trkpt lat="44.6456" lon="6.6555">
        <ele>1205.8</ele>
        <time>2022-07-19T17:05:24Z</time>
      </trkpt>
      <trkpt lat="44.64569" lon="6.65546">
        <ele>1204.8</ele>
        <time>2022-07-19T17:05:25Z</time>
      </trkpt>
      <trkpt lat="44.6458" lon="6.65546">
        <ele>1204</ele>
        <time>2022-07-19T17:05:26Z</time>
      </trkpt>
      <trkpt lat="44.64591" lon="6.65547">
        <ele>1203</ele>
        <time>2022-07-19T17:05:27Z</time>
      </trkpt>
      <trkpt lat="44.64603" lon="6.6555">
        <ele>1202.2</ele>
        <time>2022-07-19T17:05:28Z</time>
      </trkpt>
      <trkpt lat="44.64615" lon="6.65554">
        <ele>1201.2</ele>
        <time>2022-07-19T17:05:29Z</time>
      </trkpt>
      <trkpt lat="44.64627" lon="6.65558">
        <ele>1200.2</ele>
        <time>2022-07-19T17:05:30Z</time>
      </trkpt>
      <trkpt lat="44.64639" lon="6.65561">
        <ele>1199.4</ele>
        <time>2022-07-19T17:05:31Z</time>
      </trkpt>
      <trkpt lat="44.64651" lon="6.65565">
        <ele>1198.4</ele>
        <time>2022-07-19T17:05:32Z</time>
      </trkpt>
      <trkpt lat="44.64663" lon="6.65567">
        <ele>1197.4</ele>
        <time>2022-07-19T17:05:33Z</time>
      </trkpt>
      <trkpt lat="44.64676" lon="6.65569">
        <ele>1196.2</ele>
        <time>2022-07-19T17:05:34Z</time>
      </trkpt>
      <trkpt lat="44.64689" lon="6.65568">
        <ele>1195.2</ele>
        <time>2022-07-19T17:05:35Z</time>
      </trkpt>
      <trkpt lat="44.64702" lon="6.65567">
        <ele>1194.2</ele>
        <time>2022-07-19T17:05:36Z</time>
      </trkpt>
      <trkpt lat="44.64715" lon="6.65567">
        <ele>1193</ele>
        <time>2022-07-19T17:05:37Z</time>
      </trkpt>
      <trkpt lat="44.64729" lon="6.65566">
        <ele>1191.8</ele>
        <time>2022-07-19T17:05:38Z</time>
      </trkpt>
      <trkpt lat="44.64743" lon="6.65564">
        <ele>1190.4</ele>
        <time>2022-07-19T17:05:39Z</time>
      </trkpt>
      <trkpt lat="44.64756" lon="6.6556">
        <ele>1189</ele>
        <time>2022-07-19T17:05:40Z</time>
      </trkpt>
      <trkpt lat="44.6477" lon="6.65555">
        <ele>1187.6</ele>
        <time>2022-07-19T17:05:41Z</time>
      </trkpt>
      <trkpt lat="44.64785" lon="6.65549">
        <ele>1186.2</ele>
        <time>2022-07-19T17:05:42Z</time>
      </trkpt>
      <trkpt lat="44.64799" lon="6.65545">
        <ele>1184.8</ele>
        <time>2022-07-19T17:05:43Z</time>
      </trkpt>
      <trkpt lat="44.64813" lon="6.65543">
        <ele>1183.4</ele>
        <time>2022-07-19T17:05:44Z</time>
      </trkpt>
      <trkpt lat="44.64828" lon="6.6554">
        <ele>1182.2</ele>
        <time>2022-07-19T17:05:45Z</time>
      </trkpt>
      <trkpt lat="44.64842" lon="6.65536">
        <ele>1180.8</ele>
        <time>2022-07-19T17:05:46Z</time>
      </trkpt>
      <trkpt lat="44.64856" lon="6.65531">
        <ele>1179.6</ele>
        <time>2022-07-19T17:05:47Z</time>
      </trkpt>
      <trkpt lat="44.64869" lon="6.65524">
        <ele>1178.2</ele>
        <time>2022-07-19T17:05:48Z</time>
      </trkpt>
      <trkpt lat="44.64882" lon="6.65515">
        <ele>1177</ele>
        <time>2022-07-19T17:05:49Z</time>
      </trkpt>
      <trkpt lat="44.64895" lon="6.65505">
        <ele>1175.8</ele>
        <time>2022-07-19T17:05:50Z</time>
      </trkpt>
      <trkpt lat="44.64907" lon="6.65495">
        <ele>1174.6</ele>
        <time>2022-07-19T17:05:51Z</time>
      </trkpt>
      <trkpt lat="44.64918" lon="6.65486">
        <ele>1173.4</ele>
        <time>2022-07-19T17:05:52Z</time>
      </trkpt>
      <trkpt lat="44.6493" lon="6.65477">
        <ele>1172.2</ele>
        <time>2022-07-19T17:05:53Z</time>
      </trkpt>
      <trkpt lat="44.64941" lon="6.65472">
        <ele>1171</ele>
        <time>2022-07-19T17:05:54Z</time>
      </trkpt>
      <trkpt lat="44.64953" lon="6.6547">
        <ele>1169.8</ele>
        <time>2022-07-19T17:05:55Z</time>
      </trkpt>
      <trkpt lat="44.64965" lon="6.65468">
        <ele>1168.8</ele>
        <time>2022-07-19T17:05:56Z</time>
      </trkpt>
      <trkpt lat="44.64976" lon="6.65465">
        <ele>1167.6</ele>
        <time>2022-07-19T17:05:57Z</time>
      </trkpt>
      <trkpt lat="44.64986" lon="6.65458">
        <ele>1166.6</ele>
        <time>2022-07-19T17:05:58Z</time>
      </trkpt>
      <trkpt lat="44.64995" lon="6.65449">
        <ele>1165.6</ele>
        <time>2022-07-19T17:05:59Z</time>
      </trkpt>
      <trkpt lat="44.65002" lon="6.65438">
        <ele>1164.6</ele>
        <time>2022-07-19T17:06:00Z</time>
      </trkpt>
      <trkpt lat="44.65012" lon="6.65411">
        <ele>1162.8</ele>
        <time>2022-07-19T17:06:01Z</time>
      </trkpt>
      <trkpt lat="44.65013" lon="6.65395">
        <ele>1162</ele>
        <time>2022-07-19T17:06:02Z</time>
      </trkpt>
      <trkpt lat="44.65012" lon="6.65378">
        <ele>1161</ele>
        <time>2022-07-19T17:06:03Z</time>
      </trkpt>
      <trkpt lat="44.65011" lon="6.65361">
        <ele>1160</ele>
        <time>2022-07-19T17:06:04Z</time>
      </trkpt>
      <trkpt lat="44.65009" lon="6.65344">
        <ele>1159</ele>
        <time>2022-07-19T17:06:05Z</time>
      </trkpt>
      <trkpt lat="44.6501" lon="6.6533">
        <ele>1158</ele>
        <time>2022-07-19T17:06:06Z</time>
      </trkpt>
      <trkpt lat="44.65011" lon="6.65315">
        <ele>1157</ele>
        <time>2022-07-19T17:06:07Z</time>
      </trkpt>
      <trkpt lat="44.65015" lon="6.65302">
        <ele>1156.2</ele>
        <time>2022-07-19T17:06:08Z</time>
      </trkpt>
      <trkpt lat="44.65021" lon="6.65289">
        <ele>1155.2</ele>
        <time>2022-07-19T17:06:09Z</time>
      </trkpt>
      <trkpt lat="44.65029" lon="6.65277">
        <ele>1154</ele>
        <time>2022-07-19T17:06:10Z</time>
      </trkpt>
      <trkpt lat="44.65038" lon="6.65267">
        <ele>1153</ele>
        <time>2022-07-19T17:06:11Z</time>
      </trkpt>
      <trkpt lat="44.65046" lon="6.65256">
        <ele>1152</ele>
        <time>2022-07-19T17:06:12Z</time>
      </trkpt>
      <trkpt lat="44.65053" lon="6.65244">
        <ele>1151.2</ele>
        <time>2022-07-19T17:06:13Z</time>
      </trkpt>
      <trkpt lat="44.65059" lon="6.65231">
        <ele>1150.2</ele>
        <time>2022-07-19T17:06:14Z</time>
      </trkpt>
      <trkpt lat="44.65064" lon="6.65218">
        <ele>1149.2</ele>
        <time>2022-07-19T17:06:15Z</time>
      </trkpt>
      <trkpt lat="44.65067" lon="6.65204">
        <ele>1148.2</ele>
        <time>2022-07-19T17:06:16Z</time>
      </trkpt>
      <trkpt lat="44.65066" lon="6.65188">
        <ele>1147</ele>
        <time>2022-07-19T17:06:17Z</time>
      </trkpt>
      <trkpt lat="44.65064" lon="6.65172">
        <ele>1146</ele>
        <time>2022-07-19T17:06:18Z</time>
      </trkpt>
      <trkpt lat="44.6506" lon="6.65156">
        <ele>1145</ele>
        <time>2022-07-19T17:06:19Z</time>
      </trkpt>
      <trkpt lat="44.65054" lon="6.65139">
        <ele>1144</ele>
        <time>2022-07-19T17:06:20Z</time>
      </trkpt>
      <trkpt lat="44.6505" lon="6.65124">
        <ele>1143</ele>
        <time>2022-07-19T17:06:21Z</time>
      </trkpt>
      <trkpt lat="44.65049" lon="6.6511">
        <ele>1142</ele>
        <time>2022-07-19T17:06:22Z</time>
      </trkpt>
      <trkpt lat="44.65049" lon="6.65095">
        <ele>1141</ele>
        <time>2022-07-19T17:06:23Z</time>
      </trkpt>
      <trkpt lat="44.65053" lon="6.65081">
        <ele>1140</ele>
        <time>2022-07-19T17:06:24Z</time>
      </trkpt>
      <trkpt lat="44.65059" lon="6.65069">
        <ele>1139.2</ele>
        <time>2022-07-19T17:06:25Z</time>
      </trkpt>
      <trkpt lat="44.65066" lon="6.65059">
        <ele>1138.2</ele>
        <time>2022-07-19T17:06:26Z</time>
      </trkpt>
      <trkpt lat="44.65074" lon="6.65051">
        <ele>1137.4</ele>
        <time>2022-07-19T17:06:27Z</time>
      </trkpt>
      <trkpt lat="44.65083" lon="6.65048">
        <ele>1136.4</ele>
        <time>2022-07-19T17:06:28Z</time>
      </trkpt>
      <trkpt lat="44.65093" lon="6.65046">
        <ele>1135.6</ele>
        <time>2022-07-19T17:06:29Z</time>
      </trkpt>
      <trkpt lat="44.65103" lon="6.65047">
        <ele>1134.6</ele>
        <time>2022-07-19T17:06:30Z</time>
      </trkpt>
      <trkpt lat="44.65113" lon="6.6505">
        <ele>1133.8</ele>
        <time>2022-07-19T17:06:31Z</time>
      </trkpt>
      <trkpt lat="44.65124" lon="6.65054">
        <ele>1132.8</ele>
        <time>2022-07-19T17:06:32Z</time>
      </trkpt>
      <trkpt lat="44.65134" lon="6.65058">
        <ele>1132</ele>
        <time>2022-07-19T17:06:33Z</time>
      </trkpt>
      <trkpt lat="44.65145" lon="6.65059">
        <ele>1131.2</ele>
        <time>2022-07-19T17:06:34Z</time>
      </trkpt>
      <trkpt lat="44.65156" lon="6.65056">
        <ele>1130.2</ele>
        <time>2022-07-19T17:06:35Z</time>
      </trkpt>
      <trkpt lat="44.65167" lon="6.65049">
        <ele>1129.2</ele>
        <time>2022-07-19T17:06:36Z</time>
      </trkpt>
      <trkpt lat="44.6518" lon="6.65044">
        <ele>1128.2</ele>
        <time>2022-07-19T17:06:37Z</time>
      </trkpt>
      <trkpt lat="44.65193" lon="6.65038">
        <ele>1127</ele>
        <time>2022-07-19T17:06:38Z</time>
      </trkpt>
      <trkpt lat="44.65205" lon="6.65034">
        <ele>1126</ele>
        <time>2022-07-19T17:06:39Z</time>
      </trkpt>
      <trkpt lat="44.65218" lon="6.65028">
        <ele>1124.8</ele>
        <time>2022-07-19T17:06:40Z</time>
      </trkpt>
      <trkpt lat="44.65229" lon="6.65021">
        <ele>1123.6</ele>
        <time>2022-07-19T17:06:41Z</time>
      </trkpt>
      <trkpt lat="44.6524" lon="6.65014">
        <ele>1122.4</ele>
        <time>2022-07-19T17:06:42Z</time>
      </trkpt>
      <trkpt lat="44.65251" lon="6.65008">
        <ele>1121.4</ele>
        <time>2022-07-19T17:06:43Z</time>
      </trkpt>
      <trkpt lat="44.6526" lon="6.65001">
        <ele>1120.4</ele>
        <time>2022-07-19T17:06:44Z</time>
      </trkpt>
      <trkpt lat="44.65268" lon="6.64995">
        <ele>1119.4</ele>
        <time>2022-07-19T17:06:45Z</time>
      </trkpt>
      <trkpt lat="44.65276" lon="6.6499">
        <ele>1118.6</ele>
        <time>2022-07-19T17:06:46Z</time>
      </trkpt>
      <trkpt lat="44.65284" lon="6.64989">
        <ele>1117.6</ele>
        <time>2022-07-19T17:06:47Z</time>
      </trkpt>
      <trkpt lat="44.65293" lon="6.64989">
        <ele>1116.8</ele>
        <time>2022-07-19T17:06:48Z</time>
      </trkpt>
      <trkpt lat="44.653" lon="6.64994">
        <ele>1115.8</ele>
        <time>2022-07-19T17:06:49Z</time>
      </trkpt>
      <trkpt lat="44.65307" lon="6.65003">
        <ele>1115</ele>
        <time>2022-07-19T17:06:50Z</time>
      </trkpt>
      <trkpt lat="44.65312" lon="6.65015">
        <ele>1114</ele>
        <time>2022-07-19T17:06:52Z</time>
      </trkpt>
      <trkpt lat="44.65316" lon="6.65029">
        <ele>1113.2</ele>
        <time>2022-07-19T17:06:53Z</time>
      </trkpt>
      <trkpt lat="44.65317" lon="6.65045">
        <ele>1112.2</ele>
        <time>2022-07-19T17:06:54Z</time>
      </trkpt>
      <trkpt lat="44.65319" lon="6.65061">
        <ele>1111.4</ele>
        <time>2022-07-19T17:06:55Z</time>
      </trkpt>
      <trkpt lat="44.65321" lon="6.65078">
        <ele>1110.4</ele>
        <time>2022-07-19T17:06:56Z</time>
      </trkpt>
      <trkpt lat="44.65325" lon="6.65094">
        <ele>1109.4</ele>
        <time>2022-07-19T17:06:57Z</time>
      </trkpt>
      <trkpt lat="44.65328" lon="6.6511">
        <ele>1108.6</ele>
        <time>2022-07-19T17:06:58Z</time>
      </trkpt>
      <trkpt lat="44.65332" lon="6.65125">
        <ele>1107.6</ele>
        <time>2022-07-19T17:06:59Z</time>
      </trkpt>
      <trkpt lat="44.65334" lon="6.65142">
        <ele>1106.8</ele>
        <time>2022-07-19T17:07:00Z</time>
      </trkpt>
      <trkpt lat="44.65337" lon="6.65158">
        <ele>1105.8</ele>
        <time>2022-07-19T17:07:01Z</time>
      </trkpt>
      <trkpt lat="44.65339" lon="6.65172">
        <ele>1105</ele>
        <time>2022-07-19T17:07:02Z</time>
      </trkpt>
      <trkpt lat="44.65341" lon="6.65185">
        <ele>1104.2</ele>
        <time>2022-07-19T17:07:03Z</time>
      </trkpt>
      <trkpt lat="44.65345" lon="6.65196">
        <ele>1103.4</ele>
        <time>2022-07-19T17:07:04Z</time>
      </trkpt>
      <trkpt lat="44.65349" lon="6.65205">
        <ele>1102.8</ele>
        <time>2022-07-19T17:07:05Z</time>
      </trkpt>
      <trkpt lat="44.65355" lon="6.65211">
        <ele>1102.2</ele>
        <time>2022-07-19T17:07:06Z</time>
      </trkpt>
      <trkpt lat="44.65363" lon="6.65215">
        <ele>1101.6</ele>
        <time>2022-07-19T17:07:07Z</time>
      </trkpt>
      <trkpt lat="44.65372" lon="6.65216">
        <ele>1101</ele>
        <time>2022-07-19T17:07:08Z</time>
      </trkpt>
      <trkpt lat="44.65384" lon="6.65216">
        <ele>1100.2</ele>
        <time>2022-07-19T17:07:09Z</time>
      </trkpt>
      <trkpt lat="44.65393" lon="6.65212">
        <ele>1099.6</ele>
        <time>2022-07-19T17:07:10Z</time>
      </trkpt>
      <trkpt lat="44.65402" lon="6.65204">
        <ele>1099</ele>
        <time>2022-07-19T17:07:11Z</time>
      </trkpt>
      <trkpt lat="44.6541" lon="6.65194">
        <ele>1098.2</ele>
        <time>2022-07-19T17:07:12Z</time>
      </trkpt>
      <trkpt lat="44.65417" lon="6.65183">
        <ele>1097.4</ele>
        <time>2022-07-19T17:07:13Z</time>
      </trkpt>
      <trkpt lat="44.65423" lon="6.65172">
        <ele>1096.8</ele>
        <time>2022-07-19T17:07:14Z</time>
      </trkpt>
      <trkpt lat="44.65427" lon="6.65158">
        <ele>1096</ele>
        <time>2022-07-19T17:07:15Z</time>
      </trkpt>
      <trkpt lat="44.6543" lon="6.65144">
        <ele>1095.2</ele>
        <time>2022-07-19T17:07:16Z</time>
      </trkpt>
      <trkpt lat="44.65432" lon="6.6513">
        <ele>1094.2</ele>
        <time>2022-07-19T17:07:17Z</time>
      </trkpt>
      <trkpt lat="44.65432" lon="6.65115">
        <ele>1093.4</ele>
        <time>2022-07-19T17:07:18Z</time>
      </trkpt>
      <trkpt lat="44.65433" lon="6.65099">
        <ele>1092.4</ele>
        <time>2022-07-19T17:07:19Z</time>
      </trkpt>
      <trkpt lat="44.65433" lon="6.65085">
        <ele>1091.4</ele>
        <time>2022-07-19T17:07:20Z</time>
      </trkpt>
      <trkpt lat="44.65432" lon="6.65072">
        <ele>1090.6</ele>
        <time>2022-07-19T17:07:21Z</time>
      </trkpt>
      <trkpt lat="44.6543" lon="6.6506">
        <ele>1089.8</ele>
        <time>2022-07-19T17:07:22Z</time>
      </trkpt>
      <trkpt lat="44.65426" lon="6.65047">
        <ele>1089</ele>
        <time>2022-07-19T17:07:23Z</time>
      </trkpt>
      <trkpt lat="44.65421" lon="6.65036">
        <ele>1088.4</ele>
        <time>2022-07-19T17:07:24Z</time>
      </trkpt>
      <trkpt lat="44.65413" lon="6.65027">
        <ele>1087.6</ele>
        <time>2022-07-19T17:07:25Z</time>
      </trkpt>
      <trkpt lat="44.65404" lon="6.65019">
        <ele>1086.8</ele>
        <time>2022-07-19T17:07:26Z</time>
      </trkpt>
      <trkpt lat="44.65395" lon="6.65013">
        <ele>1086.2</ele>
        <time>2022-07-19T17:07:27Z</time>
      </trkpt>
      <trkpt lat="44.65387" lon="6.65007">
        <ele>1085.6</ele>
        <time>2022-07-19T17:07:28Z</time>
      </trkpt>
      <trkpt lat="44.6538" lon="6.64998">
        <ele>1085</ele>
        <time>2022-07-19T17:07:29Z</time>
      </trkpt>
      <trkpt lat="44.65377" lon="6.64988">
        <ele>1084.4</ele>
        <time>2022-07-19T17:07:30Z</time>
      </trkpt>
      <trkpt lat="44.65377" lon="6.64978">
        <ele>1083.8</ele>
        <time>2022-07-19T17:07:31Z</time>
      </trkpt>
      <trkpt lat="44.65381" lon="6.64968">
        <ele>1083.2</ele>
        <time>2022-07-19T17:07:32Z</time>
      </trkpt>
      <trkpt lat="44.65386" lon="6.6496">
        <ele>1082.6</ele>
        <time>2022-07-19T17:07:33Z</time>
      </trkpt>
      <trkpt lat="44.65394" lon="6.64955">
        <ele>1082</ele>
        <time>2022-07-19T17:07:34Z</time>
      </trkpt>
      <trkpt lat="44.65404" lon="6.64954">
        <ele>1081.4</ele>
        <time>2022-07-19T17:07:35Z</time>
      </trkpt>
      <trkpt lat="44.65415" lon="6.64956">
        <ele>1080.6</ele>
        <time>2022-07-19T17:07:36Z</time>
      </trkpt>
      <trkpt lat="44.65425" lon="6.64961">
        <ele>1080</ele>
        <time>2022-07-19T17:07:37Z</time>
      </trkpt>
      <trkpt lat="44.65435" lon="6.64967">
        <ele>1079.4</ele>
        <time>2022-07-19T17:07:38Z</time>
      </trkpt>
      <trkpt lat="44.65445" lon="6.64971">
        <ele>1078.8</ele>
        <time>2022-07-19T17:07:39Z</time>
      </trkpt>
      <trkpt lat="44.65455" lon="6.64973">
        <ele>1078.2</ele>
        <time>2022-07-19T17:07:40Z</time>
      </trkpt>
      <trkpt lat="44.65465" lon="6.64972">
        <ele>1077.6</ele>
        <time>2022-07-19T17:07:41Z</time>
      </trkpt>
      <trkpt lat="44.65476" lon="6.64969">
        <ele>1077</ele>
        <time>2022-07-19T17:07:42Z</time>
      </trkpt>
      <trkpt lat="44.65485" lon="6.64967">
        <ele>1076.2</ele>
        <time>2022-07-19T17:07:43Z</time>
      </trkpt>
      <trkpt lat="44.65495" lon="6.64972">
        <ele>1075.4</ele>
        <time>2022-07-19T17:07:44Z</time>
      </trkpt>
      <trkpt lat="44.65504" lon="6.6498">
        <ele>1074.6</ele>
        <time>2022-07-19T17:07:45Z</time>
      </trkpt>
      <trkpt lat="44.6551" lon="6.64993">
        <ele>1073.8</ele>
        <time>2022-07-19T17:07:46Z</time>
      </trkpt>
      <trkpt lat="44.65516" lon="6.65008">
        <ele>1072.8</ele>
        <time>2022-07-19T17:07:47Z</time>
      </trkpt>
      <trkpt lat="44.65521" lon="6.65022">
        <ele>1072</ele>
        <time>2022-07-19T17:07:48Z</time>
      </trkpt>
      <trkpt lat="44.65527" lon="6.65035">
        <ele>1071</ele>
        <time>2022-07-19T17:07:49Z</time>
      </trkpt>
      <trkpt lat="44.65535" lon="6.65047">
        <ele>1070.2</ele>
        <time>2022-07-19T17:07:50Z</time>
      </trkpt>
      <trkpt lat="44.65543" lon="6.65057">
        <ele>1069.2</ele>
        <time>2022-07-19T17:07:51Z</time>
      </trkpt>
      <trkpt lat="44.6555" lon="6.65066">
        <ele>1068.4</ele>
        <time>2022-07-19T17:07:52Z</time>
      </trkpt>
      <trkpt lat="44.65555" lon="6.65075">
        <ele>1067.6</ele>
        <time>2022-07-19T17:07:53Z</time>
      </trkpt>
      <trkpt lat="44.65557" lon="6.65085">
        <ele>1067</ele>
        <time>2022-07-19T17:07:54Z</time>
      </trkpt>
      <trkpt lat="44.65558" lon="6.65095">
        <ele>1066.4</ele>
        <time>2022-07-19T17:07:55Z</time>
      </trkpt>
      <trkpt lat="44.65558" lon="6.65106">
        <ele>1065.8</ele>
        <time>2022-07-19T17:07:56Z</time>
      </trkpt>
      <trkpt lat="44.65556" lon="6.65116">
        <ele>1065.2</ele>
        <time>2022-07-19T17:07:57Z</time>
      </trkpt>
      <trkpt lat="44.65551" lon="6.65126">
        <ele>1064.8</ele>
        <time>2022-07-19T17:07:58Z</time>
      </trkpt>
      <trkpt lat="44.65545" lon="6.65133">
        <ele>1064.2</ele>
        <time>2022-07-19T17:07:59Z</time>
      </trkpt>
      <trkpt lat="44.65538" lon="6.65139">
        <ele>1063.8</ele>
        <time>2022-07-19T17:08:00Z</time>
      </trkpt>
      <trkpt lat="44.6553" lon="6.65144">
        <ele>1063.2</ele>
        <time>2022-07-19T17:08:01Z</time>
      </trkpt>
      <trkpt lat="44.65522" lon="6.65149">
        <ele>1062.8</ele>
        <time>2022-07-19T17:08:02Z</time>
      </trkpt>
      <trkpt lat="44.65515" lon="6.65155">
        <ele>1062.2</ele>
        <time>2022-07-19T17:08:03Z</time>
      </trkpt>
      <trkpt lat="44.65509" lon="6.65161">
        <ele>1061.8</ele>
        <time>2022-07-19T17:08:04Z</time>
      </trkpt>
      <trkpt lat="44.65504" lon="6.65166">
        <ele>1061.4</ele>
        <time>2022-07-19T17:08:05Z</time>
      </trkpt>
      <trkpt lat="44.65501" lon="6.6517">
        <ele>1061.2</ele>
        <time>2022-07-19T17:08:06Z</time>
      </trkpt>
      <trkpt lat="44.65498" lon="6.65172">
        <ele>1061.2</ele>
        <time>2022-07-19T17:08:07Z</time>
      </trkpt>
      <trkpt lat="44.65496" lon="6.65172">
        <ele>1060.8</ele>
        <time>2022-07-19T17:08:08Z</time>
      </trkpt>
      <trkpt lat="44.65496" lon="6.65173">
        <ele>1060.8</ele>
        <time>2022-07-19T17:08:09Z</time>
      </trkpt>
      <trkpt lat="44.65494" lon="6.65175">
        <ele>1060.6</ele>
        <time>2022-07-19T17:08:15Z</time>
      </trkpt>
      <trkpt lat="44.65492" lon="6.65176">
        <ele>1060.6</ele>
        <time>2022-07-19T17:08:16Z</time>
      </trkpt>
      <trkpt lat="44.6549" lon="6.65178">
        <ele>1060.6</ele>
        <time>2022-07-19T17:08:17Z</time>
      </trkpt>
      <trkpt lat="44.65488" lon="6.6518">
        <ele>1060.6</ele>
        <time>2022-07-19T17:08:18Z</time>
      </trkpt>
      <trkpt lat="44.65486" lon="6.65183">
        <ele>1060.2</ele>
        <time>2022-07-19T17:08:19Z</time>
      </trkpt>
      <trkpt lat="44.65485" lon="6.65186">
        <ele>1060.2</ele>
        <time>2022-07-19T17:08:20Z</time>
      </trkpt>
      <trkpt lat="44.65484" lon="6.6519">
        <ele>1060.2</ele>
        <time>2022-07-19T17:08:21Z</time>
      </trkpt>
      <trkpt lat="44.65484" lon="6.65195">
        <ele>1060.2</ele>
        <time>2022-07-19T17:08:22Z</time>
      </trkpt>
      <trkpt lat="44.65486" lon="6.652">
        <ele>1060</ele>
        <time>2022-07-19T17:08:23Z</time>
      </trkpt>
      <trkpt lat="44.65488" lon="6.65205">
        <ele>1060</ele>
        <time>2022-07-19T17:08:24Z</time>
      </trkpt>
      <trkpt lat="44.65491" lon="6.65209">
        <ele>1059.6</ele>
        <time>2022-07-19T17:08:25Z</time>
      </trkpt>
      <trkpt lat="44.65496" lon="6.65212">
        <ele>1059.6</ele>
        <time>2022-07-19T17:08:26Z</time>
      </trkpt>
      <trkpt lat="44.65501" lon="6.65215">
        <ele>1059.4</ele>
        <time>2022-07-19T17:08:27Z</time>
      </trkpt>
      <trkpt lat="44.65507" lon="6.65219">
        <ele>1059.4</ele>
        <time>2022-07-19T17:08:28Z</time>
      </trkpt>
      <trkpt lat="44.65512" lon="6.65224">
        <ele>1059</ele>
        <time>2022-07-19T17:08:29Z</time>
      </trkpt>
      <trkpt lat="44.65516" lon="6.65229">
        <ele>1058.8</ele>
        <time>2022-07-19T17:08:30Z</time>
      </trkpt>
      <trkpt lat="44.65521" lon="6.65236">
        <ele>1058.4</ele>
        <time>2022-07-19T17:08:31Z</time>
      </trkpt>
      <trkpt lat="44.65526" lon="6.65243">
        <ele>1058</ele>
        <time>2022-07-19T17:08:32Z</time>
      </trkpt>
      <trkpt lat="44.65532" lon="6.6525">
        <ele>1057.6</ele>
        <time>2022-07-19T17:08:33Z</time>
      </trkpt>
      <trkpt lat="44.65538" lon="6.65256">
        <ele>1057.2</ele>
        <time>2022-07-19T17:08:34Z</time>
      </trkpt>
      <trkpt lat="44.65545" lon="6.6526">
        <ele>1056.8</ele>
        <time>2022-07-19T17:08:35Z</time>
      </trkpt>
      <trkpt lat="44.65553" lon="6.65263">
        <ele>1056.4</ele>
        <time>2022-07-19T17:08:36Z</time>
      </trkpt>
      <trkpt lat="44.65561" lon="6.65263">
        <ele>1056</ele>
        <time>2022-07-19T17:08:37Z</time>
      </trkpt>
      <trkpt lat="44.65571" lon="6.65262">
        <ele>1055.6</ele>
        <time>2022-07-19T17:08:38Z</time>
      </trkpt>
      <trkpt lat="44.65581" lon="6.65258">
        <ele>1054.8</ele>
        <time>2022-07-19T17:08:39Z</time>
      </trkpt>
      <trkpt lat="44.65591" lon="6.65252">
        <ele>1054.2</ele>
        <time>2022-07-19T17:08:40Z</time>
      </trkpt>
      <trkpt lat="44.65602" lon="6.65246">
        <ele>1053.6</ele>
        <time>2022-07-19T17:08:41Z</time>
      </trkpt>
      <trkpt lat="44.65611" lon="6.65241">
        <ele>1052.8</ele>
        <time>2022-07-19T17:08:42Z</time>
      </trkpt>
      <trkpt lat="44.65621" lon="6.65233">
        <ele>1052</ele>
        <time>2022-07-19T17:08:43Z</time>
      </trkpt>
      <trkpt lat="44.6563" lon="6.65227">
        <ele>1051</ele>
        <time>2022-07-19T17:08:44Z</time>
      </trkpt>
      <trkpt lat="44.65637" lon="6.6522">
        <ele>1050.2</ele>
        <time>2022-07-19T17:08:45Z</time>
      </trkpt>
      <trkpt lat="44.65645" lon="6.65215">
        <ele>1049.4</ele>
        <time>2022-07-19T17:08:46Z</time>
      </trkpt>
      <trkpt lat="44.65652" lon="6.65209">
        <ele>1048.8</ele>
        <time>2022-07-19T17:08:47Z</time>
      </trkpt>
      <trkpt lat="44.65658" lon="6.65203">
        <ele>1048</ele>
        <time>2022-07-19T17:08:48Z</time>
      </trkpt>
      <trkpt lat="44.65664" lon="6.65196">
        <ele>1047.4</ele>
        <time>2022-07-19T17:08:49Z</time>
      </trkpt>
      <trkpt lat="44.6567" lon="6.6519">
        <ele>1046.8</ele>
        <time>2022-07-19T17:08:50Z</time>
      </trkpt>
      <trkpt lat="44.65675" lon="6.65185">
        <ele>1046.2</ele>
        <time>2022-07-19T17:08:51Z</time>
      </trkpt>
      <trkpt lat="44.6568" lon="6.65179">
        <ele>1045.6</ele>
        <time>2022-07-19T17:08:52Z</time>
      </trkpt>
      <trkpt lat="44.65685" lon="6.65172">
        <ele>1045</ele>
        <time>2022-07-19T17:08:53Z</time>
      </trkpt>
      <trkpt lat="44.65688" lon="6.65163">
        <ele>1044.4</ele>
        <time>2022-07-19T17:08:54Z</time>
      </trkpt>
      <trkpt lat="44.65691" lon="6.65153">
        <ele>1043.8</ele>
        <time>2022-07-19T17:08:55Z</time>
      </trkpt>
      <trkpt lat="44.65694" lon="6.65144">
        <ele>1043.2</ele>
        <time>2022-07-19T17:08:56Z</time>
      </trkpt>
      <trkpt lat="44.657" lon="6.65137">
        <ele>1043</ele>
        <time>2022-07-19T17:08:57Z</time>
      </trkpt>
      <trkpt lat="44.65706" lon="6.65132">
        <ele>1042.6</ele>
        <time>2022-07-19T17:08:58Z</time>
      </trkpt>
      <trkpt lat="44.65713" lon="6.65127">
        <ele>1042.4</ele>
        <time>2022-07-19T17:08:59Z</time>
      </trkpt>
      <trkpt lat="44.6572" lon="6.65122">
        <ele>1041.8</ele>
        <time>2022-07-19T17:09:00Z</time>
      </trkpt>
      <trkpt lat="44.65728" lon="6.65116">
        <ele>1041.6</ele>
        <time>2022-07-19T17:09:01Z</time>
      </trkpt>
      <trkpt lat="44.65735" lon="6.65109">
        <ele>1041.2</ele>
        <time>2022-07-19T17:09:02Z</time>
      </trkpt>
      <trkpt lat="44.65743" lon="6.65102">
        <ele>1040.8</ele>
        <time>2022-07-19T17:09:03Z</time>
      </trkpt>
      <trkpt lat="44.6575" lon="6.65095">
        <ele>1040.2</ele>
        <time>2022-07-19T17:09:04Z</time>
      </trkpt>
      <trkpt lat="44.65758" lon="6.65087">
        <ele>1039.6</ele>
        <time>2022-07-19T17:09:05Z</time>
      </trkpt>
      <trkpt lat="44.65767" lon="6.6508">
        <ele>1039.2</ele>
        <time>2022-07-19T17:09:06Z</time>
      </trkpt>
      <trkpt lat="44.65775" lon="6.65073">
        <ele>1038.6</ele>
        <time>2022-07-19T17:09:07Z</time>
      </trkpt>
      <trkpt lat="44.65784" lon="6.65066">
        <ele>1038</ele>
        <time>2022-07-19T17:09:08Z</time>
      </trkpt>
      <trkpt lat="44.65794" lon="6.65059">
        <ele>1037.4</ele>
        <time>2022-07-19T17:09:09Z</time>
      </trkpt>
      <trkpt lat="44.65804" lon="6.65052">
        <ele>1036.8</ele>
        <time>2022-07-19T17:09:10Z</time>
      </trkpt>
      <trkpt lat="44.65813" lon="6.65043">
        <ele>1036.2</ele>
        <time>2022-07-19T17:09:11Z</time>
      </trkpt>
      <trkpt lat="44.65821" lon="6.65036">
        <ele>1035.4</ele>
        <time>2022-07-19T17:09:12Z</time>
      </trkpt>
      <trkpt lat="44.65828" lon="6.65028">
        <ele>1034.8</ele>
        <time>2022-07-19T17:09:13Z</time>
      </trkpt>
      <trkpt lat="44.65835" lon="6.65019">
        <ele>1034</ele>
        <time>2022-07-19T17:09:14Z</time>
      </trkpt>
      <trkpt lat="44.6584" lon="6.65007">
        <ele>1033.4</ele>
        <time>2022-07-19T17:09:15Z</time>
      </trkpt>
      <trkpt lat="44.65843" lon="6.64993">
        <ele>1032.8</ele>
        <time>2022-07-19T17:09:16Z</time>
      </trkpt>
      <trkpt lat="44.65845" lon="6.64979">
        <ele>1032.2</ele>
        <time>2022-07-19T17:09:17Z</time>
      </trkpt>
      <trkpt lat="44.65846" lon="6.64964">
        <ele>1031.4</ele>
        <time>2022-07-19T17:09:18Z</time>
      </trkpt>
      <trkpt lat="44.65845" lon="6.64949">
        <ele>1030.8</ele>
        <time>2022-07-19T17:09:19Z</time>
      </trkpt>
      <trkpt lat="44.65844" lon="6.64934">
        <ele>1030</ele>
        <time>2022-07-19T17:09:20Z</time>
      </trkpt>
      <trkpt lat="44.65842" lon="6.64918">
        <ele>1029.2</ele>
        <time>2022-07-19T17:09:21Z</time>
      </trkpt>
      <trkpt lat="44.6584" lon="6.64903">
        <ele>1028.4</ele>
        <time>2022-07-19T17:09:22Z</time>
      </trkpt>
      <trkpt lat="44.65837" lon="6.64887">
        <ele>1027.6</ele>
        <time>2022-07-19T17:09:23Z</time>
      </trkpt>
      <trkpt lat="44.65835" lon="6.64871">
        <ele>1026.6</ele>
        <time>2022-07-19T17:09:24Z</time>
      </trkpt>
      <trkpt lat="44.65833" lon="6.64855">
        <ele>1025.8</ele>
        <time>2022-07-19T17:09:25Z</time>
      </trkpt>
      <trkpt lat="44.6583" lon="6.64838">
        <ele>1024.8</ele>
        <time>2022-07-19T17:09:26Z</time>
      </trkpt>
      <trkpt lat="44.65827" lon="6.64821">
        <ele>1023.8</ele>
        <time>2022-07-19T17:09:27Z</time>
      </trkpt>
      <trkpt lat="44.65825" lon="6.64804">
        <ele>1022.8</ele>
        <time>2022-07-19T17:09:28Z</time>
      </trkpt>
      <trkpt lat="44.65823" lon="6.64788">
        <ele>1021.8</ele>
        <time>2022-07-19T17:09:29Z</time>
      </trkpt>
      <trkpt lat="44.6582" lon="6.64771">
        <ele>1020.8</ele>
        <time>2022-07-19T17:09:30Z</time>
      </trkpt>
      <trkpt lat="44.65818" lon="6.64754">
        <ele>1019.8</ele>
        <time>2022-07-19T17:09:31Z</time>
      </trkpt>
      <trkpt lat="44.65815" lon="6.64736">
        <ele>1018.8</ele>
        <time>2022-07-19T17:09:32Z</time>
      </trkpt>
      <trkpt lat="44.65813" lon="6.64718">
        <ele>1017.6</ele>
        <time>2022-07-19T17:09:33Z</time>
      </trkpt>
      <trkpt lat="44.6581" lon="6.647">
        <ele>1016.6</ele>
        <time>2022-07-19T17:09:34Z</time>
      </trkpt>
      <trkpt lat="44.65807" lon="6.64683">
        <ele>1015.6</ele>
        <time>2022-07-19T17:09:35Z</time>
      </trkpt>
      <trkpt lat="44.65804" lon="6.64666">
        <ele>1014.6</ele>
        <time>2022-07-19T17:09:36Z</time>
      </trkpt>
      <trkpt lat="44.65801" lon="6.64649">
        <ele>1013.8</ele>
        <time>2022-07-19T17:09:37Z</time>
      </trkpt>
      <trkpt lat="44.65799" lon="6.64633">
        <ele>1012.6</ele>
        <time>2022-07-19T17:09:38Z</time>
      </trkpt>
      <trkpt lat="44.65796" lon="6.64616">
        <ele>1011.8</ele>
        <time>2022-07-19T17:09:39Z</time>
      </trkpt>
      <trkpt lat="44.65793" lon="6.64601">
        <ele>1010.8</ele>
        <time>2022-07-19T17:09:40Z</time>
      </trkpt>
      <trkpt lat="44.65792" lon="6.64586">
        <ele>1009.8</ele>
        <time>2022-07-19T17:09:41Z</time>
      </trkpt>
      <trkpt lat="44.65792" lon="6.64572">
        <ele>1009</ele>
        <time>2022-07-19T17:09:42Z</time>
      </trkpt>
      <trkpt lat="44.65792" lon="6.6456">
        <ele>1008</ele>
        <time>2022-07-19T17:09:43Z</time>
      </trkpt>
      <trkpt lat="44.65793" lon="6.64549">
        <ele>1007.4</ele>
        <time>2022-07-19T17:09:44Z</time>
      </trkpt>
      <trkpt lat="44.65795" lon="6.6454">
        <ele>1006.8</ele>
        <time>2022-07-19T17:09:45Z</time>
      </trkpt>
      <trkpt lat="44.65799" lon="6.64531">
        <ele>1006</ele>
        <time>2022-07-19T17:09:46Z</time>
      </trkpt>
      <trkpt lat="44.65804" lon="6.64522">
        <ele>1005.4</ele>
        <time>2022-07-19T17:09:47Z</time>
      </trkpt>
      <trkpt lat="44.65809" lon="6.64514">
        <ele>1004.8</ele>
        <time>2022-07-19T17:09:48Z</time>
      </trkpt>
      <trkpt lat="44.65813" lon="6.64506">
        <ele>1004.4</ele>
        <time>2022-07-19T17:09:49Z</time>
      </trkpt>
      <trkpt lat="44.65815" lon="6.64496">
        <ele>1004</ele>
        <time>2022-07-19T17:09:50Z</time>
      </trkpt>
      <trkpt lat="44.65815" lon="6.64486">
        <ele>1003.6</ele>
        <time>2022-07-19T17:09:51Z</time>
      </trkpt>
      <trkpt lat="44.65814" lon="6.64475">
        <ele>1003.2</ele>
        <time>2022-07-19T17:09:52Z</time>
      </trkpt>
      <trkpt lat="44.65813" lon="6.64464">
        <ele>1002.6</ele>
        <time>2022-07-19T17:09:53Z</time>
      </trkpt>
      <trkpt lat="44.65815" lon="6.64452">
        <ele>1002.2</ele>
        <time>2022-07-19T17:09:54Z</time>
      </trkpt>
      <trkpt lat="44.65817" lon="6.64439">
        <ele>1001.8</ele>
        <time>2022-07-19T17:09:55Z</time>
      </trkpt>
      <trkpt lat="44.65819" lon="6.64426">
        <ele>1001.6</ele>
        <time>2022-07-19T17:09:56Z</time>
      </trkpt>
      <trkpt lat="44.65822" lon="6.64413">
        <ele>1001.2</ele>
        <time>2022-07-19T17:09:57Z</time>
      </trkpt>
      <trkpt lat="44.65825" lon="6.644">
        <ele>1000.8</ele>
        <time>2022-07-19T17:09:58Z</time>
      </trkpt>
      <trkpt lat="44.65827" lon="6.64387">
        <ele>1000.4</ele>
        <time>2022-07-19T17:09:59Z</time>
      </trkpt>
      <trkpt lat="44.6583" lon="6.64374">
        <ele>1000</ele>
        <time>2022-07-19T17:10:00Z</time>
      </trkpt>
      <trkpt lat="44.65833" lon="6.6436">
        <ele>999.8</ele>
        <time>2022-07-19T17:10:01Z</time>
      </trkpt>
      <trkpt lat="44.65836" lon="6.64347">
        <ele>999.4</ele>
        <time>2022-07-19T17:10:02Z</time>
      </trkpt>
      <trkpt lat="44.65839" lon="6.64334">
        <ele>999.4</ele>
        <time>2022-07-19T17:10:03Z</time>
      </trkpt>
      <trkpt lat="44.65843" lon="6.64322">
        <ele>999.2</ele>
        <time>2022-07-19T17:10:04Z</time>
      </trkpt>
      <trkpt lat="44.65847" lon="6.64311">
        <ele>999.2</ele>
        <time>2022-07-19T17:10:05Z</time>
      </trkpt>
      <trkpt lat="44.65851" lon="6.64301">
        <ele>999.2</ele>
        <time>2022-07-19T17:10:06Z</time>
      </trkpt>
      <trkpt lat="44.65855" lon="6.64292">
        <ele>999.2</ele>
        <time>2022-07-19T17:10:07Z</time>
      </trkpt>
      <trkpt lat="44.6586" lon="6.64283">
        <ele>999.4</ele>
        <time>2022-07-19T17:10:08Z</time>
      </trkpt>
      <trkpt lat="44.65864" lon="6.64276">
        <ele>999.4</ele>
        <time>2022-07-19T17:10:09Z</time>
      </trkpt>
      <trkpt lat="44.65868" lon="6.64269">
        <ele>999.8</ele>
        <time>2022-07-19T17:10:10Z</time>
      </trkpt>
      <trkpt lat="44.65872" lon="6.64264">
        <ele>1000</ele>
        <time>2022-07-19T17:10:11Z</time>
      </trkpt>
      <trkpt lat="44.65876" lon="6.64259">
        <ele>1000.4</ele>
        <time>2022-07-19T17:10:12Z</time>
      </trkpt>
      <trkpt lat="44.65879" lon="6.64254">
        <ele>1000.6</ele>
        <time>2022-07-19T17:10:13Z</time>
      </trkpt>
      <trkpt lat="44.65883" lon="6.64251">
        <ele>1001</ele>
        <time>2022-07-19T17:10:14Z</time>
      </trkpt>
      <trkpt lat="44.65886" lon="6.64247">
        <ele>1001.2</ele>
        <time>2022-07-19T17:10:15Z</time>
      </trkpt>
      <trkpt lat="44.65889" lon="6.64243">
        <ele>1001.4</ele>
        <time>2022-07-19T17:10:16Z</time>
      </trkpt>
      <trkpt lat="44.65892" lon="6.6424">
        <ele>1001.6</ele>
        <time>2022-07-19T17:10:17Z</time>
      </trkpt>
      <trkpt lat="44.65895" lon="6.64237">
        <ele>1002</ele>
        <time>2022-07-19T17:10:18Z</time>
      </trkpt>
      <trkpt lat="44.65897" lon="6.64234">
        <ele>1002.2</ele>
        <time>2022-07-19T17:10:19Z</time>
      </trkpt>
      <trkpt lat="44.659" lon="6.64231">
        <ele>1002.6</ele>
        <time>2022-07-19T17:10:20Z</time>
      </trkpt>
      <trkpt lat="44.65903" lon="6.64227">
        <ele>1002.8</ele>
        <time>2022-07-19T17:10:21Z</time>
      </trkpt>
      <trkpt lat="44.65905" lon="6.64224">
        <ele>1003.2</ele>
        <time>2022-07-19T17:10:22Z</time>
      </trkpt>
      <trkpt lat="44.65908" lon="6.6422">
        <ele>1003.4</ele>
        <time>2022-07-19T17:10:23Z</time>
      </trkpt>
      <trkpt lat="44.65911" lon="6.64217">
        <ele>1003.4</ele>
        <time>2022-07-19T17:10:24Z</time>
      </trkpt>
      <trkpt lat="44.65914" lon="6.64214">
        <ele>1003.8</ele>
        <time>2022-07-19T17:10:25Z</time>
      </trkpt>
      <trkpt lat="44.65916" lon="6.6421">
        <ele>1004</ele>
        <time>2022-07-19T17:10:26Z</time>
      </trkpt>
      <trkpt lat="44.65919" lon="6.64207">
        <ele>1004</ele>
        <time>2022-07-19T17:10:27Z</time>
      </trkpt>
      <trkpt lat="44.65922" lon="6.64205">
        <ele>1004.4</ele>
        <time>2022-07-19T17:10:28Z</time>
      </trkpt>
      <trkpt lat="44.65926" lon="6.64203">
        <ele>1004.6</ele>
        <time>2022-07-19T17:10:29Z</time>
      </trkpt>
      <trkpt lat="44.65929" lon="6.64203">
        <ele>1005</ele>
        <time>2022-07-19T17:10:30Z</time>
      </trkpt>
      <trkpt lat="44.65932" lon="6.64202">
        <ele>1005.2</ele>
        <time>2022-07-19T17:10:31Z</time>
      </trkpt>
      <trkpt lat="44.65935" lon="6.64203">
        <ele>1005.4</ele>
        <time>2022-07-19T17:10:32Z</time>
      </trkpt>
      <trkpt lat="44.65939" lon="6.64202">
        <ele>1005.6</ele>
        <time>2022-07-19T17:10:33Z</time>
      </trkpt>
      <trkpt lat="44.65942" lon="6.64201">
        <ele>1005.6</ele>
        <time>2022-07-19T17:10:34Z</time>
      </trkpt>
      <trkpt lat="44.65946" lon="6.64199">
        <ele>1005.8</ele>
        <time>2022-07-19T17:10:35Z</time>
      </trkpt>
      <trkpt lat="44.65949" lon="6.64195">
        <ele>1005.8</ele>
        <time>2022-07-19T17:10:36Z</time>
      </trkpt>
      <trkpt lat="44.65951" lon="6.64189">
        <ele>1005.8</ele>
        <time>2022-07-19T17:10:37Z</time>
      </trkpt>
      <trkpt lat="44.65952" lon="6.64183">
        <ele>1005.8</ele>
        <time>2022-07-19T17:10:38Z</time>
      </trkpt>
      <trkpt lat="44.65953" lon="6.64175">
        <ele>1005.8</ele>
        <time>2022-07-19T17:10:39Z</time>
      </trkpt>
      <trkpt lat="44.65954" lon="6.64167">
        <ele>1005.8</ele>
        <time>2022-07-19T17:10:40Z</time>
      </trkpt>
      <trkpt lat="44.65956" lon="6.64159">
        <ele>1005.6</ele>
        <time>2022-07-19T17:10:41Z</time>
      </trkpt>
      <trkpt lat="44.65957" lon="6.64151">
        <ele>1005.4</ele>
        <time>2022-07-19T17:10:42Z</time>
      </trkpt>
      <trkpt lat="44.6596" lon="6.64143">
        <ele>1005</ele>
        <time>2022-07-19T17:10:43Z</time>
      </trkpt>
      <trkpt lat="44.65962" lon="6.64134">
        <ele>1004.8</ele>
        <time>2022-07-19T17:10:44Z</time>
      </trkpt>
      <trkpt lat="44.65966" lon="6.64125">
        <ele>1004.4</ele>
        <time>2022-07-19T17:10:45Z</time>
      </trkpt>
      <trkpt lat="44.6597" lon="6.64118">
        <ele>1004.2</ele>
        <time>2022-07-19T17:10:46Z</time>
      </trkpt>
      <trkpt lat="44.65973" lon="6.64112">
        <ele>1003.8</ele>
        <time>2022-07-19T17:10:47Z</time>
      </trkpt>
      <trkpt lat="44.65976" lon="6.64107">
        <ele>1003.6</ele>
        <time>2022-07-19T17:10:48Z</time>
      </trkpt>
      <trkpt lat="44.65978" lon="6.64103">
        <ele>1003.4</ele>
        <time>2022-07-19T17:10:49Z</time>
      </trkpt>
      <trkpt lat="44.65979" lon="6.64101">
        <ele>1003.4</ele>
        <time>2022-07-19T17:10:50Z</time>
      </trkpt>
      <trkpt lat="44.6598" lon="6.64098">
        <ele>1003</ele>
        <time>2022-07-19T17:10:51Z</time>
      </trkpt>
      <trkpt lat="44.65981" lon="6.64097">
        <ele>1003</ele>
        <time>2022-07-19T17:10:52Z</time>
      </trkpt>
      <trkpt lat="44.65981" lon="6.64096">
        <ele>1002.8</ele>
        <time>2022-07-19T17:10:53Z</time>
      </trkpt>
      <trkpt lat="44.65981" lon="6.64095">
        <ele>1002.2</ele>
        <time>2022-07-19T17:12:59Z</time>
      </trkpt>
      <trkpt lat="44.65981" lon="6.64094">
        <ele>1002.2</ele>
        <time>2022-07-19T17:13:00Z</time>
      </trkpt>
      <trkpt lat="44.65982" lon="6.6409">
        <ele>1002</ele>
        <time>2022-07-19T17:13:01Z</time>
      </trkpt>
      <trkpt lat="44.65984" lon="6.64086">
        <ele>1002</ele>
        <time>2022-07-19T17:13:02Z</time>
      </trkpt>
      <trkpt lat="44.65985" lon="6.64082">
        <ele>1001.6</ele>
        <time>2022-07-19T17:13:03Z</time>
      </trkpt>
      <trkpt lat="44.65987" lon="6.64077">
        <ele>1001.6</ele>
        <time>2022-07-19T17:13:04Z</time>
      </trkpt>
      <trkpt lat="44.65989" lon="6.64072">
        <ele>1001.4</ele>
        <time>2022-07-19T17:13:05Z</time>
      </trkpt>
      <trkpt lat="44.65991" lon="6.64066">
        <ele>1001.4</ele>
        <time>2022-07-19T17:13:06Z</time>
      </trkpt>
      <trkpt lat="44.65992" lon="6.6406">
        <ele>1001</ele>
        <time>2022-07-19T17:13:07Z</time>
      </trkpt>
      <trkpt lat="44.65993" lon="6.64053">
        <ele>1001</ele>
        <time>2022-07-19T17:13:08Z</time>
      </trkpt>
      <trkpt lat="44.65994" lon="6.64046">
        <ele>1000.8</ele>
        <time>2022-07-19T17:13:09Z</time>
      </trkpt>
      <trkpt lat="44.65995" lon="6.64038">
        <ele>1000.8</ele>
        <time>2022-07-19T17:13:10Z</time>
      </trkpt>
      <trkpt lat="44.65995" lon="6.6403">
        <ele>1000.6</ele>
        <time>2022-07-19T17:13:11Z</time>
      </trkpt>
      <trkpt lat="44.65995" lon="6.64021">
        <ele>1000.6</ele>
        <time>2022-07-19T17:13:12Z</time>
      </trkpt>
      <trkpt lat="44.65994" lon="6.64012">
        <ele>1000.2</ele>
        <time>2022-07-19T17:13:13Z</time>
      </trkpt>
      <trkpt lat="44.65993" lon="6.64003">
        <ele>1000</ele>
        <time>2022-07-19T17:13:14Z</time>
      </trkpt>
      <trkpt lat="44.65992" lon="6.63994">
        <ele>999.8</ele>
        <time>2022-07-19T17:13:15Z</time>
      </trkpt>
      <trkpt lat="44.65991" lon="6.63985">
        <ele>999.4</ele>
        <time>2022-07-19T17:13:16Z</time>
      </trkpt>
      <trkpt lat="44.6599" lon="6.63975">
        <ele>999.2</ele>
        <time>2022-07-19T17:13:17Z</time>
      </trkpt>
      <trkpt lat="44.65989" lon="6.63965">
        <ele>999</ele>
        <time>2022-07-19T17:13:18Z</time>
      </trkpt>
      <trkpt lat="44.65987" lon="6.63955">
        <ele>998.8</ele>
        <time>2022-07-19T17:13:19Z</time>
      </trkpt>
      <trkpt lat="44.65986" lon="6.63945">
        <ele>998.8</ele>
        <time>2022-07-19T17:13:20Z</time>
      </trkpt>
      <trkpt lat="44.65985" lon="6.63934">
        <ele>998.4</ele>
        <time>2022-07-19T17:13:21Z</time>
      </trkpt>
      <trkpt lat="44.65983" lon="6.63923">
        <ele>998</ele>
        <time>2022-07-19T17:13:22Z</time>
      </trkpt>
      <trkpt lat="44.65982" lon="6.63912">
        <ele>997.6</ele>
        <time>2022-07-19T17:13:23Z</time>
      </trkpt>
      <trkpt lat="44.6598" lon="6.63901">
        <ele>997.2</ele>
        <time>2022-07-19T17:13:24Z</time>
      </trkpt>
      <trkpt lat="44.65979" lon="6.63889">
        <ele>996.8</ele>
        <time>2022-07-19T17:13:25Z</time>
      </trkpt>
      <trkpt lat="44.65978" lon="6.63877">
        <ele>996.6</ele>
        <time>2022-07-19T17:13:26Z</time>
      </trkpt>
      <trkpt lat="44.65978" lon="6.63865">
        <ele>996.2</ele>
        <time>2022-07-19T17:13:27Z</time>
      </trkpt>
      <trkpt lat="44.65979" lon="6.63852">
        <ele>995.6</ele>
        <time>2022-07-19T17:13:28Z</time>
      </trkpt>
      <trkpt lat="44.6598" lon="6.63838">
        <ele>995.2</ele>
        <time>2022-07-19T17:13:29Z</time>
      </trkpt>
      <trkpt lat="44.65982" lon="6.63826">
        <ele>994.8</ele>
        <time>2022-07-19T17:13:30Z</time>
      </trkpt>
      <trkpt lat="44.65985" lon="6.63813">
        <ele>994.4</ele>
        <time>2022-07-19T17:13:31Z</time>
      </trkpt>
      <trkpt lat="44.65987" lon="6.63801">
        <ele>994</ele>
        <time>2022-07-19T17:13:32Z</time>
      </trkpt>
      <trkpt lat="44.65988" lon="6.6379">
        <ele>993.6</ele>
        <time>2022-07-19T17:13:33Z</time>
      </trkpt>
      <trkpt lat="44.6599" lon="6.63779">
        <ele>993</ele>
        <time>2022-07-19T17:13:34Z</time>
      </trkpt>
      <trkpt lat="44.65991" lon="6.63768">
        <ele>992.6</ele>
        <time>2022-07-19T17:13:35Z</time>
      </trkpt>
      <trkpt lat="44.65992" lon="6.63756">
        <ele>992.2</ele>
        <time>2022-07-19T17:13:36Z</time>
      </trkpt>
      <trkpt lat="44.65992" lon="6.63744">
        <ele>991.8</ele>
        <time>2022-07-19T17:13:37Z</time>
      </trkpt>
      <trkpt lat="44.65991" lon="6.63733">
        <ele>991.4</ele>
        <time>2022-07-19T17:13:38Z</time>
      </trkpt>
      <trkpt lat="44.65989" lon="6.63722">
        <ele>991</ele>
        <time>2022-07-19T17:13:39Z</time>
      </trkpt>
      <trkpt lat="44.65986" lon="6.6371">
        <ele>990.8</ele>
        <time>2022-07-19T17:13:40Z</time>
      </trkpt>
      <trkpt lat="44.65984" lon="6.63699">
        <ele>990.4</ele>
        <time>2022-07-19T17:13:41Z</time>
      </trkpt>
      <trkpt lat="44.6598" lon="6.63689">
        <ele>990</ele>
        <time>2022-07-19T17:13:42Z</time>
      </trkpt>
      <trkpt lat="44.65976" lon="6.63678">
        <ele>989.6</ele>
        <time>2022-07-19T17:13:43Z</time>
      </trkpt>
      <trkpt lat="44.65971" lon="6.63667">
        <ele>989.4</ele>
        <time>2022-07-19T17:13:44Z</time>
      </trkpt>
      <trkpt lat="44.65967" lon="6.63656">
        <ele>989</ele>
        <time>2022-07-19T17:13:45Z</time>
      </trkpt>
      <trkpt lat="44.65962" lon="6.63645">
        <ele>988.6</ele>
        <time>2022-07-19T17:13:46Z</time>
      </trkpt>
      <trkpt lat="44.65957" lon="6.63634">
        <ele>988.2</ele>
        <time>2022-07-19T17:13:47Z</time>
      </trkpt>
      <trkpt lat="44.65952" lon="6.63622">
        <ele>987.8</ele>
        <time>2022-07-19T17:13:48Z</time>
      </trkpt>
      <trkpt lat="44.65947" lon="6.63611">
        <ele>987.4</ele>
        <time>2022-07-19T17:13:49Z</time>
      </trkpt>
      <trkpt lat="44.65942" lon="6.63599">
        <ele>987</ele>
        <time>2022-07-19T17:13:50Z</time>
      </trkpt>
      <trkpt lat="44.65937" lon="6.63586">
        <ele>986.6</ele>
        <time>2022-07-19T17:13:51Z</time>
      </trkpt>
      <trkpt lat="44.65932" lon="6.63574">
        <ele>986.2</ele>
        <time>2022-07-19T17:13:52Z</time>
      </trkpt>
      <trkpt lat="44.65926" lon="6.63562">
        <ele>985.8</ele>
        <time>2022-07-19T17:13:53Z</time>
      </trkpt>
      <trkpt lat="44.65921" lon="6.6355">
        <ele>985.4</ele>
        <time>2022-07-19T17:13:54Z</time>
      </trkpt>
      <trkpt lat="44.65916" lon="6.63538">
        <ele>984.8</ele>
        <time>2022-07-19T17:13:55Z</time>
      </trkpt>
      <trkpt lat="44.65911" lon="6.63525">
        <ele>984.4</ele>
        <time>2022-07-19T17:13:56Z</time>
      </trkpt>
      <trkpt lat="44.65905" lon="6.63513">
        <ele>984</ele>
        <time>2022-07-19T17:13:57Z</time>
      </trkpt>
      <trkpt lat="44.659" lon="6.63501">
        <ele>983.6</ele>
        <time>2022-07-19T17:13:58Z</time>
      </trkpt>
      <trkpt lat="44.65894" lon="6.63488">
        <ele>983</ele>
        <time>2022-07-19T17:13:59Z</time>
      </trkpt>
      <trkpt lat="44.65889" lon="6.63475">
        <ele>982.4</ele>
        <time>2022-07-19T17:14:00Z</time>
      </trkpt>
      <trkpt lat="44.65883" lon="6.63462">
        <ele>982</ele>
        <time>2022-07-19T17:14:01Z</time>
      </trkpt>
      <trkpt lat="44.65877" lon="6.63449">
        <ele>981.4</ele>
        <time>2022-07-19T17:14:02Z</time>
      </trkpt>
      <trkpt lat="44.65871" lon="6.63436">
        <ele>981.2</ele>
        <time>2022-07-19T17:14:03Z</time>
      </trkpt>
      <trkpt lat="44.65865" lon="6.63423">
        <ele>980.8</ele>
        <time>2022-07-19T17:14:04Z</time>
      </trkpt>
      <trkpt lat="44.65859" lon="6.6341">
        <ele>980.4</ele>
        <time>2022-07-19T17:14:05Z</time>
      </trkpt>
      <trkpt lat="44.65853" lon="6.63398">
        <ele>980</ele>
        <time>2022-07-19T17:14:06Z</time>
      </trkpt>
      <trkpt lat="44.65848" lon="6.63385">
        <ele>979.4</ele>
        <time>2022-07-19T17:14:07Z</time>
      </trkpt>
      <trkpt lat="44.65845" lon="6.63371">
        <ele>979</ele>
        <time>2022-07-19T17:14:08Z</time>
      </trkpt>
      <trkpt lat="44.65842" lon="6.63356">
        <ele>978.4</ele>
        <time>2022-07-19T17:14:09Z</time>
      </trkpt>
      <trkpt lat="44.6584" lon="6.63341">
        <ele>977.8</ele>
        <time>2022-07-19T17:14:10Z</time>
      </trkpt>
      <trkpt lat="44.65841" lon="6.63324">
        <ele>977.4</ele>
        <time>2022-07-19T17:14:11Z</time>
      </trkpt>
      <trkpt lat="44.65843" lon="6.63309">
        <ele>976.8</ele>
        <time>2022-07-19T17:14:12Z</time>
      </trkpt>
      <trkpt lat="44.65848" lon="6.63294">
        <ele>976.4</ele>
        <time>2022-07-19T17:14:13Z</time>
      </trkpt>
      <trkpt lat="44.65855" lon="6.63281">
        <ele>976</ele>
        <time>2022-07-19T17:14:14Z</time>
      </trkpt>
      <trkpt lat="44.65862" lon="6.63267">
        <ele>975.2</ele>
        <time>2022-07-19T17:14:15Z</time>
      </trkpt>
      <trkpt lat="44.65871" lon="6.63256">
        <ele>974.8</ele>
        <time>2022-07-19T17:14:16Z</time>
      </trkpt>
      <trkpt lat="44.6588" lon="6.63245">
        <ele>974.2</ele>
        <time>2022-07-19T17:14:17Z</time>
      </trkpt>
      <trkpt lat="44.65888" lon="6.63235">
        <ele>973.8</ele>
        <time>2022-07-19T17:14:18Z</time>
      </trkpt>
      <trkpt lat="44.65897" lon="6.63225">
        <ele>973</ele>
        <time>2022-07-19T17:14:19Z</time>
      </trkpt>
      <trkpt lat="44.65905" lon="6.63215">
        <ele>973</ele>
        <time>2022-07-19T17:14:20Z</time>
      </trkpt>
      <trkpt lat="44.65912" lon="6.63203">
        <ele>972.4</ele>
        <time>2022-07-19T17:14:21Z</time>
      </trkpt>
      <trkpt lat="44.6592" lon="6.63192">
        <ele>971.8</ele>
        <time>2022-07-19T17:14:22Z</time>
      </trkpt>
      <trkpt lat="44.65926" lon="6.6318">
        <ele>971.4</ele>
        <time>2022-07-19T17:14:23Z</time>
      </trkpt>
      <trkpt lat="44.65933" lon="6.63167">
        <ele>971</ele>
        <time>2022-07-19T17:14:24Z</time>
      </trkpt>
      <trkpt lat="44.65939" lon="6.63153">
        <ele>970.6</ele>
        <time>2022-07-19T17:14:25Z</time>
      </trkpt>
      <trkpt lat="44.65945" lon="6.63139">
        <ele>970.2</ele>
        <time>2022-07-19T17:14:26Z</time>
      </trkpt>
      <trkpt lat="44.65951" lon="6.63124">
        <ele>969.8</ele>
        <time>2022-07-19T17:14:27Z</time>
      </trkpt>
      <trkpt lat="44.65957" lon="6.63109">
        <ele>969</ele>
        <time>2022-07-19T17:14:28Z</time>
      </trkpt>
      <trkpt lat="44.65962" lon="6.63094">
        <ele>968.4</ele>
        <time>2022-07-19T17:14:29Z</time>
      </trkpt>
      <trkpt lat="44.65966" lon="6.63078">
        <ele>967.8</ele>
        <time>2022-07-19T17:14:30Z</time>
      </trkpt>
      <trkpt lat="44.6597" lon="6.6306">
        <ele>967.2</ele>
        <time>2022-07-19T17:14:31Z</time>
      </trkpt>
      <trkpt lat="44.65973" lon="6.63044">
        <ele>966.6</ele>
        <time>2022-07-19T17:14:32Z</time>
      </trkpt>
      <trkpt lat="44.65976" lon="6.63027">
        <ele>966.2</ele>
        <time>2022-07-19T17:14:33Z</time>
      </trkpt>
      <trkpt lat="44.65978" lon="6.63009">
        <ele>965.6</ele>
        <time>2022-07-19T17:14:34Z</time>
      </trkpt>
      <trkpt lat="44.6598" lon="6.62992">
        <ele>965.2</ele>
        <time>2022-07-19T17:14:35Z</time>
      </trkpt>
      <trkpt lat="44.65981" lon="6.62974">
        <ele>964.4</ele>
        <time>2022-07-19T17:14:36Z</time>
      </trkpt>
      <trkpt lat="44.65981" lon="6.62956">
        <ele>964</ele>
        <time>2022-07-19T17:14:37Z</time>
      </trkpt>
      <trkpt lat="44.65981" lon="6.62939">
        <ele>963.6</ele>
        <time>2022-07-19T17:14:38Z</time>
      </trkpt>
      <trkpt lat="44.65981" lon="6.62921">
        <ele>963</ele>
        <time>2022-07-19T17:14:39Z</time>
      </trkpt>
      <trkpt lat="44.6598" lon="6.62903">
        <ele>962.4</ele>
        <time>2022-07-19T17:14:40Z</time>
      </trkpt>
      <trkpt lat="44.65979" lon="6.62886">
        <ele>962</ele>
        <time>2022-07-19T17:14:41Z</time>
      </trkpt>
      <trkpt lat="44.65978" lon="6.62868">
        <ele>961.4</ele>
        <time>2022-07-19T17:14:42Z</time>
      </trkpt>
      <trkpt lat="44.65976" lon="6.62852">
        <ele>961</ele>
        <time>2022-07-19T17:14:43Z</time>
      </trkpt>
      <trkpt lat="44.65975" lon="6.62834">
        <ele>960.2</ele>
        <time>2022-07-19T17:14:44Z</time>
      </trkpt>
      <trkpt lat="44.65974" lon="6.62818">
        <ele>959.6</ele>
        <time>2022-07-19T17:14:45Z</time>
      </trkpt>
      <trkpt lat="44.65972" lon="6.628">
        <ele>959</ele>
        <time>2022-07-19T17:14:46Z</time>
      </trkpt>
      <trkpt lat="44.65971" lon="6.62783">
        <ele>958.4</ele>
        <time>2022-07-19T17:14:47Z</time>
      </trkpt>
      <trkpt lat="44.6597" lon="6.62766">
        <ele>958</ele>
        <time>2022-07-19T17:14:48Z</time>
      </trkpt>
      <trkpt lat="44.65969" lon="6.62749">
        <ele>957.4</ele>
        <time>2022-07-19T17:14:49Z</time>
      </trkpt>
      <trkpt lat="44.65968" lon="6.62733">
        <ele>956.8</ele>
        <time>2022-07-19T17:14:50Z</time>
      </trkpt>
      <trkpt lat="44.65967" lon="6.62716">
        <ele>956.2</ele>
        <time>2022-07-19T17:14:51Z</time>
      </trkpt>
      <trkpt lat="44.65966" lon="6.627">
        <ele>955.4</ele>
        <time>2022-07-19T17:14:52Z</time>
      </trkpt>
      <trkpt lat="44.65965" lon="6.62684">
        <ele>954.8</ele>
        <time>2022-07-19T17:14:53Z</time>
      </trkpt>
      <trkpt lat="44.65964" lon="6.62668">
        <ele>954.4</ele>
        <time>2022-07-19T17:14:54Z</time>
      </trkpt>
      <trkpt lat="44.65964" lon="6.62652">
        <ele>953.8</ele>
        <time>2022-07-19T17:14:55Z</time>
      </trkpt>
      <trkpt lat="44.65964" lon="6.62637">
        <ele>953.2</ele>
        <time>2022-07-19T17:14:56Z</time>
      </trkpt>
      <trkpt lat="44.65963" lon="6.62622">
        <ele>952.8</ele>
        <time>2022-07-19T17:14:57Z</time>
      </trkpt>
      <trkpt lat="44.65962" lon="6.62607">
        <ele>952.4</ele>
        <time>2022-07-19T17:14:58Z</time>
      </trkpt>
      <trkpt lat="44.65961" lon="6.62591">
        <ele>952</ele>
        <time>2022-07-19T17:14:59Z</time>
      </trkpt>
      <trkpt lat="44.6596" lon="6.62575">
        <ele>951.6</ele>
        <time>2022-07-19T17:15:00Z</time>
      </trkpt>
      <trkpt lat="44.65959" lon="6.62559">
        <ele>950.8</ele>
        <time>2022-07-19T17:15:01Z</time>
      </trkpt>
      <trkpt lat="44.65958" lon="6.62545">
        <ele>950.6</ele>
        <time>2022-07-19T17:15:02Z</time>
      </trkpt>
      <trkpt lat="44.65958" lon="6.6253">
        <ele>950.2</ele>
        <time>2022-07-19T17:15:03Z</time>
      </trkpt>
      <trkpt lat="44.65957" lon="6.62516">
        <ele>950</ele>
        <time>2022-07-19T17:15:04Z</time>
      </trkpt>
      <trkpt lat="44.65956" lon="6.62502">
        <ele>949.6</ele>
        <time>2022-07-19T17:15:05Z</time>
      </trkpt>
      <trkpt lat="44.65955" lon="6.62488">
        <ele>949.4</ele>
        <time>2022-07-19T17:15:06Z</time>
      </trkpt>
      <trkpt lat="44.65954" lon="6.62473">
        <ele>949</ele>
        <time>2022-07-19T17:15:07Z</time>
      </trkpt>
      <trkpt lat="44.65953" lon="6.62459">
        <ele>948.8</ele>
        <time>2022-07-19T17:15:08Z</time>
      </trkpt>
      <trkpt lat="44.65952" lon="6.62445">
        <ele>948.6</ele>
        <time>2022-07-19T17:15:09Z</time>
      </trkpt>
      <trkpt lat="44.6595" lon="6.62431">
        <ele>948.2</ele>
        <time>2022-07-19T17:15:10Z</time>
      </trkpt>
      <trkpt lat="44.65949" lon="6.62418">
        <ele>948.2</ele>
        <time>2022-07-19T17:15:11Z</time>
      </trkpt>
      <trkpt lat="44.65948" lon="6.62404">
        <ele>948</ele>
        <time>2022-07-19T17:15:12Z</time>
      </trkpt>
      <trkpt lat="44.65947" lon="6.6239">
        <ele>948</ele>
        <time>2022-07-19T17:15:13Z</time>
      </trkpt>
      <trkpt lat="44.65947" lon="6.62376">
        <ele>948</ele>
        <time>2022-07-19T17:15:14Z</time>
      </trkpt>
      <trkpt lat="44.65946" lon="6.62363">
        <ele>947.8</ele>
        <time>2022-07-19T17:15:15Z</time>
      </trkpt>
      <trkpt lat="44.65945" lon="6.62351">
        <ele>947.8</ele>
        <time>2022-07-19T17:15:16Z</time>
      </trkpt>
      <trkpt lat="44.65945" lon="6.62341">
        <ele>947.8</ele>
        <time>2022-07-19T17:15:17Z</time>
      </trkpt>
      <trkpt lat="44.65945" lon="6.6233">
        <ele>947.8</ele>
        <time>2022-07-19T17:15:18Z</time>
      </trkpt>
      <trkpt lat="44.65945" lon="6.62319">
        <ele>947.4</ele>
        <time>2022-07-19T17:15:19Z</time>
      </trkpt>
      <trkpt lat="44.65944" lon="6.62308">
        <ele>947.4</ele>
        <time>2022-07-19T17:15:20Z</time>
      </trkpt>
      <trkpt lat="44.65944" lon="6.62297">
        <ele>947.4</ele>
        <time>2022-07-19T17:15:21Z</time>
      </trkpt>
      <trkpt lat="44.65944" lon="6.62287">
        <ele>947.4</ele>
        <time>2022-07-19T17:15:22Z</time>
      </trkpt>
      <trkpt lat="44.65944" lon="6.62276">
        <ele>947.4</ele>
        <time>2022-07-19T17:15:23Z</time>
      </trkpt>
      <trkpt lat="44.65944" lon="6.62265">
        <ele>947.4</ele>
        <time>2022-07-19T17:15:24Z</time>
      </trkpt>
      <trkpt lat="44.65945" lon="6.62255">
        <ele>947.2</ele>
        <time>2022-07-19T17:15:25Z</time>
      </trkpt>
      <trkpt lat="44.65945" lon="6.62244">
        <ele>947.2</ele>
        <time>2022-07-19T17:15:26Z</time>
      </trkpt>
      <trkpt lat="44.65946" lon="6.62234">
        <ele>947.4</ele>
        <time>2022-07-19T17:15:27Z</time>
      </trkpt>
      <trkpt lat="44.65947" lon="6.62225">
        <ele>947.4</ele>
        <time>2022-07-19T17:15:28Z</time>
      </trkpt>
      <trkpt lat="44.65948" lon="6.62215">
        <ele>947.8</ele>
        <time>2022-07-19T17:15:29Z</time>
      </trkpt>
      <trkpt lat="44.6595" lon="6.62205">
        <ele>947.8</ele>
        <time>2022-07-19T17:15:30Z</time>
      </trkpt>
      <trkpt lat="44.65951" lon="6.62196">
        <ele>948</ele>
        <time>2022-07-19T17:15:31Z</time>
      </trkpt>
      <trkpt lat="44.65953" lon="6.62187">
        <ele>948</ele>
        <time>2022-07-19T17:15:32Z</time>
      </trkpt>
      <trkpt lat="44.65955" lon="6.62177">
        <ele>948.4</ele>
        <time>2022-07-19T17:15:33Z</time>
      </trkpt>
      <trkpt lat="44.65957" lon="6.62168">
        <ele>948.4</ele>
        <time>2022-07-19T17:15:34Z</time>
      </trkpt>
      <trkpt lat="44.6596" lon="6.62158">
        <ele>948.4</ele>
        <time>2022-07-19T17:15:35Z</time>
      </trkpt>
      <trkpt lat="44.65962" lon="6.62149">
        <ele>948.4</ele>
        <time>2022-07-19T17:15:36Z</time>
      </trkpt>
      <trkpt lat="44.65965" lon="6.62139">
        <ele>948.4</ele>
        <time>2022-07-19T17:15:37Z</time>
      </trkpt>
      <trkpt lat="44.65967" lon="6.6213">
        <ele>948.4</ele>
        <time>2022-07-19T17:15:38Z</time>
      </trkpt>
      <trkpt lat="44.6597" lon="6.62121">
        <ele>948.4</ele>
        <time>2022-07-19T17:15:39Z</time>
      </trkpt>
      <trkpt lat="44.65973" lon="6.62112">
        <ele>948.4</ele>
        <time>2022-07-19T17:15:40Z</time>
      </trkpt>
      <trkpt lat="44.65976" lon="6.62102">
        <ele>948.4</ele>
        <time>2022-07-19T17:15:41Z</time>
      </trkpt>
      <trkpt lat="44.6598" lon="6.62094">
        <ele>948.4</ele>
        <time>2022-07-19T17:15:42Z</time>
      </trkpt>
      <trkpt lat="44.65984" lon="6.62085">
        <ele>948.4</ele>
        <time>2022-07-19T17:15:43Z</time>
      </trkpt>
      <trkpt lat="44.65987" lon="6.62076">
        <ele>948.4</ele>
        <time>2022-07-19T17:15:44Z</time>
      </trkpt>
      <trkpt lat="44.65991" lon="6.62067">
        <ele>948.4</ele>
        <time>2022-07-19T17:15:45Z</time>
      </trkpt>
      <trkpt lat="44.65996" lon="6.62059">
        <ele>948.4</ele>
        <time>2022-07-19T17:15:46Z</time>
      </trkpt>
      <trkpt lat="44.66" lon="6.6205">
        <ele>948.4</ele>
        <time>2022-07-19T17:15:47Z</time>
      </trkpt>
      <trkpt lat="44.66005" lon="6.62042">
        <ele>948.4</ele>
        <time>2022-07-19T17:15:48Z</time>
      </trkpt>
      <trkpt lat="44.6601" lon="6.62033">
        <ele>948.4</ele>
        <time>2022-07-19T17:15:49Z</time>
      </trkpt>
      <trkpt lat="44.66015" lon="6.62025">
        <ele>948.4</ele>
        <time>2022-07-19T17:15:50Z</time>
      </trkpt>
      <trkpt lat="44.6602" lon="6.62017">
        <ele>948.4</ele>
        <time>2022-07-19T17:15:51Z</time>
      </trkpt>
      <trkpt lat="44.66026" lon="6.6201">
        <ele>948</ele>
        <time>2022-07-19T17:15:52Z</time>
      </trkpt>
      <trkpt lat="44.66031" lon="6.62002">
        <ele>948</ele>
        <time>2022-07-19T17:15:53Z</time>
      </trkpt>
      <trkpt lat="44.66037" lon="6.61995">
        <ele>948</ele>
        <time>2022-07-19T17:15:54Z</time>
      </trkpt>
      <trkpt lat="44.66043" lon="6.61988">
        <ele>947.8</ele>
        <time>2022-07-19T17:15:55Z</time>
      </trkpt>
      <trkpt lat="44.66049" lon="6.61981">
        <ele>947.6</ele>
        <time>2022-07-19T17:15:56Z</time>
      </trkpt>
      <trkpt lat="44.66056" lon="6.61974">
        <ele>947.4</ele>
        <time>2022-07-19T17:15:57Z</time>
      </trkpt>
      <trkpt lat="44.66062" lon="6.61967">
        <ele>947.2</ele>
        <time>2022-07-19T17:15:58Z</time>
      </trkpt>
      <trkpt lat="44.66068" lon="6.61961">
        <ele>946.8</ele>
        <time>2022-07-19T17:15:59Z</time>
      </trkpt>
      <trkpt lat="44.66075" lon="6.61955">
        <ele>946.6</ele>
        <time>2022-07-19T17:16:00Z</time>
      </trkpt>
      <trkpt lat="44.66081" lon="6.61949">
        <ele>946.4</ele>
        <time>2022-07-19T17:16:01Z</time>
      </trkpt>
      <trkpt lat="44.66087" lon="6.61942">
        <ele>946.4</ele>
        <time>2022-07-19T17:16:02Z</time>
      </trkpt>
      <trkpt lat="44.66094" lon="6.61936">
        <ele>946</ele>
        <time>2022-07-19T17:16:03Z</time>
      </trkpt>
      <trkpt lat="44.661" lon="6.6193">
        <ele>945.8</ele>
        <time>2022-07-19T17:16:04Z</time>
      </trkpt>
      <trkpt lat="44.66106" lon="6.61924">
        <ele>945.4</ele>
        <time>2022-07-19T17:16:05Z</time>
      </trkpt>
      <trkpt lat="44.66112" lon="6.61918">
        <ele>945.2</ele>
        <time>2022-07-19T17:16:06Z</time>
      </trkpt>
      <trkpt lat="44.66118" lon="6.61911">
        <ele>944.8</ele>
        <time>2022-07-19T17:16:07Z</time>
      </trkpt>
      <trkpt lat="44.66124" lon="6.61905">
        <ele>944.6</ele>
        <time>2022-07-19T17:16:08Z</time>
      </trkpt>
      <trkpt lat="44.6613" lon="6.61899">
        <ele>944.2</ele>
        <time>2022-07-19T17:16:09Z</time>
      </trkpt>
      <trkpt lat="44.66136" lon="6.61893">
        <ele>943.8</ele>
        <time>2022-07-19T17:16:10Z</time>
      </trkpt>
      <trkpt lat="44.66142" lon="6.61887">
        <ele>943.6</ele>
        <time>2022-07-19T17:16:11Z</time>
      </trkpt>
      <trkpt lat="44.66149" lon="6.61881">
        <ele>943.2</ele>
        <time>2022-07-19T17:16:12Z</time>
      </trkpt>
      <trkpt lat="44.66155" lon="6.61875">
        <ele>942.6</ele>
        <time>2022-07-19T17:16:14Z</time>
      </trkpt>
      <trkpt lat="44.66162" lon="6.61869">
        <ele>942.4</ele>
        <time>2022-07-19T17:16:15Z</time>
      </trkpt>
      <trkpt lat="44.66168" lon="6.61864">
        <ele>942</ele>
        <time>2022-07-19T17:16:16Z</time>
      </trkpt>
      <trkpt lat="44.66174" lon="6.61859">
        <ele>941.8</ele>
        <time>2022-07-19T17:16:17Z</time>
      </trkpt>
      <trkpt lat="44.66181" lon="6.61855">
        <ele>941.4</ele>
        <time>2022-07-19T17:16:18Z</time>
      </trkpt>
      <trkpt lat="44.66188" lon="6.61853">
        <ele>941</ele>
        <time>2022-07-19T17:16:19Z</time>
      </trkpt>
      <trkpt lat="44.66196" lon="6.61849">
        <ele>940.6</ele>
        <time>2022-07-19T17:16:20Z</time>
      </trkpt>
      <trkpt lat="44.66202" lon="6.61844">
        <ele>940.4</ele>
        <time>2022-07-19T17:16:21Z</time>
      </trkpt>
      <trkpt lat="44.66206" lon="6.61837">
        <ele>940.2</ele>
        <time>2022-07-19T17:16:22Z</time>
      </trkpt>
      <trkpt lat="44.6621" lon="6.61828">
        <ele>939.8</ele>
        <time>2022-07-19T17:16:23Z</time>
      </trkpt>
      <trkpt lat="44.66214" lon="6.6182">
        <ele>939.8</ele>
        <time>2022-07-19T17:16:24Z</time>
      </trkpt>
      <trkpt lat="44.66219" lon="6.61812">
        <ele>939.4</ele>
        <time>2022-07-19T17:16:25Z</time>
      </trkpt>
      <trkpt lat="44.66225" lon="6.61805">
        <ele>939.2</ele>
        <time>2022-07-19T17:16:26Z</time>
      </trkpt>
      <trkpt lat="44.66232" lon="6.61798">
        <ele>938.8</ele>
        <time>2022-07-19T17:16:27Z</time>
      </trkpt>
      <trkpt lat="44.66239" lon="6.61792">
        <ele>938.4</ele>
        <time>2022-07-19T17:16:28Z</time>
      </trkpt>
      <trkpt lat="44.66245" lon="6.61785">
        <ele>938.2</ele>
        <time>2022-07-19T17:16:29Z</time>
      </trkpt>
      <trkpt lat="44.66252" lon="6.61779">
        <ele>938</ele>
        <time>2022-07-19T17:16:30Z</time>
      </trkpt>
      <trkpt lat="44.66259" lon="6.61772">
        <ele>937.6</ele>
        <time>2022-07-19T17:16:31Z</time>
      </trkpt>
      <trkpt lat="44.66266" lon="6.61765">
        <ele>937.4</ele>
        <time>2022-07-19T17:16:32Z</time>
      </trkpt>
      <trkpt lat="44.66273" lon="6.61759">
        <ele>937</ele>
        <time>2022-07-19T17:16:33Z</time>
      </trkpt>
      <trkpt lat="44.6628" lon="6.61752">
        <ele>936.6</ele>
        <time>2022-07-19T17:16:34Z</time>
      </trkpt>
      <trkpt lat="44.66287" lon="6.61746">
        <ele>936.4</ele>
        <time>2022-07-19T17:16:35Z</time>
      </trkpt>
      <trkpt lat="44.66294" lon="6.61738">
        <ele>936</ele>
        <time>2022-07-19T17:16:36Z</time>
      </trkpt>
      <trkpt lat="44.66301" lon="6.61731">
        <ele>935.6</ele>
        <time>2022-07-19T17:16:37Z</time>
      </trkpt>
      <trkpt lat="44.66308" lon="6.61724">
        <ele>935.2</ele>
        <time>2022-07-19T17:16:38Z</time>
      </trkpt>
      <trkpt lat="44.66315" lon="6.61717">
        <ele>935</ele>
        <time>2022-07-19T17:16:39Z</time>
      </trkpt>
      <trkpt lat="44.66322" lon="6.6171">
        <ele>934.8</ele>
        <time>2022-07-19T17:16:40Z</time>
      </trkpt>
      <trkpt lat="44.6633" lon="6.61703">
        <ele>934.6</ele>
        <time>2022-07-19T17:16:41Z</time>
      </trkpt>
      <trkpt lat="44.66337" lon="6.61696">
        <ele>934.6</ele>
        <time>2022-07-19T17:16:42Z</time>
      </trkpt>
      <trkpt lat="44.66344" lon="6.61689">
        <ele>934.6</ele>
        <time>2022-07-19T17:16:43Z</time>
      </trkpt>
      <trkpt lat="44.66351" lon="6.61682">
        <ele>934.2</ele>
        <time>2022-07-19T17:16:44Z</time>
      </trkpt>
      <trkpt lat="44.66358" lon="6.61675">
        <ele>934.2</ele>
        <time>2022-07-19T17:16:45Z</time>
      </trkpt>
      <trkpt lat="44.66364" lon="6.61668">
        <ele>934</ele>
        <time>2022-07-19T17:16:46Z</time>
      </trkpt>
      <trkpt lat="44.66371" lon="6.61661">
        <ele>933.8</ele>
        <time>2022-07-19T17:16:47Z</time>
      </trkpt>
      <trkpt lat="44.66378" lon="6.61654">
        <ele>933.8</ele>
        <time>2022-07-19T17:16:48Z</time>
      </trkpt>
      <trkpt lat="44.66385" lon="6.61647">
        <ele>933.8</ele>
        <time>2022-07-19T17:16:49Z</time>
      </trkpt>
      <trkpt lat="44.66392" lon="6.6164">
        <ele>933.4</ele>
        <time>2022-07-19T17:16:50Z</time>
      </trkpt>
      <trkpt lat="44.66399" lon="6.61633">
        <ele>933.4</ele>
        <time>2022-07-19T17:16:51Z</time>
      </trkpt>
      <trkpt lat="44.66406" lon="6.61626">
        <ele>933.4</ele>
        <time>2022-07-19T17:16:52Z</time>
      </trkpt>
      <trkpt lat="44.66413" lon="6.61619">
        <ele>933</ele>
        <time>2022-07-19T17:16:53Z</time>
      </trkpt>
      <trkpt lat="44.6642" lon="6.61612">
        <ele>932.8</ele>
        <time>2022-07-19T17:16:54Z</time>
      </trkpt>
      <trkpt lat="44.66426" lon="6.61605">
        <ele>932.6</ele>
        <time>2022-07-19T17:16:55Z</time>
      </trkpt>
      <trkpt lat="44.66433" lon="6.61599">
        <ele>932.6</ele>
        <time>2022-07-19T17:16:56Z</time>
      </trkpt>
      <trkpt lat="44.66439" lon="6.61592">
        <ele>932.2</ele>
        <time>2022-07-19T17:16:57Z</time>
      </trkpt>
      <trkpt lat="44.66452" lon="6.61579">
        <ele>932</ele>
        <time>2022-07-19T17:16:58Z</time>
      </trkpt>
      <trkpt lat="44.66458" lon="6.61573">
        <ele>932</ele>
        <time>2022-07-19T17:16:59Z</time>
      </trkpt>
      <trkpt lat="44.66464" lon="6.61567">
        <ele>931.6</ele>
        <time>2022-07-19T17:17:00Z</time>
      </trkpt>
      <trkpt lat="44.6647" lon="6.61561">
        <ele>931.6</ele>
        <time>2022-07-19T17:17:01Z</time>
      </trkpt>
      <trkpt lat="44.66476" lon="6.61555">
        <ele>931.6</ele>
        <time>2022-07-19T17:17:02Z</time>
      </trkpt>
      <trkpt lat="44.66482" lon="6.6155">
        <ele>931.4</ele>
        <time>2022-07-19T17:17:03Z</time>
      </trkpt>
      <trkpt lat="44.66488" lon="6.61544">
        <ele>931.4</ele>
        <time>2022-07-19T17:17:04Z</time>
      </trkpt>
      <trkpt lat="44.66493" lon="6.61539">
        <ele>931.6</ele>
        <time>2022-07-19T17:17:05Z</time>
      </trkpt>
      <trkpt lat="44.66499" lon="6.61533">
        <ele>931.6</ele>
        <time>2022-07-19T17:17:06Z</time>
      </trkpt>
      <trkpt lat="44.66504" lon="6.61528">
        <ele>931.6</ele>
        <time>2022-07-19T17:17:07Z</time>
      </trkpt>
      <trkpt lat="44.6651" lon="6.61522">
        <ele>931.6</ele>
        <time>2022-07-19T17:17:08Z</time>
      </trkpt>
      <trkpt lat="44.66516" lon="6.61517">
        <ele>931.4</ele>
        <time>2022-07-19T17:17:09Z</time>
      </trkpt>
      <trkpt lat="44.66521" lon="6.61512">
        <ele>931.4</ele>
        <time>2022-07-19T17:17:10Z</time>
      </trkpt>
      <trkpt lat="44.66527" lon="6.61508">
        <ele>931.4</ele>
        <time>2022-07-19T17:17:11Z</time>
      </trkpt>
      <trkpt lat="44.66533" lon="6.61504">
        <ele>931.4</ele>
        <time>2022-07-19T17:17:12Z</time>
      </trkpt>
      <trkpt lat="44.66539" lon="6.61499">
        <ele>931.8</ele>
        <time>2022-07-19T17:17:13Z</time>
      </trkpt>
      <trkpt lat="44.66545" lon="6.61495">
        <ele>931.8</ele>
        <time>2022-07-19T17:17:14Z</time>
      </trkpt>
      <trkpt lat="44.66551" lon="6.61491">
        <ele>931.8</ele>
        <time>2022-07-19T17:17:15Z</time>
      </trkpt>
      <trkpt lat="44.66557" lon="6.61489">
        <ele>931.8</ele>
        <time>2022-07-19T17:17:16Z</time>
      </trkpt>
      <trkpt lat="44.66563" lon="6.61488">
        <ele>931.8</ele>
        <time>2022-07-19T17:17:17Z</time>
      </trkpt>
      <trkpt lat="44.6657" lon="6.61489">
        <ele>931.8</ele>
        <time>2022-07-19T17:17:18Z</time>
      </trkpt>
      <trkpt lat="44.66576" lon="6.61492">
        <ele>931.8</ele>
        <time>2022-07-19T17:17:19Z</time>
      </trkpt>
      <trkpt lat="44.66581" lon="6.61496">
        <ele>932</ele>
        <time>2022-07-19T17:17:20Z</time>
      </trkpt>
      <trkpt lat="44.66586" lon="6.61501">
        <ele>932</ele>
        <time>2022-07-19T17:17:21Z</time>
      </trkpt>
      <trkpt lat="44.6659" lon="6.61508">
        <ele>932</ele>
        <time>2022-07-19T17:17:22Z</time>
      </trkpt>
      <trkpt lat="44.66594" lon="6.61515">
        <ele>932.2</ele>
        <time>2022-07-19T17:17:23Z</time>
      </trkpt>
      <trkpt lat="44.66598" lon="6.61522">
        <ele>932.2</ele>
        <time>2022-07-19T17:17:24Z</time>
      </trkpt>
      <trkpt lat="44.66602" lon="6.61529">
        <ele>932.2</ele>
        <time>2022-07-19T17:17:25Z</time>
      </trkpt>
      <trkpt lat="44.66606" lon="6.61536">
        <ele>932.4</ele>
        <time>2022-07-19T17:17:26Z</time>
      </trkpt>
      <trkpt lat="44.66609" lon="6.61544">
        <ele>932.4</ele>
        <time>2022-07-19T17:17:27Z</time>
      </trkpt>
      <trkpt lat="44.66613" lon="6.61551">
        <ele>932.4</ele>
        <time>2022-07-19T17:17:28Z</time>
      </trkpt>
      <trkpt lat="44.66617" lon="6.61558">
        <ele>932.8</ele>
        <time>2022-07-19T17:17:29Z</time>
      </trkpt>
      <trkpt lat="44.66621" lon="6.61565">
        <ele>932.8</ele>
        <time>2022-07-19T17:17:30Z</time>
      </trkpt>
      <trkpt lat="44.66624" lon="6.61572">
        <ele>932.8</ele>
        <time>2022-07-19T17:17:31Z</time>
      </trkpt>
      <trkpt lat="44.66628" lon="6.61579">
        <ele>932.8</ele>
        <time>2022-07-19T17:17:32Z</time>
      </trkpt>
      <trkpt lat="44.66631" lon="6.61586">
        <ele>932.8</ele>
        <time>2022-07-19T17:17:33Z</time>
      </trkpt>
      <trkpt lat="44.66635" lon="6.61593">
        <ele>932.8</ele>
        <time>2022-07-19T17:17:34Z</time>
      </trkpt>
      <trkpt lat="44.66639" lon="6.61601">
        <ele>932.8</ele>
        <time>2022-07-19T17:17:35Z</time>
      </trkpt>
      <trkpt lat="44.66642" lon="6.61608">
        <ele>933</ele>
        <time>2022-07-19T17:17:36Z</time>
      </trkpt>
      <trkpt lat="44.66646" lon="6.61615">
        <ele>933</ele>
        <time>2022-07-19T17:17:37Z</time>
      </trkpt>
      <trkpt lat="44.6665" lon="6.61622">
        <ele>933</ele>
        <time>2022-07-19T17:17:38Z</time>
      </trkpt>
      <trkpt lat="44.66653" lon="6.61629">
        <ele>933</ele>
        <time>2022-07-19T17:17:39Z</time>
      </trkpt>
      <trkpt lat="44.66657" lon="6.61636">
        <ele>933.2</ele>
        <time>2022-07-19T17:17:40Z</time>
      </trkpt>
      <trkpt lat="44.66661" lon="6.61643">
        <ele>933.2</ele>
        <time>2022-07-19T17:17:41Z</time>
      </trkpt>
      <trkpt lat="44.66665" lon="6.6165">
        <ele>933.2</ele>
        <time>2022-07-19T17:17:42Z</time>
      </trkpt>
      <trkpt lat="44.66669" lon="6.61657">
        <ele>933.2</ele>
        <time>2022-07-19T17:17:43Z</time>
      </trkpt>
      <trkpt lat="44.66673" lon="6.61663">
        <ele>933.2</ele>
        <time>2022-07-19T17:17:44Z</time>
      </trkpt>
      <trkpt lat="44.66678" lon="6.6167">
        <ele>933.2</ele>
        <time>2022-07-19T17:17:45Z</time>
      </trkpt>
      <trkpt lat="44.66682" lon="6.61677">
        <ele>933.2</ele>
        <time>2022-07-19T17:17:46Z</time>
      </trkpt>
      <trkpt lat="44.66686" lon="6.61683">
        <ele>933.2</ele>
        <time>2022-07-19T17:17:47Z</time>
      </trkpt>
      <trkpt lat="44.66691" lon="6.61689">
        <ele>933.2</ele>
        <time>2022-07-19T17:17:48Z</time>
      </trkpt>
      <trkpt lat="44.66696" lon="6.61696">
        <ele>933.2</ele>
        <time>2022-07-19T17:17:49Z</time>
      </trkpt>
      <trkpt lat="44.667" lon="6.61702">
        <ele>933.2</ele>
        <time>2022-07-19T17:17:50Z</time>
      </trkpt>
      <trkpt lat="44.66705" lon="6.61709">
        <ele>933.2</ele>
        <time>2022-07-19T17:17:51Z</time>
      </trkpt>
      <trkpt lat="44.6671" lon="6.61715">
        <ele>933.2</ele>
        <time>2022-07-19T17:17:52Z</time>
      </trkpt>
      <trkpt lat="44.66715" lon="6.61722">
        <ele>933.2</ele>
        <time>2022-07-19T17:17:53Z</time>
      </trkpt>
      <trkpt lat="44.6672" lon="6.61728">
        <ele>933.2</ele>
        <time>2022-07-19T17:17:54Z</time>
      </trkpt>
      <trkpt lat="44.66726" lon="6.61734">
        <ele>933</ele>
        <time>2022-07-19T17:17:55Z</time>
      </trkpt>
      <trkpt lat="44.66731" lon="6.6174">
        <ele>933</ele>
        <time>2022-07-19T17:17:56Z</time>
      </trkpt>
      <trkpt lat="44.66737" lon="6.61746">
        <ele>933</ele>
        <time>2022-07-19T17:17:57Z</time>
      </trkpt>
      <trkpt lat="44.66742" lon="6.61751">
        <ele>932.6</ele>
        <time>2022-07-19T17:17:58Z</time>
      </trkpt>
      <trkpt lat="44.66748" lon="6.61757">
        <ele>932.6</ele>
        <time>2022-07-19T17:17:59Z</time>
      </trkpt>
      <trkpt lat="44.66754" lon="6.61762">
        <ele>932.4</ele>
        <time>2022-07-19T17:18:00Z</time>
      </trkpt>
      <trkpt lat="44.6676" lon="6.61768">
        <ele>932.4</ele>
        <time>2022-07-19T17:18:01Z</time>
      </trkpt>
      <trkpt lat="44.66767" lon="6.61773">
        <ele>932.2</ele>
        <time>2022-07-19T17:18:02Z</time>
      </trkpt>
      <trkpt lat="44.66773" lon="6.61778">
        <ele>932.2</ele>
        <time>2022-07-19T17:18:03Z</time>
      </trkpt>
      <trkpt lat="44.66779" lon="6.61783">
        <ele>931.8</ele>
        <time>2022-07-19T17:18:04Z</time>
      </trkpt>
      <trkpt lat="44.66786" lon="6.61787">
        <ele>931.8</ele>
        <time>2022-07-19T17:18:05Z</time>
      </trkpt>
      <trkpt lat="44.66792" lon="6.61792">
        <ele>931.6</ele>
        <time>2022-07-19T17:18:06Z</time>
      </trkpt>
      <trkpt lat="44.66798" lon="6.61796">
        <ele>931.6</ele>
        <time>2022-07-19T17:18:07Z</time>
      </trkpt>
      <trkpt lat="44.66805" lon="6.61801">
        <ele>931.2</ele>
        <time>2022-07-19T17:18:08Z</time>
      </trkpt>
      <trkpt lat="44.66811" lon="6.61805">
        <ele>931.2</ele>
        <time>2022-07-19T17:18:09Z</time>
      </trkpt>
      <trkpt lat="44.66817" lon="6.61808">
        <ele>931</ele>
        <time>2022-07-19T17:18:10Z</time>
      </trkpt>
      <trkpt lat="44.66823" lon="6.61812">
        <ele>931</ele>
        <time>2022-07-19T17:18:11Z</time>
      </trkpt>
      <trkpt lat="44.66829" lon="6.61815">
        <ele>930.6</ele>
        <time>2022-07-19T17:18:12Z</time>
      </trkpt>
      <trkpt lat="44.66836" lon="6.61818">
        <ele>930.6</ele>
        <time>2022-07-19T17:18:13Z</time>
      </trkpt>
      <trkpt lat="44.66842" lon="6.61821">
        <ele>930.4</ele>
        <time>2022-07-19T17:18:14Z</time>
      </trkpt>
      <trkpt lat="44.66848" lon="6.61825">
        <ele>930</ele>
        <time>2022-07-19T17:18:15Z</time>
      </trkpt>
      <trkpt lat="44.66855" lon="6.61827">
        <ele>930</ele>
        <time>2022-07-19T17:18:16Z</time>
      </trkpt>
      <trkpt lat="44.66862" lon="6.6183">
        <ele>929.8</ele>
        <time>2022-07-19T17:18:17Z</time>
      </trkpt>
      <trkpt lat="44.66868" lon="6.61833">
        <ele>929.8</ele>
        <time>2022-07-19T17:18:18Z</time>
      </trkpt>
      <trkpt lat="44.66875" lon="6.61835">
        <ele>929.6</ele>
        <time>2022-07-19T17:18:19Z</time>
      </trkpt>
      <trkpt lat="44.66882" lon="6.61838">
        <ele>929.6</ele>
        <time>2022-07-19T17:18:20Z</time>
      </trkpt>
      <trkpt lat="44.66889" lon="6.6184">
        <ele>929.2</ele>
        <time>2022-07-19T17:18:21Z</time>
      </trkpt>
      <trkpt lat="44.66896" lon="6.61842">
        <ele>929.2</ele>
        <time>2022-07-19T17:18:22Z</time>
      </trkpt>
      <trkpt lat="44.66903" lon="6.61844">
        <ele>929</ele>
        <time>2022-07-19T17:18:23Z</time>
      </trkpt>
      <trkpt lat="44.6691" lon="6.61846">
        <ele>929</ele>
        <time>2022-07-19T17:18:24Z</time>
      </trkpt>
      <trkpt lat="44.66917" lon="6.61848">
        <ele>929</ele>
        <time>2022-07-19T17:18:25Z</time>
      </trkpt>
      <trkpt lat="44.66924" lon="6.61849">
        <ele>929</ele>
        <time>2022-07-19T17:18:26Z</time>
      </trkpt>
      <trkpt lat="44.66932" lon="6.6185">
        <ele>929</ele>
        <time>2022-07-19T17:18:27Z</time>
      </trkpt>
      <trkpt lat="44.66939" lon="6.61851">
        <ele>929</ele>
        <time>2022-07-19T17:18:28Z</time>
      </trkpt>
      <trkpt lat="44.66947" lon="6.61852">
        <ele>929</ele>
        <time>2022-07-19T17:18:29Z</time>
      </trkpt>
      <trkpt lat="44.66954" lon="6.61853">
        <ele>929</ele>
        <time>2022-07-19T17:18:30Z</time>
      </trkpt>
      <trkpt lat="44.66961" lon="6.61853">
        <ele>928.8</ele>
        <time>2022-07-19T17:18:31Z</time>
      </trkpt>
      <trkpt lat="44.66969" lon="6.61853">
        <ele>928.8</ele>
        <time>2022-07-19T17:18:32Z</time>
      </trkpt>
      <trkpt lat="44.66976" lon="6.61853">
        <ele>928.4</ele>
        <time>2022-07-19T17:18:33Z</time>
      </trkpt>
      <trkpt lat="44.66984" lon="6.61852">
        <ele>928</ele>
        <time>2022-07-19T17:18:34Z</time>
      </trkpt>
      <trkpt lat="44.66991" lon="6.61853">
        <ele>928</ele>
        <time>2022-07-19T17:18:35Z</time>
      </trkpt>
      <trkpt lat="44.66998" lon="6.61852">
        <ele>927.6</ele>
        <time>2022-07-19T17:18:36Z</time>
      </trkpt>
      <trkpt lat="44.67005" lon="6.61852">
        <ele>927.6</ele>
        <time>2022-07-19T17:18:37Z</time>
      </trkpt>
      <trkpt lat="44.67011" lon="6.61851">
        <ele>927.2</ele>
        <time>2022-07-19T17:18:38Z</time>
      </trkpt>
      <trkpt lat="44.67018" lon="6.6185">
        <ele>927.2</ele>
        <time>2022-07-19T17:18:39Z</time>
      </trkpt>
      <trkpt lat="44.67025" lon="6.61849">
        <ele>927</ele>
        <time>2022-07-19T17:18:40Z</time>
      </trkpt>
      <trkpt lat="44.67032" lon="6.61848">
        <ele>927</ele>
        <time>2022-07-19T17:18:41Z</time>
      </trkpt>
      <trkpt lat="44.67039" lon="6.61847">
        <ele>926.6</ele>
        <time>2022-07-19T17:18:42Z</time>
      </trkpt>
      <trkpt lat="44.67046" lon="6.61845">
        <ele>926.6</ele>
        <time>2022-07-19T17:18:43Z</time>
      </trkpt>
      <trkpt lat="44.67053" lon="6.61844">
        <ele>926.4</ele>
        <time>2022-07-19T17:18:44Z</time>
      </trkpt>
      <trkpt lat="44.67061" lon="6.61843">
        <ele>926.4</ele>
        <time>2022-07-19T17:18:45Z</time>
      </trkpt>
      <trkpt lat="44.67068" lon="6.61841">
        <ele>926.4</ele>
        <time>2022-07-19T17:18:46Z</time>
      </trkpt>
      <trkpt lat="44.67075" lon="6.6184">
        <ele>926.2</ele>
        <time>2022-07-19T17:18:47Z</time>
      </trkpt>
      <trkpt lat="44.67082" lon="6.61838">
        <ele>926.2</ele>
        <time>2022-07-19T17:18:48Z</time>
      </trkpt>
      <trkpt lat="44.67089" lon="6.61836">
        <ele>926</ele>
        <time>2022-07-19T17:18:49Z</time>
      </trkpt>
      <trkpt lat="44.67097" lon="6.61834">
        <ele>926</ele>
        <time>2022-07-19T17:18:50Z</time>
      </trkpt>
      <trkpt lat="44.67104" lon="6.61833">
        <ele>926</ele>
        <time>2022-07-19T17:18:51Z</time>
      </trkpt>
      <trkpt lat="44.67112" lon="6.61833">
        <ele>925.8</ele>
        <time>2022-07-19T17:18:52Z</time>
      </trkpt>
      <trkpt lat="44.6712" lon="6.61832">
        <ele>925.8</ele>
        <time>2022-07-19T17:18:53Z</time>
      </trkpt>
      <trkpt lat="44.67127" lon="6.61831">
        <ele>925.8</ele>
        <time>2022-07-19T17:18:54Z</time>
      </trkpt>
      <trkpt lat="44.67135" lon="6.61829">
        <ele>925.8</ele>
        <time>2022-07-19T17:18:55Z</time>
      </trkpt>
      <trkpt lat="44.67143" lon="6.61828">
        <ele>925.8</ele>
        <time>2022-07-19T17:18:56Z</time>
      </trkpt>
      <trkpt lat="44.67151" lon="6.61825">
        <ele>925.6</ele>
        <time>2022-07-19T17:18:57Z</time>
      </trkpt>
      <trkpt lat="44.67159" lon="6.61821">
        <ele>925.6</ele>
        <time>2022-07-19T17:18:58Z</time>
      </trkpt>
      <trkpt lat="44.67166" lon="6.61817">
        <ele>925.6</ele>
        <time>2022-07-19T17:18:59Z</time>
      </trkpt>
      <trkpt lat="44.67174" lon="6.61812">
        <ele>925.6</ele>
        <time>2022-07-19T17:19:00Z</time>
      </trkpt>
      <trkpt lat="44.67181" lon="6.61807">
        <ele>925.6</ele>
        <time>2022-07-19T17:19:01Z</time>
      </trkpt>
      <trkpt lat="44.67189" lon="6.61803">
        <ele>925.6</ele>
        <time>2022-07-19T17:19:02Z</time>
      </trkpt>
      <trkpt lat="44.67196" lon="6.61799">
        <ele>925.4</ele>
        <time>2022-07-19T17:19:03Z</time>
      </trkpt>
      <trkpt lat="44.67204" lon="6.61796">
        <ele>925.4</ele>
        <time>2022-07-19T17:19:04Z</time>
      </trkpt>
      <trkpt lat="44.67213" lon="6.61794">
        <ele>925</ele>
        <time>2022-07-19T17:19:05Z</time>
      </trkpt>
      <trkpt lat="44.67221" lon="6.61791">
        <ele>925</ele>
        <time>2022-07-19T17:19:06Z</time>
      </trkpt>
      <trkpt lat="44.67229" lon="6.61789">
        <ele>925</ele>
        <time>2022-07-19T17:19:07Z</time>
      </trkpt>
      <trkpt lat="44.67237" lon="6.61787">
        <ele>925</ele>
        <time>2022-07-19T17:19:08Z</time>
      </trkpt>
      <trkpt lat="44.67245" lon="6.61784">
        <ele>925</ele>
        <time>2022-07-19T17:19:09Z</time>
      </trkpt>
      <trkpt lat="44.67253" lon="6.61781">
        <ele>925</ele>
        <time>2022-07-19T17:19:10Z</time>
      </trkpt>
      <trkpt lat="44.67261" lon="6.61779">
        <ele>924.6</ele>
        <time>2022-07-19T17:19:11Z</time>
      </trkpt>
      <trkpt lat="44.67269" lon="6.61776">
        <ele>924.6</ele>
        <time>2022-07-19T17:19:12Z</time>
      </trkpt>
      <trkpt lat="44.67277" lon="6.61774">
        <ele>924.6</ele>
        <time>2022-07-19T17:19:13Z</time>
      </trkpt>
      <trkpt lat="44.67285" lon="6.61772">
        <ele>924.6</ele>
        <time>2022-07-19T17:19:14Z</time>
      </trkpt>
      <trkpt lat="44.67293" lon="6.61769">
        <ele>924.6</ele>
        <time>2022-07-19T17:19:15Z</time>
      </trkpt>
      <trkpt lat="44.67301" lon="6.61767">
        <ele>924.4</ele>
        <time>2022-07-19T17:19:16Z</time>
      </trkpt>
      <trkpt lat="44.67309" lon="6.61765">
        <ele>924.4</ele>
        <time>2022-07-19T17:19:17Z</time>
      </trkpt>
      <trkpt lat="44.67317" lon="6.61762">
        <ele>924.4</ele>
        <time>2022-07-19T17:19:18Z</time>
      </trkpt>
      <trkpt lat="44.67325" lon="6.6176">
        <ele>924.2</ele>
        <time>2022-07-19T17:19:19Z</time>
      </trkpt>
      <trkpt lat="44.67333" lon="6.61758">
        <ele>924.2</ele>
        <time>2022-07-19T17:19:20Z</time>
      </trkpt>
      <trkpt lat="44.67341" lon="6.61755">
        <ele>924.2</ele>
        <time>2022-07-19T17:19:21Z</time>
      </trkpt>
      <trkpt lat="44.67349" lon="6.61753">
        <ele>924.2</ele>
        <time>2022-07-19T17:19:22Z</time>
      </trkpt>
      <trkpt lat="44.67356" lon="6.61751">
        <ele>924</ele>
        <time>2022-07-19T17:19:23Z</time>
      </trkpt>
      <trkpt lat="44.67364" lon="6.61749">
        <ele>924</ele>
        <time>2022-07-19T17:19:24Z</time>
      </trkpt>
      <trkpt lat="44.67372" lon="6.61747">
        <ele>924</ele>
        <time>2022-07-19T17:19:25Z</time>
      </trkpt>
      <trkpt lat="44.67379" lon="6.61745">
        <ele>924</ele>
        <time>2022-07-19T17:19:26Z</time>
      </trkpt>
      <trkpt lat="44.67387" lon="6.61743">
        <ele>924</ele>
        <time>2022-07-19T17:19:27Z</time>
      </trkpt>
      <trkpt lat="44.67394" lon="6.61741">
        <ele>924</ele>
        <time>2022-07-19T17:19:28Z</time>
      </trkpt>
      <trkpt lat="44.67401" lon="6.61739">
        <ele>924</ele>
        <time>2022-07-19T17:19:29Z</time>
      </trkpt>
      <trkpt lat="44.67408" lon="6.61736">
        <ele>924</ele>
        <time>2022-07-19T17:19:30Z</time>
      </trkpt>
      <trkpt lat="44.67416" lon="6.61734">
        <ele>924</ele>
        <time>2022-07-19T17:19:31Z</time>
      </trkpt>
      <trkpt lat="44.67423" lon="6.61732">
        <ele>924</ele>
        <time>2022-07-19T17:19:32Z</time>
      </trkpt>
      <trkpt lat="44.6743" lon="6.6173">
        <ele>924</ele>
        <time>2022-07-19T17:19:33Z</time>
      </trkpt>
      <trkpt lat="44.67437" lon="6.61728">
        <ele>924</ele>
        <time>2022-07-19T17:19:34Z</time>
      </trkpt>
      <trkpt lat="44.67444" lon="6.61727">
        <ele>924</ele>
        <time>2022-07-19T17:19:35Z</time>
      </trkpt>
      <trkpt lat="44.67451" lon="6.61725">
        <ele>924</ele>
        <time>2022-07-19T17:19:36Z</time>
      </trkpt>
      <trkpt lat="44.67459" lon="6.61723">
        <ele>923.8</ele>
        <time>2022-07-19T17:19:37Z</time>
      </trkpt>
      <trkpt lat="44.67466" lon="6.61721">
        <ele>923.8</ele>
        <time>2022-07-19T17:19:38Z</time>
      </trkpt>
      <trkpt lat="44.67473" lon="6.61719">
        <ele>923.8</ele>
        <time>2022-07-19T17:19:39Z</time>
      </trkpt>
      <trkpt lat="44.67479" lon="6.61717">
        <ele>923.8</ele>
        <time>2022-07-19T17:19:40Z</time>
      </trkpt>
      <trkpt lat="44.67486" lon="6.61715">
        <ele>923.8</ele>
        <time>2022-07-19T17:19:41Z</time>
      </trkpt>
      <trkpt lat="44.67493" lon="6.61713">
        <ele>923.8</ele>
        <time>2022-07-19T17:19:42Z</time>
      </trkpt>
      <trkpt lat="44.675" lon="6.61711">
        <ele>923.8</ele>
        <time>2022-07-19T17:19:43Z</time>
      </trkpt>
      <trkpt lat="44.67507" lon="6.61709">
        <ele>923.8</ele>
        <time>2022-07-19T17:19:44Z</time>
      </trkpt>
      <trkpt lat="44.67514" lon="6.61707">
        <ele>923.8</ele>
        <time>2022-07-19T17:19:45Z</time>
      </trkpt>
      <trkpt lat="44.6752" lon="6.61705">
        <ele>923.8</ele>
        <time>2022-07-19T17:19:46Z</time>
      </trkpt>
      <trkpt lat="44.67527" lon="6.61704">
        <ele>923.8</ele>
        <time>2022-07-19T17:19:47Z</time>
      </trkpt>
      <trkpt lat="44.67534" lon="6.61702">
        <ele>923.8</ele>
        <time>2022-07-19T17:19:48Z</time>
      </trkpt>
      <trkpt lat="44.67541" lon="6.617">
        <ele>923.8</ele>
        <time>2022-07-19T17:19:49Z</time>
      </trkpt>
      <trkpt lat="44.67547" lon="6.61698">
        <ele>923.8</ele>
        <time>2022-07-19T17:19:50Z</time>
      </trkpt>
      <trkpt lat="44.67554" lon="6.61696">
        <ele>923.8</ele>
        <time>2022-07-19T17:19:51Z</time>
      </trkpt>
      <trkpt lat="44.67561" lon="6.61695">
        <ele>923.8</ele>
        <time>2022-07-19T17:19:52Z</time>
      </trkpt>
      <trkpt lat="44.67567" lon="6.61693">
        <ele>923.8</ele>
        <time>2022-07-19T17:19:53Z</time>
      </trkpt>
      <trkpt lat="44.67574" lon="6.61691">
        <ele>923.6</ele>
        <time>2022-07-19T17:19:54Z</time>
      </trkpt>
      <trkpt lat="44.6758" lon="6.61689">
        <ele>923.6</ele>
        <time>2022-07-19T17:19:55Z</time>
      </trkpt>
      <trkpt lat="44.67587" lon="6.61686">
        <ele>923.6</ele>
        <time>2022-07-19T17:19:56Z</time>
      </trkpt>
      <trkpt lat="44.67593" lon="6.61683">
        <ele>923.6</ele>
        <time>2022-07-19T17:19:57Z</time>
      </trkpt>
      <trkpt lat="44.676" lon="6.61681">
        <ele>923.6</ele>
        <time>2022-07-19T17:19:58Z</time>
      </trkpt>
      <trkpt lat="44.67606" lon="6.61679">
        <ele>923.8</ele>
        <time>2022-07-19T17:19:59Z</time>
      </trkpt>
      <trkpt lat="44.67612" lon="6.61678">
        <ele>923.8</ele>
        <time>2022-07-19T17:20:00Z</time>
      </trkpt>
      <trkpt lat="44.67619" lon="6.61677">
        <ele>923.8</ele>
        <time>2022-07-19T17:20:01Z</time>
      </trkpt>
      <trkpt lat="44.67625" lon="6.61676">
        <ele>923.8</ele>
        <time>2022-07-19T17:20:02Z</time>
      </trkpt>
      <trkpt lat="44.67631" lon="6.61675">
        <ele>923.8</ele>
        <time>2022-07-19T17:20:03Z</time>
      </trkpt>
      <trkpt lat="44.67638" lon="6.61674">
        <ele>924.2</ele>
        <time>2022-07-19T17:20:04Z</time>
      </trkpt>
      <trkpt lat="44.67645" lon="6.61673">
        <ele>924.2</ele>
        <time>2022-07-19T17:20:05Z</time>
      </trkpt>
      <trkpt lat="44.67651" lon="6.61672">
        <ele>924.2</ele>
        <time>2022-07-19T17:20:06Z</time>
      </trkpt>
      <trkpt lat="44.67658" lon="6.61671">
        <ele>924.2</ele>
        <time>2022-07-19T17:20:07Z</time>
      </trkpt>
      <trkpt lat="44.67665" lon="6.61669">
        <ele>924.2</ele>
        <time>2022-07-19T17:20:08Z</time>
      </trkpt>
      <trkpt lat="44.67671" lon="6.61668">
        <ele>924.2</ele>
        <time>2022-07-19T17:20:09Z</time>
      </trkpt>
      <trkpt lat="44.67678" lon="6.61666">
        <ele>924.2</ele>
        <time>2022-07-19T17:20:10Z</time>
      </trkpt>
      <trkpt lat="44.67685" lon="6.61664">
        <ele>924.2</ele>
        <time>2022-07-19T17:20:11Z</time>
      </trkpt>
      <trkpt lat="44.67692" lon="6.61662">
        <ele>924.2</ele>
        <time>2022-07-19T17:20:12Z</time>
      </trkpt>
      <trkpt lat="44.67698" lon="6.61659">
        <ele>924.2</ele>
        <time>2022-07-19T17:20:13Z</time>
      </trkpt>
      <trkpt lat="44.67705" lon="6.61656">
        <ele>924.2</ele>
        <time>2022-07-19T17:20:14Z</time>
      </trkpt>
      <trkpt lat="44.67712" lon="6.61653">
        <ele>924.2</ele>
        <time>2022-07-19T17:20:15Z</time>
      </trkpt>
      <trkpt lat="44.67719" lon="6.61651">
        <ele>924.2</ele>
        <time>2022-07-19T17:20:16Z</time>
      </trkpt>
      <trkpt lat="44.67725" lon="6.61648">
        <ele>924.2</ele>
        <time>2022-07-19T17:20:17Z</time>
      </trkpt>
      <trkpt lat="44.67732" lon="6.61646">
        <ele>924.2</ele>
        <time>2022-07-19T17:20:18Z</time>
      </trkpt>
      <trkpt lat="44.67739" lon="6.61644">
        <ele>924.2</ele>
        <time>2022-07-19T17:20:19Z</time>
      </trkpt>
      <trkpt lat="44.67745" lon="6.61643">
        <ele>924.4</ele>
        <time>2022-07-19T17:20:20Z</time>
      </trkpt>
      <trkpt lat="44.67751" lon="6.61642">
        <ele>924.4</ele>
        <time>2022-07-19T17:20:21Z</time>
      </trkpt>
      <trkpt lat="44.67758" lon="6.6164">
        <ele>924.4</ele>
        <time>2022-07-19T17:20:22Z</time>
      </trkpt>
      <trkpt lat="44.67764" lon="6.61638">
        <ele>924.4</ele>
        <time>2022-07-19T17:20:23Z</time>
      </trkpt>
      <trkpt lat="44.6777" lon="6.61636">
        <ele>924.4</ele>
        <time>2022-07-19T17:20:24Z</time>
      </trkpt>
      <trkpt lat="44.67776" lon="6.61634">
        <ele>924.4</ele>
        <time>2022-07-19T17:20:25Z</time>
      </trkpt>
      <trkpt lat="44.67782" lon="6.61633">
        <ele>924.4</ele>
        <time>2022-07-19T17:20:26Z</time>
      </trkpt>
      <trkpt lat="44.67788" lon="6.61631">
        <ele>924.4</ele>
        <time>2022-07-19T17:20:27Z</time>
      </trkpt>
      <trkpt lat="44.67794" lon="6.61629">
        <ele>924.4</ele>
        <time>2022-07-19T17:20:28Z</time>
      </trkpt>
      <trkpt lat="44.678" lon="6.61627">
        <ele>924.4</ele>
        <time>2022-07-19T17:20:29Z</time>
      </trkpt>
      <trkpt lat="44.67806" lon="6.61625">
        <ele>924.4</ele>
        <time>2022-07-19T17:20:30Z</time>
      </trkpt>
      <trkpt lat="44.67811" lon="6.61624">
        <ele>924.6</ele>
        <time>2022-07-19T17:20:31Z</time>
      </trkpt>
      <trkpt lat="44.67817" lon="6.61622">
        <ele>924.6</ele>
        <time>2022-07-19T17:20:32Z</time>
      </trkpt>
      <trkpt lat="44.67822" lon="6.61621">
        <ele>924.6</ele>
        <time>2022-07-19T17:20:33Z</time>
      </trkpt>
      <trkpt lat="44.67828" lon="6.61619">
        <ele>924.6</ele>
        <time>2022-07-19T17:20:34Z</time>
      </trkpt>
      <trkpt lat="44.67833" lon="6.61617">
        <ele>924.8</ele>
        <time>2022-07-19T17:20:35Z</time>
      </trkpt>
      <trkpt lat="44.67839" lon="6.61615">
        <ele>924.8</ele>
        <time>2022-07-19T17:20:36Z</time>
      </trkpt>
      <trkpt lat="44.67844" lon="6.61614">
        <ele>925.2</ele>
        <time>2022-07-19T17:20:37Z</time>
      </trkpt>
      <trkpt lat="44.6785" lon="6.61612">
        <ele>925.2</ele>
        <time>2022-07-19T17:20:38Z</time>
      </trkpt>
      <trkpt lat="44.67855" lon="6.61611">
        <ele>925.2</ele>
        <time>2022-07-19T17:20:39Z</time>
      </trkpt>
      <trkpt lat="44.67861" lon="6.61609">
        <ele>925.2</ele>
        <time>2022-07-19T17:20:40Z</time>
      </trkpt>
      <trkpt lat="44.67867" lon="6.61607">
        <ele>925.2</ele>
        <time>2022-07-19T17:20:41Z</time>
      </trkpt>
      <trkpt lat="44.67873" lon="6.61605">
        <ele>925.4</ele>
        <time>2022-07-19T17:20:42Z</time>
      </trkpt>
      <trkpt lat="44.67879" lon="6.61603">
        <ele>925.4</ele>
        <time>2022-07-19T17:20:43Z</time>
      </trkpt>
      <trkpt lat="44.67885" lon="6.61601">
        <ele>925.4</ele>
        <time>2022-07-19T17:20:44Z</time>
      </trkpt>
      <trkpt lat="44.67891" lon="6.616">
        <ele>925.6</ele>
        <time>2022-07-19T17:20:45Z</time>
      </trkpt>
      <trkpt lat="44.67897" lon="6.61598">
        <ele>925.6</ele>
        <time>2022-07-19T17:20:46Z</time>
      </trkpt>
      <trkpt lat="44.67903" lon="6.61596">
        <ele>925.6</ele>
        <time>2022-07-19T17:20:47Z</time>
      </trkpt>
      <trkpt lat="44.6791" lon="6.61594">
        <ele>925.6</ele>
        <time>2022-07-19T17:20:48Z</time>
      </trkpt>
      <trkpt lat="44.67916" lon="6.61592">
        <ele>925.8</ele>
        <time>2022-07-19T17:20:49Z</time>
      </trkpt>
      <trkpt lat="44.67923" lon="6.6159">
        <ele>925.8</ele>
        <time>2022-07-19T17:20:50Z</time>
      </trkpt>
      <trkpt lat="44.67929" lon="6.61589">
        <ele>925.8</ele>
        <time>2022-07-19T17:20:51Z</time>
      </trkpt>
      <trkpt lat="44.67936" lon="6.61587">
        <ele>925.8</ele>
        <time>2022-07-19T17:20:52Z</time>
      </trkpt>
      <trkpt lat="44.67942" lon="6.61585">
        <ele>925.6</ele>
        <time>2022-07-19T17:20:53Z</time>
      </trkpt>
      <trkpt lat="44.67949" lon="6.61583">
        <ele>925.4</ele>
        <time>2022-07-19T17:20:54Z</time>
      </trkpt>
      <trkpt lat="44.67955" lon="6.61581">
        <ele>925.2</ele>
        <time>2022-07-19T17:20:55Z</time>
      </trkpt>
      <trkpt lat="44.67961" lon="6.61579">
        <ele>925.2</ele>
        <time>2022-07-19T17:20:56Z</time>
      </trkpt>
      <trkpt lat="44.67967" lon="6.61578">
        <ele>924.8</ele>
        <time>2022-07-19T17:20:57Z</time>
      </trkpt>
      <trkpt lat="44.67973" lon="6.61576">
        <ele>924.8</ele>
        <time>2022-07-19T17:20:58Z</time>
      </trkpt>
      <trkpt lat="44.67979" lon="6.61574">
        <ele>924.8</ele>
        <time>2022-07-19T17:20:59Z</time>
      </trkpt>
      <trkpt lat="44.67984" lon="6.61573">
        <ele>924.8</ele>
        <time>2022-07-19T17:21:00Z</time>
      </trkpt>
      <trkpt lat="44.6799" lon="6.61571">
        <ele>924.8</ele>
        <time>2022-07-19T17:21:01Z</time>
      </trkpt>
      <trkpt lat="44.67996" lon="6.6157">
        <ele>924.8</ele>
        <time>2022-07-19T17:21:02Z</time>
      </trkpt>
      <trkpt lat="44.68002" lon="6.61568">
        <ele>924.8</ele>
        <time>2022-07-19T17:21:03Z</time>
      </trkpt>
      <trkpt lat="44.68008" lon="6.61566">
        <ele>924.8</ele>
        <time>2022-07-19T17:21:04Z</time>
      </trkpt>
      <trkpt lat="44.68014" lon="6.61565">
        <ele>924.8</ele>
        <time>2022-07-19T17:21:05Z</time>
      </trkpt>
      <trkpt lat="44.6802" lon="6.61563">
        <ele>924.8</ele>
        <time>2022-07-19T17:21:06Z</time>
      </trkpt>
      <trkpt lat="44.68027" lon="6.61561">
        <ele>924.8</ele>
        <time>2022-07-19T17:21:07Z</time>
      </trkpt>
      <trkpt lat="44.68033" lon="6.61559">
        <ele>925</ele>
        <time>2022-07-19T17:21:08Z</time>
      </trkpt>
      <trkpt lat="44.68039" lon="6.61558">
        <ele>925</ele>
        <time>2022-07-19T17:21:09Z</time>
      </trkpt>
      <trkpt lat="44.68045" lon="6.61556">
        <ele>925</ele>
        <time>2022-07-19T17:21:10Z</time>
      </trkpt>
      <trkpt lat="44.68051" lon="6.61554">
        <ele>925</ele>
        <time>2022-07-19T17:21:11Z</time>
      </trkpt>
      <trkpt lat="44.68057" lon="6.61552">
        <ele>925.4</ele>
        <time>2022-07-19T17:21:12Z</time>
      </trkpt>
      <trkpt lat="44.68063" lon="6.61551">
        <ele>925.4</ele>
        <time>2022-07-19T17:21:13Z</time>
      </trkpt>
      <trkpt lat="44.68069" lon="6.61549">
        <ele>925.6</ele>
        <time>2022-07-19T17:21:14Z</time>
      </trkpt>
      <trkpt lat="44.68074" lon="6.61547">
        <ele>925.6</ele>
        <time>2022-07-19T17:21:15Z</time>
      </trkpt>
      <trkpt lat="44.6808" lon="6.61545">
        <ele>925.6</ele>
        <time>2022-07-19T17:21:16Z</time>
      </trkpt>
      <trkpt lat="44.68086" lon="6.61544">
        <ele>926</ele>
        <time>2022-07-19T17:21:17Z</time>
      </trkpt>
      <trkpt lat="44.68091" lon="6.61543">
        <ele>926</ele>
        <time>2022-07-19T17:21:18Z</time>
      </trkpt>
      <trkpt lat="44.68097" lon="6.61541">
        <ele>926</ele>
        <time>2022-07-19T17:21:19Z</time>
      </trkpt>
      <trkpt lat="44.68103" lon="6.61539">
        <ele>926</ele>
        <time>2022-07-19T17:21:20Z</time>
      </trkpt>
      <trkpt lat="44.68108" lon="6.61538">
        <ele>926</ele>
        <time>2022-07-19T17:21:21Z</time>
      </trkpt>
      <trkpt lat="44.68114" lon="6.61536">
        <ele>926.2</ele>
        <time>2022-07-19T17:21:22Z</time>
      </trkpt>
      <trkpt lat="44.68119" lon="6.61534">
        <ele>926.2</ele>
        <time>2022-07-19T17:21:23Z</time>
      </trkpt>
      <trkpt lat="44.68125" lon="6.61533">
        <ele>926.4</ele>
        <time>2022-07-19T17:21:24Z</time>
      </trkpt>
      <trkpt lat="44.6813" lon="6.61531">
        <ele>926.4</ele>
        <time>2022-07-19T17:21:25Z</time>
      </trkpt>
      <trkpt lat="44.68135" lon="6.6153">
        <ele>926.6</ele>
        <time>2022-07-19T17:21:26Z</time>
      </trkpt>
      <trkpt lat="44.68141" lon="6.61528">
        <ele>926.6</ele>
        <time>2022-07-19T17:21:27Z</time>
      </trkpt>
      <trkpt lat="44.68146" lon="6.61527">
        <ele>927</ele>
        <time>2022-07-19T17:21:28Z</time>
      </trkpt>
      <trkpt lat="44.68151" lon="6.61525">
        <ele>927</ele>
        <time>2022-07-19T17:21:29Z</time>
      </trkpt>
      <trkpt lat="44.68155" lon="6.61523">
        <ele>927</ele>
        <time>2022-07-19T17:21:30Z</time>
      </trkpt>
      <trkpt lat="44.6816" lon="6.61522">
        <ele>927.2</ele>
        <time>2022-07-19T17:21:31Z</time>
      </trkpt>
      <trkpt lat="44.68165" lon="6.61521">
        <ele>927.2</ele>
        <time>2022-07-19T17:21:32Z</time>
      </trkpt>
      <trkpt lat="44.68169" lon="6.6152">
        <ele>927.6</ele>
        <time>2022-07-19T17:21:33Z</time>
      </trkpt>
      <trkpt lat="44.68174" lon="6.61519">
        <ele>927.6</ele>
        <time>2022-07-19T17:21:34Z</time>
      </trkpt>
      <trkpt lat="44.68179" lon="6.61518">
        <ele>927.8</ele>
        <time>2022-07-19T17:21:35Z</time>
      </trkpt>
      <trkpt lat="44.68183" lon="6.61516">
        <ele>927.8</ele>
        <time>2022-07-19T17:21:36Z</time>
      </trkpt>
      <trkpt lat="44.68187" lon="6.61515">
        <ele>928</ele>
        <time>2022-07-19T17:21:37Z</time>
      </trkpt>
      <trkpt lat="44.68192" lon="6.61514">
        <ele>928.4</ele>
        <time>2022-07-19T17:21:38Z</time>
      </trkpt>
      <trkpt lat="44.68196" lon="6.61513">
        <ele>928.6</ele>
        <time>2022-07-19T17:21:39Z</time>
      </trkpt>
      <trkpt lat="44.68201" lon="6.61512">
        <ele>929</ele>
        <time>2022-07-19T17:21:40Z</time>
      </trkpt>
      <trkpt lat="44.68206" lon="6.6151">
        <ele>929.2</ele>
        <time>2022-07-19T17:21:41Z</time>
      </trkpt>
      <trkpt lat="44.68211" lon="6.61509">
        <ele>929.2</ele>
        <time>2022-07-19T17:21:42Z</time>
      </trkpt>
      <trkpt lat="44.68215" lon="6.61507">
        <ele>929.2</ele>
        <time>2022-07-19T17:21:43Z</time>
      </trkpt>
      <trkpt lat="44.6822" lon="6.61506">
        <ele>929.2</ele>
        <time>2022-07-19T17:21:44Z</time>
      </trkpt>
      <trkpt lat="44.68224" lon="6.61505">
        <ele>929.6</ele>
        <time>2022-07-19T17:21:45Z</time>
      </trkpt>
      <trkpt lat="44.68228" lon="6.61503">
        <ele>929.6</ele>
        <time>2022-07-19T17:21:46Z</time>
      </trkpt>
      <trkpt lat="44.68233" lon="6.61502">
        <ele>929.8</ele>
        <time>2022-07-19T17:21:47Z</time>
      </trkpt>
      <trkpt lat="44.68237" lon="6.61501">
        <ele>930</ele>
        <time>2022-07-19T17:21:48Z</time>
      </trkpt>
      <trkpt lat="44.68241" lon="6.615">
        <ele>930</ele>
        <time>2022-07-19T17:21:49Z</time>
      </trkpt>
      <trkpt lat="44.68245" lon="6.61499">
        <ele>930.2</ele>
        <time>2022-07-19T17:21:50Z</time>
      </trkpt>
      <trkpt lat="44.68249" lon="6.61498">
        <ele>930.2</ele>
        <time>2022-07-19T17:21:51Z</time>
      </trkpt>
      <trkpt lat="44.68253" lon="6.61496">
        <ele>930.6</ele>
        <time>2022-07-19T17:21:52Z</time>
      </trkpt>
      <trkpt lat="44.68257" lon="6.61495">
        <ele>930.6</ele>
        <time>2022-07-19T17:21:53Z</time>
      </trkpt>
      <trkpt lat="44.68261" lon="6.61494">
        <ele>930.8</ele>
        <time>2022-07-19T17:21:54Z</time>
      </trkpt>
      <trkpt lat="44.68265" lon="6.61493">
        <ele>930.8</ele>
        <time>2022-07-19T17:21:55Z</time>
      </trkpt>
      <trkpt lat="44.68269" lon="6.61492">
        <ele>931.2</ele>
        <time>2022-07-19T17:21:56Z</time>
      </trkpt>
      <trkpt lat="44.68273" lon="6.61491">
        <ele>931.4</ele>
        <time>2022-07-19T17:21:57Z</time>
      </trkpt>
      <trkpt lat="44.68277" lon="6.61489">
        <ele>931.4</ele>
        <time>2022-07-19T17:21:58Z</time>
      </trkpt>
      <trkpt lat="44.68281" lon="6.61488">
        <ele>931.6</ele>
        <time>2022-07-19T17:21:59Z</time>
      </trkpt>
      <trkpt lat="44.68285" lon="6.61487">
        <ele>931.6</ele>
        <time>2022-07-19T17:22:00Z</time>
      </trkpt>
      <trkpt lat="44.68289" lon="6.61486">
        <ele>931.8</ele>
        <time>2022-07-19T17:22:01Z</time>
      </trkpt>
      <trkpt lat="44.68293" lon="6.61485">
        <ele>931.8</ele>
        <time>2022-07-19T17:22:02Z</time>
      </trkpt>
      <trkpt lat="44.68297" lon="6.61484">
        <ele>931.8</ele>
        <time>2022-07-19T17:22:03Z</time>
      </trkpt>
      <trkpt lat="44.68301" lon="6.61483">
        <ele>932.2</ele>
        <time>2022-07-19T17:22:04Z</time>
      </trkpt>
      <trkpt lat="44.68304" lon="6.61482">
        <ele>932.2</ele>
        <time>2022-07-19T17:22:05Z</time>
      </trkpt>
      <trkpt lat="44.68308" lon="6.6148">
        <ele>932.6</ele>
        <time>2022-07-19T17:22:06Z</time>
      </trkpt>
      <trkpt lat="44.68312" lon="6.61479">
        <ele>932.6</ele>
        <time>2022-07-19T17:22:07Z</time>
      </trkpt>
      <trkpt lat="44.68316" lon="6.61478">
        <ele>933</ele>
        <time>2022-07-19T17:22:08Z</time>
      </trkpt>
      <trkpt lat="44.68319" lon="6.61477">
        <ele>933</ele>
        <time>2022-07-19T17:22:09Z</time>
      </trkpt>
      <trkpt lat="44.68323" lon="6.61476">
        <ele>933.2</ele>
        <time>2022-07-19T17:22:10Z</time>
      </trkpt>
      <trkpt lat="44.68327" lon="6.61475">
        <ele>933.2</ele>
        <time>2022-07-19T17:22:11Z</time>
      </trkpt>
      <trkpt lat="44.6833" lon="6.61474">
        <ele>933.4</ele>
        <time>2022-07-19T17:22:12Z</time>
      </trkpt>
      <trkpt lat="44.68334" lon="6.61473">
        <ele>933.6</ele>
        <time>2022-07-19T17:22:13Z</time>
      </trkpt>
      <trkpt lat="44.68338" lon="6.61472">
        <ele>933.6</ele>
        <time>2022-07-19T17:22:14Z</time>
      </trkpt>
      <trkpt lat="44.68342" lon="6.6147">
        <ele>933.6</ele>
        <time>2022-07-19T17:22:15Z</time>
      </trkpt>
      <trkpt lat="44.68345" lon="6.61469">
        <ele>933.8</ele>
        <time>2022-07-19T17:22:16Z</time>
      </trkpt>
      <trkpt lat="44.68349" lon="6.61468">
        <ele>933.8</ele>
        <time>2022-07-19T17:22:17Z</time>
      </trkpt>
      <trkpt lat="44.68352" lon="6.61467">
        <ele>934.2</ele>
        <time>2022-07-19T17:22:18Z</time>
      </trkpt>
      <trkpt lat="44.68356" lon="6.61466">
        <ele>934.2</ele>
        <time>2022-07-19T17:22:19Z</time>
      </trkpt>
      <trkpt lat="44.68359" lon="6.61465">
        <ele>934.6</ele>
        <time>2022-07-19T17:22:20Z</time>
      </trkpt>
      <trkpt lat="44.68363" lon="6.61464">
        <ele>934.8</ele>
        <time>2022-07-19T17:22:21Z</time>
      </trkpt>
      <trkpt lat="44.68366" lon="6.61463">
        <ele>934.8</ele>
        <time>2022-07-19T17:22:22Z</time>
      </trkpt>
      <trkpt lat="44.6837" lon="6.61462">
        <ele>935.2</ele>
        <time>2022-07-19T17:22:23Z</time>
      </trkpt>
      <trkpt lat="44.68373" lon="6.61461">
        <ele>935.2</ele>
        <time>2022-07-19T17:22:24Z</time>
      </trkpt>
      <trkpt lat="44.68377" lon="6.6146">
        <ele>935.4</ele>
        <time>2022-07-19T17:22:25Z</time>
      </trkpt>
      <trkpt lat="44.6838" lon="6.61459">
        <ele>935.4</ele>
        <time>2022-07-19T17:22:26Z</time>
      </trkpt>
      <trkpt lat="44.68384" lon="6.61458">
        <ele>935.8</ele>
        <time>2022-07-19T17:22:27Z</time>
      </trkpt>
      <trkpt lat="44.68388" lon="6.61458">
        <ele>935.8</ele>
        <time>2022-07-19T17:22:28Z</time>
      </trkpt>
      <trkpt lat="44.68392" lon="6.61457">
        <ele>936</ele>
        <time>2022-07-19T17:22:29Z</time>
      </trkpt>
      <trkpt lat="44.68395" lon="6.61456">
        <ele>936.4</ele>
        <time>2022-07-19T17:22:30Z</time>
      </trkpt>
      <trkpt lat="44.68399" lon="6.61455">
        <ele>936.4</ele>
        <time>2022-07-19T17:22:31Z</time>
      </trkpt>
      <trkpt lat="44.68403" lon="6.61454">
        <ele>936.6</ele>
        <time>2022-07-19T17:22:32Z</time>
      </trkpt>
      <trkpt lat="44.68407" lon="6.61452">
        <ele>936.6</ele>
        <time>2022-07-19T17:22:33Z</time>
      </trkpt>
      <trkpt lat="44.68411" lon="6.61451">
        <ele>936.6</ele>
        <time>2022-07-19T17:22:34Z</time>
      </trkpt>
      <trkpt lat="44.68415" lon="6.6145">
        <ele>936.6</ele>
        <time>2022-07-19T17:22:35Z</time>
      </trkpt>
      <trkpt lat="44.68419" lon="6.61449">
        <ele>936.8</ele>
        <time>2022-07-19T17:22:36Z</time>
      </trkpt>
      <trkpt lat="44.68423" lon="6.61448">
        <ele>936.8</ele>
        <time>2022-07-19T17:22:37Z</time>
      </trkpt>
      <trkpt lat="44.68427" lon="6.61447">
        <ele>937.2</ele>
        <time>2022-07-19T17:22:38Z</time>
      </trkpt>
      <trkpt lat="44.68431" lon="6.61446">
        <ele>937.2</ele>
        <time>2022-07-19T17:22:39Z</time>
      </trkpt>
      <trkpt lat="44.68436" lon="6.61445">
        <ele>937.6</ele>
        <time>2022-07-19T17:22:40Z</time>
      </trkpt>
      <trkpt lat="44.6844" lon="6.61444">
        <ele>937.8</ele>
        <time>2022-07-19T17:22:41Z</time>
      </trkpt>
      <trkpt lat="44.68444" lon="6.61442">
        <ele>937.8</ele>
        <time>2022-07-19T17:22:42Z</time>
      </trkpt>
      <trkpt lat="44.68448" lon="6.61441">
        <ele>938.2</ele>
        <time>2022-07-19T17:22:43Z</time>
      </trkpt>
      <trkpt lat="44.68452" lon="6.6144">
        <ele>938.2</ele>
        <time>2022-07-19T17:22:44Z</time>
      </trkpt>
      <trkpt lat="44.68457" lon="6.61439">
        <ele>938.6</ele>
        <time>2022-07-19T17:22:45Z</time>
      </trkpt>
      <trkpt lat="44.68461" lon="6.61437">
        <ele>938.6</ele>
        <time>2022-07-19T17:22:46Z</time>
      </trkpt>
      <trkpt lat="44.68465" lon="6.61436">
        <ele>938.8</ele>
        <time>2022-07-19T17:22:47Z</time>
      </trkpt>
      <trkpt lat="44.68469" lon="6.61435">
        <ele>938.8</ele>
        <time>2022-07-19T17:22:48Z</time>
      </trkpt>
      <trkpt lat="44.68473" lon="6.61434">
        <ele>939.2</ele>
        <time>2022-07-19T17:22:49Z</time>
      </trkpt>
      <trkpt lat="44.68477" lon="6.61433">
        <ele>939.2</ele>
        <time>2022-07-19T17:22:50Z</time>
      </trkpt>
      <trkpt lat="44.68482" lon="6.61432">
        <ele>939.2</ele>
        <time>2022-07-19T17:22:51Z</time>
      </trkpt>
      <trkpt lat="44.68486" lon="6.61431">
        <ele>939.4</ele>
        <time>2022-07-19T17:22:52Z</time>
      </trkpt>
      <trkpt lat="44.6849" lon="6.61429">
        <ele>939.6</ele>
        <time>2022-07-19T17:22:53Z</time>
      </trkpt>
      <trkpt lat="44.68494" lon="6.61428">
        <ele>939.6</ele>
        <time>2022-07-19T17:22:54Z</time>
      </trkpt>
      <trkpt lat="44.68498" lon="6.61427">
        <ele>940</ele>
        <time>2022-07-19T17:22:55Z</time>
      </trkpt>
      <trkpt lat="44.68503" lon="6.61426">
        <ele>940</ele>
        <time>2022-07-19T17:22:56Z</time>
      </trkpt>
      <trkpt lat="44.68507" lon="6.61424">
        <ele>940.2</ele>
        <time>2022-07-19T17:22:57Z</time>
      </trkpt>
      <trkpt lat="44.68511" lon="6.61423">
        <ele>940.2</ele>
        <time>2022-07-19T17:22:58Z</time>
      </trkpt>
      <trkpt lat="44.68515" lon="6.61422">
        <ele>940.4</ele>
        <time>2022-07-19T17:22:59Z</time>
      </trkpt>
      <trkpt lat="44.68519" lon="6.61421">
        <ele>940.4</ele>
        <time>2022-07-19T17:23:00Z</time>
      </trkpt>
      <trkpt lat="44.68523" lon="6.6142">
        <ele>940.8</ele>
        <time>2022-07-19T17:23:01Z</time>
      </trkpt>
      <trkpt lat="44.68527" lon="6.61419">
        <ele>940.8</ele>
        <time>2022-07-19T17:23:02Z</time>
      </trkpt>
      <trkpt lat="44.68531" lon="6.61418">
        <ele>941</ele>
        <time>2022-07-19T17:23:03Z</time>
      </trkpt>
      <trkpt lat="44.68535" lon="6.61417">
        <ele>941</ele>
        <time>2022-07-19T17:23:04Z</time>
      </trkpt>
      <trkpt lat="44.68539" lon="6.61416">
        <ele>941.2</ele>
        <time>2022-07-19T17:23:05Z</time>
      </trkpt>
      <trkpt lat="44.68543" lon="6.61414">
        <ele>941.2</ele>
        <time>2022-07-19T17:23:06Z</time>
      </trkpt>
      <trkpt lat="44.68547" lon="6.61413">
        <ele>941.2</ele>
        <time>2022-07-19T17:23:07Z</time>
      </trkpt>
      <trkpt lat="44.68551" lon="6.61412">
        <ele>941.6</ele>
        <time>2022-07-19T17:23:08Z</time>
      </trkpt>
      <trkpt lat="44.68555" lon="6.61411">
        <ele>941.6</ele>
        <time>2022-07-19T17:23:09Z</time>
      </trkpt>
      <trkpt lat="44.68559" lon="6.6141">
        <ele>941.6</ele>
        <time>2022-07-19T17:23:10Z</time>
      </trkpt>
      <trkpt lat="44.68563" lon="6.61409">
        <ele>941.8</ele>
        <time>2022-07-19T17:23:11Z</time>
      </trkpt>
      <trkpt lat="44.68567" lon="6.61407">
        <ele>941.8</ele>
        <time>2022-07-19T17:23:12Z</time>
      </trkpt>
      <trkpt lat="44.68571" lon="6.61406">
        <ele>942.2</ele>
        <time>2022-07-19T17:23:13Z</time>
      </trkpt>
      <trkpt lat="44.68575" lon="6.61405">
        <ele>942.4</ele>
        <time>2022-07-19T17:23:14Z</time>
      </trkpt>
      <trkpt lat="44.68579" lon="6.61404">
        <ele>942.4</ele>
        <time>2022-07-19T17:23:15Z</time>
      </trkpt>
      <trkpt lat="44.68583" lon="6.61402">
        <ele>942.6</ele>
        <time>2022-07-19T17:23:16Z</time>
      </trkpt>
      <trkpt lat="44.68587" lon="6.61401">
        <ele>942.6</ele>
        <time>2022-07-19T17:23:17Z</time>
      </trkpt>
      <trkpt lat="44.68591" lon="6.614">
        <ele>942.6</ele>
        <time>2022-07-19T17:23:18Z</time>
      </trkpt>
      <trkpt lat="44.68594" lon="6.61399">
        <ele>943</ele>
        <time>2022-07-19T17:23:19Z</time>
      </trkpt>
      <trkpt lat="44.68598" lon="6.61398">
        <ele>943</ele>
        <time>2022-07-19T17:23:20Z</time>
      </trkpt>
      <trkpt lat="44.68602" lon="6.61397">
        <ele>943.4</ele>
        <time>2022-07-19T17:23:21Z</time>
      </trkpt>
      <trkpt lat="44.68606" lon="6.61396">
        <ele>943.4</ele>
        <time>2022-07-19T17:23:22Z</time>
      </trkpt>
      <trkpt lat="44.68609" lon="6.61394">
        <ele>943.8</ele>
        <time>2022-07-19T17:23:23Z</time>
      </trkpt>
      <trkpt lat="44.68613" lon="6.61393">
        <ele>943.8</ele>
        <time>2022-07-19T17:23:24Z</time>
      </trkpt>
      <trkpt lat="44.68617" lon="6.61392">
        <ele>944</ele>
        <time>2022-07-19T17:23:25Z</time>
      </trkpt>
      <trkpt lat="44.6862" lon="6.61391">
        <ele>944</ele>
        <time>2022-07-19T17:23:26Z</time>
      </trkpt>
      <trkpt lat="44.68624" lon="6.6139">
        <ele>944</ele>
        <time>2022-07-19T17:23:27Z</time>
      </trkpt>
      <trkpt lat="44.68627" lon="6.61389">
        <ele>944.4</ele>
        <time>2022-07-19T17:23:28Z</time>
      </trkpt>
      <trkpt lat="44.68631" lon="6.61388">
        <ele>944.4</ele>
        <time>2022-07-19T17:23:29Z</time>
      </trkpt>
      <trkpt lat="44.68635" lon="6.61387">
        <ele>944.6</ele>
        <time>2022-07-19T17:23:30Z</time>
      </trkpt>
      <trkpt lat="44.68638" lon="6.61386">
        <ele>944.6</ele>
        <time>2022-07-19T17:23:31Z</time>
      </trkpt>
      <trkpt lat="44.68642" lon="6.61385">
        <ele>945</ele>
        <time>2022-07-19T17:23:32Z</time>
      </trkpt>
      <trkpt lat="44.68645" lon="6.61384">
        <ele>945</ele>
        <time>2022-07-19T17:23:33Z</time>
      </trkpt>
      <trkpt lat="44.68649" lon="6.61383">
        <ele>945.2</ele>
        <time>2022-07-19T17:23:34Z</time>
      </trkpt>
      <trkpt lat="44.68652" lon="6.61382">
        <ele>945.4</ele>
        <time>2022-07-19T17:23:35Z</time>
      </trkpt>
      <trkpt lat="44.68656" lon="6.61381">
        <ele>945.4</ele>
        <time>2022-07-19T17:23:36Z</time>
      </trkpt>
      <trkpt lat="44.68659" lon="6.6138">
        <ele>945.8</ele>
        <time>2022-07-19T17:23:37Z</time>
      </trkpt>
      <trkpt lat="44.68662" lon="6.61379">
        <ele>945.8</ele>
        <time>2022-07-19T17:23:38Z</time>
      </trkpt>
      <trkpt lat="44.68665" lon="6.61378">
        <ele>946</ele>
        <time>2022-07-19T17:23:39Z</time>
      </trkpt>
      <trkpt lat="44.68668" lon="6.61377">
        <ele>946</ele>
        <time>2022-07-19T17:23:40Z</time>
      </trkpt>
      <trkpt lat="44.68671" lon="6.61375">
        <ele>946.2</ele>
        <time>2022-07-19T17:23:41Z</time>
      </trkpt>
      <trkpt lat="44.68675" lon="6.61374">
        <ele>946.2</ele>
        <time>2022-07-19T17:23:42Z</time>
      </trkpt>
      <trkpt lat="44.68678" lon="6.61373">
        <ele>946.8</ele>
        <time>2022-07-19T17:23:43Z</time>
      </trkpt>
      <trkpt lat="44.68681" lon="6.61372">
        <ele>946.8</ele>
        <time>2022-07-19T17:23:44Z</time>
      </trkpt>
      <trkpt lat="44.68684" lon="6.61372">
        <ele>947.2</ele>
        <time>2022-07-19T17:23:45Z</time>
      </trkpt>
      <trkpt lat="44.68687" lon="6.61371">
        <ele>947.2</ele>
        <time>2022-07-19T17:23:46Z</time>
      </trkpt>
      <trkpt lat="44.6869" lon="6.6137">
        <ele>947.4</ele>
        <time>2022-07-19T17:23:47Z</time>
      </trkpt>
      <trkpt lat="44.68693" lon="6.61369">
        <ele>947.4</ele>
        <time>2022-07-19T17:23:48Z</time>
      </trkpt>
      <trkpt lat="44.68696" lon="6.61368">
        <ele>948</ele>
        <time>2022-07-19T17:23:49Z</time>
      </trkpt>
      <trkpt lat="44.68699" lon="6.61367">
        <ele>948.2</ele>
        <time>2022-07-19T17:23:50Z</time>
      </trkpt>
      <trkpt lat="44.68702" lon="6.61366">
        <ele>948.2</ele>
        <time>2022-07-19T17:23:51Z</time>
      </trkpt>
      <trkpt lat="44.68705" lon="6.61365">
        <ele>948.4</ele>
        <time>2022-07-19T17:23:52Z</time>
      </trkpt>
      <trkpt lat="44.68708" lon="6.61364">
        <ele>948.4</ele>
        <time>2022-07-19T17:23:53Z</time>
      </trkpt>
      <trkpt lat="44.68711" lon="6.61363">
        <ele>948.6</ele>
        <time>2022-07-19T17:23:54Z</time>
      </trkpt>
      <trkpt lat="44.68714" lon="6.61363">
        <ele>948.6</ele>
        <time>2022-07-19T17:23:55Z</time>
      </trkpt>
      <trkpt lat="44.68717" lon="6.61362">
        <ele>949</ele>
        <time>2022-07-19T17:23:56Z</time>
      </trkpt>
      <trkpt lat="44.6872" lon="6.61361">
        <ele>949</ele>
        <time>2022-07-19T17:23:57Z</time>
      </trkpt>
      <trkpt lat="44.68724" lon="6.6136">
        <ele>949.2</ele>
        <time>2022-07-19T17:23:58Z</time>
      </trkpt>
      <trkpt lat="44.68727" lon="6.61359">
        <ele>949.2</ele>
        <time>2022-07-19T17:23:59Z</time>
      </trkpt>
      <trkpt lat="44.6873" lon="6.61359">
        <ele>949.6</ele>
        <time>2022-07-19T17:24:00Z</time>
      </trkpt>
      <trkpt lat="44.68734" lon="6.61358">
        <ele>949.6</ele>
        <time>2022-07-19T17:24:01Z</time>
      </trkpt>
      <trkpt lat="44.68737" lon="6.61357">
        <ele>950</ele>
        <time>2022-07-19T17:24:02Z</time>
      </trkpt>
      <trkpt lat="44.6874" lon="6.61355">
        <ele>950</ele>
        <time>2022-07-19T17:24:03Z</time>
      </trkpt>
      <trkpt lat="44.68743" lon="6.61354">
        <ele>950.4</ele>
        <time>2022-07-19T17:24:04Z</time>
      </trkpt>
      <trkpt lat="44.68747" lon="6.61354">
        <ele>950.4</ele>
        <time>2022-07-19T17:24:05Z</time>
      </trkpt>
      <trkpt lat="44.6875" lon="6.61353">
        <ele>950.6</ele>
        <time>2022-07-19T17:24:06Z</time>
      </trkpt>
      <trkpt lat="44.68753" lon="6.61352">
        <ele>950.6</ele>
        <time>2022-07-19T17:24:07Z</time>
      </trkpt>
      <trkpt lat="44.68756" lon="6.61351">
        <ele>951</ele>
        <time>2022-07-19T17:24:08Z</time>
      </trkpt>
      <trkpt lat="44.68759" lon="6.6135">
        <ele>951</ele>
        <time>2022-07-19T17:24:09Z</time>
      </trkpt>
      <trkpt lat="44.68762" lon="6.6135">
        <ele>951.2</ele>
        <time>2022-07-19T17:24:10Z</time>
      </trkpt>
      <trkpt lat="44.68765" lon="6.61349">
        <ele>951.2</ele>
        <time>2022-07-19T17:24:11Z</time>
      </trkpt>
      <trkpt lat="44.68768" lon="6.61348">
        <ele>951.2</ele>
        <time>2022-07-19T17:24:12Z</time>
      </trkpt>
      <trkpt lat="44.68771" lon="6.61347">
        <ele>951.6</ele>
        <time>2022-07-19T17:24:13Z</time>
      </trkpt>
      <trkpt lat="44.68774" lon="6.61346">
        <ele>951.6</ele>
        <time>2022-07-19T17:24:14Z</time>
      </trkpt>
      <trkpt lat="44.68777" lon="6.61345">
        <ele>951.8</ele>
        <time>2022-07-19T17:24:15Z</time>
      </trkpt>
      <trkpt lat="44.68781" lon="6.61345">
        <ele>951.8</ele>
        <time>2022-07-19T17:24:16Z</time>
      </trkpt>
      <trkpt lat="44.68784" lon="6.61344">
        <ele>952</ele>
        <time>2022-07-19T17:24:17Z</time>
      </trkpt>
      <trkpt lat="44.68787" lon="6.61343">
        <ele>952.6</ele>
        <time>2022-07-19T17:24:18Z</time>
      </trkpt>
      <trkpt lat="44.6879" lon="6.61342">
        <ele>952.6</ele>
        <time>2022-07-19T17:24:19Z</time>
      </trkpt>
      <trkpt lat="44.68794" lon="6.61341">
        <ele>952.6</ele>
        <time>2022-07-19T17:24:20Z</time>
      </trkpt>
      <trkpt lat="44.68797" lon="6.61341">
        <ele>952.6</ele>
        <time>2022-07-19T17:24:21Z</time>
      </trkpt>
      <trkpt lat="44.688" lon="6.6134">
        <ele>952.8</ele>
        <time>2022-07-19T17:24:22Z</time>
      </trkpt>
      <trkpt lat="44.68803" lon="6.61339">
        <ele>952.8</ele>
        <time>2022-07-19T17:24:23Z</time>
      </trkpt>
      <trkpt lat="44.68807" lon="6.61338">
        <ele>953.2</ele>
        <time>2022-07-19T17:24:24Z</time>
      </trkpt>
      <trkpt lat="44.6881" lon="6.61337">
        <ele>953.2</ele>
        <time>2022-07-19T17:24:25Z</time>
      </trkpt>
      <trkpt lat="44.68814" lon="6.61336">
        <ele>953.2</ele>
        <time>2022-07-19T17:24:26Z</time>
      </trkpt>
      <trkpt lat="44.68817" lon="6.61335">
        <ele>953.4</ele>
        <time>2022-07-19T17:24:27Z</time>
      </trkpt>
      <trkpt lat="44.6882" lon="6.61334">
        <ele>953.4</ele>
        <time>2022-07-19T17:24:28Z</time>
      </trkpt>
      <trkpt lat="44.68824" lon="6.61334">
        <ele>953.4</ele>
        <time>2022-07-19T17:24:29Z</time>
      </trkpt>
      <trkpt lat="44.68827" lon="6.61333">
        <ele>953.8</ele>
        <time>2022-07-19T17:24:30Z</time>
      </trkpt>
      <trkpt lat="44.6883" lon="6.61332">
        <ele>953.8</ele>
        <time>2022-07-19T17:24:31Z</time>
      </trkpt>
      <trkpt lat="44.68834" lon="6.61331">
        <ele>954.2</ele>
        <time>2022-07-19T17:24:32Z</time>
      </trkpt>
      <trkpt lat="44.68837" lon="6.6133">
        <ele>954.2</ele>
        <time>2022-07-19T17:24:33Z</time>
      </trkpt>
      <trkpt lat="44.6884" lon="6.61329">
        <ele>954.4</ele>
        <time>2022-07-19T17:24:34Z</time>
      </trkpt>
      <trkpt lat="44.68844" lon="6.61328">
        <ele>954.4</ele>
        <time>2022-07-19T17:24:35Z</time>
      </trkpt>
      <trkpt lat="44.68847" lon="6.61327">
        <ele>954.8</ele>
        <time>2022-07-19T17:24:36Z</time>
      </trkpt>
      <trkpt lat="44.6885" lon="6.61326">
        <ele>954.8</ele>
        <time>2022-07-19T17:24:37Z</time>
      </trkpt>
      <trkpt lat="44.68854" lon="6.61325">
        <ele>955.2</ele>
        <time>2022-07-19T17:24:38Z</time>
      </trkpt>
      <trkpt lat="44.68857" lon="6.61324">
        <ele>955.2</ele>
        <time>2022-07-19T17:24:39Z</time>
      </trkpt>
      <trkpt lat="44.6886" lon="6.61323">
        <ele>955.6</ele>
        <time>2022-07-19T17:24:40Z</time>
      </trkpt>
      <trkpt lat="44.68864" lon="6.61322">
        <ele>955.6</ele>
        <time>2022-07-19T17:24:41Z</time>
      </trkpt>
      <trkpt lat="44.68867" lon="6.61321">
        <ele>956</ele>
        <time>2022-07-19T17:24:42Z</time>
      </trkpt>
      <trkpt lat="44.6887" lon="6.6132">
        <ele>956</ele>
        <time>2022-07-19T17:24:43Z</time>
      </trkpt>
      <trkpt lat="44.68874" lon="6.61319">
        <ele>956.4</ele>
        <time>2022-07-19T17:24:44Z</time>
      </trkpt>
      <trkpt lat="44.68877" lon="6.61318">
        <ele>956.4</ele>
        <time>2022-07-19T17:24:45Z</time>
      </trkpt>
      <trkpt lat="44.6888" lon="6.61317">
        <ele>956.8</ele>
        <time>2022-07-19T17:24:46Z</time>
      </trkpt>
      <trkpt lat="44.68883" lon="6.61316">
        <ele>956.8</ele>
        <time>2022-07-19T17:24:47Z</time>
      </trkpt>
      <trkpt lat="44.68887" lon="6.61315">
        <ele>957</ele>
        <time>2022-07-19T17:24:48Z</time>
      </trkpt>
      <trkpt lat="44.6889" lon="6.61314">
        <ele>957.2</ele>
        <time>2022-07-19T17:24:49Z</time>
      </trkpt>
      <trkpt lat="44.68893" lon="6.61313">
        <ele>957.6</ele>
        <time>2022-07-19T17:24:50Z</time>
      </trkpt>
      <trkpt lat="44.68896" lon="6.61312">
        <ele>957.6</ele>
        <time>2022-07-19T17:24:51Z</time>
      </trkpt>
      <trkpt lat="44.68899" lon="6.61311">
        <ele>957.8</ele>
        <time>2022-07-19T17:24:52Z</time>
      </trkpt>
      <trkpt lat="44.68902" lon="6.6131">
        <ele>957.8</ele>
        <time>2022-07-19T17:24:53Z</time>
      </trkpt>
      <trkpt lat="44.68905" lon="6.61309">
        <ele>958.2</ele>
        <time>2022-07-19T17:24:54Z</time>
      </trkpt>
      <trkpt lat="44.68908" lon="6.61309">
        <ele>958.2</ele>
        <time>2022-07-19T17:24:55Z</time>
      </trkpt>
      <trkpt lat="44.68911" lon="6.61308">
        <ele>958.2</ele>
        <time>2022-07-19T17:24:56Z</time>
      </trkpt>
      <trkpt lat="44.68914" lon="6.61307">
        <ele>958.2</ele>
        <time>2022-07-19T17:24:57Z</time>
      </trkpt>
      <trkpt lat="44.68917" lon="6.61306">
        <ele>958.4</ele>
        <time>2022-07-19T17:24:58Z</time>
      </trkpt>
      <trkpt lat="44.68921" lon="6.61305">
        <ele>958.4</ele>
        <time>2022-07-19T17:24:59Z</time>
      </trkpt>
      <trkpt lat="44.68924" lon="6.61304">
        <ele>958.4</ele>
        <time>2022-07-19T17:25:00Z</time>
      </trkpt>
      <trkpt lat="44.68927" lon="6.61303">
        <ele>958.8</ele>
        <time>2022-07-19T17:25:01Z</time>
      </trkpt>
      <trkpt lat="44.6893" lon="6.61302">
        <ele>958.8</ele>
        <time>2022-07-19T17:25:02Z</time>
      </trkpt>
      <trkpt lat="44.68934" lon="6.61301">
        <ele>959</ele>
        <time>2022-07-19T17:25:03Z</time>
      </trkpt>
      <trkpt lat="44.68937" lon="6.613">
        <ele>959</ele>
        <time>2022-07-19T17:25:04Z</time>
      </trkpt>
      <trkpt lat="44.68941" lon="6.61299">
        <ele>959.4</ele>
        <time>2022-07-19T17:25:05Z</time>
      </trkpt>
      <trkpt lat="44.68944" lon="6.61297">
        <ele>959.4</ele>
        <time>2022-07-19T17:25:06Z</time>
      </trkpt>
      <trkpt lat="44.68948" lon="6.61296">
        <ele>959.6</ele>
        <time>2022-07-19T17:25:07Z</time>
      </trkpt>
      <trkpt lat="44.68951" lon="6.61295">
        <ele>959.6</ele>
        <time>2022-07-19T17:25:08Z</time>
      </trkpt>
      <trkpt lat="44.68955" lon="6.61294">
        <ele>959.8</ele>
        <time>2022-07-19T17:25:09Z</time>
      </trkpt>
      <trkpt lat="44.68958" lon="6.61293">
        <ele>959.8</ele>
        <time>2022-07-19T17:25:10Z</time>
      </trkpt>
      <trkpt lat="44.68962" lon="6.61292">
        <ele>960.2</ele>
        <time>2022-07-19T17:25:11Z</time>
      </trkpt>
      <trkpt lat="44.68966" lon="6.61291">
        <ele>960.2</ele>
        <time>2022-07-19T17:25:12Z</time>
      </trkpt>
      <trkpt lat="44.68969" lon="6.6129">
        <ele>960.2</ele>
        <time>2022-07-19T17:25:13Z</time>
      </trkpt>
      <trkpt lat="44.68973" lon="6.61288">
        <ele>960.6</ele>
        <time>2022-07-19T17:25:14Z</time>
      </trkpt>
      <trkpt lat="44.68977" lon="6.61287">
        <ele>960.6</ele>
        <time>2022-07-19T17:25:15Z</time>
      </trkpt>
      <trkpt lat="44.68981" lon="6.61286">
        <ele>960.8</ele>
        <time>2022-07-19T17:25:16Z</time>
      </trkpt>
      <trkpt lat="44.68984" lon="6.61285">
        <ele>960.8</ele>
        <time>2022-07-19T17:25:17Z</time>
      </trkpt>
      <trkpt lat="44.68988" lon="6.61284">
        <ele>961</ele>
        <time>2022-07-19T17:25:18Z</time>
      </trkpt>
      <trkpt lat="44.68992" lon="6.61283">
        <ele>961</ele>
        <time>2022-07-19T17:25:19Z</time>
      </trkpt>
      <trkpt lat="44.68996" lon="6.61282">
        <ele>961</ele>
        <time>2022-07-19T17:25:20Z</time>
      </trkpt>
      <trkpt lat="44.69" lon="6.61281">
        <ele>961.2</ele>
        <time>2022-07-19T17:25:21Z</time>
      </trkpt>
      <trkpt lat="44.69003" lon="6.6128">
        <ele>961.2</ele>
        <time>2022-07-19T17:25:22Z</time>
      </trkpt>
      <trkpt lat="44.69007" lon="6.61278">
        <ele>961.4</ele>
        <time>2022-07-19T17:25:23Z</time>
      </trkpt>
      <trkpt lat="44.69012" lon="6.61277">
        <ele>961.4</ele>
        <time>2022-07-19T17:25:24Z</time>
      </trkpt>
      <trkpt lat="44.69016" lon="6.61276">
        <ele>961.8</ele>
        <time>2022-07-19T17:25:25Z</time>
      </trkpt>
      <trkpt lat="44.6902" lon="6.61275">
        <ele>961.8</ele>
        <time>2022-07-19T17:25:26Z</time>
      </trkpt>
      <trkpt lat="44.69024" lon="6.61274">
        <ele>962</ele>
        <time>2022-07-19T17:25:27Z</time>
      </trkpt>
      <trkpt lat="44.69028" lon="6.61273">
        <ele>962</ele>
        <time>2022-07-19T17:25:28Z</time>
      </trkpt>
      <trkpt lat="44.69032" lon="6.61272">
        <ele>962.2</ele>
        <time>2022-07-19T17:25:29Z</time>
      </trkpt>
      <trkpt lat="44.69037" lon="6.6127">
        <ele>962.2</ele>
        <time>2022-07-19T17:25:30Z</time>
      </trkpt>
      <trkpt lat="44.69041" lon="6.61269">
        <ele>962.2</ele>
        <time>2022-07-19T17:25:31Z</time>
      </trkpt>
      <trkpt lat="44.69046" lon="6.61268">
        <ele>962.2</ele>
        <time>2022-07-19T17:25:32Z</time>
      </trkpt>
      <trkpt lat="44.6905" lon="6.61267">
        <ele>962.2</ele>
        <time>2022-07-19T17:25:33Z</time>
      </trkpt>
      <trkpt lat="44.69054" lon="6.61265">
        <ele>962.4</ele>
        <time>2022-07-19T17:25:34Z</time>
      </trkpt>
      <trkpt lat="44.69059" lon="6.61264">
        <ele>962.4</ele>
        <time>2022-07-19T17:25:35Z</time>
      </trkpt>
      <trkpt lat="44.69064" lon="6.61263">
        <ele>962.4</ele>
        <time>2022-07-19T17:25:36Z</time>
      </trkpt>
      <trkpt lat="44.69068" lon="6.61261">
        <ele>962.4</ele>
        <time>2022-07-19T17:25:37Z</time>
      </trkpt>
      <trkpt lat="44.69073" lon="6.6126">
        <ele>962.4</ele>
        <time>2022-07-19T17:25:38Z</time>
      </trkpt>
      <trkpt lat="44.69078" lon="6.61258">
        <ele>962.4</ele>
        <time>2022-07-19T17:25:39Z</time>
      </trkpt>
      <trkpt lat="44.69083" lon="6.61257">
        <ele>962.4</ele>
        <time>2022-07-19T17:25:40Z</time>
      </trkpt>
      <trkpt lat="44.69088" lon="6.61255">
        <ele>962.4</ele>
        <time>2022-07-19T17:25:41Z</time>
      </trkpt>
      <trkpt lat="44.69094" lon="6.61254">
        <ele>962.8</ele>
        <time>2022-07-19T17:25:42Z</time>
      </trkpt>
      <trkpt lat="44.69099" lon="6.61252">
        <ele>962.8</ele>
        <time>2022-07-19T17:25:43Z</time>
      </trkpt>
      <trkpt lat="44.69104" lon="6.61251">
        <ele>962.8</ele>
        <time>2022-07-19T17:25:44Z</time>
      </trkpt>
      <trkpt lat="44.6911" lon="6.61249">
        <ele>963</ele>
        <time>2022-07-19T17:25:45Z</time>
      </trkpt>
      <trkpt lat="44.69115" lon="6.61248">
        <ele>963</ele>
        <time>2022-07-19T17:25:46Z</time>
      </trkpt>
      <trkpt lat="44.69121" lon="6.61246">
        <ele>963</ele>
        <time>2022-07-19T17:25:47Z</time>
      </trkpt>
      <trkpt lat="44.69126" lon="6.61245">
        <ele>963</ele>
        <time>2022-07-19T17:25:48Z</time>
      </trkpt>
      <trkpt lat="44.69131" lon="6.61243">
        <ele>963</ele>
        <time>2022-07-19T17:25:49Z</time>
      </trkpt>
      <trkpt lat="44.69137" lon="6.61241">
        <ele>963</ele>
        <time>2022-07-19T17:25:50Z</time>
      </trkpt>
      <trkpt lat="44.69143" lon="6.61239">
        <ele>963</ele>
        <time>2022-07-19T17:25:51Z</time>
      </trkpt>
      <trkpt lat="44.69149" lon="6.61238">
        <ele>962.8</ele>
        <time>2022-07-19T17:25:52Z</time>
      </trkpt>
      <trkpt lat="44.69155" lon="6.61236">
        <ele>962.8</ele>
        <time>2022-07-19T17:25:53Z</time>
      </trkpt>
      <trkpt lat="44.6916" lon="6.61234">
        <ele>962.8</ele>
        <time>2022-07-19T17:25:54Z</time>
      </trkpt>
      <trkpt lat="44.69166" lon="6.61232">
        <ele>962.8</ele>
        <time>2022-07-19T17:25:55Z</time>
      </trkpt>
      <trkpt lat="44.69172" lon="6.6123">
        <ele>962.8</ele>
        <time>2022-07-19T17:25:56Z</time>
      </trkpt>
      <trkpt lat="44.69178" lon="6.61228">
        <ele>962.8</ele>
        <time>2022-07-19T17:25:57Z</time>
      </trkpt>
      <trkpt lat="44.69184" lon="6.61227">
        <ele>962.8</ele>
        <time>2022-07-19T17:25:58Z</time>
      </trkpt>
      <trkpt lat="44.6919" lon="6.61225">
        <ele>962.8</ele>
        <time>2022-07-19T17:25:59Z</time>
      </trkpt>
      <trkpt lat="44.69197" lon="6.61223">
        <ele>962.8</ele>
        <time>2022-07-19T17:26:00Z</time>
      </trkpt>
      <trkpt lat="44.69203" lon="6.61221">
        <ele>962.4</ele>
        <time>2022-07-19T17:26:01Z</time>
      </trkpt>
      <trkpt lat="44.69209" lon="6.6122">
        <ele>962.4</ele>
        <time>2022-07-19T17:26:02Z</time>
      </trkpt>
      <trkpt lat="44.69216" lon="6.61218">
        <ele>962.4</ele>
        <time>2022-07-19T17:26:03Z</time>
      </trkpt>
      <trkpt lat="44.69222" lon="6.61216">
        <ele>962.4</ele>
        <time>2022-07-19T17:26:04Z</time>
      </trkpt>
      <trkpt lat="44.69229" lon="6.61213">
        <ele>962.4</ele>
        <time>2022-07-19T17:26:05Z</time>
      </trkpt>
      <trkpt lat="44.69236" lon="6.61211">
        <ele>962.4</ele>
        <time>2022-07-19T17:26:06Z</time>
      </trkpt>
      <trkpt lat="44.69242" lon="6.61209">
        <ele>962.2</ele>
        <time>2022-07-19T17:26:07Z</time>
      </trkpt>
      <trkpt lat="44.69249" lon="6.61207">
        <ele>962.2</ele>
        <time>2022-07-19T17:26:08Z</time>
      </trkpt>
      <trkpt lat="44.69255" lon="6.61206">
        <ele>962.2</ele>
        <time>2022-07-19T17:26:09Z</time>
      </trkpt>
      <trkpt lat="44.69262" lon="6.61204">
        <ele>962.2</ele>
        <time>2022-07-19T17:26:10Z</time>
      </trkpt>
      <trkpt lat="44.69268" lon="6.61202">
        <ele>962</ele>
        <time>2022-07-19T17:26:11Z</time>
      </trkpt>
      <trkpt lat="44.69275" lon="6.612">
        <ele>962</ele>
        <time>2022-07-19T17:26:12Z</time>
      </trkpt>
      <trkpt lat="44.69282" lon="6.61199">
        <ele>961.6</ele>
        <time>2022-07-19T17:26:13Z</time>
      </trkpt>
      <trkpt lat="44.69289" lon="6.61197">
        <ele>961.6</ele>
        <time>2022-07-19T17:26:14Z</time>
      </trkpt>
      <trkpt lat="44.69296" lon="6.61195">
        <ele>961.2</ele>
        <time>2022-07-19T17:26:15Z</time>
      </trkpt>
      <trkpt lat="44.69303" lon="6.61193">
        <ele>961.2</ele>
        <time>2022-07-19T17:26:16Z</time>
      </trkpt>
      <trkpt lat="44.69311" lon="6.6119">
        <ele>960.8</ele>
        <time>2022-07-19T17:26:17Z</time>
      </trkpt>
      <trkpt lat="44.69319" lon="6.61188">
        <ele>960.4</ele>
        <time>2022-07-19T17:26:18Z</time>
      </trkpt>
      <trkpt lat="44.69327" lon="6.61186">
        <ele>960.2</ele>
        <time>2022-07-19T17:26:19Z</time>
      </trkpt>
      <trkpt lat="44.69335" lon="6.61183">
        <ele>959.8</ele>
        <time>2022-07-19T17:26:20Z</time>
      </trkpt>
      <trkpt lat="44.69344" lon="6.61181">
        <ele>959.6</ele>
        <time>2022-07-19T17:26:21Z</time>
      </trkpt>
      <trkpt lat="44.69353" lon="6.61178">
        <ele>959.6</ele>
        <time>2022-07-19T17:26:22Z</time>
      </trkpt>
      <trkpt lat="44.69361" lon="6.61176">
        <ele>958.8</ele>
        <time>2022-07-19T17:26:23Z</time>
      </trkpt>
      <trkpt lat="44.69371" lon="6.61174">
        <ele>958.6</ele>
        <time>2022-07-19T17:26:24Z</time>
      </trkpt>
      <trkpt lat="44.6938" lon="6.61172">
        <ele>958.2</ele>
        <time>2022-07-19T17:26:25Z</time>
      </trkpt>
      <trkpt lat="44.6939" lon="6.61169">
        <ele>957.8</ele>
        <time>2022-07-19T17:26:26Z</time>
      </trkpt>
      <trkpt lat="44.69399" lon="6.61166">
        <ele>957.4</ele>
        <time>2022-07-19T17:26:27Z</time>
      </trkpt>
      <trkpt lat="44.69409" lon="6.61164">
        <ele>957</ele>
        <time>2022-07-19T17:26:28Z</time>
      </trkpt>
      <trkpt lat="44.69419" lon="6.61161">
        <ele>956.4</ele>
        <time>2022-07-19T17:26:29Z</time>
      </trkpt>
      <trkpt lat="44.6943" lon="6.61158">
        <ele>956.2</ele>
        <time>2022-07-19T17:26:30Z</time>
      </trkpt>
      <trkpt lat="44.69441" lon="6.61154">
        <ele>955.8</ele>
        <time>2022-07-19T17:26:31Z</time>
      </trkpt>
      <trkpt lat="44.69452" lon="6.61151">
        <ele>955.4</ele>
        <time>2022-07-19T17:26:32Z</time>
      </trkpt>
      <trkpt lat="44.69463" lon="6.61147">
        <ele>954.8</ele>
        <time>2022-07-19T17:26:33Z</time>
      </trkpt>
      <trkpt lat="44.69474" lon="6.61144">
        <ele>954.6</ele>
        <time>2022-07-19T17:26:34Z</time>
      </trkpt>
      <trkpt lat="44.69485" lon="6.6114">
        <ele>954.2</ele>
        <time>2022-07-19T17:26:35Z</time>
      </trkpt>
      <trkpt lat="44.69496" lon="6.61138">
        <ele>953.8</ele>
        <time>2022-07-19T17:26:36Z</time>
      </trkpt>
      <trkpt lat="44.69508" lon="6.61134">
        <ele>953.2</ele>
        <time>2022-07-19T17:26:37Z</time>
      </trkpt>
      <trkpt lat="44.69519" lon="6.61131">
        <ele>952.8</ele>
        <time>2022-07-19T17:26:38Z</time>
      </trkpt>
      <trkpt lat="44.69531" lon="6.61128">
        <ele>952</ele>
        <time>2022-07-19T17:26:39Z</time>
      </trkpt>
      <trkpt lat="44.69543" lon="6.61125">
        <ele>951.4</ele>
        <time>2022-07-19T17:26:40Z</time>
      </trkpt>
      <trkpt lat="44.69554" lon="6.61122">
        <ele>951</ele>
        <time>2022-07-19T17:26:41Z</time>
      </trkpt>
      <trkpt lat="44.69566" lon="6.61119">
        <ele>950.6</ele>
        <time>2022-07-19T17:26:42Z</time>
      </trkpt>
      <trkpt lat="44.69578" lon="6.61115">
        <ele>950</ele>
        <time>2022-07-19T17:26:43Z</time>
      </trkpt>
      <trkpt lat="44.6959" lon="6.61111">
        <ele>949.6</ele>
        <time>2022-07-19T17:26:44Z</time>
      </trkpt>
      <trkpt lat="44.69603" lon="6.61107">
        <ele>949</ele>
        <time>2022-07-19T17:26:45Z</time>
      </trkpt>
      <trkpt lat="44.69616" lon="6.61103">
        <ele>948.4</ele>
        <time>2022-07-19T17:26:46Z</time>
      </trkpt>
      <trkpt lat="44.69628" lon="6.611">
        <ele>947.8</ele>
        <time>2022-07-19T17:26:47Z</time>
      </trkpt>
      <trkpt lat="44.6964" lon="6.61097">
        <ele>947</ele>
        <time>2022-07-19T17:26:48Z</time>
      </trkpt>
      <trkpt lat="44.69653" lon="6.61094">
        <ele>946.4</ele>
        <time>2022-07-19T17:26:49Z</time>
      </trkpt>
      <trkpt lat="44.69666" lon="6.61091">
        <ele>945.6</ele>
        <time>2022-07-19T17:26:50Z</time>
      </trkpt>
      <trkpt lat="44.69679" lon="6.61086">
        <ele>945</ele>
        <time>2022-07-19T17:26:51Z</time>
      </trkpt>
      <trkpt lat="44.69692" lon="6.61082">
        <ele>944.2</ele>
        <time>2022-07-19T17:26:52Z</time>
      </trkpt>
      <trkpt lat="44.69705" lon="6.61078">
        <ele>943.6</ele>
        <time>2022-07-19T17:26:53Z</time>
      </trkpt>
      <trkpt lat="44.69718" lon="6.61075">
        <ele>942.8</ele>
        <time>2022-07-19T17:26:54Z</time>
      </trkpt>
      <trkpt lat="44.69731" lon="6.61071">
        <ele>942.2</ele>
        <time>2022-07-19T17:26:55Z</time>
      </trkpt>
      <trkpt lat="44.69745" lon="6.61067">
        <ele>941.4</ele>
        <time>2022-07-19T17:26:56Z</time>
      </trkpt>
      <trkpt lat="44.69759" lon="6.61063">
        <ele>940.8</ele>
        <time>2022-07-19T17:26:57Z</time>
      </trkpt>
      <trkpt lat="44.69772" lon="6.6106">
        <ele>940.2</ele>
        <time>2022-07-19T17:26:58Z</time>
      </trkpt>
      <trkpt lat="44.69785" lon="6.61056">
        <ele>939.4</ele>
        <time>2022-07-19T17:26:59Z</time>
      </trkpt>
      <trkpt lat="44.69798" lon="6.61051">
        <ele>939</ele>
        <time>2022-07-19T17:27:00Z</time>
      </trkpt>
      <trkpt lat="44.69812" lon="6.61047">
        <ele>938.4</ele>
        <time>2022-07-19T17:27:01Z</time>
      </trkpt>
      <trkpt lat="44.69826" lon="6.61043">
        <ele>938</ele>
        <time>2022-07-19T17:27:02Z</time>
      </trkpt>
      <trkpt lat="44.69839" lon="6.61039">
        <ele>937.6</ele>
        <time>2022-07-19T17:27:03Z</time>
      </trkpt>
      <trkpt lat="44.69852" lon="6.61034">
        <ele>937</ele>
        <time>2022-07-19T17:27:04Z</time>
      </trkpt>
      <trkpt lat="44.69865" lon="6.61031">
        <ele>936.8</ele>
        <time>2022-07-19T17:27:05Z</time>
      </trkpt>
      <trkpt lat="44.69878" lon="6.61027">
        <ele>936.6</ele>
        <time>2022-07-19T17:27:06Z</time>
      </trkpt>
      <trkpt lat="44.6989" lon="6.61023">
        <ele>936.2</ele>
        <time>2022-07-19T17:27:07Z</time>
      </trkpt>
      <trkpt lat="44.69902" lon="6.61019">
        <ele>936.2</ele>
        <time>2022-07-19T17:27:08Z</time>
      </trkpt>
      <trkpt lat="44.69914" lon="6.61015">
        <ele>936</ele>
        <time>2022-07-19T17:27:09Z</time>
      </trkpt>
      <trkpt lat="44.69927" lon="6.61011">
        <ele>936</ele>
        <time>2022-07-19T17:27:10Z</time>
      </trkpt>
      <trkpt lat="44.69939" lon="6.61007">
        <ele>936</ele>
        <time>2022-07-19T17:27:11Z</time>
      </trkpt>
      <trkpt lat="44.6995" lon="6.61003">
        <ele>936</ele>
        <time>2022-07-19T17:27:12Z</time>
      </trkpt>
      <trkpt lat="44.69961" lon="6.60999">
        <ele>936</ele>
        <time>2022-07-19T17:27:13Z</time>
      </trkpt>
      <trkpt lat="44.69971" lon="6.60994">
        <ele>936</ele>
        <time>2022-07-19T17:27:14Z</time>
      </trkpt>
      <trkpt lat="44.69981" lon="6.6099">
        <ele>936</ele>
        <time>2022-07-19T17:27:15Z</time>
      </trkpt>
      <trkpt lat="44.69991" lon="6.60985">
        <ele>935.8</ele>
        <time>2022-07-19T17:27:16Z</time>
      </trkpt>
      <trkpt lat="44.70001" lon="6.6098">
        <ele>935.8</ele>
        <time>2022-07-19T17:27:17Z</time>
      </trkpt>
      <trkpt lat="44.70011" lon="6.60974">
        <ele>935.8</ele>
        <time>2022-07-19T17:27:18Z</time>
      </trkpt>
      <trkpt lat="44.7002" lon="6.60969">
        <ele>935.8</ele>
        <time>2022-07-19T17:27:19Z</time>
      </trkpt>
      <trkpt lat="44.7003" lon="6.60962">
        <ele>935.8</ele>
        <time>2022-07-19T17:27:20Z</time>
      </trkpt>
      <trkpt lat="44.7004" lon="6.60956">
        <ele>935.8</ele>
        <time>2022-07-19T17:27:21Z</time>
      </trkpt>
      <trkpt lat="44.70048" lon="6.6095">
        <ele>935.8</ele>
        <time>2022-07-19T17:27:22Z</time>
      </trkpt>
      <trkpt lat="44.70056" lon="6.60944">
        <ele>935.8</ele>
        <time>2022-07-19T17:27:23Z</time>
      </trkpt>
      <trkpt lat="44.70064" lon="6.60938">
        <ele>935.8</ele>
        <time>2022-07-19T17:27:24Z</time>
      </trkpt>
      <trkpt lat="44.70072" lon="6.60932">
        <ele>935.8</ele>
        <time>2022-07-19T17:27:25Z</time>
      </trkpt>
      <trkpt lat="44.70081" lon="6.60924">
        <ele>935.8</ele>
        <time>2022-07-19T17:27:26Z</time>
      </trkpt>
      <trkpt lat="44.70089" lon="6.60917">
        <ele>935.8</ele>
        <time>2022-07-19T17:27:27Z</time>
      </trkpt>
      <trkpt lat="44.70097" lon="6.6091">
        <ele>935.8</ele>
        <time>2022-07-19T17:27:28Z</time>
      </trkpt>
      <trkpt lat="44.70104" lon="6.60903">
        <ele>936</ele>
        <time>2022-07-19T17:27:29Z</time>
      </trkpt>
      <trkpt lat="44.70111" lon="6.60896">
        <ele>936</ele>
        <time>2022-07-19T17:27:30Z</time>
      </trkpt>
      <trkpt lat="44.70118" lon="6.60889">
        <ele>936</ele>
        <time>2022-07-19T17:27:31Z</time>
      </trkpt>
      <trkpt lat="44.70125" lon="6.60882">
        <ele>936</ele>
        <time>2022-07-19T17:27:32Z</time>
      </trkpt>
      <trkpt lat="44.70132" lon="6.60876">
        <ele>936.2</ele>
        <time>2022-07-19T17:27:33Z</time>
      </trkpt>
      <trkpt lat="44.70138" lon="6.60869">
        <ele>936.2</ele>
        <time>2022-07-19T17:27:34Z</time>
      </trkpt>
      <trkpt lat="44.70144" lon="6.60862">
        <ele>936.6</ele>
        <time>2022-07-19T17:27:35Z</time>
      </trkpt>
      <trkpt lat="44.70151" lon="6.60856">
        <ele>937</ele>
        <time>2022-07-19T17:27:36Z</time>
      </trkpt>
      <trkpt lat="44.70157" lon="6.6085">
        <ele>937</ele>
        <time>2022-07-19T17:27:37Z</time>
      </trkpt>
      <trkpt lat="44.70163" lon="6.60844">
        <ele>937.2</ele>
        <time>2022-07-19T17:27:38Z</time>
      </trkpt>
      <trkpt lat="44.70169" lon="6.60839">
        <ele>937.2</ele>
        <time>2022-07-19T17:27:39Z</time>
      </trkpt>
      <trkpt lat="44.70175" lon="6.60833">
        <ele>937.4</ele>
        <time>2022-07-19T17:27:40Z</time>
      </trkpt>
      <trkpt lat="44.7018" lon="6.60828">
        <ele>937.4</ele>
        <time>2022-07-19T17:27:41Z</time>
      </trkpt>
      <trkpt lat="44.70186" lon="6.60823">
        <ele>937.8</ele>
        <time>2022-07-19T17:27:42Z</time>
      </trkpt>
      <trkpt lat="44.70192" lon="6.60818">
        <ele>937.8</ele>
        <time>2022-07-19T17:27:43Z</time>
      </trkpt>
      <trkpt lat="44.70197" lon="6.60814">
        <ele>938.2</ele>
        <time>2022-07-19T17:27:44Z</time>
      </trkpt>
      <trkpt lat="44.70202" lon="6.60809">
        <ele>938.2</ele>
        <time>2022-07-19T17:27:45Z</time>
      </trkpt>
      <trkpt lat="44.70207" lon="6.60805">
        <ele>938.4</ele>
        <time>2022-07-19T17:27:46Z</time>
      </trkpt>
      <trkpt lat="44.70212" lon="6.608">
        <ele>938.6</ele>
        <time>2022-07-19T17:27:47Z</time>
      </trkpt>
      <trkpt lat="44.70217" lon="6.60796">
        <ele>938.6</ele>
        <time>2022-07-19T17:27:48Z</time>
      </trkpt>
      <trkpt lat="44.70221" lon="6.60792">
        <ele>939</ele>
        <time>2022-07-19T17:27:49Z</time>
      </trkpt>
      <trkpt lat="44.70226" lon="6.60789">
        <ele>939.2</ele>
        <time>2022-07-19T17:27:50Z</time>
      </trkpt>
      <trkpt lat="44.70231" lon="6.60785">
        <ele>939.2</ele>
        <time>2022-07-19T17:27:51Z</time>
      </trkpt>
      <trkpt lat="44.70235" lon="6.60781">
        <ele>939.4</ele>
        <time>2022-07-19T17:27:52Z</time>
      </trkpt>
      <trkpt lat="44.70239" lon="6.60778">
        <ele>939.4</ele>
        <time>2022-07-19T17:27:53Z</time>
      </trkpt>
      <trkpt lat="44.70243" lon="6.60774">
        <ele>939.8</ele>
        <time>2022-07-19T17:27:54Z</time>
      </trkpt>
      <trkpt lat="44.70247" lon="6.60771">
        <ele>940.2</ele>
        <time>2022-07-19T17:27:56Z</time>
      </trkpt>
      <trkpt lat="44.70251" lon="6.60768">
        <ele>940.2</ele>
        <time>2022-07-19T17:27:57Z</time>
      </trkpt>
      <trkpt lat="44.70255" lon="6.60764">
        <ele>940.4</ele>
        <time>2022-07-19T17:27:58Z</time>
      </trkpt>
      <trkpt lat="44.70259" lon="6.60761">
        <ele>940.4</ele>
        <time>2022-07-19T17:27:59Z</time>
      </trkpt>
      <trkpt lat="44.70263" lon="6.60758">
        <ele>940.6</ele>
        <time>2022-07-19T17:28:00Z</time>
      </trkpt>
      <trkpt lat="44.70267" lon="6.60754">
        <ele>940.6</ele>
        <time>2022-07-19T17:28:01Z</time>
      </trkpt>
      <trkpt lat="44.7027" lon="6.60751">
        <ele>941</ele>
        <time>2022-07-19T17:28:02Z</time>
      </trkpt>
      <trkpt lat="44.70274" lon="6.60747">
        <ele>941.2</ele>
        <time>2022-07-19T17:28:03Z</time>
      </trkpt>
      <trkpt lat="44.70277" lon="6.60744">
        <ele>941.2</ele>
        <time>2022-07-19T17:28:04Z</time>
      </trkpt>
      <trkpt lat="44.7028" lon="6.60741">
        <ele>941.2</ele>
        <time>2022-07-19T17:28:05Z</time>
      </trkpt>
      <trkpt lat="44.70284" lon="6.60738">
        <ele>941.4</ele>
        <time>2022-07-19T17:28:06Z</time>
      </trkpt>
      <trkpt lat="44.70287" lon="6.60735">
        <ele>941.4</ele>
        <time>2022-07-19T17:28:07Z</time>
      </trkpt>
      <trkpt lat="44.70291" lon="6.60732">
        <ele>941.6</ele>
        <time>2022-07-19T17:28:08Z</time>
      </trkpt>
      <trkpt lat="44.70295" lon="6.60729">
        <ele>941.6</ele>
        <time>2022-07-19T17:28:09Z</time>
      </trkpt>
      <trkpt lat="44.70298" lon="6.60726">
        <ele>941.6</ele>
        <time>2022-07-19T17:28:10Z</time>
      </trkpt>
      <trkpt lat="44.70301" lon="6.60723">
        <ele>942</ele>
        <time>2022-07-19T17:28:11Z</time>
      </trkpt>
      <trkpt lat="44.70305" lon="6.6072">
        <ele>942</ele>
        <time>2022-07-19T17:28:12Z</time>
      </trkpt>
      <trkpt lat="44.70308" lon="6.60717">
        <ele>942.2</ele>
        <time>2022-07-19T17:28:13Z</time>
      </trkpt>
      <trkpt lat="44.70312" lon="6.60714">
        <ele>942.2</ele>
        <time>2022-07-19T17:28:14Z</time>
      </trkpt>
      <trkpt lat="44.70315" lon="6.60712">
        <ele>942.2</ele>
        <time>2022-07-19T17:28:15Z</time>
      </trkpt>
      <trkpt lat="44.70319" lon="6.60709">
        <ele>942.2</ele>
        <time>2022-07-19T17:28:16Z</time>
      </trkpt>
      <trkpt lat="44.70323" lon="6.60706">
        <ele>942.4</ele>
        <time>2022-07-19T17:28:17Z</time>
      </trkpt>
      <trkpt lat="44.70326" lon="6.60703">
        <ele>942.4</ele>
        <time>2022-07-19T17:28:18Z</time>
      </trkpt>
      <trkpt lat="44.7033" lon="6.607">
        <ele>942.4</ele>
        <time>2022-07-19T17:28:19Z</time>
      </trkpt>
      <trkpt lat="44.70333" lon="6.60696">
        <ele>942.6</ele>
        <time>2022-07-19T17:28:20Z</time>
      </trkpt>
      <trkpt lat="44.70336" lon="6.60693">
        <ele>942.6</ele>
        <time>2022-07-19T17:28:21Z</time>
      </trkpt>
      <trkpt lat="44.7034" lon="6.6069">
        <ele>942.6</ele>
        <time>2022-07-19T17:28:22Z</time>
      </trkpt>
      <trkpt lat="44.70344" lon="6.60687">
        <ele>942.8</ele>
        <time>2022-07-19T17:28:23Z</time>
      </trkpt>
      <trkpt lat="44.70348" lon="6.60684">
        <ele>942.8</ele>
        <time>2022-07-19T17:28:24Z</time>
      </trkpt>
      <trkpt lat="44.70352" lon="6.6068">
        <ele>942.8</ele>
        <time>2022-07-19T17:28:25Z</time>
      </trkpt>
      <trkpt lat="44.70356" lon="6.60677">
        <ele>943.2</ele>
        <time>2022-07-19T17:28:26Z</time>
      </trkpt>
      <trkpt lat="44.70359" lon="6.60673">
        <ele>943.2</ele>
        <time>2022-07-19T17:28:27Z</time>
      </trkpt>
      <trkpt lat="44.70363" lon="6.6067">
        <ele>943.2</ele>
        <time>2022-07-19T17:28:28Z</time>
      </trkpt>
      <trkpt lat="44.70367" lon="6.60666">
        <ele>943.2</ele>
        <time>2022-07-19T17:28:29Z</time>
      </trkpt>
      <trkpt lat="44.70371" lon="6.60663">
        <ele>943.2</ele>
        <time>2022-07-19T17:28:30Z</time>
      </trkpt>
      <trkpt lat="44.70375" lon="6.60659">
        <ele>943.2</ele>
        <time>2022-07-19T17:28:31Z</time>
      </trkpt>
      <trkpt lat="44.7038" lon="6.60655">
        <ele>943.2</ele>
        <time>2022-07-19T17:28:32Z</time>
      </trkpt>
      <trkpt lat="44.70384" lon="6.60652">
        <ele>943.2</ele>
        <time>2022-07-19T17:28:33Z</time>
      </trkpt>
      <trkpt lat="44.70393" lon="6.60644">
        <ele>943.2</ele>
        <time>2022-07-19T17:28:34Z</time>
      </trkpt>
      <trkpt lat="44.70397" lon="6.6064">
        <ele>943.2</ele>
        <time>2022-07-19T17:28:35Z</time>
      </trkpt>
      <trkpt lat="44.70402" lon="6.60636">
        <ele>943.2</ele>
        <time>2022-07-19T17:28:36Z</time>
      </trkpt>
      <trkpt lat="44.70406" lon="6.60632">
        <ele>943.2</ele>
        <time>2022-07-19T17:28:37Z</time>
      </trkpt>
      <trkpt lat="44.70411" lon="6.60628">
        <ele>943.2</ele>
        <time>2022-07-19T17:28:38Z</time>
      </trkpt>
      <trkpt lat="44.70416" lon="6.60624">
        <ele>943.2</ele>
        <time>2022-07-19T17:28:39Z</time>
      </trkpt>
      <trkpt lat="44.70421" lon="6.6062">
        <ele>943.2</ele>
        <time>2022-07-19T17:28:40Z</time>
      </trkpt>
      <trkpt lat="44.70426" lon="6.60615">
        <ele>943</ele>
        <time>2022-07-19T17:28:41Z</time>
      </trkpt>
      <trkpt lat="44.7043" lon="6.60611">
        <ele>943</ele>
        <time>2022-07-19T17:28:42Z</time>
      </trkpt>
      <trkpt lat="44.70435" lon="6.60607">
        <ele>943</ele>
        <time>2022-07-19T17:28:43Z</time>
      </trkpt>
      <trkpt lat="44.7044" lon="6.60602">
        <ele>943</ele>
        <time>2022-07-19T17:28:44Z</time>
      </trkpt>
      <trkpt lat="44.70446" lon="6.60598">
        <ele>943</ele>
        <time>2022-07-19T17:28:45Z</time>
      </trkpt>
      <trkpt lat="44.70451" lon="6.60593">
        <ele>942.8</ele>
        <time>2022-07-19T17:28:46Z</time>
      </trkpt>
      <trkpt lat="44.70456" lon="6.60589">
        <ele>942.8</ele>
        <time>2022-07-19T17:28:47Z</time>
      </trkpt>
      <trkpt lat="44.70462" lon="6.60584">
        <ele>942.8</ele>
        <time>2022-07-19T17:28:48Z</time>
      </trkpt>
      <trkpt lat="44.70468" lon="6.6058">
        <ele>942.8</ele>
        <time>2022-07-19T17:28:49Z</time>
      </trkpt>
      <trkpt lat="44.70473" lon="6.60575">
        <ele>942.8</ele>
        <time>2022-07-19T17:28:50Z</time>
      </trkpt>
      <trkpt lat="44.70479" lon="6.6057">
        <ele>942.8</ele>
        <time>2022-07-19T17:28:51Z</time>
      </trkpt>
      <trkpt lat="44.70484" lon="6.60566">
        <ele>942.8</ele>
        <time>2022-07-19T17:28:52Z</time>
      </trkpt>
      <trkpt lat="44.7049" lon="6.60561">
        <ele>942.8</ele>
        <time>2022-07-19T17:28:53Z</time>
      </trkpt>
      <trkpt lat="44.70496" lon="6.60556">
        <ele>942.8</ele>
        <time>2022-07-19T17:28:54Z</time>
      </trkpt>
      <trkpt lat="44.70501" lon="6.60552">
        <ele>942.8</ele>
        <time>2022-07-19T17:28:55Z</time>
      </trkpt>
      <trkpt lat="44.70507" lon="6.60547">
        <ele>942.8</ele>
        <time>2022-07-19T17:28:56Z</time>
      </trkpt>
      <trkpt lat="44.70513" lon="6.60543">
        <ele>942.8</ele>
        <time>2022-07-19T17:28:57Z</time>
      </trkpt>
      <trkpt lat="44.70518" lon="6.60538">
        <ele>942.8</ele>
        <time>2022-07-19T17:28:58Z</time>
      </trkpt>
      <trkpt lat="44.70524" lon="6.60534">
        <ele>942.8</ele>
        <time>2022-07-19T17:28:59Z</time>
      </trkpt>
      <trkpt lat="44.7053" lon="6.6053">
        <ele>942.8</ele>
        <time>2022-07-19T17:29:00Z</time>
      </trkpt>
      <trkpt lat="44.70535" lon="6.60526">
        <ele>942.8</ele>
        <time>2022-07-19T17:29:01Z</time>
      </trkpt>
      <trkpt lat="44.70541" lon="6.60521">
        <ele>942.8</ele>
        <time>2022-07-19T17:29:02Z</time>
      </trkpt>
      <trkpt lat="44.70547" lon="6.60517">
        <ele>942.4</ele>
        <time>2022-07-19T17:29:03Z</time>
      </trkpt>
      <trkpt lat="44.70553" lon="6.60513">
        <ele>942.2</ele>
        <time>2022-07-19T17:29:04Z</time>
      </trkpt>
      <trkpt lat="44.70559" lon="6.6051">
        <ele>942.2</ele>
        <time>2022-07-19T17:29:05Z</time>
      </trkpt>
      <trkpt lat="44.70566" lon="6.60506">
        <ele>942.2</ele>
        <time>2022-07-19T17:29:06Z</time>
      </trkpt>
      <trkpt lat="44.70572" lon="6.60502">
        <ele>942</ele>
        <time>2022-07-19T17:29:07Z</time>
      </trkpt>
      <trkpt lat="44.70578" lon="6.60498">
        <ele>942</ele>
        <time>2022-07-19T17:29:08Z</time>
      </trkpt>
      <trkpt lat="44.70584" lon="6.60494">
        <ele>941.8</ele>
        <time>2022-07-19T17:29:09Z</time>
      </trkpt>
      <trkpt lat="44.7059" lon="6.60491">
        <ele>941.8</ele>
        <time>2022-07-19T17:29:10Z</time>
      </trkpt>
      <trkpt lat="44.70596" lon="6.60487">
        <ele>941.8</ele>
        <time>2022-07-19T17:29:11Z</time>
      </trkpt>
      <trkpt lat="44.70602" lon="6.60484">
        <ele>941.8</ele>
        <time>2022-07-19T17:29:12Z</time>
      </trkpt>
      <trkpt lat="44.70608" lon="6.6048">
        <ele>941.8</ele>
        <time>2022-07-19T17:29:13Z</time>
      </trkpt>
      <trkpt lat="44.70614" lon="6.60477">
        <ele>941.8</ele>
        <time>2022-07-19T17:29:14Z</time>
      </trkpt>
      <trkpt lat="44.7062" lon="6.60474">
        <ele>941.6</ele>
        <time>2022-07-19T17:29:15Z</time>
      </trkpt>
      <trkpt lat="44.70626" lon="6.60471">
        <ele>941.6</ele>
        <time>2022-07-19T17:29:16Z</time>
      </trkpt>
      <trkpt lat="44.70633" lon="6.60468">
        <ele>941.2</ele>
        <time>2022-07-19T17:29:17Z</time>
      </trkpt>
      <trkpt lat="44.70639" lon="6.60465">
        <ele>941.2</ele>
        <time>2022-07-19T17:29:18Z</time>
      </trkpt>
      <trkpt lat="44.70645" lon="6.60463">
        <ele>941.2</ele>
        <time>2022-07-19T17:29:19Z</time>
      </trkpt>
      <trkpt lat="44.70652" lon="6.60461">
        <ele>941.2</ele>
        <time>2022-07-19T17:29:20Z</time>
      </trkpt>
      <trkpt lat="44.70658" lon="6.6046">
        <ele>941.2</ele>
        <time>2022-07-19T17:29:21Z</time>
      </trkpt>
      <trkpt lat="44.70665" lon="6.6046">
        <ele>941.2</ele>
        <time>2022-07-19T17:29:22Z</time>
      </trkpt>
      <trkpt lat="44.70671" lon="6.60461">
        <ele>941.2</ele>
        <time>2022-07-19T17:29:23Z</time>
      </trkpt>
      <trkpt lat="44.70678" lon="6.60462">
        <ele>941.2</ele>
        <time>2022-07-19T17:29:24Z</time>
      </trkpt>
      <trkpt lat="44.70684" lon="6.60462">
        <ele>941.2</ele>
        <time>2022-07-19T17:29:25Z</time>
      </trkpt>
      <trkpt lat="44.70689" lon="6.60459">
        <ele>941.2</ele>
        <time>2022-07-19T17:29:26Z</time>
      </trkpt>
      <trkpt lat="44.70693" lon="6.60453">
        <ele>941.2</ele>
        <time>2022-07-19T17:29:27Z</time>
      </trkpt>
      <trkpt lat="44.70696" lon="6.60447">
        <ele>941.2</ele>
        <time>2022-07-19T17:29:28Z</time>
      </trkpt>
      <trkpt lat="44.707" lon="6.6044">
        <ele>941</ele>
        <time>2022-07-19T17:29:29Z</time>
      </trkpt>
      <trkpt lat="44.70704" lon="6.60434">
        <ele>941</ele>
        <time>2022-07-19T17:29:30Z</time>
      </trkpt>
      <trkpt lat="44.70709" lon="6.60428">
        <ele>940.8</ele>
        <time>2022-07-19T17:29:31Z</time>
      </trkpt>
      <trkpt lat="44.70715" lon="6.60424">
        <ele>940.8</ele>
        <time>2022-07-19T17:29:32Z</time>
      </trkpt>
      <trkpt lat="44.7072" lon="6.60419">
        <ele>940.6</ele>
        <time>2022-07-19T17:29:33Z</time>
      </trkpt>
      <trkpt lat="44.70726" lon="6.60415">
        <ele>940.6</ele>
        <time>2022-07-19T17:29:34Z</time>
      </trkpt>
      <trkpt lat="44.70732" lon="6.6041">
        <ele>940.6</ele>
        <time>2022-07-19T17:29:35Z</time>
      </trkpt>
      <trkpt lat="44.70738" lon="6.60405">
        <ele>940.6</ele>
        <time>2022-07-19T17:29:36Z</time>
      </trkpt>
      <trkpt lat="44.70745" lon="6.60401">
        <ele>940.6</ele>
        <time>2022-07-19T17:29:37Z</time>
      </trkpt>
      <trkpt lat="44.70751" lon="6.60397">
        <ele>940.6</ele>
        <time>2022-07-19T17:29:38Z</time>
      </trkpt>
      <trkpt lat="44.70757" lon="6.60393">
        <ele>940.6</ele>
        <time>2022-07-19T17:29:39Z</time>
      </trkpt>
      <trkpt lat="44.70764" lon="6.60389">
        <ele>940.6</ele>
        <time>2022-07-19T17:29:40Z</time>
      </trkpt>
      <trkpt lat="44.7077" lon="6.60385">
        <ele>940.6</ele>
        <time>2022-07-19T17:29:41Z</time>
      </trkpt>
      <trkpt lat="44.70776" lon="6.60382">
        <ele>940.6</ele>
        <time>2022-07-19T17:29:42Z</time>
      </trkpt>
      <trkpt lat="44.70782" lon="6.60378">
        <ele>941</ele>
        <time>2022-07-19T17:29:43Z</time>
      </trkpt>
      <trkpt lat="44.70788" lon="6.60374">
        <ele>941</ele>
        <time>2022-07-19T17:29:44Z</time>
      </trkpt>
      <trkpt lat="44.70795" lon="6.60371">
        <ele>941</ele>
        <time>2022-07-19T17:29:45Z</time>
      </trkpt>
      <trkpt lat="44.70801" lon="6.60368">
        <ele>941</ele>
        <time>2022-07-19T17:29:46Z</time>
      </trkpt>
      <trkpt lat="44.70807" lon="6.60365">
        <ele>941</ele>
        <time>2022-07-19T17:29:47Z</time>
      </trkpt>
      <trkpt lat="44.70813" lon="6.60361">
        <ele>941</ele>
        <time>2022-07-19T17:29:48Z</time>
      </trkpt>
      <trkpt lat="44.70819" lon="6.60358">
        <ele>941</ele>
        <time>2022-07-19T17:29:49Z</time>
      </trkpt>
      <trkpt lat="44.70825" lon="6.60355">
        <ele>941.2</ele>
        <time>2022-07-19T17:29:50Z</time>
      </trkpt>
      <trkpt lat="44.70831" lon="6.60352">
        <ele>941.2</ele>
        <time>2022-07-19T17:29:51Z</time>
      </trkpt>
      <trkpt lat="44.70837" lon="6.60349">
        <ele>941.2</ele>
        <time>2022-07-19T17:29:52Z</time>
      </trkpt>
      <trkpt lat="44.70843" lon="6.60346">
        <ele>941.4</ele>
        <time>2022-07-19T17:29:53Z</time>
      </trkpt>
      <trkpt lat="44.70849" lon="6.60343">
        <ele>941.4</ele>
        <time>2022-07-19T17:29:54Z</time>
      </trkpt>
      <trkpt lat="44.70855" lon="6.6034">
        <ele>941.4</ele>
        <time>2022-07-19T17:29:55Z</time>
      </trkpt>
      <trkpt lat="44.70861" lon="6.60338">
        <ele>941.8</ele>
        <time>2022-07-19T17:29:56Z</time>
      </trkpt>
      <trkpt lat="44.70867" lon="6.60335">
        <ele>941.8</ele>
        <time>2022-07-19T17:29:57Z</time>
      </trkpt>
      <trkpt lat="44.70873" lon="6.60332">
        <ele>942</ele>
        <time>2022-07-19T17:29:58Z</time>
      </trkpt>
      <trkpt lat="44.70879" lon="6.6033">
        <ele>942</ele>
        <time>2022-07-19T17:29:59Z</time>
      </trkpt>
      <trkpt lat="44.70885" lon="6.60327">
        <ele>942.2</ele>
        <time>2022-07-19T17:30:00Z</time>
      </trkpt>
      <trkpt lat="44.70891" lon="6.60325">
        <ele>942.2</ele>
        <time>2022-07-19T17:30:01Z</time>
      </trkpt>
      <trkpt lat="44.70897" lon="6.60323">
        <ele>942.4</ele>
        <time>2022-07-19T17:30:02Z</time>
      </trkpt>
      <trkpt lat="44.70903" lon="6.6032">
        <ele>942.4</ele>
        <time>2022-07-19T17:30:03Z</time>
      </trkpt>
      <trkpt lat="44.70909" lon="6.60318">
        <ele>942.6</ele>
        <time>2022-07-19T17:30:04Z</time>
      </trkpt>
      <trkpt lat="44.70915" lon="6.60316">
        <ele>942.6</ele>
        <time>2022-07-19T17:30:05Z</time>
      </trkpt>
      <trkpt lat="44.70921" lon="6.60313">
        <ele>942.8</ele>
        <time>2022-07-19T17:30:06Z</time>
      </trkpt>
      <trkpt lat="44.70927" lon="6.60311">
        <ele>942.8</ele>
        <time>2022-07-19T17:30:07Z</time>
      </trkpt>
      <trkpt lat="44.70933" lon="6.60309">
        <ele>942.8</ele>
        <time>2022-07-19T17:30:08Z</time>
      </trkpt>
      <trkpt lat="44.70939" lon="6.60307">
        <ele>943.2</ele>
        <time>2022-07-19T17:30:09Z</time>
      </trkpt>
      <trkpt lat="44.70945" lon="6.60305">
        <ele>943.2</ele>
        <time>2022-07-19T17:30:10Z</time>
      </trkpt>
      <trkpt lat="44.70951" lon="6.60302">
        <ele>943.2</ele>
        <time>2022-07-19T17:30:11Z</time>
      </trkpt>
      <trkpt lat="44.70956" lon="6.603">
        <ele>943.4</ele>
        <time>2022-07-19T17:30:12Z</time>
      </trkpt>
      <trkpt lat="44.70962" lon="6.60298">
        <ele>943.4</ele>
        <time>2022-07-19T17:30:13Z</time>
      </trkpt>
      <trkpt lat="44.70968" lon="6.60296">
        <ele>943.4</ele>
        <time>2022-07-19T17:30:14Z</time>
      </trkpt>
      <trkpt lat="44.70973" lon="6.60294">
        <ele>943.6</ele>
        <time>2022-07-19T17:30:15Z</time>
      </trkpt>
      <trkpt lat="44.70979" lon="6.60292">
        <ele>943.6</ele>
        <time>2022-07-19T17:30:16Z</time>
      </trkpt>
      <trkpt lat="44.70984" lon="6.6029">
        <ele>943.6</ele>
        <time>2022-07-19T17:30:17Z</time>
      </trkpt>
      <trkpt lat="44.7099" lon="6.60288">
        <ele>944</ele>
        <time>2022-07-19T17:30:18Z</time>
      </trkpt>
      <trkpt lat="44.70995" lon="6.60286">
        <ele>944</ele>
        <time>2022-07-19T17:30:19Z</time>
      </trkpt>
      <trkpt lat="44.71001" lon="6.60284">
        <ele>944</ele>
        <time>2022-07-19T17:30:20Z</time>
      </trkpt>
      <trkpt lat="44.71007" lon="6.60282">
        <ele>944</ele>
        <time>2022-07-19T17:30:21Z</time>
      </trkpt>
      <trkpt lat="44.71012" lon="6.6028">
        <ele>944.2</ele>
        <time>2022-07-19T17:30:22Z</time>
      </trkpt>
      <trkpt lat="44.71018" lon="6.60277">
        <ele>944.2</ele>
        <time>2022-07-19T17:30:23Z</time>
      </trkpt>
      <trkpt lat="44.71023" lon="6.60275">
        <ele>944.2</ele>
        <time>2022-07-19T17:30:24Z</time>
      </trkpt>
      <trkpt lat="44.71029" lon="6.60273">
        <ele>944.6</ele>
        <time>2022-07-19T17:30:25Z</time>
      </trkpt>
      <trkpt lat="44.71034" lon="6.60272">
        <ele>944.6</ele>
        <time>2022-07-19T17:30:26Z</time>
      </trkpt>
      <trkpt lat="44.7104" lon="6.6027">
        <ele>944.6</ele>
        <time>2022-07-19T17:30:27Z</time>
      </trkpt>
      <trkpt lat="44.71045" lon="6.60268">
        <ele>944.6</ele>
        <time>2022-07-19T17:30:28Z</time>
      </trkpt>
      <trkpt lat="44.71051" lon="6.60266">
        <ele>944.6</ele>
        <time>2022-07-19T17:30:29Z</time>
      </trkpt>
      <trkpt lat="44.71056" lon="6.60264">
        <ele>944.6</ele>
        <time>2022-07-19T17:30:30Z</time>
      </trkpt>
      <trkpt lat="44.71061" lon="6.60262">
        <ele>944.6</ele>
        <time>2022-07-19T17:30:31Z</time>
      </trkpt>
      <trkpt lat="44.71067" lon="6.6026">
        <ele>944.8</ele>
        <time>2022-07-19T17:30:32Z</time>
      </trkpt>
      <trkpt lat="44.71072" lon="6.60258">
        <ele>944.8</ele>
        <time>2022-07-19T17:30:33Z</time>
      </trkpt>
      <trkpt lat="44.71078" lon="6.60256">
        <ele>944.8</ele>
        <time>2022-07-19T17:30:34Z</time>
      </trkpt>
      <trkpt lat="44.71083" lon="6.60254">
        <ele>945.2</ele>
        <time>2022-07-19T17:30:35Z</time>
      </trkpt>
      <trkpt lat="44.71089" lon="6.60252">
        <ele>945.2</ele>
        <time>2022-07-19T17:30:36Z</time>
      </trkpt>
      <trkpt lat="44.71094" lon="6.60249">
        <ele>945.2</ele>
        <time>2022-07-19T17:30:37Z</time>
      </trkpt>
      <trkpt lat="44.711" lon="6.60247">
        <ele>945.4</ele>
        <time>2022-07-19T17:30:38Z</time>
      </trkpt>
      <trkpt lat="44.71105" lon="6.60245">
        <ele>945.4</ele>
        <time>2022-07-19T17:30:39Z</time>
      </trkpt>
      <trkpt lat="44.7111" lon="6.60243">
        <ele>945.4</ele>
        <time>2022-07-19T17:30:40Z</time>
      </trkpt>
      <trkpt lat="44.71116" lon="6.6024">
        <ele>945.6</ele>
        <time>2022-07-19T17:30:41Z</time>
      </trkpt>
      <trkpt lat="44.71121" lon="6.60237">
        <ele>945.6</ele>
        <time>2022-07-19T17:30:42Z</time>
      </trkpt>
      <trkpt lat="44.71126" lon="6.60234">
        <ele>945.6</ele>
        <time>2022-07-19T17:30:43Z</time>
      </trkpt>
      <trkpt lat="44.71131" lon="6.60231">
        <ele>946</ele>
        <time>2022-07-19T17:30:44Z</time>
      </trkpt>
      <trkpt lat="44.71137" lon="6.60228">
        <ele>946</ele>
        <time>2022-07-19T17:30:45Z</time>
      </trkpt>
      <trkpt lat="44.71142" lon="6.60224">
        <ele>946.2</ele>
        <time>2022-07-19T17:30:46Z</time>
      </trkpt>
      <trkpt lat="44.71147" lon="6.60221">
        <ele>946.2</ele>
        <time>2022-07-19T17:30:47Z</time>
      </trkpt>
      <trkpt lat="44.71152" lon="6.60217">
        <ele>946.2</ele>
        <time>2022-07-19T17:30:48Z</time>
      </trkpt>
      <trkpt lat="44.71158" lon="6.60213">
        <ele>946.2</ele>
        <time>2022-07-19T17:30:49Z</time>
      </trkpt>
      <trkpt lat="44.71163" lon="6.60208">
        <ele>946.2</ele>
        <time>2022-07-19T17:30:50Z</time>
      </trkpt>
      <trkpt lat="44.71169" lon="6.60204">
        <ele>946.4</ele>
        <time>2022-07-19T17:30:51Z</time>
      </trkpt>
      <trkpt lat="44.71174" lon="6.60199">
        <ele>946.4</ele>
        <time>2022-07-19T17:30:52Z</time>
      </trkpt>
      <trkpt lat="44.7118" lon="6.60194">
        <ele>946.4</ele>
        <time>2022-07-19T17:30:53Z</time>
      </trkpt>
      <trkpt lat="44.71185" lon="6.60189">
        <ele>946.4</ele>
        <time>2022-07-19T17:30:54Z</time>
      </trkpt>
      <trkpt lat="44.71191" lon="6.60184">
        <ele>946.4</ele>
        <time>2022-07-19T17:30:55Z</time>
      </trkpt>
      <trkpt lat="44.71197" lon="6.60179">
        <ele>946.4</ele>
        <time>2022-07-19T17:30:56Z</time>
      </trkpt>
      <trkpt lat="44.71203" lon="6.60173">
        <ele>946</ele>
        <time>2022-07-19T17:30:57Z</time>
      </trkpt>
      <trkpt lat="44.71209" lon="6.60167">
        <ele>946</ele>
        <time>2022-07-19T17:30:58Z</time>
      </trkpt>
      <trkpt lat="44.71215" lon="6.60161">
        <ele>946</ele>
        <time>2022-07-19T17:30:59Z</time>
      </trkpt>
      <trkpt lat="44.71221" lon="6.60155">
        <ele>945.8</ele>
        <time>2022-07-19T17:31:00Z</time>
      </trkpt>
      <trkpt lat="44.71228" lon="6.60149">
        <ele>945.8</ele>
        <time>2022-07-19T17:31:01Z</time>
      </trkpt>
      <trkpt lat="44.71234" lon="6.60142">
        <ele>945.8</ele>
        <time>2022-07-19T17:31:02Z</time>
      </trkpt>
      <trkpt lat="44.71241" lon="6.60136">
        <ele>945.6</ele>
        <time>2022-07-19T17:31:03Z</time>
      </trkpt>
      <trkpt lat="44.71248" lon="6.60129">
        <ele>945.6</ele>
        <time>2022-07-19T17:31:04Z</time>
      </trkpt>
      <trkpt lat="44.71254" lon="6.60122">
        <ele>945.4</ele>
        <time>2022-07-19T17:31:05Z</time>
      </trkpt>
      <trkpt lat="44.71261" lon="6.60115">
        <ele>945.4</ele>
        <time>2022-07-19T17:31:06Z</time>
      </trkpt>
      <trkpt lat="44.71268" lon="6.60108">
        <ele>945.4</ele>
        <time>2022-07-19T17:31:07Z</time>
      </trkpt>
      <trkpt lat="44.71275" lon="6.60101">
        <ele>945.4</ele>
        <time>2022-07-19T17:31:08Z</time>
      </trkpt>
      <trkpt lat="44.71281" lon="6.60094">
        <ele>945.2</ele>
        <time>2022-07-19T17:31:09Z</time>
      </trkpt>
      <trkpt lat="44.71288" lon="6.60087">
        <ele>945</ele>
        <time>2022-07-19T17:31:10Z</time>
      </trkpt>
      <trkpt lat="44.71294" lon="6.6008">
        <ele>945</ele>
        <time>2022-07-19T17:31:11Z</time>
      </trkpt>
      <trkpt lat="44.71301" lon="6.60073">
        <ele>944.8</ele>
        <time>2022-07-19T17:31:12Z</time>
      </trkpt>
      <trkpt lat="44.71308" lon="6.60066">
        <ele>944.8</ele>
        <time>2022-07-19T17:31:13Z</time>
      </trkpt>
      <trkpt lat="44.71314" lon="6.60059">
        <ele>944.8</ele>
        <time>2022-07-19T17:31:14Z</time>
      </trkpt>
      <trkpt lat="44.71321" lon="6.60052">
        <ele>944.8</ele>
        <time>2022-07-19T17:31:15Z</time>
      </trkpt>
      <trkpt lat="44.71328" lon="6.60046">
        <ele>944.8</ele>
        <time>2022-07-19T17:31:16Z</time>
      </trkpt>
      <trkpt lat="44.71335" lon="6.60039">
        <ele>944.8</ele>
        <time>2022-07-19T17:31:17Z</time>
      </trkpt>
      <trkpt lat="44.71341" lon="6.60032">
        <ele>944.8</ele>
        <time>2022-07-19T17:31:18Z</time>
      </trkpt>
      <trkpt lat="44.71348" lon="6.60025">
        <ele>945</ele>
        <time>2022-07-19T17:31:19Z</time>
      </trkpt>
      <trkpt lat="44.71354" lon="6.60019">
        <ele>945</ele>
        <time>2022-07-19T17:31:20Z</time>
      </trkpt>
      <trkpt lat="44.7136" lon="6.60012">
        <ele>945.2</ele>
        <time>2022-07-19T17:31:21Z</time>
      </trkpt>
      <trkpt lat="44.71367" lon="6.60006">
        <ele>945.2</ele>
        <time>2022-07-19T17:31:22Z</time>
      </trkpt>
      <trkpt lat="44.71373" lon="6.6">
        <ele>945.2</ele>
        <time>2022-07-19T17:31:23Z</time>
      </trkpt>
      <trkpt lat="44.71379" lon="6.59994">
        <ele>945.2</ele>
        <time>2022-07-19T17:31:24Z</time>
      </trkpt>
      <trkpt lat="44.71386" lon="6.59987">
        <ele>945.2</ele>
        <time>2022-07-19T17:31:25Z</time>
      </trkpt>
      <trkpt lat="44.71392" lon="6.59981">
        <ele>945.2</ele>
        <time>2022-07-19T17:31:26Z</time>
      </trkpt>
      <trkpt lat="44.71398" lon="6.59975">
        <ele>945.2</ele>
        <time>2022-07-19T17:31:27Z</time>
      </trkpt>
      <trkpt lat="44.71404" lon="6.59968">
        <ele>945.4</ele>
        <time>2022-07-19T17:31:28Z</time>
      </trkpt>
      <trkpt lat="44.7141" lon="6.59962">
        <ele>945.4</ele>
        <time>2022-07-19T17:31:29Z</time>
      </trkpt>
      <trkpt lat="44.71417" lon="6.59956">
        <ele>945.4</ele>
        <time>2022-07-19T17:31:30Z</time>
      </trkpt>
      <trkpt lat="44.71423" lon="6.59949">
        <ele>945.4</ele>
        <time>2022-07-19T17:31:31Z</time>
      </trkpt>
      <trkpt lat="44.71429" lon="6.59943">
        <ele>945.4</ele>
        <time>2022-07-19T17:31:32Z</time>
      </trkpt>
      <trkpt lat="44.71435" lon="6.59937">
        <ele>945.4</ele>
        <time>2022-07-19T17:31:33Z</time>
      </trkpt>
      <trkpt lat="44.71441" lon="6.5993">
        <ele>945.4</ele>
        <time>2022-07-19T17:31:34Z</time>
      </trkpt>
      <trkpt lat="44.71447" lon="6.59924">
        <ele>945.4</ele>
        <time>2022-07-19T17:31:35Z</time>
      </trkpt>
      <trkpt lat="44.71453" lon="6.59918">
        <ele>945.6</ele>
        <time>2022-07-19T17:31:36Z</time>
      </trkpt>
      <trkpt lat="44.71459" lon="6.59912">
        <ele>945.6</ele>
        <time>2022-07-19T17:31:37Z</time>
      </trkpt>
      <trkpt lat="44.71465" lon="6.59906">
        <ele>945.6</ele>
        <time>2022-07-19T17:31:38Z</time>
      </trkpt>
      <trkpt lat="44.71471" lon="6.599">
        <ele>945.6</ele>
        <time>2022-07-19T17:31:39Z</time>
      </trkpt>
      <trkpt lat="44.71477" lon="6.59894">
        <ele>945.6</ele>
        <time>2022-07-19T17:31:40Z</time>
      </trkpt>
      <trkpt lat="44.71483" lon="6.59888">
        <ele>945.8</ele>
        <time>2022-07-19T17:31:41Z</time>
      </trkpt>
      <trkpt lat="44.71489" lon="6.59882">
        <ele>945.8</ele>
        <time>2022-07-19T17:31:42Z</time>
      </trkpt>
      <trkpt lat="44.71494" lon="6.59876">
        <ele>945.8</ele>
        <time>2022-07-19T17:31:43Z</time>
      </trkpt>
      <trkpt lat="44.715" lon="6.5987">
        <ele>946.2</ele>
        <time>2022-07-19T17:31:44Z</time>
      </trkpt>
      <trkpt lat="44.71506" lon="6.59864">
        <ele>946.2</ele>
        <time>2022-07-19T17:31:45Z</time>
      </trkpt>
      <trkpt lat="44.71512" lon="6.59859">
        <ele>946.2</ele>
        <time>2022-07-19T17:31:46Z</time>
      </trkpt>
      <trkpt lat="44.71518" lon="6.59853">
        <ele>946.4</ele>
        <time>2022-07-19T17:31:47Z</time>
      </trkpt>
      <trkpt lat="44.71523" lon="6.59847">
        <ele>946.4</ele>
        <time>2022-07-19T17:31:48Z</time>
      </trkpt>
      <trkpt lat="44.71529" lon="6.59841">
        <ele>946.4</ele>
        <time>2022-07-19T17:31:49Z</time>
      </trkpt>
      <trkpt lat="44.71534" lon="6.59835">
        <ele>946.4</ele>
        <time>2022-07-19T17:31:50Z</time>
      </trkpt>
      <trkpt lat="44.7154" lon="6.59829">
        <ele>946.4</ele>
        <time>2022-07-19T17:31:51Z</time>
      </trkpt>
      <trkpt lat="44.71546" lon="6.59823">
        <ele>946.4</ele>
        <time>2022-07-19T17:31:52Z</time>
      </trkpt>
      <trkpt lat="44.71551" lon="6.59818">
        <ele>946.6</ele>
        <time>2022-07-19T17:31:53Z</time>
      </trkpt>
      <trkpt lat="44.71557" lon="6.59812">
        <ele>946.6</ele>
        <time>2022-07-19T17:31:54Z</time>
      </trkpt>
      <trkpt lat="44.71562" lon="6.59806">
        <ele>946.6</ele>
        <time>2022-07-19T17:31:55Z</time>
      </trkpt>
      <trkpt lat="44.71568" lon="6.59801">
        <ele>946.8</ele>
        <time>2022-07-19T17:31:56Z</time>
      </trkpt>
      <trkpt lat="44.71573" lon="6.59795">
        <ele>946.8</ele>
        <time>2022-07-19T17:31:57Z</time>
      </trkpt>
      <trkpt lat="44.71579" lon="6.5979">
        <ele>947.2</ele>
        <time>2022-07-19T17:31:58Z</time>
      </trkpt>
      <trkpt lat="44.71584" lon="6.59785">
        <ele>947.2</ele>
        <time>2022-07-19T17:31:59Z</time>
      </trkpt>
      <trkpt lat="44.71589" lon="6.5978">
        <ele>947.4</ele>
        <time>2022-07-19T17:32:00Z</time>
      </trkpt>
      <trkpt lat="44.71594" lon="6.59775">
        <ele>947.6</ele>
        <time>2022-07-19T17:32:01Z</time>
      </trkpt>
      <trkpt lat="44.71598" lon="6.5977">
        <ele>947.6</ele>
        <time>2022-07-19T17:32:02Z</time>
      </trkpt>
      <trkpt lat="44.71603" lon="6.59765">
        <ele>948</ele>
        <time>2022-07-19T17:32:03Z</time>
      </trkpt>
      <trkpt lat="44.71607" lon="6.5976">
        <ele>948</ele>
        <time>2022-07-19T17:32:04Z</time>
      </trkpt>
      <trkpt lat="44.71612" lon="6.59756">
        <ele>948.4</ele>
        <time>2022-07-19T17:32:05Z</time>
      </trkpt>
      <trkpt lat="44.71616" lon="6.59751">
        <ele>948.4</ele>
        <time>2022-07-19T17:32:06Z</time>
      </trkpt>
      <trkpt lat="44.7162" lon="6.59747">
        <ele>948.8</ele>
        <time>2022-07-19T17:32:07Z</time>
      </trkpt>
      <trkpt lat="44.71624" lon="6.59743">
        <ele>949</ele>
        <time>2022-07-19T17:32:08Z</time>
      </trkpt>
      <trkpt lat="44.71628" lon="6.59739">
        <ele>949.2</ele>
        <time>2022-07-19T17:32:09Z</time>
      </trkpt>
      <trkpt lat="44.71632" lon="6.59735">
        <ele>949.4</ele>
        <time>2022-07-19T17:32:10Z</time>
      </trkpt>
      <trkpt lat="44.71636" lon="6.59731">
        <ele>949.4</ele>
        <time>2022-07-19T17:32:11Z</time>
      </trkpt>
      <trkpt lat="44.7164" lon="6.59728">
        <ele>949.8</ele>
        <time>2022-07-19T17:32:12Z</time>
      </trkpt>
      <trkpt lat="44.71644" lon="6.59724">
        <ele>949.8</ele>
        <time>2022-07-19T17:32:13Z</time>
      </trkpt>
      <trkpt lat="44.71648" lon="6.5972">
        <ele>950.2</ele>
        <time>2022-07-19T17:32:14Z</time>
      </trkpt>
      <trkpt lat="44.71651" lon="6.59716">
        <ele>950.2</ele>
        <time>2022-07-19T17:32:15Z</time>
      </trkpt>
      <trkpt lat="44.71655" lon="6.59712">
        <ele>950.4</ele>
        <time>2022-07-19T17:32:16Z</time>
      </trkpt>
      <trkpt lat="44.71658" lon="6.59709">
        <ele>950.4</ele>
        <time>2022-07-19T17:32:17Z</time>
      </trkpt>
      <trkpt lat="44.71662" lon="6.59705">
        <ele>950.8</ele>
        <time>2022-07-19T17:32:18Z</time>
      </trkpt>
      <trkpt lat="44.71666" lon="6.59702">
        <ele>950.8</ele>
        <time>2022-07-19T17:32:19Z</time>
      </trkpt>
      <trkpt lat="44.71669" lon="6.59699">
        <ele>951</ele>
        <time>2022-07-19T17:32:20Z</time>
      </trkpt>
      <trkpt lat="44.71672" lon="6.59695">
        <ele>951</ele>
        <time>2022-07-19T17:32:21Z</time>
      </trkpt>
      <trkpt lat="44.71675" lon="6.59691">
        <ele>951.2</ele>
        <time>2022-07-19T17:32:22Z</time>
      </trkpt>
      <trkpt lat="44.71679" lon="6.59688">
        <ele>951.2</ele>
        <time>2022-07-19T17:32:23Z</time>
      </trkpt>
      <trkpt lat="44.71682" lon="6.59684">
        <ele>951.4</ele>
        <time>2022-07-19T17:32:24Z</time>
      </trkpt>
      <trkpt lat="44.71685" lon="6.59681">
        <ele>951.4</ele>
        <time>2022-07-19T17:32:25Z</time>
      </trkpt>
      <trkpt lat="44.71689" lon="6.59678">
        <ele>951.8</ele>
        <time>2022-07-19T17:32:26Z</time>
      </trkpt>
      <trkpt lat="44.71692" lon="6.59675">
        <ele>951.8</ele>
        <time>2022-07-19T17:32:27Z</time>
      </trkpt>
      <trkpt lat="44.71695" lon="6.59671">
        <ele>952</ele>
        <time>2022-07-19T17:32:28Z</time>
      </trkpt>
      <trkpt lat="44.71699" lon="6.59668">
        <ele>952</ele>
        <time>2022-07-19T17:32:29Z</time>
      </trkpt>
      <trkpt lat="44.71702" lon="6.59665">
        <ele>952.4</ele>
        <time>2022-07-19T17:32:30Z</time>
      </trkpt>
      <trkpt lat="44.71705" lon="6.59662">
        <ele>952.4</ele>
        <time>2022-07-19T17:32:31Z</time>
      </trkpt>
      <trkpt lat="44.71708" lon="6.59658">
        <ele>952.6</ele>
        <time>2022-07-19T17:32:32Z</time>
      </trkpt>
      <trkpt lat="44.71712" lon="6.59655">
        <ele>952.6</ele>
        <time>2022-07-19T17:32:33Z</time>
      </trkpt>
      <trkpt lat="44.71715" lon="6.59652">
        <ele>953</ele>
        <time>2022-07-19T17:32:34Z</time>
      </trkpt>
      <trkpt lat="44.71718" lon="6.59649">
        <ele>953</ele>
        <time>2022-07-19T17:32:35Z</time>
      </trkpt>
      <trkpt lat="44.71721" lon="6.59646">
        <ele>953.4</ele>
        <time>2022-07-19T17:32:36Z</time>
      </trkpt>
      <trkpt lat="44.71724" lon="6.59642">
        <ele>953.4</ele>
        <time>2022-07-19T17:32:37Z</time>
      </trkpt>
      <trkpt lat="44.71727" lon="6.5964">
        <ele>953.6</ele>
        <time>2022-07-19T17:32:38Z</time>
      </trkpt>
      <trkpt lat="44.7173" lon="6.59637">
        <ele>953.6</ele>
        <time>2022-07-19T17:32:39Z</time>
      </trkpt>
      <trkpt lat="44.71733" lon="6.59634">
        <ele>954</ele>
        <time>2022-07-19T17:32:40Z</time>
      </trkpt>
      <trkpt lat="44.71736" lon="6.59631">
        <ele>954</ele>
        <time>2022-07-19T17:32:41Z</time>
      </trkpt>
      <trkpt lat="44.71739" lon="6.59628">
        <ele>954.4</ele>
        <time>2022-07-19T17:32:42Z</time>
      </trkpt>
      <trkpt lat="44.71742" lon="6.59625">
        <ele>954.4</ele>
        <time>2022-07-19T17:32:43Z</time>
      </trkpt>
      <trkpt lat="44.71745" lon="6.59622">
        <ele>954.6</ele>
        <time>2022-07-19T17:32:44Z</time>
      </trkpt>
      <trkpt lat="44.71748" lon="6.59619">
        <ele>954.6</ele>
        <time>2022-07-19T17:32:45Z</time>
      </trkpt>
      <trkpt lat="44.71751" lon="6.59616">
        <ele>954.8</ele>
        <time>2022-07-19T17:32:46Z</time>
      </trkpt>
      <trkpt lat="44.71754" lon="6.59613">
        <ele>954.8</ele>
        <time>2022-07-19T17:32:47Z</time>
      </trkpt>
      <trkpt lat="44.71757" lon="6.5961">
        <ele>955.2</ele>
        <time>2022-07-19T17:32:48Z</time>
      </trkpt>
      <trkpt lat="44.7176" lon="6.59607">
        <ele>955.2</ele>
        <time>2022-07-19T17:32:49Z</time>
      </trkpt>
      <trkpt lat="44.71763" lon="6.59604">
        <ele>955.4</ele>
        <time>2022-07-19T17:32:50Z</time>
      </trkpt>
      <trkpt lat="44.71766" lon="6.59601">
        <ele>955.4</ele>
        <time>2022-07-19T17:32:51Z</time>
      </trkpt>
      <trkpt lat="44.71768" lon="6.59598">
        <ele>955.8</ele>
        <time>2022-07-19T17:32:52Z</time>
      </trkpt>
      <trkpt lat="44.71771" lon="6.59595">
        <ele>955.8</ele>
        <time>2022-07-19T17:32:53Z</time>
      </trkpt>
      <trkpt lat="44.71774" lon="6.59592">
        <ele>955.8</ele>
        <time>2022-07-19T17:32:54Z</time>
      </trkpt>
      <trkpt lat="44.71777" lon="6.59589">
        <ele>956.2</ele>
        <time>2022-07-19T17:32:55Z</time>
      </trkpt>
      <trkpt lat="44.7178" lon="6.59586">
        <ele>956.2</ele>
        <time>2022-07-19T17:32:56Z</time>
      </trkpt>
      <trkpt lat="44.71783" lon="6.59583">
        <ele>956.4</ele>
        <time>2022-07-19T17:32:57Z</time>
      </trkpt>
      <trkpt lat="44.71786" lon="6.5958">
        <ele>956.6</ele>
        <time>2022-07-19T17:32:58Z</time>
      </trkpt>
      <trkpt lat="44.71788" lon="6.59577">
        <ele>956.8</ele>
        <time>2022-07-19T17:32:59Z</time>
      </trkpt>
      <trkpt lat="44.71791" lon="6.59575">
        <ele>956.8</ele>
        <time>2022-07-19T17:33:00Z</time>
      </trkpt>
      <trkpt lat="44.71794" lon="6.59572">
        <ele>957.2</ele>
        <time>2022-07-19T17:33:01Z</time>
      </trkpt>
      <trkpt lat="44.71797" lon="6.59569">
        <ele>957.4</ele>
        <time>2022-07-19T17:33:02Z</time>
      </trkpt>
      <trkpt lat="44.71799" lon="6.59567">
        <ele>957.6</ele>
        <time>2022-07-19T17:33:03Z</time>
      </trkpt>
      <trkpt lat="44.71802" lon="6.59564">
        <ele>957.6</ele>
        <time>2022-07-19T17:33:04Z</time>
      </trkpt>
      <trkpt lat="44.71805" lon="6.59561">
        <ele>958</ele>
        <time>2022-07-19T17:33:05Z</time>
      </trkpt>
      <trkpt lat="44.71808" lon="6.59559">
        <ele>958</ele>
        <time>2022-07-19T17:33:06Z</time>
      </trkpt>
      <trkpt lat="44.7181" lon="6.59556">
        <ele>958.2</ele>
        <time>2022-07-19T17:33:07Z</time>
      </trkpt>
      <trkpt lat="44.71813" lon="6.59553">
        <ele>958.2</ele>
        <time>2022-07-19T17:33:08Z</time>
      </trkpt>
      <trkpt lat="44.71816" lon="6.5955">
        <ele>958.6</ele>
        <time>2022-07-19T17:33:09Z</time>
      </trkpt>
      <trkpt lat="44.71819" lon="6.59547">
        <ele>958.6</ele>
        <time>2022-07-19T17:33:10Z</time>
      </trkpt>
      <trkpt lat="44.71822" lon="6.59544">
        <ele>958.8</ele>
        <time>2022-07-19T17:33:11Z</time>
      </trkpt>
      <trkpt lat="44.71825" lon="6.59541">
        <ele>958.8</ele>
        <time>2022-07-19T17:33:12Z</time>
      </trkpt>
      <trkpt lat="44.71828" lon="6.59538">
        <ele>959.2</ele>
        <time>2022-07-19T17:33:13Z</time>
      </trkpt>
      <trkpt lat="44.7183" lon="6.59535">
        <ele>959.2</ele>
        <time>2022-07-19T17:33:14Z</time>
      </trkpt>
      <trkpt lat="44.71833" lon="6.59532">
        <ele>959.4</ele>
        <time>2022-07-19T17:33:15Z</time>
      </trkpt>
      <trkpt lat="44.71836" lon="6.59529">
        <ele>959.4</ele>
        <time>2022-07-19T17:33:16Z</time>
      </trkpt>
      <trkpt lat="44.71839" lon="6.59526">
        <ele>959.6</ele>
        <time>2022-07-19T17:33:17Z</time>
      </trkpt>
      <trkpt lat="44.71842" lon="6.59523">
        <ele>959.6</ele>
        <time>2022-07-19T17:33:18Z</time>
      </trkpt>
      <trkpt lat="44.71845" lon="6.59519">
        <ele>960</ele>
        <time>2022-07-19T17:33:19Z</time>
      </trkpt>
      <trkpt lat="44.71848" lon="6.59516">
        <ele>960.2</ele>
        <time>2022-07-19T17:33:20Z</time>
      </trkpt>
      <trkpt lat="44.71851" lon="6.59513">
        <ele>960.2</ele>
        <time>2022-07-19T17:33:21Z</time>
      </trkpt>
      <trkpt lat="44.71854" lon="6.59509">
        <ele>960.6</ele>
        <time>2022-07-19T17:33:22Z</time>
      </trkpt>
      <trkpt lat="44.71858" lon="6.59506">
        <ele>960.6</ele>
        <time>2022-07-19T17:33:23Z</time>
      </trkpt>
      <trkpt lat="44.71861" lon="6.59503">
        <ele>960.6</ele>
        <time>2022-07-19T17:33:24Z</time>
      </trkpt>
      <trkpt lat="44.71864" lon="6.59499">
        <ele>960.8</ele>
        <time>2022-07-19T17:33:25Z</time>
      </trkpt>
      <trkpt lat="44.71867" lon="6.59496">
        <ele>960.8</ele>
        <time>2022-07-19T17:33:26Z</time>
      </trkpt>
      <trkpt lat="44.71871" lon="6.59493">
        <ele>961</ele>
        <time>2022-07-19T17:33:27Z</time>
      </trkpt>
      <trkpt lat="44.71874" lon="6.59489">
        <ele>961</ele>
        <time>2022-07-19T17:33:28Z</time>
      </trkpt>
      <trkpt lat="44.71877" lon="6.59486">
        <ele>961.2</ele>
        <time>2022-07-19T17:33:29Z</time>
      </trkpt>
      <trkpt lat="44.7188" lon="6.59483">
        <ele>961.2</ele>
        <time>2022-07-19T17:33:30Z</time>
      </trkpt>
      <trkpt lat="44.71884" lon="6.59479">
        <ele>961.2</ele>
        <time>2022-07-19T17:33:31Z</time>
      </trkpt>
      <trkpt lat="44.71887" lon="6.59476">
        <ele>961.8</ele>
        <time>2022-07-19T17:33:32Z</time>
      </trkpt>
      <trkpt lat="44.7189" lon="6.59472">
        <ele>961.8</ele>
        <time>2022-07-19T17:33:33Z</time>
      </trkpt>
      <trkpt lat="44.71894" lon="6.59469">
        <ele>961.8</ele>
        <time>2022-07-19T17:33:34Z</time>
      </trkpt>
      <trkpt lat="44.71897" lon="6.59465">
        <ele>961.8</ele>
        <time>2022-07-19T17:33:35Z</time>
      </trkpt>
      <trkpt lat="44.71901" lon="6.59461">
        <ele>962</ele>
        <time>2022-07-19T17:33:36Z</time>
      </trkpt>
      <trkpt lat="44.71904" lon="6.59457">
        <ele>962</ele>
        <time>2022-07-19T17:33:37Z</time>
      </trkpt>
      <trkpt lat="44.71907" lon="6.59454">
        <ele>962</ele>
        <time>2022-07-19T17:33:38Z</time>
      </trkpt>
      <trkpt lat="44.71911" lon="6.5945">
        <ele>962.2</ele>
        <time>2022-07-19T17:33:39Z</time>
      </trkpt>
      <trkpt lat="44.71915" lon="6.59446">
        <ele>962.2</ele>
        <time>2022-07-19T17:33:40Z</time>
      </trkpt>
      <trkpt lat="44.71918" lon="6.59443">
        <ele>962.2</ele>
        <time>2022-07-19T17:33:41Z</time>
      </trkpt>
      <trkpt lat="44.71922" lon="6.59439">
        <ele>962.2</ele>
        <time>2022-07-19T17:33:42Z</time>
      </trkpt>
      <trkpt lat="44.71926" lon="6.59435">
        <ele>962.2</ele>
        <time>2022-07-19T17:33:43Z</time>
      </trkpt>
      <trkpt lat="44.7193" lon="6.59432">
        <ele>962.4</ele>
        <time>2022-07-19T17:33:44Z</time>
      </trkpt>
      <trkpt lat="44.71934" lon="6.59428">
        <ele>962.4</ele>
        <time>2022-07-19T17:33:45Z</time>
      </trkpt>
      <trkpt lat="44.71938" lon="6.59424">
        <ele>962.4</ele>
        <time>2022-07-19T17:33:46Z</time>
      </trkpt>
      <trkpt lat="44.71942" lon="6.5942">
        <ele>962.4</ele>
        <time>2022-07-19T17:33:47Z</time>
      </trkpt>
      <trkpt lat="44.71946" lon="6.59415">
        <ele>962.4</ele>
        <time>2022-07-19T17:33:48Z</time>
      </trkpt>
      <trkpt lat="44.7195" lon="6.59411">
        <ele>962.4</ele>
        <time>2022-07-19T17:33:49Z</time>
      </trkpt>
      <trkpt lat="44.71955" lon="6.59407">
        <ele>962.4</ele>
        <time>2022-07-19T17:33:50Z</time>
      </trkpt>
      <trkpt lat="44.71959" lon="6.59403">
        <ele>962.4</ele>
        <time>2022-07-19T17:33:51Z</time>
      </trkpt>
      <trkpt lat="44.71964" lon="6.59398">
        <ele>962.4</ele>
        <time>2022-07-19T17:33:52Z</time>
      </trkpt>
      <trkpt lat="44.71968" lon="6.59394">
        <ele>962.4</ele>
        <time>2022-07-19T17:33:53Z</time>
      </trkpt>
      <trkpt lat="44.71973" lon="6.59389">
        <ele>962.4</ele>
        <time>2022-07-19T17:33:54Z</time>
      </trkpt>
      <trkpt lat="44.71977" lon="6.59385">
        <ele>962.4</ele>
        <time>2022-07-19T17:33:55Z</time>
      </trkpt>
      <trkpt lat="44.71982" lon="6.59381">
        <ele>962.4</ele>
        <time>2022-07-19T17:33:56Z</time>
      </trkpt>
      <trkpt lat="44.71986" lon="6.59376">
        <ele>962</ele>
        <time>2022-07-19T17:33:57Z</time>
      </trkpt>
      <trkpt lat="44.71991" lon="6.59371">
        <ele>962</ele>
        <time>2022-07-19T17:33:58Z</time>
      </trkpt>
      <trkpt lat="44.71995" lon="6.59367">
        <ele>961.8</ele>
        <time>2022-07-19T17:33:59Z</time>
      </trkpt>
      <trkpt lat="44.72" lon="6.59362">
        <ele>961.8</ele>
        <time>2022-07-19T17:34:00Z</time>
      </trkpt>
      <trkpt lat="44.72005" lon="6.59357">
        <ele>961.8</ele>
        <time>2022-07-19T17:34:01Z</time>
      </trkpt>
      <trkpt lat="44.7201" lon="6.59352">
        <ele>961.8</ele>
        <time>2022-07-19T17:34:02Z</time>
      </trkpt>
      <trkpt lat="44.72015" lon="6.59347">
        <ele>961.6</ele>
        <time>2022-07-19T17:34:03Z</time>
      </trkpt>
      <trkpt lat="44.7202" lon="6.59342">
        <ele>961.6</ele>
        <time>2022-07-19T17:34:04Z</time>
      </trkpt>
      <trkpt lat="44.72025" lon="6.59336">
        <ele>961.2</ele>
        <time>2022-07-19T17:34:05Z</time>
      </trkpt>
      <trkpt lat="44.72031" lon="6.59331">
        <ele>961</ele>
        <time>2022-07-19T17:34:06Z</time>
      </trkpt>
      <trkpt lat="44.72036" lon="6.59325">
        <ele>961</ele>
        <time>2022-07-19T17:34:07Z</time>
      </trkpt>
      <trkpt lat="44.72041" lon="6.5932">
        <ele>960.8</ele>
        <time>2022-07-19T17:34:08Z</time>
      </trkpt>
      <trkpt lat="44.72047" lon="6.59314">
        <ele>960.8</ele>
        <time>2022-07-19T17:34:09Z</time>
      </trkpt>
      <trkpt lat="44.72053" lon="6.59308">
        <ele>960.4</ele>
        <time>2022-07-19T17:34:10Z</time>
      </trkpt>
      <trkpt lat="44.72058" lon="6.59302">
        <ele>960.4</ele>
        <time>2022-07-19T17:34:11Z</time>
      </trkpt>
      <trkpt lat="44.72064" lon="6.59296">
        <ele>960</ele>
        <time>2022-07-19T17:34:12Z</time>
      </trkpt>
      <trkpt lat="44.7207" lon="6.5929">
        <ele>959.8</ele>
        <time>2022-07-19T17:34:13Z</time>
      </trkpt>
      <trkpt lat="44.72076" lon="6.59284">
        <ele>959.8</ele>
        <time>2022-07-19T17:34:14Z</time>
      </trkpt>
      <trkpt lat="44.72083" lon="6.59278">
        <ele>959.6</ele>
        <time>2022-07-19T17:34:15Z</time>
      </trkpt>
      <trkpt lat="44.72089" lon="6.59271">
        <ele>959.4</ele>
        <time>2022-07-19T17:34:16Z</time>
      </trkpt>
      <trkpt lat="44.72095" lon="6.59265">
        <ele>959.4</ele>
        <time>2022-07-19T17:34:17Z</time>
      </trkpt>
      <trkpt lat="44.72101" lon="6.59259">
        <ele>959</ele>
        <time>2022-07-19T17:34:18Z</time>
      </trkpt>
      <trkpt lat="44.72108" lon="6.59253">
        <ele>959</ele>
        <time>2022-07-19T17:34:19Z</time>
      </trkpt>
      <trkpt lat="44.72114" lon="6.59247">
        <ele>958.8</ele>
        <time>2022-07-19T17:34:20Z</time>
      </trkpt>
      <trkpt lat="44.7212" lon="6.5924">
        <ele>958.8</ele>
        <time>2022-07-19T17:34:21Z</time>
      </trkpt>
      <trkpt lat="44.72126" lon="6.59234">
        <ele>958.6</ele>
        <time>2022-07-19T17:34:22Z</time>
      </trkpt>
      <trkpt lat="44.72133" lon="6.59228">
        <ele>958.6</ele>
        <time>2022-07-19T17:34:23Z</time>
      </trkpt>
      <trkpt lat="44.72139" lon="6.59221">
        <ele>958.2</ele>
        <time>2022-07-19T17:34:24Z</time>
      </trkpt>
      <trkpt lat="44.72145" lon="6.59215">
        <ele>958.2</ele>
        <time>2022-07-19T17:34:25Z</time>
      </trkpt>
      <trkpt lat="44.72152" lon="6.59209">
        <ele>958.2</ele>
        <time>2022-07-19T17:34:26Z</time>
      </trkpt>
      <trkpt lat="44.72158" lon="6.59202">
        <ele>958.2</ele>
        <time>2022-07-19T17:34:27Z</time>
      </trkpt>
      <trkpt lat="44.72164" lon="6.59196">
        <ele>958.2</ele>
        <time>2022-07-19T17:34:28Z</time>
      </trkpt>
      <trkpt lat="44.72171" lon="6.5919">
        <ele>958.2</ele>
        <time>2022-07-19T17:34:29Z</time>
      </trkpt>
      <trkpt lat="44.72177" lon="6.59183">
        <ele>958.2</ele>
        <time>2022-07-19T17:34:30Z</time>
      </trkpt>
      <trkpt lat="44.72183" lon="6.59177">
        <ele>958.2</ele>
        <time>2022-07-19T17:34:31Z</time>
      </trkpt>
      <trkpt lat="44.72189" lon="6.59171">
        <ele>958</ele>
        <time>2022-07-19T17:34:32Z</time>
      </trkpt>
      <trkpt lat="44.72196" lon="6.59164">
        <ele>958</ele>
        <time>2022-07-19T17:34:33Z</time>
      </trkpt>
      <trkpt lat="44.72202" lon="6.59158">
        <ele>957.6</ele>
        <time>2022-07-19T17:34:34Z</time>
      </trkpt>
      <trkpt lat="44.72208" lon="6.59152">
        <ele>957.4</ele>
        <time>2022-07-19T17:34:35Z</time>
      </trkpt>
      <trkpt lat="44.72214" lon="6.59146">
        <ele>957.4</ele>
        <time>2022-07-19T17:34:36Z</time>
      </trkpt>
      <trkpt lat="44.72221" lon="6.59139">
        <ele>957.2</ele>
        <time>2022-07-19T17:34:37Z</time>
      </trkpt>
      <trkpt lat="44.72227" lon="6.59133">
        <ele>957.2</ele>
        <time>2022-07-19T17:34:38Z</time>
      </trkpt>
      <trkpt lat="44.72233" lon="6.59126">
        <ele>956.8</ele>
        <time>2022-07-19T17:34:39Z</time>
      </trkpt>
      <trkpt lat="44.72239" lon="6.5912">
        <ele>956.8</ele>
        <time>2022-07-19T17:34:40Z</time>
      </trkpt>
      <trkpt lat="44.72245" lon="6.59113">
        <ele>956.8</ele>
        <time>2022-07-19T17:34:41Z</time>
      </trkpt>
      <trkpt lat="44.72252" lon="6.59107">
        <ele>956.6</ele>
        <time>2022-07-19T17:34:42Z</time>
      </trkpt>
      <trkpt lat="44.72258" lon="6.591">
        <ele>956.6</ele>
        <time>2022-07-19T17:34:43Z</time>
      </trkpt>
      <trkpt lat="44.72264" lon="6.59094">
        <ele>956.6</ele>
        <time>2022-07-19T17:34:44Z</time>
      </trkpt>
      <trkpt lat="44.7227" lon="6.59087">
        <ele>956.6</ele>
        <time>2022-07-19T17:34:45Z</time>
      </trkpt>
      <trkpt lat="44.72276" lon="6.59081">
        <ele>956.6</ele>
        <time>2022-07-19T17:34:46Z</time>
      </trkpt>
      <trkpt lat="44.72282" lon="6.59075">
        <ele>956.4</ele>
        <time>2022-07-19T17:34:47Z</time>
      </trkpt>
      <trkpt lat="44.72288" lon="6.59069">
        <ele>956.4</ele>
        <time>2022-07-19T17:34:48Z</time>
      </trkpt>
      <trkpt lat="44.72295" lon="6.59063">
        <ele>956.4</ele>
        <time>2022-07-19T17:34:49Z</time>
      </trkpt>
      <trkpt lat="44.723" lon="6.59056">
        <ele>956.4</ele>
        <time>2022-07-19T17:34:50Z</time>
      </trkpt>
      <trkpt lat="44.72307" lon="6.5905">
        <ele>956.4</ele>
        <time>2022-07-19T17:34:51Z</time>
      </trkpt>
      <trkpt lat="44.72312" lon="6.59044">
        <ele>956.4</ele>
        <time>2022-07-19T17:34:52Z</time>
      </trkpt>
      <trkpt lat="44.72318" lon="6.59038">
        <ele>956.2</ele>
        <time>2022-07-19T17:34:53Z</time>
      </trkpt>
      <trkpt lat="44.72324" lon="6.59032">
        <ele>956.2</ele>
        <time>2022-07-19T17:34:54Z</time>
      </trkpt>
      <trkpt lat="44.7233" lon="6.59026">
        <ele>956</ele>
        <time>2022-07-19T17:34:55Z</time>
      </trkpt>
      <trkpt lat="44.72336" lon="6.5902">
        <ele>956</ele>
        <time>2022-07-19T17:34:56Z</time>
      </trkpt>
      <trkpt lat="44.72342" lon="6.59014">
        <ele>955.6</ele>
        <time>2022-07-19T17:34:57Z</time>
      </trkpt>
      <trkpt lat="44.72348" lon="6.59009">
        <ele>955.6</ele>
        <time>2022-07-19T17:34:58Z</time>
      </trkpt>
      <trkpt lat="44.72353" lon="6.59003">
        <ele>955.6</ele>
        <time>2022-07-19T17:34:59Z</time>
      </trkpt>
      <trkpt lat="44.72359" lon="6.58997">
        <ele>955.6</ele>
        <time>2022-07-19T17:35:00Z</time>
      </trkpt>
      <trkpt lat="44.72364" lon="6.58992">
        <ele>955.6</ele>
        <time>2022-07-19T17:35:01Z</time>
      </trkpt>
      <trkpt lat="44.7237" lon="6.58987">
        <ele>955.6</ele>
        <time>2022-07-19T17:35:02Z</time>
      </trkpt>
      <trkpt lat="44.72375" lon="6.58981">
        <ele>955.6</ele>
        <time>2022-07-19T17:35:03Z</time>
      </trkpt>
      <trkpt lat="44.72381" lon="6.58976">
        <ele>955.6</ele>
        <time>2022-07-19T17:35:04Z</time>
      </trkpt>
      <trkpt lat="44.72386" lon="6.58971">
        <ele>955.6</ele>
        <time>2022-07-19T17:35:05Z</time>
      </trkpt>
      <trkpt lat="44.72391" lon="6.58966">
        <ele>955.6</ele>
        <time>2022-07-19T17:35:06Z</time>
      </trkpt>
      <trkpt lat="44.72396" lon="6.58962">
        <ele>955.6</ele>
        <time>2022-07-19T17:35:07Z</time>
      </trkpt>
      <trkpt lat="44.72401" lon="6.58957">
        <ele>955.6</ele>
        <time>2022-07-19T17:35:08Z</time>
      </trkpt>
      <trkpt lat="44.72406" lon="6.58953">
        <ele>955.6</ele>
        <time>2022-07-19T17:35:09Z</time>
      </trkpt>
      <trkpt lat="44.72411" lon="6.58949">
        <ele>955.6</ele>
        <time>2022-07-19T17:35:10Z</time>
      </trkpt>
      <trkpt lat="44.72415" lon="6.58945">
        <ele>955.6</ele>
        <time>2022-07-19T17:35:11Z</time>
      </trkpt>
      <trkpt lat="44.72419" lon="6.58942">
        <ele>955.6</ele>
        <time>2022-07-19T17:35:12Z</time>
      </trkpt>
      <trkpt lat="44.72423" lon="6.58939">
        <ele>955.6</ele>
        <time>2022-07-19T17:35:13Z</time>
      </trkpt>
      <trkpt lat="44.72426" lon="6.58936">
        <ele>955.6</ele>
        <time>2022-07-19T17:35:14Z</time>
      </trkpt>
      <trkpt lat="44.72429" lon="6.58934">
        <ele>955.6</ele>
        <time>2022-07-19T17:35:15Z</time>
      </trkpt>
      <trkpt lat="44.72432" lon="6.58931">
        <ele>955.4</ele>
        <time>2022-07-19T17:35:16Z</time>
      </trkpt>
      <trkpt lat="44.72434" lon="6.58929">
        <ele>955.4</ele>
        <time>2022-07-19T17:35:17Z</time>
      </trkpt>
      <trkpt lat="44.72437" lon="6.58927">
        <ele>955.4</ele>
        <time>2022-07-19T17:35:18Z</time>
      </trkpt>
      <trkpt lat="44.7244" lon="6.58925">
        <ele>955.4</ele>
        <time>2022-07-19T17:35:19Z</time>
      </trkpt>
      <trkpt lat="44.72443" lon="6.58924">
        <ele>955.4</ele>
        <time>2022-07-19T17:35:20Z</time>
      </trkpt>
      <trkpt lat="44.72446" lon="6.58923">
        <ele>955.4</ele>
        <time>2022-07-19T17:35:21Z</time>
      </trkpt>
      <trkpt lat="44.7245" lon="6.58923">
        <ele>955.2</ele>
        <time>2022-07-19T17:35:22Z</time>
      </trkpt>
      <trkpt lat="44.72453" lon="6.58925">
        <ele>955.2</ele>
        <time>2022-07-19T17:35:23Z</time>
      </trkpt>
      <trkpt lat="44.72457" lon="6.58926">
        <ele>955.2</ele>
        <time>2022-07-19T17:35:24Z</time>
      </trkpt>
      <trkpt lat="44.72461" lon="6.58928">
        <ele>955.2</ele>
        <time>2022-07-19T17:35:25Z</time>
      </trkpt>
      <trkpt lat="44.72464" lon="6.58929">
        <ele>955.2</ele>
        <time>2022-07-19T17:35:26Z</time>
      </trkpt>
      <trkpt lat="44.72467" lon="6.58929">
        <ele>955.2</ele>
        <time>2022-07-19T17:35:27Z</time>
      </trkpt>
      <trkpt lat="44.72469" lon="6.58929">
        <ele>955.2</ele>
        <time>2022-07-19T17:35:28Z</time>
      </trkpt>
      <trkpt lat="44.72469" lon="6.58927">
        <ele>955.2</ele>
        <time>2022-07-19T17:35:29Z</time>
      </trkpt>
      <trkpt lat="44.72468" lon="6.58925">
        <ele>955.2</ele>
        <time>2022-07-19T17:35:30Z</time>
      </trkpt>
      <trkpt lat="44.72467" lon="6.58923">
        <ele>953.8</ele>
        <time>2022-07-19T17:40:32Z</time>
      </trkpt>
      <trkpt lat="44.72467" lon="6.58921">
        <ele>953.8</ele>
        <time>2022-07-19T17:40:33Z</time>
      </trkpt>
      <trkpt lat="44.72464" lon="6.58918">
        <ele>953.8</ele>
        <time>2022-07-19T17:40:34Z</time>
      </trkpt>
      <trkpt lat="44.72462" lon="6.58916">
        <ele>953.8</ele>
        <time>2022-07-19T17:40:35Z</time>
      </trkpt>
      <trkpt lat="44.72461" lon="6.58913">
        <ele>953.8</ele>
        <time>2022-07-19T17:40:36Z</time>
      </trkpt>
      <trkpt lat="44.72461" lon="6.58909">
        <ele>953.8</ele>
        <time>2022-07-19T17:40:37Z</time>
      </trkpt>
      <trkpt lat="44.72461" lon="6.58906">
        <ele>953.8</ele>
        <time>2022-07-19T17:40:38Z</time>
      </trkpt>
      <trkpt lat="44.72462" lon="6.58902">
        <ele>953.8</ele>
        <time>2022-07-19T17:40:39Z</time>
      </trkpt>
      <trkpt lat="44.72463" lon="6.58898">
        <ele>953.8</ele>
        <time>2022-07-19T17:40:40Z</time>
      </trkpt>
      <trkpt lat="44.72464" lon="6.58894">
        <ele>953.8</ele>
        <time>2022-07-19T17:40:41Z</time>
      </trkpt>
      <trkpt lat="44.72466" lon="6.58891">
        <ele>953.8</ele>
        <time>2022-07-19T17:40:42Z</time>
      </trkpt>
      <trkpt lat="44.72469" lon="6.58887">
        <ele>953.8</ele>
        <time>2022-07-19T17:40:43Z</time>
      </trkpt>
      <trkpt lat="44.72471" lon="6.58884">
        <ele>953.8</ele>
        <time>2022-07-19T17:40:44Z</time>
      </trkpt>
      <trkpt lat="44.72474" lon="6.5888">
        <ele>953.8</ele>
        <time>2022-07-19T17:40:45Z</time>
      </trkpt>
      <trkpt lat="44.72477" lon="6.58876">
        <ele>953.8</ele>
        <time>2022-07-19T17:40:46Z</time>
      </trkpt>
      <trkpt lat="44.72481" lon="6.58872">
        <ele>953.8</ele>
        <time>2022-07-19T17:40:47Z</time>
      </trkpt>
      <trkpt lat="44.72484" lon="6.58868">
        <ele>953.8</ele>
        <time>2022-07-19T17:40:48Z</time>
      </trkpt>
      <trkpt lat="44.72488" lon="6.58864">
        <ele>953.8</ele>
        <time>2022-07-19T17:40:49Z</time>
      </trkpt>
      <trkpt lat="44.72491" lon="6.5886">
        <ele>953.8</ele>
        <time>2022-07-19T17:40:50Z</time>
      </trkpt>
      <trkpt lat="44.72495" lon="6.58856">
        <ele>953.8</ele>
        <time>2022-07-19T17:40:51Z</time>
      </trkpt>
      <trkpt lat="44.72499" lon="6.58852">
        <ele>953.8</ele>
        <time>2022-07-19T17:40:52Z</time>
      </trkpt>
      <trkpt lat="44.72503" lon="6.58848">
        <ele>953.8</ele>
        <time>2022-07-19T17:40:53Z</time>
      </trkpt>
      <trkpt lat="44.72507" lon="6.58844">
        <ele>953.8</ele>
        <time>2022-07-19T17:40:54Z</time>
      </trkpt>
      <trkpt lat="44.72511" lon="6.58839">
        <ele>953.8</ele>
        <time>2022-07-19T17:40:55Z</time>
      </trkpt>
      <trkpt lat="44.72515" lon="6.58834">
        <ele>953.8</ele>
        <time>2022-07-19T17:40:56Z</time>
      </trkpt>
      <trkpt lat="44.72519" lon="6.5883">
        <ele>953.8</ele>
        <time>2022-07-19T17:40:57Z</time>
      </trkpt>
      <trkpt lat="44.72524" lon="6.58825">
        <ele>953.8</ele>
        <time>2022-07-19T17:40:58Z</time>
      </trkpt>
      <trkpt lat="44.72528" lon="6.58821">
        <ele>953.8</ele>
        <time>2022-07-19T17:40:59Z</time>
      </trkpt>
      <trkpt lat="44.72532" lon="6.58816">
        <ele>953.8</ele>
        <time>2022-07-19T17:41:00Z</time>
      </trkpt>
      <trkpt lat="44.72537" lon="6.58812">
        <ele>953.8</ele>
        <time>2022-07-19T17:41:01Z</time>
      </trkpt>
      <trkpt lat="44.72541" lon="6.58807">
        <ele>953.8</ele>
        <time>2022-07-19T17:41:02Z</time>
      </trkpt>
      <trkpt lat="44.72546" lon="6.58803">
        <ele>953.8</ele>
        <time>2022-07-19T17:41:03Z</time>
      </trkpt>
      <trkpt lat="44.7255" lon="6.58798">
        <ele>953.8</ele>
        <time>2022-07-19T17:41:04Z</time>
      </trkpt>
      <trkpt lat="44.72555" lon="6.58793">
        <ele>953.8</ele>
        <time>2022-07-19T17:41:05Z</time>
      </trkpt>
      <trkpt lat="44.72559" lon="6.58788">
        <ele>953.8</ele>
        <time>2022-07-19T17:41:06Z</time>
      </trkpt>
      <trkpt lat="44.72564" lon="6.58783">
        <ele>953.6</ele>
        <time>2022-07-19T17:41:07Z</time>
      </trkpt>
      <trkpt lat="44.72569" lon="6.58779">
        <ele>953.6</ele>
        <time>2022-07-19T17:41:08Z</time>
      </trkpt>
      <trkpt lat="44.72573" lon="6.58774">
        <ele>953.6</ele>
        <time>2022-07-19T17:41:09Z</time>
      </trkpt>
      <trkpt lat="44.72578" lon="6.58769">
        <ele>953.6</ele>
        <time>2022-07-19T17:41:10Z</time>
      </trkpt>
      <trkpt lat="44.72583" lon="6.58764">
        <ele>953.6</ele>
        <time>2022-07-19T17:41:11Z</time>
      </trkpt>
      <trkpt lat="44.72587" lon="6.5876">
        <ele>953.6</ele>
        <time>2022-07-19T17:41:12Z</time>
      </trkpt>
      <trkpt lat="44.72592" lon="6.58755">
        <ele>953.6</ele>
        <time>2022-07-19T17:41:13Z</time>
      </trkpt>
      <trkpt lat="44.72597" lon="6.58751">
        <ele>953.4</ele>
        <time>2022-07-19T17:41:14Z</time>
      </trkpt>
      <trkpt lat="44.72601" lon="6.58746">
        <ele>953.4</ele>
        <time>2022-07-19T17:41:15Z</time>
      </trkpt>
      <trkpt lat="44.72606" lon="6.58741">
        <ele>953.4</ele>
        <time>2022-07-19T17:41:16Z</time>
      </trkpt>
      <trkpt lat="44.7261" lon="6.58737">
        <ele>953.4</ele>
        <time>2022-07-19T17:41:17Z</time>
      </trkpt>
      <trkpt lat="44.72615" lon="6.58732">
        <ele>953.4</ele>
        <time>2022-07-19T17:41:18Z</time>
      </trkpt>
      <trkpt lat="44.7262" lon="6.58727">
        <ele>953.4</ele>
        <time>2022-07-19T17:41:19Z</time>
      </trkpt>
      <trkpt lat="44.72624" lon="6.58723">
        <ele>953.4</ele>
        <time>2022-07-19T17:41:20Z</time>
      </trkpt>
      <trkpt lat="44.72629" lon="6.58719">
        <ele>953.4</ele>
        <time>2022-07-19T17:41:21Z</time>
      </trkpt>
      <trkpt lat="44.72633" lon="6.58714">
        <ele>953.6</ele>
        <time>2022-07-19T17:41:22Z</time>
      </trkpt>
      <trkpt lat="44.72638" lon="6.5871">
        <ele>953.6</ele>
        <time>2022-07-19T17:41:23Z</time>
      </trkpt>
      <trkpt lat="44.72643" lon="6.58706">
        <ele>953.6</ele>
        <time>2022-07-19T17:41:24Z</time>
      </trkpt>
      <trkpt lat="44.72647" lon="6.58701">
        <ele>953.6</ele>
        <time>2022-07-19T17:41:25Z</time>
      </trkpt>
      <trkpt lat="44.72652" lon="6.58697">
        <ele>953.6</ele>
        <time>2022-07-19T17:41:26Z</time>
      </trkpt>
      <trkpt lat="44.72657" lon="6.58693">
        <ele>953.6</ele>
        <time>2022-07-19T17:41:27Z</time>
      </trkpt>
      <trkpt lat="44.72662" lon="6.58688">
        <ele>953.6</ele>
        <time>2022-07-19T17:41:28Z</time>
      </trkpt>
      <trkpt lat="44.72666" lon="6.58684">
        <ele>953.6</ele>
        <time>2022-07-19T17:41:29Z</time>
      </trkpt>
      <trkpt lat="44.72671" lon="6.58679">
        <ele>953.6</ele>
        <time>2022-07-19T17:41:30Z</time>
      </trkpt>
      <trkpt lat="44.72676" lon="6.58675">
        <ele>953.6</ele>
        <time>2022-07-19T17:41:31Z</time>
      </trkpt>
      <trkpt lat="44.72681" lon="6.5867">
        <ele>953.6</ele>
        <time>2022-07-19T17:41:32Z</time>
      </trkpt>
      <trkpt lat="44.72686" lon="6.58666">
        <ele>953.6</ele>
        <time>2022-07-19T17:41:33Z</time>
      </trkpt>
      <trkpt lat="44.7269" lon="6.58662">
        <ele>953.6</ele>
        <time>2022-07-19T17:41:34Z</time>
      </trkpt>
      <trkpt lat="44.72695" lon="6.58658">
        <ele>953.6</ele>
        <time>2022-07-19T17:41:35Z</time>
      </trkpt>
      <trkpt lat="44.727" lon="6.58655">
        <ele>953.6</ele>
        <time>2022-07-19T17:41:36Z</time>
      </trkpt>
      <trkpt lat="44.72705" lon="6.58651">
        <ele>953.6</ele>
        <time>2022-07-19T17:41:37Z</time>
      </trkpt>
      <trkpt lat="44.7271" lon="6.58648">
        <ele>953.6</ele>
        <time>2022-07-19T17:41:38Z</time>
      </trkpt>
      <trkpt lat="44.72715" lon="6.58644">
        <ele>953.6</ele>
        <time>2022-07-19T17:41:39Z</time>
      </trkpt>
      <trkpt lat="44.7272" lon="6.58641">
        <ele>953.6</ele>
        <time>2022-07-19T17:41:40Z</time>
      </trkpt>
      <trkpt lat="44.72725" lon="6.58638">
        <ele>954</ele>
        <time>2022-07-19T17:41:41Z</time>
      </trkpt>
      <trkpt lat="44.72729" lon="6.58634">
        <ele>954</ele>
        <time>2022-07-19T17:41:42Z</time>
      </trkpt>
      <trkpt lat="44.72734" lon="6.58631">
        <ele>954</ele>
        <time>2022-07-19T17:41:43Z</time>
      </trkpt>
      <trkpt lat="44.72739" lon="6.58629">
        <ele>954</ele>
        <time>2022-07-19T17:41:44Z</time>
      </trkpt>
      <trkpt lat="44.72744" lon="6.58626">
        <ele>954.2</ele>
        <time>2022-07-19T17:41:45Z</time>
      </trkpt>
      <trkpt lat="44.72749" lon="6.58623">
        <ele>954.2</ele>
        <time>2022-07-19T17:41:46Z</time>
      </trkpt>
      <trkpt lat="44.72754" lon="6.5862">
        <ele>954.2</ele>
        <time>2022-07-19T17:41:47Z</time>
      </trkpt>
      <trkpt lat="44.72759" lon="6.58617">
        <ele>954.2</ele>
        <time>2022-07-19T17:41:48Z</time>
      </trkpt>
      <trkpt lat="44.72763" lon="6.58615">
        <ele>954.2</ele>
        <time>2022-07-19T17:41:49Z</time>
      </trkpt>
      <trkpt lat="44.72768" lon="6.58612">
        <ele>954.2</ele>
        <time>2022-07-19T17:41:50Z</time>
      </trkpt>
      <trkpt lat="44.72773" lon="6.58609">
        <ele>954.2</ele>
        <time>2022-07-19T17:41:51Z</time>
      </trkpt>
      <trkpt lat="44.72778" lon="6.58607">
        <ele>954.2</ele>
        <time>2022-07-19T17:41:52Z</time>
      </trkpt>
      <trkpt lat="44.72783" lon="6.58604">
        <ele>954.2</ele>
        <time>2022-07-19T17:41:53Z</time>
      </trkpt>
      <trkpt lat="44.72788" lon="6.58602">
        <ele>954.2</ele>
        <time>2022-07-19T17:41:54Z</time>
      </trkpt>
      <trkpt lat="44.72792" lon="6.586">
        <ele>954.2</ele>
        <time>2022-07-19T17:41:55Z</time>
      </trkpt>
      <trkpt lat="44.72797" lon="6.58598">
        <ele>954.2</ele>
        <time>2022-07-19T17:41:56Z</time>
      </trkpt>
      <trkpt lat="44.72802" lon="6.58596">
        <ele>954.2</ele>
        <time>2022-07-19T17:41:57Z</time>
      </trkpt>
      <trkpt lat="44.72807" lon="6.58594">
        <ele>954.2</ele>
        <time>2022-07-19T17:41:58Z</time>
      </trkpt>
      <trkpt lat="44.72812" lon="6.58593">
        <ele>954.2</ele>
        <time>2022-07-19T17:41:59Z</time>
      </trkpt>
      <trkpt lat="44.72817" lon="6.58591">
        <ele>954.2</ele>
        <time>2022-07-19T17:42:00Z</time>
      </trkpt>
      <trkpt lat="44.72821" lon="6.58589">
        <ele>954.2</ele>
        <time>2022-07-19T17:42:01Z</time>
      </trkpt>
      <trkpt lat="44.72827" lon="6.58587">
        <ele>954.2</ele>
        <time>2022-07-19T17:42:02Z</time>
      </trkpt>
      <trkpt lat="44.72832" lon="6.58586">
        <ele>954.2</ele>
        <time>2022-07-19T17:42:03Z</time>
      </trkpt>
      <trkpt lat="44.72837" lon="6.58584">
        <ele>954.2</ele>
        <time>2022-07-19T17:42:04Z</time>
      </trkpt>
      <trkpt lat="44.72842" lon="6.58582">
        <ele>954.4</ele>
        <time>2022-07-19T17:42:05Z</time>
      </trkpt>
      <trkpt lat="44.72847" lon="6.58581">
        <ele>954.4</ele>
        <time>2022-07-19T17:42:06Z</time>
      </trkpt>
      <trkpt lat="44.72852" lon="6.58579">
        <ele>954.4</ele>
        <time>2022-07-19T17:42:07Z</time>
      </trkpt>
      <trkpt lat="44.72857" lon="6.58578">
        <ele>954.6</ele>
        <time>2022-07-19T17:42:08Z</time>
      </trkpt>
      <trkpt lat="44.72862" lon="6.58576">
        <ele>954.6</ele>
        <time>2022-07-19T17:42:09Z</time>
      </trkpt>
      <trkpt lat="44.72867" lon="6.58575">
        <ele>954.6</ele>
        <time>2022-07-19T17:42:10Z</time>
      </trkpt>
      <trkpt lat="44.72872" lon="6.58573">
        <ele>955</ele>
        <time>2022-07-19T17:42:11Z</time>
      </trkpt>
      <trkpt lat="44.72877" lon="6.58572">
        <ele>955</ele>
        <time>2022-07-19T17:42:12Z</time>
      </trkpt>
      <trkpt lat="44.72882" lon="6.58571">
        <ele>955</ele>
        <time>2022-07-19T17:42:13Z</time>
      </trkpt>
      <trkpt lat="44.72887" lon="6.58569">
        <ele>955</ele>
        <time>2022-07-19T17:42:14Z</time>
      </trkpt>
      <trkpt lat="44.72892" lon="6.58568">
        <ele>955.2</ele>
        <time>2022-07-19T17:42:15Z</time>
      </trkpt>
      <trkpt lat="44.72897" lon="6.58567">
        <ele>955.4</ele>
        <time>2022-07-19T17:42:16Z</time>
      </trkpt>
      <trkpt lat="44.72902" lon="6.58565">
        <ele>955.4</ele>
        <time>2022-07-19T17:42:17Z</time>
      </trkpt>
      <trkpt lat="44.72907" lon="6.58564">
        <ele>955.4</ele>
        <time>2022-07-19T17:42:18Z</time>
      </trkpt>
      <trkpt lat="44.72912" lon="6.58562">
        <ele>955.4</ele>
        <time>2022-07-19T17:42:19Z</time>
      </trkpt>
      <trkpt lat="44.72917" lon="6.58561">
        <ele>955.4</ele>
        <time>2022-07-19T17:42:20Z</time>
      </trkpt>
      <trkpt lat="44.72922" lon="6.58559">
        <ele>955.4</ele>
        <time>2022-07-19T17:42:21Z</time>
      </trkpt>
      <trkpt lat="44.72927" lon="6.58557">
        <ele>955.6</ele>
        <time>2022-07-19T17:42:22Z</time>
      </trkpt>
      <trkpt lat="44.72932" lon="6.58556">
        <ele>955.6</ele>
        <time>2022-07-19T17:42:23Z</time>
      </trkpt>
      <trkpt lat="44.72936" lon="6.58554">
        <ele>955.6</ele>
        <time>2022-07-19T17:42:24Z</time>
      </trkpt>
      <trkpt lat="44.72941" lon="6.58553">
        <ele>955.6</ele>
        <time>2022-07-19T17:42:25Z</time>
      </trkpt>
      <trkpt lat="44.72946" lon="6.58551">
        <ele>955.6</ele>
        <time>2022-07-19T17:42:26Z</time>
      </trkpt>
      <trkpt lat="44.72951" lon="6.5855">
        <ele>955.6</ele>
        <time>2022-07-19T17:42:27Z</time>
      </trkpt>
      <trkpt lat="44.72956" lon="6.58548">
        <ele>955.6</ele>
        <time>2022-07-19T17:42:28Z</time>
      </trkpt>
      <trkpt lat="44.72961" lon="6.58547">
        <ele>955.6</ele>
        <time>2022-07-19T17:42:29Z</time>
      </trkpt>
      <trkpt lat="44.72966" lon="6.58545">
        <ele>955.6</ele>
        <time>2022-07-19T17:42:30Z</time>
      </trkpt>
      <trkpt lat="44.72971" lon="6.58544">
        <ele>955.8</ele>
        <time>2022-07-19T17:42:31Z</time>
      </trkpt>
      <trkpt lat="44.72976" lon="6.58542">
        <ele>955.8</ele>
        <time>2022-07-19T17:42:32Z</time>
      </trkpt>
      <trkpt lat="44.72981" lon="6.5854">
        <ele>955.8</ele>
        <time>2022-07-19T17:42:33Z</time>
      </trkpt>
      <trkpt lat="44.72986" lon="6.58538">
        <ele>955.8</ele>
        <time>2022-07-19T17:42:34Z</time>
      </trkpt>
      <trkpt lat="44.72991" lon="6.58536">
        <ele>955.8</ele>
        <time>2022-07-19T17:42:35Z</time>
      </trkpt>
      <trkpt lat="44.72997" lon="6.58534">
        <ele>955.8</ele>
        <time>2022-07-19T17:42:36Z</time>
      </trkpt>
      <trkpt lat="44.73002" lon="6.58532">
        <ele>955.8</ele>
        <time>2022-07-19T17:42:37Z</time>
      </trkpt>
      <trkpt lat="44.73007" lon="6.5853">
        <ele>955.8</ele>
        <time>2022-07-19T17:42:38Z</time>
      </trkpt>
      <trkpt lat="44.73012" lon="6.58528">
        <ele>955.8</ele>
        <time>2022-07-19T17:42:39Z</time>
      </trkpt>
      <trkpt lat="44.73018" lon="6.58526">
        <ele>956.2</ele>
        <time>2022-07-19T17:42:40Z</time>
      </trkpt>
      <trkpt lat="44.73023" lon="6.58524">
        <ele>956.2</ele>
        <time>2022-07-19T17:42:41Z</time>
      </trkpt>
      <trkpt lat="44.73029" lon="6.58522">
        <ele>956.2</ele>
        <time>2022-07-19T17:42:42Z</time>
      </trkpt>
      <trkpt lat="44.73034" lon="6.58521">
        <ele>956.2</ele>
        <time>2022-07-19T17:42:43Z</time>
      </trkpt>
      <trkpt lat="44.7304" lon="6.58519">
        <ele>956.2</ele>
        <time>2022-07-19T17:42:44Z</time>
      </trkpt>
      <trkpt lat="44.73046" lon="6.58517">
        <ele>956.2</ele>
        <time>2022-07-19T17:42:45Z</time>
      </trkpt>
      <trkpt lat="44.73051" lon="6.58515">
        <ele>956.2</ele>
        <time>2022-07-19T17:42:46Z</time>
      </trkpt>
      <trkpt lat="44.73056" lon="6.58513">
        <ele>956.2</ele>
        <time>2022-07-19T17:42:47Z</time>
      </trkpt>
      <trkpt lat="44.73062" lon="6.5851">
        <ele>956.4</ele>
        <time>2022-07-19T17:42:48Z</time>
      </trkpt>
      <trkpt lat="44.73067" lon="6.58508">
        <ele>956.4</ele>
        <time>2022-07-19T17:42:49Z</time>
      </trkpt>
      <trkpt lat="44.73072" lon="6.58507">
        <ele>956.4</ele>
        <time>2022-07-19T17:42:50Z</time>
      </trkpt>
      <trkpt lat="44.73077" lon="6.58505">
        <ele>956.4</ele>
        <time>2022-07-19T17:42:51Z</time>
      </trkpt>
      <trkpt lat="44.73082" lon="6.58503">
        <ele>956.4</ele>
        <time>2022-07-19T17:42:52Z</time>
      </trkpt>
      <trkpt lat="44.73087" lon="6.58501">
        <ele>956.4</ele>
        <time>2022-07-19T17:42:53Z</time>
      </trkpt>
      <trkpt lat="44.73092" lon="6.58499">
        <ele>956.4</ele>
        <time>2022-07-19T17:42:54Z</time>
      </trkpt>
      <trkpt lat="44.73098" lon="6.58497">
        <ele>956.4</ele>
        <time>2022-07-19T17:42:55Z</time>
      </trkpt>
      <trkpt lat="44.73103" lon="6.58496">
        <ele>956.4</ele>
        <time>2022-07-19T17:42:56Z</time>
      </trkpt>
      <trkpt lat="44.73108" lon="6.58494">
        <ele>956.4</ele>
        <time>2022-07-19T17:42:57Z</time>
      </trkpt>
      <trkpt lat="44.73113" lon="6.58492">
        <ele>956.4</ele>
        <time>2022-07-19T17:42:58Z</time>
      </trkpt>
      <trkpt lat="44.73118" lon="6.58491">
        <ele>956.4</ele>
        <time>2022-07-19T17:42:59Z</time>
      </trkpt>
      <trkpt lat="44.73124" lon="6.58489">
        <ele>956.4</ele>
        <time>2022-07-19T17:43:00Z</time>
      </trkpt>
      <trkpt lat="44.73129" lon="6.58487">
        <ele>956.4</ele>
        <time>2022-07-19T17:43:01Z</time>
      </trkpt>
      <trkpt lat="44.73134" lon="6.58486">
        <ele>956.6</ele>
        <time>2022-07-19T17:43:02Z</time>
      </trkpt>
      <trkpt lat="44.7314" lon="6.58484">
        <ele>956.6</ele>
        <time>2022-07-19T17:43:03Z</time>
      </trkpt>
      <trkpt lat="44.73145" lon="6.58482">
        <ele>956.6</ele>
        <time>2022-07-19T17:43:04Z</time>
      </trkpt>
      <trkpt lat="44.7315" lon="6.58481">
        <ele>956.6</ele>
        <time>2022-07-19T17:43:05Z</time>
      </trkpt>
      <trkpt lat="44.73155" lon="6.58479">
        <ele>956.8</ele>
        <time>2022-07-19T17:43:06Z</time>
      </trkpt>
      <trkpt lat="44.73161" lon="6.58478">
        <ele>956.8</ele>
        <time>2022-07-19T17:43:07Z</time>
      </trkpt>
      <trkpt lat="44.73166" lon="6.58476">
        <ele>956.8</ele>
        <time>2022-07-19T17:43:08Z</time>
      </trkpt>
      <trkpt lat="44.73171" lon="6.58475">
        <ele>957.2</ele>
        <time>2022-07-19T17:43:09Z</time>
      </trkpt>
      <trkpt lat="44.73176" lon="6.58473">
        <ele>957.2</ele>
        <time>2022-07-19T17:43:10Z</time>
      </trkpt>
      <trkpt lat="44.73181" lon="6.58471">
        <ele>957.2</ele>
        <time>2022-07-19T17:43:11Z</time>
      </trkpt>
      <trkpt lat="44.73186" lon="6.5847">
        <ele>957.8</ele>
        <time>2022-07-19T17:43:12Z</time>
      </trkpt>
      <trkpt lat="44.73191" lon="6.58468">
        <ele>957.8</ele>
        <time>2022-07-19T17:43:13Z</time>
      </trkpt>
      <trkpt lat="44.73196" lon="6.58467">
        <ele>957.8</ele>
        <time>2022-07-19T17:43:14Z</time>
      </trkpt>
      <trkpt lat="44.73201" lon="6.58465">
        <ele>957.8</ele>
        <time>2022-07-19T17:43:15Z</time>
      </trkpt>
      <trkpt lat="44.73206" lon="6.58463">
        <ele>957.8</ele>
        <time>2022-07-19T17:43:16Z</time>
      </trkpt>
      <trkpt lat="44.73211" lon="6.58461">
        <ele>957.8</ele>
        <time>2022-07-19T17:43:17Z</time>
      </trkpt>
      <trkpt lat="44.73216" lon="6.58459">
        <ele>957.6</ele>
        <time>2022-07-19T17:43:18Z</time>
      </trkpt>
      <trkpt lat="44.73221" lon="6.58458">
        <ele>957.6</ele>
        <time>2022-07-19T17:43:19Z</time>
      </trkpt>
      <trkpt lat="44.73226" lon="6.58456">
        <ele>957.6</ele>
        <time>2022-07-19T17:43:20Z</time>
      </trkpt>
      <trkpt lat="44.73231" lon="6.58454">
        <ele>957.6</ele>
        <time>2022-07-19T17:43:21Z</time>
      </trkpt>
      <trkpt lat="44.73236" lon="6.58452">
        <ele>957.6</ele>
        <time>2022-07-19T17:43:22Z</time>
      </trkpt>
      <trkpt lat="44.73241" lon="6.58451">
        <ele>957.6</ele>
        <time>2022-07-19T17:43:23Z</time>
      </trkpt>
      <trkpt lat="44.73246" lon="6.58449">
        <ele>957.6</ele>
        <time>2022-07-19T17:43:24Z</time>
      </trkpt>
      <trkpt lat="44.73251" lon="6.58448">
        <ele>957.6</ele>
        <time>2022-07-19T17:43:25Z</time>
      </trkpt>
      <trkpt lat="44.73257" lon="6.58446">
        <ele>957.6</ele>
        <time>2022-07-19T17:43:26Z</time>
      </trkpt>
      <trkpt lat="44.73262" lon="6.58445">
        <ele>957.6</ele>
        <time>2022-07-19T17:43:27Z</time>
      </trkpt>
      <trkpt lat="44.73267" lon="6.58443">
        <ele>957.6</ele>
        <time>2022-07-19T17:43:28Z</time>
      </trkpt>
      <trkpt lat="44.73272" lon="6.58442">
        <ele>957.6</ele>
        <time>2022-07-19T17:43:29Z</time>
      </trkpt>
      <trkpt lat="44.73278" lon="6.5844">
        <ele>957.8</ele>
        <time>2022-07-19T17:43:30Z</time>
      </trkpt>
      <trkpt lat="44.73283" lon="6.58438">
        <ele>957.8</ele>
        <time>2022-07-19T17:43:31Z</time>
      </trkpt>
      <trkpt lat="44.73288" lon="6.58437">
        <ele>957.8</ele>
        <time>2022-07-19T17:43:32Z</time>
      </trkpt>
      <trkpt lat="44.73293" lon="6.58435">
        <ele>957.8</ele>
        <time>2022-07-19T17:43:33Z</time>
      </trkpt>
      <trkpt lat="44.73299" lon="6.58434">
        <ele>957.8</ele>
        <time>2022-07-19T17:43:34Z</time>
      </trkpt>
      <trkpt lat="44.73304" lon="6.58432">
        <ele>957.8</ele>
        <time>2022-07-19T17:43:35Z</time>
      </trkpt>
      <trkpt lat="44.73309" lon="6.58431">
        <ele>957.8</ele>
        <time>2022-07-19T17:43:36Z</time>
      </trkpt>
      <trkpt lat="44.73314" lon="6.58429">
        <ele>957.8</ele>
        <time>2022-07-19T17:43:37Z</time>
      </trkpt>
      <trkpt lat="44.73319" lon="6.58428">
        <ele>957.8</ele>
        <time>2022-07-19T17:43:38Z</time>
      </trkpt>
      <trkpt lat="44.73324" lon="6.58426">
        <ele>957.8</ele>
        <time>2022-07-19T17:43:39Z</time>
      </trkpt>
      <trkpt lat="44.7333" lon="6.58425">
        <ele>957.8</ele>
        <time>2022-07-19T17:43:40Z</time>
      </trkpt>
      <trkpt lat="44.73335" lon="6.58424">
        <ele>958</ele>
        <time>2022-07-19T17:43:41Z</time>
      </trkpt>
      <trkpt lat="44.7334" lon="6.58423">
        <ele>958</ele>
        <time>2022-07-19T17:43:42Z</time>
      </trkpt>
      <trkpt lat="44.73345" lon="6.58422">
        <ele>958</ele>
        <time>2022-07-19T17:43:43Z</time>
      </trkpt>
      <trkpt lat="44.7335" lon="6.58421">
        <ele>958</ele>
        <time>2022-07-19T17:43:44Z</time>
      </trkpt>
      <trkpt lat="44.73356" lon="6.5842">
        <ele>958</ele>
        <time>2022-07-19T17:43:45Z</time>
      </trkpt>
      <trkpt lat="44.73361" lon="6.5842">
        <ele>958</ele>
        <time>2022-07-19T17:43:46Z</time>
      </trkpt>
      <trkpt lat="44.73366" lon="6.58419">
        <ele>958</ele>
        <time>2022-07-19T17:43:47Z</time>
      </trkpt>
      <trkpt lat="44.73371" lon="6.58418">
        <ele>958.2</ele>
        <time>2022-07-19T17:43:48Z</time>
      </trkpt>
      <trkpt lat="44.73376" lon="6.58418">
        <ele>958.2</ele>
        <time>2022-07-19T17:43:49Z</time>
      </trkpt>
      <trkpt lat="44.73381" lon="6.58417">
        <ele>958.2</ele>
        <time>2022-07-19T17:43:50Z</time>
      </trkpt>
      <trkpt lat="44.73386" lon="6.58417">
        <ele>958.2</ele>
        <time>2022-07-19T17:43:51Z</time>
      </trkpt>
      <trkpt lat="44.73391" lon="6.58416">
        <ele>958.2</ele>
        <time>2022-07-19T17:43:52Z</time>
      </trkpt>
      <trkpt lat="44.73395" lon="6.58416">
        <ele>958.2</ele>
        <time>2022-07-19T17:43:53Z</time>
      </trkpt>
      <trkpt lat="44.734" lon="6.58415">
        <ele>958.2</ele>
        <time>2022-07-19T17:43:54Z</time>
      </trkpt>
      <trkpt lat="44.73405" lon="6.58415">
        <ele>958.2</ele>
        <time>2022-07-19T17:43:55Z</time>
      </trkpt>
      <trkpt lat="44.7341" lon="6.58414">
        <ele>958.2</ele>
        <time>2022-07-19T17:43:56Z</time>
      </trkpt>
      <trkpt lat="44.73415" lon="6.58413">
        <ele>958.2</ele>
        <time>2022-07-19T17:43:57Z</time>
      </trkpt>
      <trkpt lat="44.7342" lon="6.58413">
        <ele>958.2</ele>
        <time>2022-07-19T17:43:58Z</time>
      </trkpt>
      <trkpt lat="44.73425" lon="6.58412">
        <ele>958.2</ele>
        <time>2022-07-19T17:43:59Z</time>
      </trkpt>
      <trkpt lat="44.7343" lon="6.58411">
        <ele>958.6</ele>
        <time>2022-07-19T17:44:00Z</time>
      </trkpt>
      <trkpt lat="44.73435" lon="6.58411">
        <ele>958.6</ele>
        <time>2022-07-19T17:44:01Z</time>
      </trkpt>
      <trkpt lat="44.7344" lon="6.5841">
        <ele>958.6</ele>
        <time>2022-07-19T17:44:02Z</time>
      </trkpt>
      <trkpt lat="44.73445" lon="6.5841">
        <ele>958.6</ele>
        <time>2022-07-19T17:44:03Z</time>
      </trkpt>
      <trkpt lat="44.7345" lon="6.58409">
        <ele>958.6</ele>
        <time>2022-07-19T17:44:04Z</time>
      </trkpt>
      <trkpt lat="44.73454" lon="6.58409">
        <ele>958.8</ele>
        <time>2022-07-19T17:44:05Z</time>
      </trkpt>
      <trkpt lat="44.73459" lon="6.58408">
        <ele>958.8</ele>
        <time>2022-07-19T17:44:06Z</time>
      </trkpt>
      <trkpt lat="44.73464" lon="6.58407">
        <ele>958.8</ele>
        <time>2022-07-19T17:44:07Z</time>
      </trkpt>
      <trkpt lat="44.73469" lon="6.58407">
        <ele>958.8</ele>
        <time>2022-07-19T17:44:08Z</time>
      </trkpt>
      <trkpt lat="44.73474" lon="6.58406">
        <ele>958.8</ele>
        <time>2022-07-19T17:44:09Z</time>
      </trkpt>
      <trkpt lat="44.73479" lon="6.58406">
        <ele>959</ele>
        <time>2022-07-19T17:44:10Z</time>
      </trkpt>
      <trkpt lat="44.73484" lon="6.58405">
        <ele>959</ele>
        <time>2022-07-19T17:44:11Z</time>
      </trkpt>
      <trkpt lat="44.73489" lon="6.58405">
        <ele>959</ele>
        <time>2022-07-19T17:44:12Z</time>
      </trkpt>
      <trkpt lat="44.73494" lon="6.58404">
        <ele>959</ele>
        <time>2022-07-19T17:44:13Z</time>
      </trkpt>
      <trkpt lat="44.73498" lon="6.58403">
        <ele>959.4</ele>
        <time>2022-07-19T17:44:14Z</time>
      </trkpt>
      <trkpt lat="44.73503" lon="6.58402">
        <ele>959.4</ele>
        <time>2022-07-19T17:44:15Z</time>
      </trkpt>
      <trkpt lat="44.73508" lon="6.58402">
        <ele>959.4</ele>
        <time>2022-07-19T17:44:16Z</time>
      </trkpt>
      <trkpt lat="44.73513" lon="6.58401">
        <ele>959.4</ele>
        <time>2022-07-19T17:44:17Z</time>
      </trkpt>
      <trkpt lat="44.73518" lon="6.58401">
        <ele>959.6</ele>
        <time>2022-07-19T17:44:18Z</time>
      </trkpt>
      <trkpt lat="44.73523" lon="6.584">
        <ele>959.6</ele>
        <time>2022-07-19T17:44:19Z</time>
      </trkpt>
      <trkpt lat="44.73528" lon="6.584">
        <ele>959.6</ele>
        <time>2022-07-19T17:44:20Z</time>
      </trkpt>
      <trkpt lat="44.73533" lon="6.58399">
        <ele>959.8</ele>
        <time>2022-07-19T17:44:21Z</time>
      </trkpt>
      <trkpt lat="44.73538" lon="6.58399">
        <ele>959.8</ele>
        <time>2022-07-19T17:44:22Z</time>
      </trkpt>
      <trkpt lat="44.73543" lon="6.58399">
        <ele>959.8</ele>
        <time>2022-07-19T17:44:23Z</time>
      </trkpt>
      <trkpt lat="44.73547" lon="6.58398">
        <ele>960</ele>
        <time>2022-07-19T17:44:24Z</time>
      </trkpt>
      <trkpt lat="44.73552" lon="6.58397">
        <ele>960</ele>
        <time>2022-07-19T17:44:25Z</time>
      </trkpt>
      <trkpt lat="44.73557" lon="6.58397">
        <ele>960.4</ele>
        <time>2022-07-19T17:44:26Z</time>
      </trkpt>
      <trkpt lat="44.73562" lon="6.58396">
        <ele>960.4</ele>
        <time>2022-07-19T17:44:27Z</time>
      </trkpt>
      <trkpt lat="44.73567" lon="6.58396">
        <ele>960.4</ele>
        <time>2022-07-19T17:44:28Z</time>
      </trkpt>
      <trkpt lat="44.73572" lon="6.58395">
        <ele>960.6</ele>
        <time>2022-07-19T17:44:29Z</time>
      </trkpt>
      <trkpt lat="44.73577" lon="6.58394">
        <ele>960.6</ele>
        <time>2022-07-19T17:44:30Z</time>
      </trkpt>
      <trkpt lat="44.73582" lon="6.58394">
        <ele>960.6</ele>
        <time>2022-07-19T17:44:31Z</time>
      </trkpt>
      <trkpt lat="44.73587" lon="6.58393">
        <ele>960.6</ele>
        <time>2022-07-19T17:44:32Z</time>
      </trkpt>
      <trkpt lat="44.73592" lon="6.58392">
        <ele>960.8</ele>
        <time>2022-07-19T17:44:33Z</time>
      </trkpt>
      <trkpt lat="44.73596" lon="6.58392">
        <ele>960.8</ele>
        <time>2022-07-19T17:44:34Z</time>
      </trkpt>
      <trkpt lat="44.73601" lon="6.58391">
        <ele>960.8</ele>
        <time>2022-07-19T17:44:35Z</time>
      </trkpt>
      <trkpt lat="44.73606" lon="6.58391">
        <ele>960.8</ele>
        <time>2022-07-19T17:44:36Z</time>
      </trkpt>
      <trkpt lat="44.73611" lon="6.5839">
        <ele>960.8</ele>
        <time>2022-07-19T17:44:37Z</time>
      </trkpt>
      <trkpt lat="44.73616" lon="6.5839">
        <ele>960.8</ele>
        <time>2022-07-19T17:44:38Z</time>
      </trkpt>
      <trkpt lat="44.73621" lon="6.58389">
        <ele>961</ele>
        <time>2022-07-19T17:44:39Z</time>
      </trkpt>
      <trkpt lat="44.73626" lon="6.58388">
        <ele>961</ele>
        <time>2022-07-19T17:44:40Z</time>
      </trkpt>
      <trkpt lat="44.7363" lon="6.58388">
        <ele>961</ele>
        <time>2022-07-19T17:44:41Z</time>
      </trkpt>
      <trkpt lat="44.73635" lon="6.58388">
        <ele>961.4</ele>
        <time>2022-07-19T17:44:42Z</time>
      </trkpt>
      <trkpt lat="44.7364" lon="6.58387">
        <ele>961.4</ele>
        <time>2022-07-19T17:44:43Z</time>
      </trkpt>
      <trkpt lat="44.73645" lon="6.58386">
        <ele>961.4</ele>
        <time>2022-07-19T17:44:44Z</time>
      </trkpt>
      <trkpt lat="44.7365" lon="6.58386">
        <ele>961.4</ele>
        <time>2022-07-19T17:44:45Z</time>
      </trkpt>
      <trkpt lat="44.73654" lon="6.58385">
        <ele>961.6</ele>
        <time>2022-07-19T17:44:46Z</time>
      </trkpt>
      <trkpt lat="44.73659" lon="6.58384">
        <ele>961.6</ele>
        <time>2022-07-19T17:44:47Z</time>
      </trkpt>
      <trkpt lat="44.73664" lon="6.58384">
        <ele>961.6</ele>
        <time>2022-07-19T17:44:48Z</time>
      </trkpt>
      <trkpt lat="44.73669" lon="6.58383">
        <ele>961.6</ele>
        <time>2022-07-19T17:44:49Z</time>
      </trkpt>
      <trkpt lat="44.73673" lon="6.58383">
        <ele>961.6</ele>
        <time>2022-07-19T17:44:50Z</time>
      </trkpt>
      <trkpt lat="44.73678" lon="6.58382">
        <ele>961.8</ele>
        <time>2022-07-19T17:44:51Z</time>
      </trkpt>
      <trkpt lat="44.73683" lon="6.58382">
        <ele>961.8</ele>
        <time>2022-07-19T17:44:52Z</time>
      </trkpt>
      <trkpt lat="44.73688" lon="6.58381">
        <ele>961.8</ele>
        <time>2022-07-19T17:44:53Z</time>
      </trkpt>
      <trkpt lat="44.73692" lon="6.58381">
        <ele>962.2</ele>
        <time>2022-07-19T17:44:54Z</time>
      </trkpt>
      <trkpt lat="44.73697" lon="6.5838">
        <ele>962.2</ele>
        <time>2022-07-19T17:44:55Z</time>
      </trkpt>
      <trkpt lat="44.73701" lon="6.5838">
        <ele>962.2</ele>
        <time>2022-07-19T17:44:56Z</time>
      </trkpt>
      <trkpt lat="44.73706" lon="6.58379">
        <ele>962.4</ele>
        <time>2022-07-19T17:44:57Z</time>
      </trkpt>
      <trkpt lat="44.73711" lon="6.58379">
        <ele>962.4</ele>
        <time>2022-07-19T17:44:58Z</time>
      </trkpt>
      <trkpt lat="44.73715" lon="6.58378">
        <ele>962.4</ele>
        <time>2022-07-19T17:44:59Z</time>
      </trkpt>
      <trkpt lat="44.7372" lon="6.58378">
        <ele>962.6</ele>
        <time>2022-07-19T17:45:00Z</time>
      </trkpt>
      <trkpt lat="44.73725" lon="6.58377">
        <ele>962.6</ele>
        <time>2022-07-19T17:45:01Z</time>
      </trkpt>
      <trkpt lat="44.7373" lon="6.58377">
        <ele>962.6</ele>
        <time>2022-07-19T17:45:02Z</time>
      </trkpt>
      <trkpt lat="44.73735" lon="6.58376">
        <ele>962.8</ele>
        <time>2022-07-19T17:45:03Z</time>
      </trkpt>
      <trkpt lat="44.7374" lon="6.58376">
        <ele>962.8</ele>
        <time>2022-07-19T17:45:04Z</time>
      </trkpt>
      <trkpt lat="44.73744" lon="6.58375">
        <ele>962.8</ele>
        <time>2022-07-19T17:45:05Z</time>
      </trkpt>
      <trkpt lat="44.73749" lon="6.58375">
        <ele>963</ele>
        <time>2022-07-19T17:45:06Z</time>
      </trkpt>
      <trkpt lat="44.73754" lon="6.58374">
        <ele>963</ele>
        <time>2022-07-19T17:45:07Z</time>
      </trkpt>
      <trkpt lat="44.73759" lon="6.58373">
        <ele>963</ele>
        <time>2022-07-19T17:45:08Z</time>
      </trkpt>
      <trkpt lat="44.73763" lon="6.58373">
        <ele>963.4</ele>
        <time>2022-07-19T17:45:09Z</time>
      </trkpt>
      <trkpt lat="44.73768" lon="6.58372">
        <ele>963.4</ele>
        <time>2022-07-19T17:45:10Z</time>
      </trkpt>
      <trkpt lat="44.73773" lon="6.58372">
        <ele>963.4</ele>
        <time>2022-07-19T17:45:11Z</time>
      </trkpt>
      <trkpt lat="44.73778" lon="6.58371">
        <ele>963.4</ele>
        <time>2022-07-19T17:45:12Z</time>
      </trkpt>
      <trkpt lat="44.73783" lon="6.58371">
        <ele>963.4</ele>
        <time>2022-07-19T17:45:13Z</time>
      </trkpt>
      <trkpt lat="44.73787" lon="6.5837">
        <ele>963.4</ele>
        <time>2022-07-19T17:45:14Z</time>
      </trkpt>
      <trkpt lat="44.73792" lon="6.58369">
        <ele>963.4</ele>
        <time>2022-07-19T17:45:15Z</time>
      </trkpt>
      <trkpt lat="44.73797" lon="6.58369">
        <ele>963.6</ele>
        <time>2022-07-19T17:45:16Z</time>
      </trkpt>
      <trkpt lat="44.73802" lon="6.58368">
        <ele>963.6</ele>
        <time>2022-07-19T17:45:17Z</time>
      </trkpt>
      <trkpt lat="44.73807" lon="6.58368">
        <ele>963.6</ele>
        <time>2022-07-19T17:45:18Z</time>
      </trkpt>
      <trkpt lat="44.73812" lon="6.58367">
        <ele>963.6</ele>
        <time>2022-07-19T17:45:19Z</time>
      </trkpt>
      <trkpt lat="44.73817" lon="6.58366">
        <ele>963.6</ele>
        <time>2022-07-19T17:45:20Z</time>
      </trkpt>
      <trkpt lat="44.73822" lon="6.58365">
        <ele>963.8</ele>
        <time>2022-07-19T17:45:21Z</time>
      </trkpt>
      <trkpt lat="44.73827" lon="6.58365">
        <ele>963.8</ele>
        <time>2022-07-19T17:45:22Z</time>
      </trkpt>
      <trkpt lat="44.73832" lon="6.58364">
        <ele>963.8</ele>
        <time>2022-07-19T17:45:23Z</time>
      </trkpt>
      <trkpt lat="44.73837" lon="6.58364">
        <ele>963.8</ele>
        <time>2022-07-19T17:45:24Z</time>
      </trkpt>
      <trkpt lat="44.73842" lon="6.58364">
        <ele>963.8</ele>
        <time>2022-07-19T17:45:25Z</time>
      </trkpt>
      <trkpt lat="44.73847" lon="6.58363">
        <ele>963.8</ele>
        <time>2022-07-19T17:45:26Z</time>
      </trkpt>
      <trkpt lat="44.73852" lon="6.58363">
        <ele>963.8</ele>
        <time>2022-07-19T17:45:27Z</time>
      </trkpt>
      <trkpt lat="44.73857" lon="6.58362">
        <ele>963.8</ele>
        <time>2022-07-19T17:45:28Z</time>
      </trkpt>
      <trkpt lat="44.73862" lon="6.58361">
        <ele>963.8</ele>
        <time>2022-07-19T17:45:29Z</time>
      </trkpt>
      <trkpt lat="44.73867" lon="6.5836">
        <ele>963.8</ele>
        <time>2022-07-19T17:45:30Z</time>
      </trkpt>
      <trkpt lat="44.73873" lon="6.5836">
        <ele>963.8</ele>
        <time>2022-07-19T17:45:31Z</time>
      </trkpt>
      <trkpt lat="44.73878" lon="6.58359">
        <ele>963.8</ele>
        <time>2022-07-19T17:45:32Z</time>
      </trkpt>
      <trkpt lat="44.73883" lon="6.58358">
        <ele>963.8</ele>
        <time>2022-07-19T17:45:33Z</time>
      </trkpt>
      <trkpt lat="44.73888" lon="6.58358">
        <ele>963.8</ele>
        <time>2022-07-19T17:45:34Z</time>
      </trkpt>
      <trkpt lat="44.73893" lon="6.58357">
        <ele>963.8</ele>
        <time>2022-07-19T17:45:35Z</time>
      </trkpt>
      <trkpt lat="44.73898" lon="6.58357">
        <ele>963.8</ele>
        <time>2022-07-19T17:45:36Z</time>
      </trkpt>
      <trkpt lat="44.73904" lon="6.58356">
        <ele>963.8</ele>
        <time>2022-07-19T17:45:37Z</time>
      </trkpt>
      <trkpt lat="44.73909" lon="6.58356">
        <ele>963.8</ele>
        <time>2022-07-19T17:45:38Z</time>
      </trkpt>
      <trkpt lat="44.73914" lon="6.58355">
        <ele>963.8</ele>
        <time>2022-07-19T17:45:39Z</time>
      </trkpt>
      <trkpt lat="44.7392" lon="6.58354">
        <ele>963.8</ele>
        <time>2022-07-19T17:45:40Z</time>
      </trkpt>
      <trkpt lat="44.73925" lon="6.58354">
        <ele>963.8</ele>
        <time>2022-07-19T17:45:41Z</time>
      </trkpt>
      <trkpt lat="44.7393" lon="6.58353">
        <ele>963.8</ele>
        <time>2022-07-19T17:45:42Z</time>
      </trkpt>
      <trkpt lat="44.73935" lon="6.58352">
        <ele>963.8</ele>
        <time>2022-07-19T17:45:43Z</time>
      </trkpt>
      <trkpt lat="44.73941" lon="6.58351">
        <ele>963.8</ele>
        <time>2022-07-19T17:45:44Z</time>
      </trkpt>
      <trkpt lat="44.73946" lon="6.5835">
        <ele>964</ele>
        <time>2022-07-19T17:45:45Z</time>
      </trkpt>
      <trkpt lat="44.73951" lon="6.58349">
        <ele>964</ele>
        <time>2022-07-19T17:45:46Z</time>
      </trkpt>
      <trkpt lat="44.73956" lon="6.58348">
        <ele>964</ele>
        <time>2022-07-19T17:45:47Z</time>
      </trkpt>
      <trkpt lat="44.73961" lon="6.58347">
        <ele>964</ele>
        <time>2022-07-19T17:45:48Z</time>
      </trkpt>
      <trkpt lat="44.73966" lon="6.58346">
        <ele>964.2</ele>
        <time>2022-07-19T17:45:49Z</time>
      </trkpt>
      <trkpt lat="44.73971" lon="6.58345">
        <ele>964.2</ele>
        <time>2022-07-19T17:45:50Z</time>
      </trkpt>
      <trkpt lat="44.73976" lon="6.58344">
        <ele>964.4</ele>
        <time>2022-07-19T17:45:51Z</time>
      </trkpt>
      <trkpt lat="44.73981" lon="6.58343">
        <ele>964.4</ele>
        <time>2022-07-19T17:45:52Z</time>
      </trkpt>
      <trkpt lat="44.73985" lon="6.58342">
        <ele>964.4</ele>
        <time>2022-07-19T17:45:53Z</time>
      </trkpt>
      <trkpt lat="44.7399" lon="6.58341">
        <ele>965.2</ele>
        <time>2022-07-19T17:45:54Z</time>
      </trkpt>
      <trkpt lat="44.73994" lon="6.5834">
        <ele>965.2</ele>
        <time>2022-07-19T17:45:55Z</time>
      </trkpt>
      <trkpt lat="44.73998" lon="6.58339">
        <ele>965.2</ele>
        <time>2022-07-19T17:45:56Z</time>
      </trkpt>
      <trkpt lat="44.74002" lon="6.58338">
        <ele>965.2</ele>
        <time>2022-07-19T17:45:57Z</time>
      </trkpt>
      <trkpt lat="44.74007" lon="6.58337">
        <ele>965.2</ele>
        <time>2022-07-19T17:45:58Z</time>
      </trkpt>
      <trkpt lat="44.74011" lon="6.58335">
        <ele>965.2</ele>
        <time>2022-07-19T17:45:59Z</time>
      </trkpt>
      <trkpt lat="44.74015" lon="6.58334">
        <ele>965.4</ele>
        <time>2022-07-19T17:46:00Z</time>
      </trkpt>
      <trkpt lat="44.74019" lon="6.58333">
        <ele>965.4</ele>
        <time>2022-07-19T17:46:01Z</time>
      </trkpt>
      <trkpt lat="44.74024" lon="6.58332">
        <ele>965.8</ele>
        <time>2022-07-19T17:46:02Z</time>
      </trkpt>
      <trkpt lat="44.74028" lon="6.5833">
        <ele>966</ele>
        <time>2022-07-19T17:46:03Z</time>
      </trkpt>
      <trkpt lat="44.74032" lon="6.58329">
        <ele>966</ele>
        <time>2022-07-19T17:46:04Z</time>
      </trkpt>
      <trkpt lat="44.74036" lon="6.58328">
        <ele>966.4</ele>
        <time>2022-07-19T17:46:05Z</time>
      </trkpt>
      <trkpt lat="44.7404" lon="6.58326">
        <ele>966.8</ele>
        <time>2022-07-19T17:46:06Z</time>
      </trkpt>
      <trkpt lat="44.74044" lon="6.58325">
        <ele>967</ele>
        <time>2022-07-19T17:46:07Z</time>
      </trkpt>
      <trkpt lat="44.74047" lon="6.58323">
        <ele>967</ele>
        <time>2022-07-19T17:46:08Z</time>
      </trkpt>
      <trkpt lat="44.74051" lon="6.58322">
        <ele>967.2</ele>
        <time>2022-07-19T17:46:09Z</time>
      </trkpt>
      <trkpt lat="44.74055" lon="6.5832">
        <ele>967.6</ele>
        <time>2022-07-19T17:46:10Z</time>
      </trkpt>
      <trkpt lat="44.74059" lon="6.58318">
        <ele>967.8</ele>
        <time>2022-07-19T17:46:11Z</time>
      </trkpt>
      <trkpt lat="44.74062" lon="6.58316">
        <ele>968.2</ele>
        <time>2022-07-19T17:46:12Z</time>
      </trkpt>
      <trkpt lat="44.74066" lon="6.58315">
        <ele>968.6</ele>
        <time>2022-07-19T17:46:13Z</time>
      </trkpt>
      <trkpt lat="44.74069" lon="6.58314">
        <ele>969</ele>
        <time>2022-07-19T17:46:14Z</time>
      </trkpt>
      <trkpt lat="44.74072" lon="6.58312">
        <ele>969.2</ele>
        <time>2022-07-19T17:46:15Z</time>
      </trkpt>
      <trkpt lat="44.74075" lon="6.58311">
        <ele>969.6</ele>
        <time>2022-07-19T17:46:16Z</time>
      </trkpt>
      <trkpt lat="44.74079" lon="6.5831">
        <ele>970</ele>
        <time>2022-07-19T17:46:17Z</time>
      </trkpt>
      <trkpt lat="44.74082" lon="6.58309">
        <ele>970.2</ele>
        <time>2022-07-19T17:46:18Z</time>
      </trkpt>
      <trkpt lat="44.74084" lon="6.58308">
        <ele>970.4</ele>
        <time>2022-07-19T17:46:19Z</time>
      </trkpt>
      <trkpt lat="44.74087" lon="6.58307">
        <ele>970.6</ele>
        <time>2022-07-19T17:46:20Z</time>
      </trkpt>
      <trkpt lat="44.7409" lon="6.58306">
        <ele>970.8</ele>
        <time>2022-07-19T17:46:21Z</time>
      </trkpt>
      <trkpt lat="44.74093" lon="6.58305">
        <ele>970.8</ele>
        <time>2022-07-19T17:46:22Z</time>
      </trkpt>
      <trkpt lat="44.74096" lon="6.58305">
        <ele>971.2</ele>
        <time>2022-07-19T17:46:23Z</time>
      </trkpt>
      <trkpt lat="44.74099" lon="6.58304">
        <ele>971.2</ele>
        <time>2022-07-19T17:46:24Z</time>
      </trkpt>
      <trkpt lat="44.74101" lon="6.58303">
        <ele>971.6</ele>
        <time>2022-07-19T17:46:25Z</time>
      </trkpt>
      <trkpt lat="44.74104" lon="6.58302">
        <ele>971.6</ele>
        <time>2022-07-19T17:46:26Z</time>
      </trkpt>
      <trkpt lat="44.74107" lon="6.58302">
        <ele>971.8</ele>
        <time>2022-07-19T17:46:27Z</time>
      </trkpt>
      <trkpt lat="44.7411" lon="6.58301">
        <ele>971.8</ele>
        <time>2022-07-19T17:46:28Z</time>
      </trkpt>
      <trkpt lat="44.74113" lon="6.583">
        <ele>972.2</ele>
        <time>2022-07-19T17:46:29Z</time>
      </trkpt>
      <trkpt lat="44.74115" lon="6.58299">
        <ele>972.2</ele>
        <time>2022-07-19T17:46:30Z</time>
      </trkpt>
      <trkpt lat="44.74118" lon="6.58298">
        <ele>972.2</ele>
        <time>2022-07-19T17:46:31Z</time>
      </trkpt>
      <trkpt lat="44.74121" lon="6.58298">
        <ele>972.4</ele>
        <time>2022-07-19T17:46:32Z</time>
      </trkpt>
      <trkpt lat="44.74124" lon="6.58297">
        <ele>972.4</ele>
        <time>2022-07-19T17:46:33Z</time>
      </trkpt>
      <trkpt lat="44.74127" lon="6.58295">
        <ele>972.4</ele>
        <time>2022-07-19T17:46:34Z</time>
      </trkpt>
      <trkpt lat="44.74129" lon="6.58294">
        <ele>972.8</ele>
        <time>2022-07-19T17:46:35Z</time>
      </trkpt>
      <trkpt lat="44.74132" lon="6.58294">
        <ele>972.8</ele>
        <time>2022-07-19T17:46:36Z</time>
      </trkpt>
      <trkpt lat="44.74134" lon="6.58293">
        <ele>973</ele>
        <time>2022-07-19T17:46:37Z</time>
      </trkpt>
      <trkpt lat="44.74138" lon="6.58292">
        <ele>973.2</ele>
        <time>2022-07-19T17:46:38Z</time>
      </trkpt>
      <trkpt lat="44.7414" lon="6.5829">
        <ele>973.2</ele>
        <time>2022-07-19T17:46:39Z</time>
      </trkpt>
      <trkpt lat="44.74143" lon="6.58289">
        <ele>973.2</ele>
        <time>2022-07-19T17:46:40Z</time>
      </trkpt>
      <trkpt lat="44.74145" lon="6.58288">
        <ele>973.2</ele>
        <time>2022-07-19T17:46:41Z</time>
      </trkpt>
      <trkpt lat="44.74148" lon="6.58287">
        <ele>973.6</ele>
        <time>2022-07-19T17:46:42Z</time>
      </trkpt>
      <trkpt lat="44.74151" lon="6.58286">
        <ele>973.6</ele>
        <time>2022-07-19T17:46:43Z</time>
      </trkpt>
      <trkpt lat="44.74153" lon="6.58285">
        <ele>973.8</ele>
        <time>2022-07-19T17:46:44Z</time>
      </trkpt>
      <trkpt lat="44.74156" lon="6.58285">
        <ele>973.8</ele>
        <time>2022-07-19T17:46:45Z</time>
      </trkpt>
      <trkpt lat="44.74159" lon="6.58284">
        <ele>974</ele>
        <time>2022-07-19T17:46:46Z</time>
      </trkpt>
      <trkpt lat="44.74161" lon="6.58284">
        <ele>974</ele>
        <time>2022-07-19T17:46:47Z</time>
      </trkpt>
      <trkpt lat="44.74164" lon="6.58283">
        <ele>974.2</ele>
        <time>2022-07-19T17:46:48Z</time>
      </trkpt>
      <trkpt lat="44.74167" lon="6.58283">
        <ele>974.6</ele>
        <time>2022-07-19T17:46:49Z</time>
      </trkpt>
      <trkpt lat="44.7417" lon="6.58282">
        <ele>974.6</ele>
        <time>2022-07-19T17:46:50Z</time>
      </trkpt>
      <trkpt lat="44.74173" lon="6.58282">
        <ele>974.8</ele>
        <time>2022-07-19T17:46:51Z</time>
      </trkpt>
      <trkpt lat="44.74175" lon="6.58281">
        <ele>974.8</ele>
        <time>2022-07-19T17:46:52Z</time>
      </trkpt>
      <trkpt lat="44.74178" lon="6.58281">
        <ele>975.2</ele>
        <time>2022-07-19T17:46:53Z</time>
      </trkpt>
      <trkpt lat="44.74181" lon="6.58281">
        <ele>975.2</ele>
        <time>2022-07-19T17:46:54Z</time>
      </trkpt>
      <trkpt lat="44.74184" lon="6.5828">
        <ele>975.6</ele>
        <time>2022-07-19T17:46:55Z</time>
      </trkpt>
      <trkpt lat="44.74187" lon="6.5828">
        <ele>975.6</ele>
        <time>2022-07-19T17:46:56Z</time>
      </trkpt>
      <trkpt lat="44.74189" lon="6.58279">
        <ele>975.8</ele>
        <time>2022-07-19T17:46:57Z</time>
      </trkpt>
      <trkpt lat="44.74192" lon="6.58278">
        <ele>976.2</ele>
        <time>2022-07-19T17:46:58Z</time>
      </trkpt>
      <trkpt lat="44.74195" lon="6.58278">
        <ele>976.2</ele>
        <time>2022-07-19T17:46:59Z</time>
      </trkpt>
      <trkpt lat="44.74197" lon="6.58277">
        <ele>976.6</ele>
        <time>2022-07-19T17:47:00Z</time>
      </trkpt>
      <trkpt lat="44.742" lon="6.58276">
        <ele>976.6</ele>
        <time>2022-07-19T17:47:01Z</time>
      </trkpt>
      <trkpt lat="44.74202" lon="6.58276">
        <ele>976.6</ele>
        <time>2022-07-19T17:47:02Z</time>
      </trkpt>
      <trkpt lat="44.74205" lon="6.58275">
        <ele>976.6</ele>
        <time>2022-07-19T17:47:03Z</time>
      </trkpt>
      <trkpt lat="44.74208" lon="6.58274">
        <ele>976.8</ele>
        <time>2022-07-19T17:47:04Z</time>
      </trkpt>
      <trkpt lat="44.7421" lon="6.58273">
        <ele>976.8</ele>
        <time>2022-07-19T17:47:05Z</time>
      </trkpt>
      <trkpt lat="44.74213" lon="6.58272">
        <ele>977</ele>
        <time>2022-07-19T17:47:06Z</time>
      </trkpt>
      <trkpt lat="44.74215" lon="6.58271">
        <ele>977</ele>
        <time>2022-07-19T17:47:07Z</time>
      </trkpt>
      <trkpt lat="44.74218" lon="6.5827">
        <ele>977</ele>
        <time>2022-07-19T17:47:08Z</time>
      </trkpt>
      <trkpt lat="44.7422" lon="6.58269">
        <ele>977.6</ele>
        <time>2022-07-19T17:47:09Z</time>
      </trkpt>
      <trkpt lat="44.74223" lon="6.58268">
        <ele>977.6</ele>
        <time>2022-07-19T17:47:10Z</time>
      </trkpt>
      <trkpt lat="44.74225" lon="6.58267">
        <ele>977.8</ele>
        <time>2022-07-19T17:47:11Z</time>
      </trkpt>
      <trkpt lat="44.74227" lon="6.58266">
        <ele>977.8</ele>
        <time>2022-07-19T17:47:12Z</time>
      </trkpt>
      <trkpt lat="44.7423" lon="6.58265">
        <ele>978.2</ele>
        <time>2022-07-19T17:47:13Z</time>
      </trkpt>
      <trkpt lat="44.74233" lon="6.58264">
        <ele>978.2</ele>
        <time>2022-07-19T17:47:14Z</time>
      </trkpt>
      <trkpt lat="44.74236" lon="6.58263">
        <ele>978.4</ele>
        <time>2022-07-19T17:47:15Z</time>
      </trkpt>
      <trkpt lat="44.74238" lon="6.58262">
        <ele>978.8</ele>
        <time>2022-07-19T17:47:16Z</time>
      </trkpt>
      <trkpt lat="44.74241" lon="6.58262">
        <ele>978.8</ele>
        <time>2022-07-19T17:47:17Z</time>
      </trkpt>
      <trkpt lat="44.74244" lon="6.58261">
        <ele>978.8</ele>
        <time>2022-07-19T17:47:18Z</time>
      </trkpt>
      <trkpt lat="44.74247" lon="6.5826">
        <ele>979</ele>
        <time>2022-07-19T17:47:19Z</time>
      </trkpt>
      <trkpt lat="44.7425" lon="6.58259">
        <ele>979</ele>
        <time>2022-07-19T17:47:20Z</time>
      </trkpt>
      <trkpt lat="44.74252" lon="6.58259">
        <ele>979</ele>
        <time>2022-07-19T17:47:21Z</time>
      </trkpt>
      <trkpt lat="44.74255" lon="6.58258">
        <ele>979</ele>
        <time>2022-07-19T17:47:22Z</time>
      </trkpt>
      <trkpt lat="44.74258" lon="6.58257">
        <ele>979</ele>
        <time>2022-07-19T17:47:23Z</time>
      </trkpt>
      <trkpt lat="44.74261" lon="6.58256">
        <ele>979.2</ele>
        <time>2022-07-19T17:47:24Z</time>
      </trkpt>
      <trkpt lat="44.74264" lon="6.58256">
        <ele>979.2</ele>
        <time>2022-07-19T17:47:25Z</time>
      </trkpt>
      <trkpt lat="44.74267" lon="6.58255">
        <ele>979.2</ele>
        <time>2022-07-19T17:47:26Z</time>
      </trkpt>
      <trkpt lat="44.7427" lon="6.58255">
        <ele>979.2</ele>
        <time>2022-07-19T17:47:27Z</time>
      </trkpt>
      <trkpt lat="44.74272" lon="6.58254">
        <ele>979.2</ele>
        <time>2022-07-19T17:47:28Z</time>
      </trkpt>
      <trkpt lat="44.74275" lon="6.58253">
        <ele>979.4</ele>
        <time>2022-07-19T17:47:29Z</time>
      </trkpt>
      <trkpt lat="44.74279" lon="6.58253">
        <ele>979.4</ele>
        <time>2022-07-19T17:47:30Z</time>
      </trkpt>
      <trkpt lat="44.74282" lon="6.58252">
        <ele>979.4</ele>
        <time>2022-07-19T17:47:31Z</time>
      </trkpt>
      <trkpt lat="44.74285" lon="6.58252">
        <ele>979.4</ele>
        <time>2022-07-19T17:47:32Z</time>
      </trkpt>
      <trkpt lat="44.74288" lon="6.58252">
        <ele>979.8</ele>
        <time>2022-07-19T17:47:33Z</time>
      </trkpt>
      <trkpt lat="44.74292" lon="6.58251">
        <ele>979.8</ele>
        <time>2022-07-19T17:47:34Z</time>
      </trkpt>
      <trkpt lat="44.74295" lon="6.58251">
        <ele>979.8</ele>
        <time>2022-07-19T17:47:35Z</time>
      </trkpt>
      <trkpt lat="44.74299" lon="6.5825">
        <ele>979.8</ele>
        <time>2022-07-19T17:47:36Z</time>
      </trkpt>
      <trkpt lat="44.74302" lon="6.5825">
        <ele>980</ele>
        <time>2022-07-19T17:47:37Z</time>
      </trkpt>
      <trkpt lat="44.74306" lon="6.58249">
        <ele>980</ele>
        <time>2022-07-19T17:47:38Z</time>
      </trkpt>
      <trkpt lat="44.7431" lon="6.58249">
        <ele>980</ele>
        <time>2022-07-19T17:47:39Z</time>
      </trkpt>
      <trkpt lat="44.74314" lon="6.58248">
        <ele>980</ele>
        <time>2022-07-19T17:47:40Z</time>
      </trkpt>
      <trkpt lat="44.74318" lon="6.58247">
        <ele>980</ele>
        <time>2022-07-19T17:47:41Z</time>
      </trkpt>
      <trkpt lat="44.74322" lon="6.58247">
        <ele>980</ele>
        <time>2022-07-19T17:47:42Z</time>
      </trkpt>
      <trkpt lat="44.74326" lon="6.58246">
        <ele>980</ele>
        <time>2022-07-19T17:47:43Z</time>
      </trkpt>
      <trkpt lat="44.7433" lon="6.58246">
        <ele>980</ele>
        <time>2022-07-19T17:47:44Z</time>
      </trkpt>
      <trkpt lat="44.74334" lon="6.58245">
        <ele>980</ele>
        <time>2022-07-19T17:47:45Z</time>
      </trkpt>
      <trkpt lat="44.74338" lon="6.58244">
        <ele>980</ele>
        <time>2022-07-19T17:47:46Z</time>
      </trkpt>
      <trkpt lat="44.74343" lon="6.58243">
        <ele>980</ele>
        <time>2022-07-19T17:47:47Z</time>
      </trkpt>
      <trkpt lat="44.74347" lon="6.58242">
        <ele>980</ele>
        <time>2022-07-19T17:47:48Z</time>
      </trkpt>
      <trkpt lat="44.74351" lon="6.58242">
        <ele>980</ele>
        <time>2022-07-19T17:47:49Z</time>
      </trkpt>
      <trkpt lat="44.74356" lon="6.58241">
        <ele>980</ele>
        <time>2022-07-19T17:47:50Z</time>
      </trkpt>
      <trkpt lat="44.7436" lon="6.58241">
        <ele>979.8</ele>
        <time>2022-07-19T17:47:51Z</time>
      </trkpt>
      <trkpt lat="44.74365" lon="6.5824">
        <ele>979.8</ele>
        <time>2022-07-19T17:47:52Z</time>
      </trkpt>
      <trkpt lat="44.74369" lon="6.58238">
        <ele>979.4</ele>
        <time>2022-07-19T17:47:53Z</time>
      </trkpt>
      <trkpt lat="44.74374" lon="6.58237">
        <ele>979.4</ele>
        <time>2022-07-19T17:47:54Z</time>
      </trkpt>
      <trkpt lat="44.74379" lon="6.58236">
        <ele>979.4</ele>
        <time>2022-07-19T17:47:55Z</time>
      </trkpt>
      <trkpt lat="44.74384" lon="6.58235">
        <ele>979.4</ele>
        <time>2022-07-19T17:47:56Z</time>
      </trkpt>
      <trkpt lat="44.74389" lon="6.58235">
        <ele>979.4</ele>
        <time>2022-07-19T17:47:57Z</time>
      </trkpt>
      <trkpt lat="44.74394" lon="6.58234">
        <ele>979.4</ele>
        <time>2022-07-19T17:47:58Z</time>
      </trkpt>
      <trkpt lat="44.74399" lon="6.58233">
        <ele>979.4</ele>
        <time>2022-07-19T17:47:59Z</time>
      </trkpt>
      <trkpt lat="44.74404" lon="6.58232">
        <ele>979.4</ele>
        <time>2022-07-19T17:48:00Z</time>
      </trkpt>
      <trkpt lat="44.74409" lon="6.58231">
        <ele>979.4</ele>
        <time>2022-07-19T17:48:01Z</time>
      </trkpt>
      <trkpt lat="44.74414" lon="6.5823">
        <ele>979.4</ele>
        <time>2022-07-19T17:48:02Z</time>
      </trkpt>
      <trkpt lat="44.74419" lon="6.58229">
        <ele>979.6</ele>
        <time>2022-07-19T17:48:04Z</time>
      </trkpt>
      <trkpt lat="44.74424" lon="6.58227">
        <ele>980</ele>
        <time>2022-07-19T17:48:05Z</time>
      </trkpt>
      <trkpt lat="44.74429" lon="6.58225">
        <ele>980</ele>
        <time>2022-07-19T17:48:06Z</time>
      </trkpt>
      <trkpt lat="44.74433" lon="6.58223">
        <ele>980</ele>
        <time>2022-07-19T17:48:07Z</time>
      </trkpt>
      <trkpt lat="44.74438" lon="6.5822">
        <ele>980</ele>
        <time>2022-07-19T17:48:08Z</time>
      </trkpt>
      <trkpt lat="44.74443" lon="6.58217">
        <ele>980</ele>
        <time>2022-07-19T17:48:09Z</time>
      </trkpt>
      <trkpt lat="44.74448" lon="6.58214">
        <ele>980</ele>
        <time>2022-07-19T17:48:10Z</time>
      </trkpt>
      <trkpt lat="44.74452" lon="6.58211">
        <ele>980</ele>
        <time>2022-07-19T17:48:11Z</time>
      </trkpt>
      <trkpt lat="44.74457" lon="6.58207">
        <ele>980</ele>
        <time>2022-07-19T17:48:12Z</time>
      </trkpt>
      <trkpt lat="44.74462" lon="6.58203">
        <ele>980</ele>
        <time>2022-07-19T17:48:13Z</time>
      </trkpt>
      <trkpt lat="44.74466" lon="6.582">
        <ele>980</ele>
        <time>2022-07-19T17:48:14Z</time>
      </trkpt>
      <trkpt lat="44.74471" lon="6.58196">
        <ele>980</ele>
        <time>2022-07-19T17:48:15Z</time>
      </trkpt>
      <trkpt lat="44.74477" lon="6.58192">
        <ele>979.6</ele>
        <time>2022-07-19T17:48:16Z</time>
      </trkpt>
      <trkpt lat="44.74482" lon="6.58188">
        <ele>979.6</ele>
        <time>2022-07-19T17:48:17Z</time>
      </trkpt>
      <trkpt lat="44.74487" lon="6.58184">
        <ele>979.6</ele>
        <time>2022-07-19T17:48:18Z</time>
      </trkpt>
      <trkpt lat="44.74492" lon="6.5818">
        <ele>979.4</ele>
        <time>2022-07-19T17:48:19Z</time>
      </trkpt>
      <trkpt lat="44.74498" lon="6.58176">
        <ele>979.4</ele>
        <time>2022-07-19T17:48:20Z</time>
      </trkpt>
      <trkpt lat="44.74503" lon="6.58172">
        <ele>979.4</ele>
        <time>2022-07-19T17:48:21Z</time>
      </trkpt>
      <trkpt lat="44.74508" lon="6.58168">
        <ele>979.4</ele>
        <time>2022-07-19T17:48:22Z</time>
      </trkpt>
      <trkpt lat="44.74514" lon="6.58164">
        <ele>979.4</ele>
        <time>2022-07-19T17:48:23Z</time>
      </trkpt>
      <trkpt lat="44.74519" lon="6.58161">
        <ele>979.2</ele>
        <time>2022-07-19T17:48:24Z</time>
      </trkpt>
      <trkpt lat="44.74524" lon="6.58157">
        <ele>979.2</ele>
        <time>2022-07-19T17:48:25Z</time>
      </trkpt>
      <trkpt lat="44.7453" lon="6.58154">
        <ele>979.2</ele>
        <time>2022-07-19T17:48:26Z</time>
      </trkpt>
      <trkpt lat="44.74535" lon="6.5815">
        <ele>979.2</ele>
        <time>2022-07-19T17:48:27Z</time>
      </trkpt>
      <trkpt lat="44.74541" lon="6.58146">
        <ele>979.2</ele>
        <time>2022-07-19T17:48:28Z</time>
      </trkpt>
      <trkpt lat="44.74546" lon="6.58143">
        <ele>979.2</ele>
        <time>2022-07-19T17:48:29Z</time>
      </trkpt>
      <trkpt lat="44.74552" lon="6.5814">
        <ele>979.2</ele>
        <time>2022-07-19T17:48:30Z</time>
      </trkpt>
      <trkpt lat="44.74558" lon="6.58137">
        <ele>979.2</ele>
        <time>2022-07-19T17:48:31Z</time>
      </trkpt>
      <trkpt lat="44.74563" lon="6.58134">
        <ele>979.2</ele>
        <time>2022-07-19T17:48:32Z</time>
      </trkpt>
      <trkpt lat="44.74568" lon="6.5813">
        <ele>979.2</ele>
        <time>2022-07-19T17:48:33Z</time>
      </trkpt>
      <trkpt lat="44.74573" lon="6.58127">
        <ele>979.2</ele>
        <time>2022-07-19T17:48:34Z</time>
      </trkpt>
      <trkpt lat="44.74578" lon="6.58123">
        <ele>979.2</ele>
        <time>2022-07-19T17:48:35Z</time>
      </trkpt>
      <trkpt lat="44.74583" lon="6.58119">
        <ele>979.2</ele>
        <time>2022-07-19T17:48:36Z</time>
      </trkpt>
      <trkpt lat="44.74588" lon="6.58115">
        <ele>979.2</ele>
        <time>2022-07-19T17:48:37Z</time>
      </trkpt>
      <trkpt lat="44.74592" lon="6.5811">
        <ele>979.2</ele>
        <time>2022-07-19T17:48:38Z</time>
      </trkpt>
      <trkpt lat="44.74597" lon="6.58105">
        <ele>979</ele>
        <time>2022-07-19T17:48:39Z</time>
      </trkpt>
      <trkpt lat="44.74602" lon="6.58101">
        <ele>978.6</ele>
        <time>2022-07-19T17:48:40Z</time>
      </trkpt>
      <trkpt lat="44.74607" lon="6.58096">
        <ele>978.4</ele>
        <time>2022-07-19T17:48:41Z</time>
      </trkpt>
      <trkpt lat="44.74613" lon="6.58091">
        <ele>978</ele>
        <time>2022-07-19T17:48:42Z</time>
      </trkpt>
      <trkpt lat="44.74619" lon="6.58086">
        <ele>977.6</ele>
        <time>2022-07-19T17:48:43Z</time>
      </trkpt>
      <trkpt lat="44.74625" lon="6.58082">
        <ele>977.2</ele>
        <time>2022-07-19T17:48:44Z</time>
      </trkpt>
      <trkpt lat="44.74631" lon="6.58078">
        <ele>976.8</ele>
        <time>2022-07-19T17:48:45Z</time>
      </trkpt>
      <trkpt lat="44.74645" lon="6.58069">
        <ele>976.4</ele>
        <time>2022-07-19T17:48:46Z</time>
      </trkpt>
      <trkpt lat="44.74652" lon="6.58066">
        <ele>976</ele>
        <time>2022-07-19T17:48:47Z</time>
      </trkpt>
      <trkpt lat="44.74659" lon="6.58062">
        <ele>975.8</ele>
        <time>2022-07-19T17:48:48Z</time>
      </trkpt>
      <trkpt lat="44.74666" lon="6.58059">
        <ele>975.4</ele>
        <time>2022-07-19T17:48:49Z</time>
      </trkpt>
      <trkpt lat="44.74672" lon="6.58055">
        <ele>975.2</ele>
        <time>2022-07-19T17:48:50Z</time>
      </trkpt>
      <trkpt lat="44.74679" lon="6.58052">
        <ele>975.2</ele>
        <time>2022-07-19T17:48:51Z</time>
      </trkpt>
      <trkpt lat="44.74685" lon="6.58049">
        <ele>975</ele>
        <time>2022-07-19T17:48:52Z</time>
      </trkpt>
      <trkpt lat="44.74691" lon="6.58046">
        <ele>974.6</ele>
        <time>2022-07-19T17:48:53Z</time>
      </trkpt>
      <trkpt lat="44.74696" lon="6.58043">
        <ele>974.2</ele>
        <time>2022-07-19T17:48:54Z</time>
      </trkpt>
      <trkpt lat="44.74702" lon="6.58041">
        <ele>974.6</ele>
        <time>2022-07-19T17:48:55Z</time>
      </trkpt>
      <trkpt lat="44.74707" lon="6.58038">
        <ele>974.6</ele>
        <time>2022-07-19T17:48:56Z</time>
      </trkpt>
      <trkpt lat="44.74712" lon="6.58036">
        <ele>974.6</ele>
        <time>2022-07-19T17:48:57Z</time>
      </trkpt>
      <trkpt lat="44.74717" lon="6.58033">
        <ele>974.6</ele>
        <time>2022-07-19T17:48:58Z</time>
      </trkpt>
      <trkpt lat="44.74721" lon="6.5803">
        <ele>974.6</ele>
        <time>2022-07-19T17:48:59Z</time>
      </trkpt>
      <trkpt lat="44.74726" lon="6.58028">
        <ele>974.6</ele>
        <time>2022-07-19T17:49:00Z</time>
      </trkpt>
      <trkpt lat="44.74731" lon="6.58026">
        <ele>974.2</ele>
        <time>2022-07-19T17:49:01Z</time>
      </trkpt>
      <trkpt lat="44.74736" lon="6.58023">
        <ele>974.2</ele>
        <time>2022-07-19T17:49:02Z</time>
      </trkpt>
      <trkpt lat="44.74741" lon="6.5802">
        <ele>974.2</ele>
        <time>2022-07-19T17:49:03Z</time>
      </trkpt>
      <trkpt lat="44.74745" lon="6.58017">
        <ele>974.6</ele>
        <time>2022-07-19T17:49:04Z</time>
      </trkpt>
      <trkpt lat="44.7475" lon="6.58013">
        <ele>974.6</ele>
        <time>2022-07-19T17:49:05Z</time>
      </trkpt>
      <trkpt lat="44.74755" lon="6.5801">
        <ele>974.4</ele>
        <time>2022-07-19T17:49:06Z</time>
      </trkpt>
      <trkpt lat="44.7476" lon="6.58005">
        <ele>974.4</ele>
        <time>2022-07-19T17:49:07Z</time>
      </trkpt>
      <trkpt lat="44.74766" lon="6.58">
        <ele>973.8</ele>
        <time>2022-07-19T17:49:08Z</time>
      </trkpt>
      <trkpt lat="44.74772" lon="6.57995">
        <ele>973.6</ele>
        <time>2022-07-19T17:49:09Z</time>
      </trkpt>
      <trkpt lat="44.74778" lon="6.5799">
        <ele>973.4</ele>
        <time>2022-07-19T17:49:10Z</time>
      </trkpt>
      <trkpt lat="44.74784" lon="6.57984">
        <ele>973</ele>
        <time>2022-07-19T17:49:11Z</time>
      </trkpt>
      <trkpt lat="44.74791" lon="6.57978">
        <ele>972.6</ele>
        <time>2022-07-19T17:49:12Z</time>
      </trkpt>
      <trkpt lat="44.74797" lon="6.57973">
        <ele>972.4</ele>
        <time>2022-07-19T17:49:13Z</time>
      </trkpt>
      <trkpt lat="44.74804" lon="6.57968">
        <ele>972.4</ele>
        <time>2022-07-19T17:49:14Z</time>
      </trkpt>
      <trkpt lat="44.7481" lon="6.57964">
        <ele>972.2</ele>
        <time>2022-07-19T17:49:15Z</time>
      </trkpt>
      <trkpt lat="44.74816" lon="6.57961">
        <ele>972.2</ele>
        <time>2022-07-19T17:49:16Z</time>
      </trkpt>
      <trkpt lat="44.7482" lon="6.5796">
        <ele>972.2</ele>
        <time>2022-07-19T17:49:17Z</time>
      </trkpt>
      <trkpt lat="44.74824" lon="6.57959">
        <ele>972.2</ele>
        <time>2022-07-19T17:49:18Z</time>
      </trkpt>
      <trkpt lat="44.74827" lon="6.57959">
        <ele>972.2</ele>
        <time>2022-07-19T17:49:19Z</time>
      </trkpt>
      <trkpt lat="44.74831" lon="6.57958">
        <ele>972.2</ele>
        <time>2022-07-19T17:49:20Z</time>
      </trkpt>
      <trkpt lat="44.74834" lon="6.57957">
        <ele>972.4</ele>
        <time>2022-07-19T17:49:21Z</time>
      </trkpt>
      <trkpt lat="44.74838" lon="6.57956">
        <ele>972.4</ele>
        <time>2022-07-19T17:49:22Z</time>
      </trkpt>
      <trkpt lat="44.74841" lon="6.57955">
        <ele>972.6</ele>
        <time>2022-07-19T17:49:23Z</time>
      </trkpt>
      <trkpt lat="44.74844" lon="6.57954">
        <ele>972.6</ele>
        <time>2022-07-19T17:49:24Z</time>
      </trkpt>
      <trkpt lat="44.74847" lon="6.57953">
        <ele>972.8</ele>
        <time>2022-07-19T17:49:25Z</time>
      </trkpt>
      <trkpt lat="44.7485" lon="6.57952">
        <ele>972.8</ele>
        <time>2022-07-19T17:49:26Z</time>
      </trkpt>
      <trkpt lat="44.74853" lon="6.57949">
        <ele>972.8</ele>
        <time>2022-07-19T17:49:27Z</time>
      </trkpt>
      <trkpt lat="44.74856" lon="6.57947">
        <ele>973.2</ele>
        <time>2022-07-19T17:49:28Z</time>
      </trkpt>
      <trkpt lat="44.74859" lon="6.57945">
        <ele>973.2</ele>
        <time>2022-07-19T17:49:29Z</time>
      </trkpt>
      <trkpt lat="44.74862" lon="6.57943">
        <ele>973.4</ele>
        <time>2022-07-19T17:49:30Z</time>
      </trkpt>
      <trkpt lat="44.74866" lon="6.57941">
        <ele>973.4</ele>
        <time>2022-07-19T17:49:31Z</time>
      </trkpt>
      <trkpt lat="44.74869" lon="6.57939">
        <ele>974</ele>
        <time>2022-07-19T17:49:32Z</time>
      </trkpt>
      <trkpt lat="44.74873" lon="6.57937">
        <ele>974.2</ele>
        <time>2022-07-19T17:49:33Z</time>
      </trkpt>
      <trkpt lat="44.74877" lon="6.57934">
        <ele>974.2</ele>
        <time>2022-07-19T17:49:34Z</time>
      </trkpt>
      <trkpt lat="44.74881" lon="6.57932">
        <ele>974.6</ele>
        <time>2022-07-19T17:49:35Z</time>
      </trkpt>
      <trkpt lat="44.74886" lon="6.57929">
        <ele>974.6</ele>
        <time>2022-07-19T17:49:36Z</time>
      </trkpt>
      <trkpt lat="44.7489" lon="6.57927">
        <ele>974.6</ele>
        <time>2022-07-19T17:49:37Z</time>
      </trkpt>
      <trkpt lat="44.74894" lon="6.57924">
        <ele>974.6</ele>
        <time>2022-07-19T17:49:38Z</time>
      </trkpt>
      <trkpt lat="44.74899" lon="6.57921">
        <ele>974.6</ele>
        <time>2022-07-19T17:49:39Z</time>
      </trkpt>
      <trkpt lat="44.74903" lon="6.57918">
        <ele>974.6</ele>
        <time>2022-07-19T17:49:40Z</time>
      </trkpt>
      <trkpt lat="44.74908" lon="6.57916">
        <ele>974.6</ele>
        <time>2022-07-19T17:49:41Z</time>
      </trkpt>
      <trkpt lat="44.74912" lon="6.57913">
        <ele>974.8</ele>
        <time>2022-07-19T17:49:42Z</time>
      </trkpt>
      <trkpt lat="44.74917" lon="6.57911">
        <ele>974.8</ele>
        <time>2022-07-19T17:49:43Z</time>
      </trkpt>
      <trkpt lat="44.74921" lon="6.57908">
        <ele>975</ele>
        <time>2022-07-19T17:49:44Z</time>
      </trkpt>
      <trkpt lat="44.74926" lon="6.57905">
        <ele>975</ele>
        <time>2022-07-19T17:49:45Z</time>
      </trkpt>
      <trkpt lat="44.7493" lon="6.57902">
        <ele>975</ele>
        <time>2022-07-19T17:49:46Z</time>
      </trkpt>
      <trkpt lat="44.74935" lon="6.57899">
        <ele>975.2</ele>
        <time>2022-07-19T17:49:47Z</time>
      </trkpt>
      <trkpt lat="44.74939" lon="6.57897">
        <ele>975.2</ele>
        <time>2022-07-19T17:49:48Z</time>
      </trkpt>
      <trkpt lat="44.74944" lon="6.57894">
        <ele>975.4</ele>
        <time>2022-07-19T17:49:49Z</time>
      </trkpt>
      <trkpt lat="44.74948" lon="6.57891">
        <ele>975.4</ele>
        <time>2022-07-19T17:49:50Z</time>
      </trkpt>
      <trkpt lat="44.74953" lon="6.57888">
        <ele>975.8</ele>
        <time>2022-07-19T17:49:51Z</time>
      </trkpt>
      <trkpt lat="44.74957" lon="6.57886">
        <ele>975.8</ele>
        <time>2022-07-19T17:49:52Z</time>
      </trkpt>
      <trkpt lat="44.74962" lon="6.57883">
        <ele>976.2</ele>
        <time>2022-07-19T17:49:53Z</time>
      </trkpt>
      <trkpt lat="44.74967" lon="6.5788">
        <ele>976.2</ele>
        <time>2022-07-19T17:49:54Z</time>
      </trkpt>
      <trkpt lat="44.74972" lon="6.57876">
        <ele>976.6</ele>
        <time>2022-07-19T17:49:55Z</time>
      </trkpt>
      <trkpt lat="44.74977" lon="6.57873">
        <ele>976.6</ele>
        <time>2022-07-19T17:49:56Z</time>
      </trkpt>
      <trkpt lat="44.74981" lon="6.5787">
        <ele>976.6</ele>
        <time>2022-07-19T17:49:57Z</time>
      </trkpt>
      <trkpt lat="44.74986" lon="6.57867">
        <ele>976.6</ele>
        <time>2022-07-19T17:49:58Z</time>
      </trkpt>
      <trkpt lat="44.74991" lon="6.57864">
        <ele>976.6</ele>
        <time>2022-07-19T17:49:59Z</time>
      </trkpt>
      <trkpt lat="44.74996" lon="6.57861">
        <ele>976.8</ele>
        <time>2022-07-19T17:50:00Z</time>
      </trkpt>
      <trkpt lat="44.75001" lon="6.57858">
        <ele>976.8</ele>
        <time>2022-07-19T17:50:01Z</time>
      </trkpt>
      <trkpt lat="44.75005" lon="6.57855">
        <ele>976.8</ele>
        <time>2022-07-19T17:50:02Z</time>
      </trkpt>
      <trkpt lat="44.7501" lon="6.57852">
        <ele>976.8</ele>
        <time>2022-07-19T17:50:03Z</time>
      </trkpt>
      <trkpt lat="44.75014" lon="6.57849">
        <ele>977</ele>
        <time>2022-07-19T17:50:04Z</time>
      </trkpt>
      <trkpt lat="44.75019" lon="6.57846">
        <ele>977</ele>
        <time>2022-07-19T17:50:05Z</time>
      </trkpt>
      <trkpt lat="44.75023" lon="6.57844">
        <ele>977</ele>
        <time>2022-07-19T17:50:06Z</time>
      </trkpt>
      <trkpt lat="44.75028" lon="6.57841">
        <ele>977</ele>
        <time>2022-07-19T17:50:07Z</time>
      </trkpt>
      <trkpt lat="44.75033" lon="6.57838">
        <ele>977</ele>
        <time>2022-07-19T17:50:08Z</time>
      </trkpt>
      <trkpt lat="44.75037" lon="6.57835">
        <ele>977</ele>
        <time>2022-07-19T17:50:09Z</time>
      </trkpt>
      <trkpt lat="44.75043" lon="6.57831">
        <ele>977</ele>
        <time>2022-07-19T17:50:10Z</time>
      </trkpt>
      <trkpt lat="44.75048" lon="6.57828">
        <ele>976.6</ele>
        <time>2022-07-19T17:50:11Z</time>
      </trkpt>
      <trkpt lat="44.75053" lon="6.57825">
        <ele>976.6</ele>
        <time>2022-07-19T17:50:12Z</time>
      </trkpt>
      <trkpt lat="44.75059" lon="6.57821">
        <ele>976.2</ele>
        <time>2022-07-19T17:50:13Z</time>
      </trkpt>
      <trkpt lat="44.75064" lon="6.57817">
        <ele>976</ele>
        <time>2022-07-19T17:50:14Z</time>
      </trkpt>
      <trkpt lat="44.7507" lon="6.57814">
        <ele>975.6</ele>
        <time>2022-07-19T17:50:15Z</time>
      </trkpt>
      <trkpt lat="44.75076" lon="6.5781">
        <ele>975.4</ele>
        <time>2022-07-19T17:50:16Z</time>
      </trkpt>
      <trkpt lat="44.75082" lon="6.57806">
        <ele>975.2</ele>
        <time>2022-07-19T17:50:17Z</time>
      </trkpt>
      <trkpt lat="44.75089" lon="6.57802">
        <ele>974.6</ele>
        <time>2022-07-19T17:50:18Z</time>
      </trkpt>
      <trkpt lat="44.75095" lon="6.57798">
        <ele>974.2</ele>
        <time>2022-07-19T17:50:19Z</time>
      </trkpt>
      <trkpt lat="44.75102" lon="6.57794">
        <ele>973.8</ele>
        <time>2022-07-19T17:50:20Z</time>
      </trkpt>
      <trkpt lat="44.75108" lon="6.57789">
        <ele>973.2</ele>
        <time>2022-07-19T17:50:21Z</time>
      </trkpt>
      <trkpt lat="44.75115" lon="6.57785">
        <ele>973</ele>
        <time>2022-07-19T17:50:22Z</time>
      </trkpt>
      <trkpt lat="44.75122" lon="6.5778">
        <ele>973</ele>
        <time>2022-07-19T17:50:23Z</time>
      </trkpt>
      <trkpt lat="44.75128" lon="6.57776">
        <ele>972.6</ele>
        <time>2022-07-19T17:50:24Z</time>
      </trkpt>
      <trkpt lat="44.75135" lon="6.57771">
        <ele>972.2</ele>
        <time>2022-07-19T17:50:25Z</time>
      </trkpt>
      <trkpt lat="44.75142" lon="6.57766">
        <ele>971.8</ele>
        <time>2022-07-19T17:50:26Z</time>
      </trkpt>
      <trkpt lat="44.7515" lon="6.57761">
        <ele>971.4</ele>
        <time>2022-07-19T17:50:27Z</time>
      </trkpt>
      <trkpt lat="44.75157" lon="6.57757">
        <ele>971.2</ele>
        <time>2022-07-19T17:50:28Z</time>
      </trkpt>
      <trkpt lat="44.75164" lon="6.57752">
        <ele>970.8</ele>
        <time>2022-07-19T17:50:29Z</time>
      </trkpt>
      <trkpt lat="44.75171" lon="6.57748">
        <ele>970.4</ele>
        <time>2022-07-19T17:50:30Z</time>
      </trkpt>
      <trkpt lat="44.75177" lon="6.57743">
        <ele>970.2</ele>
        <time>2022-07-19T17:50:31Z</time>
      </trkpt>
      <trkpt lat="44.75184" lon="6.57739">
        <ele>969.8</ele>
        <time>2022-07-19T17:50:32Z</time>
      </trkpt>
      <trkpt lat="44.7519" lon="6.57736">
        <ele>969.2</ele>
        <time>2022-07-19T17:50:33Z</time>
      </trkpt>
      <trkpt lat="44.75196" lon="6.57732">
        <ele>969</ele>
        <time>2022-07-19T17:50:34Z</time>
      </trkpt>
      <trkpt lat="44.75202" lon="6.57728">
        <ele>968.8</ele>
        <time>2022-07-19T17:50:35Z</time>
      </trkpt>
      <trkpt lat="44.75208" lon="6.57724">
        <ele>968.8</ele>
        <time>2022-07-19T17:50:36Z</time>
      </trkpt>
      <trkpt lat="44.75213" lon="6.57721">
        <ele>968.6</ele>
        <time>2022-07-19T17:50:37Z</time>
      </trkpt>
      <trkpt lat="44.75219" lon="6.57717">
        <ele>968.6</ele>
        <time>2022-07-19T17:50:38Z</time>
      </trkpt>
      <trkpt lat="44.75224" lon="6.57713">
        <ele>968.6</ele>
        <time>2022-07-19T17:50:39Z</time>
      </trkpt>
      <trkpt lat="44.75229" lon="6.5771">
        <ele>968.6</ele>
        <time>2022-07-19T17:50:40Z</time>
      </trkpt>
      <trkpt lat="44.75234" lon="6.57707">
        <ele>968.6</ele>
        <time>2022-07-19T17:50:41Z</time>
      </trkpt>
      <trkpt lat="44.7524" lon="6.57704">
        <ele>968.6</ele>
        <time>2022-07-19T17:50:42Z</time>
      </trkpt>
      <trkpt lat="44.75245" lon="6.57701">
        <ele>968.6</ele>
        <time>2022-07-19T17:50:43Z</time>
      </trkpt>
      <trkpt lat="44.75249" lon="6.57697">
        <ele>968.2</ele>
        <time>2022-07-19T17:50:44Z</time>
      </trkpt>
      <trkpt lat="44.75254" lon="6.57694">
        <ele>968.2</ele>
        <time>2022-07-19T17:50:45Z</time>
      </trkpt>
      <trkpt lat="44.75259" lon="6.57691">
        <ele>967.8</ele>
        <time>2022-07-19T17:50:46Z</time>
      </trkpt>
      <trkpt lat="44.75264" lon="6.57688">
        <ele>968</ele>
        <time>2022-07-19T17:50:47Z</time>
      </trkpt>
      <trkpt lat="44.75269" lon="6.57686">
        <ele>968</ele>
        <time>2022-07-19T17:50:48Z</time>
      </trkpt>
      <trkpt lat="44.75274" lon="6.57683">
        <ele>968.2</ele>
        <time>2022-07-19T17:50:49Z</time>
      </trkpt>
      <trkpt lat="44.75279" lon="6.5768">
        <ele>968.2</ele>
        <time>2022-07-19T17:50:50Z</time>
      </trkpt>
      <trkpt lat="44.75283" lon="6.57677">
        <ele>968.2</ele>
        <time>2022-07-19T17:50:51Z</time>
      </trkpt>
      <trkpt lat="44.75288" lon="6.57674">
        <ele>968.4</ele>
        <time>2022-07-19T17:50:52Z</time>
      </trkpt>
      <trkpt lat="44.75293" lon="6.57671">
        <ele>968.4</ele>
        <time>2022-07-19T17:50:53Z</time>
      </trkpt>
      <trkpt lat="44.75298" lon="6.57668">
        <ele>968.4</ele>
        <time>2022-07-19T17:50:54Z</time>
      </trkpt>
      <trkpt lat="44.75303" lon="6.57665">
        <ele>968.4</ele>
        <time>2022-07-19T17:50:55Z</time>
      </trkpt>
      <trkpt lat="44.75308" lon="6.57662">
        <ele>968.4</ele>
        <time>2022-07-19T17:50:56Z</time>
      </trkpt>
      <trkpt lat="44.75312" lon="6.57658">
        <ele>968.4</ele>
        <time>2022-07-19T17:50:57Z</time>
      </trkpt>
      <trkpt lat="44.75317" lon="6.57656">
        <ele>968.4</ele>
        <time>2022-07-19T17:50:58Z</time>
      </trkpt>
      <trkpt lat="44.75322" lon="6.57653">
        <ele>968.8</ele>
        <time>2022-07-19T17:50:59Z</time>
      </trkpt>
      <trkpt lat="44.75327" lon="6.57649">
        <ele>968.8</ele>
        <time>2022-07-19T17:51:00Z</time>
      </trkpt>
      <trkpt lat="44.75332" lon="6.57646">
        <ele>968.8</ele>
        <time>2022-07-19T17:51:01Z</time>
      </trkpt>
      <trkpt lat="44.75337" lon="6.57643">
        <ele>968.8</ele>
        <time>2022-07-19T17:51:02Z</time>
      </trkpt>
      <trkpt lat="44.75342" lon="6.5764">
        <ele>968.8</ele>
        <time>2022-07-19T17:51:03Z</time>
      </trkpt>
      <trkpt lat="44.75347" lon="6.57637">
        <ele>968.8</ele>
        <time>2022-07-19T17:51:04Z</time>
      </trkpt>
      <trkpt lat="44.75352" lon="6.57634">
        <ele>969</ele>
        <time>2022-07-19T17:51:05Z</time>
      </trkpt>
      <trkpt lat="44.75356" lon="6.57631">
        <ele>969</ele>
        <time>2022-07-19T17:51:06Z</time>
      </trkpt>
      <trkpt lat="44.75361" lon="6.57628">
        <ele>969</ele>
        <time>2022-07-19T17:51:07Z</time>
      </trkpt>
      <trkpt lat="44.75366" lon="6.57625">
        <ele>969</ele>
        <time>2022-07-19T17:51:08Z</time>
      </trkpt>
      <trkpt lat="44.7537" lon="6.57622">
        <ele>969</ele>
        <time>2022-07-19T17:51:09Z</time>
      </trkpt>
      <trkpt lat="44.75375" lon="6.57619">
        <ele>969</ele>
        <time>2022-07-19T17:51:10Z</time>
      </trkpt>
      <trkpt lat="44.75379" lon="6.57616">
        <ele>969.4</ele>
        <time>2022-07-19T17:51:11Z</time>
      </trkpt>
      <trkpt lat="44.75384" lon="6.57613">
        <ele>969.4</ele>
        <time>2022-07-19T17:51:12Z</time>
      </trkpt>
      <trkpt lat="44.75389" lon="6.5761">
        <ele>969.8</ele>
        <time>2022-07-19T17:51:13Z</time>
      </trkpt>
      <trkpt lat="44.75393" lon="6.57607">
        <ele>969.8</ele>
        <time>2022-07-19T17:51:14Z</time>
      </trkpt>
      <trkpt lat="44.75398" lon="6.57604">
        <ele>970</ele>
        <time>2022-07-19T17:51:15Z</time>
      </trkpt>
      <trkpt lat="44.75403" lon="6.57601">
        <ele>970</ele>
        <time>2022-07-19T17:51:16Z</time>
      </trkpt>
      <trkpt lat="44.75408" lon="6.57598">
        <ele>970.2</ele>
        <time>2022-07-19T17:51:17Z</time>
      </trkpt>
      <trkpt lat="44.75412" lon="6.57595">
        <ele>970.2</ele>
        <time>2022-07-19T17:51:18Z</time>
      </trkpt>
      <trkpt lat="44.75417" lon="6.57592">
        <ele>970.2</ele>
        <time>2022-07-19T17:51:19Z</time>
      </trkpt>
      <trkpt lat="44.75422" lon="6.57588">
        <ele>970.2</ele>
        <time>2022-07-19T17:51:20Z</time>
      </trkpt>
      <trkpt lat="44.75427" lon="6.57585">
        <ele>970.4</ele>
        <time>2022-07-19T17:51:21Z</time>
      </trkpt>
      <trkpt lat="44.75432" lon="6.57582">
        <ele>970.4</ele>
        <time>2022-07-19T17:51:22Z</time>
      </trkpt>
      <trkpt lat="44.75437" lon="6.57579">
        <ele>970.4</ele>
        <time>2022-07-19T17:51:23Z</time>
      </trkpt>
      <trkpt lat="44.75442" lon="6.57576">
        <ele>970.4</ele>
        <time>2022-07-19T17:51:24Z</time>
      </trkpt>
      <trkpt lat="44.75447" lon="6.57573">
        <ele>970.4</ele>
        <time>2022-07-19T17:51:25Z</time>
      </trkpt>
      <trkpt lat="44.75451" lon="6.5757">
        <ele>970.4</ele>
        <time>2022-07-19T17:51:26Z</time>
      </trkpt>
      <trkpt lat="44.75456" lon="6.57567">
        <ele>970.4</ele>
        <time>2022-07-19T17:51:27Z</time>
      </trkpt>
      <trkpt lat="44.75461" lon="6.57563">
        <ele>970.2</ele>
        <time>2022-07-19T17:51:28Z</time>
      </trkpt>
      <trkpt lat="44.75466" lon="6.5756">
        <ele>970.2</ele>
        <time>2022-07-19T17:51:29Z</time>
      </trkpt>
      <trkpt lat="44.75471" lon="6.57557">
        <ele>970.2</ele>
        <time>2022-07-19T17:51:30Z</time>
      </trkpt>
      <trkpt lat="44.75476" lon="6.57554">
        <ele>970.2</ele>
        <time>2022-07-19T17:51:31Z</time>
      </trkpt>
      <trkpt lat="44.75481" lon="6.57551">
        <ele>970.2</ele>
        <time>2022-07-19T17:51:32Z</time>
      </trkpt>
      <trkpt lat="44.75486" lon="6.57547">
        <ele>970.2</ele>
        <time>2022-07-19T17:51:33Z</time>
      </trkpt>
      <trkpt lat="44.75491" lon="6.57544">
        <ele>970.2</ele>
        <time>2022-07-19T17:51:34Z</time>
      </trkpt>
      <trkpt lat="44.75496" lon="6.57541">
        <ele>970.2</ele>
        <time>2022-07-19T17:51:35Z</time>
      </trkpt>
      <trkpt lat="44.75501" lon="6.57537">
        <ele>970.2</ele>
        <time>2022-07-19T17:51:36Z</time>
      </trkpt>
      <trkpt lat="44.75506" lon="6.57534">
        <ele>970.4</ele>
        <time>2022-07-19T17:51:37Z</time>
      </trkpt>
      <trkpt lat="44.75511" lon="6.57531">
        <ele>970.4</ele>
        <time>2022-07-19T17:51:38Z</time>
      </trkpt>
      <trkpt lat="44.75516" lon="6.57527">
        <ele>970.4</ele>
        <time>2022-07-19T17:51:39Z</time>
      </trkpt>
      <trkpt lat="44.7552" lon="6.57524">
        <ele>970.4</ele>
        <time>2022-07-19T17:51:40Z</time>
      </trkpt>
      <trkpt lat="44.75525" lon="6.57521">
        <ele>970.4</ele>
        <time>2022-07-19T17:51:41Z</time>
      </trkpt>
      <trkpt lat="44.7553" lon="6.57517">
        <ele>970.4</ele>
        <time>2022-07-19T17:51:42Z</time>
      </trkpt>
      <trkpt lat="44.75535" lon="6.57514">
        <ele>970.4</ele>
        <time>2022-07-19T17:51:43Z</time>
      </trkpt>
      <trkpt lat="44.7554" lon="6.57511">
        <ele>970.4</ele>
        <time>2022-07-19T17:51:44Z</time>
      </trkpt>
      <trkpt lat="44.75545" lon="6.57508">
        <ele>970.4</ele>
        <time>2022-07-19T17:51:45Z</time>
      </trkpt>
      <trkpt lat="44.7555" lon="6.57505">
        <ele>970.4</ele>
        <time>2022-07-19T17:51:46Z</time>
      </trkpt>
      <trkpt lat="44.75555" lon="6.57502">
        <ele>970.4</ele>
        <time>2022-07-19T17:51:47Z</time>
      </trkpt>
      <trkpt lat="44.7556" lon="6.57499">
        <ele>970.4</ele>
        <time>2022-07-19T17:51:48Z</time>
      </trkpt>
      <trkpt lat="44.75564" lon="6.57496">
        <ele>970.8</ele>
        <time>2022-07-19T17:51:49Z</time>
      </trkpt>
      <trkpt lat="44.75569" lon="6.57493">
        <ele>970.8</ele>
        <time>2022-07-19T17:51:50Z</time>
      </trkpt>
      <trkpt lat="44.75574" lon="6.5749">
        <ele>970.8</ele>
        <time>2022-07-19T17:51:51Z</time>
      </trkpt>
      <trkpt lat="44.75579" lon="6.57486">
        <ele>970.8</ele>
        <time>2022-07-19T17:51:52Z</time>
      </trkpt>
      <trkpt lat="44.75583" lon="6.57483">
        <ele>971</ele>
        <time>2022-07-19T17:51:53Z</time>
      </trkpt>
      <trkpt lat="44.75588" lon="6.5748">
        <ele>971.2</ele>
        <time>2022-07-19T17:51:54Z</time>
      </trkpt>
      <trkpt lat="44.75593" lon="6.57477">
        <ele>971.2</ele>
        <time>2022-07-19T17:51:55Z</time>
      </trkpt>
      <trkpt lat="44.75598" lon="6.57474">
        <ele>971.4</ele>
        <time>2022-07-19T17:51:56Z</time>
      </trkpt>
      <trkpt lat="44.75603" lon="6.57471">
        <ele>971.4</ele>
        <time>2022-07-19T17:51:57Z</time>
      </trkpt>
      <trkpt lat="44.75607" lon="6.57468">
        <ele>971.8</ele>
        <time>2022-07-19T17:51:58Z</time>
      </trkpt>
      <trkpt lat="44.75612" lon="6.57464">
        <ele>971.8</ele>
        <time>2022-07-19T17:51:59Z</time>
      </trkpt>
      <trkpt lat="44.75617" lon="6.57461">
        <ele>971.8</ele>
        <time>2022-07-19T17:52:00Z</time>
      </trkpt>
      <trkpt lat="44.75622" lon="6.57458">
        <ele>971.8</ele>
        <time>2022-07-19T17:52:01Z</time>
      </trkpt>
      <trkpt lat="44.75627" lon="6.57455">
        <ele>971.8</ele>
        <time>2022-07-19T17:52:02Z</time>
      </trkpt>
      <trkpt lat="44.75632" lon="6.57452">
        <ele>971.8</ele>
        <time>2022-07-19T17:52:03Z</time>
      </trkpt>
      <trkpt lat="44.75636" lon="6.57449">
        <ele>972</ele>
        <time>2022-07-19T17:52:04Z</time>
      </trkpt>
      <trkpt lat="44.75641" lon="6.57445">
        <ele>972</ele>
        <time>2022-07-19T17:52:05Z</time>
      </trkpt>
      <trkpt lat="44.75646" lon="6.57442">
        <ele>972</ele>
        <time>2022-07-19T17:52:06Z</time>
      </trkpt>
      <trkpt lat="44.75651" lon="6.57439">
        <ele>972.2</ele>
        <time>2022-07-19T17:52:07Z</time>
      </trkpt>
      <trkpt lat="44.75656" lon="6.57436">
        <ele>972.2</ele>
        <time>2022-07-19T17:52:08Z</time>
      </trkpt>
      <trkpt lat="44.75661" lon="6.57433">
        <ele>972.4</ele>
        <time>2022-07-19T17:52:09Z</time>
      </trkpt>
      <trkpt lat="44.75666" lon="6.5743">
        <ele>972.4</ele>
        <time>2022-07-19T17:52:10Z</time>
      </trkpt>
      <trkpt lat="44.7567" lon="6.57426">
        <ele>972.4</ele>
        <time>2022-07-19T17:52:11Z</time>
      </trkpt>
      <trkpt lat="44.75675" lon="6.57423">
        <ele>972.4</ele>
        <time>2022-07-19T17:52:12Z</time>
      </trkpt>
      <trkpt lat="44.7568" lon="6.5742">
        <ele>972.8</ele>
        <time>2022-07-19T17:52:13Z</time>
      </trkpt>
      <trkpt lat="44.75685" lon="6.57417">
        <ele>972.8</ele>
        <time>2022-07-19T17:52:14Z</time>
      </trkpt>
      <trkpt lat="44.7569" lon="6.57414">
        <ele>972.8</ele>
        <time>2022-07-19T17:52:15Z</time>
      </trkpt>
      <trkpt lat="44.75694" lon="6.57411">
        <ele>972.8</ele>
        <time>2022-07-19T17:52:16Z</time>
      </trkpt>
      <trkpt lat="44.75699" lon="6.57408">
        <ele>972.8</ele>
        <time>2022-07-19T17:52:17Z</time>
      </trkpt>
      <trkpt lat="44.75704" lon="6.57405">
        <ele>972.8</ele>
        <time>2022-07-19T17:52:18Z</time>
      </trkpt>
      <trkpt lat="44.75708" lon="6.57402">
        <ele>972.8</ele>
        <time>2022-07-19T17:52:19Z</time>
      </trkpt>
      <trkpt lat="44.75713" lon="6.57399">
        <ele>972.8</ele>
        <time>2022-07-19T17:52:20Z</time>
      </trkpt>
      <trkpt lat="44.75718" lon="6.57396">
        <ele>972.8</ele>
        <time>2022-07-19T17:52:21Z</time>
      </trkpt>
      <trkpt lat="44.75723" lon="6.57393">
        <ele>972.8</ele>
        <time>2022-07-19T17:52:22Z</time>
      </trkpt>
      <trkpt lat="44.75728" lon="6.5739">
        <ele>972.8</ele>
        <time>2022-07-19T17:52:23Z</time>
      </trkpt>
      <trkpt lat="44.75732" lon="6.57386">
        <ele>972.8</ele>
        <time>2022-07-19T17:52:24Z</time>
      </trkpt>
      <trkpt lat="44.75737" lon="6.57383">
        <ele>972.8</ele>
        <time>2022-07-19T17:52:25Z</time>
      </trkpt>
      <trkpt lat="44.75742" lon="6.5738">
        <ele>972.8</ele>
        <time>2022-07-19T17:52:26Z</time>
      </trkpt>
      <trkpt lat="44.75747" lon="6.57377">
        <ele>972.6</ele>
        <time>2022-07-19T17:52:27Z</time>
      </trkpt>
      <trkpt lat="44.75752" lon="6.57374">
        <ele>972.6</ele>
        <time>2022-07-19T17:52:28Z</time>
      </trkpt>
      <trkpt lat="44.75756" lon="6.57371">
        <ele>973</ele>
        <time>2022-07-19T17:52:29Z</time>
      </trkpt>
      <trkpt lat="44.75761" lon="6.57367">
        <ele>973</ele>
        <time>2022-07-19T17:52:30Z</time>
      </trkpt>
      <trkpt lat="44.75766" lon="6.57364">
        <ele>973</ele>
        <time>2022-07-19T17:52:31Z</time>
      </trkpt>
      <trkpt lat="44.7577" lon="6.57361">
        <ele>973.4</ele>
        <time>2022-07-19T17:52:32Z</time>
      </trkpt>
      <trkpt lat="44.75775" lon="6.57358">
        <ele>973.4</ele>
        <time>2022-07-19T17:52:33Z</time>
      </trkpt>
      <trkpt lat="44.7578" lon="6.57355">
        <ele>973.6</ele>
        <time>2022-07-19T17:52:34Z</time>
      </trkpt>
      <trkpt lat="44.75785" lon="6.57353">
        <ele>973.6</ele>
        <time>2022-07-19T17:52:35Z</time>
      </trkpt>
      <trkpt lat="44.75789" lon="6.5735">
        <ele>974</ele>
        <time>2022-07-19T17:52:36Z</time>
      </trkpt>
      <trkpt lat="44.75794" lon="6.57347">
        <ele>974</ele>
        <time>2022-07-19T17:52:37Z</time>
      </trkpt>
      <trkpt lat="44.75798" lon="6.57344">
        <ele>974.4</ele>
        <time>2022-07-19T17:52:38Z</time>
      </trkpt>
      <trkpt lat="44.75802" lon="6.57341">
        <ele>974.4</ele>
        <time>2022-07-19T17:52:39Z</time>
      </trkpt>
      <trkpt lat="44.75807" lon="6.57338">
        <ele>974.6</ele>
        <time>2022-07-19T17:52:40Z</time>
      </trkpt>
      <trkpt lat="44.75811" lon="6.57335">
        <ele>974.6</ele>
        <time>2022-07-19T17:52:41Z</time>
      </trkpt>
      <trkpt lat="44.75815" lon="6.57332">
        <ele>975</ele>
        <time>2022-07-19T17:52:42Z</time>
      </trkpt>
      <trkpt lat="44.7582" lon="6.5733">
        <ele>975</ele>
        <time>2022-07-19T17:52:43Z</time>
      </trkpt>
      <trkpt lat="44.75824" lon="6.57327">
        <ele>975.4</ele>
        <time>2022-07-19T17:52:44Z</time>
      </trkpt>
      <trkpt lat="44.75828" lon="6.57325">
        <ele>975.8</ele>
        <time>2022-07-19T17:52:45Z</time>
      </trkpt>
      <trkpt lat="44.75832" lon="6.57322">
        <ele>976</ele>
        <time>2022-07-19T17:52:46Z</time>
      </trkpt>
      <trkpt lat="44.75836" lon="6.5732">
        <ele>976.2</ele>
        <time>2022-07-19T17:52:47Z</time>
      </trkpt>
      <trkpt lat="44.7584" lon="6.57317">
        <ele>976.2</ele>
        <time>2022-07-19T17:52:48Z</time>
      </trkpt>
      <trkpt lat="44.75844" lon="6.57315">
        <ele>976.2</ele>
        <time>2022-07-19T17:52:49Z</time>
      </trkpt>
      <trkpt lat="44.75847" lon="6.57313">
        <ele>976.6</ele>
        <time>2022-07-19T17:52:50Z</time>
      </trkpt>
      <trkpt lat="44.75851" lon="6.5731">
        <ele>976.6</ele>
        <time>2022-07-19T17:52:51Z</time>
      </trkpt>
      <trkpt lat="44.75854" lon="6.57308">
        <ele>976.6</ele>
        <time>2022-07-19T17:52:52Z</time>
      </trkpt>
      <trkpt lat="44.75858" lon="6.57306">
        <ele>976.6</ele>
        <time>2022-07-19T17:52:53Z</time>
      </trkpt>
      <trkpt lat="44.75861" lon="6.57304">
        <ele>976.8</ele>
        <time>2022-07-19T17:52:54Z</time>
      </trkpt>
      <trkpt lat="44.75865" lon="6.57301">
        <ele>976.8</ele>
        <time>2022-07-19T17:52:55Z</time>
      </trkpt>
      <trkpt lat="44.75868" lon="6.57299">
        <ele>977.2</ele>
        <time>2022-07-19T17:52:56Z</time>
      </trkpt>
      <trkpt lat="44.75872" lon="6.57296">
        <ele>977.2</ele>
        <time>2022-07-19T17:52:57Z</time>
      </trkpt>
      <trkpt lat="44.75876" lon="6.57294">
        <ele>977.6</ele>
        <time>2022-07-19T17:52:58Z</time>
      </trkpt>
      <trkpt lat="44.75879" lon="6.57292">
        <ele>977.8</ele>
        <time>2022-07-19T17:52:59Z</time>
      </trkpt>
      <trkpt lat="44.75883" lon="6.5729">
        <ele>977.8</ele>
        <time>2022-07-19T17:53:00Z</time>
      </trkpt>
      <trkpt lat="44.75886" lon="6.57288">
        <ele>978</ele>
        <time>2022-07-19T17:53:01Z</time>
      </trkpt>
      <trkpt lat="44.7589" lon="6.57286">
        <ele>978</ele>
        <time>2022-07-19T17:53:02Z</time>
      </trkpt>
      <trkpt lat="44.75893" lon="6.57283">
        <ele>978.6</ele>
        <time>2022-07-19T17:53:03Z</time>
      </trkpt>
      <trkpt lat="44.75897" lon="6.57281">
        <ele>978.8</ele>
        <time>2022-07-19T17:53:04Z</time>
      </trkpt>
      <trkpt lat="44.75901" lon="6.57279">
        <ele>979</ele>
        <time>2022-07-19T17:53:05Z</time>
      </trkpt>
      <trkpt lat="44.75904" lon="6.57277">
        <ele>979</ele>
        <time>2022-07-19T17:53:06Z</time>
      </trkpt>
      <trkpt lat="44.75908" lon="6.57275">
        <ele>979</ele>
        <time>2022-07-19T17:53:07Z</time>
      </trkpt>
      <trkpt lat="44.75911" lon="6.57272">
        <ele>979.4</ele>
        <time>2022-07-19T17:53:08Z</time>
      </trkpt>
      <trkpt lat="44.75914" lon="6.5727">
        <ele>979.6</ele>
        <time>2022-07-19T17:53:09Z</time>
      </trkpt>
      <trkpt lat="44.75918" lon="6.57268">
        <ele>979.6</ele>
        <time>2022-07-19T17:53:10Z</time>
      </trkpt>
      <trkpt lat="44.75921" lon="6.57265">
        <ele>980</ele>
        <time>2022-07-19T17:53:11Z</time>
      </trkpt>
      <trkpt lat="44.75924" lon="6.57263">
        <ele>980</ele>
        <time>2022-07-19T17:53:12Z</time>
      </trkpt>
      <trkpt lat="44.75927" lon="6.57261">
        <ele>980.2</ele>
        <time>2022-07-19T17:53:13Z</time>
      </trkpt>
      <trkpt lat="44.75931" lon="6.57259">
        <ele>980.2</ele>
        <time>2022-07-19T17:53:14Z</time>
      </trkpt>
      <trkpt lat="44.75934" lon="6.57257">
        <ele>980.2</ele>
        <time>2022-07-19T17:53:15Z</time>
      </trkpt>
      <trkpt lat="44.75937" lon="6.57254">
        <ele>980.4</ele>
        <time>2022-07-19T17:53:16Z</time>
      </trkpt>
      <trkpt lat="44.75941" lon="6.57252">
        <ele>980.4</ele>
        <time>2022-07-19T17:53:17Z</time>
      </trkpt>
      <trkpt lat="44.75944" lon="6.5725">
        <ele>980.4</ele>
        <time>2022-07-19T17:53:18Z</time>
      </trkpt>
      <trkpt lat="44.75948" lon="6.57248">
        <ele>980.8</ele>
        <time>2022-07-19T17:53:19Z</time>
      </trkpt>
      <trkpt lat="44.75951" lon="6.57246">
        <ele>981</ele>
        <time>2022-07-19T17:53:20Z</time>
      </trkpt>
      <trkpt lat="44.75954" lon="6.57243">
        <ele>981</ele>
        <time>2022-07-19T17:53:21Z</time>
      </trkpt>
      <trkpt lat="44.75958" lon="6.57241">
        <ele>981</ele>
        <time>2022-07-19T17:53:22Z</time>
      </trkpt>
      <trkpt lat="44.75961" lon="6.57239">
        <ele>981.2</ele>
        <time>2022-07-19T17:53:23Z</time>
      </trkpt>
      <trkpt lat="44.75965" lon="6.57236">
        <ele>981.2</ele>
        <time>2022-07-19T17:53:24Z</time>
      </trkpt>
      <trkpt lat="44.75968" lon="6.57234">
        <ele>981.4</ele>
        <time>2022-07-19T17:53:25Z</time>
      </trkpt>
      <trkpt lat="44.75971" lon="6.57231">
        <ele>981.4</ele>
        <time>2022-07-19T17:53:26Z</time>
      </trkpt>
      <trkpt lat="44.75974" lon="6.57228">
        <ele>981.4</ele>
        <time>2022-07-19T17:53:27Z</time>
      </trkpt>
      <trkpt lat="44.75978" lon="6.57226">
        <ele>981.4</ele>
        <time>2022-07-19T17:53:28Z</time>
      </trkpt>
      <trkpt lat="44.75981" lon="6.57223">
        <ele>981.4</ele>
        <time>2022-07-19T17:53:29Z</time>
      </trkpt>
      <trkpt lat="44.75984" lon="6.5722">
        <ele>981.6</ele>
        <time>2022-07-19T17:53:30Z</time>
      </trkpt>
      <trkpt lat="44.75988" lon="6.57217">
        <ele>981.6</ele>
        <time>2022-07-19T17:53:31Z</time>
      </trkpt>
      <trkpt lat="44.75991" lon="6.57214">
        <ele>981.6</ele>
        <time>2022-07-19T17:53:32Z</time>
      </trkpt>
      <trkpt lat="44.75994" lon="6.57211">
        <ele>981.6</ele>
        <time>2022-07-19T17:53:33Z</time>
      </trkpt>
      <trkpt lat="44.75998" lon="6.57208">
        <ele>981.6</ele>
        <time>2022-07-19T17:53:34Z</time>
      </trkpt>
      <trkpt lat="44.76001" lon="6.57205">
        <ele>981.6</ele>
        <time>2022-07-19T17:53:35Z</time>
      </trkpt>
      <trkpt lat="44.76004" lon="6.57202">
        <ele>981.6</ele>
        <time>2022-07-19T17:53:36Z</time>
      </trkpt>
      <trkpt lat="44.76008" lon="6.57198">
        <ele>981.6</ele>
        <time>2022-07-19T17:53:37Z</time>
      </trkpt>
      <trkpt lat="44.76011" lon="6.57195">
        <ele>981.6</ele>
        <time>2022-07-19T17:53:38Z</time>
      </trkpt>
      <trkpt lat="44.76015" lon="6.57191">
        <ele>981.6</ele>
        <time>2022-07-19T17:53:39Z</time>
      </trkpt>
      <trkpt lat="44.76018" lon="6.57187">
        <ele>981.6</ele>
        <time>2022-07-19T17:53:40Z</time>
      </trkpt>
      <trkpt lat="44.76022" lon="6.57183">
        <ele>981.4</ele>
        <time>2022-07-19T17:53:41Z</time>
      </trkpt>
      <trkpt lat="44.76025" lon="6.57179">
        <ele>981.4</ele>
        <time>2022-07-19T17:53:42Z</time>
      </trkpt>
      <trkpt lat="44.76029" lon="6.57176">
        <ele>981.8</ele>
        <time>2022-07-19T17:53:43Z</time>
      </trkpt>
      <trkpt lat="44.76033" lon="6.57172">
        <ele>981.8</ele>
        <time>2022-07-19T17:53:44Z</time>
      </trkpt>
      <trkpt lat="44.76037" lon="6.57168">
        <ele>982</ele>
        <time>2022-07-19T17:53:45Z</time>
      </trkpt>
      <trkpt lat="44.76041" lon="6.57164">
        <ele>982</ele>
        <time>2022-07-19T17:53:46Z</time>
      </trkpt>
      <trkpt lat="44.76045" lon="6.5716">
        <ele>982</ele>
        <time>2022-07-19T17:53:47Z</time>
      </trkpt>
      <trkpt lat="44.76049" lon="6.57156">
        <ele>982</ele>
        <time>2022-07-19T17:53:48Z</time>
      </trkpt>
      <trkpt lat="44.76053" lon="6.57152">
        <ele>982</ele>
        <time>2022-07-19T17:53:49Z</time>
      </trkpt>
      <trkpt lat="44.76057" lon="6.57148">
        <ele>981.8</ele>
        <time>2022-07-19T17:53:50Z</time>
      </trkpt>
      <trkpt lat="44.76061" lon="6.57143">
        <ele>981.8</ele>
        <time>2022-07-19T17:53:51Z</time>
      </trkpt>
      <trkpt lat="44.76065" lon="6.57139">
        <ele>981.8</ele>
        <time>2022-07-19T17:53:52Z</time>
      </trkpt>
      <trkpt lat="44.76069" lon="6.57134">
        <ele>981.8</ele>
        <time>2022-07-19T17:53:53Z</time>
      </trkpt>
      <trkpt lat="44.76073" lon="6.5713">
        <ele>981.6</ele>
        <time>2022-07-19T17:53:54Z</time>
      </trkpt>
      <trkpt lat="44.76078" lon="6.57125">
        <ele>981.6</ele>
        <time>2022-07-19T17:53:55Z</time>
      </trkpt>
      <trkpt lat="44.76082" lon="6.57121">
        <ele>981.4</ele>
        <time>2022-07-19T17:53:56Z</time>
      </trkpt>
      <trkpt lat="44.76087" lon="6.57116">
        <ele>981.4</ele>
        <time>2022-07-19T17:53:57Z</time>
      </trkpt>
      <trkpt lat="44.76091" lon="6.57111">
        <ele>981.4</ele>
        <time>2022-07-19T17:53:58Z</time>
      </trkpt>
      <trkpt lat="44.76095" lon="6.57107">
        <ele>981.2</ele>
        <time>2022-07-19T17:53:59Z</time>
      </trkpt>
      <trkpt lat="44.761" lon="6.57102">
        <ele>980.8</ele>
        <time>2022-07-19T17:54:00Z</time>
      </trkpt>
      <trkpt lat="44.76105" lon="6.57097">
        <ele>980.8</ele>
        <time>2022-07-19T17:54:01Z</time>
      </trkpt>
      <trkpt lat="44.76109" lon="6.57092">
        <ele>980.4</ele>
        <time>2022-07-19T17:54:02Z</time>
      </trkpt>
      <trkpt lat="44.76114" lon="6.57088">
        <ele>980.4</ele>
        <time>2022-07-19T17:54:03Z</time>
      </trkpt>
      <trkpt lat="44.76119" lon="6.57083">
        <ele>980.4</ele>
        <time>2022-07-19T17:54:04Z</time>
      </trkpt>
      <trkpt lat="44.76123" lon="6.57078">
        <ele>980.4</ele>
        <time>2022-07-19T17:54:05Z</time>
      </trkpt>
      <trkpt lat="44.76128" lon="6.57072">
        <ele>980.4</ele>
        <time>2022-07-19T17:54:06Z</time>
      </trkpt>
      <trkpt lat="44.76133" lon="6.57067">
        <ele>980.4</ele>
        <time>2022-07-19T17:54:07Z</time>
      </trkpt>
      <trkpt lat="44.76138" lon="6.57062">
        <ele>980</ele>
        <time>2022-07-19T17:54:08Z</time>
      </trkpt>
      <trkpt lat="44.76143" lon="6.57057">
        <ele>979.8</ele>
        <time>2022-07-19T17:54:09Z</time>
      </trkpt>
      <trkpt lat="44.76148" lon="6.57051">
        <ele>979.8</ele>
        <time>2022-07-19T17:54:10Z</time>
      </trkpt>
      <trkpt lat="44.76153" lon="6.57046">
        <ele>979.4</ele>
        <time>2022-07-19T17:54:11Z</time>
      </trkpt>
      <trkpt lat="44.76158" lon="6.57041">
        <ele>979.4</ele>
        <time>2022-07-19T17:54:12Z</time>
      </trkpt>
      <trkpt lat="44.76164" lon="6.57035">
        <ele>979</ele>
        <time>2022-07-19T17:54:13Z</time>
      </trkpt>
      <trkpt lat="44.76169" lon="6.5703">
        <ele>979</ele>
        <time>2022-07-19T17:54:14Z</time>
      </trkpt>
      <trkpt lat="44.76174" lon="6.57025">
        <ele>978.6</ele>
        <time>2022-07-19T17:54:15Z</time>
      </trkpt>
      <trkpt lat="44.7618" lon="6.57019">
        <ele>978.6</ele>
        <time>2022-07-19T17:54:16Z</time>
      </trkpt>
      <trkpt lat="44.76185" lon="6.57014">
        <ele>978.2</ele>
        <time>2022-07-19T17:54:17Z</time>
      </trkpt>
      <trkpt lat="44.7619" lon="6.57008">
        <ele>978.2</ele>
        <time>2022-07-19T17:54:18Z</time>
      </trkpt>
      <trkpt lat="44.76196" lon="6.57003">
        <ele>978</ele>
        <time>2022-07-19T17:54:19Z</time>
      </trkpt>
      <trkpt lat="44.76201" lon="6.56997">
        <ele>977.8</ele>
        <time>2022-07-19T17:54:20Z</time>
      </trkpt>
      <trkpt lat="44.76206" lon="6.56992">
        <ele>977.6</ele>
        <time>2022-07-19T17:54:21Z</time>
      </trkpt>
      <trkpt lat="44.76211" lon="6.56986">
        <ele>977.6</ele>
        <time>2022-07-19T17:54:22Z</time>
      </trkpt>
      <trkpt lat="44.76216" lon="6.56981">
        <ele>977.6</ele>
        <time>2022-07-19T17:54:23Z</time>
      </trkpt>
      <trkpt lat="44.76221" lon="6.56976">
        <ele>977.6</ele>
        <time>2022-07-19T17:54:24Z</time>
      </trkpt>
      <trkpt lat="44.76226" lon="6.56971">
        <ele>977.4</ele>
        <time>2022-07-19T17:54:25Z</time>
      </trkpt>
      <trkpt lat="44.7623" lon="6.56966">
        <ele>977.4</ele>
        <time>2022-07-19T17:54:26Z</time>
      </trkpt>
      <trkpt lat="44.76235" lon="6.56961">
        <ele>977.4</ele>
        <time>2022-07-19T17:54:27Z</time>
      </trkpt>
      <trkpt lat="44.76239" lon="6.56957">
        <ele>977.6</ele>
        <time>2022-07-19T17:54:28Z</time>
      </trkpt>
      <trkpt lat="44.76243" lon="6.56953">
        <ele>977.6</ele>
        <time>2022-07-19T17:54:29Z</time>
      </trkpt>
      <trkpt lat="44.76247" lon="6.56949">
        <ele>977.6</ele>
        <time>2022-07-19T17:54:30Z</time>
      </trkpt>
      <trkpt lat="44.76251" lon="6.56944">
        <ele>977.6</ele>
        <time>2022-07-19T17:54:31Z</time>
      </trkpt>
      <trkpt lat="44.76255" lon="6.5694">
        <ele>977.8</ele>
        <time>2022-07-19T17:54:32Z</time>
      </trkpt>
      <trkpt lat="44.76259" lon="6.56936">
        <ele>977.8</ele>
        <time>2022-07-19T17:54:33Z</time>
      </trkpt>
      <trkpt lat="44.76263" lon="6.56932">
        <ele>977.8</ele>
        <time>2022-07-19T17:54:34Z</time>
      </trkpt>
      <trkpt lat="44.76267" lon="6.56928">
        <ele>977.8</ele>
        <time>2022-07-19T17:54:35Z</time>
      </trkpt>
      <trkpt lat="44.76271" lon="6.56923">
        <ele>977.8</ele>
        <time>2022-07-19T17:54:36Z</time>
      </trkpt>
      <trkpt lat="44.76275" lon="6.56919">
        <ele>977.8</ele>
        <time>2022-07-19T17:54:37Z</time>
      </trkpt>
      <trkpt lat="44.76279" lon="6.56915">
        <ele>977.8</ele>
        <time>2022-07-19T17:54:38Z</time>
      </trkpt>
      <trkpt lat="44.76284" lon="6.56911">
        <ele>977.8</ele>
        <time>2022-07-19T17:54:39Z</time>
      </trkpt>
      <trkpt lat="44.76288" lon="6.56906">
        <ele>978</ele>
        <time>2022-07-19T17:54:40Z</time>
      </trkpt>
      <trkpt lat="44.76292" lon="6.56902">
        <ele>978</ele>
        <time>2022-07-19T17:54:41Z</time>
      </trkpt>
      <trkpt lat="44.76296" lon="6.56898">
        <ele>977.8</ele>
        <time>2022-07-19T17:54:42Z</time>
      </trkpt>
      <trkpt lat="44.763" lon="6.56893">
        <ele>977.8</ele>
        <time>2022-07-19T17:54:43Z</time>
      </trkpt>
      <trkpt lat="44.76304" lon="6.56889">
        <ele>977.8</ele>
        <time>2022-07-19T17:54:44Z</time>
      </trkpt>
      <trkpt lat="44.76309" lon="6.56885">
        <ele>977.8</ele>
        <time>2022-07-19T17:54:45Z</time>
      </trkpt>
      <trkpt lat="44.76313" lon="6.5688">
        <ele>977.8</ele>
        <time>2022-07-19T17:54:46Z</time>
      </trkpt>
      <trkpt lat="44.76317" lon="6.56876">
        <ele>977.8</ele>
        <time>2022-07-19T17:54:47Z</time>
      </trkpt>
      <trkpt lat="44.76321" lon="6.56872">
        <ele>978</ele>
        <time>2022-07-19T17:54:48Z</time>
      </trkpt>
      <trkpt lat="44.76325" lon="6.56868">
        <ele>978</ele>
        <time>2022-07-19T17:54:49Z</time>
      </trkpt>
      <trkpt lat="44.76329" lon="6.56863">
        <ele>978</ele>
        <time>2022-07-19T17:54:50Z</time>
      </trkpt>
      <trkpt lat="44.76333" lon="6.56859">
        <ele>978</ele>
        <time>2022-07-19T17:54:51Z</time>
      </trkpt>
      <trkpt lat="44.76337" lon="6.56855">
        <ele>978</ele>
        <time>2022-07-19T17:54:52Z</time>
      </trkpt>
      <trkpt lat="44.76341" lon="6.56851">
        <ele>978</ele>
        <time>2022-07-19T17:54:53Z</time>
      </trkpt>
      <trkpt lat="44.76345" lon="6.56847">
        <ele>978</ele>
        <time>2022-07-19T17:54:54Z</time>
      </trkpt>
      <trkpt lat="44.76349" lon="6.56843">
        <ele>978.4</ele>
        <time>2022-07-19T17:54:55Z</time>
      </trkpt>
      <trkpt lat="44.76353" lon="6.56838">
        <ele>978.4</ele>
        <time>2022-07-19T17:54:56Z</time>
      </trkpt>
      <trkpt lat="44.76357" lon="6.56834">
        <ele>978.4</ele>
        <time>2022-07-19T17:54:57Z</time>
      </trkpt>
      <trkpt lat="44.7636" lon="6.5683">
        <ele>978.6</ele>
        <time>2022-07-19T17:54:58Z</time>
      </trkpt>
      <trkpt lat="44.76364" lon="6.56826">
        <ele>978.6</ele>
        <time>2022-07-19T17:54:59Z</time>
      </trkpt>
      <trkpt lat="44.76368" lon="6.56822">
        <ele>978.6</ele>
        <time>2022-07-19T17:55:00Z</time>
      </trkpt>
      <trkpt lat="44.76372" lon="6.56819">
        <ele>978.6</ele>
        <time>2022-07-19T17:55:01Z</time>
      </trkpt>
      <trkpt lat="44.76375" lon="6.56815">
        <ele>978.6</ele>
        <time>2022-07-19T17:55:02Z</time>
      </trkpt>
      <trkpt lat="44.76379" lon="6.56811">
        <ele>978.6</ele>
        <time>2022-07-19T17:55:03Z</time>
      </trkpt>
      <trkpt lat="44.76383" lon="6.56807">
        <ele>978.6</ele>
        <time>2022-07-19T17:55:04Z</time>
      </trkpt>
      <trkpt lat="44.76386" lon="6.56803">
        <ele>978.6</ele>
        <time>2022-07-19T17:55:05Z</time>
      </trkpt>
      <trkpt lat="44.7639" lon="6.56799">
        <ele>978.6</ele>
        <time>2022-07-19T17:55:06Z</time>
      </trkpt>
      <trkpt lat="44.76393" lon="6.56796">
        <ele>978.6</ele>
        <time>2022-07-19T17:55:07Z</time>
      </trkpt>
      <trkpt lat="44.76397" lon="6.56792">
        <ele>978.8</ele>
        <time>2022-07-19T17:55:08Z</time>
      </trkpt>
      <trkpt lat="44.764" lon="6.56789">
        <ele>979</ele>
        <time>2022-07-19T17:55:09Z</time>
      </trkpt>
      <trkpt lat="44.76404" lon="6.56785">
        <ele>979.2</ele>
        <time>2022-07-19T17:55:10Z</time>
      </trkpt>
      <trkpt lat="44.76407" lon="6.56781">
        <ele>979.2</ele>
        <time>2022-07-19T17:55:11Z</time>
      </trkpt>
      <trkpt lat="44.7641" lon="6.56778">
        <ele>979.2</ele>
        <time>2022-07-19T17:55:12Z</time>
      </trkpt>
      <trkpt lat="44.76414" lon="6.56774">
        <ele>979.2</ele>
        <time>2022-07-19T17:55:13Z</time>
      </trkpt>
      <trkpt lat="44.76417" lon="6.56771">
        <ele>979.2</ele>
        <time>2022-07-19T17:55:14Z</time>
      </trkpt>
      <trkpt lat="44.76421" lon="6.56767">
        <ele>979.2</ele>
        <time>2022-07-19T17:55:15Z</time>
      </trkpt>
      <trkpt lat="44.76424" lon="6.56764">
        <ele>979.2</ele>
        <time>2022-07-19T17:55:16Z</time>
      </trkpt>
      <trkpt lat="44.76428" lon="6.5676">
        <ele>979.2</ele>
        <time>2022-07-19T17:55:17Z</time>
      </trkpt>
      <trkpt lat="44.76431" lon="6.56756">
        <ele>979.6</ele>
        <time>2022-07-19T17:55:18Z</time>
      </trkpt>
      <trkpt lat="44.76435" lon="6.56752">
        <ele>979.6</ele>
        <time>2022-07-19T17:55:19Z</time>
      </trkpt>
      <trkpt lat="44.76438" lon="6.56749">
        <ele>979.2</ele>
        <time>2022-07-19T17:55:20Z</time>
      </trkpt>
      <trkpt lat="44.76442" lon="6.56745">
        <ele>979.2</ele>
        <time>2022-07-19T17:55:21Z</time>
      </trkpt>
      <trkpt lat="44.76445" lon="6.56741">
        <ele>979.2</ele>
        <time>2022-07-19T17:55:22Z</time>
      </trkpt>
      <trkpt lat="44.76449" lon="6.56737">
        <ele>979.2</ele>
        <time>2022-07-19T17:55:23Z</time>
      </trkpt>
      <trkpt lat="44.76453" lon="6.56733">
        <ele>979.4</ele>
        <time>2022-07-19T17:55:24Z</time>
      </trkpt>
      <trkpt lat="44.76457" lon="6.56729">
        <ele>979.4</ele>
        <time>2022-07-19T17:55:25Z</time>
      </trkpt>
      <trkpt lat="44.76461" lon="6.56725">
        <ele>979.4</ele>
        <time>2022-07-19T17:55:26Z</time>
      </trkpt>
      <trkpt lat="44.76464" lon="6.56721">
        <ele>979.4</ele>
        <time>2022-07-19T17:55:27Z</time>
      </trkpt>
      <trkpt lat="44.76468" lon="6.56717">
        <ele>979.4</ele>
        <time>2022-07-19T17:55:28Z</time>
      </trkpt>
      <trkpt lat="44.76472" lon="6.56713">
        <ele>979.4</ele>
        <time>2022-07-19T17:55:29Z</time>
      </trkpt>
      <trkpt lat="44.76476" lon="6.56708">
        <ele>979.4</ele>
        <time>2022-07-19T17:55:30Z</time>
      </trkpt>
      <trkpt lat="44.7648" lon="6.56704">
        <ele>979.6</ele>
        <time>2022-07-19T17:55:31Z</time>
      </trkpt>
      <trkpt lat="44.76485" lon="6.567">
        <ele>979.6</ele>
        <time>2022-07-19T17:55:32Z</time>
      </trkpt>
      <trkpt lat="44.76489" lon="6.56695">
        <ele>979.6</ele>
        <time>2022-07-19T17:55:33Z</time>
      </trkpt>
      <trkpt lat="44.76493" lon="6.56691">
        <ele>979.4</ele>
        <time>2022-07-19T17:55:34Z</time>
      </trkpt>
      <trkpt lat="44.76497" lon="6.56686">
        <ele>979.4</ele>
        <time>2022-07-19T17:55:35Z</time>
      </trkpt>
      <trkpt lat="44.76501" lon="6.56682">
        <ele>979.4</ele>
        <time>2022-07-19T17:55:36Z</time>
      </trkpt>
      <trkpt lat="44.76506" lon="6.56677">
        <ele>979.8</ele>
        <time>2022-07-19T17:55:37Z</time>
      </trkpt>
      <trkpt lat="44.7651" lon="6.56673">
        <ele>979.8</ele>
        <time>2022-07-19T17:55:38Z</time>
      </trkpt>
      <trkpt lat="44.76514" lon="6.56668">
        <ele>979.6</ele>
        <time>2022-07-19T17:55:39Z</time>
      </trkpt>
      <trkpt lat="44.76518" lon="6.56664">
        <ele>979.6</ele>
        <time>2022-07-19T17:55:40Z</time>
      </trkpt>
      <trkpt lat="44.76522" lon="6.5666">
        <ele>979.6</ele>
        <time>2022-07-19T17:55:41Z</time>
      </trkpt>
      <trkpt lat="44.76526" lon="6.56655">
        <ele>979.6</ele>
        <time>2022-07-19T17:55:42Z</time>
      </trkpt>
      <trkpt lat="44.7653" lon="6.56651">
        <ele>979.6</ele>
        <time>2022-07-19T17:55:43Z</time>
      </trkpt>
      <trkpt lat="44.76535" lon="6.56647">
        <ele>979.6</ele>
        <time>2022-07-19T17:55:44Z</time>
      </trkpt>
      <trkpt lat="44.76539" lon="6.56642">
        <ele>979.6</ele>
        <time>2022-07-19T17:55:45Z</time>
      </trkpt>
      <trkpt lat="44.76543" lon="6.56638">
        <ele>979.6</ele>
        <time>2022-07-19T17:55:46Z</time>
      </trkpt>
      <trkpt lat="44.76547" lon="6.56634">
        <ele>979.6</ele>
        <time>2022-07-19T17:55:47Z</time>
      </trkpt>
      <trkpt lat="44.76551" lon="6.5663">
        <ele>979.6</ele>
        <time>2022-07-19T17:55:48Z</time>
      </trkpt>
      <trkpt lat="44.76555" lon="6.56625">
        <ele>979.6</ele>
        <time>2022-07-19T17:55:49Z</time>
      </trkpt>
      <trkpt lat="44.76559" lon="6.56621">
        <ele>979.6</ele>
        <time>2022-07-19T17:55:50Z</time>
      </trkpt>
      <trkpt lat="44.76563" lon="6.56617">
        <ele>979.6</ele>
        <time>2022-07-19T17:55:51Z</time>
      </trkpt>
      <trkpt lat="44.76567" lon="6.56612">
        <ele>979.8</ele>
        <time>2022-07-19T17:55:52Z</time>
      </trkpt>
      <trkpt lat="44.76572" lon="6.56608">
        <ele>979.8</ele>
        <time>2022-07-19T17:55:53Z</time>
      </trkpt>
      <trkpt lat="44.76576" lon="6.56604">
        <ele>979.8</ele>
        <time>2022-07-19T17:55:54Z</time>
      </trkpt>
      <trkpt lat="44.7658" lon="6.566">
        <ele>979.8</ele>
        <time>2022-07-19T17:55:55Z</time>
      </trkpt>
      <trkpt lat="44.76584" lon="6.56595">
        <ele>979.8</ele>
        <time>2022-07-19T17:55:56Z</time>
      </trkpt>
      <trkpt lat="44.76588" lon="6.56591">
        <ele>979.8</ele>
        <time>2022-07-19T17:55:57Z</time>
      </trkpt>
      <trkpt lat="44.76592" lon="6.56587">
        <ele>979.8</ele>
        <time>2022-07-19T17:55:58Z</time>
      </trkpt>
      <trkpt lat="44.76596" lon="6.56582">
        <ele>979.8</ele>
        <time>2022-07-19T17:55:59Z</time>
      </trkpt>
      <trkpt lat="44.766" lon="6.56578">
        <ele>979.8</ele>
        <time>2022-07-19T17:56:00Z</time>
      </trkpt>
      <trkpt lat="44.76604" lon="6.56574">
        <ele>979.8</ele>
        <time>2022-07-19T17:56:01Z</time>
      </trkpt>
      <trkpt lat="44.76608" lon="6.5657">
        <ele>979.8</ele>
        <time>2022-07-19T17:56:02Z</time>
      </trkpt>
      <trkpt lat="44.76611" lon="6.56566">
        <ele>979.8</ele>
        <time>2022-07-19T17:56:03Z</time>
      </trkpt>
      <trkpt lat="44.76615" lon="6.56562">
        <ele>979.8</ele>
        <time>2022-07-19T17:56:04Z</time>
      </trkpt>
      <trkpt lat="44.76619" lon="6.56557">
        <ele>979.8</ele>
        <time>2022-07-19T17:56:05Z</time>
      </trkpt>
      <trkpt lat="44.76623" lon="6.56553">
        <ele>979.8</ele>
        <time>2022-07-19T17:56:06Z</time>
      </trkpt>
      <trkpt lat="44.76627" lon="6.56549">
        <ele>979.8</ele>
        <time>2022-07-19T17:56:07Z</time>
      </trkpt>
      <trkpt lat="44.76631" lon="6.56545">
        <ele>979.8</ele>
        <time>2022-07-19T17:56:08Z</time>
      </trkpt>
      <trkpt lat="44.76635" lon="6.56541">
        <ele>979.8</ele>
        <time>2022-07-19T17:56:09Z</time>
      </trkpt>
      <trkpt lat="44.76639" lon="6.56537">
        <ele>979.8</ele>
        <time>2022-07-19T17:56:10Z</time>
      </trkpt>
      <trkpt lat="44.76643" lon="6.56533">
        <ele>979.8</ele>
        <time>2022-07-19T17:56:11Z</time>
      </trkpt>
      <trkpt lat="44.76647" lon="6.56528">
        <ele>979.8</ele>
        <time>2022-07-19T17:56:12Z</time>
      </trkpt>
      <trkpt lat="44.76651" lon="6.56524">
        <ele>979.8</ele>
        <time>2022-07-19T17:56:13Z</time>
      </trkpt>
      <trkpt lat="44.76655" lon="6.5652">
        <ele>979.8</ele>
        <time>2022-07-19T17:56:14Z</time>
      </trkpt>
      <trkpt lat="44.76659" lon="6.56515">
        <ele>979.8</ele>
        <time>2022-07-19T17:56:15Z</time>
      </trkpt>
      <trkpt lat="44.76663" lon="6.56511">
        <ele>979.8</ele>
        <time>2022-07-19T17:56:16Z</time>
      </trkpt>
      <trkpt lat="44.76667" lon="6.56507">
        <ele>979.8</ele>
        <time>2022-07-19T17:56:17Z</time>
      </trkpt>
      <trkpt lat="44.76671" lon="6.56503">
        <ele>980</ele>
        <time>2022-07-19T17:56:18Z</time>
      </trkpt>
      <trkpt lat="44.76675" lon="6.56498">
        <ele>980</ele>
        <time>2022-07-19T17:56:19Z</time>
      </trkpt>
      <trkpt lat="44.76679" lon="6.56494">
        <ele>980</ele>
        <time>2022-07-19T17:56:20Z</time>
      </trkpt>
      <trkpt lat="44.76684" lon="6.56489">
        <ele>980</ele>
        <time>2022-07-19T17:56:21Z</time>
      </trkpt>
      <trkpt lat="44.76688" lon="6.56485">
        <ele>980</ele>
        <time>2022-07-19T17:56:22Z</time>
      </trkpt>
      <trkpt lat="44.76692" lon="6.5648">
        <ele>980</ele>
        <time>2022-07-19T17:56:23Z</time>
      </trkpt>
      <trkpt lat="44.76696" lon="6.56476">
        <ele>980</ele>
        <time>2022-07-19T17:56:24Z</time>
      </trkpt>
      <trkpt lat="44.767" lon="6.56471">
        <ele>980</ele>
        <time>2022-07-19T17:56:25Z</time>
      </trkpt>
      <trkpt lat="44.76704" lon="6.56467">
        <ele>980</ele>
        <time>2022-07-19T17:56:26Z</time>
      </trkpt>
      <trkpt lat="44.76709" lon="6.56462">
        <ele>980.4</ele>
        <time>2022-07-19T17:56:27Z</time>
      </trkpt>
      <trkpt lat="44.76713" lon="6.56458">
        <ele>980.4</ele>
        <time>2022-07-19T17:56:28Z</time>
      </trkpt>
      <trkpt lat="44.76717" lon="6.56453">
        <ele>980.4</ele>
        <time>2022-07-19T17:56:29Z</time>
      </trkpt>
      <trkpt lat="44.76721" lon="6.56449">
        <ele>980.4</ele>
        <time>2022-07-19T17:56:30Z</time>
      </trkpt>
      <trkpt lat="44.76725" lon="6.56444">
        <ele>980.4</ele>
        <time>2022-07-19T17:56:31Z</time>
      </trkpt>
      <trkpt lat="44.7673" lon="6.5644">
        <ele>980.6</ele>
        <time>2022-07-19T17:56:32Z</time>
      </trkpt>
      <trkpt lat="44.76734" lon="6.56436">
        <ele>980.6</ele>
        <time>2022-07-19T17:56:33Z</time>
      </trkpt>
      <trkpt lat="44.76738" lon="6.56431">
        <ele>980.6</ele>
        <time>2022-07-19T17:56:34Z</time>
      </trkpt>
      <trkpt lat="44.76742" lon="6.56427">
        <ele>980.8</ele>
        <time>2022-07-19T17:56:35Z</time>
      </trkpt>
      <trkpt lat="44.76746" lon="6.56422">
        <ele>980.8</ele>
        <time>2022-07-19T17:56:36Z</time>
      </trkpt>
      <trkpt lat="44.76749" lon="6.56419">
        <ele>980.8</ele>
        <time>2022-07-19T17:56:37Z</time>
      </trkpt>
      <trkpt lat="44.76752" lon="6.56416">
        <ele>980.8</ele>
        <time>2022-07-19T17:56:38Z</time>
      </trkpt>
      <trkpt lat="44.76759" lon="6.56409">
        <ele>980.8</ele>
        <time>2022-07-19T17:56:39Z</time>
      </trkpt>
      <trkpt lat="44.76763" lon="6.56405">
        <ele>980.8</ele>
        <time>2022-07-19T17:56:40Z</time>
      </trkpt>
      <trkpt lat="44.76767" lon="6.56401">
        <ele>981.2</ele>
        <time>2022-07-19T17:56:41Z</time>
      </trkpt>
      <trkpt lat="44.76771" lon="6.56397">
        <ele>981.2</ele>
        <time>2022-07-19T17:56:42Z</time>
      </trkpt>
      <trkpt lat="44.76775" lon="6.56393">
        <ele>981.2</ele>
        <time>2022-07-19T17:56:43Z</time>
      </trkpt>
      <trkpt lat="44.76779" lon="6.56388">
        <ele>981.2</ele>
        <time>2022-07-19T17:56:44Z</time>
      </trkpt>
      <trkpt lat="44.76783" lon="6.56384">
        <ele>981.2</ele>
        <time>2022-07-19T17:56:45Z</time>
      </trkpt>
      <trkpt lat="44.76787" lon="6.5638">
        <ele>981.2</ele>
        <time>2022-07-19T17:56:46Z</time>
      </trkpt>
      <trkpt lat="44.76792" lon="6.56376">
        <ele>981.2</ele>
        <time>2022-07-19T17:56:47Z</time>
      </trkpt>
      <trkpt lat="44.76796" lon="6.56372">
        <ele>981.2</ele>
        <time>2022-07-19T17:56:48Z</time>
      </trkpt>
      <trkpt lat="44.768" lon="6.56368">
        <ele>981.2</ele>
        <time>2022-07-19T17:56:49Z</time>
      </trkpt>
      <trkpt lat="44.76804" lon="6.56364">
        <ele>981.2</ele>
        <time>2022-07-19T17:56:50Z</time>
      </trkpt>
      <trkpt lat="44.76808" lon="6.5636">
        <ele>981.2</ele>
        <time>2022-07-19T17:56:51Z</time>
      </trkpt>
      <trkpt lat="44.76812" lon="6.56356">
        <ele>981.4</ele>
        <time>2022-07-19T17:56:52Z</time>
      </trkpt>
      <trkpt lat="44.76817" lon="6.56353">
        <ele>981.4</ele>
        <time>2022-07-19T17:56:53Z</time>
      </trkpt>
      <trkpt lat="44.76821" lon="6.56349">
        <ele>981.4</ele>
        <time>2022-07-19T17:56:54Z</time>
      </trkpt>
      <trkpt lat="44.76825" lon="6.56345">
        <ele>981.4</ele>
        <time>2022-07-19T17:56:55Z</time>
      </trkpt>
      <trkpt lat="44.76829" lon="6.56342">
        <ele>981.4</ele>
        <time>2022-07-19T17:56:56Z</time>
      </trkpt>
      <trkpt lat="44.76833" lon="6.56339">
        <ele>981.8</ele>
        <time>2022-07-19T17:56:57Z</time>
      </trkpt>
      <trkpt lat="44.76837" lon="6.56335">
        <ele>981.8</ele>
        <time>2022-07-19T17:56:58Z</time>
      </trkpt>
      <trkpt lat="44.76841" lon="6.56332">
        <ele>982</ele>
        <time>2022-07-19T17:56:59Z</time>
      </trkpt>
      <trkpt lat="44.76845" lon="6.56329">
        <ele>982</ele>
        <time>2022-07-19T17:57:00Z</time>
      </trkpt>
      <trkpt lat="44.76849" lon="6.56325">
        <ele>982</ele>
        <time>2022-07-19T17:57:01Z</time>
      </trkpt>
      <trkpt lat="44.76853" lon="6.56322">
        <ele>982.2</ele>
        <time>2022-07-19T17:57:02Z</time>
      </trkpt>
      <trkpt lat="44.76857" lon="6.56319">
        <ele>982.2</ele>
        <time>2022-07-19T17:57:03Z</time>
      </trkpt>
      <trkpt lat="44.76861" lon="6.56316">
        <ele>982.4</ele>
        <time>2022-07-19T17:57:04Z</time>
      </trkpt>
      <trkpt lat="44.76865" lon="6.56313">
        <ele>982.4</ele>
        <time>2022-07-19T17:57:05Z</time>
      </trkpt>
      <trkpt lat="44.76869" lon="6.5631">
        <ele>982.8</ele>
        <time>2022-07-19T17:57:06Z</time>
      </trkpt>
      <trkpt lat="44.76872" lon="6.56308">
        <ele>982.8</ele>
        <time>2022-07-19T17:57:07Z</time>
      </trkpt>
      <trkpt lat="44.76876" lon="6.56305">
        <ele>982.8</ele>
        <time>2022-07-19T17:57:08Z</time>
      </trkpt>
      <trkpt lat="44.7688" lon="6.56303">
        <ele>983.2</ele>
        <time>2022-07-19T17:57:09Z</time>
      </trkpt>
      <trkpt lat="44.76884" lon="6.563">
        <ele>983.2</ele>
        <time>2022-07-19T17:57:10Z</time>
      </trkpt>
      <trkpt lat="44.76887" lon="6.56297">
        <ele>983</ele>
        <time>2022-07-19T17:57:11Z</time>
      </trkpt>
      <trkpt lat="44.76891" lon="6.56295">
        <ele>983</ele>
        <time>2022-07-19T17:57:12Z</time>
      </trkpt>
      <trkpt lat="44.76895" lon="6.56292">
        <ele>983</ele>
        <time>2022-07-19T17:57:13Z</time>
      </trkpt>
      <trkpt lat="44.76899" lon="6.56289">
        <ele>983.2</ele>
        <time>2022-07-19T17:57:14Z</time>
      </trkpt>
      <trkpt lat="44.76904" lon="6.56286">
        <ele>983.2</ele>
        <time>2022-07-19T17:57:15Z</time>
      </trkpt>
      <trkpt lat="44.76908" lon="6.56283">
        <ele>983</ele>
        <time>2022-07-19T17:57:16Z</time>
      </trkpt>
      <trkpt lat="44.76912" lon="6.5628">
        <ele>983</ele>
        <time>2022-07-19T17:57:17Z</time>
      </trkpt>
      <trkpt lat="44.76916" lon="6.56277">
        <ele>983.4</ele>
        <time>2022-07-19T17:57:18Z</time>
      </trkpt>
      <trkpt lat="44.7692" lon="6.56274">
        <ele>983.4</ele>
        <time>2022-07-19T17:57:19Z</time>
      </trkpt>
      <trkpt lat="44.76924" lon="6.56271">
        <ele>983.2</ele>
        <time>2022-07-19T17:57:20Z</time>
      </trkpt>
      <trkpt lat="44.76929" lon="6.56268">
        <ele>983.2</ele>
        <time>2022-07-19T17:57:21Z</time>
      </trkpt>
      <trkpt lat="44.76933" lon="6.56266">
        <ele>983.2</ele>
        <time>2022-07-19T17:57:22Z</time>
      </trkpt>
      <trkpt lat="44.76937" lon="6.56263">
        <ele>983.2</ele>
        <time>2022-07-19T17:57:23Z</time>
      </trkpt>
      <trkpt lat="44.76941" lon="6.5626">
        <ele>983.2</ele>
        <time>2022-07-19T17:57:24Z</time>
      </trkpt>
      <trkpt lat="44.76945" lon="6.56257">
        <ele>983.2</ele>
        <time>2022-07-19T17:57:25Z</time>
      </trkpt>
      <trkpt lat="44.76949" lon="6.56255">
        <ele>983.2</ele>
        <time>2022-07-19T17:57:26Z</time>
      </trkpt>
      <trkpt lat="44.76953" lon="6.56252">
        <ele>983.2</ele>
        <time>2022-07-19T17:57:27Z</time>
      </trkpt>
      <trkpt lat="44.76957" lon="6.56249">
        <ele>983.2</ele>
        <time>2022-07-19T17:57:28Z</time>
      </trkpt>
      <trkpt lat="44.76961" lon="6.56246">
        <ele>983.2</ele>
        <time>2022-07-19T17:57:29Z</time>
      </trkpt>
      <trkpt lat="44.76965" lon="6.56243">
        <ele>983.2</ele>
        <time>2022-07-19T17:57:30Z</time>
      </trkpt>
      <trkpt lat="44.76969" lon="6.5624">
        <ele>983.2</ele>
        <time>2022-07-19T17:57:31Z</time>
      </trkpt>
      <trkpt lat="44.76973" lon="6.56237">
        <ele>983.2</ele>
        <time>2022-07-19T17:57:32Z</time>
      </trkpt>
      <trkpt lat="44.76977" lon="6.56234">
        <ele>983.2</ele>
        <time>2022-07-19T17:57:33Z</time>
      </trkpt>
      <trkpt lat="44.76981" lon="6.56232">
        <ele>983.2</ele>
        <time>2022-07-19T17:57:34Z</time>
      </trkpt>
      <trkpt lat="44.76986" lon="6.56229">
        <ele>983.2</ele>
        <time>2022-07-19T17:57:35Z</time>
      </trkpt>
      <trkpt lat="44.7699" lon="6.56226">
        <ele>983.2</ele>
        <time>2022-07-19T17:57:36Z</time>
      </trkpt>
      <trkpt lat="44.76994" lon="6.56223">
        <ele>983.2</ele>
        <time>2022-07-19T17:57:37Z</time>
      </trkpt>
      <trkpt lat="44.76998" lon="6.5622">
        <ele>983.4</ele>
        <time>2022-07-19T17:57:38Z</time>
      </trkpt>
      <trkpt lat="44.77002" lon="6.56217">
        <ele>983.4</ele>
        <time>2022-07-19T17:57:39Z</time>
      </trkpt>
      <trkpt lat="44.77006" lon="6.56214">
        <ele>983.6</ele>
        <time>2022-07-19T17:57:40Z</time>
      </trkpt>
      <trkpt lat="44.7701" lon="6.56211">
        <ele>983.6</ele>
        <time>2022-07-19T17:57:41Z</time>
      </trkpt>
      <trkpt lat="44.77014" lon="6.56209">
        <ele>983.6</ele>
        <time>2022-07-19T17:57:42Z</time>
      </trkpt>
      <trkpt lat="44.77018" lon="6.56206">
        <ele>983.8</ele>
        <time>2022-07-19T17:57:43Z</time>
      </trkpt>
      <trkpt lat="44.77022" lon="6.56203">
        <ele>983.8</ele>
        <time>2022-07-19T17:57:44Z</time>
      </trkpt>
      <trkpt lat="44.77027" lon="6.562">
        <ele>983.8</ele>
        <time>2022-07-19T17:57:45Z</time>
      </trkpt>
      <trkpt lat="44.77031" lon="6.56198">
        <ele>984</ele>
        <time>2022-07-19T17:57:46Z</time>
      </trkpt>
      <trkpt lat="44.77035" lon="6.56195">
        <ele>984</ele>
        <time>2022-07-19T17:57:47Z</time>
      </trkpt>
      <trkpt lat="44.77039" lon="6.56192">
        <ele>984</ele>
        <time>2022-07-19T17:57:48Z</time>
      </trkpt>
      <trkpt lat="44.77043" lon="6.56189">
        <ele>984</ele>
        <time>2022-07-19T17:57:49Z</time>
      </trkpt>
      <trkpt lat="44.77047" lon="6.56186">
        <ele>984.4</ele>
        <time>2022-07-19T17:57:50Z</time>
      </trkpt>
      <trkpt lat="44.77051" lon="6.56183">
        <ele>984.4</ele>
        <time>2022-07-19T17:57:51Z</time>
      </trkpt>
      <trkpt lat="44.77055" lon="6.56181">
        <ele>984.4</ele>
        <time>2022-07-19T17:57:52Z</time>
      </trkpt>
      <trkpt lat="44.77059" lon="6.56178">
        <ele>984.6</ele>
        <time>2022-07-19T17:57:53Z</time>
      </trkpt>
      <trkpt lat="44.77063" lon="6.56175">
        <ele>984.6</ele>
        <time>2022-07-19T17:57:54Z</time>
      </trkpt>
      <trkpt lat="44.77067" lon="6.56172">
        <ele>984.6</ele>
        <time>2022-07-19T17:57:55Z</time>
      </trkpt>
      <trkpt lat="44.77071" lon="6.5617">
        <ele>984.6</ele>
        <time>2022-07-19T17:57:56Z</time>
      </trkpt>
      <trkpt lat="44.77075" lon="6.56167">
        <ele>984.6</ele>
        <time>2022-07-19T17:57:57Z</time>
      </trkpt>
      <trkpt lat="44.77079" lon="6.56164">
        <ele>984.6</ele>
        <time>2022-07-19T17:57:58Z</time>
      </trkpt>
      <trkpt lat="44.77083" lon="6.56161">
        <ele>984.6</ele>
        <time>2022-07-19T17:57:59Z</time>
      </trkpt>
      <trkpt lat="44.77087" lon="6.56158">
        <ele>984.8</ele>
        <time>2022-07-19T17:58:00Z</time>
      </trkpt>
      <trkpt lat="44.77091" lon="6.56155">
        <ele>984.8</ele>
        <time>2022-07-19T17:58:01Z</time>
      </trkpt>
      <trkpt lat="44.77095" lon="6.56152">
        <ele>984.8</ele>
        <time>2022-07-19T17:58:02Z</time>
      </trkpt>
      <trkpt lat="44.77099" lon="6.56149">
        <ele>984.8</ele>
        <time>2022-07-19T17:58:03Z</time>
      </trkpt>
      <trkpt lat="44.77103" lon="6.56146">
        <ele>984.8</ele>
        <time>2022-07-19T17:58:04Z</time>
      </trkpt>
      <trkpt lat="44.77107" lon="6.56144">
        <ele>984.8</ele>
        <time>2022-07-19T17:58:05Z</time>
      </trkpt>
      <trkpt lat="44.77111" lon="6.56141">
        <ele>984.8</ele>
        <time>2022-07-19T17:58:06Z</time>
      </trkpt>
      <trkpt lat="44.77115" lon="6.56139">
        <ele>984.8</ele>
        <time>2022-07-19T17:58:07Z</time>
      </trkpt>
      <trkpt lat="44.77119" lon="6.56136">
        <ele>985.2</ele>
        <time>2022-07-19T17:58:08Z</time>
      </trkpt>
      <trkpt lat="44.77122" lon="6.56133">
        <ele>985.2</ele>
        <time>2022-07-19T17:58:09Z</time>
      </trkpt>
      <trkpt lat="44.77126" lon="6.5613">
        <ele>985.2</ele>
        <time>2022-07-19T17:58:10Z</time>
      </trkpt>
      <trkpt lat="44.7713" lon="6.56127">
        <ele>985</ele>
        <time>2022-07-19T17:58:11Z</time>
      </trkpt>
      <trkpt lat="44.77134" lon="6.56124">
        <ele>985</ele>
        <time>2022-07-19T17:58:12Z</time>
      </trkpt>
      <trkpt lat="44.77138" lon="6.56121">
        <ele>985</ele>
        <time>2022-07-19T17:58:13Z</time>
      </trkpt>
      <trkpt lat="44.77142" lon="6.56118">
        <ele>985</ele>
        <time>2022-07-19T17:58:14Z</time>
      </trkpt>
      <trkpt lat="44.77146" lon="6.56115">
        <ele>985</ele>
        <time>2022-07-19T17:58:15Z</time>
      </trkpt>
      <trkpt lat="44.7715" lon="6.56111">
        <ele>985</ele>
        <time>2022-07-19T17:58:16Z</time>
      </trkpt>
      <trkpt lat="44.77154" lon="6.56108">
        <ele>984.6</ele>
        <time>2022-07-19T17:58:17Z</time>
      </trkpt>
      <trkpt lat="44.77158" lon="6.56104">
        <ele>984.6</ele>
        <time>2022-07-19T17:58:18Z</time>
      </trkpt>
      <trkpt lat="44.77162" lon="6.561">
        <ele>984.6</ele>
        <time>2022-07-19T17:58:19Z</time>
      </trkpt>
      <trkpt lat="44.77166" lon="6.56096">
        <ele>984.6</ele>
        <time>2022-07-19T17:58:20Z</time>
      </trkpt>
      <trkpt lat="44.77171" lon="6.56092">
        <ele>984.6</ele>
        <time>2022-07-19T17:58:21Z</time>
      </trkpt>
      <trkpt lat="44.77175" lon="6.56088">
        <ele>984.6</ele>
        <time>2022-07-19T17:58:22Z</time>
      </trkpt>
      <trkpt lat="44.77179" lon="6.56085">
        <ele>984.6</ele>
        <time>2022-07-19T17:58:23Z</time>
      </trkpt>
      <trkpt lat="44.77183" lon="6.56081">
        <ele>984.6</ele>
        <time>2022-07-19T17:58:24Z</time>
      </trkpt>
      <trkpt lat="44.77187" lon="6.56078">
        <ele>984.8</ele>
        <time>2022-07-19T17:58:25Z</time>
      </trkpt>
      <trkpt lat="44.77191" lon="6.56074">
        <ele>985.2</ele>
        <time>2022-07-19T17:58:26Z</time>
      </trkpt>
      <trkpt lat="44.77195" lon="6.56071">
        <ele>985.2</ele>
        <time>2022-07-19T17:58:27Z</time>
      </trkpt>
      <trkpt lat="44.77199" lon="6.56068">
        <ele>985.2</ele>
        <time>2022-07-19T17:58:28Z</time>
      </trkpt>
      <trkpt lat="44.77203" lon="6.56064">
        <ele>985.4</ele>
        <time>2022-07-19T17:58:29Z</time>
      </trkpt>
      <trkpt lat="44.77207" lon="6.56061">
        <ele>985.4</ele>
        <time>2022-07-19T17:58:30Z</time>
      </trkpt>
      <trkpt lat="44.77211" lon="6.56058">
        <ele>985.6</ele>
        <time>2022-07-19T17:58:31Z</time>
      </trkpt>
      <trkpt lat="44.77215" lon="6.56056">
        <ele>985.8</ele>
        <time>2022-07-19T17:58:32Z</time>
      </trkpt>
      <trkpt lat="44.77219" lon="6.56053">
        <ele>985.8</ele>
        <time>2022-07-19T17:58:33Z</time>
      </trkpt>
      <trkpt lat="44.77223" lon="6.5605">
        <ele>985.8</ele>
        <time>2022-07-19T17:58:34Z</time>
      </trkpt>
      <trkpt lat="44.77227" lon="6.56047">
        <ele>985.8</ele>
        <time>2022-07-19T17:58:35Z</time>
      </trkpt>
      <trkpt lat="44.77232" lon="6.56045">
        <ele>985.8</ele>
        <time>2022-07-19T17:58:36Z</time>
      </trkpt>
      <trkpt lat="44.77236" lon="6.56042">
        <ele>986</ele>
        <time>2022-07-19T17:58:37Z</time>
      </trkpt>
      <trkpt lat="44.7724" lon="6.5604">
        <ele>986</ele>
        <time>2022-07-19T17:58:38Z</time>
      </trkpt>
      <trkpt lat="44.77244" lon="6.56037">
        <ele>986</ele>
        <time>2022-07-19T17:58:39Z</time>
      </trkpt>
      <trkpt lat="44.77249" lon="6.56035">
        <ele>986.2</ele>
        <time>2022-07-19T17:58:40Z</time>
      </trkpt>
      <trkpt lat="44.77253" lon="6.56033">
        <ele>986.2</ele>
        <time>2022-07-19T17:58:41Z</time>
      </trkpt>
      <trkpt lat="44.77257" lon="6.56031">
        <ele>986.2</ele>
        <time>2022-07-19T17:58:42Z</time>
      </trkpt>
      <trkpt lat="44.77262" lon="6.56029">
        <ele>986.2</ele>
        <time>2022-07-19T17:58:43Z</time>
      </trkpt>
      <trkpt lat="44.77266" lon="6.56027">
        <ele>986.4</ele>
        <time>2022-07-19T17:58:44Z</time>
      </trkpt>
      <trkpt lat="44.77271" lon="6.56025">
        <ele>986.4</ele>
        <time>2022-07-19T17:58:45Z</time>
      </trkpt>
      <trkpt lat="44.77275" lon="6.56024">
        <ele>986.4</ele>
        <time>2022-07-19T17:58:46Z</time>
      </trkpt>
      <trkpt lat="44.7728" lon="6.56022">
        <ele>986.4</ele>
        <time>2022-07-19T17:58:47Z</time>
      </trkpt>
      <trkpt lat="44.77285" lon="6.56021">
        <ele>986.4</ele>
        <time>2022-07-19T17:58:48Z</time>
      </trkpt>
      <trkpt lat="44.77289" lon="6.5602">
        <ele>986.4</ele>
        <time>2022-07-19T17:58:49Z</time>
      </trkpt>
      <trkpt lat="44.77294" lon="6.56019">
        <ele>986.4</ele>
        <time>2022-07-19T17:58:50Z</time>
      </trkpt>
      <trkpt lat="44.77299" lon="6.56018">
        <ele>986.4</ele>
        <time>2022-07-19T17:58:51Z</time>
      </trkpt>
      <trkpt lat="44.77304" lon="6.56017">
        <ele>986.6</ele>
        <time>2022-07-19T17:58:52Z</time>
      </trkpt>
      <trkpt lat="44.77309" lon="6.56016">
        <ele>986.6</ele>
        <time>2022-07-19T17:58:53Z</time>
      </trkpt>
      <trkpt lat="44.77314" lon="6.56014">
        <ele>986.6</ele>
        <time>2022-07-19T17:58:54Z</time>
      </trkpt>
      <trkpt lat="44.77319" lon="6.56013">
        <ele>986.6</ele>
        <time>2022-07-19T17:58:55Z</time>
      </trkpt>
      <trkpt lat="44.77324" lon="6.56012">
        <ele>986.6</ele>
        <time>2022-07-19T17:58:56Z</time>
      </trkpt>
      <trkpt lat="44.77329" lon="6.56011">
        <ele>986.6</ele>
        <time>2022-07-19T17:58:57Z</time>
      </trkpt>
      <trkpt lat="44.77334" lon="6.56011">
        <ele>986.6</ele>
        <time>2022-07-19T17:58:58Z</time>
      </trkpt>
      <trkpt lat="44.77339" lon="6.5601">
        <ele>986.6</ele>
        <time>2022-07-19T17:58:59Z</time>
      </trkpt>
      <trkpt lat="44.77344" lon="6.56009">
        <ele>986.6</ele>
        <time>2022-07-19T17:59:00Z</time>
      </trkpt>
      <trkpt lat="44.77349" lon="6.56008">
        <ele>986.6</ele>
        <time>2022-07-19T17:59:01Z</time>
      </trkpt>
      <trkpt lat="44.77354" lon="6.56007">
        <ele>986.6</ele>
        <time>2022-07-19T17:59:02Z</time>
      </trkpt>
      <trkpt lat="44.77358" lon="6.56006">
        <ele>986.6</ele>
        <time>2022-07-19T17:59:03Z</time>
      </trkpt>
      <trkpt lat="44.77363" lon="6.56005">
        <ele>986.6</ele>
        <time>2022-07-19T17:59:04Z</time>
      </trkpt>
      <trkpt lat="44.77368" lon="6.56004">
        <ele>986.6</ele>
        <time>2022-07-19T17:59:05Z</time>
      </trkpt>
      <trkpt lat="44.77373" lon="6.56003">
        <ele>986.6</ele>
        <time>2022-07-19T17:59:06Z</time>
      </trkpt>
      <trkpt lat="44.77378" lon="6.56003">
        <ele>986.6</ele>
        <time>2022-07-19T17:59:07Z</time>
      </trkpt>
      <trkpt lat="44.77383" lon="6.56002">
        <ele>986.6</ele>
        <time>2022-07-19T17:59:08Z</time>
      </trkpt>
      <trkpt lat="44.77387" lon="6.56001">
        <ele>986.6</ele>
        <time>2022-07-19T17:59:09Z</time>
      </trkpt>
      <trkpt lat="44.77392" lon="6.56">
        <ele>986.6</ele>
        <time>2022-07-19T17:59:10Z</time>
      </trkpt>
      <trkpt lat="44.77396" lon="6.55999">
        <ele>986.6</ele>
        <time>2022-07-19T17:59:11Z</time>
      </trkpt>
      <trkpt lat="44.77401" lon="6.55998">
        <ele>986.6</ele>
        <time>2022-07-19T17:59:12Z</time>
      </trkpt>
      <trkpt lat="44.77406" lon="6.55997">
        <ele>986.6</ele>
        <time>2022-07-19T17:59:13Z</time>
      </trkpt>
      <trkpt lat="44.7741" lon="6.55996">
        <ele>986.6</ele>
        <time>2022-07-19T17:59:14Z</time>
      </trkpt>
      <trkpt lat="44.77415" lon="6.55995">
        <ele>986.6</ele>
        <time>2022-07-19T17:59:15Z</time>
      </trkpt>
      <trkpt lat="44.77419" lon="6.55994">
        <ele>986.6</ele>
        <time>2022-07-19T17:59:16Z</time>
      </trkpt>
      <trkpt lat="44.77424" lon="6.55993">
        <ele>987</ele>
        <time>2022-07-19T17:59:17Z</time>
      </trkpt>
      <trkpt lat="44.77428" lon="6.55993">
        <ele>987</ele>
        <time>2022-07-19T17:59:18Z</time>
      </trkpt>
      <trkpt lat="44.77433" lon="6.55992">
        <ele>987</ele>
        <time>2022-07-19T17:59:19Z</time>
      </trkpt>
      <trkpt lat="44.77437" lon="6.55991">
        <ele>987.2</ele>
        <time>2022-07-19T17:59:20Z</time>
      </trkpt>
      <trkpt lat="44.77442" lon="6.5599">
        <ele>987.2</ele>
        <time>2022-07-19T17:59:21Z</time>
      </trkpt>
      <trkpt lat="44.77446" lon="6.55989">
        <ele>987.2</ele>
        <time>2022-07-19T17:59:22Z</time>
      </trkpt>
      <trkpt lat="44.77451" lon="6.55989">
        <ele>987.2</ele>
        <time>2022-07-19T17:59:23Z</time>
      </trkpt>
      <trkpt lat="44.77455" lon="6.55988">
        <ele>987.2</ele>
        <time>2022-07-19T17:59:24Z</time>
      </trkpt>
      <trkpt lat="44.77459" lon="6.55987">
        <ele>987.2</ele>
        <time>2022-07-19T17:59:25Z</time>
      </trkpt>
      <trkpt lat="44.77464" lon="6.55986">
        <ele>987.4</ele>
        <time>2022-07-19T17:59:26Z</time>
      </trkpt>
      <trkpt lat="44.77468" lon="6.55985">
        <ele>987.4</ele>
        <time>2022-07-19T17:59:27Z</time>
      </trkpt>
      <trkpt lat="44.77473" lon="6.55985">
        <ele>987.4</ele>
        <time>2022-07-19T17:59:28Z</time>
      </trkpt>
      <trkpt lat="44.77477" lon="6.55984">
        <ele>987.4</ele>
        <time>2022-07-19T17:59:29Z</time>
      </trkpt>
      <trkpt lat="44.77481" lon="6.55983">
        <ele>987.4</ele>
        <time>2022-07-19T17:59:30Z</time>
      </trkpt>
      <trkpt lat="44.77486" lon="6.55982">
        <ele>987.4</ele>
        <time>2022-07-19T17:59:31Z</time>
      </trkpt>
      <trkpt lat="44.7749" lon="6.55982">
        <ele>987.4</ele>
        <time>2022-07-19T17:59:32Z</time>
      </trkpt>
      <trkpt lat="44.77495" lon="6.55981">
        <ele>987.4</ele>
        <time>2022-07-19T17:59:33Z</time>
      </trkpt>
      <trkpt lat="44.77499" lon="6.5598">
        <ele>987.4</ele>
        <time>2022-07-19T17:59:34Z</time>
      </trkpt>
      <trkpt lat="44.77504" lon="6.55979">
        <ele>987.4</ele>
        <time>2022-07-19T17:59:35Z</time>
      </trkpt>
      <trkpt lat="44.77508" lon="6.55979">
        <ele>987.4</ele>
        <time>2022-07-19T17:59:36Z</time>
      </trkpt>
      <trkpt lat="44.77513" lon="6.55979">
        <ele>987.4</ele>
        <time>2022-07-19T17:59:37Z</time>
      </trkpt>
      <trkpt lat="44.77518" lon="6.55978">
        <ele>987.4</ele>
        <time>2022-07-19T17:59:38Z</time>
      </trkpt>
      <trkpt lat="44.77522" lon="6.55978">
        <ele>987.4</ele>
        <time>2022-07-19T17:59:39Z</time>
      </trkpt>
      <trkpt lat="44.77527" lon="6.55978">
        <ele>987.4</ele>
        <time>2022-07-19T17:59:40Z</time>
      </trkpt>
      <trkpt lat="44.77532" lon="6.55978">
        <ele>987.4</ele>
        <time>2022-07-19T17:59:41Z</time>
      </trkpt>
      <trkpt lat="44.77537" lon="6.55978">
        <ele>987.4</ele>
        <time>2022-07-19T17:59:42Z</time>
      </trkpt>
      <trkpt lat="44.77541" lon="6.55979">
        <ele>987.4</ele>
        <time>2022-07-19T17:59:43Z</time>
      </trkpt>
      <trkpt lat="44.77546" lon="6.55979">
        <ele>987.4</ele>
        <time>2022-07-19T17:59:44Z</time>
      </trkpt>
      <trkpt lat="44.77551" lon="6.55979">
        <ele>987.4</ele>
        <time>2022-07-19T17:59:45Z</time>
      </trkpt>
      <trkpt lat="44.77555" lon="6.5598">
        <ele>987.4</ele>
        <time>2022-07-19T17:59:46Z</time>
      </trkpt>
      <trkpt lat="44.7756" lon="6.5598">
        <ele>987.8</ele>
        <time>2022-07-19T17:59:47Z</time>
      </trkpt>
      <trkpt lat="44.77565" lon="6.55981">
        <ele>987.8</ele>
        <time>2022-07-19T17:59:48Z</time>
      </trkpt>
      <trkpt lat="44.77569" lon="6.55982">
        <ele>987.8</ele>
        <time>2022-07-19T17:59:49Z</time>
      </trkpt>
      <trkpt lat="44.77574" lon="6.55983">
        <ele>987.8</ele>
        <time>2022-07-19T17:59:50Z</time>
      </trkpt>
      <trkpt lat="44.77579" lon="6.55983">
        <ele>987.8</ele>
        <time>2022-07-19T17:59:51Z</time>
      </trkpt>
      <trkpt lat="44.77583" lon="6.55984">
        <ele>987.8</ele>
        <time>2022-07-19T17:59:52Z</time>
      </trkpt>
      <trkpt lat="44.77588" lon="6.55985">
        <ele>987.8</ele>
        <time>2022-07-19T17:59:53Z</time>
      </trkpt>
      <trkpt lat="44.77593" lon="6.55986">
        <ele>987.8</ele>
        <time>2022-07-19T17:59:54Z</time>
      </trkpt>
      <trkpt lat="44.77597" lon="6.55988">
        <ele>987.8</ele>
        <time>2022-07-19T17:59:55Z</time>
      </trkpt>
      <trkpt lat="44.77601" lon="6.55989">
        <ele>987.8</ele>
        <time>2022-07-19T17:59:56Z</time>
      </trkpt>
      <trkpt lat="44.77605" lon="6.55991">
        <ele>987.8</ele>
        <time>2022-07-19T17:59:57Z</time>
      </trkpt>
      <trkpt lat="44.77608" lon="6.55992">
        <ele>987.4</ele>
        <time>2022-07-19T17:59:58Z</time>
      </trkpt>
      <trkpt lat="44.77612" lon="6.55993">
        <ele>987.4</ele>
        <time>2022-07-19T17:59:59Z</time>
      </trkpt>
      <trkpt lat="44.77615" lon="6.55994">
        <ele>987.4</ele>
        <time>2022-07-19T18:00:00Z</time>
      </trkpt>
      <trkpt lat="44.77619" lon="6.55994">
        <ele>987.4</ele>
        <time>2022-07-19T18:00:01Z</time>
      </trkpt>
      <trkpt lat="44.77622" lon="6.55995">
        <ele>987.4</ele>
        <time>2022-07-19T18:00:02Z</time>
      </trkpt>
      <trkpt lat="44.77626" lon="6.55995">
        <ele>987.4</ele>
        <time>2022-07-19T18:00:03Z</time>
      </trkpt>
      <trkpt lat="44.7763" lon="6.55996">
        <ele>987.4</ele>
        <time>2022-07-19T18:00:04Z</time>
      </trkpt>
      <trkpt lat="44.77634" lon="6.55996">
        <ele>987.8</ele>
        <time>2022-07-19T18:00:05Z</time>
      </trkpt>
      <trkpt lat="44.77639" lon="6.55996">
        <ele>987.8</ele>
        <time>2022-07-19T18:00:06Z</time>
      </trkpt>
      <trkpt lat="44.77643" lon="6.55996">
        <ele>988.2</ele>
        <time>2022-07-19T18:00:07Z</time>
      </trkpt>
      <trkpt lat="44.77647" lon="6.55995">
        <ele>988.2</ele>
        <time>2022-07-19T18:00:08Z</time>
      </trkpt>
      <trkpt lat="44.77652" lon="6.55995">
        <ele>988.4</ele>
        <time>2022-07-19T18:00:09Z</time>
      </trkpt>
      <trkpt lat="44.77656" lon="6.55995">
        <ele>988.4</ele>
        <time>2022-07-19T18:00:10Z</time>
      </trkpt>
      <trkpt lat="44.7766" lon="6.55995">
        <ele>988.4</ele>
        <time>2022-07-19T18:00:11Z</time>
      </trkpt>
      <trkpt lat="44.77665" lon="6.55996">
        <ele>988.6</ele>
        <time>2022-07-19T18:00:12Z</time>
      </trkpt>
      <trkpt lat="44.77669" lon="6.55997">
        <ele>988.6</ele>
        <time>2022-07-19T18:00:13Z</time>
      </trkpt>
      <trkpt lat="44.77674" lon="6.55997">
        <ele>988.6</ele>
        <time>2022-07-19T18:00:14Z</time>
      </trkpt>
      <trkpt lat="44.77678" lon="6.55998">
        <ele>989</ele>
        <time>2022-07-19T18:00:15Z</time>
      </trkpt>
      <trkpt lat="44.77683" lon="6.55998">
        <ele>989</ele>
        <time>2022-07-19T18:00:16Z</time>
      </trkpt>
      <trkpt lat="44.77687" lon="6.55998">
        <ele>989</ele>
        <time>2022-07-19T18:00:18Z</time>
      </trkpt>
      <trkpt lat="44.77692" lon="6.55999">
        <ele>989.2</ele>
        <time>2022-07-19T18:00:19Z</time>
      </trkpt>
      <trkpt lat="44.77696" lon="6.55999">
        <ele>989.2</ele>
        <time>2022-07-19T18:00:20Z</time>
      </trkpt>
      <trkpt lat="44.77701" lon="6.56">
        <ele>989.2</ele>
        <time>2022-07-19T18:00:21Z</time>
      </trkpt>
      <trkpt lat="44.77706" lon="6.56">
        <ele>989.4</ele>
        <time>2022-07-19T18:00:22Z</time>
      </trkpt>
      <trkpt lat="44.7771" lon="6.56">
        <ele>989.4</ele>
        <time>2022-07-19T18:00:23Z</time>
      </trkpt>
      <trkpt lat="44.77715" lon="6.56001">
        <ele>989.4</ele>
        <time>2022-07-19T18:00:24Z</time>
      </trkpt>
      <trkpt lat="44.77719" lon="6.56001">
        <ele>989.8</ele>
        <time>2022-07-19T18:00:25Z</time>
      </trkpt>
      <trkpt lat="44.77724" lon="6.56001">
        <ele>989.8</ele>
        <time>2022-07-19T18:00:26Z</time>
      </trkpt>
      <trkpt lat="44.77728" lon="6.56002">
        <ele>989.8</ele>
        <time>2022-07-19T18:00:27Z</time>
      </trkpt>
      <trkpt lat="44.77733" lon="6.56002">
        <ele>990</ele>
        <time>2022-07-19T18:00:28Z</time>
      </trkpt>
      <trkpt lat="44.77737" lon="6.56002">
        <ele>990</ele>
        <time>2022-07-19T18:00:29Z</time>
      </trkpt>
      <trkpt lat="44.77742" lon="6.56003">
        <ele>990</ele>
        <time>2022-07-19T18:00:30Z</time>
      </trkpt>
      <trkpt lat="44.77746" lon="6.56003">
        <ele>990</ele>
        <time>2022-07-19T18:00:31Z</time>
      </trkpt>
      <trkpt lat="44.77751" lon="6.56004">
        <ele>990</ele>
        <time>2022-07-19T18:00:32Z</time>
      </trkpt>
      <trkpt lat="44.77755" lon="6.56004">
        <ele>990.2</ele>
        <time>2022-07-19T18:00:33Z</time>
      </trkpt>
      <trkpt lat="44.7776" lon="6.56005">
        <ele>990.2</ele>
        <time>2022-07-19T18:00:34Z</time>
      </trkpt>
      <trkpt lat="44.77765" lon="6.56006">
        <ele>990.2</ele>
        <time>2022-07-19T18:00:35Z</time>
      </trkpt>
      <trkpt lat="44.77769" lon="6.56008">
        <ele>990.2</ele>
        <time>2022-07-19T18:00:36Z</time>
      </trkpt>
      <trkpt lat="44.77774" lon="6.56009">
        <ele>990.2</ele>
        <time>2022-07-19T18:00:37Z</time>
      </trkpt>
      <trkpt lat="44.77779" lon="6.5601">
        <ele>990.2</ele>
        <time>2022-07-19T18:00:38Z</time>
      </trkpt>
      <trkpt lat="44.77783" lon="6.56011">
        <ele>990.2</ele>
        <time>2022-07-19T18:00:39Z</time>
      </trkpt>
      <trkpt lat="44.77788" lon="6.56012">
        <ele>990.4</ele>
        <time>2022-07-19T18:00:40Z</time>
      </trkpt>
      <trkpt lat="44.77793" lon="6.56014">
        <ele>990.4</ele>
        <time>2022-07-19T18:00:41Z</time>
      </trkpt>
      <trkpt lat="44.77797" lon="6.56015">
        <ele>990.4</ele>
        <time>2022-07-19T18:00:42Z</time>
      </trkpt>
      <trkpt lat="44.77802" lon="6.56017">
        <ele>990.4</ele>
        <time>2022-07-19T18:00:43Z</time>
      </trkpt>
      <trkpt lat="44.77807" lon="6.56019">
        <ele>990.4</ele>
        <time>2022-07-19T18:00:44Z</time>
      </trkpt>
      <trkpt lat="44.77811" lon="6.5602">
        <ele>990.4</ele>
        <time>2022-07-19T18:00:45Z</time>
      </trkpt>
      <trkpt lat="44.77816" lon="6.56022">
        <ele>990.4</ele>
        <time>2022-07-19T18:00:46Z</time>
      </trkpt>
      <trkpt lat="44.77821" lon="6.56024">
        <ele>990.4</ele>
        <time>2022-07-19T18:00:47Z</time>
      </trkpt>
      <trkpt lat="44.77826" lon="6.56025">
        <ele>990.4</ele>
        <time>2022-07-19T18:00:48Z</time>
      </trkpt>
      <trkpt lat="44.77831" lon="6.56027">
        <ele>990.4</ele>
        <time>2022-07-19T18:00:49Z</time>
      </trkpt>
      <trkpt lat="44.77835" lon="6.5603">
        <ele>990.4</ele>
        <time>2022-07-19T18:00:50Z</time>
      </trkpt>
      <trkpt lat="44.7784" lon="6.56032">
        <ele>990.4</ele>
        <time>2022-07-19T18:00:51Z</time>
      </trkpt>
      <trkpt lat="44.77845" lon="6.56034">
        <ele>990.4</ele>
        <time>2022-07-19T18:00:52Z</time>
      </trkpt>
      <trkpt lat="44.7785" lon="6.56036">
        <ele>990.4</ele>
        <time>2022-07-19T18:00:53Z</time>
      </trkpt>
      <trkpt lat="44.77854" lon="6.56038">
        <ele>990.6</ele>
        <time>2022-07-19T18:00:54Z</time>
      </trkpt>
      <trkpt lat="44.77859" lon="6.5604">
        <ele>990.6</ele>
        <time>2022-07-19T18:00:55Z</time>
      </trkpt>
      <trkpt lat="44.77864" lon="6.56042">
        <ele>990.6</ele>
        <time>2022-07-19T18:00:56Z</time>
      </trkpt>
      <trkpt lat="44.77868" lon="6.56045">
        <ele>990.6</ele>
        <time>2022-07-19T18:00:57Z</time>
      </trkpt>
      <trkpt lat="44.77873" lon="6.56047">
        <ele>991</ele>
        <time>2022-07-19T18:00:58Z</time>
      </trkpt>
      <trkpt lat="44.77878" lon="6.56049">
        <ele>991</ele>
        <time>2022-07-19T18:00:59Z</time>
      </trkpt>
      <trkpt lat="44.77883" lon="6.56051">
        <ele>991</ele>
        <time>2022-07-19T18:01:00Z</time>
      </trkpt>
      <trkpt lat="44.77887" lon="6.56053">
        <ele>991</ele>
        <time>2022-07-19T18:01:01Z</time>
      </trkpt>
      <trkpt lat="44.77892" lon="6.56055">
        <ele>991.2</ele>
        <time>2022-07-19T18:01:02Z</time>
      </trkpt>
      <trkpt lat="44.77896" lon="6.56057">
        <ele>991.2</ele>
        <time>2022-07-19T18:01:03Z</time>
      </trkpt>
      <trkpt lat="44.77901" lon="6.56059">
        <ele>991.2</ele>
        <time>2022-07-19T18:01:04Z</time>
      </trkpt>
      <trkpt lat="44.77906" lon="6.5606">
        <ele>991.2</ele>
        <time>2022-07-19T18:01:05Z</time>
      </trkpt>
      <trkpt lat="44.7791" lon="6.56062">
        <ele>991.4</ele>
        <time>2022-07-19T18:01:06Z</time>
      </trkpt>
      <trkpt lat="44.77915" lon="6.56064">
        <ele>991.4</ele>
        <time>2022-07-19T18:01:07Z</time>
      </trkpt>
      <trkpt lat="44.77919" lon="6.56066">
        <ele>991.4</ele>
        <time>2022-07-19T18:01:08Z</time>
      </trkpt>
      <trkpt lat="44.77923" lon="6.56068">
        <ele>991.8</ele>
        <time>2022-07-19T18:01:09Z</time>
      </trkpt>
      <trkpt lat="44.77927" lon="6.56069">
        <ele>991.8</ele>
        <time>2022-07-19T18:01:10Z</time>
      </trkpt>
      <trkpt lat="44.77931" lon="6.56071">
        <ele>992</ele>
        <time>2022-07-19T18:01:11Z</time>
      </trkpt>
      <trkpt lat="44.77935" lon="6.56072">
        <ele>992</ele>
        <time>2022-07-19T18:01:12Z</time>
      </trkpt>
      <trkpt lat="44.77938" lon="6.56073">
        <ele>992</ele>
        <time>2022-07-19T18:01:13Z</time>
      </trkpt>
      <trkpt lat="44.77942" lon="6.56075">
        <ele>992.4</ele>
        <time>2022-07-19T18:01:14Z</time>
      </trkpt>
      <trkpt lat="44.77945" lon="6.56076">
        <ele>992.6</ele>
        <time>2022-07-19T18:01:15Z</time>
      </trkpt>
      <trkpt lat="44.77948" lon="6.56078">
        <ele>992.8</ele>
        <time>2022-07-19T18:01:16Z</time>
      </trkpt>
      <trkpt lat="44.77951" lon="6.56079">
        <ele>993</ele>
        <time>2022-07-19T18:01:17Z</time>
      </trkpt>
      <trkpt lat="44.77954" lon="6.5608">
        <ele>993</ele>
        <time>2022-07-19T18:01:18Z</time>
      </trkpt>
      <trkpt lat="44.77957" lon="6.56082">
        <ele>993.4</ele>
        <time>2022-07-19T18:01:19Z</time>
      </trkpt>
      <trkpt lat="44.77959" lon="6.56082">
        <ele>993.8</ele>
        <time>2022-07-19T18:01:20Z</time>
      </trkpt>
      <trkpt lat="44.77962" lon="6.56083">
        <ele>993.8</ele>
        <time>2022-07-19T18:01:21Z</time>
      </trkpt>
      <trkpt lat="44.77965" lon="6.56085">
        <ele>994.2</ele>
        <time>2022-07-19T18:01:22Z</time>
      </trkpt>
      <trkpt lat="44.77967" lon="6.56086">
        <ele>994.2</ele>
        <time>2022-07-19T18:01:23Z</time>
      </trkpt>
      <trkpt lat="44.7797" lon="6.56087">
        <ele>994.6</ele>
        <time>2022-07-19T18:01:24Z</time>
      </trkpt>
      <trkpt lat="44.77973" lon="6.56088">
        <ele>994.6</ele>
        <time>2022-07-19T18:01:25Z</time>
      </trkpt>
      <trkpt lat="44.77975" lon="6.56089">
        <ele>995</ele>
        <time>2022-07-19T18:01:26Z</time>
      </trkpt>
      <trkpt lat="44.77978" lon="6.56089">
        <ele>995</ele>
        <time>2022-07-19T18:01:27Z</time>
      </trkpt>
      <trkpt lat="44.7798" lon="6.5609">
        <ele>995.2</ele>
        <time>2022-07-19T18:01:28Z</time>
      </trkpt>
      <trkpt lat="44.77983" lon="6.56091">
        <ele>995.2</ele>
        <time>2022-07-19T18:01:29Z</time>
      </trkpt>
      <trkpt lat="44.77985" lon="6.56092">
        <ele>995.6</ele>
        <time>2022-07-19T18:01:30Z</time>
      </trkpt>
      <trkpt lat="44.77988" lon="6.56093">
        <ele>995.8</ele>
        <time>2022-07-19T18:01:31Z</time>
      </trkpt>
      <trkpt lat="44.7799" lon="6.56094">
        <ele>995.8</ele>
        <time>2022-07-19T18:01:32Z</time>
      </trkpt>
      <trkpt lat="44.77992" lon="6.56094">
        <ele>996</ele>
        <time>2022-07-19T18:01:33Z</time>
      </trkpt>
      <trkpt lat="44.77995" lon="6.56095">
        <ele>996.4</ele>
        <time>2022-07-19T18:01:34Z</time>
      </trkpt>
      <trkpt lat="44.77997" lon="6.56096">
        <ele>996.4</ele>
        <time>2022-07-19T18:01:35Z</time>
      </trkpt>
      <trkpt lat="44.77999" lon="6.56097">
        <ele>996.4</ele>
        <time>2022-07-19T18:01:36Z</time>
      </trkpt>
      <trkpt lat="44.78001" lon="6.56097">
        <ele>996.6</ele>
        <time>2022-07-19T18:01:37Z</time>
      </trkpt>
      <trkpt lat="44.78003" lon="6.56098">
        <ele>996.6</ele>
        <time>2022-07-19T18:01:38Z</time>
      </trkpt>
      <trkpt lat="44.78005" lon="6.56099">
        <ele>997</ele>
        <time>2022-07-19T18:01:39Z</time>
      </trkpt>
      <trkpt lat="44.78007" lon="6.561">
        <ele>997</ele>
        <time>2022-07-19T18:01:40Z</time>
      </trkpt>
      <trkpt lat="44.78009" lon="6.561">
        <ele>997.6</ele>
        <time>2022-07-19T18:01:41Z</time>
      </trkpt>
      <trkpt lat="44.78012" lon="6.56101">
        <ele>997.8</ele>
        <time>2022-07-19T18:01:42Z</time>
      </trkpt>
      <trkpt lat="44.78014" lon="6.56102">
        <ele>997.8</ele>
        <time>2022-07-19T18:01:43Z</time>
      </trkpt>
      <trkpt lat="44.78016" lon="6.56102">
        <ele>998</ele>
        <time>2022-07-19T18:01:44Z</time>
      </trkpt>
      <trkpt lat="44.78018" lon="6.56103">
        <ele>998</ele>
        <time>2022-07-19T18:01:45Z</time>
      </trkpt>
      <trkpt lat="44.78021" lon="6.56104">
        <ele>998.4</ele>
        <time>2022-07-19T18:01:46Z</time>
      </trkpt>
      <trkpt lat="44.78023" lon="6.56104">
        <ele>998.8</ele>
        <time>2022-07-19T18:01:47Z</time>
      </trkpt>
      <trkpt lat="44.78025" lon="6.56105">
        <ele>998.8</ele>
        <time>2022-07-19T18:01:48Z</time>
      </trkpt>
      <trkpt lat="44.78028" lon="6.56106">
        <ele>998.8</ele>
        <time>2022-07-19T18:01:49Z</time>
      </trkpt>
      <trkpt lat="44.7803" lon="6.56106">
        <ele>999.2</ele>
        <time>2022-07-19T18:01:50Z</time>
      </trkpt>
      <trkpt lat="44.78032" lon="6.56107">
        <ele>999.2</ele>
        <time>2022-07-19T18:01:51Z</time>
      </trkpt>
      <trkpt lat="44.78034" lon="6.56107">
        <ele>999.4</ele>
        <time>2022-07-19T18:01:52Z</time>
      </trkpt>
      <trkpt lat="44.78036" lon="6.56108">
        <ele>999.4</ele>
        <time>2022-07-19T18:01:53Z</time>
      </trkpt>
      <trkpt lat="44.78039" lon="6.56108">
        <ele>999.6</ele>
        <time>2022-07-19T18:01:54Z</time>
      </trkpt>
      <trkpt lat="44.78041" lon="6.56109">
        <ele>999.6</ele>
        <time>2022-07-19T18:01:55Z</time>
      </trkpt>
      <trkpt lat="44.78043" lon="6.56109">
        <ele>999.8</ele>
        <time>2022-07-19T18:01:56Z</time>
      </trkpt>
      <trkpt lat="44.78045" lon="6.5611">
        <ele>999.8</ele>
        <time>2022-07-19T18:01:57Z</time>
      </trkpt>
      <trkpt lat="44.78047" lon="6.5611">
        <ele>1000.2</ele>
        <time>2022-07-19T18:01:58Z</time>
      </trkpt>
      <trkpt lat="44.78049" lon="6.5611">
        <ele>1000.2</ele>
        <time>2022-07-19T18:01:59Z</time>
      </trkpt>
      <trkpt lat="44.78051" lon="6.56111">
        <ele>1000.4</ele>
        <time>2022-07-19T18:02:00Z</time>
      </trkpt>
      <trkpt lat="44.78054" lon="6.56111">
        <ele>1000.4</ele>
        <time>2022-07-19T18:02:01Z</time>
      </trkpt>
      <trkpt lat="44.78056" lon="6.56111">
        <ele>1000.8</ele>
        <time>2022-07-19T18:02:02Z</time>
      </trkpt>
      <trkpt lat="44.78058" lon="6.56111">
        <ele>1000.8</ele>
        <time>2022-07-19T18:02:03Z</time>
      </trkpt>
      <trkpt lat="44.78061" lon="6.56112">
        <ele>1001.2</ele>
        <time>2022-07-19T18:02:04Z</time>
      </trkpt>
      <trkpt lat="44.78063" lon="6.56112">
        <ele>1001.2</ele>
        <time>2022-07-19T18:02:05Z</time>
      </trkpt>
      <trkpt lat="44.78066" lon="6.56112">
        <ele>1001.2</ele>
        <time>2022-07-19T18:02:06Z</time>
      </trkpt>
      <trkpt lat="44.78068" lon="6.56112">
        <ele>1001.4</ele>
        <time>2022-07-19T18:02:07Z</time>
      </trkpt>
      <trkpt lat="44.78071" lon="6.56112">
        <ele>1001.4</ele>
        <time>2022-07-19T18:02:08Z</time>
      </trkpt>
      <trkpt lat="44.78073" lon="6.56112">
        <ele>1001.6</ele>
        <time>2022-07-19T18:02:09Z</time>
      </trkpt>
      <trkpt lat="44.78076" lon="6.56113">
        <ele>1001.8</ele>
        <time>2022-07-19T18:02:10Z</time>
      </trkpt>
      <trkpt lat="44.78078" lon="6.56113">
        <ele>1001.8</ele>
        <time>2022-07-19T18:02:11Z</time>
      </trkpt>
      <trkpt lat="44.78081" lon="6.56113">
        <ele>1002.2</ele>
        <time>2022-07-19T18:02:12Z</time>
      </trkpt>
      <trkpt lat="44.78083" lon="6.56113">
        <ele>1002.2</ele>
        <time>2022-07-19T18:02:13Z</time>
      </trkpt>
      <trkpt lat="44.78086" lon="6.56113">
        <ele>1002.6</ele>
        <time>2022-07-19T18:02:14Z</time>
      </trkpt>
      <trkpt lat="44.78088" lon="6.56113">
        <ele>1002.6</ele>
        <time>2022-07-19T18:02:15Z</time>
      </trkpt>
      <trkpt lat="44.78091" lon="6.56113">
        <ele>1002.8</ele>
        <time>2022-07-19T18:02:16Z</time>
      </trkpt>
      <trkpt lat="44.78093" lon="6.56112">
        <ele>1002.8</ele>
        <time>2022-07-19T18:02:17Z</time>
      </trkpt>
      <trkpt lat="44.78096" lon="6.56112">
        <ele>1003.2</ele>
        <time>2022-07-19T18:02:18Z</time>
      </trkpt>
      <trkpt lat="44.78098" lon="6.56112">
        <ele>1003.4</ele>
        <time>2022-07-19T18:02:19Z</time>
      </trkpt>
      <trkpt lat="44.78101" lon="6.56112">
        <ele>1003.4</ele>
        <time>2022-07-19T18:02:20Z</time>
      </trkpt>
      <trkpt lat="44.78103" lon="6.56112">
        <ele>1003.6</ele>
        <time>2022-07-19T18:02:21Z</time>
      </trkpt>
      <trkpt lat="44.78106" lon="6.56113">
        <ele>1003.6</ele>
        <time>2022-07-19T18:02:22Z</time>
      </trkpt>
      <trkpt lat="44.78108" lon="6.56113">
        <ele>1003.8</ele>
        <time>2022-07-19T18:02:23Z</time>
      </trkpt>
      <trkpt lat="44.78111" lon="6.56113">
        <ele>1003.8</ele>
        <time>2022-07-19T18:02:24Z</time>
      </trkpt>
      <trkpt lat="44.78113" lon="6.56113">
        <ele>1003.8</ele>
        <time>2022-07-19T18:02:25Z</time>
      </trkpt>
      <trkpt lat="44.78115" lon="6.56113">
        <ele>1004</ele>
        <time>2022-07-19T18:02:26Z</time>
      </trkpt>
      <trkpt lat="44.78118" lon="6.56113">
        <ele>1004</ele>
        <time>2022-07-19T18:02:27Z</time>
      </trkpt>
      <trkpt lat="44.7812" lon="6.56113">
        <ele>1004</ele>
        <time>2022-07-19T18:02:28Z</time>
      </trkpt>
      <trkpt lat="44.78122" lon="6.56113">
        <ele>1004.4</ele>
        <time>2022-07-19T18:02:29Z</time>
      </trkpt>
      <trkpt lat="44.78125" lon="6.56112">
        <ele>1004.4</ele>
        <time>2022-07-19T18:02:30Z</time>
      </trkpt>
      <trkpt lat="44.78127" lon="6.56112">
        <ele>1004.6</ele>
        <time>2022-07-19T18:02:31Z</time>
      </trkpt>
      <trkpt lat="44.78129" lon="6.56111">
        <ele>1004.6</ele>
        <time>2022-07-19T18:02:32Z</time>
      </trkpt>
      <trkpt lat="44.78131" lon="6.56111">
        <ele>1004.8</ele>
        <time>2022-07-19T18:02:33Z</time>
      </trkpt>
      <trkpt lat="44.78134" lon="6.5611">
        <ele>1004.8</ele>
        <time>2022-07-19T18:02:34Z</time>
      </trkpt>
      <trkpt lat="44.78136" lon="6.56109">
        <ele>1005</ele>
        <time>2022-07-19T18:02:35Z</time>
      </trkpt>
      <trkpt lat="44.78138" lon="6.56108">
        <ele>1005.2</ele>
        <time>2022-07-19T18:02:36Z</time>
      </trkpt>
      <trkpt lat="44.7814" lon="6.56108">
        <ele>1005.2</ele>
        <time>2022-07-19T18:02:37Z</time>
      </trkpt>
      <trkpt lat="44.78142" lon="6.56107">
        <ele>1005.2</ele>
        <time>2022-07-19T18:02:38Z</time>
      </trkpt>
      <trkpt lat="44.78144" lon="6.56106">
        <ele>1005.4</ele>
        <time>2022-07-19T18:02:39Z</time>
      </trkpt>
      <trkpt lat="44.78147" lon="6.56106">
        <ele>1005.4</ele>
        <time>2022-07-19T18:02:40Z</time>
      </trkpt>
      <trkpt lat="44.78149" lon="6.56105">
        <ele>1005.6</ele>
        <time>2022-07-19T18:02:41Z</time>
      </trkpt>
      <trkpt lat="44.78151" lon="6.56104">
        <ele>1005.6</ele>
        <time>2022-07-19T18:02:42Z</time>
      </trkpt>
      <trkpt lat="44.78153" lon="6.56103">
        <ele>1005.6</ele>
        <time>2022-07-19T18:02:43Z</time>
      </trkpt>
      <trkpt lat="44.78158" lon="6.56102">
        <ele>1006</ele>
        <time>2022-07-19T18:02:44Z</time>
      </trkpt>
      <trkpt lat="44.7816" lon="6.56101">
        <ele>1006</ele>
        <time>2022-07-19T18:02:45Z</time>
      </trkpt>
      <trkpt lat="44.78162" lon="6.56101">
        <ele>1006.4</ele>
        <time>2022-07-19T18:02:46Z</time>
      </trkpt>
      <trkpt lat="44.78164" lon="6.561">
        <ele>1006.4</ele>
        <time>2022-07-19T18:02:47Z</time>
      </trkpt>
      <trkpt lat="44.78167" lon="6.56099">
        <ele>1006.8</ele>
        <time>2022-07-19T18:02:48Z</time>
      </trkpt>
      <trkpt lat="44.78169" lon="6.56098">
        <ele>1006.8</ele>
        <time>2022-07-19T18:02:49Z</time>
      </trkpt>
      <trkpt lat="44.78171" lon="6.56097">
        <ele>1006.8</ele>
        <time>2022-07-19T18:02:50Z</time>
      </trkpt>
      <trkpt lat="44.78174" lon="6.56097">
        <ele>1007</ele>
        <time>2022-07-19T18:02:51Z</time>
      </trkpt>
      <trkpt lat="44.78176" lon="6.56096">
        <ele>1007</ele>
        <time>2022-07-19T18:02:52Z</time>
      </trkpt>
      <trkpt lat="44.78179" lon="6.56095">
        <ele>1007.2</ele>
        <time>2022-07-19T18:02:53Z</time>
      </trkpt>
      <trkpt lat="44.78181" lon="6.56094">
        <ele>1007.2</ele>
        <time>2022-07-19T18:02:54Z</time>
      </trkpt>
      <trkpt lat="44.78184" lon="6.56093">
        <ele>1007.4</ele>
        <time>2022-07-19T18:02:55Z</time>
      </trkpt>
      <trkpt lat="44.78186" lon="6.56092">
        <ele>1007.4</ele>
        <time>2022-07-19T18:02:56Z</time>
      </trkpt>
      <trkpt lat="44.78189" lon="6.56092">
        <ele>1007.4</ele>
        <time>2022-07-19T18:02:57Z</time>
      </trkpt>
      <trkpt lat="44.78191" lon="6.56091">
        <ele>1007.8</ele>
        <time>2022-07-19T18:02:58Z</time>
      </trkpt>
      <trkpt lat="44.78193" lon="6.5609">
        <ele>1007.8</ele>
        <time>2022-07-19T18:02:59Z</time>
      </trkpt>
      <trkpt lat="44.78196" lon="6.56089">
        <ele>1007.8</ele>
        <time>2022-07-19T18:03:00Z</time>
      </trkpt>
      <trkpt lat="44.78198" lon="6.56088">
        <ele>1008</ele>
        <time>2022-07-19T18:03:01Z</time>
      </trkpt>
      <trkpt lat="44.782" lon="6.56087">
        <ele>1008</ele>
        <time>2022-07-19T18:03:02Z</time>
      </trkpt>
      <trkpt lat="44.78203" lon="6.56086">
        <ele>1008.4</ele>
        <time>2022-07-19T18:03:03Z</time>
      </trkpt>
      <trkpt lat="44.78205" lon="6.56085">
        <ele>1008.4</ele>
        <time>2022-07-19T18:03:04Z</time>
      </trkpt>
      <trkpt lat="44.78207" lon="6.56085">
        <ele>1008.6</ele>
        <time>2022-07-19T18:03:05Z</time>
      </trkpt>
      <trkpt lat="44.78209" lon="6.56084">
        <ele>1008.6</ele>
        <time>2022-07-19T18:03:06Z</time>
      </trkpt>
      <trkpt lat="44.78212" lon="6.56083">
        <ele>1008.8</ele>
        <time>2022-07-19T18:03:07Z</time>
      </trkpt>
      <trkpt lat="44.78214" lon="6.56082">
        <ele>1008.8</ele>
        <time>2022-07-19T18:03:08Z</time>
      </trkpt>
      <trkpt lat="44.78216" lon="6.56082">
        <ele>1009.2</ele>
        <time>2022-07-19T18:03:09Z</time>
      </trkpt>
      <trkpt lat="44.78219" lon="6.56081">
        <ele>1009.2</ele>
        <time>2022-07-19T18:03:10Z</time>
      </trkpt>
      <trkpt lat="44.78221" lon="6.5608">
        <ele>1009.8</ele>
        <time>2022-07-19T18:03:11Z</time>
      </trkpt>
      <trkpt lat="44.78223" lon="6.56079">
        <ele>1009.8</ele>
        <time>2022-07-19T18:03:12Z</time>
      </trkpt>
      <trkpt lat="44.78226" lon="6.56078">
        <ele>1009.8</ele>
        <time>2022-07-19T18:03:13Z</time>
      </trkpt>
      <trkpt lat="44.78228" lon="6.56078">
        <ele>1010</ele>
        <time>2022-07-19T18:03:14Z</time>
      </trkpt>
      <trkpt lat="44.7823" lon="6.56077">
        <ele>1010</ele>
        <time>2022-07-19T18:03:15Z</time>
      </trkpt>
      <trkpt lat="44.78233" lon="6.56076">
        <ele>1010</ele>
        <time>2022-07-19T18:03:16Z</time>
      </trkpt>
      <trkpt lat="44.78235" lon="6.56076">
        <ele>1010.4</ele>
        <time>2022-07-19T18:03:17Z</time>
      </trkpt>
      <trkpt lat="44.78238" lon="6.56075">
        <ele>1010.6</ele>
        <time>2022-07-19T18:03:18Z</time>
      </trkpt>
      <trkpt lat="44.7824" lon="6.56075">
        <ele>1010.6</ele>
        <time>2022-07-19T18:03:19Z</time>
      </trkpt>
      <trkpt lat="44.78242" lon="6.56074">
        <ele>1011</ele>
        <time>2022-07-19T18:03:20Z</time>
      </trkpt>
      <trkpt lat="44.78245" lon="6.56073">
        <ele>1011.2</ele>
        <time>2022-07-19T18:03:21Z</time>
      </trkpt>
      <trkpt lat="44.78247" lon="6.56073">
        <ele>1011.2</ele>
        <time>2022-07-19T18:03:22Z</time>
      </trkpt>
      <trkpt lat="44.7825" lon="6.56072">
        <ele>1011.4</ele>
        <time>2022-07-19T18:03:23Z</time>
      </trkpt>
      <trkpt lat="44.78252" lon="6.56071">
        <ele>1011.6</ele>
        <time>2022-07-19T18:03:24Z</time>
      </trkpt>
      <trkpt lat="44.78254" lon="6.56071">
        <ele>1011.6</ele>
        <time>2022-07-19T18:03:25Z</time>
      </trkpt>
      <trkpt lat="44.78257" lon="6.5607">
        <ele>1011.8</ele>
        <time>2022-07-19T18:03:26Z</time>
      </trkpt>
      <trkpt lat="44.78259" lon="6.56069">
        <ele>1012.2</ele>
        <time>2022-07-19T18:03:27Z</time>
      </trkpt>
      <trkpt lat="44.78261" lon="6.56069">
        <ele>1012.2</ele>
        <time>2022-07-19T18:03:28Z</time>
      </trkpt>
      <trkpt lat="44.78264" lon="6.56068">
        <ele>1012.4</ele>
        <time>2022-07-19T18:03:29Z</time>
      </trkpt>
      <trkpt lat="44.78266" lon="6.56068">
        <ele>1012.4</ele>
        <time>2022-07-19T18:03:30Z</time>
      </trkpt>
      <trkpt lat="44.78269" lon="6.56067">
        <ele>1012.4</ele>
        <time>2022-07-19T18:03:31Z</time>
      </trkpt>
      <trkpt lat="44.78271" lon="6.56067">
        <ele>1012.8</ele>
        <time>2022-07-19T18:03:32Z</time>
      </trkpt>
      <trkpt lat="44.78273" lon="6.56066">
        <ele>1012.8</ele>
        <time>2022-07-19T18:03:33Z</time>
      </trkpt>
      <trkpt lat="44.78276" lon="6.56065">
        <ele>1012.8</ele>
        <time>2022-07-19T18:03:34Z</time>
      </trkpt>
      <trkpt lat="44.78278" lon="6.56065">
        <ele>1013</ele>
        <time>2022-07-19T18:03:36Z</time>
      </trkpt>
      <trkpt lat="44.78281" lon="6.56064">
        <ele>1013.2</ele>
        <time>2022-07-19T18:03:37Z</time>
      </trkpt>
      <trkpt lat="44.78285" lon="6.56063">
        <ele>1013.2</ele>
        <time>2022-07-19T18:03:38Z</time>
      </trkpt>
      <trkpt lat="44.78288" lon="6.56063">
        <ele>1013.4</ele>
        <time>2022-07-19T18:03:40Z</time>
      </trkpt>
      <trkpt lat="44.7829" lon="6.56062">
        <ele>1013.8</ele>
        <time>2022-07-19T18:03:41Z</time>
      </trkpt>
      <trkpt lat="44.78292" lon="6.56062">
        <ele>1013.8</ele>
        <time>2022-07-19T18:03:42Z</time>
      </trkpt>
      <trkpt lat="44.78294" lon="6.56061">
        <ele>1014</ele>
        <time>2022-07-19T18:03:43Z</time>
      </trkpt>
      <trkpt lat="44.78296" lon="6.56061">
        <ele>1014.2</ele>
        <time>2022-07-19T18:03:44Z</time>
      </trkpt>
      <trkpt lat="44.78299" lon="6.5606">
        <ele>1014.2</ele>
        <time>2022-07-19T18:03:45Z</time>
      </trkpt>
      <trkpt lat="44.78301" lon="6.5606">
        <ele>1014.4</ele>
        <time>2022-07-19T18:03:46Z</time>
      </trkpt>
      <trkpt lat="44.78303" lon="6.56059">
        <ele>1014.4</ele>
        <time>2022-07-19T18:03:47Z</time>
      </trkpt>
      <trkpt lat="44.78305" lon="6.56059">
        <ele>1014.4</ele>
        <time>2022-07-19T18:03:48Z</time>
      </trkpt>
      <trkpt lat="44.78307" lon="6.56059">
        <ele>1014.8</ele>
        <time>2022-07-19T18:03:49Z</time>
      </trkpt>
      <trkpt lat="44.7831" lon="6.56058">
        <ele>1014.8</ele>
        <time>2022-07-19T18:03:50Z</time>
      </trkpt>
      <trkpt lat="44.78312" lon="6.56058">
        <ele>1014.8</ele>
        <time>2022-07-19T18:03:51Z</time>
      </trkpt>
      <trkpt lat="44.78314" lon="6.56057">
        <ele>1014.8</ele>
        <time>2022-07-19T18:03:52Z</time>
      </trkpt>
      <trkpt lat="44.78316" lon="6.56057">
        <ele>1015</ele>
        <time>2022-07-19T18:03:53Z</time>
      </trkpt>
      <trkpt lat="44.78319" lon="6.56057">
        <ele>1015</ele>
        <time>2022-07-19T18:03:54Z</time>
      </trkpt>
      <trkpt lat="44.78321" lon="6.56056">
        <ele>1015.4</ele>
        <time>2022-07-19T18:03:55Z</time>
      </trkpt>
      <trkpt lat="44.78324" lon="6.56056">
        <ele>1015.4</ele>
        <time>2022-07-19T18:03:56Z</time>
      </trkpt>
      <trkpt lat="44.78326" lon="6.56056">
        <ele>1015.6</ele>
        <time>2022-07-19T18:03:57Z</time>
      </trkpt>
      <trkpt lat="44.78329" lon="6.56055">
        <ele>1015.6</ele>
        <time>2022-07-19T18:03:58Z</time>
      </trkpt>
      <trkpt lat="44.78332" lon="6.56055">
        <ele>1016</ele>
        <time>2022-07-19T18:03:59Z</time>
      </trkpt>
      <trkpt lat="44.78334" lon="6.56055">
        <ele>1016</ele>
        <time>2022-07-19T18:04:00Z</time>
      </trkpt>
      <trkpt lat="44.78337" lon="6.56055">
        <ele>1016.2</ele>
        <time>2022-07-19T18:04:01Z</time>
      </trkpt>
      <trkpt lat="44.78339" lon="6.56055">
        <ele>1016.2</ele>
        <time>2022-07-19T18:04:02Z</time>
      </trkpt>
      <trkpt lat="44.78342" lon="6.56055">
        <ele>1016.2</ele>
        <time>2022-07-19T18:04:03Z</time>
      </trkpt>
      <trkpt lat="44.78344" lon="6.56055">
        <ele>1016.4</ele>
        <time>2022-07-19T18:04:04Z</time>
      </trkpt>
      <trkpt lat="44.78347" lon="6.56054">
        <ele>1016.4</ele>
        <time>2022-07-19T18:04:05Z</time>
      </trkpt>
      <trkpt lat="44.7835" lon="6.56054">
        <ele>1016.4</ele>
        <time>2022-07-19T18:04:06Z</time>
      </trkpt>
      <trkpt lat="44.78352" lon="6.56054">
        <ele>1016.4</ele>
        <time>2022-07-19T18:04:07Z</time>
      </trkpt>
      <trkpt lat="44.78355" lon="6.56054">
        <ele>1016.4</ele>
        <time>2022-07-19T18:04:08Z</time>
      </trkpt>
      <trkpt lat="44.78358" lon="6.56054">
        <ele>1016.4</ele>
        <time>2022-07-19T18:04:09Z</time>
      </trkpt>
      <trkpt lat="44.78361" lon="6.56054">
        <ele>1016.4</ele>
        <time>2022-07-19T18:04:10Z</time>
      </trkpt>
      <trkpt lat="44.78363" lon="6.56054">
        <ele>1016.4</ele>
        <time>2022-07-19T18:04:11Z</time>
      </trkpt>
      <trkpt lat="44.78366" lon="6.56054">
        <ele>1016.4</ele>
        <time>2022-07-19T18:04:12Z</time>
      </trkpt>
      <trkpt lat="44.78369" lon="6.56054">
        <ele>1016.4</ele>
        <time>2022-07-19T18:04:13Z</time>
      </trkpt>
      <trkpt lat="44.78373" lon="6.56054">
        <ele>1016.4</ele>
        <time>2022-07-19T18:04:14Z</time>
      </trkpt>
      <trkpt lat="44.78376" lon="6.56054">
        <ele>1016.4</ele>
        <time>2022-07-19T18:04:15Z</time>
      </trkpt>
      <trkpt lat="44.78379" lon="6.56054">
        <ele>1016.4</ele>
        <time>2022-07-19T18:04:16Z</time>
      </trkpt>
      <trkpt lat="44.78382" lon="6.56054">
        <ele>1016.6</ele>
        <time>2022-07-19T18:04:17Z</time>
      </trkpt>
      <trkpt lat="44.78386" lon="6.56055">
        <ele>1016.6</ele>
        <time>2022-07-19T18:04:18Z</time>
      </trkpt>
      <trkpt lat="44.78389" lon="6.56055">
        <ele>1016.8</ele>
        <time>2022-07-19T18:04:19Z</time>
      </trkpt>
      <trkpt lat="44.78392" lon="6.56055">
        <ele>1016.8</ele>
        <time>2022-07-19T18:04:20Z</time>
      </trkpt>
      <trkpt lat="44.78396" lon="6.56055">
        <ele>1016.8</ele>
        <time>2022-07-19T18:04:21Z</time>
      </trkpt>
      <trkpt lat="44.78399" lon="6.56056">
        <ele>1016.8</ele>
        <time>2022-07-19T18:04:22Z</time>
      </trkpt>
      <trkpt lat="44.78402" lon="6.56056">
        <ele>1016.8</ele>
        <time>2022-07-19T18:04:23Z</time>
      </trkpt>
      <trkpt lat="44.78406" lon="6.56056">
        <ele>1016.8</ele>
        <time>2022-07-19T18:04:24Z</time>
      </trkpt>
      <trkpt lat="44.78409" lon="6.56056">
        <ele>1016.8</ele>
        <time>2022-07-19T18:04:25Z</time>
      </trkpt>
      <trkpt lat="44.78413" lon="6.56057">
        <ele>1016.8</ele>
        <time>2022-07-19T18:04:26Z</time>
      </trkpt>
      <trkpt lat="44.78416" lon="6.56057">
        <ele>1016.8</ele>
        <time>2022-07-19T18:04:27Z</time>
      </trkpt>
      <trkpt lat="44.7842" lon="6.56058">
        <ele>1016.8</ele>
        <time>2022-07-19T18:04:28Z</time>
      </trkpt>
      <trkpt lat="44.78423" lon="6.56058">
        <ele>1016.8</ele>
        <time>2022-07-19T18:04:29Z</time>
      </trkpt>
      <trkpt lat="44.78426" lon="6.56059">
        <ele>1016.8</ele>
        <time>2022-07-19T18:04:30Z</time>
      </trkpt>
      <trkpt lat="44.7843" lon="6.56059">
        <ele>1017</ele>
        <time>2022-07-19T18:04:31Z</time>
      </trkpt>
      <trkpt lat="44.78433" lon="6.5606">
        <ele>1017</ele>
        <time>2022-07-19T18:04:32Z</time>
      </trkpt>
      <trkpt lat="44.78437" lon="6.56061">
        <ele>1017</ele>
        <time>2022-07-19T18:04:33Z</time>
      </trkpt>
      <trkpt lat="44.7844" lon="6.56061">
        <ele>1017</ele>
        <time>2022-07-19T18:04:34Z</time>
      </trkpt>
      <trkpt lat="44.78444" lon="6.56062">
        <ele>1017</ele>
        <time>2022-07-19T18:04:35Z</time>
      </trkpt>
      <trkpt lat="44.78448" lon="6.56062">
        <ele>1017</ele>
        <time>2022-07-19T18:04:36Z</time>
      </trkpt>
      <trkpt lat="44.78451" lon="6.56063">
        <ele>1017</ele>
        <time>2022-07-19T18:04:37Z</time>
      </trkpt>
      <trkpt lat="44.78455" lon="6.56064">
        <ele>1016.8</ele>
        <time>2022-07-19T18:04:38Z</time>
      </trkpt>
      <trkpt lat="44.78459" lon="6.56065">
        <ele>1016.8</ele>
        <time>2022-07-19T18:04:39Z</time>
      </trkpt>
      <trkpt lat="44.78462" lon="6.56065">
        <ele>1016.8</ele>
        <time>2022-07-19T18:04:40Z</time>
      </trkpt>
      <trkpt lat="44.78466" lon="6.56066">
        <ele>1016.8</ele>
        <time>2022-07-19T18:04:41Z</time>
      </trkpt>
      <trkpt lat="44.7847" lon="6.56067">
        <ele>1016.6</ele>
        <time>2022-07-19T18:04:42Z</time>
      </trkpt>
      <trkpt lat="44.78474" lon="6.56068">
        <ele>1016.6</ele>
        <time>2022-07-19T18:04:43Z</time>
      </trkpt>
      <trkpt lat="44.78478" lon="6.56069">
        <ele>1016.6</ele>
        <time>2022-07-19T18:04:44Z</time>
      </trkpt>
      <trkpt lat="44.78482" lon="6.56069">
        <ele>1016.6</ele>
        <time>2022-07-19T18:04:45Z</time>
      </trkpt>
      <trkpt lat="44.78486" lon="6.5607">
        <ele>1016.6</ele>
        <time>2022-07-19T18:04:46Z</time>
      </trkpt>
      <trkpt lat="44.7849" lon="6.56071">
        <ele>1016.6</ele>
        <time>2022-07-19T18:04:47Z</time>
      </trkpt>
      <trkpt lat="44.78494" lon="6.56072">
        <ele>1016.6</ele>
        <time>2022-07-19T18:04:48Z</time>
      </trkpt>
      <trkpt lat="44.78499" lon="6.56072">
        <ele>1016.6</ele>
        <time>2022-07-19T18:04:49Z</time>
      </trkpt>
      <trkpt lat="44.78503" lon="6.56073">
        <ele>1016.2</ele>
        <time>2022-07-19T18:04:50Z</time>
      </trkpt>
      <trkpt lat="44.78508" lon="6.56074">
        <ele>1016</ele>
        <time>2022-07-19T18:04:51Z</time>
      </trkpt>
      <trkpt lat="44.78514" lon="6.56076">
        <ele>1016</ele>
        <time>2022-07-19T18:04:52Z</time>
      </trkpt>
      <trkpt lat="44.78519" lon="6.56077">
        <ele>1015.6</ele>
        <time>2022-07-19T18:04:53Z</time>
      </trkpt>
      <trkpt lat="44.78525" lon="6.56078">
        <ele>1015.4</ele>
        <time>2022-07-19T18:04:54Z</time>
      </trkpt>
      <trkpt lat="44.78531" lon="6.56079">
        <ele>1015</ele>
        <time>2022-07-19T18:04:55Z</time>
      </trkpt>
      <trkpt lat="44.78537" lon="6.56081">
        <ele>1014.6</ele>
        <time>2022-07-19T18:04:56Z</time>
      </trkpt>
      <trkpt lat="44.78543" lon="6.56082">
        <ele>1014.4</ele>
        <time>2022-07-19T18:04:57Z</time>
      </trkpt>
      <trkpt lat="44.78549" lon="6.56083">
        <ele>1014</ele>
        <time>2022-07-19T18:04:58Z</time>
      </trkpt>
      <trkpt lat="44.78555" lon="6.56084">
        <ele>1013.6</ele>
        <time>2022-07-19T18:04:59Z</time>
      </trkpt>
      <trkpt lat="44.78562" lon="6.56086">
        <ele>1013.2</ele>
        <time>2022-07-19T18:05:00Z</time>
      </trkpt>
      <trkpt lat="44.78569" lon="6.56087">
        <ele>1013</ele>
        <time>2022-07-19T18:05:01Z</time>
      </trkpt>
      <trkpt lat="44.78576" lon="6.56088">
        <ele>1012.6</ele>
        <time>2022-07-19T18:05:02Z</time>
      </trkpt>
      <trkpt lat="44.78583" lon="6.5609">
        <ele>1012.2</ele>
        <time>2022-07-19T18:05:03Z</time>
      </trkpt>
      <trkpt lat="44.78591" lon="6.56091">
        <ele>1011.8</ele>
        <time>2022-07-19T18:05:04Z</time>
      </trkpt>
      <trkpt lat="44.78598" lon="6.56093">
        <ele>1011.2</ele>
        <time>2022-07-19T18:05:05Z</time>
      </trkpt>
      <trkpt lat="44.78606" lon="6.56094">
        <ele>1010.6</ele>
        <time>2022-07-19T18:05:06Z</time>
      </trkpt>
      <trkpt lat="44.78614" lon="6.56096">
        <ele>1010.2</ele>
        <time>2022-07-19T18:05:07Z</time>
      </trkpt>
      <trkpt lat="44.78623" lon="6.56098">
        <ele>1009.6</ele>
        <time>2022-07-19T18:05:08Z</time>
      </trkpt>
      <trkpt lat="44.78631" lon="6.56099">
        <ele>1008.8</ele>
        <time>2022-07-19T18:05:09Z</time>
      </trkpt>
      <trkpt lat="44.7864" lon="6.56101">
        <ele>1008.2</ele>
        <time>2022-07-19T18:05:10Z</time>
      </trkpt>
      <trkpt lat="44.7865" lon="6.56103">
        <ele>1007.8</ele>
        <time>2022-07-19T18:05:11Z</time>
      </trkpt>
      <trkpt lat="44.7866" lon="6.56105">
        <ele>1007.2</ele>
        <time>2022-07-19T18:05:12Z</time>
      </trkpt>
      <trkpt lat="44.78671" lon="6.56108">
        <ele>1006.4</ele>
        <time>2022-07-19T18:05:13Z</time>
      </trkpt>
      <trkpt lat="44.78681" lon="6.5611">
        <ele>1006</ele>
        <time>2022-07-19T18:05:14Z</time>
      </trkpt>
      <trkpt lat="44.78691" lon="6.56111">
        <ele>1005.2</ele>
        <time>2022-07-19T18:05:15Z</time>
      </trkpt>
      <trkpt lat="44.78702" lon="6.56114">
        <ele>1004.6</ele>
        <time>2022-07-19T18:05:16Z</time>
      </trkpt>
      <trkpt lat="44.78712" lon="6.56117">
        <ele>1004</ele>
        <time>2022-07-19T18:05:17Z</time>
      </trkpt>
      <trkpt lat="44.78723" lon="6.56119">
        <ele>1003.4</ele>
        <time>2022-07-19T18:05:18Z</time>
      </trkpt>
      <trkpt lat="44.78733" lon="6.5612">
        <ele>1002.8</ele>
        <time>2022-07-19T18:05:19Z</time>
      </trkpt>
      <trkpt lat="44.78744" lon="6.56122">
        <ele>1002.2</ele>
        <time>2022-07-19T18:05:20Z</time>
      </trkpt>
      <trkpt lat="44.78755" lon="6.56125">
        <ele>1001.6</ele>
        <time>2022-07-19T18:05:21Z</time>
      </trkpt>
      <trkpt lat="44.78765" lon="6.56127">
        <ele>1001</ele>
        <time>2022-07-19T18:05:22Z</time>
      </trkpt>
      <trkpt lat="44.78776" lon="6.56129">
        <ele>1000.6</ele>
        <time>2022-07-19T18:05:23Z</time>
      </trkpt>
      <trkpt lat="44.78786" lon="6.56131">
        <ele>1000.4</ele>
        <time>2022-07-19T18:05:24Z</time>
      </trkpt>
      <trkpt lat="44.78796" lon="6.56133">
        <ele>1000</ele>
        <time>2022-07-19T18:05:25Z</time>
      </trkpt>
      <trkpt lat="44.78806" lon="6.56135">
        <ele>999.6</ele>
        <time>2022-07-19T18:05:26Z</time>
      </trkpt>
      <trkpt lat="44.78816" lon="6.56136">
        <ele>999.6</ele>
        <time>2022-07-19T18:05:27Z</time>
      </trkpt>
      <trkpt lat="44.78825" lon="6.56138">
        <ele>999.4</ele>
        <time>2022-07-19T18:05:28Z</time>
      </trkpt>
      <trkpt lat="44.78835" lon="6.5614">
        <ele>999.4</ele>
        <time>2022-07-19T18:05:29Z</time>
      </trkpt>
      <trkpt lat="44.78843" lon="6.56142">
        <ele>999.4</ele>
        <time>2022-07-19T18:05:30Z</time>
      </trkpt>
      <trkpt lat="44.78851" lon="6.56143">
        <ele>999</ele>
        <time>2022-07-19T18:05:31Z</time>
      </trkpt>
      <trkpt lat="44.78859" lon="6.56144">
        <ele>999</ele>
        <time>2022-07-19T18:05:32Z</time>
      </trkpt>
      <trkpt lat="44.78866" lon="6.56146">
        <ele>999</ele>
        <time>2022-07-19T18:05:33Z</time>
      </trkpt>
      <trkpt lat="44.78873" lon="6.56147">
        <ele>999</ele>
        <time>2022-07-19T18:05:34Z</time>
      </trkpt>
      <trkpt lat="44.7888" lon="6.56148">
        <ele>999</ele>
        <time>2022-07-19T18:05:35Z</time>
      </trkpt>
      <trkpt lat="44.78886" lon="6.56148">
        <ele>999.2</ele>
        <time>2022-07-19T18:05:36Z</time>
      </trkpt>
      <trkpt lat="44.78892" lon="6.5615">
        <ele>999.2</ele>
        <time>2022-07-19T18:05:37Z</time>
      </trkpt>
      <trkpt lat="44.78897" lon="6.56151">
        <ele>999.6</ele>
        <time>2022-07-19T18:05:38Z</time>
      </trkpt>
      <trkpt lat="44.78903" lon="6.56152">
        <ele>999.6</ele>
        <time>2022-07-19T18:05:39Z</time>
      </trkpt>
      <trkpt lat="44.78908" lon="6.56153">
        <ele>999.8</ele>
        <time>2022-07-19T18:05:40Z</time>
      </trkpt>
      <trkpt lat="44.78912" lon="6.56153">
        <ele>999.8</ele>
        <time>2022-07-19T18:05:41Z</time>
      </trkpt>
      <trkpt lat="44.78917" lon="6.56154">
        <ele>1000</ele>
        <time>2022-07-19T18:05:42Z</time>
      </trkpt>
      <trkpt lat="44.78922" lon="6.56155">
        <ele>1000</ele>
        <time>2022-07-19T18:05:43Z</time>
      </trkpt>
      <trkpt lat="44.78926" lon="6.56156">
        <ele>1000</ele>
        <time>2022-07-19T18:05:44Z</time>
      </trkpt>
      <trkpt lat="44.7893" lon="6.56157">
        <ele>1000</ele>
        <time>2022-07-19T18:05:45Z</time>
      </trkpt>
      <trkpt lat="44.78934" lon="6.56158">
        <ele>1000.4</ele>
        <time>2022-07-19T18:05:46Z</time>
      </trkpt>
      <trkpt lat="44.78938" lon="6.56158">
        <ele>1000.4</ele>
        <time>2022-07-19T18:05:47Z</time>
      </trkpt>
      <trkpt lat="44.78942" lon="6.56159">
        <ele>1000.4</ele>
        <time>2022-07-19T18:05:48Z</time>
      </trkpt>
      <trkpt lat="44.78946" lon="6.5616">
        <ele>1000.4</ele>
        <time>2022-07-19T18:05:49Z</time>
      </trkpt>
      <trkpt lat="44.7895" lon="6.56161">
        <ele>1000.6</ele>
        <time>2022-07-19T18:05:50Z</time>
      </trkpt>
      <trkpt lat="44.78953" lon="6.56161">
        <ele>1000.6</ele>
        <time>2022-07-19T18:05:51Z</time>
      </trkpt>
      <trkpt lat="44.78957" lon="6.56162">
        <ele>1000.8</ele>
        <time>2022-07-19T18:05:52Z</time>
      </trkpt>
      <trkpt lat="44.7896" lon="6.56163">
        <ele>1000.8</ele>
        <time>2022-07-19T18:05:53Z</time>
      </trkpt>
      <trkpt lat="44.78964" lon="6.56163">
        <ele>1000.8</ele>
        <time>2022-07-19T18:05:54Z</time>
      </trkpt>
      <trkpt lat="44.78967" lon="6.56164">
        <ele>1000.8</ele>
        <time>2022-07-19T18:05:55Z</time>
      </trkpt>
      <trkpt lat="44.78971" lon="6.56165">
        <ele>1000.8</ele>
        <time>2022-07-19T18:05:56Z</time>
      </trkpt>
      <trkpt lat="44.78974" lon="6.56166">
        <ele>1000.8</ele>
        <time>2022-07-19T18:05:57Z</time>
      </trkpt>
      <trkpt lat="44.78978" lon="6.56166">
        <ele>1001.2</ele>
        <time>2022-07-19T18:05:58Z</time>
      </trkpt>
      <trkpt lat="44.78981" lon="6.56167">
        <ele>1001.2</ele>
        <time>2022-07-19T18:05:59Z</time>
      </trkpt>
      <trkpt lat="44.78984" lon="6.56168">
        <ele>1001.4</ele>
        <time>2022-07-19T18:06:00Z</time>
      </trkpt>
      <trkpt lat="44.78987" lon="6.56169">
        <ele>1001.4</ele>
        <time>2022-07-19T18:06:01Z</time>
      </trkpt>
      <trkpt lat="44.7899" lon="6.56169">
        <ele>1001.8</ele>
        <time>2022-07-19T18:06:02Z</time>
      </trkpt>
      <trkpt lat="44.78994" lon="6.5617">
        <ele>1001.8</ele>
        <time>2022-07-19T18:06:03Z</time>
      </trkpt>
      <trkpt lat="44.78997" lon="6.5617">
        <ele>1001.8</ele>
        <time>2022-07-19T18:06:04Z</time>
      </trkpt>
      <trkpt lat="44.79" lon="6.56171">
        <ele>1001.8</ele>
        <time>2022-07-19T18:06:05Z</time>
      </trkpt>
      <trkpt lat="44.79003" lon="6.56171">
        <ele>1001.8</ele>
        <time>2022-07-19T18:06:06Z</time>
      </trkpt>
      <trkpt lat="44.79006" lon="6.56172">
        <ele>1002</ele>
        <time>2022-07-19T18:06:07Z</time>
      </trkpt>
      <trkpt lat="44.79009" lon="6.56173">
        <ele>1002</ele>
        <time>2022-07-19T18:06:08Z</time>
      </trkpt>
      <trkpt lat="44.79012" lon="6.56173">
        <ele>1002.4</ele>
        <time>2022-07-19T18:06:09Z</time>
      </trkpt>
      <trkpt lat="44.79015" lon="6.56174">
        <ele>1002.4</ele>
        <time>2022-07-19T18:06:10Z</time>
      </trkpt>
      <trkpt lat="44.79018" lon="6.56174">
        <ele>1002.4</ele>
        <time>2022-07-19T18:06:11Z</time>
      </trkpt>
      <trkpt lat="44.79021" lon="6.56175">
        <ele>1002.4</ele>
        <time>2022-07-19T18:06:12Z</time>
      </trkpt>
      <trkpt lat="44.79024" lon="6.56175">
        <ele>1002.6</ele>
        <time>2022-07-19T18:06:13Z</time>
      </trkpt>
      <trkpt lat="44.79027" lon="6.56176">
        <ele>1002.6</ele>
        <time>2022-07-19T18:06:14Z</time>
      </trkpt>
      <trkpt lat="44.7903" lon="6.56177">
        <ele>1002.6</ele>
        <time>2022-07-19T18:06:15Z</time>
      </trkpt>
      <trkpt lat="44.79032" lon="6.56177">
        <ele>1002.6</ele>
        <time>2022-07-19T18:06:16Z</time>
      </trkpt>
      <trkpt lat="44.79035" lon="6.56178">
        <ele>1003</ele>
        <time>2022-07-19T18:06:17Z</time>
      </trkpt>
      <trkpt lat="44.79038" lon="6.56178">
        <ele>1003</ele>
        <time>2022-07-19T18:06:18Z</time>
      </trkpt>
      <trkpt lat="44.7904" lon="6.56179">
        <ele>1003.2</ele>
        <time>2022-07-19T18:06:19Z</time>
      </trkpt>
      <trkpt lat="44.79043" lon="6.56179">
        <ele>1003.2</ele>
        <time>2022-07-19T18:06:20Z</time>
      </trkpt>
      <trkpt lat="44.79046" lon="6.5618">
        <ele>1003.2</ele>
        <time>2022-07-19T18:06:21Z</time>
      </trkpt>
      <trkpt lat="44.79049" lon="6.56181">
        <ele>1003.6</ele>
        <time>2022-07-19T18:06:22Z</time>
      </trkpt>
      <trkpt lat="44.79051" lon="6.56181">
        <ele>1003.6</ele>
        <time>2022-07-19T18:06:23Z</time>
      </trkpt>
      <trkpt lat="44.79054" lon="6.56181">
        <ele>1004</ele>
        <time>2022-07-19T18:06:24Z</time>
      </trkpt>
      <trkpt lat="44.79057" lon="6.56182">
        <ele>1004</ele>
        <time>2022-07-19T18:06:25Z</time>
      </trkpt>
      <trkpt lat="44.79059" lon="6.56182">
        <ele>1004</ele>
        <time>2022-07-19T18:06:26Z</time>
      </trkpt>
      <trkpt lat="44.79062" lon="6.56183">
        <ele>1004</ele>
        <time>2022-07-19T18:06:27Z</time>
      </trkpt>
      <trkpt lat="44.79064" lon="6.56184">
        <ele>1004.2</ele>
        <time>2022-07-19T18:06:28Z</time>
      </trkpt>
      <trkpt lat="44.79067" lon="6.56184">
        <ele>1004.4</ele>
        <time>2022-07-19T18:06:29Z</time>
      </trkpt>
      <trkpt lat="44.7907" lon="6.56185">
        <ele>1004.4</ele>
        <time>2022-07-19T18:06:30Z</time>
      </trkpt>
      <trkpt lat="44.79072" lon="6.56185">
        <ele>1004.8</ele>
        <time>2022-07-19T18:06:31Z</time>
      </trkpt>
      <trkpt lat="44.79075" lon="6.56186">
        <ele>1005</ele>
        <time>2022-07-19T18:06:32Z</time>
      </trkpt>
      <trkpt lat="44.79077" lon="6.56187">
        <ele>1005.2</ele>
        <time>2022-07-19T18:06:33Z</time>
      </trkpt>
      <trkpt lat="44.7908" lon="6.56187">
        <ele>1005.2</ele>
        <time>2022-07-19T18:06:34Z</time>
      </trkpt>
      <trkpt lat="44.79082" lon="6.56187">
        <ele>1005.6</ele>
        <time>2022-07-19T18:06:35Z</time>
      </trkpt>
      <trkpt lat="44.79085" lon="6.56188">
        <ele>1005.6</ele>
        <time>2022-07-19T18:06:36Z</time>
      </trkpt>
      <trkpt lat="44.79088" lon="6.56188">
        <ele>1005.8</ele>
        <time>2022-07-19T18:06:37Z</time>
      </trkpt>
      <trkpt lat="44.7909" lon="6.56189">
        <ele>1005.8</ele>
        <time>2022-07-19T18:06:38Z</time>
      </trkpt>
      <trkpt lat="44.79093" lon="6.56189">
        <ele>1006.4</ele>
        <time>2022-07-19T18:06:39Z</time>
      </trkpt>
      <trkpt lat="44.79095" lon="6.5619">
        <ele>1006.4</ele>
        <time>2022-07-19T18:06:40Z</time>
      </trkpt>
      <trkpt lat="44.79098" lon="6.5619">
        <ele>1006.6</ele>
        <time>2022-07-19T18:06:41Z</time>
      </trkpt>
      <trkpt lat="44.791" lon="6.56191">
        <ele>1006.6</ele>
        <time>2022-07-19T18:06:42Z</time>
      </trkpt>
      <trkpt lat="44.79102" lon="6.56191">
        <ele>1007</ele>
        <time>2022-07-19T18:06:43Z</time>
      </trkpt>
      <trkpt lat="44.79104" lon="6.56192">
        <ele>1007.2</ele>
        <time>2022-07-19T18:06:44Z</time>
      </trkpt>
      <trkpt lat="44.79107" lon="6.56192">
        <ele>1007.4</ele>
        <time>2022-07-19T18:06:45Z</time>
      </trkpt>
      <trkpt lat="44.79109" lon="6.56193">
        <ele>1007.4</ele>
        <time>2022-07-19T18:06:46Z</time>
      </trkpt>
      <trkpt lat="44.79111" lon="6.56193">
        <ele>1007.8</ele>
        <time>2022-07-19T18:06:47Z</time>
      </trkpt>
      <trkpt lat="44.79113" lon="6.56194">
        <ele>1008.2</ele>
        <time>2022-07-19T18:06:48Z</time>
      </trkpt>
      <trkpt lat="44.79115" lon="6.56194">
        <ele>1008.2</ele>
        <time>2022-07-19T18:06:49Z</time>
      </trkpt>
      <trkpt lat="44.79118" lon="6.56195">
        <ele>1008.4</ele>
        <time>2022-07-19T18:06:50Z</time>
      </trkpt>
      <trkpt lat="44.7912" lon="6.56195">
        <ele>1008.4</ele>
        <time>2022-07-19T18:06:51Z</time>
      </trkpt>
      <trkpt lat="44.79122" lon="6.56196">
        <ele>1008.8</ele>
        <time>2022-07-19T18:06:52Z</time>
      </trkpt>
      <trkpt lat="44.79124" lon="6.56196">
        <ele>1008.8</ele>
        <time>2022-07-19T18:06:53Z</time>
      </trkpt>
      <trkpt lat="44.79126" lon="6.56196">
        <ele>1009.2</ele>
        <time>2022-07-19T18:06:54Z</time>
      </trkpt>
      <trkpt lat="44.79128" lon="6.56197">
        <ele>1009.2</ele>
        <time>2022-07-19T18:06:55Z</time>
      </trkpt>
      <trkpt lat="44.79131" lon="6.56197">
        <ele>1009.4</ele>
        <time>2022-07-19T18:06:56Z</time>
      </trkpt>
      <trkpt lat="44.79133" lon="6.56198">
        <ele>1009.6</ele>
        <time>2022-07-19T18:06:57Z</time>
      </trkpt>
      <trkpt lat="44.79135" lon="6.56198">
        <ele>1009.6</ele>
        <time>2022-07-19T18:06:58Z</time>
      </trkpt>
      <trkpt lat="44.79137" lon="6.56198">
        <ele>1010</ele>
        <time>2022-07-19T18:06:59Z</time>
      </trkpt>
      <trkpt lat="44.79139" lon="6.56199">
        <ele>1010.2</ele>
        <time>2022-07-19T18:07:00Z</time>
      </trkpt>
      <trkpt lat="44.79141" lon="6.56199">
        <ele>1010.2</ele>
        <time>2022-07-19T18:07:01Z</time>
      </trkpt>
      <trkpt lat="44.79143" lon="6.56199">
        <ele>1010.4</ele>
        <time>2022-07-19T18:07:02Z</time>
      </trkpt>
      <trkpt lat="44.79145" lon="6.562">
        <ele>1010.4</ele>
        <time>2022-07-19T18:07:03Z</time>
      </trkpt>
      <trkpt lat="44.79147" lon="6.562">
        <ele>1010.8</ele>
        <time>2022-07-19T18:07:04Z</time>
      </trkpt>
      <trkpt lat="44.79149" lon="6.562">
        <ele>1011</ele>
        <time>2022-07-19T18:07:05Z</time>
      </trkpt>
      <trkpt lat="44.79151" lon="6.56201">
        <ele>1011</ele>
        <time>2022-07-19T18:07:06Z</time>
      </trkpt>
      <trkpt lat="44.79153" lon="6.56201">
        <ele>1011.4</ele>
        <time>2022-07-19T18:07:07Z</time>
      </trkpt>
      <trkpt lat="44.79155" lon="6.56201">
        <ele>1011.4</ele>
        <time>2022-07-19T18:07:08Z</time>
      </trkpt>
      <trkpt lat="44.79157" lon="6.56202">
        <ele>1011.8</ele>
        <time>2022-07-19T18:07:09Z</time>
      </trkpt>
      <trkpt lat="44.79159" lon="6.56202">
        <ele>1011.8</ele>
        <time>2022-07-19T18:07:10Z</time>
      </trkpt>
      <trkpt lat="44.79161" lon="6.56202">
        <ele>1012</ele>
        <time>2022-07-19T18:07:11Z</time>
      </trkpt>
      <trkpt lat="44.79163" lon="6.56203">
        <ele>1012.4</ele>
        <time>2022-07-19T18:07:12Z</time>
      </trkpt>
      <trkpt lat="44.79165" lon="6.56203">
        <ele>1012.4</ele>
        <time>2022-07-19T18:07:13Z</time>
      </trkpt>
      <trkpt lat="44.79167" lon="6.56204">
        <ele>1012.6</ele>
        <time>2022-07-19T18:07:14Z</time>
      </trkpt>
      <trkpt lat="44.79168" lon="6.56204">
        <ele>1012.6</ele>
        <time>2022-07-19T18:07:15Z</time>
      </trkpt>
      <trkpt lat="44.7917" lon="6.56204">
        <ele>1013</ele>
        <time>2022-07-19T18:07:16Z</time>
      </trkpt>
      <trkpt lat="44.79172" lon="6.56205">
        <ele>1013</ele>
        <time>2022-07-19T18:07:17Z</time>
      </trkpt>
      <trkpt lat="44.79174" lon="6.56205">
        <ele>1013</ele>
        <time>2022-07-19T18:07:18Z</time>
      </trkpt>
      <trkpt lat="44.79175" lon="6.56206">
        <ele>1013.2</ele>
        <time>2022-07-19T18:07:19Z</time>
      </trkpt>
      <trkpt lat="44.79177" lon="6.56206">
        <ele>1013.4</ele>
        <time>2022-07-19T18:07:20Z</time>
      </trkpt>
      <trkpt lat="44.79179" lon="6.56206">
        <ele>1013.4</ele>
        <time>2022-07-19T18:07:21Z</time>
      </trkpt>
      <trkpt lat="44.79181" lon="6.56207">
        <ele>1013.8</ele>
        <time>2022-07-19T18:07:22Z</time>
      </trkpt>
      <trkpt lat="44.79183" lon="6.56207">
        <ele>1014</ele>
        <time>2022-07-19T18:07:23Z</time>
      </trkpt>
      <trkpt lat="44.79185" lon="6.56208">
        <ele>1014.2</ele>
        <time>2022-07-19T18:07:24Z</time>
      </trkpt>
      <trkpt lat="44.79187" lon="6.56208">
        <ele>1014.4</ele>
        <time>2022-07-19T18:07:25Z</time>
      </trkpt>
      <trkpt lat="44.79188" lon="6.56208">
        <ele>1014.8</ele>
        <time>2022-07-19T18:07:26Z</time>
      </trkpt>
      <trkpt lat="44.7919" lon="6.56208">
        <ele>1014.8</ele>
        <time>2022-07-19T18:07:27Z</time>
      </trkpt>
      <trkpt lat="44.79192" lon="6.56209">
        <ele>1014.8</ele>
        <time>2022-07-19T18:07:28Z</time>
      </trkpt>
      <trkpt lat="44.79194" lon="6.56209">
        <ele>1015</ele>
        <time>2022-07-19T18:07:29Z</time>
      </trkpt>
      <trkpt lat="44.79196" lon="6.5621">
        <ele>1015</ele>
        <time>2022-07-19T18:07:30Z</time>
      </trkpt>
      <trkpt lat="44.79198" lon="6.5621">
        <ele>1015</ele>
        <time>2022-07-19T18:07:31Z</time>
      </trkpt>
      <trkpt lat="44.79199" lon="6.5621">
        <ele>1015.2</ele>
        <time>2022-07-19T18:07:32Z</time>
      </trkpt>
      <trkpt lat="44.79201" lon="6.56211">
        <ele>1015.2</ele>
        <time>2022-07-19T18:07:33Z</time>
      </trkpt>
      <trkpt lat="44.79203" lon="6.56211">
        <ele>1015.8</ele>
        <time>2022-07-19T18:07:34Z</time>
      </trkpt>
      <trkpt lat="44.79205" lon="6.56211">
        <ele>1015.8</ele>
        <time>2022-07-19T18:07:35Z</time>
      </trkpt>
      <trkpt lat="44.79207" lon="6.56211">
        <ele>1016</ele>
        <time>2022-07-19T18:07:36Z</time>
      </trkpt>
      <trkpt lat="44.79209" lon="6.56212">
        <ele>1016</ele>
        <time>2022-07-19T18:07:37Z</time>
      </trkpt>
      <trkpt lat="44.79211" lon="6.56212">
        <ele>1016.2</ele>
        <time>2022-07-19T18:07:38Z</time>
      </trkpt>
      <trkpt lat="44.79213" lon="6.56213">
        <ele>1016.2</ele>
        <time>2022-07-19T18:07:39Z</time>
      </trkpt>
      <trkpt lat="44.79215" lon="6.56213">
        <ele>1016.6</ele>
        <time>2022-07-19T18:07:40Z</time>
      </trkpt>
      <trkpt lat="44.79217" lon="6.56214">
        <ele>1016.6</ele>
        <time>2022-07-19T18:07:41Z</time>
      </trkpt>
      <trkpt lat="44.79219" lon="6.56214">
        <ele>1016.8</ele>
        <time>2022-07-19T18:07:42Z</time>
      </trkpt>
      <trkpt lat="44.79221" lon="6.56215">
        <ele>1016.8</ele>
        <time>2022-07-19T18:07:43Z</time>
      </trkpt>
      <trkpt lat="44.79223" lon="6.56215">
        <ele>1017</ele>
        <time>2022-07-19T18:07:44Z</time>
      </trkpt>
      <trkpt lat="44.79225" lon="6.56215">
        <ele>1017</ele>
        <time>2022-07-19T18:07:45Z</time>
      </trkpt>
      <trkpt lat="44.79227" lon="6.56216">
        <ele>1017.4</ele>
        <time>2022-07-19T18:07:46Z</time>
      </trkpt>
      <trkpt lat="44.79229" lon="6.56216">
        <ele>1017.4</ele>
        <time>2022-07-19T18:07:47Z</time>
      </trkpt>
      <trkpt lat="44.79231" lon="6.56216">
        <ele>1017.8</ele>
        <time>2022-07-19T18:07:48Z</time>
      </trkpt>
      <trkpt lat="44.79233" lon="6.56216">
        <ele>1017.8</ele>
        <time>2022-07-19T18:07:49Z</time>
      </trkpt>
      <trkpt lat="44.79236" lon="6.56217">
        <ele>1017.8</ele>
        <time>2022-07-19T18:07:50Z</time>
      </trkpt>
      <trkpt lat="44.79238" lon="6.56217">
        <ele>1018</ele>
        <time>2022-07-19T18:07:51Z</time>
      </trkpt>
      <trkpt lat="44.79241" lon="6.56217">
        <ele>1018</ele>
        <time>2022-07-19T18:07:52Z</time>
      </trkpt>
      <trkpt lat="44.79243" lon="6.56218">
        <ele>1018</ele>
        <time>2022-07-19T18:07:53Z</time>
      </trkpt>
      <trkpt lat="44.79246" lon="6.56218">
        <ele>1018.2</ele>
        <time>2022-07-19T18:07:54Z</time>
      </trkpt>
      <trkpt lat="44.79249" lon="6.56219">
        <ele>1018.2</ele>
        <time>2022-07-19T18:07:55Z</time>
      </trkpt>
      <trkpt lat="44.79252" lon="6.56219">
        <ele>1018.2</ele>
        <time>2022-07-19T18:07:56Z</time>
      </trkpt>
      <trkpt lat="44.79254" lon="6.5622">
        <ele>1018.2</ele>
        <time>2022-07-19T18:07:57Z</time>
      </trkpt>
      <trkpt lat="44.79257" lon="6.56221">
        <ele>1018.2</ele>
        <time>2022-07-19T18:07:58Z</time>
      </trkpt>
      <trkpt lat="44.7926" lon="6.56221">
        <ele>1018.4</ele>
        <time>2022-07-19T18:07:59Z</time>
      </trkpt>
      <trkpt lat="44.79263" lon="6.56222">
        <ele>1018.4</ele>
        <time>2022-07-19T18:08:00Z</time>
      </trkpt>
      <trkpt lat="44.79266" lon="6.56222">
        <ele>1018.4</ele>
        <time>2022-07-19T18:08:01Z</time>
      </trkpt>
      <trkpt lat="44.79269" lon="6.56223">
        <ele>1018.8</ele>
        <time>2022-07-19T18:08:02Z</time>
      </trkpt>
      <trkpt lat="44.79272" lon="6.56224">
        <ele>1018.8</ele>
        <time>2022-07-19T18:08:03Z</time>
      </trkpt>
      <trkpt lat="44.79275" lon="6.56224">
        <ele>1018.8</ele>
        <time>2022-07-19T18:08:04Z</time>
      </trkpt>
      <trkpt lat="44.79277" lon="6.56225">
        <ele>1018.8</ele>
        <time>2022-07-19T18:08:05Z</time>
      </trkpt>
      <trkpt lat="44.79282" lon="6.56225">
        <ele>1019</ele>
        <time>2022-07-19T18:08:06Z</time>
      </trkpt>
      <trkpt lat="44.79283" lon="6.56226">
        <ele>1019</ele>
        <time>2022-07-19T18:08:07Z</time>
      </trkpt>
      <trkpt lat="44.79286" lon="6.56226">
        <ele>1019</ele>
        <time>2022-07-19T18:08:08Z</time>
      </trkpt>
      <trkpt lat="44.79289" lon="6.56226">
        <ele>1019.2</ele>
        <time>2022-07-19T18:08:09Z</time>
      </trkpt>
      <trkpt lat="44.79292" lon="6.56226">
        <ele>1019.2</ele>
        <time>2022-07-19T18:08:10Z</time>
      </trkpt>
      <trkpt lat="44.79295" lon="6.56227">
        <ele>1019.2</ele>
        <time>2022-07-19T18:08:11Z</time>
      </trkpt>
      <trkpt lat="44.79297" lon="6.56227">
        <ele>1019.6</ele>
        <time>2022-07-19T18:08:12Z</time>
      </trkpt>
      <trkpt lat="44.793" lon="6.56228">
        <ele>1019.6</ele>
        <time>2022-07-19T18:08:13Z</time>
      </trkpt>
      <trkpt lat="44.79302" lon="6.56229">
        <ele>1019.6</ele>
        <time>2022-07-19T18:08:14Z</time>
      </trkpt>
      <trkpt lat="44.79305" lon="6.56229">
        <ele>1019.6</ele>
        <time>2022-07-19T18:08:15Z</time>
      </trkpt>
      <trkpt lat="44.79308" lon="6.5623">
        <ele>1019.6</ele>
        <time>2022-07-19T18:08:16Z</time>
      </trkpt>
      <trkpt lat="44.7931" lon="6.56231">
        <ele>1019.6</ele>
        <time>2022-07-19T18:08:17Z</time>
      </trkpt>
      <trkpt lat="44.79313" lon="6.56231">
        <ele>1019.8</ele>
        <time>2022-07-19T18:08:18Z</time>
      </trkpt>
      <trkpt lat="44.79315" lon="6.56232">
        <ele>1019.8</ele>
        <time>2022-07-19T18:08:19Z</time>
      </trkpt>
      <trkpt lat="44.79318" lon="6.56233">
        <ele>1019.8</ele>
        <time>2022-07-19T18:08:20Z</time>
      </trkpt>
      <trkpt lat="44.79321" lon="6.56233">
        <ele>1019.8</ele>
        <time>2022-07-19T18:08:21Z</time>
      </trkpt>
      <trkpt lat="44.79324" lon="6.56234">
        <ele>1020.2</ele>
        <time>2022-07-19T18:08:22Z</time>
      </trkpt>
      <trkpt lat="44.79327" lon="6.56234">
        <ele>1020.2</ele>
        <time>2022-07-19T18:08:23Z</time>
      </trkpt>
      <trkpt lat="44.79329" lon="6.56235">
        <ele>1020.2</ele>
        <time>2022-07-19T18:08:24Z</time>
      </trkpt>
      <trkpt lat="44.79332" lon="6.56235">
        <ele>1020.2</ele>
        <time>2022-07-19T18:08:25Z</time>
      </trkpt>
      <trkpt lat="44.79335" lon="6.56236">
        <ele>1020.2</ele>
        <time>2022-07-19T18:08:26Z</time>
      </trkpt>
      <trkpt lat="44.79338" lon="6.56237">
        <ele>1020.2</ele>
        <time>2022-07-19T18:08:27Z</time>
      </trkpt>
      <trkpt lat="44.79341" lon="6.56237">
        <ele>1020.2</ele>
        <time>2022-07-19T18:08:28Z</time>
      </trkpt>
      <trkpt lat="44.79344" lon="6.56238">
        <ele>1020.4</ele>
        <time>2022-07-19T18:08:29Z</time>
      </trkpt>
      <trkpt lat="44.79346" lon="6.56238">
        <ele>1020.4</ele>
        <time>2022-07-19T18:08:30Z</time>
      </trkpt>
      <trkpt lat="44.79349" lon="6.56239">
        <ele>1020.4</ele>
        <time>2022-07-19T18:08:31Z</time>
      </trkpt>
      <trkpt lat="44.79353" lon="6.5624">
        <ele>1020.4</ele>
        <time>2022-07-19T18:08:32Z</time>
      </trkpt>
      <trkpt lat="44.79356" lon="6.5624">
        <ele>1020.6</ele>
        <time>2022-07-19T18:08:33Z</time>
      </trkpt>
      <trkpt lat="44.79359" lon="6.56241">
        <ele>1020.6</ele>
        <time>2022-07-19T18:08:34Z</time>
      </trkpt>
      <trkpt lat="44.79362" lon="6.56241">
        <ele>1020.6</ele>
        <time>2022-07-19T18:08:35Z</time>
      </trkpt>
      <trkpt lat="44.79365" lon="6.56242">
        <ele>1020.8</ele>
        <time>2022-07-19T18:08:36Z</time>
      </trkpt>
      <trkpt lat="44.79368" lon="6.56242">
        <ele>1020.8</ele>
        <time>2022-07-19T18:08:37Z</time>
      </trkpt>
      <trkpt lat="44.79371" lon="6.56243">
        <ele>1020.8</ele>
        <time>2022-07-19T18:08:38Z</time>
      </trkpt>
      <trkpt lat="44.79374" lon="6.56244">
        <ele>1020.8</ele>
        <time>2022-07-19T18:08:39Z</time>
      </trkpt>
      <trkpt lat="44.79377" lon="6.56245">
        <ele>1020.8</ele>
        <time>2022-07-19T18:08:40Z</time>
      </trkpt>
      <trkpt lat="44.7938" lon="6.56245">
        <ele>1020.8</ele>
        <time>2022-07-19T18:08:41Z</time>
      </trkpt>
      <trkpt lat="44.79383" lon="6.56246">
        <ele>1020.8</ele>
        <time>2022-07-19T18:08:42Z</time>
      </trkpt>
      <trkpt lat="44.79386" lon="6.56246">
        <ele>1020.8</ele>
        <time>2022-07-19T18:08:43Z</time>
      </trkpt>
      <trkpt lat="44.79389" lon="6.56247">
        <ele>1020.8</ele>
        <time>2022-07-19T18:08:44Z</time>
      </trkpt>
      <trkpt lat="44.79392" lon="6.56247">
        <ele>1021</ele>
        <time>2022-07-19T18:08:45Z</time>
      </trkpt>
      <trkpt lat="44.79395" lon="6.56248">
        <ele>1021</ele>
        <time>2022-07-19T18:08:46Z</time>
      </trkpt>
      <trkpt lat="44.79397" lon="6.56248">
        <ele>1021</ele>
        <time>2022-07-19T18:08:47Z</time>
      </trkpt>
      <trkpt lat="44.794" lon="6.56249">
        <ele>1021</ele>
        <time>2022-07-19T18:08:48Z</time>
      </trkpt>
      <trkpt lat="44.79403" lon="6.56249">
        <ele>1021.4</ele>
        <time>2022-07-19T18:08:49Z</time>
      </trkpt>
      <trkpt lat="44.79405" lon="6.56249">
        <ele>1021.4</ele>
        <time>2022-07-19T18:08:50Z</time>
      </trkpt>
      <trkpt lat="44.79408" lon="6.5625">
        <ele>1021.4</ele>
        <time>2022-07-19T18:08:51Z</time>
      </trkpt>
      <trkpt lat="44.79411" lon="6.56251">
        <ele>1021.6</ele>
        <time>2022-07-19T18:08:52Z</time>
      </trkpt>
      <trkpt lat="44.79413" lon="6.56252">
        <ele>1021.6</ele>
        <time>2022-07-19T18:08:53Z</time>
      </trkpt>
      <trkpt lat="44.79416" lon="6.56253">
        <ele>1021.6</ele>
        <time>2022-07-19T18:08:54Z</time>
      </trkpt>
      <trkpt lat="44.79419" lon="6.56253">
        <ele>1021.8</ele>
        <time>2022-07-19T18:08:55Z</time>
      </trkpt>
      <trkpt lat="44.79421" lon="6.56253">
        <ele>1021.8</ele>
        <time>2022-07-19T18:08:56Z</time>
      </trkpt>
      <trkpt lat="44.79424" lon="6.56254">
        <ele>1021.8</ele>
        <time>2022-07-19T18:08:57Z</time>
      </trkpt>
      <trkpt lat="44.79426" lon="6.56254">
        <ele>1022</ele>
        <time>2022-07-19T18:08:58Z</time>
      </trkpt>
      <trkpt lat="44.79429" lon="6.56255">
        <ele>1022</ele>
        <time>2022-07-19T18:08:59Z</time>
      </trkpt>
      <trkpt lat="44.79431" lon="6.56255">
        <ele>1022</ele>
        <time>2022-07-19T18:09:00Z</time>
      </trkpt>
      <trkpt lat="44.79434" lon="6.56255">
        <ele>1022.4</ele>
        <time>2022-07-19T18:09:01Z</time>
      </trkpt>
      <trkpt lat="44.79437" lon="6.56255">
        <ele>1022.4</ele>
        <time>2022-07-19T18:09:02Z</time>
      </trkpt>
      <trkpt lat="44.79439" lon="6.56254">
        <ele>1022.6</ele>
        <time>2022-07-19T18:09:03Z</time>
      </trkpt>
      <trkpt lat="44.79442" lon="6.56255">
        <ele>1022.6</ele>
        <time>2022-07-19T18:09:04Z</time>
      </trkpt>
      <trkpt lat="44.79445" lon="6.56255">
        <ele>1022.8</ele>
        <time>2022-07-19T18:09:05Z</time>
      </trkpt>
      <trkpt lat="44.79447" lon="6.56255">
        <ele>1022.8</ele>
        <time>2022-07-19T18:09:06Z</time>
      </trkpt>
      <trkpt lat="44.79449" lon="6.56255">
        <ele>1023</ele>
        <time>2022-07-19T18:09:07Z</time>
      </trkpt>
      <trkpt lat="44.79452" lon="6.56255">
        <ele>1023</ele>
        <time>2022-07-19T18:09:08Z</time>
      </trkpt>
      <trkpt lat="44.79454" lon="6.56254">
        <ele>1023.4</ele>
        <time>2022-07-19T18:09:09Z</time>
      </trkpt>
      <trkpt lat="44.79456" lon="6.56254">
        <ele>1023.4</ele>
        <time>2022-07-19T18:09:10Z</time>
      </trkpt>
      <trkpt lat="44.79458" lon="6.56254">
        <ele>1023.8</ele>
        <time>2022-07-19T18:09:11Z</time>
      </trkpt>
      <trkpt lat="44.7946" lon="6.56254">
        <ele>1024</ele>
        <time>2022-07-19T18:09:12Z</time>
      </trkpt>
      <trkpt lat="44.79463" lon="6.56254">
        <ele>1024</ele>
        <time>2022-07-19T18:09:13Z</time>
      </trkpt>
      <trkpt lat="44.79465" lon="6.56254">
        <ele>1024.4</ele>
        <time>2022-07-19T18:09:14Z</time>
      </trkpt>
      <trkpt lat="44.79467" lon="6.56254">
        <ele>1024.4</ele>
        <time>2022-07-19T18:09:15Z</time>
      </trkpt>
      <trkpt lat="44.79469" lon="6.56254">
        <ele>1024.6</ele>
        <time>2022-07-19T18:09:16Z</time>
      </trkpt>
      <trkpt lat="44.79471" lon="6.56254">
        <ele>1024.6</ele>
        <time>2022-07-19T18:09:17Z</time>
      </trkpt>
      <trkpt lat="44.79473" lon="6.56254">
        <ele>1024.8</ele>
        <time>2022-07-19T18:09:18Z</time>
      </trkpt>
      <trkpt lat="44.79475" lon="6.56254">
        <ele>1024.8</ele>
        <time>2022-07-19T18:09:19Z</time>
      </trkpt>
      <trkpt lat="44.79476" lon="6.56254">
        <ele>1025.2</ele>
        <time>2022-07-19T18:09:20Z</time>
      </trkpt>
      <trkpt lat="44.79478" lon="6.56254">
        <ele>1025.2</ele>
        <time>2022-07-19T18:09:21Z</time>
      </trkpt>
      <trkpt lat="44.7948" lon="6.56254">
        <ele>1025.6</ele>
        <time>2022-07-19T18:09:22Z</time>
      </trkpt>
      <trkpt lat="44.79482" lon="6.56254">
        <ele>1025.8</ele>
        <time>2022-07-19T18:09:23Z</time>
      </trkpt>
      <trkpt lat="44.79483" lon="6.56253">
        <ele>1025.8</ele>
        <time>2022-07-19T18:09:24Z</time>
      </trkpt>
      <trkpt lat="44.79485" lon="6.56253">
        <ele>1026</ele>
        <time>2022-07-19T18:09:25Z</time>
      </trkpt>
      <trkpt lat="44.79487" lon="6.56253">
        <ele>1026</ele>
        <time>2022-07-19T18:09:26Z</time>
      </trkpt>
      <trkpt lat="44.79489" lon="6.56253">
        <ele>1026.4</ele>
        <time>2022-07-19T18:09:27Z</time>
      </trkpt>
      <trkpt lat="44.79491" lon="6.56253">
        <ele>1026.4</ele>
        <time>2022-07-19T18:09:28Z</time>
      </trkpt>
      <trkpt lat="44.79493" lon="6.56253">
        <ele>1026.8</ele>
        <time>2022-07-19T18:09:29Z</time>
      </trkpt>
      <trkpt lat="44.79495" lon="6.56253">
        <ele>1027</ele>
        <time>2022-07-19T18:09:30Z</time>
      </trkpt>
      <trkpt lat="44.79497" lon="6.56253">
        <ele>1027</ele>
        <time>2022-07-19T18:09:31Z</time>
      </trkpt>
      <trkpt lat="44.79499" lon="6.56252">
        <ele>1027.2</ele>
        <time>2022-07-19T18:09:32Z</time>
      </trkpt>
      <trkpt lat="44.79501" lon="6.56253">
        <ele>1027.2</ele>
        <time>2022-07-19T18:09:33Z</time>
      </trkpt>
      <trkpt lat="44.79502" lon="6.56253">
        <ele>1027.6</ele>
        <time>2022-07-19T18:09:34Z</time>
      </trkpt>
      <trkpt lat="44.79504" lon="6.56254">
        <ele>1027.6</ele>
        <time>2022-07-19T18:09:35Z</time>
      </trkpt>
      <trkpt lat="44.79506" lon="6.56254">
        <ele>1027.8</ele>
        <time>2022-07-19T18:09:36Z</time>
      </trkpt>
      <trkpt lat="44.79507" lon="6.56254">
        <ele>1027.8</ele>
        <time>2022-07-19T18:09:37Z</time>
      </trkpt>
      <trkpt lat="44.79509" lon="6.56254">
        <ele>1028.4</ele>
        <time>2022-07-19T18:09:38Z</time>
      </trkpt>
      <trkpt lat="44.7951" lon="6.56253">
        <ele>1028.6</ele>
        <time>2022-07-19T18:09:39Z</time>
      </trkpt>
      <trkpt lat="44.79512" lon="6.56254">
        <ele>1028.6</ele>
        <time>2022-07-19T18:09:40Z</time>
      </trkpt>
      <trkpt lat="44.79514" lon="6.56254">
        <ele>1029</ele>
        <time>2022-07-19T18:09:41Z</time>
      </trkpt>
      <trkpt lat="44.79516" lon="6.56254">
        <ele>1029.2</ele>
        <time>2022-07-19T18:09:42Z</time>
      </trkpt>
      <trkpt lat="44.79518" lon="6.56255">
        <ele>1029.4</ele>
        <time>2022-07-19T18:09:43Z</time>
      </trkpt>
      <trkpt lat="44.79519" lon="6.56255">
        <ele>1029.8</ele>
        <time>2022-07-19T18:09:44Z</time>
      </trkpt>
      <trkpt lat="44.79521" lon="6.56256">
        <ele>1029.8</ele>
        <time>2022-07-19T18:09:45Z</time>
      </trkpt>
      <trkpt lat="44.79523" lon="6.56256">
        <ele>1030.2</ele>
        <time>2022-07-19T18:09:46Z</time>
      </trkpt>
      <trkpt lat="44.79524" lon="6.56256">
        <ele>1030.2</ele>
        <time>2022-07-19T18:09:47Z</time>
      </trkpt>
      <trkpt lat="44.79526" lon="6.56256">
        <ele>1030.4</ele>
        <time>2022-07-19T18:09:48Z</time>
      </trkpt>
      <trkpt lat="44.79528" lon="6.56256">
        <ele>1030.4</ele>
        <time>2022-07-19T18:09:49Z</time>
      </trkpt>
      <trkpt lat="44.7953" lon="6.56256">
        <ele>1030.6</ele>
        <time>2022-07-19T18:09:50Z</time>
      </trkpt>
      <trkpt lat="44.79532" lon="6.56256">
        <ele>1030.6</ele>
        <time>2022-07-19T18:09:51Z</time>
      </trkpt>
      <trkpt lat="44.79534" lon="6.56257">
        <ele>1031</ele>
        <time>2022-07-19T18:09:52Z</time>
      </trkpt>
      <trkpt lat="44.79536" lon="6.56256">
        <ele>1031</ele>
        <time>2022-07-19T18:09:53Z</time>
      </trkpt>
      <trkpt lat="44.79538" lon="6.56256">
        <ele>1031.2</ele>
        <time>2022-07-19T18:09:54Z</time>
      </trkpt>
      <trkpt lat="44.79539" lon="6.56256">
        <ele>1031.2</ele>
        <time>2022-07-19T18:09:55Z</time>
      </trkpt>
      <trkpt lat="44.79541" lon="6.56257">
        <ele>1031.6</ele>
        <time>2022-07-19T18:09:56Z</time>
      </trkpt>
      <trkpt lat="44.79543" lon="6.56257">
        <ele>1032</ele>
        <time>2022-07-19T18:09:57Z</time>
      </trkpt>
      <trkpt lat="44.79545" lon="6.56257">
        <ele>1032</ele>
        <time>2022-07-19T18:09:58Z</time>
      </trkpt>
      <trkpt lat="44.79546" lon="6.56258">
        <ele>1032.2</ele>
        <time>2022-07-19T18:09:59Z</time>
      </trkpt>
      <trkpt lat="44.79548" lon="6.56258">
        <ele>1032.4</ele>
        <time>2022-07-19T18:10:00Z</time>
      </trkpt>
      <trkpt lat="44.7955" lon="6.56259">
        <ele>1032.6</ele>
        <time>2022-07-19T18:10:01Z</time>
      </trkpt>
      <trkpt lat="44.79552" lon="6.56259">
        <ele>1032.6</ele>
        <time>2022-07-19T18:10:02Z</time>
      </trkpt>
      <trkpt lat="44.79554" lon="6.5626">
        <ele>1032.6</ele>
        <time>2022-07-19T18:10:03Z</time>
      </trkpt>
      <trkpt lat="44.79556" lon="6.5626">
        <ele>1032.6</ele>
        <time>2022-07-19T18:10:04Z</time>
      </trkpt>
      <trkpt lat="44.79557" lon="6.56259">
        <ele>1033.2</ele>
        <time>2022-07-19T18:10:05Z</time>
      </trkpt>
      <trkpt lat="44.79559" lon="6.56259">
        <ele>1033.4</ele>
        <time>2022-07-19T18:10:06Z</time>
      </trkpt>
      <trkpt lat="44.79562" lon="6.56259">
        <ele>1033.6</ele>
        <time>2022-07-19T18:10:07Z</time>
      </trkpt>
      <trkpt lat="44.79564" lon="6.56259">
        <ele>1033.6</ele>
        <time>2022-07-19T18:10:08Z</time>
      </trkpt>
      <trkpt lat="44.79565" lon="6.5626">
        <ele>1034</ele>
        <time>2022-07-19T18:10:09Z</time>
      </trkpt>
      <trkpt lat="44.79567" lon="6.56261">
        <ele>1034</ele>
        <time>2022-07-19T18:10:10Z</time>
      </trkpt>
      <trkpt lat="44.79569" lon="6.56261">
        <ele>1034</ele>
        <time>2022-07-19T18:10:11Z</time>
      </trkpt>
      <trkpt lat="44.79571" lon="6.56262">
        <ele>1034.2</ele>
        <time>2022-07-19T18:10:12Z</time>
      </trkpt>
      <trkpt lat="44.79573" lon="6.56262">
        <ele>1034.2</ele>
        <time>2022-07-19T18:10:13Z</time>
      </trkpt>
      <trkpt lat="44.79575" lon="6.56263">
        <ele>1034.6</ele>
        <time>2022-07-19T18:10:14Z</time>
      </trkpt>
      <trkpt lat="44.79577" lon="6.56264">
        <ele>1034.6</ele>
        <time>2022-07-19T18:10:15Z</time>
      </trkpt>
      <trkpt lat="44.79579" lon="6.56264">
        <ele>1034.8</ele>
        <time>2022-07-19T18:10:16Z</time>
      </trkpt>
      <trkpt lat="44.79581" lon="6.56265">
        <ele>1034.8</ele>
        <time>2022-07-19T18:10:17Z</time>
      </trkpt>
      <trkpt lat="44.79583" lon="6.56265">
        <ele>1035.2</ele>
        <time>2022-07-19T18:10:18Z</time>
      </trkpt>
      <trkpt lat="44.79585" lon="6.56266">
        <ele>1035.2</ele>
        <time>2022-07-19T18:10:19Z</time>
      </trkpt>
      <trkpt lat="44.79587" lon="6.56266">
        <ele>1035.6</ele>
        <time>2022-07-19T18:10:20Z</time>
      </trkpt>
      <trkpt lat="44.79589" lon="6.56267">
        <ele>1035.6</ele>
        <time>2022-07-19T18:10:21Z</time>
      </trkpt>
      <trkpt lat="44.79591" lon="6.56267">
        <ele>1035.8</ele>
        <time>2022-07-19T18:10:22Z</time>
      </trkpt>
      <trkpt lat="44.79592" lon="6.56268">
        <ele>1035.8</ele>
        <time>2022-07-19T18:10:23Z</time>
      </trkpt>
      <trkpt lat="44.79594" lon="6.56269">
        <ele>1036.2</ele>
        <time>2022-07-19T18:10:24Z</time>
      </trkpt>
      <trkpt lat="44.79596" lon="6.5627">
        <ele>1036.4</ele>
        <time>2022-07-19T18:10:25Z</time>
      </trkpt>
      <trkpt lat="44.79598" lon="6.5627">
        <ele>1036.4</ele>
        <time>2022-07-19T18:10:26Z</time>
      </trkpt>
      <trkpt lat="44.796" lon="6.56271">
        <ele>1036.8</ele>
        <time>2022-07-19T18:10:27Z</time>
      </trkpt>
      <trkpt lat="44.79602" lon="6.56272">
        <ele>1036.8</ele>
        <time>2022-07-19T18:10:28Z</time>
      </trkpt>
      <trkpt lat="44.79604" lon="6.56272">
        <ele>1037.2</ele>
        <time>2022-07-19T18:10:29Z</time>
      </trkpt>
      <trkpt lat="44.79606" lon="6.56273">
        <ele>1037.2</ele>
        <time>2022-07-19T18:10:30Z</time>
      </trkpt>
      <trkpt lat="44.79608" lon="6.56273">
        <ele>1037.6</ele>
        <time>2022-07-19T18:10:31Z</time>
      </trkpt>
      <trkpt lat="44.7961" lon="6.56274">
        <ele>1037.8</ele>
        <time>2022-07-19T18:10:32Z</time>
      </trkpt>
      <trkpt lat="44.79612" lon="6.56274">
        <ele>1037.8</ele>
        <time>2022-07-19T18:10:33Z</time>
      </trkpt>
      <trkpt lat="44.79614" lon="6.56275">
        <ele>1038.2</ele>
        <time>2022-07-19T18:10:34Z</time>
      </trkpt>
      <trkpt lat="44.79615" lon="6.56276">
        <ele>1038.2</ele>
        <time>2022-07-19T18:10:35Z</time>
      </trkpt>
      <trkpt lat="44.79617" lon="6.56276">
        <ele>1038.6</ele>
        <time>2022-07-19T18:10:36Z</time>
      </trkpt>
      <trkpt lat="44.79619" lon="6.56277">
        <ele>1038.6</ele>
        <time>2022-07-19T18:10:37Z</time>
      </trkpt>
      <trkpt lat="44.79621" lon="6.56277">
        <ele>1038.8</ele>
        <time>2022-07-19T18:10:38Z</time>
      </trkpt>
      <trkpt lat="44.79623" lon="6.56278">
        <ele>1038.8</ele>
        <time>2022-07-19T18:10:39Z</time>
      </trkpt>
      <trkpt lat="44.79625" lon="6.56278">
        <ele>1039</ele>
        <time>2022-07-19T18:10:40Z</time>
      </trkpt>
      <trkpt lat="44.79626" lon="6.56277">
        <ele>1039.2</ele>
        <time>2022-07-19T18:10:41Z</time>
      </trkpt>
      <trkpt lat="44.79628" lon="6.56278">
        <ele>1039.2</ele>
        <time>2022-07-19T18:10:42Z</time>
      </trkpt>
      <trkpt lat="44.7963" lon="6.56279">
        <ele>1039.6</ele>
        <time>2022-07-19T18:10:43Z</time>
      </trkpt>
      <trkpt lat="44.79631" lon="6.56279">
        <ele>1039.6</ele>
        <time>2022-07-19T18:10:44Z</time>
      </trkpt>
      <trkpt lat="44.79633" lon="6.5628">
        <ele>1039.6</ele>
        <time>2022-07-19T18:10:45Z</time>
      </trkpt>
      <trkpt lat="44.79635" lon="6.56282">
        <ele>1040.2</ele>
        <time>2022-07-19T18:10:46Z</time>
      </trkpt>
      <trkpt lat="44.79637" lon="6.56283">
        <ele>1040.4</ele>
        <time>2022-07-19T18:10:47Z</time>
      </trkpt>
      <trkpt lat="44.79638" lon="6.56283">
        <ele>1040.4</ele>
        <time>2022-07-19T18:10:48Z</time>
      </trkpt>
      <trkpt lat="44.7964" lon="6.56284">
        <ele>1040.4</ele>
        <time>2022-07-19T18:10:49Z</time>
      </trkpt>
      <trkpt lat="44.79642" lon="6.56285">
        <ele>1040.4</ele>
        <time>2022-07-19T18:10:50Z</time>
      </trkpt>
      <trkpt lat="44.79644" lon="6.56286">
        <ele>1040.6</ele>
        <time>2022-07-19T18:10:51Z</time>
      </trkpt>
      <trkpt lat="44.79646" lon="6.56287">
        <ele>1040.6</ele>
        <time>2022-07-19T18:10:52Z</time>
      </trkpt>
      <trkpt lat="44.79648" lon="6.56287">
        <ele>1041</ele>
        <time>2022-07-19T18:10:53Z</time>
      </trkpt>
      <trkpt lat="44.79649" lon="6.56288">
        <ele>1041</ele>
        <time>2022-07-19T18:10:54Z</time>
      </trkpt>
      <trkpt lat="44.79651" lon="6.56289">
        <ele>1041.4</ele>
        <time>2022-07-19T18:10:55Z</time>
      </trkpt>
      <trkpt lat="44.79653" lon="6.5629">
        <ele>1041.6</ele>
        <time>2022-07-19T18:10:56Z</time>
      </trkpt>
      <trkpt lat="44.79655" lon="6.5629">
        <ele>1041.6</ele>
        <time>2022-07-19T18:10:57Z</time>
      </trkpt>
      <trkpt lat="44.79656" lon="6.56291">
        <ele>1042</ele>
        <time>2022-07-19T18:10:58Z</time>
      </trkpt>
      <trkpt lat="44.79658" lon="6.56292">
        <ele>1042.4</ele>
        <time>2022-07-19T18:10:59Z</time>
      </trkpt>
      <trkpt lat="44.7966" lon="6.56293">
        <ele>1042.4</ele>
        <time>2022-07-19T18:11:00Z</time>
      </trkpt>
      <trkpt lat="44.79661" lon="6.56293">
        <ele>1042.6</ele>
        <time>2022-07-19T18:11:01Z</time>
      </trkpt>
      <trkpt lat="44.79663" lon="6.56294">
        <ele>1042.8</ele>
        <time>2022-07-19T18:11:02Z</time>
      </trkpt>
      <trkpt lat="44.79665" lon="6.56295">
        <ele>1042.8</ele>
        <time>2022-07-19T18:11:03Z</time>
      </trkpt>
      <trkpt lat="44.79666" lon="6.56296">
        <ele>1042.8</ele>
        <time>2022-07-19T18:11:04Z</time>
      </trkpt>
      <trkpt lat="44.79668" lon="6.56297">
        <ele>1043.2</ele>
        <time>2022-07-19T18:11:05Z</time>
      </trkpt>
      <trkpt lat="44.79671" lon="6.563">
        <ele>1043.2</ele>
        <time>2022-07-19T18:11:06Z</time>
      </trkpt>
      <trkpt lat="44.79673" lon="6.563">
        <ele>1043.6</ele>
        <time>2022-07-19T18:11:07Z</time>
      </trkpt>
      <trkpt lat="44.79675" lon="6.56301">
        <ele>1043.6</ele>
        <time>2022-07-19T18:11:08Z</time>
      </trkpt>
      <trkpt lat="44.79676" lon="6.56302">
        <ele>1043.8</ele>
        <time>2022-07-19T18:11:09Z</time>
      </trkpt>
      <trkpt lat="44.79678" lon="6.56303">
        <ele>1043.8</ele>
        <time>2022-07-19T18:11:10Z</time>
      </trkpt>
      <trkpt lat="44.7968" lon="6.56304">
        <ele>1044.2</ele>
        <time>2022-07-19T18:11:11Z</time>
      </trkpt>
      <trkpt lat="44.79681" lon="6.56305">
        <ele>1044.2</ele>
        <time>2022-07-19T18:11:12Z</time>
      </trkpt>
      <trkpt lat="44.79683" lon="6.56306">
        <ele>1044.4</ele>
        <time>2022-07-19T18:11:13Z</time>
      </trkpt>
      <trkpt lat="44.79684" lon="6.56307">
        <ele>1044.4</ele>
        <time>2022-07-19T18:11:14Z</time>
      </trkpt>
      <trkpt lat="44.79686" lon="6.56308">
        <ele>1044.8</ele>
        <time>2022-07-19T18:11:15Z</time>
      </trkpt>
      <trkpt lat="44.79687" lon="6.56309">
        <ele>1044.8</ele>
        <time>2022-07-19T18:11:16Z</time>
      </trkpt>
      <trkpt lat="44.79689" lon="6.5631">
        <ele>1045</ele>
        <time>2022-07-19T18:11:17Z</time>
      </trkpt>
      <trkpt lat="44.7969" lon="6.56311">
        <ele>1045</ele>
        <time>2022-07-19T18:11:18Z</time>
      </trkpt>
      <trkpt lat="44.79692" lon="6.56312">
        <ele>1045.4</ele>
        <time>2022-07-19T18:11:19Z</time>
      </trkpt>
      <trkpt lat="44.79693" lon="6.56313">
        <ele>1045.4</ele>
        <time>2022-07-19T18:11:20Z</time>
      </trkpt>
      <trkpt lat="44.79695" lon="6.56314">
        <ele>1045.6</ele>
        <time>2022-07-19T18:11:21Z</time>
      </trkpt>
      <trkpt lat="44.79696" lon="6.56315">
        <ele>1045.6</ele>
        <time>2022-07-19T18:11:22Z</time>
      </trkpt>
      <trkpt lat="44.79698" lon="6.56316">
        <ele>1045.8</ele>
        <time>2022-07-19T18:11:23Z</time>
      </trkpt>
      <trkpt lat="44.79699" lon="6.56317">
        <ele>1045.8</ele>
        <time>2022-07-19T18:11:24Z</time>
      </trkpt>
      <trkpt lat="44.79701" lon="6.56318">
        <ele>1046.2</ele>
        <time>2022-07-19T18:11:25Z</time>
      </trkpt>
      <trkpt lat="44.79702" lon="6.5632">
        <ele>1046.2</ele>
        <time>2022-07-19T18:11:26Z</time>
      </trkpt>
      <trkpt lat="44.79703" lon="6.56321">
        <ele>1046.6</ele>
        <time>2022-07-19T18:11:27Z</time>
      </trkpt>
      <trkpt lat="44.79705" lon="6.56322">
        <ele>1046.8</ele>
        <time>2022-07-19T18:11:28Z</time>
      </trkpt>
      <trkpt lat="44.79707" lon="6.56323">
        <ele>1046.8</ele>
        <time>2022-07-19T18:11:29Z</time>
      </trkpt>
      <trkpt lat="44.79708" lon="6.56324">
        <ele>1047.2</ele>
        <time>2022-07-19T18:11:30Z</time>
      </trkpt>
      <trkpt lat="44.7971" lon="6.56325">
        <ele>1047.2</ele>
        <time>2022-07-19T18:11:31Z</time>
      </trkpt>
      <trkpt lat="44.79711" lon="6.56327">
        <ele>1047.4</ele>
        <time>2022-07-19T18:11:32Z</time>
      </trkpt>
      <trkpt lat="44.79712" lon="6.56328">
        <ele>1047.4</ele>
        <time>2022-07-19T18:11:33Z</time>
      </trkpt>
      <trkpt lat="44.79714" lon="6.56329">
        <ele>1047.6</ele>
        <time>2022-07-19T18:11:34Z</time>
      </trkpt>
      <trkpt lat="44.79715" lon="6.5633">
        <ele>1047.6</ele>
        <time>2022-07-19T18:11:35Z</time>
      </trkpt>
      <trkpt lat="44.79717" lon="6.56331">
        <ele>1047.8</ele>
        <time>2022-07-19T18:11:36Z</time>
      </trkpt>
      <trkpt lat="44.79719" lon="6.56332">
        <ele>1047.8</ele>
        <time>2022-07-19T18:11:37Z</time>
      </trkpt>
      <trkpt lat="44.7972" lon="6.56333">
        <ele>1047.8</ele>
        <time>2022-07-19T18:11:38Z</time>
      </trkpt>
      <trkpt lat="44.79722" lon="6.56334">
        <ele>1048.2</ele>
        <time>2022-07-19T18:11:39Z</time>
      </trkpt>
      <trkpt lat="44.79723" lon="6.56335">
        <ele>1048.2</ele>
        <time>2022-07-19T18:11:40Z</time>
      </trkpt>
      <trkpt lat="44.79725" lon="6.56336">
        <ele>1048.6</ele>
        <time>2022-07-19T18:11:41Z</time>
      </trkpt>
      <trkpt lat="44.79726" lon="6.56337">
        <ele>1048.6</ele>
        <time>2022-07-19T18:11:42Z</time>
      </trkpt>
      <trkpt lat="44.79727" lon="6.56338">
        <ele>1049</ele>
        <time>2022-07-19T18:11:43Z</time>
      </trkpt>
      <trkpt lat="44.79729" lon="6.56339">
        <ele>1049</ele>
        <time>2022-07-19T18:11:44Z</time>
      </trkpt>
      <trkpt lat="44.7973" lon="6.5634">
        <ele>1049.2</ele>
        <time>2022-07-19T18:11:45Z</time>
      </trkpt>
      <trkpt lat="44.79732" lon="6.56341">
        <ele>1049.2</ele>
        <time>2022-07-19T18:11:46Z</time>
      </trkpt>
      <trkpt lat="44.79733" lon="6.56342">
        <ele>1049.4</ele>
        <time>2022-07-19T18:11:47Z</time>
      </trkpt>
      <trkpt lat="44.79734" lon="6.56344">
        <ele>1049.4</ele>
        <time>2022-07-19T18:11:48Z</time>
      </trkpt>
      <trkpt lat="44.79736" lon="6.56345">
        <ele>1049.6</ele>
        <time>2022-07-19T18:11:49Z</time>
      </trkpt>
      <trkpt lat="44.79737" lon="6.56346">
        <ele>1049.6</ele>
        <time>2022-07-19T18:11:50Z</time>
      </trkpt>
      <trkpt lat="44.79739" lon="6.56347">
        <ele>1049.6</ele>
        <time>2022-07-19T18:11:51Z</time>
      </trkpt>
      <trkpt lat="44.7974" lon="6.56348">
        <ele>1050</ele>
        <time>2022-07-19T18:11:52Z</time>
      </trkpt>
      <trkpt lat="44.79741" lon="6.5635">
        <ele>1050</ele>
        <time>2022-07-19T18:11:53Z</time>
      </trkpt>
      <trkpt lat="44.79743" lon="6.56351">
        <ele>1050.2</ele>
        <time>2022-07-19T18:11:54Z</time>
      </trkpt>
      <trkpt lat="44.79744" lon="6.56352">
        <ele>1050.2</ele>
        <time>2022-07-19T18:11:55Z</time>
      </trkpt>
      <trkpt lat="44.79746" lon="6.56353">
        <ele>1050.4</ele>
        <time>2022-07-19T18:11:56Z</time>
      </trkpt>
      <trkpt lat="44.79747" lon="6.56354">
        <ele>1050.4</ele>
        <time>2022-07-19T18:11:57Z</time>
      </trkpt>
      <trkpt lat="44.79748" lon="6.56355">
        <ele>1050.6</ele>
        <time>2022-07-19T18:11:58Z</time>
      </trkpt>
      <trkpt lat="44.7975" lon="6.56356">
        <ele>1050.6</ele>
        <time>2022-07-19T18:11:59Z</time>
      </trkpt>
      <trkpt lat="44.79751" lon="6.56357">
        <ele>1051</ele>
        <time>2022-07-19T18:12:00Z</time>
      </trkpt>
      <trkpt lat="44.79752" lon="6.56358">
        <ele>1051</ele>
        <time>2022-07-19T18:12:01Z</time>
      </trkpt>
      <trkpt lat="44.79754" lon="6.5636">
        <ele>1051.4</ele>
        <time>2022-07-19T18:12:02Z</time>
      </trkpt>
      <trkpt lat="44.79755" lon="6.56361">
        <ele>1051.4</ele>
        <time>2022-07-19T18:12:03Z</time>
      </trkpt>
      <trkpt lat="44.79757" lon="6.56362">
        <ele>1051.6</ele>
        <time>2022-07-19T18:12:04Z</time>
      </trkpt>
      <trkpt lat="44.79759" lon="6.56363">
        <ele>1051.6</ele>
        <time>2022-07-19T18:12:05Z</time>
      </trkpt>
      <trkpt lat="44.7976" lon="6.56365">
        <ele>1051.6</ele>
        <time>2022-07-19T18:12:06Z</time>
      </trkpt>
      <trkpt lat="44.79762" lon="6.56366">
        <ele>1052</ele>
        <time>2022-07-19T18:12:07Z</time>
      </trkpt>
      <trkpt lat="44.79764" lon="6.56367">
        <ele>1052.2</ele>
        <time>2022-07-19T18:12:08Z</time>
      </trkpt>
      <trkpt lat="44.79766" lon="6.56369">
        <ele>1052.2</ele>
        <time>2022-07-19T18:12:09Z</time>
      </trkpt>
      <trkpt lat="44.79767" lon="6.5637">
        <ele>1052.6</ele>
        <time>2022-07-19T18:12:10Z</time>
      </trkpt>
      <trkpt lat="44.79769" lon="6.56372">
        <ele>1052.6</ele>
        <time>2022-07-19T18:12:11Z</time>
      </trkpt>
      <trkpt lat="44.79771" lon="6.56373">
        <ele>1052.6</ele>
        <time>2022-07-19T18:12:12Z</time>
      </trkpt>
      <trkpt lat="44.79772" lon="6.56375">
        <ele>1052.8</ele>
        <time>2022-07-19T18:12:13Z</time>
      </trkpt>
      <trkpt lat="44.79774" lon="6.56377">
        <ele>1052.8</ele>
        <time>2022-07-19T18:12:14Z</time>
      </trkpt>
      <trkpt lat="44.79775" lon="6.56378">
        <ele>1052.8</ele>
        <time>2022-07-19T18:12:16Z</time>
      </trkpt>
      <trkpt lat="44.79777" lon="6.5638">
        <ele>1052.8</ele>
        <time>2022-07-19T18:12:17Z</time>
      </trkpt>
      <trkpt lat="44.79778" lon="6.56382">
        <ele>1053</ele>
        <time>2022-07-19T18:12:18Z</time>
      </trkpt>
      <trkpt lat="44.7978" lon="6.56383">
        <ele>1053</ele>
        <time>2022-07-19T18:12:19Z</time>
      </trkpt>
      <trkpt lat="44.79782" lon="6.56385">
        <ele>1053.4</ele>
        <time>2022-07-19T18:12:20Z</time>
      </trkpt>
      <trkpt lat="44.79783" lon="6.56386">
        <ele>1053.4</ele>
        <time>2022-07-19T18:12:21Z</time>
      </trkpt>
      <trkpt lat="44.79785" lon="6.56388">
        <ele>1053.6</ele>
        <time>2022-07-19T18:12:22Z</time>
      </trkpt>
      <trkpt lat="44.79786" lon="6.56389">
        <ele>1053.6</ele>
        <time>2022-07-19T18:12:23Z</time>
      </trkpt>
      <trkpt lat="44.79788" lon="6.56391">
        <ele>1054</ele>
        <time>2022-07-19T18:12:24Z</time>
      </trkpt>
      <trkpt lat="44.7979" lon="6.56392">
        <ele>1054.2</ele>
        <time>2022-07-19T18:12:25Z</time>
      </trkpt>
      <trkpt lat="44.79791" lon="6.56394">
        <ele>1054.2</ele>
        <time>2022-07-19T18:12:26Z</time>
      </trkpt>
      <trkpt lat="44.79793" lon="6.56396">
        <ele>1054.2</ele>
        <time>2022-07-19T18:12:27Z</time>
      </trkpt>
      <trkpt lat="44.79794" lon="6.56398">
        <ele>1054.2</ele>
        <time>2022-07-19T18:12:28Z</time>
      </trkpt>
      <trkpt lat="44.79795" lon="6.564">
        <ele>1054.6</ele>
        <time>2022-07-19T18:12:29Z</time>
      </trkpt>
      <trkpt lat="44.79796" lon="6.56402">
        <ele>1054.6</ele>
        <time>2022-07-19T18:12:30Z</time>
      </trkpt>
      <trkpt lat="44.79798" lon="6.56404">
        <ele>1054.6</ele>
        <time>2022-07-19T18:12:31Z</time>
      </trkpt>
      <trkpt lat="44.79799" lon="6.56406">
        <ele>1054.6</ele>
        <time>2022-07-19T18:12:32Z</time>
      </trkpt>
      <trkpt lat="44.798" lon="6.56408">
        <ele>1055</ele>
        <time>2022-07-19T18:12:33Z</time>
      </trkpt>
      <trkpt lat="44.79802" lon="6.56409">
        <ele>1055</ele>
        <time>2022-07-19T18:12:34Z</time>
      </trkpt>
      <trkpt lat="44.79803" lon="6.56411">
        <ele>1055.2</ele>
        <time>2022-07-19T18:12:35Z</time>
      </trkpt>
      <trkpt lat="44.79804" lon="6.56413">
        <ele>1055.2</ele>
        <time>2022-07-19T18:12:36Z</time>
      </trkpt>
      <trkpt lat="44.79806" lon="6.56415">
        <ele>1055.4</ele>
        <time>2022-07-19T18:12:37Z</time>
      </trkpt>
      <trkpt lat="44.79807" lon="6.56417">
        <ele>1055.4</ele>
        <time>2022-07-19T18:12:38Z</time>
      </trkpt>
      <trkpt lat="44.79808" lon="6.56419">
        <ele>1055.8</ele>
        <time>2022-07-19T18:12:39Z</time>
      </trkpt>
      <trkpt lat="44.79809" lon="6.56421">
        <ele>1055.8</ele>
        <time>2022-07-19T18:12:40Z</time>
      </trkpt>
      <trkpt lat="44.79811" lon="6.56423">
        <ele>1056</ele>
        <time>2022-07-19T18:12:41Z</time>
      </trkpt>
      <trkpt lat="44.79812" lon="6.56424">
        <ele>1056</ele>
        <time>2022-07-19T18:12:42Z</time>
      </trkpt>
      <trkpt lat="44.79813" lon="6.56426">
        <ele>1056.4</ele>
        <time>2022-07-19T18:12:43Z</time>
      </trkpt>
      <trkpt lat="44.79814" lon="6.56428">
        <ele>1056.4</ele>
        <time>2022-07-19T18:12:44Z</time>
      </trkpt>
      <trkpt lat="44.79816" lon="6.5643">
        <ele>1056.6</ele>
        <time>2022-07-19T18:12:45Z</time>
      </trkpt>
      <trkpt lat="44.79817" lon="6.56432">
        <ele>1056.6</ele>
        <time>2022-07-19T18:12:46Z</time>
      </trkpt>
      <trkpt lat="44.79818" lon="6.56434">
        <ele>1057</ele>
        <time>2022-07-19T18:12:47Z</time>
      </trkpt>
      <trkpt lat="44.7982" lon="6.56436">
        <ele>1057</ele>
        <time>2022-07-19T18:12:48Z</time>
      </trkpt>
      <trkpt lat="44.79821" lon="6.56438">
        <ele>1057.2</ele>
        <time>2022-07-19T18:12:49Z</time>
      </trkpt>
      <trkpt lat="44.79823" lon="6.5644">
        <ele>1057.2</ele>
        <time>2022-07-19T18:12:50Z</time>
      </trkpt>
      <trkpt lat="44.79824" lon="6.56442">
        <ele>1057.2</ele>
        <time>2022-07-19T18:12:51Z</time>
      </trkpt>
      <trkpt lat="44.79825" lon="6.56444">
        <ele>1057.4</ele>
        <time>2022-07-19T18:12:52Z</time>
      </trkpt>
      <trkpt lat="44.79827" lon="6.56446">
        <ele>1057.4</ele>
        <time>2022-07-19T18:12:53Z</time>
      </trkpt>
      <trkpt lat="44.79828" lon="6.56448">
        <ele>1057.6</ele>
        <time>2022-07-19T18:12:54Z</time>
      </trkpt>
      <trkpt lat="44.79829" lon="6.5645">
        <ele>1058</ele>
        <time>2022-07-19T18:12:55Z</time>
      </trkpt>
      <trkpt lat="44.7983" lon="6.56452">
        <ele>1058</ele>
        <time>2022-07-19T18:12:56Z</time>
      </trkpt>
      <trkpt lat="44.79832" lon="6.56454">
        <ele>1058.2</ele>
        <time>2022-07-19T18:12:57Z</time>
      </trkpt>
      <trkpt lat="44.79833" lon="6.56455">
        <ele>1058.2</ele>
        <time>2022-07-19T18:12:58Z</time>
      </trkpt>
      <trkpt lat="44.79834" lon="6.56457">
        <ele>1058.2</ele>
        <time>2022-07-19T18:12:59Z</time>
      </trkpt>
      <trkpt lat="44.79835" lon="6.5646">
        <ele>1058.4</ele>
        <time>2022-07-19T18:13:00Z</time>
      </trkpt>
      <trkpt lat="44.79837" lon="6.56462">
        <ele>1058.4</ele>
        <time>2022-07-19T18:13:01Z</time>
      </trkpt>
      <trkpt lat="44.79838" lon="6.56464">
        <ele>1058.4</ele>
        <time>2022-07-19T18:13:02Z</time>
      </trkpt>
      <trkpt lat="44.79839" lon="6.56465">
        <ele>1058.8</ele>
        <time>2022-07-19T18:13:03Z</time>
      </trkpt>
      <trkpt lat="44.7984" lon="6.56467">
        <ele>1058.8</ele>
        <time>2022-07-19T18:13:04Z</time>
      </trkpt>
      <trkpt lat="44.79842" lon="6.56469">
        <ele>1059.2</ele>
        <time>2022-07-19T18:13:05Z</time>
      </trkpt>
      <trkpt lat="44.79843" lon="6.56471">
        <ele>1059.2</ele>
        <time>2022-07-19T18:13:06Z</time>
      </trkpt>
      <trkpt lat="44.79844" lon="6.56473">
        <ele>1059.4</ele>
        <time>2022-07-19T18:13:07Z</time>
      </trkpt>
      <trkpt lat="44.79846" lon="6.56475">
        <ele>1059.4</ele>
        <time>2022-07-19T18:13:08Z</time>
      </trkpt>
      <trkpt lat="44.79846" lon="6.56478">
        <ele>1059.6</ele>
        <time>2022-07-19T18:13:09Z</time>
      </trkpt>
      <trkpt lat="44.79846" lon="6.5648">
        <ele>1059.6</ele>
        <time>2022-07-19T18:13:10Z</time>
      </trkpt>
      <trkpt lat="44.79846" lon="6.56483">
        <ele>1059.8</ele>
        <time>2022-07-19T18:13:11Z</time>
      </trkpt>
      <trkpt lat="44.79847" lon="6.56486">
        <ele>1059.8</ele>
        <time>2022-07-19T18:13:12Z</time>
      </trkpt>
      <trkpt lat="44.79848" lon="6.56488">
        <ele>1059.8</ele>
        <time>2022-07-19T18:13:13Z</time>
      </trkpt>
      <trkpt lat="44.79849" lon="6.56488">
        <ele>1059.8</ele>
        <time>2022-07-19T18:13:14Z</time>
      </trkpt>
      <trkpt lat="44.79851" lon="6.56489">
        <ele>1060</ele>
        <time>2022-07-19T18:13:15Z</time>
      </trkpt>
      <trkpt lat="44.79853" lon="6.5649">
        <ele>1060</ele>
        <time>2022-07-19T18:13:16Z</time>
      </trkpt>
      <trkpt lat="44.79855" lon="6.56491">
        <ele>1060.4</ele>
        <time>2022-07-19T18:13:17Z</time>
      </trkpt>
      <trkpt lat="44.79857" lon="6.56493">
        <ele>1060.4</ele>
        <time>2022-07-19T18:13:18Z</time>
      </trkpt>
      <trkpt lat="44.79859" lon="6.56495">
        <ele>1060.6</ele>
        <time>2022-07-19T18:13:19Z</time>
      </trkpt>
      <trkpt lat="44.79861" lon="6.56498">
        <ele>1060.6</ele>
        <time>2022-07-19T18:13:20Z</time>
      </trkpt>
      <trkpt lat="44.79863" lon="6.565">
        <ele>1061</ele>
        <time>2022-07-19T18:13:21Z</time>
      </trkpt>
      <trkpt lat="44.79864" lon="6.56503">
        <ele>1061.2</ele>
        <time>2022-07-19T18:13:22Z</time>
      </trkpt>
      <trkpt lat="44.79865" lon="6.56504">
        <ele>1061.2</ele>
        <time>2022-07-19T18:13:23Z</time>
      </trkpt>
      <trkpt lat="44.79866" lon="6.56505">
        <ele>1061.6</ele>
        <time>2022-07-19T18:13:24Z</time>
      </trkpt>
      <trkpt lat="44.79866" lon="6.56505">
        <ele>1061.6</ele>
        <time>2022-07-19T18:13:25Z</time>
      </trkpt>
      <trkpt lat="44.79861" lon="6.56498">
        <ele>1061.6</ele>
        <time>2022-07-19T18:13:42Z</time>
      </trkpt>
      <trkpt lat="44.7986" lon="6.56497">
        <ele>1061.6</ele>
        <time>2022-07-19T18:13:43Z</time>
      </trkpt>
      <trkpt lat="44.7986" lon="6.56496">
        <ele>1061.4</ele>
        <time>2022-07-19T18:13:44Z</time>
      </trkpt>
      <trkpt lat="44.79859" lon="6.56495">
        <ele>1061.4</ele>
        <time>2022-07-19T18:13:45Z</time>
      </trkpt>
      <trkpt lat="44.79856" lon="6.56491">
        <ele>1060.8</ele>
        <time>2022-07-19T18:13:51Z</time>
      </trkpt>
      <trkpt lat="44.79855" lon="6.56491">
        <ele>1060.4</ele>
        <time>2022-07-19T18:13:52Z</time>
      </trkpt>
      <trkpt lat="44.79854" lon="6.5649">
        <ele>1060.4</ele>
        <time>2022-07-19T18:13:53Z</time>
      </trkpt>
      <trkpt lat="44.79853" lon="6.5649">
        <ele>1060.2</ele>
        <time>2022-07-19T18:13:54Z</time>
      </trkpt>
      <trkpt lat="44.79849" lon="6.56492">
        <ele>1060.2</ele>
        <time>2022-07-19T18:13:59Z</time>
      </trkpt>
      <trkpt lat="44.79848" lon="6.56492">
        <ele>1060.2</ele>
        <time>2022-07-19T18:14:00Z</time>
      </trkpt>
      <trkpt lat="44.79849" lon="6.56493">
        <ele>1060.6</ele>
        <time>2022-07-19T18:14:01Z</time>
      </trkpt>
      <trkpt lat="44.7985" lon="6.56506">
        <ele>1060.2</ele>
        <time>2022-07-19T18:16:15Z</time>
      </trkpt>
      <trkpt lat="44.7985" lon="6.56507">
        <ele>1060.2</ele>
        <time>2022-07-19T18:16:16Z</time>
      </trkpt>
      <trkpt lat="44.7985" lon="6.56507">
        <ele>1060.2</ele>
        <time>2022-07-19T18:16:17Z</time>
      </trkpt>
      <trkpt lat="44.79851" lon="6.56507">
        <ele>1056.4</ele>
        <time>2022-07-19T18:35:14Z</time>
      </trkpt>
      <trkpt lat="44.79852" lon="6.56505">
        <ele>1056.4</ele>
        <time>2022-07-19T18:35:16Z</time>
      </trkpt>
      <trkpt lat="44.79856" lon="6.56501">
        <ele>1056.4</ele>
        <time>2022-07-19T18:35:24Z</time>
      </trkpt>
      <trkpt lat="44.79858" lon="6.56502">
        <ele>1056.4</ele>
        <time>2022-07-19T18:35:25Z</time>
      </trkpt>
      <trkpt lat="44.79859" lon="6.56503">
        <ele>1056.4</ele>
        <time>2022-07-19T18:35:26Z</time>
      </trkpt>
      <trkpt lat="44.7986" lon="6.56505">
        <ele>1056.6</ele>
        <time>2022-07-19T18:35:27Z</time>
      </trkpt>
      <trkpt lat="44.79861" lon="6.56506">
        <ele>1056.6</ele>
        <time>2022-07-19T18:35:28Z</time>
      </trkpt>
      <trkpt lat="44.79862" lon="6.56508">
        <ele>1056.6</ele>
        <time>2022-07-19T18:35:29Z</time>
      </trkpt>
      <trkpt lat="44.79863" lon="6.5651">
        <ele>1056.8</ele>
        <time>2022-07-19T18:35:30Z</time>
      </trkpt>
      <trkpt lat="44.79864" lon="6.56512">
        <ele>1056.8</ele>
        <time>2022-07-19T18:35:31Z</time>
      </trkpt>
      <trkpt lat="44.79865" lon="6.56514">
        <ele>1056.8</ele>
        <time>2022-07-19T18:35:32Z</time>
      </trkpt>
      <trkpt lat="44.79866" lon="6.56515">
        <ele>1056.8</ele>
        <time>2022-07-19T18:35:33Z</time>
      </trkpt>
      <trkpt lat="44.79868" lon="6.56516">
        <ele>1057</ele>
        <time>2022-07-19T18:35:35Z</time>
      </trkpt>
      <trkpt lat="44.79869" lon="6.56517">
        <ele>1057</ele>
        <time>2022-07-19T18:35:36Z</time>
      </trkpt>
      <trkpt lat="44.7987" lon="6.56518">
        <ele>1057.2</ele>
        <time>2022-07-19T18:35:37Z</time>
      </trkpt>
      <trkpt lat="44.79871" lon="6.56519">
        <ele>1057.2</ele>
        <time>2022-07-19T18:35:38Z</time>
      </trkpt>
      <trkpt lat="44.79873" lon="6.5652">
        <ele>1057.6</ele>
        <time>2022-07-19T18:35:39Z</time>
      </trkpt>
      <trkpt lat="44.79874" lon="6.56522">
        <ele>1057.8</ele>
        <time>2022-07-19T18:35:40Z</time>
      </trkpt>
      <trkpt lat="44.79875" lon="6.56523">
        <ele>1057.8</ele>
        <time>2022-07-19T18:35:41Z</time>
      </trkpt>
      <trkpt lat="44.79876" lon="6.56525">
        <ele>1058</ele>
        <time>2022-07-19T18:35:42Z</time>
      </trkpt>
      <trkpt lat="44.79877" lon="6.56527">
        <ele>1058</ele>
        <time>2022-07-19T18:35:43Z</time>
      </trkpt>
      <trkpt lat="44.79878" lon="6.56528">
        <ele>1058.2</ele>
        <time>2022-07-19T18:35:44Z</time>
      </trkpt>
      <trkpt lat="44.7988" lon="6.5653">
        <ele>1058.2</ele>
        <time>2022-07-19T18:35:45Z</time>
      </trkpt>
      <trkpt lat="44.79881" lon="6.56531">
        <ele>1058.4</ele>
        <time>2022-07-19T18:35:46Z</time>
      </trkpt>
      <trkpt lat="44.79882" lon="6.56532">
        <ele>1058.4</ele>
        <time>2022-07-19T18:35:47Z</time>
      </trkpt>
      <trkpt lat="44.79883" lon="6.56533">
        <ele>1058.8</ele>
        <time>2022-07-19T18:35:48Z</time>
      </trkpt>
      <trkpt lat="44.79884" lon="6.56535">
        <ele>1058.8</ele>
        <time>2022-07-19T18:35:49Z</time>
      </trkpt>
      <trkpt lat="44.79886" lon="6.56536">
        <ele>1058.8</ele>
        <time>2022-07-19T18:35:50Z</time>
      </trkpt>
      <trkpt lat="44.79887" lon="6.56537">
        <ele>1059</ele>
        <time>2022-07-19T18:35:51Z</time>
      </trkpt>
      <trkpt lat="44.79888" lon="6.56539">
        <ele>1059</ele>
        <time>2022-07-19T18:35:52Z</time>
      </trkpt>
      <trkpt lat="44.79889" lon="6.5654">
        <ele>1059.2</ele>
        <time>2022-07-19T18:35:53Z</time>
      </trkpt>
      <trkpt lat="44.79891" lon="6.56541">
        <ele>1059.2</ele>
        <time>2022-07-19T18:35:54Z</time>
      </trkpt>
      <trkpt lat="44.79892" lon="6.56543">
        <ele>1059.2</ele>
        <time>2022-07-19T18:35:55Z</time>
      </trkpt>
      <trkpt lat="44.79894" lon="6.56544">
        <ele>1059.6</ele>
        <time>2022-07-19T18:35:56Z</time>
      </trkpt>
      <trkpt lat="44.79895" lon="6.56545">
        <ele>1059.6</ele>
        <time>2022-07-19T18:35:57Z</time>
      </trkpt>
      <trkpt lat="44.79897" lon="6.56547">
        <ele>1059.8</ele>
        <time>2022-07-19T18:35:58Z</time>
      </trkpt>
      <trkpt lat="44.79898" lon="6.56548">
        <ele>1059.8</ele>
        <time>2022-07-19T18:35:59Z</time>
      </trkpt>
      <trkpt lat="44.799" lon="6.5655">
        <ele>1060.2</ele>
        <time>2022-07-19T18:36:00Z</time>
      </trkpt>
      <trkpt lat="44.79901" lon="6.56551">
        <ele>1060.2</ele>
        <time>2022-07-19T18:36:01Z</time>
      </trkpt>
      <trkpt lat="44.79902" lon="6.56552">
        <ele>1060.4</ele>
        <time>2022-07-19T18:36:02Z</time>
      </trkpt>
      <trkpt lat="44.79904" lon="6.56554">
        <ele>1060.4</ele>
        <time>2022-07-19T18:36:03Z</time>
      </trkpt>
      <trkpt lat="44.79906" lon="6.56555">
        <ele>1060.4</ele>
        <time>2022-07-19T18:36:04Z</time>
      </trkpt>
      <trkpt lat="44.79907" lon="6.56556">
        <ele>1060.8</ele>
        <time>2022-07-19T18:36:05Z</time>
      </trkpt>
      <trkpt lat="44.79909" lon="6.56558">
        <ele>1060.8</ele>
        <time>2022-07-19T18:36:06Z</time>
      </trkpt>
      <trkpt lat="44.7991" lon="6.56559">
        <ele>1060.8</ele>
        <time>2022-07-19T18:36:07Z</time>
      </trkpt>
      <trkpt lat="44.79912" lon="6.5656">
        <ele>1061</ele>
        <time>2022-07-19T18:36:08Z</time>
      </trkpt>
      <trkpt lat="44.79913" lon="6.56561">
        <ele>1061</ele>
        <time>2022-07-19T18:36:09Z</time>
      </trkpt>
      <trkpt lat="44.79914" lon="6.56562">
        <ele>1061.4</ele>
        <time>2022-07-19T18:36:10Z</time>
      </trkpt>
      <trkpt lat="44.79916" lon="6.56564">
        <ele>1061.4</ele>
        <time>2022-07-19T18:36:11Z</time>
      </trkpt>
      <trkpt lat="44.79917" lon="6.56565">
        <ele>1061.4</ele>
        <time>2022-07-19T18:36:12Z</time>
      </trkpt>
      <trkpt lat="44.79919" lon="6.56566">
        <ele>1061.4</ele>
        <time>2022-07-19T18:36:13Z</time>
      </trkpt>
      <trkpt lat="44.79921" lon="6.56567">
        <ele>1061.6</ele>
        <time>2022-07-19T18:36:14Z</time>
      </trkpt>
      <trkpt lat="44.79922" lon="6.56568">
        <ele>1061.6</ele>
        <time>2022-07-19T18:36:15Z</time>
      </trkpt>
      <trkpt lat="44.79924" lon="6.56569">
        <ele>1061.8</ele>
        <time>2022-07-19T18:36:16Z</time>
      </trkpt>
      <trkpt lat="44.79925" lon="6.5657">
        <ele>1061.8</ele>
        <time>2022-07-19T18:36:17Z</time>
      </trkpt>
      <trkpt lat="44.79927" lon="6.56571">
        <ele>1062.2</ele>
        <time>2022-07-19T18:36:18Z</time>
      </trkpt>
      <trkpt lat="44.79928" lon="6.56572">
        <ele>1062.2</ele>
        <time>2022-07-19T18:36:19Z</time>
      </trkpt>
      <trkpt lat="44.7993" lon="6.56573">
        <ele>1062.4</ele>
        <time>2022-07-19T18:36:20Z</time>
      </trkpt>
      <trkpt lat="44.79932" lon="6.56574">
        <ele>1062.4</ele>
        <time>2022-07-19T18:36:21Z</time>
      </trkpt>
      <trkpt lat="44.79933" lon="6.56575">
        <ele>1062.6</ele>
        <time>2022-07-19T18:36:22Z</time>
      </trkpt>
      <trkpt lat="44.79935" lon="6.56576">
        <ele>1062.6</ele>
        <time>2022-07-19T18:36:23Z</time>
      </trkpt>
      <trkpt lat="44.79937" lon="6.56577">
        <ele>1062.8</ele>
        <time>2022-07-19T18:36:24Z</time>
      </trkpt>
      <trkpt lat="44.79938" lon="6.56578">
        <ele>1062.8</ele>
        <time>2022-07-19T18:36:25Z</time>
      </trkpt>
      <trkpt lat="44.7994" lon="6.56579">
        <ele>1063.2</ele>
        <time>2022-07-19T18:36:26Z</time>
      </trkpt>
      <trkpt lat="44.79942" lon="6.5658">
        <ele>1063.2</ele>
        <time>2022-07-19T18:36:27Z</time>
      </trkpt>
      <trkpt lat="44.79944" lon="6.56581">
        <ele>1063.4</ele>
        <time>2022-07-19T18:36:28Z</time>
      </trkpt>
      <trkpt lat="44.79946" lon="6.56582">
        <ele>1063.4</ele>
        <time>2022-07-19T18:36:29Z</time>
      </trkpt>
      <trkpt lat="44.79948" lon="6.56582">
        <ele>1063.8</ele>
        <time>2022-07-19T18:36:30Z</time>
      </trkpt>
      <trkpt lat="44.7995" lon="6.56583">
        <ele>1063.8</ele>
        <time>2022-07-19T18:36:31Z</time>
      </trkpt>
      <trkpt lat="44.79952" lon="6.56584">
        <ele>1064</ele>
        <time>2022-07-19T18:36:32Z</time>
      </trkpt>
      <trkpt lat="44.79954" lon="6.56585">
        <ele>1064</ele>
        <time>2022-07-19T18:36:33Z</time>
      </trkpt>
      <trkpt lat="44.79955" lon="6.56586">
        <ele>1064.2</ele>
        <time>2022-07-19T18:36:34Z</time>
      </trkpt>
      <trkpt lat="44.79957" lon="6.56586">
        <ele>1064.2</ele>
        <time>2022-07-19T18:36:35Z</time>
      </trkpt>
      <trkpt lat="44.79959" lon="6.56587">
        <ele>1064.6</ele>
        <time>2022-07-19T18:36:36Z</time>
      </trkpt>
      <trkpt lat="44.7996" lon="6.56588">
        <ele>1064.6</ele>
        <time>2022-07-19T18:36:37Z</time>
      </trkpt>
      <trkpt lat="44.79962" lon="6.56588">
        <ele>1064.6</ele>
        <time>2022-07-19T18:36:38Z</time>
      </trkpt>
      <trkpt lat="44.79964" lon="6.56589">
        <ele>1064.8</ele>
        <time>2022-07-19T18:36:39Z</time>
      </trkpt>
      <trkpt lat="44.79965" lon="6.5659">
        <ele>1064.8</ele>
        <time>2022-07-19T18:36:40Z</time>
      </trkpt>
      <trkpt lat="44.79967" lon="6.5659">
        <ele>1065.2</ele>
        <time>2022-07-19T18:36:41Z</time>
      </trkpt>
      <trkpt lat="44.79969" lon="6.56591">
        <ele>1065.2</ele>
        <time>2022-07-19T18:36:42Z</time>
      </trkpt>
      <trkpt lat="44.7997" lon="6.56592">
        <ele>1065.4</ele>
        <time>2022-07-19T18:36:43Z</time>
      </trkpt>
      <trkpt lat="44.79972" lon="6.56592">
        <ele>1065.4</ele>
        <time>2022-07-19T18:36:44Z</time>
      </trkpt>
      <trkpt lat="44.79974" lon="6.56593">
        <ele>1065.6</ele>
        <time>2022-07-19T18:36:45Z</time>
      </trkpt>
      <trkpt lat="44.79975" lon="6.56594">
        <ele>1065.6</ele>
        <time>2022-07-19T18:36:46Z</time>
      </trkpt>
      <trkpt lat="44.79977" lon="6.56594">
        <ele>1066</ele>
        <time>2022-07-19T18:36:47Z</time>
      </trkpt>
      <trkpt lat="44.79979" lon="6.56595">
        <ele>1066</ele>
        <time>2022-07-19T18:36:48Z</time>
      </trkpt>
      <trkpt lat="44.7998" lon="6.56595">
        <ele>1066.4</ele>
        <time>2022-07-19T18:36:49Z</time>
      </trkpt>
      <trkpt lat="44.79982" lon="6.56595">
        <ele>1066.4</ele>
        <time>2022-07-19T18:36:50Z</time>
      </trkpt>
      <trkpt lat="44.79984" lon="6.56596">
        <ele>1066.6</ele>
        <time>2022-07-19T18:36:51Z</time>
      </trkpt>
      <trkpt lat="44.79985" lon="6.56596">
        <ele>1066.6</ele>
        <time>2022-07-19T18:36:52Z</time>
      </trkpt>
      <trkpt lat="44.79987" lon="6.56597">
        <ele>1066.8</ele>
        <time>2022-07-19T18:36:53Z</time>
      </trkpt>
      <trkpt lat="44.79988" lon="6.56598">
        <ele>1066.8</ele>
        <time>2022-07-19T18:36:54Z</time>
      </trkpt>
      <trkpt lat="44.7999" lon="6.56599">
        <ele>1066.8</ele>
        <time>2022-07-19T18:36:55Z</time>
      </trkpt>
      <trkpt lat="44.79991" lon="6.56599">
        <ele>1067.2</ele>
        <time>2022-07-19T18:36:56Z</time>
      </trkpt>
      <trkpt lat="44.79993" lon="6.566">
        <ele>1067.2</ele>
        <time>2022-07-19T18:36:57Z</time>
      </trkpt>
      <trkpt lat="44.79995" lon="6.566">
        <ele>1067.4</ele>
        <time>2022-07-19T18:36:58Z</time>
      </trkpt>
      <trkpt lat="44.79996" lon="6.56601">
        <ele>1067.4</ele>
        <time>2022-07-19T18:36:59Z</time>
      </trkpt>
      <trkpt lat="44.79998" lon="6.56602">
        <ele>1067.8</ele>
        <time>2022-07-19T18:37:00Z</time>
      </trkpt>
      <trkpt lat="44.8" lon="6.56602">
        <ele>1067.8</ele>
        <time>2022-07-19T18:37:01Z</time>
      </trkpt>
      <trkpt lat="44.80002" lon="6.56603">
        <ele>1068</ele>
        <time>2022-07-19T18:37:02Z</time>
      </trkpt>
      <trkpt lat="44.80003" lon="6.56603">
        <ele>1068.2</ele>
        <time>2022-07-19T18:37:03Z</time>
      </trkpt>
      <trkpt lat="44.80005" lon="6.56603">
        <ele>1068.2</ele>
        <time>2022-07-19T18:37:04Z</time>
      </trkpt>
      <trkpt lat="44.80007" lon="6.56604">
        <ele>1068.2</ele>
        <time>2022-07-19T18:37:05Z</time>
      </trkpt>
      <trkpt lat="44.80009" lon="6.56604">
        <ele>1068.4</ele>
        <time>2022-07-19T18:37:06Z</time>
      </trkpt>
      <trkpt lat="44.8001" lon="6.56605">
        <ele>1068.4</ele>
        <time>2022-07-19T18:37:07Z</time>
      </trkpt>
      <trkpt lat="44.80012" lon="6.56605">
        <ele>1068.6</ele>
        <time>2022-07-19T18:37:08Z</time>
      </trkpt>
      <trkpt lat="44.80014" lon="6.56606">
        <ele>1068.6</ele>
        <time>2022-07-19T18:37:09Z</time>
      </trkpt>
      <trkpt lat="44.80015" lon="6.56606">
        <ele>1068.6</ele>
        <time>2022-07-19T18:37:10Z</time>
      </trkpt>
      <trkpt lat="44.80017" lon="6.56606">
        <ele>1069</ele>
        <time>2022-07-19T18:37:11Z</time>
      </trkpt>
      <trkpt lat="44.80019" lon="6.56607">
        <ele>1069</ele>
        <time>2022-07-19T18:37:12Z</time>
      </trkpt>
      <trkpt lat="44.8002" lon="6.56607">
        <ele>1069</ele>
        <time>2022-07-19T18:37:13Z</time>
      </trkpt>
      <trkpt lat="44.80022" lon="6.56607">
        <ele>1069.2</ele>
        <time>2022-07-19T18:37:14Z</time>
      </trkpt>
      <trkpt lat="44.80024" lon="6.56607">
        <ele>1069.2</ele>
        <time>2022-07-19T18:37:15Z</time>
      </trkpt>
      <trkpt lat="44.80025" lon="6.56607">
        <ele>1069.4</ele>
        <time>2022-07-19T18:37:16Z</time>
      </trkpt>
      <trkpt lat="44.80027" lon="6.56607">
        <ele>1069.4</ele>
        <time>2022-07-19T18:37:17Z</time>
      </trkpt>
      <trkpt lat="44.80029" lon="6.56607">
        <ele>1069.8</ele>
        <time>2022-07-19T18:37:18Z</time>
      </trkpt>
      <trkpt lat="44.80031" lon="6.56608">
        <ele>1070</ele>
        <time>2022-07-19T18:37:19Z</time>
      </trkpt>
      <trkpt lat="44.80033" lon="6.56608">
        <ele>1070</ele>
        <time>2022-07-19T18:37:20Z</time>
      </trkpt>
      <trkpt lat="44.80034" lon="6.56608">
        <ele>1070.2</ele>
        <time>2022-07-19T18:37:21Z</time>
      </trkpt>
      <trkpt lat="44.80036" lon="6.56608">
        <ele>1070.2</ele>
        <time>2022-07-19T18:37:22Z</time>
      </trkpt>
      <trkpt lat="44.80038" lon="6.56608">
        <ele>1070.4</ele>
        <time>2022-07-19T18:37:23Z</time>
      </trkpt>
      <trkpt lat="44.8004" lon="6.56609">
        <ele>1070.4</ele>
        <time>2022-07-19T18:37:24Z</time>
      </trkpt>
      <trkpt lat="44.80041" lon="6.56609">
        <ele>1070.8</ele>
        <time>2022-07-19T18:37:25Z</time>
      </trkpt>
      <trkpt lat="44.80043" lon="6.56609">
        <ele>1071</ele>
        <time>2022-07-19T18:37:26Z</time>
      </trkpt>
      <trkpt lat="44.80045" lon="6.56609">
        <ele>1071</ele>
        <time>2022-07-19T18:37:27Z</time>
      </trkpt>
      <trkpt lat="44.80047" lon="6.56609">
        <ele>1071</ele>
        <time>2022-07-19T18:37:28Z</time>
      </trkpt>
      <trkpt lat="44.80049" lon="6.56609">
        <ele>1071</ele>
        <time>2022-07-19T18:37:29Z</time>
      </trkpt>
      <trkpt lat="44.80051" lon="6.56609">
        <ele>1071.6</ele>
        <time>2022-07-19T18:37:30Z</time>
      </trkpt>
      <trkpt lat="44.80052" lon="6.56609">
        <ele>1071.6</ele>
        <time>2022-07-19T18:37:31Z</time>
      </trkpt>
      <trkpt lat="44.80054" lon="6.56609">
        <ele>1071.8</ele>
        <time>2022-07-19T18:37:32Z</time>
      </trkpt>
      <trkpt lat="44.80056" lon="6.56609">
        <ele>1071.8</ele>
        <time>2022-07-19T18:37:33Z</time>
      </trkpt>
      <trkpt lat="44.80058" lon="6.56609">
        <ele>1072.2</ele>
        <time>2022-07-19T18:37:34Z</time>
      </trkpt>
      <trkpt lat="44.8006" lon="6.56609">
        <ele>1072.2</ele>
        <time>2022-07-19T18:37:35Z</time>
      </trkpt>
      <trkpt lat="44.80061" lon="6.56609">
        <ele>1072.4</ele>
        <time>2022-07-19T18:37:36Z</time>
      </trkpt>
      <trkpt lat="44.80063" lon="6.5661">
        <ele>1072.4</ele>
        <time>2022-07-19T18:37:37Z</time>
      </trkpt>
      <trkpt lat="44.80065" lon="6.56609">
        <ele>1072.6</ele>
        <time>2022-07-19T18:37:38Z</time>
      </trkpt>
      <trkpt lat="44.80066" lon="6.56609">
        <ele>1072.6</ele>
        <time>2022-07-19T18:37:39Z</time>
      </trkpt>
      <trkpt lat="44.80068" lon="6.56609">
        <ele>1073</ele>
        <time>2022-07-19T18:37:40Z</time>
      </trkpt>
      <trkpt lat="44.8007" lon="6.56609">
        <ele>1073</ele>
        <time>2022-07-19T18:37:41Z</time>
      </trkpt>
      <trkpt lat="44.80071" lon="6.56609">
        <ele>1073.4</ele>
        <time>2022-07-19T18:37:42Z</time>
      </trkpt>
      <trkpt lat="44.80073" lon="6.56609">
        <ele>1073.4</ele>
        <time>2022-07-19T18:37:43Z</time>
      </trkpt>
      <trkpt lat="44.80075" lon="6.56609">
        <ele>1073.6</ele>
        <time>2022-07-19T18:37:44Z</time>
      </trkpt>
      <trkpt lat="44.80077" lon="6.56609">
        <ele>1073.6</ele>
        <time>2022-07-19T18:37:45Z</time>
      </trkpt>
      <trkpt lat="44.80079" lon="6.56609">
        <ele>1073.6</ele>
        <time>2022-07-19T18:37:46Z</time>
      </trkpt>
      <trkpt lat="44.8008" lon="6.56609">
        <ele>1074</ele>
        <time>2022-07-19T18:37:47Z</time>
      </trkpt>
      <trkpt lat="44.80082" lon="6.56609">
        <ele>1074</ele>
        <time>2022-07-19T18:37:48Z</time>
      </trkpt>
      <trkpt lat="44.80084" lon="6.56609">
        <ele>1074</ele>
        <time>2022-07-19T18:37:49Z</time>
      </trkpt>
      <trkpt lat="44.80086" lon="6.56609">
        <ele>1074</ele>
        <time>2022-07-19T18:37:50Z</time>
      </trkpt>
      <trkpt lat="44.80088" lon="6.56609">
        <ele>1074.2</ele>
        <time>2022-07-19T18:37:51Z</time>
      </trkpt>
      <trkpt lat="44.80089" lon="6.56609">
        <ele>1074.2</ele>
        <time>2022-07-19T18:37:52Z</time>
      </trkpt>
      <trkpt lat="44.80091" lon="6.56609">
        <ele>1074.4</ele>
        <time>2022-07-19T18:37:53Z</time>
      </trkpt>
      <trkpt lat="44.80093" lon="6.56609">
        <ele>1074.4</ele>
        <time>2022-07-19T18:37:54Z</time>
      </trkpt>
      <trkpt lat="44.80095" lon="6.56609">
        <ele>1074.4</ele>
        <time>2022-07-19T18:37:55Z</time>
      </trkpt>
      <trkpt lat="44.80097" lon="6.56609">
        <ele>1074.4</ele>
        <time>2022-07-19T18:37:56Z</time>
      </trkpt>
      <trkpt lat="44.80099" lon="6.56609">
        <ele>1074.8</ele>
        <time>2022-07-19T18:37:57Z</time>
      </trkpt>
      <trkpt lat="44.801" lon="6.56609">
        <ele>1074.8</ele>
        <time>2022-07-19T18:37:58Z</time>
      </trkpt>
      <trkpt lat="44.80102" lon="6.56609">
        <ele>1075.2</ele>
        <time>2022-07-19T18:37:59Z</time>
      </trkpt>
      <trkpt lat="44.80104" lon="6.56609">
        <ele>1075.2</ele>
        <time>2022-07-19T18:38:00Z</time>
      </trkpt>
      <trkpt lat="44.80106" lon="6.56609">
        <ele>1075.4</ele>
        <time>2022-07-19T18:38:01Z</time>
      </trkpt>
      <trkpt lat="44.80108" lon="6.56609">
        <ele>1075.4</ele>
        <time>2022-07-19T18:38:02Z</time>
      </trkpt>
      <trkpt lat="44.80109" lon="6.56609">
        <ele>1075.8</ele>
        <time>2022-07-19T18:38:03Z</time>
      </trkpt>
      <trkpt lat="44.80111" lon="6.56609">
        <ele>1076.2</ele>
        <time>2022-07-19T18:38:04Z</time>
      </trkpt>
      <trkpt lat="44.80113" lon="6.56608">
        <ele>1076.2</ele>
        <time>2022-07-19T18:38:05Z</time>
      </trkpt>
      <trkpt lat="44.80115" lon="6.56608">
        <ele>1076.4</ele>
        <time>2022-07-19T18:38:06Z</time>
      </trkpt>
      <trkpt lat="44.80117" lon="6.56608">
        <ele>1076.6</ele>
        <time>2022-07-19T18:38:07Z</time>
      </trkpt>
      <trkpt lat="44.80119" lon="6.56608">
        <ele>1076.6</ele>
        <time>2022-07-19T18:38:08Z</time>
      </trkpt>
      <trkpt lat="44.80122" lon="6.56608">
        <ele>1077</ele>
        <time>2022-07-19T18:38:09Z</time>
      </trkpt>
      <trkpt lat="44.80124" lon="6.56608">
        <ele>1077</ele>
        <time>2022-07-19T18:38:10Z</time>
      </trkpt>
      <trkpt lat="44.80126" lon="6.56608">
        <ele>1077.2</ele>
        <time>2022-07-19T18:38:11Z</time>
      </trkpt>
      <trkpt lat="44.80128" lon="6.56608">
        <ele>1077.2</ele>
        <time>2022-07-19T18:38:12Z</time>
      </trkpt>
      <trkpt lat="44.8013" lon="6.56607">
        <ele>1077.2</ele>
        <time>2022-07-19T18:38:13Z</time>
      </trkpt>
      <trkpt lat="44.80132" lon="6.56607">
        <ele>1077.4</ele>
        <time>2022-07-19T18:38:14Z</time>
      </trkpt>
      <trkpt lat="44.80134" lon="6.56607">
        <ele>1077.4</ele>
        <time>2022-07-19T18:38:15Z</time>
      </trkpt>
      <trkpt lat="44.80136" lon="6.56607">
        <ele>1077.4</ele>
        <time>2022-07-19T18:38:16Z</time>
      </trkpt>
      <trkpt lat="44.80138" lon="6.56606">
        <ele>1077.6</ele>
        <time>2022-07-19T18:38:17Z</time>
      </trkpt>
      <trkpt lat="44.80139" lon="6.56606">
        <ele>1077.6</ele>
        <time>2022-07-19T18:38:18Z</time>
      </trkpt>
      <trkpt lat="44.80141" lon="6.56606">
        <ele>1077.6</ele>
        <time>2022-07-19T18:38:19Z</time>
      </trkpt>
      <trkpt lat="44.80143" lon="6.56606">
        <ele>1078</ele>
        <time>2022-07-19T18:38:20Z</time>
      </trkpt>
      <trkpt lat="44.80145" lon="6.56606">
        <ele>1078</ele>
        <time>2022-07-19T18:38:21Z</time>
      </trkpt>
      <trkpt lat="44.80147" lon="6.56606">
        <ele>1078.2</ele>
        <time>2022-07-19T18:38:22Z</time>
      </trkpt>
      <trkpt lat="44.80149" lon="6.56606">
        <ele>1078.2</ele>
        <time>2022-07-19T18:38:23Z</time>
      </trkpt>
      <trkpt lat="44.80151" lon="6.56606">
        <ele>1078.6</ele>
        <time>2022-07-19T18:38:24Z</time>
      </trkpt>
      <trkpt lat="44.80152" lon="6.56606">
        <ele>1078.6</ele>
        <time>2022-07-19T18:38:25Z</time>
      </trkpt>
      <trkpt lat="44.80154" lon="6.56606">
        <ele>1078.8</ele>
        <time>2022-07-19T18:38:26Z</time>
      </trkpt>
      <trkpt lat="44.80156" lon="6.56606">
        <ele>1078.8</ele>
        <time>2022-07-19T18:38:27Z</time>
      </trkpt>
      <trkpt lat="44.80158" lon="6.56606">
        <ele>1079</ele>
        <time>2022-07-19T18:38:28Z</time>
      </trkpt>
      <trkpt lat="44.8016" lon="6.56606">
        <ele>1079</ele>
        <time>2022-07-19T18:38:29Z</time>
      </trkpt>
      <trkpt lat="44.80162" lon="6.56606">
        <ele>1079</ele>
        <time>2022-07-19T18:38:30Z</time>
      </trkpt>
      <trkpt lat="44.80163" lon="6.56606">
        <ele>1079.4</ele>
        <time>2022-07-19T18:38:31Z</time>
      </trkpt>
      <trkpt lat="44.80165" lon="6.56606">
        <ele>1079.4</ele>
        <time>2022-07-19T18:38:32Z</time>
      </trkpt>
      <trkpt lat="44.80167" lon="6.56605">
        <ele>1079.6</ele>
        <time>2022-07-19T18:38:33Z</time>
      </trkpt>
      <trkpt lat="44.80168" lon="6.56605">
        <ele>1079.6</ele>
        <time>2022-07-19T18:38:34Z</time>
      </trkpt>
      <trkpt lat="44.8017" lon="6.56605">
        <ele>1079.8</ele>
        <time>2022-07-19T18:38:35Z</time>
      </trkpt>
      <trkpt lat="44.80172" lon="6.56605">
        <ele>1079.8</ele>
        <time>2022-07-19T18:38:36Z</time>
      </trkpt>
      <trkpt lat="44.80174" lon="6.56605">
        <ele>1080.2</ele>
        <time>2022-07-19T18:38:37Z</time>
      </trkpt>
      <trkpt lat="44.80175" lon="6.56605">
        <ele>1080.2</ele>
        <time>2022-07-19T18:38:38Z</time>
      </trkpt>
      <trkpt lat="44.80177" lon="6.56605">
        <ele>1080.6</ele>
        <time>2022-07-19T18:38:39Z</time>
      </trkpt>
      <trkpt lat="44.80179" lon="6.56606">
        <ele>1080.6</ele>
        <time>2022-07-19T18:38:40Z</time>
      </trkpt>
      <trkpt lat="44.80181" lon="6.56606">
        <ele>1081</ele>
        <time>2022-07-19T18:38:41Z</time>
      </trkpt>
      <trkpt lat="44.80182" lon="6.56606">
        <ele>1081</ele>
        <time>2022-07-19T18:38:42Z</time>
      </trkpt>
      <trkpt lat="44.80184" lon="6.56606">
        <ele>1081.2</ele>
        <time>2022-07-19T18:38:43Z</time>
      </trkpt>
      <trkpt lat="44.80186" lon="6.56606">
        <ele>1081.2</ele>
        <time>2022-07-19T18:38:44Z</time>
      </trkpt>
      <trkpt lat="44.80187" lon="6.56606">
        <ele>1081.2</ele>
        <time>2022-07-19T18:38:45Z</time>
      </trkpt>
      <trkpt lat="44.80189" lon="6.56606">
        <ele>1081.4</ele>
        <time>2022-07-19T18:38:46Z</time>
      </trkpt>
      <trkpt lat="44.80191" lon="6.56606">
        <ele>1081.4</ele>
        <time>2022-07-19T18:38:47Z</time>
      </trkpt>
      <trkpt lat="44.80192" lon="6.56605">
        <ele>1081.6</ele>
        <time>2022-07-19T18:38:48Z</time>
      </trkpt>
      <trkpt lat="44.80194" lon="6.56606">
        <ele>1081.6</ele>
        <time>2022-07-19T18:38:49Z</time>
      </trkpt>
      <trkpt lat="44.80196" lon="6.56606">
        <ele>1081.6</ele>
        <time>2022-07-19T18:38:50Z</time>
      </trkpt>
      <trkpt lat="44.80197" lon="6.56605">
        <ele>1082</ele>
        <time>2022-07-19T18:38:51Z</time>
      </trkpt>
      <trkpt lat="44.80199" lon="6.56605">
        <ele>1082</ele>
        <time>2022-07-19T18:38:52Z</time>
      </trkpt>
      <trkpt lat="44.80201" lon="6.56605">
        <ele>1082.2</ele>
        <time>2022-07-19T18:38:53Z</time>
      </trkpt>
      <trkpt lat="44.80202" lon="6.56606">
        <ele>1082.2</ele>
        <time>2022-07-19T18:38:54Z</time>
      </trkpt>
      <trkpt lat="44.80204" lon="6.56606">
        <ele>1082.4</ele>
        <time>2022-07-19T18:38:55Z</time>
      </trkpt>
      <trkpt lat="44.80206" lon="6.56606">
        <ele>1082.8</ele>
        <time>2022-07-19T18:38:56Z</time>
      </trkpt>
      <trkpt lat="44.80207" lon="6.56606">
        <ele>1082.8</ele>
        <time>2022-07-19T18:38:57Z</time>
      </trkpt>
      <trkpt lat="44.80209" lon="6.56606">
        <ele>1083</ele>
        <time>2022-07-19T18:38:58Z</time>
      </trkpt>
      <trkpt lat="44.80211" lon="6.56605">
        <ele>1083</ele>
        <time>2022-07-19T18:38:59Z</time>
      </trkpt>
      <trkpt lat="44.80212" lon="6.56605">
        <ele>1083.2</ele>
        <time>2022-07-19T18:39:00Z</time>
      </trkpt>
      <trkpt lat="44.80214" lon="6.56605">
        <ele>1083.2</ele>
        <time>2022-07-19T18:39:01Z</time>
      </trkpt>
      <trkpt lat="44.80216" lon="6.56605">
        <ele>1083.6</ele>
        <time>2022-07-19T18:39:02Z</time>
      </trkpt>
      <trkpt lat="44.80217" lon="6.56605">
        <ele>1083.6</ele>
        <time>2022-07-19T18:39:03Z</time>
      </trkpt>
      <trkpt lat="44.80219" lon="6.56605">
        <ele>1083.6</ele>
        <time>2022-07-19T18:39:04Z</time>
      </trkpt>
      <trkpt lat="44.80221" lon="6.56605">
        <ele>1083.8</ele>
        <time>2022-07-19T18:39:05Z</time>
      </trkpt>
      <trkpt lat="44.80222" lon="6.56605">
        <ele>1083.8</ele>
        <time>2022-07-19T18:39:06Z</time>
      </trkpt>
      <trkpt lat="44.80224" lon="6.56605">
        <ele>1083.8</ele>
        <time>2022-07-19T18:39:07Z</time>
      </trkpt>
      <trkpt lat="44.80226" lon="6.56605">
        <ele>1084</ele>
        <time>2022-07-19T18:39:08Z</time>
      </trkpt>
      <trkpt lat="44.80227" lon="6.56605">
        <ele>1084</ele>
        <time>2022-07-19T18:39:09Z</time>
      </trkpt>
      <trkpt lat="44.80229" lon="6.56605">
        <ele>1084.2</ele>
        <time>2022-07-19T18:39:10Z</time>
      </trkpt>
      <trkpt lat="44.8023" lon="6.56605">
        <ele>1084.2</ele>
        <time>2022-07-19T18:39:11Z</time>
      </trkpt>
      <trkpt lat="44.80232" lon="6.56605">
        <ele>1084.2</ele>
        <time>2022-07-19T18:39:12Z</time>
      </trkpt>
      <trkpt lat="44.80234" lon="6.56605">
        <ele>1084.2</ele>
        <time>2022-07-19T18:39:13Z</time>
      </trkpt>
      <trkpt lat="44.80235" lon="6.56605">
        <ele>1084.6</ele>
        <time>2022-07-19T18:39:14Z</time>
      </trkpt>
      <trkpt lat="44.80237" lon="6.56605">
        <ele>1084.6</ele>
        <time>2022-07-19T18:39:15Z</time>
      </trkpt>
      <trkpt lat="44.80238" lon="6.56604">
        <ele>1084.6</ele>
        <time>2022-07-19T18:39:16Z</time>
      </trkpt>
      <trkpt lat="44.8024" lon="6.56605">
        <ele>1084.8</ele>
        <time>2022-07-19T18:39:17Z</time>
      </trkpt>
      <trkpt lat="44.80241" lon="6.56605">
        <ele>1084.8</ele>
        <time>2022-07-19T18:39:18Z</time>
      </trkpt>
      <trkpt lat="44.80243" lon="6.56604">
        <ele>1084.8</ele>
        <time>2022-07-19T18:39:19Z</time>
      </trkpt>
      <trkpt lat="44.80244" lon="6.56604">
        <ele>1085</ele>
        <time>2022-07-19T18:39:20Z</time>
      </trkpt>
      <trkpt lat="44.80246" lon="6.56604">
        <ele>1085</ele>
        <time>2022-07-19T18:39:21Z</time>
      </trkpt>
      <trkpt lat="44.80247" lon="6.56604">
        <ele>1085.4</ele>
        <time>2022-07-19T18:39:22Z</time>
      </trkpt>
      <trkpt lat="44.80249" lon="6.56604">
        <ele>1085.6</ele>
        <time>2022-07-19T18:39:23Z</time>
      </trkpt>
      <trkpt lat="44.80251" lon="6.56604">
        <ele>1086</ele>
        <time>2022-07-19T18:39:24Z</time>
      </trkpt>
      <trkpt lat="44.80252" lon="6.56605">
        <ele>1086.2</ele>
        <time>2022-07-19T18:39:25Z</time>
      </trkpt>
      <trkpt lat="44.80254" lon="6.56605">
        <ele>1086.2</ele>
        <time>2022-07-19T18:39:26Z</time>
      </trkpt>
      <trkpt lat="44.80255" lon="6.56605">
        <ele>1086.2</ele>
        <time>2022-07-19T18:39:27Z</time>
      </trkpt>
      <trkpt lat="44.80257" lon="6.56605">
        <ele>1086.6</ele>
        <time>2022-07-19T18:39:28Z</time>
      </trkpt>
      <trkpt lat="44.80258" lon="6.56605">
        <ele>1086.6</ele>
        <time>2022-07-19T18:39:29Z</time>
      </trkpt>
      <trkpt lat="44.8026" lon="6.56605">
        <ele>1086.8</ele>
        <time>2022-07-19T18:39:30Z</time>
      </trkpt>
      <trkpt lat="44.80262" lon="6.56605">
        <ele>1086.8</ele>
        <time>2022-07-19T18:39:31Z</time>
      </trkpt>
      <trkpt lat="44.80263" lon="6.56604">
        <ele>1087</ele>
        <time>2022-07-19T18:39:32Z</time>
      </trkpt>
      <trkpt lat="44.80265" lon="6.56604">
        <ele>1087</ele>
        <time>2022-07-19T18:39:33Z</time>
      </trkpt>
      <trkpt lat="44.80266" lon="6.56603">
        <ele>1087.4</ele>
        <time>2022-07-19T18:39:34Z</time>
      </trkpt>
      <trkpt lat="44.80268" lon="6.56603">
        <ele>1087.4</ele>
        <time>2022-07-19T18:39:35Z</time>
      </trkpt>
      <trkpt lat="44.8027" lon="6.56603">
        <ele>1087.4</ele>
        <time>2022-07-19T18:39:36Z</time>
      </trkpt>
      <trkpt lat="44.80272" lon="6.56602">
        <ele>1087.4</ele>
        <time>2022-07-19T18:39:37Z</time>
      </trkpt>
      <trkpt lat="44.80273" lon="6.56602">
        <ele>1087.4</ele>
        <time>2022-07-19T18:39:38Z</time>
      </trkpt>
      <trkpt lat="44.80275" lon="6.56602">
        <ele>1087.6</ele>
        <time>2022-07-19T18:39:39Z</time>
      </trkpt>
      <trkpt lat="44.80277" lon="6.56601">
        <ele>1087.6</ele>
        <time>2022-07-19T18:39:40Z</time>
      </trkpt>
      <trkpt lat="44.80278" lon="6.56601">
        <ele>1088</ele>
        <time>2022-07-19T18:39:41Z</time>
      </trkpt>
      <trkpt lat="44.8028" lon="6.56601">
        <ele>1088.2</ele>
        <time>2022-07-19T18:39:42Z</time>
      </trkpt>
      <trkpt lat="44.80282" lon="6.566">
        <ele>1088.2</ele>
        <time>2022-07-19T18:39:43Z</time>
      </trkpt>
      <trkpt lat="44.80284" lon="6.566">
        <ele>1088.4</ele>
        <time>2022-07-19T18:39:44Z</time>
      </trkpt>
      <trkpt lat="44.80285" lon="6.56599">
        <ele>1088.4</ele>
        <time>2022-07-19T18:39:45Z</time>
      </trkpt>
      <trkpt lat="44.80287" lon="6.56599">
        <ele>1088.4</ele>
        <time>2022-07-19T18:39:46Z</time>
      </trkpt>
      <trkpt lat="44.80289" lon="6.56598">
        <ele>1088.8</ele>
        <time>2022-07-19T18:39:47Z</time>
      </trkpt>
      <trkpt lat="44.80291" lon="6.56598">
        <ele>1088.8</ele>
        <time>2022-07-19T18:39:48Z</time>
      </trkpt>
      <trkpt lat="44.80292" lon="6.56597">
        <ele>1089</ele>
        <time>2022-07-19T18:39:49Z</time>
      </trkpt>
      <trkpt lat="44.80294" lon="6.56597">
        <ele>1089</ele>
        <time>2022-07-19T18:39:50Z</time>
      </trkpt>
      <trkpt lat="44.80296" lon="6.56596">
        <ele>1089.4</ele>
        <time>2022-07-19T18:39:51Z</time>
      </trkpt>
      <trkpt lat="44.80297" lon="6.56596">
        <ele>1089.4</ele>
        <time>2022-07-19T18:39:52Z</time>
      </trkpt>
      <trkpt lat="44.80299" lon="6.56595">
        <ele>1089.6</ele>
        <time>2022-07-19T18:39:53Z</time>
      </trkpt>
      <trkpt lat="44.803" lon="6.56595">
        <ele>1089.6</ele>
        <time>2022-07-19T18:39:54Z</time>
      </trkpt>
      <trkpt lat="44.80302" lon="6.56594">
        <ele>1089.6</ele>
        <time>2022-07-19T18:39:55Z</time>
      </trkpt>
      <trkpt lat="44.80304" lon="6.56593">
        <ele>1089.8</ele>
        <time>2022-07-19T18:39:56Z</time>
      </trkpt>
      <trkpt lat="44.80305" lon="6.56592">
        <ele>1089.8</ele>
        <time>2022-07-19T18:39:57Z</time>
      </trkpt>
      <trkpt lat="44.80307" lon="6.56591">
        <ele>1090.2</ele>
        <time>2022-07-19T18:39:58Z</time>
      </trkpt>
      <trkpt lat="44.80309" lon="6.56591">
        <ele>1090.2</ele>
        <time>2022-07-19T18:39:59Z</time>
      </trkpt>
      <trkpt lat="44.8031" lon="6.5659">
        <ele>1090.4</ele>
        <time>2022-07-19T18:40:00Z</time>
      </trkpt>
      <trkpt lat="44.80312" lon="6.56589">
        <ele>1090.4</ele>
        <time>2022-07-19T18:40:01Z</time>
      </trkpt>
      <trkpt lat="44.80314" lon="6.56588">
        <ele>1090.8</ele>
        <time>2022-07-19T18:40:02Z</time>
      </trkpt>
      <trkpt lat="44.80315" lon="6.56587">
        <ele>1090.8</ele>
        <time>2022-07-19T18:40:03Z</time>
      </trkpt>
      <trkpt lat="44.80317" lon="6.56586">
        <ele>1091</ele>
        <time>2022-07-19T18:40:04Z</time>
      </trkpt>
      <trkpt lat="44.80319" lon="6.56585">
        <ele>1091</ele>
        <time>2022-07-19T18:40:05Z</time>
      </trkpt>
      <trkpt lat="44.80321" lon="6.56584">
        <ele>1091.2</ele>
        <time>2022-07-19T18:40:06Z</time>
      </trkpt>
      <trkpt lat="44.80323" lon="6.56583">
        <ele>1091.2</ele>
        <time>2022-07-19T18:40:07Z</time>
      </trkpt>
      <trkpt lat="44.80324" lon="6.56582">
        <ele>1091.4</ele>
        <time>2022-07-19T18:40:08Z</time>
      </trkpt>
      <trkpt lat="44.80326" lon="6.56581">
        <ele>1091.4</ele>
        <time>2022-07-19T18:40:09Z</time>
      </trkpt>
      <trkpt lat="44.80328" lon="6.5658">
        <ele>1091.4</ele>
        <time>2022-07-19T18:40:10Z</time>
      </trkpt>
      <trkpt lat="44.8033" lon="6.56579">
        <ele>1091.6</ele>
        <time>2022-07-19T18:40:11Z</time>
      </trkpt>
      <trkpt lat="44.80332" lon="6.56577">
        <ele>1091.6</ele>
        <time>2022-07-19T18:40:12Z</time>
      </trkpt>
      <trkpt lat="44.80333" lon="6.56576">
        <ele>1091.8</ele>
        <time>2022-07-19T18:40:13Z</time>
      </trkpt>
      <trkpt lat="44.80335" lon="6.56575">
        <ele>1091.8</ele>
        <time>2022-07-19T18:40:14Z</time>
      </trkpt>
      <trkpt lat="44.80337" lon="6.56574">
        <ele>1092.2</ele>
        <time>2022-07-19T18:40:15Z</time>
      </trkpt>
      <trkpt lat="44.80339" lon="6.56573">
        <ele>1092.2</ele>
        <time>2022-07-19T18:40:16Z</time>
      </trkpt>
      <trkpt lat="44.8034" lon="6.56572">
        <ele>1092.4</ele>
        <time>2022-07-19T18:40:17Z</time>
      </trkpt>
      <trkpt lat="44.80342" lon="6.56571">
        <ele>1092.4</ele>
        <time>2022-07-19T18:40:18Z</time>
      </trkpt>
      <trkpt lat="44.80344" lon="6.5657">
        <ele>1092.8</ele>
        <time>2022-07-19T18:40:19Z</time>
      </trkpt>
      <trkpt lat="44.80345" lon="6.56569">
        <ele>1092.8</ele>
        <time>2022-07-19T18:40:20Z</time>
      </trkpt>
      <trkpt lat="44.80347" lon="6.56568">
        <ele>1092.8</ele>
        <time>2022-07-19T18:40:21Z</time>
      </trkpt>
      <trkpt lat="44.80348" lon="6.56566">
        <ele>1093</ele>
        <time>2022-07-19T18:40:22Z</time>
      </trkpt>
      <trkpt lat="44.8035" lon="6.56565">
        <ele>1093</ele>
        <time>2022-07-19T18:40:23Z</time>
      </trkpt>
      <trkpt lat="44.80351" lon="6.56565">
        <ele>1093</ele>
        <time>2022-07-19T18:40:24Z</time>
      </trkpt>
      <trkpt lat="44.80353" lon="6.56564">
        <ele>1093.4</ele>
        <time>2022-07-19T18:40:25Z</time>
      </trkpt>
      <trkpt lat="44.80354" lon="6.56564">
        <ele>1093.4</ele>
        <time>2022-07-19T18:40:26Z</time>
      </trkpt>
      <trkpt lat="44.80356" lon="6.56562">
        <ele>1093.6</ele>
        <time>2022-07-19T18:40:27Z</time>
      </trkpt>
      <trkpt lat="44.80357" lon="6.56561">
        <ele>1093.6</ele>
        <time>2022-07-19T18:40:28Z</time>
      </trkpt>
      <trkpt lat="44.80359" lon="6.5656">
        <ele>1094</ele>
        <time>2022-07-19T18:40:29Z</time>
      </trkpt>
      <trkpt lat="44.8036" lon="6.56559">
        <ele>1094</ele>
        <time>2022-07-19T18:40:30Z</time>
      </trkpt>
      <trkpt lat="44.80361" lon="6.56558">
        <ele>1094.2</ele>
        <time>2022-07-19T18:40:31Z</time>
      </trkpt>
      <trkpt lat="44.80363" lon="6.56557">
        <ele>1094.4</ele>
        <time>2022-07-19T18:40:32Z</time>
      </trkpt>
      <trkpt lat="44.80364" lon="6.56556">
        <ele>1094.4</ele>
        <time>2022-07-19T18:40:33Z</time>
      </trkpt>
      <trkpt lat="44.80366" lon="6.56555">
        <ele>1094.8</ele>
        <time>2022-07-19T18:40:34Z</time>
      </trkpt>
      <trkpt lat="44.80367" lon="6.56555">
        <ele>1094.8</ele>
        <time>2022-07-19T18:40:35Z</time>
      </trkpt>
      <trkpt lat="44.80369" lon="6.56553">
        <ele>1095.2</ele>
        <time>2022-07-19T18:40:36Z</time>
      </trkpt>
      <trkpt lat="44.8037" lon="6.56552">
        <ele>1095.2</ele>
        <time>2022-07-19T18:40:37Z</time>
      </trkpt>
      <trkpt lat="44.80372" lon="6.56552">
        <ele>1095.4</ele>
        <time>2022-07-19T18:40:38Z</time>
      </trkpt>
      <trkpt lat="44.80373" lon="6.56551">
        <ele>1095.4</ele>
        <time>2022-07-19T18:40:39Z</time>
      </trkpt>
      <trkpt lat="44.80375" lon="6.5655">
        <ele>1095.4</ele>
        <time>2022-07-19T18:40:40Z</time>
      </trkpt>
      <trkpt lat="44.80377" lon="6.56549">
        <ele>1095.8</ele>
        <time>2022-07-19T18:40:41Z</time>
      </trkpt>
      <trkpt lat="44.80378" lon="6.56548">
        <ele>1095.8</ele>
        <time>2022-07-19T18:40:42Z</time>
      </trkpt>
      <trkpt lat="44.8038" lon="6.56547">
        <ele>1096.2</ele>
        <time>2022-07-19T18:40:43Z</time>
      </trkpt>
      <trkpt lat="44.80381" lon="6.56546">
        <ele>1096.2</ele>
        <time>2022-07-19T18:40:44Z</time>
      </trkpt>
      <trkpt lat="44.80383" lon="6.56545">
        <ele>1096.6</ele>
        <time>2022-07-19T18:40:45Z</time>
      </trkpt>
      <trkpt lat="44.80384" lon="6.56544">
        <ele>1096.6</ele>
        <time>2022-07-19T18:40:46Z</time>
      </trkpt>
      <trkpt lat="44.80386" lon="6.56543">
        <ele>1096.8</ele>
        <time>2022-07-19T18:40:47Z</time>
      </trkpt>
      <trkpt lat="44.80388" lon="6.56542">
        <ele>1096.8</ele>
        <time>2022-07-19T18:40:48Z</time>
      </trkpt>
      <trkpt lat="44.80389" lon="6.56541">
        <ele>1097</ele>
        <time>2022-07-19T18:40:49Z</time>
      </trkpt>
      <trkpt lat="44.8039" lon="6.5654">
        <ele>1097</ele>
        <time>2022-07-19T18:40:50Z</time>
      </trkpt>
      <trkpt lat="44.80392" lon="6.56539">
        <ele>1097.2</ele>
        <time>2022-07-19T18:40:51Z</time>
      </trkpt>
      <trkpt lat="44.80394" lon="6.56539">
        <ele>1097.2</ele>
        <time>2022-07-19T18:40:52Z</time>
      </trkpt>
      <trkpt lat="44.80395" lon="6.56538">
        <ele>1097.6</ele>
        <time>2022-07-19T18:40:53Z</time>
      </trkpt>
      <trkpt lat="44.80397" lon="6.56537">
        <ele>1097.6</ele>
        <time>2022-07-19T18:40:54Z</time>
      </trkpt>
      <trkpt lat="44.80398" lon="6.56537">
        <ele>1097.8</ele>
        <time>2022-07-19T18:40:55Z</time>
      </trkpt>
      <trkpt lat="44.804" lon="6.56536">
        <ele>1097.8</ele>
        <time>2022-07-19T18:40:56Z</time>
      </trkpt>
      <trkpt lat="44.80402" lon="6.56536">
        <ele>1098</ele>
        <time>2022-07-19T18:40:57Z</time>
      </trkpt>
      <trkpt lat="44.80403" lon="6.56535">
        <ele>1098</ele>
        <time>2022-07-19T18:40:58Z</time>
      </trkpt>
      <trkpt lat="44.80405" lon="6.56535">
        <ele>1098.4</ele>
        <time>2022-07-19T18:40:59Z</time>
      </trkpt>
      <trkpt lat="44.80406" lon="6.56534">
        <ele>1098.6</ele>
        <time>2022-07-19T18:41:00Z</time>
      </trkpt>
      <trkpt lat="44.80408" lon="6.56533">
        <ele>1098.6</ele>
        <time>2022-07-19T18:41:01Z</time>
      </trkpt>
      <trkpt lat="44.8041" lon="6.56532">
        <ele>1098.8</ele>
        <time>2022-07-19T18:41:02Z</time>
      </trkpt>
      <trkpt lat="44.80411" lon="6.56532">
        <ele>1098.8</ele>
        <time>2022-07-19T18:41:03Z</time>
      </trkpt>
      <trkpt lat="44.80413" lon="6.56532">
        <ele>1098.8</ele>
        <time>2022-07-19T18:41:04Z</time>
      </trkpt>
      <trkpt lat="44.80415" lon="6.56531">
        <ele>1099.2</ele>
        <time>2022-07-19T18:41:05Z</time>
      </trkpt>
      <trkpt lat="44.80416" lon="6.5653">
        <ele>1099.2</ele>
        <time>2022-07-19T18:41:06Z</time>
      </trkpt>
      <trkpt lat="44.80418" lon="6.5653">
        <ele>1099.4</ele>
        <time>2022-07-19T18:41:07Z</time>
      </trkpt>
      <trkpt lat="44.80419" lon="6.5653">
        <ele>1099.4</ele>
        <time>2022-07-19T18:41:08Z</time>
      </trkpt>
      <trkpt lat="44.80421" lon="6.5653">
        <ele>1099.6</ele>
        <time>2022-07-19T18:41:09Z</time>
      </trkpt>
      <trkpt lat="44.80423" lon="6.5653">
        <ele>1099.6</ele>
        <time>2022-07-19T18:41:10Z</time>
      </trkpt>
      <trkpt lat="44.80424" lon="6.5653">
        <ele>1099.6</ele>
        <time>2022-07-19T18:41:11Z</time>
      </trkpt>
      <trkpt lat="44.80426" lon="6.56529">
        <ele>1099.8</ele>
        <time>2022-07-19T18:41:12Z</time>
      </trkpt>
      <trkpt lat="44.80427" lon="6.56529">
        <ele>1099.8</ele>
        <time>2022-07-19T18:41:13Z</time>
      </trkpt>
      <trkpt lat="44.80429" lon="6.56529">
        <ele>1100.2</ele>
        <time>2022-07-19T18:41:14Z</time>
      </trkpt>
      <trkpt lat="44.80431" lon="6.56529">
        <ele>1100.2</ele>
        <time>2022-07-19T18:41:15Z</time>
      </trkpt>
      <trkpt lat="44.80432" lon="6.56529">
        <ele>1100.4</ele>
        <time>2022-07-19T18:41:16Z</time>
      </trkpt>
      <trkpt lat="44.80434" lon="6.56529">
        <ele>1100.4</ele>
        <time>2022-07-19T18:41:17Z</time>
      </trkpt>
      <trkpt lat="44.80436" lon="6.56529">
        <ele>1100.6</ele>
        <time>2022-07-19T18:41:18Z</time>
      </trkpt>
      <trkpt lat="44.80438" lon="6.56529">
        <ele>1100.6</ele>
        <time>2022-07-19T18:41:19Z</time>
      </trkpt>
      <trkpt lat="44.80439" lon="6.56529">
        <ele>1100.6</ele>
        <time>2022-07-19T18:41:20Z</time>
      </trkpt>
      <trkpt lat="44.80441" lon="6.56529">
        <ele>1100.8</ele>
        <time>2022-07-19T18:41:21Z</time>
      </trkpt>
      <trkpt lat="44.80443" lon="6.5653">
        <ele>1100.8</ele>
        <time>2022-07-19T18:41:22Z</time>
      </trkpt>
      <trkpt lat="44.80445" lon="6.5653">
        <ele>1100.8</ele>
        <time>2022-07-19T18:41:23Z</time>
      </trkpt>
      <trkpt lat="44.80446" lon="6.5653">
        <ele>1100.8</ele>
        <time>2022-07-19T18:41:24Z</time>
      </trkpt>
      <trkpt lat="44.80448" lon="6.5653">
        <ele>1101.2</ele>
        <time>2022-07-19T18:41:25Z</time>
      </trkpt>
      <trkpt lat="44.8045" lon="6.5653">
        <ele>1101.2</ele>
        <time>2022-07-19T18:41:26Z</time>
      </trkpt>
      <trkpt lat="44.80452" lon="6.56531">
        <ele>1101.4</ele>
        <time>2022-07-19T18:41:27Z</time>
      </trkpt>
      <trkpt lat="44.80453" lon="6.56531">
        <ele>1101.4</ele>
        <time>2022-07-19T18:41:28Z</time>
      </trkpt>
      <trkpt lat="44.80455" lon="6.56531">
        <ele>1101.8</ele>
        <time>2022-07-19T18:41:29Z</time>
      </trkpt>
      <trkpt lat="44.80457" lon="6.56532">
        <ele>1101.8</ele>
        <time>2022-07-19T18:41:30Z</time>
      </trkpt>
      <trkpt lat="44.80459" lon="6.56532">
        <ele>1102</ele>
        <time>2022-07-19T18:41:31Z</time>
      </trkpt>
      <trkpt lat="44.8046" lon="6.56533">
        <ele>1102</ele>
        <time>2022-07-19T18:41:32Z</time>
      </trkpt>
      <trkpt lat="44.80462" lon="6.56533">
        <ele>1102.2</ele>
        <time>2022-07-19T18:41:33Z</time>
      </trkpt>
      <trkpt lat="44.80464" lon="6.56533">
        <ele>1102.2</ele>
        <time>2022-07-19T18:41:34Z</time>
      </trkpt>
      <trkpt lat="44.80466" lon="6.56533">
        <ele>1102.6</ele>
        <time>2022-07-19T18:41:35Z</time>
      </trkpt>
      <trkpt lat="44.80467" lon="6.56534">
        <ele>1102.6</ele>
        <time>2022-07-19T18:41:36Z</time>
      </trkpt>
      <trkpt lat="44.80469" lon="6.56534">
        <ele>1102.8</ele>
        <time>2022-07-19T18:41:37Z</time>
      </trkpt>
      <trkpt lat="44.80471" lon="6.56535">
        <ele>1102.8</ele>
        <time>2022-07-19T18:41:38Z</time>
      </trkpt>
      <trkpt lat="44.80473" lon="6.56535">
        <ele>1103.2</ele>
        <time>2022-07-19T18:41:39Z</time>
      </trkpt>
      <trkpt lat="44.80475" lon="6.56535">
        <ele>1103.2</ele>
        <time>2022-07-19T18:41:40Z</time>
      </trkpt>
      <trkpt lat="44.80476" lon="6.56535">
        <ele>1103.2</ele>
        <time>2022-07-19T18:41:41Z</time>
      </trkpt>
      <trkpt lat="44.80478" lon="6.56536">
        <ele>1103.4</ele>
        <time>2022-07-19T18:41:42Z</time>
      </trkpt>
      <trkpt lat="44.8048" lon="6.56536">
        <ele>1103.4</ele>
        <time>2022-07-19T18:41:43Z</time>
      </trkpt>
      <trkpt lat="44.80482" lon="6.56537">
        <ele>1103.4</ele>
        <time>2022-07-19T18:41:44Z</time>
      </trkpt>
      <trkpt lat="44.80484" lon="6.56537">
        <ele>1103.8</ele>
        <time>2022-07-19T18:41:45Z</time>
      </trkpt>
      <trkpt lat="44.80486" lon="6.56538">
        <ele>1103.8</ele>
        <time>2022-07-19T18:41:46Z</time>
      </trkpt>
      <trkpt lat="44.80488" lon="6.56538">
        <ele>1104</ele>
        <time>2022-07-19T18:41:47Z</time>
      </trkpt>
      <trkpt lat="44.8049" lon="6.56539">
        <ele>1104</ele>
        <time>2022-07-19T18:41:48Z</time>
      </trkpt>
      <trkpt lat="44.80491" lon="6.56539">
        <ele>1104.4</ele>
        <time>2022-07-19T18:41:49Z</time>
      </trkpt>
      <trkpt lat="44.80493" lon="6.56539">
        <ele>1104.4</ele>
        <time>2022-07-19T18:41:50Z</time>
      </trkpt>
      <trkpt lat="44.80495" lon="6.56539">
        <ele>1104.6</ele>
        <time>2022-07-19T18:41:51Z</time>
      </trkpt>
      <trkpt lat="44.80497" lon="6.5654">
        <ele>1104.8</ele>
        <time>2022-07-19T18:41:52Z</time>
      </trkpt>
      <trkpt lat="44.80499" lon="6.5654">
        <ele>1104.8</ele>
        <time>2022-07-19T18:41:53Z</time>
      </trkpt>
      <trkpt lat="44.80501" lon="6.56541">
        <ele>1105.2</ele>
        <time>2022-07-19T18:41:54Z</time>
      </trkpt>
      <trkpt lat="44.80502" lon="6.56541">
        <ele>1105.2</ele>
        <time>2022-07-19T18:41:55Z</time>
      </trkpt>
      <trkpt lat="44.80504" lon="6.56542">
        <ele>1105.4</ele>
        <time>2022-07-19T18:41:56Z</time>
      </trkpt>
      <trkpt lat="44.80506" lon="6.56542">
        <ele>1105.4</ele>
        <time>2022-07-19T18:41:57Z</time>
      </trkpt>
      <trkpt lat="44.80507" lon="6.56543">
        <ele>1105.6</ele>
        <time>2022-07-19T18:41:58Z</time>
      </trkpt>
      <trkpt lat="44.80509" lon="6.56543">
        <ele>1106</ele>
        <time>2022-07-19T18:41:59Z</time>
      </trkpt>
      <trkpt lat="44.80511" lon="6.56544">
        <ele>1106.2</ele>
        <time>2022-07-19T18:42:00Z</time>
      </trkpt>
      <trkpt lat="44.80512" lon="6.56544">
        <ele>1106.4</ele>
        <time>2022-07-19T18:42:01Z</time>
      </trkpt>
      <trkpt lat="44.80514" lon="6.56545">
        <ele>1106.8</ele>
        <time>2022-07-19T18:42:02Z</time>
      </trkpt>
      <trkpt lat="44.80516" lon="6.56545">
        <ele>1106.8</ele>
        <time>2022-07-19T18:42:03Z</time>
      </trkpt>
      <trkpt lat="44.80518" lon="6.56546">
        <ele>1107</ele>
        <time>2022-07-19T18:42:04Z</time>
      </trkpt>
      <trkpt lat="44.80519" lon="6.56546">
        <ele>1107</ele>
        <time>2022-07-19T18:42:05Z</time>
      </trkpt>
      <trkpt lat="44.80521" lon="6.56547">
        <ele>1107.2</ele>
        <time>2022-07-19T18:42:06Z</time>
      </trkpt>
      <trkpt lat="44.80523" lon="6.56547">
        <ele>1107.2</ele>
        <time>2022-07-19T18:42:07Z</time>
      </trkpt>
      <trkpt lat="44.80525" lon="6.56548">
        <ele>1107.2</ele>
        <time>2022-07-19T18:42:08Z</time>
      </trkpt>
      <trkpt lat="44.80527" lon="6.5655">
        <ele>1107.4</ele>
        <time>2022-07-19T18:42:09Z</time>
      </trkpt>
      <trkpt lat="44.80528" lon="6.56551">
        <ele>1107.4</ele>
        <time>2022-07-19T18:42:10Z</time>
      </trkpt>
      <trkpt lat="44.8053" lon="6.56552">
        <ele>1107.4</ele>
        <time>2022-07-19T18:42:11Z</time>
      </trkpt>
      <trkpt lat="44.80532" lon="6.56553">
        <ele>1107.4</ele>
        <time>2022-07-19T18:42:12Z</time>
      </trkpt>
      <trkpt lat="44.80533" lon="6.56553">
        <ele>1107.4</ele>
        <time>2022-07-19T18:42:13Z</time>
      </trkpt>
      <trkpt lat="44.80535" lon="6.56554">
        <ele>1107.4</ele>
        <time>2022-07-19T18:42:14Z</time>
      </trkpt>
      <trkpt lat="44.80537" lon="6.56555">
        <ele>1107.4</ele>
        <time>2022-07-19T18:42:15Z</time>
      </trkpt>
      <trkpt lat="44.80538" lon="6.56556">
        <ele>1107.8</ele>
        <time>2022-07-19T18:42:16Z</time>
      </trkpt>
      <trkpt lat="44.8054" lon="6.56557">
        <ele>1108</ele>
        <time>2022-07-19T18:42:17Z</time>
      </trkpt>
      <trkpt lat="44.80541" lon="6.56558">
        <ele>1108</ele>
        <time>2022-07-19T18:42:18Z</time>
      </trkpt>
      <trkpt lat="44.80542" lon="6.56558">
        <ele>1108.4</ele>
        <time>2022-07-19T18:42:19Z</time>
      </trkpt>
      <trkpt lat="44.80544" lon="6.56559">
        <ele>1108.4</ele>
        <time>2022-07-19T18:42:20Z</time>
      </trkpt>
      <trkpt lat="44.80545" lon="6.5656">
        <ele>1108.8</ele>
        <time>2022-07-19T18:42:21Z</time>
      </trkpt>
      <trkpt lat="44.80547" lon="6.56561">
        <ele>1108.8</ele>
        <time>2022-07-19T18:42:22Z</time>
      </trkpt>
      <trkpt lat="44.80548" lon="6.56562">
        <ele>1109.2</ele>
        <time>2022-07-19T18:42:23Z</time>
      </trkpt>
      <trkpt lat="44.8055" lon="6.56563">
        <ele>1109.2</ele>
        <time>2022-07-19T18:42:24Z</time>
      </trkpt>
      <trkpt lat="44.80551" lon="6.56563">
        <ele>1109.6</ele>
        <time>2022-07-19T18:42:25Z</time>
      </trkpt>
      <trkpt lat="44.80553" lon="6.56564">
        <ele>1109.6</ele>
        <time>2022-07-19T18:42:26Z</time>
      </trkpt>
      <trkpt lat="44.80554" lon="6.56565">
        <ele>1109.8</ele>
        <time>2022-07-19T18:42:27Z</time>
      </trkpt>
      <trkpt lat="44.80556" lon="6.56566">
        <ele>1109.8</ele>
        <time>2022-07-19T18:42:28Z</time>
      </trkpt>
      <trkpt lat="44.80558" lon="6.56567">
        <ele>1110</ele>
        <time>2022-07-19T18:42:29Z</time>
      </trkpt>
      <trkpt lat="44.80559" lon="6.56567">
        <ele>1110</ele>
        <time>2022-07-19T18:42:30Z</time>
      </trkpt>
      <trkpt lat="44.80561" lon="6.56568">
        <ele>1110.2</ele>
        <time>2022-07-19T18:42:31Z</time>
      </trkpt>
      <trkpt lat="44.80563" lon="6.56569">
        <ele>1110.2</ele>
        <time>2022-07-19T18:42:32Z</time>
      </trkpt>
      <trkpt lat="44.80565" lon="6.5657">
        <ele>1110.6</ele>
        <time>2022-07-19T18:42:33Z</time>
      </trkpt>
      <trkpt lat="44.80567" lon="6.56571">
        <ele>1110.6</ele>
        <time>2022-07-19T18:42:34Z</time>
      </trkpt>
      <trkpt lat="44.8057" lon="6.56572">
        <ele>1110.8</ele>
        <time>2022-07-19T18:42:35Z</time>
      </trkpt>
      <trkpt lat="44.80572" lon="6.56573">
        <ele>1110.8</ele>
        <time>2022-07-19T18:42:36Z</time>
      </trkpt>
      <trkpt lat="44.80573" lon="6.56573">
        <ele>1111</ele>
        <time>2022-07-19T18:42:37Z</time>
      </trkpt>
      <trkpt lat="44.80575" lon="6.56574">
        <ele>1111</ele>
        <time>2022-07-19T18:42:38Z</time>
      </trkpt>
      <trkpt lat="44.80577" lon="6.56574">
        <ele>1111</ele>
        <time>2022-07-19T18:42:39Z</time>
      </trkpt>
      <trkpt lat="44.80579" lon="6.56575">
        <ele>1111.4</ele>
        <time>2022-07-19T18:42:40Z</time>
      </trkpt>
      <trkpt lat="44.8058" lon="6.56575">
        <ele>1111.4</ele>
        <time>2022-07-19T18:42:41Z</time>
      </trkpt>
      <trkpt lat="44.80582" lon="6.56576">
        <ele>1111.6</ele>
        <time>2022-07-19T18:42:42Z</time>
      </trkpt>
      <trkpt lat="44.80584" lon="6.56576">
        <ele>1112</ele>
        <time>2022-07-19T18:42:43Z</time>
      </trkpt>
      <trkpt lat="44.80586" lon="6.56577">
        <ele>1112.2</ele>
        <time>2022-07-19T18:42:44Z</time>
      </trkpt>
      <trkpt lat="44.80587" lon="6.56577">
        <ele>1112.2</ele>
        <time>2022-07-19T18:42:45Z</time>
      </trkpt>
      <trkpt lat="44.80589" lon="6.56577">
        <ele>1112.4</ele>
        <time>2022-07-19T18:42:46Z</time>
      </trkpt>
      <trkpt lat="44.80591" lon="6.56577">
        <ele>1112.4</ele>
        <time>2022-07-19T18:42:47Z</time>
      </trkpt>
      <trkpt lat="44.80592" lon="6.56578">
        <ele>1112.8</ele>
        <time>2022-07-19T18:42:48Z</time>
      </trkpt>
      <trkpt lat="44.80594" lon="6.56578">
        <ele>1112.8</ele>
        <time>2022-07-19T18:42:49Z</time>
      </trkpt>
      <trkpt lat="44.80596" lon="6.56578">
        <ele>1112.8</ele>
        <time>2022-07-19T18:42:50Z</time>
      </trkpt>
      <trkpt lat="44.80598" lon="6.56578">
        <ele>1113</ele>
        <time>2022-07-19T18:42:51Z</time>
      </trkpt>
      <trkpt lat="44.80599" lon="6.56578">
        <ele>1113</ele>
        <time>2022-07-19T18:42:52Z</time>
      </trkpt>
      <trkpt lat="44.80601" lon="6.56578">
        <ele>1113.2</ele>
        <time>2022-07-19T18:42:53Z</time>
      </trkpt>
      <trkpt lat="44.80603" lon="6.56577">
        <ele>1113.2</ele>
        <time>2022-07-19T18:42:54Z</time>
      </trkpt>
      <trkpt lat="44.80605" lon="6.56577">
        <ele>1113.2</ele>
        <time>2022-07-19T18:42:55Z</time>
      </trkpt>
      <trkpt lat="44.80607" lon="6.56577">
        <ele>1113.4</ele>
        <time>2022-07-19T18:42:56Z</time>
      </trkpt>
      <trkpt lat="44.80608" lon="6.56577">
        <ele>1113.4</ele>
        <time>2022-07-19T18:42:57Z</time>
      </trkpt>
      <trkpt lat="44.8061" lon="6.56577">
        <ele>1113.4</ele>
        <time>2022-07-19T18:42:58Z</time>
      </trkpt>
      <trkpt lat="44.80612" lon="6.56577">
        <ele>1113.4</ele>
        <time>2022-07-19T18:42:59Z</time>
      </trkpt>
      <trkpt lat="44.80613" lon="6.56577">
        <ele>1113.4</ele>
        <time>2022-07-19T18:43:00Z</time>
      </trkpt>
      <trkpt lat="44.80615" lon="6.56577">
        <ele>1113.4</ele>
        <time>2022-07-19T18:43:01Z</time>
      </trkpt>
      <trkpt lat="44.80617" lon="6.56576">
        <ele>1113.4</ele>
        <time>2022-07-19T18:43:02Z</time>
      </trkpt>
      <trkpt lat="44.80618" lon="6.56576">
        <ele>1113.4</ele>
        <time>2022-07-19T18:43:03Z</time>
      </trkpt>
      <trkpt lat="44.8062" lon="6.56575">
        <ele>1113.8</ele>
        <time>2022-07-19T18:43:04Z</time>
      </trkpt>
      <trkpt lat="44.80622" lon="6.56575">
        <ele>1113.8</ele>
        <time>2022-07-19T18:43:05Z</time>
      </trkpt>
      <trkpt lat="44.80624" lon="6.56575">
        <ele>1114.2</ele>
        <time>2022-07-19T18:43:06Z</time>
      </trkpt>
      <trkpt lat="44.80626" lon="6.56575">
        <ele>1114.4</ele>
        <time>2022-07-19T18:43:07Z</time>
      </trkpt>
      <trkpt lat="44.80628" lon="6.56575">
        <ele>1114.6</ele>
        <time>2022-07-19T18:43:08Z</time>
      </trkpt>
      <trkpt lat="44.80629" lon="6.56575">
        <ele>1114.8</ele>
        <time>2022-07-19T18:43:09Z</time>
      </trkpt>
      <trkpt lat="44.80631" lon="6.56574">
        <ele>1114.8</ele>
        <time>2022-07-19T18:43:10Z</time>
      </trkpt>
      <trkpt lat="44.80633" lon="6.56574">
        <ele>1115.2</ele>
        <time>2022-07-19T18:43:11Z</time>
      </trkpt>
      <trkpt lat="44.80634" lon="6.56574">
        <ele>1115.2</ele>
        <time>2022-07-19T18:43:12Z</time>
      </trkpt>
      <trkpt lat="44.80636" lon="6.56573">
        <ele>1115.4</ele>
        <time>2022-07-19T18:43:13Z</time>
      </trkpt>
      <trkpt lat="44.80638" lon="6.56572">
        <ele>1115.4</ele>
        <time>2022-07-19T18:43:14Z</time>
      </trkpt>
      <trkpt lat="44.8064" lon="6.56571">
        <ele>1115.4</ele>
        <time>2022-07-19T18:43:15Z</time>
      </trkpt>
      <trkpt lat="44.80641" lon="6.56571">
        <ele>1115.6</ele>
        <time>2022-07-19T18:43:16Z</time>
      </trkpt>
      <trkpt lat="44.80643" lon="6.5657">
        <ele>1115.6</ele>
        <time>2022-07-19T18:43:17Z</time>
      </trkpt>
      <trkpt lat="44.80645" lon="6.56569">
        <ele>1115.6</ele>
        <time>2022-07-19T18:43:18Z</time>
      </trkpt>
      <trkpt lat="44.80647" lon="6.56569">
        <ele>1116</ele>
        <time>2022-07-19T18:43:19Z</time>
      </trkpt>
      <trkpt lat="44.80649" lon="6.56568">
        <ele>1116</ele>
        <time>2022-07-19T18:43:20Z</time>
      </trkpt>
      <trkpt lat="44.8065" lon="6.56567">
        <ele>1116.4</ele>
        <time>2022-07-19T18:43:21Z</time>
      </trkpt>
      <trkpt lat="44.80652" lon="6.56567">
        <ele>1116.4</ele>
        <time>2022-07-19T18:43:22Z</time>
      </trkpt>
      <trkpt lat="44.80654" lon="6.56566">
        <ele>1116.6</ele>
        <time>2022-07-19T18:43:23Z</time>
      </trkpt>
      <trkpt lat="44.80656" lon="6.56566">
        <ele>1116.6</ele>
        <time>2022-07-19T18:43:24Z</time>
      </trkpt>
      <trkpt lat="44.80658" lon="6.56565">
        <ele>1117</ele>
        <time>2022-07-19T18:43:25Z</time>
      </trkpt>
      <trkpt lat="44.80659" lon="6.56565">
        <ele>1117.2</ele>
        <time>2022-07-19T18:43:26Z</time>
      </trkpt>
      <trkpt lat="44.80661" lon="6.56565">
        <ele>1117.4</ele>
        <time>2022-07-19T18:43:27Z</time>
      </trkpt>
      <trkpt lat="44.80663" lon="6.56565">
        <ele>1117.6</ele>
        <time>2022-07-19T18:43:28Z</time>
      </trkpt>
      <trkpt lat="44.80665" lon="6.56565">
        <ele>1117.6</ele>
        <time>2022-07-19T18:43:29Z</time>
      </trkpt>
      <trkpt lat="44.80667" lon="6.56566">
        <ele>1118</ele>
        <time>2022-07-19T18:43:30Z</time>
      </trkpt>
      <trkpt lat="44.80668" lon="6.56567">
        <ele>1118</ele>
        <time>2022-07-19T18:43:31Z</time>
      </trkpt>
      <trkpt lat="44.8067" lon="6.56568">
        <ele>1118.4</ele>
        <time>2022-07-19T18:43:32Z</time>
      </trkpt>
      <trkpt lat="44.80671" lon="6.56569">
        <ele>1118.4</ele>
        <time>2022-07-19T18:43:33Z</time>
      </trkpt>
      <trkpt lat="44.80672" lon="6.56571">
        <ele>1118.6</ele>
        <time>2022-07-19T18:43:34Z</time>
      </trkpt>
      <trkpt lat="44.80674" lon="6.56573">
        <ele>1118.6</ele>
        <time>2022-07-19T18:43:35Z</time>
      </trkpt>
      <trkpt lat="44.80674" lon="6.56575">
        <ele>1119</ele>
        <time>2022-07-19T18:43:36Z</time>
      </trkpt>
      <trkpt lat="44.80675" lon="6.56578">
        <ele>1119</ele>
        <time>2022-07-19T18:43:37Z</time>
      </trkpt>
      <trkpt lat="44.80675" lon="6.56581">
        <ele>1119</ele>
        <time>2022-07-19T18:43:38Z</time>
      </trkpt>
      <trkpt lat="44.80675" lon="6.56584">
        <ele>1119</ele>
        <time>2022-07-19T18:43:39Z</time>
      </trkpt>
      <trkpt lat="44.80674" lon="6.56587">
        <ele>1119</ele>
        <time>2022-07-19T18:43:40Z</time>
      </trkpt>
      <trkpt lat="44.80674" lon="6.56589">
        <ele>1119</ele>
        <time>2022-07-19T18:43:41Z</time>
      </trkpt>
      <trkpt lat="44.80673" lon="6.56592">
        <ele>1119</ele>
        <time>2022-07-19T18:43:42Z</time>
      </trkpt>
      <trkpt lat="44.80672" lon="6.56595">
        <ele>1119</ele>
        <time>2022-07-19T18:43:43Z</time>
      </trkpt>
      <trkpt lat="44.80671" lon="6.56597">
        <ele>1119</ele>
        <time>2022-07-19T18:43:44Z</time>
      </trkpt>
      <trkpt lat="44.80669" lon="6.56599">
        <ele>1119.4</ele>
        <time>2022-07-19T18:43:46Z</time>
      </trkpt>
      <trkpt lat="44.80668" lon="6.566">
        <ele>1119.6</ele>
        <time>2022-07-19T18:43:47Z</time>
      </trkpt>
      <trkpt lat="44.80667" lon="6.56602">
        <ele>1119.6</ele>
        <time>2022-07-19T18:43:48Z</time>
      </trkpt>
      <trkpt lat="44.80665" lon="6.56603">
        <ele>1120</ele>
        <time>2022-07-19T18:43:49Z</time>
      </trkpt>
      <trkpt lat="44.80664" lon="6.56604">
        <ele>1120</ele>
        <time>2022-07-19T18:43:50Z</time>
      </trkpt>
      <trkpt lat="44.80662" lon="6.56605">
        <ele>1120.2</ele>
        <time>2022-07-19T18:43:51Z</time>
      </trkpt>
      <trkpt lat="44.8066" lon="6.56606">
        <ele>1120.2</ele>
        <time>2022-07-19T18:43:52Z</time>
      </trkpt>
      <trkpt lat="44.80658" lon="6.56606">
        <ele>1120.4</ele>
        <time>2022-07-19T18:43:53Z</time>
      </trkpt>
      <trkpt lat="44.80656" lon="6.56606">
        <ele>1120.4</ele>
        <time>2022-07-19T18:43:54Z</time>
      </trkpt>
      <trkpt lat="44.80654" lon="6.56607">
        <ele>1120.6</ele>
        <time>2022-07-19T18:43:55Z</time>
      </trkpt>
      <trkpt lat="44.80652" lon="6.56607">
        <ele>1120.6</ele>
        <time>2022-07-19T18:43:56Z</time>
      </trkpt>
      <trkpt lat="44.8065" lon="6.56607">
        <ele>1120.6</ele>
        <time>2022-07-19T18:43:57Z</time>
      </trkpt>
      <trkpt lat="44.80648" lon="6.56608">
        <ele>1121</ele>
        <time>2022-07-19T18:43:58Z</time>
      </trkpt>
      <trkpt lat="44.80646" lon="6.56608">
        <ele>1121</ele>
        <time>2022-07-19T18:43:59Z</time>
      </trkpt>
      <trkpt lat="44.80644" lon="6.56608">
        <ele>1121</ele>
        <time>2022-07-19T18:44:00Z</time>
      </trkpt>
      <trkpt lat="44.80642" lon="6.56608">
        <ele>1121</ele>
        <time>2022-07-19T18:44:01Z</time>
      </trkpt>
      <trkpt lat="44.8064" lon="6.56608">
        <ele>1121</ele>
        <time>2022-07-19T18:44:02Z</time>
      </trkpt>
      <trkpt lat="44.80638" lon="6.56609">
        <ele>1121.2</ele>
        <time>2022-07-19T18:44:03Z</time>
      </trkpt>
      <trkpt lat="44.80636" lon="6.56609">
        <ele>1121.2</ele>
        <time>2022-07-19T18:44:04Z</time>
      </trkpt>
      <trkpt lat="44.80634" lon="6.56609">
        <ele>1121.2</ele>
        <time>2022-07-19T18:44:05Z</time>
      </trkpt>
      <trkpt lat="44.80632" lon="6.56609">
        <ele>1121.6</ele>
        <time>2022-07-19T18:44:06Z</time>
      </trkpt>
      <trkpt lat="44.8063" lon="6.56609">
        <ele>1121.6</ele>
        <time>2022-07-19T18:44:07Z</time>
      </trkpt>
      <trkpt lat="44.80628" lon="6.56609">
        <ele>1121.6</ele>
        <time>2022-07-19T18:44:08Z</time>
      </trkpt>
      <trkpt lat="44.80626" lon="6.5661">
        <ele>1122</ele>
        <time>2022-07-19T18:44:09Z</time>
      </trkpt>
      <trkpt lat="44.80624" lon="6.5661">
        <ele>1122</ele>
        <time>2022-07-19T18:44:10Z</time>
      </trkpt>
      <trkpt lat="44.80622" lon="6.5661">
        <ele>1122</ele>
        <time>2022-07-19T18:44:11Z</time>
      </trkpt>
      <trkpt lat="44.80621" lon="6.56611">
        <ele>1122</ele>
        <time>2022-07-19T18:44:12Z</time>
      </trkpt>
      <trkpt lat="44.80619" lon="6.56611">
        <ele>1122.2</ele>
        <time>2022-07-19T18:44:13Z</time>
      </trkpt>
      <trkpt lat="44.80617" lon="6.56611">
        <ele>1122.2</ele>
        <time>2022-07-19T18:44:14Z</time>
      </trkpt>
      <trkpt lat="44.80615" lon="6.56612">
        <ele>1122.4</ele>
        <time>2022-07-19T18:44:15Z</time>
      </trkpt>
      <trkpt lat="44.80614" lon="6.56612">
        <ele>1122.4</ele>
        <time>2022-07-19T18:44:16Z</time>
      </trkpt>
      <trkpt lat="44.80612" lon="6.56612">
        <ele>1122.8</ele>
        <time>2022-07-19T18:44:17Z</time>
      </trkpt>
      <trkpt lat="44.8061" lon="6.56612">
        <ele>1122.8</ele>
        <time>2022-07-19T18:44:18Z</time>
      </trkpt>
      <trkpt lat="44.80609" lon="6.56613">
        <ele>1123.2</ele>
        <time>2022-07-19T18:44:19Z</time>
      </trkpt>
      <trkpt lat="44.80607" lon="6.56613">
        <ele>1123.2</ele>
        <time>2022-07-19T18:44:20Z</time>
      </trkpt>
      <trkpt lat="44.80605" lon="6.56614">
        <ele>1123.6</ele>
        <time>2022-07-19T18:44:21Z</time>
      </trkpt>
      <trkpt lat="44.80603" lon="6.56614">
        <ele>1123.6</ele>
        <time>2022-07-19T18:44:22Z</time>
      </trkpt>
      <trkpt lat="44.80601" lon="6.56614">
        <ele>1123.6</ele>
        <time>2022-07-19T18:44:23Z</time>
      </trkpt>
      <trkpt lat="44.806" lon="6.56615">
        <ele>1124</ele>
        <time>2022-07-19T18:44:24Z</time>
      </trkpt>
      <trkpt lat="44.80598" lon="6.56615">
        <ele>1124</ele>
        <time>2022-07-19T18:44:25Z</time>
      </trkpt>
      <trkpt lat="44.80596" lon="6.56616">
        <ele>1124.2</ele>
        <time>2022-07-19T18:44:26Z</time>
      </trkpt>
      <trkpt lat="44.80594" lon="6.56617">
        <ele>1124.6</ele>
        <time>2022-07-19T18:44:27Z</time>
      </trkpt>
      <trkpt lat="44.80593" lon="6.56618">
        <ele>1124.8</ele>
        <time>2022-07-19T18:44:28Z</time>
      </trkpt>
      <trkpt lat="44.80591" lon="6.56618">
        <ele>1124.8</ele>
        <time>2022-07-19T18:44:29Z</time>
      </trkpt>
      <trkpt lat="44.80589" lon="6.56619">
        <ele>1125</ele>
        <time>2022-07-19T18:44:30Z</time>
      </trkpt>
      <trkpt lat="44.80588" lon="6.5662">
        <ele>1125.2</ele>
        <time>2022-07-19T18:44:31Z</time>
      </trkpt>
      <trkpt lat="44.80586" lon="6.56621">
        <ele>1125.2</ele>
        <time>2022-07-19T18:44:32Z</time>
      </trkpt>
      <trkpt lat="44.80584" lon="6.56622">
        <ele>1125.2</ele>
        <time>2022-07-19T18:44:33Z</time>
      </trkpt>
      <trkpt lat="44.80583" lon="6.56624">
        <ele>1125.4</ele>
        <time>2022-07-19T18:44:34Z</time>
      </trkpt>
      <trkpt lat="44.80581" lon="6.56625">
        <ele>1125.4</ele>
        <time>2022-07-19T18:44:35Z</time>
      </trkpt>
      <trkpt lat="44.80579" lon="6.56626">
        <ele>1125.4</ele>
        <time>2022-07-19T18:44:36Z</time>
      </trkpt>
      <trkpt lat="44.80578" lon="6.56627">
        <ele>1125.4</ele>
        <time>2022-07-19T18:44:37Z</time>
      </trkpt>
      <trkpt lat="44.80576" lon="6.56628">
        <ele>1125.2</ele>
        <time>2022-07-19T18:44:38Z</time>
      </trkpt>
      <trkpt lat="44.80575" lon="6.5663">
        <ele>1125.2</ele>
        <time>2022-07-19T18:44:39Z</time>
      </trkpt>
      <trkpt lat="44.80574" lon="6.56631">
        <ele>1124.8</ele>
        <time>2022-07-19T18:44:40Z</time>
      </trkpt>
      <trkpt lat="44.80572" lon="6.56632">
        <ele>1124.8</ele>
        <time>2022-07-19T18:44:41Z</time>
      </trkpt>
      <trkpt lat="44.80571" lon="6.56633">
        <ele>1124.8</ele>
        <time>2022-07-19T18:44:42Z</time>
      </trkpt>
      <trkpt lat="44.80569" lon="6.56635">
        <ele>1125.2</ele>
        <time>2022-07-19T18:44:43Z</time>
      </trkpt>
      <trkpt lat="44.80568" lon="6.56636">
        <ele>1125.2</ele>
        <time>2022-07-19T18:44:44Z</time>
      </trkpt>
      <trkpt lat="44.80566" lon="6.56637">
        <ele>1125.4</ele>
        <time>2022-07-19T18:44:45Z</time>
      </trkpt>
      <trkpt lat="44.80565" lon="6.56639">
        <ele>1125.4</ele>
        <time>2022-07-19T18:44:46Z</time>
      </trkpt>
      <trkpt lat="44.80564" lon="6.56641">
        <ele>1125.8</ele>
        <time>2022-07-19T18:44:47Z</time>
      </trkpt>
      <trkpt lat="44.80562" lon="6.56642">
        <ele>1125.8</ele>
        <time>2022-07-19T18:44:48Z</time>
      </trkpt>
      <trkpt lat="44.80561" lon="6.56644">
        <ele>1126</ele>
        <time>2022-07-19T18:44:49Z</time>
      </trkpt>
      <trkpt lat="44.8056" lon="6.56646">
        <ele>1126</ele>
        <time>2022-07-19T18:44:50Z</time>
      </trkpt>
      <trkpt lat="44.80558" lon="6.56648">
        <ele>1126</ele>
        <time>2022-07-19T18:44:51Z</time>
      </trkpt>
      <trkpt lat="44.80557" lon="6.5665">
        <ele>1126.4</ele>
        <time>2022-07-19T18:44:52Z</time>
      </trkpt>
      <trkpt lat="44.80556" lon="6.56652">
        <ele>1126.4</ele>
        <time>2022-07-19T18:44:53Z</time>
      </trkpt>
      <trkpt lat="44.80554" lon="6.56655">
        <ele>1127</ele>
        <time>2022-07-19T18:44:54Z</time>
      </trkpt>
      <trkpt lat="44.80553" lon="6.56657">
        <ele>1127.2</ele>
        <time>2022-07-19T18:44:55Z</time>
      </trkpt>
      <trkpt lat="44.80552" lon="6.56659">
        <ele>1127.2</ele>
        <time>2022-07-19T18:44:56Z</time>
      </trkpt>
      <trkpt lat="44.8055" lon="6.56662">
        <ele>1127.6</ele>
        <time>2022-07-19T18:44:57Z</time>
      </trkpt>
      <trkpt lat="44.80549" lon="6.56664">
        <ele>1127.6</ele>
        <time>2022-07-19T18:44:58Z</time>
      </trkpt>
      <trkpt lat="44.80548" lon="6.56666">
        <ele>1127.8</ele>
        <time>2022-07-19T18:44:59Z</time>
      </trkpt>
      <trkpt lat="44.80547" lon="6.56668">
        <ele>1127.8</ele>
        <time>2022-07-19T18:45:00Z</time>
      </trkpt>
      <trkpt lat="44.80545" lon="6.5667">
        <ele>1128.2</ele>
        <time>2022-07-19T18:45:01Z</time>
      </trkpt>
      <trkpt lat="44.80544" lon="6.56673">
        <ele>1128.2</ele>
        <time>2022-07-19T18:45:02Z</time>
      </trkpt>
      <trkpt lat="44.80543" lon="6.56675">
        <ele>1128.6</ele>
        <time>2022-07-19T18:45:03Z</time>
      </trkpt>
      <trkpt lat="44.80542" lon="6.56677">
        <ele>1128.8</ele>
        <time>2022-07-19T18:45:04Z</time>
      </trkpt>
      <trkpt lat="44.80541" lon="6.56679">
        <ele>1128.8</ele>
        <time>2022-07-19T18:45:05Z</time>
      </trkpt>
      <trkpt lat="44.80539" lon="6.56681">
        <ele>1129</ele>
        <time>2022-07-19T18:45:06Z</time>
      </trkpt>
      <trkpt lat="44.80538" lon="6.56683">
        <ele>1129.2</ele>
        <time>2022-07-19T18:45:07Z</time>
      </trkpt>
      <trkpt lat="44.80537" lon="6.56685">
        <ele>1129.6</ele>
        <time>2022-07-19T18:45:08Z</time>
      </trkpt>
      <trkpt lat="44.80536" lon="6.56687">
        <ele>1130</ele>
        <time>2022-07-19T18:45:09Z</time>
      </trkpt>
      <trkpt lat="44.80534" lon="6.56689">
        <ele>1130.2</ele>
        <time>2022-07-19T18:45:10Z</time>
      </trkpt>
      <trkpt lat="44.80533" lon="6.56691">
        <ele>1130.6</ele>
        <time>2022-07-19T18:45:11Z</time>
      </trkpt>
      <trkpt lat="44.80532" lon="6.56693">
        <ele>1130.6</ele>
        <time>2022-07-19T18:45:12Z</time>
      </trkpt>
      <trkpt lat="44.80531" lon="6.56695">
        <ele>1130.8</ele>
        <time>2022-07-19T18:45:13Z</time>
      </trkpt>
      <trkpt lat="44.80529" lon="6.56697">
        <ele>1130.8</ele>
        <time>2022-07-19T18:45:14Z</time>
      </trkpt>
      <trkpt lat="44.80528" lon="6.56699">
        <ele>1130.8</ele>
        <time>2022-07-19T18:45:15Z</time>
      </trkpt>
      <trkpt lat="44.80527" lon="6.56701">
        <ele>1131</ele>
        <time>2022-07-19T18:45:16Z</time>
      </trkpt>
      <trkpt lat="44.80525" lon="6.56704">
        <ele>1131</ele>
        <time>2022-07-19T18:45:17Z</time>
      </trkpt>
      <trkpt lat="44.80524" lon="6.56706">
        <ele>1131.2</ele>
        <time>2022-07-19T18:45:18Z</time>
      </trkpt>
      <trkpt lat="44.80523" lon="6.56708">
        <ele>1131.2</ele>
        <time>2022-07-19T18:45:19Z</time>
      </trkpt>
      <trkpt lat="44.80521" lon="6.5671">
        <ele>1131.6</ele>
        <time>2022-07-19T18:45:20Z</time>
      </trkpt>
      <trkpt lat="44.8052" lon="6.56712">
        <ele>1131.6</ele>
        <time>2022-07-19T18:45:21Z</time>
      </trkpt>
      <trkpt lat="44.80519" lon="6.56714">
        <ele>1131.8</ele>
        <time>2022-07-19T18:45:22Z</time>
      </trkpt>
      <trkpt lat="44.80517" lon="6.56716">
        <ele>1131.8</ele>
        <time>2022-07-19T18:45:23Z</time>
      </trkpt>
      <trkpt lat="44.80515" lon="6.56717">
        <ele>1131.8</ele>
        <time>2022-07-19T18:45:24Z</time>
      </trkpt>
      <trkpt lat="44.80514" lon="6.56719">
        <ele>1131.8</ele>
        <time>2022-07-19T18:45:25Z</time>
      </trkpt>
      <trkpt lat="44.80512" lon="6.5672">
        <ele>1131.8</ele>
        <time>2022-07-19T18:45:26Z</time>
      </trkpt>
      <trkpt lat="44.8051" lon="6.56722">
        <ele>1132</ele>
        <time>2022-07-19T18:45:27Z</time>
      </trkpt>
      <trkpt lat="44.80508" lon="6.56723">
        <ele>1132</ele>
        <time>2022-07-19T18:45:28Z</time>
      </trkpt>
      <trkpt lat="44.80507" lon="6.56725">
        <ele>1132.2</ele>
        <time>2022-07-19T18:45:29Z</time>
      </trkpt>
      <trkpt lat="44.80505" lon="6.56726">
        <ele>1132.2</ele>
        <time>2022-07-19T18:45:30Z</time>
      </trkpt>
      <trkpt lat="44.80503" lon="6.56727">
        <ele>1132.6</ele>
        <time>2022-07-19T18:45:31Z</time>
      </trkpt>
      <trkpt lat="44.80501" lon="6.56728">
        <ele>1132.6</ele>
        <time>2022-07-19T18:45:32Z</time>
      </trkpt>
      <trkpt lat="44.80499" lon="6.56729">
        <ele>1132.8</ele>
        <time>2022-07-19T18:45:33Z</time>
      </trkpt>
      <trkpt lat="44.80497" lon="6.56731">
        <ele>1133.2</ele>
        <time>2022-07-19T18:45:34Z</time>
      </trkpt>
      <trkpt lat="44.80495" lon="6.56732">
        <ele>1133.4</ele>
        <time>2022-07-19T18:45:35Z</time>
      </trkpt>
      <trkpt lat="44.80493" lon="6.56733">
        <ele>1133.6</ele>
        <time>2022-07-19T18:45:36Z</time>
      </trkpt>
      <trkpt lat="44.80492" lon="6.56734">
        <ele>1133.8</ele>
        <time>2022-07-19T18:45:37Z</time>
      </trkpt>
      <trkpt lat="44.8049" lon="6.56735">
        <ele>1134.2</ele>
        <time>2022-07-19T18:45:38Z</time>
      </trkpt>
      <trkpt lat="44.80488" lon="6.56736">
        <ele>1134.4</ele>
        <time>2022-07-19T18:45:39Z</time>
      </trkpt>
      <trkpt lat="44.80486" lon="6.56736">
        <ele>1134.4</ele>
        <time>2022-07-19T18:45:40Z</time>
      </trkpt>
      <trkpt lat="44.80484" lon="6.56737">
        <ele>1134.6</ele>
        <time>2022-07-19T18:45:41Z</time>
      </trkpt>
      <trkpt lat="44.80482" lon="6.56738">
        <ele>1134.6</ele>
        <time>2022-07-19T18:45:42Z</time>
      </trkpt>
      <trkpt lat="44.80481" lon="6.56738">
        <ele>1134.8</ele>
        <time>2022-07-19T18:45:43Z</time>
      </trkpt>
      <trkpt lat="44.80479" lon="6.56739">
        <ele>1134.8</ele>
        <time>2022-07-19T18:45:44Z</time>
      </trkpt>
      <trkpt lat="44.80477" lon="6.5674">
        <ele>1134.8</ele>
        <time>2022-07-19T18:45:45Z</time>
      </trkpt>
      <trkpt lat="44.80475" lon="6.5674">
        <ele>1134.8</ele>
        <time>2022-07-19T18:45:46Z</time>
      </trkpt>
      <trkpt lat="44.80473" lon="6.56741">
        <ele>1134.8</ele>
        <time>2022-07-19T18:45:47Z</time>
      </trkpt>
      <trkpt lat="44.80471" lon="6.56741">
        <ele>1135</ele>
        <time>2022-07-19T18:45:48Z</time>
      </trkpt>
      <trkpt lat="44.8047" lon="6.56742">
        <ele>1135</ele>
        <time>2022-07-19T18:45:49Z</time>
      </trkpt>
      <trkpt lat="44.80468" lon="6.56742">
        <ele>1135</ele>
        <time>2022-07-19T18:45:50Z</time>
      </trkpt>
      <trkpt lat="44.80466" lon="6.56743">
        <ele>1135.4</ele>
        <time>2022-07-19T18:45:51Z</time>
      </trkpt>
      <trkpt lat="44.80464" lon="6.56743">
        <ele>1135.4</ele>
        <time>2022-07-19T18:45:52Z</time>
      </trkpt>
      <trkpt lat="44.80462" lon="6.56744">
        <ele>1135.8</ele>
        <time>2022-07-19T18:45:53Z</time>
      </trkpt>
      <trkpt lat="44.8046" lon="6.56744">
        <ele>1135.8</ele>
        <time>2022-07-19T18:45:54Z</time>
      </trkpt>
      <trkpt lat="44.80458" lon="6.56745">
        <ele>1136.2</ele>
        <time>2022-07-19T18:45:55Z</time>
      </trkpt>
      <trkpt lat="44.80457" lon="6.56745">
        <ele>1136.2</ele>
        <time>2022-07-19T18:45:56Z</time>
      </trkpt>
      <trkpt lat="44.80455" lon="6.56745">
        <ele>1136.6</ele>
        <time>2022-07-19T18:45:57Z</time>
      </trkpt>
      <trkpt lat="44.80453" lon="6.56746">
        <ele>1136.8</ele>
        <time>2022-07-19T18:45:58Z</time>
      </trkpt>
      <trkpt lat="44.80451" lon="6.56747">
        <ele>1137</ele>
        <time>2022-07-19T18:45:59Z</time>
      </trkpt>
      <trkpt lat="44.80449" lon="6.56747">
        <ele>1137</ele>
        <time>2022-07-19T18:46:00Z</time>
      </trkpt>
      <trkpt lat="44.80447" lon="6.56748">
        <ele>1137.4</ele>
        <time>2022-07-19T18:46:01Z</time>
      </trkpt>
      <trkpt lat="44.80445" lon="6.56748">
        <ele>1137.6</ele>
        <time>2022-07-19T18:46:02Z</time>
      </trkpt>
      <trkpt lat="44.80444" lon="6.56749">
        <ele>1137.6</ele>
        <time>2022-07-19T18:46:03Z</time>
      </trkpt>
      <trkpt lat="44.80442" lon="6.56749">
        <ele>1138</ele>
        <time>2022-07-19T18:46:04Z</time>
      </trkpt>
      <trkpt lat="44.8044" lon="6.5675">
        <ele>1138</ele>
        <time>2022-07-19T18:46:05Z</time>
      </trkpt>
      <trkpt lat="44.80438" lon="6.5675">
        <ele>1138.2</ele>
        <time>2022-07-19T18:46:06Z</time>
      </trkpt>
      <trkpt lat="44.80436" lon="6.5675">
        <ele>1138.2</ele>
        <time>2022-07-19T18:46:07Z</time>
      </trkpt>
      <trkpt lat="44.80435" lon="6.5675">
        <ele>1138.2</ele>
        <time>2022-07-19T18:46:08Z</time>
      </trkpt>
      <trkpt lat="44.80433" lon="6.56751">
        <ele>1138.2</ele>
        <time>2022-07-19T18:46:09Z</time>
      </trkpt>
      <trkpt lat="44.80431" lon="6.56751">
        <ele>1138.4</ele>
        <time>2022-07-19T18:46:10Z</time>
      </trkpt>
      <trkpt lat="44.80429" lon="6.56752">
        <ele>1138.4</ele>
        <time>2022-07-19T18:46:11Z</time>
      </trkpt>
      <trkpt lat="44.80427" lon="6.56752">
        <ele>1138.4</ele>
        <time>2022-07-19T18:46:12Z</time>
      </trkpt>
      <trkpt lat="44.80425" lon="6.56753">
        <ele>1138.4</ele>
        <time>2022-07-19T18:46:13Z</time>
      </trkpt>
      <trkpt lat="44.80424" lon="6.56753">
        <ele>1138.6</ele>
        <time>2022-07-19T18:46:14Z</time>
      </trkpt>
      <trkpt lat="44.80422" lon="6.56754">
        <ele>1138.6</ele>
        <time>2022-07-19T18:46:15Z</time>
      </trkpt>
      <trkpt lat="44.8042" lon="6.56754">
        <ele>1138.6</ele>
        <time>2022-07-19T18:46:16Z</time>
      </trkpt>
      <trkpt lat="44.80418" lon="6.56755">
        <ele>1139</ele>
        <time>2022-07-19T18:46:17Z</time>
      </trkpt>
      <trkpt lat="44.80416" lon="6.56755">
        <ele>1139</ele>
        <time>2022-07-19T18:46:18Z</time>
      </trkpt>
      <trkpt lat="44.80414" lon="6.56755">
        <ele>1139.2</ele>
        <time>2022-07-19T18:46:19Z</time>
      </trkpt>
      <trkpt lat="44.80412" lon="6.56756">
        <ele>1139.2</ele>
        <time>2022-07-19T18:46:20Z</time>
      </trkpt>
      <trkpt lat="44.8041" lon="6.56756">
        <ele>1139.4</ele>
        <time>2022-07-19T18:46:21Z</time>
      </trkpt>
      <trkpt lat="44.80408" lon="6.56756">
        <ele>1139.4</ele>
        <time>2022-07-19T18:46:22Z</time>
      </trkpt>
      <trkpt lat="44.80406" lon="6.56757">
        <ele>1140</ele>
        <time>2022-07-19T18:46:23Z</time>
      </trkpt>
      <trkpt lat="44.80405" lon="6.56757">
        <ele>1140.2</ele>
        <time>2022-07-19T18:46:24Z</time>
      </trkpt>
      <trkpt lat="44.80403" lon="6.56758">
        <ele>1140.4</ele>
        <time>2022-07-19T18:46:25Z</time>
      </trkpt>
      <trkpt lat="44.80401" lon="6.56758">
        <ele>1140.4</ele>
        <time>2022-07-19T18:46:26Z</time>
      </trkpt>
      <trkpt lat="44.80399" lon="6.56758">
        <ele>1140.6</ele>
        <time>2022-07-19T18:46:27Z</time>
      </trkpt>
      <trkpt lat="44.80397" lon="6.56758">
        <ele>1140.6</ele>
        <time>2022-07-19T18:46:28Z</time>
      </trkpt>
      <trkpt lat="44.80395" lon="6.56759">
        <ele>1140.6</ele>
        <time>2022-07-19T18:46:29Z</time>
      </trkpt>
      <trkpt lat="44.80393" lon="6.56759">
        <ele>1141</ele>
        <time>2022-07-19T18:46:30Z</time>
      </trkpt>
      <trkpt lat="44.80391" lon="6.5676">
        <ele>1141.2</ele>
        <time>2022-07-19T18:46:31Z</time>
      </trkpt>
      <trkpt lat="44.80389" lon="6.5676">
        <ele>1141.4</ele>
        <time>2022-07-19T18:46:32Z</time>
      </trkpt>
      <trkpt lat="44.80388" lon="6.5676">
        <ele>1141.6</ele>
        <time>2022-07-19T18:46:33Z</time>
      </trkpt>
      <trkpt lat="44.80386" lon="6.56761">
        <ele>1141.6</ele>
        <time>2022-07-19T18:46:34Z</time>
      </trkpt>
      <trkpt lat="44.80384" lon="6.56761">
        <ele>1142</ele>
        <time>2022-07-19T18:46:35Z</time>
      </trkpt>
      <trkpt lat="44.80382" lon="6.56762">
        <ele>1142</ele>
        <time>2022-07-19T18:46:36Z</time>
      </trkpt>
      <trkpt lat="44.8038" lon="6.56762">
        <ele>1142.2</ele>
        <time>2022-07-19T18:46:37Z</time>
      </trkpt>
      <trkpt lat="44.80378" lon="6.56763">
        <ele>1142.2</ele>
        <time>2022-07-19T18:46:38Z</time>
      </trkpt>
      <trkpt lat="44.80376" lon="6.56763">
        <ele>1142.6</ele>
        <time>2022-07-19T18:46:39Z</time>
      </trkpt>
      <trkpt lat="44.80374" lon="6.56763">
        <ele>1142.8</ele>
        <time>2022-07-19T18:46:40Z</time>
      </trkpt>
      <trkpt lat="44.80372" lon="6.56764">
        <ele>1143.2</ele>
        <time>2022-07-19T18:46:41Z</time>
      </trkpt>
      <trkpt lat="44.8037" lon="6.56764">
        <ele>1143.2</ele>
        <time>2022-07-19T18:46:42Z</time>
      </trkpt>
      <trkpt lat="44.80368" lon="6.56764">
        <ele>1143.4</ele>
        <time>2022-07-19T18:46:43Z</time>
      </trkpt>
      <trkpt lat="44.80366" lon="6.56765">
        <ele>1143.4</ele>
        <time>2022-07-19T18:46:44Z</time>
      </trkpt>
      <trkpt lat="44.80365" lon="6.56765">
        <ele>1143.4</ele>
        <time>2022-07-19T18:46:45Z</time>
      </trkpt>
      <trkpt lat="44.80363" lon="6.56765">
        <ele>1143.4</ele>
        <time>2022-07-19T18:46:46Z</time>
      </trkpt>
      <trkpt lat="44.80361" lon="6.56766">
        <ele>1143.6</ele>
        <time>2022-07-19T18:46:47Z</time>
      </trkpt>
      <trkpt lat="44.80359" lon="6.56766">
        <ele>1143.6</ele>
        <time>2022-07-19T18:46:48Z</time>
      </trkpt>
      <trkpt lat="44.80357" lon="6.56766">
        <ele>1144</ele>
        <time>2022-07-19T18:46:49Z</time>
      </trkpt>
      <trkpt lat="44.80356" lon="6.56767">
        <ele>1144.2</ele>
        <time>2022-07-19T18:46:50Z</time>
      </trkpt>
      <trkpt lat="44.80354" lon="6.56768">
        <ele>1144.2</ele>
        <time>2022-07-19T18:46:51Z</time>
      </trkpt>
      <trkpt lat="44.80352" lon="6.56769">
        <ele>1144.2</ele>
        <time>2022-07-19T18:46:52Z</time>
      </trkpt>
      <trkpt lat="44.80351" lon="6.56769">
        <ele>1144.4</ele>
        <time>2022-07-19T18:46:53Z</time>
      </trkpt>
      <trkpt lat="44.80349" lon="6.5677">
        <ele>1144.4</ele>
        <time>2022-07-19T18:46:54Z</time>
      </trkpt>
      <trkpt lat="44.80347" lon="6.5677">
        <ele>1144.4</ele>
        <time>2022-07-19T18:46:55Z</time>
      </trkpt>
      <trkpt lat="44.80345" lon="6.56771">
        <ele>1144.4</ele>
        <time>2022-07-19T18:46:56Z</time>
      </trkpt>
      <trkpt lat="44.80344" lon="6.56772">
        <ele>1144.4</ele>
        <time>2022-07-19T18:46:57Z</time>
      </trkpt>
      <trkpt lat="44.80342" lon="6.56773">
        <ele>1144.4</ele>
        <time>2022-07-19T18:46:58Z</time>
      </trkpt>
      <trkpt lat="44.80341" lon="6.56774">
        <ele>1144.4</ele>
        <time>2022-07-19T18:46:59Z</time>
      </trkpt>
      <trkpt lat="44.80339" lon="6.56776">
        <ele>1144.4</ele>
        <time>2022-07-19T18:47:00Z</time>
      </trkpt>
      <trkpt lat="44.80338" lon="6.56778">
        <ele>1144.4</ele>
        <time>2022-07-19T18:47:01Z</time>
      </trkpt>
      <trkpt lat="44.80337" lon="6.56781">
        <ele>1144.6</ele>
        <time>2022-07-19T18:47:02Z</time>
      </trkpt>
      <trkpt lat="44.80337" lon="6.56784">
        <ele>1144.6</ele>
        <time>2022-07-19T18:47:03Z</time>
      </trkpt>
      <trkpt lat="44.80336" lon="6.56787">
        <ele>1144.8</ele>
        <time>2022-07-19T18:47:04Z</time>
      </trkpt>
      <trkpt lat="44.80336" lon="6.5679">
        <ele>1145.2</ele>
        <time>2022-07-19T18:47:05Z</time>
      </trkpt>
      <trkpt lat="44.80336" lon="6.56793">
        <ele>1145.4</ele>
        <time>2022-07-19T18:47:06Z</time>
      </trkpt>
      <trkpt lat="44.80336" lon="6.56796">
        <ele>1145.4</ele>
        <time>2022-07-19T18:47:07Z</time>
      </trkpt>
      <trkpt lat="44.80335" lon="6.56799">
        <ele>1145.2</ele>
        <time>2022-07-19T18:47:08Z</time>
      </trkpt>
      <trkpt lat="44.80336" lon="6.56802">
        <ele>1145.2</ele>
        <time>2022-07-19T18:47:09Z</time>
      </trkpt>
      <trkpt lat="44.80336" lon="6.56805">
        <ele>1145.4</ele>
        <time>2022-07-19T18:47:10Z</time>
      </trkpt>
      <trkpt lat="44.80337" lon="6.56808">
        <ele>1145.8</ele>
        <time>2022-07-19T18:47:11Z</time>
      </trkpt>
      <trkpt lat="44.80338" lon="6.5681">
        <ele>1146</ele>
        <time>2022-07-19T18:47:12Z</time>
      </trkpt>
      <trkpt lat="44.80339" lon="6.56813">
        <ele>1146.4</ele>
        <time>2022-07-19T18:47:13Z</time>
      </trkpt>
      <trkpt lat="44.8034" lon="6.56815">
        <ele>1146.4</ele>
        <time>2022-07-19T18:47:14Z</time>
      </trkpt>
      <trkpt lat="44.80342" lon="6.56817">
        <ele>1146.4</ele>
        <time>2022-07-19T18:47:15Z</time>
      </trkpt>
      <trkpt lat="44.80344" lon="6.56819">
        <ele>1146.6</ele>
        <time>2022-07-19T18:47:16Z</time>
      </trkpt>
      <trkpt lat="44.80345" lon="6.56821">
        <ele>1146.6</ele>
        <time>2022-07-19T18:47:17Z</time>
      </trkpt>
      <trkpt lat="44.80347" lon="6.56822">
        <ele>1146.8</ele>
        <time>2022-07-19T18:47:18Z</time>
      </trkpt>
      <trkpt lat="44.80349" lon="6.56823">
        <ele>1146.8</ele>
        <time>2022-07-19T18:47:19Z</time>
      </trkpt>
      <trkpt lat="44.80351" lon="6.56824">
        <ele>1146.8</ele>
        <time>2022-07-19T18:47:20Z</time>
      </trkpt>
      <trkpt lat="44.80353" lon="6.56825">
        <ele>1147.2</ele>
        <time>2022-07-19T18:47:21Z</time>
      </trkpt>
      <trkpt lat="44.80355" lon="6.56826">
        <ele>1147.2</ele>
        <time>2022-07-19T18:47:22Z</time>
      </trkpt>
      <trkpt lat="44.80357" lon="6.56826">
        <ele>1147.2</ele>
        <time>2022-07-19T18:47:23Z</time>
      </trkpt>
      <trkpt lat="44.8036" lon="6.56826">
        <ele>1147.4</ele>
        <time>2022-07-19T18:47:24Z</time>
      </trkpt>
      <trkpt lat="44.80362" lon="6.56825">
        <ele>1147.4</ele>
        <time>2022-07-19T18:47:25Z</time>
      </trkpt>
      <trkpt lat="44.80364" lon="6.56825">
        <ele>1147.4</ele>
        <time>2022-07-19T18:47:26Z</time>
      </trkpt>
      <trkpt lat="44.80367" lon="6.56824">
        <ele>1147.6</ele>
        <time>2022-07-19T18:47:27Z</time>
      </trkpt>
      <trkpt lat="44.80369" lon="6.56823">
        <ele>1147.8</ele>
        <time>2022-07-19T18:47:28Z</time>
      </trkpt>
      <trkpt lat="44.80372" lon="6.56822">
        <ele>1147.8</ele>
        <time>2022-07-19T18:47:29Z</time>
      </trkpt>
      <trkpt lat="44.80375" lon="6.5682">
        <ele>1147.8</ele>
        <time>2022-07-19T18:47:30Z</time>
      </trkpt>
      <trkpt lat="44.80377" lon="6.56818">
        <ele>1147.8</ele>
        <time>2022-07-19T18:47:31Z</time>
      </trkpt>
      <trkpt lat="44.8038" lon="6.56816">
        <ele>1147.8</ele>
        <time>2022-07-19T18:47:32Z</time>
      </trkpt>
      <trkpt lat="44.80382" lon="6.56814">
        <ele>1147.8</ele>
        <time>2022-07-19T18:47:33Z</time>
      </trkpt>
      <trkpt lat="44.80385" lon="6.56812">
        <ele>1148.2</ele>
        <time>2022-07-19T18:47:34Z</time>
      </trkpt>
      <trkpt lat="44.80388" lon="6.56809">
        <ele>1148.2</ele>
        <time>2022-07-19T18:47:35Z</time>
      </trkpt>
      <trkpt lat="44.80391" lon="6.56807">
        <ele>1148.2</ele>
        <time>2022-07-19T18:47:36Z</time>
      </trkpt>
      <trkpt lat="44.80393" lon="6.56805">
        <ele>1148.2</ele>
        <time>2022-07-19T18:47:37Z</time>
      </trkpt>
      <trkpt lat="44.80396" lon="6.56803">
        <ele>1148.2</ele>
        <time>2022-07-19T18:47:38Z</time>
      </trkpt>
      <trkpt lat="44.80399" lon="6.56801">
        <ele>1148.4</ele>
        <time>2022-07-19T18:47:39Z</time>
      </trkpt>
      <trkpt lat="44.80401" lon="6.56799">
        <ele>1148.4</ele>
        <time>2022-07-19T18:47:40Z</time>
      </trkpt>
      <trkpt lat="44.80404" lon="6.56797">
        <ele>1148.4</ele>
        <time>2022-07-19T18:47:41Z</time>
      </trkpt>
      <trkpt lat="44.80406" lon="6.56796">
        <ele>1148.6</ele>
        <time>2022-07-19T18:47:42Z</time>
      </trkpt>
      <trkpt lat="44.80409" lon="6.56794">
        <ele>1148.8</ele>
        <time>2022-07-19T18:47:43Z</time>
      </trkpt>
      <trkpt lat="44.80411" lon="6.56793">
        <ele>1149.2</ele>
        <time>2022-07-19T18:47:44Z</time>
      </trkpt>
      <trkpt lat="44.80413" lon="6.56792">
        <ele>1149.2</ele>
        <time>2022-07-19T18:47:45Z</time>
      </trkpt>
      <trkpt lat="44.80416" lon="6.56791">
        <ele>1149.4</ele>
        <time>2022-07-19T18:47:46Z</time>
      </trkpt>
      <trkpt lat="44.80418" lon="6.5679">
        <ele>1149.4</ele>
        <time>2022-07-19T18:47:47Z</time>
      </trkpt>
      <trkpt lat="44.80421" lon="6.56789">
        <ele>1149.8</ele>
        <time>2022-07-19T18:47:48Z</time>
      </trkpt>
      <trkpt lat="44.80423" lon="6.56788">
        <ele>1149.8</ele>
        <time>2022-07-19T18:47:49Z</time>
      </trkpt>
      <trkpt lat="44.80426" lon="6.56787">
        <ele>1150</ele>
        <time>2022-07-19T18:47:50Z</time>
      </trkpt>
      <trkpt lat="44.80428" lon="6.56786">
        <ele>1150</ele>
        <time>2022-07-19T18:47:51Z</time>
      </trkpt>
      <trkpt lat="44.80431" lon="6.56785">
        <ele>1150.2</ele>
        <time>2022-07-19T18:47:52Z</time>
      </trkpt>
      <trkpt lat="44.80433" lon="6.56785">
        <ele>1150.2</ele>
        <time>2022-07-19T18:47:53Z</time>
      </trkpt>
      <trkpt lat="44.80436" lon="6.56784">
        <ele>1150.6</ele>
        <time>2022-07-19T18:47:54Z</time>
      </trkpt>
      <trkpt lat="44.80438" lon="6.56783">
        <ele>1150.6</ele>
        <time>2022-07-19T18:47:55Z</time>
      </trkpt>
      <trkpt lat="44.80441" lon="6.56782">
        <ele>1150.8</ele>
        <time>2022-07-19T18:47:56Z</time>
      </trkpt>
      <trkpt lat="44.80443" lon="6.56782">
        <ele>1150.8</ele>
        <time>2022-07-19T18:47:57Z</time>
      </trkpt>
      <trkpt lat="44.80446" lon="6.56781">
        <ele>1151.2</ele>
        <time>2022-07-19T18:47:58Z</time>
      </trkpt>
      <trkpt lat="44.80448" lon="6.5678">
        <ele>1151.4</ele>
        <time>2022-07-19T18:47:59Z</time>
      </trkpt>
      <trkpt lat="44.80451" lon="6.5678">
        <ele>1151.4</ele>
        <time>2022-07-19T18:48:00Z</time>
      </trkpt>
      <trkpt lat="44.80454" lon="6.56779">
        <ele>1151.6</ele>
        <time>2022-07-19T18:48:01Z</time>
      </trkpt>
      <trkpt lat="44.80456" lon="6.56779">
        <ele>1151.6</ele>
        <time>2022-07-19T18:48:02Z</time>
      </trkpt>
      <trkpt lat="44.80459" lon="6.56778">
        <ele>1151.6</ele>
        <time>2022-07-19T18:48:03Z</time>
      </trkpt>
      <trkpt lat="44.80461" lon="6.56778">
        <ele>1152</ele>
        <time>2022-07-19T18:48:04Z</time>
      </trkpt>
      <trkpt lat="44.80463" lon="6.56778">
        <ele>1152</ele>
        <time>2022-07-19T18:48:05Z</time>
      </trkpt>
      <trkpt lat="44.80466" lon="6.56777">
        <ele>1152.2</ele>
        <time>2022-07-19T18:48:06Z</time>
      </trkpt>
      <trkpt lat="44.80468" lon="6.56777">
        <ele>1152.2</ele>
        <time>2022-07-19T18:48:07Z</time>
      </trkpt>
      <trkpt lat="44.80471" lon="6.56777">
        <ele>1152.2</ele>
        <time>2022-07-19T18:48:08Z</time>
      </trkpt>
      <trkpt lat="44.80473" lon="6.56776">
        <ele>1152.4</ele>
        <time>2022-07-19T18:48:09Z</time>
      </trkpt>
      <trkpt lat="44.80475" lon="6.56776">
        <ele>1152.4</ele>
        <time>2022-07-19T18:48:10Z</time>
      </trkpt>
      <trkpt lat="44.80478" lon="6.56776">
        <ele>1152.8</ele>
        <time>2022-07-19T18:48:11Z</time>
      </trkpt>
      <trkpt lat="44.8048" lon="6.56775">
        <ele>1152.8</ele>
        <time>2022-07-19T18:48:12Z</time>
      </trkpt>
      <trkpt lat="44.80482" lon="6.56775">
        <ele>1152.8</ele>
        <time>2022-07-19T18:48:13Z</time>
      </trkpt>
      <trkpt lat="44.80484" lon="6.56775">
        <ele>1152.8</ele>
        <time>2022-07-19T18:48:14Z</time>
      </trkpt>
      <trkpt lat="44.80487" lon="6.56775">
        <ele>1153.2</ele>
        <time>2022-07-19T18:48:15Z</time>
      </trkpt>
      <trkpt lat="44.80489" lon="6.56775">
        <ele>1153.2</ele>
        <time>2022-07-19T18:48:16Z</time>
      </trkpt>
      <trkpt lat="44.80492" lon="6.56775">
        <ele>1153.4</ele>
        <time>2022-07-19T18:48:17Z</time>
      </trkpt>
      <trkpt lat="44.80494" lon="6.56775">
        <ele>1153.4</ele>
        <time>2022-07-19T18:48:18Z</time>
      </trkpt>
      <trkpt lat="44.80496" lon="6.56775">
        <ele>1153.6</ele>
        <time>2022-07-19T18:48:19Z</time>
      </trkpt>
      <trkpt lat="44.80499" lon="6.56775">
        <ele>1153.6</ele>
        <time>2022-07-19T18:48:20Z</time>
      </trkpt>
      <trkpt lat="44.80501" lon="6.56775">
        <ele>1153.8</ele>
        <time>2022-07-19T18:48:21Z</time>
      </trkpt>
      <trkpt lat="44.80503" lon="6.56775">
        <ele>1154.2</ele>
        <time>2022-07-19T18:48:22Z</time>
      </trkpt>
      <trkpt lat="44.80506" lon="6.56775">
        <ele>1154.2</ele>
        <time>2022-07-19T18:48:23Z</time>
      </trkpt>
      <trkpt lat="44.80508" lon="6.56775">
        <ele>1154.4</ele>
        <time>2022-07-19T18:48:24Z</time>
      </trkpt>
      <trkpt lat="44.8051" lon="6.56775">
        <ele>1154.8</ele>
        <time>2022-07-19T18:48:25Z</time>
      </trkpt>
      <trkpt lat="44.80513" lon="6.56776">
        <ele>1154.8</ele>
        <time>2022-07-19T18:48:26Z</time>
      </trkpt>
      <trkpt lat="44.80515" lon="6.56776">
        <ele>1154.8</ele>
        <time>2022-07-19T18:48:27Z</time>
      </trkpt>
      <trkpt lat="44.80517" lon="6.56777">
        <ele>1155</ele>
        <time>2022-07-19T18:48:28Z</time>
      </trkpt>
      <trkpt lat="44.8052" lon="6.56778">
        <ele>1155</ele>
        <time>2022-07-19T18:48:29Z</time>
      </trkpt>
      <trkpt lat="44.80522" lon="6.56779">
        <ele>1155</ele>
        <time>2022-07-19T18:48:30Z</time>
      </trkpt>
      <trkpt lat="44.80524" lon="6.56779">
        <ele>1155.4</ele>
        <time>2022-07-19T18:48:31Z</time>
      </trkpt>
      <trkpt lat="44.80526" lon="6.5678">
        <ele>1155.8</ele>
        <time>2022-07-19T18:48:32Z</time>
      </trkpt>
      <trkpt lat="44.80529" lon="6.56781">
        <ele>1156</ele>
        <time>2022-07-19T18:48:33Z</time>
      </trkpt>
      <trkpt lat="44.80531" lon="6.56782">
        <ele>1156.4</ele>
        <time>2022-07-19T18:48:34Z</time>
      </trkpt>
      <trkpt lat="44.80533" lon="6.56783">
        <ele>1156.8</ele>
        <time>2022-07-19T18:48:35Z</time>
      </trkpt>
      <trkpt lat="44.80535" lon="6.56784">
        <ele>1156.8</ele>
        <time>2022-07-19T18:48:36Z</time>
      </trkpt>
      <trkpt lat="44.80538" lon="6.56785">
        <ele>1157.2</ele>
        <time>2022-07-19T18:48:37Z</time>
      </trkpt>
      <trkpt lat="44.8054" lon="6.56786">
        <ele>1157.2</ele>
        <time>2022-07-19T18:48:38Z</time>
      </trkpt>
      <trkpt lat="44.80542" lon="6.56787">
        <ele>1157.4</ele>
        <time>2022-07-19T18:48:39Z</time>
      </trkpt>
      <trkpt lat="44.80544" lon="6.56789">
        <ele>1157.4</ele>
        <time>2022-07-19T18:48:40Z</time>
      </trkpt>
      <trkpt lat="44.80546" lon="6.5679">
        <ele>1157.4</ele>
        <time>2022-07-19T18:48:41Z</time>
      </trkpt>
      <trkpt lat="44.80548" lon="6.56792">
        <ele>1157.2</ele>
        <time>2022-07-19T18:48:42Z</time>
      </trkpt>
      <trkpt lat="44.8055" lon="6.56794">
        <ele>1157.2</ele>
        <time>2022-07-19T18:48:43Z</time>
      </trkpt>
      <trkpt lat="44.80553" lon="6.56796">
        <ele>1157</ele>
        <time>2022-07-19T18:48:44Z</time>
      </trkpt>
      <trkpt lat="44.80555" lon="6.56798">
        <ele>1157</ele>
        <time>2022-07-19T18:48:45Z</time>
      </trkpt>
      <trkpt lat="44.80557" lon="6.568">
        <ele>1157</ele>
        <time>2022-07-19T18:48:46Z</time>
      </trkpt>
      <trkpt lat="44.80559" lon="6.56802">
        <ele>1157</ele>
        <time>2022-07-19T18:48:47Z</time>
      </trkpt>
      <trkpt lat="44.80561" lon="6.56804">
        <ele>1157</ele>
        <time>2022-07-19T18:48:48Z</time>
      </trkpt>
      <trkpt lat="44.80563" lon="6.56806">
        <ele>1156.6</ele>
        <time>2022-07-19T18:48:49Z</time>
      </trkpt>
      <trkpt lat="44.80565" lon="6.56808">
        <ele>1156.6</ele>
        <time>2022-07-19T18:48:50Z</time>
      </trkpt>
      <trkpt lat="44.80567" lon="6.5681">
        <ele>1156.6</ele>
        <time>2022-07-19T18:48:51Z</time>
      </trkpt>
      <trkpt lat="44.80569" lon="6.56812">
        <ele>1156.6</ele>
        <time>2022-07-19T18:48:52Z</time>
      </trkpt>
      <trkpt lat="44.80571" lon="6.56815">
        <ele>1156.6</ele>
        <time>2022-07-19T18:48:53Z</time>
      </trkpt>
      <trkpt lat="44.80573" lon="6.56817">
        <ele>1156.6</ele>
        <time>2022-07-19T18:48:54Z</time>
      </trkpt>
      <trkpt lat="44.80575" lon="6.56819">
        <ele>1157</ele>
        <time>2022-07-19T18:48:55Z</time>
      </trkpt>
      <trkpt lat="44.80576" lon="6.56822">
        <ele>1157</ele>
        <time>2022-07-19T18:48:56Z</time>
      </trkpt>
      <trkpt lat="44.80578" lon="6.56824">
        <ele>1157</ele>
        <time>2022-07-19T18:48:57Z</time>
      </trkpt>
      <trkpt lat="44.8058" lon="6.56826">
        <ele>1157</ele>
        <time>2022-07-19T18:48:58Z</time>
      </trkpt>
      <trkpt lat="44.80582" lon="6.56829">
        <ele>1157.4</ele>
        <time>2022-07-19T18:48:59Z</time>
      </trkpt>
      <trkpt lat="44.80584" lon="6.56831">
        <ele>1157.4</ele>
        <time>2022-07-19T18:49:00Z</time>
      </trkpt>
      <trkpt lat="44.80585" lon="6.56833">
        <ele>1158</ele>
        <time>2022-07-19T18:49:01Z</time>
      </trkpt>
      <trkpt lat="44.80587" lon="6.56835">
        <ele>1158</ele>
        <time>2022-07-19T18:49:02Z</time>
      </trkpt>
      <trkpt lat="44.80589" lon="6.56838">
        <ele>1158</ele>
        <time>2022-07-19T18:49:03Z</time>
      </trkpt>
      <trkpt lat="44.80591" lon="6.5684">
        <ele>1158.2</ele>
        <time>2022-07-19T18:49:04Z</time>
      </trkpt>
      <trkpt lat="44.80592" lon="6.56842">
        <ele>1158.2</ele>
        <time>2022-07-19T18:49:05Z</time>
      </trkpt>
      <trkpt lat="44.80594" lon="6.56845">
        <ele>1158.4</ele>
        <time>2022-07-19T18:49:06Z</time>
      </trkpt>
      <trkpt lat="44.80595" lon="6.56847">
        <ele>1158.4</ele>
        <time>2022-07-19T18:49:07Z</time>
      </trkpt>
      <trkpt lat="44.80597" lon="6.56849">
        <ele>1158.8</ele>
        <time>2022-07-19T18:49:08Z</time>
      </trkpt>
      <trkpt lat="44.80599" lon="6.56851">
        <ele>1158.8</ele>
        <time>2022-07-19T18:49:09Z</time>
      </trkpt>
      <trkpt lat="44.806" lon="6.56853">
        <ele>1158.8</ele>
        <time>2022-07-19T18:49:10Z</time>
      </trkpt>
      <trkpt lat="44.80602" lon="6.56855">
        <ele>1159.2</ele>
        <time>2022-07-19T18:49:11Z</time>
      </trkpt>
      <trkpt lat="44.80603" lon="6.56857">
        <ele>1159.2</ele>
        <time>2022-07-19T18:49:12Z</time>
      </trkpt>
      <trkpt lat="44.80605" lon="6.5686">
        <ele>1159.4</ele>
        <time>2022-07-19T18:49:13Z</time>
      </trkpt>
      <trkpt lat="44.80606" lon="6.56862">
        <ele>1159.4</ele>
        <time>2022-07-19T18:49:14Z</time>
      </trkpt>
      <trkpt lat="44.80608" lon="6.56864">
        <ele>1159.6</ele>
        <time>2022-07-19T18:49:15Z</time>
      </trkpt>
      <trkpt lat="44.80611" lon="6.56869">
        <ele>1159.8</ele>
        <time>2022-07-19T18:49:17Z</time>
      </trkpt>
      <trkpt lat="44.80613" lon="6.56871">
        <ele>1159.8</ele>
        <time>2022-07-19T18:49:18Z</time>
      </trkpt>
      <trkpt lat="44.80614" lon="6.56874">
        <ele>1159.8</ele>
        <time>2022-07-19T18:49:19Z</time>
      </trkpt>
      <trkpt lat="44.80616" lon="6.56876">
        <ele>1160.2</ele>
        <time>2022-07-19T18:49:20Z</time>
      </trkpt>
      <trkpt lat="44.80617" lon="6.56878">
        <ele>1160.2</ele>
        <time>2022-07-19T18:49:21Z</time>
      </trkpt>
      <trkpt lat="44.80619" lon="6.5688">
        <ele>1160.4</ele>
        <time>2022-07-19T18:49:22Z</time>
      </trkpt>
      <trkpt lat="44.8062" lon="6.56882">
        <ele>1160.6</ele>
        <time>2022-07-19T18:49:23Z</time>
      </trkpt>
      <trkpt lat="44.80622" lon="6.56884">
        <ele>1160.6</ele>
        <time>2022-07-19T18:49:24Z</time>
      </trkpt>
      <trkpt lat="44.80623" lon="6.56886">
        <ele>1160.6</ele>
        <time>2022-07-19T18:49:25Z</time>
      </trkpt>
      <trkpt lat="44.80625" lon="6.56888">
        <ele>1160.6</ele>
        <time>2022-07-19T18:49:26Z</time>
      </trkpt>
      <trkpt lat="44.80626" lon="6.56891">
        <ele>1161</ele>
        <time>2022-07-19T18:49:27Z</time>
      </trkpt>
      <trkpt lat="44.80628" lon="6.56893">
        <ele>1161.4</ele>
        <time>2022-07-19T18:49:28Z</time>
      </trkpt>
      <trkpt lat="44.80629" lon="6.56895">
        <ele>1161.4</ele>
        <time>2022-07-19T18:49:29Z</time>
      </trkpt>
      <trkpt lat="44.80631" lon="6.56897">
        <ele>1161.4</ele>
        <time>2022-07-19T18:49:30Z</time>
      </trkpt>
      <trkpt lat="44.80632" lon="6.56899">
        <ele>1161.6</ele>
        <time>2022-07-19T18:49:31Z</time>
      </trkpt>
      <trkpt lat="44.80633" lon="6.56901">
        <ele>1161.6</ele>
        <time>2022-07-19T18:49:32Z</time>
      </trkpt>
      <trkpt lat="44.80634" lon="6.56904">
        <ele>1161.8</ele>
        <time>2022-07-19T18:49:33Z</time>
      </trkpt>
      <trkpt lat="44.80636" lon="6.56906">
        <ele>1162</ele>
        <time>2022-07-19T18:49:34Z</time>
      </trkpt>
      <trkpt lat="44.80637" lon="6.56908">
        <ele>1162.4</ele>
        <time>2022-07-19T18:49:35Z</time>
      </trkpt>
      <trkpt lat="44.80638" lon="6.5691">
        <ele>1162.4</ele>
        <time>2022-07-19T18:49:36Z</time>
      </trkpt>
      <trkpt lat="44.8064" lon="6.56912">
        <ele>1162.6</ele>
        <time>2022-07-19T18:49:37Z</time>
      </trkpt>
      <trkpt lat="44.80641" lon="6.56913">
        <ele>1162.6</ele>
        <time>2022-07-19T18:49:38Z</time>
      </trkpt>
      <trkpt lat="44.80642" lon="6.56915">
        <ele>1162.6</ele>
        <time>2022-07-19T18:49:39Z</time>
      </trkpt>
      <trkpt lat="44.80643" lon="6.56917">
        <ele>1162.6</ele>
        <time>2022-07-19T18:49:40Z</time>
      </trkpt>
      <trkpt lat="44.80644" lon="6.56919">
        <ele>1163</ele>
        <time>2022-07-19T18:49:41Z</time>
      </trkpt>
      <trkpt lat="44.80645" lon="6.56921">
        <ele>1163.4</ele>
        <time>2022-07-19T18:49:42Z</time>
      </trkpt>
      <trkpt lat="44.80646" lon="6.56923">
        <ele>1163.6</ele>
        <time>2022-07-19T18:49:43Z</time>
      </trkpt>
      <trkpt lat="44.80647" lon="6.56925">
        <ele>1163.8</ele>
        <time>2022-07-19T18:49:44Z</time>
      </trkpt>
      <trkpt lat="44.80648" lon="6.56927">
        <ele>1163.8</ele>
        <time>2022-07-19T18:49:45Z</time>
      </trkpt>
      <trkpt lat="44.80649" lon="6.56929">
        <ele>1164.2</ele>
        <time>2022-07-19T18:49:46Z</time>
      </trkpt>
      <trkpt lat="44.80651" lon="6.56931">
        <ele>1164.2</ele>
        <time>2022-07-19T18:49:47Z</time>
      </trkpt>
      <trkpt lat="44.80652" lon="6.56933">
        <ele>1164.2</ele>
        <time>2022-07-19T18:49:48Z</time>
      </trkpt>
      <trkpt lat="44.80653" lon="6.56936">
        <ele>1164.4</ele>
        <time>2022-07-19T18:49:49Z</time>
      </trkpt>
      <trkpt lat="44.80654" lon="6.56938">
        <ele>1164.4</ele>
        <time>2022-07-19T18:49:50Z</time>
      </trkpt>
      <trkpt lat="44.80655" lon="6.5694">
        <ele>1164.8</ele>
        <time>2022-07-19T18:49:51Z</time>
      </trkpt>
      <trkpt lat="44.80656" lon="6.56942">
        <ele>1165</ele>
        <time>2022-07-19T18:49:52Z</time>
      </trkpt>
      <trkpt lat="44.80658" lon="6.56944">
        <ele>1165</ele>
        <time>2022-07-19T18:49:53Z</time>
      </trkpt>
      <trkpt lat="44.80659" lon="6.56947">
        <ele>1165</ele>
        <time>2022-07-19T18:49:54Z</time>
      </trkpt>
      <trkpt lat="44.8066" lon="6.56949">
        <ele>1165</ele>
        <time>2022-07-19T18:49:55Z</time>
      </trkpt>
      <trkpt lat="44.80661" lon="6.56952">
        <ele>1165.2</ele>
        <time>2022-07-19T18:49:56Z</time>
      </trkpt>
      <trkpt lat="44.80662" lon="6.56954">
        <ele>1165.2</ele>
        <time>2022-07-19T18:49:57Z</time>
      </trkpt>
      <trkpt lat="44.80663" lon="6.56956">
        <ele>1165.4</ele>
        <time>2022-07-19T18:49:58Z</time>
      </trkpt>
      <trkpt lat="44.80664" lon="6.56959">
        <ele>1165.4</ele>
        <time>2022-07-19T18:49:59Z</time>
      </trkpt>
      <trkpt lat="44.80664" lon="6.56961">
        <ele>1165.8</ele>
        <time>2022-07-19T18:50:00Z</time>
      </trkpt>
      <trkpt lat="44.80665" lon="6.56963">
        <ele>1165.8</ele>
        <time>2022-07-19T18:50:01Z</time>
      </trkpt>
      <trkpt lat="44.80666" lon="6.56965">
        <ele>1165.8</ele>
        <time>2022-07-19T18:50:02Z</time>
      </trkpt>
      <trkpt lat="44.80667" lon="6.56967">
        <ele>1166</ele>
        <time>2022-07-19T18:50:03Z</time>
      </trkpt>
      <trkpt lat="44.80668" lon="6.56969">
        <ele>1166.4</ele>
        <time>2022-07-19T18:50:04Z</time>
      </trkpt>
      <trkpt lat="44.80669" lon="6.56971">
        <ele>1166.4</ele>
        <time>2022-07-19T18:50:05Z</time>
      </trkpt>
      <trkpt lat="44.8067" lon="6.56973">
        <ele>1166.6</ele>
        <time>2022-07-19T18:50:06Z</time>
      </trkpt>
      <trkpt lat="44.80671" lon="6.56975">
        <ele>1167</ele>
        <time>2022-07-19T18:50:07Z</time>
      </trkpt>
      <trkpt lat="44.80672" lon="6.56977">
        <ele>1167.2</ele>
        <time>2022-07-19T18:50:08Z</time>
      </trkpt>
      <trkpt lat="44.80673" lon="6.56979">
        <ele>1167.4</ele>
        <time>2022-07-19T18:50:09Z</time>
      </trkpt>
      <trkpt lat="44.80674" lon="6.56981">
        <ele>1167.4</ele>
        <time>2022-07-19T18:50:10Z</time>
      </trkpt>
      <trkpt lat="44.80675" lon="6.56983">
        <ele>1167.8</ele>
        <time>2022-07-19T18:50:11Z</time>
      </trkpt>
      <trkpt lat="44.80676" lon="6.56985">
        <ele>1167.8</ele>
        <time>2022-07-19T18:50:12Z</time>
      </trkpt>
      <trkpt lat="44.80676" lon="6.56987">
        <ele>1168</ele>
        <time>2022-07-19T18:50:13Z</time>
      </trkpt>
      <trkpt lat="44.80677" lon="6.56989">
        <ele>1168</ele>
        <time>2022-07-19T18:50:14Z</time>
      </trkpt>
      <trkpt lat="44.80678" lon="6.56991">
        <ele>1168</ele>
        <time>2022-07-19T18:50:15Z</time>
      </trkpt>
      <trkpt lat="44.80679" lon="6.56993">
        <ele>1168</ele>
        <time>2022-07-19T18:50:16Z</time>
      </trkpt>
      <trkpt lat="44.80679" lon="6.56995">
        <ele>1168</ele>
        <time>2022-07-19T18:50:17Z</time>
      </trkpt>
      <trkpt lat="44.8068" lon="6.56997">
        <ele>1168</ele>
        <time>2022-07-19T18:50:18Z</time>
      </trkpt>
      <trkpt lat="44.80681" lon="6.56999">
        <ele>1168</ele>
        <time>2022-07-19T18:50:19Z</time>
      </trkpt>
      <trkpt lat="44.80682" lon="6.57002">
        <ele>1168</ele>
        <time>2022-07-19T18:50:20Z</time>
      </trkpt>
      <trkpt lat="44.80682" lon="6.57004">
        <ele>1168</ele>
        <time>2022-07-19T18:50:21Z</time>
      </trkpt>
      <trkpt lat="44.80683" lon="6.57006">
        <ele>1168</ele>
        <time>2022-07-19T18:50:22Z</time>
      </trkpt>
      <trkpt lat="44.80684" lon="6.57008">
        <ele>1168</ele>
        <time>2022-07-19T18:50:23Z</time>
      </trkpt>
      <trkpt lat="44.80685" lon="6.5701">
        <ele>1168.4</ele>
        <time>2022-07-19T18:50:24Z</time>
      </trkpt>
      <trkpt lat="44.80686" lon="6.57012">
        <ele>1168.4</ele>
        <time>2022-07-19T18:50:25Z</time>
      </trkpt>
      <trkpt lat="44.80687" lon="6.57014">
        <ele>1168.6</ele>
        <time>2022-07-19T18:50:26Z</time>
      </trkpt>
      <trkpt lat="44.80688" lon="6.57016">
        <ele>1168.8</ele>
        <time>2022-07-19T18:50:27Z</time>
      </trkpt>
      <trkpt lat="44.80688" lon="6.57018">
        <ele>1168.8</ele>
        <time>2022-07-19T18:50:28Z</time>
      </trkpt>
      <trkpt lat="44.80689" lon="6.5702">
        <ele>1169.2</ele>
        <time>2022-07-19T18:50:29Z</time>
      </trkpt>
      <trkpt lat="44.8069" lon="6.57023">
        <ele>1169.2</ele>
        <time>2022-07-19T18:50:30Z</time>
      </trkpt>
      <trkpt lat="44.80691" lon="6.57025">
        <ele>1169.2</ele>
        <time>2022-07-19T18:50:31Z</time>
      </trkpt>
      <trkpt lat="44.80692" lon="6.57027">
        <ele>1169.6</ele>
        <time>2022-07-19T18:50:32Z</time>
      </trkpt>
      <trkpt lat="44.80693" lon="6.57029">
        <ele>1169.6</ele>
        <time>2022-07-19T18:50:33Z</time>
      </trkpt>
      <trkpt lat="44.80693" lon="6.57031">
        <ele>1169.6</ele>
        <time>2022-07-19T18:50:34Z</time>
      </trkpt>
      <trkpt lat="44.80694" lon="6.57033">
        <ele>1170</ele>
        <time>2022-07-19T18:50:35Z</time>
      </trkpt>
      <trkpt lat="44.80695" lon="6.57035">
        <ele>1170.4</ele>
        <time>2022-07-19T18:50:36Z</time>
      </trkpt>
      <trkpt lat="44.80696" lon="6.57037">
        <ele>1170.4</ele>
        <time>2022-07-19T18:50:37Z</time>
      </trkpt>
      <trkpt lat="44.80697" lon="6.57039">
        <ele>1170.6</ele>
        <time>2022-07-19T18:50:38Z</time>
      </trkpt>
      <trkpt lat="44.80698" lon="6.57041">
        <ele>1170.6</ele>
        <time>2022-07-19T18:50:39Z</time>
      </trkpt>
      <trkpt lat="44.80698" lon="6.57044">
        <ele>1171</ele>
        <time>2022-07-19T18:50:40Z</time>
      </trkpt>
      <trkpt lat="44.80699" lon="6.57046">
        <ele>1171.4</ele>
        <time>2022-07-19T18:50:41Z</time>
      </trkpt>
      <trkpt lat="44.807" lon="6.57048">
        <ele>1171.4</ele>
        <time>2022-07-19T18:50:42Z</time>
      </trkpt>
      <trkpt lat="44.80701" lon="6.5705">
        <ele>1171.4</ele>
        <time>2022-07-19T18:50:43Z</time>
      </trkpt>
      <trkpt lat="44.80701" lon="6.57052">
        <ele>1171.6</ele>
        <time>2022-07-19T18:50:44Z</time>
      </trkpt>
      <trkpt lat="44.80702" lon="6.57054">
        <ele>1171.6</ele>
        <time>2022-07-19T18:50:45Z</time>
      </trkpt>
      <trkpt lat="44.80703" lon="6.57056">
        <ele>1172</ele>
        <time>2022-07-19T18:50:46Z</time>
      </trkpt>
      <trkpt lat="44.80704" lon="6.57058">
        <ele>1172.2</ele>
        <time>2022-07-19T18:50:47Z</time>
      </trkpt>
      <trkpt lat="44.80705" lon="6.5706">
        <ele>1172.4</ele>
        <time>2022-07-19T18:50:48Z</time>
      </trkpt>
      <trkpt lat="44.80706" lon="6.57062">
        <ele>1172.4</ele>
        <time>2022-07-19T18:50:49Z</time>
      </trkpt>
      <trkpt lat="44.80707" lon="6.57064">
        <ele>1172.8</ele>
        <time>2022-07-19T18:50:50Z</time>
      </trkpt>
      <trkpt lat="44.80708" lon="6.57066">
        <ele>1172.8</ele>
        <time>2022-07-19T18:50:51Z</time>
      </trkpt>
      <trkpt lat="44.80709" lon="6.57068">
        <ele>1172.8</ele>
        <time>2022-07-19T18:50:52Z</time>
      </trkpt>
      <trkpt lat="44.8071" lon="6.57071">
        <ele>1172.8</ele>
        <time>2022-07-19T18:50:53Z</time>
      </trkpt>
      <trkpt lat="44.80711" lon="6.57073">
        <ele>1172.8</ele>
        <time>2022-07-19T18:50:54Z</time>
      </trkpt>
      <trkpt lat="44.80712" lon="6.57075">
        <ele>1173</ele>
        <time>2022-07-19T18:50:55Z</time>
      </trkpt>
      <trkpt lat="44.80712" lon="6.57077">
        <ele>1173</ele>
        <time>2022-07-19T18:50:56Z</time>
      </trkpt>
      <trkpt lat="44.80713" lon="6.5708">
        <ele>1173.4</ele>
        <time>2022-07-19T18:50:57Z</time>
      </trkpt>
      <trkpt lat="44.80714" lon="6.57082">
        <ele>1173.4</ele>
        <time>2022-07-19T18:50:58Z</time>
      </trkpt>
      <trkpt lat="44.80715" lon="6.57084">
        <ele>1173.8</ele>
        <time>2022-07-19T18:50:59Z</time>
      </trkpt>
      <trkpt lat="44.80715" lon="6.57086">
        <ele>1173.8</ele>
        <time>2022-07-19T18:51:00Z</time>
      </trkpt>
      <trkpt lat="44.80716" lon="6.57088">
        <ele>1174</ele>
        <time>2022-07-19T18:51:01Z</time>
      </trkpt>
      <trkpt lat="44.80717" lon="6.5709">
        <ele>1174</ele>
        <time>2022-07-19T18:51:02Z</time>
      </trkpt>
      <trkpt lat="44.80718" lon="6.57092">
        <ele>1174.4</ele>
        <time>2022-07-19T18:51:03Z</time>
      </trkpt>
      <trkpt lat="44.80718" lon="6.57094">
        <ele>1174.4</ele>
        <time>2022-07-19T18:51:04Z</time>
      </trkpt>
      <trkpt lat="44.80719" lon="6.57095">
        <ele>1174.6</ele>
        <time>2022-07-19T18:51:05Z</time>
      </trkpt>
      <trkpt lat="44.8072" lon="6.57097">
        <ele>1174.6</ele>
        <time>2022-07-19T18:51:06Z</time>
      </trkpt>
      <trkpt lat="44.80721" lon="6.571">
        <ele>1175</ele>
        <time>2022-07-19T18:51:07Z</time>
      </trkpt>
      <trkpt lat="44.80722" lon="6.57102">
        <ele>1175</ele>
        <time>2022-07-19T18:51:08Z</time>
      </trkpt>
      <trkpt lat="44.80722" lon="6.57104">
        <ele>1175.2</ele>
        <time>2022-07-19T18:51:09Z</time>
      </trkpt>
      <trkpt lat="44.80723" lon="6.57106">
        <ele>1175.4</ele>
        <time>2022-07-19T18:51:10Z</time>
      </trkpt>
      <trkpt lat="44.80724" lon="6.57108">
        <ele>1175.6</ele>
        <time>2022-07-19T18:51:11Z</time>
      </trkpt>
      <trkpt lat="44.80725" lon="6.5711">
        <ele>1176</ele>
        <time>2022-07-19T18:51:12Z</time>
      </trkpt>
      <trkpt lat="44.80725" lon="6.57112">
        <ele>1176</ele>
        <time>2022-07-19T18:51:13Z</time>
      </trkpt>
      <trkpt lat="44.80726" lon="6.57114">
        <ele>1176.2</ele>
        <time>2022-07-19T18:51:14Z</time>
      </trkpt>
      <trkpt lat="44.80727" lon="6.57116">
        <ele>1176.2</ele>
        <time>2022-07-19T18:51:15Z</time>
      </trkpt>
      <trkpt lat="44.80728" lon="6.57118">
        <ele>1176.6</ele>
        <time>2022-07-19T18:51:16Z</time>
      </trkpt>
      <trkpt lat="44.80728" lon="6.5712">
        <ele>1176.6</ele>
        <time>2022-07-19T18:51:17Z</time>
      </trkpt>
      <trkpt lat="44.80729" lon="6.57122">
        <ele>1176.8</ele>
        <time>2022-07-19T18:51:18Z</time>
      </trkpt>
      <trkpt lat="44.8073" lon="6.57124">
        <ele>1176.8</ele>
        <time>2022-07-19T18:51:19Z</time>
      </trkpt>
      <trkpt lat="44.8073" lon="6.57126">
        <ele>1176.8</ele>
        <time>2022-07-19T18:51:20Z</time>
      </trkpt>
      <trkpt lat="44.80731" lon="6.57128">
        <ele>1177</ele>
        <time>2022-07-19T18:51:21Z</time>
      </trkpt>
      <trkpt lat="44.80731" lon="6.5713">
        <ele>1177</ele>
        <time>2022-07-19T18:51:22Z</time>
      </trkpt>
      <trkpt lat="44.80732" lon="6.57132">
        <ele>1177</ele>
        <time>2022-07-19T18:51:23Z</time>
      </trkpt>
      <trkpt lat="44.80733" lon="6.57134">
        <ele>1177</ele>
        <time>2022-07-19T18:51:24Z</time>
      </trkpt>
      <trkpt lat="44.80734" lon="6.57136">
        <ele>1177.4</ele>
        <time>2022-07-19T18:51:25Z</time>
      </trkpt>
      <trkpt lat="44.80734" lon="6.57138">
        <ele>1177.4</ele>
        <time>2022-07-19T18:51:26Z</time>
      </trkpt>
      <trkpt lat="44.80735" lon="6.5714">
        <ele>1177.4</ele>
        <time>2022-07-19T18:51:27Z</time>
      </trkpt>
      <trkpt lat="44.80736" lon="6.57142">
        <ele>1177.4</ele>
        <time>2022-07-19T18:51:28Z</time>
      </trkpt>
      <trkpt lat="44.80736" lon="6.57144">
        <ele>1177.4</ele>
        <time>2022-07-19T18:51:29Z</time>
      </trkpt>
      <trkpt lat="44.80737" lon="6.57146">
        <ele>1177.6</ele>
        <time>2022-07-19T18:51:30Z</time>
      </trkpt>
      <trkpt lat="44.80738" lon="6.57148">
        <ele>1177.6</ele>
        <time>2022-07-19T18:51:31Z</time>
      </trkpt>
      <trkpt lat="44.80739" lon="6.57149">
        <ele>1177.8</ele>
        <time>2022-07-19T18:51:32Z</time>
      </trkpt>
      <trkpt lat="44.80739" lon="6.57151">
        <ele>1177.8</ele>
        <time>2022-07-19T18:51:33Z</time>
      </trkpt>
      <trkpt lat="44.8074" lon="6.57153">
        <ele>1178.4</ele>
        <time>2022-07-19T18:51:34Z</time>
      </trkpt>
      <trkpt lat="44.80741" lon="6.57155">
        <ele>1178.4</ele>
        <time>2022-07-19T18:51:35Z</time>
      </trkpt>
      <trkpt lat="44.80742" lon="6.57157">
        <ele>1178.8</ele>
        <time>2022-07-19T18:51:36Z</time>
      </trkpt>
      <trkpt lat="44.80743" lon="6.57159">
        <ele>1179</ele>
        <time>2022-07-19T18:51:37Z</time>
      </trkpt>
      <trkpt lat="44.80743" lon="6.57162">
        <ele>1179.4</ele>
        <time>2022-07-19T18:51:38Z</time>
      </trkpt>
      <trkpt lat="44.80744" lon="6.57164">
        <ele>1179.4</ele>
        <time>2022-07-19T18:51:39Z</time>
      </trkpt>
      <trkpt lat="44.80745" lon="6.57165">
        <ele>1179.6</ele>
        <time>2022-07-19T18:51:40Z</time>
      </trkpt>
      <trkpt lat="44.80746" lon="6.57167">
        <ele>1179.6</ele>
        <time>2022-07-19T18:51:41Z</time>
      </trkpt>
      <trkpt lat="44.80746" lon="6.57169">
        <ele>1179.6</ele>
        <time>2022-07-19T18:51:42Z</time>
      </trkpt>
      <trkpt lat="44.80747" lon="6.57171">
        <ele>1179.6</ele>
        <time>2022-07-19T18:51:43Z</time>
      </trkpt>
      <trkpt lat="44.80748" lon="6.57173">
        <ele>1180</ele>
        <time>2022-07-19T18:51:44Z</time>
      </trkpt>
      <trkpt lat="44.80749" lon="6.57175">
        <ele>1180</ele>
        <time>2022-07-19T18:51:45Z</time>
      </trkpt>
      <trkpt lat="44.80749" lon="6.57177">
        <ele>1180.2</ele>
        <time>2022-07-19T18:51:46Z</time>
      </trkpt>
      <trkpt lat="44.8075" lon="6.57179">
        <ele>1180.2</ele>
        <time>2022-07-19T18:51:47Z</time>
      </trkpt>
      <trkpt lat="44.80751" lon="6.57181">
        <ele>1180.6</ele>
        <time>2022-07-19T18:51:48Z</time>
      </trkpt>
      <trkpt lat="44.80752" lon="6.57183">
        <ele>1180.6</ele>
        <time>2022-07-19T18:51:49Z</time>
      </trkpt>
      <trkpt lat="44.80753" lon="6.57185">
        <ele>1180.8</ele>
        <time>2022-07-19T18:51:50Z</time>
      </trkpt>
      <trkpt lat="44.80753" lon="6.57187">
        <ele>1180.8</ele>
        <time>2022-07-19T18:51:51Z</time>
      </trkpt>
      <trkpt lat="44.80754" lon="6.5719">
        <ele>1180.8</ele>
        <time>2022-07-19T18:51:52Z</time>
      </trkpt>
      <trkpt lat="44.80755" lon="6.57192">
        <ele>1181</ele>
        <time>2022-07-19T18:51:53Z</time>
      </trkpt>
      <trkpt lat="44.80756" lon="6.57194">
        <ele>1181</ele>
        <time>2022-07-19T18:51:54Z</time>
      </trkpt>
      <trkpt lat="44.80756" lon="6.57196">
        <ele>1181.4</ele>
        <time>2022-07-19T18:51:55Z</time>
      </trkpt>
      <trkpt lat="44.80757" lon="6.57198">
        <ele>1181.6</ele>
        <time>2022-07-19T18:51:56Z</time>
      </trkpt>
      <trkpt lat="44.80758" lon="6.572">
        <ele>1181.8</ele>
        <time>2022-07-19T18:51:57Z</time>
      </trkpt>
      <trkpt lat="44.80759" lon="6.57202">
        <ele>1182</ele>
        <time>2022-07-19T18:51:58Z</time>
      </trkpt>
      <trkpt lat="44.8076" lon="6.57204">
        <ele>1182</ele>
        <time>2022-07-19T18:51:59Z</time>
      </trkpt>
      <trkpt lat="44.8076" lon="6.57206">
        <ele>1182</ele>
        <time>2022-07-19T18:52:00Z</time>
      </trkpt>
      <trkpt lat="44.80761" lon="6.57208">
        <ele>1182</ele>
        <time>2022-07-19T18:52:01Z</time>
      </trkpt>
      <trkpt lat="44.80762" lon="6.5721">
        <ele>1182</ele>
        <time>2022-07-19T18:52:02Z</time>
      </trkpt>
      <trkpt lat="44.80762" lon="6.57212">
        <ele>1182</ele>
        <time>2022-07-19T18:52:03Z</time>
      </trkpt>
      <trkpt lat="44.80763" lon="6.57214">
        <ele>1182.2</ele>
        <time>2022-07-19T18:52:04Z</time>
      </trkpt>
      <trkpt lat="44.80764" lon="6.57216">
        <ele>1182.2</ele>
        <time>2022-07-19T18:52:05Z</time>
      </trkpt>
      <trkpt lat="44.80765" lon="6.57218">
        <ele>1182.6</ele>
        <time>2022-07-19T18:52:06Z</time>
      </trkpt>
      <trkpt lat="44.80766" lon="6.5722">
        <ele>1183</ele>
        <time>2022-07-19T18:52:07Z</time>
      </trkpt>
      <trkpt lat="44.80766" lon="6.57222">
        <ele>1183.2</ele>
        <time>2022-07-19T18:52:08Z</time>
      </trkpt>
      <trkpt lat="44.80767" lon="6.57223">
        <ele>1183.6</ele>
        <time>2022-07-19T18:52:09Z</time>
      </trkpt>
      <trkpt lat="44.80768" lon="6.57225">
        <ele>1183.8</ele>
        <time>2022-07-19T18:52:10Z</time>
      </trkpt>
      <trkpt lat="44.80768" lon="6.57227">
        <ele>1184</ele>
        <time>2022-07-19T18:52:11Z</time>
      </trkpt>
      <trkpt lat="44.80769" lon="6.57229">
        <ele>1184</ele>
        <time>2022-07-19T18:52:12Z</time>
      </trkpt>
      <trkpt lat="44.8077" lon="6.57231">
        <ele>1184.2</ele>
        <time>2022-07-19T18:52:13Z</time>
      </trkpt>
      <trkpt lat="44.80771" lon="6.57233">
        <ele>1184.6</ele>
        <time>2022-07-19T18:52:14Z</time>
      </trkpt>
      <trkpt lat="44.80771" lon="6.57235">
        <ele>1184.6</ele>
        <time>2022-07-19T18:52:15Z</time>
      </trkpt>
      <trkpt lat="44.80772" lon="6.57237">
        <ele>1184.8</ele>
        <time>2022-07-19T18:52:16Z</time>
      </trkpt>
      <trkpt lat="44.80773" lon="6.57238">
        <ele>1184.8</ele>
        <time>2022-07-19T18:52:17Z</time>
      </trkpt>
      <trkpt lat="44.80774" lon="6.5724">
        <ele>1185</ele>
        <time>2022-07-19T18:52:18Z</time>
      </trkpt>
      <trkpt lat="44.80774" lon="6.57242">
        <ele>1185</ele>
        <time>2022-07-19T18:52:19Z</time>
      </trkpt>
      <trkpt lat="44.80775" lon="6.57244">
        <ele>1185.4</ele>
        <time>2022-07-19T18:52:20Z</time>
      </trkpt>
      <trkpt lat="44.80776" lon="6.57246">
        <ele>1185.4</ele>
        <time>2022-07-19T18:52:21Z</time>
      </trkpt>
      <trkpt lat="44.80777" lon="6.57248">
        <ele>1185.4</ele>
        <time>2022-07-19T18:52:22Z</time>
      </trkpt>
      <trkpt lat="44.80777" lon="6.5725">
        <ele>1185.6</ele>
        <time>2022-07-19T18:52:23Z</time>
      </trkpt>
      <trkpt lat="44.80778" lon="6.57252">
        <ele>1185.8</ele>
        <time>2022-07-19T18:52:24Z</time>
      </trkpt>
      <trkpt lat="44.80779" lon="6.57253">
        <ele>1186</ele>
        <time>2022-07-19T18:52:25Z</time>
      </trkpt>
      <trkpt lat="44.8078" lon="6.57255">
        <ele>1186.4</ele>
        <time>2022-07-19T18:52:26Z</time>
      </trkpt>
      <trkpt lat="44.80781" lon="6.57256">
        <ele>1186.4</ele>
        <time>2022-07-19T18:52:27Z</time>
      </trkpt>
      <trkpt lat="44.80781" lon="6.57258">
        <ele>1186.6</ele>
        <time>2022-07-19T18:52:28Z</time>
      </trkpt>
      <trkpt lat="44.80782" lon="6.5726">
        <ele>1186.6</ele>
        <time>2022-07-19T18:52:29Z</time>
      </trkpt>
      <trkpt lat="44.80782" lon="6.57262">
        <ele>1186.8</ele>
        <time>2022-07-19T18:52:30Z</time>
      </trkpt>
      <trkpt lat="44.80783" lon="6.57264">
        <ele>1186.8</ele>
        <time>2022-07-19T18:52:31Z</time>
      </trkpt>
      <trkpt lat="44.80784" lon="6.57266">
        <ele>1186.8</ele>
        <time>2022-07-19T18:52:32Z</time>
      </trkpt>
      <trkpt lat="44.80784" lon="6.57268">
        <ele>1186.8</ele>
        <time>2022-07-19T18:52:33Z</time>
      </trkpt>
      <trkpt lat="44.80785" lon="6.57269">
        <ele>1186.8</ele>
        <time>2022-07-19T18:52:34Z</time>
      </trkpt>
      <trkpt lat="44.80786" lon="6.57271">
        <ele>1187</ele>
        <time>2022-07-19T18:52:35Z</time>
      </trkpt>
      <trkpt lat="44.80786" lon="6.57273">
        <ele>1187</ele>
        <time>2022-07-19T18:52:36Z</time>
      </trkpt>
      <trkpt lat="44.80787" lon="6.57275">
        <ele>1187.4</ele>
        <time>2022-07-19T18:52:37Z</time>
      </trkpt>
      <trkpt lat="44.80788" lon="6.57277">
        <ele>1187.4</ele>
        <time>2022-07-19T18:52:38Z</time>
      </trkpt>
      <trkpt lat="44.80788" lon="6.57279">
        <ele>1187.4</ele>
        <time>2022-07-19T18:52:39Z</time>
      </trkpt>
      <trkpt lat="44.80789" lon="6.57281">
        <ele>1187.4</ele>
        <time>2022-07-19T18:52:40Z</time>
      </trkpt>
      <trkpt lat="44.80789" lon="6.57283">
        <ele>1187.6</ele>
        <time>2022-07-19T18:52:41Z</time>
      </trkpt>
      <trkpt lat="44.8079" lon="6.57285">
        <ele>1187.6</ele>
        <time>2022-07-19T18:52:42Z</time>
      </trkpt>
      <trkpt lat="44.8079" lon="6.57286">
        <ele>1187.8</ele>
        <time>2022-07-19T18:52:43Z</time>
      </trkpt>
      <trkpt lat="44.80791" lon="6.57288">
        <ele>1188</ele>
        <time>2022-07-19T18:52:44Z</time>
      </trkpt>
      <trkpt lat="44.80792" lon="6.5729">
        <ele>1188</ele>
        <time>2022-07-19T18:52:45Z</time>
      </trkpt>
      <trkpt lat="44.80793" lon="6.57292">
        <ele>1188</ele>
        <time>2022-07-19T18:52:46Z</time>
      </trkpt>
      <trkpt lat="44.80793" lon="6.57294">
        <ele>1188.2</ele>
        <time>2022-07-19T18:52:47Z</time>
      </trkpt>
      <trkpt lat="44.80794" lon="6.57296">
        <ele>1188.2</ele>
        <time>2022-07-19T18:52:48Z</time>
      </trkpt>
      <trkpt lat="44.80795" lon="6.57297">
        <ele>1188.6</ele>
        <time>2022-07-19T18:52:49Z</time>
      </trkpt>
      <trkpt lat="44.80796" lon="6.57299">
        <ele>1188.6</ele>
        <time>2022-07-19T18:52:50Z</time>
      </trkpt>
      <trkpt lat="44.80796" lon="6.57301">
        <ele>1188.8</ele>
        <time>2022-07-19T18:52:51Z</time>
      </trkpt>
      <trkpt lat="44.80797" lon="6.57303">
        <ele>1188.8</ele>
        <time>2022-07-19T18:52:52Z</time>
      </trkpt>
      <trkpt lat="44.80797" lon="6.57305">
        <ele>1188.8</ele>
        <time>2022-07-19T18:52:53Z</time>
      </trkpt>
      <trkpt lat="44.80798" lon="6.57307">
        <ele>1189</ele>
        <time>2022-07-19T18:52:54Z</time>
      </trkpt>
      <trkpt lat="44.80799" lon="6.57309">
        <ele>1189</ele>
        <time>2022-07-19T18:52:55Z</time>
      </trkpt>
      <trkpt lat="44.80799" lon="6.5731">
        <ele>1189.2</ele>
        <time>2022-07-19T18:52:56Z</time>
      </trkpt>
      <trkpt lat="44.808" lon="6.57312">
        <ele>1189.2</ele>
        <time>2022-07-19T18:52:57Z</time>
      </trkpt>
      <trkpt lat="44.808" lon="6.57314">
        <ele>1189.6</ele>
        <time>2022-07-19T18:52:58Z</time>
      </trkpt>
      <trkpt lat="44.80801" lon="6.57316">
        <ele>1189.8</ele>
        <time>2022-07-19T18:52:59Z</time>
      </trkpt>
      <trkpt lat="44.80802" lon="6.57318">
        <ele>1189.8</ele>
        <time>2022-07-19T18:53:00Z</time>
      </trkpt>
      <trkpt lat="44.80803" lon="6.5732">
        <ele>1190</ele>
        <time>2022-07-19T18:53:01Z</time>
      </trkpt>
      <trkpt lat="44.80803" lon="6.57321">
        <ele>1190</ele>
        <time>2022-07-19T18:53:02Z</time>
      </trkpt>
      <trkpt lat="44.80804" lon="6.57323">
        <ele>1190</ele>
        <time>2022-07-19T18:53:03Z</time>
      </trkpt>
      <trkpt lat="44.80805" lon="6.57325">
        <ele>1190.4</ele>
        <time>2022-07-19T18:53:04Z</time>
      </trkpt>
      <trkpt lat="44.80806" lon="6.57327">
        <ele>1190.4</ele>
        <time>2022-07-19T18:53:05Z</time>
      </trkpt>
      <trkpt lat="44.80807" lon="6.57328">
        <ele>1190.4</ele>
        <time>2022-07-19T18:53:06Z</time>
      </trkpt>
      <trkpt lat="44.80808" lon="6.5733">
        <ele>1190.6</ele>
        <time>2022-07-19T18:53:07Z</time>
      </trkpt>
      <trkpt lat="44.80809" lon="6.57332">
        <ele>1190.6</ele>
        <time>2022-07-19T18:53:08Z</time>
      </trkpt>
      <trkpt lat="44.8081" lon="6.57334">
        <ele>1190.6</ele>
        <time>2022-07-19T18:53:09Z</time>
      </trkpt>
      <trkpt lat="44.80811" lon="6.57336">
        <ele>1191</ele>
        <time>2022-07-19T18:53:10Z</time>
      </trkpt>
      <trkpt lat="44.80812" lon="6.57338">
        <ele>1191</ele>
        <time>2022-07-19T18:53:11Z</time>
      </trkpt>
      <trkpt lat="44.80813" lon="6.5734">
        <ele>1191.2</ele>
        <time>2022-07-19T18:53:12Z</time>
      </trkpt>
      <trkpt lat="44.80813" lon="6.57342">
        <ele>1191.2</ele>
        <time>2022-07-19T18:53:13Z</time>
      </trkpt>
      <trkpt lat="44.80814" lon="6.57344">
        <ele>1191.2</ele>
        <time>2022-07-19T18:53:14Z</time>
      </trkpt>
      <trkpt lat="44.80815" lon="6.57345">
        <ele>1191.2</ele>
        <time>2022-07-19T18:53:15Z</time>
      </trkpt>
      <trkpt lat="44.80816" lon="6.57347">
        <ele>1191.4</ele>
        <time>2022-07-19T18:53:16Z</time>
      </trkpt>
      <trkpt lat="44.80818" lon="6.57349">
        <ele>1191.4</ele>
        <time>2022-07-19T18:53:17Z</time>
      </trkpt>
      <trkpt lat="44.80819" lon="6.57351">
        <ele>1191.4</ele>
        <time>2022-07-19T18:53:18Z</time>
      </trkpt>
      <trkpt lat="44.8082" lon="6.57353">
        <ele>1191.4</ele>
        <time>2022-07-19T18:53:19Z</time>
      </trkpt>
      <trkpt lat="44.80821" lon="6.57355">
        <ele>1191.6</ele>
        <time>2022-07-19T18:53:20Z</time>
      </trkpt>
      <trkpt lat="44.80822" lon="6.57357">
        <ele>1191.6</ele>
        <time>2022-07-19T18:53:21Z</time>
      </trkpt>
      <trkpt lat="44.80823" lon="6.57359">
        <ele>1191.6</ele>
        <time>2022-07-19T18:53:22Z</time>
      </trkpt>
      <trkpt lat="44.80824" lon="6.5736">
        <ele>1191.6</ele>
        <time>2022-07-19T18:53:23Z</time>
      </trkpt>
      <trkpt lat="44.80825" lon="6.57362">
        <ele>1191.8</ele>
        <time>2022-07-19T18:53:24Z</time>
      </trkpt>
      <trkpt lat="44.80826" lon="6.57364">
        <ele>1191.8</ele>
        <time>2022-07-19T18:53:25Z</time>
      </trkpt>
      <trkpt lat="44.80827" lon="6.57366">
        <ele>1192.2</ele>
        <time>2022-07-19T18:53:26Z</time>
      </trkpt>
      <trkpt lat="44.80828" lon="6.57368">
        <ele>1192.4</ele>
        <time>2022-07-19T18:53:27Z</time>
      </trkpt>
      <trkpt lat="44.80829" lon="6.5737">
        <ele>1192.6</ele>
        <time>2022-07-19T18:53:28Z</time>
      </trkpt>
      <trkpt lat="44.8083" lon="6.57371">
        <ele>1192.6</ele>
        <time>2022-07-19T18:53:29Z</time>
      </trkpt>
      <trkpt lat="44.80831" lon="6.57373">
        <ele>1192.8</ele>
        <time>2022-07-19T18:53:30Z</time>
      </trkpt>
      <trkpt lat="44.80833" lon="6.57375">
        <ele>1192.8</ele>
        <time>2022-07-19T18:53:31Z</time>
      </trkpt>
      <trkpt lat="44.80834" lon="6.57376">
        <ele>1192.8</ele>
        <time>2022-07-19T18:53:32Z</time>
      </trkpt>
      <trkpt lat="44.80835" lon="6.57378">
        <ele>1193.2</ele>
        <time>2022-07-19T18:53:33Z</time>
      </trkpt>
      <trkpt lat="44.80836" lon="6.5738">
        <ele>1193.4</ele>
        <time>2022-07-19T18:53:34Z</time>
      </trkpt>
      <trkpt lat="44.80837" lon="6.57382">
        <ele>1193.4</ele>
        <time>2022-07-19T18:53:35Z</time>
      </trkpt>
      <trkpt lat="44.80839" lon="6.57383">
        <ele>1193.6</ele>
        <time>2022-07-19T18:53:36Z</time>
      </trkpt>
      <trkpt lat="44.8084" lon="6.57384">
        <ele>1193.6</ele>
        <time>2022-07-19T18:53:37Z</time>
      </trkpt>
      <trkpt lat="44.80841" lon="6.57386">
        <ele>1193.6</ele>
        <time>2022-07-19T18:53:38Z</time>
      </trkpt>
      <trkpt lat="44.80842" lon="6.57388">
        <ele>1194</ele>
        <time>2022-07-19T18:53:39Z</time>
      </trkpt>
      <trkpt lat="44.80843" lon="6.57389">
        <ele>1194</ele>
        <time>2022-07-19T18:53:40Z</time>
      </trkpt>
      <trkpt lat="44.80844" lon="6.5739">
        <ele>1194.2</ele>
        <time>2022-07-19T18:53:41Z</time>
      </trkpt>
      <trkpt lat="44.80846" lon="6.57392">
        <ele>1194.2</ele>
        <time>2022-07-19T18:53:42Z</time>
      </trkpt>
      <trkpt lat="44.80847" lon="6.57394">
        <ele>1194.2</ele>
        <time>2022-07-19T18:53:43Z</time>
      </trkpt>
      <trkpt lat="44.80848" lon="6.57395">
        <ele>1194.2</ele>
        <time>2022-07-19T18:53:44Z</time>
      </trkpt>
      <trkpt lat="44.8085" lon="6.57396">
        <ele>1194.2</ele>
        <time>2022-07-19T18:53:45Z</time>
      </trkpt>
      <trkpt lat="44.80851" lon="6.57398">
        <ele>1194.6</ele>
        <time>2022-07-19T18:53:46Z</time>
      </trkpt>
      <trkpt lat="44.80853" lon="6.57399">
        <ele>1194.6</ele>
        <time>2022-07-19T18:53:47Z</time>
      </trkpt>
      <trkpt lat="44.80854" lon="6.574">
        <ele>1194.8</ele>
        <time>2022-07-19T18:53:48Z</time>
      </trkpt>
      <trkpt lat="44.80855" lon="6.57402">
        <ele>1194.8</ele>
        <time>2022-07-19T18:53:49Z</time>
      </trkpt>
      <trkpt lat="44.80857" lon="6.57403">
        <ele>1195</ele>
        <time>2022-07-19T18:53:50Z</time>
      </trkpt>
      <trkpt lat="44.80858" lon="6.57404">
        <ele>1195</ele>
        <time>2022-07-19T18:53:51Z</time>
      </trkpt>
      <trkpt lat="44.8086" lon="6.57406">
        <ele>1195</ele>
        <time>2022-07-19T18:53:52Z</time>
      </trkpt>
      <trkpt lat="44.80862" lon="6.57407">
        <ele>1195.2</ele>
        <time>2022-07-19T18:53:53Z</time>
      </trkpt>
      <trkpt lat="44.80863" lon="6.57408">
        <ele>1195.2</ele>
        <time>2022-07-19T18:53:54Z</time>
      </trkpt>
      <trkpt lat="44.80865" lon="6.5741">
        <ele>1195.4</ele>
        <time>2022-07-19T18:53:55Z</time>
      </trkpt>
      <trkpt lat="44.80867" lon="6.57411">
        <ele>1195.4</ele>
        <time>2022-07-19T18:53:56Z</time>
      </trkpt>
      <trkpt lat="44.80868" lon="6.57412">
        <ele>1195.4</ele>
        <time>2022-07-19T18:53:57Z</time>
      </trkpt>
      <trkpt lat="44.8087" lon="6.57412">
        <ele>1195.8</ele>
        <time>2022-07-19T18:53:58Z</time>
      </trkpt>
      <trkpt lat="44.80872" lon="6.57413">
        <ele>1195.8</ele>
        <time>2022-07-19T18:53:59Z</time>
      </trkpt>
      <trkpt lat="44.80874" lon="6.57414">
        <ele>1196</ele>
        <time>2022-07-19T18:54:00Z</time>
      </trkpt>
      <trkpt lat="44.80876" lon="6.57415">
        <ele>1196</ele>
        <time>2022-07-19T18:54:01Z</time>
      </trkpt>
      <trkpt lat="44.80878" lon="6.57416">
        <ele>1196.2</ele>
        <time>2022-07-19T18:54:02Z</time>
      </trkpt>
      <trkpt lat="44.8088" lon="6.57417">
        <ele>1196.2</ele>
        <time>2022-07-19T18:54:03Z</time>
      </trkpt>
      <trkpt lat="44.80882" lon="6.57417">
        <ele>1196.6</ele>
        <time>2022-07-19T18:54:04Z</time>
      </trkpt>
      <trkpt lat="44.80884" lon="6.57418">
        <ele>1196.6</ele>
        <time>2022-07-19T18:54:05Z</time>
      </trkpt>
      <trkpt lat="44.80886" lon="6.57418">
        <ele>1196.6</ele>
        <time>2022-07-19T18:54:06Z</time>
      </trkpt>
      <trkpt lat="44.80888" lon="6.57419">
        <ele>1196.8</ele>
        <time>2022-07-19T18:54:07Z</time>
      </trkpt>
      <trkpt lat="44.80891" lon="6.57419">
        <ele>1197.2</ele>
        <time>2022-07-19T18:54:08Z</time>
      </trkpt>
      <trkpt lat="44.80893" lon="6.57419">
        <ele>1197.2</ele>
        <time>2022-07-19T18:54:09Z</time>
      </trkpt>
      <trkpt lat="44.80895" lon="6.57419">
        <ele>1197.4</ele>
        <time>2022-07-19T18:54:10Z</time>
      </trkpt>
      <trkpt lat="44.80897" lon="6.57419">
        <ele>1197.4</ele>
        <time>2022-07-19T18:54:11Z</time>
      </trkpt>
      <trkpt lat="44.80899" lon="6.57419">
        <ele>1197.6</ele>
        <time>2022-07-19T18:54:12Z</time>
      </trkpt>
      <trkpt lat="44.80901" lon="6.57419">
        <ele>1197.6</ele>
        <time>2022-07-19T18:54:13Z</time>
      </trkpt>
      <trkpt lat="44.80903" lon="6.57419">
        <ele>1197.8</ele>
        <time>2022-07-19T18:54:14Z</time>
      </trkpt>
      <trkpt lat="44.80905" lon="6.57419">
        <ele>1197.8</ele>
        <time>2022-07-19T18:54:15Z</time>
      </trkpt>
      <trkpt lat="44.80908" lon="6.57419">
        <ele>1198.2</ele>
        <time>2022-07-19T18:54:16Z</time>
      </trkpt>
      <trkpt lat="44.8091" lon="6.57419">
        <ele>1198.2</ele>
        <time>2022-07-19T18:54:17Z</time>
      </trkpt>
      <trkpt lat="44.80913" lon="6.57419">
        <ele>1198.4</ele>
        <time>2022-07-19T18:54:18Z</time>
      </trkpt>
      <trkpt lat="44.80915" lon="6.57419">
        <ele>1198.4</ele>
        <time>2022-07-19T18:54:19Z</time>
      </trkpt>
      <trkpt lat="44.80917" lon="6.57418">
        <ele>1198.4</ele>
        <time>2022-07-19T18:54:20Z</time>
      </trkpt>
      <trkpt lat="44.8092" lon="6.57418">
        <ele>1198.6</ele>
        <time>2022-07-19T18:54:21Z</time>
      </trkpt>
      <trkpt lat="44.80923" lon="6.57417">
        <ele>1198.6</ele>
        <time>2022-07-19T18:54:22Z</time>
      </trkpt>
      <trkpt lat="44.80925" lon="6.57417">
        <ele>1198.6</ele>
        <time>2022-07-19T18:54:23Z</time>
      </trkpt>
      <trkpt lat="44.80928" lon="6.57417">
        <ele>1198.6</ele>
        <time>2022-07-19T18:54:24Z</time>
      </trkpt>
      <trkpt lat="44.8093" lon="6.57417">
        <ele>1198.8</ele>
        <time>2022-07-19T18:54:25Z</time>
      </trkpt>
      <trkpt lat="44.80933" lon="6.57417">
        <ele>1198.8</ele>
        <time>2022-07-19T18:54:26Z</time>
      </trkpt>
      <trkpt lat="44.80935" lon="6.57416">
        <ele>1198.8</ele>
        <time>2022-07-19T18:54:27Z</time>
      </trkpt>
      <trkpt lat="44.80938" lon="6.57416">
        <ele>1199</ele>
        <time>2022-07-19T18:54:28Z</time>
      </trkpt>
      <trkpt lat="44.8094" lon="6.57416">
        <ele>1199</ele>
        <time>2022-07-19T18:54:29Z</time>
      </trkpt>
      <trkpt lat="44.80942" lon="6.57415">
        <ele>1199.4</ele>
        <time>2022-07-19T18:54:30Z</time>
      </trkpt>
      <trkpt lat="44.80944" lon="6.57414">
        <ele>1199.4</ele>
        <time>2022-07-19T18:54:31Z</time>
      </trkpt>
      <trkpt lat="44.80946" lon="6.57413">
        <ele>1199.6</ele>
        <time>2022-07-19T18:54:32Z</time>
      </trkpt>
      <trkpt lat="44.80949" lon="6.57412">
        <ele>1199.6</ele>
        <time>2022-07-19T18:54:33Z</time>
      </trkpt>
      <trkpt lat="44.80951" lon="6.57411">
        <ele>1199.6</ele>
        <time>2022-07-19T18:54:34Z</time>
      </trkpt>
      <trkpt lat="44.80954" lon="6.57411">
        <ele>1199.6</ele>
        <time>2022-07-19T18:54:35Z</time>
      </trkpt>
      <trkpt lat="44.80957" lon="6.5741">
        <ele>1200</ele>
        <time>2022-07-19T18:54:36Z</time>
      </trkpt>
      <trkpt lat="44.80959" lon="6.57409">
        <ele>1200</ele>
        <time>2022-07-19T18:54:37Z</time>
      </trkpt>
      <trkpt lat="44.80962" lon="6.57408">
        <ele>1200.2</ele>
        <time>2022-07-19T18:54:38Z</time>
      </trkpt>
      <trkpt lat="44.80964" lon="6.57407">
        <ele>1200.2</ele>
        <time>2022-07-19T18:54:39Z</time>
      </trkpt>
      <trkpt lat="44.80967" lon="6.57406">
        <ele>1200.4</ele>
        <time>2022-07-19T18:54:40Z</time>
      </trkpt>
      <trkpt lat="44.8097" lon="6.57405">
        <ele>1200.4</ele>
        <time>2022-07-19T18:54:41Z</time>
      </trkpt>
      <trkpt lat="44.80972" lon="6.57405">
        <ele>1200.4</ele>
        <time>2022-07-19T18:54:42Z</time>
      </trkpt>
      <trkpt lat="44.80975" lon="6.57404">
        <ele>1200.4</ele>
        <time>2022-07-19T18:54:43Z</time>
      </trkpt>
      <trkpt lat="44.80978" lon="6.57403">
        <ele>1200.8</ele>
        <time>2022-07-19T18:54:44Z</time>
      </trkpt>
      <trkpt lat="44.80981" lon="6.57402">
        <ele>1200.8</ele>
        <time>2022-07-19T18:54:45Z</time>
      </trkpt>
      <trkpt lat="44.80984" lon="6.57402">
        <ele>1200.8</ele>
        <time>2022-07-19T18:54:46Z</time>
      </trkpt>
      <trkpt lat="44.80987" lon="6.57401">
        <ele>1200.8</ele>
        <time>2022-07-19T18:54:47Z</time>
      </trkpt>
      <trkpt lat="44.8099" lon="6.574">
        <ele>1200.8</ele>
        <time>2022-07-19T18:54:48Z</time>
      </trkpt>
      <trkpt lat="44.80993" lon="6.57399">
        <ele>1200.8</ele>
        <time>2022-07-19T18:54:49Z</time>
      </trkpt>
      <trkpt lat="44.80997" lon="6.57398">
        <ele>1200.8</ele>
        <time>2022-07-19T18:54:50Z</time>
      </trkpt>
      <trkpt lat="44.81" lon="6.57398">
        <ele>1200.8</ele>
        <time>2022-07-19T18:54:51Z</time>
      </trkpt>
      <trkpt lat="44.81003" lon="6.57398">
        <ele>1201</ele>
        <time>2022-07-19T18:54:52Z</time>
      </trkpt>
      <trkpt lat="44.81006" lon="6.57397">
        <ele>1201</ele>
        <time>2022-07-19T18:54:53Z</time>
      </trkpt>
      <trkpt lat="44.8101" lon="6.57398">
        <ele>1201</ele>
        <time>2022-07-19T18:54:54Z</time>
      </trkpt>
      <trkpt lat="44.81013" lon="6.57398">
        <ele>1201</ele>
        <time>2022-07-19T18:54:55Z</time>
      </trkpt>
      <trkpt lat="44.81017" lon="6.57399">
        <ele>1201</ele>
        <time>2022-07-19T18:54:56Z</time>
      </trkpt>
      <trkpt lat="44.8102" lon="6.574">
        <ele>1201</ele>
        <time>2022-07-19T18:54:57Z</time>
      </trkpt>
      <trkpt lat="44.81024" lon="6.574">
        <ele>1201.2</ele>
        <time>2022-07-19T18:54:58Z</time>
      </trkpt>
      <trkpt lat="44.81027" lon="6.57401">
        <ele>1201.2</ele>
        <time>2022-07-19T18:54:59Z</time>
      </trkpt>
      <trkpt lat="44.8103" lon="6.57402">
        <ele>1201.6</ele>
        <time>2022-07-19T18:55:00Z</time>
      </trkpt>
      <trkpt lat="44.81033" lon="6.57403">
        <ele>1201.6</ele>
        <time>2022-07-19T18:55:01Z</time>
      </trkpt>
      <trkpt lat="44.81036" lon="6.57404">
        <ele>1201.8</ele>
        <time>2022-07-19T18:55:02Z</time>
      </trkpt>
      <trkpt lat="44.81038" lon="6.57405">
        <ele>1202</ele>
        <time>2022-07-19T18:55:03Z</time>
      </trkpt>
      <trkpt lat="44.81041" lon="6.57407">
        <ele>1202.2</ele>
        <time>2022-07-19T18:55:04Z</time>
      </trkpt>
      <trkpt lat="44.81043" lon="6.57407">
        <ele>1202.2</ele>
        <time>2022-07-19T18:55:05Z</time>
      </trkpt>
      <trkpt lat="44.81045" lon="6.57408">
        <ele>1202.2</ele>
        <time>2022-07-19T18:55:06Z</time>
      </trkpt>
      <trkpt lat="44.81047" lon="6.57409">
        <ele>1202.6</ele>
        <time>2022-07-19T18:55:07Z</time>
      </trkpt>
      <trkpt lat="44.81049" lon="6.5741">
        <ele>1202.6</ele>
        <time>2022-07-19T18:55:08Z</time>
      </trkpt>
      <trkpt lat="44.81052" lon="6.57411">
        <ele>1202.8</ele>
        <time>2022-07-19T18:55:09Z</time>
      </trkpt>
      <trkpt lat="44.81054" lon="6.57411">
        <ele>1202.8</ele>
        <time>2022-07-19T18:55:10Z</time>
      </trkpt>
      <trkpt lat="44.81056" lon="6.57412">
        <ele>1202.8</ele>
        <time>2022-07-19T18:55:11Z</time>
      </trkpt>
      <trkpt lat="44.81058" lon="6.57413">
        <ele>1203</ele>
        <time>2022-07-19T18:55:12Z</time>
      </trkpt>
      <trkpt lat="44.8106" lon="6.57414">
        <ele>1203</ele>
        <time>2022-07-19T18:55:13Z</time>
      </trkpt>
      <trkpt lat="44.81062" lon="6.57415">
        <ele>1203.2</ele>
        <time>2022-07-19T18:55:14Z</time>
      </trkpt>
      <trkpt lat="44.81064" lon="6.57416">
        <ele>1203.4</ele>
        <time>2022-07-19T18:55:15Z</time>
      </trkpt>
      <trkpt lat="44.81066" lon="6.57416">
        <ele>1203.4</ele>
        <time>2022-07-19T18:55:16Z</time>
      </trkpt>
      <trkpt lat="44.81068" lon="6.57417">
        <ele>1203.8</ele>
        <time>2022-07-19T18:55:17Z</time>
      </trkpt>
      <trkpt lat="44.8107" lon="6.57418">
        <ele>1204</ele>
        <time>2022-07-19T18:55:18Z</time>
      </trkpt>
      <trkpt lat="44.81072" lon="6.57419">
        <ele>1204.4</ele>
        <time>2022-07-19T18:55:19Z</time>
      </trkpt>
      <trkpt lat="44.81074" lon="6.57419">
        <ele>1204.4</ele>
        <time>2022-07-19T18:55:20Z</time>
      </trkpt>
      <trkpt lat="44.81076" lon="6.5742">
        <ele>1204.6</ele>
        <time>2022-07-19T18:55:21Z</time>
      </trkpt>
      <trkpt lat="44.81078" lon="6.5742">
        <ele>1204.8</ele>
        <time>2022-07-19T18:55:22Z</time>
      </trkpt>
      <trkpt lat="44.8108" lon="6.5742">
        <ele>1205.2</ele>
        <time>2022-07-19T18:55:23Z</time>
      </trkpt>
      <trkpt lat="44.81082" lon="6.57421">
        <ele>1205.2</ele>
        <time>2022-07-19T18:55:24Z</time>
      </trkpt>
      <trkpt lat="44.81083" lon="6.57421">
        <ele>1205.4</ele>
        <time>2022-07-19T18:55:25Z</time>
      </trkpt>
      <trkpt lat="44.81085" lon="6.57422">
        <ele>1205.4</ele>
        <time>2022-07-19T18:55:26Z</time>
      </trkpt>
      <trkpt lat="44.81087" lon="6.57423">
        <ele>1205.4</ele>
        <time>2022-07-19T18:55:27Z</time>
      </trkpt>
      <trkpt lat="44.81089" lon="6.57423">
        <ele>1205.4</ele>
        <time>2022-07-19T18:55:28Z</time>
      </trkpt>
      <trkpt lat="44.81091" lon="6.57424">
        <ele>1205.4</ele>
        <time>2022-07-19T18:55:29Z</time>
      </trkpt>
      <trkpt lat="44.81094" lon="6.57425">
        <ele>1205.8</ele>
        <time>2022-07-19T18:55:30Z</time>
      </trkpt>
      <trkpt lat="44.81096" lon="6.57425">
        <ele>1205.8</ele>
        <time>2022-07-19T18:55:31Z</time>
      </trkpt>
      <trkpt lat="44.81098" lon="6.57426">
        <ele>1206</ele>
        <time>2022-07-19T18:55:32Z</time>
      </trkpt>
      <trkpt lat="44.811" lon="6.57427">
        <ele>1206</ele>
        <time>2022-07-19T18:55:33Z</time>
      </trkpt>
      <trkpt lat="44.81102" lon="6.57427">
        <ele>1206.2</ele>
        <time>2022-07-19T18:55:34Z</time>
      </trkpt>
      <trkpt lat="44.81104" lon="6.57428">
        <ele>1206.2</ele>
        <time>2022-07-19T18:55:35Z</time>
      </trkpt>
      <trkpt lat="44.81106" lon="6.57429">
        <ele>1206.4</ele>
        <time>2022-07-19T18:55:36Z</time>
      </trkpt>
      <trkpt lat="44.81109" lon="6.57429">
        <ele>1206.4</ele>
        <time>2022-07-19T18:55:37Z</time>
      </trkpt>
      <trkpt lat="44.81111" lon="6.5743">
        <ele>1206.6</ele>
        <time>2022-07-19T18:55:38Z</time>
      </trkpt>
      <trkpt lat="44.81113" lon="6.57431">
        <ele>1206.6</ele>
        <time>2022-07-19T18:55:39Z</time>
      </trkpt>
      <trkpt lat="44.81116" lon="6.57431">
        <ele>1206.6</ele>
        <time>2022-07-19T18:55:40Z</time>
      </trkpt>
      <trkpt lat="44.81118" lon="6.57432">
        <ele>1206.6</ele>
        <time>2022-07-19T18:55:41Z</time>
      </trkpt>
      <trkpt lat="44.8112" lon="6.57433">
        <ele>1206.6</ele>
        <time>2022-07-19T18:55:42Z</time>
      </trkpt>
      <trkpt lat="44.81123" lon="6.57434">
        <ele>1206.6</ele>
        <time>2022-07-19T18:55:43Z</time>
      </trkpt>
      <trkpt lat="44.81126" lon="6.57435">
        <ele>1206.6</ele>
        <time>2022-07-19T18:55:44Z</time>
      </trkpt>
      <trkpt lat="44.81128" lon="6.57436">
        <ele>1206.6</ele>
        <time>2022-07-19T18:55:45Z</time>
      </trkpt>
      <trkpt lat="44.81131" lon="6.57436">
        <ele>1206.8</ele>
        <time>2022-07-19T18:55:46Z</time>
      </trkpt>
      <trkpt lat="44.81134" lon="6.57437">
        <ele>1206.8</ele>
        <time>2022-07-19T18:55:47Z</time>
      </trkpt>
      <trkpt lat="44.81137" lon="6.57438">
        <ele>1206.8</ele>
        <time>2022-07-19T18:55:48Z</time>
      </trkpt>
      <trkpt lat="44.8114" lon="6.57439">
        <ele>1206.8</ele>
        <time>2022-07-19T18:55:49Z</time>
      </trkpt>
      <trkpt lat="44.81143" lon="6.57439">
        <ele>1206.8</ele>
        <time>2022-07-19T18:55:50Z</time>
      </trkpt>
      <trkpt lat="44.81146" lon="6.5744">
        <ele>1206.8</ele>
        <time>2022-07-19T18:55:51Z</time>
      </trkpt>
      <trkpt lat="44.81149" lon="6.57441">
        <ele>1206.8</ele>
        <time>2022-07-19T18:55:52Z</time>
      </trkpt>
      <trkpt lat="44.81152" lon="6.57443">
        <ele>1206.8</ele>
        <time>2022-07-19T18:55:53Z</time>
      </trkpt>
      <trkpt lat="44.81156" lon="6.57444">
        <ele>1206.8</ele>
        <time>2022-07-19T18:55:54Z</time>
      </trkpt>
      <trkpt lat="44.81159" lon="6.57445">
        <ele>1206.8</ele>
        <time>2022-07-19T18:55:55Z</time>
      </trkpt>
      <trkpt lat="44.81163" lon="6.57447">
        <ele>1206.8</ele>
        <time>2022-07-19T18:55:56Z</time>
      </trkpt>
      <trkpt lat="44.81166" lon="6.57449">
        <ele>1206.8</ele>
        <time>2022-07-19T18:55:57Z</time>
      </trkpt>
      <trkpt lat="44.8117" lon="6.57451">
        <ele>1206.8</ele>
        <time>2022-07-19T18:55:58Z</time>
      </trkpt>
      <trkpt lat="44.81173" lon="6.57454">
        <ele>1206.8</ele>
        <time>2022-07-19T18:55:59Z</time>
      </trkpt>
      <trkpt lat="44.81177" lon="6.57457">
        <ele>1206.8</ele>
        <time>2022-07-19T18:56:00Z</time>
      </trkpt>
      <trkpt lat="44.8118" lon="6.57461">
        <ele>1206.8</ele>
        <time>2022-07-19T18:56:01Z</time>
      </trkpt>
      <trkpt lat="44.81183" lon="6.57465">
        <ele>1206.8</ele>
        <time>2022-07-19T18:56:02Z</time>
      </trkpt>
      <trkpt lat="44.81186" lon="6.57469">
        <ele>1207.2</ele>
        <time>2022-07-19T18:56:03Z</time>
      </trkpt>
      <trkpt lat="44.81189" lon="6.57473">
        <ele>1207.2</ele>
        <time>2022-07-19T18:56:04Z</time>
      </trkpt>
      <trkpt lat="44.81191" lon="6.57477">
        <ele>1207.2</ele>
        <time>2022-07-19T18:56:05Z</time>
      </trkpt>
      <trkpt lat="44.81194" lon="6.57481">
        <ele>1207.2</ele>
        <time>2022-07-19T18:56:06Z</time>
      </trkpt>
      <trkpt lat="44.81197" lon="6.57484">
        <ele>1207.2</ele>
        <time>2022-07-19T18:56:07Z</time>
      </trkpt>
      <trkpt lat="44.81199" lon="6.57487">
        <ele>1206.8</ele>
        <time>2022-07-19T18:56:08Z</time>
      </trkpt>
      <trkpt lat="44.81201" lon="6.5749">
        <ele>1206.8</ele>
        <time>2022-07-19T18:56:09Z</time>
      </trkpt>
      <trkpt lat="44.81203" lon="6.57493">
        <ele>1206.6</ele>
        <time>2022-07-19T18:56:10Z</time>
      </trkpt>
      <trkpt lat="44.81206" lon="6.57496">
        <ele>1206.6</ele>
        <time>2022-07-19T18:56:11Z</time>
      </trkpt>
      <trkpt lat="44.81208" lon="6.57499">
        <ele>1206.6</ele>
        <time>2022-07-19T18:56:12Z</time>
      </trkpt>
      <trkpt lat="44.81211" lon="6.57503">
        <ele>1206.6</ele>
        <time>2022-07-19T18:56:13Z</time>
      </trkpt>
      <trkpt lat="44.81214" lon="6.57506">
        <ele>1206.2</ele>
        <time>2022-07-19T18:56:14Z</time>
      </trkpt>
      <trkpt lat="44.81217" lon="6.57509">
        <ele>1206.2</ele>
        <time>2022-07-19T18:56:15Z</time>
      </trkpt>
      <trkpt lat="44.8122" lon="6.57513">
        <ele>1206.2</ele>
        <time>2022-07-19T18:56:16Z</time>
      </trkpt>
      <trkpt lat="44.81224" lon="6.57516">
        <ele>1206.2</ele>
        <time>2022-07-19T18:56:17Z</time>
      </trkpt>
      <trkpt lat="44.81227" lon="6.57518">
        <ele>1206.2</ele>
        <time>2022-07-19T18:56:18Z</time>
      </trkpt>
      <trkpt lat="44.81231" lon="6.57521">
        <ele>1206.2</ele>
        <time>2022-07-19T18:56:19Z</time>
      </trkpt>
      <trkpt lat="44.81235" lon="6.57523">
        <ele>1206.2</ele>
        <time>2022-07-19T18:56:20Z</time>
      </trkpt>
      <trkpt lat="44.81238" lon="6.57526">
        <ele>1206.2</ele>
        <time>2022-07-19T18:56:21Z</time>
      </trkpt>
      <trkpt lat="44.81242" lon="6.57528">
        <ele>1206.2</ele>
        <time>2022-07-19T18:56:22Z</time>
      </trkpt>
      <trkpt lat="44.81246" lon="6.5753">
        <ele>1206</ele>
        <time>2022-07-19T18:56:23Z</time>
      </trkpt>
      <trkpt lat="44.8125" lon="6.57532">
        <ele>1206</ele>
        <time>2022-07-19T18:56:24Z</time>
      </trkpt>
      <trkpt lat="44.81253" lon="6.57534">
        <ele>1206</ele>
        <time>2022-07-19T18:56:25Z</time>
      </trkpt>
      <trkpt lat="44.81257" lon="6.57536">
        <ele>1206</ele>
        <time>2022-07-19T18:56:26Z</time>
      </trkpt>
      <trkpt lat="44.8126" lon="6.57537">
        <ele>1206</ele>
        <time>2022-07-19T18:56:27Z</time>
      </trkpt>
      <trkpt lat="44.81263" lon="6.57539">
        <ele>1206</ele>
        <time>2022-07-19T18:56:28Z</time>
      </trkpt>
      <trkpt lat="44.81266" lon="6.5754">
        <ele>1206</ele>
        <time>2022-07-19T18:56:29Z</time>
      </trkpt>
      <trkpt lat="44.8127" lon="6.57541">
        <ele>1206.2</ele>
        <time>2022-07-19T18:56:30Z</time>
      </trkpt>
      <trkpt lat="44.81273" lon="6.57543">
        <ele>1206.2</ele>
        <time>2022-07-19T18:56:31Z</time>
      </trkpt>
      <trkpt lat="44.81276" lon="6.57544">
        <ele>1206.6</ele>
        <time>2022-07-19T18:56:32Z</time>
      </trkpt>
      <trkpt lat="44.81279" lon="6.57545">
        <ele>1206.6</ele>
        <time>2022-07-19T18:56:33Z</time>
      </trkpt>
      <trkpt lat="44.81283" lon="6.57546">
        <ele>1207</ele>
        <time>2022-07-19T18:56:34Z</time>
      </trkpt>
      <trkpt lat="44.81286" lon="6.57546">
        <ele>1207.2</ele>
        <time>2022-07-19T18:56:35Z</time>
      </trkpt>
      <trkpt lat="44.81289" lon="6.57547">
        <ele>1207.2</ele>
        <time>2022-07-19T18:56:36Z</time>
      </trkpt>
      <trkpt lat="44.81292" lon="6.57548">
        <ele>1207.4</ele>
        <time>2022-07-19T18:56:37Z</time>
      </trkpt>
      <trkpt lat="44.81296" lon="6.57548">
        <ele>1207.6</ele>
        <time>2022-07-19T18:56:38Z</time>
      </trkpt>
      <trkpt lat="44.81299" lon="6.57549">
        <ele>1207.6</ele>
        <time>2022-07-19T18:56:39Z</time>
      </trkpt>
      <trkpt lat="44.81302" lon="6.57549">
        <ele>1207.8</ele>
        <time>2022-07-19T18:56:40Z</time>
      </trkpt>
      <trkpt lat="44.81305" lon="6.57549">
        <ele>1207.8</ele>
        <time>2022-07-19T18:56:41Z</time>
      </trkpt>
      <trkpt lat="44.81308" lon="6.5755">
        <ele>1208.2</ele>
        <time>2022-07-19T18:56:42Z</time>
      </trkpt>
      <trkpt lat="44.81311" lon="6.5755">
        <ele>1208.2</ele>
        <time>2022-07-19T18:56:43Z</time>
      </trkpt>
      <trkpt lat="44.81314" lon="6.57551">
        <ele>1208.2</ele>
        <time>2022-07-19T18:56:44Z</time>
      </trkpt>
      <trkpt lat="44.81317" lon="6.57551">
        <ele>1208.4</ele>
        <time>2022-07-19T18:56:45Z</time>
      </trkpt>
      <trkpt lat="44.81321" lon="6.57552">
        <ele>1208.4</ele>
        <time>2022-07-19T18:56:46Z</time>
      </trkpt>
      <trkpt lat="44.81324" lon="6.57552">
        <ele>1208.4</ele>
        <time>2022-07-19T18:56:47Z</time>
      </trkpt>
      <trkpt lat="44.81328" lon="6.57552">
        <ele>1208.4</ele>
        <time>2022-07-19T18:56:48Z</time>
      </trkpt>
      <trkpt lat="44.81331" lon="6.57552">
        <ele>1208.4</ele>
        <time>2022-07-19T18:56:49Z</time>
      </trkpt>
      <trkpt lat="44.81335" lon="6.57553">
        <ele>1208.4</ele>
        <time>2022-07-19T18:56:50Z</time>
      </trkpt>
      <trkpt lat="44.81338" lon="6.57553">
        <ele>1208.4</ele>
        <time>2022-07-19T18:56:51Z</time>
      </trkpt>
      <trkpt lat="44.81342" lon="6.57553">
        <ele>1208.4</ele>
        <time>2022-07-19T18:56:52Z</time>
      </trkpt>
      <trkpt lat="44.81345" lon="6.57553">
        <ele>1208.4</ele>
        <time>2022-07-19T18:56:53Z</time>
      </trkpt>
      <trkpt lat="44.81348" lon="6.57554">
        <ele>1208.4</ele>
        <time>2022-07-19T18:56:54Z</time>
      </trkpt>
      <trkpt lat="44.81352" lon="6.57554">
        <ele>1208.4</ele>
        <time>2022-07-19T18:56:55Z</time>
      </trkpt>
      <trkpt lat="44.81355" lon="6.57554">
        <ele>1208.8</ele>
        <time>2022-07-19T18:56:56Z</time>
      </trkpt>
      <trkpt lat="44.81357" lon="6.57554">
        <ele>1208.8</ele>
        <time>2022-07-19T18:56:57Z</time>
      </trkpt>
      <trkpt lat="44.8136" lon="6.57554">
        <ele>1209</ele>
        <time>2022-07-19T18:56:58Z</time>
      </trkpt>
      <trkpt lat="44.81362" lon="6.57554">
        <ele>1209</ele>
        <time>2022-07-19T18:56:59Z</time>
      </trkpt>
      <trkpt lat="44.81365" lon="6.57554">
        <ele>1209</ele>
        <time>2022-07-19T18:57:00Z</time>
      </trkpt>
      <trkpt lat="44.81367" lon="6.57554">
        <ele>1209.4</ele>
        <time>2022-07-19T18:57:01Z</time>
      </trkpt>
      <trkpt lat="44.8137" lon="6.57554">
        <ele>1209.8</ele>
        <time>2022-07-19T18:57:02Z</time>
      </trkpt>
      <trkpt lat="44.81372" lon="6.57554">
        <ele>1210.2</ele>
        <time>2022-07-19T18:57:03Z</time>
      </trkpt>
      <trkpt lat="44.81374" lon="6.57554">
        <ele>1210.4</ele>
        <time>2022-07-19T18:57:04Z</time>
      </trkpt>
      <trkpt lat="44.81377" lon="6.57555">
        <ele>1210.4</ele>
        <time>2022-07-19T18:57:05Z</time>
      </trkpt>
      <trkpt lat="44.81379" lon="6.57555">
        <ele>1211</ele>
        <time>2022-07-19T18:57:06Z</time>
      </trkpt>
      <trkpt lat="44.81382" lon="6.57555">
        <ele>1211.2</ele>
        <time>2022-07-19T18:57:07Z</time>
      </trkpt>
      <trkpt lat="44.81384" lon="6.57556">
        <ele>1211.4</ele>
        <time>2022-07-19T18:57:08Z</time>
      </trkpt>
      <trkpt lat="44.81387" lon="6.57556">
        <ele>1211.6</ele>
        <time>2022-07-19T18:57:09Z</time>
      </trkpt>
      <trkpt lat="44.81389" lon="6.57556">
        <ele>1212</ele>
        <time>2022-07-19T18:57:10Z</time>
      </trkpt>
      <trkpt lat="44.81392" lon="6.57555">
        <ele>1212.4</ele>
        <time>2022-07-19T18:57:11Z</time>
      </trkpt>
      <trkpt lat="44.81394" lon="6.57556">
        <ele>1212.4</ele>
        <time>2022-07-19T18:57:12Z</time>
      </trkpt>
      <trkpt lat="44.81399" lon="6.57556">
        <ele>1212.4</ele>
        <time>2022-07-19T18:57:13Z</time>
      </trkpt>
      <trkpt lat="44.81401" lon="6.57557">
        <ele>1212.4</ele>
        <time>2022-07-19T18:57:14Z</time>
      </trkpt>
      <trkpt lat="44.81404" lon="6.57557">
        <ele>1212.8</ele>
        <time>2022-07-19T18:57:15Z</time>
      </trkpt>
      <trkpt lat="44.81406" lon="6.57558">
        <ele>1212.8</ele>
        <time>2022-07-19T18:57:16Z</time>
      </trkpt>
      <trkpt lat="44.81408" lon="6.57559">
        <ele>1212.8</ele>
        <time>2022-07-19T18:57:17Z</time>
      </trkpt>
      <trkpt lat="44.81411" lon="6.57561">
        <ele>1212.8</ele>
        <time>2022-07-19T18:57:18Z</time>
      </trkpt>
      <trkpt lat="44.81413" lon="6.57562">
        <ele>1213</ele>
        <time>2022-07-19T18:57:19Z</time>
      </trkpt>
      <trkpt lat="44.81416" lon="6.57564">
        <ele>1213</ele>
        <time>2022-07-19T18:57:20Z</time>
      </trkpt>
      <trkpt lat="44.81418" lon="6.57565">
        <ele>1213.2</ele>
        <time>2022-07-19T18:57:21Z</time>
      </trkpt>
      <trkpt lat="44.81421" lon="6.57567">
        <ele>1213.2</ele>
        <time>2022-07-19T18:57:22Z</time>
      </trkpt>
      <trkpt lat="44.81423" lon="6.57569">
        <ele>1213.2</ele>
        <time>2022-07-19T18:57:23Z</time>
      </trkpt>
      <trkpt lat="44.81425" lon="6.57571">
        <ele>1213.2</ele>
        <time>2022-07-19T18:57:24Z</time>
      </trkpt>
      <trkpt lat="44.81428" lon="6.57574">
        <ele>1213.2</ele>
        <time>2022-07-19T18:57:25Z</time>
      </trkpt>
      <trkpt lat="44.8143" lon="6.57576">
        <ele>1213.2</ele>
        <time>2022-07-19T18:57:26Z</time>
      </trkpt>
      <trkpt lat="44.81432" lon="6.57578">
        <ele>1213.2</ele>
        <time>2022-07-19T18:57:27Z</time>
      </trkpt>
      <trkpt lat="44.81434" lon="6.57581">
        <ele>1213.2</ele>
        <time>2022-07-19T18:57:28Z</time>
      </trkpt>
      <trkpt lat="44.81436" lon="6.57584">
        <ele>1213.2</ele>
        <time>2022-07-19T18:57:29Z</time>
      </trkpt>
      <trkpt lat="44.81438" lon="6.57587">
        <ele>1213.2</ele>
        <time>2022-07-19T18:57:30Z</time>
      </trkpt>
      <trkpt lat="44.8144" lon="6.57591">
        <ele>1213.2</ele>
        <time>2022-07-19T18:57:31Z</time>
      </trkpt>
      <trkpt lat="44.81442" lon="6.57594">
        <ele>1213.2</ele>
        <time>2022-07-19T18:57:32Z</time>
      </trkpt>
      <trkpt lat="44.81444" lon="6.57598">
        <ele>1213.2</ele>
        <time>2022-07-19T18:57:33Z</time>
      </trkpt>
      <trkpt lat="44.81446" lon="6.57602">
        <ele>1213.2</ele>
        <time>2022-07-19T18:57:34Z</time>
      </trkpt>
      <trkpt lat="44.81448" lon="6.57605">
        <ele>1213</ele>
        <time>2022-07-19T18:57:35Z</time>
      </trkpt>
      <trkpt lat="44.8145" lon="6.57609">
        <ele>1213</ele>
        <time>2022-07-19T18:57:36Z</time>
      </trkpt>
      <trkpt lat="44.81452" lon="6.57613">
        <ele>1213</ele>
        <time>2022-07-19T18:57:37Z</time>
      </trkpt>
      <trkpt lat="44.81454" lon="6.57617">
        <ele>1212.6</ele>
        <time>2022-07-19T18:57:38Z</time>
      </trkpt>
      <trkpt lat="44.81456" lon="6.5762">
        <ele>1212.6</ele>
        <time>2022-07-19T18:57:39Z</time>
      </trkpt>
      <trkpt lat="44.81458" lon="6.57625">
        <ele>1212.6</ele>
        <time>2022-07-19T18:57:40Z</time>
      </trkpt>
      <trkpt lat="44.81461" lon="6.57629">
        <ele>1212.4</ele>
        <time>2022-07-19T18:57:41Z</time>
      </trkpt>
      <trkpt lat="44.81463" lon="6.57633">
        <ele>1212.4</ele>
        <time>2022-07-19T18:57:42Z</time>
      </trkpt>
      <trkpt lat="44.81466" lon="6.57638">
        <ele>1212.2</ele>
        <time>2022-07-19T18:57:43Z</time>
      </trkpt>
      <trkpt lat="44.81468" lon="6.57642">
        <ele>1212.2</ele>
        <time>2022-07-19T18:57:44Z</time>
      </trkpt>
      <trkpt lat="44.81471" lon="6.57648">
        <ele>1211.8</ele>
        <time>2022-07-19T18:57:45Z</time>
      </trkpt>
      <trkpt lat="44.81474" lon="6.57653">
        <ele>1211.8</ele>
        <time>2022-07-19T18:57:46Z</time>
      </trkpt>
      <trkpt lat="44.81477" lon="6.57659">
        <ele>1211.6</ele>
        <time>2022-07-19T18:57:47Z</time>
      </trkpt>
      <trkpt lat="44.8148" lon="6.57664">
        <ele>1211.4</ele>
        <time>2022-07-19T18:57:48Z</time>
      </trkpt>
      <trkpt lat="44.81483" lon="6.5767">
        <ele>1211.4</ele>
        <time>2022-07-19T18:57:49Z</time>
      </trkpt>
      <trkpt lat="44.81486" lon="6.57675">
        <ele>1211</ele>
        <time>2022-07-19T18:57:50Z</time>
      </trkpt>
      <trkpt lat="44.8149" lon="6.57679">
        <ele>1210.8</ele>
        <time>2022-07-19T18:57:51Z</time>
      </trkpt>
      <trkpt lat="44.81494" lon="6.57684">
        <ele>1210.8</ele>
        <time>2022-07-19T18:57:52Z</time>
      </trkpt>
      <trkpt lat="44.81499" lon="6.57688">
        <ele>1210.8</ele>
        <time>2022-07-19T18:57:53Z</time>
      </trkpt>
      <trkpt lat="44.81503" lon="6.57691">
        <ele>1210.8</ele>
        <time>2022-07-19T18:57:54Z</time>
      </trkpt>
      <trkpt lat="44.81508" lon="6.57694">
        <ele>1211</ele>
        <time>2022-07-19T18:57:55Z</time>
      </trkpt>
      <trkpt lat="44.81513" lon="6.57696">
        <ele>1211</ele>
        <time>2022-07-19T18:57:56Z</time>
      </trkpt>
      <trkpt lat="44.81519" lon="6.57698">
        <ele>1211</ele>
        <time>2022-07-19T18:57:57Z</time>
      </trkpt>
      <trkpt lat="44.81524" lon="6.57699">
        <ele>1211</ele>
        <time>2022-07-19T18:57:58Z</time>
      </trkpt>
      <trkpt lat="44.81529" lon="6.57701">
        <ele>1211</ele>
        <time>2022-07-19T18:57:59Z</time>
      </trkpt>
      <trkpt lat="44.81535" lon="6.57702">
        <ele>1211</ele>
        <time>2022-07-19T18:58:00Z</time>
      </trkpt>
      <trkpt lat="44.8154" lon="6.57703">
        <ele>1211</ele>
        <time>2022-07-19T18:58:01Z</time>
      </trkpt>
      <trkpt lat="44.81545" lon="6.57704">
        <ele>1211</ele>
        <time>2022-07-19T18:58:02Z</time>
      </trkpt>
      <trkpt lat="44.81551" lon="6.57705">
        <ele>1211</ele>
        <time>2022-07-19T18:58:03Z</time>
      </trkpt>
      <trkpt lat="44.81556" lon="6.57706">
        <ele>1211</ele>
        <time>2022-07-19T18:58:04Z</time>
      </trkpt>
      <trkpt lat="44.81561" lon="6.57707">
        <ele>1211</ele>
        <time>2022-07-19T18:58:05Z</time>
      </trkpt>
      <trkpt lat="44.81566" lon="6.57708">
        <ele>1211</ele>
        <time>2022-07-19T18:58:06Z</time>
      </trkpt>
      <trkpt lat="44.81571" lon="6.57709">
        <ele>1211</ele>
        <time>2022-07-19T18:58:07Z</time>
      </trkpt>
      <trkpt lat="44.81576" lon="6.5771">
        <ele>1211</ele>
        <time>2022-07-19T18:58:08Z</time>
      </trkpt>
      <trkpt lat="44.81581" lon="6.57711">
        <ele>1211</ele>
        <time>2022-07-19T18:58:09Z</time>
      </trkpt>
      <trkpt lat="44.81586" lon="6.57711">
        <ele>1210.6</ele>
        <time>2022-07-19T18:58:10Z</time>
      </trkpt>
      <trkpt lat="44.81591" lon="6.57712">
        <ele>1210.6</ele>
        <time>2022-07-19T18:58:11Z</time>
      </trkpt>
      <trkpt lat="44.81596" lon="6.57712">
        <ele>1210.6</ele>
        <time>2022-07-19T18:58:13Z</time>
      </trkpt>
      <trkpt lat="44.81601" lon="6.57712">
        <ele>1210.6</ele>
        <time>2022-07-19T18:58:14Z</time>
      </trkpt>
      <trkpt lat="44.81607" lon="6.57712">
        <ele>1210.6</ele>
        <time>2022-07-19T18:58:15Z</time>
      </trkpt>
      <trkpt lat="44.81612" lon="6.57713">
        <ele>1210.6</ele>
        <time>2022-07-19T18:58:16Z</time>
      </trkpt>
      <trkpt lat="44.81617" lon="6.57713">
        <ele>1210.6</ele>
        <time>2022-07-19T18:58:17Z</time>
      </trkpt>
      <trkpt lat="44.81622" lon="6.57714">
        <ele>1211</ele>
        <time>2022-07-19T18:58:18Z</time>
      </trkpt>
      <trkpt lat="44.81627" lon="6.57714">
        <ele>1211</ele>
        <time>2022-07-19T18:58:19Z</time>
      </trkpt>
      <trkpt lat="44.81632" lon="6.57715">
        <ele>1211</ele>
        <time>2022-07-19T18:58:20Z</time>
      </trkpt>
      <trkpt lat="44.81637" lon="6.57716">
        <ele>1210.8</ele>
        <time>2022-07-19T18:58:21Z</time>
      </trkpt>
      <trkpt lat="44.81641" lon="6.57717">
        <ele>1210.8</ele>
        <time>2022-07-19T18:58:22Z</time>
      </trkpt>
      <trkpt lat="44.81646" lon="6.57719">
        <ele>1210.8</ele>
        <time>2022-07-19T18:58:23Z</time>
      </trkpt>
      <trkpt lat="44.81651" lon="6.5772">
        <ele>1210.8</ele>
        <time>2022-07-19T18:58:24Z</time>
      </trkpt>
      <trkpt lat="44.81656" lon="6.57722">
        <ele>1210.8</ele>
        <time>2022-07-19T18:58:25Z</time>
      </trkpt>
      <trkpt lat="44.81661" lon="6.57723">
        <ele>1210.8</ele>
        <time>2022-07-19T18:58:26Z</time>
      </trkpt>
      <trkpt lat="44.81665" lon="6.57724">
        <ele>1210.8</ele>
        <time>2022-07-19T18:58:27Z</time>
      </trkpt>
      <trkpt lat="44.81669" lon="6.57725">
        <ele>1210.8</ele>
        <time>2022-07-19T18:58:28Z</time>
      </trkpt>
      <trkpt lat="44.81674" lon="6.57726">
        <ele>1210.2</ele>
        <time>2022-07-19T18:58:29Z</time>
      </trkpt>
      <trkpt lat="44.81678" lon="6.57726">
        <ele>1210.2</ele>
        <time>2022-07-19T18:58:30Z</time>
      </trkpt>
      <trkpt lat="44.81683" lon="6.57727">
        <ele>1210.2</ele>
        <time>2022-07-19T18:58:31Z</time>
      </trkpt>
      <trkpt lat="44.81687" lon="6.57728">
        <ele>1210.2</ele>
        <time>2022-07-19T18:58:32Z</time>
      </trkpt>
      <trkpt lat="44.81692" lon="6.57729">
        <ele>1210.2</ele>
        <time>2022-07-19T18:58:33Z</time>
      </trkpt>
      <trkpt lat="44.81697" lon="6.57729">
        <ele>1210.2</ele>
        <time>2022-07-19T18:58:34Z</time>
      </trkpt>
      <trkpt lat="44.81702" lon="6.5773">
        <ele>1210.2</ele>
        <time>2022-07-19T18:58:35Z</time>
      </trkpt>
      <trkpt lat="44.81707" lon="6.57731">
        <ele>1210.2</ele>
        <time>2022-07-19T18:58:36Z</time>
      </trkpt>
      <trkpt lat="44.81712" lon="6.57732">
        <ele>1210.2</ele>
        <time>2022-07-19T18:58:37Z</time>
      </trkpt>
      <trkpt lat="44.81717" lon="6.57734">
        <ele>1210.2</ele>
        <time>2022-07-19T18:58:38Z</time>
      </trkpt>
      <trkpt lat="44.81722" lon="6.57735">
        <ele>1209.8</ele>
        <time>2022-07-19T18:58:39Z</time>
      </trkpt>
      <trkpt lat="44.81727" lon="6.57737">
        <ele>1209.8</ele>
        <time>2022-07-19T18:58:40Z</time>
      </trkpt>
      <trkpt lat="44.81732" lon="6.57739">
        <ele>1209.8</ele>
        <time>2022-07-19T18:58:41Z</time>
      </trkpt>
      <trkpt lat="44.81737" lon="6.57741">
        <ele>1209.8</ele>
        <time>2022-07-19T18:58:42Z</time>
      </trkpt>
      <trkpt lat="44.81743" lon="6.57743">
        <ele>1209.8</ele>
        <time>2022-07-19T18:58:43Z</time>
      </trkpt>
      <trkpt lat="44.81747" lon="6.57745">
        <ele>1209.8</ele>
        <time>2022-07-19T18:58:44Z</time>
      </trkpt>
      <trkpt lat="44.81752" lon="6.57747">
        <ele>1209.8</ele>
        <time>2022-07-19T18:58:45Z</time>
      </trkpt>
      <trkpt lat="44.81757" lon="6.57749">
        <ele>1209.8</ele>
        <time>2022-07-19T18:58:46Z</time>
      </trkpt>
      <trkpt lat="44.81762" lon="6.57752">
        <ele>1209.8</ele>
        <time>2022-07-19T18:58:47Z</time>
      </trkpt>
      <trkpt lat="44.81767" lon="6.57754">
        <ele>1210</ele>
        <time>2022-07-19T18:58:48Z</time>
      </trkpt>
      <trkpt lat="44.81772" lon="6.57756">
        <ele>1210</ele>
        <time>2022-07-19T18:58:49Z</time>
      </trkpt>
      <trkpt lat="44.81777" lon="6.57757">
        <ele>1209.8</ele>
        <time>2022-07-19T18:58:50Z</time>
      </trkpt>
      <trkpt lat="44.81781" lon="6.57759">
        <ele>1209.8</ele>
        <time>2022-07-19T18:58:51Z</time>
      </trkpt>
      <trkpt lat="44.81786" lon="6.5776">
        <ele>1209.8</ele>
        <time>2022-07-19T18:58:52Z</time>
      </trkpt>
      <trkpt lat="44.81791" lon="6.57761">
        <ele>1209.8</ele>
        <time>2022-07-19T18:58:53Z</time>
      </trkpt>
      <trkpt lat="44.81795" lon="6.57763">
        <ele>1209.8</ele>
        <time>2022-07-19T18:58:54Z</time>
      </trkpt>
      <trkpt lat="44.818" lon="6.57764">
        <ele>1209.8</ele>
        <time>2022-07-19T18:58:55Z</time>
      </trkpt>
      <trkpt lat="44.81805" lon="6.57765">
        <ele>1209.8</ele>
        <time>2022-07-19T18:58:56Z</time>
      </trkpt>
      <trkpt lat="44.81809" lon="6.57766">
        <ele>1209.8</ele>
        <time>2022-07-19T18:58:57Z</time>
      </trkpt>
      <trkpt lat="44.81814" lon="6.57767">
        <ele>1209.8</ele>
        <time>2022-07-19T18:58:58Z</time>
      </trkpt>
      <trkpt lat="44.81819" lon="6.57769">
        <ele>1209.8</ele>
        <time>2022-07-19T18:58:59Z</time>
      </trkpt>
      <trkpt lat="44.81824" lon="6.5777">
        <ele>1209.8</ele>
        <time>2022-07-19T18:59:00Z</time>
      </trkpt>
      <trkpt lat="44.81828" lon="6.57772">
        <ele>1209.8</ele>
        <time>2022-07-19T18:59:01Z</time>
      </trkpt>
      <trkpt lat="44.81833" lon="6.57773">
        <ele>1209.8</ele>
        <time>2022-07-19T18:59:02Z</time>
      </trkpt>
      <trkpt lat="44.81838" lon="6.57775">
        <ele>1209.8</ele>
        <time>2022-07-19T18:59:03Z</time>
      </trkpt>
      <trkpt lat="44.81842" lon="6.57777">
        <ele>1209.8</ele>
        <time>2022-07-19T18:59:04Z</time>
      </trkpt>
      <trkpt lat="44.81847" lon="6.57779">
        <ele>1209.6</ele>
        <time>2022-07-19T18:59:05Z</time>
      </trkpt>
      <trkpt lat="44.81851" lon="6.57782">
        <ele>1209.6</ele>
        <time>2022-07-19T18:59:06Z</time>
      </trkpt>
      <trkpt lat="44.81855" lon="6.57785">
        <ele>1209.6</ele>
        <time>2022-07-19T18:59:07Z</time>
      </trkpt>
      <trkpt lat="44.81859" lon="6.57788">
        <ele>1209.6</ele>
        <time>2022-07-19T18:59:08Z</time>
      </trkpt>
      <trkpt lat="44.81863" lon="6.57791">
        <ele>1209.8</ele>
        <time>2022-07-19T18:59:09Z</time>
      </trkpt>
      <trkpt lat="44.81867" lon="6.57795">
        <ele>1209.8</ele>
        <time>2022-07-19T18:59:10Z</time>
      </trkpt>
      <trkpt lat="44.8187" lon="6.57798">
        <ele>1210</ele>
        <time>2022-07-19T18:59:11Z</time>
      </trkpt>
      <trkpt lat="44.81874" lon="6.57801">
        <ele>1210.2</ele>
        <time>2022-07-19T18:59:12Z</time>
      </trkpt>
      <trkpt lat="44.81877" lon="6.57804">
        <ele>1210.4</ele>
        <time>2022-07-19T18:59:13Z</time>
      </trkpt>
      <trkpt lat="44.8188" lon="6.57807">
        <ele>1210.4</ele>
        <time>2022-07-19T18:59:14Z</time>
      </trkpt>
      <trkpt lat="44.81883" lon="6.5781">
        <ele>1210.6</ele>
        <time>2022-07-19T18:59:15Z</time>
      </trkpt>
      <trkpt lat="44.81886" lon="6.57812">
        <ele>1210.6</ele>
        <time>2022-07-19T18:59:16Z</time>
      </trkpt>
      <trkpt lat="44.81889" lon="6.57815">
        <ele>1211</ele>
        <time>2022-07-19T18:59:17Z</time>
      </trkpt>
      <trkpt lat="44.81892" lon="6.57817">
        <ele>1211</ele>
        <time>2022-07-19T18:59:18Z</time>
      </trkpt>
      <trkpt lat="44.81895" lon="6.5782">
        <ele>1211.2</ele>
        <time>2022-07-19T18:59:19Z</time>
      </trkpt>
      <trkpt lat="44.81898" lon="6.57822">
        <ele>1211.2</ele>
        <time>2022-07-19T18:59:20Z</time>
      </trkpt>
      <trkpt lat="44.81901" lon="6.57824">
        <ele>1211.2</ele>
        <time>2022-07-19T18:59:21Z</time>
      </trkpt>
      <trkpt lat="44.81904" lon="6.57826">
        <ele>1211.2</ele>
        <time>2022-07-19T18:59:22Z</time>
      </trkpt>
      <trkpt lat="44.81907" lon="6.57828">
        <ele>1211.2</ele>
        <time>2022-07-19T18:59:23Z</time>
      </trkpt>
      <trkpt lat="44.8191" lon="6.5783">
        <ele>1211.6</ele>
        <time>2022-07-19T18:59:24Z</time>
      </trkpt>
      <trkpt lat="44.81913" lon="6.57832">
        <ele>1211.8</ele>
        <time>2022-07-19T18:59:25Z</time>
      </trkpt>
      <trkpt lat="44.81917" lon="6.57834">
        <ele>1211.8</ele>
        <time>2022-07-19T18:59:26Z</time>
      </trkpt>
      <trkpt lat="44.8192" lon="6.57836">
        <ele>1212</ele>
        <time>2022-07-19T18:59:27Z</time>
      </trkpt>
      <trkpt lat="44.81924" lon="6.57837">
        <ele>1212</ele>
        <time>2022-07-19T18:59:28Z</time>
      </trkpt>
      <trkpt lat="44.81927" lon="6.57838">
        <ele>1212</ele>
        <time>2022-07-19T18:59:29Z</time>
      </trkpt>
      <trkpt lat="44.81931" lon="6.57839">
        <ele>1212.4</ele>
        <time>2022-07-19T18:59:30Z</time>
      </trkpt>
      <trkpt lat="44.81935" lon="6.5784">
        <ele>1212.4</ele>
        <time>2022-07-19T18:59:31Z</time>
      </trkpt>
      <trkpt lat="44.81938" lon="6.5784">
        <ele>1212.4</ele>
        <time>2022-07-19T18:59:32Z</time>
      </trkpt>
      <trkpt lat="44.81942" lon="6.5784">
        <ele>1212.6</ele>
        <time>2022-07-19T18:59:33Z</time>
      </trkpt>
      <trkpt lat="44.81945" lon="6.57841">
        <ele>1212.6</ele>
        <time>2022-07-19T18:59:34Z</time>
      </trkpt>
      <trkpt lat="44.81949" lon="6.57841">
        <ele>1212.6</ele>
        <time>2022-07-19T18:59:35Z</time>
      </trkpt>
      <trkpt lat="44.81952" lon="6.57842">
        <ele>1212.6</ele>
        <time>2022-07-19T18:59:36Z</time>
      </trkpt>
      <trkpt lat="44.81956" lon="6.57842">
        <ele>1212.8</ele>
        <time>2022-07-19T18:59:37Z</time>
      </trkpt>
      <trkpt lat="44.8196" lon="6.57843">
        <ele>1212.8</ele>
        <time>2022-07-19T18:59:38Z</time>
      </trkpt>
      <trkpt lat="44.81963" lon="6.57844">
        <ele>1212.8</ele>
        <time>2022-07-19T18:59:39Z</time>
      </trkpt>
      <trkpt lat="44.81967" lon="6.57844">
        <ele>1212.8</ele>
        <time>2022-07-19T18:59:40Z</time>
      </trkpt>
      <trkpt lat="44.8197" lon="6.57845">
        <ele>1212.8</ele>
        <time>2022-07-19T18:59:41Z</time>
      </trkpt>
      <trkpt lat="44.81974" lon="6.57847">
        <ele>1212.8</ele>
        <time>2022-07-19T18:59:42Z</time>
      </trkpt>
      <trkpt lat="44.81977" lon="6.57848">
        <ele>1213</ele>
        <time>2022-07-19T18:59:43Z</time>
      </trkpt>
      <trkpt lat="44.8198" lon="6.5785">
        <ele>1213</ele>
        <time>2022-07-19T18:59:44Z</time>
      </trkpt>
      <trkpt lat="44.81983" lon="6.57852">
        <ele>1213</ele>
        <time>2022-07-19T18:59:45Z</time>
      </trkpt>
      <trkpt lat="44.81986" lon="6.57854">
        <ele>1213</ele>
        <time>2022-07-19T18:59:46Z</time>
      </trkpt>
      <trkpt lat="44.81989" lon="6.57856">
        <ele>1213.4</ele>
        <time>2022-07-19T18:59:47Z</time>
      </trkpt>
      <trkpt lat="44.81992" lon="6.57857">
        <ele>1213.4</ele>
        <time>2022-07-19T18:59:48Z</time>
      </trkpt>
      <trkpt lat="44.81995" lon="6.57859">
        <ele>1213.4</ele>
        <time>2022-07-19T18:59:49Z</time>
      </trkpt>
      <trkpt lat="44.81998" lon="6.57861">
        <ele>1213.6</ele>
        <time>2022-07-19T18:59:50Z</time>
      </trkpt>
      <trkpt lat="44.82" lon="6.57864">
        <ele>1213.6</ele>
        <time>2022-07-19T18:59:51Z</time>
      </trkpt>
      <trkpt lat="44.82003" lon="6.57866">
        <ele>1213.6</ele>
        <time>2022-07-19T18:59:52Z</time>
      </trkpt>
      <trkpt lat="44.82005" lon="6.57868">
        <ele>1214</ele>
        <time>2022-07-19T18:59:53Z</time>
      </trkpt>
      <trkpt lat="44.82008" lon="6.5787">
        <ele>1214</ele>
        <time>2022-07-19T18:59:54Z</time>
      </trkpt>
      <trkpt lat="44.8201" lon="6.57872">
        <ele>1214.2</ele>
        <time>2022-07-19T18:59:55Z</time>
      </trkpt>
      <trkpt lat="44.82013" lon="6.57874">
        <ele>1214.2</ele>
        <time>2022-07-19T18:59:56Z</time>
      </trkpt>
      <trkpt lat="44.82015" lon="6.57876">
        <ele>1214.2</ele>
        <time>2022-07-19T18:59:57Z</time>
      </trkpt>
      <trkpt lat="44.82018" lon="6.57879">
        <ele>1214.2</ele>
        <time>2022-07-19T18:59:58Z</time>
      </trkpt>
      <trkpt lat="44.82021" lon="6.57881">
        <ele>1214.4</ele>
        <time>2022-07-19T18:59:59Z</time>
      </trkpt>
      <trkpt lat="44.82024" lon="6.57882">
        <ele>1214.4</ele>
        <time>2022-07-19T19:00:00Z</time>
      </trkpt>
      <trkpt lat="44.82027" lon="6.57884">
        <ele>1214.4</ele>
        <time>2022-07-19T19:00:01Z</time>
      </trkpt>
      <trkpt lat="44.8203" lon="6.57885">
        <ele>1214.4</ele>
        <time>2022-07-19T19:00:02Z</time>
      </trkpt>
      <trkpt lat="44.82034" lon="6.57886">
        <ele>1214.8</ele>
        <time>2022-07-19T19:00:03Z</time>
      </trkpt>
      <trkpt lat="44.82037" lon="6.57886">
        <ele>1215</ele>
        <time>2022-07-19T19:00:04Z</time>
      </trkpt>
      <trkpt lat="44.8204" lon="6.57886">
        <ele>1215</ele>
        <time>2022-07-19T19:00:05Z</time>
      </trkpt>
      <trkpt lat="44.82044" lon="6.57886">
        <ele>1215.4</ele>
        <time>2022-07-19T19:00:06Z</time>
      </trkpt>
      <trkpt lat="44.82048" lon="6.57886">
        <ele>1215.4</ele>
        <time>2022-07-19T19:00:07Z</time>
      </trkpt>
      <trkpt lat="44.82051" lon="6.57886">
        <ele>1215.6</ele>
        <time>2022-07-19T19:00:08Z</time>
      </trkpt>
      <trkpt lat="44.82055" lon="6.57886">
        <ele>1215.6</ele>
        <time>2022-07-19T19:00:09Z</time>
      </trkpt>
      <trkpt lat="44.82058" lon="6.57886">
        <ele>1215.6</ele>
        <time>2022-07-19T19:00:10Z</time>
      </trkpt>
      <trkpt lat="44.82062" lon="6.57885">
        <ele>1215.6</ele>
        <time>2022-07-19T19:00:11Z</time>
      </trkpt>
      <trkpt lat="44.82066" lon="6.57884">
        <ele>1215.6</ele>
        <time>2022-07-19T19:00:12Z</time>
      </trkpt>
      <trkpt lat="44.82069" lon="6.57884">
        <ele>1215.6</ele>
        <time>2022-07-19T19:00:13Z</time>
      </trkpt>
      <trkpt lat="44.82073" lon="6.57883">
        <ele>1215.8</ele>
        <time>2022-07-19T19:00:14Z</time>
      </trkpt>
      <trkpt lat="44.82077" lon="6.57882">
        <ele>1215.8</ele>
        <time>2022-07-19T19:00:15Z</time>
      </trkpt>
      <trkpt lat="44.82081" lon="6.57882">
        <ele>1215.8</ele>
        <time>2022-07-19T19:00:16Z</time>
      </trkpt>
      <trkpt lat="44.82085" lon="6.57881">
        <ele>1215.8</ele>
        <time>2022-07-19T19:00:17Z</time>
      </trkpt>
      <trkpt lat="44.82089" lon="6.57881">
        <ele>1216.2</ele>
        <time>2022-07-19T19:00:18Z</time>
      </trkpt>
      <trkpt lat="44.82093" lon="6.57881">
        <ele>1216.2</ele>
        <time>2022-07-19T19:00:19Z</time>
      </trkpt>
      <trkpt lat="44.82097" lon="6.57881">
        <ele>1216.2</ele>
        <time>2022-07-19T19:00:20Z</time>
      </trkpt>
      <trkpt lat="44.82101" lon="6.57881">
        <ele>1216.2</ele>
        <time>2022-07-19T19:00:21Z</time>
      </trkpt>
      <trkpt lat="44.82105" lon="6.57882">
        <ele>1216.6</ele>
        <time>2022-07-19T19:00:22Z</time>
      </trkpt>
      <trkpt lat="44.82108" lon="6.57883">
        <ele>1216.6</ele>
        <time>2022-07-19T19:00:23Z</time>
      </trkpt>
      <trkpt lat="44.82112" lon="6.57883">
        <ele>1216.8</ele>
        <time>2022-07-19T19:00:24Z</time>
      </trkpt>
      <trkpt lat="44.82115" lon="6.57884">
        <ele>1216.8</ele>
        <time>2022-07-19T19:00:25Z</time>
      </trkpt>
      <trkpt lat="44.82119" lon="6.57885">
        <ele>1216.8</ele>
        <time>2022-07-19T19:00:26Z</time>
      </trkpt>
      <trkpt lat="44.82122" lon="6.57886">
        <ele>1216.8</ele>
        <time>2022-07-19T19:00:27Z</time>
      </trkpt>
      <trkpt lat="44.82126" lon="6.57886">
        <ele>1216.8</ele>
        <time>2022-07-19T19:00:28Z</time>
      </trkpt>
      <trkpt lat="44.82129" lon="6.57887">
        <ele>1216.8</ele>
        <time>2022-07-19T19:00:29Z</time>
      </trkpt>
      <trkpt lat="44.82132" lon="6.57888">
        <ele>1216.8</ele>
        <time>2022-07-19T19:00:30Z</time>
      </trkpt>
      <trkpt lat="44.82136" lon="6.57888">
        <ele>1216.8</ele>
        <time>2022-07-19T19:00:31Z</time>
      </trkpt>
      <trkpt lat="44.82139" lon="6.57889">
        <ele>1217</ele>
        <time>2022-07-19T19:00:32Z</time>
      </trkpt>
      <trkpt lat="44.82143" lon="6.57889">
        <ele>1217</ele>
        <time>2022-07-19T19:00:33Z</time>
      </trkpt>
      <trkpt lat="44.82146" lon="6.5789">
        <ele>1217.4</ele>
        <time>2022-07-19T19:00:34Z</time>
      </trkpt>
      <trkpt lat="44.82149" lon="6.5789">
        <ele>1217.4</ele>
        <time>2022-07-19T19:00:35Z</time>
      </trkpt>
      <trkpt lat="44.82153" lon="6.5789">
        <ele>1217.6</ele>
        <time>2022-07-19T19:00:36Z</time>
      </trkpt>
      <trkpt lat="44.82156" lon="6.57889">
        <ele>1217.6</ele>
        <time>2022-07-19T19:00:37Z</time>
      </trkpt>
      <trkpt lat="44.82159" lon="6.57889">
        <ele>1218</ele>
        <time>2022-07-19T19:00:38Z</time>
      </trkpt>
      <trkpt lat="44.82162" lon="6.57889">
        <ele>1218</ele>
        <time>2022-07-19T19:00:39Z</time>
      </trkpt>
      <trkpt lat="44.82166" lon="6.57888">
        <ele>1218</ele>
        <time>2022-07-19T19:00:40Z</time>
      </trkpt>
      <trkpt lat="44.82169" lon="6.57888">
        <ele>1218.2</ele>
        <time>2022-07-19T19:00:41Z</time>
      </trkpt>
      <trkpt lat="44.82172" lon="6.57887">
        <ele>1218.2</ele>
        <time>2022-07-19T19:00:42Z</time>
      </trkpt>
      <trkpt lat="44.82176" lon="6.57887">
        <ele>1218.4</ele>
        <time>2022-07-19T19:00:43Z</time>
      </trkpt>
      <trkpt lat="44.82179" lon="6.57887">
        <ele>1218.4</ele>
        <time>2022-07-19T19:00:44Z</time>
      </trkpt>
      <trkpt lat="44.82183" lon="6.57886">
        <ele>1218.4</ele>
        <time>2022-07-19T19:00:45Z</time>
      </trkpt>
      <trkpt lat="44.82186" lon="6.57886">
        <ele>1218.4</ele>
        <time>2022-07-19T19:00:46Z</time>
      </trkpt>
      <trkpt lat="44.82189" lon="6.57886">
        <ele>1218.4</ele>
        <time>2022-07-19T19:00:47Z</time>
      </trkpt>
      <trkpt lat="44.82193" lon="6.57886">
        <ele>1218.4</ele>
        <time>2022-07-19T19:00:48Z</time>
      </trkpt>
      <trkpt lat="44.82196" lon="6.57886">
        <ele>1218.4</ele>
        <time>2022-07-19T19:00:49Z</time>
      </trkpt>
      <trkpt lat="44.822" lon="6.57886">
        <ele>1218.8</ele>
        <time>2022-07-19T19:00:50Z</time>
      </trkpt>
      <trkpt lat="44.82204" lon="6.57886">
        <ele>1218.8</ele>
        <time>2022-07-19T19:00:51Z</time>
      </trkpt>
      <trkpt lat="44.82207" lon="6.57886">
        <ele>1218.8</ele>
        <time>2022-07-19T19:00:52Z</time>
      </trkpt>
      <trkpt lat="44.8221" lon="6.57886">
        <ele>1218.8</ele>
        <time>2022-07-19T19:00:53Z</time>
      </trkpt>
      <trkpt lat="44.82214" lon="6.57886">
        <ele>1218.8</ele>
        <time>2022-07-19T19:00:54Z</time>
      </trkpt>
      <trkpt lat="44.82217" lon="6.57885">
        <ele>1218.4</ele>
        <time>2022-07-19T19:00:55Z</time>
      </trkpt>
      <trkpt lat="44.82221" lon="6.57885">
        <ele>1218.4</ele>
        <time>2022-07-19T19:00:56Z</time>
      </trkpt>
      <trkpt lat="44.82224" lon="6.57885">
        <ele>1218.4</ele>
        <time>2022-07-19T19:00:57Z</time>
      </trkpt>
      <trkpt lat="44.82228" lon="6.57884">
        <ele>1218.4</ele>
        <time>2022-07-19T19:00:58Z</time>
      </trkpt>
      <trkpt lat="44.82232" lon="6.57884">
        <ele>1218.4</ele>
        <time>2022-07-19T19:00:59Z</time>
      </trkpt>
      <trkpt lat="44.82235" lon="6.57885">
        <ele>1218.4</ele>
        <time>2022-07-19T19:01:00Z</time>
      </trkpt>
      <trkpt lat="44.82239" lon="6.57885">
        <ele>1218.4</ele>
        <time>2022-07-19T19:01:01Z</time>
      </trkpt>
      <trkpt lat="44.82242" lon="6.57885">
        <ele>1218.4</ele>
        <time>2022-07-19T19:01:02Z</time>
      </trkpt>
      <trkpt lat="44.82246" lon="6.57885">
        <ele>1218.8</ele>
        <time>2022-07-19T19:01:03Z</time>
      </trkpt>
      <trkpt lat="44.8225" lon="6.57886">
        <ele>1219</ele>
        <time>2022-07-19T19:01:04Z</time>
      </trkpt>
      <trkpt lat="44.82253" lon="6.57885">
        <ele>1219</ele>
        <time>2022-07-19T19:01:05Z</time>
      </trkpt>
      <trkpt lat="44.82257" lon="6.57886">
        <ele>1219</ele>
        <time>2022-07-19T19:01:06Z</time>
      </trkpt>
      <trkpt lat="44.82261" lon="6.57886">
        <ele>1219</ele>
        <time>2022-07-19T19:01:07Z</time>
      </trkpt>
      <trkpt lat="44.82265" lon="6.57886">
        <ele>1219</ele>
        <time>2022-07-19T19:01:08Z</time>
      </trkpt>
      <trkpt lat="44.82269" lon="6.57887">
        <ele>1219</ele>
        <time>2022-07-19T19:01:09Z</time>
      </trkpt>
      <trkpt lat="44.82273" lon="6.57887">
        <ele>1219</ele>
        <time>2022-07-19T19:01:10Z</time>
      </trkpt>
      <trkpt lat="44.82277" lon="6.57887">
        <ele>1219</ele>
        <time>2022-07-19T19:01:11Z</time>
      </trkpt>
      <trkpt lat="44.82281" lon="6.57888">
        <ele>1219</ele>
        <time>2022-07-19T19:01:12Z</time>
      </trkpt>
      <trkpt lat="44.82285" lon="6.57889">
        <ele>1219.2</ele>
        <time>2022-07-19T19:01:13Z</time>
      </trkpt>
      <trkpt lat="44.82289" lon="6.5789">
        <ele>1219.2</ele>
        <time>2022-07-19T19:01:14Z</time>
      </trkpt>
      <trkpt lat="44.82293" lon="6.57891">
        <ele>1219.2</ele>
        <time>2022-07-19T19:01:15Z</time>
      </trkpt>
      <trkpt lat="44.82297" lon="6.57893">
        <ele>1219.2</ele>
        <time>2022-07-19T19:01:16Z</time>
      </trkpt>
      <trkpt lat="44.823" lon="6.57895">
        <ele>1219.4</ele>
        <time>2022-07-19T19:01:17Z</time>
      </trkpt>
      <trkpt lat="44.82304" lon="6.57898">
        <ele>1219.6</ele>
        <time>2022-07-19T19:01:18Z</time>
      </trkpt>
      <trkpt lat="44.82307" lon="6.579">
        <ele>1219.6</ele>
        <time>2022-07-19T19:01:19Z</time>
      </trkpt>
      <trkpt lat="44.82311" lon="6.57902">
        <ele>1219.6</ele>
        <time>2022-07-19T19:01:20Z</time>
      </trkpt>
      <trkpt lat="44.82315" lon="6.57904">
        <ele>1219.6</ele>
        <time>2022-07-19T19:01:21Z</time>
      </trkpt>
      <trkpt lat="44.82319" lon="6.57906">
        <ele>1219.6</ele>
        <time>2022-07-19T19:01:22Z</time>
      </trkpt>
      <trkpt lat="44.82323" lon="6.57909">
        <ele>1219.6</ele>
        <time>2022-07-19T19:01:23Z</time>
      </trkpt>
      <trkpt lat="44.82326" lon="6.57911">
        <ele>1219.6</ele>
        <time>2022-07-19T19:01:24Z</time>
      </trkpt>
      <trkpt lat="44.8233" lon="6.57913">
        <ele>1219.4</ele>
        <time>2022-07-19T19:01:25Z</time>
      </trkpt>
      <trkpt lat="44.82334" lon="6.57915">
        <ele>1219.4</ele>
        <time>2022-07-19T19:01:26Z</time>
      </trkpt>
      <trkpt lat="44.82338" lon="6.57917">
        <ele>1219.4</ele>
        <time>2022-07-19T19:01:27Z</time>
      </trkpt>
      <trkpt lat="44.82342" lon="6.5792">
        <ele>1219.2</ele>
        <time>2022-07-19T19:01:28Z</time>
      </trkpt>
      <trkpt lat="44.82346" lon="6.57922">
        <ele>1219.2</ele>
        <time>2022-07-19T19:01:29Z</time>
      </trkpt>
      <trkpt lat="44.8235" lon="6.57924">
        <ele>1219.2</ele>
        <time>2022-07-19T19:01:30Z</time>
      </trkpt>
      <trkpt lat="44.82354" lon="6.57927">
        <ele>1219.2</ele>
        <time>2022-07-19T19:01:31Z</time>
      </trkpt>
      <trkpt lat="44.82358" lon="6.57929">
        <ele>1219.2</ele>
        <time>2022-07-19T19:01:32Z</time>
      </trkpt>
      <trkpt lat="44.82362" lon="6.57931">
        <ele>1219.2</ele>
        <time>2022-07-19T19:01:33Z</time>
      </trkpt>
      <trkpt lat="44.82366" lon="6.57934">
        <ele>1219.4</ele>
        <time>2022-07-19T19:01:34Z</time>
      </trkpt>
      <trkpt lat="44.8237" lon="6.57936">
        <ele>1219.4</ele>
        <time>2022-07-19T19:01:35Z</time>
      </trkpt>
      <trkpt lat="44.82375" lon="6.57939">
        <ele>1219.4</ele>
        <time>2022-07-19T19:01:36Z</time>
      </trkpt>
      <trkpt lat="44.82379" lon="6.57941">
        <ele>1219.4</ele>
        <time>2022-07-19T19:01:37Z</time>
      </trkpt>
      <trkpt lat="44.82383" lon="6.57943">
        <ele>1219.6</ele>
        <time>2022-07-19T19:01:38Z</time>
      </trkpt>
      <trkpt lat="44.82387" lon="6.57945">
        <ele>1219.6</ele>
        <time>2022-07-19T19:01:39Z</time>
      </trkpt>
      <trkpt lat="44.82392" lon="6.57947">
        <ele>1219.6</ele>
        <time>2022-07-19T19:01:40Z</time>
      </trkpt>
      <trkpt lat="44.82396" lon="6.57949">
        <ele>1219.8</ele>
        <time>2022-07-19T19:01:41Z</time>
      </trkpt>
      <trkpt lat="44.824" lon="6.57951">
        <ele>1219.8</ele>
        <time>2022-07-19T19:01:42Z</time>
      </trkpt>
      <trkpt lat="44.82404" lon="6.57953">
        <ele>1219.8</ele>
        <time>2022-07-19T19:01:43Z</time>
      </trkpt>
      <trkpt lat="44.82408" lon="6.57956">
        <ele>1219.8</ele>
        <time>2022-07-19T19:01:44Z</time>
      </trkpt>
      <trkpt lat="44.82412" lon="6.57958">
        <ele>1219.8</ele>
        <time>2022-07-19T19:01:45Z</time>
      </trkpt>
      <trkpt lat="44.82415" lon="6.5796">
        <ele>1220.2</ele>
        <time>2022-07-19T19:01:46Z</time>
      </trkpt>
      <trkpt lat="44.82419" lon="6.57962">
        <ele>1220.2</ele>
        <time>2022-07-19T19:01:47Z</time>
      </trkpt>
      <trkpt lat="44.82423" lon="6.57964">
        <ele>1220.2</ele>
        <time>2022-07-19T19:01:48Z</time>
      </trkpt>
      <trkpt lat="44.82426" lon="6.57966">
        <ele>1220.4</ele>
        <time>2022-07-19T19:01:49Z</time>
      </trkpt>
      <trkpt lat="44.8243" lon="6.57968">
        <ele>1220.4</ele>
        <time>2022-07-19T19:01:50Z</time>
      </trkpt>
      <trkpt lat="44.82433" lon="6.5797">
        <ele>1220.8</ele>
        <time>2022-07-19T19:01:51Z</time>
      </trkpt>
      <trkpt lat="44.82437" lon="6.57972">
        <ele>1220.8</ele>
        <time>2022-07-19T19:01:52Z</time>
      </trkpt>
      <trkpt lat="44.8244" lon="6.57974">
        <ele>1220.8</ele>
        <time>2022-07-19T19:01:53Z</time>
      </trkpt>
      <trkpt lat="44.82443" lon="6.57976">
        <ele>1221</ele>
        <time>2022-07-19T19:01:54Z</time>
      </trkpt>
      <trkpt lat="44.82447" lon="6.57977">
        <ele>1221</ele>
        <time>2022-07-19T19:01:55Z</time>
      </trkpt>
      <trkpt lat="44.8245" lon="6.57979">
        <ele>1221</ele>
        <time>2022-07-19T19:01:56Z</time>
      </trkpt>
      <trkpt lat="44.82454" lon="6.57981">
        <ele>1221</ele>
        <time>2022-07-19T19:01:57Z</time>
      </trkpt>
      <trkpt lat="44.82457" lon="6.57983">
        <ele>1221</ele>
        <time>2022-07-19T19:01:58Z</time>
      </trkpt>
      <trkpt lat="44.8246" lon="6.57985">
        <ele>1221.2</ele>
        <time>2022-07-19T19:01:59Z</time>
      </trkpt>
      <trkpt lat="44.82463" lon="6.57987">
        <ele>1221.2</ele>
        <time>2022-07-19T19:02:00Z</time>
      </trkpt>
      <trkpt lat="44.82467" lon="6.57989">
        <ele>1221.2</ele>
        <time>2022-07-19T19:02:01Z</time>
      </trkpt>
      <trkpt lat="44.8247" lon="6.57991">
        <ele>1221.2</ele>
        <time>2022-07-19T19:02:02Z</time>
      </trkpt>
      <trkpt lat="44.82473" lon="6.57992">
        <ele>1221.4</ele>
        <time>2022-07-19T19:02:03Z</time>
      </trkpt>
      <trkpt lat="44.82476" lon="6.57994">
        <ele>1221.4</ele>
        <time>2022-07-19T19:02:04Z</time>
      </trkpt>
      <trkpt lat="44.82479" lon="6.57994">
        <ele>1221.8</ele>
        <time>2022-07-19T19:02:05Z</time>
      </trkpt>
      <trkpt lat="44.82482" lon="6.57995">
        <ele>1221.8</ele>
        <time>2022-07-19T19:02:06Z</time>
      </trkpt>
      <trkpt lat="44.82485" lon="6.57996">
        <ele>1222</ele>
        <time>2022-07-19T19:02:07Z</time>
      </trkpt>
      <trkpt lat="44.82488" lon="6.57997">
        <ele>1222</ele>
        <time>2022-07-19T19:02:08Z</time>
      </trkpt>
      <trkpt lat="44.82491" lon="6.57998">
        <ele>1222</ele>
        <time>2022-07-19T19:02:09Z</time>
      </trkpt>
      <trkpt lat="44.82494" lon="6.57999">
        <ele>1222</ele>
        <time>2022-07-19T19:02:10Z</time>
      </trkpt>
      <trkpt lat="44.82497" lon="6.58">
        <ele>1222</ele>
        <time>2022-07-19T19:02:11Z</time>
      </trkpt>
      <trkpt lat="44.825" lon="6.58001">
        <ele>1222.4</ele>
        <time>2022-07-19T19:02:12Z</time>
      </trkpt>
      <trkpt lat="44.82503" lon="6.58002">
        <ele>1222.4</ele>
        <time>2022-07-19T19:02:13Z</time>
      </trkpt>
      <trkpt lat="44.82506" lon="6.58002">
        <ele>1222.4</ele>
        <time>2022-07-19T19:02:14Z</time>
      </trkpt>
      <trkpt lat="44.82508" lon="6.58002">
        <ele>1222.4</ele>
        <time>2022-07-19T19:02:15Z</time>
      </trkpt>
      <trkpt lat="44.82511" lon="6.58002">
        <ele>1222.4</ele>
        <time>2022-07-19T19:02:16Z</time>
      </trkpt>
      <trkpt lat="44.82514" lon="6.58003">
        <ele>1222.4</ele>
        <time>2022-07-19T19:02:17Z</time>
      </trkpt>
      <trkpt lat="44.82517" lon="6.58003">
        <ele>1222.6</ele>
        <time>2022-07-19T19:02:18Z</time>
      </trkpt>
      <trkpt lat="44.8252" lon="6.58003">
        <ele>1222.6</ele>
        <time>2022-07-19T19:02:19Z</time>
      </trkpt>
      <trkpt lat="44.82523" lon="6.58003">
        <ele>1222.8</ele>
        <time>2022-07-19T19:02:20Z</time>
      </trkpt>
      <trkpt lat="44.82526" lon="6.58003">
        <ele>1222.8</ele>
        <time>2022-07-19T19:02:21Z</time>
      </trkpt>
      <trkpt lat="44.82528" lon="6.58002">
        <ele>1223.2</ele>
        <time>2022-07-19T19:02:22Z</time>
      </trkpt>
      <trkpt lat="44.82531" lon="6.58002">
        <ele>1223.2</ele>
        <time>2022-07-19T19:02:23Z</time>
      </trkpt>
      <trkpt lat="44.82534" lon="6.58002">
        <ele>1223.6</ele>
        <time>2022-07-19T19:02:24Z</time>
      </trkpt>
      <trkpt lat="44.82537" lon="6.58002">
        <ele>1223.6</ele>
        <time>2022-07-19T19:02:25Z</time>
      </trkpt>
      <trkpt lat="44.82539" lon="6.58002">
        <ele>1223.8</ele>
        <time>2022-07-19T19:02:26Z</time>
      </trkpt>
      <trkpt lat="44.82542" lon="6.58001">
        <ele>1223.8</ele>
        <time>2022-07-19T19:02:27Z</time>
      </trkpt>
      <trkpt lat="44.82545" lon="6.58">
        <ele>1224.2</ele>
        <time>2022-07-19T19:02:28Z</time>
      </trkpt>
      <trkpt lat="44.82547" lon="6.58">
        <ele>1224.2</ele>
        <time>2022-07-19T19:02:29Z</time>
      </trkpt>
      <trkpt lat="44.8255" lon="6.58">
        <ele>1224.2</ele>
        <time>2022-07-19T19:02:30Z</time>
      </trkpt>
      <trkpt lat="44.82552" lon="6.58">
        <ele>1224.4</ele>
        <time>2022-07-19T19:02:31Z</time>
      </trkpt>
      <trkpt lat="44.82555" lon="6.58">
        <ele>1224.4</ele>
        <time>2022-07-19T19:02:32Z</time>
      </trkpt>
      <trkpt lat="44.82557" lon="6.57999">
        <ele>1224.6</ele>
        <time>2022-07-19T19:02:33Z</time>
      </trkpt>
      <trkpt lat="44.82559" lon="6.57999">
        <ele>1224.6</ele>
        <time>2022-07-19T19:02:34Z</time>
      </trkpt>
      <trkpt lat="44.82562" lon="6.57998">
        <ele>1225</ele>
        <time>2022-07-19T19:02:35Z</time>
      </trkpt>
      <trkpt lat="44.82564" lon="6.57998">
        <ele>1225</ele>
        <time>2022-07-19T19:02:36Z</time>
      </trkpt>
      <trkpt lat="44.82566" lon="6.57997">
        <ele>1225</ele>
        <time>2022-07-19T19:02:37Z</time>
      </trkpt>
      <trkpt lat="44.82569" lon="6.57997">
        <ele>1225.4</ele>
        <time>2022-07-19T19:02:38Z</time>
      </trkpt>
      <trkpt lat="44.82571" lon="6.57997">
        <ele>1225.4</ele>
        <time>2022-07-19T19:02:39Z</time>
      </trkpt>
      <trkpt lat="44.82573" lon="6.57996">
        <ele>1225.4</ele>
        <time>2022-07-19T19:02:40Z</time>
      </trkpt>
      <trkpt lat="44.82576" lon="6.57995">
        <ele>1225.4</ele>
        <time>2022-07-19T19:02:41Z</time>
      </trkpt>
      <trkpt lat="44.82579" lon="6.57995">
        <ele>1225.6</ele>
        <time>2022-07-19T19:02:42Z</time>
      </trkpt>
      <trkpt lat="44.82581" lon="6.57994">
        <ele>1225.6</ele>
        <time>2022-07-19T19:02:43Z</time>
      </trkpt>
      <trkpt lat="44.82585" lon="6.57994">
        <ele>1225.6</ele>
        <time>2022-07-19T19:02:44Z</time>
      </trkpt>
      <trkpt lat="44.82588" lon="6.57993">
        <ele>1225.6</ele>
        <time>2022-07-19T19:02:45Z</time>
      </trkpt>
      <trkpt lat="44.82592" lon="6.57992">
        <ele>1225.6</ele>
        <time>2022-07-19T19:02:46Z</time>
      </trkpt>
      <trkpt lat="44.82595" lon="6.57992">
        <ele>1225.6</ele>
        <time>2022-07-19T19:02:47Z</time>
      </trkpt>
      <trkpt lat="44.82599" lon="6.57991">
        <ele>1225.6</ele>
        <time>2022-07-19T19:02:48Z</time>
      </trkpt>
      <trkpt lat="44.82603" lon="6.57989">
        <ele>1225.6</ele>
        <time>2022-07-19T19:02:49Z</time>
      </trkpt>
      <trkpt lat="44.82608" lon="6.57988">
        <ele>1225.6</ele>
        <time>2022-07-19T19:02:50Z</time>
      </trkpt>
      <trkpt lat="44.82613" lon="6.57987">
        <ele>1225.6</ele>
        <time>2022-07-19T19:02:51Z</time>
      </trkpt>
      <trkpt lat="44.82617" lon="6.57986">
        <ele>1225.4</ele>
        <time>2022-07-19T19:02:52Z</time>
      </trkpt>
      <trkpt lat="44.82622" lon="6.57985">
        <ele>1225.4</ele>
        <time>2022-07-19T19:02:53Z</time>
      </trkpt>
      <trkpt lat="44.82627" lon="6.57984">
        <ele>1225</ele>
        <time>2022-07-19T19:02:54Z</time>
      </trkpt>
      <trkpt lat="44.82632" lon="6.57982">
        <ele>1225</ele>
        <time>2022-07-19T19:02:55Z</time>
      </trkpt>
      <trkpt lat="44.82637" lon="6.57981">
        <ele>1224.8</ele>
        <time>2022-07-19T19:02:56Z</time>
      </trkpt>
      <trkpt lat="44.82642" lon="6.5798">
        <ele>1224.8</ele>
        <time>2022-07-19T19:02:57Z</time>
      </trkpt>
      <trkpt lat="44.82647" lon="6.57979">
        <ele>1224.8</ele>
        <time>2022-07-19T19:02:58Z</time>
      </trkpt>
      <trkpt lat="44.82652" lon="6.57978">
        <ele>1224.4</ele>
        <time>2022-07-19T19:02:59Z</time>
      </trkpt>
      <trkpt lat="44.82657" lon="6.57977">
        <ele>1224.4</ele>
        <time>2022-07-19T19:03:00Z</time>
      </trkpt>
      <trkpt lat="44.82661" lon="6.57976">
        <ele>1224.4</ele>
        <time>2022-07-19T19:03:01Z</time>
      </trkpt>
      <trkpt lat="44.82666" lon="6.57975">
        <ele>1224.2</ele>
        <time>2022-07-19T19:03:02Z</time>
      </trkpt>
      <trkpt lat="44.8267" lon="6.57973">
        <ele>1224.2</ele>
        <time>2022-07-19T19:03:03Z</time>
      </trkpt>
      <trkpt lat="44.82675" lon="6.57972">
        <ele>1224.2</ele>
        <time>2022-07-19T19:03:04Z</time>
      </trkpt>
      <trkpt lat="44.82679" lon="6.57971">
        <ele>1224.2</ele>
        <time>2022-07-19T19:03:05Z</time>
      </trkpt>
      <trkpt lat="44.82684" lon="6.5797">
        <ele>1224.2</ele>
        <time>2022-07-19T19:03:06Z</time>
      </trkpt>
      <trkpt lat="44.82688" lon="6.5797">
        <ele>1224.2</ele>
        <time>2022-07-19T19:03:07Z</time>
      </trkpt>
      <trkpt lat="44.82693" lon="6.57969">
        <ele>1224.2</ele>
        <time>2022-07-19T19:03:08Z</time>
      </trkpt>
      <trkpt lat="44.82697" lon="6.57968">
        <ele>1224.2</ele>
        <time>2022-07-19T19:03:09Z</time>
      </trkpt>
      <trkpt lat="44.82702" lon="6.57967">
        <ele>1224.2</ele>
        <time>2022-07-19T19:03:10Z</time>
      </trkpt>
      <trkpt lat="44.82706" lon="6.57967">
        <ele>1224.2</ele>
        <time>2022-07-19T19:03:11Z</time>
      </trkpt>
      <trkpt lat="44.82711" lon="6.57967">
        <ele>1224.2</ele>
        <time>2022-07-19T19:03:12Z</time>
      </trkpt>
      <trkpt lat="44.82716" lon="6.57967">
        <ele>1224.2</ele>
        <time>2022-07-19T19:03:13Z</time>
      </trkpt>
      <trkpt lat="44.82721" lon="6.57967">
        <ele>1224.2</ele>
        <time>2022-07-19T19:03:14Z</time>
      </trkpt>
      <trkpt lat="44.82726" lon="6.57968">
        <ele>1224.2</ele>
        <time>2022-07-19T19:03:15Z</time>
      </trkpt>
      <trkpt lat="44.82732" lon="6.5797">
        <ele>1224.2</ele>
        <time>2022-07-19T19:03:16Z</time>
      </trkpt>
      <trkpt lat="44.82737" lon="6.57971">
        <ele>1224.2</ele>
        <time>2022-07-19T19:03:17Z</time>
      </trkpt>
      <trkpt lat="44.82742" lon="6.57974">
        <ele>1224.2</ele>
        <time>2022-07-19T19:03:18Z</time>
      </trkpt>
      <trkpt lat="44.82747" lon="6.57976">
        <ele>1224.2</ele>
        <time>2022-07-19T19:03:19Z</time>
      </trkpt>
      <trkpt lat="44.82752" lon="6.57978">
        <ele>1224</ele>
        <time>2022-07-19T19:03:20Z</time>
      </trkpt>
      <trkpt lat="44.82757" lon="6.5798">
        <ele>1224</ele>
        <time>2022-07-19T19:03:21Z</time>
      </trkpt>
      <trkpt lat="44.82762" lon="6.57982">
        <ele>1223.8</ele>
        <time>2022-07-19T19:03:22Z</time>
      </trkpt>
      <trkpt lat="44.82767" lon="6.57984">
        <ele>1223.8</ele>
        <time>2022-07-19T19:03:23Z</time>
      </trkpt>
      <trkpt lat="44.82772" lon="6.57987">
        <ele>1223.8</ele>
        <time>2022-07-19T19:03:24Z</time>
      </trkpt>
      <trkpt lat="44.82777" lon="6.57989">
        <ele>1223.4</ele>
        <time>2022-07-19T19:03:25Z</time>
      </trkpt>
      <trkpt lat="44.82782" lon="6.57992">
        <ele>1223.4</ele>
        <time>2022-07-19T19:03:26Z</time>
      </trkpt>
      <trkpt lat="44.82787" lon="6.57994">
        <ele>1223.4</ele>
        <time>2022-07-19T19:03:27Z</time>
      </trkpt>
      <trkpt lat="44.82792" lon="6.57996">
        <ele>1223.2</ele>
        <time>2022-07-19T19:03:28Z</time>
      </trkpt>
      <trkpt lat="44.82798" lon="6.57999">
        <ele>1223.2</ele>
        <time>2022-07-19T19:03:29Z</time>
      </trkpt>
      <trkpt lat="44.82803" lon="6.58001">
        <ele>1222.8</ele>
        <time>2022-07-19T19:03:30Z</time>
      </trkpt>
      <trkpt lat="44.82808" lon="6.58004">
        <ele>1222.6</ele>
        <time>2022-07-19T19:03:31Z</time>
      </trkpt>
      <trkpt lat="44.82814" lon="6.58006">
        <ele>1222.2</ele>
        <time>2022-07-19T19:03:32Z</time>
      </trkpt>
      <trkpt lat="44.8282" lon="6.58009">
        <ele>1222</ele>
        <time>2022-07-19T19:03:33Z</time>
      </trkpt>
      <trkpt lat="44.82826" lon="6.58012">
        <ele>1221.8</ele>
        <time>2022-07-19T19:03:34Z</time>
      </trkpt>
      <trkpt lat="44.82832" lon="6.58014">
        <ele>1221.4</ele>
        <time>2022-07-19T19:03:35Z</time>
      </trkpt>
      <trkpt lat="44.82837" lon="6.58017">
        <ele>1221</ele>
        <time>2022-07-19T19:03:36Z</time>
      </trkpt>
      <trkpt lat="44.82843" lon="6.5802">
        <ele>1221</ele>
        <time>2022-07-19T19:03:37Z</time>
      </trkpt>
      <trkpt lat="44.8285" lon="6.58023">
        <ele>1220.6</ele>
        <time>2022-07-19T19:03:38Z</time>
      </trkpt>
      <trkpt lat="44.82856" lon="6.58026">
        <ele>1220.4</ele>
        <time>2022-07-19T19:03:39Z</time>
      </trkpt>
      <trkpt lat="44.82862" lon="6.58028">
        <ele>1220</ele>
        <time>2022-07-19T19:03:40Z</time>
      </trkpt>
      <trkpt lat="44.82869" lon="6.58031">
        <ele>1219.8</ele>
        <time>2022-07-19T19:03:41Z</time>
      </trkpt>
      <trkpt lat="44.82876" lon="6.58034">
        <ele>1219.4</ele>
        <time>2022-07-19T19:03:42Z</time>
      </trkpt>
      <trkpt lat="44.82883" lon="6.58038">
        <ele>1218.8</ele>
        <time>2022-07-19T19:03:43Z</time>
      </trkpt>
      <trkpt lat="44.8289" lon="6.58041">
        <ele>1218.4</ele>
        <time>2022-07-19T19:03:44Z</time>
      </trkpt>
      <trkpt lat="44.82897" lon="6.58045">
        <ele>1217.8</ele>
        <time>2022-07-19T19:03:45Z</time>
      </trkpt>
      <trkpt lat="44.82904" lon="6.58048">
        <ele>1217.2</ele>
        <time>2022-07-19T19:03:46Z</time>
      </trkpt>
      <trkpt lat="44.82911" lon="6.58051">
        <ele>1216.6</ele>
        <time>2022-07-19T19:03:47Z</time>
      </trkpt>
      <trkpt lat="44.82919" lon="6.58055">
        <ele>1216.2</ele>
        <time>2022-07-19T19:03:48Z</time>
      </trkpt>
      <trkpt lat="44.82926" lon="6.58059">
        <ele>1215.8</ele>
        <time>2022-07-19T19:03:49Z</time>
      </trkpt>
      <trkpt lat="44.82933" lon="6.58063">
        <ele>1215.2</ele>
        <time>2022-07-19T19:03:50Z</time>
      </trkpt>
      <trkpt lat="44.82941" lon="6.58068">
        <ele>1214.6</ele>
        <time>2022-07-19T19:03:51Z</time>
      </trkpt>
      <trkpt lat="44.82948" lon="6.58073">
        <ele>1214</ele>
        <time>2022-07-19T19:03:52Z</time>
      </trkpt>
      <trkpt lat="44.82954" lon="6.5808">
        <ele>1213.6</ele>
        <time>2022-07-19T19:03:53Z</time>
      </trkpt>
      <trkpt lat="44.82961" lon="6.58086">
        <ele>1213</ele>
        <time>2022-07-19T19:03:54Z</time>
      </trkpt>
      <trkpt lat="44.82967" lon="6.58094">
        <ele>1212.8</ele>
        <time>2022-07-19T19:03:55Z</time>
      </trkpt>
      <trkpt lat="44.82973" lon="6.58102">
        <ele>1212.4</ele>
        <time>2022-07-19T19:03:56Z</time>
      </trkpt>
      <trkpt lat="44.82979" lon="6.58111">
        <ele>1211.8</ele>
        <time>2022-07-19T19:03:57Z</time>
      </trkpt>
      <trkpt lat="44.82983" lon="6.5812">
        <ele>1211.4</ele>
        <time>2022-07-19T19:03:58Z</time>
      </trkpt>
      <trkpt lat="44.82988" lon="6.5813">
        <ele>1211</ele>
        <time>2022-07-19T19:03:59Z</time>
      </trkpt>
      <trkpt lat="44.82991" lon="6.5814">
        <ele>1210.6</ele>
        <time>2022-07-19T19:04:00Z</time>
      </trkpt>
      <trkpt lat="44.82995" lon="6.58151">
        <ele>1210.4</ele>
        <time>2022-07-19T19:04:01Z</time>
      </trkpt>
      <trkpt lat="44.82998" lon="6.58162">
        <ele>1210</ele>
        <time>2022-07-19T19:04:02Z</time>
      </trkpt>
      <trkpt lat="44.83" lon="6.58173">
        <ele>1209.8</ele>
        <time>2022-07-19T19:04:03Z</time>
      </trkpt>
      <trkpt lat="44.83003" lon="6.58184">
        <ele>1209.6</ele>
        <time>2022-07-19T19:04:04Z</time>
      </trkpt>
      <trkpt lat="44.83006" lon="6.58195">
        <ele>1209.6</ele>
        <time>2022-07-19T19:04:05Z</time>
      </trkpt>
      <trkpt lat="44.83008" lon="6.58206">
        <ele>1208.8</ele>
        <time>2022-07-19T19:04:06Z</time>
      </trkpt>
      <trkpt lat="44.83012" lon="6.58217">
        <ele>1208</ele>
        <time>2022-07-19T19:04:07Z</time>
      </trkpt>
      <trkpt lat="44.83015" lon="6.58227">
        <ele>1207.6</ele>
        <time>2022-07-19T19:04:08Z</time>
      </trkpt>
      <trkpt lat="44.83019" lon="6.58238">
        <ele>1207.2</ele>
        <time>2022-07-19T19:04:09Z</time>
      </trkpt>
      <trkpt lat="44.83024" lon="6.58248">
        <ele>1206.6</ele>
        <time>2022-07-19T19:04:10Z</time>
      </trkpt>
      <trkpt lat="44.83029" lon="6.58258">
        <ele>1206</ele>
        <time>2022-07-19T19:04:11Z</time>
      </trkpt>
      <trkpt lat="44.83034" lon="6.58268">
        <ele>1205.6</ele>
        <time>2022-07-19T19:04:12Z</time>
      </trkpt>
      <trkpt lat="44.8304" lon="6.58277">
        <ele>1205.2</ele>
        <time>2022-07-19T19:04:13Z</time>
      </trkpt>
      <trkpt lat="44.83047" lon="6.58285">
        <ele>1204.6</ele>
        <time>2022-07-19T19:04:14Z</time>
      </trkpt>
      <trkpt lat="44.83055" lon="6.58293">
        <ele>1204</ele>
        <time>2022-07-19T19:04:15Z</time>
      </trkpt>
      <trkpt lat="44.83063" lon="6.58299">
        <ele>1203.4</ele>
        <time>2022-07-19T19:04:16Z</time>
      </trkpt>
      <trkpt lat="44.83071" lon="6.58305">
        <ele>1203</ele>
        <time>2022-07-19T19:04:17Z</time>
      </trkpt>
      <trkpt lat="44.8308" lon="6.58309">
        <ele>1202.4</ele>
        <time>2022-07-19T19:04:18Z</time>
      </trkpt>
      <trkpt lat="44.83089" lon="6.58312">
        <ele>1202</ele>
        <time>2022-07-19T19:04:19Z</time>
      </trkpt>
      <trkpt lat="44.83099" lon="6.58314">
        <ele>1201.6</ele>
        <time>2022-07-19T19:04:20Z</time>
      </trkpt>
      <trkpt lat="44.83109" lon="6.58314">
        <ele>1201.2</ele>
        <time>2022-07-19T19:04:21Z</time>
      </trkpt>
      <trkpt lat="44.83119" lon="6.58315">
        <ele>1200.8</ele>
        <time>2022-07-19T19:04:22Z</time>
      </trkpt>
      <trkpt lat="44.83129" lon="6.58314">
        <ele>1200.4</ele>
        <time>2022-07-19T19:04:23Z</time>
      </trkpt>
      <trkpt lat="44.83139" lon="6.58314">
        <ele>1200</ele>
        <time>2022-07-19T19:04:24Z</time>
      </trkpt>
      <trkpt lat="44.83149" lon="6.58315">
        <ele>1199.6</ele>
        <time>2022-07-19T19:04:25Z</time>
      </trkpt>
      <trkpt lat="44.83159" lon="6.58315">
        <ele>1199.2</ele>
        <time>2022-07-19T19:04:26Z</time>
      </trkpt>
      <trkpt lat="44.83168" lon="6.58315">
        <ele>1198.8</ele>
        <time>2022-07-19T19:04:27Z</time>
      </trkpt>
      <trkpt lat="44.83178" lon="6.58315">
        <ele>1198.4</ele>
        <time>2022-07-19T19:04:28Z</time>
      </trkpt>
      <trkpt lat="44.83188" lon="6.58314">
        <ele>1198</ele>
        <time>2022-07-19T19:04:29Z</time>
      </trkpt>
      <trkpt lat="44.83197" lon="6.58314">
        <ele>1197.4</ele>
        <time>2022-07-19T19:04:30Z</time>
      </trkpt>
      <trkpt lat="44.83208" lon="6.58314">
        <ele>1197</ele>
        <time>2022-07-19T19:04:31Z</time>
      </trkpt>
      <trkpt lat="44.83217" lon="6.58313">
        <ele>1196.4</ele>
        <time>2022-07-19T19:04:32Z</time>
      </trkpt>
      <trkpt lat="44.83226" lon="6.58313">
        <ele>1196</ele>
        <time>2022-07-19T19:04:33Z</time>
      </trkpt>
      <trkpt lat="44.83236" lon="6.58313">
        <ele>1195.4</ele>
        <time>2022-07-19T19:04:34Z</time>
      </trkpt>
      <trkpt lat="44.83246" lon="6.58313">
        <ele>1194.6</ele>
        <time>2022-07-19T19:04:35Z</time>
      </trkpt>
      <trkpt lat="44.83256" lon="6.58314">
        <ele>1194</ele>
        <time>2022-07-19T19:04:36Z</time>
      </trkpt>
      <trkpt lat="44.83266" lon="6.58314">
        <ele>1193.4</ele>
        <time>2022-07-19T19:04:37Z</time>
      </trkpt>
      <trkpt lat="44.83276" lon="6.58315">
        <ele>1192.8</ele>
        <time>2022-07-19T19:04:38Z</time>
      </trkpt>
      <trkpt lat="44.83286" lon="6.58317">
        <ele>1192</ele>
        <time>2022-07-19T19:04:39Z</time>
      </trkpt>
      <trkpt lat="44.83296" lon="6.58319">
        <ele>1191</ele>
        <time>2022-07-19T19:04:40Z</time>
      </trkpt>
      <trkpt lat="44.83306" lon="6.58321">
        <ele>1191</ele>
        <time>2022-07-19T19:04:41Z</time>
      </trkpt>
      <trkpt lat="44.83316" lon="6.58323">
        <ele>1190.6</ele>
        <time>2022-07-19T19:04:42Z</time>
      </trkpt>
      <trkpt lat="44.83326" lon="6.58325">
        <ele>1189.8</ele>
        <time>2022-07-19T19:04:43Z</time>
      </trkpt>
      <trkpt lat="44.83335" lon="6.58328">
        <ele>1189</ele>
        <time>2022-07-19T19:04:44Z</time>
      </trkpt>
      <trkpt lat="44.83345" lon="6.58331">
        <ele>1188.4</ele>
        <time>2022-07-19T19:04:45Z</time>
      </trkpt>
      <trkpt lat="44.83355" lon="6.58335">
        <ele>1188</ele>
        <time>2022-07-19T19:04:46Z</time>
      </trkpt>
      <trkpt lat="44.83365" lon="6.58339">
        <ele>1187.2</ele>
        <time>2022-07-19T19:04:47Z</time>
      </trkpt>
      <trkpt lat="44.83375" lon="6.58343">
        <ele>1186.6</ele>
        <time>2022-07-19T19:04:48Z</time>
      </trkpt>
      <trkpt lat="44.83385" lon="6.58347">
        <ele>1186</ele>
        <time>2022-07-19T19:04:49Z</time>
      </trkpt>
      <trkpt lat="44.83395" lon="6.58351">
        <ele>1185.2</ele>
        <time>2022-07-19T19:04:50Z</time>
      </trkpt>
      <trkpt lat="44.83405" lon="6.58355">
        <ele>1184.2</ele>
        <time>2022-07-19T19:04:51Z</time>
      </trkpt>
      <trkpt lat="44.83415" lon="6.58359">
        <ele>1183.4</ele>
        <time>2022-07-19T19:04:52Z</time>
      </trkpt>
      <trkpt lat="44.83426" lon="6.58363">
        <ele>1183.2</ele>
        <time>2022-07-19T19:04:53Z</time>
      </trkpt>
      <trkpt lat="44.83436" lon="6.58367">
        <ele>1182.4</ele>
        <time>2022-07-19T19:04:54Z</time>
      </trkpt>
      <trkpt lat="44.83446" lon="6.58371">
        <ele>1181.6</ele>
        <time>2022-07-19T19:04:55Z</time>
      </trkpt>
      <trkpt lat="44.83457" lon="6.58376">
        <ele>1180.8</ele>
        <time>2022-07-19T19:04:56Z</time>
      </trkpt>
      <trkpt lat="44.83467" lon="6.5838">
        <ele>1180</ele>
        <time>2022-07-19T19:04:57Z</time>
      </trkpt>
      <trkpt lat="44.83478" lon="6.58384">
        <ele>1179.4</ele>
        <time>2022-07-19T19:04:58Z</time>
      </trkpt>
      <trkpt lat="44.83489" lon="6.58389">
        <ele>1178.6</ele>
        <time>2022-07-19T19:04:59Z</time>
      </trkpt>
      <trkpt lat="44.835" lon="6.58393">
        <ele>1178</ele>
        <time>2022-07-19T19:05:00Z</time>
      </trkpt>
      <trkpt lat="44.83511" lon="6.58398">
        <ele>1177.6</ele>
        <time>2022-07-19T19:05:01Z</time>
      </trkpt>
      <trkpt lat="44.83522" lon="6.58403">
        <ele>1176.8</ele>
        <time>2022-07-19T19:05:02Z</time>
      </trkpt>
      <trkpt lat="44.83534" lon="6.58408">
        <ele>1176.6</ele>
        <time>2022-07-19T19:05:03Z</time>
      </trkpt>
      <trkpt lat="44.83545" lon="6.58412">
        <ele>1175.8</ele>
        <time>2022-07-19T19:05:04Z</time>
      </trkpt>
      <trkpt lat="44.83557" lon="6.58416">
        <ele>1174.8</ele>
        <time>2022-07-19T19:05:05Z</time>
      </trkpt>
      <trkpt lat="44.83569" lon="6.5842">
        <ele>1174</ele>
        <time>2022-07-19T19:05:06Z</time>
      </trkpt>
      <trkpt lat="44.8358" lon="6.58424">
        <ele>1173.6</ele>
        <time>2022-07-19T19:05:07Z</time>
      </trkpt>
      <trkpt lat="44.83592" lon="6.58427">
        <ele>1172.8</ele>
        <time>2022-07-19T19:05:08Z</time>
      </trkpt>
      <trkpt lat="44.83604" lon="6.58429">
        <ele>1172</ele>
        <time>2022-07-19T19:05:09Z</time>
      </trkpt>
      <trkpt lat="44.83616" lon="6.58431">
        <ele>1171.4</ele>
        <time>2022-07-19T19:05:10Z</time>
      </trkpt>
      <trkpt lat="44.83628" lon="6.58432">
        <ele>1170.6</ele>
        <time>2022-07-19T19:05:11Z</time>
      </trkpt>
      <trkpt lat="44.8364" lon="6.58433">
        <ele>1169.6</ele>
        <time>2022-07-19T19:05:12Z</time>
      </trkpt>
      <trkpt lat="44.83652" lon="6.58434">
        <ele>1168.8</ele>
        <time>2022-07-19T19:05:13Z</time>
      </trkpt>
      <trkpt lat="44.83665" lon="6.58433">
        <ele>1167.8</ele>
        <time>2022-07-19T19:05:14Z</time>
      </trkpt>
      <trkpt lat="44.83677" lon="6.58433">
        <ele>1166.8</ele>
        <time>2022-07-19T19:05:15Z</time>
      </trkpt>
      <trkpt lat="44.8369" lon="6.58433">
        <ele>1165.8</ele>
        <time>2022-07-19T19:05:16Z</time>
      </trkpt>
      <trkpt lat="44.83702" lon="6.58432">
        <ele>1165.2</ele>
        <time>2022-07-19T19:05:17Z</time>
      </trkpt>
      <trkpt lat="44.83715" lon="6.58431">
        <ele>1164.4</ele>
        <time>2022-07-19T19:05:18Z</time>
      </trkpt>
      <trkpt lat="44.83728" lon="6.5843">
        <ele>1163.8</ele>
        <time>2022-07-19T19:05:19Z</time>
      </trkpt>
      <trkpt lat="44.83741" lon="6.58429">
        <ele>1163</ele>
        <time>2022-07-19T19:05:20Z</time>
      </trkpt>
      <trkpt lat="44.83754" lon="6.58428">
        <ele>1162.2</ele>
        <time>2022-07-19T19:05:21Z</time>
      </trkpt>
      <trkpt lat="44.83767" lon="6.58427">
        <ele>1161.2</ele>
        <time>2022-07-19T19:05:22Z</time>
      </trkpt>
      <trkpt lat="44.8378" lon="6.58426">
        <ele>1160.2</ele>
        <time>2022-07-19T19:05:23Z</time>
      </trkpt>
      <trkpt lat="44.83793" lon="6.58425">
        <ele>1159.2</ele>
        <time>2022-07-19T19:05:24Z</time>
      </trkpt>
      <trkpt lat="44.83806" lon="6.58425">
        <ele>1158.6</ele>
        <time>2022-07-19T19:05:25Z</time>
      </trkpt>
      <trkpt lat="44.83819" lon="6.58424">
        <ele>1158</ele>
        <time>2022-07-19T19:05:26Z</time>
      </trkpt>
      <trkpt lat="44.83832" lon="6.58423">
        <ele>1157.2</ele>
        <time>2022-07-19T19:05:27Z</time>
      </trkpt>
      <trkpt lat="44.83845" lon="6.58423">
        <ele>1156.6</ele>
        <time>2022-07-19T19:05:28Z</time>
      </trkpt>
      <trkpt lat="44.83858" lon="6.58423">
        <ele>1155.8</ele>
        <time>2022-07-19T19:05:29Z</time>
      </trkpt>
      <trkpt lat="44.83871" lon="6.58423">
        <ele>1155.2</ele>
        <time>2022-07-19T19:05:30Z</time>
      </trkpt>
      <trkpt lat="44.83884" lon="6.58424">
        <ele>1154.2</ele>
        <time>2022-07-19T19:05:31Z</time>
      </trkpt>
      <trkpt lat="44.83897" lon="6.58425">
        <ele>1153.4</ele>
        <time>2022-07-19T19:05:32Z</time>
      </trkpt>
      <trkpt lat="44.8391" lon="6.58426">
        <ele>1152.8</ele>
        <time>2022-07-19T19:05:33Z</time>
      </trkpt>
      <trkpt lat="44.83923" lon="6.58427">
        <ele>1152</ele>
        <time>2022-07-19T19:05:34Z</time>
      </trkpt>
      <trkpt lat="44.83935" lon="6.58428">
        <ele>1151.4</ele>
        <time>2022-07-19T19:05:35Z</time>
      </trkpt>
      <trkpt lat="44.83948" lon="6.58429">
        <ele>1150.6</ele>
        <time>2022-07-19T19:05:36Z</time>
      </trkpt>
      <trkpt lat="44.8396" lon="6.58429">
        <ele>1149.8</ele>
        <time>2022-07-19T19:05:37Z</time>
      </trkpt>
      <trkpt lat="44.83972" lon="6.5843">
        <ele>1149.2</ele>
        <time>2022-07-19T19:05:38Z</time>
      </trkpt>
      <trkpt lat="44.83984" lon="6.5843">
        <ele>1148.6</ele>
        <time>2022-07-19T19:05:39Z</time>
      </trkpt>
      <trkpt lat="44.83995" lon="6.5843">
        <ele>1148.2</ele>
        <time>2022-07-19T19:05:40Z</time>
      </trkpt>
      <trkpt lat="44.84006" lon="6.58429">
        <ele>1147.8</ele>
        <time>2022-07-19T19:05:41Z</time>
      </trkpt>
      <trkpt lat="44.84017" lon="6.58428">
        <ele>1147.8</ele>
        <time>2022-07-19T19:05:42Z</time>
      </trkpt>
      <trkpt lat="44.84027" lon="6.58427">
        <ele>1147.4</ele>
        <time>2022-07-19T19:05:43Z</time>
      </trkpt>
      <trkpt lat="44.84037" lon="6.58425">
        <ele>1147.4</ele>
        <time>2022-07-19T19:05:44Z</time>
      </trkpt>
      <trkpt lat="44.84046" lon="6.58424">
        <ele>1147.4</ele>
        <time>2022-07-19T19:05:45Z</time>
      </trkpt>
      <trkpt lat="44.84055" lon="6.58422">
        <ele>1147.4</ele>
        <time>2022-07-19T19:05:46Z</time>
      </trkpt>
      <trkpt lat="44.84064" lon="6.58419">
        <ele>1147.4</ele>
        <time>2022-07-19T19:05:47Z</time>
      </trkpt>
      <trkpt lat="44.84072" lon="6.58417">
        <ele>1147.4</ele>
        <time>2022-07-19T19:05:48Z</time>
      </trkpt>
      <trkpt lat="44.84079" lon="6.58415">
        <ele>1147.4</ele>
        <time>2022-07-19T19:05:49Z</time>
      </trkpt>
      <trkpt lat="44.84087" lon="6.58412">
        <ele>1147.8</ele>
        <time>2022-07-19T19:05:50Z</time>
      </trkpt>
      <trkpt lat="44.84094" lon="6.5841">
        <ele>1148</ele>
        <time>2022-07-19T19:05:51Z</time>
      </trkpt>
      <trkpt lat="44.841" lon="6.58408">
        <ele>1148.4</ele>
        <time>2022-07-19T19:05:52Z</time>
      </trkpt>
      <trkpt lat="44.84107" lon="6.58405">
        <ele>1148.6</ele>
        <time>2022-07-19T19:05:53Z</time>
      </trkpt>
      <trkpt lat="44.84113" lon="6.58402">
        <ele>1148.6</ele>
        <time>2022-07-19T19:05:54Z</time>
      </trkpt>
      <trkpt lat="44.84118" lon="6.584">
        <ele>1148.8</ele>
        <time>2022-07-19T19:05:55Z</time>
      </trkpt>
      <trkpt lat="44.84124" lon="6.58397">
        <ele>1149</ele>
        <time>2022-07-19T19:05:56Z</time>
      </trkpt>
      <trkpt lat="44.84129" lon="6.58395">
        <ele>1149.2</ele>
        <time>2022-07-19T19:05:57Z</time>
      </trkpt>
      <trkpt lat="44.84134" lon="6.58393">
        <ele>1149.6</ele>
        <time>2022-07-19T19:05:58Z</time>
      </trkpt>
      <trkpt lat="44.84139" lon="6.5839">
        <ele>1149.8</ele>
        <time>2022-07-19T19:05:59Z</time>
      </trkpt>
      <trkpt lat="44.84143" lon="6.58388">
        <ele>1149.8</ele>
        <time>2022-07-19T19:06:00Z</time>
      </trkpt>
      <trkpt lat="44.84148" lon="6.58386">
        <ele>1150.2</ele>
        <time>2022-07-19T19:06:01Z</time>
      </trkpt>
      <trkpt lat="44.84155" lon="6.58381">
        <ele>1150.4</ele>
        <time>2022-07-19T19:06:03Z</time>
      </trkpt>
      <trkpt lat="44.84159" lon="6.58378">
        <ele>1150.6</ele>
        <time>2022-07-19T19:06:04Z</time>
      </trkpt>
      <trkpt lat="44.84163" lon="6.58376">
        <ele>1150.8</ele>
        <time>2022-07-19T19:06:05Z</time>
      </trkpt>
      <trkpt lat="44.84166" lon="6.58373">
        <ele>1151</ele>
        <time>2022-07-19T19:06:06Z</time>
      </trkpt>
      <trkpt lat="44.8417" lon="6.58371">
        <ele>1151.2</ele>
        <time>2022-07-19T19:06:07Z</time>
      </trkpt>
      <trkpt lat="44.84173" lon="6.58368">
        <ele>1151.4</ele>
        <time>2022-07-19T19:06:08Z</time>
      </trkpt>
      <trkpt lat="44.84176" lon="6.58365">
        <ele>1151.6</ele>
        <time>2022-07-19T19:06:09Z</time>
      </trkpt>
      <trkpt lat="44.84179" lon="6.58363">
        <ele>1151.6</ele>
        <time>2022-07-19T19:06:10Z</time>
      </trkpt>
      <trkpt lat="44.84182" lon="6.58361">
        <ele>1152</ele>
        <time>2022-07-19T19:06:11Z</time>
      </trkpt>
      <trkpt lat="44.84185" lon="6.58359">
        <ele>1152</ele>
        <time>2022-07-19T19:06:12Z</time>
      </trkpt>
      <trkpt lat="44.84188" lon="6.58358">
        <ele>1152.2</ele>
        <time>2022-07-19T19:06:13Z</time>
      </trkpt>
      <trkpt lat="44.84191" lon="6.58355">
        <ele>1152.2</ele>
        <time>2022-07-19T19:06:14Z</time>
      </trkpt>
      <trkpt lat="44.84194" lon="6.58353">
        <ele>1152.4</ele>
        <time>2022-07-19T19:06:15Z</time>
      </trkpt>
      <trkpt lat="44.84196" lon="6.58351">
        <ele>1152.4</ele>
        <time>2022-07-19T19:06:16Z</time>
      </trkpt>
      <trkpt lat="44.84199" lon="6.58349">
        <ele>1152.4</ele>
        <time>2022-07-19T19:06:17Z</time>
      </trkpt>
      <trkpt lat="44.84202" lon="6.58347">
        <ele>1152.6</ele>
        <time>2022-07-19T19:06:18Z</time>
      </trkpt>
      <trkpt lat="44.84205" lon="6.58345">
        <ele>1152.6</ele>
        <time>2022-07-19T19:06:19Z</time>
      </trkpt>
      <trkpt lat="44.84208" lon="6.58342">
        <ele>1152.6</ele>
        <time>2022-07-19T19:06:20Z</time>
      </trkpt>
      <trkpt lat="44.84211" lon="6.5834">
        <ele>1152.8</ele>
        <time>2022-07-19T19:06:21Z</time>
      </trkpt>
      <trkpt lat="44.84214" lon="6.58338">
        <ele>1152.6</ele>
        <time>2022-07-19T19:06:22Z</time>
      </trkpt>
      <trkpt lat="44.84217" lon="6.58335">
        <ele>1153.2</ele>
        <time>2022-07-19T19:06:23Z</time>
      </trkpt>
      <trkpt lat="44.84219" lon="6.58333">
        <ele>1153.2</ele>
        <time>2022-07-19T19:06:24Z</time>
      </trkpt>
      <trkpt lat="44.84222" lon="6.5833">
        <ele>1153.2</ele>
        <time>2022-07-19T19:06:25Z</time>
      </trkpt>
      <trkpt lat="44.84225" lon="6.58328">
        <ele>1153.4</ele>
        <time>2022-07-19T19:06:26Z</time>
      </trkpt>
      <trkpt lat="44.84228" lon="6.58326">
        <ele>1153.6</ele>
        <time>2022-07-19T19:06:27Z</time>
      </trkpt>
      <trkpt lat="44.8423" lon="6.58323">
        <ele>1153.6</ele>
        <time>2022-07-19T19:06:28Z</time>
      </trkpt>
      <trkpt lat="44.84233" lon="6.58321">
        <ele>1153.6</ele>
        <time>2022-07-19T19:06:29Z</time>
      </trkpt>
      <trkpt lat="44.84236" lon="6.58318">
        <ele>1154</ele>
        <time>2022-07-19T19:06:30Z</time>
      </trkpt>
      <trkpt lat="44.84239" lon="6.58316">
        <ele>1154</ele>
        <time>2022-07-19T19:06:31Z</time>
      </trkpt>
      <trkpt lat="44.84241" lon="6.58313">
        <ele>1154</ele>
        <time>2022-07-19T19:06:32Z</time>
      </trkpt>
      <trkpt lat="44.84244" lon="6.58311">
        <ele>1154</ele>
        <time>2022-07-19T19:06:33Z</time>
      </trkpt>
      <trkpt lat="44.84247" lon="6.58309">
        <ele>1154.2</ele>
        <time>2022-07-19T19:06:34Z</time>
      </trkpt>
      <trkpt lat="44.8425" lon="6.58307">
        <ele>1154.2</ele>
        <time>2022-07-19T19:06:35Z</time>
      </trkpt>
      <trkpt lat="44.84253" lon="6.58304">
        <ele>1154.4</ele>
        <time>2022-07-19T19:06:36Z</time>
      </trkpt>
      <trkpt lat="44.84255" lon="6.58302">
        <ele>1154.4</ele>
        <time>2022-07-19T19:06:37Z</time>
      </trkpt>
      <trkpt lat="44.84258" lon="6.58299">
        <ele>1154.6</ele>
        <time>2022-07-19T19:06:38Z</time>
      </trkpt>
      <trkpt lat="44.84261" lon="6.58297">
        <ele>1154.6</ele>
        <time>2022-07-19T19:06:39Z</time>
      </trkpt>
      <trkpt lat="44.84263" lon="6.58294">
        <ele>1155</ele>
        <time>2022-07-19T19:06:40Z</time>
      </trkpt>
      <trkpt lat="44.84266" lon="6.58292">
        <ele>1155</ele>
        <time>2022-07-19T19:06:41Z</time>
      </trkpt>
      <trkpt lat="44.84269" lon="6.58289">
        <ele>1155</ele>
        <time>2022-07-19T19:06:42Z</time>
      </trkpt>
      <trkpt lat="44.84272" lon="6.58287">
        <ele>1155.2</ele>
        <time>2022-07-19T19:06:43Z</time>
      </trkpt>
      <trkpt lat="44.84275" lon="6.58284">
        <ele>1155.2</ele>
        <time>2022-07-19T19:06:44Z</time>
      </trkpt>
      <trkpt lat="44.84278" lon="6.58282">
        <ele>1155.2</ele>
        <time>2022-07-19T19:06:45Z</time>
      </trkpt>
      <trkpt lat="44.84281" lon="6.5828">
        <ele>1155.2</ele>
        <time>2022-07-19T19:06:46Z</time>
      </trkpt>
      <trkpt lat="44.84284" lon="6.58279">
        <ele>1155.6</ele>
        <time>2022-07-19T19:06:47Z</time>
      </trkpt>
      <trkpt lat="44.84288" lon="6.58277">
        <ele>1155.6</ele>
        <time>2022-07-19T19:06:48Z</time>
      </trkpt>
      <trkpt lat="44.84291" lon="6.58275">
        <ele>1155.6</ele>
        <time>2022-07-19T19:06:49Z</time>
      </trkpt>
      <trkpt lat="44.84294" lon="6.58273">
        <ele>1155.8</ele>
        <time>2022-07-19T19:06:50Z</time>
      </trkpt>
      <trkpt lat="44.84298" lon="6.58272">
        <ele>1155.8</ele>
        <time>2022-07-19T19:06:51Z</time>
      </trkpt>
      <trkpt lat="44.84301" lon="6.5827">
        <ele>1155.8</ele>
        <time>2022-07-19T19:06:52Z</time>
      </trkpt>
      <trkpt lat="44.84304" lon="6.58268">
        <ele>1156</ele>
        <time>2022-07-19T19:06:53Z</time>
      </trkpt>
      <trkpt lat="44.84307" lon="6.58266">
        <ele>1156</ele>
        <time>2022-07-19T19:06:54Z</time>
      </trkpt>
      <trkpt lat="44.8431" lon="6.58265">
        <ele>1156</ele>
        <time>2022-07-19T19:06:55Z</time>
      </trkpt>
      <trkpt lat="44.84313" lon="6.58263">
        <ele>1156.2</ele>
        <time>2022-07-19T19:06:56Z</time>
      </trkpt>
      <trkpt lat="44.84316" lon="6.58262">
        <ele>1156.2</ele>
        <time>2022-07-19T19:06:57Z</time>
      </trkpt>
      <trkpt lat="44.8432" lon="6.5826">
        <ele>1156.4</ele>
        <time>2022-07-19T19:06:58Z</time>
      </trkpt>
      <trkpt lat="44.84323" lon="6.58259">
        <ele>1156.4</ele>
        <time>2022-07-19T19:06:59Z</time>
      </trkpt>
      <trkpt lat="44.84326" lon="6.58258">
        <ele>1156.4</ele>
        <time>2022-07-19T19:07:00Z</time>
      </trkpt>
      <trkpt lat="44.8433" lon="6.58257">
        <ele>1156.4</ele>
        <time>2022-07-19T19:07:01Z</time>
      </trkpt>
      <trkpt lat="44.84333" lon="6.58256">
        <ele>1156.8</ele>
        <time>2022-07-19T19:07:02Z</time>
      </trkpt>
      <trkpt lat="44.84337" lon="6.58255">
        <ele>1156.8</ele>
        <time>2022-07-19T19:07:03Z</time>
      </trkpt>
      <trkpt lat="44.8434" lon="6.58254">
        <ele>1156.8</ele>
        <time>2022-07-19T19:07:04Z</time>
      </trkpt>
      <trkpt lat="44.84343" lon="6.58253">
        <ele>1157</ele>
        <time>2022-07-19T19:07:05Z</time>
      </trkpt>
      <trkpt lat="44.84347" lon="6.58252">
        <ele>1157</ele>
        <time>2022-07-19T19:07:06Z</time>
      </trkpt>
      <trkpt lat="44.84351" lon="6.58252">
        <ele>1157</ele>
        <time>2022-07-19T19:07:07Z</time>
      </trkpt>
      <trkpt lat="44.84354" lon="6.58251">
        <ele>1157</ele>
        <time>2022-07-19T19:07:08Z</time>
      </trkpt>
      <trkpt lat="44.84358" lon="6.5825">
        <ele>1157</ele>
        <time>2022-07-19T19:07:09Z</time>
      </trkpt>
      <trkpt lat="44.84362" lon="6.5825">
        <ele>1157</ele>
        <time>2022-07-19T19:07:10Z</time>
      </trkpt>
      <trkpt lat="44.84366" lon="6.58249">
        <ele>1157.2</ele>
        <time>2022-07-19T19:07:11Z</time>
      </trkpt>
      <trkpt lat="44.84369" lon="6.58249">
        <ele>1157.2</ele>
        <time>2022-07-19T19:07:12Z</time>
      </trkpt>
      <trkpt lat="44.84373" lon="6.58249">
        <ele>1157.2</ele>
        <time>2022-07-19T19:07:13Z</time>
      </trkpt>
      <trkpt lat="44.84377" lon="6.58249">
        <ele>1157.2</ele>
        <time>2022-07-19T19:07:14Z</time>
      </trkpt>
      <trkpt lat="44.84381" lon="6.58249">
        <ele>1157.2</ele>
        <time>2022-07-19T19:07:15Z</time>
      </trkpt>
      <trkpt lat="44.84385" lon="6.5825">
        <ele>1157.2</ele>
        <time>2022-07-19T19:07:16Z</time>
      </trkpt>
      <trkpt lat="44.8439" lon="6.5825">
        <ele>1157.4</ele>
        <time>2022-07-19T19:07:17Z</time>
      </trkpt>
      <trkpt lat="44.84394" lon="6.5825">
        <ele>1157.4</ele>
        <time>2022-07-19T19:07:18Z</time>
      </trkpt>
      <trkpt lat="44.84398" lon="6.5825">
        <ele>1157.4</ele>
        <time>2022-07-19T19:07:19Z</time>
      </trkpt>
      <trkpt lat="44.84402" lon="6.58251">
        <ele>1157.4</ele>
        <time>2022-07-19T19:07:20Z</time>
      </trkpt>
      <trkpt lat="44.84406" lon="6.58251">
        <ele>1157.4</ele>
        <time>2022-07-19T19:07:21Z</time>
      </trkpt>
      <trkpt lat="44.84411" lon="6.58252">
        <ele>1157.4</ele>
        <time>2022-07-19T19:07:22Z</time>
      </trkpt>
      <trkpt lat="44.84415" lon="6.58253">
        <ele>1157.4</ele>
        <time>2022-07-19T19:07:23Z</time>
      </trkpt>
      <trkpt lat="44.84419" lon="6.58254">
        <ele>1157.4</ele>
        <time>2022-07-19T19:07:24Z</time>
      </trkpt>
      <trkpt lat="44.84424" lon="6.58255">
        <ele>1157.4</ele>
        <time>2022-07-19T19:07:25Z</time>
      </trkpt>
      <trkpt lat="44.84428" lon="6.58256">
        <ele>1157.4</ele>
        <time>2022-07-19T19:07:26Z</time>
      </trkpt>
      <trkpt lat="44.84432" lon="6.58258">
        <ele>1157.4</ele>
        <time>2022-07-19T19:07:27Z</time>
      </trkpt>
      <trkpt lat="44.84436" lon="6.58259">
        <ele>1157.4</ele>
        <time>2022-07-19T19:07:28Z</time>
      </trkpt>
      <trkpt lat="44.8444" lon="6.58259">
        <ele>1157.4</ele>
        <time>2022-07-19T19:07:29Z</time>
      </trkpt>
      <trkpt lat="44.84444" lon="6.58261">
        <ele>1157.4</ele>
        <time>2022-07-19T19:07:30Z</time>
      </trkpt>
      <trkpt lat="44.84447" lon="6.58262">
        <ele>1157.2</ele>
        <time>2022-07-19T19:07:31Z</time>
      </trkpt>
      <trkpt lat="44.84451" lon="6.58263">
        <ele>1157.2</ele>
        <time>2022-07-19T19:07:32Z</time>
      </trkpt>
      <trkpt lat="44.84454" lon="6.58265">
        <ele>1157.2</ele>
        <time>2022-07-19T19:07:33Z</time>
      </trkpt>
      <trkpt lat="44.84457" lon="6.58266">
        <ele>1157.2</ele>
        <time>2022-07-19T19:07:34Z</time>
      </trkpt>
      <trkpt lat="44.84461" lon="6.58268">
        <ele>1157.2</ele>
        <time>2022-07-19T19:07:35Z</time>
      </trkpt>
      <trkpt lat="44.84464" lon="6.58269">
        <ele>1157.2</ele>
        <time>2022-07-19T19:07:36Z</time>
      </trkpt>
      <trkpt lat="44.84467" lon="6.58271">
        <ele>1157.2</ele>
        <time>2022-07-19T19:07:37Z</time>
      </trkpt>
      <trkpt lat="44.8447" lon="6.58273">
        <ele>1157.2</ele>
        <time>2022-07-19T19:07:38Z</time>
      </trkpt>
      <trkpt lat="44.84474" lon="6.58275">
        <ele>1157.2</ele>
        <time>2022-07-19T19:07:39Z</time>
      </trkpt>
      <trkpt lat="44.84477" lon="6.58276">
        <ele>1157.2</ele>
        <time>2022-07-19T19:07:40Z</time>
      </trkpt>
      <trkpt lat="44.84481" lon="6.58278">
        <ele>1157.2</ele>
        <time>2022-07-19T19:07:41Z</time>
      </trkpt>
      <trkpt lat="44.84484" lon="6.5828">
        <ele>1157.2</ele>
        <time>2022-07-19T19:07:42Z</time>
      </trkpt>
      <trkpt lat="44.84488" lon="6.58282">
        <ele>1157.2</ele>
        <time>2022-07-19T19:07:43Z</time>
      </trkpt>
      <trkpt lat="44.84492" lon="6.58284">
        <ele>1157.2</ele>
        <time>2022-07-19T19:07:44Z</time>
      </trkpt>
      <trkpt lat="44.84497" lon="6.58286">
        <ele>1157.2</ele>
        <time>2022-07-19T19:07:45Z</time>
      </trkpt>
      <trkpt lat="44.84501" lon="6.58288">
        <ele>1157.2</ele>
        <time>2022-07-19T19:07:46Z</time>
      </trkpt>
      <trkpt lat="44.84505" lon="6.5829">
        <ele>1157</ele>
        <time>2022-07-19T19:07:47Z</time>
      </trkpt>
      <trkpt lat="44.8451" lon="6.58292">
        <ele>1157</ele>
        <time>2022-07-19T19:07:48Z</time>
      </trkpt>
      <trkpt lat="44.84514" lon="6.58294">
        <ele>1157</ele>
        <time>2022-07-19T19:07:49Z</time>
      </trkpt>
      <trkpt lat="44.84519" lon="6.58296">
        <ele>1156.8</ele>
        <time>2022-07-19T19:07:50Z</time>
      </trkpt>
      <trkpt lat="44.84524" lon="6.58299">
        <ele>1156.8</ele>
        <time>2022-07-19T19:07:51Z</time>
      </trkpt>
      <trkpt lat="44.84528" lon="6.58301">
        <ele>1156.8</ele>
        <time>2022-07-19T19:07:52Z</time>
      </trkpt>
      <trkpt lat="44.84533" lon="6.58303">
        <ele>1156.8</ele>
        <time>2022-07-19T19:07:53Z</time>
      </trkpt>
      <trkpt lat="44.84538" lon="6.58305">
        <ele>1156.8</ele>
        <time>2022-07-19T19:07:54Z</time>
      </trkpt>
      <trkpt lat="44.84543" lon="6.58308">
        <ele>1156.8</ele>
        <time>2022-07-19T19:07:55Z</time>
      </trkpt>
      <trkpt lat="44.84548" lon="6.5831">
        <ele>1156.8</ele>
        <time>2022-07-19T19:07:56Z</time>
      </trkpt>
      <trkpt lat="44.84553" lon="6.58312">
        <ele>1156.8</ele>
        <time>2022-07-19T19:07:57Z</time>
      </trkpt>
      <trkpt lat="44.84558" lon="6.58315">
        <ele>1156.8</ele>
        <time>2022-07-19T19:07:58Z</time>
      </trkpt>
      <trkpt lat="44.84564" lon="6.58317">
        <ele>1156.6</ele>
        <time>2022-07-19T19:07:59Z</time>
      </trkpt>
      <trkpt lat="44.84569" lon="6.58318">
        <ele>1156.6</ele>
        <time>2022-07-19T19:08:00Z</time>
      </trkpt>
      <trkpt lat="44.84574" lon="6.5832">
        <ele>1156.6</ele>
        <time>2022-07-19T19:08:01Z</time>
      </trkpt>
      <trkpt lat="44.8458" lon="6.58322">
        <ele>1156.6</ele>
        <time>2022-07-19T19:08:02Z</time>
      </trkpt>
      <trkpt lat="44.84585" lon="6.58324">
        <ele>1156.6</ele>
        <time>2022-07-19T19:08:03Z</time>
      </trkpt>
      <trkpt lat="44.8459" lon="6.58325">
        <ele>1156.6</ele>
        <time>2022-07-19T19:08:04Z</time>
      </trkpt>
      <trkpt lat="44.84595" lon="6.58325">
        <ele>1156.4</ele>
        <time>2022-07-19T19:08:05Z</time>
      </trkpt>
      <trkpt lat="44.846" lon="6.58326">
        <ele>1156.4</ele>
        <time>2022-07-19T19:08:06Z</time>
      </trkpt>
      <trkpt lat="44.84606" lon="6.58327">
        <ele>1156.4</ele>
        <time>2022-07-19T19:08:07Z</time>
      </trkpt>
      <trkpt lat="44.84611" lon="6.58327">
        <ele>1156.4</ele>
        <time>2022-07-19T19:08:08Z</time>
      </trkpt>
      <trkpt lat="44.84616" lon="6.58328">
        <ele>1156</ele>
        <time>2022-07-19T19:08:09Z</time>
      </trkpt>
      <trkpt lat="44.84621" lon="6.58328">
        <ele>1156</ele>
        <time>2022-07-19T19:08:10Z</time>
      </trkpt>
      <trkpt lat="44.84626" lon="6.58328">
        <ele>1156</ele>
        <time>2022-07-19T19:08:11Z</time>
      </trkpt>
      <trkpt lat="44.8463" lon="6.58327">
        <ele>1156</ele>
        <time>2022-07-19T19:08:12Z</time>
      </trkpt>
      <trkpt lat="44.84635" lon="6.58327">
        <ele>1156</ele>
        <time>2022-07-19T19:08:13Z</time>
      </trkpt>
      <trkpt lat="44.84639" lon="6.58326">
        <ele>1155.8</ele>
        <time>2022-07-19T19:08:14Z</time>
      </trkpt>
      <trkpt lat="44.84643" lon="6.58326">
        <ele>1155.8</ele>
        <time>2022-07-19T19:08:15Z</time>
      </trkpt>
      <trkpt lat="44.84647" lon="6.58325">
        <ele>1155.8</ele>
        <time>2022-07-19T19:08:16Z</time>
      </trkpt>
      <trkpt lat="44.84651" lon="6.58324">
        <ele>1155.8</ele>
        <time>2022-07-19T19:08:17Z</time>
      </trkpt>
      <trkpt lat="44.84655" lon="6.58323">
        <ele>1155.8</ele>
        <time>2022-07-19T19:08:18Z</time>
      </trkpt>
      <trkpt lat="44.84659" lon="6.58322">
        <ele>1155.8</ele>
        <time>2022-07-19T19:08:19Z</time>
      </trkpt>
      <trkpt lat="44.84663" lon="6.58322">
        <ele>1155.8</ele>
        <time>2022-07-19T19:08:20Z</time>
      </trkpt>
      <trkpt lat="44.84667" lon="6.58321">
        <ele>1156.2</ele>
        <time>2022-07-19T19:08:21Z</time>
      </trkpt>
      <trkpt lat="44.84671" lon="6.58321">
        <ele>1156.2</ele>
        <time>2022-07-19T19:08:22Z</time>
      </trkpt>
      <trkpt lat="44.84675" lon="6.5832">
        <ele>1156.2</ele>
        <time>2022-07-19T19:08:23Z</time>
      </trkpt>
      <trkpt lat="44.84679" lon="6.58319">
        <ele>1156.4</ele>
        <time>2022-07-19T19:08:24Z</time>
      </trkpt>
      <trkpt lat="44.84683" lon="6.58318">
        <ele>1156.4</ele>
        <time>2022-07-19T19:08:25Z</time>
      </trkpt>
      <trkpt lat="44.84687" lon="6.58318">
        <ele>1156.4</ele>
        <time>2022-07-19T19:08:26Z</time>
      </trkpt>
      <trkpt lat="44.84691" lon="6.58317">
        <ele>1156.4</ele>
        <time>2022-07-19T19:08:27Z</time>
      </trkpt>
      <trkpt lat="44.84695" lon="6.58316">
        <ele>1156.6</ele>
        <time>2022-07-19T19:08:28Z</time>
      </trkpt>
      <trkpt lat="44.84699" lon="6.58316">
        <ele>1156.6</ele>
        <time>2022-07-19T19:08:29Z</time>
      </trkpt>
      <trkpt lat="44.84703" lon="6.58315">
        <ele>1156.6</ele>
        <time>2022-07-19T19:08:30Z</time>
      </trkpt>
      <trkpt lat="44.84707" lon="6.58314">
        <ele>1156.8</ele>
        <time>2022-07-19T19:08:31Z</time>
      </trkpt>
      <trkpt lat="44.8471" lon="6.58313">
        <ele>1156.8</ele>
        <time>2022-07-19T19:08:32Z</time>
      </trkpt>
      <trkpt lat="44.84714" lon="6.58313">
        <ele>1156.8</ele>
        <time>2022-07-19T19:08:33Z</time>
      </trkpt>
      <trkpt lat="44.84718" lon="6.58312">
        <ele>1156.8</ele>
        <time>2022-07-19T19:08:34Z</time>
      </trkpt>
      <trkpt lat="44.84721" lon="6.58311">
        <ele>1157.2</ele>
        <time>2022-07-19T19:08:35Z</time>
      </trkpt>
      <trkpt lat="44.84725" lon="6.58311">
        <ele>1157.2</ele>
        <time>2022-07-19T19:08:36Z</time>
      </trkpt>
      <trkpt lat="44.84728" lon="6.5831">
        <ele>1157.4</ele>
        <time>2022-07-19T19:08:37Z</time>
      </trkpt>
      <trkpt lat="44.84732" lon="6.58309">
        <ele>1157.4</ele>
        <time>2022-07-19T19:08:38Z</time>
      </trkpt>
      <trkpt lat="44.84735" lon="6.58308">
        <ele>1157.4</ele>
        <time>2022-07-19T19:08:39Z</time>
      </trkpt>
      <trkpt lat="44.84739" lon="6.58308">
        <ele>1157.6</ele>
        <time>2022-07-19T19:08:40Z</time>
      </trkpt>
      <trkpt lat="44.84742" lon="6.58307">
        <ele>1157.6</ele>
        <time>2022-07-19T19:08:41Z</time>
      </trkpt>
      <trkpt lat="44.84746" lon="6.58306">
        <ele>1157.6</ele>
        <time>2022-07-19T19:08:42Z</time>
      </trkpt>
      <trkpt lat="44.8475" lon="6.58304">
        <ele>1157.8</ele>
        <time>2022-07-19T19:08:43Z</time>
      </trkpt>
      <trkpt lat="44.84753" lon="6.58304">
        <ele>1157.8</ele>
        <time>2022-07-19T19:08:44Z</time>
      </trkpt>
      <trkpt lat="44.84757" lon="6.58303">
        <ele>1157.8</ele>
        <time>2022-07-19T19:08:45Z</time>
      </trkpt>
      <trkpt lat="44.8476" lon="6.58302">
        <ele>1158.2</ele>
        <time>2022-07-19T19:08:46Z</time>
      </trkpt>
      <trkpt lat="44.84764" lon="6.58302">
        <ele>1158.2</ele>
        <time>2022-07-19T19:08:47Z</time>
      </trkpt>
      <trkpt lat="44.84767" lon="6.58301">
        <ele>1158.2</ele>
        <time>2022-07-19T19:08:48Z</time>
      </trkpt>
      <trkpt lat="44.84771" lon="6.583">
        <ele>1158.4</ele>
        <time>2022-07-19T19:08:49Z</time>
      </trkpt>
      <trkpt lat="44.84775" lon="6.58299">
        <ele>1158.4</ele>
        <time>2022-07-19T19:08:50Z</time>
      </trkpt>
      <trkpt lat="44.84779" lon="6.58299">
        <ele>1158.4</ele>
        <time>2022-07-19T19:08:51Z</time>
      </trkpt>
      <trkpt lat="44.84782" lon="6.58298">
        <ele>1158.6</ele>
        <time>2022-07-19T19:08:52Z</time>
      </trkpt>
      <trkpt lat="44.84786" lon="6.58297">
        <ele>1158.6</ele>
        <time>2022-07-19T19:08:53Z</time>
      </trkpt>
      <trkpt lat="44.8479" lon="6.58297">
        <ele>1158.6</ele>
        <time>2022-07-19T19:08:54Z</time>
      </trkpt>
      <trkpt lat="44.84793" lon="6.58296">
        <ele>1159</ele>
        <time>2022-07-19T19:08:55Z</time>
      </trkpt>
      <trkpt lat="44.84797" lon="6.58295">
        <ele>1159</ele>
        <time>2022-07-19T19:08:56Z</time>
      </trkpt>
      <trkpt lat="44.848" lon="6.58295">
        <ele>1159</ele>
        <time>2022-07-19T19:08:57Z</time>
      </trkpt>
      <trkpt lat="44.84804" lon="6.58294">
        <ele>1159</ele>
        <time>2022-07-19T19:08:58Z</time>
      </trkpt>
      <trkpt lat="44.84808" lon="6.58293">
        <ele>1159.2</ele>
        <time>2022-07-19T19:08:59Z</time>
      </trkpt>
      <trkpt lat="44.84811" lon="6.58292">
        <ele>1159.2</ele>
        <time>2022-07-19T19:09:00Z</time>
      </trkpt>
      <trkpt lat="44.84815" lon="6.58292">
        <ele>1159.2</ele>
        <time>2022-07-19T19:09:01Z</time>
      </trkpt>
      <trkpt lat="44.84818" lon="6.58291">
        <ele>1159.6</ele>
        <time>2022-07-19T19:09:02Z</time>
      </trkpt>
      <trkpt lat="44.84822" lon="6.5829">
        <ele>1159.6</ele>
        <time>2022-07-19T19:09:03Z</time>
      </trkpt>
      <trkpt lat="44.84826" lon="6.58289">
        <ele>1159.6</ele>
        <time>2022-07-19T19:09:04Z</time>
      </trkpt>
      <trkpt lat="44.84829" lon="6.58288">
        <ele>1159.6</ele>
        <time>2022-07-19T19:09:05Z</time>
      </trkpt>
      <trkpt lat="44.84833" lon="6.58288">
        <ele>1159.8</ele>
        <time>2022-07-19T19:09:06Z</time>
      </trkpt>
      <trkpt lat="44.84837" lon="6.58287">
        <ele>1159.8</ele>
        <time>2022-07-19T19:09:07Z</time>
      </trkpt>
      <trkpt lat="44.8484" lon="6.58287">
        <ele>1159.8</ele>
        <time>2022-07-19T19:09:08Z</time>
      </trkpt>
      <trkpt lat="44.84844" lon="6.58286">
        <ele>1159.8</ele>
        <time>2022-07-19T19:09:09Z</time>
      </trkpt>
      <trkpt lat="44.84847" lon="6.58286">
        <ele>1159.8</ele>
        <time>2022-07-19T19:09:10Z</time>
      </trkpt>
      <trkpt lat="44.84851" lon="6.58285">
        <ele>1159.8</ele>
        <time>2022-07-19T19:09:11Z</time>
      </trkpt>
      <trkpt lat="44.84855" lon="6.58284">
        <ele>1159.8</ele>
        <time>2022-07-19T19:09:12Z</time>
      </trkpt>
      <trkpt lat="44.84858" lon="6.58283">
        <ele>1160</ele>
        <time>2022-07-19T19:09:13Z</time>
      </trkpt>
      <trkpt lat="44.84862" lon="6.58282">
        <ele>1160</ele>
        <time>2022-07-19T19:09:14Z</time>
      </trkpt>
      <trkpt lat="44.84866" lon="6.58281">
        <ele>1160</ele>
        <time>2022-07-19T19:09:15Z</time>
      </trkpt>
      <trkpt lat="44.84869" lon="6.5828">
        <ele>1160</ele>
        <time>2022-07-19T19:09:16Z</time>
      </trkpt>
      <trkpt lat="44.84873" lon="6.58279">
        <ele>1160</ele>
        <time>2022-07-19T19:09:17Z</time>
      </trkpt>
      <trkpt lat="44.84877" lon="6.58279">
        <ele>1160.2</ele>
        <time>2022-07-19T19:09:18Z</time>
      </trkpt>
      <trkpt lat="44.84881" lon="6.58278">
        <ele>1160.2</ele>
        <time>2022-07-19T19:09:19Z</time>
      </trkpt>
      <trkpt lat="44.84885" lon="6.58277">
        <ele>1160.2</ele>
        <time>2022-07-19T19:09:20Z</time>
      </trkpt>
      <trkpt lat="44.84889" lon="6.58277">
        <ele>1160.4</ele>
        <time>2022-07-19T19:09:21Z</time>
      </trkpt>
      <trkpt lat="44.84893" lon="6.58276">
        <ele>1160.4</ele>
        <time>2022-07-19T19:09:22Z</time>
      </trkpt>
      <trkpt lat="44.84897" lon="6.58276">
        <ele>1160.4</ele>
        <time>2022-07-19T19:09:23Z</time>
      </trkpt>
      <trkpt lat="44.84901" lon="6.58275">
        <ele>1160.4</ele>
        <time>2022-07-19T19:09:24Z</time>
      </trkpt>
      <trkpt lat="44.84905" lon="6.58274">
        <ele>1160.4</ele>
        <time>2022-07-19T19:09:25Z</time>
      </trkpt>
      <trkpt lat="44.84909" lon="6.58274">
        <ele>1160.4</ele>
        <time>2022-07-19T19:09:26Z</time>
      </trkpt>
      <trkpt lat="44.84913" lon="6.58273">
        <ele>1160.4</ele>
        <time>2022-07-19T19:09:27Z</time>
      </trkpt>
      <trkpt lat="44.84918" lon="6.58272">
        <ele>1160.4</ele>
        <time>2022-07-19T19:09:28Z</time>
      </trkpt>
      <trkpt lat="44.84922" lon="6.58271">
        <ele>1160.4</ele>
        <time>2022-07-19T19:09:29Z</time>
      </trkpt>
      <trkpt lat="44.84926" lon="6.58271">
        <ele>1160.4</ele>
        <time>2022-07-19T19:09:30Z</time>
      </trkpt>
      <trkpt lat="44.8493" lon="6.5827">
        <ele>1160.4</ele>
        <time>2022-07-19T19:09:31Z</time>
      </trkpt>
      <trkpt lat="44.84935" lon="6.58269">
        <ele>1160.4</ele>
        <time>2022-07-19T19:09:32Z</time>
      </trkpt>
      <trkpt lat="44.84939" lon="6.58268">
        <ele>1160.4</ele>
        <time>2022-07-19T19:09:33Z</time>
      </trkpt>
      <trkpt lat="44.84944" lon="6.58267">
        <ele>1160.4</ele>
        <time>2022-07-19T19:09:34Z</time>
      </trkpt>
      <trkpt lat="44.84949" lon="6.58266">
        <ele>1160.4</ele>
        <time>2022-07-19T19:09:35Z</time>
      </trkpt>
      <trkpt lat="44.84953" lon="6.58265">
        <ele>1160.6</ele>
        <time>2022-07-19T19:09:36Z</time>
      </trkpt>
      <trkpt lat="44.84958" lon="6.58264">
        <ele>1160.6</ele>
        <time>2022-07-19T19:09:37Z</time>
      </trkpt>
      <trkpt lat="44.84963" lon="6.58263">
        <ele>1160.6</ele>
        <time>2022-07-19T19:09:38Z</time>
      </trkpt>
      <trkpt lat="44.84968" lon="6.58262">
        <ele>1160.6</ele>
        <time>2022-07-19T19:09:39Z</time>
      </trkpt>
      <trkpt lat="44.84973" lon="6.58261">
        <ele>1160.6</ele>
        <time>2022-07-19T19:09:40Z</time>
      </trkpt>
      <trkpt lat="44.84978" lon="6.5826">
        <ele>1160.6</ele>
        <time>2022-07-19T19:09:41Z</time>
      </trkpt>
      <trkpt lat="44.84983" lon="6.5826">
        <ele>1160.6</ele>
        <time>2022-07-19T19:09:42Z</time>
      </trkpt>
      <trkpt lat="44.84987" lon="6.58258">
        <ele>1160.6</ele>
        <time>2022-07-19T19:09:43Z</time>
      </trkpt>
      <trkpt lat="44.84992" lon="6.58257">
        <ele>1160.6</ele>
        <time>2022-07-19T19:09:44Z</time>
      </trkpt>
      <trkpt lat="44.84997" lon="6.58256">
        <ele>1160.6</ele>
        <time>2022-07-19T19:09:45Z</time>
      </trkpt>
      <trkpt lat="44.85002" lon="6.58255">
        <ele>1160.6</ele>
        <time>2022-07-19T19:09:46Z</time>
      </trkpt>
      <trkpt lat="44.85007" lon="6.58253">
        <ele>1160.6</ele>
        <time>2022-07-19T19:09:47Z</time>
      </trkpt>
      <trkpt lat="44.85013" lon="6.58252">
        <ele>1160.6</ele>
        <time>2022-07-19T19:09:48Z</time>
      </trkpt>
      <trkpt lat="44.85018" lon="6.5825">
        <ele>1160.6</ele>
        <time>2022-07-19T19:09:49Z</time>
      </trkpt>
      <trkpt lat="44.85023" lon="6.58248">
        <ele>1160.6</ele>
        <time>2022-07-19T19:09:50Z</time>
      </trkpt>
      <trkpt lat="44.85029" lon="6.58246">
        <ele>1160.6</ele>
        <time>2022-07-19T19:09:51Z</time>
      </trkpt>
      <trkpt lat="44.85034" lon="6.58244">
        <ele>1160.4</ele>
        <time>2022-07-19T19:09:52Z</time>
      </trkpt>
      <trkpt lat="44.85039" lon="6.58242">
        <ele>1160.4</ele>
        <time>2022-07-19T19:09:53Z</time>
      </trkpt>
      <trkpt lat="44.85044" lon="6.5824">
        <ele>1160.4</ele>
        <time>2022-07-19T19:09:54Z</time>
      </trkpt>
      <trkpt lat="44.85049" lon="6.58238">
        <ele>1160.4</ele>
        <time>2022-07-19T19:09:55Z</time>
      </trkpt>
      <trkpt lat="44.85054" lon="6.58236">
        <ele>1160.6</ele>
        <time>2022-07-19T19:09:56Z</time>
      </trkpt>
      <trkpt lat="44.85058" lon="6.58234">
        <ele>1160.6</ele>
        <time>2022-07-19T19:09:57Z</time>
      </trkpt>
      <trkpt lat="44.85063" lon="6.58232">
        <ele>1160.6</ele>
        <time>2022-07-19T19:09:58Z</time>
      </trkpt>
      <trkpt lat="44.85068" lon="6.5823">
        <ele>1160.6</ele>
        <time>2022-07-19T19:09:59Z</time>
      </trkpt>
      <trkpt lat="44.85072" lon="6.58228">
        <ele>1160.6</ele>
        <time>2022-07-19T19:10:00Z</time>
      </trkpt>
      <trkpt lat="44.85077" lon="6.58227">
        <ele>1160.6</ele>
        <time>2022-07-19T19:10:01Z</time>
      </trkpt>
      <trkpt lat="44.85081" lon="6.58225">
        <ele>1160.6</ele>
        <time>2022-07-19T19:10:02Z</time>
      </trkpt>
      <trkpt lat="44.85086" lon="6.58223">
        <ele>1160.6</ele>
        <time>2022-07-19T19:10:03Z</time>
      </trkpt>
      <trkpt lat="44.8509" lon="6.58221">
        <ele>1160.6</ele>
        <time>2022-07-19T19:10:04Z</time>
      </trkpt>
      <trkpt lat="44.85094" lon="6.58219">
        <ele>1160.6</ele>
        <time>2022-07-19T19:10:05Z</time>
      </trkpt>
      <trkpt lat="44.85099" lon="6.58218">
        <ele>1161</ele>
        <time>2022-07-19T19:10:06Z</time>
      </trkpt>
      <trkpt lat="44.85103" lon="6.58216">
        <ele>1161</ele>
        <time>2022-07-19T19:10:07Z</time>
      </trkpt>
      <trkpt lat="44.85108" lon="6.58214">
        <ele>1161</ele>
        <time>2022-07-19T19:10:08Z</time>
      </trkpt>
      <trkpt lat="44.85112" lon="6.58212">
        <ele>1161</ele>
        <time>2022-07-19T19:10:09Z</time>
      </trkpt>
      <trkpt lat="44.85117" lon="6.58211">
        <ele>1161.2</ele>
        <time>2022-07-19T19:10:10Z</time>
      </trkpt>
      <trkpt lat="44.85121" lon="6.58209">
        <ele>1161.2</ele>
        <time>2022-07-19T19:10:11Z</time>
      </trkpt>
      <trkpt lat="44.85126" lon="6.58207">
        <ele>1161.2</ele>
        <time>2022-07-19T19:10:12Z</time>
      </trkpt>
      <trkpt lat="44.8513" lon="6.58205">
        <ele>1161.2</ele>
        <time>2022-07-19T19:10:13Z</time>
      </trkpt>
      <trkpt lat="44.85135" lon="6.58204">
        <ele>1161.4</ele>
        <time>2022-07-19T19:10:14Z</time>
      </trkpt>
      <trkpt lat="44.85139" lon="6.58202">
        <ele>1161.4</ele>
        <time>2022-07-19T19:10:15Z</time>
      </trkpt>
      <trkpt lat="44.85144" lon="6.582">
        <ele>1161.4</ele>
        <time>2022-07-19T19:10:16Z</time>
      </trkpt>
      <trkpt lat="44.85148" lon="6.58199">
        <ele>1161.4</ele>
        <time>2022-07-19T19:10:17Z</time>
      </trkpt>
      <trkpt lat="44.85152" lon="6.58198">
        <ele>1161.4</ele>
        <time>2022-07-19T19:10:18Z</time>
      </trkpt>
      <trkpt lat="44.85157" lon="6.58198">
        <ele>1161.4</ele>
        <time>2022-07-19T19:10:19Z</time>
      </trkpt>
      <trkpt lat="44.85161" lon="6.58197">
        <ele>1161.6</ele>
        <time>2022-07-19T19:10:20Z</time>
      </trkpt>
      <trkpt lat="44.85165" lon="6.58196">
        <ele>1161.6</ele>
        <time>2022-07-19T19:10:21Z</time>
      </trkpt>
      <trkpt lat="44.8517" lon="6.58196">
        <ele>1161.6</ele>
        <time>2022-07-19T19:10:22Z</time>
      </trkpt>
      <trkpt lat="44.85174" lon="6.58196">
        <ele>1162</ele>
        <time>2022-07-19T19:10:23Z</time>
      </trkpt>
      <trkpt lat="44.85178" lon="6.58195">
        <ele>1162</ele>
        <time>2022-07-19T19:10:24Z</time>
      </trkpt>
      <trkpt lat="44.85182" lon="6.58195">
        <ele>1162.2</ele>
        <time>2022-07-19T19:10:25Z</time>
      </trkpt>
      <trkpt lat="44.85186" lon="6.58195">
        <ele>1162.2</ele>
        <time>2022-07-19T19:10:26Z</time>
      </trkpt>
      <trkpt lat="44.85189" lon="6.58195">
        <ele>1162.6</ele>
        <time>2022-07-19T19:10:27Z</time>
      </trkpt>
      <trkpt lat="44.85193" lon="6.58195">
        <ele>1162.6</ele>
        <time>2022-07-19T19:10:28Z</time>
      </trkpt>
      <trkpt lat="44.85197" lon="6.58196">
        <ele>1162.8</ele>
        <time>2022-07-19T19:10:29Z</time>
      </trkpt>
      <trkpt lat="44.852" lon="6.58196">
        <ele>1162.8</ele>
        <time>2022-07-19T19:10:30Z</time>
      </trkpt>
      <trkpt lat="44.85204" lon="6.58197">
        <ele>1163.2</ele>
        <time>2022-07-19T19:10:31Z</time>
      </trkpt>
      <trkpt lat="44.85207" lon="6.58199">
        <ele>1163.4</ele>
        <time>2022-07-19T19:10:32Z</time>
      </trkpt>
      <trkpt lat="44.85211" lon="6.582">
        <ele>1163.4</ele>
        <time>2022-07-19T19:10:33Z</time>
      </trkpt>
      <trkpt lat="44.85214" lon="6.582">
        <ele>1163.8</ele>
        <time>2022-07-19T19:10:34Z</time>
      </trkpt>
      <trkpt lat="44.85217" lon="6.58201">
        <ele>1163.8</ele>
        <time>2022-07-19T19:10:35Z</time>
      </trkpt>
      <trkpt lat="44.8522" lon="6.58202">
        <ele>1164</ele>
        <time>2022-07-19T19:10:36Z</time>
      </trkpt>
      <trkpt lat="44.85223" lon="6.58204">
        <ele>1164.4</ele>
        <time>2022-07-19T19:10:37Z</time>
      </trkpt>
      <trkpt lat="44.85226" lon="6.58205">
        <ele>1164.4</ele>
        <time>2022-07-19T19:10:38Z</time>
      </trkpt>
      <trkpt lat="44.85228" lon="6.58205">
        <ele>1164.6</ele>
        <time>2022-07-19T19:10:39Z</time>
      </trkpt>
      <trkpt lat="44.85231" lon="6.58206">
        <ele>1164.6</ele>
        <time>2022-07-19T19:10:40Z</time>
      </trkpt>
      <trkpt lat="44.85234" lon="6.58208">
        <ele>1164.8</ele>
        <time>2022-07-19T19:10:41Z</time>
      </trkpt>
      <trkpt lat="44.85236" lon="6.58209">
        <ele>1164.8</ele>
        <time>2022-07-19T19:10:42Z</time>
      </trkpt>
      <trkpt lat="44.85239" lon="6.5821">
        <ele>1165.2</ele>
        <time>2022-07-19T19:10:43Z</time>
      </trkpt>
      <trkpt lat="44.85242" lon="6.58211">
        <ele>1165.2</ele>
        <time>2022-07-19T19:10:44Z</time>
      </trkpt>
      <trkpt lat="44.85245" lon="6.58212">
        <ele>1165.4</ele>
        <time>2022-07-19T19:10:45Z</time>
      </trkpt>
      <trkpt lat="44.85248" lon="6.58214">
        <ele>1165.4</ele>
        <time>2022-07-19T19:10:46Z</time>
      </trkpt>
      <trkpt lat="44.8525" lon="6.58216">
        <ele>1165.8</ele>
        <time>2022-07-19T19:10:47Z</time>
      </trkpt>
      <trkpt lat="44.85253" lon="6.58218">
        <ele>1165.8</ele>
        <time>2022-07-19T19:10:48Z</time>
      </trkpt>
      <trkpt lat="44.85257" lon="6.5822">
        <ele>1166.2</ele>
        <time>2022-07-19T19:10:49Z</time>
      </trkpt>
      <trkpt lat="44.8526" lon="6.58222">
        <ele>1166.4</ele>
        <time>2022-07-19T19:10:50Z</time>
      </trkpt>
      <trkpt lat="44.85263" lon="6.58224">
        <ele>1166.8</ele>
        <time>2022-07-19T19:10:51Z</time>
      </trkpt>
      <trkpt lat="44.85266" lon="6.58227">
        <ele>1166.8</ele>
        <time>2022-07-19T19:10:52Z</time>
      </trkpt>
      <trkpt lat="44.85269" lon="6.58229">
        <ele>1167</ele>
        <time>2022-07-19T19:10:53Z</time>
      </trkpt>
      <trkpt lat="44.85272" lon="6.58231">
        <ele>1167</ele>
        <time>2022-07-19T19:10:54Z</time>
      </trkpt>
      <trkpt lat="44.85275" lon="6.58233">
        <ele>1167.2</ele>
        <time>2022-07-19T19:10:55Z</time>
      </trkpt>
      <trkpt lat="44.85278" lon="6.58235">
        <ele>1167.4</ele>
        <time>2022-07-19T19:10:56Z</time>
      </trkpt>
      <trkpt lat="44.85281" lon="6.58237">
        <ele>1167.4</ele>
        <time>2022-07-19T19:10:57Z</time>
      </trkpt>
      <trkpt lat="44.85283" lon="6.58238">
        <ele>1167.8</ele>
        <time>2022-07-19T19:10:58Z</time>
      </trkpt>
      <trkpt lat="44.85286" lon="6.58241">
        <ele>1167.8</ele>
        <time>2022-07-19T19:10:59Z</time>
      </trkpt>
      <trkpt lat="44.85289" lon="6.58243">
        <ele>1168</ele>
        <time>2022-07-19T19:11:00Z</time>
      </trkpt>
      <trkpt lat="44.85291" lon="6.58245">
        <ele>1168</ele>
        <time>2022-07-19T19:11:01Z</time>
      </trkpt>
      <trkpt lat="44.85294" lon="6.58247">
        <ele>1168.2</ele>
        <time>2022-07-19T19:11:02Z</time>
      </trkpt>
      <trkpt lat="44.85297" lon="6.58249">
        <ele>1168.2</ele>
        <time>2022-07-19T19:11:03Z</time>
      </trkpt>
      <trkpt lat="44.853" lon="6.58251">
        <ele>1168.2</ele>
        <time>2022-07-19T19:11:04Z</time>
      </trkpt>
      <trkpt lat="44.85302" lon="6.58253">
        <ele>1168.2</ele>
        <time>2022-07-19T19:11:05Z</time>
      </trkpt>
      <trkpt lat="44.85305" lon="6.58256">
        <ele>1168.6</ele>
        <time>2022-07-19T19:11:06Z</time>
      </trkpt>
      <trkpt lat="44.85308" lon="6.58258">
        <ele>1168.6</ele>
        <time>2022-07-19T19:11:07Z</time>
      </trkpt>
      <trkpt lat="44.85311" lon="6.5826">
        <ele>1168.8</ele>
        <time>2022-07-19T19:11:08Z</time>
      </trkpt>
      <trkpt lat="44.85313" lon="6.58262">
        <ele>1168.8</ele>
        <time>2022-07-19T19:11:09Z</time>
      </trkpt>
      <trkpt lat="44.85316" lon="6.58265">
        <ele>1168.8</ele>
        <time>2022-07-19T19:11:10Z</time>
      </trkpt>
      <trkpt lat="44.85319" lon="6.58267">
        <ele>1168.8</ele>
        <time>2022-07-19T19:11:11Z</time>
      </trkpt>
      <trkpt lat="44.85321" lon="6.5827">
        <ele>1169</ele>
        <time>2022-07-19T19:11:12Z</time>
      </trkpt>
      <trkpt lat="44.85324" lon="6.58273">
        <ele>1169</ele>
        <time>2022-07-19T19:11:13Z</time>
      </trkpt>
      <trkpt lat="44.85326" lon="6.58276">
        <ele>1169</ele>
        <time>2022-07-19T19:11:14Z</time>
      </trkpt>
      <trkpt lat="44.85329" lon="6.58278">
        <ele>1169.4</ele>
        <time>2022-07-19T19:11:15Z</time>
      </trkpt>
      <trkpt lat="44.85332" lon="6.58281">
        <ele>1169.4</ele>
        <time>2022-07-19T19:11:16Z</time>
      </trkpt>
      <trkpt lat="44.85335" lon="6.58284">
        <ele>1169.4</ele>
        <time>2022-07-19T19:11:17Z</time>
      </trkpt>
      <trkpt lat="44.85337" lon="6.58287">
        <ele>1169.6</ele>
        <time>2022-07-19T19:11:18Z</time>
      </trkpt>
      <trkpt lat="44.8534" lon="6.5829">
        <ele>1169.6</ele>
        <time>2022-07-19T19:11:19Z</time>
      </trkpt>
      <trkpt lat="44.85342" lon="6.58293">
        <ele>1169.6</ele>
        <time>2022-07-19T19:11:20Z</time>
      </trkpt>
      <trkpt lat="44.85345" lon="6.58296">
        <ele>1169.6</ele>
        <time>2022-07-19T19:11:21Z</time>
      </trkpt>
      <trkpt lat="44.85348" lon="6.58299">
        <ele>1169.8</ele>
        <time>2022-07-19T19:11:22Z</time>
      </trkpt>
      <trkpt lat="44.85351" lon="6.58302">
        <ele>1169.8</ele>
        <time>2022-07-19T19:11:23Z</time>
      </trkpt>
      <trkpt lat="44.85353" lon="6.58304">
        <ele>1170</ele>
        <time>2022-07-19T19:11:24Z</time>
      </trkpt>
      <trkpt lat="44.85356" lon="6.58307">
        <ele>1170</ele>
        <time>2022-07-19T19:11:25Z</time>
      </trkpt>
      <trkpt lat="44.85358" lon="6.5831">
        <ele>1170</ele>
        <time>2022-07-19T19:11:26Z</time>
      </trkpt>
      <trkpt lat="44.8536" lon="6.58313">
        <ele>1170</ele>
        <time>2022-07-19T19:11:27Z</time>
      </trkpt>
      <trkpt lat="44.85362" lon="6.58315">
        <ele>1170</ele>
        <time>2022-07-19T19:11:28Z</time>
      </trkpt>
      <trkpt lat="44.85363" lon="6.58317">
        <ele>1170.2</ele>
        <time>2022-07-19T19:11:29Z</time>
      </trkpt>
      <trkpt lat="44.85365" lon="6.58318">
        <ele>1170.2</ele>
        <time>2022-07-19T19:11:30Z</time>
      </trkpt>
      <trkpt lat="44.85367" lon="6.58319">
        <ele>1170.2</ele>
        <time>2022-07-19T19:11:31Z</time>
      </trkpt>
      <trkpt lat="44.8537" lon="6.58315">
        <ele>1170.2</ele>
        <time>2022-07-19T19:11:32Z</time>
      </trkpt>
      <trkpt lat="44.8537" lon="6.58312">
        <ele>1170.6</ele>
        <time>2022-07-19T19:11:33Z</time>
      </trkpt>
      <trkpt lat="44.85369" lon="6.58311">
        <ele>1170.6</ele>
        <time>2022-07-19T19:11:34Z</time>
      </trkpt>
      <trkpt lat="44.85369" lon="6.5831">
        <ele>1170.6</ele>
        <time>2022-07-19T19:11:35Z</time>
      </trkpt>
      <trkpt lat="44.85369" lon="6.58309">
        <ele>1170.6</ele>
        <time>2022-07-19T19:11:36Z</time>
      </trkpt>
      <trkpt lat="44.85369" lon="6.58309">
        <ele>1170.6</ele>
        <time>2022-07-19T19:11:37Z</time>
      </trkpt>
      <trkpt lat="44.85369" lon="6.58314">
        <ele>1169.8</ele>
        <time>2022-07-19T19:13:11Z</time>
      </trkpt>
      <trkpt lat="44.8537" lon="6.58316">
        <ele>1169.8</ele>
        <time>2022-07-19T19:13:12Z</time>
      </trkpt>
      <trkpt lat="44.85371" lon="6.58318">
        <ele>1169.8</ele>
        <time>2022-07-19T19:13:13Z</time>
      </trkpt>
      <trkpt lat="44.85372" lon="6.5832">
        <ele>1169.8</ele>
        <time>2022-07-19T19:13:14Z</time>
      </trkpt>
      <trkpt lat="44.85373" lon="6.58321">
        <ele>1169.8</ele>
        <time>2022-07-19T19:13:15Z</time>
      </trkpt>
      <trkpt lat="44.85375" lon="6.58323">
        <ele>1169.8</ele>
        <time>2022-07-19T19:13:16Z</time>
      </trkpt>
      <trkpt lat="44.85377" lon="6.58325">
        <ele>1170</ele>
        <time>2022-07-19T19:13:17Z</time>
      </trkpt>
      <trkpt lat="44.85379" lon="6.58327">
        <ele>1170</ele>
        <time>2022-07-19T19:13:18Z</time>
      </trkpt>
      <trkpt lat="44.8538" lon="6.5833">
        <ele>1170</ele>
        <time>2022-07-19T19:13:19Z</time>
      </trkpt>
      <trkpt lat="44.85382" lon="6.58332">
        <ele>1170.2</ele>
        <time>2022-07-19T19:13:20Z</time>
      </trkpt>
      <trkpt lat="44.85384" lon="6.58334">
        <ele>1170.2</ele>
        <time>2022-07-19T19:13:21Z</time>
      </trkpt>
      <trkpt lat="44.85386" lon="6.58337">
        <ele>1170.2</ele>
        <time>2022-07-19T19:13:22Z</time>
      </trkpt>
      <trkpt lat="44.85389" lon="6.58339">
        <ele>1170.2</ele>
        <time>2022-07-19T19:13:23Z</time>
      </trkpt>
      <trkpt lat="44.85391" lon="6.58342">
        <ele>1170.2</ele>
        <time>2022-07-19T19:13:24Z</time>
      </trkpt>
      <trkpt lat="44.85393" lon="6.58344">
        <ele>1170.2</ele>
        <time>2022-07-19T19:13:25Z</time>
      </trkpt>
      <trkpt lat="44.85396" lon="6.58347">
        <ele>1170.2</ele>
        <time>2022-07-19T19:13:26Z</time>
      </trkpt>
      <trkpt lat="44.85398" lon="6.5835">
        <ele>1170.2</ele>
        <time>2022-07-19T19:13:27Z</time>
      </trkpt>
      <trkpt lat="44.85401" lon="6.58353">
        <ele>1170.6</ele>
        <time>2022-07-19T19:13:28Z</time>
      </trkpt>
      <trkpt lat="44.85404" lon="6.58356">
        <ele>1170.6</ele>
        <time>2022-07-19T19:13:29Z</time>
      </trkpt>
      <trkpt lat="44.85406" lon="6.58359">
        <ele>1170.6</ele>
        <time>2022-07-19T19:13:30Z</time>
      </trkpt>
      <trkpt lat="44.85409" lon="6.58362">
        <ele>1170.6</ele>
        <time>2022-07-19T19:13:31Z</time>
      </trkpt>
      <trkpt lat="44.85412" lon="6.58366">
        <ele>1170.6</ele>
        <time>2022-07-19T19:13:32Z</time>
      </trkpt>
      <trkpt lat="44.85415" lon="6.58369">
        <ele>1170.6</ele>
        <time>2022-07-19T19:13:33Z</time>
      </trkpt>
      <trkpt lat="44.85418" lon="6.58373">
        <ele>1170.6</ele>
        <time>2022-07-19T19:13:34Z</time>
      </trkpt>
      <trkpt lat="44.85422" lon="6.58377">
        <ele>1170.6</ele>
        <time>2022-07-19T19:13:35Z</time>
      </trkpt>
      <trkpt lat="44.85425" lon="6.58381">
        <ele>1170.6</ele>
        <time>2022-07-19T19:13:36Z</time>
      </trkpt>
      <trkpt lat="44.85429" lon="6.58386">
        <ele>1170.6</ele>
        <time>2022-07-19T19:13:37Z</time>
      </trkpt>
      <trkpt lat="44.85432" lon="6.5839">
        <ele>1170.6</ele>
        <time>2022-07-19T19:13:38Z</time>
      </trkpt>
      <trkpt lat="44.85436" lon="6.58395">
        <ele>1170.6</ele>
        <time>2022-07-19T19:13:39Z</time>
      </trkpt>
      <trkpt lat="44.8544" lon="6.584">
        <ele>1170.2</ele>
        <time>2022-07-19T19:13:40Z</time>
      </trkpt>
      <trkpt lat="44.85444" lon="6.58405">
        <ele>1170.2</ele>
        <time>2022-07-19T19:13:41Z</time>
      </trkpt>
      <trkpt lat="44.85448" lon="6.58409">
        <ele>1169.8</ele>
        <time>2022-07-19T19:13:42Z</time>
      </trkpt>
      <trkpt lat="44.85453" lon="6.58414">
        <ele>1169.8</ele>
        <time>2022-07-19T19:13:43Z</time>
      </trkpt>
      <trkpt lat="44.85457" lon="6.58418">
        <ele>1169.4</ele>
        <time>2022-07-19T19:13:44Z</time>
      </trkpt>
      <trkpt lat="44.85461" lon="6.58422">
        <ele>1169.4</ele>
        <time>2022-07-19T19:13:45Z</time>
      </trkpt>
      <trkpt lat="44.85466" lon="6.58427">
        <ele>1169.4</ele>
        <time>2022-07-19T19:13:46Z</time>
      </trkpt>
      <trkpt lat="44.85471" lon="6.58431">
        <ele>1169.2</ele>
        <time>2022-07-19T19:13:47Z</time>
      </trkpt>
      <trkpt lat="44.85475" lon="6.58436">
        <ele>1169.2</ele>
        <time>2022-07-19T19:13:48Z</time>
      </trkpt>
      <trkpt lat="44.8548" lon="6.5844">
        <ele>1169</ele>
        <time>2022-07-19T19:13:49Z</time>
      </trkpt>
      <trkpt lat="44.85484" lon="6.58445">
        <ele>1169</ele>
        <time>2022-07-19T19:13:50Z</time>
      </trkpt>
      <trkpt lat="44.85488" lon="6.5845">
        <ele>1168.8</ele>
        <time>2022-07-19T19:13:51Z</time>
      </trkpt>
      <trkpt lat="44.85493" lon="6.58455">
        <ele>1168.4</ele>
        <time>2022-07-19T19:13:52Z</time>
      </trkpt>
      <trkpt lat="44.85497" lon="6.5846">
        <ele>1168.4</ele>
        <time>2022-07-19T19:13:53Z</time>
      </trkpt>
      <trkpt lat="44.85502" lon="6.58465">
        <ele>1168.2</ele>
        <time>2022-07-19T19:13:54Z</time>
      </trkpt>
      <trkpt lat="44.85507" lon="6.5847">
        <ele>1168.2</ele>
        <time>2022-07-19T19:13:55Z</time>
      </trkpt>
      <trkpt lat="44.85511" lon="6.58475">
        <ele>1168.2</ele>
        <time>2022-07-19T19:13:56Z</time>
      </trkpt>
      <trkpt lat="44.85516" lon="6.5848">
        <ele>1168</ele>
        <time>2022-07-19T19:13:57Z</time>
      </trkpt>
      <trkpt lat="44.85521" lon="6.58486">
        <ele>1168</ele>
        <time>2022-07-19T19:13:58Z</time>
      </trkpt>
      <trkpt lat="44.85525" lon="6.58491">
        <ele>1168</ele>
        <time>2022-07-19T19:13:59Z</time>
      </trkpt>
      <trkpt lat="44.8553" lon="6.58496">
        <ele>1168</ele>
        <time>2022-07-19T19:14:00Z</time>
      </trkpt>
      <trkpt lat="44.85534" lon="6.58502">
        <ele>1168</ele>
        <time>2022-07-19T19:14:01Z</time>
      </trkpt>
      <trkpt lat="44.85539" lon="6.58507">
        <ele>1168</ele>
        <time>2022-07-19T19:14:02Z</time>
      </trkpt>
      <trkpt lat="44.85544" lon="6.58512">
        <ele>1167.8</ele>
        <time>2022-07-19T19:14:03Z</time>
      </trkpt>
      <trkpt lat="44.85548" lon="6.58516">
        <ele>1167.8</ele>
        <time>2022-07-19T19:14:04Z</time>
      </trkpt>
      <trkpt lat="44.85553" lon="6.58521">
        <ele>1167.6</ele>
        <time>2022-07-19T19:14:05Z</time>
      </trkpt>
      <trkpt lat="44.85557" lon="6.58526">
        <ele>1167.6</ele>
        <time>2022-07-19T19:14:06Z</time>
      </trkpt>
      <trkpt lat="44.85562" lon="6.5853">
        <ele>1167.2</ele>
        <time>2022-07-19T19:14:07Z</time>
      </trkpt>
      <trkpt lat="44.85566" lon="6.58535">
        <ele>1167.2</ele>
        <time>2022-07-19T19:14:08Z</time>
      </trkpt>
      <trkpt lat="44.8557" lon="6.5854">
        <ele>1167</ele>
        <time>2022-07-19T19:14:09Z</time>
      </trkpt>
      <trkpt lat="44.85575" lon="6.58544">
        <ele>1167</ele>
        <time>2022-07-19T19:14:10Z</time>
      </trkpt>
      <trkpt lat="44.85579" lon="6.58549">
        <ele>1167</ele>
        <time>2022-07-19T19:14:11Z</time>
      </trkpt>
      <trkpt lat="44.85583" lon="6.58554">
        <ele>1166.8</ele>
        <time>2022-07-19T19:14:12Z</time>
      </trkpt>
      <trkpt lat="44.85588" lon="6.58559">
        <ele>1166.8</ele>
        <time>2022-07-19T19:14:13Z</time>
      </trkpt>
      <trkpt lat="44.85592" lon="6.58564">
        <ele>1166.8</ele>
        <time>2022-07-19T19:14:14Z</time>
      </trkpt>
      <trkpt lat="44.85596" lon="6.58568">
        <ele>1166.8</ele>
        <time>2022-07-19T19:14:15Z</time>
      </trkpt>
      <trkpt lat="44.85601" lon="6.58573">
        <ele>1166.4</ele>
        <time>2022-07-19T19:14:16Z</time>
      </trkpt>
      <trkpt lat="44.85605" lon="6.58578">
        <ele>1166.4</ele>
        <time>2022-07-19T19:14:17Z</time>
      </trkpt>
      <trkpt lat="44.8561" lon="6.58583">
        <ele>1166.2</ele>
        <time>2022-07-19T19:14:18Z</time>
      </trkpt>
      <trkpt lat="44.85615" lon="6.58588">
        <ele>1166.2</ele>
        <time>2022-07-19T19:14:19Z</time>
      </trkpt>
      <trkpt lat="44.85619" lon="6.58593">
        <ele>1165.8</ele>
        <time>2022-07-19T19:14:20Z</time>
      </trkpt>
      <trkpt lat="44.85624" lon="6.58598">
        <ele>1165.8</ele>
        <time>2022-07-19T19:14:21Z</time>
      </trkpt>
      <trkpt lat="44.8563" lon="6.58604">
        <ele>1165.4</ele>
        <time>2022-07-19T19:14:22Z</time>
      </trkpt>
      <trkpt lat="44.85635" lon="6.5861">
        <ele>1165</ele>
        <time>2022-07-19T19:14:23Z</time>
      </trkpt>
      <trkpt lat="44.8564" lon="6.58616">
        <ele>1164.8</ele>
        <time>2022-07-19T19:14:24Z</time>
      </trkpt>
      <trkpt lat="44.85646" lon="6.58622">
        <ele>1164.6</ele>
        <time>2022-07-19T19:14:25Z</time>
      </trkpt>
      <trkpt lat="44.85652" lon="6.58628">
        <ele>1164.2</ele>
        <time>2022-07-19T19:14:26Z</time>
      </trkpt>
      <trkpt lat="44.85658" lon="6.58635">
        <ele>1163.8</ele>
        <time>2022-07-19T19:14:27Z</time>
      </trkpt>
      <trkpt lat="44.85664" lon="6.58642">
        <ele>1163.4</ele>
        <time>2022-07-19T19:14:28Z</time>
      </trkpt>
      <trkpt lat="44.85671" lon="6.58649">
        <ele>1163</ele>
        <time>2022-07-19T19:14:29Z</time>
      </trkpt>
      <trkpt lat="44.85677" lon="6.58656">
        <ele>1162.6</ele>
        <time>2022-07-19T19:14:30Z</time>
      </trkpt>
      <trkpt lat="44.85684" lon="6.58663">
        <ele>1162.4</ele>
        <time>2022-07-19T19:14:31Z</time>
      </trkpt>
      <trkpt lat="44.85691" lon="6.5867">
        <ele>1162</ele>
        <time>2022-07-19T19:14:32Z</time>
      </trkpt>
      <trkpt lat="44.85698" lon="6.58678">
        <ele>1161.4</ele>
        <time>2022-07-19T19:14:33Z</time>
      </trkpt>
      <trkpt lat="44.85705" lon="6.58685">
        <ele>1161</ele>
        <time>2022-07-19T19:14:34Z</time>
      </trkpt>
      <trkpt lat="44.85713" lon="6.58694">
        <ele>1160.6</ele>
        <time>2022-07-19T19:14:35Z</time>
      </trkpt>
      <trkpt lat="44.85721" lon="6.58702">
        <ele>1160</ele>
        <time>2022-07-19T19:14:36Z</time>
      </trkpt>
      <trkpt lat="44.85729" lon="6.5871">
        <ele>1159.4</ele>
        <time>2022-07-19T19:14:37Z</time>
      </trkpt>
      <trkpt lat="44.85737" lon="6.58719">
        <ele>1158.8</ele>
        <time>2022-07-19T19:14:38Z</time>
      </trkpt>
      <trkpt lat="44.85746" lon="6.58728">
        <ele>1158.2</ele>
        <time>2022-07-19T19:14:39Z</time>
      </trkpt>
      <trkpt lat="44.85755" lon="6.58737">
        <ele>1157.6</ele>
        <time>2022-07-19T19:14:40Z</time>
      </trkpt>
      <trkpt lat="44.85764" lon="6.58746">
        <ele>1157</ele>
        <time>2022-07-19T19:14:41Z</time>
      </trkpt>
      <trkpt lat="44.85771" lon="6.58755">
        <ele>1156.4</ele>
        <time>2022-07-19T19:14:42Z</time>
      </trkpt>
      <trkpt lat="44.8578" lon="6.58765">
        <ele>1155.8</ele>
        <time>2022-07-19T19:14:43Z</time>
      </trkpt>
      <trkpt lat="44.85789" lon="6.58775">
        <ele>1155.2</ele>
        <time>2022-07-19T19:14:44Z</time>
      </trkpt>
      <trkpt lat="44.85798" lon="6.58784">
        <ele>1154.8</ele>
        <time>2022-07-19T19:14:45Z</time>
      </trkpt>
      <trkpt lat="44.85806" lon="6.58792">
        <ele>1154.4</ele>
        <time>2022-07-19T19:14:46Z</time>
      </trkpt>
      <trkpt lat="44.85814" lon="6.58802">
        <ele>1154</ele>
        <time>2022-07-19T19:14:47Z</time>
      </trkpt>
      <trkpt lat="44.85822" lon="6.58809">
        <ele>1153.6</ele>
        <time>2022-07-19T19:14:48Z</time>
      </trkpt>
      <trkpt lat="44.85829" lon="6.58817">
        <ele>1153.4</ele>
        <time>2022-07-19T19:14:49Z</time>
      </trkpt>
      <trkpt lat="44.85837" lon="6.58824">
        <ele>1153.4</ele>
        <time>2022-07-19T19:14:50Z</time>
      </trkpt>
      <trkpt lat="44.85844" lon="6.58832">
        <ele>1153.4</ele>
        <time>2022-07-19T19:14:51Z</time>
      </trkpt>
      <trkpt lat="44.85851" lon="6.5884">
        <ele>1153.2</ele>
        <time>2022-07-19T19:14:52Z</time>
      </trkpt>
      <trkpt lat="44.85858" lon="6.58846">
        <ele>1153.2</ele>
        <time>2022-07-19T19:14:53Z</time>
      </trkpt>
      <trkpt lat="44.85864" lon="6.58854">
        <ele>1153.2</ele>
        <time>2022-07-19T19:14:54Z</time>
      </trkpt>
      <trkpt lat="44.85871" lon="6.58861">
        <ele>1153.2</ele>
        <time>2022-07-19T19:14:55Z</time>
      </trkpt>
      <trkpt lat="44.85877" lon="6.58868">
        <ele>1153.2</ele>
        <time>2022-07-19T19:14:56Z</time>
      </trkpt>
      <trkpt lat="44.85883" lon="6.58875">
        <ele>1153.2</ele>
        <time>2022-07-19T19:14:57Z</time>
      </trkpt>
      <trkpt lat="44.85889" lon="6.58882">
        <ele>1153.2</ele>
        <time>2022-07-19T19:14:58Z</time>
      </trkpt>
      <trkpt lat="44.85894" lon="6.58888">
        <ele>1153.2</ele>
        <time>2022-07-19T19:14:59Z</time>
      </trkpt>
      <trkpt lat="44.859" lon="6.58894">
        <ele>1153.2</ele>
        <time>2022-07-19T19:15:00Z</time>
      </trkpt>
      <trkpt lat="44.85905" lon="6.589">
        <ele>1153.2</ele>
        <time>2022-07-19T19:15:01Z</time>
      </trkpt>
      <trkpt lat="44.8591" lon="6.58906">
        <ele>1153.2</ele>
        <time>2022-07-19T19:15:02Z</time>
      </trkpt>
      <trkpt lat="44.85915" lon="6.58912">
        <ele>1153.2</ele>
        <time>2022-07-19T19:15:03Z</time>
      </trkpt>
      <trkpt lat="44.8592" lon="6.58917">
        <ele>1153.2</ele>
        <time>2022-07-19T19:15:04Z</time>
      </trkpt>
      <trkpt lat="44.85924" lon="6.58923">
        <ele>1153.4</ele>
        <time>2022-07-19T19:15:05Z</time>
      </trkpt>
      <trkpt lat="44.85929" lon="6.58928">
        <ele>1153.4</ele>
        <time>2022-07-19T19:15:06Z</time>
      </trkpt>
      <trkpt lat="44.85934" lon="6.58934">
        <ele>1153.4</ele>
        <time>2022-07-19T19:15:07Z</time>
      </trkpt>
      <trkpt lat="44.85938" lon="6.58939">
        <ele>1153.4</ele>
        <time>2022-07-19T19:15:08Z</time>
      </trkpt>
      <trkpt lat="44.85942" lon="6.58944">
        <ele>1153.4</ele>
        <time>2022-07-19T19:15:09Z</time>
      </trkpt>
      <trkpt lat="44.85947" lon="6.58949">
        <ele>1153.6</ele>
        <time>2022-07-19T19:15:10Z</time>
      </trkpt>
      <trkpt lat="44.85951" lon="6.58954">
        <ele>1153.6</ele>
        <time>2022-07-19T19:15:11Z</time>
      </trkpt>
      <trkpt lat="44.85955" lon="6.58959">
        <ele>1153.6</ele>
        <time>2022-07-19T19:15:12Z</time>
      </trkpt>
      <trkpt lat="44.8596" lon="6.58963">
        <ele>1153.6</ele>
        <time>2022-07-19T19:15:13Z</time>
      </trkpt>
      <trkpt lat="44.85964" lon="6.58967">
        <ele>1153.6</ele>
        <time>2022-07-19T19:15:14Z</time>
      </trkpt>
      <trkpt lat="44.85969" lon="6.58971">
        <ele>1153.6</ele>
        <time>2022-07-19T19:15:15Z</time>
      </trkpt>
      <trkpt lat="44.85973" lon="6.58976">
        <ele>1153.8</ele>
        <time>2022-07-19T19:15:16Z</time>
      </trkpt>
      <trkpt lat="44.85977" lon="6.5898">
        <ele>1153.8</ele>
        <time>2022-07-19T19:15:17Z</time>
      </trkpt>
      <trkpt lat="44.8598" lon="6.58984">
        <ele>1153.8</ele>
        <time>2022-07-19T19:15:18Z</time>
      </trkpt>
      <trkpt lat="44.85984" lon="6.58988">
        <ele>1153.8</ele>
        <time>2022-07-19T19:15:19Z</time>
      </trkpt>
      <trkpt lat="44.85988" lon="6.58992">
        <ele>1154</ele>
        <time>2022-07-19T19:15:20Z</time>
      </trkpt>
      <trkpt lat="44.85992" lon="6.58997">
        <ele>1154</ele>
        <time>2022-07-19T19:15:21Z</time>
      </trkpt>
      <trkpt lat="44.85996" lon="6.59001">
        <ele>1154</ele>
        <time>2022-07-19T19:15:22Z</time>
      </trkpt>
      <trkpt lat="44.86" lon="6.59005">
        <ele>1154</ele>
        <time>2022-07-19T19:15:23Z</time>
      </trkpt>
      <trkpt lat="44.86004" lon="6.59009">
        <ele>1154</ele>
        <time>2022-07-19T19:15:24Z</time>
      </trkpt>
      <trkpt lat="44.86007" lon="6.59013">
        <ele>1154.4</ele>
        <time>2022-07-19T19:15:25Z</time>
      </trkpt>
      <trkpt lat="44.86011" lon="6.59017">
        <ele>1154.4</ele>
        <time>2022-07-19T19:15:26Z</time>
      </trkpt>
      <trkpt lat="44.86015" lon="6.59022">
        <ele>1154.4</ele>
        <time>2022-07-19T19:15:27Z</time>
      </trkpt>
      <trkpt lat="44.86018" lon="6.59026">
        <ele>1154.4</ele>
        <time>2022-07-19T19:15:28Z</time>
      </trkpt>
      <trkpt lat="44.86022" lon="6.5903">
        <ele>1154.4</ele>
        <time>2022-07-19T19:15:29Z</time>
      </trkpt>
      <trkpt lat="44.86026" lon="6.59034">
        <ele>1154.4</ele>
        <time>2022-07-19T19:15:30Z</time>
      </trkpt>
      <trkpt lat="44.86029" lon="6.59038">
        <ele>1154.4</ele>
        <time>2022-07-19T19:15:31Z</time>
      </trkpt>
      <trkpt lat="44.86033" lon="6.59042">
        <ele>1154.6</ele>
        <time>2022-07-19T19:15:32Z</time>
      </trkpt>
      <trkpt lat="44.86036" lon="6.59045">
        <ele>1154.6</ele>
        <time>2022-07-19T19:15:33Z</time>
      </trkpt>
      <trkpt lat="44.86039" lon="6.59049">
        <ele>1154.6</ele>
        <time>2022-07-19T19:15:34Z</time>
      </trkpt>
      <trkpt lat="44.86042" lon="6.59054">
        <ele>1154.6</ele>
        <time>2022-07-19T19:15:35Z</time>
      </trkpt>
      <trkpt lat="44.86045" lon="6.59058">
        <ele>1154.8</ele>
        <time>2022-07-19T19:15:36Z</time>
      </trkpt>
      <trkpt lat="44.86048" lon="6.59062">
        <ele>1154.8</ele>
        <time>2022-07-19T19:15:37Z</time>
      </trkpt>
      <trkpt lat="44.86051" lon="6.59067">
        <ele>1155</ele>
        <time>2022-07-19T19:15:38Z</time>
      </trkpt>
      <trkpt lat="44.86054" lon="6.59071">
        <ele>1155</ele>
        <time>2022-07-19T19:15:39Z</time>
      </trkpt>
      <trkpt lat="44.86057" lon="6.59075">
        <ele>1155.4</ele>
        <time>2022-07-19T19:15:40Z</time>
      </trkpt>
      <trkpt lat="44.86059" lon="6.5908">
        <ele>1155.4</ele>
        <time>2022-07-19T19:15:41Z</time>
      </trkpt>
      <trkpt lat="44.86061" lon="6.59084">
        <ele>1155.6</ele>
        <time>2022-07-19T19:15:42Z</time>
      </trkpt>
      <trkpt lat="44.86064" lon="6.59089">
        <ele>1155.6</ele>
        <time>2022-07-19T19:15:43Z</time>
      </trkpt>
      <trkpt lat="44.86066" lon="6.59094">
        <ele>1155.6</ele>
        <time>2022-07-19T19:15:44Z</time>
      </trkpt>
      <trkpt lat="44.86069" lon="6.59098">
        <ele>1155.6</ele>
        <time>2022-07-19T19:15:45Z</time>
      </trkpt>
      <trkpt lat="44.86072" lon="6.59103">
        <ele>1155.6</ele>
        <time>2022-07-19T19:15:46Z</time>
      </trkpt>
      <trkpt lat="44.86074" lon="6.59108">
        <ele>1155.6</ele>
        <time>2022-07-19T19:15:47Z</time>
      </trkpt>
      <trkpt lat="44.86077" lon="6.59113">
        <ele>1155.6</ele>
        <time>2022-07-19T19:15:48Z</time>
      </trkpt>
      <trkpt lat="44.86079" lon="6.59118">
        <ele>1155.8</ele>
        <time>2022-07-19T19:15:49Z</time>
      </trkpt>
      <trkpt lat="44.86082" lon="6.59122">
        <ele>1155.8</ele>
        <time>2022-07-19T19:15:50Z</time>
      </trkpt>
      <trkpt lat="44.86084" lon="6.59127">
        <ele>1155.8</ele>
        <time>2022-07-19T19:15:51Z</time>
      </trkpt>
      <trkpt lat="44.86087" lon="6.59133">
        <ele>1155.8</ele>
        <time>2022-07-19T19:15:52Z</time>
      </trkpt>
      <trkpt lat="44.86089" lon="6.59138">
        <ele>1155.8</ele>
        <time>2022-07-19T19:15:53Z</time>
      </trkpt>
      <trkpt lat="44.86092" lon="6.59143">
        <ele>1155.8</ele>
        <time>2022-07-19T19:15:54Z</time>
      </trkpt>
      <trkpt lat="44.86095" lon="6.59148">
        <ele>1155.8</ele>
        <time>2022-07-19T19:15:55Z</time>
      </trkpt>
      <trkpt lat="44.86097" lon="6.59154">
        <ele>1155.8</ele>
        <time>2022-07-19T19:15:56Z</time>
      </trkpt>
      <trkpt lat="44.861" lon="6.59159">
        <ele>1155.8</ele>
        <time>2022-07-19T19:15:57Z</time>
      </trkpt>
      <trkpt lat="44.86103" lon="6.59165">
        <ele>1155.8</ele>
        <time>2022-07-19T19:15:58Z</time>
      </trkpt>
      <trkpt lat="44.86105" lon="6.5917">
        <ele>1155.8</ele>
        <time>2022-07-19T19:15:59Z</time>
      </trkpt>
      <trkpt lat="44.86108" lon="6.59176">
        <ele>1155.8</ele>
        <time>2022-07-19T19:16:00Z</time>
      </trkpt>
      <trkpt lat="44.86111" lon="6.59181">
        <ele>1155.8</ele>
        <time>2022-07-19T19:16:01Z</time>
      </trkpt>
      <trkpt lat="44.86114" lon="6.59187">
        <ele>1156</ele>
        <time>2022-07-19T19:16:02Z</time>
      </trkpt>
      <trkpt lat="44.86116" lon="6.59192">
        <ele>1156</ele>
        <time>2022-07-19T19:16:03Z</time>
      </trkpt>
      <trkpt lat="44.86119" lon="6.59197">
        <ele>1156</ele>
        <time>2022-07-19T19:16:04Z</time>
      </trkpt>
      <trkpt lat="44.86122" lon="6.59203">
        <ele>1156.2</ele>
        <time>2022-07-19T19:16:05Z</time>
      </trkpt>
      <trkpt lat="44.86124" lon="6.59208">
        <ele>1156.2</ele>
        <time>2022-07-19T19:16:06Z</time>
      </trkpt>
      <trkpt lat="44.86127" lon="6.59213">
        <ele>1156.2</ele>
        <time>2022-07-19T19:16:07Z</time>
      </trkpt>
      <trkpt lat="44.8613" lon="6.59218">
        <ele>1156.4</ele>
        <time>2022-07-19T19:16:08Z</time>
      </trkpt>
      <trkpt lat="44.86132" lon="6.59223">
        <ele>1156.4</ele>
        <time>2022-07-19T19:16:09Z</time>
      </trkpt>
      <trkpt lat="44.86135" lon="6.59228">
        <ele>1156.4</ele>
        <time>2022-07-19T19:16:10Z</time>
      </trkpt>
      <trkpt lat="44.86137" lon="6.59233">
        <ele>1156.8</ele>
        <time>2022-07-19T19:16:11Z</time>
      </trkpt>
      <trkpt lat="44.8614" lon="6.59238">
        <ele>1156.8</ele>
        <time>2022-07-19T19:16:12Z</time>
      </trkpt>
      <trkpt lat="44.86142" lon="6.59242">
        <ele>1157</ele>
        <time>2022-07-19T19:16:13Z</time>
      </trkpt>
      <trkpt lat="44.86145" lon="6.59247">
        <ele>1157</ele>
        <time>2022-07-19T19:16:14Z</time>
      </trkpt>
      <trkpt lat="44.86147" lon="6.59251">
        <ele>1157.2</ele>
        <time>2022-07-19T19:16:15Z</time>
      </trkpt>
      <trkpt lat="44.86149" lon="6.59255">
        <ele>1157.2</ele>
        <time>2022-07-19T19:16:16Z</time>
      </trkpt>
      <trkpt lat="44.86152" lon="6.5926">
        <ele>1157.4</ele>
        <time>2022-07-19T19:16:17Z</time>
      </trkpt>
      <trkpt lat="44.86154" lon="6.59264">
        <ele>1157.4</ele>
        <time>2022-07-19T19:16:18Z</time>
      </trkpt>
      <trkpt lat="44.86155" lon="6.59268">
        <ele>1157.8</ele>
        <time>2022-07-19T19:16:19Z</time>
      </trkpt>
      <trkpt lat="44.86157" lon="6.59272">
        <ele>1157.8</ele>
        <time>2022-07-19T19:16:20Z</time>
      </trkpt>
      <trkpt lat="44.86159" lon="6.59276">
        <ele>1157.8</ele>
        <time>2022-07-19T19:16:21Z</time>
      </trkpt>
      <trkpt lat="44.86161" lon="6.5928">
        <ele>1158</ele>
        <time>2022-07-19T19:16:22Z</time>
      </trkpt>
      <trkpt lat="44.86164" lon="6.59284">
        <ele>1158</ele>
        <time>2022-07-19T19:16:23Z</time>
      </trkpt>
      <trkpt lat="44.86166" lon="6.59288">
        <ele>1158.4</ele>
        <time>2022-07-19T19:16:24Z</time>
      </trkpt>
      <trkpt lat="44.86168" lon="6.59292">
        <ele>1158.6</ele>
        <time>2022-07-19T19:16:25Z</time>
      </trkpt>
      <trkpt lat="44.8617" lon="6.59296">
        <ele>1158.6</ele>
        <time>2022-07-19T19:16:26Z</time>
      </trkpt>
      <trkpt lat="44.86172" lon="6.593">
        <ele>1158.8</ele>
        <time>2022-07-19T19:16:27Z</time>
      </trkpt>
      <trkpt lat="44.86174" lon="6.59304">
        <ele>1158.8</ele>
        <time>2022-07-19T19:16:28Z</time>
      </trkpt>
      <trkpt lat="44.86176" lon="6.59308">
        <ele>1159.2</ele>
        <time>2022-07-19T19:16:29Z</time>
      </trkpt>
      <trkpt lat="44.86178" lon="6.59312">
        <ele>1159.4</ele>
        <time>2022-07-19T19:16:30Z</time>
      </trkpt>
      <trkpt lat="44.8618" lon="6.59317">
        <ele>1159.4</ele>
        <time>2022-07-19T19:16:31Z</time>
      </trkpt>
      <trkpt lat="44.86183" lon="6.59321">
        <ele>1159.8</ele>
        <time>2022-07-19T19:16:32Z</time>
      </trkpt>
      <trkpt lat="44.86185" lon="6.59325">
        <ele>1160</ele>
        <time>2022-07-19T19:16:33Z</time>
      </trkpt>
      <trkpt lat="44.86187" lon="6.59329">
        <ele>1160</ele>
        <time>2022-07-19T19:16:34Z</time>
      </trkpt>
      <trkpt lat="44.86189" lon="6.59333">
        <ele>1160.4</ele>
        <time>2022-07-19T19:16:35Z</time>
      </trkpt>
      <trkpt lat="44.86191" lon="6.59337">
        <ele>1160.4</ele>
        <time>2022-07-19T19:16:36Z</time>
      </trkpt>
      <trkpt lat="44.86193" lon="6.59341">
        <ele>1160.8</ele>
        <time>2022-07-19T19:16:37Z</time>
      </trkpt>
      <trkpt lat="44.86195" lon="6.59345">
        <ele>1161</ele>
        <time>2022-07-19T19:16:38Z</time>
      </trkpt>
      <trkpt lat="44.86196" lon="6.59349">
        <ele>1161.2</ele>
        <time>2022-07-19T19:16:39Z</time>
      </trkpt>
      <trkpt lat="44.86198" lon="6.59353">
        <ele>1161.4</ele>
        <time>2022-07-19T19:16:40Z</time>
      </trkpt>
      <trkpt lat="44.862" lon="6.59357">
        <ele>1161.8</ele>
        <time>2022-07-19T19:16:41Z</time>
      </trkpt>
      <trkpt lat="44.86202" lon="6.5936">
        <ele>1162</ele>
        <time>2022-07-19T19:16:42Z</time>
      </trkpt>
      <trkpt lat="44.86204" lon="6.59364">
        <ele>1162.2</ele>
        <time>2022-07-19T19:16:43Z</time>
      </trkpt>
      <trkpt lat="44.86205" lon="6.59367">
        <ele>1162.2</ele>
        <time>2022-07-19T19:16:44Z</time>
      </trkpt>
      <trkpt lat="44.86207" lon="6.5937">
        <ele>1162.8</ele>
        <time>2022-07-19T19:16:45Z</time>
      </trkpt>
      <trkpt lat="44.86208" lon="6.59374">
        <ele>1163</ele>
        <time>2022-07-19T19:16:46Z</time>
      </trkpt>
      <trkpt lat="44.8621" lon="6.59376">
        <ele>1163</ele>
        <time>2022-07-19T19:16:47Z</time>
      </trkpt>
      <trkpt lat="44.86212" lon="6.59379">
        <ele>1163.4</ele>
        <time>2022-07-19T19:16:48Z</time>
      </trkpt>
      <trkpt lat="44.86213" lon="6.59382">
        <ele>1163.4</ele>
        <time>2022-07-19T19:16:49Z</time>
      </trkpt>
      <trkpt lat="44.86215" lon="6.59385">
        <ele>1163.6</ele>
        <time>2022-07-19T19:16:50Z</time>
      </trkpt>
      <trkpt lat="44.86216" lon="6.59388">
        <ele>1163.6</ele>
        <time>2022-07-19T19:16:51Z</time>
      </trkpt>
      <trkpt lat="44.86217" lon="6.59391">
        <ele>1164</ele>
        <time>2022-07-19T19:16:52Z</time>
      </trkpt>
      <trkpt lat="44.86219" lon="6.59393">
        <ele>1164</ele>
        <time>2022-07-19T19:16:53Z</time>
      </trkpt>
      <trkpt lat="44.86221" lon="6.59396">
        <ele>1164.4</ele>
        <time>2022-07-19T19:16:54Z</time>
      </trkpt>
      <trkpt lat="44.86222" lon="6.59399">
        <ele>1164.4</ele>
        <time>2022-07-19T19:16:55Z</time>
      </trkpt>
      <trkpt lat="44.86223" lon="6.59402">
        <ele>1164.6</ele>
        <time>2022-07-19T19:16:56Z</time>
      </trkpt>
      <trkpt lat="44.86225" lon="6.59405">
        <ele>1164.6</ele>
        <time>2022-07-19T19:16:57Z</time>
      </trkpt>
      <trkpt lat="44.86226" lon="6.59409">
        <ele>1164.8</ele>
        <time>2022-07-19T19:16:58Z</time>
      </trkpt>
      <trkpt lat="44.86227" lon="6.59412">
        <ele>1164.8</ele>
        <time>2022-07-19T19:16:59Z</time>
      </trkpt>
      <trkpt lat="44.86229" lon="6.59415">
        <ele>1165</ele>
        <time>2022-07-19T19:17:00Z</time>
      </trkpt>
      <trkpt lat="44.8623" lon="6.59417">
        <ele>1165</ele>
        <time>2022-07-19T19:17:01Z</time>
      </trkpt>
      <trkpt lat="44.86232" lon="6.5942">
        <ele>1165.4</ele>
        <time>2022-07-19T19:17:02Z</time>
      </trkpt>
      <trkpt lat="44.86233" lon="6.59422">
        <ele>1165.4</ele>
        <time>2022-07-19T19:17:03Z</time>
      </trkpt>
      <trkpt lat="44.86235" lon="6.59425">
        <ele>1165.8</ele>
        <time>2022-07-19T19:17:04Z</time>
      </trkpt>
      <trkpt lat="44.86236" lon="6.59428">
        <ele>1165.8</ele>
        <time>2022-07-19T19:17:05Z</time>
      </trkpt>
      <trkpt lat="44.86238" lon="6.59431">
        <ele>1165.8</ele>
        <time>2022-07-19T19:17:06Z</time>
      </trkpt>
      <trkpt lat="44.86239" lon="6.59433">
        <ele>1166</ele>
        <time>2022-07-19T19:17:07Z</time>
      </trkpt>
      <trkpt lat="44.8624" lon="6.59436">
        <ele>1166</ele>
        <time>2022-07-19T19:17:08Z</time>
      </trkpt>
      <trkpt lat="44.86242" lon="6.59439">
        <ele>1166</ele>
        <time>2022-07-19T19:17:09Z</time>
      </trkpt>
      <trkpt lat="44.86243" lon="6.59442">
        <ele>1166.2</ele>
        <time>2022-07-19T19:17:10Z</time>
      </trkpt>
      <trkpt lat="44.86245" lon="6.59444">
        <ele>1166.2</ele>
        <time>2022-07-19T19:17:11Z</time>
      </trkpt>
      <trkpt lat="44.86246" lon="6.59447">
        <ele>1166.2</ele>
        <time>2022-07-19T19:17:12Z</time>
      </trkpt>
      <trkpt lat="44.86247" lon="6.5945">
        <ele>1166.2</ele>
        <time>2022-07-19T19:17:13Z</time>
      </trkpt>
      <trkpt lat="44.86249" lon="6.59452">
        <ele>1166.6</ele>
        <time>2022-07-19T19:17:14Z</time>
      </trkpt>
      <trkpt lat="44.8625" lon="6.59455">
        <ele>1166.6</ele>
        <time>2022-07-19T19:17:15Z</time>
      </trkpt>
      <trkpt lat="44.86252" lon="6.59458">
        <ele>1166.8</ele>
        <time>2022-07-19T19:17:16Z</time>
      </trkpt>
      <trkpt lat="44.86253" lon="6.59461">
        <ele>1166.8</ele>
        <time>2022-07-19T19:17:17Z</time>
      </trkpt>
      <trkpt lat="44.86254" lon="6.59464">
        <ele>1167</ele>
        <time>2022-07-19T19:17:18Z</time>
      </trkpt>
      <trkpt lat="44.86256" lon="6.59467">
        <ele>1167.2</ele>
        <time>2022-07-19T19:17:19Z</time>
      </trkpt>
      <trkpt lat="44.86257" lon="6.5947">
        <ele>1167.2</ele>
        <time>2022-07-19T19:17:20Z</time>
      </trkpt>
      <trkpt lat="44.86259" lon="6.59473">
        <ele>1167.4</ele>
        <time>2022-07-19T19:17:21Z</time>
      </trkpt>
      <trkpt lat="44.8626" lon="6.59476">
        <ele>1167.4</ele>
        <time>2022-07-19T19:17:22Z</time>
      </trkpt>
      <trkpt lat="44.86262" lon="6.59479">
        <ele>1167.6</ele>
        <time>2022-07-19T19:17:23Z</time>
      </trkpt>
      <trkpt lat="44.86263" lon="6.59481">
        <ele>1168</ele>
        <time>2022-07-19T19:17:24Z</time>
      </trkpt>
      <trkpt lat="44.86265" lon="6.59484">
        <ele>1168</ele>
        <time>2022-07-19T19:17:25Z</time>
      </trkpt>
      <trkpt lat="44.86266" lon="6.59487">
        <ele>1168</ele>
        <time>2022-07-19T19:17:26Z</time>
      </trkpt>
      <trkpt lat="44.86267" lon="6.5949">
        <ele>1168.2</ele>
        <time>2022-07-19T19:17:27Z</time>
      </trkpt>
      <trkpt lat="44.86269" lon="6.59493">
        <ele>1168.2</ele>
        <time>2022-07-19T19:17:28Z</time>
      </trkpt>
      <trkpt lat="44.8627" lon="6.59496">
        <ele>1168.4</ele>
        <time>2022-07-19T19:17:29Z</time>
      </trkpt>
      <trkpt lat="44.86272" lon="6.59498">
        <ele>1168.4</ele>
        <time>2022-07-19T19:17:30Z</time>
      </trkpt>
      <trkpt lat="44.86273" lon="6.59501">
        <ele>1168.8</ele>
        <time>2022-07-19T19:17:31Z</time>
      </trkpt>
      <trkpt lat="44.86275" lon="6.59504">
        <ele>1168.8</ele>
        <time>2022-07-19T19:17:32Z</time>
      </trkpt>
      <trkpt lat="44.86276" lon="6.59507">
        <ele>1169</ele>
        <time>2022-07-19T19:17:33Z</time>
      </trkpt>
      <trkpt lat="44.86277" lon="6.5951">
        <ele>1169</ele>
        <time>2022-07-19T19:17:34Z</time>
      </trkpt>
      <trkpt lat="44.86279" lon="6.59513">
        <ele>1169.2</ele>
        <time>2022-07-19T19:17:35Z</time>
      </trkpt>
      <trkpt lat="44.8628" lon="6.59516">
        <ele>1169.2</ele>
        <time>2022-07-19T19:17:36Z</time>
      </trkpt>
      <trkpt lat="44.86282" lon="6.59518">
        <ele>1169.4</ele>
        <time>2022-07-19T19:17:37Z</time>
      </trkpt>
      <trkpt lat="44.86283" lon="6.59521">
        <ele>1169.4</ele>
        <time>2022-07-19T19:17:38Z</time>
      </trkpt>
      <trkpt lat="44.86285" lon="6.59524">
        <ele>1169.6</ele>
        <time>2022-07-19T19:17:39Z</time>
      </trkpt>
      <trkpt lat="44.86286" lon="6.59527">
        <ele>1169.6</ele>
        <time>2022-07-19T19:17:40Z</time>
      </trkpt>
      <trkpt lat="44.86288" lon="6.5953">
        <ele>1170</ele>
        <time>2022-07-19T19:17:41Z</time>
      </trkpt>
      <trkpt lat="44.86289" lon="6.59533">
        <ele>1170</ele>
        <time>2022-07-19T19:17:42Z</time>
      </trkpt>
      <trkpt lat="44.86291" lon="6.59536">
        <ele>1170.2</ele>
        <time>2022-07-19T19:17:43Z</time>
      </trkpt>
      <trkpt lat="44.86292" lon="6.59539">
        <ele>1170.2</ele>
        <time>2022-07-19T19:17:44Z</time>
      </trkpt>
      <trkpt lat="44.86294" lon="6.59542">
        <ele>1170.4</ele>
        <time>2022-07-19T19:17:45Z</time>
      </trkpt>
      <trkpt lat="44.86296" lon="6.59545">
        <ele>1170.4</ele>
        <time>2022-07-19T19:17:46Z</time>
      </trkpt>
      <trkpt lat="44.86297" lon="6.59548">
        <ele>1170.6</ele>
        <time>2022-07-19T19:17:47Z</time>
      </trkpt>
      <trkpt lat="44.86299" lon="6.59551">
        <ele>1170.6</ele>
        <time>2022-07-19T19:17:48Z</time>
      </trkpt>
      <trkpt lat="44.863" lon="6.59553">
        <ele>1170.6</ele>
        <time>2022-07-19T19:17:49Z</time>
      </trkpt>
      <trkpt lat="44.86302" lon="6.59556">
        <ele>1170.8</ele>
        <time>2022-07-19T19:17:50Z</time>
      </trkpt>
      <trkpt lat="44.86303" lon="6.59559">
        <ele>1170.8</ele>
        <time>2022-07-19T19:17:51Z</time>
      </trkpt>
      <trkpt lat="44.86305" lon="6.59562">
        <ele>1170.8</ele>
        <time>2022-07-19T19:17:52Z</time>
      </trkpt>
      <trkpt lat="44.86307" lon="6.59565">
        <ele>1171.2</ele>
        <time>2022-07-19T19:17:53Z</time>
      </trkpt>
      <trkpt lat="44.86308" lon="6.59568">
        <ele>1171.2</ele>
        <time>2022-07-19T19:17:54Z</time>
      </trkpt>
      <trkpt lat="44.8631" lon="6.59571">
        <ele>1171.4</ele>
        <time>2022-07-19T19:17:55Z</time>
      </trkpt>
      <trkpt lat="44.86311" lon="6.59575">
        <ele>1171.4</ele>
        <time>2022-07-19T19:17:56Z</time>
      </trkpt>
      <trkpt lat="44.86313" lon="6.59578">
        <ele>1171.4</ele>
        <time>2022-07-19T19:17:57Z</time>
      </trkpt>
      <trkpt lat="44.86314" lon="6.59581">
        <ele>1171.8</ele>
        <time>2022-07-19T19:17:58Z</time>
      </trkpt>
      <trkpt lat="44.86316" lon="6.59585">
        <ele>1171.8</ele>
        <time>2022-07-19T19:17:59Z</time>
      </trkpt>
      <trkpt lat="44.86318" lon="6.59588">
        <ele>1172</ele>
        <time>2022-07-19T19:18:00Z</time>
      </trkpt>
      <trkpt lat="44.86319" lon="6.59592">
        <ele>1172</ele>
        <time>2022-07-19T19:18:01Z</time>
      </trkpt>
      <trkpt lat="44.86321" lon="6.59595">
        <ele>1172</ele>
        <time>2022-07-19T19:18:02Z</time>
      </trkpt>
      <trkpt lat="44.86322" lon="6.59598">
        <ele>1172.2</ele>
        <time>2022-07-19T19:18:03Z</time>
      </trkpt>
      <trkpt lat="44.86324" lon="6.59602">
        <ele>1172.2</ele>
        <time>2022-07-19T19:18:04Z</time>
      </trkpt>
      <trkpt lat="44.86326" lon="6.59605">
        <ele>1172.2</ele>
        <time>2022-07-19T19:18:05Z</time>
      </trkpt>
      <trkpt lat="44.86328" lon="6.59608">
        <ele>1172.6</ele>
        <time>2022-07-19T19:18:06Z</time>
      </trkpt>
      <trkpt lat="44.86329" lon="6.59611">
        <ele>1172.6</ele>
        <time>2022-07-19T19:18:07Z</time>
      </trkpt>
      <trkpt lat="44.86331" lon="6.59614">
        <ele>1172.6</ele>
        <time>2022-07-19T19:18:08Z</time>
      </trkpt>
      <trkpt lat="44.86333" lon="6.59617">
        <ele>1173</ele>
        <time>2022-07-19T19:18:09Z</time>
      </trkpt>
      <trkpt lat="44.86334" lon="6.5962">
        <ele>1173</ele>
        <time>2022-07-19T19:18:10Z</time>
      </trkpt>
      <trkpt lat="44.86336" lon="6.59623">
        <ele>1173</ele>
        <time>2022-07-19T19:18:11Z</time>
      </trkpt>
      <trkpt lat="44.86337" lon="6.59627">
        <ele>1173.2</ele>
        <time>2022-07-19T19:18:12Z</time>
      </trkpt>
      <trkpt lat="44.86338" lon="6.5963">
        <ele>1173.2</ele>
        <time>2022-07-19T19:18:13Z</time>
      </trkpt>
      <trkpt lat="44.8634" lon="6.59633">
        <ele>1173.2</ele>
        <time>2022-07-19T19:18:14Z</time>
      </trkpt>
      <trkpt lat="44.86342" lon="6.59637">
        <ele>1173.4</ele>
        <time>2022-07-19T19:18:15Z</time>
      </trkpt>
      <trkpt lat="44.86343" lon="6.5964">
        <ele>1173.4</ele>
        <time>2022-07-19T19:18:16Z</time>
      </trkpt>
      <trkpt lat="44.86345" lon="6.59643">
        <ele>1173.6</ele>
        <time>2022-07-19T19:18:17Z</time>
      </trkpt>
      <trkpt lat="44.86347" lon="6.59646">
        <ele>1173.6</ele>
        <time>2022-07-19T19:18:18Z</time>
      </trkpt>
      <trkpt lat="44.86349" lon="6.59649">
        <ele>1173.6</ele>
        <time>2022-07-19T19:18:19Z</time>
      </trkpt>
      <trkpt lat="44.8635" lon="6.59653">
        <ele>1174</ele>
        <time>2022-07-19T19:18:20Z</time>
      </trkpt>
      <trkpt lat="44.86352" lon="6.59656">
        <ele>1174</ele>
        <time>2022-07-19T19:18:21Z</time>
      </trkpt>
      <trkpt lat="44.86354" lon="6.59659">
        <ele>1174</ele>
        <time>2022-07-19T19:18:22Z</time>
      </trkpt>
      <trkpt lat="44.86356" lon="6.59663">
        <ele>1174.2</ele>
        <time>2022-07-19T19:18:23Z</time>
      </trkpt>
      <trkpt lat="44.86358" lon="6.59666">
        <ele>1174.2</ele>
        <time>2022-07-19T19:18:24Z</time>
      </trkpt>
      <trkpt lat="44.86359" lon="6.59669">
        <ele>1174.2</ele>
        <time>2022-07-19T19:18:25Z</time>
      </trkpt>
      <trkpt lat="44.86361" lon="6.59673">
        <ele>1174.4</ele>
        <time>2022-07-19T19:18:26Z</time>
      </trkpt>
      <trkpt lat="44.86363" lon="6.59676">
        <ele>1174.4</ele>
        <time>2022-07-19T19:18:27Z</time>
      </trkpt>
      <trkpt lat="44.86365" lon="6.59679">
        <ele>1174.4</ele>
        <time>2022-07-19T19:18:28Z</time>
      </trkpt>
      <trkpt lat="44.86367" lon="6.59683">
        <ele>1174.8</ele>
        <time>2022-07-19T19:18:29Z</time>
      </trkpt>
      <trkpt lat="44.86368" lon="6.59686">
        <ele>1174.8</ele>
        <time>2022-07-19T19:18:30Z</time>
      </trkpt>
      <trkpt lat="44.8637" lon="6.5969">
        <ele>1174.8</ele>
        <time>2022-07-19T19:18:31Z</time>
      </trkpt>
      <trkpt lat="44.86371" lon="6.59693">
        <ele>1175</ele>
        <time>2022-07-19T19:18:32Z</time>
      </trkpt>
      <trkpt lat="44.86373" lon="6.59696">
        <ele>1175</ele>
        <time>2022-07-19T19:18:33Z</time>
      </trkpt>
      <trkpt lat="44.86374" lon="6.597">
        <ele>1175</ele>
        <time>2022-07-19T19:18:34Z</time>
      </trkpt>
      <trkpt lat="44.86376" lon="6.59703">
        <ele>1175.2</ele>
        <time>2022-07-19T19:18:35Z</time>
      </trkpt>
      <trkpt lat="44.86378" lon="6.59707">
        <ele>1175.2</ele>
        <time>2022-07-19T19:18:36Z</time>
      </trkpt>
      <trkpt lat="44.8638" lon="6.5971">
        <ele>1175.2</ele>
        <time>2022-07-19T19:18:37Z</time>
      </trkpt>
      <trkpt lat="44.86382" lon="6.59713">
        <ele>1175.4</ele>
        <time>2022-07-19T19:18:38Z</time>
      </trkpt>
      <trkpt lat="44.86384" lon="6.59716">
        <ele>1175.4</ele>
        <time>2022-07-19T19:18:39Z</time>
      </trkpt>
      <trkpt lat="44.86385" lon="6.59719">
        <ele>1175.4</ele>
        <time>2022-07-19T19:18:40Z</time>
      </trkpt>
      <trkpt lat="44.86387" lon="6.59723">
        <ele>1175.8</ele>
        <time>2022-07-19T19:18:41Z</time>
      </trkpt>
      <trkpt lat="44.86389" lon="6.59726">
        <ele>1175.8</ele>
        <time>2022-07-19T19:18:42Z</time>
      </trkpt>
      <trkpt lat="44.8639" lon="6.5973">
        <ele>1175.8</ele>
        <time>2022-07-19T19:18:43Z</time>
      </trkpt>
      <trkpt lat="44.86392" lon="6.59733">
        <ele>1175.8</ele>
        <time>2022-07-19T19:18:44Z</time>
      </trkpt>
      <trkpt lat="44.86394" lon="6.59736">
        <ele>1175.8</ele>
        <time>2022-07-19T19:18:45Z</time>
      </trkpt>
      <trkpt lat="44.86396" lon="6.5974">
        <ele>1176</ele>
        <time>2022-07-19T19:18:46Z</time>
      </trkpt>
      <trkpt lat="44.86397" lon="6.59744">
        <ele>1176</ele>
        <time>2022-07-19T19:18:47Z</time>
      </trkpt>
      <trkpt lat="44.86399" lon="6.59747">
        <ele>1176</ele>
        <time>2022-07-19T19:18:48Z</time>
      </trkpt>
      <trkpt lat="44.86401" lon="6.59751">
        <ele>1176.2</ele>
        <time>2022-07-19T19:18:49Z</time>
      </trkpt>
      <trkpt lat="44.86403" lon="6.59754">
        <ele>1176.2</ele>
        <time>2022-07-19T19:18:50Z</time>
      </trkpt>
      <trkpt lat="44.86405" lon="6.59758">
        <ele>1176.2</ele>
        <time>2022-07-19T19:18:51Z</time>
      </trkpt>
      <trkpt lat="44.86406" lon="6.59762">
        <ele>1176.6</ele>
        <time>2022-07-19T19:18:52Z</time>
      </trkpt>
      <trkpt lat="44.86408" lon="6.59765">
        <ele>1176.6</ele>
        <time>2022-07-19T19:18:53Z</time>
      </trkpt>
      <trkpt lat="44.8641" lon="6.59768">
        <ele>1176.8</ele>
        <time>2022-07-19T19:18:54Z</time>
      </trkpt>
      <trkpt lat="44.86412" lon="6.59772">
        <ele>1176.8</ele>
        <time>2022-07-19T19:18:55Z</time>
      </trkpt>
      <trkpt lat="44.86414" lon="6.59775">
        <ele>1177</ele>
        <time>2022-07-19T19:18:56Z</time>
      </trkpt>
      <trkpt lat="44.86416" lon="6.59779">
        <ele>1177</ele>
        <time>2022-07-19T19:18:57Z</time>
      </trkpt>
      <trkpt lat="44.86418" lon="6.59782">
        <ele>1177.4</ele>
        <time>2022-07-19T19:18:58Z</time>
      </trkpt>
      <trkpt lat="44.86419" lon="6.59786">
        <ele>1177.4</ele>
        <time>2022-07-19T19:18:59Z</time>
      </trkpt>
      <trkpt lat="44.86421" lon="6.59789">
        <ele>1177.6</ele>
        <time>2022-07-19T19:19:00Z</time>
      </trkpt>
      <trkpt lat="44.86423" lon="6.59792">
        <ele>1177.6</ele>
        <time>2022-07-19T19:19:01Z</time>
      </trkpt>
      <trkpt lat="44.86425" lon="6.59796">
        <ele>1177.8</ele>
        <time>2022-07-19T19:19:02Z</time>
      </trkpt>
      <trkpt lat="44.86427" lon="6.598">
        <ele>1177.8</ele>
        <time>2022-07-19T19:19:03Z</time>
      </trkpt>
      <trkpt lat="44.86428" lon="6.59803">
        <ele>1177.8</ele>
        <time>2022-07-19T19:19:04Z</time>
      </trkpt>
      <trkpt lat="44.8643" lon="6.59807">
        <ele>1178</ele>
        <time>2022-07-19T19:19:05Z</time>
      </trkpt>
      <trkpt lat="44.86432" lon="6.5981">
        <ele>1178</ele>
        <time>2022-07-19T19:19:06Z</time>
      </trkpt>
      <trkpt lat="44.86433" lon="6.59814">
        <ele>1178.2</ele>
        <time>2022-07-19T19:19:07Z</time>
      </trkpt>
      <trkpt lat="44.86435" lon="6.59817">
        <ele>1178.2</ele>
        <time>2022-07-19T19:19:08Z</time>
      </trkpt>
      <trkpt lat="44.86437" lon="6.5982">
        <ele>1178.2</ele>
        <time>2022-07-19T19:19:09Z</time>
      </trkpt>
      <trkpt lat="44.86439" lon="6.59823">
        <ele>1178.6</ele>
        <time>2022-07-19T19:19:10Z</time>
      </trkpt>
      <trkpt lat="44.86441" lon="6.59827">
        <ele>1178.6</ele>
        <time>2022-07-19T19:19:11Z</time>
      </trkpt>
      <trkpt lat="44.86441" lon="6.59828">
        <ele>1178.6</ele>
        <time>2022-07-19T19:19:12Z</time>
      </trkpt>
      <trkpt lat="44.86442" lon="6.5983">
        <ele>1178.6</ele>
        <time>2022-07-19T19:19:13Z</time>
      </trkpt>
      <trkpt lat="44.86444" lon="6.59833">
        <ele>1178.8</ele>
        <time>2022-07-19T19:19:14Z</time>
      </trkpt>
      <trkpt lat="44.86446" lon="6.59837">
        <ele>1178.8</ele>
        <time>2022-07-19T19:19:15Z</time>
      </trkpt>
      <trkpt lat="44.86448" lon="6.59841">
        <ele>1178.8</ele>
        <time>2022-07-19T19:19:16Z</time>
      </trkpt>
      <trkpt lat="44.8645" lon="6.59844">
        <ele>1179</ele>
        <time>2022-07-19T19:19:17Z</time>
      </trkpt>
      <trkpt lat="44.86453" lon="6.59847">
        <ele>1179</ele>
        <time>2022-07-19T19:19:18Z</time>
      </trkpt>
      <trkpt lat="44.86455" lon="6.59851">
        <ele>1179.2</ele>
        <time>2022-07-19T19:19:19Z</time>
      </trkpt>
      <trkpt lat="44.86457" lon="6.59855">
        <ele>1179.2</ele>
        <time>2022-07-19T19:19:20Z</time>
      </trkpt>
      <trkpt lat="44.86459" lon="6.59859">
        <ele>1179.2</ele>
        <time>2022-07-19T19:19:21Z</time>
      </trkpt>
      <trkpt lat="44.86461" lon="6.59862">
        <ele>1179.2</ele>
        <time>2022-07-19T19:19:22Z</time>
      </trkpt>
      <trkpt lat="44.86463" lon="6.59866">
        <ele>1179.4</ele>
        <time>2022-07-19T19:19:23Z</time>
      </trkpt>
      <trkpt lat="44.86466" lon="6.5987">
        <ele>1179.4</ele>
        <time>2022-07-19T19:19:24Z</time>
      </trkpt>
      <trkpt lat="44.86468" lon="6.59873">
        <ele>1179.4</ele>
        <time>2022-07-19T19:19:25Z</time>
      </trkpt>
      <trkpt lat="44.86473" lon="6.59881">
        <ele>1179.4</ele>
        <time>2022-07-19T19:19:26Z</time>
      </trkpt>
      <trkpt lat="44.86475" lon="6.59885">
        <ele>1179.4</ele>
        <time>2022-07-19T19:19:27Z</time>
      </trkpt>
      <trkpt lat="44.86478" lon="6.59889">
        <ele>1179.6</ele>
        <time>2022-07-19T19:19:28Z</time>
      </trkpt>
      <trkpt lat="44.8648" lon="6.59893">
        <ele>1179.6</ele>
        <time>2022-07-19T19:19:29Z</time>
      </trkpt>
      <trkpt lat="44.86483" lon="6.59897">
        <ele>1179.6</ele>
        <time>2022-07-19T19:19:30Z</time>
      </trkpt>
      <trkpt lat="44.86486" lon="6.59901">
        <ele>1179.8</ele>
        <time>2022-07-19T19:19:31Z</time>
      </trkpt>
      <trkpt lat="44.86489" lon="6.59905">
        <ele>1179.8</ele>
        <time>2022-07-19T19:19:32Z</time>
      </trkpt>
      <trkpt lat="44.86492" lon="6.59909">
        <ele>1179.8</ele>
        <time>2022-07-19T19:19:33Z</time>
      </trkpt>
      <trkpt lat="44.86495" lon="6.59913">
        <ele>1179.8</ele>
        <time>2022-07-19T19:19:34Z</time>
      </trkpt>
      <trkpt lat="44.86498" lon="6.59917">
        <ele>1179.8</ele>
        <time>2022-07-19T19:19:35Z</time>
      </trkpt>
      <trkpt lat="44.86501" lon="6.5992">
        <ele>1179.8</ele>
        <time>2022-07-19T19:19:36Z</time>
      </trkpt>
      <trkpt lat="44.86504" lon="6.59924">
        <ele>1179.8</ele>
        <time>2022-07-19T19:19:37Z</time>
      </trkpt>
      <trkpt lat="44.86507" lon="6.59929">
        <ele>1179.8</ele>
        <time>2022-07-19T19:19:38Z</time>
      </trkpt>
      <trkpt lat="44.86511" lon="6.59933">
        <ele>1179.8</ele>
        <time>2022-07-19T19:19:39Z</time>
      </trkpt>
      <trkpt lat="44.86514" lon="6.59937">
        <ele>1179.8</ele>
        <time>2022-07-19T19:19:40Z</time>
      </trkpt>
      <trkpt lat="44.86518" lon="6.59941">
        <ele>1179.8</ele>
        <time>2022-07-19T19:19:41Z</time>
      </trkpt>
      <trkpt lat="44.86525" lon="6.59949">
        <ele>1179.8</ele>
        <time>2022-07-19T19:19:42Z</time>
      </trkpt>
      <trkpt lat="44.86529" lon="6.59954">
        <ele>1179.8</ele>
        <time>2022-07-19T19:19:43Z</time>
      </trkpt>
      <trkpt lat="44.86533" lon="6.59958">
        <ele>1179.6</ele>
        <time>2022-07-19T19:19:44Z</time>
      </trkpt>
      <trkpt lat="44.86537" lon="6.59961">
        <ele>1179.6</ele>
        <time>2022-07-19T19:19:45Z</time>
      </trkpt>
      <trkpt lat="44.86541" lon="6.59965">
        <ele>1179.6</ele>
        <time>2022-07-19T19:19:46Z</time>
      </trkpt>
      <trkpt lat="44.86545" lon="6.59969">
        <ele>1179.4</ele>
        <time>2022-07-19T19:19:47Z</time>
      </trkpt>
      <trkpt lat="44.86549" lon="6.59973">
        <ele>1179.4</ele>
        <time>2022-07-19T19:19:48Z</time>
      </trkpt>
      <trkpt lat="44.86553" lon="6.59977">
        <ele>1179.2</ele>
        <time>2022-07-19T19:19:49Z</time>
      </trkpt>
      <trkpt lat="44.86557" lon="6.5998">
        <ele>1179.2</ele>
        <time>2022-07-19T19:19:50Z</time>
      </trkpt>
      <trkpt lat="44.86561" lon="6.59984">
        <ele>1179</ele>
        <time>2022-07-19T19:19:51Z</time>
      </trkpt>
      <trkpt lat="44.86566" lon="6.59988">
        <ele>1179</ele>
        <time>2022-07-19T19:19:52Z</time>
      </trkpt>
      <trkpt lat="44.8657" lon="6.59991">
        <ele>1178.6</ele>
        <time>2022-07-19T19:19:53Z</time>
      </trkpt>
      <trkpt lat="44.86575" lon="6.59995">
        <ele>1178.6</ele>
        <time>2022-07-19T19:19:54Z</time>
      </trkpt>
      <trkpt lat="44.8658" lon="6.59999">
        <ele>1178.4</ele>
        <time>2022-07-19T19:19:55Z</time>
      </trkpt>
      <trkpt lat="44.86585" lon="6.60003">
        <ele>1178.4</ele>
        <time>2022-07-19T19:19:56Z</time>
      </trkpt>
      <trkpt lat="44.86591" lon="6.60007">
        <ele>1178</ele>
        <time>2022-07-19T19:19:57Z</time>
      </trkpt>
      <trkpt lat="44.86596" lon="6.60012">
        <ele>1178</ele>
        <time>2022-07-19T19:19:58Z</time>
      </trkpt>
      <trkpt lat="44.86599" lon="6.60014">
        <ele>1177.6</ele>
        <time>2022-07-19T19:19:59Z</time>
      </trkpt>
      <trkpt lat="44.86601" lon="6.60016">
        <ele>1177.6</ele>
        <time>2022-07-19T19:20:00Z</time>
      </trkpt>
      <trkpt lat="44.86607" lon="6.6002">
        <ele>1177.4</ele>
        <time>2022-07-19T19:20:01Z</time>
      </trkpt>
      <trkpt lat="44.86613" lon="6.60024">
        <ele>1177.4</ele>
        <time>2022-07-19T19:20:02Z</time>
      </trkpt>
      <trkpt lat="44.86619" lon="6.60029">
        <ele>1177</ele>
        <time>2022-07-19T19:20:03Z</time>
      </trkpt>
      <trkpt lat="44.86624" lon="6.60033">
        <ele>1177</ele>
        <time>2022-07-19T19:20:04Z</time>
      </trkpt>
      <trkpt lat="44.8663" lon="6.60037">
        <ele>1176.8</ele>
        <time>2022-07-19T19:20:05Z</time>
      </trkpt>
      <trkpt lat="44.86636" lon="6.60041">
        <ele>1176.6</ele>
        <time>2022-07-19T19:20:06Z</time>
      </trkpt>
      <trkpt lat="44.86642" lon="6.60046">
        <ele>1176.6</ele>
        <time>2022-07-19T19:20:07Z</time>
      </trkpt>
      <trkpt lat="44.86647" lon="6.6005">
        <ele>1176.2</ele>
        <time>2022-07-19T19:20:08Z</time>
      </trkpt>
      <trkpt lat="44.86653" lon="6.60054">
        <ele>1176.2</ele>
        <time>2022-07-19T19:20:09Z</time>
      </trkpt>
      <trkpt lat="44.86659" lon="6.60058">
        <ele>1175.8</ele>
        <time>2022-07-19T19:20:10Z</time>
      </trkpt>
      <trkpt lat="44.86664" lon="6.60063">
        <ele>1175.8</ele>
        <time>2022-07-19T19:20:11Z</time>
      </trkpt>
      <trkpt lat="44.8667" lon="6.60067">
        <ele>1175.6</ele>
        <time>2022-07-19T19:20:12Z</time>
      </trkpt>
      <trkpt lat="44.86676" lon="6.60072">
        <ele>1175.6</ele>
        <time>2022-07-19T19:20:13Z</time>
      </trkpt>
      <trkpt lat="44.86682" lon="6.60076">
        <ele>1175.6</ele>
        <time>2022-07-19T19:20:14Z</time>
      </trkpt>
      <trkpt lat="44.86688" lon="6.60081">
        <ele>1175.2</ele>
        <time>2022-07-19T19:20:15Z</time>
      </trkpt>
      <trkpt lat="44.86694" lon="6.60085">
        <ele>1175.2</ele>
        <time>2022-07-19T19:20:16Z</time>
      </trkpt>
      <trkpt lat="44.867" lon="6.6009">
        <ele>1175</ele>
        <time>2022-07-19T19:20:17Z</time>
      </trkpt>
      <trkpt lat="44.86706" lon="6.60094">
        <ele>1175</ele>
        <time>2022-07-19T19:20:18Z</time>
      </trkpt>
      <trkpt lat="44.86712" lon="6.60099">
        <ele>1174.8</ele>
        <time>2022-07-19T19:20:19Z</time>
      </trkpt>
      <trkpt lat="44.86718" lon="6.60103">
        <ele>1174.8</ele>
        <time>2022-07-19T19:20:20Z</time>
      </trkpt>
      <trkpt lat="44.86724" lon="6.60108">
        <ele>1174.6</ele>
        <time>2022-07-19T19:20:21Z</time>
      </trkpt>
      <trkpt lat="44.8673" lon="6.60112">
        <ele>1174.6</ele>
        <time>2022-07-19T19:20:22Z</time>
      </trkpt>
      <trkpt lat="44.86736" lon="6.60117">
        <ele>1174.6</ele>
        <time>2022-07-19T19:20:23Z</time>
      </trkpt>
      <trkpt lat="44.86742" lon="6.60122">
        <ele>1174.6</ele>
        <time>2022-07-19T19:20:24Z</time>
      </trkpt>
      <trkpt lat="44.86748" lon="6.60126">
        <ele>1174.2</ele>
        <time>2022-07-19T19:20:25Z</time>
      </trkpt>
      <trkpt lat="44.86753" lon="6.60131">
        <ele>1174.2</ele>
        <time>2022-07-19T19:20:26Z</time>
      </trkpt>
      <trkpt lat="44.86759" lon="6.60136">
        <ele>1174.2</ele>
        <time>2022-07-19T19:20:27Z</time>
      </trkpt>
      <trkpt lat="44.86765" lon="6.60141">
        <ele>1174</ele>
        <time>2022-07-19T19:20:28Z</time>
      </trkpt>
      <trkpt lat="44.86771" lon="6.60146">
        <ele>1174</ele>
        <time>2022-07-19T19:20:29Z</time>
      </trkpt>
      <trkpt lat="44.86777" lon="6.60151">
        <ele>1174</ele>
        <time>2022-07-19T19:20:30Z</time>
      </trkpt>
      <trkpt lat="44.86783" lon="6.60156">
        <ele>1174</ele>
        <time>2022-07-19T19:20:31Z</time>
      </trkpt>
      <trkpt lat="44.86788" lon="6.60161">
        <ele>1174</ele>
        <time>2022-07-19T19:20:32Z</time>
      </trkpt>
      <trkpt lat="44.86794" lon="6.60166">
        <ele>1173.8</ele>
        <time>2022-07-19T19:20:33Z</time>
      </trkpt>
      <trkpt lat="44.868" lon="6.60171">
        <ele>1173.8</ele>
        <time>2022-07-19T19:20:34Z</time>
      </trkpt>
      <trkpt lat="44.86806" lon="6.60177">
        <ele>1173.8</ele>
        <time>2022-07-19T19:20:35Z</time>
      </trkpt>
      <trkpt lat="44.86811" lon="6.60182">
        <ele>1173.4</ele>
        <time>2022-07-19T19:20:36Z</time>
      </trkpt>
      <trkpt lat="44.86817" lon="6.60187">
        <ele>1173.4</ele>
        <time>2022-07-19T19:20:37Z</time>
      </trkpt>
      <trkpt lat="44.86823" lon="6.60193">
        <ele>1173.4</ele>
        <time>2022-07-19T19:20:38Z</time>
      </trkpt>
      <trkpt lat="44.86828" lon="6.60198">
        <ele>1173.4</ele>
        <time>2022-07-19T19:20:39Z</time>
      </trkpt>
      <trkpt lat="44.86834" lon="6.60203">
        <ele>1173.2</ele>
        <time>2022-07-19T19:20:40Z</time>
      </trkpt>
      <trkpt lat="44.8684" lon="6.60208">
        <ele>1173.2</ele>
        <time>2022-07-19T19:20:41Z</time>
      </trkpt>
      <trkpt lat="44.86845" lon="6.60214">
        <ele>1173.2</ele>
        <time>2022-07-19T19:20:42Z</time>
      </trkpt>
      <trkpt lat="44.86851" lon="6.6022">
        <ele>1173</ele>
        <time>2022-07-19T19:20:43Z</time>
      </trkpt>
      <trkpt lat="44.86856" lon="6.60226">
        <ele>1173</ele>
        <time>2022-07-19T19:20:44Z</time>
      </trkpt>
      <trkpt lat="44.86862" lon="6.60232">
        <ele>1173</ele>
        <time>2022-07-19T19:20:45Z</time>
      </trkpt>
      <trkpt lat="44.86867" lon="6.60238">
        <ele>1173</ele>
        <time>2022-07-19T19:20:46Z</time>
      </trkpt>
      <trkpt lat="44.86872" lon="6.60244">
        <ele>1172.8</ele>
        <time>2022-07-19T19:20:47Z</time>
      </trkpt>
      <trkpt lat="44.86877" lon="6.6025">
        <ele>1172.8</ele>
        <time>2022-07-19T19:20:48Z</time>
      </trkpt>
      <trkpt lat="44.86882" lon="6.60256">
        <ele>1172.8</ele>
        <time>2022-07-19T19:20:49Z</time>
      </trkpt>
      <trkpt lat="44.86887" lon="6.60262">
        <ele>1172.6</ele>
        <time>2022-07-19T19:20:50Z</time>
      </trkpt>
      <trkpt lat="44.86892" lon="6.60268">
        <ele>1172.6</ele>
        <time>2022-07-19T19:20:51Z</time>
      </trkpt>
      <trkpt lat="44.86898" lon="6.60277">
        <ele>1172.6</ele>
        <time>2022-07-19T19:20:52Z</time>
      </trkpt>
      <trkpt lat="44.869" lon="6.6028">
        <ele>1172.6</ele>
        <time>2022-07-19T19:20:53Z</time>
      </trkpt>
      <trkpt lat="44.86905" lon="6.60286">
        <ele>1172.4</ele>
        <time>2022-07-19T19:20:54Z</time>
      </trkpt>
      <trkpt lat="44.86909" lon="6.60292">
        <ele>1172.4</ele>
        <time>2022-07-19T19:20:55Z</time>
      </trkpt>
      <trkpt lat="44.86913" lon="6.60299">
        <ele>1172.4</ele>
        <time>2022-07-19T19:20:56Z</time>
      </trkpt>
      <trkpt lat="44.86917" lon="6.60305">
        <ele>1172.4</ele>
        <time>2022-07-19T19:20:57Z</time>
      </trkpt>
      <trkpt lat="44.86921" lon="6.60311">
        <ele>1172.2</ele>
        <time>2022-07-19T19:20:58Z</time>
      </trkpt>
      <trkpt lat="44.86924" lon="6.60317">
        <ele>1172.2</ele>
        <time>2022-07-19T19:20:59Z</time>
      </trkpt>
      <trkpt lat="44.86928" lon="6.60323">
        <ele>1172.2</ele>
        <time>2022-07-19T19:21:00Z</time>
      </trkpt>
      <trkpt lat="44.86932" lon="6.6033">
        <ele>1171.8</ele>
        <time>2022-07-19T19:21:01Z</time>
      </trkpt>
      <trkpt lat="44.86935" lon="6.60336">
        <ele>1171.8</ele>
        <time>2022-07-19T19:21:02Z</time>
      </trkpt>
      <trkpt lat="44.86939" lon="6.60343">
        <ele>1171.8</ele>
        <time>2022-07-19T19:21:03Z</time>
      </trkpt>
      <trkpt lat="44.86942" lon="6.6035">
        <ele>1171.6</ele>
        <time>2022-07-19T19:21:04Z</time>
      </trkpt>
      <trkpt lat="44.86946" lon="6.60357">
        <ele>1171.6</ele>
        <time>2022-07-19T19:21:05Z</time>
      </trkpt>
      <trkpt lat="44.8695" lon="6.60363">
        <ele>1171.6</ele>
        <time>2022-07-19T19:21:06Z</time>
      </trkpt>
      <trkpt lat="44.86953" lon="6.6037">
        <ele>1171.6</ele>
        <time>2022-07-19T19:21:07Z</time>
      </trkpt>
      <trkpt lat="44.86957" lon="6.60377">
        <ele>1171.4</ele>
        <time>2022-07-19T19:21:08Z</time>
      </trkpt>
      <trkpt lat="44.86961" lon="6.60385">
        <ele>1171.4</ele>
        <time>2022-07-19T19:21:09Z</time>
      </trkpt>
      <trkpt lat="44.86964" lon="6.60392">
        <ele>1171.4</ele>
        <time>2022-07-19T19:21:10Z</time>
      </trkpt>
      <trkpt lat="44.86968" lon="6.604">
        <ele>1171.4</ele>
        <time>2022-07-19T19:21:11Z</time>
      </trkpt>
      <trkpt lat="44.86972" lon="6.60407">
        <ele>1171.2</ele>
        <time>2022-07-19T19:21:12Z</time>
      </trkpt>
      <trkpt lat="44.86976" lon="6.60414">
        <ele>1171.2</ele>
        <time>2022-07-19T19:21:13Z</time>
      </trkpt>
      <trkpt lat="44.8698" lon="6.60421">
        <ele>1171.2</ele>
        <time>2022-07-19T19:21:14Z</time>
      </trkpt>
      <trkpt lat="44.86984" lon="6.60429">
        <ele>1171</ele>
        <time>2022-07-19T19:21:15Z</time>
      </trkpt>
      <trkpt lat="44.86988" lon="6.60436">
        <ele>1171</ele>
        <time>2022-07-19T19:21:16Z</time>
      </trkpt>
      <trkpt lat="44.86991" lon="6.60444">
        <ele>1171</ele>
        <time>2022-07-19T19:21:17Z</time>
      </trkpt>
      <trkpt lat="44.86995" lon="6.60451">
        <ele>1171</ele>
        <time>2022-07-19T19:21:18Z</time>
      </trkpt>
      <trkpt lat="44.86999" lon="6.60458">
        <ele>1171</ele>
        <time>2022-07-19T19:21:19Z</time>
      </trkpt>
      <trkpt lat="44.87003" lon="6.60466">
        <ele>1170.8</ele>
        <time>2022-07-19T19:21:20Z</time>
      </trkpt>
      <trkpt lat="44.87007" lon="6.60473">
        <ele>1170.8</ele>
        <time>2022-07-19T19:21:21Z</time>
      </trkpt>
      <trkpt lat="44.87011" lon="6.60481">
        <ele>1170.4</ele>
        <time>2022-07-19T19:21:22Z</time>
      </trkpt>
      <trkpt lat="44.87015" lon="6.60488">
        <ele>1170.4</ele>
        <time>2022-07-19T19:21:23Z</time>
      </trkpt>
      <trkpt lat="44.87018" lon="6.60495">
        <ele>1170.4</ele>
        <time>2022-07-19T19:21:24Z</time>
      </trkpt>
      <trkpt lat="44.87022" lon="6.60503">
        <ele>1170.4</ele>
        <time>2022-07-19T19:21:25Z</time>
      </trkpt>
      <trkpt lat="44.87026" lon="6.6051">
        <ele>1170.2</ele>
        <time>2022-07-19T19:21:26Z</time>
      </trkpt>
      <trkpt lat="44.8703" lon="6.60517">
        <ele>1170.2</ele>
        <time>2022-07-19T19:21:27Z</time>
      </trkpt>
      <trkpt lat="44.87033" lon="6.60524">
        <ele>1170.2</ele>
        <time>2022-07-19T19:21:28Z</time>
      </trkpt>
      <trkpt lat="44.87037" lon="6.60531">
        <ele>1170.2</ele>
        <time>2022-07-19T19:21:29Z</time>
      </trkpt>
      <trkpt lat="44.87041" lon="6.60538">
        <ele>1170.2</ele>
        <time>2022-07-19T19:21:30Z</time>
      </trkpt>
      <trkpt lat="44.87045" lon="6.60545">
        <ele>1170.2</ele>
        <time>2022-07-19T19:21:31Z</time>
      </trkpt>
      <trkpt lat="44.87048" lon="6.60552">
        <ele>1170</ele>
        <time>2022-07-19T19:21:32Z</time>
      </trkpt>
      <trkpt lat="44.87052" lon="6.60559">
        <ele>1170</ele>
        <time>2022-07-19T19:21:33Z</time>
      </trkpt>
      <trkpt lat="44.87056" lon="6.60566">
        <ele>1170</ele>
        <time>2022-07-19T19:21:34Z</time>
      </trkpt>
      <trkpt lat="44.87059" lon="6.60574">
        <ele>1170</ele>
        <time>2022-07-19T19:21:35Z</time>
      </trkpt>
      <trkpt lat="44.87063" lon="6.60581">
        <ele>1170</ele>
        <time>2022-07-19T19:21:36Z</time>
      </trkpt>
      <trkpt lat="44.87067" lon="6.60587">
        <ele>1170</ele>
        <time>2022-07-19T19:21:37Z</time>
      </trkpt>
      <trkpt lat="44.8707" lon="6.60594">
        <ele>1170</ele>
        <time>2022-07-19T19:21:38Z</time>
      </trkpt>
      <trkpt lat="44.87074" lon="6.60601">
        <ele>1170</ele>
        <time>2022-07-19T19:21:39Z</time>
      </trkpt>
      <trkpt lat="44.87077" lon="6.60607">
        <ele>1170</ele>
        <time>2022-07-19T19:21:40Z</time>
      </trkpt>
      <trkpt lat="44.87081" lon="6.60614">
        <ele>1170.2</ele>
        <time>2022-07-19T19:21:41Z</time>
      </trkpt>
      <trkpt lat="44.87084" lon="6.6062">
        <ele>1170.2</ele>
        <time>2022-07-19T19:21:42Z</time>
      </trkpt>
      <trkpt lat="44.87088" lon="6.60626">
        <ele>1170.2</ele>
        <time>2022-07-19T19:21:43Z</time>
      </trkpt>
      <trkpt lat="44.87091" lon="6.60633">
        <ele>1170.2</ele>
        <time>2022-07-19T19:21:44Z</time>
      </trkpt>
      <trkpt lat="44.87095" lon="6.60639">
        <ele>1170.2</ele>
        <time>2022-07-19T19:21:45Z</time>
      </trkpt>
      <trkpt lat="44.87098" lon="6.60645">
        <ele>1170.4</ele>
        <time>2022-07-19T19:21:46Z</time>
      </trkpt>
      <trkpt lat="44.87101" lon="6.60651">
        <ele>1170.4</ele>
        <time>2022-07-19T19:21:47Z</time>
      </trkpt>
      <trkpt lat="44.87104" lon="6.60657">
        <ele>1170.4</ele>
        <time>2022-07-19T19:21:48Z</time>
      </trkpt>
      <trkpt lat="44.87107" lon="6.60663">
        <ele>1170.4</ele>
        <time>2022-07-19T19:21:49Z</time>
      </trkpt>
      <trkpt lat="44.8711" lon="6.60669">
        <ele>1170.4</ele>
        <time>2022-07-19T19:21:50Z</time>
      </trkpt>
      <trkpt lat="44.87114" lon="6.60675">
        <ele>1170.4</ele>
        <time>2022-07-19T19:21:51Z</time>
      </trkpt>
      <trkpt lat="44.87117" lon="6.6068">
        <ele>1170.4</ele>
        <time>2022-07-19T19:21:52Z</time>
      </trkpt>
      <trkpt lat="44.8712" lon="6.60686">
        <ele>1170.4</ele>
        <time>2022-07-19T19:21:53Z</time>
      </trkpt>
      <trkpt lat="44.87123" lon="6.60692">
        <ele>1170.4</ele>
        <time>2022-07-19T19:21:54Z</time>
      </trkpt>
      <trkpt lat="44.87126" lon="6.60698">
        <ele>1170.6</ele>
        <time>2022-07-19T19:21:56Z</time>
      </trkpt>
      <trkpt lat="44.87129" lon="6.60704">
        <ele>1170.6</ele>
        <time>2022-07-19T19:21:57Z</time>
      </trkpt>
      <trkpt lat="44.87131" lon="6.6071">
        <ele>1171</ele>
        <time>2022-07-19T19:21:58Z</time>
      </trkpt>
      <trkpt lat="44.87134" lon="6.60716">
        <ele>1171</ele>
        <time>2022-07-19T19:21:59Z</time>
      </trkpt>
      <trkpt lat="44.87137" lon="6.60722">
        <ele>1171</ele>
        <time>2022-07-19T19:22:00Z</time>
      </trkpt>
      <trkpt lat="44.8714" lon="6.60728">
        <ele>1171</ele>
        <time>2022-07-19T19:22:01Z</time>
      </trkpt>
      <trkpt lat="44.87142" lon="6.60735">
        <ele>1171</ele>
        <time>2022-07-19T19:22:02Z</time>
      </trkpt>
      <trkpt lat="44.87145" lon="6.60741">
        <ele>1171</ele>
        <time>2022-07-19T19:22:03Z</time>
      </trkpt>
      <trkpt lat="44.87147" lon="6.60747">
        <ele>1171.2</ele>
        <time>2022-07-19T19:22:04Z</time>
      </trkpt>
      <trkpt lat="44.8715" lon="6.60753">
        <ele>1171.2</ele>
        <time>2022-07-19T19:22:05Z</time>
      </trkpt>
      <trkpt lat="44.87152" lon="6.60759">
        <ele>1171.2</ele>
        <time>2022-07-19T19:22:06Z</time>
      </trkpt>
      <trkpt lat="44.87155" lon="6.60765">
        <ele>1171.2</ele>
        <time>2022-07-19T19:22:07Z</time>
      </trkpt>
      <trkpt lat="44.87157" lon="6.60771">
        <ele>1171.4</ele>
        <time>2022-07-19T19:22:08Z</time>
      </trkpt>
      <trkpt lat="44.8716" lon="6.60778">
        <ele>1171.4</ele>
        <time>2022-07-19T19:22:09Z</time>
      </trkpt>
      <trkpt lat="44.87162" lon="6.60784">
        <ele>1171.4</ele>
        <time>2022-07-19T19:22:10Z</time>
      </trkpt>
      <trkpt lat="44.87164" lon="6.60791">
        <ele>1171.4</ele>
        <time>2022-07-19T19:22:11Z</time>
      </trkpt>
      <trkpt lat="44.87167" lon="6.60798">
        <ele>1171.4</ele>
        <time>2022-07-19T19:22:12Z</time>
      </trkpt>
      <trkpt lat="44.87169" lon="6.60804">
        <ele>1171.4</ele>
        <time>2022-07-19T19:22:13Z</time>
      </trkpt>
      <trkpt lat="44.87171" lon="6.60811">
        <ele>1171.4</ele>
        <time>2022-07-19T19:22:14Z</time>
      </trkpt>
      <trkpt lat="44.87174" lon="6.60817">
        <ele>1171.8</ele>
        <time>2022-07-19T19:22:15Z</time>
      </trkpt>
      <trkpt lat="44.87176" lon="6.60824">
        <ele>1171.8</ele>
        <time>2022-07-19T19:22:16Z</time>
      </trkpt>
      <trkpt lat="44.87178" lon="6.60831">
        <ele>1171.8</ele>
        <time>2022-07-19T19:22:17Z</time>
      </trkpt>
      <trkpt lat="44.8718" lon="6.60837">
        <ele>1171.8</ele>
        <time>2022-07-19T19:22:18Z</time>
      </trkpt>
      <trkpt lat="44.87182" lon="6.60844">
        <ele>1171.8</ele>
        <time>2022-07-19T19:22:19Z</time>
      </trkpt>
      <trkpt lat="44.87184" lon="6.60851">
        <ele>1172</ele>
        <time>2022-07-19T19:22:20Z</time>
      </trkpt>
      <trkpt lat="44.87186" lon="6.60857">
        <ele>1172</ele>
        <time>2022-07-19T19:22:21Z</time>
      </trkpt>
      <trkpt lat="44.87188" lon="6.60864">
        <ele>1172</ele>
        <time>2022-07-19T19:22:22Z</time>
      </trkpt>
      <trkpt lat="44.8719" lon="6.6087">
        <ele>1172</ele>
        <time>2022-07-19T19:22:23Z</time>
      </trkpt>
      <trkpt lat="44.87191" lon="6.60876">
        <ele>1172</ele>
        <time>2022-07-19T19:22:24Z</time>
      </trkpt>
      <trkpt lat="44.87193" lon="6.60883">
        <ele>1172</ele>
        <time>2022-07-19T19:22:25Z</time>
      </trkpt>
      <trkpt lat="44.87195" lon="6.60889">
        <ele>1172</ele>
        <time>2022-07-19T19:22:26Z</time>
      </trkpt>
      <trkpt lat="44.87197" lon="6.60895">
        <ele>1172</ele>
        <time>2022-07-19T19:22:27Z</time>
      </trkpt>
      <trkpt lat="44.87199" lon="6.60901">
        <ele>1172</ele>
        <time>2022-07-19T19:22:28Z</time>
      </trkpt>
      <trkpt lat="44.87201" lon="6.60908">
        <ele>1172</ele>
        <time>2022-07-19T19:22:29Z</time>
      </trkpt>
      <trkpt lat="44.87203" lon="6.60914">
        <ele>1172.2</ele>
        <time>2022-07-19T19:22:30Z</time>
      </trkpt>
      <trkpt lat="44.87205" lon="6.6092">
        <ele>1172.2</ele>
        <time>2022-07-19T19:22:31Z</time>
      </trkpt>
      <trkpt lat="44.87207" lon="6.60926">
        <ele>1172.2</ele>
        <time>2022-07-19T19:22:32Z</time>
      </trkpt>
      <trkpt lat="44.87209" lon="6.60932">
        <ele>1172.4</ele>
        <time>2022-07-19T19:22:33Z</time>
      </trkpt>
      <trkpt lat="44.87211" lon="6.60938">
        <ele>1172.4</ele>
        <time>2022-07-19T19:22:34Z</time>
      </trkpt>
      <trkpt lat="44.87213" lon="6.60944">
        <ele>1172.4</ele>
        <time>2022-07-19T19:22:35Z</time>
      </trkpt>
      <trkpt lat="44.87215" lon="6.60951">
        <ele>1172.6</ele>
        <time>2022-07-19T19:22:36Z</time>
      </trkpt>
      <trkpt lat="44.87217" lon="6.60957">
        <ele>1172.6</ele>
        <time>2022-07-19T19:22:37Z</time>
      </trkpt>
      <trkpt lat="44.87219" lon="6.60963">
        <ele>1172.6</ele>
        <time>2022-07-19T19:22:38Z</time>
      </trkpt>
      <trkpt lat="44.8722" lon="6.6097">
        <ele>1172.6</ele>
        <time>2022-07-19T19:22:39Z</time>
      </trkpt>
      <trkpt lat="44.87222" lon="6.60976">
        <ele>1172.6</ele>
        <time>2022-07-19T19:22:40Z</time>
      </trkpt>
      <trkpt lat="44.87224" lon="6.60982">
        <ele>1173.2</ele>
        <time>2022-07-19T19:22:41Z</time>
      </trkpt>
      <trkpt lat="44.87226" lon="6.60988">
        <ele>1173.2</ele>
        <time>2022-07-19T19:22:42Z</time>
      </trkpt>
      <trkpt lat="44.87228" lon="6.60995">
        <ele>1173.2</ele>
        <time>2022-07-19T19:22:43Z</time>
      </trkpt>
      <trkpt lat="44.8723" lon="6.61001">
        <ele>1173.2</ele>
        <time>2022-07-19T19:22:44Z</time>
      </trkpt>
      <trkpt lat="44.87232" lon="6.61008">
        <ele>1173.2</ele>
        <time>2022-07-19T19:22:45Z</time>
      </trkpt>
      <trkpt lat="44.87234" lon="6.61014">
        <ele>1173.2</ele>
        <time>2022-07-19T19:22:46Z</time>
      </trkpt>
      <trkpt lat="44.87237" lon="6.6102">
        <ele>1173.2</ele>
        <time>2022-07-19T19:22:47Z</time>
      </trkpt>
      <trkpt lat="44.87239" lon="6.61027">
        <ele>1173.2</ele>
        <time>2022-07-19T19:22:48Z</time>
      </trkpt>
      <trkpt lat="44.87241" lon="6.61033">
        <ele>1173.2</ele>
        <time>2022-07-19T19:22:49Z</time>
      </trkpt>
      <trkpt lat="44.87243" lon="6.61039">
        <ele>1173.4</ele>
        <time>2022-07-19T19:22:50Z</time>
      </trkpt>
      <trkpt lat="44.87245" lon="6.61046">
        <ele>1173.4</ele>
        <time>2022-07-19T19:22:51Z</time>
      </trkpt>
      <trkpt lat="44.87247" lon="6.61052">
        <ele>1173.4</ele>
        <time>2022-07-19T19:22:52Z</time>
      </trkpt>
      <trkpt lat="44.87249" lon="6.61059">
        <ele>1173.8</ele>
        <time>2022-07-19T19:22:53Z</time>
      </trkpt>
      <trkpt lat="44.87251" lon="6.61065">
        <ele>1173.8</ele>
        <time>2022-07-19T19:22:54Z</time>
      </trkpt>
      <trkpt lat="44.87253" lon="6.61071">
        <ele>1173.8</ele>
        <time>2022-07-19T19:22:55Z</time>
      </trkpt>
      <trkpt lat="44.87256" lon="6.61078">
        <ele>1173.8</ele>
        <time>2022-07-19T19:22:56Z</time>
      </trkpt>
      <trkpt lat="44.87258" lon="6.61084">
        <ele>1173.8</ele>
        <time>2022-07-19T19:22:57Z</time>
      </trkpt>
      <trkpt lat="44.8726" lon="6.6109">
        <ele>1173.8</ele>
        <time>2022-07-19T19:22:58Z</time>
      </trkpt>
      <trkpt lat="44.87262" lon="6.61097">
        <ele>1174</ele>
        <time>2022-07-19T19:22:59Z</time>
      </trkpt>
      <trkpt lat="44.87264" lon="6.61103">
        <ele>1174</ele>
        <time>2022-07-19T19:23:00Z</time>
      </trkpt>
      <trkpt lat="44.87266" lon="6.61109">
        <ele>1174</ele>
        <time>2022-07-19T19:23:01Z</time>
      </trkpt>
      <trkpt lat="44.87268" lon="6.61115">
        <ele>1174</ele>
        <time>2022-07-19T19:23:02Z</time>
      </trkpt>
      <trkpt lat="44.8727" lon="6.61122">
        <ele>1174</ele>
        <time>2022-07-19T19:23:03Z</time>
      </trkpt>
      <trkpt lat="44.87272" lon="6.61128">
        <ele>1174</ele>
        <time>2022-07-19T19:23:04Z</time>
      </trkpt>
      <trkpt lat="44.87274" lon="6.61134">
        <ele>1174</ele>
        <time>2022-07-19T19:23:05Z</time>
      </trkpt>
      <trkpt lat="44.87276" lon="6.6114">
        <ele>1174</ele>
        <time>2022-07-19T19:23:06Z</time>
      </trkpt>
      <trkpt lat="44.87278" lon="6.61147">
        <ele>1174</ele>
        <time>2022-07-19T19:23:07Z</time>
      </trkpt>
      <trkpt lat="44.8728" lon="6.61153">
        <ele>1174</ele>
        <time>2022-07-19T19:23:08Z</time>
      </trkpt>
      <trkpt lat="44.87282" lon="6.61159">
        <ele>1174</ele>
        <time>2022-07-19T19:23:09Z</time>
      </trkpt>
      <trkpt lat="44.87284" lon="6.61166">
        <ele>1174</ele>
        <time>2022-07-19T19:23:10Z</time>
      </trkpt>
      <trkpt lat="44.87286" lon="6.61172">
        <ele>1174</ele>
        <time>2022-07-19T19:23:11Z</time>
      </trkpt>
      <trkpt lat="44.87288" lon="6.61178">
        <ele>1174</ele>
        <time>2022-07-19T19:23:12Z</time>
      </trkpt>
      <trkpt lat="44.8729" lon="6.61184">
        <ele>1174.2</ele>
        <time>2022-07-19T19:23:13Z</time>
      </trkpt>
      <trkpt lat="44.87292" lon="6.61191">
        <ele>1174.2</ele>
        <time>2022-07-19T19:23:14Z</time>
      </trkpt>
      <trkpt lat="44.87294" lon="6.61197">
        <ele>1174.2</ele>
        <time>2022-07-19T19:23:15Z</time>
      </trkpt>
      <trkpt lat="44.87296" lon="6.61204">
        <ele>1174.2</ele>
        <time>2022-07-19T19:23:16Z</time>
      </trkpt>
      <trkpt lat="44.87298" lon="6.61211">
        <ele>1174.2</ele>
        <time>2022-07-19T19:23:17Z</time>
      </trkpt>
      <trkpt lat="44.873" lon="6.61217">
        <ele>1174.2</ele>
        <time>2022-07-19T19:23:18Z</time>
      </trkpt>
      <trkpt lat="44.87302" lon="6.61224">
        <ele>1174.2</ele>
        <time>2022-07-19T19:23:19Z</time>
      </trkpt>
      <trkpt lat="44.87304" lon="6.61231">
        <ele>1174.6</ele>
        <time>2022-07-19T19:23:20Z</time>
      </trkpt>
      <trkpt lat="44.87306" lon="6.61237">
        <ele>1174.6</ele>
        <time>2022-07-19T19:23:21Z</time>
      </trkpt>
      <trkpt lat="44.87308" lon="6.61244">
        <ele>1174.6</ele>
        <time>2022-07-19T19:23:22Z</time>
      </trkpt>
      <trkpt lat="44.8731" lon="6.61251">
        <ele>1174.8</ele>
        <time>2022-07-19T19:23:23Z</time>
      </trkpt>
      <trkpt lat="44.87312" lon="6.61258">
        <ele>1174.8</ele>
        <time>2022-07-19T19:23:24Z</time>
      </trkpt>
      <trkpt lat="44.87314" lon="6.61264">
        <ele>1175</ele>
        <time>2022-07-19T19:23:25Z</time>
      </trkpt>
      <trkpt lat="44.87316" lon="6.61271">
        <ele>1175</ele>
        <time>2022-07-19T19:23:26Z</time>
      </trkpt>
      <trkpt lat="44.87318" lon="6.61278">
        <ele>1175.2</ele>
        <time>2022-07-19T19:23:27Z</time>
      </trkpt>
      <trkpt lat="44.8732" lon="6.61284">
        <ele>1175.2</ele>
        <time>2022-07-19T19:23:28Z</time>
      </trkpt>
      <trkpt lat="44.87322" lon="6.61291">
        <ele>1175.2</ele>
        <time>2022-07-19T19:23:29Z</time>
      </trkpt>
      <trkpt lat="44.87324" lon="6.61297">
        <ele>1175.2</ele>
        <time>2022-07-19T19:23:30Z</time>
      </trkpt>
      <trkpt lat="44.87326" lon="6.61304">
        <ele>1175.2</ele>
        <time>2022-07-19T19:23:31Z</time>
      </trkpt>
      <trkpt lat="44.87328" lon="6.61311">
        <ele>1175.2</ele>
        <time>2022-07-19T19:23:32Z</time>
      </trkpt>
      <trkpt lat="44.8733" lon="6.61317">
        <ele>1175.4</ele>
        <time>2022-07-19T19:23:33Z</time>
      </trkpt>
      <trkpt lat="44.87332" lon="6.61324">
        <ele>1175.4</ele>
        <time>2022-07-19T19:23:34Z</time>
      </trkpt>
      <trkpt lat="44.87334" lon="6.6133">
        <ele>1175.4</ele>
        <time>2022-07-19T19:23:35Z</time>
      </trkpt>
      <trkpt lat="44.87336" lon="6.61337">
        <ele>1175.4</ele>
        <time>2022-07-19T19:23:36Z</time>
      </trkpt>
      <trkpt lat="44.87338" lon="6.61344">
        <ele>1175.4</ele>
        <time>2022-07-19T19:23:37Z</time>
      </trkpt>
      <trkpt lat="44.8734" lon="6.6135">
        <ele>1175.8</ele>
        <time>2022-07-19T19:23:38Z</time>
      </trkpt>
      <trkpt lat="44.87342" lon="6.61357">
        <ele>1175.8</ele>
        <time>2022-07-19T19:23:39Z</time>
      </trkpt>
      <trkpt lat="44.87344" lon="6.61363">
        <ele>1175.8</ele>
        <time>2022-07-19T19:23:40Z</time>
      </trkpt>
      <trkpt lat="44.87346" lon="6.6137">
        <ele>1175.8</ele>
        <time>2022-07-19T19:23:41Z</time>
      </trkpt>
      <trkpt lat="44.87348" lon="6.61376">
        <ele>1175.8</ele>
        <time>2022-07-19T19:23:42Z</time>
      </trkpt>
      <trkpt lat="44.8735" lon="6.61383">
        <ele>1176</ele>
        <time>2022-07-19T19:23:43Z</time>
      </trkpt>
      <trkpt lat="44.87352" lon="6.6139">
        <ele>1176</ele>
        <time>2022-07-19T19:23:44Z</time>
      </trkpt>
      <trkpt lat="44.87354" lon="6.61396">
        <ele>1176</ele>
        <time>2022-07-19T19:23:45Z</time>
      </trkpt>
      <trkpt lat="44.87356" lon="6.61403">
        <ele>1176</ele>
        <time>2022-07-19T19:23:46Z</time>
      </trkpt>
      <trkpt lat="44.87358" lon="6.6141">
        <ele>1176</ele>
        <time>2022-07-19T19:23:47Z</time>
      </trkpt>
      <trkpt lat="44.8736" lon="6.61416">
        <ele>1176</ele>
        <time>2022-07-19T19:23:48Z</time>
      </trkpt>
      <trkpt lat="44.87362" lon="6.61423">
        <ele>1176</ele>
        <time>2022-07-19T19:23:49Z</time>
      </trkpt>
      <trkpt lat="44.87364" lon="6.6143">
        <ele>1176</ele>
        <time>2022-07-19T19:23:50Z</time>
      </trkpt>
      <trkpt lat="44.87366" lon="6.61436">
        <ele>1176</ele>
        <time>2022-07-19T19:23:51Z</time>
      </trkpt>
      <trkpt lat="44.87368" lon="6.61443">
        <ele>1176.2</ele>
        <time>2022-07-19T19:23:52Z</time>
      </trkpt>
      <trkpt lat="44.8737" lon="6.61449">
        <ele>1176.2</ele>
        <time>2022-07-19T19:23:53Z</time>
      </trkpt>
      <trkpt lat="44.87372" lon="6.61455">
        <ele>1176.2</ele>
        <time>2022-07-19T19:23:54Z</time>
      </trkpt>
      <trkpt lat="44.87374" lon="6.61462">
        <ele>1176.6</ele>
        <time>2022-07-19T19:23:55Z</time>
      </trkpt>
      <trkpt lat="44.87376" lon="6.61468">
        <ele>1176.6</ele>
        <time>2022-07-19T19:23:56Z</time>
      </trkpt>
      <trkpt lat="44.87379" lon="6.61474">
        <ele>1176.8</ele>
        <time>2022-07-19T19:23:57Z</time>
      </trkpt>
      <trkpt lat="44.87381" lon="6.6148">
        <ele>1176.8</ele>
        <time>2022-07-19T19:23:58Z</time>
      </trkpt>
      <trkpt lat="44.87383" lon="6.61486">
        <ele>1176.8</ele>
        <time>2022-07-19T19:23:59Z</time>
      </trkpt>
      <trkpt lat="44.87385" lon="6.61492">
        <ele>1177</ele>
        <time>2022-07-19T19:24:00Z</time>
      </trkpt>
      <trkpt lat="44.87387" lon="6.61498">
        <ele>1177</ele>
        <time>2022-07-19T19:24:01Z</time>
      </trkpt>
      <trkpt lat="44.87389" lon="6.61504">
        <ele>1177</ele>
        <time>2022-07-19T19:24:02Z</time>
      </trkpt>
      <trkpt lat="44.87392" lon="6.6151">
        <ele>1177</ele>
        <time>2022-07-19T19:24:03Z</time>
      </trkpt>
      <trkpt lat="44.87394" lon="6.61516">
        <ele>1177.4</ele>
        <time>2022-07-19T19:24:04Z</time>
      </trkpt>
      <trkpt lat="44.87396" lon="6.61522">
        <ele>1177.4</ele>
        <time>2022-07-19T19:24:05Z</time>
      </trkpt>
      <trkpt lat="44.87399" lon="6.61528">
        <ele>1177.4</ele>
        <time>2022-07-19T19:24:06Z</time>
      </trkpt>
      <trkpt lat="44.87402" lon="6.61534">
        <ele>1177.4</ele>
        <time>2022-07-19T19:24:07Z</time>
      </trkpt>
      <trkpt lat="44.87404" lon="6.61539">
        <ele>1177.4</ele>
        <time>2022-07-19T19:24:08Z</time>
      </trkpt>
      <trkpt lat="44.87407" lon="6.61545">
        <ele>1177.4</ele>
        <time>2022-07-19T19:24:09Z</time>
      </trkpt>
      <trkpt lat="44.8741" lon="6.61551">
        <ele>1177.4</ele>
        <time>2022-07-19T19:24:10Z</time>
      </trkpt>
      <trkpt lat="44.87412" lon="6.61556">
        <ele>1177.4</ele>
        <time>2022-07-19T19:24:11Z</time>
      </trkpt>
      <trkpt lat="44.87415" lon="6.61562">
        <ele>1177.4</ele>
        <time>2022-07-19T19:24:12Z</time>
      </trkpt>
      <trkpt lat="44.87418" lon="6.61567">
        <ele>1177.4</ele>
        <time>2022-07-19T19:24:13Z</time>
      </trkpt>
      <trkpt lat="44.87421" lon="6.61573">
        <ele>1177.4</ele>
        <time>2022-07-19T19:24:14Z</time>
      </trkpt>
      <trkpt lat="44.87424" lon="6.61578">
        <ele>1177.4</ele>
        <time>2022-07-19T19:24:15Z</time>
      </trkpt>
      <trkpt lat="44.87427" lon="6.61584">
        <ele>1177.4</ele>
        <time>2022-07-19T19:24:16Z</time>
      </trkpt>
      <trkpt lat="44.8743" lon="6.61589">
        <ele>1177.6</ele>
        <time>2022-07-19T19:24:17Z</time>
      </trkpt>
      <trkpt lat="44.87434" lon="6.61595">
        <ele>1177.6</ele>
        <time>2022-07-19T19:24:18Z</time>
      </trkpt>
      <trkpt lat="44.87437" lon="6.616">
        <ele>1177.8</ele>
        <time>2022-07-19T19:24:19Z</time>
      </trkpt>
      <trkpt lat="44.8744" lon="6.61605">
        <ele>1177.8</ele>
        <time>2022-07-19T19:24:20Z</time>
      </trkpt>
      <trkpt lat="44.87443" lon="6.6161">
        <ele>1177.8</ele>
        <time>2022-07-19T19:24:21Z</time>
      </trkpt>
      <trkpt lat="44.87447" lon="6.61615">
        <ele>1178</ele>
        <time>2022-07-19T19:24:22Z</time>
      </trkpt>
      <trkpt lat="44.8745" lon="6.6162">
        <ele>1178</ele>
        <time>2022-07-19T19:24:23Z</time>
      </trkpt>
      <trkpt lat="44.87454" lon="6.61625">
        <ele>1178</ele>
        <time>2022-07-19T19:24:24Z</time>
      </trkpt>
      <trkpt lat="44.87457" lon="6.6163">
        <ele>1178.2</ele>
        <time>2022-07-19T19:24:25Z</time>
      </trkpt>
      <trkpt lat="44.87461" lon="6.61635">
        <ele>1178.2</ele>
        <time>2022-07-19T19:24:26Z</time>
      </trkpt>
      <trkpt lat="44.87464" lon="6.61639">
        <ele>1178.2</ele>
        <time>2022-07-19T19:24:27Z</time>
      </trkpt>
      <trkpt lat="44.87468" lon="6.61644">
        <ele>1178.2</ele>
        <time>2022-07-19T19:24:28Z</time>
      </trkpt>
      <trkpt lat="44.87472" lon="6.61649">
        <ele>1178.2</ele>
        <time>2022-07-19T19:24:29Z</time>
      </trkpt>
      <trkpt lat="44.87475" lon="6.61653">
        <ele>1178.6</ele>
        <time>2022-07-19T19:24:30Z</time>
      </trkpt>
      <trkpt lat="44.87479" lon="6.61658">
        <ele>1178.6</ele>
        <time>2022-07-19T19:24:31Z</time>
      </trkpt>
      <trkpt lat="44.87483" lon="6.61662">
        <ele>1178.6</ele>
        <time>2022-07-19T19:24:32Z</time>
      </trkpt>
      <trkpt lat="44.87487" lon="6.61666">
        <ele>1178.6</ele>
        <time>2022-07-19T19:24:33Z</time>
      </trkpt>
      <trkpt lat="44.87491" lon="6.61671">
        <ele>1178.6</ele>
        <time>2022-07-19T19:24:34Z</time>
      </trkpt>
      <trkpt lat="44.87495" lon="6.61675">
        <ele>1178.8</ele>
        <time>2022-07-19T19:24:35Z</time>
      </trkpt>
      <trkpt lat="44.87499" lon="6.61679">
        <ele>1178.8</ele>
        <time>2022-07-19T19:24:36Z</time>
      </trkpt>
      <trkpt lat="44.87503" lon="6.61683">
        <ele>1178.8</ele>
        <time>2022-07-19T19:24:37Z</time>
      </trkpt>
      <trkpt lat="44.87507" lon="6.61687">
        <ele>1178.8</ele>
        <time>2022-07-19T19:24:38Z</time>
      </trkpt>
      <trkpt lat="44.87511" lon="6.61691">
        <ele>1178.8</ele>
        <time>2022-07-19T19:24:39Z</time>
      </trkpt>
      <trkpt lat="44.87514" lon="6.61695">
        <ele>1179</ele>
        <time>2022-07-19T19:24:40Z</time>
      </trkpt>
      <trkpt lat="44.87518" lon="6.61698">
        <ele>1179</ele>
        <time>2022-07-19T19:24:41Z</time>
      </trkpt>
      <trkpt lat="44.87522" lon="6.61702">
        <ele>1179</ele>
        <time>2022-07-19T19:24:42Z</time>
      </trkpt>
      <trkpt lat="44.87526" lon="6.61705">
        <ele>1179</ele>
        <time>2022-07-19T19:24:43Z</time>
      </trkpt>
      <trkpt lat="44.87531" lon="6.61709">
        <ele>1179</ele>
        <time>2022-07-19T19:24:44Z</time>
      </trkpt>
      <trkpt lat="44.87535" lon="6.61712">
        <ele>1179</ele>
        <time>2022-07-19T19:24:45Z</time>
      </trkpt>
      <trkpt lat="44.87539" lon="6.61715">
        <ele>1179.2</ele>
        <time>2022-07-19T19:24:46Z</time>
      </trkpt>
      <trkpt lat="44.87543" lon="6.61718">
        <ele>1179.2</ele>
        <time>2022-07-19T19:24:47Z</time>
      </trkpt>
      <trkpt lat="44.87547" lon="6.61721">
        <ele>1179.2</ele>
        <time>2022-07-19T19:24:48Z</time>
      </trkpt>
      <trkpt lat="44.87551" lon="6.61724">
        <ele>1179.2</ele>
        <time>2022-07-19T19:24:49Z</time>
      </trkpt>
      <trkpt lat="44.87555" lon="6.61727">
        <ele>1179.2</ele>
        <time>2022-07-19T19:24:50Z</time>
      </trkpt>
      <trkpt lat="44.87559" lon="6.6173">
        <ele>1179.2</ele>
        <time>2022-07-19T19:24:51Z</time>
      </trkpt>
      <trkpt lat="44.87563" lon="6.61733">
        <ele>1179.2</ele>
        <time>2022-07-19T19:24:52Z</time>
      </trkpt>
      <trkpt lat="44.87567" lon="6.61736">
        <ele>1179.4</ele>
        <time>2022-07-19T19:24:53Z</time>
      </trkpt>
      <trkpt lat="44.87571" lon="6.61738">
        <ele>1179.4</ele>
        <time>2022-07-19T19:24:54Z</time>
      </trkpt>
      <trkpt lat="44.87575" lon="6.61741">
        <ele>1179.4</ele>
        <time>2022-07-19T19:24:55Z</time>
      </trkpt>
      <trkpt lat="44.8758" lon="6.61743">
        <ele>1179.4</ele>
        <time>2022-07-19T19:24:56Z</time>
      </trkpt>
      <trkpt lat="44.87584" lon="6.61745">
        <ele>1179.8</ele>
        <time>2022-07-19T19:24:57Z</time>
      </trkpt>
      <trkpt lat="44.87588" lon="6.61748">
        <ele>1179.8</ele>
        <time>2022-07-19T19:24:58Z</time>
      </trkpt>
      <trkpt lat="44.87592" lon="6.6175">
        <ele>1179.8</ele>
        <time>2022-07-19T19:24:59Z</time>
      </trkpt>
      <trkpt lat="44.87596" lon="6.61752">
        <ele>1179.8</ele>
        <time>2022-07-19T19:25:00Z</time>
      </trkpt>
      <trkpt lat="44.876" lon="6.61754">
        <ele>1180</ele>
        <time>2022-07-19T19:25:01Z</time>
      </trkpt>
      <trkpt lat="44.87605" lon="6.61756">
        <ele>1180</ele>
        <time>2022-07-19T19:25:02Z</time>
      </trkpt>
      <trkpt lat="44.87609" lon="6.61758">
        <ele>1180</ele>
        <time>2022-07-19T19:25:03Z</time>
      </trkpt>
      <trkpt lat="44.87613" lon="6.6176">
        <ele>1180</ele>
        <time>2022-07-19T19:25:04Z</time>
      </trkpt>
      <trkpt lat="44.87617" lon="6.61761">
        <ele>1180.2</ele>
        <time>2022-07-19T19:25:05Z</time>
      </trkpt>
      <trkpt lat="44.87621" lon="6.61763">
        <ele>1180.2</ele>
        <time>2022-07-19T19:25:06Z</time>
      </trkpt>
      <trkpt lat="44.87626" lon="6.61765">
        <ele>1180.2</ele>
        <time>2022-07-19T19:25:07Z</time>
      </trkpt>
      <trkpt lat="44.8763" lon="6.61767">
        <ele>1180.2</ele>
        <time>2022-07-19T19:25:08Z</time>
      </trkpt>
      <trkpt lat="44.87634" lon="6.61768">
        <ele>1180.2</ele>
        <time>2022-07-19T19:25:09Z</time>
      </trkpt>
      <trkpt lat="44.87638" lon="6.6177">
        <ele>1180.2</ele>
        <time>2022-07-19T19:25:10Z</time>
      </trkpt>
      <trkpt lat="44.87643" lon="6.61772">
        <ele>1180.4</ele>
        <time>2022-07-19T19:25:11Z</time>
      </trkpt>
      <trkpt lat="44.87647" lon="6.61773">
        <ele>1180.4</ele>
        <time>2022-07-19T19:25:12Z</time>
      </trkpt>
      <trkpt lat="44.87652" lon="6.61774">
        <ele>1180.4</ele>
        <time>2022-07-19T19:25:13Z</time>
      </trkpt>
      <trkpt lat="44.87656" lon="6.61776">
        <ele>1180.4</ele>
        <time>2022-07-19T19:25:14Z</time>
      </trkpt>
      <trkpt lat="44.8766" lon="6.61777">
        <ele>1180.4</ele>
        <time>2022-07-19T19:25:15Z</time>
      </trkpt>
      <trkpt lat="44.87665" lon="6.61779">
        <ele>1180.4</ele>
        <time>2022-07-19T19:25:16Z</time>
      </trkpt>
      <trkpt lat="44.87669" lon="6.6178">
        <ele>1180.4</ele>
        <time>2022-07-19T19:25:17Z</time>
      </trkpt>
      <trkpt lat="44.87674" lon="6.61781">
        <ele>1180.4</ele>
        <time>2022-07-19T19:25:18Z</time>
      </trkpt>
      <trkpt lat="44.87678" lon="6.61783">
        <ele>1180.8</ele>
        <time>2022-07-19T19:25:19Z</time>
      </trkpt>
      <trkpt lat="44.87683" lon="6.61784">
        <ele>1180.8</ele>
        <time>2022-07-19T19:25:20Z</time>
      </trkpt>
      <trkpt lat="44.87687" lon="6.61786">
        <ele>1180.8</ele>
        <time>2022-07-19T19:25:21Z</time>
      </trkpt>
      <trkpt lat="44.87691" lon="6.61787">
        <ele>1180.8</ele>
        <time>2022-07-19T19:25:22Z</time>
      </trkpt>
      <trkpt lat="44.87696" lon="6.61788">
        <ele>1180.8</ele>
        <time>2022-07-19T19:25:23Z</time>
      </trkpt>
      <trkpt lat="44.877" lon="6.61789">
        <ele>1180.8</ele>
        <time>2022-07-19T19:25:24Z</time>
      </trkpt>
      <trkpt lat="44.87709" lon="6.61792">
        <ele>1180.8</ele>
        <time>2022-07-19T19:25:25Z</time>
      </trkpt>
      <trkpt lat="44.87713" lon="6.61794">
        <ele>1180.8</ele>
        <time>2022-07-19T19:25:26Z</time>
      </trkpt>
      <trkpt lat="44.87717" lon="6.61795">
        <ele>1181</ele>
        <time>2022-07-19T19:25:27Z</time>
      </trkpt>
      <trkpt lat="44.87722" lon="6.61796">
        <ele>1181</ele>
        <time>2022-07-19T19:25:28Z</time>
      </trkpt>
      <trkpt lat="44.87726" lon="6.61797">
        <ele>1181</ele>
        <time>2022-07-19T19:25:29Z</time>
      </trkpt>
      <trkpt lat="44.8773" lon="6.61799">
        <ele>1181</ele>
        <time>2022-07-19T19:25:30Z</time>
      </trkpt>
      <trkpt lat="44.87734" lon="6.618">
        <ele>1181</ele>
        <time>2022-07-19T19:25:31Z</time>
      </trkpt>
      <trkpt lat="44.87739" lon="6.61801">
        <ele>1181</ele>
        <time>2022-07-19T19:25:32Z</time>
      </trkpt>
      <trkpt lat="44.87743" lon="6.61802">
        <ele>1181</ele>
        <time>2022-07-19T19:25:33Z</time>
      </trkpt>
      <trkpt lat="44.87747" lon="6.61804">
        <ele>1181</ele>
        <time>2022-07-19T19:25:34Z</time>
      </trkpt>
      <trkpt lat="44.87751" lon="6.61805">
        <ele>1181.2</ele>
        <time>2022-07-19T19:25:35Z</time>
      </trkpt>
      <trkpt lat="44.87755" lon="6.61806">
        <ele>1181.2</ele>
        <time>2022-07-19T19:25:36Z</time>
      </trkpt>
      <trkpt lat="44.87759" lon="6.61808">
        <ele>1181.2</ele>
        <time>2022-07-19T19:25:37Z</time>
      </trkpt>
      <trkpt lat="44.87763" lon="6.61809">
        <ele>1181.2</ele>
        <time>2022-07-19T19:25:38Z</time>
      </trkpt>
      <trkpt lat="44.87767" lon="6.61811">
        <ele>1181.2</ele>
        <time>2022-07-19T19:25:39Z</time>
      </trkpt>
      <trkpt lat="44.87772" lon="6.61812">
        <ele>1181.6</ele>
        <time>2022-07-19T19:25:40Z</time>
      </trkpt>
      <trkpt lat="44.87776" lon="6.61814">
        <ele>1181.6</ele>
        <time>2022-07-19T19:25:41Z</time>
      </trkpt>
      <trkpt lat="44.8778" lon="6.61816">
        <ele>1181.6</ele>
        <time>2022-07-19T19:25:42Z</time>
      </trkpt>
      <trkpt lat="44.87785" lon="6.61817">
        <ele>1181.6</ele>
        <time>2022-07-19T19:25:43Z</time>
      </trkpt>
      <trkpt lat="44.87789" lon="6.61819">
        <ele>1181.8</ele>
        <time>2022-07-19T19:25:44Z</time>
      </trkpt>
      <trkpt lat="44.87793" lon="6.6182">
        <ele>1181.8</ele>
        <time>2022-07-19T19:25:45Z</time>
      </trkpt>
      <trkpt lat="44.87797" lon="6.61822">
        <ele>1181.8</ele>
        <time>2022-07-19T19:25:46Z</time>
      </trkpt>
      <trkpt lat="44.87801" lon="6.61824">
        <ele>1181.8</ele>
        <time>2022-07-19T19:25:47Z</time>
      </trkpt>
      <trkpt lat="44.87806" lon="6.61826">
        <ele>1181.8</ele>
        <time>2022-07-19T19:25:48Z</time>
      </trkpt>
      <trkpt lat="44.8781" lon="6.61828">
        <ele>1181.8</ele>
        <time>2022-07-19T19:25:49Z</time>
      </trkpt>
      <trkpt lat="44.87814" lon="6.6183">
        <ele>1182</ele>
        <time>2022-07-19T19:25:50Z</time>
      </trkpt>
      <trkpt lat="44.87818" lon="6.61832">
        <ele>1182</ele>
        <time>2022-07-19T19:25:51Z</time>
      </trkpt>
      <trkpt lat="44.87822" lon="6.61834">
        <ele>1182</ele>
        <time>2022-07-19T19:25:52Z</time>
      </trkpt>
      <trkpt lat="44.87827" lon="6.61836">
        <ele>1182</ele>
        <time>2022-07-19T19:25:53Z</time>
      </trkpt>
      <trkpt lat="44.87831" lon="6.61838">
        <ele>1182.2</ele>
        <time>2022-07-19T19:25:54Z</time>
      </trkpt>
      <trkpt lat="44.87835" lon="6.6184">
        <ele>1182.2</ele>
        <time>2022-07-19T19:25:55Z</time>
      </trkpt>
      <trkpt lat="44.87839" lon="6.61842">
        <ele>1182.4</ele>
        <time>2022-07-19T19:25:56Z</time>
      </trkpt>
      <trkpt lat="44.87843" lon="6.61845">
        <ele>1182.4</ele>
        <time>2022-07-19T19:25:57Z</time>
      </trkpt>
      <trkpt lat="44.87847" lon="6.61847">
        <ele>1182.4</ele>
        <time>2022-07-19T19:25:58Z</time>
      </trkpt>
      <trkpt lat="44.87852" lon="6.6185">
        <ele>1182.4</ele>
        <time>2022-07-19T19:25:59Z</time>
      </trkpt>
      <trkpt lat="44.87856" lon="6.61852">
        <ele>1182.4</ele>
        <time>2022-07-19T19:26:00Z</time>
      </trkpt>
      <trkpt lat="44.8786" lon="6.61855">
        <ele>1182.4</ele>
        <time>2022-07-19T19:26:01Z</time>
      </trkpt>
      <trkpt lat="44.87864" lon="6.61857">
        <ele>1182.4</ele>
        <time>2022-07-19T19:26:02Z</time>
      </trkpt>
      <trkpt lat="44.87868" lon="6.6186">
        <ele>1182.4</ele>
        <time>2022-07-19T19:26:03Z</time>
      </trkpt>
      <trkpt lat="44.87872" lon="6.61862">
        <ele>1182.6</ele>
        <time>2022-07-19T19:26:04Z</time>
      </trkpt>
      <trkpt lat="44.87876" lon="6.61865">
        <ele>1182.6</ele>
        <time>2022-07-19T19:26:05Z</time>
      </trkpt>
      <trkpt lat="44.8788" lon="6.61868">
        <ele>1182.6</ele>
        <time>2022-07-19T19:26:06Z</time>
      </trkpt>
      <trkpt lat="44.87884" lon="6.61871">
        <ele>1182.6</ele>
        <time>2022-07-19T19:26:07Z</time>
      </trkpt>
      <trkpt lat="44.87888" lon="6.61873">
        <ele>1182.6</ele>
        <time>2022-07-19T19:26:08Z</time>
      </trkpt>
      <trkpt lat="44.87892" lon="6.61876">
        <ele>1182.6</ele>
        <time>2022-07-19T19:26:09Z</time>
      </trkpt>
      <trkpt lat="44.87896" lon="6.61879">
        <ele>1183</ele>
        <time>2022-07-19T19:26:10Z</time>
      </trkpt>
      <trkpt lat="44.879" lon="6.61882">
        <ele>1183</ele>
        <time>2022-07-19T19:26:11Z</time>
      </trkpt>
      <trkpt lat="44.87904" lon="6.61885">
        <ele>1183</ele>
        <time>2022-07-19T19:26:12Z</time>
      </trkpt>
      <trkpt lat="44.87907" lon="6.61888">
        <ele>1183</ele>
        <time>2022-07-19T19:26:13Z</time>
      </trkpt>
      <trkpt lat="44.87911" lon="6.61891">
        <ele>1183</ele>
        <time>2022-07-19T19:26:14Z</time>
      </trkpt>
      <trkpt lat="44.87915" lon="6.61894">
        <ele>1183</ele>
        <time>2022-07-19T19:26:15Z</time>
      </trkpt>
      <trkpt lat="44.87919" lon="6.61897">
        <ele>1183</ele>
        <time>2022-07-19T19:26:16Z</time>
      </trkpt>
      <trkpt lat="44.87923" lon="6.619">
        <ele>1183</ele>
        <time>2022-07-19T19:26:17Z</time>
      </trkpt>
      <trkpt lat="44.87926" lon="6.61903">
        <ele>1183</ele>
        <time>2022-07-19T19:26:18Z</time>
      </trkpt>
      <trkpt lat="44.8793" lon="6.61906">
        <ele>1183.2</ele>
        <time>2022-07-19T19:26:19Z</time>
      </trkpt>
      <trkpt lat="44.87934" lon="6.61909">
        <ele>1183.2</ele>
        <time>2022-07-19T19:26:20Z</time>
      </trkpt>
      <trkpt lat="44.87937" lon="6.61912">
        <ele>1183.4</ele>
        <time>2022-07-19T19:26:21Z</time>
      </trkpt>
      <trkpt lat="44.87941" lon="6.61916">
        <ele>1183.4</ele>
        <time>2022-07-19T19:26:22Z</time>
      </trkpt>
      <trkpt lat="44.87945" lon="6.61919">
        <ele>1183.4</ele>
        <time>2022-07-19T19:26:23Z</time>
      </trkpt>
      <trkpt lat="44.87948" lon="6.61922">
        <ele>1183.4</ele>
        <time>2022-07-19T19:26:24Z</time>
      </trkpt>
      <trkpt lat="44.87952" lon="6.61926">
        <ele>1183.4</ele>
        <time>2022-07-19T19:26:25Z</time>
      </trkpt>
      <trkpt lat="44.87956" lon="6.61929">
        <ele>1183.4</ele>
        <time>2022-07-19T19:26:26Z</time>
      </trkpt>
      <trkpt lat="44.87959" lon="6.61932">
        <ele>1183.6</ele>
        <time>2022-07-19T19:26:27Z</time>
      </trkpt>
      <trkpt lat="44.87962" lon="6.61935">
        <ele>1183.6</ele>
        <time>2022-07-19T19:26:28Z</time>
      </trkpt>
      <trkpt lat="44.87966" lon="6.61939">
        <ele>1183.6</ele>
        <time>2022-07-19T19:26:29Z</time>
      </trkpt>
      <trkpt lat="44.87969" lon="6.61942">
        <ele>1183.6</ele>
        <time>2022-07-19T19:26:30Z</time>
      </trkpt>
      <trkpt lat="44.87973" lon="6.61945">
        <ele>1183.6</ele>
        <time>2022-07-19T19:26:31Z</time>
      </trkpt>
      <trkpt lat="44.87976" lon="6.61948">
        <ele>1183.6</ele>
        <time>2022-07-19T19:26:32Z</time>
      </trkpt>
      <trkpt lat="44.87979" lon="6.61951">
        <ele>1183.6</ele>
        <time>2022-07-19T19:26:33Z</time>
      </trkpt>
      <trkpt lat="44.87983" lon="6.61955">
        <ele>1183.6</ele>
        <time>2022-07-19T19:26:34Z</time>
      </trkpt>
      <trkpt lat="44.87986" lon="6.61958">
        <ele>1183.6</ele>
        <time>2022-07-19T19:26:35Z</time>
      </trkpt>
      <trkpt lat="44.87989" lon="6.61961">
        <ele>1183.6</ele>
        <time>2022-07-19T19:26:36Z</time>
      </trkpt>
      <trkpt lat="44.87993" lon="6.61964">
        <ele>1183.6</ele>
        <time>2022-07-19T19:26:37Z</time>
      </trkpt>
      <trkpt lat="44.87996" lon="6.61968">
        <ele>1183.6</ele>
        <time>2022-07-19T19:26:38Z</time>
      </trkpt>
      <trkpt lat="44.88" lon="6.61971">
        <ele>1183.6</ele>
        <time>2022-07-19T19:26:39Z</time>
      </trkpt>
      <trkpt lat="44.88003" lon="6.61974">
        <ele>1184</ele>
        <time>2022-07-19T19:26:40Z</time>
      </trkpt>
      <trkpt lat="44.88007" lon="6.61977">
        <ele>1184</ele>
        <time>2022-07-19T19:26:41Z</time>
      </trkpt>
      <trkpt lat="44.8801" lon="6.61981">
        <ele>1184.2</ele>
        <time>2022-07-19T19:26:42Z</time>
      </trkpt>
      <trkpt lat="44.88014" lon="6.61984">
        <ele>1184.2</ele>
        <time>2022-07-19T19:26:43Z</time>
      </trkpt>
      <trkpt lat="44.88017" lon="6.61987">
        <ele>1184.2</ele>
        <time>2022-07-19T19:26:44Z</time>
      </trkpt>
      <trkpt lat="44.8802" lon="6.6199">
        <ele>1184.4</ele>
        <time>2022-07-19T19:26:45Z</time>
      </trkpt>
      <trkpt lat="44.88023" lon="6.61993">
        <ele>1184.4</ele>
        <time>2022-07-19T19:26:47Z</time>
      </trkpt>
      <trkpt lat="44.88027" lon="6.61997">
        <ele>1184.4</ele>
        <time>2022-07-19T19:26:48Z</time>
      </trkpt>
      <trkpt lat="44.8803" lon="6.62">
        <ele>1184.6</ele>
        <time>2022-07-19T19:26:49Z</time>
      </trkpt>
      <trkpt lat="44.88033" lon="6.62003">
        <ele>1184.6</ele>
        <time>2022-07-19T19:26:50Z</time>
      </trkpt>
      <trkpt lat="44.88036" lon="6.62006">
        <ele>1184.6</ele>
        <time>2022-07-19T19:26:51Z</time>
      </trkpt>
      <trkpt lat="44.8804" lon="6.62009">
        <ele>1184.6</ele>
        <time>2022-07-19T19:26:52Z</time>
      </trkpt>
      <trkpt lat="44.88043" lon="6.62012">
        <ele>1184.8</ele>
        <time>2022-07-19T19:26:53Z</time>
      </trkpt>
      <trkpt lat="44.88046" lon="6.62015">
        <ele>1184.8</ele>
        <time>2022-07-19T19:26:54Z</time>
      </trkpt>
      <trkpt lat="44.88049" lon="6.62018">
        <ele>1184.8</ele>
        <time>2022-07-19T19:26:55Z</time>
      </trkpt>
      <trkpt lat="44.88052" lon="6.62021">
        <ele>1184.8</ele>
        <time>2022-07-19T19:26:56Z</time>
      </trkpt>
      <trkpt lat="44.88055" lon="6.62024">
        <ele>1184.8</ele>
        <time>2022-07-19T19:26:57Z</time>
      </trkpt>
      <trkpt lat="44.88058" lon="6.62026">
        <ele>1185</ele>
        <time>2022-07-19T19:26:58Z</time>
      </trkpt>
      <trkpt lat="44.88062" lon="6.62029">
        <ele>1185</ele>
        <time>2022-07-19T19:26:59Z</time>
      </trkpt>
      <trkpt lat="44.88065" lon="6.62032">
        <ele>1185</ele>
        <time>2022-07-19T19:27:00Z</time>
      </trkpt>
      <trkpt lat="44.88068" lon="6.62035">
        <ele>1185.2</ele>
        <time>2022-07-19T19:27:01Z</time>
      </trkpt>
      <trkpt lat="44.88071" lon="6.62038">
        <ele>1185.2</ele>
        <time>2022-07-19T19:27:02Z</time>
      </trkpt>
      <trkpt lat="44.88074" lon="6.6204">
        <ele>1185.2</ele>
        <time>2022-07-19T19:27:03Z</time>
      </trkpt>
      <trkpt lat="44.88077" lon="6.62043">
        <ele>1185.2</ele>
        <time>2022-07-19T19:27:04Z</time>
      </trkpt>
      <trkpt lat="44.8808" lon="6.62045">
        <ele>1185.2</ele>
        <time>2022-07-19T19:27:05Z</time>
      </trkpt>
      <trkpt lat="44.88084" lon="6.62048">
        <ele>1185.6</ele>
        <time>2022-07-19T19:27:06Z</time>
      </trkpt>
      <trkpt lat="44.88087" lon="6.62051">
        <ele>1185.6</ele>
        <time>2022-07-19T19:27:07Z</time>
      </trkpt>
      <trkpt lat="44.8809" lon="6.62053">
        <ele>1185.6</ele>
        <time>2022-07-19T19:27:08Z</time>
      </trkpt>
      <trkpt lat="44.88096" lon="6.62059">
        <ele>1185.8</ele>
        <time>2022-07-19T19:27:09Z</time>
      </trkpt>
      <trkpt lat="44.88099" lon="6.62063">
        <ele>1185.8</ele>
        <time>2022-07-19T19:27:10Z</time>
      </trkpt>
      <trkpt lat="44.88102" lon="6.62066">
        <ele>1186</ele>
        <time>2022-07-19T19:27:11Z</time>
      </trkpt>
      <trkpt lat="44.88104" lon="6.6207">
        <ele>1186</ele>
        <time>2022-07-19T19:27:12Z</time>
      </trkpt>
      <trkpt lat="44.88106" lon="6.62074">
        <ele>1186.4</ele>
        <time>2022-07-19T19:27:13Z</time>
      </trkpt>
      <trkpt lat="44.88108" lon="6.62079">
        <ele>1186.4</ele>
        <time>2022-07-19T19:27:14Z</time>
      </trkpt>
      <trkpt lat="44.8811" lon="6.62083">
        <ele>1186.4</ele>
        <time>2022-07-19T19:27:15Z</time>
      </trkpt>
      <trkpt lat="44.88111" lon="6.62088">
        <ele>1186.4</ele>
        <time>2022-07-19T19:27:16Z</time>
      </trkpt>
      <trkpt lat="44.88113" lon="6.62093">
        <ele>1186.4</ele>
        <time>2022-07-19T19:27:17Z</time>
      </trkpt>
      <trkpt lat="44.88115" lon="6.62096">
        <ele>1186.4</ele>
        <time>2022-07-19T19:27:18Z</time>
      </trkpt>
      <trkpt lat="44.88117" lon="6.62099">
        <ele>1186.6</ele>
        <time>2022-07-19T19:27:19Z</time>
      </trkpt>
      <trkpt lat="44.8812" lon="6.62101">
        <ele>1186.6</ele>
        <time>2022-07-19T19:27:20Z</time>
      </trkpt>
      <trkpt lat="44.88124" lon="6.62102">
        <ele>1186.6</ele>
        <time>2022-07-19T19:27:21Z</time>
      </trkpt>
      <trkpt lat="44.88128" lon="6.62102">
        <ele>1186.6</ele>
        <time>2022-07-19T19:27:22Z</time>
      </trkpt>
      <trkpt lat="44.88132" lon="6.62102">
        <ele>1186.6</ele>
        <time>2022-07-19T19:27:23Z</time>
      </trkpt>
      <trkpt lat="44.88136" lon="6.62101">
        <ele>1186.6</ele>
        <time>2022-07-19T19:27:24Z</time>
      </trkpt>
      <trkpt lat="44.8814" lon="6.62101">
        <ele>1186.6</ele>
        <time>2022-07-19T19:27:25Z</time>
      </trkpt>
      <trkpt lat="44.88145" lon="6.62101">
        <ele>1186.6</ele>
        <time>2022-07-19T19:27:26Z</time>
      </trkpt>
      <trkpt lat="44.8815" lon="6.62102">
        <ele>1186.6</ele>
        <time>2022-07-19T19:27:27Z</time>
      </trkpt>
      <trkpt lat="44.88154" lon="6.62104">
        <ele>1186.6</ele>
        <time>2022-07-19T19:27:28Z</time>
      </trkpt>
      <trkpt lat="44.88158" lon="6.62107">
        <ele>1186.6</ele>
        <time>2022-07-19T19:27:29Z</time>
      </trkpt>
      <trkpt lat="44.88163" lon="6.62109">
        <ele>1186.6</ele>
        <time>2022-07-19T19:27:30Z</time>
      </trkpt>
      <trkpt lat="44.88168" lon="6.62111">
        <ele>1186.6</ele>
        <time>2022-07-19T19:27:31Z</time>
      </trkpt>
      <trkpt lat="44.88172" lon="6.62114">
        <ele>1186.6</ele>
        <time>2022-07-19T19:27:32Z</time>
      </trkpt>
      <trkpt lat="44.88176" lon="6.62116">
        <ele>1186.6</ele>
        <time>2022-07-19T19:27:33Z</time>
      </trkpt>
      <trkpt lat="44.8818" lon="6.62119">
        <ele>1186.6</ele>
        <time>2022-07-19T19:27:34Z</time>
      </trkpt>
      <trkpt lat="44.88185" lon="6.62121">
        <ele>1186.6</ele>
        <time>2022-07-19T19:27:35Z</time>
      </trkpt>
      <trkpt lat="44.88189" lon="6.62124">
        <ele>1186.6</ele>
        <time>2022-07-19T19:27:36Z</time>
      </trkpt>
      <trkpt lat="44.88193" lon="6.62126">
        <ele>1186.4</ele>
        <time>2022-07-19T19:27:37Z</time>
      </trkpt>
      <trkpt lat="44.88197" lon="6.62128">
        <ele>1186.4</ele>
        <time>2022-07-19T19:27:38Z</time>
      </trkpt>
      <trkpt lat="44.88201" lon="6.62131">
        <ele>1186.4</ele>
        <time>2022-07-19T19:27:39Z</time>
      </trkpt>
      <trkpt lat="44.88204" lon="6.62133">
        <ele>1186.4</ele>
        <time>2022-07-19T19:27:40Z</time>
      </trkpt>
      <trkpt lat="44.8821" lon="6.62137">
        <ele>1186.4</ele>
        <time>2022-07-19T19:27:41Z</time>
      </trkpt>
      <trkpt lat="44.88212" lon="6.62138">
        <ele>1186.4</ele>
        <time>2022-07-19T19:27:42Z</time>
      </trkpt>
      <trkpt lat="44.88216" lon="6.6214">
        <ele>1186.2</ele>
        <time>2022-07-19T19:27:43Z</time>
      </trkpt>
      <trkpt lat="44.8822" lon="6.62143">
        <ele>1186.2</ele>
        <time>2022-07-19T19:27:44Z</time>
      </trkpt>
      <trkpt lat="44.88224" lon="6.62145">
        <ele>1186.2</ele>
        <time>2022-07-19T19:27:45Z</time>
      </trkpt>
      <trkpt lat="44.88229" lon="6.62148">
        <ele>1186.2</ele>
        <time>2022-07-19T19:27:46Z</time>
      </trkpt>
      <trkpt lat="44.88233" lon="6.6215">
        <ele>1186.2</ele>
        <time>2022-07-19T19:27:47Z</time>
      </trkpt>
      <trkpt lat="44.88237" lon="6.62153">
        <ele>1186.2</ele>
        <time>2022-07-19T19:27:48Z</time>
      </trkpt>
      <trkpt lat="44.88242" lon="6.62156">
        <ele>1186.2</ele>
        <time>2022-07-19T19:27:49Z</time>
      </trkpt>
      <trkpt lat="44.88246" lon="6.62159">
        <ele>1186.2</ele>
        <time>2022-07-19T19:27:50Z</time>
      </trkpt>
      <trkpt lat="44.8825" lon="6.62162">
        <ele>1186.2</ele>
        <time>2022-07-19T19:27:51Z</time>
      </trkpt>
      <trkpt lat="44.88254" lon="6.62165">
        <ele>1186.2</ele>
        <time>2022-07-19T19:27:52Z</time>
      </trkpt>
      <trkpt lat="44.88258" lon="6.62168">
        <ele>1186</ele>
        <time>2022-07-19T19:27:53Z</time>
      </trkpt>
      <trkpt lat="44.88262" lon="6.62171">
        <ele>1186</ele>
        <time>2022-07-19T19:27:54Z</time>
      </trkpt>
      <trkpt lat="44.88266" lon="6.62173">
        <ele>1186</ele>
        <time>2022-07-19T19:27:55Z</time>
      </trkpt>
      <trkpt lat="44.8827" lon="6.62176">
        <ele>1186</ele>
        <time>2022-07-19T19:27:56Z</time>
      </trkpt>
      <trkpt lat="44.88274" lon="6.62179">
        <ele>1186</ele>
        <time>2022-07-19T19:27:57Z</time>
      </trkpt>
      <trkpt lat="44.88278" lon="6.62182">
        <ele>1186</ele>
        <time>2022-07-19T19:27:58Z</time>
      </trkpt>
      <trkpt lat="44.88282" lon="6.62185">
        <ele>1186</ele>
        <time>2022-07-19T19:27:59Z</time>
      </trkpt>
      <trkpt lat="44.88286" lon="6.62188">
        <ele>1186</ele>
        <time>2022-07-19T19:28:00Z</time>
      </trkpt>
      <trkpt lat="44.8829" lon="6.6219">
        <ele>1186</ele>
        <time>2022-07-19T19:28:01Z</time>
      </trkpt>
      <trkpt lat="44.88294" lon="6.62193">
        <ele>1186</ele>
        <time>2022-07-19T19:28:02Z</time>
      </trkpt>
      <trkpt lat="44.88298" lon="6.62196">
        <ele>1186</ele>
        <time>2022-07-19T19:28:03Z</time>
      </trkpt>
      <trkpt lat="44.88302" lon="6.62199">
        <ele>1186</ele>
        <time>2022-07-19T19:28:04Z</time>
      </trkpt>
      <trkpt lat="44.88305" lon="6.62202">
        <ele>1186</ele>
        <time>2022-07-19T19:28:05Z</time>
      </trkpt>
      <trkpt lat="44.88309" lon="6.62204">
        <ele>1186</ele>
        <time>2022-07-19T19:28:06Z</time>
      </trkpt>
      <trkpt lat="44.88313" lon="6.62207">
        <ele>1186</ele>
        <time>2022-07-19T19:28:07Z</time>
      </trkpt>
      <trkpt lat="44.88317" lon="6.6221">
        <ele>1186</ele>
        <time>2022-07-19T19:28:08Z</time>
      </trkpt>
      <trkpt lat="44.88321" lon="6.62212">
        <ele>1186</ele>
        <time>2022-07-19T19:28:09Z</time>
      </trkpt>
      <trkpt lat="44.88325" lon="6.62215">
        <ele>1186</ele>
        <time>2022-07-19T19:28:10Z</time>
      </trkpt>
      <trkpt lat="44.88329" lon="6.62218">
        <ele>1186</ele>
        <time>2022-07-19T19:28:11Z</time>
      </trkpt>
      <trkpt lat="44.88333" lon="6.62221">
        <ele>1186</ele>
        <time>2022-07-19T19:28:12Z</time>
      </trkpt>
      <trkpt lat="44.88337" lon="6.62224">
        <ele>1186.2</ele>
        <time>2022-07-19T19:28:13Z</time>
      </trkpt>
      <trkpt lat="44.88341" lon="6.62227">
        <ele>1186.2</ele>
        <time>2022-07-19T19:28:14Z</time>
      </trkpt>
      <trkpt lat="44.88345" lon="6.6223">
        <ele>1186.2</ele>
        <time>2022-07-19T19:28:15Z</time>
      </trkpt>
      <trkpt lat="44.88349" lon="6.62232">
        <ele>1186.2</ele>
        <time>2022-07-19T19:28:16Z</time>
      </trkpt>
      <trkpt lat="44.88353" lon="6.62235">
        <ele>1186.2</ele>
        <time>2022-07-19T19:28:17Z</time>
      </trkpt>
      <trkpt lat="44.88356" lon="6.62237">
        <ele>1186.4</ele>
        <time>2022-07-19T19:28:18Z</time>
      </trkpt>
      <trkpt lat="44.8836" lon="6.6224">
        <ele>1186.4</ele>
        <time>2022-07-19T19:28:19Z</time>
      </trkpt>
      <trkpt lat="44.88364" lon="6.62243">
        <ele>1186.4</ele>
        <time>2022-07-19T19:28:20Z</time>
      </trkpt>
      <trkpt lat="44.88368" lon="6.62246">
        <ele>1186.4</ele>
        <time>2022-07-19T19:28:21Z</time>
      </trkpt>
      <trkpt lat="44.88372" lon="6.62249">
        <ele>1186.8</ele>
        <time>2022-07-19T19:28:22Z</time>
      </trkpt>
      <trkpt lat="44.88376" lon="6.62252">
        <ele>1186.8</ele>
        <time>2022-07-19T19:28:23Z</time>
      </trkpt>
      <trkpt lat="44.8838" lon="6.62255">
        <ele>1187.2</ele>
        <time>2022-07-19T19:28:24Z</time>
      </trkpt>
      <trkpt lat="44.88383" lon="6.62258">
        <ele>1187.2</ele>
        <time>2022-07-19T19:28:25Z</time>
      </trkpt>
      <trkpt lat="44.88388" lon="6.62261">
        <ele>1187.2</ele>
        <time>2022-07-19T19:28:26Z</time>
      </trkpt>
      <trkpt lat="44.88392" lon="6.62263">
        <ele>1187.4</ele>
        <time>2022-07-19T19:28:27Z</time>
      </trkpt>
      <trkpt lat="44.88396" lon="6.62266">
        <ele>1187.4</ele>
        <time>2022-07-19T19:28:28Z</time>
      </trkpt>
      <trkpt lat="44.88399" lon="6.62269">
        <ele>1187.6</ele>
        <time>2022-07-19T19:28:29Z</time>
      </trkpt>
      <trkpt lat="44.88403" lon="6.62271">
        <ele>1187.6</ele>
        <time>2022-07-19T19:28:30Z</time>
      </trkpt>
      <trkpt lat="44.88407" lon="6.62274">
        <ele>1187.6</ele>
        <time>2022-07-19T19:28:31Z</time>
      </trkpt>
      <trkpt lat="44.88412" lon="6.62277">
        <ele>1187.6</ele>
        <time>2022-07-19T19:28:32Z</time>
      </trkpt>
      <trkpt lat="44.88416" lon="6.6228">
        <ele>1187.6</ele>
        <time>2022-07-19T19:28:33Z</time>
      </trkpt>
      <trkpt lat="44.8842" lon="6.62283">
        <ele>1188</ele>
        <time>2022-07-19T19:28:34Z</time>
      </trkpt>
      <trkpt lat="44.88424" lon="6.62286">
        <ele>1188</ele>
        <time>2022-07-19T19:28:35Z</time>
      </trkpt>
      <trkpt lat="44.88428" lon="6.62289">
        <ele>1188</ele>
        <time>2022-07-19T19:28:36Z</time>
      </trkpt>
      <trkpt lat="44.88432" lon="6.62292">
        <ele>1188</ele>
        <time>2022-07-19T19:28:37Z</time>
      </trkpt>
      <trkpt lat="44.88437" lon="6.62295">
        <ele>1188</ele>
        <time>2022-07-19T19:28:38Z</time>
      </trkpt>
      <trkpt lat="44.88441" lon="6.62298">
        <ele>1188</ele>
        <time>2022-07-19T19:28:39Z</time>
      </trkpt>
      <trkpt lat="44.88445" lon="6.62302">
        <ele>1188</ele>
        <time>2022-07-19T19:28:40Z</time>
      </trkpt>
      <trkpt lat="44.88449" lon="6.62305">
        <ele>1188</ele>
        <time>2022-07-19T19:28:41Z</time>
      </trkpt>
      <trkpt lat="44.88454" lon="6.62308">
        <ele>1188</ele>
        <time>2022-07-19T19:28:42Z</time>
      </trkpt>
      <trkpt lat="44.88458" lon="6.62311">
        <ele>1188.2</ele>
        <time>2022-07-19T19:28:43Z</time>
      </trkpt>
      <trkpt lat="44.88462" lon="6.62314">
        <ele>1188.2</ele>
        <time>2022-07-19T19:28:44Z</time>
      </trkpt>
      <trkpt lat="44.88466" lon="6.62318">
        <ele>1188.2</ele>
        <time>2022-07-19T19:28:45Z</time>
      </trkpt>
      <trkpt lat="44.88471" lon="6.62321">
        <ele>1188.4</ele>
        <time>2022-07-19T19:28:46Z</time>
      </trkpt>
      <trkpt lat="44.88475" lon="6.62324">
        <ele>1188.4</ele>
        <time>2022-07-19T19:28:47Z</time>
      </trkpt>
      <trkpt lat="44.88479" lon="6.62328">
        <ele>1188.4</ele>
        <time>2022-07-19T19:28:48Z</time>
      </trkpt>
      <trkpt lat="44.88483" lon="6.62331">
        <ele>1188.6</ele>
        <time>2022-07-19T19:28:49Z</time>
      </trkpt>
      <trkpt lat="44.88487" lon="6.62334">
        <ele>1188.6</ele>
        <time>2022-07-19T19:28:50Z</time>
      </trkpt>
      <trkpt lat="44.88491" lon="6.62337">
        <ele>1188.8</ele>
        <time>2022-07-19T19:28:51Z</time>
      </trkpt>
      <trkpt lat="44.88495" lon="6.62341">
        <ele>1188.8</ele>
        <time>2022-07-19T19:28:52Z</time>
      </trkpt>
      <trkpt lat="44.88499" lon="6.62344">
        <ele>1188.8</ele>
        <time>2022-07-19T19:28:53Z</time>
      </trkpt>
      <trkpt lat="44.88503" lon="6.62348">
        <ele>1188.8</ele>
        <time>2022-07-19T19:28:54Z</time>
      </trkpt>
      <trkpt lat="44.88507" lon="6.62351">
        <ele>1188.8</ele>
        <time>2022-07-19T19:28:55Z</time>
      </trkpt>
      <trkpt lat="44.88511" lon="6.62354">
        <ele>1188.8</ele>
        <time>2022-07-19T19:28:56Z</time>
      </trkpt>
      <trkpt lat="44.88515" lon="6.62357">
        <ele>1188.8</ele>
        <time>2022-07-19T19:28:57Z</time>
      </trkpt>
      <trkpt lat="44.88519" lon="6.62361">
        <ele>1188.8</ele>
        <time>2022-07-19T19:28:58Z</time>
      </trkpt>
      <trkpt lat="44.88523" lon="6.62364">
        <ele>1188.8</ele>
        <time>2022-07-19T19:28:59Z</time>
      </trkpt>
      <trkpt lat="44.88527" lon="6.62367">
        <ele>1189</ele>
        <time>2022-07-19T19:29:00Z</time>
      </trkpt>
      <trkpt lat="44.88531" lon="6.6237">
        <ele>1189</ele>
        <time>2022-07-19T19:29:01Z</time>
      </trkpt>
      <trkpt lat="44.88535" lon="6.62374">
        <ele>1189</ele>
        <time>2022-07-19T19:29:02Z</time>
      </trkpt>
      <trkpt lat="44.88539" lon="6.62377">
        <ele>1189.4</ele>
        <time>2022-07-19T19:29:03Z</time>
      </trkpt>
      <trkpt lat="44.88543" lon="6.62381">
        <ele>1189.4</ele>
        <time>2022-07-19T19:29:04Z</time>
      </trkpt>
      <trkpt lat="44.88547" lon="6.62384">
        <ele>1189.6</ele>
        <time>2022-07-19T19:29:05Z</time>
      </trkpt>
      <trkpt lat="44.8855" lon="6.62387">
        <ele>1189.6</ele>
        <time>2022-07-19T19:29:06Z</time>
      </trkpt>
      <trkpt lat="44.88554" lon="6.62391">
        <ele>1189.6</ele>
        <time>2022-07-19T19:29:07Z</time>
      </trkpt>
      <trkpt lat="44.88558" lon="6.62394">
        <ele>1189.6</ele>
        <time>2022-07-19T19:29:08Z</time>
      </trkpt>
      <trkpt lat="44.88561" lon="6.62397">
        <ele>1189.8</ele>
        <time>2022-07-19T19:29:09Z</time>
      </trkpt>
      <trkpt lat="44.88565" lon="6.624">
        <ele>1189.8</ele>
        <time>2022-07-19T19:29:10Z</time>
      </trkpt>
      <trkpt lat="44.88569" lon="6.62403">
        <ele>1189.8</ele>
        <time>2022-07-19T19:29:11Z</time>
      </trkpt>
      <trkpt lat="44.88573" lon="6.62406">
        <ele>1189.8</ele>
        <time>2022-07-19T19:29:12Z</time>
      </trkpt>
      <trkpt lat="44.88576" lon="6.62409">
        <ele>1189.8</ele>
        <time>2022-07-19T19:29:13Z</time>
      </trkpt>
      <trkpt lat="44.8858" lon="6.62412">
        <ele>1190.2</ele>
        <time>2022-07-19T19:29:14Z</time>
      </trkpt>
      <trkpt lat="44.88584" lon="6.62415">
        <ele>1190.2</ele>
        <time>2022-07-19T19:29:15Z</time>
      </trkpt>
      <trkpt lat="44.88587" lon="6.62418">
        <ele>1190.4</ele>
        <time>2022-07-19T19:29:16Z</time>
      </trkpt>
      <trkpt lat="44.88591" lon="6.62421">
        <ele>1190.4</ele>
        <time>2022-07-19T19:29:17Z</time>
      </trkpt>
      <trkpt lat="44.88595" lon="6.62424">
        <ele>1190.4</ele>
        <time>2022-07-19T19:29:18Z</time>
      </trkpt>
      <trkpt lat="44.88599" lon="6.62428">
        <ele>1190.6</ele>
        <time>2022-07-19T19:29:20Z</time>
      </trkpt>
      <trkpt lat="44.88603" lon="6.62431">
        <ele>1190.6</ele>
        <time>2022-07-19T19:29:21Z</time>
      </trkpt>
      <trkpt lat="44.88606" lon="6.62434">
        <ele>1190.6</ele>
        <time>2022-07-19T19:29:22Z</time>
      </trkpt>
      <trkpt lat="44.88609" lon="6.62437">
        <ele>1190.6</ele>
        <time>2022-07-19T19:29:23Z</time>
      </trkpt>
      <trkpt lat="44.88613" lon="6.6244">
        <ele>1190.6</ele>
        <time>2022-07-19T19:29:24Z</time>
      </trkpt>
      <trkpt lat="44.88617" lon="6.62443">
        <ele>1190.6</ele>
        <time>2022-07-19T19:29:25Z</time>
      </trkpt>
      <trkpt lat="44.88621" lon="6.62446">
        <ele>1190.8</ele>
        <time>2022-07-19T19:29:26Z</time>
      </trkpt>
      <trkpt lat="44.88625" lon="6.62449">
        <ele>1190.8</ele>
        <time>2022-07-19T19:29:27Z</time>
      </trkpt>
      <trkpt lat="44.88628" lon="6.62452">
        <ele>1190.8</ele>
        <time>2022-07-19T19:29:28Z</time>
      </trkpt>
      <trkpt lat="44.88632" lon="6.62455">
        <ele>1190.8</ele>
        <time>2022-07-19T19:29:29Z</time>
      </trkpt>
      <trkpt lat="44.88636" lon="6.62458">
        <ele>1190.8</ele>
        <time>2022-07-19T19:29:30Z</time>
      </trkpt>
      <trkpt lat="44.8864" lon="6.62462">
        <ele>1190.8</ele>
        <time>2022-07-19T19:29:31Z</time>
      </trkpt>
      <trkpt lat="44.88644" lon="6.62465">
        <ele>1191</ele>
        <time>2022-07-19T19:29:32Z</time>
      </trkpt>
      <trkpt lat="44.88648" lon="6.62468">
        <ele>1191</ele>
        <time>2022-07-19T19:29:33Z</time>
      </trkpt>
      <trkpt lat="44.88652" lon="6.62471">
        <ele>1191</ele>
        <time>2022-07-19T19:29:34Z</time>
      </trkpt>
      <trkpt lat="44.88656" lon="6.62474">
        <ele>1191</ele>
        <time>2022-07-19T19:29:35Z</time>
      </trkpt>
      <trkpt lat="44.8866" lon="6.62478">
        <ele>1191.4</ele>
        <time>2022-07-19T19:29:36Z</time>
      </trkpt>
      <trkpt lat="44.88664" lon="6.62481">
        <ele>1191.4</ele>
        <time>2022-07-19T19:29:37Z</time>
      </trkpt>
      <trkpt lat="44.88667" lon="6.62485">
        <ele>1191.4</ele>
        <time>2022-07-19T19:29:38Z</time>
      </trkpt>
      <trkpt lat="44.88671" lon="6.62488">
        <ele>1191.4</ele>
        <time>2022-07-19T19:29:39Z</time>
      </trkpt>
      <trkpt lat="44.88675" lon="6.62491">
        <ele>1191.4</ele>
        <time>2022-07-19T19:29:40Z</time>
      </trkpt>
      <trkpt lat="44.88679" lon="6.62495">
        <ele>1191.4</ele>
        <time>2022-07-19T19:29:41Z</time>
      </trkpt>
      <trkpt lat="44.88683" lon="6.62498">
        <ele>1191.8</ele>
        <time>2022-07-19T19:29:42Z</time>
      </trkpt>
      <trkpt lat="44.88686" lon="6.62501">
        <ele>1191.8</ele>
        <time>2022-07-19T19:29:43Z</time>
      </trkpt>
      <trkpt lat="44.8869" lon="6.62505">
        <ele>1192</ele>
        <time>2022-07-19T19:29:44Z</time>
      </trkpt>
      <trkpt lat="44.88693" lon="6.62508">
        <ele>1192</ele>
        <time>2022-07-19T19:29:45Z</time>
      </trkpt>
      <trkpt lat="44.88697" lon="6.62511">
        <ele>1192</ele>
        <time>2022-07-19T19:29:46Z</time>
      </trkpt>
      <trkpt lat="44.887" lon="6.62515">
        <ele>1192</ele>
        <time>2022-07-19T19:29:47Z</time>
      </trkpt>
      <trkpt lat="44.88704" lon="6.62518">
        <ele>1192.2</ele>
        <time>2022-07-19T19:29:48Z</time>
      </trkpt>
      <trkpt lat="44.88707" lon="6.62521">
        <ele>1192.2</ele>
        <time>2022-07-19T19:29:49Z</time>
      </trkpt>
      <trkpt lat="44.8871" lon="6.62525">
        <ele>1192.4</ele>
        <time>2022-07-19T19:29:50Z</time>
      </trkpt>
      <trkpt lat="44.88714" lon="6.62528">
        <ele>1192.4</ele>
        <time>2022-07-19T19:29:51Z</time>
      </trkpt>
      <trkpt lat="44.88717" lon="6.62532">
        <ele>1192.4</ele>
        <time>2022-07-19T19:29:52Z</time>
      </trkpt>
      <trkpt lat="44.88721" lon="6.62535">
        <ele>1192.4</ele>
        <time>2022-07-19T19:29:53Z</time>
      </trkpt>
      <trkpt lat="44.88724" lon="6.62538">
        <ele>1192.4</ele>
        <time>2022-07-19T19:29:54Z</time>
      </trkpt>
      <trkpt lat="44.88727" lon="6.62542">
        <ele>1192.6</ele>
        <time>2022-07-19T19:29:55Z</time>
      </trkpt>
      <trkpt lat="44.8873" lon="6.62545">
        <ele>1192.6</ele>
        <time>2022-07-19T19:29:56Z</time>
      </trkpt>
      <trkpt lat="44.88733" lon="6.62548">
        <ele>1192.8</ele>
        <time>2022-07-19T19:29:57Z</time>
      </trkpt>
      <trkpt lat="44.88737" lon="6.62552">
        <ele>1192.8</ele>
        <time>2022-07-19T19:29:58Z</time>
      </trkpt>
      <trkpt lat="44.88741" lon="6.62555">
        <ele>1192.8</ele>
        <time>2022-07-19T19:29:59Z</time>
      </trkpt>
      <trkpt lat="44.88744" lon="6.62558">
        <ele>1193</ele>
        <time>2022-07-19T19:30:00Z</time>
      </trkpt>
      <trkpt lat="44.88748" lon="6.62562">
        <ele>1193</ele>
        <time>2022-07-19T19:30:01Z</time>
      </trkpt>
      <trkpt lat="44.88751" lon="6.62565">
        <ele>1193</ele>
        <time>2022-07-19T19:30:02Z</time>
      </trkpt>
      <trkpt lat="44.88755" lon="6.62568">
        <ele>1193.4</ele>
        <time>2022-07-19T19:30:03Z</time>
      </trkpt>
      <trkpt lat="44.88759" lon="6.62571">
        <ele>1193.4</ele>
        <time>2022-07-19T19:30:04Z</time>
      </trkpt>
      <trkpt lat="44.88763" lon="6.62574">
        <ele>1193.4</ele>
        <time>2022-07-19T19:30:05Z</time>
      </trkpt>
      <trkpt lat="44.88767" lon="6.62577">
        <ele>1193.4</ele>
        <time>2022-07-19T19:30:06Z</time>
      </trkpt>
      <trkpt lat="44.88772" lon="6.6258">
        <ele>1193.4</ele>
        <time>2022-07-19T19:30:07Z</time>
      </trkpt>
      <trkpt lat="44.88776" lon="6.62582">
        <ele>1193.6</ele>
        <time>2022-07-19T19:30:08Z</time>
      </trkpt>
      <trkpt lat="44.8878" lon="6.62585">
        <ele>1193.6</ele>
        <time>2022-07-19T19:30:09Z</time>
      </trkpt>
      <trkpt lat="44.88784" lon="6.62587">
        <ele>1193.6</ele>
        <time>2022-07-19T19:30:10Z</time>
      </trkpt>
      <trkpt lat="44.88789" lon="6.6259">
        <ele>1193.8</ele>
        <time>2022-07-19T19:30:11Z</time>
      </trkpt>
      <trkpt lat="44.88793" lon="6.62593">
        <ele>1193.8</ele>
        <time>2022-07-19T19:30:12Z</time>
      </trkpt>
      <trkpt lat="44.88798" lon="6.62596">
        <ele>1193.8</ele>
        <time>2022-07-19T19:30:13Z</time>
      </trkpt>
      <trkpt lat="44.88802" lon="6.62599">
        <ele>1194</ele>
        <time>2022-07-19T19:30:14Z</time>
      </trkpt>
      <trkpt lat="44.88807" lon="6.62602">
        <ele>1194</ele>
        <time>2022-07-19T19:30:15Z</time>
      </trkpt>
      <trkpt lat="44.88812" lon="6.62605">
        <ele>1194</ele>
        <time>2022-07-19T19:30:16Z</time>
      </trkpt>
      <trkpt lat="44.88816" lon="6.62608">
        <ele>1194</ele>
        <time>2022-07-19T19:30:17Z</time>
      </trkpt>
      <trkpt lat="44.88821" lon="6.6261">
        <ele>1194</ele>
        <time>2022-07-19T19:30:18Z</time>
      </trkpt>
      <trkpt lat="44.88826" lon="6.62613">
        <ele>1194</ele>
        <time>2022-07-19T19:30:19Z</time>
      </trkpt>
      <trkpt lat="44.8883" lon="6.62616">
        <ele>1194</ele>
        <time>2022-07-19T19:30:20Z</time>
      </trkpt>
      <trkpt lat="44.88835" lon="6.62618">
        <ele>1194</ele>
        <time>2022-07-19T19:30:21Z</time>
      </trkpt>
      <trkpt lat="44.8884" lon="6.62621">
        <ele>1194</ele>
        <time>2022-07-19T19:30:22Z</time>
      </trkpt>
      <trkpt lat="44.88844" lon="6.62624">
        <ele>1194</ele>
        <time>2022-07-19T19:30:23Z</time>
      </trkpt>
      <trkpt lat="44.88849" lon="6.62626">
        <ele>1194</ele>
        <time>2022-07-19T19:30:24Z</time>
      </trkpt>
      <trkpt lat="44.88853" lon="6.62629">
        <ele>1194</ele>
        <time>2022-07-19T19:30:25Z</time>
      </trkpt>
      <trkpt lat="44.88858" lon="6.62631">
        <ele>1194</ele>
        <time>2022-07-19T19:30:26Z</time>
      </trkpt>
      <trkpt lat="44.88863" lon="6.62634">
        <ele>1194</ele>
        <time>2022-07-19T19:30:27Z</time>
      </trkpt>
      <trkpt lat="44.88868" lon="6.62636">
        <ele>1194</ele>
        <time>2022-07-19T19:30:28Z</time>
      </trkpt>
      <trkpt lat="44.88873" lon="6.62639">
        <ele>1194</ele>
        <time>2022-07-19T19:30:29Z</time>
      </trkpt>
      <trkpt lat="44.88877" lon="6.62641">
        <ele>1194.2</ele>
        <time>2022-07-19T19:30:30Z</time>
      </trkpt>
      <trkpt lat="44.88882" lon="6.62644">
        <ele>1194.2</ele>
        <time>2022-07-19T19:30:31Z</time>
      </trkpt>
      <trkpt lat="44.88886" lon="6.62647">
        <ele>1194.2</ele>
        <time>2022-07-19T19:30:32Z</time>
      </trkpt>
      <trkpt lat="44.8889" lon="6.6265">
        <ele>1194.2</ele>
        <time>2022-07-19T19:30:33Z</time>
      </trkpt>
      <trkpt lat="44.88894" lon="6.62653">
        <ele>1194.6</ele>
        <time>2022-07-19T19:30:34Z</time>
      </trkpt>
      <trkpt lat="44.88898" lon="6.62655">
        <ele>1194.6</ele>
        <time>2022-07-19T19:30:35Z</time>
      </trkpt>
      <trkpt lat="44.88903" lon="6.62658">
        <ele>1194.6</ele>
        <time>2022-07-19T19:30:36Z</time>
      </trkpt>
      <trkpt lat="44.88907" lon="6.6266">
        <ele>1194.6</ele>
        <time>2022-07-19T19:30:37Z</time>
      </trkpt>
      <trkpt lat="44.88912" lon="6.62663">
        <ele>1194.6</ele>
        <time>2022-07-19T19:30:38Z</time>
      </trkpt>
      <trkpt lat="44.88916" lon="6.62666">
        <ele>1194.6</ele>
        <time>2022-07-19T19:30:39Z</time>
      </trkpt>
      <trkpt lat="44.8892" lon="6.62669">
        <ele>1194.6</ele>
        <time>2022-07-19T19:30:40Z</time>
      </trkpt>
      <trkpt lat="44.88925" lon="6.62672">
        <ele>1194.6</ele>
        <time>2022-07-19T19:30:41Z</time>
      </trkpt>
      <trkpt lat="44.8893" lon="6.62675">
        <ele>1194.6</ele>
        <time>2022-07-19T19:30:42Z</time>
      </trkpt>
      <trkpt lat="44.88934" lon="6.62678">
        <ele>1194.6</ele>
        <time>2022-07-19T19:30:43Z</time>
      </trkpt>
      <trkpt lat="44.88939" lon="6.62681">
        <ele>1194.6</ele>
        <time>2022-07-19T19:30:44Z</time>
      </trkpt>
      <trkpt lat="44.88943" lon="6.62683">
        <ele>1194.8</ele>
        <time>2022-07-19T19:30:45Z</time>
      </trkpt>
      <trkpt lat="44.88947" lon="6.62686">
        <ele>1194.8</ele>
        <time>2022-07-19T19:30:46Z</time>
      </trkpt>
      <trkpt lat="44.88952" lon="6.62689">
        <ele>1194.8</ele>
        <time>2022-07-19T19:30:47Z</time>
      </trkpt>
      <trkpt lat="44.88956" lon="6.62692">
        <ele>1194.8</ele>
        <time>2022-07-19T19:30:48Z</time>
      </trkpt>
      <trkpt lat="44.8896" lon="6.62695">
        <ele>1194.8</ele>
        <time>2022-07-19T19:30:49Z</time>
      </trkpt>
      <trkpt lat="44.88964" lon="6.62698">
        <ele>1194.8</ele>
        <time>2022-07-19T19:30:50Z</time>
      </trkpt>
      <trkpt lat="44.88968" lon="6.62701">
        <ele>1194.8</ele>
        <time>2022-07-19T19:30:51Z</time>
      </trkpt>
      <trkpt lat="44.88972" lon="6.62704">
        <ele>1195</ele>
        <time>2022-07-19T19:30:52Z</time>
      </trkpt>
      <trkpt lat="44.88975" lon="6.62707">
        <ele>1195</ele>
        <time>2022-07-19T19:30:53Z</time>
      </trkpt>
      <trkpt lat="44.88979" lon="6.62711">
        <ele>1195</ele>
        <time>2022-07-19T19:30:54Z</time>
      </trkpt>
      <trkpt lat="44.88983" lon="6.62714">
        <ele>1195</ele>
        <time>2022-07-19T19:30:55Z</time>
      </trkpt>
      <trkpt lat="44.88986" lon="6.62718">
        <ele>1195</ele>
        <time>2022-07-19T19:30:56Z</time>
      </trkpt>
      <trkpt lat="44.88989" lon="6.62721">
        <ele>1195</ele>
        <time>2022-07-19T19:30:57Z</time>
      </trkpt>
      <trkpt lat="44.88993" lon="6.62724">
        <ele>1195.2</ele>
        <time>2022-07-19T19:30:58Z</time>
      </trkpt>
      <trkpt lat="44.88996" lon="6.62728">
        <ele>1195.2</ele>
        <time>2022-07-19T19:30:59Z</time>
      </trkpt>
      <trkpt lat="44.89" lon="6.62731">
        <ele>1195.2</ele>
        <time>2022-07-19T19:31:00Z</time>
      </trkpt>
      <trkpt lat="44.89003" lon="6.62735">
        <ele>1195.2</ele>
        <time>2022-07-19T19:31:01Z</time>
      </trkpt>
      <trkpt lat="44.89007" lon="6.62738">
        <ele>1195.2</ele>
        <time>2022-07-19T19:31:02Z</time>
      </trkpt>
      <trkpt lat="44.89011" lon="6.62742">
        <ele>1195.2</ele>
        <time>2022-07-19T19:31:03Z</time>
      </trkpt>
      <trkpt lat="44.89014" lon="6.62745">
        <ele>1195.6</ele>
        <time>2022-07-19T19:31:04Z</time>
      </trkpt>
      <trkpt lat="44.89018" lon="6.62748">
        <ele>1195.6</ele>
        <time>2022-07-19T19:31:05Z</time>
      </trkpt>
      <trkpt lat="44.89022" lon="6.62752">
        <ele>1195.6</ele>
        <time>2022-07-19T19:31:06Z</time>
      </trkpt>
      <trkpt lat="44.89025" lon="6.62755">
        <ele>1195.6</ele>
        <time>2022-07-19T19:31:07Z</time>
      </trkpt>
      <trkpt lat="44.89029" lon="6.62759">
        <ele>1195.6</ele>
        <time>2022-07-19T19:31:08Z</time>
      </trkpt>
      <trkpt lat="44.89033" lon="6.62763">
        <ele>1195.8</ele>
        <time>2022-07-19T19:31:09Z</time>
      </trkpt>
      <trkpt lat="44.89037" lon="6.62767">
        <ele>1195.8</ele>
        <time>2022-07-19T19:31:10Z</time>
      </trkpt>
      <trkpt lat="44.89041" lon="6.62771">
        <ele>1195.8</ele>
        <time>2022-07-19T19:31:11Z</time>
      </trkpt>
      <trkpt lat="44.89044" lon="6.62774">
        <ele>1195.8</ele>
        <time>2022-07-19T19:31:12Z</time>
      </trkpt>
      <trkpt lat="44.89048" lon="6.62778">
        <ele>1195.8</ele>
        <time>2022-07-19T19:31:13Z</time>
      </trkpt>
      <trkpt lat="44.89053" lon="6.62782">
        <ele>1195.8</ele>
        <time>2022-07-19T19:31:14Z</time>
      </trkpt>
      <trkpt lat="44.89057" lon="6.62785">
        <ele>1195.8</ele>
        <time>2022-07-19T19:31:15Z</time>
      </trkpt>
      <trkpt lat="44.89061" lon="6.62789">
        <ele>1196</ele>
        <time>2022-07-19T19:31:16Z</time>
      </trkpt>
      <trkpt lat="44.89065" lon="6.62793">
        <ele>1196</ele>
        <time>2022-07-19T19:31:17Z</time>
      </trkpt>
      <trkpt lat="44.89069" lon="6.62796">
        <ele>1196</ele>
        <time>2022-07-19T19:31:18Z</time>
      </trkpt>
      <trkpt lat="44.89072" lon="6.628">
        <ele>1196</ele>
        <time>2022-07-19T19:31:19Z</time>
      </trkpt>
      <trkpt lat="44.89076" lon="6.62804">
        <ele>1196.2</ele>
        <time>2022-07-19T19:31:20Z</time>
      </trkpt>
      <trkpt lat="44.8908" lon="6.62808">
        <ele>1196.2</ele>
        <time>2022-07-19T19:31:21Z</time>
      </trkpt>
      <trkpt lat="44.89084" lon="6.62812">
        <ele>1196.2</ele>
        <time>2022-07-19T19:31:22Z</time>
      </trkpt>
      <trkpt lat="44.89087" lon="6.62815">
        <ele>1196.2</ele>
        <time>2022-07-19T19:31:23Z</time>
      </trkpt>
      <trkpt lat="44.89091" lon="6.62819">
        <ele>1196.2</ele>
        <time>2022-07-19T19:31:24Z</time>
      </trkpt>
      <trkpt lat="44.89094" lon="6.62823">
        <ele>1196.2</ele>
        <time>2022-07-19T19:31:25Z</time>
      </trkpt>
      <trkpt lat="44.89097" lon="6.62827">
        <ele>1196.2</ele>
        <time>2022-07-19T19:31:26Z</time>
      </trkpt>
      <trkpt lat="44.89101" lon="6.62831">
        <ele>1196.4</ele>
        <time>2022-07-19T19:31:27Z</time>
      </trkpt>
      <trkpt lat="44.89104" lon="6.62835">
        <ele>1196.4</ele>
        <time>2022-07-19T19:31:28Z</time>
      </trkpt>
      <trkpt lat="44.89108" lon="6.62839">
        <ele>1196.4</ele>
        <time>2022-07-19T19:31:29Z</time>
      </trkpt>
      <trkpt lat="44.89111" lon="6.62842">
        <ele>1196.4</ele>
        <time>2022-07-19T19:31:30Z</time>
      </trkpt>
      <trkpt lat="44.89115" lon="6.62846">
        <ele>1196.4</ele>
        <time>2022-07-19T19:31:31Z</time>
      </trkpt>
      <trkpt lat="44.89119" lon="6.6285">
        <ele>1196.4</ele>
        <time>2022-07-19T19:31:32Z</time>
      </trkpt>
      <trkpt lat="44.89123" lon="6.62854">
        <ele>1196.4</ele>
        <time>2022-07-19T19:31:33Z</time>
      </trkpt>
      <trkpt lat="44.89127" lon="6.62858">
        <ele>1196.6</ele>
        <time>2022-07-19T19:31:34Z</time>
      </trkpt>
      <trkpt lat="44.89131" lon="6.62861">
        <ele>1196.6</ele>
        <time>2022-07-19T19:31:35Z</time>
      </trkpt>
      <trkpt lat="44.89135" lon="6.62865">
        <ele>1196.6</ele>
        <time>2022-07-19T19:31:36Z</time>
      </trkpt>
      <trkpt lat="44.89139" lon="6.62868">
        <ele>1196.6</ele>
        <time>2022-07-19T19:31:37Z</time>
      </trkpt>
      <trkpt lat="44.89144" lon="6.62872">
        <ele>1196.6</ele>
        <time>2022-07-19T19:31:38Z</time>
      </trkpt>
      <trkpt lat="44.89148" lon="6.62875">
        <ele>1196.6</ele>
        <time>2022-07-19T19:31:39Z</time>
      </trkpt>
      <trkpt lat="44.89152" lon="6.62879">
        <ele>1196.6</ele>
        <time>2022-07-19T19:31:40Z</time>
      </trkpt>
      <trkpt lat="44.89156" lon="6.62883">
        <ele>1196.6</ele>
        <time>2022-07-19T19:31:41Z</time>
      </trkpt>
      <trkpt lat="44.89161" lon="6.62887">
        <ele>1196.6</ele>
        <time>2022-07-19T19:31:42Z</time>
      </trkpt>
      <trkpt lat="44.89165" lon="6.62891">
        <ele>1196.6</ele>
        <time>2022-07-19T19:31:43Z</time>
      </trkpt>
      <trkpt lat="44.8917" lon="6.62894">
        <ele>1197</ele>
        <time>2022-07-19T19:31:44Z</time>
      </trkpt>
      <trkpt lat="44.89174" lon="6.62898">
        <ele>1197</ele>
        <time>2022-07-19T19:31:45Z</time>
      </trkpt>
      <trkpt lat="44.89178" lon="6.62901">
        <ele>1197</ele>
        <time>2022-07-19T19:31:46Z</time>
      </trkpt>
      <trkpt lat="44.89183" lon="6.62905">
        <ele>1197</ele>
        <time>2022-07-19T19:31:47Z</time>
      </trkpt>
      <trkpt lat="44.89187" lon="6.62909">
        <ele>1197</ele>
        <time>2022-07-19T19:31:48Z</time>
      </trkpt>
      <trkpt lat="44.89191" lon="6.62912">
        <ele>1197</ele>
        <time>2022-07-19T19:31:49Z</time>
      </trkpt>
      <trkpt lat="44.89195" lon="6.62914">
        <ele>1197</ele>
        <time>2022-07-19T19:31:50Z</time>
      </trkpt>
      <trkpt lat="44.892" lon="6.62917">
        <ele>1197</ele>
        <time>2022-07-19T19:31:51Z</time>
      </trkpt>
      <trkpt lat="44.89204" lon="6.62919">
        <ele>1197</ele>
        <time>2022-07-19T19:31:52Z</time>
      </trkpt>
      <trkpt lat="44.89208" lon="6.62921">
        <ele>1197.2</ele>
        <time>2022-07-19T19:31:53Z</time>
      </trkpt>
      <trkpt lat="44.89213" lon="6.62924">
        <ele>1197.2</ele>
        <time>2022-07-19T19:31:54Z</time>
      </trkpt>
      <trkpt lat="44.89218" lon="6.62926">
        <ele>1197.2</ele>
        <time>2022-07-19T19:31:55Z</time>
      </trkpt>
      <trkpt lat="44.89222" lon="6.62928">
        <ele>1197.2</ele>
        <time>2022-07-19T19:31:56Z</time>
      </trkpt>
      <trkpt lat="44.89227" lon="6.6293">
        <ele>1197.2</ele>
        <time>2022-07-19T19:31:57Z</time>
      </trkpt>
      <trkpt lat="44.89231" lon="6.62932">
        <ele>1197.4</ele>
        <time>2022-07-19T19:31:58Z</time>
      </trkpt>
      <trkpt lat="44.89236" lon="6.62933">
        <ele>1197.4</ele>
        <time>2022-07-19T19:31:59Z</time>
      </trkpt>
      <trkpt lat="44.89241" lon="6.62935">
        <ele>1197.4</ele>
        <time>2022-07-19T19:32:00Z</time>
      </trkpt>
      <trkpt lat="44.89245" lon="6.62937">
        <ele>1197.4</ele>
        <time>2022-07-19T19:32:01Z</time>
      </trkpt>
      <trkpt lat="44.89249" lon="6.62938">
        <ele>1197.4</ele>
        <time>2022-07-19T19:32:02Z</time>
      </trkpt>
      <trkpt lat="44.89253" lon="6.6294">
        <ele>1197.4</ele>
        <time>2022-07-19T19:32:03Z</time>
      </trkpt>
      <trkpt lat="44.89257" lon="6.62942">
        <ele>1197.4</ele>
        <time>2022-07-19T19:32:04Z</time>
      </trkpt>
      <trkpt lat="44.89261" lon="6.62943">
        <ele>1197.4</ele>
        <time>2022-07-19T19:32:05Z</time>
      </trkpt>
      <trkpt lat="44.89265" lon="6.62945">
        <ele>1197.4</ele>
        <time>2022-07-19T19:32:06Z</time>
      </trkpt>
      <trkpt lat="44.89268" lon="6.62946">
        <ele>1197.4</ele>
        <time>2022-07-19T19:32:07Z</time>
      </trkpt>
      <trkpt lat="44.89272" lon="6.62948">
        <ele>1197.4</ele>
        <time>2022-07-19T19:32:08Z</time>
      </trkpt>
      <trkpt lat="44.89275" lon="6.62949">
        <ele>1197.4</ele>
        <time>2022-07-19T19:32:09Z</time>
      </trkpt>
      <trkpt lat="44.89279" lon="6.6295">
        <ele>1197.4</ele>
        <time>2022-07-19T19:32:10Z</time>
      </trkpt>
      <trkpt lat="44.89283" lon="6.62952">
        <ele>1197.4</ele>
        <time>2022-07-19T19:32:11Z</time>
      </trkpt>
      <trkpt lat="44.89287" lon="6.62953">
        <ele>1197.4</ele>
        <time>2022-07-19T19:32:12Z</time>
      </trkpt>
      <trkpt lat="44.89291" lon="6.62954">
        <ele>1197.6</ele>
        <time>2022-07-19T19:32:13Z</time>
      </trkpt>
      <trkpt lat="44.89295" lon="6.62956">
        <ele>1197.6</ele>
        <time>2022-07-19T19:32:14Z</time>
      </trkpt>
      <trkpt lat="44.89299" lon="6.62957">
        <ele>1197.6</ele>
        <time>2022-07-19T19:32:15Z</time>
      </trkpt>
      <trkpt lat="44.89303" lon="6.62958">
        <ele>1197.8</ele>
        <time>2022-07-19T19:32:16Z</time>
      </trkpt>
      <trkpt lat="44.89308" lon="6.6296">
        <ele>1197.8</ele>
        <time>2022-07-19T19:32:17Z</time>
      </trkpt>
      <trkpt lat="44.89312" lon="6.62961">
        <ele>1197.8</ele>
        <time>2022-07-19T19:32:18Z</time>
      </trkpt>
      <trkpt lat="44.89316" lon="6.62963">
        <ele>1197.8</ele>
        <time>2022-07-19T19:32:19Z</time>
      </trkpt>
      <trkpt lat="44.8932" lon="6.62965">
        <ele>1197.8</ele>
        <time>2022-07-19T19:32:20Z</time>
      </trkpt>
      <trkpt lat="44.89324" lon="6.62966">
        <ele>1198</ele>
        <time>2022-07-19T19:32:21Z</time>
      </trkpt>
      <trkpt lat="44.89328" lon="6.62968">
        <ele>1198</ele>
        <time>2022-07-19T19:32:22Z</time>
      </trkpt>
      <trkpt lat="44.89332" lon="6.62969">
        <ele>1198.2</ele>
        <time>2022-07-19T19:32:23Z</time>
      </trkpt>
      <trkpt lat="44.89337" lon="6.62971">
        <ele>1198.2</ele>
        <time>2022-07-19T19:32:24Z</time>
      </trkpt>
      <trkpt lat="44.89341" lon="6.62972">
        <ele>1198.2</ele>
        <time>2022-07-19T19:32:25Z</time>
      </trkpt>
      <trkpt lat="44.89346" lon="6.62974">
        <ele>1198.2</ele>
        <time>2022-07-19T19:32:26Z</time>
      </trkpt>
      <trkpt lat="44.8935" lon="6.62976">
        <ele>1198.4</ele>
        <time>2022-07-19T19:32:27Z</time>
      </trkpt>
      <trkpt lat="44.89355" lon="6.62978">
        <ele>1198.4</ele>
        <time>2022-07-19T19:32:28Z</time>
      </trkpt>
      <trkpt lat="44.89359" lon="6.62979">
        <ele>1198.4</ele>
        <time>2022-07-19T19:32:29Z</time>
      </trkpt>
      <trkpt lat="44.89363" lon="6.62981">
        <ele>1198.8</ele>
        <time>2022-07-19T19:32:30Z</time>
      </trkpt>
      <trkpt lat="44.89367" lon="6.62983">
        <ele>1198.8</ele>
        <time>2022-07-19T19:32:31Z</time>
      </trkpt>
      <trkpt lat="44.89371" lon="6.62985">
        <ele>1199</ele>
        <time>2022-07-19T19:32:32Z</time>
      </trkpt>
      <trkpt lat="44.89375" lon="6.62986">
        <ele>1199</ele>
        <time>2022-07-19T19:32:33Z</time>
      </trkpt>
      <trkpt lat="44.89378" lon="6.62987">
        <ele>1199.2</ele>
        <time>2022-07-19T19:32:34Z</time>
      </trkpt>
      <trkpt lat="44.89382" lon="6.62989">
        <ele>1199.2</ele>
        <time>2022-07-19T19:32:35Z</time>
      </trkpt>
      <trkpt lat="44.89385" lon="6.6299">
        <ele>1199.2</ele>
        <time>2022-07-19T19:32:36Z</time>
      </trkpt>
      <trkpt lat="44.89389" lon="6.62992">
        <ele>1199.2</ele>
        <time>2022-07-19T19:32:37Z</time>
      </trkpt>
      <trkpt lat="44.89392" lon="6.62993">
        <ele>1199.4</ele>
        <time>2022-07-19T19:32:38Z</time>
      </trkpt>
      <trkpt lat="44.89396" lon="6.62995">
        <ele>1199.4</ele>
        <time>2022-07-19T19:32:39Z</time>
      </trkpt>
      <trkpt lat="44.894" lon="6.62996">
        <ele>1199.4</ele>
        <time>2022-07-19T19:32:40Z</time>
      </trkpt>
      <trkpt lat="44.89403" lon="6.62997">
        <ele>1199.6</ele>
        <time>2022-07-19T19:32:41Z</time>
      </trkpt>
      <trkpt lat="44.89407" lon="6.62999">
        <ele>1199.6</ele>
        <time>2022-07-19T19:32:42Z</time>
      </trkpt>
      <trkpt lat="44.89411" lon="6.63">
        <ele>1199.8</ele>
        <time>2022-07-19T19:32:43Z</time>
      </trkpt>
      <trkpt lat="44.89415" lon="6.63001">
        <ele>1199.8</ele>
        <time>2022-07-19T19:32:44Z</time>
      </trkpt>
      <trkpt lat="44.89419" lon="6.63002">
        <ele>1199.8</ele>
        <time>2022-07-19T19:32:45Z</time>
      </trkpt>
      <trkpt lat="44.89422" lon="6.63003">
        <ele>1200.2</ele>
        <time>2022-07-19T19:32:46Z</time>
      </trkpt>
      <trkpt lat="44.89426" lon="6.63004">
        <ele>1200.2</ele>
        <time>2022-07-19T19:32:47Z</time>
      </trkpt>
      <trkpt lat="44.8943" lon="6.63005">
        <ele>1200.2</ele>
        <time>2022-07-19T19:32:48Z</time>
      </trkpt>
      <trkpt lat="44.89433" lon="6.63006">
        <ele>1200.2</ele>
        <time>2022-07-19T19:32:49Z</time>
      </trkpt>
      <trkpt lat="44.89437" lon="6.63007">
        <ele>1200.2</ele>
        <time>2022-07-19T19:32:50Z</time>
      </trkpt>
      <trkpt lat="44.89441" lon="6.63008">
        <ele>1200.4</ele>
        <time>2022-07-19T19:32:51Z</time>
      </trkpt>
      <trkpt lat="44.89445" lon="6.63009">
        <ele>1200.4</ele>
        <time>2022-07-19T19:32:52Z</time>
      </trkpt>
      <trkpt lat="44.89448" lon="6.6301">
        <ele>1200.4</ele>
        <time>2022-07-19T19:32:53Z</time>
      </trkpt>
      <trkpt lat="44.89451" lon="6.63012">
        <ele>1200.6</ele>
        <time>2022-07-19T19:32:54Z</time>
      </trkpt>
      <trkpt lat="44.89455" lon="6.63013">
        <ele>1200.6</ele>
        <time>2022-07-19T19:32:55Z</time>
      </trkpt>
      <trkpt lat="44.89458" lon="6.63015">
        <ele>1200.6</ele>
        <time>2022-07-19T19:32:56Z</time>
      </trkpt>
      <trkpt lat="44.89461" lon="6.63016">
        <ele>1201</ele>
        <time>2022-07-19T19:32:57Z</time>
      </trkpt>
      <trkpt lat="44.89464" lon="6.63017">
        <ele>1201</ele>
        <time>2022-07-19T19:32:58Z</time>
      </trkpt>
      <trkpt lat="44.89468" lon="6.63018">
        <ele>1201</ele>
        <time>2022-07-19T19:32:59Z</time>
      </trkpt>
      <trkpt lat="44.89471" lon="6.63019">
        <ele>1201.2</ele>
        <time>2022-07-19T19:33:00Z</time>
      </trkpt>
      <trkpt lat="44.89474" lon="6.6302">
        <ele>1201.2</ele>
        <time>2022-07-19T19:33:01Z</time>
      </trkpt>
      <trkpt lat="44.89477" lon="6.63022">
        <ele>1201.2</ele>
        <time>2022-07-19T19:33:02Z</time>
      </trkpt>
      <trkpt lat="44.8948" lon="6.63024">
        <ele>1201.4</ele>
        <time>2022-07-19T19:33:03Z</time>
      </trkpt>
      <trkpt lat="44.89483" lon="6.63026">
        <ele>1201.4</ele>
        <time>2022-07-19T19:33:04Z</time>
      </trkpt>
      <trkpt lat="44.89486" lon="6.63029">
        <ele>1201.4</ele>
        <time>2022-07-19T19:33:05Z</time>
      </trkpt>
      <trkpt lat="44.89488" lon="6.63031">
        <ele>1201.8</ele>
        <time>2022-07-19T19:33:06Z</time>
      </trkpt>
      <trkpt lat="44.89491" lon="6.63034">
        <ele>1201.8</ele>
        <time>2022-07-19T19:33:07Z</time>
      </trkpt>
      <trkpt lat="44.89494" lon="6.63037">
        <ele>1201.8</ele>
        <time>2022-07-19T19:33:08Z</time>
      </trkpt>
      <trkpt lat="44.89496" lon="6.63039">
        <ele>1201.8</ele>
        <time>2022-07-19T19:33:09Z</time>
      </trkpt>
      <trkpt lat="44.89498" lon="6.63042">
        <ele>1202</ele>
        <time>2022-07-19T19:33:10Z</time>
      </trkpt>
      <trkpt lat="44.89501" lon="6.63046">
        <ele>1202</ele>
        <time>2022-07-19T19:33:11Z</time>
      </trkpt>
      <trkpt lat="44.89503" lon="6.6305">
        <ele>1202</ele>
        <time>2022-07-19T19:33:12Z</time>
      </trkpt>
      <trkpt lat="44.89505" lon="6.63054">
        <ele>1202.2</ele>
        <time>2022-07-19T19:33:13Z</time>
      </trkpt>
      <trkpt lat="44.89506" lon="6.63059">
        <ele>1202.2</ele>
        <time>2022-07-19T19:33:14Z</time>
      </trkpt>
      <trkpt lat="44.89508" lon="6.63063">
        <ele>1202.2</ele>
        <time>2022-07-19T19:33:15Z</time>
      </trkpt>
      <trkpt lat="44.8951" lon="6.63067">
        <ele>1202.2</ele>
        <time>2022-07-19T19:33:16Z</time>
      </trkpt>
      <trkpt lat="44.89511" lon="6.63072">
        <ele>1202.2</ele>
        <time>2022-07-19T19:33:17Z</time>
      </trkpt>
      <trkpt lat="44.89513" lon="6.63076">
        <ele>1202.2</ele>
        <time>2022-07-19T19:33:18Z</time>
      </trkpt>
      <trkpt lat="44.89514" lon="6.6308">
        <ele>1202.2</ele>
        <time>2022-07-19T19:33:19Z</time>
      </trkpt>
      <trkpt lat="44.89516" lon="6.63085">
        <ele>1202.2</ele>
        <time>2022-07-19T19:33:20Z</time>
      </trkpt>
      <trkpt lat="44.89517" lon="6.63089">
        <ele>1202.2</ele>
        <time>2022-07-19T19:33:21Z</time>
      </trkpt>
      <trkpt lat="44.89519" lon="6.63093">
        <ele>1202.2</ele>
        <time>2022-07-19T19:33:22Z</time>
      </trkpt>
      <trkpt lat="44.89521" lon="6.63098">
        <ele>1202.4</ele>
        <time>2022-07-19T19:33:23Z</time>
      </trkpt>
      <trkpt lat="44.89523" lon="6.63103">
        <ele>1202.4</ele>
        <time>2022-07-19T19:33:24Z</time>
      </trkpt>
      <trkpt lat="44.89525" lon="6.63109">
        <ele>1202.4</ele>
        <time>2022-07-19T19:33:25Z</time>
      </trkpt>
      <trkpt lat="44.89527" lon="6.63114">
        <ele>1202.4</ele>
        <time>2022-07-19T19:33:26Z</time>
      </trkpt>
      <trkpt lat="44.89528" lon="6.63118">
        <ele>1202.4</ele>
        <time>2022-07-19T19:33:27Z</time>
      </trkpt>
      <trkpt lat="44.8953" lon="6.63123">
        <ele>1202.4</ele>
        <time>2022-07-19T19:33:28Z</time>
      </trkpt>
      <trkpt lat="44.89532" lon="6.63127">
        <ele>1202.4</ele>
        <time>2022-07-19T19:33:29Z</time>
      </trkpt>
      <trkpt lat="44.89534" lon="6.63132">
        <ele>1202.4</ele>
        <time>2022-07-19T19:33:30Z</time>
      </trkpt>
      <trkpt lat="44.89535" lon="6.63136">
        <ele>1202.8</ele>
        <time>2022-07-19T19:33:31Z</time>
      </trkpt>
      <trkpt lat="44.89537" lon="6.6314">
        <ele>1202.8</ele>
        <time>2022-07-19T19:33:32Z</time>
      </trkpt>
      <trkpt lat="44.89539" lon="6.63145">
        <ele>1202.8</ele>
        <time>2022-07-19T19:33:33Z</time>
      </trkpt>
      <trkpt lat="44.89541" lon="6.63149">
        <ele>1202.8</ele>
        <time>2022-07-19T19:33:34Z</time>
      </trkpt>
      <trkpt lat="44.89542" lon="6.63154">
        <ele>1202.8</ele>
        <time>2022-07-19T19:33:35Z</time>
      </trkpt>
      <trkpt lat="44.89544" lon="6.63158">
        <ele>1202.8</ele>
        <time>2022-07-19T19:33:36Z</time>
      </trkpt>
      <trkpt lat="44.89546" lon="6.63163">
        <ele>1202.8</ele>
        <time>2022-07-19T19:33:37Z</time>
      </trkpt>
      <trkpt lat="44.89548" lon="6.63168">
        <ele>1202.8</ele>
        <time>2022-07-19T19:33:38Z</time>
      </trkpt>
      <trkpt lat="44.8955" lon="6.63173">
        <ele>1202.8</ele>
        <time>2022-07-19T19:33:39Z</time>
      </trkpt>
      <trkpt lat="44.89552" lon="6.63178">
        <ele>1202.8</ele>
        <time>2022-07-19T19:33:40Z</time>
      </trkpt>
      <trkpt lat="44.89554" lon="6.63182">
        <ele>1202.8</ele>
        <time>2022-07-19T19:33:41Z</time>
      </trkpt>
      <trkpt lat="44.89555" lon="6.63187">
        <ele>1202.8</ele>
        <time>2022-07-19T19:33:42Z</time>
      </trkpt>
      <trkpt lat="44.89557" lon="6.63191">
        <ele>1202.8</ele>
        <time>2022-07-19T19:33:43Z</time>
      </trkpt>
      <trkpt lat="44.89558" lon="6.63195">
        <ele>1202.8</ele>
        <time>2022-07-19T19:33:44Z</time>
      </trkpt>
      <trkpt lat="44.8956" lon="6.63199">
        <ele>1202.8</ele>
        <time>2022-07-19T19:33:45Z</time>
      </trkpt>
      <trkpt lat="44.89561" lon="6.63202">
        <ele>1202.8</ele>
        <time>2022-07-19T19:33:46Z</time>
      </trkpt>
      <trkpt lat="44.89562" lon="6.63206">
        <ele>1202.8</ele>
        <time>2022-07-19T19:33:47Z</time>
      </trkpt>
      <trkpt lat="44.89563" lon="6.6321">
        <ele>1202.8</ele>
        <time>2022-07-19T19:33:48Z</time>
      </trkpt>
      <trkpt lat="44.89564" lon="6.63214">
        <ele>1203</ele>
        <time>2022-07-19T19:33:49Z</time>
      </trkpt>
      <trkpt lat="44.89565" lon="6.63218">
        <ele>1203</ele>
        <time>2022-07-19T19:33:50Z</time>
      </trkpt>
      <trkpt lat="44.89566" lon="6.63221">
        <ele>1203.2</ele>
        <time>2022-07-19T19:33:51Z</time>
      </trkpt>
      <trkpt lat="44.89567" lon="6.63225">
        <ele>1203.2</ele>
        <time>2022-07-19T19:33:52Z</time>
      </trkpt>
      <trkpt lat="44.89569" lon="6.6323">
        <ele>1203.2</ele>
        <time>2022-07-19T19:33:53Z</time>
      </trkpt>
      <trkpt lat="44.89571" lon="6.63234">
        <ele>1203.2</ele>
        <time>2022-07-19T19:33:54Z</time>
      </trkpt>
      <trkpt lat="44.89573" lon="6.63238">
        <ele>1203.2</ele>
        <time>2022-07-19T19:33:55Z</time>
      </trkpt>
      <trkpt lat="44.89575" lon="6.63242">
        <ele>1203.2</ele>
        <time>2022-07-19T19:33:56Z</time>
      </trkpt>
      <trkpt lat="44.89577" lon="6.63245">
        <ele>1203.2</ele>
        <time>2022-07-19T19:33:57Z</time>
      </trkpt>
      <trkpt lat="44.89578" lon="6.63248">
        <ele>1203.2</ele>
        <time>2022-07-19T19:33:58Z</time>
      </trkpt>
      <trkpt lat="44.89579" lon="6.63251">
        <ele>1203.2</ele>
        <time>2022-07-19T19:33:59Z</time>
      </trkpt>
      <trkpt lat="44.8958" lon="6.63255">
        <ele>1203.2</ele>
        <time>2022-07-19T19:34:00Z</time>
      </trkpt>
      <trkpt lat="44.8958" lon="6.63259">
        <ele>1203.2</ele>
        <time>2022-07-19T19:34:01Z</time>
      </trkpt>
      <trkpt lat="44.89579" lon="6.63264">
        <ele>1203.2</ele>
        <time>2022-07-19T19:34:02Z</time>
      </trkpt>
      <trkpt lat="44.89578" lon="6.63269">
        <ele>1203.2</ele>
        <time>2022-07-19T19:34:03Z</time>
      </trkpt>
      <trkpt lat="44.89576" lon="6.63273">
        <ele>1203</ele>
        <time>2022-07-19T19:34:04Z</time>
      </trkpt>
      <trkpt lat="44.89572" lon="6.63278">
        <ele>1203</ele>
        <time>2022-07-19T19:34:05Z</time>
      </trkpt>
      <trkpt lat="44.89568" lon="6.6328">
        <ele>1203</ele>
        <time>2022-07-19T19:34:06Z</time>
      </trkpt>
      <trkpt lat="44.89564" lon="6.63282">
        <ele>1203</ele>
        <time>2022-07-19T19:34:07Z</time>
      </trkpt>
      <trkpt lat="44.8956" lon="6.63283">
        <ele>1202.8</ele>
        <time>2022-07-19T19:34:08Z</time>
      </trkpt>
      <trkpt lat="44.89556" lon="6.63284">
        <ele>1202.8</ele>
        <time>2022-07-19T19:34:09Z</time>
      </trkpt>
      <trkpt lat="44.89552" lon="6.63286">
        <ele>1202.8</ele>
        <time>2022-07-19T19:34:10Z</time>
      </trkpt>
      <trkpt lat="44.89547" lon="6.63288">
        <ele>1202.6</ele>
        <time>2022-07-19T19:34:11Z</time>
      </trkpt>
      <trkpt lat="44.89542" lon="6.63291">
        <ele>1202.6</ele>
        <time>2022-07-19T19:34:12Z</time>
      </trkpt>
      <trkpt lat="44.89537" lon="6.63292">
        <ele>1202.6</ele>
        <time>2022-07-19T19:34:13Z</time>
      </trkpt>
      <trkpt lat="44.89533" lon="6.63294">
        <ele>1202.4</ele>
        <time>2022-07-19T19:34:14Z</time>
      </trkpt>
      <trkpt lat="44.89528" lon="6.63295">
        <ele>1202.4</ele>
        <time>2022-07-19T19:34:15Z</time>
      </trkpt>
      <trkpt lat="44.89524" lon="6.63298">
        <ele>1202.4</ele>
        <time>2022-07-19T19:34:16Z</time>
      </trkpt>
      <trkpt lat="44.8952" lon="6.633">
        <ele>1202.4</ele>
        <time>2022-07-19T19:34:17Z</time>
      </trkpt>
      <trkpt lat="44.89515" lon="6.63301">
        <ele>1202.4</ele>
        <time>2022-07-19T19:34:18Z</time>
      </trkpt>
      <trkpt lat="44.89511" lon="6.63303">
        <ele>1202</ele>
        <time>2022-07-19T19:34:19Z</time>
      </trkpt>
      <trkpt lat="44.89507" lon="6.63304">
        <ele>1202</ele>
        <time>2022-07-19T19:34:20Z</time>
      </trkpt>
      <trkpt lat="44.89502" lon="6.63306">
        <ele>1202</ele>
        <time>2022-07-19T19:34:21Z</time>
      </trkpt>
      <trkpt lat="44.89498" lon="6.63308">
        <ele>1202</ele>
        <time>2022-07-19T19:34:22Z</time>
      </trkpt>
      <trkpt lat="44.89494" lon="6.6331">
        <ele>1202</ele>
        <time>2022-07-19T19:34:23Z</time>
      </trkpt>
      <trkpt lat="44.8949" lon="6.63312">
        <ele>1202</ele>
        <time>2022-07-19T19:34:24Z</time>
      </trkpt>
      <trkpt lat="44.89485" lon="6.63314">
        <ele>1202</ele>
        <time>2022-07-19T19:34:25Z</time>
      </trkpt>
      <trkpt lat="44.89482" lon="6.63315">
        <ele>1202</ele>
        <time>2022-07-19T19:34:26Z</time>
      </trkpt>
      <trkpt lat="44.89474" lon="6.63318">
        <ele>1202</ele>
        <time>2022-07-19T19:34:27Z</time>
      </trkpt>
      <trkpt lat="44.8947" lon="6.6332">
        <ele>1202</ele>
        <time>2022-07-19T19:34:28Z</time>
      </trkpt>
      <trkpt lat="44.89466" lon="6.63322">
        <ele>1202</ele>
        <time>2022-07-19T19:34:29Z</time>
      </trkpt>
      <trkpt lat="44.89463" lon="6.63323">
        <ele>1201.8</ele>
        <time>2022-07-19T19:34:30Z</time>
      </trkpt>
      <trkpt lat="44.89459" lon="6.63325">
        <ele>1201.8</ele>
        <time>2022-07-19T19:34:31Z</time>
      </trkpt>
      <trkpt lat="44.89455" lon="6.63327">
        <ele>1201.8</ele>
        <time>2022-07-19T19:34:32Z</time>
      </trkpt>
      <trkpt lat="44.89452" lon="6.63328">
        <ele>1201.8</ele>
        <time>2022-07-19T19:34:33Z</time>
      </trkpt>
      <trkpt lat="44.89448" lon="6.63329">
        <ele>1201.8</ele>
        <time>2022-07-19T19:34:34Z</time>
      </trkpt>
      <trkpt lat="44.89445" lon="6.6333">
        <ele>1201.8</ele>
        <time>2022-07-19T19:34:35Z</time>
      </trkpt>
      <trkpt lat="44.89441" lon="6.63331">
        <ele>1201.8</ele>
        <time>2022-07-19T19:34:36Z</time>
      </trkpt>
      <trkpt lat="44.89438" lon="6.63332">
        <ele>1201.8</ele>
        <time>2022-07-19T19:34:37Z</time>
      </trkpt>
      <trkpt lat="44.89434" lon="6.63333">
        <ele>1202</ele>
        <time>2022-07-19T19:34:38Z</time>
      </trkpt>
      <trkpt lat="44.89431" lon="6.63334">
        <ele>1202</ele>
        <time>2022-07-19T19:34:39Z</time>
      </trkpt>
      <trkpt lat="44.89428" lon="6.63335">
        <ele>1202</ele>
        <time>2022-07-19T19:34:40Z</time>
      </trkpt>
      <trkpt lat="44.89425" lon="6.63335">
        <ele>1202</ele>
        <time>2022-07-19T19:34:41Z</time>
      </trkpt>
      <trkpt lat="44.89421" lon="6.63334">
        <ele>1202</ele>
        <time>2022-07-19T19:34:42Z</time>
      </trkpt>
      <trkpt lat="44.89417" lon="6.63334">
        <ele>1202</ele>
        <time>2022-07-19T19:34:43Z</time>
      </trkpt>
      <trkpt lat="44.89414" lon="6.63335">
        <ele>1202</ele>
        <time>2022-07-19T19:34:44Z</time>
      </trkpt>
      <trkpt lat="44.8941" lon="6.63337">
        <ele>1202</ele>
        <time>2022-07-19T19:34:45Z</time>
      </trkpt>
      <trkpt lat="44.89407" lon="6.6334">
        <ele>1202</ele>
        <time>2022-07-19T19:34:46Z</time>
      </trkpt>
      <trkpt lat="44.89406" lon="6.63344">
        <ele>1201.8</ele>
        <time>2022-07-19T19:34:47Z</time>
      </trkpt>
      <trkpt lat="44.89406" lon="6.63348">
        <ele>1201.8</ele>
        <time>2022-07-19T19:34:48Z</time>
      </trkpt>
      <trkpt lat="44.89407" lon="6.63353">
        <ele>1201.8</ele>
        <time>2022-07-19T19:34:49Z</time>
      </trkpt>
      <trkpt lat="44.89409" lon="6.63357">
        <ele>1201.8</ele>
        <time>2022-07-19T19:34:50Z</time>
      </trkpt>
      <trkpt lat="44.89412" lon="6.6336">
        <ele>1201.8</ele>
        <time>2022-07-19T19:34:51Z</time>
      </trkpt>
      <trkpt lat="44.89415" lon="6.63362">
        <ele>1201.8</ele>
        <time>2022-07-19T19:34:52Z</time>
      </trkpt>
      <trkpt lat="44.89419" lon="6.63366">
        <ele>1201.8</ele>
        <time>2022-07-19T19:34:53Z</time>
      </trkpt>
      <trkpt lat="44.89421" lon="6.6337">
        <ele>1202</ele>
        <time>2022-07-19T19:34:54Z</time>
      </trkpt>
      <trkpt lat="44.89423" lon="6.63375">
        <ele>1202</ele>
        <time>2022-07-19T19:34:55Z</time>
      </trkpt>
      <trkpt lat="44.89425" lon="6.6338">
        <ele>1202</ele>
        <time>2022-07-19T19:34:56Z</time>
      </trkpt>
      <trkpt lat="44.89426" lon="6.63384">
        <ele>1202.2</ele>
        <time>2022-07-19T19:34:57Z</time>
      </trkpt>
      <trkpt lat="44.89427" lon="6.63389">
        <ele>1202.2</ele>
        <time>2022-07-19T19:34:58Z</time>
      </trkpt>
      <trkpt lat="44.89428" lon="6.63393">
        <ele>1202.4</ele>
        <time>2022-07-19T19:34:59Z</time>
      </trkpt>
      <trkpt lat="44.89429" lon="6.63397">
        <ele>1202.4</ele>
        <time>2022-07-19T19:35:00Z</time>
      </trkpt>
      <trkpt lat="44.8943" lon="6.63401">
        <ele>1202.8</ele>
        <time>2022-07-19T19:35:01Z</time>
      </trkpt>
      <trkpt lat="44.89431" lon="6.63406">
        <ele>1202.8</ele>
        <time>2022-07-19T19:35:02Z</time>
      </trkpt>
      <trkpt lat="44.89432" lon="6.6341">
        <ele>1203</ele>
        <time>2022-07-19T19:35:03Z</time>
      </trkpt>
      <trkpt lat="44.89432" lon="6.63414">
        <ele>1203</ele>
        <time>2022-07-19T19:35:04Z</time>
      </trkpt>
      <trkpt lat="44.89433" lon="6.63419">
        <ele>1203</ele>
        <time>2022-07-19T19:35:05Z</time>
      </trkpt>
      <trkpt lat="44.89433" lon="6.63423">
        <ele>1203</ele>
        <time>2022-07-19T19:35:06Z</time>
      </trkpt>
      <trkpt lat="44.89432" lon="6.63428">
        <ele>1203.2</ele>
        <time>2022-07-19T19:35:07Z</time>
      </trkpt>
      <trkpt lat="44.89432" lon="6.63433">
        <ele>1203.2</ele>
        <time>2022-07-19T19:35:08Z</time>
      </trkpt>
      <trkpt lat="44.89431" lon="6.63437">
        <ele>1203.2</ele>
        <time>2022-07-19T19:35:09Z</time>
      </trkpt>
      <trkpt lat="44.8943" lon="6.63442">
        <ele>1203.2</ele>
        <time>2022-07-19T19:35:10Z</time>
      </trkpt>
      <trkpt lat="44.89429" lon="6.63447">
        <ele>1203.2</ele>
        <time>2022-07-19T19:35:11Z</time>
      </trkpt>
      <trkpt lat="44.89427" lon="6.63452">
        <ele>1203.6</ele>
        <time>2022-07-19T19:35:12Z</time>
      </trkpt>
      <trkpt lat="44.89426" lon="6.63457">
        <ele>1203.6</ele>
        <time>2022-07-19T19:35:13Z</time>
      </trkpt>
      <trkpt lat="44.89426" lon="6.63462">
        <ele>1203.8</ele>
        <time>2022-07-19T19:35:14Z</time>
      </trkpt>
      <trkpt lat="44.89426" lon="6.63467">
        <ele>1203.8</ele>
        <time>2022-07-19T19:35:15Z</time>
      </trkpt>
      <trkpt lat="44.89424" lon="6.63471">
        <ele>1203.8</ele>
        <time>2022-07-19T19:35:16Z</time>
      </trkpt>
      <trkpt lat="44.89422" lon="6.63476">
        <ele>1203.8</ele>
        <time>2022-07-19T19:35:17Z</time>
      </trkpt>
      <trkpt lat="44.89421" lon="6.6348">
        <ele>1203.8</ele>
        <time>2022-07-19T19:35:18Z</time>
      </trkpt>
      <trkpt lat="44.89419" lon="6.63484">
        <ele>1203.8</ele>
        <time>2022-07-19T19:35:19Z</time>
      </trkpt>
      <trkpt lat="44.89418" lon="6.63489">
        <ele>1203.8</ele>
        <time>2022-07-19T19:35:20Z</time>
      </trkpt>
      <trkpt lat="44.89416" lon="6.63494">
        <ele>1203.8</ele>
        <time>2022-07-19T19:35:21Z</time>
      </trkpt>
      <trkpt lat="44.89415" lon="6.63499">
        <ele>1203.8</ele>
        <time>2022-07-19T19:35:22Z</time>
      </trkpt>
      <trkpt lat="44.89413" lon="6.63504">
        <ele>1203.8</ele>
        <time>2022-07-19T19:35:23Z</time>
      </trkpt>
      <trkpt lat="44.89412" lon="6.63509">
        <ele>1203.8</ele>
        <time>2022-07-19T19:35:24Z</time>
      </trkpt>
      <trkpt lat="44.8941" lon="6.63513">
        <ele>1203.8</ele>
        <time>2022-07-19T19:35:25Z</time>
      </trkpt>
      <trkpt lat="44.89409" lon="6.63518">
        <ele>1203.8</ele>
        <time>2022-07-19T19:35:26Z</time>
      </trkpt>
      <trkpt lat="44.89409" lon="6.63524">
        <ele>1203.8</ele>
        <time>2022-07-19T19:35:27Z</time>
      </trkpt>
      <trkpt lat="44.89409" lon="6.63529">
        <ele>1203.8</ele>
        <time>2022-07-19T19:35:28Z</time>
      </trkpt>
      <trkpt lat="44.8941" lon="6.63534">
        <ele>1203.8</ele>
        <time>2022-07-19T19:35:29Z</time>
      </trkpt>
      <trkpt lat="44.89411" lon="6.63539">
        <ele>1203.8</ele>
        <time>2022-07-19T19:35:30Z</time>
      </trkpt>
      <trkpt lat="44.89412" lon="6.63544">
        <ele>1203.8</ele>
        <time>2022-07-19T19:35:31Z</time>
      </trkpt>
      <trkpt lat="44.89413" lon="6.63549">
        <ele>1203.8</ele>
        <time>2022-07-19T19:35:32Z</time>
      </trkpt>
      <trkpt lat="44.89415" lon="6.63554">
        <ele>1203.8</ele>
        <time>2022-07-19T19:35:33Z</time>
      </trkpt>
      <trkpt lat="44.89416" lon="6.63559">
        <ele>1203.8</ele>
        <time>2022-07-19T19:35:34Z</time>
      </trkpt>
      <trkpt lat="44.89417" lon="6.63564">
        <ele>1204</ele>
        <time>2022-07-19T19:35:36Z</time>
      </trkpt>
      <trkpt lat="44.89419" lon="6.63569">
        <ele>1204</ele>
        <time>2022-07-19T19:35:37Z</time>
      </trkpt>
      <trkpt lat="44.8942" lon="6.63573">
        <ele>1204</ele>
        <time>2022-07-19T19:35:38Z</time>
      </trkpt>
      <trkpt lat="44.89421" lon="6.63577">
        <ele>1204</ele>
        <time>2022-07-19T19:35:39Z</time>
      </trkpt>
      <trkpt lat="44.89422" lon="6.63581">
        <ele>1204</ele>
        <time>2022-07-19T19:35:40Z</time>
      </trkpt>
      <trkpt lat="44.89423" lon="6.63585">
        <ele>1204</ele>
        <time>2022-07-19T19:35:41Z</time>
      </trkpt>
      <trkpt lat="44.89423" lon="6.63589">
        <ele>1204</ele>
        <time>2022-07-19T19:35:42Z</time>
      </trkpt>
      <trkpt lat="44.89424" lon="6.63593">
        <ele>1204</ele>
        <time>2022-07-19T19:35:43Z</time>
      </trkpt>
      <trkpt lat="44.89425" lon="6.63597">
        <ele>1204</ele>
        <time>2022-07-19T19:35:44Z</time>
      </trkpt>
      <trkpt lat="44.89426" lon="6.63601">
        <ele>1204.4</ele>
        <time>2022-07-19T19:35:45Z</time>
      </trkpt>
      <trkpt lat="44.89427" lon="6.63605">
        <ele>1204.4</ele>
        <time>2022-07-19T19:35:46Z</time>
      </trkpt>
      <trkpt lat="44.89428" lon="6.63608">
        <ele>1204.4</ele>
        <time>2022-07-19T19:35:47Z</time>
      </trkpt>
      <trkpt lat="44.89429" lon="6.63612">
        <ele>1204.4</ele>
        <time>2022-07-19T19:35:48Z</time>
      </trkpt>
      <trkpt lat="44.8943" lon="6.63616">
        <ele>1204.4</ele>
        <time>2022-07-19T19:35:49Z</time>
      </trkpt>
      <trkpt lat="44.8943" lon="6.6362">
        <ele>1204.6</ele>
        <time>2022-07-19T19:35:50Z</time>
      </trkpt>
      <trkpt lat="44.89431" lon="6.63624">
        <ele>1204.6</ele>
        <time>2022-07-19T19:35:51Z</time>
      </trkpt>
      <trkpt lat="44.89432" lon="6.63628">
        <ele>1204.8</ele>
        <time>2022-07-19T19:35:52Z</time>
      </trkpt>
      <trkpt lat="44.89434" lon="6.63631">
        <ele>1204.8</ele>
        <time>2022-07-19T19:35:53Z</time>
      </trkpt>
      <trkpt lat="44.89435" lon="6.63634">
        <ele>1204.8</ele>
        <time>2022-07-19T19:35:54Z</time>
      </trkpt>
      <trkpt lat="44.89438" lon="6.63635">
        <ele>1205</ele>
        <time>2022-07-19T19:35:55Z</time>
      </trkpt>
      <trkpt lat="44.89441" lon="6.63637">
        <ele>1205</ele>
        <time>2022-07-19T19:35:56Z</time>
      </trkpt>
      <trkpt lat="44.89443" lon="6.63639">
        <ele>1205.2</ele>
        <time>2022-07-19T19:35:57Z</time>
      </trkpt>
      <trkpt lat="44.89446" lon="6.6364">
        <ele>1205.2</ele>
        <time>2022-07-19T19:35:58Z</time>
      </trkpt>
      <trkpt lat="44.89449" lon="6.63641">
        <ele>1205.2</ele>
        <time>2022-07-19T19:35:59Z</time>
      </trkpt>
      <trkpt lat="44.89452" lon="6.63642">
        <ele>1205.2</ele>
        <time>2022-07-19T19:36:00Z</time>
      </trkpt>
      <trkpt lat="44.89454" lon="6.63642">
        <ele>1205.6</ele>
        <time>2022-07-19T19:36:01Z</time>
      </trkpt>
      <trkpt lat="44.89457" lon="6.63643">
        <ele>1205.6</ele>
        <time>2022-07-19T19:36:02Z</time>
      </trkpt>
      <trkpt lat="44.89461" lon="6.63645">
        <ele>1205.6</ele>
        <time>2022-07-19T19:36:03Z</time>
      </trkpt>
      <trkpt lat="44.89464" lon="6.63646">
        <ele>1205.6</ele>
        <time>2022-07-19T19:36:04Z</time>
      </trkpt>
      <trkpt lat="44.89467" lon="6.63648">
        <ele>1205.6</ele>
        <time>2022-07-19T19:36:05Z</time>
      </trkpt>
      <trkpt lat="44.89469" lon="6.63649">
        <ele>1205.6</ele>
        <time>2022-07-19T19:36:06Z</time>
      </trkpt>
      <trkpt lat="44.89473" lon="6.6365">
        <ele>1205.6</ele>
        <time>2022-07-19T19:36:07Z</time>
      </trkpt>
      <trkpt lat="44.89475" lon="6.63652">
        <ele>1205.6</ele>
        <time>2022-07-19T19:36:08Z</time>
      </trkpt>
      <trkpt lat="44.89478" lon="6.63653">
        <ele>1205.8</ele>
        <time>2022-07-19T19:36:09Z</time>
      </trkpt>
      <trkpt lat="44.8948" lon="6.63654">
        <ele>1205.8</ele>
        <time>2022-07-19T19:36:10Z</time>
      </trkpt>
      <trkpt lat="44.89483" lon="6.63656">
        <ele>1205.8</ele>
        <time>2022-07-19T19:36:11Z</time>
      </trkpt>
      <trkpt lat="44.89485" lon="6.63657">
        <ele>1205.8</ele>
        <time>2022-07-19T19:36:12Z</time>
      </trkpt>
      <trkpt lat="44.89487" lon="6.63658">
        <ele>1206</ele>
        <time>2022-07-19T19:36:13Z</time>
      </trkpt>
      <trkpt lat="44.89489" lon="6.6366">
        <ele>1206</ele>
        <time>2022-07-19T19:36:14Z</time>
      </trkpt>
      <trkpt lat="44.8949" lon="6.63663">
        <ele>1206</ele>
        <time>2022-07-19T19:36:15Z</time>
      </trkpt>
      <trkpt lat="44.89492" lon="6.63666">
        <ele>1206</ele>
        <time>2022-07-19T19:36:16Z</time>
      </trkpt>
      <trkpt lat="44.89493" lon="6.63669">
        <ele>1206</ele>
        <time>2022-07-19T19:36:17Z</time>
      </trkpt>
      <trkpt lat="44.89494" lon="6.63671">
        <ele>1206</ele>
        <time>2022-07-19T19:36:18Z</time>
      </trkpt>
      <trkpt lat="44.89495" lon="6.63675">
        <ele>1206.2</ele>
        <time>2022-07-19T19:36:19Z</time>
      </trkpt>
      <trkpt lat="44.89496" lon="6.63678">
        <ele>1206.2</ele>
        <time>2022-07-19T19:36:20Z</time>
      </trkpt>
      <trkpt lat="44.89497" lon="6.63682">
        <ele>1206.4</ele>
        <time>2022-07-19T19:36:21Z</time>
      </trkpt>
      <trkpt lat="44.89497" lon="6.63685">
        <ele>1206.4</ele>
        <time>2022-07-19T19:36:22Z</time>
      </trkpt>
      <trkpt lat="44.89496" lon="6.63688">
        <ele>1206.8</ele>
        <time>2022-07-19T19:36:23Z</time>
      </trkpt>
      <trkpt lat="44.89495" lon="6.63689">
        <ele>1206.8</ele>
        <time>2022-07-19T19:36:24Z</time>
      </trkpt>
      <trkpt lat="44.89494" lon="6.63691">
        <ele>1206.8</ele>
        <time>2022-07-19T19:36:25Z</time>
      </trkpt>
      <trkpt lat="44.89493" lon="6.63691">
        <ele>1207</ele>
        <time>2022-07-19T19:36:26Z</time>
      </trkpt>
      <trkpt lat="44.89491" lon="6.6369">
        <ele>1207</ele>
        <time>2022-07-19T19:36:27Z</time>
      </trkpt>
      <trkpt lat="44.8949" lon="6.63688">
        <ele>1207</ele>
        <time>2022-07-19T19:36:28Z</time>
      </trkpt>
      <trkpt lat="44.89488" lon="6.63687">
        <ele>1207</ele>
        <time>2022-07-19T19:36:29Z</time>
      </trkpt>
      <trkpt lat="44.89486" lon="6.63685">
        <ele>1207</ele>
        <time>2022-07-19T19:36:30Z</time>
      </trkpt>
      <trkpt lat="44.89484" lon="6.63682">
        <ele>1207</ele>
        <time>2022-07-19T19:36:31Z</time>
      </trkpt>
      <trkpt lat="44.89482" lon="6.6368">
        <ele>1207</ele>
        <time>2022-07-19T19:36:32Z</time>
      </trkpt>
      <trkpt lat="44.89481" lon="6.63677">
        <ele>1207</ele>
        <time>2022-07-19T19:36:33Z</time>
      </trkpt>
      <trkpt lat="44.89479" lon="6.63675">
        <ele>1206.8</ele>
        <time>2022-07-19T19:36:34Z</time>
      </trkpt>
      <trkpt lat="44.89478" lon="6.63672">
        <ele>1206.8</ele>
        <time>2022-07-19T19:36:35Z</time>
      </trkpt>
      <trkpt lat="44.89477" lon="6.6367">
        <ele>1206.6</ele>
        <time>2022-07-19T19:36:36Z</time>
      </trkpt>
      <trkpt lat="44.89475" lon="6.63669">
        <ele>1206.6</ele>
        <time>2022-07-19T19:36:37Z</time>
      </trkpt>
      <trkpt lat="44.89472" lon="6.63668">
        <ele>1206.6</ele>
        <time>2022-07-19T19:36:38Z</time>
      </trkpt>
      <trkpt lat="44.8947" lon="6.63668">
        <ele>1206.6</ele>
        <time>2022-07-19T19:36:39Z</time>
      </trkpt>
      <trkpt lat="44.89468" lon="6.63667">
        <ele>1206.2</ele>
        <time>2022-07-19T19:36:40Z</time>
      </trkpt>
      <trkpt lat="44.89466" lon="6.63666">
        <ele>1206.2</ele>
        <time>2022-07-19T19:36:41Z</time>
      </trkpt>
      <trkpt lat="44.89464" lon="6.63666">
        <ele>1206.2</ele>
        <time>2022-07-19T19:36:42Z</time>
      </trkpt>
      <trkpt lat="44.89463" lon="6.63666">
        <ele>1206.2</ele>
        <time>2022-07-19T19:36:43Z</time>
      </trkpt>
      <trkpt lat="44.89464" lon="6.63679">
        <ele>1203.4</ele>
        <time>2022-07-19T19:52:28Z</time>
      </trkpt>
      <trkpt lat="44.89466" lon="6.63679">
        <ele>1203.4</ele>
        <time>2022-07-19T19:52:30Z</time>
      </trkpt>
      <trkpt lat="44.89468" lon="6.63678">
        <ele>1203.4</ele>
        <time>2022-07-19T19:52:31Z</time>
      </trkpt>
      <trkpt lat="44.8947" lon="6.63678">
        <ele>1203.8</ele>
        <time>2022-07-19T19:52:50Z</time>
      </trkpt>
      <trkpt lat="44.89471" lon="6.63677">
        <ele>1203.8</ele>
        <time>2022-07-19T19:52:51Z</time>
      </trkpt>
      <trkpt lat="44.89473" lon="6.63677">
        <ele>1203.8</ele>
        <time>2022-07-19T19:52:52Z</time>
      </trkpt>
      <trkpt lat="44.89475" lon="6.63676">
        <ele>1203.8</ele>
        <time>2022-07-19T19:52:53Z</time>
      </trkpt>
      <trkpt lat="44.89476" lon="6.63676">
        <ele>1203.8</ele>
        <time>2022-07-19T19:52:54Z</time>
      </trkpt>
      <trkpt lat="44.89478" lon="6.63676">
        <ele>1203.8</ele>
        <time>2022-07-19T19:52:55Z</time>
      </trkpt>
      <trkpt lat="44.8948" lon="6.63675">
        <ele>1203.8</ele>
        <time>2022-07-19T19:52:56Z</time>
      </trkpt>
      <trkpt lat="44.89481" lon="6.63675">
        <ele>1203.8</ele>
        <time>2022-07-19T19:52:57Z</time>
      </trkpt>
      <trkpt lat="44.89483" lon="6.63674">
        <ele>1203.8</ele>
        <time>2022-07-19T19:52:58Z</time>
      </trkpt>
      <trkpt lat="44.89484" lon="6.63674">
        <ele>1203.8</ele>
        <time>2022-07-19T19:52:59Z</time>
      </trkpt>
      <trkpt lat="44.89486" lon="6.63674">
        <ele>1203.8</ele>
        <time>2022-07-19T19:53:00Z</time>
      </trkpt>
      <trkpt lat="44.89488" lon="6.63675">
        <ele>1203.8</ele>
        <time>2022-07-19T19:53:01Z</time>
      </trkpt>
      <trkpt lat="44.89489" lon="6.63677">
        <ele>1204.2</ele>
        <time>2022-07-19T19:53:02Z</time>
      </trkpt>
      <trkpt lat="44.89491" lon="6.63679">
        <ele>1204.2</ele>
        <time>2022-07-19T19:53:03Z</time>
      </trkpt>
      <trkpt lat="44.89492" lon="6.63681">
        <ele>1204.4</ele>
        <time>2022-07-19T19:53:04Z</time>
      </trkpt>
      <trkpt lat="44.89492" lon="6.63684">
        <ele>1204.4</ele>
        <time>2022-07-19T19:53:05Z</time>
      </trkpt>
      <trkpt lat="44.89492" lon="6.63687">
        <ele>1204.6</ele>
        <time>2022-07-19T19:53:06Z</time>
      </trkpt>
      <trkpt lat="44.89491" lon="6.6369">
        <ele>1204.6</ele>
        <time>2022-07-19T19:53:07Z</time>
      </trkpt>
      <trkpt lat="44.8949" lon="6.63692">
        <ele>1204.6</ele>
        <time>2022-07-19T19:53:08Z</time>
      </trkpt>
      <trkpt lat="44.89488" lon="6.63694">
        <ele>1204.8</ele>
        <time>2022-07-19T19:53:09Z</time>
      </trkpt>
      <trkpt lat="44.89487" lon="6.63695">
        <ele>1204.8</ele>
        <time>2022-07-19T19:53:10Z</time>
      </trkpt>
      <trkpt lat="44.89486" lon="6.63697">
        <ele>1205.2</ele>
        <time>2022-07-19T19:53:11Z</time>
      </trkpt>
      <trkpt lat="44.89484" lon="6.63698">
        <ele>1205.2</ele>
        <time>2022-07-19T19:53:12Z</time>
      </trkpt>
      <trkpt lat="44.89482" lon="6.63699">
        <ele>1205.4</ele>
        <time>2022-07-19T19:53:13Z</time>
      </trkpt>
      <trkpt lat="44.89481" lon="6.63701">
        <ele>1205.4</ele>
        <time>2022-07-19T19:53:14Z</time>
      </trkpt>
      <trkpt lat="44.8948" lon="6.63702">
        <ele>1205.6</ele>
        <time>2022-07-19T19:53:15Z</time>
      </trkpt>
      <trkpt lat="44.89478" lon="6.63704">
        <ele>1205.6</ele>
        <time>2022-07-19T19:53:16Z</time>
      </trkpt>
      <trkpt lat="44.89478" lon="6.63706">
        <ele>1206</ele>
        <time>2022-07-19T19:53:17Z</time>
      </trkpt>
      <trkpt lat="44.89476" lon="6.63707">
        <ele>1206</ele>
        <time>2022-07-19T19:53:18Z</time>
      </trkpt>
      <trkpt lat="44.89475" lon="6.63709">
        <ele>1206.2</ele>
        <time>2022-07-19T19:53:19Z</time>
      </trkpt>
      <trkpt lat="44.89473" lon="6.63711">
        <ele>1206.2</ele>
        <time>2022-07-19T19:53:20Z</time>
      </trkpt>
      <trkpt lat="44.89472" lon="6.63713">
        <ele>1206.4</ele>
        <time>2022-07-19T19:53:21Z</time>
      </trkpt>
      <trkpt lat="44.89471" lon="6.63715">
        <ele>1206.4</ele>
        <time>2022-07-19T19:53:22Z</time>
      </trkpt>
      <trkpt lat="44.89469" lon="6.63716">
        <ele>1206.8</ele>
        <time>2022-07-19T19:53:23Z</time>
      </trkpt>
      <trkpt lat="44.89468" lon="6.63718">
        <ele>1206.8</ele>
        <time>2022-07-19T19:53:24Z</time>
      </trkpt>
      <trkpt lat="44.89467" lon="6.6372">
        <ele>1207</ele>
        <time>2022-07-19T19:53:25Z</time>
      </trkpt>
      <trkpt lat="44.89466" lon="6.63722">
        <ele>1207</ele>
        <time>2022-07-19T19:53:26Z</time>
      </trkpt>
      <trkpt lat="44.89464" lon="6.63723">
        <ele>1207.4</ele>
        <time>2022-07-19T19:53:27Z</time>
      </trkpt>
      <trkpt lat="44.89462" lon="6.63725">
        <ele>1207.4</ele>
        <time>2022-07-19T19:53:28Z</time>
      </trkpt>
      <trkpt lat="44.89461" lon="6.63726">
        <ele>1207.8</ele>
        <time>2022-07-19T19:53:29Z</time>
      </trkpt>
      <trkpt lat="44.89459" lon="6.63727">
        <ele>1207.8</ele>
        <time>2022-07-19T19:53:30Z</time>
      </trkpt>
      <trkpt lat="44.89458" lon="6.63728">
        <ele>1208</ele>
        <time>2022-07-19T19:53:31Z</time>
      </trkpt>
      <trkpt lat="44.89456" lon="6.63729">
        <ele>1208</ele>
        <time>2022-07-19T19:53:32Z</time>
      </trkpt>
      <trkpt lat="44.89455" lon="6.6373">
        <ele>1208.4</ele>
        <time>2022-07-19T19:53:33Z</time>
      </trkpt>
      <trkpt lat="44.89453" lon="6.63731">
        <ele>1208.4</ele>
        <time>2022-07-19T19:53:34Z</time>
      </trkpt>
      <trkpt lat="44.89452" lon="6.63733">
        <ele>1208.8</ele>
        <time>2022-07-19T19:53:35Z</time>
      </trkpt>
      <trkpt lat="44.8945" lon="6.63734">
        <ele>1208.8</ele>
        <time>2022-07-19T19:53:36Z</time>
      </trkpt>
      <trkpt lat="44.89449" lon="6.63736">
        <ele>1209</ele>
        <time>2022-07-19T19:53:37Z</time>
      </trkpt>
      <trkpt lat="44.89447" lon="6.63737">
        <ele>1209.2</ele>
        <time>2022-07-19T19:53:38Z</time>
      </trkpt>
      <trkpt lat="44.89446" lon="6.63739">
        <ele>1209.2</ele>
        <time>2022-07-19T19:53:39Z</time>
      </trkpt>
      <trkpt lat="44.89444" lon="6.63741">
        <ele>1209.6</ele>
        <time>2022-07-19T19:53:40Z</time>
      </trkpt>
      <trkpt lat="44.89443" lon="6.63743">
        <ele>1209.8</ele>
        <time>2022-07-19T19:53:41Z</time>
      </trkpt>
      <trkpt lat="44.89441" lon="6.63745">
        <ele>1210</ele>
        <time>2022-07-19T19:53:42Z</time>
      </trkpt>
      <trkpt lat="44.8944" lon="6.63747">
        <ele>1210.2</ele>
        <time>2022-07-19T19:53:43Z</time>
      </trkpt>
      <trkpt lat="44.89438" lon="6.63748">
        <ele>1210.4</ele>
        <time>2022-07-19T19:53:44Z</time>
      </trkpt>
      <trkpt lat="44.89436" lon="6.63749">
        <ele>1210.6</ele>
        <time>2022-07-19T19:53:45Z</time>
      </trkpt>
      <trkpt lat="44.89435" lon="6.63751">
        <ele>1210.6</ele>
        <time>2022-07-19T19:53:46Z</time>
      </trkpt>
      <trkpt lat="44.89433" lon="6.63752">
        <ele>1211</ele>
        <time>2022-07-19T19:53:47Z</time>
      </trkpt>
      <trkpt lat="44.89432" lon="6.63753">
        <ele>1211</ele>
        <time>2022-07-19T19:53:48Z</time>
      </trkpt>
      <trkpt lat="44.8943" lon="6.63754">
        <ele>1211.4</ele>
        <time>2022-07-19T19:53:49Z</time>
      </trkpt>
      <trkpt lat="44.89429" lon="6.63755">
        <ele>1211.6</ele>
        <time>2022-07-19T19:53:50Z</time>
      </trkpt>
      <trkpt lat="44.89427" lon="6.63755">
        <ele>1211.8</ele>
        <time>2022-07-19T19:53:51Z</time>
      </trkpt>
      <trkpt lat="44.89425" lon="6.63756">
        <ele>1212</ele>
        <time>2022-07-19T19:53:52Z</time>
      </trkpt>
      <trkpt lat="44.89424" lon="6.63756">
        <ele>1212</ele>
        <time>2022-07-19T19:53:53Z</time>
      </trkpt>
      <trkpt lat="44.89422" lon="6.63757">
        <ele>1212.4</ele>
        <time>2022-07-19T19:53:54Z</time>
      </trkpt>
      <trkpt lat="44.8942" lon="6.63757">
        <ele>1212.4</ele>
        <time>2022-07-19T19:53:55Z</time>
      </trkpt>
      <trkpt lat="44.89419" lon="6.63758">
        <ele>1212.8</ele>
        <time>2022-07-19T19:53:56Z</time>
      </trkpt>
      <trkpt lat="44.89417" lon="6.63758">
        <ele>1212.8</ele>
        <time>2022-07-19T19:53:57Z</time>
      </trkpt>
      <trkpt lat="44.89415" lon="6.63759">
        <ele>1213</ele>
        <time>2022-07-19T19:53:58Z</time>
      </trkpt>
      <trkpt lat="44.89413" lon="6.6376">
        <ele>1213</ele>
        <time>2022-07-19T19:53:59Z</time>
      </trkpt>
      <trkpt lat="44.89412" lon="6.63761">
        <ele>1213.2</ele>
        <time>2022-07-19T19:54:00Z</time>
      </trkpt>
      <trkpt lat="44.8941" lon="6.63761">
        <ele>1213.2</ele>
        <time>2022-07-19T19:54:01Z</time>
      </trkpt>
      <trkpt lat="44.89409" lon="6.63762">
        <ele>1213.6</ele>
        <time>2022-07-19T19:54:02Z</time>
      </trkpt>
      <trkpt lat="44.89407" lon="6.63763">
        <ele>1213.6</ele>
        <time>2022-07-19T19:54:03Z</time>
      </trkpt>
      <trkpt lat="44.89406" lon="6.63764">
        <ele>1213.8</ele>
        <time>2022-07-19T19:54:04Z</time>
      </trkpt>
      <trkpt lat="44.89404" lon="6.63764">
        <ele>1213.8</ele>
        <time>2022-07-19T19:54:05Z</time>
      </trkpt>
      <trkpt lat="44.89402" lon="6.63765">
        <ele>1214</ele>
        <time>2022-07-19T19:54:06Z</time>
      </trkpt>
      <trkpt lat="44.89401" lon="6.63766">
        <ele>1214</ele>
        <time>2022-07-19T19:54:07Z</time>
      </trkpt>
      <trkpt lat="44.89399" lon="6.63766">
        <ele>1214</ele>
        <time>2022-07-19T19:54:08Z</time>
      </trkpt>
      <trkpt lat="44.89397" lon="6.63767">
        <ele>1214.2</ele>
        <time>2022-07-19T19:54:09Z</time>
      </trkpt>
      <trkpt lat="44.89396" lon="6.63767">
        <ele>1214.2</ele>
        <time>2022-07-19T19:54:10Z</time>
      </trkpt>
      <trkpt lat="44.89394" lon="6.63768">
        <ele>1214.4</ele>
        <time>2022-07-19T19:54:11Z</time>
      </trkpt>
      <trkpt lat="44.89392" lon="6.63768">
        <ele>1214.4</ele>
        <time>2022-07-19T19:54:12Z</time>
      </trkpt>
      <trkpt lat="44.8939" lon="6.63769">
        <ele>1214.6</ele>
        <time>2022-07-19T19:54:13Z</time>
      </trkpt>
      <trkpt lat="44.89389" lon="6.63769">
        <ele>1214.6</ele>
        <time>2022-07-19T19:54:14Z</time>
      </trkpt>
      <trkpt lat="44.89387" lon="6.6377">
        <ele>1214.6</ele>
        <time>2022-07-19T19:54:15Z</time>
      </trkpt>
      <trkpt lat="44.89386" lon="6.6377">
        <ele>1215</ele>
        <time>2022-07-19T19:54:16Z</time>
      </trkpt>
      <trkpt lat="44.89384" lon="6.63771">
        <ele>1215</ele>
        <time>2022-07-19T19:54:17Z</time>
      </trkpt>
      <trkpt lat="44.89382" lon="6.63771">
        <ele>1215.4</ele>
        <time>2022-07-19T19:54:18Z</time>
      </trkpt>
      <trkpt lat="44.8938" lon="6.63771">
        <ele>1215.4</ele>
        <time>2022-07-19T19:54:19Z</time>
      </trkpt>
      <trkpt lat="44.89379" lon="6.63772">
        <ele>1215.4</ele>
        <time>2022-07-19T19:54:20Z</time>
      </trkpt>
      <trkpt lat="44.89377" lon="6.63772">
        <ele>1215.6</ele>
        <time>2022-07-19T19:54:21Z</time>
      </trkpt>
      <trkpt lat="44.89375" lon="6.63773">
        <ele>1215.6</ele>
        <time>2022-07-19T19:54:22Z</time>
      </trkpt>
      <trkpt lat="44.89373" lon="6.63774">
        <ele>1215.8</ele>
        <time>2022-07-19T19:54:23Z</time>
      </trkpt>
      <trkpt lat="44.89372" lon="6.63774">
        <ele>1215.8</ele>
        <time>2022-07-19T19:54:24Z</time>
      </trkpt>
      <trkpt lat="44.8937" lon="6.63774">
        <ele>1216</ele>
        <time>2022-07-19T19:54:25Z</time>
      </trkpt>
      <trkpt lat="44.89368" lon="6.63775">
        <ele>1216</ele>
        <time>2022-07-19T19:54:26Z</time>
      </trkpt>
      <trkpt lat="44.89366" lon="6.63775">
        <ele>1216.2</ele>
        <time>2022-07-19T19:54:27Z</time>
      </trkpt>
      <trkpt lat="44.89364" lon="6.63775">
        <ele>1216.2</ele>
        <time>2022-07-19T19:54:28Z</time>
      </trkpt>
      <trkpt lat="44.89362" lon="6.63776">
        <ele>1216.2</ele>
        <time>2022-07-19T19:54:29Z</time>
      </trkpt>
      <trkpt lat="44.8936" lon="6.63776">
        <ele>1216.4</ele>
        <time>2022-07-19T19:54:30Z</time>
      </trkpt>
      <trkpt lat="44.89357" lon="6.63777">
        <ele>1216.4</ele>
        <time>2022-07-19T19:54:31Z</time>
      </trkpt>
      <trkpt lat="44.89356" lon="6.63777">
        <ele>1216.8</ele>
        <time>2022-07-19T19:54:32Z</time>
      </trkpt>
      <trkpt lat="44.89354" lon="6.63778">
        <ele>1216.8</ele>
        <time>2022-07-19T19:54:33Z</time>
      </trkpt>
      <trkpt lat="44.89352" lon="6.63778">
        <ele>1217</ele>
        <time>2022-07-19T19:54:34Z</time>
      </trkpt>
      <trkpt lat="44.89351" lon="6.63778">
        <ele>1217</ele>
        <time>2022-07-19T19:54:35Z</time>
      </trkpt>
      <trkpt lat="44.89349" lon="6.63779">
        <ele>1217.6</ele>
        <time>2022-07-19T19:54:36Z</time>
      </trkpt>
      <trkpt lat="44.89347" lon="6.63779">
        <ele>1217.6</ele>
        <time>2022-07-19T19:54:37Z</time>
      </trkpt>
      <trkpt lat="44.89345" lon="6.6378">
        <ele>1217.8</ele>
        <time>2022-07-19T19:54:38Z</time>
      </trkpt>
      <trkpt lat="44.89343" lon="6.6378">
        <ele>1217.8</ele>
        <time>2022-07-19T19:54:39Z</time>
      </trkpt>
      <trkpt lat="44.89341" lon="6.6378">
        <ele>1218.2</ele>
        <time>2022-07-19T19:54:40Z</time>
      </trkpt>
      <trkpt lat="44.89339" lon="6.63781">
        <ele>1218.2</ele>
        <time>2022-07-19T19:54:41Z</time>
      </trkpt>
      <trkpt lat="44.89338" lon="6.63781">
        <ele>1218.4</ele>
        <time>2022-07-19T19:54:42Z</time>
      </trkpt>
      <trkpt lat="44.89336" lon="6.63782">
        <ele>1218.4</ele>
        <time>2022-07-19T19:54:43Z</time>
      </trkpt>
      <trkpt lat="44.89333" lon="6.63782">
        <ele>1218.6</ele>
        <time>2022-07-19T19:54:44Z</time>
      </trkpt>
      <trkpt lat="44.89331" lon="6.63783">
        <ele>1218.6</ele>
        <time>2022-07-19T19:54:45Z</time>
      </trkpt>
      <trkpt lat="44.89329" lon="6.63784">
        <ele>1219</ele>
        <time>2022-07-19T19:54:46Z</time>
      </trkpt>
      <trkpt lat="44.89327" lon="6.63784">
        <ele>1219</ele>
        <time>2022-07-19T19:54:47Z</time>
      </trkpt>
      <trkpt lat="44.89325" lon="6.63785">
        <ele>1219.2</ele>
        <time>2022-07-19T19:54:48Z</time>
      </trkpt>
      <trkpt lat="44.89323" lon="6.63785">
        <ele>1219.2</ele>
        <time>2022-07-19T19:54:49Z</time>
      </trkpt>
      <trkpt lat="44.89321" lon="6.63785">
        <ele>1219.4</ele>
        <time>2022-07-19T19:54:50Z</time>
      </trkpt>
      <trkpt lat="44.89319" lon="6.63786">
        <ele>1219.4</ele>
        <time>2022-07-19T19:54:51Z</time>
      </trkpt>
      <trkpt lat="44.89317" lon="6.63786">
        <ele>1219.8</ele>
        <time>2022-07-19T19:54:52Z</time>
      </trkpt>
      <trkpt lat="44.89314" lon="6.63787">
        <ele>1219.8</ele>
        <time>2022-07-19T19:54:53Z</time>
      </trkpt>
      <trkpt lat="44.89312" lon="6.63787">
        <ele>1220</ele>
        <time>2022-07-19T19:54:54Z</time>
      </trkpt>
      <trkpt lat="44.8931" lon="6.63787">
        <ele>1220</ele>
        <time>2022-07-19T19:54:55Z</time>
      </trkpt>
      <trkpt lat="44.89308" lon="6.63787">
        <ele>1220.2</ele>
        <time>2022-07-19T19:54:56Z</time>
      </trkpt>
      <trkpt lat="44.89305" lon="6.63787">
        <ele>1220.2</ele>
        <time>2022-07-19T19:54:57Z</time>
      </trkpt>
      <trkpt lat="44.89303" lon="6.63787">
        <ele>1220.2</ele>
        <time>2022-07-19T19:54:58Z</time>
      </trkpt>
      <trkpt lat="44.89301" lon="6.63787">
        <ele>1220.4</ele>
        <time>2022-07-19T19:54:59Z</time>
      </trkpt>
      <trkpt lat="44.89299" lon="6.63787">
        <ele>1220.4</ele>
        <time>2022-07-19T19:55:00Z</time>
      </trkpt>
      <trkpt lat="44.89297" lon="6.63787">
        <ele>1220.8</ele>
        <time>2022-07-19T19:55:01Z</time>
      </trkpt>
      <trkpt lat="44.89295" lon="6.63787">
        <ele>1220.8</ele>
        <time>2022-07-19T19:55:02Z</time>
      </trkpt>
      <trkpt lat="44.89292" lon="6.63787">
        <ele>1221</ele>
        <time>2022-07-19T19:55:03Z</time>
      </trkpt>
      <trkpt lat="44.8929" lon="6.63787">
        <ele>1221</ele>
        <time>2022-07-19T19:55:04Z</time>
      </trkpt>
      <trkpt lat="44.89288" lon="6.63787">
        <ele>1221.4</ele>
        <time>2022-07-19T19:55:05Z</time>
      </trkpt>
      <trkpt lat="44.89286" lon="6.63787">
        <ele>1221.4</ele>
        <time>2022-07-19T19:55:06Z</time>
      </trkpt>
      <trkpt lat="44.89284" lon="6.63787">
        <ele>1221.6</ele>
        <time>2022-07-19T19:55:07Z</time>
      </trkpt>
      <trkpt lat="44.89282" lon="6.63787">
        <ele>1221.6</ele>
        <time>2022-07-19T19:55:08Z</time>
      </trkpt>
      <trkpt lat="44.89279" lon="6.63787">
        <ele>1221.8</ele>
        <time>2022-07-19T19:55:09Z</time>
      </trkpt>
      <trkpt lat="44.89277" lon="6.63787">
        <ele>1221.8</ele>
        <time>2022-07-19T19:55:10Z</time>
      </trkpt>
      <trkpt lat="44.89275" lon="6.63787">
        <ele>1222.2</ele>
        <time>2022-07-19T19:55:11Z</time>
      </trkpt>
      <trkpt lat="44.89273" lon="6.63787">
        <ele>1222.4</ele>
        <time>2022-07-19T19:55:12Z</time>
      </trkpt>
      <trkpt lat="44.89271" lon="6.63787">
        <ele>1222.6</ele>
        <time>2022-07-19T19:55:13Z</time>
      </trkpt>
      <trkpt lat="44.89269" lon="6.63787">
        <ele>1222.6</ele>
        <time>2022-07-19T19:55:14Z</time>
      </trkpt>
      <trkpt lat="44.89267" lon="6.63787">
        <ele>1223</ele>
        <time>2022-07-19T19:55:15Z</time>
      </trkpt>
      <trkpt lat="44.89266" lon="6.63787">
        <ele>1223</ele>
        <time>2022-07-19T19:55:16Z</time>
      </trkpt>
      <trkpt lat="44.89264" lon="6.63787">
        <ele>1223.2</ele>
        <time>2022-07-19T19:55:17Z</time>
      </trkpt>
      <trkpt lat="44.89262" lon="6.63786">
        <ele>1223.2</ele>
        <time>2022-07-19T19:55:18Z</time>
      </trkpt>
      <trkpt lat="44.8926" lon="6.63786">
        <ele>1223.4</ele>
        <time>2022-07-19T19:55:19Z</time>
      </trkpt>
      <trkpt lat="44.89259" lon="6.63786">
        <ele>1223.4</ele>
        <time>2022-07-19T19:55:20Z</time>
      </trkpt>
      <trkpt lat="44.89257" lon="6.63786">
        <ele>1223.8</ele>
        <time>2022-07-19T19:55:21Z</time>
      </trkpt>
      <trkpt lat="44.89255" lon="6.63786">
        <ele>1223.8</ele>
        <time>2022-07-19T19:55:22Z</time>
      </trkpt>
      <trkpt lat="44.89253" lon="6.63785">
        <ele>1224</ele>
        <time>2022-07-19T19:55:23Z</time>
      </trkpt>
      <trkpt lat="44.89251" lon="6.63785">
        <ele>1224</ele>
        <time>2022-07-19T19:55:24Z</time>
      </trkpt>
      <trkpt lat="44.89249" lon="6.63784">
        <ele>1224.4</ele>
        <time>2022-07-19T19:55:25Z</time>
      </trkpt>
      <trkpt lat="44.89248" lon="6.63784">
        <ele>1224.4</ele>
        <time>2022-07-19T19:55:26Z</time>
      </trkpt>
      <trkpt lat="44.89246" lon="6.63784">
        <ele>1224.8</ele>
        <time>2022-07-19T19:55:27Z</time>
      </trkpt>
      <trkpt lat="44.89244" lon="6.63784">
        <ele>1224.8</ele>
        <time>2022-07-19T19:55:28Z</time>
      </trkpt>
      <trkpt lat="44.89243" lon="6.63784">
        <ele>1225.2</ele>
        <time>2022-07-19T19:55:29Z</time>
      </trkpt>
      <trkpt lat="44.89241" lon="6.63784">
        <ele>1225.2</ele>
        <time>2022-07-19T19:55:30Z</time>
      </trkpt>
      <trkpt lat="44.89239" lon="6.63784">
        <ele>1225.6</ele>
        <time>2022-07-19T19:55:31Z</time>
      </trkpt>
      <trkpt lat="44.89237" lon="6.63785">
        <ele>1225.6</ele>
        <time>2022-07-19T19:55:32Z</time>
      </trkpt>
      <trkpt lat="44.89235" lon="6.63785">
        <ele>1225.8</ele>
        <time>2022-07-19T19:55:33Z</time>
      </trkpt>
      <trkpt lat="44.89233" lon="6.63785">
        <ele>1225.8</ele>
        <time>2022-07-19T19:55:34Z</time>
      </trkpt>
      <trkpt lat="44.89231" lon="6.63786">
        <ele>1226.2</ele>
        <time>2022-07-19T19:55:35Z</time>
      </trkpt>
      <trkpt lat="44.89229" lon="6.63786">
        <ele>1226.2</ele>
        <time>2022-07-19T19:55:36Z</time>
      </trkpt>
      <trkpt lat="44.89227" lon="6.63786">
        <ele>1226.4</ele>
        <time>2022-07-19T19:55:37Z</time>
      </trkpt>
      <trkpt lat="44.89225" lon="6.63787">
        <ele>1226.4</ele>
        <time>2022-07-19T19:55:38Z</time>
      </trkpt>
      <trkpt lat="44.89223" lon="6.63787">
        <ele>1226.6</ele>
        <time>2022-07-19T19:55:39Z</time>
      </trkpt>
      <trkpt lat="44.89222" lon="6.63788">
        <ele>1226.6</ele>
        <time>2022-07-19T19:55:40Z</time>
      </trkpt>
      <trkpt lat="44.8922" lon="6.63788">
        <ele>1227</ele>
        <time>2022-07-19T19:55:41Z</time>
      </trkpt>
      <trkpt lat="44.89218" lon="6.63788">
        <ele>1227</ele>
        <time>2022-07-19T19:55:42Z</time>
      </trkpt>
      <trkpt lat="44.89216" lon="6.63789">
        <ele>1227.4</ele>
        <time>2022-07-19T19:55:43Z</time>
      </trkpt>
      <trkpt lat="44.89214" lon="6.63789">
        <ele>1227.4</ele>
        <time>2022-07-19T19:55:44Z</time>
      </trkpt>
      <trkpt lat="44.89212" lon="6.63789">
        <ele>1227.4</ele>
        <time>2022-07-19T19:55:45Z</time>
      </trkpt>
      <trkpt lat="44.89211" lon="6.63789">
        <ele>1227.6</ele>
        <time>2022-07-19T19:55:46Z</time>
      </trkpt>
      <trkpt lat="44.89209" lon="6.6379">
        <ele>1227.6</ele>
        <time>2022-07-19T19:55:47Z</time>
      </trkpt>
      <trkpt lat="44.89207" lon="6.6379">
        <ele>1227.8</ele>
        <time>2022-07-19T19:55:48Z</time>
      </trkpt>
      <trkpt lat="44.89205" lon="6.63791">
        <ele>1227.8</ele>
        <time>2022-07-19T19:55:49Z</time>
      </trkpt>
      <trkpt lat="44.89203" lon="6.63791">
        <ele>1228.2</ele>
        <time>2022-07-19T19:55:50Z</time>
      </trkpt>
      <trkpt lat="44.89201" lon="6.63792">
        <ele>1228.2</ele>
        <time>2022-07-19T19:55:51Z</time>
      </trkpt>
      <trkpt lat="44.892" lon="6.63792">
        <ele>1228.2</ele>
        <time>2022-07-19T19:55:52Z</time>
      </trkpt>
      <trkpt lat="44.89198" lon="6.63792">
        <ele>1228.6</ele>
        <time>2022-07-19T19:55:53Z</time>
      </trkpt>
      <trkpt lat="44.89197" lon="6.63793">
        <ele>1228.6</ele>
        <time>2022-07-19T19:55:54Z</time>
      </trkpt>
      <trkpt lat="44.89195" lon="6.63793">
        <ele>1228.8</ele>
        <time>2022-07-19T19:55:55Z</time>
      </trkpt>
      <trkpt lat="44.89194" lon="6.63794">
        <ele>1228.8</ele>
        <time>2022-07-19T19:55:56Z</time>
      </trkpt>
      <trkpt lat="44.89192" lon="6.63795">
        <ele>1229</ele>
        <time>2022-07-19T19:55:57Z</time>
      </trkpt>
      <trkpt lat="44.89191" lon="6.63795">
        <ele>1229</ele>
        <time>2022-07-19T19:55:58Z</time>
      </trkpt>
      <trkpt lat="44.89188" lon="6.63796">
        <ele>1229.2</ele>
        <time>2022-07-19T19:55:59Z</time>
      </trkpt>
      <trkpt lat="44.89186" lon="6.63797">
        <ele>1229.2</ele>
        <time>2022-07-19T19:56:00Z</time>
      </trkpt>
      <trkpt lat="44.89184" lon="6.63798">
        <ele>1229.6</ele>
        <time>2022-07-19T19:56:01Z</time>
      </trkpt>
      <trkpt lat="44.89182" lon="6.63799">
        <ele>1229.6</ele>
        <time>2022-07-19T19:56:02Z</time>
      </trkpt>
      <trkpt lat="44.89179" lon="6.63799">
        <ele>1229.8</ele>
        <time>2022-07-19T19:56:03Z</time>
      </trkpt>
      <trkpt lat="44.89177" lon="6.638">
        <ele>1229.8</ele>
        <time>2022-07-19T19:56:04Z</time>
      </trkpt>
      <trkpt lat="44.89175" lon="6.638">
        <ele>1230</ele>
        <time>2022-07-19T19:56:05Z</time>
      </trkpt>
      <trkpt lat="44.89173" lon="6.63802">
        <ele>1230</ele>
        <time>2022-07-19T19:56:06Z</time>
      </trkpt>
      <trkpt lat="44.89171" lon="6.63802">
        <ele>1230.4</ele>
        <time>2022-07-19T19:56:07Z</time>
      </trkpt>
      <trkpt lat="44.89169" lon="6.63803">
        <ele>1230.6</ele>
        <time>2022-07-19T19:56:08Z</time>
      </trkpt>
      <trkpt lat="44.89167" lon="6.63804">
        <ele>1230.6</ele>
        <time>2022-07-19T19:56:09Z</time>
      </trkpt>
      <trkpt lat="44.89162" lon="6.63804">
        <ele>1230.8</ele>
        <time>2022-07-19T19:56:10Z</time>
      </trkpt>
      <trkpt lat="44.8916" lon="6.63805">
        <ele>1230.8</ele>
        <time>2022-07-19T19:56:11Z</time>
      </trkpt>
      <trkpt lat="44.89158" lon="6.63805">
        <ele>1231.2</ele>
        <time>2022-07-19T19:56:12Z</time>
      </trkpt>
      <trkpt lat="44.89156" lon="6.63806">
        <ele>1231.2</ele>
        <time>2022-07-19T19:56:13Z</time>
      </trkpt>
      <trkpt lat="44.89154" lon="6.63807">
        <ele>1231.4</ele>
        <time>2022-07-19T19:56:14Z</time>
      </trkpt>
      <trkpt lat="44.89152" lon="6.63807">
        <ele>1231.4</ele>
        <time>2022-07-19T19:56:15Z</time>
      </trkpt>
      <trkpt lat="44.8915" lon="6.63808">
        <ele>1231.8</ele>
        <time>2022-07-19T19:56:16Z</time>
      </trkpt>
      <trkpt lat="44.89148" lon="6.63809">
        <ele>1231.8</ele>
        <time>2022-07-19T19:56:17Z</time>
      </trkpt>
      <trkpt lat="44.89146" lon="6.6381">
        <ele>1232</ele>
        <time>2022-07-19T19:56:18Z</time>
      </trkpt>
      <trkpt lat="44.89144" lon="6.63812">
        <ele>1232</ele>
        <time>2022-07-19T19:56:19Z</time>
      </trkpt>
      <trkpt lat="44.89142" lon="6.63813">
        <ele>1232.2</ele>
        <time>2022-07-19T19:56:20Z</time>
      </trkpt>
      <trkpt lat="44.8914" lon="6.63814">
        <ele>1232.2</ele>
        <time>2022-07-19T19:56:21Z</time>
      </trkpt>
      <trkpt lat="44.89138" lon="6.63816">
        <ele>1232.6</ele>
        <time>2022-07-19T19:56:22Z</time>
      </trkpt>
      <trkpt lat="44.89136" lon="6.63817">
        <ele>1232.6</ele>
        <time>2022-07-19T19:56:23Z</time>
      </trkpt>
      <trkpt lat="44.89134" lon="6.63818">
        <ele>1232.8</ele>
        <time>2022-07-19T19:56:24Z</time>
      </trkpt>
      <trkpt lat="44.89132" lon="6.6382">
        <ele>1232.8</ele>
        <time>2022-07-19T19:56:25Z</time>
      </trkpt>
      <trkpt lat="44.8913" lon="6.63822">
        <ele>1233</ele>
        <time>2022-07-19T19:56:26Z</time>
      </trkpt>
      <trkpt lat="44.89128" lon="6.63823">
        <ele>1233</ele>
        <time>2022-07-19T19:56:27Z</time>
      </trkpt>
      <trkpt lat="44.89127" lon="6.63825">
        <ele>1233.4</ele>
        <time>2022-07-19T19:56:28Z</time>
      </trkpt>
      <trkpt lat="44.89125" lon="6.63826">
        <ele>1233.4</ele>
        <time>2022-07-19T19:56:29Z</time>
      </trkpt>
      <trkpt lat="44.89124" lon="6.63827">
        <ele>1233.8</ele>
        <time>2022-07-19T19:56:30Z</time>
      </trkpt>
      <trkpt lat="44.89122" lon="6.63828">
        <ele>1233.8</ele>
        <time>2022-07-19T19:56:31Z</time>
      </trkpt>
      <trkpt lat="44.89121" lon="6.6383">
        <ele>1234</ele>
        <time>2022-07-19T19:56:32Z</time>
      </trkpt>
      <trkpt lat="44.89119" lon="6.63831">
        <ele>1234</ele>
        <time>2022-07-19T19:56:33Z</time>
      </trkpt>
      <trkpt lat="44.89117" lon="6.63833">
        <ele>1234.2</ele>
        <time>2022-07-19T19:56:34Z</time>
      </trkpt>
      <trkpt lat="44.89116" lon="6.63834">
        <ele>1234.2</ele>
        <time>2022-07-19T19:56:35Z</time>
      </trkpt>
      <trkpt lat="44.89114" lon="6.63835">
        <ele>1234.4</ele>
        <time>2022-07-19T19:56:36Z</time>
      </trkpt>
      <trkpt lat="44.89112" lon="6.63836">
        <ele>1234.4</ele>
        <time>2022-07-19T19:56:37Z</time>
      </trkpt>
      <trkpt lat="44.8911" lon="6.63838">
        <ele>1234.8</ele>
        <time>2022-07-19T19:56:38Z</time>
      </trkpt>
      <trkpt lat="44.89108" lon="6.63839">
        <ele>1234.8</ele>
        <time>2022-07-19T19:56:39Z</time>
      </trkpt>
      <trkpt lat="44.89106" lon="6.6384">
        <ele>1235</ele>
        <time>2022-07-19T19:56:40Z</time>
      </trkpt>
      <trkpt lat="44.89105" lon="6.63842">
        <ele>1235</ele>
        <time>2022-07-19T19:56:41Z</time>
      </trkpt>
      <trkpt lat="44.89103" lon="6.63843">
        <ele>1235.4</ele>
        <time>2022-07-19T19:56:42Z</time>
      </trkpt>
      <trkpt lat="44.89101" lon="6.63845">
        <ele>1235.4</ele>
        <time>2022-07-19T19:56:43Z</time>
      </trkpt>
      <trkpt lat="44.891" lon="6.63847">
        <ele>1235.6</ele>
        <time>2022-07-19T19:56:44Z</time>
      </trkpt>
      <trkpt lat="44.89098" lon="6.63848">
        <ele>1235.6</ele>
        <time>2022-07-19T19:56:45Z</time>
      </trkpt>
      <trkpt lat="44.89097" lon="6.6385">
        <ele>1235.8</ele>
        <time>2022-07-19T19:56:46Z</time>
      </trkpt>
      <trkpt lat="44.89095" lon="6.63852">
        <ele>1235.8</ele>
        <time>2022-07-19T19:56:47Z</time>
      </trkpt>
      <trkpt lat="44.89093" lon="6.63853">
        <ele>1236.2</ele>
        <time>2022-07-19T19:56:48Z</time>
      </trkpt>
      <trkpt lat="44.89091" lon="6.63854">
        <ele>1236.2</ele>
        <time>2022-07-19T19:56:49Z</time>
      </trkpt>
      <trkpt lat="44.89089" lon="6.63855">
        <ele>1236.4</ele>
        <time>2022-07-19T19:56:50Z</time>
      </trkpt>
      <trkpt lat="44.89088" lon="6.63856">
        <ele>1236.4</ele>
        <time>2022-07-19T19:56:51Z</time>
      </trkpt>
      <trkpt lat="44.89086" lon="6.63858">
        <ele>1236.6</ele>
        <time>2022-07-19T19:56:52Z</time>
      </trkpt>
      <trkpt lat="44.89084" lon="6.63859">
        <ele>1236.6</ele>
        <time>2022-07-19T19:56:53Z</time>
      </trkpt>
      <trkpt lat="44.89082" lon="6.6386">
        <ele>1237</ele>
        <time>2022-07-19T19:56:54Z</time>
      </trkpt>
      <trkpt lat="44.8908" lon="6.63861">
        <ele>1237.2</ele>
        <time>2022-07-19T19:56:55Z</time>
      </trkpt>
      <trkpt lat="44.89079" lon="6.63862">
        <ele>1237.2</ele>
        <time>2022-07-19T19:56:56Z</time>
      </trkpt>
      <trkpt lat="44.89078" lon="6.63863">
        <ele>1237.4</ele>
        <time>2022-07-19T19:56:57Z</time>
      </trkpt>
      <trkpt lat="44.89076" lon="6.63864">
        <ele>1237.8</ele>
        <time>2022-07-19T19:56:58Z</time>
      </trkpt>
      <trkpt lat="44.89074" lon="6.63866">
        <ele>1237.8</ele>
        <time>2022-07-19T19:56:59Z</time>
      </trkpt>
      <trkpt lat="44.89073" lon="6.63867">
        <ele>1238</ele>
        <time>2022-07-19T19:57:00Z</time>
      </trkpt>
      <trkpt lat="44.89071" lon="6.63868">
        <ele>1238</ele>
        <time>2022-07-19T19:57:01Z</time>
      </trkpt>
      <trkpt lat="44.8907" lon="6.63869">
        <ele>1238.4</ele>
        <time>2022-07-19T19:57:02Z</time>
      </trkpt>
      <trkpt lat="44.89068" lon="6.6387">
        <ele>1238.4</ele>
        <time>2022-07-19T19:57:03Z</time>
      </trkpt>
      <trkpt lat="44.89067" lon="6.63872">
        <ele>1239</ele>
        <time>2022-07-19T19:57:05Z</time>
      </trkpt>
      <trkpt lat="44.89065" lon="6.63873">
        <ele>1239</ele>
        <time>2022-07-19T19:57:06Z</time>
      </trkpt>
      <trkpt lat="44.89064" lon="6.63875">
        <ele>1239.2</ele>
        <time>2022-07-19T19:57:07Z</time>
      </trkpt>
      <trkpt lat="44.89063" lon="6.63876">
        <ele>1239.2</ele>
        <time>2022-07-19T19:57:08Z</time>
      </trkpt>
      <trkpt lat="44.89061" lon="6.63877">
        <ele>1239.6</ele>
        <time>2022-07-19T19:57:09Z</time>
      </trkpt>
      <trkpt lat="44.89058" lon="6.63879">
        <ele>1239.6</ele>
        <time>2022-07-19T19:57:10Z</time>
      </trkpt>
      <trkpt lat="44.89056" lon="6.6388">
        <ele>1239.8</ele>
        <time>2022-07-19T19:57:11Z</time>
      </trkpt>
      <trkpt lat="44.89054" lon="6.63881">
        <ele>1239.8</ele>
        <time>2022-07-19T19:57:12Z</time>
      </trkpt>
      <trkpt lat="44.89052" lon="6.63882">
        <ele>1240.2</ele>
        <time>2022-07-19T19:57:13Z</time>
      </trkpt>
      <trkpt lat="44.8905" lon="6.63883">
        <ele>1240.4</ele>
        <time>2022-07-19T19:57:14Z</time>
      </trkpt>
      <trkpt lat="44.89048" lon="6.63884">
        <ele>1240.4</ele>
        <time>2022-07-19T19:57:15Z</time>
      </trkpt>
      <trkpt lat="44.89046" lon="6.63885">
        <ele>1240.6</ele>
        <time>2022-07-19T19:57:16Z</time>
      </trkpt>
      <trkpt lat="44.89044" lon="6.63886">
        <ele>1240.6</ele>
        <time>2022-07-19T19:57:17Z</time>
      </trkpt>
      <trkpt lat="44.89042" lon="6.63887">
        <ele>1241</ele>
        <time>2022-07-19T19:57:18Z</time>
      </trkpt>
      <trkpt lat="44.8904" lon="6.63888">
        <ele>1241</ele>
        <time>2022-07-19T19:57:19Z</time>
      </trkpt>
      <trkpt lat="44.89037" lon="6.63889">
        <ele>1241.2</ele>
        <time>2022-07-19T19:57:20Z</time>
      </trkpt>
      <trkpt lat="44.89034" lon="6.63889">
        <ele>1241.2</ele>
        <time>2022-07-19T19:57:21Z</time>
      </trkpt>
      <trkpt lat="44.89031" lon="6.6389">
        <ele>1241.6</ele>
        <time>2022-07-19T19:57:22Z</time>
      </trkpt>
      <trkpt lat="44.89029" lon="6.6389">
        <ele>1241.6</ele>
        <time>2022-07-19T19:57:23Z</time>
      </trkpt>
      <trkpt lat="44.89026" lon="6.63891">
        <ele>1242</ele>
        <time>2022-07-19T19:57:24Z</time>
      </trkpt>
      <trkpt lat="44.89024" lon="6.63891">
        <ele>1242</ele>
        <time>2022-07-19T19:57:25Z</time>
      </trkpt>
      <trkpt lat="44.89022" lon="6.63892">
        <ele>1242.2</ele>
        <time>2022-07-19T19:57:26Z</time>
      </trkpt>
      <trkpt lat="44.8902" lon="6.63892">
        <ele>1242.2</ele>
        <time>2022-07-19T19:57:27Z</time>
      </trkpt>
      <trkpt lat="44.89018" lon="6.63893">
        <ele>1242.6</ele>
        <time>2022-07-19T19:57:28Z</time>
      </trkpt>
      <trkpt lat="44.89015" lon="6.63893">
        <ele>1242.6</ele>
        <time>2022-07-19T19:57:29Z</time>
      </trkpt>
      <trkpt lat="44.89013" lon="6.63893">
        <ele>1243</ele>
        <time>2022-07-19T19:57:30Z</time>
      </trkpt>
      <trkpt lat="44.89011" lon="6.63894">
        <ele>1243</ele>
        <time>2022-07-19T19:57:31Z</time>
      </trkpt>
      <trkpt lat="44.89008" lon="6.63894">
        <ele>1243.2</ele>
        <time>2022-07-19T19:57:32Z</time>
      </trkpt>
      <trkpt lat="44.89006" lon="6.63894">
        <ele>1243.2</ele>
        <time>2022-07-19T19:57:33Z</time>
      </trkpt>
      <trkpt lat="44.89004" lon="6.63895">
        <ele>1243.6</ele>
        <time>2022-07-19T19:57:34Z</time>
      </trkpt>
      <trkpt lat="44.89002" lon="6.63895">
        <ele>1243.6</ele>
        <time>2022-07-19T19:57:35Z</time>
      </trkpt>
      <trkpt lat="44.88999" lon="6.63895">
        <ele>1243.8</ele>
        <time>2022-07-19T19:57:36Z</time>
      </trkpt>
      <trkpt lat="44.88997" lon="6.63895">
        <ele>1243.8</ele>
        <time>2022-07-19T19:57:37Z</time>
      </trkpt>
      <trkpt lat="44.88995" lon="6.63896">
        <ele>1244.2</ele>
        <time>2022-07-19T19:57:38Z</time>
      </trkpt>
      <trkpt lat="44.88993" lon="6.63896">
        <ele>1244.2</ele>
        <time>2022-07-19T19:57:39Z</time>
      </trkpt>
      <trkpt lat="44.88991" lon="6.63896">
        <ele>1244.6</ele>
        <time>2022-07-19T19:57:40Z</time>
      </trkpt>
      <trkpt lat="44.88989" lon="6.63896">
        <ele>1244.6</ele>
        <time>2022-07-19T19:57:41Z</time>
      </trkpt>
      <trkpt lat="44.88986" lon="6.63897">
        <ele>1245</ele>
        <time>2022-07-19T19:57:42Z</time>
      </trkpt>
      <trkpt lat="44.88984" lon="6.63897">
        <ele>1245.2</ele>
        <time>2022-07-19T19:57:43Z</time>
      </trkpt>
      <trkpt lat="44.88982" lon="6.63897">
        <ele>1245.2</ele>
        <time>2022-07-19T19:57:44Z</time>
      </trkpt>
      <trkpt lat="44.8898" lon="6.63897">
        <ele>1245.6</ele>
        <time>2022-07-19T19:57:45Z</time>
      </trkpt>
      <trkpt lat="44.88978" lon="6.63897">
        <ele>1245.6</ele>
        <time>2022-07-19T19:57:46Z</time>
      </trkpt>
      <trkpt lat="44.88976" lon="6.63897">
        <ele>1246</ele>
        <time>2022-07-19T19:57:47Z</time>
      </trkpt>
      <trkpt lat="44.88974" lon="6.63898">
        <ele>1246</ele>
        <time>2022-07-19T19:57:48Z</time>
      </trkpt>
      <trkpt lat="44.88972" lon="6.63898">
        <ele>1246.2</ele>
        <time>2022-07-19T19:57:49Z</time>
      </trkpt>
      <trkpt lat="44.8897" lon="6.63899">
        <ele>1246.2</ele>
        <time>2022-07-19T19:57:50Z</time>
      </trkpt>
      <trkpt lat="44.88969" lon="6.63899">
        <ele>1246.6</ele>
        <time>2022-07-19T19:57:51Z</time>
      </trkpt>
      <trkpt lat="44.88967" lon="6.639">
        <ele>1246.6</ele>
        <time>2022-07-19T19:57:52Z</time>
      </trkpt>
      <trkpt lat="44.88965" lon="6.63901">
        <ele>1246.8</ele>
        <time>2022-07-19T19:57:53Z</time>
      </trkpt>
      <trkpt lat="44.88964" lon="6.63902">
        <ele>1246.8</ele>
        <time>2022-07-19T19:57:54Z</time>
      </trkpt>
      <trkpt lat="44.88962" lon="6.63903">
        <ele>1247.2</ele>
        <time>2022-07-19T19:57:55Z</time>
      </trkpt>
      <trkpt lat="44.8896" lon="6.63904">
        <ele>1247.2</ele>
        <time>2022-07-19T19:57:56Z</time>
      </trkpt>
      <trkpt lat="44.88959" lon="6.63904">
        <ele>1247.4</ele>
        <time>2022-07-19T19:57:57Z</time>
      </trkpt>
      <trkpt lat="44.88957" lon="6.63905">
        <ele>1247.4</ele>
        <time>2022-07-19T19:57:58Z</time>
      </trkpt>
      <trkpt lat="44.88956" lon="6.63907">
        <ele>1247.8</ele>
        <time>2022-07-19T19:57:59Z</time>
      </trkpt>
      <trkpt lat="44.88954" lon="6.63908">
        <ele>1247.8</ele>
        <time>2022-07-19T19:58:00Z</time>
      </trkpt>
      <trkpt lat="44.88953" lon="6.6391">
        <ele>1247.8</ele>
        <time>2022-07-19T19:58:01Z</time>
      </trkpt>
      <trkpt lat="44.88951" lon="6.63911">
        <ele>1248</ele>
        <time>2022-07-19T19:58:02Z</time>
      </trkpt>
      <trkpt lat="44.8895" lon="6.63912">
        <ele>1248</ele>
        <time>2022-07-19T19:58:03Z</time>
      </trkpt>
      <trkpt lat="44.88948" lon="6.63913">
        <ele>1248.2</ele>
        <time>2022-07-19T19:58:04Z</time>
      </trkpt>
      <trkpt lat="44.88946" lon="6.63914">
        <ele>1248.2</ele>
        <time>2022-07-19T19:58:05Z</time>
      </trkpt>
      <trkpt lat="44.88944" lon="6.63915">
        <ele>1248.2</ele>
        <time>2022-07-19T19:58:06Z</time>
      </trkpt>
      <trkpt lat="44.88942" lon="6.63916">
        <ele>1248.2</ele>
        <time>2022-07-19T19:58:07Z</time>
      </trkpt>
      <trkpt lat="44.88941" lon="6.63916">
        <ele>1248.6</ele>
        <time>2022-07-19T19:58:08Z</time>
      </trkpt>
      <trkpt lat="44.88939" lon="6.63917">
        <ele>1248.6</ele>
        <time>2022-07-19T19:58:09Z</time>
      </trkpt>
      <trkpt lat="44.88937" lon="6.63918">
        <ele>1248.8</ele>
        <time>2022-07-19T19:58:10Z</time>
      </trkpt>
      <trkpt lat="44.88935" lon="6.63918">
        <ele>1248.8</ele>
        <time>2022-07-19T19:58:11Z</time>
      </trkpt>
      <trkpt lat="44.88933" lon="6.63919">
        <ele>1249</ele>
        <time>2022-07-19T19:58:12Z</time>
      </trkpt>
      <trkpt lat="44.88931" lon="6.63919">
        <ele>1249</ele>
        <time>2022-07-19T19:58:13Z</time>
      </trkpt>
      <trkpt lat="44.88929" lon="6.63919">
        <ele>1249</ele>
        <time>2022-07-19T19:58:14Z</time>
      </trkpt>
      <trkpt lat="44.88927" lon="6.63919">
        <ele>1249.4</ele>
        <time>2022-07-19T19:58:15Z</time>
      </trkpt>
      <trkpt lat="44.88925" lon="6.63919">
        <ele>1249.4</ele>
        <time>2022-07-19T19:58:16Z</time>
      </trkpt>
      <trkpt lat="44.88922" lon="6.63919">
        <ele>1249.6</ele>
        <time>2022-07-19T19:58:17Z</time>
      </trkpt>
      <trkpt lat="44.8892" lon="6.63919">
        <ele>1249.6</ele>
        <time>2022-07-19T19:58:18Z</time>
      </trkpt>
      <trkpt lat="44.88918" lon="6.63919">
        <ele>1249.8</ele>
        <time>2022-07-19T19:58:19Z</time>
      </trkpt>
      <trkpt lat="44.88917" lon="6.63919">
        <ele>1249.8</ele>
        <time>2022-07-19T19:58:20Z</time>
      </trkpt>
      <trkpt lat="44.88915" lon="6.63919">
        <ele>1250.2</ele>
        <time>2022-07-19T19:58:21Z</time>
      </trkpt>
      <trkpt lat="44.88913" lon="6.63919">
        <ele>1250.2</ele>
        <time>2022-07-19T19:58:22Z</time>
      </trkpt>
      <trkpt lat="44.88911" lon="6.63919">
        <ele>1250.6</ele>
        <time>2022-07-19T19:58:23Z</time>
      </trkpt>
      <trkpt lat="44.88908" lon="6.6392">
        <ele>1250.6</ele>
        <time>2022-07-19T19:58:24Z</time>
      </trkpt>
      <trkpt lat="44.88906" lon="6.6392">
        <ele>1250.8</ele>
        <time>2022-07-19T19:58:25Z</time>
      </trkpt>
      <trkpt lat="44.88904" lon="6.63921">
        <ele>1250.8</ele>
        <time>2022-07-19T19:58:26Z</time>
      </trkpt>
      <trkpt lat="44.88902" lon="6.63922">
        <ele>1251</ele>
        <time>2022-07-19T19:58:27Z</time>
      </trkpt>
      <trkpt lat="44.88899" lon="6.63922">
        <ele>1251</ele>
        <time>2022-07-19T19:58:28Z</time>
      </trkpt>
      <trkpt lat="44.88897" lon="6.63923">
        <ele>1251.4</ele>
        <time>2022-07-19T19:58:29Z</time>
      </trkpt>
      <trkpt lat="44.88895" lon="6.63924">
        <ele>1251.4</ele>
        <time>2022-07-19T19:58:30Z</time>
      </trkpt>
      <trkpt lat="44.88892" lon="6.63925">
        <ele>1251.6</ele>
        <time>2022-07-19T19:58:31Z</time>
      </trkpt>
      <trkpt lat="44.8889" lon="6.63926">
        <ele>1251.6</ele>
        <time>2022-07-19T19:58:32Z</time>
      </trkpt>
      <trkpt lat="44.88888" lon="6.63928">
        <ele>1251.8</ele>
        <time>2022-07-19T19:58:33Z</time>
      </trkpt>
      <trkpt lat="44.88885" lon="6.63929">
        <ele>1251.8</ele>
        <time>2022-07-19T19:58:34Z</time>
      </trkpt>
      <trkpt lat="44.88883" lon="6.63931">
        <ele>1252</ele>
        <time>2022-07-19T19:58:35Z</time>
      </trkpt>
      <trkpt lat="44.88881" lon="6.63932">
        <ele>1252</ele>
        <time>2022-07-19T19:58:36Z</time>
      </trkpt>
      <trkpt lat="44.88879" lon="6.63935">
        <ele>1252</ele>
        <time>2022-07-19T19:58:37Z</time>
      </trkpt>
      <trkpt lat="44.88878" lon="6.63937">
        <ele>1252.4</ele>
        <time>2022-07-19T19:58:38Z</time>
      </trkpt>
      <trkpt lat="44.88876" lon="6.63939">
        <ele>1252.4</ele>
        <time>2022-07-19T19:58:39Z</time>
      </trkpt>
      <trkpt lat="44.88875" lon="6.63942">
        <ele>1252.6</ele>
        <time>2022-07-19T19:58:40Z</time>
      </trkpt>
      <trkpt lat="44.88874" lon="6.63945">
        <ele>1252.6</ele>
        <time>2022-07-19T19:58:41Z</time>
      </trkpt>
      <trkpt lat="44.88873" lon="6.63948">
        <ele>1253</ele>
        <time>2022-07-19T19:58:42Z</time>
      </trkpt>
      <trkpt lat="44.88873" lon="6.63951">
        <ele>1253</ele>
        <time>2022-07-19T19:58:43Z</time>
      </trkpt>
      <trkpt lat="44.88872" lon="6.63954">
        <ele>1253.2</ele>
        <time>2022-07-19T19:58:44Z</time>
      </trkpt>
      <trkpt lat="44.88873" lon="6.63957">
        <ele>1253.2</ele>
        <time>2022-07-19T19:58:45Z</time>
      </trkpt>
      <trkpt lat="44.88873" lon="6.6396">
        <ele>1253.6</ele>
        <time>2022-07-19T19:58:46Z</time>
      </trkpt>
      <trkpt lat="44.88874" lon="6.63963">
        <ele>1253.6</ele>
        <time>2022-07-19T19:58:47Z</time>
      </trkpt>
      <trkpt lat="44.88875" lon="6.63966">
        <ele>1253.8</ele>
        <time>2022-07-19T19:58:48Z</time>
      </trkpt>
      <trkpt lat="44.88875" lon="6.63969">
        <ele>1254</ele>
        <time>2022-07-19T19:58:49Z</time>
      </trkpt>
      <trkpt lat="44.88876" lon="6.63972">
        <ele>1254</ele>
        <time>2022-07-19T19:58:50Z</time>
      </trkpt>
      <trkpt lat="44.88877" lon="6.63975">
        <ele>1254.4</ele>
        <time>2022-07-19T19:58:51Z</time>
      </trkpt>
      <trkpt lat="44.88878" lon="6.63978">
        <ele>1254.6</ele>
        <time>2022-07-19T19:58:52Z</time>
      </trkpt>
      <trkpt lat="44.88879" lon="6.6398">
        <ele>1254.6</ele>
        <time>2022-07-19T19:58:53Z</time>
      </trkpt>
      <trkpt lat="44.8888" lon="6.63983">
        <ele>1255</ele>
        <time>2022-07-19T19:58:54Z</time>
      </trkpt>
      <trkpt lat="44.88881" lon="6.63986">
        <ele>1255</ele>
        <time>2022-07-19T19:58:55Z</time>
      </trkpt>
      <trkpt lat="44.88882" lon="6.63988">
        <ele>1255.2</ele>
        <time>2022-07-19T19:58:56Z</time>
      </trkpt>
      <trkpt lat="44.88884" lon="6.6399">
        <ele>1255.2</ele>
        <time>2022-07-19T19:58:57Z</time>
      </trkpt>
      <trkpt lat="44.88886" lon="6.63992">
        <ele>1255.2</ele>
        <time>2022-07-19T19:58:58Z</time>
      </trkpt>
      <trkpt lat="44.88887" lon="6.63994">
        <ele>1255.6</ele>
        <time>2022-07-19T19:58:59Z</time>
      </trkpt>
      <trkpt lat="44.88889" lon="6.63996">
        <ele>1255.6</ele>
        <time>2022-07-19T19:59:00Z</time>
      </trkpt>
      <trkpt lat="44.88891" lon="6.63998">
        <ele>1255.8</ele>
        <time>2022-07-19T19:59:01Z</time>
      </trkpt>
      <trkpt lat="44.88892" lon="6.64">
        <ele>1255.8</ele>
        <time>2022-07-19T19:59:02Z</time>
      </trkpt>
      <trkpt lat="44.88894" lon="6.64001">
        <ele>1256</ele>
        <time>2022-07-19T19:59:03Z</time>
      </trkpt>
      <trkpt lat="44.88896" lon="6.64003">
        <ele>1256</ele>
        <time>2022-07-19T19:59:04Z</time>
      </trkpt>
      <trkpt lat="44.88897" lon="6.64005">
        <ele>1256.4</ele>
        <time>2022-07-19T19:59:05Z</time>
      </trkpt>
      <trkpt lat="44.88899" lon="6.64007">
        <ele>1256.4</ele>
        <time>2022-07-19T19:59:06Z</time>
      </trkpt>
      <trkpt lat="44.88901" lon="6.64009">
        <ele>1256.6</ele>
        <time>2022-07-19T19:59:07Z</time>
      </trkpt>
      <trkpt lat="44.88903" lon="6.6401">
        <ele>1256.8</ele>
        <time>2022-07-19T19:59:08Z</time>
      </trkpt>
      <trkpt lat="44.88904" lon="6.64012">
        <ele>1256.8</ele>
        <time>2022-07-19T19:59:09Z</time>
      </trkpt>
      <trkpt lat="44.88906" lon="6.64014">
        <ele>1257</ele>
        <time>2022-07-19T19:59:10Z</time>
      </trkpt>
      <trkpt lat="44.88908" lon="6.64015">
        <ele>1257</ele>
        <time>2022-07-19T19:59:11Z</time>
      </trkpt>
      <trkpt lat="44.8891" lon="6.64017">
        <ele>1257</ele>
        <time>2022-07-19T19:59:12Z</time>
      </trkpt>
      <trkpt lat="44.88912" lon="6.64018">
        <ele>1257.4</ele>
        <time>2022-07-19T19:59:13Z</time>
      </trkpt>
      <trkpt lat="44.88914" lon="6.6402">
        <ele>1257.4</ele>
        <time>2022-07-19T19:59:14Z</time>
      </trkpt>
      <trkpt lat="44.88916" lon="6.64021">
        <ele>1257.6</ele>
        <time>2022-07-19T19:59:15Z</time>
      </trkpt>
      <trkpt lat="44.88918" lon="6.64023">
        <ele>1257.6</ele>
        <time>2022-07-19T19:59:16Z</time>
      </trkpt>
      <trkpt lat="44.8892" lon="6.64024">
        <ele>1258</ele>
        <time>2022-07-19T19:59:17Z</time>
      </trkpt>
      <trkpt lat="44.88922" lon="6.64026">
        <ele>1258</ele>
        <time>2022-07-19T19:59:18Z</time>
      </trkpt>
      <trkpt lat="44.88924" lon="6.64027">
        <ele>1258.2</ele>
        <time>2022-07-19T19:59:19Z</time>
      </trkpt>
      <trkpt lat="44.88926" lon="6.64029">
        <ele>1258.2</ele>
        <time>2022-07-19T19:59:20Z</time>
      </trkpt>
      <trkpt lat="44.88928" lon="6.6403">
        <ele>1258.6</ele>
        <time>2022-07-19T19:59:21Z</time>
      </trkpt>
      <trkpt lat="44.8893" lon="6.64032">
        <ele>1258.6</ele>
        <time>2022-07-19T19:59:22Z</time>
      </trkpt>
      <trkpt lat="44.88932" lon="6.64033">
        <ele>1258.8</ele>
        <time>2022-07-19T19:59:23Z</time>
      </trkpt>
      <trkpt lat="44.88934" lon="6.64035">
        <ele>1258.8</ele>
        <time>2022-07-19T19:59:24Z</time>
      </trkpt>
      <trkpt lat="44.88936" lon="6.64036">
        <ele>1259.2</ele>
        <time>2022-07-19T19:59:25Z</time>
      </trkpt>
      <trkpt lat="44.88938" lon="6.64037">
        <ele>1259.4</ele>
        <time>2022-07-19T19:59:26Z</time>
      </trkpt>
      <trkpt lat="44.8894" lon="6.64038">
        <ele>1259.4</ele>
        <time>2022-07-19T19:59:27Z</time>
      </trkpt>
      <trkpt lat="44.88942" lon="6.64039">
        <ele>1259.6</ele>
        <time>2022-07-19T19:59:28Z</time>
      </trkpt>
      <trkpt lat="44.88944" lon="6.6404">
        <ele>1259.6</ele>
        <time>2022-07-19T19:59:29Z</time>
      </trkpt>
      <trkpt lat="44.88946" lon="6.6404">
        <ele>1259.8</ele>
        <time>2022-07-19T19:59:30Z</time>
      </trkpt>
      <trkpt lat="44.88948" lon="6.64041">
        <ele>1260</ele>
        <time>2022-07-19T19:59:31Z</time>
      </trkpt>
      <trkpt lat="44.8895" lon="6.6404">
        <ele>1260</ele>
        <time>2022-07-19T19:59:32Z</time>
      </trkpt>
      <trkpt lat="44.88952" lon="6.6404">
        <ele>1260.4</ele>
        <time>2022-07-19T19:59:33Z</time>
      </trkpt>
      <trkpt lat="44.88953" lon="6.64039">
        <ele>1260.4</ele>
        <time>2022-07-19T19:59:34Z</time>
      </trkpt>
      <trkpt lat="44.88955" lon="6.64039">
        <ele>1260.4</ele>
        <time>2022-07-19T19:59:35Z</time>
      </trkpt>
      <trkpt lat="44.88957" lon="6.64038">
        <ele>1260.6</ele>
        <time>2022-07-19T19:59:36Z</time>
      </trkpt>
      <trkpt lat="44.88959" lon="6.64036">
        <ele>1260.6</ele>
        <time>2022-07-19T19:59:37Z</time>
      </trkpt>
      <trkpt lat="44.88961" lon="6.64035">
        <ele>1260.8</ele>
        <time>2022-07-19T19:59:38Z</time>
      </trkpt>
      <trkpt lat="44.88963" lon="6.64033">
        <ele>1260.8</ele>
        <time>2022-07-19T19:59:39Z</time>
      </trkpt>
      <trkpt lat="44.88964" lon="6.64031">
        <ele>1261</ele>
        <time>2022-07-19T19:59:40Z</time>
      </trkpt>
      <trkpt lat="44.88966" lon="6.64029">
        <ele>1261</ele>
        <time>2022-07-19T19:59:41Z</time>
      </trkpt>
      <trkpt lat="44.88967" lon="6.64026">
        <ele>1261.4</ele>
        <time>2022-07-19T19:59:42Z</time>
      </trkpt>
      <trkpt lat="44.88969" lon="6.64025">
        <ele>1261.4</ele>
        <time>2022-07-19T19:59:43Z</time>
      </trkpt>
      <trkpt lat="44.8897" lon="6.64023">
        <ele>1261.8</ele>
        <time>2022-07-19T19:59:44Z</time>
      </trkpt>
      <trkpt lat="44.88972" lon="6.64021">
        <ele>1261.8</ele>
        <time>2022-07-19T19:59:45Z</time>
      </trkpt>
      <trkpt lat="44.88973" lon="6.64019">
        <ele>1262</ele>
        <time>2022-07-19T19:59:46Z</time>
      </trkpt>
      <trkpt lat="44.88975" lon="6.64017">
        <ele>1262</ele>
        <time>2022-07-19T19:59:47Z</time>
      </trkpt>
      <trkpt lat="44.88976" lon="6.64015">
        <ele>1262.2</ele>
        <time>2022-07-19T19:59:48Z</time>
      </trkpt>
      <trkpt lat="44.88978" lon="6.64013">
        <ele>1262.2</ele>
        <time>2022-07-19T19:59:49Z</time>
      </trkpt>
      <trkpt lat="44.8898" lon="6.64011">
        <ele>1262.6</ele>
        <time>2022-07-19T19:59:50Z</time>
      </trkpt>
      <trkpt lat="44.88981" lon="6.64008">
        <ele>1262.6</ele>
        <time>2022-07-19T19:59:51Z</time>
      </trkpt>
      <trkpt lat="44.88983" lon="6.64006">
        <ele>1262.6</ele>
        <time>2022-07-19T19:59:52Z</time>
      </trkpt>
      <trkpt lat="44.88984" lon="6.64004">
        <ele>1262.8</ele>
        <time>2022-07-19T19:59:53Z</time>
      </trkpt>
      <trkpt lat="44.88986" lon="6.64002">
        <ele>1262.8</ele>
        <time>2022-07-19T19:59:54Z</time>
      </trkpt>
      <trkpt lat="44.88988" lon="6.64">
        <ele>1263.2</ele>
        <time>2022-07-19T19:59:55Z</time>
      </trkpt>
      <trkpt lat="44.88989" lon="6.63999">
        <ele>1263.2</ele>
        <time>2022-07-19T19:59:56Z</time>
      </trkpt>
      <trkpt lat="44.88991" lon="6.63997">
        <ele>1263.6</ele>
        <time>2022-07-19T19:59:57Z</time>
      </trkpt>
      <trkpt lat="44.88993" lon="6.63996">
        <ele>1263.6</ele>
        <time>2022-07-19T19:59:58Z</time>
      </trkpt>
      <trkpt lat="44.88995" lon="6.63994">
        <ele>1263.8</ele>
        <time>2022-07-19T19:59:59Z</time>
      </trkpt>
      <trkpt lat="44.88998" lon="6.63993">
        <ele>1263.8</ele>
        <time>2022-07-19T20:00:00Z</time>
      </trkpt>
      <trkpt lat="44.89" lon="6.63993">
        <ele>1264.2</ele>
        <time>2022-07-19T20:00:01Z</time>
      </trkpt>
      <trkpt lat="44.89002" lon="6.63992">
        <ele>1264.2</ele>
        <time>2022-07-19T20:00:02Z</time>
      </trkpt>
      <trkpt lat="44.89004" lon="6.63991">
        <ele>1264.4</ele>
        <time>2022-07-19T20:00:03Z</time>
      </trkpt>
      <trkpt lat="44.89006" lon="6.6399">
        <ele>1264.4</ele>
        <time>2022-07-19T20:00:04Z</time>
      </trkpt>
      <trkpt lat="44.89008" lon="6.63989">
        <ele>1264.6</ele>
        <time>2022-07-19T20:00:05Z</time>
      </trkpt>
      <trkpt lat="44.8901" lon="6.63989">
        <ele>1264.6</ele>
        <time>2022-07-19T20:00:06Z</time>
      </trkpt>
      <trkpt lat="44.89012" lon="6.63988">
        <ele>1264.6</ele>
        <time>2022-07-19T20:00:07Z</time>
      </trkpt>
      <trkpt lat="44.89014" lon="6.63988">
        <ele>1265</ele>
        <time>2022-07-19T20:00:08Z</time>
      </trkpt>
      <trkpt lat="44.89017" lon="6.63987">
        <ele>1265</ele>
        <time>2022-07-19T20:00:09Z</time>
      </trkpt>
      <trkpt lat="44.89019" lon="6.63987">
        <ele>1265.4</ele>
        <time>2022-07-19T20:00:10Z</time>
      </trkpt>
      <trkpt lat="44.89021" lon="6.63986">
        <ele>1265.6</ele>
        <time>2022-07-19T20:00:11Z</time>
      </trkpt>
      <trkpt lat="44.89023" lon="6.63985">
        <ele>1265.6</ele>
        <time>2022-07-19T20:00:12Z</time>
      </trkpt>
      <trkpt lat="44.89025" lon="6.63985">
        <ele>1266</ele>
        <time>2022-07-19T20:00:13Z</time>
      </trkpt>
      <trkpt lat="44.89027" lon="6.63985">
        <ele>1266</ele>
        <time>2022-07-19T20:00:14Z</time>
      </trkpt>
      <trkpt lat="44.89029" lon="6.63985">
        <ele>1266.4</ele>
        <time>2022-07-19T20:00:15Z</time>
      </trkpt>
      <trkpt lat="44.89031" lon="6.63985">
        <ele>1266.4</ele>
        <time>2022-07-19T20:00:16Z</time>
      </trkpt>
      <trkpt lat="44.89033" lon="6.63985">
        <ele>1266.6</ele>
        <time>2022-07-19T20:00:17Z</time>
      </trkpt>
      <trkpt lat="44.89035" lon="6.63985">
        <ele>1266.8</ele>
        <time>2022-07-19T20:00:18Z</time>
      </trkpt>
      <trkpt lat="44.89037" lon="6.63985">
        <ele>1266.8</ele>
        <time>2022-07-19T20:00:19Z</time>
      </trkpt>
      <trkpt lat="44.8904" lon="6.63986">
        <ele>1267</ele>
        <time>2022-07-19T20:00:20Z</time>
      </trkpt>
      <trkpt lat="44.89042" lon="6.63986">
        <ele>1267</ele>
        <time>2022-07-19T20:00:21Z</time>
      </trkpt>
      <trkpt lat="44.89044" lon="6.63987">
        <ele>1267.2</ele>
        <time>2022-07-19T20:00:22Z</time>
      </trkpt>
      <trkpt lat="44.89046" lon="6.63987">
        <ele>1267.2</ele>
        <time>2022-07-19T20:00:23Z</time>
      </trkpt>
      <trkpt lat="44.89048" lon="6.63989">
        <ele>1267.6</ele>
        <time>2022-07-19T20:00:24Z</time>
      </trkpt>
      <trkpt lat="44.89049" lon="6.6399">
        <ele>1267.6</ele>
        <time>2022-07-19T20:00:25Z</time>
      </trkpt>
      <trkpt lat="44.89051" lon="6.63991">
        <ele>1267.8</ele>
        <time>2022-07-19T20:00:26Z</time>
      </trkpt>
      <trkpt lat="44.89053" lon="6.63992">
        <ele>1267.8</ele>
        <time>2022-07-19T20:00:27Z</time>
      </trkpt>
      <trkpt lat="44.89055" lon="6.63993">
        <ele>1268</ele>
        <time>2022-07-19T20:00:28Z</time>
      </trkpt>
      <trkpt lat="44.89057" lon="6.63994">
        <ele>1268.2</ele>
        <time>2022-07-19T20:00:29Z</time>
      </trkpt>
      <trkpt lat="44.89058" lon="6.63995">
        <ele>1268.2</ele>
        <time>2022-07-19T20:00:30Z</time>
      </trkpt>
      <trkpt lat="44.8906" lon="6.63996">
        <ele>1268.2</ele>
        <time>2022-07-19T20:00:31Z</time>
      </trkpt>
      <trkpt lat="44.89062" lon="6.63997">
        <ele>1268.4</ele>
        <time>2022-07-19T20:00:32Z</time>
      </trkpt>
      <trkpt lat="44.89064" lon="6.63998">
        <ele>1268.4</ele>
        <time>2022-07-19T20:00:33Z</time>
      </trkpt>
      <trkpt lat="44.89066" lon="6.63999">
        <ele>1268.8</ele>
        <time>2022-07-19T20:00:34Z</time>
      </trkpt>
      <trkpt lat="44.89068" lon="6.64">
        <ele>1268.8</ele>
        <time>2022-07-19T20:00:35Z</time>
      </trkpt>
      <trkpt lat="44.8907" lon="6.64">
        <ele>1269</ele>
        <time>2022-07-19T20:00:36Z</time>
      </trkpt>
      <trkpt lat="44.89071" lon="6.64002">
        <ele>1269</ele>
        <time>2022-07-19T20:00:37Z</time>
      </trkpt>
      <trkpt lat="44.89073" lon="6.64003">
        <ele>1269.2</ele>
        <time>2022-07-19T20:00:38Z</time>
      </trkpt>
      <trkpt lat="44.89075" lon="6.64004">
        <ele>1269.2</ele>
        <time>2022-07-19T20:00:39Z</time>
      </trkpt>
      <trkpt lat="44.89077" lon="6.64005">
        <ele>1269.2</ele>
        <time>2022-07-19T20:00:40Z</time>
      </trkpt>
      <trkpt lat="44.89078" lon="6.64006">
        <ele>1269.6</ele>
        <time>2022-07-19T20:00:41Z</time>
      </trkpt>
      <trkpt lat="44.8908" lon="6.64006">
        <ele>1269.6</ele>
        <time>2022-07-19T20:00:42Z</time>
      </trkpt>
      <trkpt lat="44.89082" lon="6.64006">
        <ele>1270</ele>
        <time>2022-07-19T20:00:43Z</time>
      </trkpt>
      <trkpt lat="44.89084" lon="6.64007">
        <ele>1270</ele>
        <time>2022-07-19T20:00:44Z</time>
      </trkpt>
      <trkpt lat="44.89086" lon="6.64008">
        <ele>1270.2</ele>
        <time>2022-07-19T20:00:45Z</time>
      </trkpt>
      <trkpt lat="44.89087" lon="6.64009">
        <ele>1270.2</ele>
        <time>2022-07-19T20:00:46Z</time>
      </trkpt>
      <trkpt lat="44.89089" lon="6.6401">
        <ele>1270.2</ele>
        <time>2022-07-19T20:00:47Z</time>
      </trkpt>
      <trkpt lat="44.89091" lon="6.64011">
        <ele>1270.6</ele>
        <time>2022-07-19T20:00:48Z</time>
      </trkpt>
      <trkpt lat="44.89093" lon="6.64012">
        <ele>1270.6</ele>
        <time>2022-07-19T20:00:49Z</time>
      </trkpt>
      <trkpt lat="44.89094" lon="6.64012">
        <ele>1270.8</ele>
        <time>2022-07-19T20:00:50Z</time>
      </trkpt>
      <trkpt lat="44.89096" lon="6.64013">
        <ele>1270.8</ele>
        <time>2022-07-19T20:00:51Z</time>
      </trkpt>
      <trkpt lat="44.89097" lon="6.64014">
        <ele>1271.2</ele>
        <time>2022-07-19T20:00:52Z</time>
      </trkpt>
      <trkpt lat="44.89099" lon="6.64016">
        <ele>1271.2</ele>
        <time>2022-07-19T20:00:53Z</time>
      </trkpt>
      <trkpt lat="44.89101" lon="6.64017">
        <ele>1271.4</ele>
        <time>2022-07-19T20:00:54Z</time>
      </trkpt>
      <trkpt lat="44.89102" lon="6.64019">
        <ele>1271.4</ele>
        <time>2022-07-19T20:00:55Z</time>
      </trkpt>
      <trkpt lat="44.89104" lon="6.6402">
        <ele>1271.8</ele>
        <time>2022-07-19T20:00:56Z</time>
      </trkpt>
      <trkpt lat="44.89106" lon="6.64021">
        <ele>1271.8</ele>
        <time>2022-07-19T20:00:57Z</time>
      </trkpt>
      <trkpt lat="44.89107" lon="6.64022">
        <ele>1271.8</ele>
        <time>2022-07-19T20:00:58Z</time>
      </trkpt>
      <trkpt lat="44.89109" lon="6.64023">
        <ele>1272</ele>
        <time>2022-07-19T20:00:59Z</time>
      </trkpt>
      <trkpt lat="44.89111" lon="6.64025">
        <ele>1272</ele>
        <time>2022-07-19T20:01:00Z</time>
      </trkpt>
      <trkpt lat="44.89112" lon="6.64026">
        <ele>1272.4</ele>
        <time>2022-07-19T20:01:01Z</time>
      </trkpt>
      <trkpt lat="44.89114" lon="6.64028">
        <ele>1272.4</ele>
        <time>2022-07-19T20:01:02Z</time>
      </trkpt>
      <trkpt lat="44.89116" lon="6.64029">
        <ele>1272.6</ele>
        <time>2022-07-19T20:01:03Z</time>
      </trkpt>
      <trkpt lat="44.89117" lon="6.6403">
        <ele>1272.8</ele>
        <time>2022-07-19T20:01:04Z</time>
      </trkpt>
      <trkpt lat="44.89119" lon="6.64031">
        <ele>1272.8</ele>
        <time>2022-07-19T20:01:05Z</time>
      </trkpt>
      <trkpt lat="44.89121" lon="6.64032">
        <ele>1272.8</ele>
        <time>2022-07-19T20:01:06Z</time>
      </trkpt>
      <trkpt lat="44.89122" lon="6.64033">
        <ele>1273.4</ele>
        <time>2022-07-19T20:01:07Z</time>
      </trkpt>
      <trkpt lat="44.89124" lon="6.64034">
        <ele>1273.4</ele>
        <time>2022-07-19T20:01:08Z</time>
      </trkpt>
      <trkpt lat="44.89125" lon="6.64035">
        <ele>1273.6</ele>
        <time>2022-07-19T20:01:09Z</time>
      </trkpt>
      <trkpt lat="44.89127" lon="6.64036">
        <ele>1273.6</ele>
        <time>2022-07-19T20:01:10Z</time>
      </trkpt>
      <trkpt lat="44.89128" lon="6.64038">
        <ele>1273.6</ele>
        <time>2022-07-19T20:01:11Z</time>
      </trkpt>
      <trkpt lat="44.8913" lon="6.64039">
        <ele>1273.8</ele>
        <time>2022-07-19T20:01:12Z</time>
      </trkpt>
      <trkpt lat="44.89132" lon="6.6404">
        <ele>1273.8</ele>
        <time>2022-07-19T20:01:13Z</time>
      </trkpt>
      <trkpt lat="44.89133" lon="6.6404">
        <ele>1274</ele>
        <time>2022-07-19T20:01:14Z</time>
      </trkpt>
      <trkpt lat="44.89135" lon="6.64041">
        <ele>1274</ele>
        <time>2022-07-19T20:01:15Z</time>
      </trkpt>
      <trkpt lat="44.89136" lon="6.64043">
        <ele>1274.2</ele>
        <time>2022-07-19T20:01:16Z</time>
      </trkpt>
      <trkpt lat="44.89138" lon="6.64043">
        <ele>1274.2</ele>
        <time>2022-07-19T20:01:17Z</time>
      </trkpt>
      <trkpt lat="44.89139" lon="6.64045">
        <ele>1274.6</ele>
        <time>2022-07-19T20:01:18Z</time>
      </trkpt>
      <trkpt lat="44.89141" lon="6.64046">
        <ele>1274.6</ele>
        <time>2022-07-19T20:01:19Z</time>
      </trkpt>
      <trkpt lat="44.89142" lon="6.64048">
        <ele>1275</ele>
        <time>2022-07-19T20:01:20Z</time>
      </trkpt>
      <trkpt lat="44.89143" lon="6.64049">
        <ele>1275</ele>
        <time>2022-07-19T20:01:21Z</time>
      </trkpt>
      <trkpt lat="44.89144" lon="6.6405">
        <ele>1275.2</ele>
        <time>2022-07-19T20:01:22Z</time>
      </trkpt>
      <trkpt lat="44.89146" lon="6.64052">
        <ele>1275.2</ele>
        <time>2022-07-19T20:01:23Z</time>
      </trkpt>
      <trkpt lat="44.89147" lon="6.64053">
        <ele>1275.2</ele>
        <time>2022-07-19T20:01:24Z</time>
      </trkpt>
      <trkpt lat="44.89149" lon="6.64055">
        <ele>1275.6</ele>
        <time>2022-07-19T20:01:25Z</time>
      </trkpt>
      <trkpt lat="44.8915" lon="6.64056">
        <ele>1275.6</ele>
        <time>2022-07-19T20:01:26Z</time>
      </trkpt>
      <trkpt lat="44.89151" lon="6.64057">
        <ele>1275.8</ele>
        <time>2022-07-19T20:01:27Z</time>
      </trkpt>
      <trkpt lat="44.89153" lon="6.64058">
        <ele>1275.8</ele>
        <time>2022-07-19T20:01:28Z</time>
      </trkpt>
      <trkpt lat="44.89155" lon="6.64059">
        <ele>1276</ele>
        <time>2022-07-19T20:01:29Z</time>
      </trkpt>
      <trkpt lat="44.89156" lon="6.64061">
        <ele>1276</ele>
        <time>2022-07-19T20:01:30Z</time>
      </trkpt>
      <trkpt lat="44.89158" lon="6.64061">
        <ele>1276.2</ele>
        <time>2022-07-19T20:01:31Z</time>
      </trkpt>
      <trkpt lat="44.8916" lon="6.64062">
        <ele>1276.2</ele>
        <time>2022-07-19T20:01:32Z</time>
      </trkpt>
      <trkpt lat="44.89161" lon="6.64063">
        <ele>1276.2</ele>
        <time>2022-07-19T20:01:33Z</time>
      </trkpt>
      <trkpt lat="44.89163" lon="6.64065">
        <ele>1276.6</ele>
        <time>2022-07-19T20:01:34Z</time>
      </trkpt>
      <trkpt lat="44.89165" lon="6.64066">
        <ele>1276.6</ele>
        <time>2022-07-19T20:01:35Z</time>
      </trkpt>
      <trkpt lat="44.89166" lon="6.64067">
        <ele>1277</ele>
        <time>2022-07-19T20:01:36Z</time>
      </trkpt>
      <trkpt lat="44.89168" lon="6.64068">
        <ele>1277</ele>
        <time>2022-07-19T20:01:37Z</time>
      </trkpt>
      <trkpt lat="44.8917" lon="6.6407">
        <ele>1277.2</ele>
        <time>2022-07-19T20:01:38Z</time>
      </trkpt>
      <trkpt lat="44.89172" lon="6.64071">
        <ele>1277.2</ele>
        <time>2022-07-19T20:01:39Z</time>
      </trkpt>
      <trkpt lat="44.89174" lon="6.64071">
        <ele>1277.6</ele>
        <time>2022-07-19T20:01:40Z</time>
      </trkpt>
      <trkpt lat="44.89176" lon="6.64072">
        <ele>1277.6</ele>
        <time>2022-07-19T20:01:41Z</time>
      </trkpt>
      <trkpt lat="44.89178" lon="6.64072">
        <ele>1277.8</ele>
        <time>2022-07-19T20:01:42Z</time>
      </trkpt>
      <trkpt lat="44.8918" lon="6.64072">
        <ele>1277.8</ele>
        <time>2022-07-19T20:01:43Z</time>
      </trkpt>
      <trkpt lat="44.89182" lon="6.64072">
        <ele>1278</ele>
        <time>2022-07-19T20:01:44Z</time>
      </trkpt>
      <trkpt lat="44.89184" lon="6.64072">
        <ele>1278</ele>
        <time>2022-07-19T20:01:45Z</time>
      </trkpt>
      <trkpt lat="44.89186" lon="6.64072">
        <ele>1278.2</ele>
        <time>2022-07-19T20:01:46Z</time>
      </trkpt>
      <trkpt lat="44.89188" lon="6.64072">
        <ele>1278.2</ele>
        <time>2022-07-19T20:01:47Z</time>
      </trkpt>
      <trkpt lat="44.8919" lon="6.64072">
        <ele>1278.6</ele>
        <time>2022-07-19T20:01:48Z</time>
      </trkpt>
      <trkpt lat="44.89192" lon="6.64072">
        <ele>1278.6</ele>
        <time>2022-07-19T20:01:49Z</time>
      </trkpt>
      <trkpt lat="44.89194" lon="6.64072">
        <ele>1279</ele>
        <time>2022-07-19T20:01:50Z</time>
      </trkpt>
      <trkpt lat="44.89196" lon="6.64072">
        <ele>1279</ele>
        <time>2022-07-19T20:01:51Z</time>
      </trkpt>
      <trkpt lat="44.89198" lon="6.64072">
        <ele>1279.4</ele>
        <time>2022-07-19T20:01:52Z</time>
      </trkpt>
      <trkpt lat="44.89201" lon="6.64072">
        <ele>1279.4</ele>
        <time>2022-07-19T20:01:53Z</time>
      </trkpt>
      <trkpt lat="44.89203" lon="6.64072">
        <ele>1279.6</ele>
        <time>2022-07-19T20:01:54Z</time>
      </trkpt>
      <trkpt lat="44.89205" lon="6.64071">
        <ele>1279.6</ele>
        <time>2022-07-19T20:01:55Z</time>
      </trkpt>
      <trkpt lat="44.89207" lon="6.64071">
        <ele>1279.6</ele>
        <time>2022-07-19T20:01:56Z</time>
      </trkpt>
      <trkpt lat="44.89209" lon="6.64071">
        <ele>1279.8</ele>
        <time>2022-07-19T20:01:57Z</time>
      </trkpt>
      <trkpt lat="44.8921" lon="6.6407">
        <ele>1279.8</ele>
        <time>2022-07-19T20:01:58Z</time>
      </trkpt>
      <trkpt lat="44.89212" lon="6.6407">
        <ele>1280.2</ele>
        <time>2022-07-19T20:01:59Z</time>
      </trkpt>
      <trkpt lat="44.89214" lon="6.6407">
        <ele>1280.2</ele>
        <time>2022-07-19T20:02:00Z</time>
      </trkpt>
      <trkpt lat="44.89216" lon="6.6407">
        <ele>1280.4</ele>
        <time>2022-07-19T20:02:01Z</time>
      </trkpt>
      <trkpt lat="44.89218" lon="6.6407">
        <ele>1280.4</ele>
        <time>2022-07-19T20:02:02Z</time>
      </trkpt>
      <trkpt lat="44.8922" lon="6.6407">
        <ele>1280.8</ele>
        <time>2022-07-19T20:02:03Z</time>
      </trkpt>
      <trkpt lat="44.89222" lon="6.6407">
        <ele>1280.8</ele>
        <time>2022-07-19T20:02:04Z</time>
      </trkpt>
      <trkpt lat="44.89223" lon="6.6407">
        <ele>1281</ele>
        <time>2022-07-19T20:02:05Z</time>
      </trkpt>
      <trkpt lat="44.89225" lon="6.6407">
        <ele>1281</ele>
        <time>2022-07-19T20:02:06Z</time>
      </trkpt>
      <trkpt lat="44.89227" lon="6.64069">
        <ele>1281.4</ele>
        <time>2022-07-19T20:02:07Z</time>
      </trkpt>
      <trkpt lat="44.89229" lon="6.64069">
        <ele>1281.4</ele>
        <time>2022-07-19T20:02:08Z</time>
      </trkpt>
      <trkpt lat="44.89231" lon="6.64068">
        <ele>1281.4</ele>
        <time>2022-07-19T20:02:09Z</time>
      </trkpt>
      <trkpt lat="44.89233" lon="6.64067">
        <ele>1281.6</ele>
        <time>2022-07-19T20:02:10Z</time>
      </trkpt>
      <trkpt lat="44.89235" lon="6.64067">
        <ele>1281.6</ele>
        <time>2022-07-19T20:02:11Z</time>
      </trkpt>
      <trkpt lat="44.89237" lon="6.64067">
        <ele>1281.8</ele>
        <time>2022-07-19T20:02:12Z</time>
      </trkpt>
      <trkpt lat="44.89239" lon="6.64066">
        <ele>1281.8</ele>
        <time>2022-07-19T20:02:13Z</time>
      </trkpt>
      <trkpt lat="44.89241" lon="6.64065">
        <ele>1282</ele>
        <time>2022-07-19T20:02:14Z</time>
      </trkpt>
      <trkpt lat="44.89243" lon="6.64064">
        <ele>1282</ele>
        <time>2022-07-19T20:02:15Z</time>
      </trkpt>
      <trkpt lat="44.89245" lon="6.64063">
        <ele>1282</ele>
        <time>2022-07-19T20:02:16Z</time>
      </trkpt>
      <trkpt lat="44.89247" lon="6.64062">
        <ele>1282.4</ele>
        <time>2022-07-19T20:02:17Z</time>
      </trkpt>
      <trkpt lat="44.89249" lon="6.6406">
        <ele>1282.4</ele>
        <time>2022-07-19T20:02:18Z</time>
      </trkpt>
      <trkpt lat="44.89251" lon="6.64059">
        <ele>1282.4</ele>
        <time>2022-07-19T20:02:19Z</time>
      </trkpt>
      <trkpt lat="44.89254" lon="6.64057">
        <ele>1282.4</ele>
        <time>2022-07-19T20:02:20Z</time>
      </trkpt>
      <trkpt lat="44.89256" lon="6.64055">
        <ele>1282.6</ele>
        <time>2022-07-19T20:02:21Z</time>
      </trkpt>
      <trkpt lat="44.89258" lon="6.64052">
        <ele>1282.6</ele>
        <time>2022-07-19T20:02:22Z</time>
      </trkpt>
      <trkpt lat="44.89259" lon="6.6405">
        <ele>1282.6</ele>
        <time>2022-07-19T20:02:23Z</time>
      </trkpt>
      <trkpt lat="44.89261" lon="6.64047">
        <ele>1282.6</ele>
        <time>2022-07-19T20:02:24Z</time>
      </trkpt>
      <trkpt lat="44.89263" lon="6.64045">
        <ele>1282.6</ele>
        <time>2022-07-19T20:02:25Z</time>
      </trkpt>
      <trkpt lat="44.89266" lon="6.64042">
        <ele>1282.6</ele>
        <time>2022-07-19T20:02:26Z</time>
      </trkpt>
      <trkpt lat="44.89268" lon="6.6404">
        <ele>1283</ele>
        <time>2022-07-19T20:02:27Z</time>
      </trkpt>
      <trkpt lat="44.8927" lon="6.64038">
        <ele>1283</ele>
        <time>2022-07-19T20:02:28Z</time>
      </trkpt>
      <trkpt lat="44.89272" lon="6.64036">
        <ele>1283</ele>
        <time>2022-07-19T20:02:29Z</time>
      </trkpt>
      <trkpt lat="44.89274" lon="6.64034">
        <ele>1283</ele>
        <time>2022-07-19T20:02:30Z</time>
      </trkpt>
      <trkpt lat="44.89276" lon="6.64032">
        <ele>1283</ele>
        <time>2022-07-19T20:02:31Z</time>
      </trkpt>
      <trkpt lat="44.89279" lon="6.6403">
        <ele>1283.2</ele>
        <time>2022-07-19T20:02:32Z</time>
      </trkpt>
      <trkpt lat="44.89282" lon="6.64028">
        <ele>1283.2</ele>
        <time>2022-07-19T20:02:33Z</time>
      </trkpt>
      <trkpt lat="44.89284" lon="6.64027">
        <ele>1283.2</ele>
        <time>2022-07-19T20:02:34Z</time>
      </trkpt>
      <trkpt lat="44.89287" lon="6.64027">
        <ele>1283.4</ele>
        <time>2022-07-19T20:02:35Z</time>
      </trkpt>
      <trkpt lat="44.8929" lon="6.64026">
        <ele>1283.4</ele>
        <time>2022-07-19T20:02:36Z</time>
      </trkpt>
      <trkpt lat="44.89292" lon="6.64026">
        <ele>1283.4</ele>
        <time>2022-07-19T20:02:37Z</time>
      </trkpt>
      <trkpt lat="44.89295" lon="6.64026">
        <ele>1283.6</ele>
        <time>2022-07-19T20:02:38Z</time>
      </trkpt>
      <trkpt lat="44.89297" lon="6.64027">
        <ele>1283.6</ele>
        <time>2022-07-19T20:02:39Z</time>
      </trkpt>
      <trkpt lat="44.89299" lon="6.64027">
        <ele>1284</ele>
        <time>2022-07-19T20:02:40Z</time>
      </trkpt>
      <trkpt lat="44.893" lon="6.64028">
        <ele>1284</ele>
        <time>2022-07-19T20:02:41Z</time>
      </trkpt>
      <trkpt lat="44.89302" lon="6.64029">
        <ele>1284.2</ele>
        <time>2022-07-19T20:02:42Z</time>
      </trkpt>
      <trkpt lat="44.89304" lon="6.64031">
        <ele>1284.4</ele>
        <time>2022-07-19T20:02:43Z</time>
      </trkpt>
      <trkpt lat="44.89305" lon="6.64033">
        <ele>1284.4</ele>
        <time>2022-07-19T20:02:44Z</time>
      </trkpt>
      <trkpt lat="44.89306" lon="6.64035">
        <ele>1284.8</ele>
        <time>2022-07-19T20:02:45Z</time>
      </trkpt>
      <trkpt lat="44.89307" lon="6.64038">
        <ele>1284.8</ele>
        <time>2022-07-19T20:02:46Z</time>
      </trkpt>
      <trkpt lat="44.89307" lon="6.6404">
        <ele>1285.2</ele>
        <time>2022-07-19T20:02:47Z</time>
      </trkpt>
      <trkpt lat="44.89308" lon="6.64042">
        <ele>1285.4</ele>
        <time>2022-07-19T20:02:48Z</time>
      </trkpt>
      <trkpt lat="44.89308" lon="6.64045">
        <ele>1285.4</ele>
        <time>2022-07-19T20:02:49Z</time>
      </trkpt>
      <trkpt lat="44.89308" lon="6.64047">
        <ele>1285.8</ele>
        <time>2022-07-19T20:02:50Z</time>
      </trkpt>
      <trkpt lat="44.89308" lon="6.64049">
        <ele>1285.8</ele>
        <time>2022-07-19T20:02:51Z</time>
      </trkpt>
      <trkpt lat="44.89309" lon="6.64052">
        <ele>1286.2</ele>
        <time>2022-07-19T20:02:52Z</time>
      </trkpt>
      <trkpt lat="44.89309" lon="6.64054">
        <ele>1286.4</ele>
        <time>2022-07-19T20:02:53Z</time>
      </trkpt>
      <trkpt lat="44.89309" lon="6.64056">
        <ele>1286.6</ele>
        <time>2022-07-19T20:02:54Z</time>
      </trkpt>
      <trkpt lat="44.89308" lon="6.64059">
        <ele>1286.6</ele>
        <time>2022-07-19T20:02:55Z</time>
      </trkpt>
      <trkpt lat="44.89308" lon="6.64061">
        <ele>1287</ele>
        <time>2022-07-19T20:02:56Z</time>
      </trkpt>
      <trkpt lat="44.89308" lon="6.64063">
        <ele>1287.2</ele>
        <time>2022-07-19T20:02:57Z</time>
      </trkpt>
      <trkpt lat="44.89307" lon="6.64065">
        <ele>1287.2</ele>
        <time>2022-07-19T20:02:58Z</time>
      </trkpt>
      <trkpt lat="44.89308" lon="6.64067">
        <ele>1287.6</ele>
        <time>2022-07-19T20:02:59Z</time>
      </trkpt>
      <trkpt lat="44.89308" lon="6.6407">
        <ele>1287.6</ele>
        <time>2022-07-19T20:03:00Z</time>
      </trkpt>
      <trkpt lat="44.89308" lon="6.64072">
        <ele>1287.8</ele>
        <time>2022-07-19T20:03:01Z</time>
      </trkpt>
      <trkpt lat="44.89308" lon="6.64074">
        <ele>1287.8</ele>
        <time>2022-07-19T20:03:02Z</time>
      </trkpt>
      <trkpt lat="44.89307" lon="6.64077">
        <ele>1288.2</ele>
        <time>2022-07-19T20:03:03Z</time>
      </trkpt>
      <trkpt lat="44.89307" lon="6.64079">
        <ele>1288.2</ele>
        <time>2022-07-19T20:03:04Z</time>
      </trkpt>
      <trkpt lat="44.89306" lon="6.64082">
        <ele>1288.4</ele>
        <time>2022-07-19T20:03:05Z</time>
      </trkpt>
      <trkpt lat="44.89306" lon="6.64084">
        <ele>1288.4</ele>
        <time>2022-07-19T20:03:06Z</time>
      </trkpt>
      <trkpt lat="44.89306" lon="6.64087">
        <ele>1288.4</ele>
        <time>2022-07-19T20:03:07Z</time>
      </trkpt>
      <trkpt lat="44.89306" lon="6.64089">
        <ele>1288.8</ele>
        <time>2022-07-19T20:03:08Z</time>
      </trkpt>
      <trkpt lat="44.89306" lon="6.64092">
        <ele>1288.8</ele>
        <time>2022-07-19T20:03:09Z</time>
      </trkpt>
      <trkpt lat="44.89307" lon="6.64095">
        <ele>1289</ele>
        <time>2022-07-19T20:03:10Z</time>
      </trkpt>
      <trkpt lat="44.89307" lon="6.64098">
        <ele>1289</ele>
        <time>2022-07-19T20:03:11Z</time>
      </trkpt>
      <trkpt lat="44.89308" lon="6.64101">
        <ele>1289.4</ele>
        <time>2022-07-19T20:03:12Z</time>
      </trkpt>
      <trkpt lat="44.89309" lon="6.64104">
        <ele>1289.6</ele>
        <time>2022-07-19T20:03:13Z</time>
      </trkpt>
      <trkpt lat="44.89309" lon="6.64106">
        <ele>1289.8</ele>
        <time>2022-07-19T20:03:14Z</time>
      </trkpt>
      <trkpt lat="44.8931" lon="6.64109">
        <ele>1290</ele>
        <time>2022-07-19T20:03:15Z</time>
      </trkpt>
      <trkpt lat="44.8931" lon="6.64111">
        <ele>1290.2</ele>
        <time>2022-07-19T20:03:16Z</time>
      </trkpt>
      <trkpt lat="44.89311" lon="6.64114">
        <ele>1290.4</ele>
        <time>2022-07-19T20:03:17Z</time>
      </trkpt>
      <trkpt lat="44.89311" lon="6.64116">
        <ele>1290.4</ele>
        <time>2022-07-19T20:03:18Z</time>
      </trkpt>
      <trkpt lat="44.89312" lon="6.64119">
        <ele>1290.8</ele>
        <time>2022-07-19T20:03:19Z</time>
      </trkpt>
      <trkpt lat="44.89313" lon="6.64121">
        <ele>1290.8</ele>
        <time>2022-07-19T20:03:20Z</time>
      </trkpt>
      <trkpt lat="44.89313" lon="6.64123">
        <ele>1291</ele>
        <time>2022-07-19T20:03:21Z</time>
      </trkpt>
      <trkpt lat="44.89314" lon="6.64126">
        <ele>1291.4</ele>
        <time>2022-07-19T20:03:22Z</time>
      </trkpt>
      <trkpt lat="44.89314" lon="6.64128">
        <ele>1291.4</ele>
        <time>2022-07-19T20:03:23Z</time>
      </trkpt>
      <trkpt lat="44.89315" lon="6.6413">
        <ele>1291.8</ele>
        <time>2022-07-19T20:03:24Z</time>
      </trkpt>
      <trkpt lat="44.89316" lon="6.64132">
        <ele>1291.8</ele>
        <time>2022-07-19T20:03:25Z</time>
      </trkpt>
      <trkpt lat="44.89317" lon="6.64135">
        <ele>1292</ele>
        <time>2022-07-19T20:03:26Z</time>
      </trkpt>
      <trkpt lat="44.89318" lon="6.64137">
        <ele>1292</ele>
        <time>2022-07-19T20:03:27Z</time>
      </trkpt>
      <trkpt lat="44.89318" lon="6.6414">
        <ele>1292.4</ele>
        <time>2022-07-19T20:03:28Z</time>
      </trkpt>
      <trkpt lat="44.89319" lon="6.64142">
        <ele>1292.4</ele>
        <time>2022-07-19T20:03:29Z</time>
      </trkpt>
      <trkpt lat="44.8932" lon="6.64144">
        <ele>1292.6</ele>
        <time>2022-07-19T20:03:30Z</time>
      </trkpt>
      <trkpt lat="44.8932" lon="6.64147">
        <ele>1292.6</ele>
        <time>2022-07-19T20:03:31Z</time>
      </trkpt>
      <trkpt lat="44.8932" lon="6.64149">
        <ele>1292.8</ele>
        <time>2022-07-19T20:03:32Z</time>
      </trkpt>
      <trkpt lat="44.8932" lon="6.64151">
        <ele>1292.8</ele>
        <time>2022-07-19T20:03:33Z</time>
      </trkpt>
      <trkpt lat="44.89321" lon="6.64154">
        <ele>1293.2</ele>
        <time>2022-07-19T20:03:34Z</time>
      </trkpt>
      <trkpt lat="44.89321" lon="6.64157">
        <ele>1293.2</ele>
        <time>2022-07-19T20:03:35Z</time>
      </trkpt>
      <trkpt lat="44.89322" lon="6.64162">
        <ele>1293.4</ele>
        <time>2022-07-19T20:03:37Z</time>
      </trkpt>
      <trkpt lat="44.89322" lon="6.64165">
        <ele>1293.8</ele>
        <time>2022-07-19T20:03:38Z</time>
      </trkpt>
      <trkpt lat="44.89323" lon="6.64167">
        <ele>1293.8</ele>
        <time>2022-07-19T20:03:39Z</time>
      </trkpt>
      <trkpt lat="44.89323" lon="6.6417">
        <ele>1294</ele>
        <time>2022-07-19T20:03:40Z</time>
      </trkpt>
      <trkpt lat="44.89324" lon="6.64172">
        <ele>1294</ele>
        <time>2022-07-19T20:03:41Z</time>
      </trkpt>
      <trkpt lat="44.89324" lon="6.64174">
        <ele>1294</ele>
        <time>2022-07-19T20:03:42Z</time>
      </trkpt>
      <trkpt lat="44.89325" lon="6.64177">
        <ele>1294.4</ele>
        <time>2022-07-19T20:03:43Z</time>
      </trkpt>
      <trkpt lat="44.89325" lon="6.64179">
        <ele>1294.4</ele>
        <time>2022-07-19T20:03:44Z</time>
      </trkpt>
      <trkpt lat="44.89326" lon="6.64182">
        <ele>1294.4</ele>
        <time>2022-07-19T20:03:45Z</time>
      </trkpt>
      <trkpt lat="44.89326" lon="6.64184">
        <ele>1294.6</ele>
        <time>2022-07-19T20:03:46Z</time>
      </trkpt>
      <trkpt lat="44.89326" lon="6.64187">
        <ele>1294.6</ele>
        <time>2022-07-19T20:03:47Z</time>
      </trkpt>
      <trkpt lat="44.89327" lon="6.6419">
        <ele>1294.8</ele>
        <time>2022-07-19T20:03:48Z</time>
      </trkpt>
      <trkpt lat="44.89327" lon="6.64193">
        <ele>1294.8</ele>
        <time>2022-07-19T20:03:49Z</time>
      </trkpt>
      <trkpt lat="44.89327" lon="6.64196">
        <ele>1295.2</ele>
        <time>2022-07-19T20:03:50Z</time>
      </trkpt>
      <trkpt lat="44.89327" lon="6.64199">
        <ele>1295.2</ele>
        <time>2022-07-19T20:03:51Z</time>
      </trkpt>
      <trkpt lat="44.89327" lon="6.64202">
        <ele>1295.6</ele>
        <time>2022-07-19T20:03:52Z</time>
      </trkpt>
      <trkpt lat="44.89326" lon="6.64205">
        <ele>1295.6</ele>
        <time>2022-07-19T20:03:53Z</time>
      </trkpt>
      <trkpt lat="44.89326" lon="6.64208">
        <ele>1295.6</ele>
        <time>2022-07-19T20:03:54Z</time>
      </trkpt>
      <trkpt lat="44.89325" lon="6.64211">
        <ele>1295.6</ele>
        <time>2022-07-19T20:03:55Z</time>
      </trkpt>
      <trkpt lat="44.89325" lon="6.64213">
        <ele>1295.8</ele>
        <time>2022-07-19T20:03:56Z</time>
      </trkpt>
      <trkpt lat="44.89325" lon="6.64216">
        <ele>1295.8</ele>
        <time>2022-07-19T20:03:57Z</time>
      </trkpt>
      <trkpt lat="44.89324" lon="6.64219">
        <ele>1295.8</ele>
        <time>2022-07-19T20:03:58Z</time>
      </trkpt>
      <trkpt lat="44.89323" lon="6.64222">
        <ele>1296.2</ele>
        <time>2022-07-19T20:03:59Z</time>
      </trkpt>
      <trkpt lat="44.89322" lon="6.64225">
        <ele>1296.2</ele>
        <time>2022-07-19T20:04:00Z</time>
      </trkpt>
      <trkpt lat="44.89321" lon="6.64227">
        <ele>1296.4</ele>
        <time>2022-07-19T20:04:01Z</time>
      </trkpt>
      <trkpt lat="44.8932" lon="6.6423">
        <ele>1296.4</ele>
        <time>2022-07-19T20:04:02Z</time>
      </trkpt>
      <trkpt lat="44.89319" lon="6.64232">
        <ele>1296.8</ele>
        <time>2022-07-19T20:04:03Z</time>
      </trkpt>
      <trkpt lat="44.89318" lon="6.64234">
        <ele>1296.8</ele>
        <time>2022-07-19T20:04:04Z</time>
      </trkpt>
      <trkpt lat="44.89317" lon="6.64237">
        <ele>1297</ele>
        <time>2022-07-19T20:04:05Z</time>
      </trkpt>
      <trkpt lat="44.89316" lon="6.64239">
        <ele>1297</ele>
        <time>2022-07-19T20:04:06Z</time>
      </trkpt>
      <trkpt lat="44.89315" lon="6.64242">
        <ele>1297.4</ele>
        <time>2022-07-19T20:04:07Z</time>
      </trkpt>
      <trkpt lat="44.89314" lon="6.64244">
        <ele>1297.4</ele>
        <time>2022-07-19T20:04:08Z</time>
      </trkpt>
      <trkpt lat="44.89313" lon="6.64246">
        <ele>1297.6</ele>
        <time>2022-07-19T20:04:09Z</time>
      </trkpt>
      <trkpt lat="44.89313" lon="6.64248">
        <ele>1297.6</ele>
        <time>2022-07-19T20:04:10Z</time>
      </trkpt>
      <trkpt lat="44.89311" lon="6.64251">
        <ele>1297.8</ele>
        <time>2022-07-19T20:04:11Z</time>
      </trkpt>
      <trkpt lat="44.8931" lon="6.64254">
        <ele>1297.8</ele>
        <time>2022-07-19T20:04:12Z</time>
      </trkpt>
      <trkpt lat="44.89309" lon="6.64256">
        <ele>1298</ele>
        <time>2022-07-19T20:04:13Z</time>
      </trkpt>
      <trkpt lat="44.89309" lon="6.64259">
        <ele>1298</ele>
        <time>2022-07-19T20:04:14Z</time>
      </trkpt>
      <trkpt lat="44.89308" lon="6.64262">
        <ele>1298.4</ele>
        <time>2022-07-19T20:04:15Z</time>
      </trkpt>
      <trkpt lat="44.89307" lon="6.64265">
        <ele>1298.4</ele>
        <time>2022-07-19T20:04:16Z</time>
      </trkpt>
      <trkpt lat="44.89307" lon="6.64267">
        <ele>1298.6</ele>
        <time>2022-07-19T20:04:17Z</time>
      </trkpt>
      <trkpt lat="44.89306" lon="6.6427">
        <ele>1298.8</ele>
        <time>2022-07-19T20:04:18Z</time>
      </trkpt>
      <trkpt lat="44.89306" lon="6.64272">
        <ele>1299</ele>
        <time>2022-07-19T20:04:19Z</time>
      </trkpt>
      <trkpt lat="44.89306" lon="6.64275">
        <ele>1299</ele>
        <time>2022-07-19T20:04:20Z</time>
      </trkpt>
      <trkpt lat="44.89305" lon="6.64278">
        <ele>1299.4</ele>
        <time>2022-07-19T20:04:21Z</time>
      </trkpt>
      <trkpt lat="44.89304" lon="6.64281">
        <ele>1299.4</ele>
        <time>2022-07-19T20:04:22Z</time>
      </trkpt>
      <trkpt lat="44.89304" lon="6.64283">
        <ele>1299.6</ele>
        <time>2022-07-19T20:04:23Z</time>
      </trkpt>
      <trkpt lat="44.89303" lon="6.64286">
        <ele>1299.6</ele>
        <time>2022-07-19T20:04:24Z</time>
      </trkpt>
      <trkpt lat="44.89303" lon="6.64288">
        <ele>1300</ele>
        <time>2022-07-19T20:04:25Z</time>
      </trkpt>
      <trkpt lat="44.89302" lon="6.64291">
        <ele>1300</ele>
        <time>2022-07-19T20:04:26Z</time>
      </trkpt>
      <trkpt lat="44.89302" lon="6.64293">
        <ele>1300.2</ele>
        <time>2022-07-19T20:04:27Z</time>
      </trkpt>
      <trkpt lat="44.89301" lon="6.64295">
        <ele>1300.2</ele>
        <time>2022-07-19T20:04:28Z</time>
      </trkpt>
      <trkpt lat="44.89301" lon="6.64298">
        <ele>1300.6</ele>
        <time>2022-07-19T20:04:29Z</time>
      </trkpt>
      <trkpt lat="44.89301" lon="6.64301">
        <ele>1300.6</ele>
        <time>2022-07-19T20:04:30Z</time>
      </trkpt>
      <trkpt lat="44.89301" lon="6.64303">
        <ele>1300.8</ele>
        <time>2022-07-19T20:04:31Z</time>
      </trkpt>
      <trkpt lat="44.89301" lon="6.64306">
        <ele>1300.8</ele>
        <time>2022-07-19T20:04:32Z</time>
      </trkpt>
      <trkpt lat="44.89301" lon="6.64308">
        <ele>1301</ele>
        <time>2022-07-19T20:04:33Z</time>
      </trkpt>
      <trkpt lat="44.89301" lon="6.6431">
        <ele>1301</ele>
        <time>2022-07-19T20:04:34Z</time>
      </trkpt>
      <trkpt lat="44.89301" lon="6.64312">
        <ele>1301.4</ele>
        <time>2022-07-19T20:04:35Z</time>
      </trkpt>
      <trkpt lat="44.893" lon="6.64315">
        <ele>1301.6</ele>
        <time>2022-07-19T20:04:36Z</time>
      </trkpt>
      <trkpt lat="44.893" lon="6.64317">
        <ele>1301.6</ele>
        <time>2022-07-19T20:04:37Z</time>
      </trkpt>
      <trkpt lat="44.89299" lon="6.6432">
        <ele>1301.8</ele>
        <time>2022-07-19T20:04:38Z</time>
      </trkpt>
      <trkpt lat="44.89299" lon="6.64322">
        <ele>1301.8</ele>
        <time>2022-07-19T20:04:39Z</time>
      </trkpt>
      <trkpt lat="44.89299" lon="6.64324">
        <ele>1301.8</ele>
        <time>2022-07-19T20:04:40Z</time>
      </trkpt>
      <trkpt lat="44.89298" lon="6.64327">
        <ele>1302.2</ele>
        <time>2022-07-19T20:04:41Z</time>
      </trkpt>
      <trkpt lat="44.89298" lon="6.64329">
        <ele>1302.2</ele>
        <time>2022-07-19T20:04:42Z</time>
      </trkpt>
      <trkpt lat="44.89298" lon="6.64332">
        <ele>1302.6</ele>
        <time>2022-07-19T20:04:43Z</time>
      </trkpt>
      <trkpt lat="44.89298" lon="6.64334">
        <ele>1302.6</ele>
        <time>2022-07-19T20:04:44Z</time>
      </trkpt>
      <trkpt lat="44.89298" lon="6.64336">
        <ele>1302.6</ele>
        <time>2022-07-19T20:04:45Z</time>
      </trkpt>
      <trkpt lat="44.89298" lon="6.64339">
        <ele>1302.8</ele>
        <time>2022-07-19T20:04:46Z</time>
      </trkpt>
      <trkpt lat="44.89298" lon="6.64341">
        <ele>1302.8</ele>
        <time>2022-07-19T20:04:47Z</time>
      </trkpt>
      <trkpt lat="44.89298" lon="6.64343">
        <ele>1303.2</ele>
        <time>2022-07-19T20:04:48Z</time>
      </trkpt>
      <trkpt lat="44.89298" lon="6.64346">
        <ele>1303.2</ele>
        <time>2022-07-19T20:04:49Z</time>
      </trkpt>
      <trkpt lat="44.89298" lon="6.64348">
        <ele>1303.4</ele>
        <time>2022-07-19T20:04:50Z</time>
      </trkpt>
      <trkpt lat="44.89298" lon="6.64351">
        <ele>1303.4</ele>
        <time>2022-07-19T20:04:51Z</time>
      </trkpt>
      <trkpt lat="44.89298" lon="6.64353">
        <ele>1303.8</ele>
        <time>2022-07-19T20:04:52Z</time>
      </trkpt>
      <trkpt lat="44.89298" lon="6.64355">
        <ele>1303.8</ele>
        <time>2022-07-19T20:04:53Z</time>
      </trkpt>
      <trkpt lat="44.89298" lon="6.64358">
        <ele>1303.8</ele>
        <time>2022-07-19T20:04:54Z</time>
      </trkpt>
      <trkpt lat="44.89299" lon="6.6436">
        <ele>1304</ele>
        <time>2022-07-19T20:04:55Z</time>
      </trkpt>
      <trkpt lat="44.89299" lon="6.64363">
        <ele>1304</ele>
        <time>2022-07-19T20:04:56Z</time>
      </trkpt>
      <trkpt lat="44.89299" lon="6.64366">
        <ele>1304</ele>
        <time>2022-07-19T20:04:57Z</time>
      </trkpt>
      <trkpt lat="44.89299" lon="6.64368">
        <ele>1304</ele>
        <time>2022-07-19T20:04:58Z</time>
      </trkpt>
      <trkpt lat="44.89299" lon="6.64371">
        <ele>1304.2</ele>
        <time>2022-07-19T20:04:59Z</time>
      </trkpt>
      <trkpt lat="44.893" lon="6.64373">
        <ele>1304.2</ele>
        <time>2022-07-19T20:05:00Z</time>
      </trkpt>
      <trkpt lat="44.893" lon="6.64375">
        <ele>1304.2</ele>
        <time>2022-07-19T20:05:01Z</time>
      </trkpt>
      <trkpt lat="44.893" lon="6.64378">
        <ele>1304.4</ele>
        <time>2022-07-19T20:05:02Z</time>
      </trkpt>
      <trkpt lat="44.893" lon="6.64381">
        <ele>1304.4</ele>
        <time>2022-07-19T20:05:03Z</time>
      </trkpt>
      <trkpt lat="44.893" lon="6.64383">
        <ele>1304.6</ele>
        <time>2022-07-19T20:05:04Z</time>
      </trkpt>
      <trkpt lat="44.893" lon="6.64386">
        <ele>1304.6</ele>
        <time>2022-07-19T20:05:05Z</time>
      </trkpt>
      <trkpt lat="44.89301" lon="6.64389">
        <ele>1305</ele>
        <time>2022-07-19T20:05:06Z</time>
      </trkpt>
      <trkpt lat="44.89301" lon="6.64391">
        <ele>1305</ele>
        <time>2022-07-19T20:05:07Z</time>
      </trkpt>
      <trkpt lat="44.89301" lon="6.64394">
        <ele>1305.2</ele>
        <time>2022-07-19T20:05:08Z</time>
      </trkpt>
      <trkpt lat="44.89301" lon="6.64396">
        <ele>1305.2</ele>
        <time>2022-07-19T20:05:09Z</time>
      </trkpt>
      <trkpt lat="44.89301" lon="6.64399">
        <ele>1305.4</ele>
        <time>2022-07-19T20:05:10Z</time>
      </trkpt>
      <trkpt lat="44.89301" lon="6.64401">
        <ele>1305.4</ele>
        <time>2022-07-19T20:05:11Z</time>
      </trkpt>
      <trkpt lat="44.89301" lon="6.64404">
        <ele>1305.8</ele>
        <time>2022-07-19T20:05:12Z</time>
      </trkpt>
      <trkpt lat="44.89301" lon="6.64407">
        <ele>1305.8</ele>
        <time>2022-07-19T20:05:13Z</time>
      </trkpt>
      <trkpt lat="44.89302" lon="6.6441">
        <ele>1305.8</ele>
        <time>2022-07-19T20:05:14Z</time>
      </trkpt>
      <trkpt lat="44.89302" lon="6.64413">
        <ele>1306.2</ele>
        <time>2022-07-19T20:05:15Z</time>
      </trkpt>
      <trkpt lat="44.89301" lon="6.64416">
        <ele>1306.2</ele>
        <time>2022-07-19T20:05:16Z</time>
      </trkpt>
      <trkpt lat="44.89301" lon="6.64419">
        <ele>1306.4</ele>
        <time>2022-07-19T20:05:17Z</time>
      </trkpt>
      <trkpt lat="44.89301" lon="6.64422">
        <ele>1306.4</ele>
        <time>2022-07-19T20:05:18Z</time>
      </trkpt>
      <trkpt lat="44.89301" lon="6.64425">
        <ele>1306.8</ele>
        <time>2022-07-19T20:05:19Z</time>
      </trkpt>
      <trkpt lat="44.893" lon="6.64428">
        <ele>1306.8</ele>
        <time>2022-07-19T20:05:20Z</time>
      </trkpt>
      <trkpt lat="44.893" lon="6.64431">
        <ele>1307</ele>
        <time>2022-07-19T20:05:21Z</time>
      </trkpt>
      <trkpt lat="44.893" lon="6.64434">
        <ele>1307</ele>
        <time>2022-07-19T20:05:22Z</time>
      </trkpt>
      <trkpt lat="44.89299" lon="6.64436">
        <ele>1307</ele>
        <time>2022-07-19T20:05:23Z</time>
      </trkpt>
      <trkpt lat="44.89299" lon="6.64439">
        <ele>1307.4</ele>
        <time>2022-07-19T20:05:24Z</time>
      </trkpt>
      <trkpt lat="44.89298" lon="6.64442">
        <ele>1307.4</ele>
        <time>2022-07-19T20:05:25Z</time>
      </trkpt>
      <trkpt lat="44.89298" lon="6.64445">
        <ele>1307.6</ele>
        <time>2022-07-19T20:05:26Z</time>
      </trkpt>
      <trkpt lat="44.89296" lon="6.64448">
        <ele>1307.6</ele>
        <time>2022-07-19T20:05:27Z</time>
      </trkpt>
      <trkpt lat="44.89295" lon="6.6445">
        <ele>1307.8</ele>
        <time>2022-07-19T20:05:28Z</time>
      </trkpt>
      <trkpt lat="44.89294" lon="6.64453">
        <ele>1308</ele>
        <time>2022-07-19T20:05:29Z</time>
      </trkpt>
      <trkpt lat="44.89294" lon="6.64456">
        <ele>1308</ele>
        <time>2022-07-19T20:05:30Z</time>
      </trkpt>
      <trkpt lat="44.89293" lon="6.64459">
        <ele>1308.4</ele>
        <time>2022-07-19T20:05:31Z</time>
      </trkpt>
      <trkpt lat="44.89291" lon="6.64462">
        <ele>1308.6</ele>
        <time>2022-07-19T20:05:32Z</time>
      </trkpt>
      <trkpt lat="44.8929" lon="6.64464">
        <ele>1308.8</ele>
        <time>2022-07-19T20:05:33Z</time>
      </trkpt>
      <trkpt lat="44.89289" lon="6.64467">
        <ele>1308.8</ele>
        <time>2022-07-19T20:05:34Z</time>
      </trkpt>
      <trkpt lat="44.89288" lon="6.64469">
        <ele>1309.2</ele>
        <time>2022-07-19T20:05:35Z</time>
      </trkpt>
      <trkpt lat="44.89286" lon="6.64471">
        <ele>1309.2</ele>
        <time>2022-07-19T20:05:36Z</time>
      </trkpt>
      <trkpt lat="44.89285" lon="6.64473">
        <ele>1309.4</ele>
        <time>2022-07-19T20:05:37Z</time>
      </trkpt>
      <trkpt lat="44.89284" lon="6.64476">
        <ele>1309.6</ele>
        <time>2022-07-19T20:05:38Z</time>
      </trkpt>
      <trkpt lat="44.89283" lon="6.64478">
        <ele>1309.6</ele>
        <time>2022-07-19T20:05:39Z</time>
      </trkpt>
      <trkpt lat="44.89282" lon="6.64481">
        <ele>1309.8</ele>
        <time>2022-07-19T20:05:40Z</time>
      </trkpt>
      <trkpt lat="44.89281" lon="6.64483">
        <ele>1309.8</ele>
        <time>2022-07-19T20:05:41Z</time>
      </trkpt>
      <trkpt lat="44.8928" lon="6.64485">
        <ele>1310.2</ele>
        <time>2022-07-19T20:05:42Z</time>
      </trkpt>
      <trkpt lat="44.89279" lon="6.64487">
        <ele>1310.2</ele>
        <time>2022-07-19T20:05:43Z</time>
      </trkpt>
      <trkpt lat="44.89279" lon="6.64489">
        <ele>1310.6</ele>
        <time>2022-07-19T20:05:44Z</time>
      </trkpt>
      <trkpt lat="44.89278" lon="6.64491">
        <ele>1310.8</ele>
        <time>2022-07-19T20:05:45Z</time>
      </trkpt>
      <trkpt lat="44.89277" lon="6.64494">
        <ele>1310.8</ele>
        <time>2022-07-19T20:05:46Z</time>
      </trkpt>
      <trkpt lat="44.89276" lon="6.64496">
        <ele>1311.2</ele>
        <time>2022-07-19T20:05:47Z</time>
      </trkpt>
      <trkpt lat="44.89275" lon="6.64499">
        <ele>1311.2</ele>
        <time>2022-07-19T20:05:48Z</time>
      </trkpt>
      <trkpt lat="44.89275" lon="6.64501">
        <ele>1311.4</ele>
        <time>2022-07-19T20:05:49Z</time>
      </trkpt>
      <trkpt lat="44.89274" lon="6.64504">
        <ele>1311.4</ele>
        <time>2022-07-19T20:05:50Z</time>
      </trkpt>
      <trkpt lat="44.89273" lon="6.64507">
        <ele>1311.4</ele>
        <time>2022-07-19T20:05:51Z</time>
      </trkpt>
      <trkpt lat="44.89273" lon="6.64509">
        <ele>1311.8</ele>
        <time>2022-07-19T20:05:52Z</time>
      </trkpt>
      <trkpt lat="44.89272" lon="6.64512">
        <ele>1311.8</ele>
        <time>2022-07-19T20:05:53Z</time>
      </trkpt>
      <trkpt lat="44.89272" lon="6.64515">
        <ele>1312.2</ele>
        <time>2022-07-19T20:05:54Z</time>
      </trkpt>
      <trkpt lat="44.89272" lon="6.64518">
        <ele>1312.2</ele>
        <time>2022-07-19T20:05:55Z</time>
      </trkpt>
      <trkpt lat="44.89271" lon="6.64521">
        <ele>1312.4</ele>
        <time>2022-07-19T20:05:56Z</time>
      </trkpt>
      <trkpt lat="44.89271" lon="6.64524">
        <ele>1312.4</ele>
        <time>2022-07-19T20:05:57Z</time>
      </trkpt>
      <trkpt lat="44.89271" lon="6.64527">
        <ele>1312.4</ele>
        <time>2022-07-19T20:05:58Z</time>
      </trkpt>
      <trkpt lat="44.8927" lon="6.6453">
        <ele>1312.6</ele>
        <time>2022-07-19T20:05:59Z</time>
      </trkpt>
      <trkpt lat="44.8927" lon="6.64533">
        <ele>1312.6</ele>
        <time>2022-07-19T20:06:00Z</time>
      </trkpt>
      <trkpt lat="44.89269" lon="6.64536">
        <ele>1312.6</ele>
        <time>2022-07-19T20:06:01Z</time>
      </trkpt>
      <trkpt lat="44.89269" lon="6.64539">
        <ele>1313</ele>
        <time>2022-07-19T20:06:02Z</time>
      </trkpt>
      <trkpt lat="44.89268" lon="6.64542">
        <ele>1313</ele>
        <time>2022-07-19T20:06:03Z</time>
      </trkpt>
      <trkpt lat="44.89267" lon="6.64545">
        <ele>1313.4</ele>
        <time>2022-07-19T20:06:04Z</time>
      </trkpt>
      <trkpt lat="44.89267" lon="6.64548">
        <ele>1313.4</ele>
        <time>2022-07-19T20:06:05Z</time>
      </trkpt>
      <trkpt lat="44.89266" lon="6.64551">
        <ele>1313.6</ele>
        <time>2022-07-19T20:06:06Z</time>
      </trkpt>
      <trkpt lat="44.89265" lon="6.64553">
        <ele>1313.6</ele>
        <time>2022-07-19T20:06:07Z</time>
      </trkpt>
      <trkpt lat="44.89264" lon="6.64556">
        <ele>1314</ele>
        <time>2022-07-19T20:06:08Z</time>
      </trkpt>
      <trkpt lat="44.89263" lon="6.64558">
        <ele>1314</ele>
        <time>2022-07-19T20:06:09Z</time>
      </trkpt>
      <trkpt lat="44.89262" lon="6.64561">
        <ele>1314.2</ele>
        <time>2022-07-19T20:06:10Z</time>
      </trkpt>
      <trkpt lat="44.89261" lon="6.64563">
        <ele>1314.4</ele>
        <time>2022-07-19T20:06:11Z</time>
      </trkpt>
      <trkpt lat="44.8926" lon="6.64565">
        <ele>1314.4</ele>
        <time>2022-07-19T20:06:12Z</time>
      </trkpt>
      <trkpt lat="44.89258" lon="6.64568">
        <ele>1314.8</ele>
        <time>2022-07-19T20:06:13Z</time>
      </trkpt>
      <trkpt lat="44.89257" lon="6.6457">
        <ele>1314.8</ele>
        <time>2022-07-19T20:06:14Z</time>
      </trkpt>
      <trkpt lat="44.89256" lon="6.64572">
        <ele>1315.2</ele>
        <time>2022-07-19T20:06:15Z</time>
      </trkpt>
      <trkpt lat="44.89255" lon="6.64573">
        <ele>1315.2</ele>
        <time>2022-07-19T20:06:16Z</time>
      </trkpt>
      <trkpt lat="44.89254" lon="6.64576">
        <ele>1315.4</ele>
        <time>2022-07-19T20:06:17Z</time>
      </trkpt>
      <trkpt lat="44.89252" lon="6.64578">
        <ele>1315.4</ele>
        <time>2022-07-19T20:06:18Z</time>
      </trkpt>
      <trkpt lat="44.89251" lon="6.6458">
        <ele>1315.6</ele>
        <time>2022-07-19T20:06:19Z</time>
      </trkpt>
      <trkpt lat="44.89249" lon="6.64582">
        <ele>1315.6</ele>
        <time>2022-07-19T20:06:20Z</time>
      </trkpt>
      <trkpt lat="44.89248" lon="6.64585">
        <ele>1316</ele>
        <time>2022-07-19T20:06:21Z</time>
      </trkpt>
      <trkpt lat="44.89246" lon="6.64587">
        <ele>1316</ele>
        <time>2022-07-19T20:06:22Z</time>
      </trkpt>
      <trkpt lat="44.89244" lon="6.64588">
        <ele>1316.2</ele>
        <time>2022-07-19T20:06:23Z</time>
      </trkpt>
      <trkpt lat="44.89242" lon="6.6459">
        <ele>1316.2</ele>
        <time>2022-07-19T20:06:24Z</time>
      </trkpt>
      <trkpt lat="44.8924" lon="6.64592">
        <ele>1316.4</ele>
        <time>2022-07-19T20:06:25Z</time>
      </trkpt>
      <trkpt lat="44.89237" lon="6.64593">
        <ele>1316.4</ele>
        <time>2022-07-19T20:06:26Z</time>
      </trkpt>
      <trkpt lat="44.89235" lon="6.64594">
        <ele>1316.8</ele>
        <time>2022-07-19T20:06:27Z</time>
      </trkpt>
      <trkpt lat="44.89233" lon="6.64595">
        <ele>1316.8</ele>
        <time>2022-07-19T20:06:28Z</time>
      </trkpt>
      <trkpt lat="44.8923" lon="6.64596">
        <ele>1317</ele>
        <time>2022-07-19T20:06:29Z</time>
      </trkpt>
      <trkpt lat="44.89228" lon="6.64597">
        <ele>1317.2</ele>
        <time>2022-07-19T20:06:30Z</time>
      </trkpt>
      <trkpt lat="44.89225" lon="6.64597">
        <ele>1317.2</ele>
        <time>2022-07-19T20:06:31Z</time>
      </trkpt>
      <trkpt lat="44.89223" lon="6.64597">
        <ele>1317.6</ele>
        <time>2022-07-19T20:06:32Z</time>
      </trkpt>
      <trkpt lat="44.89221" lon="6.64598">
        <ele>1317.6</ele>
        <time>2022-07-19T20:06:33Z</time>
      </trkpt>
      <trkpt lat="44.89219" lon="6.64598">
        <ele>1317.8</ele>
        <time>2022-07-19T20:06:34Z</time>
      </trkpt>
      <trkpt lat="44.89217" lon="6.64599">
        <ele>1317.8</ele>
        <time>2022-07-19T20:06:35Z</time>
      </trkpt>
      <trkpt lat="44.89215" lon="6.646">
        <ele>1318</ele>
        <time>2022-07-19T20:06:36Z</time>
      </trkpt>
      <trkpt lat="44.89213" lon="6.64602">
        <ele>1318</ele>
        <time>2022-07-19T20:06:37Z</time>
      </trkpt>
      <trkpt lat="44.89212" lon="6.64604">
        <ele>1318.4</ele>
        <time>2022-07-19T20:06:38Z</time>
      </trkpt>
      <trkpt lat="44.8921" lon="6.64606">
        <ele>1318.4</ele>
        <time>2022-07-19T20:06:39Z</time>
      </trkpt>
      <trkpt lat="44.89209" lon="6.64608">
        <ele>1318.6</ele>
        <time>2022-07-19T20:06:40Z</time>
      </trkpt>
      <trkpt lat="44.89207" lon="6.6461">
        <ele>1318.6</ele>
        <time>2022-07-19T20:06:41Z</time>
      </trkpt>
      <trkpt lat="44.89206" lon="6.64612">
        <ele>1318.8</ele>
        <time>2022-07-19T20:06:42Z</time>
      </trkpt>
      <trkpt lat="44.89205" lon="6.64615">
        <ele>1318.8</ele>
        <time>2022-07-19T20:06:43Z</time>
      </trkpt>
      <trkpt lat="44.89203" lon="6.64617">
        <ele>1319.2</ele>
        <time>2022-07-19T20:06:44Z</time>
      </trkpt>
      <trkpt lat="44.89202" lon="6.6462">
        <ele>1319.2</ele>
        <time>2022-07-19T20:06:45Z</time>
      </trkpt>
      <trkpt lat="44.89201" lon="6.64622">
        <ele>1319.2</ele>
        <time>2022-07-19T20:06:46Z</time>
      </trkpt>
      <trkpt lat="44.892" lon="6.64625">
        <ele>1319.6</ele>
        <time>2022-07-19T20:06:47Z</time>
      </trkpt>
      <trkpt lat="44.89199" lon="6.64628">
        <ele>1319.6</ele>
        <time>2022-07-19T20:06:48Z</time>
      </trkpt>
      <trkpt lat="44.89198" lon="6.64631">
        <ele>1319.8</ele>
        <time>2022-07-19T20:06:49Z</time>
      </trkpt>
      <trkpt lat="44.89198" lon="6.64634">
        <ele>1319.8</ele>
        <time>2022-07-19T20:06:50Z</time>
      </trkpt>
      <trkpt lat="44.89197" lon="6.64637">
        <ele>1319.8</ele>
        <time>2022-07-19T20:06:51Z</time>
      </trkpt>
      <trkpt lat="44.89196" lon="6.6464">
        <ele>1320</ele>
        <time>2022-07-19T20:06:52Z</time>
      </trkpt>
      <trkpt lat="44.89196" lon="6.64643">
        <ele>1320</ele>
        <time>2022-07-19T20:06:53Z</time>
      </trkpt>
      <trkpt lat="44.89195" lon="6.64646">
        <ele>1320.4</ele>
        <time>2022-07-19T20:06:54Z</time>
      </trkpt>
      <trkpt lat="44.89194" lon="6.64648">
        <ele>1320.4</ele>
        <time>2022-07-19T20:06:55Z</time>
      </trkpt>
      <trkpt lat="44.89192" lon="6.64651">
        <ele>1320.6</ele>
        <time>2022-07-19T20:06:56Z</time>
      </trkpt>
      <trkpt lat="44.89191" lon="6.64653">
        <ele>1320.6</ele>
        <time>2022-07-19T20:06:57Z</time>
      </trkpt>
      <trkpt lat="44.8919" lon="6.64656">
        <ele>1321</ele>
        <time>2022-07-19T20:06:58Z</time>
      </trkpt>
      <trkpt lat="44.89189" lon="6.64659">
        <ele>1321</ele>
        <time>2022-07-19T20:06:59Z</time>
      </trkpt>
      <trkpt lat="44.89188" lon="6.64661">
        <ele>1321</ele>
        <time>2022-07-19T20:07:00Z</time>
      </trkpt>
      <trkpt lat="44.89187" lon="6.64663">
        <ele>1321.2</ele>
        <time>2022-07-19T20:07:01Z</time>
      </trkpt>
      <trkpt lat="44.89186" lon="6.64665">
        <ele>1321.2</ele>
        <time>2022-07-19T20:07:02Z</time>
      </trkpt>
      <trkpt lat="44.89184" lon="6.64667">
        <ele>1321.6</ele>
        <time>2022-07-19T20:07:03Z</time>
      </trkpt>
      <trkpt lat="44.89182" lon="6.64669">
        <ele>1321.6</ele>
        <time>2022-07-19T20:07:04Z</time>
      </trkpt>
      <trkpt lat="44.89181" lon="6.6467">
        <ele>1321.8</ele>
        <time>2022-07-19T20:07:05Z</time>
      </trkpt>
      <trkpt lat="44.89179" lon="6.64671">
        <ele>1322</ele>
        <time>2022-07-19T20:07:06Z</time>
      </trkpt>
      <trkpt lat="44.89178" lon="6.64671">
        <ele>1322</ele>
        <time>2022-07-19T20:07:07Z</time>
      </trkpt>
      <trkpt lat="44.89176" lon="6.64672">
        <ele>1322.4</ele>
        <time>2022-07-19T20:07:08Z</time>
      </trkpt>
      <trkpt lat="44.89175" lon="6.64673">
        <ele>1322.4</ele>
        <time>2022-07-19T20:07:09Z</time>
      </trkpt>
      <trkpt lat="44.89173" lon="6.64674">
        <ele>1322.6</ele>
        <time>2022-07-19T20:07:10Z</time>
      </trkpt>
      <trkpt lat="44.89171" lon="6.64675">
        <ele>1322.6</ele>
        <time>2022-07-19T20:07:11Z</time>
      </trkpt>
      <trkpt lat="44.8917" lon="6.64677">
        <ele>1323</ele>
        <time>2022-07-19T20:07:12Z</time>
      </trkpt>
      <trkpt lat="44.89168" lon="6.64678">
        <ele>1323</ele>
        <time>2022-07-19T20:07:13Z</time>
      </trkpt>
      <trkpt lat="44.89166" lon="6.64679">
        <ele>1323</ele>
        <time>2022-07-19T20:07:14Z</time>
      </trkpt>
      <trkpt lat="44.89164" lon="6.6468">
        <ele>1323.2</ele>
        <time>2022-07-19T20:07:15Z</time>
      </trkpt>
      <trkpt lat="44.89162" lon="6.64681">
        <ele>1323.2</ele>
        <time>2022-07-19T20:07:16Z</time>
      </trkpt>
      <trkpt lat="44.8916" lon="6.64683">
        <ele>1323.6</ele>
        <time>2022-07-19T20:07:17Z</time>
      </trkpt>
      <trkpt lat="44.89158" lon="6.64684">
        <ele>1323.6</ele>
        <time>2022-07-19T20:07:18Z</time>
      </trkpt>
      <trkpt lat="44.89156" lon="6.64685">
        <ele>1323.6</ele>
        <time>2022-07-19T20:07:19Z</time>
      </trkpt>
      <trkpt lat="44.89154" lon="6.64686">
        <ele>1323.6</ele>
        <time>2022-07-19T20:07:20Z</time>
      </trkpt>
      <trkpt lat="44.89151" lon="6.64687">
        <ele>1323.6</ele>
        <time>2022-07-19T20:07:21Z</time>
      </trkpt>
      <trkpt lat="44.89149" lon="6.64688">
        <ele>1323.8</ele>
        <time>2022-07-19T20:07:22Z</time>
      </trkpt>
      <trkpt lat="44.89147" lon="6.64689">
        <ele>1323.8</ele>
        <time>2022-07-19T20:07:23Z</time>
      </trkpt>
      <trkpt lat="44.89145" lon="6.6469">
        <ele>1323.8</ele>
        <time>2022-07-19T20:07:24Z</time>
      </trkpt>
      <trkpt lat="44.89142" lon="6.64691">
        <ele>1323.8</ele>
        <time>2022-07-19T20:07:25Z</time>
      </trkpt>
      <trkpt lat="44.89139" lon="6.64691">
        <ele>1323.8</ele>
        <time>2022-07-19T20:07:26Z</time>
      </trkpt>
      <trkpt lat="44.89136" lon="6.64692">
        <ele>1323.8</ele>
        <time>2022-07-19T20:07:27Z</time>
      </trkpt>
      <trkpt lat="44.89133" lon="6.64693">
        <ele>1324</ele>
        <time>2022-07-19T20:07:28Z</time>
      </trkpt>
      <trkpt lat="44.8913" lon="6.64693">
        <ele>1324</ele>
        <time>2022-07-19T20:07:29Z</time>
      </trkpt>
      <trkpt lat="44.89127" lon="6.64693">
        <ele>1324</ele>
        <time>2022-07-19T20:07:30Z</time>
      </trkpt>
      <trkpt lat="44.89124" lon="6.64693">
        <ele>1324</ele>
        <time>2022-07-19T20:07:31Z</time>
      </trkpt>
      <trkpt lat="44.89121" lon="6.64694">
        <ele>1324</ele>
        <time>2022-07-19T20:07:32Z</time>
      </trkpt>
      <trkpt lat="44.89117" lon="6.64695">
        <ele>1324</ele>
        <time>2022-07-19T20:07:33Z</time>
      </trkpt>
      <trkpt lat="44.89114" lon="6.64696">
        <ele>1324.2</ele>
        <time>2022-07-19T20:07:34Z</time>
      </trkpt>
      <trkpt lat="44.89111" lon="6.64696">
        <ele>1324.2</ele>
        <time>2022-07-19T20:07:35Z</time>
      </trkpt>
      <trkpt lat="44.89108" lon="6.64696">
        <ele>1324.2</ele>
        <time>2022-07-19T20:07:36Z</time>
      </trkpt>
      <trkpt lat="44.89105" lon="6.64697">
        <ele>1324.2</ele>
        <time>2022-07-19T20:07:37Z</time>
      </trkpt>
      <trkpt lat="44.89101" lon="6.64697">
        <ele>1324.4</ele>
        <time>2022-07-19T20:07:38Z</time>
      </trkpt>
      <trkpt lat="44.89098" lon="6.64697">
        <ele>1324.4</ele>
        <time>2022-07-19T20:07:39Z</time>
      </trkpt>
      <trkpt lat="44.89095" lon="6.64697">
        <ele>1324.4</ele>
        <time>2022-07-19T20:07:40Z</time>
      </trkpt>
      <trkpt lat="44.89092" lon="6.64697">
        <ele>1324.8</ele>
        <time>2022-07-19T20:07:41Z</time>
      </trkpt>
      <trkpt lat="44.89089" lon="6.64697">
        <ele>1324.8</ele>
        <time>2022-07-19T20:07:42Z</time>
      </trkpt>
      <trkpt lat="44.89087" lon="6.64697">
        <ele>1325</ele>
        <time>2022-07-19T20:07:43Z</time>
      </trkpt>
      <trkpt lat="44.89084" lon="6.64697">
        <ele>1325</ele>
        <time>2022-07-19T20:07:44Z</time>
      </trkpt>
      <trkpt lat="44.89082" lon="6.64697">
        <ele>1325.2</ele>
        <time>2022-07-19T20:07:45Z</time>
      </trkpt>
      <trkpt lat="44.8908" lon="6.64697">
        <ele>1325.2</ele>
        <time>2022-07-19T20:07:46Z</time>
      </trkpt>
      <trkpt lat="44.89077" lon="6.64698">
        <ele>1325.4</ele>
        <time>2022-07-19T20:07:47Z</time>
      </trkpt>
      <trkpt lat="44.89075" lon="6.64698">
        <ele>1325.4</ele>
        <time>2022-07-19T20:07:48Z</time>
      </trkpt>
      <trkpt lat="44.89074" lon="6.64699">
        <ele>1325.6</ele>
        <time>2022-07-19T20:07:49Z</time>
      </trkpt>
      <trkpt lat="44.89072" lon="6.647">
        <ele>1325.6</ele>
        <time>2022-07-19T20:07:50Z</time>
      </trkpt>
      <trkpt lat="44.8907" lon="6.64701">
        <ele>1326</ele>
        <time>2022-07-19T20:07:51Z</time>
      </trkpt>
      <trkpt lat="44.89068" lon="6.64702">
        <ele>1326</ele>
        <time>2022-07-19T20:07:52Z</time>
      </trkpt>
      <trkpt lat="44.89066" lon="6.64702">
        <ele>1326.2</ele>
        <time>2022-07-19T20:07:53Z</time>
      </trkpt>
      <trkpt lat="44.89064" lon="6.64703">
        <ele>1326.2</ele>
        <time>2022-07-19T20:07:54Z</time>
      </trkpt>
      <trkpt lat="44.89062" lon="6.64705">
        <ele>1326.6</ele>
        <time>2022-07-19T20:07:55Z</time>
      </trkpt>
      <trkpt lat="44.8906" lon="6.64707">
        <ele>1326.6</ele>
        <time>2022-07-19T20:07:56Z</time>
      </trkpt>
      <trkpt lat="44.89058" lon="6.64709">
        <ele>1327</ele>
        <time>2022-07-19T20:07:57Z</time>
      </trkpt>
      <trkpt lat="44.89056" lon="6.64711">
        <ele>1327</ele>
        <time>2022-07-19T20:07:58Z</time>
      </trkpt>
      <trkpt lat="44.89055" lon="6.64713">
        <ele>1327.2</ele>
        <time>2022-07-19T20:07:59Z</time>
      </trkpt>
      <trkpt lat="44.89053" lon="6.64715">
        <ele>1327.2</ele>
        <time>2022-07-19T20:08:00Z</time>
      </trkpt>
      <trkpt lat="44.89051" lon="6.64717">
        <ele>1327.6</ele>
        <time>2022-07-19T20:08:01Z</time>
      </trkpt>
      <trkpt lat="44.8905" lon="6.64719">
        <ele>1327.6</ele>
        <time>2022-07-19T20:08:02Z</time>
      </trkpt>
      <trkpt lat="44.89049" lon="6.64722">
        <ele>1327.8</ele>
        <time>2022-07-19T20:08:03Z</time>
      </trkpt>
      <trkpt lat="44.89048" lon="6.64725">
        <ele>1327.8</ele>
        <time>2022-07-19T20:08:04Z</time>
      </trkpt>
      <trkpt lat="44.89047" lon="6.64727">
        <ele>1327.8</ele>
        <time>2022-07-19T20:08:05Z</time>
      </trkpt>
      <trkpt lat="44.89045" lon="6.64729">
        <ele>1328.2</ele>
        <time>2022-07-19T20:08:06Z</time>
      </trkpt>
      <trkpt lat="44.89044" lon="6.64732">
        <ele>1328.6</ele>
        <time>2022-07-19T20:08:07Z</time>
      </trkpt>
      <trkpt lat="44.89043" lon="6.64734">
        <ele>1328.6</ele>
        <time>2022-07-19T20:08:08Z</time>
      </trkpt>
      <trkpt lat="44.89042" lon="6.64736">
        <ele>1328.8</ele>
        <time>2022-07-19T20:08:09Z</time>
      </trkpt>
      <trkpt lat="44.8904" lon="6.64739">
        <ele>1329</ele>
        <time>2022-07-19T20:08:10Z</time>
      </trkpt>
      <trkpt lat="44.89039" lon="6.64741">
        <ele>1329</ele>
        <time>2022-07-19T20:08:11Z</time>
      </trkpt>
      <trkpt lat="44.89038" lon="6.64743">
        <ele>1329.4</ele>
        <time>2022-07-19T20:08:12Z</time>
      </trkpt>
      <trkpt lat="44.89036" lon="6.64745">
        <ele>1329.4</ele>
        <time>2022-07-19T20:08:13Z</time>
      </trkpt>
      <trkpt lat="44.89035" lon="6.64748">
        <ele>1329.4</ele>
        <time>2022-07-19T20:08:14Z</time>
      </trkpt>
      <trkpt lat="44.89033" lon="6.6475">
        <ele>1329.6</ele>
        <time>2022-07-19T20:08:15Z</time>
      </trkpt>
      <trkpt lat="44.89031" lon="6.64751">
        <ele>1329.6</ele>
        <time>2022-07-19T20:08:16Z</time>
      </trkpt>
      <trkpt lat="44.8903" lon="6.64753">
        <ele>1329.8</ele>
        <time>2022-07-19T20:08:17Z</time>
      </trkpt>
      <trkpt lat="44.89028" lon="6.64755">
        <ele>1329.8</ele>
        <time>2022-07-19T20:08:18Z</time>
      </trkpt>
      <trkpt lat="44.89027" lon="6.64757">
        <ele>1330.2</ele>
        <time>2022-07-19T20:08:19Z</time>
      </trkpt>
      <trkpt lat="44.89025" lon="6.64758">
        <ele>1330.2</ele>
        <time>2022-07-19T20:08:20Z</time>
      </trkpt>
      <trkpt lat="44.89023" lon="6.6476">
        <ele>1330.4</ele>
        <time>2022-07-19T20:08:21Z</time>
      </trkpt>
      <trkpt lat="44.89021" lon="6.64762">
        <ele>1330.4</ele>
        <time>2022-07-19T20:08:22Z</time>
      </trkpt>
      <trkpt lat="44.8902" lon="6.64763">
        <ele>1330.8</ele>
        <time>2022-07-19T20:08:23Z</time>
      </trkpt>
      <trkpt lat="44.89018" lon="6.64764">
        <ele>1330.8</ele>
        <time>2022-07-19T20:08:24Z</time>
      </trkpt>
      <trkpt lat="44.89017" lon="6.64765">
        <ele>1331</ele>
        <time>2022-07-19T20:08:25Z</time>
      </trkpt>
      <trkpt lat="44.89015" lon="6.64766">
        <ele>1331</ele>
        <time>2022-07-19T20:08:26Z</time>
      </trkpt>
      <trkpt lat="44.89012" lon="6.64767">
        <ele>1331.2</ele>
        <time>2022-07-19T20:08:27Z</time>
      </trkpt>
      <trkpt lat="44.8901" lon="6.64768">
        <ele>1331.2</ele>
        <time>2022-07-19T20:08:28Z</time>
      </trkpt>
      <trkpt lat="44.89007" lon="6.64769">
        <ele>1331.2</ele>
        <time>2022-07-19T20:08:29Z</time>
      </trkpt>
      <trkpt lat="44.89005" lon="6.6477">
        <ele>1331.6</ele>
        <time>2022-07-19T20:08:30Z</time>
      </trkpt>
      <trkpt lat="44.89002" lon="6.64771">
        <ele>1331.6</ele>
        <time>2022-07-19T20:08:31Z</time>
      </trkpt>
      <trkpt lat="44.89" lon="6.64771">
        <ele>1331.6</ele>
        <time>2022-07-19T20:08:32Z</time>
      </trkpt>
      <trkpt lat="44.88998" lon="6.64772">
        <ele>1331.8</ele>
        <time>2022-07-19T20:08:33Z</time>
      </trkpt>
      <trkpt lat="44.88996" lon="6.64772">
        <ele>1331.8</ele>
        <time>2022-07-19T20:08:34Z</time>
      </trkpt>
      <trkpt lat="44.88993" lon="6.64772">
        <ele>1332.2</ele>
        <time>2022-07-19T20:08:35Z</time>
      </trkpt>
      <trkpt lat="44.88991" lon="6.64772">
        <ele>1332.2</ele>
        <time>2022-07-19T20:08:36Z</time>
      </trkpt>
      <trkpt lat="44.8899" lon="6.64771">
        <ele>1332.4</ele>
        <time>2022-07-19T20:08:37Z</time>
      </trkpt>
      <trkpt lat="44.88988" lon="6.64771">
        <ele>1332.4</ele>
        <time>2022-07-19T20:08:38Z</time>
      </trkpt>
      <trkpt lat="44.88986" lon="6.64771">
        <ele>1332.8</ele>
        <time>2022-07-19T20:08:39Z</time>
      </trkpt>
      <trkpt lat="44.88983" lon="6.64771">
        <ele>1332.8</ele>
        <time>2022-07-19T20:08:40Z</time>
      </trkpt>
      <trkpt lat="44.88981" lon="6.64771">
        <ele>1332.8</ele>
        <time>2022-07-19T20:08:41Z</time>
      </trkpt>
      <trkpt lat="44.88979" lon="6.6477">
        <ele>1333</ele>
        <time>2022-07-19T20:08:42Z</time>
      </trkpt>
      <trkpt lat="44.88977" lon="6.6477">
        <ele>1333</ele>
        <time>2022-07-19T20:08:43Z</time>
      </trkpt>
      <trkpt lat="44.88974" lon="6.64769">
        <ele>1333.4</ele>
        <time>2022-07-19T20:08:44Z</time>
      </trkpt>
      <trkpt lat="44.88972" lon="6.64768">
        <ele>1333.6</ele>
        <time>2022-07-19T20:08:45Z</time>
      </trkpt>
      <trkpt lat="44.8897" lon="6.64767">
        <ele>1333.6</ele>
        <time>2022-07-19T20:08:46Z</time>
      </trkpt>
      <trkpt lat="44.88968" lon="6.64766">
        <ele>1333.8</ele>
        <time>2022-07-19T20:08:47Z</time>
      </trkpt>
      <trkpt lat="44.88965" lon="6.64765">
        <ele>1334</ele>
        <time>2022-07-19T20:08:48Z</time>
      </trkpt>
      <trkpt lat="44.88963" lon="6.64763">
        <ele>1334</ele>
        <time>2022-07-19T20:08:49Z</time>
      </trkpt>
      <trkpt lat="44.88961" lon="6.64763">
        <ele>1334.4</ele>
        <time>2022-07-19T20:08:50Z</time>
      </trkpt>
      <trkpt lat="44.88959" lon="6.64762">
        <ele>1334.4</ele>
        <time>2022-07-19T20:08:51Z</time>
      </trkpt>
      <trkpt lat="44.88957" lon="6.64761">
        <ele>1334.8</ele>
        <time>2022-07-19T20:08:52Z</time>
      </trkpt>
      <trkpt lat="44.88955" lon="6.6476">
        <ele>1334.8</ele>
        <time>2022-07-19T20:08:53Z</time>
      </trkpt>
      <trkpt lat="44.88953" lon="6.64759">
        <ele>1335.2</ele>
        <time>2022-07-19T20:08:54Z</time>
      </trkpt>
      <trkpt lat="44.88951" lon="6.64758">
        <ele>1335.4</ele>
        <time>2022-07-19T20:08:55Z</time>
      </trkpt>
      <trkpt lat="44.88949" lon="6.64757">
        <ele>1335.6</ele>
        <time>2022-07-19T20:08:56Z</time>
      </trkpt>
      <trkpt lat="44.88946" lon="6.64756">
        <ele>1335.8</ele>
        <time>2022-07-19T20:08:57Z</time>
      </trkpt>
      <trkpt lat="44.88944" lon="6.64756">
        <ele>1335.8</ele>
        <time>2022-07-19T20:08:58Z</time>
      </trkpt>
      <trkpt lat="44.88942" lon="6.64756">
        <ele>1336.2</ele>
        <time>2022-07-19T20:08:59Z</time>
      </trkpt>
      <trkpt lat="44.8894" lon="6.64755">
        <ele>1336.2</ele>
        <time>2022-07-19T20:09:00Z</time>
      </trkpt>
      <trkpt lat="44.88938" lon="6.64755">
        <ele>1336.2</ele>
        <time>2022-07-19T20:09:01Z</time>
      </trkpt>
      <trkpt lat="44.88936" lon="6.64755">
        <ele>1336.4</ele>
        <time>2022-07-19T20:09:02Z</time>
      </trkpt>
      <trkpt lat="44.88934" lon="6.64755">
        <ele>1336.4</ele>
        <time>2022-07-19T20:09:03Z</time>
      </trkpt>
      <trkpt lat="44.88932" lon="6.64754">
        <ele>1336.8</ele>
        <time>2022-07-19T20:09:04Z</time>
      </trkpt>
      <trkpt lat="44.8893" lon="6.64754">
        <ele>1336.8</ele>
        <time>2022-07-19T20:09:05Z</time>
      </trkpt>
      <trkpt lat="44.88928" lon="6.64755">
        <ele>1336.8</ele>
        <time>2022-07-19T20:09:06Z</time>
      </trkpt>
      <trkpt lat="44.88926" lon="6.64755">
        <ele>1337</ele>
        <time>2022-07-19T20:09:07Z</time>
      </trkpt>
      <trkpt lat="44.88924" lon="6.64755">
        <ele>1337</ele>
        <time>2022-07-19T20:09:08Z</time>
      </trkpt>
      <trkpt lat="44.88922" lon="6.64756">
        <ele>1337.2</ele>
        <time>2022-07-19T20:09:09Z</time>
      </trkpt>
      <trkpt lat="44.8892" lon="6.64756">
        <ele>1337.2</ele>
        <time>2022-07-19T20:09:10Z</time>
      </trkpt>
      <trkpt lat="44.88917" lon="6.64757">
        <ele>1337.2</ele>
        <time>2022-07-19T20:09:11Z</time>
      </trkpt>
      <trkpt lat="44.88915" lon="6.64757">
        <ele>1337.6</ele>
        <time>2022-07-19T20:09:12Z</time>
      </trkpt>
      <trkpt lat="44.88912" lon="6.64758">
        <ele>1337.6</ele>
        <time>2022-07-19T20:09:13Z</time>
      </trkpt>
      <trkpt lat="44.8891" lon="6.64759">
        <ele>1337.8</ele>
        <time>2022-07-19T20:09:14Z</time>
      </trkpt>
      <trkpt lat="44.88908" lon="6.6476">
        <ele>1337.8</ele>
        <time>2022-07-19T20:09:15Z</time>
      </trkpt>
      <trkpt lat="44.88905" lon="6.64761">
        <ele>1338</ele>
        <time>2022-07-19T20:09:16Z</time>
      </trkpt>
      <trkpt lat="44.88903" lon="6.64762">
        <ele>1338</ele>
        <time>2022-07-19T20:09:17Z</time>
      </trkpt>
      <trkpt lat="44.88901" lon="6.64763">
        <ele>1338.4</ele>
        <time>2022-07-19T20:09:18Z</time>
      </trkpt>
      <trkpt lat="44.88899" lon="6.64763">
        <ele>1338.4</ele>
        <time>2022-07-19T20:09:19Z</time>
      </trkpt>
      <trkpt lat="44.88896" lon="6.64764">
        <ele>1338.8</ele>
        <time>2022-07-19T20:09:20Z</time>
      </trkpt>
      <trkpt lat="44.88894" lon="6.64765">
        <ele>1338.8</ele>
        <time>2022-07-19T20:09:21Z</time>
      </trkpt>
      <trkpt lat="44.88892" lon="6.64765">
        <ele>1339</ele>
        <time>2022-07-19T20:09:22Z</time>
      </trkpt>
      <trkpt lat="44.8889" lon="6.64766">
        <ele>1339</ele>
        <time>2022-07-19T20:09:23Z</time>
      </trkpt>
      <trkpt lat="44.88888" lon="6.64766">
        <ele>1339.2</ele>
        <time>2022-07-19T20:09:24Z</time>
      </trkpt>
      <trkpt lat="44.88886" lon="6.64767">
        <ele>1339.2</ele>
        <time>2022-07-19T20:09:25Z</time>
      </trkpt>
      <trkpt lat="44.88884" lon="6.64768">
        <ele>1339.2</ele>
        <time>2022-07-19T20:09:26Z</time>
      </trkpt>
      <trkpt lat="44.88881" lon="6.64768">
        <ele>1339.6</ele>
        <time>2022-07-19T20:09:27Z</time>
      </trkpt>
      <trkpt lat="44.88879" lon="6.64769">
        <ele>1339.6</ele>
        <time>2022-07-19T20:09:28Z</time>
      </trkpt>
      <trkpt lat="44.88877" lon="6.6477">
        <ele>1339.8</ele>
        <time>2022-07-19T20:09:29Z</time>
      </trkpt>
      <trkpt lat="44.88875" lon="6.6477">
        <ele>1339.8</ele>
        <time>2022-07-19T20:09:30Z</time>
      </trkpt>
      <trkpt lat="44.88873" lon="6.64771">
        <ele>1339.8</ele>
        <time>2022-07-19T20:09:31Z</time>
      </trkpt>
      <trkpt lat="44.88871" lon="6.64771">
        <ele>1340.2</ele>
        <time>2022-07-19T20:09:32Z</time>
      </trkpt>
      <trkpt lat="44.88869" lon="6.64772">
        <ele>1340.2</ele>
        <time>2022-07-19T20:09:33Z</time>
      </trkpt>
      <trkpt lat="44.88866" lon="6.64772">
        <ele>1340.4</ele>
        <time>2022-07-19T20:09:34Z</time>
      </trkpt>
      <trkpt lat="44.88864" lon="6.64773">
        <ele>1340.4</ele>
        <time>2022-07-19T20:09:35Z</time>
      </trkpt>
      <trkpt lat="44.88862" lon="6.64773">
        <ele>1340.8</ele>
        <time>2022-07-19T20:09:36Z</time>
      </trkpt>
      <trkpt lat="44.8886" lon="6.64773">
        <ele>1340.8</ele>
        <time>2022-07-19T20:09:37Z</time>
      </trkpt>
      <trkpt lat="44.88857" lon="6.64773">
        <ele>1341.2</ele>
        <time>2022-07-19T20:09:38Z</time>
      </trkpt>
      <trkpt lat="44.88855" lon="6.64773">
        <ele>1341.2</ele>
        <time>2022-07-19T20:09:39Z</time>
      </trkpt>
      <trkpt lat="44.88853" lon="6.64773">
        <ele>1341.2</ele>
        <time>2022-07-19T20:09:40Z</time>
      </trkpt>
      <trkpt lat="44.88851" lon="6.64774">
        <ele>1341.4</ele>
        <time>2022-07-19T20:09:41Z</time>
      </trkpt>
      <trkpt lat="44.88849" lon="6.64774">
        <ele>1341.4</ele>
        <time>2022-07-19T20:09:42Z</time>
      </trkpt>
      <trkpt lat="44.88847" lon="6.64774">
        <ele>1341.8</ele>
        <time>2022-07-19T20:09:43Z</time>
      </trkpt>
      <trkpt lat="44.88845" lon="6.64774">
        <ele>1341.8</ele>
        <time>2022-07-19T20:09:44Z</time>
      </trkpt>
      <trkpt lat="44.88843" lon="6.64774">
        <ele>1342</ele>
        <time>2022-07-19T20:09:45Z</time>
      </trkpt>
      <trkpt lat="44.8884" lon="6.64774">
        <ele>1342</ele>
        <time>2022-07-19T20:09:46Z</time>
      </trkpt>
      <trkpt lat="44.88838" lon="6.64774">
        <ele>1342.4</ele>
        <time>2022-07-19T20:09:47Z</time>
      </trkpt>
      <trkpt lat="44.88836" lon="6.64774">
        <ele>1342.6</ele>
        <time>2022-07-19T20:09:48Z</time>
      </trkpt>
      <trkpt lat="44.88834" lon="6.64773">
        <ele>1342.8</ele>
        <time>2022-07-19T20:09:49Z</time>
      </trkpt>
      <trkpt lat="44.88829" lon="6.64773">
        <ele>1342.8</ele>
        <time>2022-07-19T20:09:50Z</time>
      </trkpt>
      <trkpt lat="44.88827" lon="6.64773">
        <ele>1343.2</ele>
        <time>2022-07-19T20:09:51Z</time>
      </trkpt>
      <trkpt lat="44.88825" lon="6.64773">
        <ele>1343.2</ele>
        <time>2022-07-19T20:09:52Z</time>
      </trkpt>
      <trkpt lat="44.88823" lon="6.64773">
        <ele>1343.4</ele>
        <time>2022-07-19T20:09:53Z</time>
      </trkpt>
      <trkpt lat="44.88821" lon="6.64773">
        <ele>1343.4</ele>
        <time>2022-07-19T20:09:54Z</time>
      </trkpt>
      <trkpt lat="44.88819" lon="6.64773">
        <ele>1343.4</ele>
        <time>2022-07-19T20:09:55Z</time>
      </trkpt>
      <trkpt lat="44.88817" lon="6.64773">
        <ele>1343.6</ele>
        <time>2022-07-19T20:09:56Z</time>
      </trkpt>
      <trkpt lat="44.88814" lon="6.64774">
        <ele>1343.6</ele>
        <time>2022-07-19T20:09:57Z</time>
      </trkpt>
      <trkpt lat="44.88812" lon="6.64774">
        <ele>1344</ele>
        <time>2022-07-19T20:09:58Z</time>
      </trkpt>
      <trkpt lat="44.8881" lon="6.64774">
        <ele>1344</ele>
        <time>2022-07-19T20:09:59Z</time>
      </trkpt>
      <trkpt lat="44.88808" lon="6.64775">
        <ele>1344</ele>
        <time>2022-07-19T20:10:00Z</time>
      </trkpt>
      <trkpt lat="44.88806" lon="6.64775">
        <ele>1344.2</ele>
        <time>2022-07-19T20:10:01Z</time>
      </trkpt>
      <trkpt lat="44.88804" lon="6.64775">
        <ele>1344.2</ele>
        <time>2022-07-19T20:10:02Z</time>
      </trkpt>
      <trkpt lat="44.88801" lon="6.64775">
        <ele>1344.4</ele>
        <time>2022-07-19T20:10:03Z</time>
      </trkpt>
      <trkpt lat="44.88799" lon="6.64775">
        <ele>1344.4</ele>
        <time>2022-07-19T20:10:04Z</time>
      </trkpt>
      <trkpt lat="44.88797" lon="6.64775">
        <ele>1344.4</ele>
        <time>2022-07-19T20:10:05Z</time>
      </trkpt>
      <trkpt lat="44.88795" lon="6.64775">
        <ele>1344.8</ele>
        <time>2022-07-19T20:10:06Z</time>
      </trkpt>
      <trkpt lat="44.88794" lon="6.64776">
        <ele>1345</ele>
        <time>2022-07-19T20:10:07Z</time>
      </trkpt>
      <trkpt lat="44.88792" lon="6.64776">
        <ele>1345</ele>
        <time>2022-07-19T20:10:08Z</time>
      </trkpt>
      <trkpt lat="44.8879" lon="6.64777">
        <ele>1345.2</ele>
        <time>2022-07-19T20:10:09Z</time>
      </trkpt>
      <trkpt lat="44.88787" lon="6.64777">
        <ele>1345.2</ele>
        <time>2022-07-19T20:10:10Z</time>
      </trkpt>
      <trkpt lat="44.88785" lon="6.64777">
        <ele>1345.6</ele>
        <time>2022-07-19T20:10:11Z</time>
      </trkpt>
      <trkpt lat="44.88783" lon="6.64777">
        <ele>1345.6</ele>
        <time>2022-07-19T20:10:12Z</time>
      </trkpt>
      <trkpt lat="44.88781" lon="6.64777">
        <ele>1345.8</ele>
        <time>2022-07-19T20:10:13Z</time>
      </trkpt>
      <trkpt lat="44.88779" lon="6.64778">
        <ele>1345.8</ele>
        <time>2022-07-19T20:10:14Z</time>
      </trkpt>
      <trkpt lat="44.88777" lon="6.64778">
        <ele>1346</ele>
        <time>2022-07-19T20:10:15Z</time>
      </trkpt>
      <trkpt lat="44.88775" lon="6.64779">
        <ele>1346</ele>
        <time>2022-07-19T20:10:16Z</time>
      </trkpt>
      <trkpt lat="44.88773" lon="6.6478">
        <ele>1346.4</ele>
        <time>2022-07-19T20:10:17Z</time>
      </trkpt>
      <trkpt lat="44.88771" lon="6.6478">
        <ele>1346.4</ele>
        <time>2022-07-19T20:10:18Z</time>
      </trkpt>
      <trkpt lat="44.88769" lon="6.6478">
        <ele>1346.6</ele>
        <time>2022-07-19T20:10:19Z</time>
      </trkpt>
      <trkpt lat="44.88767" lon="6.6478">
        <ele>1346.6</ele>
        <time>2022-07-19T20:10:20Z</time>
      </trkpt>
      <trkpt lat="44.88765" lon="6.64781">
        <ele>1347</ele>
        <time>2022-07-19T20:10:21Z</time>
      </trkpt>
      <trkpt lat="44.88763" lon="6.64781">
        <ele>1347</ele>
        <time>2022-07-19T20:10:22Z</time>
      </trkpt>
      <trkpt lat="44.88761" lon="6.64782">
        <ele>1347.2</ele>
        <time>2022-07-19T20:10:23Z</time>
      </trkpt>
      <trkpt lat="44.88759" lon="6.64782">
        <ele>1347.2</ele>
        <time>2022-07-19T20:10:24Z</time>
      </trkpt>
      <trkpt lat="44.88757" lon="6.64782">
        <ele>1347.4</ele>
        <time>2022-07-19T20:10:25Z</time>
      </trkpt>
      <trkpt lat="44.88755" lon="6.64783">
        <ele>1347.4</ele>
        <time>2022-07-19T20:10:26Z</time>
      </trkpt>
      <trkpt lat="44.88753" lon="6.64783">
        <ele>1347.8</ele>
        <time>2022-07-19T20:10:27Z</time>
      </trkpt>
      <trkpt lat="44.88752" lon="6.64783">
        <ele>1347.8</ele>
        <time>2022-07-19T20:10:28Z</time>
      </trkpt>
      <trkpt lat="44.8875" lon="6.64784">
        <ele>1348</ele>
        <time>2022-07-19T20:10:29Z</time>
      </trkpt>
      <trkpt lat="44.88748" lon="6.64784">
        <ele>1348.2</ele>
        <time>2022-07-19T20:10:30Z</time>
      </trkpt>
      <trkpt lat="44.88747" lon="6.64784">
        <ele>1348.2</ele>
        <time>2022-07-19T20:10:31Z</time>
      </trkpt>
      <trkpt lat="44.88745" lon="6.64785">
        <ele>1348.4</ele>
        <time>2022-07-19T20:10:32Z</time>
      </trkpt>
      <trkpt lat="44.88743" lon="6.64785">
        <ele>1348.4</ele>
        <time>2022-07-19T20:10:33Z</time>
      </trkpt>
      <trkpt lat="44.88742" lon="6.64786">
        <ele>1348.6</ele>
        <time>2022-07-19T20:10:34Z</time>
      </trkpt>
      <trkpt lat="44.8874" lon="6.64786">
        <ele>1348.6</ele>
        <time>2022-07-19T20:10:35Z</time>
      </trkpt>
      <trkpt lat="44.88738" lon="6.64786">
        <ele>1349</ele>
        <time>2022-07-19T20:10:36Z</time>
      </trkpt>
      <trkpt lat="44.88736" lon="6.64787">
        <ele>1349</ele>
        <time>2022-07-19T20:10:37Z</time>
      </trkpt>
      <trkpt lat="44.88735" lon="6.64787">
        <ele>1349.2</ele>
        <time>2022-07-19T20:10:38Z</time>
      </trkpt>
      <trkpt lat="44.88733" lon="6.64788">
        <ele>1349.2</ele>
        <time>2022-07-19T20:10:39Z</time>
      </trkpt>
      <trkpt lat="44.88731" lon="6.64788">
        <ele>1349.2</ele>
        <time>2022-07-19T20:10:40Z</time>
      </trkpt>
      <trkpt lat="44.8873" lon="6.64789">
        <ele>1349.6</ele>
        <time>2022-07-19T20:10:41Z</time>
      </trkpt>
      <trkpt lat="44.88728" lon="6.64789">
        <ele>1349.6</ele>
        <time>2022-07-19T20:10:42Z</time>
      </trkpt>
      <trkpt lat="44.88727" lon="6.6479">
        <ele>1350</ele>
        <time>2022-07-19T20:10:43Z</time>
      </trkpt>
      <trkpt lat="44.88725" lon="6.64791">
        <ele>1350.2</ele>
        <time>2022-07-19T20:10:44Z</time>
      </trkpt>
      <trkpt lat="44.88724" lon="6.64791">
        <ele>1350.2</ele>
        <time>2022-07-19T20:10:45Z</time>
      </trkpt>
      <trkpt lat="44.88723" lon="6.64792">
        <ele>1350.8</ele>
        <time>2022-07-19T20:10:47Z</time>
      </trkpt>
      <trkpt lat="44.88721" lon="6.64793">
        <ele>1350.8</ele>
        <time>2022-07-19T20:10:48Z</time>
      </trkpt>
      <trkpt lat="44.8872" lon="6.64794">
        <ele>1351.2</ele>
        <time>2022-07-19T20:10:49Z</time>
      </trkpt>
      <trkpt lat="44.88718" lon="6.64794">
        <ele>1351.4</ele>
        <time>2022-07-19T20:10:50Z</time>
      </trkpt>
      <trkpt lat="44.88717" lon="6.64795">
        <ele>1351.4</ele>
        <time>2022-07-19T20:10:51Z</time>
      </trkpt>
      <trkpt lat="44.88715" lon="6.64796">
        <ele>1351.6</ele>
        <time>2022-07-19T20:10:52Z</time>
      </trkpt>
      <trkpt lat="44.88714" lon="6.64797">
        <ele>1351.6</ele>
        <time>2022-07-19T20:10:53Z</time>
      </trkpt>
      <trkpt lat="44.88712" lon="6.64797">
        <ele>1352</ele>
        <time>2022-07-19T20:10:54Z</time>
      </trkpt>
      <trkpt lat="44.88711" lon="6.64798">
        <ele>1352</ele>
        <time>2022-07-19T20:10:55Z</time>
      </trkpt>
      <trkpt lat="44.88709" lon="6.64798">
        <ele>1352.4</ele>
        <time>2022-07-19T20:10:56Z</time>
      </trkpt>
      <trkpt lat="44.88708" lon="6.64799">
        <ele>1352.4</ele>
        <time>2022-07-19T20:10:57Z</time>
      </trkpt>
      <trkpt lat="44.88706" lon="6.648">
        <ele>1352.6</ele>
        <time>2022-07-19T20:10:58Z</time>
      </trkpt>
      <trkpt lat="44.88705" lon="6.64801">
        <ele>1352.6</ele>
        <time>2022-07-19T20:10:59Z</time>
      </trkpt>
      <trkpt lat="44.88703" lon="6.64801">
        <ele>1352.8</ele>
        <time>2022-07-19T20:11:00Z</time>
      </trkpt>
      <trkpt lat="44.88701" lon="6.64803">
        <ele>1352.8</ele>
        <time>2022-07-19T20:11:01Z</time>
      </trkpt>
      <trkpt lat="44.887" lon="6.64804">
        <ele>1353.2</ele>
        <time>2022-07-19T20:11:02Z</time>
      </trkpt>
      <trkpt lat="44.88698" lon="6.64805">
        <ele>1353.2</ele>
        <time>2022-07-19T20:11:03Z</time>
      </trkpt>
      <trkpt lat="44.88697" lon="6.64806">
        <ele>1353.4</ele>
        <time>2022-07-19T20:11:04Z</time>
      </trkpt>
      <trkpt lat="44.88695" lon="6.64807">
        <ele>1353.4</ele>
        <time>2022-07-19T20:11:05Z</time>
      </trkpt>
      <trkpt lat="44.88694" lon="6.64807">
        <ele>1353.8</ele>
        <time>2022-07-19T20:11:06Z</time>
      </trkpt>
      <trkpt lat="44.88692" lon="6.64808">
        <ele>1353.8</ele>
        <time>2022-07-19T20:11:07Z</time>
      </trkpt>
      <trkpt lat="44.8869" lon="6.6481">
        <ele>1354</ele>
        <time>2022-07-19T20:11:08Z</time>
      </trkpt>
      <trkpt lat="44.88689" lon="6.6481">
        <ele>1354</ele>
        <time>2022-07-19T20:11:09Z</time>
      </trkpt>
      <trkpt lat="44.88687" lon="6.64812">
        <ele>1354.2</ele>
        <time>2022-07-19T20:11:10Z</time>
      </trkpt>
      <trkpt lat="44.88685" lon="6.64813">
        <ele>1354.2</ele>
        <time>2022-07-19T20:11:11Z</time>
      </trkpt>
      <trkpt lat="44.88683" lon="6.64814">
        <ele>1354.4</ele>
        <time>2022-07-19T20:11:12Z</time>
      </trkpt>
      <trkpt lat="44.88681" lon="6.64815">
        <ele>1354.4</ele>
        <time>2022-07-19T20:11:13Z</time>
      </trkpt>
      <trkpt lat="44.8868" lon="6.64816">
        <ele>1354.6</ele>
        <time>2022-07-19T20:11:14Z</time>
      </trkpt>
      <trkpt lat="44.88678" lon="6.64816">
        <ele>1354.6</ele>
        <time>2022-07-19T20:11:15Z</time>
      </trkpt>
      <trkpt lat="44.88677" lon="6.64817">
        <ele>1355</ele>
        <time>2022-07-19T20:11:16Z</time>
      </trkpt>
      <trkpt lat="44.88675" lon="6.64819">
        <ele>1355</ele>
        <time>2022-07-19T20:11:17Z</time>
      </trkpt>
      <trkpt lat="44.88673" lon="6.6482">
        <ele>1355.2</ele>
        <time>2022-07-19T20:11:18Z</time>
      </trkpt>
      <trkpt lat="44.88672" lon="6.64821">
        <ele>1355.2</ele>
        <time>2022-07-19T20:11:19Z</time>
      </trkpt>
      <trkpt lat="44.8867" lon="6.64822">
        <ele>1355.6</ele>
        <time>2022-07-19T20:11:20Z</time>
      </trkpt>
      <trkpt lat="44.88669" lon="6.64824">
        <ele>1355.6</ele>
        <time>2022-07-19T20:11:21Z</time>
      </trkpt>
      <trkpt lat="44.88668" lon="6.64825">
        <ele>1355.8</ele>
        <time>2022-07-19T20:11:22Z</time>
      </trkpt>
      <trkpt lat="44.88666" lon="6.64827">
        <ele>1355.8</ele>
        <time>2022-07-19T20:11:23Z</time>
      </trkpt>
      <trkpt lat="44.88665" lon="6.64828">
        <ele>1356.2</ele>
        <time>2022-07-19T20:11:24Z</time>
      </trkpt>
      <trkpt lat="44.88664" lon="6.6483">
        <ele>1356.2</ele>
        <time>2022-07-19T20:11:25Z</time>
      </trkpt>
      <trkpt lat="44.88662" lon="6.64832">
        <ele>1356.4</ele>
        <time>2022-07-19T20:11:26Z</time>
      </trkpt>
      <trkpt lat="44.88661" lon="6.64834">
        <ele>1356.4</ele>
        <time>2022-07-19T20:11:27Z</time>
      </trkpt>
      <trkpt lat="44.8866" lon="6.64836">
        <ele>1356.4</ele>
        <time>2022-07-19T20:11:28Z</time>
      </trkpt>
      <trkpt lat="44.88658" lon="6.64839">
        <ele>1356.8</ele>
        <time>2022-07-19T20:11:29Z</time>
      </trkpt>
      <trkpt lat="44.88657" lon="6.64842">
        <ele>1356.8</ele>
        <time>2022-07-19T20:11:30Z</time>
      </trkpt>
      <trkpt lat="44.88656" lon="6.64844">
        <ele>1356.8</ele>
        <time>2022-07-19T20:11:31Z</time>
      </trkpt>
      <trkpt lat="44.88655" lon="6.64847">
        <ele>1356.8</ele>
        <time>2022-07-19T20:11:32Z</time>
      </trkpt>
      <trkpt lat="44.88655" lon="6.64851">
        <ele>1357</ele>
        <time>2022-07-19T20:11:33Z</time>
      </trkpt>
      <trkpt lat="44.88654" lon="6.64854">
        <ele>1357</ele>
        <time>2022-07-19T20:11:34Z</time>
      </trkpt>
      <trkpt lat="44.88654" lon="6.64856">
        <ele>1357</ele>
        <time>2022-07-19T20:11:35Z</time>
      </trkpt>
      <trkpt lat="44.88654" lon="6.64859">
        <ele>1357</ele>
        <time>2022-07-19T20:11:36Z</time>
      </trkpt>
      <trkpt lat="44.88654" lon="6.64862">
        <ele>1357.2</ele>
        <time>2022-07-19T20:11:37Z</time>
      </trkpt>
      <trkpt lat="44.88654" lon="6.64865">
        <ele>1357.2</ele>
        <time>2022-07-19T20:11:38Z</time>
      </trkpt>
      <trkpt lat="44.88655" lon="6.64868">
        <ele>1357.2</ele>
        <time>2022-07-19T20:11:39Z</time>
      </trkpt>
      <trkpt lat="44.88655" lon="6.64871">
        <ele>1357.6</ele>
        <time>2022-07-19T20:11:40Z</time>
      </trkpt>
      <trkpt lat="44.88655" lon="6.64874">
        <ele>1357.6</ele>
        <time>2022-07-19T20:11:41Z</time>
      </trkpt>
      <trkpt lat="44.88656" lon="6.64877">
        <ele>1358</ele>
        <time>2022-07-19T20:11:42Z</time>
      </trkpt>
      <trkpt lat="44.88656" lon="6.6488">
        <ele>1358</ele>
        <time>2022-07-19T20:11:43Z</time>
      </trkpt>
      <trkpt lat="44.88656" lon="6.64883">
        <ele>1358.2</ele>
        <time>2022-07-19T20:11:44Z</time>
      </trkpt>
      <trkpt lat="44.88657" lon="6.64886">
        <ele>1358.2</ele>
        <time>2022-07-19T20:11:45Z</time>
      </trkpt>
      <trkpt lat="44.88657" lon="6.64889">
        <ele>1358.2</ele>
        <time>2022-07-19T20:11:46Z</time>
      </trkpt>
      <trkpt lat="44.88658" lon="6.64892">
        <ele>1358.6</ele>
        <time>2022-07-19T20:11:47Z</time>
      </trkpt>
      <trkpt lat="44.88658" lon="6.64895">
        <ele>1358.6</ele>
        <time>2022-07-19T20:11:48Z</time>
      </trkpt>
      <trkpt lat="44.88658" lon="6.64898">
        <ele>1358.8</ele>
        <time>2022-07-19T20:11:49Z</time>
      </trkpt>
      <trkpt lat="44.88659" lon="6.64901">
        <ele>1358.8</ele>
        <time>2022-07-19T20:11:50Z</time>
      </trkpt>
      <trkpt lat="44.88659" lon="6.64904">
        <ele>1359</ele>
        <time>2022-07-19T20:11:51Z</time>
      </trkpt>
      <trkpt lat="44.88659" lon="6.64907">
        <ele>1359</ele>
        <time>2022-07-19T20:11:52Z</time>
      </trkpt>
      <trkpt lat="44.88659" lon="6.6491">
        <ele>1359.2</ele>
        <time>2022-07-19T20:11:53Z</time>
      </trkpt>
      <trkpt lat="44.88659" lon="6.64913">
        <ele>1359.2</ele>
        <time>2022-07-19T20:11:54Z</time>
      </trkpt>
      <trkpt lat="44.88659" lon="6.64916">
        <ele>1359.6</ele>
        <time>2022-07-19T20:11:55Z</time>
      </trkpt>
      <trkpt lat="44.88659" lon="6.64918">
        <ele>1359.6</ele>
        <time>2022-07-19T20:11:56Z</time>
      </trkpt>
      <trkpt lat="44.88659" lon="6.64921">
        <ele>1359.8</ele>
        <time>2022-07-19T20:11:57Z</time>
      </trkpt>
      <trkpt lat="44.88658" lon="6.64924">
        <ele>1359.8</ele>
        <time>2022-07-19T20:11:58Z</time>
      </trkpt>
      <trkpt lat="44.88658" lon="6.64927">
        <ele>1360.2</ele>
        <time>2022-07-19T20:11:59Z</time>
      </trkpt>
      <trkpt lat="44.88658" lon="6.64929">
        <ele>1360.2</ele>
        <time>2022-07-19T20:12:00Z</time>
      </trkpt>
      <trkpt lat="44.88658" lon="6.64932">
        <ele>1360.6</ele>
        <time>2022-07-19T20:12:01Z</time>
      </trkpt>
      <trkpt lat="44.88657" lon="6.64934">
        <ele>1360.6</ele>
        <time>2022-07-19T20:12:02Z</time>
      </trkpt>
      <trkpt lat="44.88656" lon="6.64936">
        <ele>1360.8</ele>
        <time>2022-07-19T20:12:03Z</time>
      </trkpt>
      <trkpt lat="44.88655" lon="6.64939">
        <ele>1361.2</ele>
        <time>2022-07-19T20:12:04Z</time>
      </trkpt>
      <trkpt lat="44.88654" lon="6.64941">
        <ele>1361.2</ele>
        <time>2022-07-19T20:12:05Z</time>
      </trkpt>
      <trkpt lat="44.88653" lon="6.64943">
        <ele>1361.6</ele>
        <time>2022-07-19T20:12:06Z</time>
      </trkpt>
      <trkpt lat="44.88653" lon="6.64945">
        <ele>1361.6</ele>
        <time>2022-07-19T20:12:07Z</time>
      </trkpt>
      <trkpt lat="44.88652" lon="6.64947">
        <ele>1362</ele>
        <time>2022-07-19T20:12:08Z</time>
      </trkpt>
      <trkpt lat="44.8865" lon="6.64949">
        <ele>1362</ele>
        <time>2022-07-19T20:12:09Z</time>
      </trkpt>
      <trkpt lat="44.88649" lon="6.64951">
        <ele>1362.2</ele>
        <time>2022-07-19T20:12:10Z</time>
      </trkpt>
      <trkpt lat="44.88647" lon="6.64954">
        <ele>1362.2</ele>
        <time>2022-07-19T20:12:11Z</time>
      </trkpt>
      <trkpt lat="44.88646" lon="6.64956">
        <ele>1362.6</ele>
        <time>2022-07-19T20:12:12Z</time>
      </trkpt>
      <trkpt lat="44.88645" lon="6.64958">
        <ele>1362.6</ele>
        <time>2022-07-19T20:12:13Z</time>
      </trkpt>
      <trkpt lat="44.88644" lon="6.6496">
        <ele>1363</ele>
        <time>2022-07-19T20:12:14Z</time>
      </trkpt>
      <trkpt lat="44.88642" lon="6.64961">
        <ele>1363</ele>
        <time>2022-07-19T20:12:15Z</time>
      </trkpt>
      <trkpt lat="44.8864" lon="6.64962">
        <ele>1363.2</ele>
        <time>2022-07-19T20:12:16Z</time>
      </trkpt>
      <trkpt lat="44.88639" lon="6.64964">
        <ele>1363.2</ele>
        <time>2022-07-19T20:12:17Z</time>
      </trkpt>
      <trkpt lat="44.88637" lon="6.64965">
        <ele>1363.2</ele>
        <time>2022-07-19T20:12:18Z</time>
      </trkpt>
      <trkpt lat="44.88636" lon="6.64967">
        <ele>1363.6</ele>
        <time>2022-07-19T20:12:19Z</time>
      </trkpt>
      <trkpt lat="44.88634" lon="6.64968">
        <ele>1363.8</ele>
        <time>2022-07-19T20:12:20Z</time>
      </trkpt>
      <trkpt lat="44.88633" lon="6.64969">
        <ele>1363.8</ele>
        <time>2022-07-19T20:12:21Z</time>
      </trkpt>
      <trkpt lat="44.88631" lon="6.64971">
        <ele>1364.2</ele>
        <time>2022-07-19T20:12:22Z</time>
      </trkpt>
      <trkpt lat="44.8863" lon="6.64972">
        <ele>1364.2</ele>
        <time>2022-07-19T20:12:23Z</time>
      </trkpt>
      <trkpt lat="44.88628" lon="6.64974">
        <ele>1364.4</ele>
        <time>2022-07-19T20:12:24Z</time>
      </trkpt>
      <trkpt lat="44.88627" lon="6.64975">
        <ele>1364.4</ele>
        <time>2022-07-19T20:12:25Z</time>
      </trkpt>
      <trkpt lat="44.88625" lon="6.64977">
        <ele>1364.8</ele>
        <time>2022-07-19T20:12:26Z</time>
      </trkpt>
      <trkpt lat="44.88624" lon="6.64978">
        <ele>1364.8</ele>
        <time>2022-07-19T20:12:27Z</time>
      </trkpt>
      <trkpt lat="44.88622" lon="6.6498">
        <ele>1365</ele>
        <time>2022-07-19T20:12:28Z</time>
      </trkpt>
      <trkpt lat="44.88621" lon="6.64981">
        <ele>1365</ele>
        <time>2022-07-19T20:12:29Z</time>
      </trkpt>
      <trkpt lat="44.88619" lon="6.64983">
        <ele>1365.4</ele>
        <time>2022-07-19T20:12:30Z</time>
      </trkpt>
      <trkpt lat="44.88618" lon="6.64984">
        <ele>1365.6</ele>
        <time>2022-07-19T20:12:31Z</time>
      </trkpt>
      <trkpt lat="44.88616" lon="6.64985">
        <ele>1365.6</ele>
        <time>2022-07-19T20:12:32Z</time>
      </trkpt>
      <trkpt lat="44.88615" lon="6.64986">
        <ele>1365.8</ele>
        <time>2022-07-19T20:12:33Z</time>
      </trkpt>
      <trkpt lat="44.88614" lon="6.64987">
        <ele>1365.8</ele>
        <time>2022-07-19T20:12:34Z</time>
      </trkpt>
      <trkpt lat="44.88613" lon="6.64989">
        <ele>1366.2</ele>
        <time>2022-07-19T20:12:35Z</time>
      </trkpt>
      <trkpt lat="44.88612" lon="6.6499">
        <ele>1366.2</ele>
        <time>2022-07-19T20:12:36Z</time>
      </trkpt>
      <trkpt lat="44.88611" lon="6.64992">
        <ele>1366.6</ele>
        <time>2022-07-19T20:12:37Z</time>
      </trkpt>
      <trkpt lat="44.8861" lon="6.64993">
        <ele>1366.6</ele>
        <time>2022-07-19T20:12:38Z</time>
      </trkpt>
      <trkpt lat="44.8861" lon="6.64995">
        <ele>1366.8</ele>
        <time>2022-07-19T20:12:39Z</time>
      </trkpt>
      <trkpt lat="44.88609" lon="6.64997">
        <ele>1366.8</ele>
        <time>2022-07-19T20:12:40Z</time>
      </trkpt>
      <trkpt lat="44.88608" lon="6.64998">
        <ele>1367</ele>
        <time>2022-07-19T20:12:41Z</time>
      </trkpt>
      <trkpt lat="44.88608" lon="6.65">
        <ele>1367</ele>
        <time>2022-07-19T20:12:42Z</time>
      </trkpt>
      <trkpt lat="44.88607" lon="6.65001">
        <ele>1367.4</ele>
        <time>2022-07-19T20:12:43Z</time>
      </trkpt>
      <trkpt lat="44.88606" lon="6.65003">
        <ele>1367.4</ele>
        <time>2022-07-19T20:12:44Z</time>
      </trkpt>
      <trkpt lat="44.88605" lon="6.65004">
        <ele>1367.6</ele>
        <time>2022-07-19T20:12:45Z</time>
      </trkpt>
      <trkpt lat="44.88605" lon="6.65005">
        <ele>1367.6</ele>
        <time>2022-07-19T20:12:46Z</time>
      </trkpt>
      <trkpt lat="44.88604" lon="6.65007">
        <ele>1367.8</ele>
        <time>2022-07-19T20:12:47Z</time>
      </trkpt>
      <trkpt lat="44.88603" lon="6.65009">
        <ele>1367.8</ele>
        <time>2022-07-19T20:12:48Z</time>
      </trkpt>
      <trkpt lat="44.88602" lon="6.65011">
        <ele>1368</ele>
        <time>2022-07-19T20:12:49Z</time>
      </trkpt>
      <trkpt lat="44.88602" lon="6.65013">
        <ele>1368</ele>
        <time>2022-07-19T20:12:50Z</time>
      </trkpt>
      <trkpt lat="44.88601" lon="6.65015">
        <ele>1368</ele>
        <time>2022-07-19T20:12:51Z</time>
      </trkpt>
      <trkpt lat="44.886" lon="6.65017">
        <ele>1368.4</ele>
        <time>2022-07-19T20:12:52Z</time>
      </trkpt>
      <trkpt lat="44.886" lon="6.65019">
        <ele>1368.4</ele>
        <time>2022-07-19T20:12:53Z</time>
      </trkpt>
      <trkpt lat="44.88599" lon="6.65021">
        <ele>1368.6</ele>
        <time>2022-07-19T20:12:54Z</time>
      </trkpt>
      <trkpt lat="44.88598" lon="6.65023">
        <ele>1368.6</ele>
        <time>2022-07-19T20:12:55Z</time>
      </trkpt>
      <trkpt lat="44.88597" lon="6.65026">
        <ele>1368.6</ele>
        <time>2022-07-19T20:12:56Z</time>
      </trkpt>
      <trkpt lat="44.88596" lon="6.65028">
        <ele>1368.8</ele>
        <time>2022-07-19T20:12:57Z</time>
      </trkpt>
      <trkpt lat="44.88596" lon="6.65031">
        <ele>1368.8</ele>
        <time>2022-07-19T20:12:58Z</time>
      </trkpt>
      <trkpt lat="44.88596" lon="6.65034">
        <ele>1369</ele>
        <time>2022-07-19T20:12:59Z</time>
      </trkpt>
      <trkpt lat="44.88595" lon="6.65037">
        <ele>1369</ele>
        <time>2022-07-19T20:13:00Z</time>
      </trkpt>
      <trkpt lat="44.88595" lon="6.6504">
        <ele>1369</ele>
        <time>2022-07-19T20:13:01Z</time>
      </trkpt>
      <trkpt lat="44.88594" lon="6.65043">
        <ele>1369.4</ele>
        <time>2022-07-19T20:13:02Z</time>
      </trkpt>
      <trkpt lat="44.88593" lon="6.65046">
        <ele>1369.4</ele>
        <time>2022-07-19T20:13:03Z</time>
      </trkpt>
      <trkpt lat="44.88593" lon="6.65049">
        <ele>1369.8</ele>
        <time>2022-07-19T20:13:04Z</time>
      </trkpt>
      <trkpt lat="44.88591" lon="6.65051">
        <ele>1369.8</ele>
        <time>2022-07-19T20:13:05Z</time>
      </trkpt>
      <trkpt lat="44.8859" lon="6.65054">
        <ele>1369.8</ele>
        <time>2022-07-19T20:13:06Z</time>
      </trkpt>
      <trkpt lat="44.8859" lon="6.65057">
        <ele>1370</ele>
        <time>2022-07-19T20:13:07Z</time>
      </trkpt>
      <trkpt lat="44.8859" lon="6.6506">
        <ele>1370</ele>
        <time>2022-07-19T20:13:08Z</time>
      </trkpt>
      <trkpt lat="44.88589" lon="6.65062">
        <ele>1370.4</ele>
        <time>2022-07-19T20:13:09Z</time>
      </trkpt>
      <trkpt lat="44.88588" lon="6.65065">
        <ele>1370.4</ele>
        <time>2022-07-19T20:13:10Z</time>
      </trkpt>
      <trkpt lat="44.88587" lon="6.65067">
        <ele>1370.4</ele>
        <time>2022-07-19T20:13:11Z</time>
      </trkpt>
      <trkpt lat="44.88587" lon="6.65069">
        <ele>1370.6</ele>
        <time>2022-07-19T20:13:12Z</time>
      </trkpt>
      <trkpt lat="44.88586" lon="6.65071">
        <ele>1370.6</ele>
        <time>2022-07-19T20:13:13Z</time>
      </trkpt>
      <trkpt lat="44.88585" lon="6.65073">
        <ele>1370.8</ele>
        <time>2022-07-19T20:13:14Z</time>
      </trkpt>
      <trkpt lat="44.88584" lon="6.65076">
        <ele>1370.8</ele>
        <time>2022-07-19T20:13:15Z</time>
      </trkpt>
      <trkpt lat="44.88583" lon="6.65078">
        <ele>1370.8</ele>
        <time>2022-07-19T20:13:16Z</time>
      </trkpt>
      <trkpt lat="44.88582" lon="6.6508">
        <ele>1371.2</ele>
        <time>2022-07-19T20:13:17Z</time>
      </trkpt>
      <trkpt lat="44.88581" lon="6.65082">
        <ele>1371.2</ele>
        <time>2022-07-19T20:13:18Z</time>
      </trkpt>
      <trkpt lat="44.8858" lon="6.65084">
        <ele>1371.6</ele>
        <time>2022-07-19T20:13:19Z</time>
      </trkpt>
      <trkpt lat="44.88579" lon="6.65086">
        <ele>1371.6</ele>
        <time>2022-07-19T20:13:20Z</time>
      </trkpt>
      <trkpt lat="44.88577" lon="6.65088">
        <ele>1371.8</ele>
        <time>2022-07-19T20:13:21Z</time>
      </trkpt>
      <trkpt lat="44.88576" lon="6.6509">
        <ele>1371.8</ele>
        <time>2022-07-19T20:13:22Z</time>
      </trkpt>
      <trkpt lat="44.88574" lon="6.65092">
        <ele>1372</ele>
        <time>2022-07-19T20:13:23Z</time>
      </trkpt>
      <trkpt lat="44.88573" lon="6.65094">
        <ele>1372</ele>
        <time>2022-07-19T20:13:24Z</time>
      </trkpt>
      <trkpt lat="44.88571" lon="6.65095">
        <ele>1372</ele>
        <time>2022-07-19T20:13:25Z</time>
      </trkpt>
      <trkpt lat="44.88569" lon="6.65097">
        <ele>1372.4</ele>
        <time>2022-07-19T20:13:26Z</time>
      </trkpt>
      <trkpt lat="44.88568" lon="6.65098">
        <ele>1372.4</ele>
        <time>2022-07-19T20:13:27Z</time>
      </trkpt>
      <trkpt lat="44.88566" lon="6.651">
        <ele>1372.6</ele>
        <time>2022-07-19T20:13:28Z</time>
      </trkpt>
      <trkpt lat="44.88564" lon="6.65101">
        <ele>1372.6</ele>
        <time>2022-07-19T20:13:29Z</time>
      </trkpt>
      <trkpt lat="44.88562" lon="6.65102">
        <ele>1372.8</ele>
        <time>2022-07-19T20:13:30Z</time>
      </trkpt>
      <trkpt lat="44.88561" lon="6.65104">
        <ele>1372.8</ele>
        <time>2022-07-19T20:13:31Z</time>
      </trkpt>
      <trkpt lat="44.88559" lon="6.65105">
        <ele>1373.2</ele>
        <time>2022-07-19T20:13:32Z</time>
      </trkpt>
      <trkpt lat="44.88558" lon="6.65107">
        <ele>1373.2</ele>
        <time>2022-07-19T20:13:33Z</time>
      </trkpt>
      <trkpt lat="44.88556" lon="6.65109">
        <ele>1373.4</ele>
        <time>2022-07-19T20:13:34Z</time>
      </trkpt>
      <trkpt lat="44.88555" lon="6.6511">
        <ele>1373.4</ele>
        <time>2022-07-19T20:13:35Z</time>
      </trkpt>
      <trkpt lat="44.88553" lon="6.65112">
        <ele>1373.6</ele>
        <time>2022-07-19T20:13:36Z</time>
      </trkpt>
      <trkpt lat="44.88552" lon="6.65115">
        <ele>1373.6</ele>
        <time>2022-07-19T20:13:37Z</time>
      </trkpt>
      <trkpt lat="44.8855" lon="6.65117">
        <ele>1373.8</ele>
        <time>2022-07-19T20:13:38Z</time>
      </trkpt>
      <trkpt lat="44.88549" lon="6.65119">
        <ele>1373.8</ele>
        <time>2022-07-19T20:13:39Z</time>
      </trkpt>
      <trkpt lat="44.88547" lon="6.65121">
        <ele>1373.8</ele>
        <time>2022-07-19T20:13:40Z</time>
      </trkpt>
      <trkpt lat="44.88546" lon="6.65122">
        <ele>1374.2</ele>
        <time>2022-07-19T20:13:41Z</time>
      </trkpt>
      <trkpt lat="44.88544" lon="6.65125">
        <ele>1374.2</ele>
        <time>2022-07-19T20:13:42Z</time>
      </trkpt>
      <trkpt lat="44.88543" lon="6.65127">
        <ele>1374.4</ele>
        <time>2022-07-19T20:13:43Z</time>
      </trkpt>
      <trkpt lat="44.88542" lon="6.65129">
        <ele>1374.4</ele>
        <time>2022-07-19T20:13:44Z</time>
      </trkpt>
      <trkpt lat="44.88541" lon="6.65131">
        <ele>1374.8</ele>
        <time>2022-07-19T20:13:45Z</time>
      </trkpt>
      <trkpt lat="44.8854" lon="6.65134">
        <ele>1374.8</ele>
        <time>2022-07-19T20:13:46Z</time>
      </trkpt>
      <trkpt lat="44.88538" lon="6.65136">
        <ele>1375.2</ele>
        <time>2022-07-19T20:13:47Z</time>
      </trkpt>
      <trkpt lat="44.88537" lon="6.65139">
        <ele>1375.2</ele>
        <time>2022-07-19T20:13:48Z</time>
      </trkpt>
      <trkpt lat="44.88536" lon="6.65141">
        <ele>1375.6</ele>
        <time>2022-07-19T20:13:49Z</time>
      </trkpt>
      <trkpt lat="44.88536" lon="6.65144">
        <ele>1375.8</ele>
        <time>2022-07-19T20:13:50Z</time>
      </trkpt>
      <trkpt lat="44.88535" lon="6.65146">
        <ele>1375.8</ele>
        <time>2022-07-19T20:13:51Z</time>
      </trkpt>
      <trkpt lat="44.88534" lon="6.65149">
        <ele>1376</ele>
        <time>2022-07-19T20:13:52Z</time>
      </trkpt>
      <trkpt lat="44.88534" lon="6.65151">
        <ele>1376</ele>
        <time>2022-07-19T20:13:53Z</time>
      </trkpt>
      <trkpt lat="44.88533" lon="6.65154">
        <ele>1376.4</ele>
        <time>2022-07-19T20:13:54Z</time>
      </trkpt>
      <trkpt lat="44.88532" lon="6.65157">
        <ele>1376.4</ele>
        <time>2022-07-19T20:13:55Z</time>
      </trkpt>
      <trkpt lat="44.88532" lon="6.65159">
        <ele>1376.8</ele>
        <time>2022-07-19T20:13:56Z</time>
      </trkpt>
      <trkpt lat="44.88531" lon="6.65161">
        <ele>1376.8</ele>
        <time>2022-07-19T20:13:57Z</time>
      </trkpt>
      <trkpt lat="44.8853" lon="6.65164">
        <ele>1377</ele>
        <time>2022-07-19T20:13:58Z</time>
      </trkpt>
      <trkpt lat="44.8853" lon="6.65166">
        <ele>1377</ele>
        <time>2022-07-19T20:13:59Z</time>
      </trkpt>
      <trkpt lat="44.88529" lon="6.65168">
        <ele>1377.4</ele>
        <time>2022-07-19T20:14:00Z</time>
      </trkpt>
      <trkpt lat="44.88528" lon="6.6517">
        <ele>1377.4</ele>
        <time>2022-07-19T20:14:01Z</time>
      </trkpt>
      <trkpt lat="44.88528" lon="6.65173">
        <ele>1377.4</ele>
        <time>2022-07-19T20:14:02Z</time>
      </trkpt>
      <trkpt lat="44.88527" lon="6.65175">
        <ele>1377.8</ele>
        <time>2022-07-19T20:14:03Z</time>
      </trkpt>
      <trkpt lat="44.88527" lon="6.65177">
        <ele>1377.8</ele>
        <time>2022-07-19T20:14:04Z</time>
      </trkpt>
      <trkpt lat="44.88526" lon="6.6518">
        <ele>1378.2</ele>
        <time>2022-07-19T20:14:05Z</time>
      </trkpt>
      <trkpt lat="44.88526" lon="6.65182">
        <ele>1378.2</ele>
        <time>2022-07-19T20:14:06Z</time>
      </trkpt>
      <trkpt lat="44.88526" lon="6.65184">
        <ele>1378.4</ele>
        <time>2022-07-19T20:14:07Z</time>
      </trkpt>
      <trkpt lat="44.88526" lon="6.65187">
        <ele>1378.4</ele>
        <time>2022-07-19T20:14:08Z</time>
      </trkpt>
      <trkpt lat="44.88526" lon="6.65189">
        <ele>1378.6</ele>
        <time>2022-07-19T20:14:09Z</time>
      </trkpt>
      <trkpt lat="44.88525" lon="6.65192">
        <ele>1378.6</ele>
        <time>2022-07-19T20:14:10Z</time>
      </trkpt>
      <trkpt lat="44.88525" lon="6.65194">
        <ele>1379</ele>
        <time>2022-07-19T20:14:11Z</time>
      </trkpt>
      <trkpt lat="44.88525" lon="6.65196">
        <ele>1379</ele>
        <time>2022-07-19T20:14:12Z</time>
      </trkpt>
      <trkpt lat="44.88524" lon="6.65199">
        <ele>1379</ele>
        <time>2022-07-19T20:14:13Z</time>
      </trkpt>
      <trkpt lat="44.88524" lon="6.65201">
        <ele>1379.2</ele>
        <time>2022-07-19T20:14:14Z</time>
      </trkpt>
      <trkpt lat="44.88523" lon="6.65203">
        <ele>1379.2</ele>
        <time>2022-07-19T20:14:15Z</time>
      </trkpt>
      <trkpt lat="44.88523" lon="6.65205">
        <ele>1379.6</ele>
        <time>2022-07-19T20:14:16Z</time>
      </trkpt>
      <trkpt lat="44.88522" lon="6.65207">
        <ele>1379.6</ele>
        <time>2022-07-19T20:14:17Z</time>
      </trkpt>
      <trkpt lat="44.88522" lon="6.65209">
        <ele>1379.8</ele>
        <time>2022-07-19T20:14:18Z</time>
      </trkpt>
      <trkpt lat="44.88522" lon="6.65211">
        <ele>1379.8</ele>
        <time>2022-07-19T20:14:19Z</time>
      </trkpt>
      <trkpt lat="44.88522" lon="6.65214">
        <ele>1379.8</ele>
        <time>2022-07-19T20:14:20Z</time>
      </trkpt>
      <trkpt lat="44.88522" lon="6.65216">
        <ele>1380</ele>
        <time>2022-07-19T20:14:21Z</time>
      </trkpt>
      <trkpt lat="44.88522" lon="6.65218">
        <ele>1380</ele>
        <time>2022-07-19T20:14:22Z</time>
      </trkpt>
      <trkpt lat="44.88522" lon="6.6522">
        <ele>1380.2</ele>
        <time>2022-07-19T20:14:23Z</time>
      </trkpt>
      <trkpt lat="44.88522" lon="6.65222">
        <ele>1380.2</ele>
        <time>2022-07-19T20:14:24Z</time>
      </trkpt>
      <trkpt lat="44.88521" lon="6.65224">
        <ele>1380.2</ele>
        <time>2022-07-19T20:14:25Z</time>
      </trkpt>
      <trkpt lat="44.88521" lon="6.65226">
        <ele>1380.6</ele>
        <time>2022-07-19T20:14:26Z</time>
      </trkpt>
      <trkpt lat="44.8852" lon="6.65228">
        <ele>1380.8</ele>
        <time>2022-07-19T20:14:27Z</time>
      </trkpt>
      <trkpt lat="44.8852" lon="6.6523">
        <ele>1381.2</ele>
        <time>2022-07-19T20:14:28Z</time>
      </trkpt>
      <trkpt lat="44.8852" lon="6.65232">
        <ele>1381.2</ele>
        <time>2022-07-19T20:14:29Z</time>
      </trkpt>
      <trkpt lat="44.88519" lon="6.65235">
        <ele>1381.4</ele>
        <time>2022-07-19T20:14:30Z</time>
      </trkpt>
      <trkpt lat="44.88519" lon="6.65237">
        <ele>1381.4</ele>
        <time>2022-07-19T20:14:31Z</time>
      </trkpt>
      <trkpt lat="44.88519" lon="6.6524">
        <ele>1381.6</ele>
        <time>2022-07-19T20:14:32Z</time>
      </trkpt>
      <trkpt lat="44.88518" lon="6.65243">
        <ele>1381.6</ele>
        <time>2022-07-19T20:14:33Z</time>
      </trkpt>
      <trkpt lat="44.88519" lon="6.65246">
        <ele>1381.6</ele>
        <time>2022-07-19T20:14:34Z</time>
      </trkpt>
      <trkpt lat="44.88519" lon="6.65249">
        <ele>1381.6</ele>
        <time>2022-07-19T20:14:35Z</time>
      </trkpt>
      <trkpt lat="44.88519" lon="6.65252">
        <ele>1381.6</ele>
        <time>2022-07-19T20:14:36Z</time>
      </trkpt>
      <trkpt lat="44.88519" lon="6.65255">
        <ele>1381.8</ele>
        <time>2022-07-19T20:14:37Z</time>
      </trkpt>
      <trkpt lat="44.88519" lon="6.65258">
        <ele>1381.8</ele>
        <time>2022-07-19T20:14:38Z</time>
      </trkpt>
      <trkpt lat="44.88519" lon="6.65265">
        <ele>1382</ele>
        <time>2022-07-19T20:14:40Z</time>
      </trkpt>
      <trkpt lat="44.8852" lon="6.65268">
        <ele>1382</ele>
        <time>2022-07-19T20:14:41Z</time>
      </trkpt>
      <trkpt lat="44.8852" lon="6.65271">
        <ele>1382</ele>
        <time>2022-07-19T20:14:42Z</time>
      </trkpt>
      <trkpt lat="44.88521" lon="6.65274">
        <ele>1382</ele>
        <time>2022-07-19T20:14:43Z</time>
      </trkpt>
      <trkpt lat="44.88521" lon="6.65278">
        <ele>1382.4</ele>
        <time>2022-07-19T20:14:44Z</time>
      </trkpt>
      <trkpt lat="44.88522" lon="6.65281">
        <ele>1382.4</ele>
        <time>2022-07-19T20:14:45Z</time>
      </trkpt>
      <trkpt lat="44.88522" lon="6.65284">
        <ele>1382.4</ele>
        <time>2022-07-19T20:14:46Z</time>
      </trkpt>
      <trkpt lat="44.88523" lon="6.65288">
        <ele>1382.4</ele>
        <time>2022-07-19T20:14:47Z</time>
      </trkpt>
      <trkpt lat="44.88524" lon="6.65292">
        <ele>1382.4</ele>
        <time>2022-07-19T20:14:48Z</time>
      </trkpt>
      <trkpt lat="44.88525" lon="6.65296">
        <ele>1382.4</ele>
        <time>2022-07-19T20:14:49Z</time>
      </trkpt>
      <trkpt lat="44.88526" lon="6.65301">
        <ele>1382.4</ele>
        <time>2022-07-19T20:14:50Z</time>
      </trkpt>
      <trkpt lat="44.88526" lon="6.65305">
        <ele>1382.4</ele>
        <time>2022-07-19T20:14:51Z</time>
      </trkpt>
      <trkpt lat="44.88527" lon="6.6531">
        <ele>1382.4</ele>
        <time>2022-07-19T20:14:52Z</time>
      </trkpt>
      <trkpt lat="44.88527" lon="6.65315">
        <ele>1382.4</ele>
        <time>2022-07-19T20:14:53Z</time>
      </trkpt>
      <trkpt lat="44.88526" lon="6.6532">
        <ele>1382.6</ele>
        <time>2022-07-19T20:14:54Z</time>
      </trkpt>
      <trkpt lat="44.88526" lon="6.65325">
        <ele>1382.6</ele>
        <time>2022-07-19T20:14:55Z</time>
      </trkpt>
      <trkpt lat="44.88525" lon="6.6533">
        <ele>1382.6</ele>
        <time>2022-07-19T20:14:56Z</time>
      </trkpt>
      <trkpt lat="44.88523" lon="6.65334">
        <ele>1382.6</ele>
        <time>2022-07-19T20:14:57Z</time>
      </trkpt>
      <trkpt lat="44.88521" lon="6.65339">
        <ele>1382.6</ele>
        <time>2022-07-19T20:14:58Z</time>
      </trkpt>
      <trkpt lat="44.88519" lon="6.65343">
        <ele>1383</ele>
        <time>2022-07-19T20:14:59Z</time>
      </trkpt>
      <trkpt lat="44.88518" lon="6.65347">
        <ele>1383</ele>
        <time>2022-07-19T20:15:00Z</time>
      </trkpt>
      <trkpt lat="44.88516" lon="6.65351">
        <ele>1383.2</ele>
        <time>2022-07-19T20:15:01Z</time>
      </trkpt>
      <trkpt lat="44.88514" lon="6.65355">
        <ele>1383.2</ele>
        <time>2022-07-19T20:15:02Z</time>
      </trkpt>
      <trkpt lat="44.88512" lon="6.65359">
        <ele>1383.2</ele>
        <time>2022-07-19T20:15:03Z</time>
      </trkpt>
      <trkpt lat="44.8851" lon="6.65363">
        <ele>1383.4</ele>
        <time>2022-07-19T20:15:04Z</time>
      </trkpt>
      <trkpt lat="44.88508" lon="6.65366">
        <ele>1383.4</ele>
        <time>2022-07-19T20:15:05Z</time>
      </trkpt>
      <trkpt lat="44.88506" lon="6.6537">
        <ele>1383.6</ele>
        <time>2022-07-19T20:15:06Z</time>
      </trkpt>
      <trkpt lat="44.88503" lon="6.65374">
        <ele>1383.6</ele>
        <time>2022-07-19T20:15:07Z</time>
      </trkpt>
      <trkpt lat="44.885" lon="6.65378">
        <ele>1383.6</ele>
        <time>2022-07-19T20:15:08Z</time>
      </trkpt>
      <trkpt lat="44.88498" lon="6.65381">
        <ele>1383.8</ele>
        <time>2022-07-19T20:15:09Z</time>
      </trkpt>
      <trkpt lat="44.88495" lon="6.65384">
        <ele>1383.8</ele>
        <time>2022-07-19T20:15:10Z</time>
      </trkpt>
      <trkpt lat="44.88493" lon="6.65387">
        <ele>1383.8</ele>
        <time>2022-07-19T20:15:11Z</time>
      </trkpt>
      <trkpt lat="44.88491" lon="6.65391">
        <ele>1383.8</ele>
        <time>2022-07-19T20:15:12Z</time>
      </trkpt>
      <trkpt lat="44.88488" lon="6.65394">
        <ele>1384.2</ele>
        <time>2022-07-19T20:15:13Z</time>
      </trkpt>
      <trkpt lat="44.88486" lon="6.65396">
        <ele>1384.2</ele>
        <time>2022-07-19T20:15:14Z</time>
      </trkpt>
      <trkpt lat="44.88484" lon="6.65399">
        <ele>1384.4</ele>
        <time>2022-07-19T20:15:15Z</time>
      </trkpt>
      <trkpt lat="44.88482" lon="6.65401">
        <ele>1384.4</ele>
        <time>2022-07-19T20:15:16Z</time>
      </trkpt>
      <trkpt lat="44.88481" lon="6.65403">
        <ele>1384.8</ele>
        <time>2022-07-19T20:15:17Z</time>
      </trkpt>
      <trkpt lat="44.88479" lon="6.65406">
        <ele>1384.8</ele>
        <time>2022-07-19T20:15:18Z</time>
      </trkpt>
      <trkpt lat="44.88478" lon="6.65408">
        <ele>1385.2</ele>
        <time>2022-07-19T20:15:19Z</time>
      </trkpt>
      <trkpt lat="44.88477" lon="6.65411">
        <ele>1385.2</ele>
        <time>2022-07-19T20:15:20Z</time>
      </trkpt>
      <trkpt lat="44.88475" lon="6.65413">
        <ele>1385.6</ele>
        <time>2022-07-19T20:15:21Z</time>
      </trkpt>
      <trkpt lat="44.88474" lon="6.65416">
        <ele>1385.8</ele>
        <time>2022-07-19T20:15:22Z</time>
      </trkpt>
      <trkpt lat="44.88473" lon="6.65418">
        <ele>1385.8</ele>
        <time>2022-07-19T20:15:23Z</time>
      </trkpt>
      <trkpt lat="44.88472" lon="6.65421">
        <ele>1386</ele>
        <time>2022-07-19T20:15:24Z</time>
      </trkpt>
      <trkpt lat="44.88471" lon="6.65422">
        <ele>1386</ele>
        <time>2022-07-19T20:15:25Z</time>
      </trkpt>
      <trkpt lat="44.88469" lon="6.65424">
        <ele>1386.4</ele>
        <time>2022-07-19T20:15:26Z</time>
      </trkpt>
      <trkpt lat="44.88468" lon="6.65426">
        <ele>1386.4</ele>
        <time>2022-07-19T20:15:27Z</time>
      </trkpt>
      <trkpt lat="44.88467" lon="6.65428">
        <ele>1386.8</ele>
        <time>2022-07-19T20:15:28Z</time>
      </trkpt>
      <trkpt lat="44.88466" lon="6.65431">
        <ele>1386.8</ele>
        <time>2022-07-19T20:15:29Z</time>
      </trkpt>
      <trkpt lat="44.88465" lon="6.65433">
        <ele>1387.2</ele>
        <time>2022-07-19T20:15:30Z</time>
      </trkpt>
      <trkpt lat="44.88464" lon="6.65436">
        <ele>1387.2</ele>
        <time>2022-07-19T20:15:31Z</time>
      </trkpt>
      <trkpt lat="44.88463" lon="6.65439">
        <ele>1387.4</ele>
        <time>2022-07-19T20:15:32Z</time>
      </trkpt>
      <trkpt lat="44.88462" lon="6.65442">
        <ele>1387.4</ele>
        <time>2022-07-19T20:15:33Z</time>
      </trkpt>
      <trkpt lat="44.88461" lon="6.65444">
        <ele>1387.8</ele>
        <time>2022-07-19T20:15:34Z</time>
      </trkpt>
      <trkpt lat="44.8846" lon="6.65447">
        <ele>1387.8</ele>
        <time>2022-07-19T20:15:35Z</time>
      </trkpt>
      <trkpt lat="44.88459" lon="6.65449">
        <ele>1388</ele>
        <time>2022-07-19T20:15:36Z</time>
      </trkpt>
      <trkpt lat="44.88458" lon="6.65452">
        <ele>1388</ele>
        <time>2022-07-19T20:15:37Z</time>
      </trkpt>
      <trkpt lat="44.88458" lon="6.65455">
        <ele>1388.2</ele>
        <time>2022-07-19T20:15:38Z</time>
      </trkpt>
      <trkpt lat="44.88457" lon="6.65458">
        <ele>1388.2</ele>
        <time>2022-07-19T20:15:39Z</time>
      </trkpt>
      <trkpt lat="44.88456" lon="6.65461">
        <ele>1388.4</ele>
        <time>2022-07-19T20:15:40Z</time>
      </trkpt>
      <trkpt lat="44.88455" lon="6.65464">
        <ele>1388.4</ele>
        <time>2022-07-19T20:15:41Z</time>
      </trkpt>
      <trkpt lat="44.88454" lon="6.65467">
        <ele>1388.4</ele>
        <time>2022-07-19T20:15:42Z</time>
      </trkpt>
      <trkpt lat="44.88454" lon="6.6547">
        <ele>1388.6</ele>
        <time>2022-07-19T20:15:43Z</time>
      </trkpt>
      <trkpt lat="44.88453" lon="6.65473">
        <ele>1388.6</ele>
        <time>2022-07-19T20:15:44Z</time>
      </trkpt>
      <trkpt lat="44.88452" lon="6.65476">
        <ele>1388.6</ele>
        <time>2022-07-19T20:15:45Z</time>
      </trkpt>
      <trkpt lat="44.88452" lon="6.65479">
        <ele>1389</ele>
        <time>2022-07-19T20:15:46Z</time>
      </trkpt>
      <trkpt lat="44.88452" lon="6.65482">
        <ele>1389</ele>
        <time>2022-07-19T20:15:47Z</time>
      </trkpt>
      <trkpt lat="44.88451" lon="6.65486">
        <ele>1389.2</ele>
        <time>2022-07-19T20:15:48Z</time>
      </trkpt>
      <trkpt lat="44.8845" lon="6.65489">
        <ele>1389.2</ele>
        <time>2022-07-19T20:15:49Z</time>
      </trkpt>
      <trkpt lat="44.88449" lon="6.65492">
        <ele>1389.6</ele>
        <time>2022-07-19T20:15:50Z</time>
      </trkpt>
      <trkpt lat="44.88449" lon="6.65495">
        <ele>1389.6</ele>
        <time>2022-07-19T20:15:51Z</time>
      </trkpt>
      <trkpt lat="44.88448" lon="6.65498">
        <ele>1390</ele>
        <time>2022-07-19T20:15:52Z</time>
      </trkpt>
      <trkpt lat="44.88447" lon="6.65501">
        <ele>1390</ele>
        <time>2022-07-19T20:15:53Z</time>
      </trkpt>
      <trkpt lat="44.88447" lon="6.65504">
        <ele>1390.2</ele>
        <time>2022-07-19T20:15:54Z</time>
      </trkpt>
      <trkpt lat="44.88446" lon="6.65507">
        <ele>1390.2</ele>
        <time>2022-07-19T20:15:55Z</time>
      </trkpt>
      <trkpt lat="44.88446" lon="6.6551">
        <ele>1390.4</ele>
        <time>2022-07-19T20:15:56Z</time>
      </trkpt>
      <trkpt lat="44.88445" lon="6.65513">
        <ele>1390.4</ele>
        <time>2022-07-19T20:15:57Z</time>
      </trkpt>
      <trkpt lat="44.88445" lon="6.65516">
        <ele>1390.4</ele>
        <time>2022-07-19T20:15:58Z</time>
      </trkpt>
      <trkpt lat="44.88444" lon="6.65519">
        <ele>1390.6</ele>
        <time>2022-07-19T20:15:59Z</time>
      </trkpt>
      <trkpt lat="44.88444" lon="6.65522">
        <ele>1390.6</ele>
        <time>2022-07-19T20:16:00Z</time>
      </trkpt>
      <trkpt lat="44.88444" lon="6.65525">
        <ele>1391</ele>
        <time>2022-07-19T20:16:01Z</time>
      </trkpt>
      <trkpt lat="44.88443" lon="6.65528">
        <ele>1391</ele>
        <time>2022-07-19T20:16:02Z</time>
      </trkpt>
      <trkpt lat="44.88443" lon="6.65531">
        <ele>1391</ele>
        <time>2022-07-19T20:16:03Z</time>
      </trkpt>
      <trkpt lat="44.88443" lon="6.65534">
        <ele>1391</ele>
        <time>2022-07-19T20:16:04Z</time>
      </trkpt>
      <trkpt lat="44.88442" lon="6.65537">
        <ele>1391.2</ele>
        <time>2022-07-19T20:16:05Z</time>
      </trkpt>
      <trkpt lat="44.88441" lon="6.65541">
        <ele>1391.2</ele>
        <time>2022-07-19T20:16:06Z</time>
      </trkpt>
      <trkpt lat="44.88441" lon="6.65544">
        <ele>1391.2</ele>
        <time>2022-07-19T20:16:07Z</time>
      </trkpt>
      <trkpt lat="44.8844" lon="6.65547">
        <ele>1391.4</ele>
        <time>2022-07-19T20:16:08Z</time>
      </trkpt>
      <trkpt lat="44.88439" lon="6.6555">
        <ele>1391.4</ele>
        <time>2022-07-19T20:16:09Z</time>
      </trkpt>
      <trkpt lat="44.88439" lon="6.65553">
        <ele>1391.4</ele>
        <time>2022-07-19T20:16:10Z</time>
      </trkpt>
      <trkpt lat="44.88438" lon="6.65556">
        <ele>1391.6</ele>
        <time>2022-07-19T20:16:11Z</time>
      </trkpt>
      <trkpt lat="44.88438" lon="6.65559">
        <ele>1391.6</ele>
        <time>2022-07-19T20:16:12Z</time>
      </trkpt>
      <trkpt lat="44.88437" lon="6.65562">
        <ele>1391.8</ele>
        <time>2022-07-19T20:16:13Z</time>
      </trkpt>
      <trkpt lat="44.88437" lon="6.65565">
        <ele>1391.8</ele>
        <time>2022-07-19T20:16:14Z</time>
      </trkpt>
      <trkpt lat="44.88437" lon="6.65568">
        <ele>1391.8</ele>
        <time>2022-07-19T20:16:15Z</time>
      </trkpt>
      <trkpt lat="44.88436" lon="6.65571">
        <ele>1392</ele>
        <time>2022-07-19T20:16:16Z</time>
      </trkpt>
      <trkpt lat="44.88436" lon="6.65573">
        <ele>1392</ele>
        <time>2022-07-19T20:16:17Z</time>
      </trkpt>
      <trkpt lat="44.88435" lon="6.65576">
        <ele>1392</ele>
        <time>2022-07-19T20:16:18Z</time>
      </trkpt>
      <trkpt lat="44.88435" lon="6.65579">
        <ele>1392.4</ele>
        <time>2022-07-19T20:16:19Z</time>
      </trkpt>
      <trkpt lat="44.88435" lon="6.65582">
        <ele>1392.4</ele>
        <time>2022-07-19T20:16:20Z</time>
      </trkpt>
      <trkpt lat="44.88434" lon="6.65585">
        <ele>1392.8</ele>
        <time>2022-07-19T20:16:21Z</time>
      </trkpt>
      <trkpt lat="44.88433" lon="6.65588">
        <ele>1392.8</ele>
        <time>2022-07-19T20:16:22Z</time>
      </trkpt>
      <trkpt lat="44.88433" lon="6.65591">
        <ele>1392.8</ele>
        <time>2022-07-19T20:16:23Z</time>
      </trkpt>
      <trkpt lat="44.88433" lon="6.65593">
        <ele>1392.8</ele>
        <time>2022-07-19T20:16:24Z</time>
      </trkpt>
      <trkpt lat="44.88432" lon="6.65596">
        <ele>1392.8</ele>
        <time>2022-07-19T20:16:25Z</time>
      </trkpt>
      <trkpt lat="44.88431" lon="6.65599">
        <ele>1393</ele>
        <time>2022-07-19T20:16:26Z</time>
      </trkpt>
      <trkpt lat="44.88431" lon="6.65602">
        <ele>1393</ele>
        <time>2022-07-19T20:16:27Z</time>
      </trkpt>
      <trkpt lat="44.8843" lon="6.65605">
        <ele>1393</ele>
        <time>2022-07-19T20:16:28Z</time>
      </trkpt>
      <trkpt lat="44.8843" lon="6.65608">
        <ele>1393.2</ele>
        <time>2022-07-19T20:16:29Z</time>
      </trkpt>
      <trkpt lat="44.8843" lon="6.65611">
        <ele>1393.2</ele>
        <time>2022-07-19T20:16:30Z</time>
      </trkpt>
      <trkpt lat="44.8843" lon="6.65613">
        <ele>1393.2</ele>
        <time>2022-07-19T20:16:31Z</time>
      </trkpt>
      <trkpt lat="44.88429" lon="6.65616">
        <ele>1393.4</ele>
        <time>2022-07-19T20:16:32Z</time>
      </trkpt>
      <trkpt lat="44.88429" lon="6.65619">
        <ele>1393.4</ele>
        <time>2022-07-19T20:16:33Z</time>
      </trkpt>
      <trkpt lat="44.88428" lon="6.65622">
        <ele>1393.4</ele>
        <time>2022-07-19T20:16:34Z</time>
      </trkpt>
      <trkpt lat="44.88428" lon="6.65625">
        <ele>1393.4</ele>
        <time>2022-07-19T20:16:35Z</time>
      </trkpt>
      <trkpt lat="44.88427" lon="6.65627">
        <ele>1393.6</ele>
        <time>2022-07-19T20:16:36Z</time>
      </trkpt>
      <trkpt lat="44.88427" lon="6.6563">
        <ele>1393.6</ele>
        <time>2022-07-19T20:16:37Z</time>
      </trkpt>
      <trkpt lat="44.88426" lon="6.65633">
        <ele>1393.6</ele>
        <time>2022-07-19T20:16:38Z</time>
      </trkpt>
      <trkpt lat="44.88425" lon="6.65636">
        <ele>1393.8</ele>
        <time>2022-07-19T20:16:39Z</time>
      </trkpt>
      <trkpt lat="44.88425" lon="6.65639">
        <ele>1393.8</ele>
        <time>2022-07-19T20:16:40Z</time>
      </trkpt>
      <trkpt lat="44.88424" lon="6.65642">
        <ele>1393.8</ele>
        <time>2022-07-19T20:16:41Z</time>
      </trkpt>
      <trkpt lat="44.88423" lon="6.65645">
        <ele>1394.2</ele>
        <time>2022-07-19T20:16:42Z</time>
      </trkpt>
      <trkpt lat="44.88423" lon="6.65647">
        <ele>1394.2</ele>
        <time>2022-07-19T20:16:43Z</time>
      </trkpt>
      <trkpt lat="44.88422" lon="6.6565">
        <ele>1394.2</ele>
        <time>2022-07-19T20:16:44Z</time>
      </trkpt>
      <trkpt lat="44.88421" lon="6.65653">
        <ele>1394.2</ele>
        <time>2022-07-19T20:16:45Z</time>
      </trkpt>
      <trkpt lat="44.88421" lon="6.65656">
        <ele>1394.4</ele>
        <time>2022-07-19T20:16:46Z</time>
      </trkpt>
      <trkpt lat="44.8842" lon="6.65659">
        <ele>1394.4</ele>
        <time>2022-07-19T20:16:47Z</time>
      </trkpt>
      <trkpt lat="44.8842" lon="6.65662">
        <ele>1394.6</ele>
        <time>2022-07-19T20:16:48Z</time>
      </trkpt>
      <trkpt lat="44.8842" lon="6.65665">
        <ele>1394.6</ele>
        <time>2022-07-19T20:16:49Z</time>
      </trkpt>
      <trkpt lat="44.88419" lon="6.65668">
        <ele>1394.8</ele>
        <time>2022-07-19T20:16:50Z</time>
      </trkpt>
      <trkpt lat="44.88419" lon="6.65671">
        <ele>1394.8</ele>
        <time>2022-07-19T20:16:51Z</time>
      </trkpt>
      <trkpt lat="44.88418" lon="6.65673">
        <ele>1394.8</ele>
        <time>2022-07-19T20:16:52Z</time>
      </trkpt>
      <trkpt lat="44.88418" lon="6.65676">
        <ele>1395.2</ele>
        <time>2022-07-19T20:16:53Z</time>
      </trkpt>
      <trkpt lat="44.88417" lon="6.65679">
        <ele>1395.2</ele>
        <time>2022-07-19T20:16:54Z</time>
      </trkpt>
      <trkpt lat="44.88417" lon="6.65682">
        <ele>1395.2</ele>
        <time>2022-07-19T20:16:55Z</time>
      </trkpt>
      <trkpt lat="44.88416" lon="6.65685">
        <ele>1395.4</ele>
        <time>2022-07-19T20:16:56Z</time>
      </trkpt>
      <trkpt lat="44.88415" lon="6.65688">
        <ele>1395.6</ele>
        <time>2022-07-19T20:16:57Z</time>
      </trkpt>
      <trkpt lat="44.88415" lon="6.65691">
        <ele>1395.6</ele>
        <time>2022-07-19T20:16:58Z</time>
      </trkpt>
      <trkpt lat="44.88414" lon="6.65694">
        <ele>1396</ele>
        <time>2022-07-19T20:16:59Z</time>
      </trkpt>
      <trkpt lat="44.88414" lon="6.65697">
        <ele>1396</ele>
        <time>2022-07-19T20:17:00Z</time>
      </trkpt>
      <trkpt lat="44.88413" lon="6.657">
        <ele>1396.2</ele>
        <time>2022-07-19T20:17:01Z</time>
      </trkpt>
      <trkpt lat="44.88412" lon="6.65703">
        <ele>1396.2</ele>
        <time>2022-07-19T20:17:02Z</time>
      </trkpt>
      <trkpt lat="44.88412" lon="6.65706">
        <ele>1396.6</ele>
        <time>2022-07-19T20:17:03Z</time>
      </trkpt>
      <trkpt lat="44.88411" lon="6.6571">
        <ele>1396.6</ele>
        <time>2022-07-19T20:17:04Z</time>
      </trkpt>
      <trkpt lat="44.88411" lon="6.65713">
        <ele>1396.6</ele>
        <time>2022-07-19T20:17:05Z</time>
      </trkpt>
      <trkpt lat="44.8841" lon="6.65716">
        <ele>1396.8</ele>
        <time>2022-07-19T20:17:06Z</time>
      </trkpt>
      <trkpt lat="44.88409" lon="6.65719">
        <ele>1396.8</ele>
        <time>2022-07-19T20:17:07Z</time>
      </trkpt>
      <trkpt lat="44.88409" lon="6.65722">
        <ele>1396.8</ele>
        <time>2022-07-19T20:17:08Z</time>
      </trkpt>
      <trkpt lat="44.88409" lon="6.65725">
        <ele>1397.2</ele>
        <time>2022-07-19T20:17:09Z</time>
      </trkpt>
      <trkpt lat="44.88408" lon="6.65728">
        <ele>1397.2</ele>
        <time>2022-07-19T20:17:10Z</time>
      </trkpt>
      <trkpt lat="44.88408" lon="6.65731">
        <ele>1397.4</ele>
        <time>2022-07-19T20:17:11Z</time>
      </trkpt>
      <trkpt lat="44.88408" lon="6.65733">
        <ele>1397.4</ele>
        <time>2022-07-19T20:17:12Z</time>
      </trkpt>
      <trkpt lat="44.88408" lon="6.65736">
        <ele>1397.8</ele>
        <time>2022-07-19T20:17:13Z</time>
      </trkpt>
      <trkpt lat="44.88408" lon="6.65739">
        <ele>1397.8</ele>
        <time>2022-07-19T20:17:14Z</time>
      </trkpt>
      <trkpt lat="44.88408" lon="6.65742">
        <ele>1398</ele>
        <time>2022-07-19T20:17:15Z</time>
      </trkpt>
      <trkpt lat="44.88408" lon="6.65745">
        <ele>1398</ele>
        <time>2022-07-19T20:17:16Z</time>
      </trkpt>
      <trkpt lat="44.88407" lon="6.65748">
        <ele>1398.4</ele>
        <time>2022-07-19T20:17:17Z</time>
      </trkpt>
      <trkpt lat="44.88407" lon="6.65751">
        <ele>1398.4</ele>
        <time>2022-07-19T20:17:18Z</time>
      </trkpt>
      <trkpt lat="44.88407" lon="6.65755">
        <ele>1398.4</ele>
        <time>2022-07-19T20:17:19Z</time>
      </trkpt>
      <trkpt lat="44.88407" lon="6.65758">
        <ele>1398.6</ele>
        <time>2022-07-19T20:17:20Z</time>
      </trkpt>
      <trkpt lat="44.88407" lon="6.65761">
        <ele>1398.6</ele>
        <time>2022-07-19T20:17:21Z</time>
      </trkpt>
      <trkpt lat="44.88407" lon="6.65765">
        <ele>1398.8</ele>
        <time>2022-07-19T20:17:22Z</time>
      </trkpt>
      <trkpt lat="44.88407" lon="6.65768">
        <ele>1398.8</ele>
        <time>2022-07-19T20:17:23Z</time>
      </trkpt>
      <trkpt lat="44.88407" lon="6.65772">
        <ele>1398.8</ele>
        <time>2022-07-19T20:17:24Z</time>
      </trkpt>
      <trkpt lat="44.88407" lon="6.65776">
        <ele>1399.2</ele>
        <time>2022-07-19T20:17:25Z</time>
      </trkpt>
      <trkpt lat="44.88407" lon="6.6578">
        <ele>1399.2</ele>
        <time>2022-07-19T20:17:26Z</time>
      </trkpt>
      <trkpt lat="44.88407" lon="6.65784">
        <ele>1399.2</ele>
        <time>2022-07-19T20:17:27Z</time>
      </trkpt>
      <trkpt lat="44.88407" lon="6.65788">
        <ele>1399.2</ele>
        <time>2022-07-19T20:17:28Z</time>
      </trkpt>
      <trkpt lat="44.88407" lon="6.65792">
        <ele>1399.4</ele>
        <time>2022-07-19T20:17:29Z</time>
      </trkpt>
      <trkpt lat="44.88407" lon="6.65796">
        <ele>1399.4</ele>
        <time>2022-07-19T20:17:30Z</time>
      </trkpt>
      <trkpt lat="44.88408" lon="6.658">
        <ele>1399.4</ele>
        <time>2022-07-19T20:17:31Z</time>
      </trkpt>
      <trkpt lat="44.88408" lon="6.65803">
        <ele>1399.6</ele>
        <time>2022-07-19T20:17:32Z</time>
      </trkpt>
      <trkpt lat="44.88409" lon="6.6581">
        <ele>1399.8</ele>
        <time>2022-07-19T20:17:33Z</time>
      </trkpt>
      <trkpt lat="44.88409" lon="6.65813">
        <ele>1399.8</ele>
        <time>2022-07-19T20:17:34Z</time>
      </trkpt>
      <trkpt lat="44.8841" lon="6.65817">
        <ele>1399.8</ele>
        <time>2022-07-19T20:17:35Z</time>
      </trkpt>
      <trkpt lat="44.8841" lon="6.65821">
        <ele>1400.2</ele>
        <time>2022-07-19T20:17:36Z</time>
      </trkpt>
      <trkpt lat="44.8841" lon="6.65824">
        <ele>1400.2</ele>
        <time>2022-07-19T20:17:37Z</time>
      </trkpt>
      <trkpt lat="44.88411" lon="6.65828">
        <ele>1400.6</ele>
        <time>2022-07-19T20:17:38Z</time>
      </trkpt>
      <trkpt lat="44.88412" lon="6.65831">
        <ele>1400.6</ele>
        <time>2022-07-19T20:17:39Z</time>
      </trkpt>
      <trkpt lat="44.88413" lon="6.65834">
        <ele>1400.8</ele>
        <time>2022-07-19T20:17:40Z</time>
      </trkpt>
      <trkpt lat="44.88413" lon="6.65838">
        <ele>1400.8</ele>
        <time>2022-07-19T20:17:41Z</time>
      </trkpt>
      <trkpt lat="44.88413" lon="6.65841">
        <ele>1400.8</ele>
        <time>2022-07-19T20:17:42Z</time>
      </trkpt>
      <trkpt lat="44.88414" lon="6.65845">
        <ele>1401.2</ele>
        <time>2022-07-19T20:17:43Z</time>
      </trkpt>
      <trkpt lat="44.88415" lon="6.65848">
        <ele>1401.2</ele>
        <time>2022-07-19T20:17:44Z</time>
      </trkpt>
      <trkpt lat="44.88416" lon="6.65851">
        <ele>1401.2</ele>
        <time>2022-07-19T20:17:45Z</time>
      </trkpt>
      <trkpt lat="44.88417" lon="6.65854">
        <ele>1401.2</ele>
        <time>2022-07-19T20:17:46Z</time>
      </trkpt>
      <trkpt lat="44.88418" lon="6.65857">
        <ele>1401.4</ele>
        <time>2022-07-19T20:17:47Z</time>
      </trkpt>
      <trkpt lat="44.88419" lon="6.65861">
        <ele>1401.4</ele>
        <time>2022-07-19T20:17:48Z</time>
      </trkpt>
      <trkpt lat="44.8842" lon="6.65863">
        <ele>1401.6</ele>
        <time>2022-07-19T20:17:49Z</time>
      </trkpt>
      <trkpt lat="44.8842" lon="6.65868">
        <ele>1401.6</ele>
        <time>2022-07-19T20:17:50Z</time>
      </trkpt>
      <trkpt lat="44.88421" lon="6.65869">
        <ele>1401.6</ele>
        <time>2022-07-19T20:17:51Z</time>
      </trkpt>
      <trkpt lat="44.88421" lon="6.65873">
        <ele>1401.6</ele>
        <time>2022-07-19T20:17:52Z</time>
      </trkpt>
      <trkpt lat="44.88422" lon="6.65876">
        <ele>1401.6</ele>
        <time>2022-07-19T20:17:53Z</time>
      </trkpt>
      <trkpt lat="44.88423" lon="6.65879">
        <ele>1402</ele>
        <time>2022-07-19T20:17:54Z</time>
      </trkpt>
      <trkpt lat="44.88424" lon="6.65882">
        <ele>1402</ele>
        <time>2022-07-19T20:17:55Z</time>
      </trkpt>
      <trkpt lat="44.88424" lon="6.65886">
        <ele>1402.2</ele>
        <time>2022-07-19T20:17:56Z</time>
      </trkpt>
      <trkpt lat="44.88425" lon="6.65889">
        <ele>1402.2</ele>
        <time>2022-07-19T20:17:57Z</time>
      </trkpt>
      <trkpt lat="44.88426" lon="6.65892">
        <ele>1402.2</ele>
        <time>2022-07-19T20:17:58Z</time>
      </trkpt>
      <trkpt lat="44.88426" lon="6.65895">
        <ele>1402.4</ele>
        <time>2022-07-19T20:17:59Z</time>
      </trkpt>
      <trkpt lat="44.88427" lon="6.65898">
        <ele>1402.4</ele>
        <time>2022-07-19T20:18:00Z</time>
      </trkpt>
      <trkpt lat="44.88427" lon="6.65902">
        <ele>1402.4</ele>
        <time>2022-07-19T20:18:01Z</time>
      </trkpt>
      <trkpt lat="44.88427" lon="6.65905">
        <ele>1402.6</ele>
        <time>2022-07-19T20:18:02Z</time>
      </trkpt>
      <trkpt lat="44.88427" lon="6.65909">
        <ele>1402.6</ele>
        <time>2022-07-19T20:18:03Z</time>
      </trkpt>
      <trkpt lat="44.88427" lon="6.65912">
        <ele>1402.8</ele>
        <time>2022-07-19T20:18:04Z</time>
      </trkpt>
      <trkpt lat="44.88427" lon="6.65915">
        <ele>1402.8</ele>
        <time>2022-07-19T20:18:05Z</time>
      </trkpt>
      <trkpt lat="44.88427" lon="6.65919">
        <ele>1403.2</ele>
        <time>2022-07-19T20:18:06Z</time>
      </trkpt>
      <trkpt lat="44.88427" lon="6.65922">
        <ele>1403.2</ele>
        <time>2022-07-19T20:18:07Z</time>
      </trkpt>
      <trkpt lat="44.88427" lon="6.65925">
        <ele>1403.4</ele>
        <time>2022-07-19T20:18:08Z</time>
      </trkpt>
      <trkpt lat="44.88426" lon="6.65928">
        <ele>1403.4</ele>
        <time>2022-07-19T20:18:09Z</time>
      </trkpt>
      <trkpt lat="44.88424" lon="6.65931">
        <ele>1403.8</ele>
        <time>2022-07-19T20:18:10Z</time>
      </trkpt>
      <trkpt lat="44.88423" lon="6.65934">
        <ele>1403.8</ele>
        <time>2022-07-19T20:18:11Z</time>
      </trkpt>
      <trkpt lat="44.88421" lon="6.65936">
        <ele>1404</ele>
        <time>2022-07-19T20:18:12Z</time>
      </trkpt>
      <trkpt lat="44.88419" lon="6.65938">
        <ele>1404</ele>
        <time>2022-07-19T20:18:13Z</time>
      </trkpt>
      <trkpt lat="44.88416" lon="6.65939">
        <ele>1404.2</ele>
        <time>2022-07-19T20:18:14Z</time>
      </trkpt>
      <trkpt lat="44.88414" lon="6.6594">
        <ele>1404.2</ele>
        <time>2022-07-19T20:18:15Z</time>
      </trkpt>
      <trkpt lat="44.88411" lon="6.65941">
        <ele>1404.2</ele>
        <time>2022-07-19T20:18:16Z</time>
      </trkpt>
      <trkpt lat="44.88409" lon="6.65942">
        <ele>1404.4</ele>
        <time>2022-07-19T20:18:17Z</time>
      </trkpt>
      <trkpt lat="44.88406" lon="6.65942">
        <ele>1404.4</ele>
        <time>2022-07-19T20:18:18Z</time>
      </trkpt>
      <trkpt lat="44.88404" lon="6.65943">
        <ele>1404.6</ele>
        <time>2022-07-19T20:18:19Z</time>
      </trkpt>
      <trkpt lat="44.88401" lon="6.65943">
        <ele>1404.6</ele>
        <time>2022-07-19T20:18:20Z</time>
      </trkpt>
      <trkpt lat="44.88398" lon="6.65944">
        <ele>1405</ele>
        <time>2022-07-19T20:18:21Z</time>
      </trkpt>
      <trkpt lat="44.88396" lon="6.65944">
        <ele>1405</ele>
        <time>2022-07-19T20:18:22Z</time>
      </trkpt>
      <trkpt lat="44.88393" lon="6.65944">
        <ele>1405</ele>
        <time>2022-07-19T20:18:23Z</time>
      </trkpt>
      <trkpt lat="44.8839" lon="6.65943">
        <ele>1405</ele>
        <time>2022-07-19T20:18:24Z</time>
      </trkpt>
      <trkpt lat="44.88388" lon="6.65943">
        <ele>1405</ele>
        <time>2022-07-19T20:18:25Z</time>
      </trkpt>
      <trkpt lat="44.88385" lon="6.65942">
        <ele>1405.2</ele>
        <time>2022-07-19T20:18:26Z</time>
      </trkpt>
      <trkpt lat="44.88382" lon="6.65942">
        <ele>1405.2</ele>
        <time>2022-07-19T20:18:27Z</time>
      </trkpt>
      <trkpt lat="44.88379" lon="6.65941">
        <ele>1405.4</ele>
        <time>2022-07-19T20:18:28Z</time>
      </trkpt>
      <trkpt lat="44.88376" lon="6.6594">
        <ele>1405.4</ele>
        <time>2022-07-19T20:18:29Z</time>
      </trkpt>
      <trkpt lat="44.88374" lon="6.6594">
        <ele>1405.4</ele>
        <time>2022-07-19T20:18:30Z</time>
      </trkpt>
      <trkpt lat="44.88371" lon="6.65939">
        <ele>1405.8</ele>
        <time>2022-07-19T20:18:31Z</time>
      </trkpt>
      <trkpt lat="44.88369" lon="6.65939">
        <ele>1405.8</ele>
        <time>2022-07-19T20:18:32Z</time>
      </trkpt>
      <trkpt lat="44.88366" lon="6.65939">
        <ele>1405.8</ele>
        <time>2022-07-19T20:18:33Z</time>
      </trkpt>
      <trkpt lat="44.88364" lon="6.65939">
        <ele>1406</ele>
        <time>2022-07-19T20:18:34Z</time>
      </trkpt>
      <trkpt lat="44.88361" lon="6.65939">
        <ele>1406</ele>
        <time>2022-07-19T20:18:35Z</time>
      </trkpt>
      <trkpt lat="44.88359" lon="6.65939">
        <ele>1406</ele>
        <time>2022-07-19T20:18:36Z</time>
      </trkpt>
      <trkpt lat="44.88357" lon="6.6594">
        <ele>1406.2</ele>
        <time>2022-07-19T20:18:37Z</time>
      </trkpt>
      <trkpt lat="44.88354" lon="6.65941">
        <ele>1406.2</ele>
        <time>2022-07-19T20:18:38Z</time>
      </trkpt>
      <trkpt lat="44.88351" lon="6.65942">
        <ele>1406.6</ele>
        <time>2022-07-19T20:18:39Z</time>
      </trkpt>
      <trkpt lat="44.88349" lon="6.65944">
        <ele>1406.6</ele>
        <time>2022-07-19T20:18:40Z</time>
      </trkpt>
      <trkpt lat="44.88346" lon="6.65945">
        <ele>1406.8</ele>
        <time>2022-07-19T20:18:41Z</time>
      </trkpt>
      <trkpt lat="44.88344" lon="6.65947">
        <ele>1406.8</ele>
        <time>2022-07-19T20:18:42Z</time>
      </trkpt>
      <trkpt lat="44.88342" lon="6.65949">
        <ele>1407</ele>
        <time>2022-07-19T20:18:43Z</time>
      </trkpt>
      <trkpt lat="44.8834" lon="6.65951">
        <ele>1407</ele>
        <time>2022-07-19T20:18:44Z</time>
      </trkpt>
      <trkpt lat="44.88339" lon="6.65953">
        <ele>1407.2</ele>
        <time>2022-07-19T20:18:45Z</time>
      </trkpt>
      <trkpt lat="44.88337" lon="6.65955">
        <ele>1407.2</ele>
        <time>2022-07-19T20:18:46Z</time>
      </trkpt>
      <trkpt lat="44.88336" lon="6.65958">
        <ele>1407.2</ele>
        <time>2022-07-19T20:18:47Z</time>
      </trkpt>
      <trkpt lat="44.88334" lon="6.6596">
        <ele>1407.6</ele>
        <time>2022-07-19T20:18:48Z</time>
      </trkpt>
      <trkpt lat="44.88333" lon="6.65962">
        <ele>1407.6</ele>
        <time>2022-07-19T20:18:49Z</time>
      </trkpt>
      <trkpt lat="44.88331" lon="6.65965">
        <ele>1407.6</ele>
        <time>2022-07-19T20:18:50Z</time>
      </trkpt>
      <trkpt lat="44.88329" lon="6.65967">
        <ele>1407.6</ele>
        <time>2022-07-19T20:18:51Z</time>
      </trkpt>
      <trkpt lat="44.88328" lon="6.6597">
        <ele>1407.8</ele>
        <time>2022-07-19T20:18:52Z</time>
      </trkpt>
      <trkpt lat="44.88326" lon="6.65972">
        <ele>1407.8</ele>
        <time>2022-07-19T20:18:53Z</time>
      </trkpt>
      <trkpt lat="44.88324" lon="6.65975">
        <ele>1407.8</ele>
        <time>2022-07-19T20:18:54Z</time>
      </trkpt>
      <trkpt lat="44.88322" lon="6.65977">
        <ele>1408</ele>
        <time>2022-07-19T20:18:55Z</time>
      </trkpt>
      <trkpt lat="44.8832" lon="6.6598">
        <ele>1408</ele>
        <time>2022-07-19T20:18:56Z</time>
      </trkpt>
      <trkpt lat="44.88318" lon="6.65982">
        <ele>1408.4</ele>
        <time>2022-07-19T20:18:57Z</time>
      </trkpt>
      <trkpt lat="44.88316" lon="6.65985">
        <ele>1408.4</ele>
        <time>2022-07-19T20:18:58Z</time>
      </trkpt>
      <trkpt lat="44.88314" lon="6.65987">
        <ele>1408.6</ele>
        <time>2022-07-19T20:18:59Z</time>
      </trkpt>
      <trkpt lat="44.88312" lon="6.65989">
        <ele>1408.6</ele>
        <time>2022-07-19T20:19:00Z</time>
      </trkpt>
      <trkpt lat="44.88311" lon="6.6599">
        <ele>1409</ele>
        <time>2022-07-19T20:19:01Z</time>
      </trkpt>
      <trkpt lat="44.88309" lon="6.65991">
        <ele>1409</ele>
        <time>2022-07-19T20:19:02Z</time>
      </trkpt>
      <trkpt lat="44.88307" lon="6.65993">
        <ele>1409.2</ele>
        <time>2022-07-19T20:19:03Z</time>
      </trkpt>
      <trkpt lat="44.88303" lon="6.65996">
        <ele>1409.2</ele>
        <time>2022-07-19T20:19:04Z</time>
      </trkpt>
      <trkpt lat="44.88301" lon="6.65997">
        <ele>1409.4</ele>
        <time>2022-07-19T20:19:05Z</time>
      </trkpt>
      <trkpt lat="44.88299" lon="6.65999">
        <ele>1409.4</ele>
        <time>2022-07-19T20:19:06Z</time>
      </trkpt>
      <trkpt lat="44.88297" lon="6.66001">
        <ele>1409.6</ele>
        <time>2022-07-19T20:19:08Z</time>
      </trkpt>
      <trkpt lat="44.88296" lon="6.66003">
        <ele>1409.6</ele>
        <time>2022-07-19T20:19:09Z</time>
      </trkpt>
      <trkpt lat="44.88294" lon="6.66005">
        <ele>1409.6</ele>
        <time>2022-07-19T20:19:10Z</time>
      </trkpt>
      <trkpt lat="44.88292" lon="6.66007">
        <ele>1410</ele>
        <time>2022-07-19T20:19:11Z</time>
      </trkpt>
      <trkpt lat="44.88291" lon="6.66009">
        <ele>1410</ele>
        <time>2022-07-19T20:19:12Z</time>
      </trkpt>
      <trkpt lat="44.88289" lon="6.66011">
        <ele>1410.2</ele>
        <time>2022-07-19T20:19:13Z</time>
      </trkpt>
      <trkpt lat="44.88288" lon="6.66014">
        <ele>1410.2</ele>
        <time>2022-07-19T20:19:14Z</time>
      </trkpt>
      <trkpt lat="44.88287" lon="6.66016">
        <ele>1410.4</ele>
        <time>2022-07-19T20:19:15Z</time>
      </trkpt>
      <trkpt lat="44.88285" lon="6.66019">
        <ele>1410.4</ele>
        <time>2022-07-19T20:19:16Z</time>
      </trkpt>
      <trkpt lat="44.88284" lon="6.66022">
        <ele>1410.4</ele>
        <time>2022-07-19T20:19:17Z</time>
      </trkpt>
      <trkpt lat="44.88283" lon="6.66024">
        <ele>1410.6</ele>
        <time>2022-07-19T20:19:18Z</time>
      </trkpt>
      <trkpt lat="44.88282" lon="6.66027">
        <ele>1410.6</ele>
        <time>2022-07-19T20:19:19Z</time>
      </trkpt>
      <trkpt lat="44.88281" lon="6.66031">
        <ele>1410.6</ele>
        <time>2022-07-19T20:19:20Z</time>
      </trkpt>
      <trkpt lat="44.8828" lon="6.66034">
        <ele>1411</ele>
        <time>2022-07-19T20:19:21Z</time>
      </trkpt>
      <trkpt lat="44.88279" lon="6.66038">
        <ele>1411</ele>
        <time>2022-07-19T20:19:22Z</time>
      </trkpt>
      <trkpt lat="44.88278" lon="6.66042">
        <ele>1411</ele>
        <time>2022-07-19T20:19:23Z</time>
      </trkpt>
      <trkpt lat="44.88277" lon="6.66045">
        <ele>1411</ele>
        <time>2022-07-19T20:19:24Z</time>
      </trkpt>
      <trkpt lat="44.88276" lon="6.66048">
        <ele>1411.2</ele>
        <time>2022-07-19T20:19:25Z</time>
      </trkpt>
      <trkpt lat="44.88275" lon="6.66052">
        <ele>1411.2</ele>
        <time>2022-07-19T20:19:26Z</time>
      </trkpt>
      <trkpt lat="44.88275" lon="6.66055">
        <ele>1411.4</ele>
        <time>2022-07-19T20:19:27Z</time>
      </trkpt>
      <trkpt lat="44.88274" lon="6.66059">
        <ele>1411.4</ele>
        <time>2022-07-19T20:19:28Z</time>
      </trkpt>
      <trkpt lat="44.88274" lon="6.66062">
        <ele>1411.4</ele>
        <time>2022-07-19T20:19:29Z</time>
      </trkpt>
      <trkpt lat="44.88274" lon="6.66066">
        <ele>1411.8</ele>
        <time>2022-07-19T20:19:30Z</time>
      </trkpt>
      <trkpt lat="44.88274" lon="6.6607">
        <ele>1411.8</ele>
        <time>2022-07-19T20:19:31Z</time>
      </trkpt>
      <trkpt lat="44.88274" lon="6.66074">
        <ele>1411.8</ele>
        <time>2022-07-19T20:19:32Z</time>
      </trkpt>
      <trkpt lat="44.88273" lon="6.66078">
        <ele>1411.8</ele>
        <time>2022-07-19T20:19:33Z</time>
      </trkpt>
      <trkpt lat="44.88274" lon="6.66082">
        <ele>1411.8</ele>
        <time>2022-07-19T20:19:34Z</time>
      </trkpt>
      <trkpt lat="44.88274" lon="6.66086">
        <ele>1412</ele>
        <time>2022-07-19T20:19:35Z</time>
      </trkpt>
      <trkpt lat="44.88274" lon="6.6609">
        <ele>1412</ele>
        <time>2022-07-19T20:19:36Z</time>
      </trkpt>
      <trkpt lat="44.88274" lon="6.66094">
        <ele>1412</ele>
        <time>2022-07-19T20:19:37Z</time>
      </trkpt>
      <trkpt lat="44.88273" lon="6.66098">
        <ele>1412.2</ele>
        <time>2022-07-19T20:19:38Z</time>
      </trkpt>
      <trkpt lat="44.88274" lon="6.66103">
        <ele>1412.2</ele>
        <time>2022-07-19T20:19:39Z</time>
      </trkpt>
      <trkpt lat="44.88274" lon="6.66107">
        <ele>1412.2</ele>
        <time>2022-07-19T20:19:40Z</time>
      </trkpt>
      <trkpt lat="44.88274" lon="6.66111">
        <ele>1412.4</ele>
        <time>2022-07-19T20:19:41Z</time>
      </trkpt>
      <trkpt lat="44.88274" lon="6.66115">
        <ele>1412.4</ele>
        <time>2022-07-19T20:19:42Z</time>
      </trkpt>
      <trkpt lat="44.88274" lon="6.66119">
        <ele>1412.8</ele>
        <time>2022-07-19T20:19:43Z</time>
      </trkpt>
      <trkpt lat="44.88274" lon="6.66123">
        <ele>1412.8</ele>
        <time>2022-07-19T20:19:44Z</time>
      </trkpt>
      <trkpt lat="44.88274" lon="6.66127">
        <ele>1412.8</ele>
        <time>2022-07-19T20:19:45Z</time>
      </trkpt>
      <trkpt lat="44.88274" lon="6.6613">
        <ele>1413</ele>
        <time>2022-07-19T20:19:46Z</time>
      </trkpt>
      <trkpt lat="44.88274" lon="6.66134">
        <ele>1413</ele>
        <time>2022-07-19T20:19:47Z</time>
      </trkpt>
      <trkpt lat="44.88273" lon="6.66138">
        <ele>1413.2</ele>
        <time>2022-07-19T20:19:48Z</time>
      </trkpt>
      <trkpt lat="44.88272" lon="6.66143">
        <ele>1413.2</ele>
        <time>2022-07-19T20:19:49Z</time>
      </trkpt>
      <trkpt lat="44.88271" lon="6.66148">
        <ele>1413.2</ele>
        <time>2022-07-19T20:19:50Z</time>
      </trkpt>
      <trkpt lat="44.88269" lon="6.66152">
        <ele>1413.4</ele>
        <time>2022-07-19T20:19:51Z</time>
      </trkpt>
      <trkpt lat="44.88268" lon="6.66157">
        <ele>1413.4</ele>
        <time>2022-07-19T20:19:52Z</time>
      </trkpt>
      <trkpt lat="44.88266" lon="6.66162">
        <ele>1413.4</ele>
        <time>2022-07-19T20:19:53Z</time>
      </trkpt>
      <trkpt lat="44.88264" lon="6.66167">
        <ele>1413.4</ele>
        <time>2022-07-19T20:19:54Z</time>
      </trkpt>
      <trkpt lat="44.88262" lon="6.66171">
        <ele>1413.8</ele>
        <time>2022-07-19T20:19:55Z</time>
      </trkpt>
      <trkpt lat="44.8826" lon="6.66176">
        <ele>1413.8</ele>
        <time>2022-07-19T20:19:56Z</time>
      </trkpt>
      <trkpt lat="44.88257" lon="6.66179">
        <ele>1414</ele>
        <time>2022-07-19T20:19:57Z</time>
      </trkpt>
      <trkpt lat="44.88255" lon="6.66183">
        <ele>1414</ele>
        <time>2022-07-19T20:19:58Z</time>
      </trkpt>
      <trkpt lat="44.88253" lon="6.66186">
        <ele>1414.4</ele>
        <time>2022-07-19T20:19:59Z</time>
      </trkpt>
      <trkpt lat="44.88252" lon="6.6619">
        <ele>1414.4</ele>
        <time>2022-07-19T20:20:00Z</time>
      </trkpt>
      <trkpt lat="44.88251" lon="6.66193">
        <ele>1414.6</ele>
        <time>2022-07-19T20:20:01Z</time>
      </trkpt>
      <trkpt lat="44.8825" lon="6.66196">
        <ele>1414.8</ele>
        <time>2022-07-19T20:20:02Z</time>
      </trkpt>
      <trkpt lat="44.88249" lon="6.66199">
        <ele>1415.2</ele>
        <time>2022-07-19T20:20:03Z</time>
      </trkpt>
      <trkpt lat="44.88247" lon="6.66202">
        <ele>1415.2</ele>
        <time>2022-07-19T20:20:04Z</time>
      </trkpt>
      <trkpt lat="44.88245" lon="6.66205">
        <ele>1415.2</ele>
        <time>2022-07-19T20:20:05Z</time>
      </trkpt>
      <trkpt lat="44.88243" lon="6.66207">
        <ele>1415.4</ele>
        <time>2022-07-19T20:20:06Z</time>
      </trkpt>
      <trkpt lat="44.88241" lon="6.6621">
        <ele>1415.4</ele>
        <time>2022-07-19T20:20:07Z</time>
      </trkpt>
      <trkpt lat="44.8824" lon="6.66214">
        <ele>1415.4</ele>
        <time>2022-07-19T20:20:08Z</time>
      </trkpt>
      <trkpt lat="44.88238" lon="6.66217">
        <ele>1415.4</ele>
        <time>2022-07-19T20:20:09Z</time>
      </trkpt>
      <trkpt lat="44.88236" lon="6.66221">
        <ele>1415.6</ele>
        <time>2022-07-19T20:20:10Z</time>
      </trkpt>
      <trkpt lat="44.88234" lon="6.66224">
        <ele>1415.6</ele>
        <time>2022-07-19T20:20:11Z</time>
      </trkpt>
      <trkpt lat="44.88232" lon="6.66228">
        <ele>1415.6</ele>
        <time>2022-07-19T20:20:12Z</time>
      </trkpt>
      <trkpt lat="44.88231" lon="6.66231">
        <ele>1415.8</ele>
        <time>2022-07-19T20:20:13Z</time>
      </trkpt>
      <trkpt lat="44.88229" lon="6.66235">
        <ele>1415.8</ele>
        <time>2022-07-19T20:20:14Z</time>
      </trkpt>
      <trkpt lat="44.88227" lon="6.66239">
        <ele>1416</ele>
        <time>2022-07-19T20:20:15Z</time>
      </trkpt>
      <trkpt lat="44.88226" lon="6.66243">
        <ele>1416</ele>
        <time>2022-07-19T20:20:16Z</time>
      </trkpt>
      <trkpt lat="44.88225" lon="6.66247">
        <ele>1416.4</ele>
        <time>2022-07-19T20:20:17Z</time>
      </trkpt>
      <trkpt lat="44.88224" lon="6.66251">
        <ele>1416.4</ele>
        <time>2022-07-19T20:20:18Z</time>
      </trkpt>
      <trkpt lat="44.88224" lon="6.66255">
        <ele>1416.6</ele>
        <time>2022-07-19T20:20:19Z</time>
      </trkpt>
      <trkpt lat="44.88223" lon="6.66259">
        <ele>1416.6</ele>
        <time>2022-07-19T20:20:20Z</time>
      </trkpt>
      <trkpt lat="44.88223" lon="6.66263">
        <ele>1416.8</ele>
        <time>2022-07-19T20:20:21Z</time>
      </trkpt>
      <trkpt lat="44.88223" lon="6.66268">
        <ele>1416.8</ele>
        <time>2022-07-19T20:20:22Z</time>
      </trkpt>
      <trkpt lat="44.88223" lon="6.66272">
        <ele>1416.8</ele>
        <time>2022-07-19T20:20:23Z</time>
      </trkpt>
      <trkpt lat="44.88224" lon="6.66276">
        <ele>1417</ele>
        <time>2022-07-19T20:20:24Z</time>
      </trkpt>
      <trkpt lat="44.88224" lon="6.6628">
        <ele>1417</ele>
        <time>2022-07-19T20:20:25Z</time>
      </trkpt>
      <trkpt lat="44.88224" lon="6.66284">
        <ele>1417.4</ele>
        <time>2022-07-19T20:20:26Z</time>
      </trkpt>
      <trkpt lat="44.88225" lon="6.66288">
        <ele>1417.4</ele>
        <time>2022-07-19T20:20:27Z</time>
      </trkpt>
      <trkpt lat="44.88226" lon="6.66292">
        <ele>1417.6</ele>
        <time>2022-07-19T20:20:28Z</time>
      </trkpt>
      <trkpt lat="44.88227" lon="6.66296">
        <ele>1417.6</ele>
        <time>2022-07-19T20:20:29Z</time>
      </trkpt>
      <trkpt lat="44.88228" lon="6.663">
        <ele>1417.6</ele>
        <time>2022-07-19T20:20:30Z</time>
      </trkpt>
      <trkpt lat="44.88229" lon="6.66304">
        <ele>1417.8</ele>
        <time>2022-07-19T20:20:31Z</time>
      </trkpt>
      <trkpt lat="44.8823" lon="6.66308">
        <ele>1417.8</ele>
        <time>2022-07-19T20:20:32Z</time>
      </trkpt>
      <trkpt lat="44.88231" lon="6.66312">
        <ele>1417.8</ele>
        <time>2022-07-19T20:20:33Z</time>
      </trkpt>
      <trkpt lat="44.88232" lon="6.66316">
        <ele>1418</ele>
        <time>2022-07-19T20:20:34Z</time>
      </trkpt>
      <trkpt lat="44.88233" lon="6.6632">
        <ele>1418</ele>
        <time>2022-07-19T20:20:35Z</time>
      </trkpt>
      <trkpt lat="44.88234" lon="6.66324">
        <ele>1418.2</ele>
        <time>2022-07-19T20:20:36Z</time>
      </trkpt>
      <trkpt lat="44.88235" lon="6.66328">
        <ele>1418.2</ele>
        <time>2022-07-19T20:20:37Z</time>
      </trkpt>
      <trkpt lat="44.88236" lon="6.66332">
        <ele>1418.2</ele>
        <time>2022-07-19T20:20:38Z</time>
      </trkpt>
      <trkpt lat="44.88236" lon="6.66336">
        <ele>1418.2</ele>
        <time>2022-07-19T20:20:39Z</time>
      </trkpt>
      <trkpt lat="44.88236" lon="6.66341">
        <ele>1418.2</ele>
        <time>2022-07-19T20:20:40Z</time>
      </trkpt>
      <trkpt lat="44.88236" lon="6.66345">
        <ele>1418.4</ele>
        <time>2022-07-19T20:20:41Z</time>
      </trkpt>
      <trkpt lat="44.88235" lon="6.66349">
        <ele>1418.4</ele>
        <time>2022-07-19T20:20:42Z</time>
      </trkpt>
      <trkpt lat="44.88234" lon="6.66352">
        <ele>1418.8</ele>
        <time>2022-07-19T20:20:43Z</time>
      </trkpt>
      <trkpt lat="44.88232" lon="6.66355">
        <ele>1418.8</ele>
        <time>2022-07-19T20:20:44Z</time>
      </trkpt>
      <trkpt lat="44.88231" lon="6.66359">
        <ele>1419</ele>
        <time>2022-07-19T20:20:45Z</time>
      </trkpt>
      <trkpt lat="44.8823" lon="6.66362">
        <ele>1419</ele>
        <time>2022-07-19T20:20:46Z</time>
      </trkpt>
      <trkpt lat="44.88229" lon="6.66366">
        <ele>1419.4</ele>
        <time>2022-07-19T20:20:47Z</time>
      </trkpt>
      <trkpt lat="44.88228" lon="6.66369">
        <ele>1419.4</ele>
        <time>2022-07-19T20:20:48Z</time>
      </trkpt>
      <trkpt lat="44.88227" lon="6.66373">
        <ele>1419.6</ele>
        <time>2022-07-19T20:20:49Z</time>
      </trkpt>
      <trkpt lat="44.88226" lon="6.66377">
        <ele>1419.6</ele>
        <time>2022-07-19T20:20:50Z</time>
      </trkpt>
      <trkpt lat="44.88226" lon="6.66381">
        <ele>1419.8</ele>
        <time>2022-07-19T20:20:51Z</time>
      </trkpt>
      <trkpt lat="44.88225" lon="6.66385">
        <ele>1419.8</ele>
        <time>2022-07-19T20:20:52Z</time>
      </trkpt>
      <trkpt lat="44.88223" lon="6.66389">
        <ele>1420.2</ele>
        <time>2022-07-19T20:20:53Z</time>
      </trkpt>
      <trkpt lat="44.88222" lon="6.66393">
        <ele>1420.2</ele>
        <time>2022-07-19T20:20:54Z</time>
      </trkpt>
      <trkpt lat="44.8822" lon="6.66396">
        <ele>1420.2</ele>
        <time>2022-07-19T20:20:55Z</time>
      </trkpt>
      <trkpt lat="44.88219" lon="6.664">
        <ele>1420.2</ele>
        <time>2022-07-19T20:20:56Z</time>
      </trkpt>
      <trkpt lat="44.88217" lon="6.66403">
        <ele>1420.4</ele>
        <time>2022-07-19T20:20:57Z</time>
      </trkpt>
      <trkpt lat="44.88215" lon="6.66406">
        <ele>1420.4</ele>
        <time>2022-07-19T20:20:58Z</time>
      </trkpt>
      <trkpt lat="44.88214" lon="6.66409">
        <ele>1420.6</ele>
        <time>2022-07-19T20:20:59Z</time>
      </trkpt>
      <trkpt lat="44.88212" lon="6.66412">
        <ele>1420.6</ele>
        <time>2022-07-19T20:21:00Z</time>
      </trkpt>
      <trkpt lat="44.8821" lon="6.66415">
        <ele>1420.8</ele>
        <time>2022-07-19T20:21:01Z</time>
      </trkpt>
      <trkpt lat="44.88209" lon="6.66418">
        <ele>1420.8</ele>
        <time>2022-07-19T20:21:02Z</time>
      </trkpt>
      <trkpt lat="44.88207" lon="6.66421">
        <ele>1421.2</ele>
        <time>2022-07-19T20:21:03Z</time>
      </trkpt>
      <trkpt lat="44.88206" lon="6.66424">
        <ele>1421.2</ele>
        <time>2022-07-19T20:21:04Z</time>
      </trkpt>
      <trkpt lat="44.88204" lon="6.66428">
        <ele>1421.2</ele>
        <time>2022-07-19T20:21:05Z</time>
      </trkpt>
      <trkpt lat="44.88203" lon="6.66431">
        <ele>1421.2</ele>
        <time>2022-07-19T20:21:06Z</time>
      </trkpt>
      <trkpt lat="44.88202" lon="6.66435">
        <ele>1421.2</ele>
        <time>2022-07-19T20:21:07Z</time>
      </trkpt>
      <trkpt lat="44.88201" lon="6.66439">
        <ele>1421.4</ele>
        <time>2022-07-19T20:21:08Z</time>
      </trkpt>
      <trkpt lat="44.88201" lon="6.66443">
        <ele>1421.4</ele>
        <time>2022-07-19T20:21:09Z</time>
      </trkpt>
      <trkpt lat="44.882" lon="6.66447">
        <ele>1421.4</ele>
        <time>2022-07-19T20:21:10Z</time>
      </trkpt>
      <trkpt lat="44.88199" lon="6.6645">
        <ele>1421.8</ele>
        <time>2022-07-19T20:21:11Z</time>
      </trkpt>
      <trkpt lat="44.88198" lon="6.66454">
        <ele>1421.8</ele>
        <time>2022-07-19T20:21:12Z</time>
      </trkpt>
      <trkpt lat="44.88198" lon="6.66457">
        <ele>1422</ele>
        <time>2022-07-19T20:21:13Z</time>
      </trkpt>
      <trkpt lat="44.88198" lon="6.66461">
        <ele>1422</ele>
        <time>2022-07-19T20:21:14Z</time>
      </trkpt>
      <trkpt lat="44.88197" lon="6.66464">
        <ele>1422</ele>
        <time>2022-07-19T20:21:15Z</time>
      </trkpt>
      <trkpt lat="44.88197" lon="6.66468">
        <ele>1422.2</ele>
        <time>2022-07-19T20:21:16Z</time>
      </trkpt>
      <trkpt lat="44.88196" lon="6.66472">
        <ele>1422.2</ele>
        <time>2022-07-19T20:21:17Z</time>
      </trkpt>
      <trkpt lat="44.88196" lon="6.66476">
        <ele>1422.2</ele>
        <time>2022-07-19T20:21:18Z</time>
      </trkpt>
      <trkpt lat="44.88195" lon="6.6648">
        <ele>1422.2</ele>
        <time>2022-07-19T20:21:19Z</time>
      </trkpt>
      <trkpt lat="44.88194" lon="6.66484">
        <ele>1422.2</ele>
        <time>2022-07-19T20:21:20Z</time>
      </trkpt>
      <trkpt lat="44.88193" lon="6.66488">
        <ele>1422.6</ele>
        <time>2022-07-19T20:21:21Z</time>
      </trkpt>
      <trkpt lat="44.88192" lon="6.66491">
        <ele>1422.6</ele>
        <time>2022-07-19T20:21:22Z</time>
      </trkpt>
      <trkpt lat="44.8819" lon="6.66495">
        <ele>1422.6</ele>
        <time>2022-07-19T20:21:23Z</time>
      </trkpt>
      <trkpt lat="44.88188" lon="6.66499">
        <ele>1422.8</ele>
        <time>2022-07-19T20:21:24Z</time>
      </trkpt>
      <trkpt lat="44.88186" lon="6.66502">
        <ele>1422.8</ele>
        <time>2022-07-19T20:21:25Z</time>
      </trkpt>
      <trkpt lat="44.88184" lon="6.66506">
        <ele>1422.8</ele>
        <time>2022-07-19T20:21:26Z</time>
      </trkpt>
      <trkpt lat="44.88182" lon="6.66509">
        <ele>1423</ele>
        <time>2022-07-19T20:21:27Z</time>
      </trkpt>
      <trkpt lat="44.8818" lon="6.66512">
        <ele>1423.2</ele>
        <time>2022-07-19T20:21:28Z</time>
      </trkpt>
      <trkpt lat="44.88178" lon="6.66514">
        <ele>1423.2</ele>
        <time>2022-07-19T20:21:29Z</time>
      </trkpt>
      <trkpt lat="44.88177" lon="6.66516">
        <ele>1423.2</ele>
        <time>2022-07-19T20:21:30Z</time>
      </trkpt>
      <trkpt lat="44.88175" lon="6.66519">
        <ele>1423.4</ele>
        <time>2022-07-19T20:21:31Z</time>
      </trkpt>
      <trkpt lat="44.88173" lon="6.66522">
        <ele>1423.4</ele>
        <time>2022-07-19T20:21:32Z</time>
      </trkpt>
      <trkpt lat="44.88172" lon="6.66526">
        <ele>1423.8</ele>
        <time>2022-07-19T20:21:33Z</time>
      </trkpt>
      <trkpt lat="44.8817" lon="6.6653">
        <ele>1423.8</ele>
        <time>2022-07-19T20:21:34Z</time>
      </trkpt>
      <trkpt lat="44.88168" lon="6.66534">
        <ele>1423.8</ele>
        <time>2022-07-19T20:21:35Z</time>
      </trkpt>
      <trkpt lat="44.88167" lon="6.66538">
        <ele>1424</ele>
        <time>2022-07-19T20:21:36Z</time>
      </trkpt>
      <trkpt lat="44.88165" lon="6.66543">
        <ele>1424</ele>
        <time>2022-07-19T20:21:37Z</time>
      </trkpt>
      <trkpt lat="44.88163" lon="6.66548">
        <ele>1424</ele>
        <time>2022-07-19T20:21:38Z</time>
      </trkpt>
      <trkpt lat="44.88162" lon="6.66553">
        <ele>1424</ele>
        <time>2022-07-19T20:21:39Z</time>
      </trkpt>
      <trkpt lat="44.88161" lon="6.66557">
        <ele>1424</ele>
        <time>2022-07-19T20:21:40Z</time>
      </trkpt>
      <trkpt lat="44.88159" lon="6.66562">
        <ele>1424</ele>
        <time>2022-07-19T20:21:41Z</time>
      </trkpt>
      <trkpt lat="44.88158" lon="6.66567">
        <ele>1424</ele>
        <time>2022-07-19T20:21:42Z</time>
      </trkpt>
      <trkpt lat="44.88157" lon="6.66573">
        <ele>1423.8</ele>
        <time>2022-07-19T20:21:43Z</time>
      </trkpt>
      <trkpt lat="44.88156" lon="6.66578">
        <ele>1423.8</ele>
        <time>2022-07-19T20:21:44Z</time>
      </trkpt>
      <trkpt lat="44.88154" lon="6.66584">
        <ele>1423.8</ele>
        <time>2022-07-19T20:21:45Z</time>
      </trkpt>
      <trkpt lat="44.88153" lon="6.6659">
        <ele>1423.4</ele>
        <time>2022-07-19T20:21:46Z</time>
      </trkpt>
      <trkpt lat="44.88152" lon="6.66596">
        <ele>1423.4</ele>
        <time>2022-07-19T20:21:47Z</time>
      </trkpt>
      <trkpt lat="44.88151" lon="6.66602">
        <ele>1423.4</ele>
        <time>2022-07-19T20:21:48Z</time>
      </trkpt>
      <trkpt lat="44.8815" lon="6.66608">
        <ele>1423.2</ele>
        <time>2022-07-19T20:21:49Z</time>
      </trkpt>
      <trkpt lat="44.88148" lon="6.66614">
        <ele>1423.2</ele>
        <time>2022-07-19T20:21:50Z</time>
      </trkpt>
      <trkpt lat="44.88147" lon="6.6662">
        <ele>1423.2</ele>
        <time>2022-07-19T20:21:51Z</time>
      </trkpt>
      <trkpt lat="44.88145" lon="6.66627">
        <ele>1422.8</ele>
        <time>2022-07-19T20:21:52Z</time>
      </trkpt>
      <trkpt lat="44.88144" lon="6.66633">
        <ele>1422.8</ele>
        <time>2022-07-19T20:21:53Z</time>
      </trkpt>
      <trkpt lat="44.88142" lon="6.6664">
        <ele>1422.6</ele>
        <time>2022-07-19T20:21:54Z</time>
      </trkpt>
      <trkpt lat="44.8814" lon="6.66646">
        <ele>1422.6</ele>
        <time>2022-07-19T20:21:55Z</time>
      </trkpt>
      <trkpt lat="44.88139" lon="6.66654">
        <ele>1422.6</ele>
        <time>2022-07-19T20:21:56Z</time>
      </trkpt>
      <trkpt lat="44.88139" lon="6.66661">
        <ele>1422.4</ele>
        <time>2022-07-19T20:21:58Z</time>
      </trkpt>
      <trkpt lat="44.88138" lon="6.66669">
        <ele>1422.4</ele>
        <time>2022-07-19T20:21:59Z</time>
      </trkpt>
      <trkpt lat="44.88138" lon="6.66676">
        <ele>1422.4</ele>
        <time>2022-07-19T20:22:00Z</time>
      </trkpt>
      <trkpt lat="44.88138" lon="6.66684">
        <ele>1422.2</ele>
        <time>2022-07-19T20:22:01Z</time>
      </trkpt>
      <trkpt lat="44.88139" lon="6.66692">
        <ele>1422.2</ele>
        <time>2022-07-19T20:22:02Z</time>
      </trkpt>
      <trkpt lat="44.88139" lon="6.66699">
        <ele>1422</ele>
        <time>2022-07-19T20:22:03Z</time>
      </trkpt>
      <trkpt lat="44.8814" lon="6.66707">
        <ele>1422</ele>
        <time>2022-07-19T20:22:04Z</time>
      </trkpt>
      <trkpt lat="44.88141" lon="6.66714">
        <ele>1422</ele>
        <time>2022-07-19T20:22:05Z</time>
      </trkpt>
      <trkpt lat="44.88143" lon="6.66721">
        <ele>1421.6</ele>
        <time>2022-07-19T20:22:06Z</time>
      </trkpt>
      <trkpt lat="44.88145" lon="6.66728">
        <ele>1421.6</ele>
        <time>2022-07-19T20:22:07Z</time>
      </trkpt>
      <trkpt lat="44.88147" lon="6.66735">
        <ele>1421.6</ele>
        <time>2022-07-19T20:22:08Z</time>
      </trkpt>
      <trkpt lat="44.88149" lon="6.66742">
        <ele>1421.4</ele>
        <time>2022-07-19T20:22:09Z</time>
      </trkpt>
      <trkpt lat="44.88151" lon="6.66749">
        <ele>1421.4</ele>
        <time>2022-07-19T20:22:10Z</time>
      </trkpt>
      <trkpt lat="44.88154" lon="6.66756">
        <ele>1421.2</ele>
        <time>2022-07-19T20:22:11Z</time>
      </trkpt>
      <trkpt lat="44.88156" lon="6.66763">
        <ele>1421.2</ele>
        <time>2022-07-19T20:22:12Z</time>
      </trkpt>
      <trkpt lat="44.88159" lon="6.6677">
        <ele>1420.6</ele>
        <time>2022-07-19T20:22:13Z</time>
      </trkpt>
      <trkpt lat="44.88162" lon="6.66779">
        <ele>1420.2</ele>
        <time>2022-07-19T20:22:14Z</time>
      </trkpt>
      <trkpt lat="44.88164" lon="6.66787">
        <ele>1419.8</ele>
        <time>2022-07-19T20:22:15Z</time>
      </trkpt>
      <trkpt lat="44.88167" lon="6.66797">
        <ele>1419.6</ele>
        <time>2022-07-19T20:22:16Z</time>
      </trkpt>
      <trkpt lat="44.88168" lon="6.66807">
        <ele>1419.4</ele>
        <time>2022-07-19T20:22:17Z</time>
      </trkpt>
      <trkpt lat="44.88169" lon="6.66816">
        <ele>1419</ele>
        <time>2022-07-19T20:22:18Z</time>
      </trkpt>
      <trkpt lat="44.8817" lon="6.66826">
        <ele>1418.8</ele>
        <time>2022-07-19T20:22:19Z</time>
      </trkpt>
      <trkpt lat="44.88171" lon="6.66835">
        <ele>1418.8</ele>
        <time>2022-07-19T20:22:20Z</time>
      </trkpt>
      <trkpt lat="44.88173" lon="6.66844">
        <ele>1418.6</ele>
        <time>2022-07-19T20:22:21Z</time>
      </trkpt>
      <trkpt lat="44.88175" lon="6.66853">
        <ele>1418.6</ele>
        <time>2022-07-19T20:22:22Z</time>
      </trkpt>
      <trkpt lat="44.88178" lon="6.66862">
        <ele>1418.2</ele>
        <time>2022-07-19T20:22:23Z</time>
      </trkpt>
      <trkpt lat="44.88181" lon="6.66869">
        <ele>1418.2</ele>
        <time>2022-07-19T20:22:24Z</time>
      </trkpt>
      <trkpt lat="44.88185" lon="6.66877">
        <ele>1417.8</ele>
        <time>2022-07-19T20:22:25Z</time>
      </trkpt>
      <trkpt lat="44.88188" lon="6.66883">
        <ele>1417.8</ele>
        <time>2022-07-19T20:22:26Z</time>
      </trkpt>
      <trkpt lat="44.88191" lon="6.6689">
        <ele>1417.6</ele>
        <time>2022-07-19T20:22:27Z</time>
      </trkpt>
      <trkpt lat="44.88194" lon="6.66896">
        <ele>1417.6</ele>
        <time>2022-07-19T20:22:28Z</time>
      </trkpt>
      <trkpt lat="44.88197" lon="6.66902">
        <ele>1417.4</ele>
        <time>2022-07-19T20:22:29Z</time>
      </trkpt>
      <trkpt lat="44.88199" lon="6.66909">
        <ele>1417.4</ele>
        <time>2022-07-19T20:22:30Z</time>
      </trkpt>
      <trkpt lat="44.88201" lon="6.66916">
        <ele>1417.2</ele>
        <time>2022-07-19T20:22:31Z</time>
      </trkpt>
      <trkpt lat="44.88202" lon="6.66923">
        <ele>1417.2</ele>
        <time>2022-07-19T20:22:32Z</time>
      </trkpt>
      <trkpt lat="44.88201" lon="6.6693">
        <ele>1416.8</ele>
        <time>2022-07-19T20:22:33Z</time>
      </trkpt>
      <trkpt lat="44.88199" lon="6.66937">
        <ele>1416.8</ele>
        <time>2022-07-19T20:22:34Z</time>
      </trkpt>
      <trkpt lat="44.88196" lon="6.66943">
        <ele>1416.6</ele>
        <time>2022-07-19T20:22:35Z</time>
      </trkpt>
      <trkpt lat="44.88191" lon="6.66948">
        <ele>1416.6</ele>
        <time>2022-07-19T20:22:36Z</time>
      </trkpt>
      <trkpt lat="44.88186" lon="6.6695">
        <ele>1416.4</ele>
        <time>2022-07-19T20:22:37Z</time>
      </trkpt>
      <trkpt lat="44.8818" lon="6.66952">
        <ele>1416.4</ele>
        <time>2022-07-19T20:22:38Z</time>
      </trkpt>
      <trkpt lat="44.88174" lon="6.66952">
        <ele>1416.4</ele>
        <time>2022-07-19T20:22:39Z</time>
      </trkpt>
      <trkpt lat="44.88168" lon="6.66953">
        <ele>1416.4</ele>
        <time>2022-07-19T20:22:40Z</time>
      </trkpt>
      <trkpt lat="44.88162" lon="6.66954">
        <ele>1416.2</ele>
        <time>2022-07-19T20:22:41Z</time>
      </trkpt>
      <trkpt lat="44.88156" lon="6.66956">
        <ele>1416.2</ele>
        <time>2022-07-19T20:22:42Z</time>
      </trkpt>
      <trkpt lat="44.8815" lon="6.66957">
        <ele>1415.8</ele>
        <time>2022-07-19T20:22:43Z</time>
      </trkpt>
      <trkpt lat="44.88144" lon="6.6696">
        <ele>1415.6</ele>
        <time>2022-07-19T20:22:44Z</time>
      </trkpt>
      <trkpt lat="44.88138" lon="6.66963">
        <ele>1415.4</ele>
        <time>2022-07-19T20:22:45Z</time>
      </trkpt>
      <trkpt lat="44.88132" lon="6.66967">
        <ele>1415</ele>
        <time>2022-07-19T20:22:46Z</time>
      </trkpt>
      <trkpt lat="44.88125" lon="6.6697">
        <ele>1414.6</ele>
        <time>2022-07-19T20:22:47Z</time>
      </trkpt>
      <trkpt lat="44.88118" lon="6.66973">
        <ele>1414.2</ele>
        <time>2022-07-19T20:22:48Z</time>
      </trkpt>
      <trkpt lat="44.88111" lon="6.66975">
        <ele>1414.2</ele>
        <time>2022-07-19T20:22:49Z</time>
      </trkpt>
      <trkpt lat="44.88103" lon="6.66977">
        <ele>1414.2</ele>
        <time>2022-07-19T20:22:50Z</time>
      </trkpt>
      <trkpt lat="44.88096" lon="6.66979">
        <ele>1414</ele>
        <time>2022-07-19T20:22:51Z</time>
      </trkpt>
      <trkpt lat="44.88089" lon="6.6698">
        <ele>1413.8</ele>
        <time>2022-07-19T20:22:52Z</time>
      </trkpt>
      <trkpt lat="44.88082" lon="6.6698">
        <ele>1413.6</ele>
        <time>2022-07-19T20:22:53Z</time>
      </trkpt>
      <trkpt lat="44.88076" lon="6.6698">
        <ele>1413.2</ele>
        <time>2022-07-19T20:22:54Z</time>
      </trkpt>
      <trkpt lat="44.88069" lon="6.6698">
        <ele>1413.2</ele>
        <time>2022-07-19T20:22:55Z</time>
      </trkpt>
      <trkpt lat="44.88064" lon="6.6698">
        <ele>1413</ele>
        <time>2022-07-19T20:22:56Z</time>
      </trkpt>
      <trkpt lat="44.88058" lon="6.6698">
        <ele>1413</ele>
        <time>2022-07-19T20:22:57Z</time>
      </trkpt>
      <trkpt lat="44.88052" lon="6.66981">
        <ele>1412.6</ele>
        <time>2022-07-19T20:22:58Z</time>
      </trkpt>
      <trkpt lat="44.88047" lon="6.66984">
        <ele>1412.6</ele>
        <time>2022-07-19T20:22:59Z</time>
      </trkpt>
      <trkpt lat="44.88043" lon="6.66988">
        <ele>1412.4</ele>
        <time>2022-07-19T20:23:00Z</time>
      </trkpt>
      <trkpt lat="44.88039" lon="6.66993">
        <ele>1412.2</ele>
        <time>2022-07-19T20:23:01Z</time>
      </trkpt>
      <trkpt lat="44.88036" lon="6.66999">
        <ele>1412.2</ele>
        <time>2022-07-19T20:23:02Z</time>
      </trkpt>
      <trkpt lat="44.88035" lon="6.67005">
        <ele>1411.8</ele>
        <time>2022-07-19T20:23:03Z</time>
      </trkpt>
      <trkpt lat="44.88034" lon="6.67012">
        <ele>1411.8</ele>
        <time>2022-07-19T20:23:04Z</time>
      </trkpt>
      <trkpt lat="44.88034" lon="6.6702">
        <ele>1411.4</ele>
        <time>2022-07-19T20:23:05Z</time>
      </trkpt>
      <trkpt lat="44.88034" lon="6.67028">
        <ele>1411.4</ele>
        <time>2022-07-19T20:23:06Z</time>
      </trkpt>
      <trkpt lat="44.88034" lon="6.67036">
        <ele>1410.8</ele>
        <time>2022-07-19T20:23:07Z</time>
      </trkpt>
      <trkpt lat="44.88034" lon="6.67044">
        <ele>1410.6</ele>
        <time>2022-07-19T20:23:08Z</time>
      </trkpt>
      <trkpt lat="44.88033" lon="6.67052">
        <ele>1410.4</ele>
        <time>2022-07-19T20:23:09Z</time>
      </trkpt>
      <trkpt lat="44.88031" lon="6.6706">
        <ele>1410.2</ele>
        <time>2022-07-19T20:23:10Z</time>
      </trkpt>
      <trkpt lat="44.8803" lon="6.67068">
        <ele>1410.2</ele>
        <time>2022-07-19T20:23:11Z</time>
      </trkpt>
      <trkpt lat="44.88029" lon="6.67076">
        <ele>1409.8</ele>
        <time>2022-07-19T20:23:12Z</time>
      </trkpt>
      <trkpt lat="44.88028" lon="6.67085">
        <ele>1409.8</ele>
        <time>2022-07-19T20:23:13Z</time>
      </trkpt>
      <trkpt lat="44.88027" lon="6.67093">
        <ele>1409.4</ele>
        <time>2022-07-19T20:23:14Z</time>
      </trkpt>
      <trkpt lat="44.88027" lon="6.67101">
        <ele>1409.2</ele>
        <time>2022-07-19T20:23:15Z</time>
      </trkpt>
      <trkpt lat="44.88026" lon="6.67108">
        <ele>1408.8</ele>
        <time>2022-07-19T20:23:16Z</time>
      </trkpt>
      <trkpt lat="44.88025" lon="6.67115">
        <ele>1408.6</ele>
        <time>2022-07-19T20:23:17Z</time>
      </trkpt>
      <trkpt lat="44.88022" lon="6.67122">
        <ele>1408.2</ele>
        <time>2022-07-19T20:23:18Z</time>
      </trkpt>
      <trkpt lat="44.88018" lon="6.67128">
        <ele>1407.8</ele>
        <time>2022-07-19T20:23:19Z</time>
      </trkpt>
      <trkpt lat="44.88014" lon="6.67133">
        <ele>1407.4</ele>
        <time>2022-07-19T20:23:20Z</time>
      </trkpt>
      <trkpt lat="44.88009" lon="6.67137">
        <ele>1407.2</ele>
        <time>2022-07-19T20:23:21Z</time>
      </trkpt>
      <trkpt lat="44.88005" lon="6.67141">
        <ele>1407.2</ele>
        <time>2022-07-19T20:23:22Z</time>
      </trkpt>
      <trkpt lat="44.88001" lon="6.67145">
        <ele>1406.8</ele>
        <time>2022-07-19T20:23:23Z</time>
      </trkpt>
      <trkpt lat="44.87998" lon="6.67151">
        <ele>1406.8</ele>
        <time>2022-07-19T20:23:24Z</time>
      </trkpt>
      <trkpt lat="44.87996" lon="6.67157">
        <ele>1406.4</ele>
        <time>2022-07-19T20:23:25Z</time>
      </trkpt>
      <trkpt lat="44.87995" lon="6.67163">
        <ele>1406.2</ele>
        <time>2022-07-19T20:23:26Z</time>
      </trkpt>
      <trkpt lat="44.87995" lon="6.6717">
        <ele>1406.2</ele>
        <time>2022-07-19T20:23:27Z</time>
      </trkpt>
      <trkpt lat="44.87996" lon="6.67178">
        <ele>1405.8</ele>
        <time>2022-07-19T20:23:28Z</time>
      </trkpt>
      <trkpt lat="44.87998" lon="6.67185">
        <ele>1405.8</ele>
        <time>2022-07-19T20:23:29Z</time>
      </trkpt>
      <trkpt lat="44.87999" lon="6.67193">
        <ele>1405.8</ele>
        <time>2022-07-19T20:23:30Z</time>
      </trkpt>
      <trkpt lat="44.87999" lon="6.67201">
        <ele>1405.6</ele>
        <time>2022-07-19T20:23:31Z</time>
      </trkpt>
      <trkpt lat="44.87999" lon="6.67209">
        <ele>1405.6</ele>
        <time>2022-07-19T20:23:32Z</time>
      </trkpt>
      <trkpt lat="44.87999" lon="6.67217">
        <ele>1405.6</ele>
        <time>2022-07-19T20:23:33Z</time>
      </trkpt>
      <trkpt lat="44.87999" lon="6.67225">
        <ele>1405.4</ele>
        <time>2022-07-19T20:23:34Z</time>
      </trkpt>
      <trkpt lat="44.87999" lon="6.67233">
        <ele>1405.4</ele>
        <time>2022-07-19T20:23:35Z</time>
      </trkpt>
      <trkpt lat="44.87999" lon="6.67241">
        <ele>1405.4</ele>
        <time>2022-07-19T20:23:36Z</time>
      </trkpt>
      <trkpt lat="44.87999" lon="6.67249">
        <ele>1405.2</ele>
        <time>2022-07-19T20:23:37Z</time>
      </trkpt>
      <trkpt lat="44.88" lon="6.67258">
        <ele>1405.2</ele>
        <time>2022-07-19T20:23:38Z</time>
      </trkpt>
      <trkpt lat="44.88001" lon="6.67266">
        <ele>1405.2</ele>
        <time>2022-07-19T20:23:39Z</time>
      </trkpt>
      <trkpt lat="44.88002" lon="6.67274">
        <ele>1405</ele>
        <time>2022-07-19T20:23:40Z</time>
      </trkpt>
      <trkpt lat="44.88002" lon="6.67282">
        <ele>1405</ele>
        <time>2022-07-19T20:23:41Z</time>
      </trkpt>
      <trkpt lat="44.88003" lon="6.6729">
        <ele>1405</ele>
        <time>2022-07-19T20:23:42Z</time>
      </trkpt>
      <trkpt lat="44.88004" lon="6.67298">
        <ele>1404.8</ele>
        <time>2022-07-19T20:23:43Z</time>
      </trkpt>
      <trkpt lat="44.88003" lon="6.67306">
        <ele>1404.8</ele>
        <time>2022-07-19T20:23:44Z</time>
      </trkpt>
      <trkpt lat="44.88003" lon="6.67313">
        <ele>1404.8</ele>
        <time>2022-07-19T20:23:45Z</time>
      </trkpt>
      <trkpt lat="44.88002" lon="6.67321">
        <ele>1404.8</ele>
        <time>2022-07-19T20:23:46Z</time>
      </trkpt>
      <trkpt lat="44.88001" lon="6.67327">
        <ele>1404.8</ele>
        <time>2022-07-19T20:23:47Z</time>
      </trkpt>
      <trkpt lat="44.88" lon="6.67334">
        <ele>1404.8</ele>
        <time>2022-07-19T20:23:48Z</time>
      </trkpt>
      <trkpt lat="44.87998" lon="6.67341">
        <ele>1405</ele>
        <time>2022-07-19T20:23:49Z</time>
      </trkpt>
      <trkpt lat="44.87997" lon="6.67348">
        <ele>1405</ele>
        <time>2022-07-19T20:23:50Z</time>
      </trkpt>
      <trkpt lat="44.87995" lon="6.67355">
        <ele>1405.2</ele>
        <time>2022-07-19T20:23:51Z</time>
      </trkpt>
      <trkpt lat="44.87994" lon="6.67361">
        <ele>1405.2</ele>
        <time>2022-07-19T20:23:52Z</time>
      </trkpt>
      <trkpt lat="44.87992" lon="6.67368">
        <ele>1405.2</ele>
        <time>2022-07-19T20:23:53Z</time>
      </trkpt>
      <trkpt lat="44.87991" lon="6.67374">
        <ele>1405.2</ele>
        <time>2022-07-19T20:23:54Z</time>
      </trkpt>
      <trkpt lat="44.87991" lon="6.6738">
        <ele>1405.2</ele>
        <time>2022-07-19T20:23:55Z</time>
      </trkpt>
      <trkpt lat="44.8799" lon="6.67386">
        <ele>1405.2</ele>
        <time>2022-07-19T20:23:56Z</time>
      </trkpt>
      <trkpt lat="44.8799" lon="6.67393">
        <ele>1405.4</ele>
        <time>2022-07-19T20:23:57Z</time>
      </trkpt>
      <trkpt lat="44.8799" lon="6.67399">
        <ele>1405.4</ele>
        <time>2022-07-19T20:23:58Z</time>
      </trkpt>
      <trkpt lat="44.8799" lon="6.67406">
        <ele>1405.4</ele>
        <time>2022-07-19T20:23:59Z</time>
      </trkpt>
      <trkpt lat="44.87989" lon="6.67412">
        <ele>1405.4</ele>
        <time>2022-07-19T20:24:00Z</time>
      </trkpt>
      <trkpt lat="44.87989" lon="6.67419">
        <ele>1405.4</ele>
        <time>2022-07-19T20:24:01Z</time>
      </trkpt>
      <trkpt lat="44.87988" lon="6.67425">
        <ele>1405.4</ele>
        <time>2022-07-19T20:24:02Z</time>
      </trkpt>
      <trkpt lat="44.87987" lon="6.67431">
        <ele>1405.8</ele>
        <time>2022-07-19T20:24:03Z</time>
      </trkpt>
      <trkpt lat="44.87986" lon="6.67437">
        <ele>1405.8</ele>
        <time>2022-07-19T20:24:04Z</time>
      </trkpt>
      <trkpt lat="44.87984" lon="6.67443">
        <ele>1405.8</ele>
        <time>2022-07-19T20:24:05Z</time>
      </trkpt>
      <trkpt lat="44.87981" lon="6.67449">
        <ele>1405.8</ele>
        <time>2022-07-19T20:24:06Z</time>
      </trkpt>
      <trkpt lat="44.87978" lon="6.67454">
        <ele>1405.8</ele>
        <time>2022-07-19T20:24:07Z</time>
      </trkpt>
      <trkpt lat="44.87975" lon="6.67459">
        <ele>1405.8</ele>
        <time>2022-07-19T20:24:08Z</time>
      </trkpt>
      <trkpt lat="44.87972" lon="6.67465">
        <ele>1405.8</ele>
        <time>2022-07-19T20:24:09Z</time>
      </trkpt>
      <trkpt lat="44.87969" lon="6.67471">
        <ele>1405.8</ele>
        <time>2022-07-19T20:24:10Z</time>
      </trkpt>
      <trkpt lat="44.87967" lon="6.67477">
        <ele>1405.8</ele>
        <time>2022-07-19T20:24:11Z</time>
      </trkpt>
      <trkpt lat="44.87964" lon="6.67484">
        <ele>1405.8</ele>
        <time>2022-07-19T20:24:12Z</time>
      </trkpt>
      <trkpt lat="44.87961" lon="6.6749">
        <ele>1405.8</ele>
        <time>2022-07-19T20:24:13Z</time>
      </trkpt>
      <trkpt lat="44.87959" lon="6.67496">
        <ele>1405.6</ele>
        <time>2022-07-19T20:24:14Z</time>
      </trkpt>
      <trkpt lat="44.87957" lon="6.67503">
        <ele>1405.6</ele>
        <time>2022-07-19T20:24:15Z</time>
      </trkpt>
      <trkpt lat="44.87955" lon="6.6751">
        <ele>1405.6</ele>
        <time>2022-07-19T20:24:16Z</time>
      </trkpt>
      <trkpt lat="44.87954" lon="6.67517">
        <ele>1405.6</ele>
        <time>2022-07-19T20:24:17Z</time>
      </trkpt>
      <trkpt lat="44.87953" lon="6.67524">
        <ele>1405.6</ele>
        <time>2022-07-19T20:24:18Z</time>
      </trkpt>
      <trkpt lat="44.87953" lon="6.67531">
        <ele>1405.6</ele>
        <time>2022-07-19T20:24:19Z</time>
      </trkpt>
      <trkpt lat="44.87952" lon="6.67538">
        <ele>1405.4</ele>
        <time>2022-07-19T20:24:20Z</time>
      </trkpt>
      <trkpt lat="44.87952" lon="6.67546">
        <ele>1405.4</ele>
        <time>2022-07-19T20:24:21Z</time>
      </trkpt>
      <trkpt lat="44.87951" lon="6.67552">
        <ele>1405.4</ele>
        <time>2022-07-19T20:24:22Z</time>
      </trkpt>
      <trkpt lat="44.87951" lon="6.67558">
        <ele>1405.4</ele>
        <time>2022-07-19T20:24:23Z</time>
      </trkpt>
      <trkpt lat="44.8795" lon="6.67564">
        <ele>1405.4</ele>
        <time>2022-07-19T20:24:24Z</time>
      </trkpt>
      <trkpt lat="44.8795" lon="6.6757">
        <ele>1405.4</ele>
        <time>2022-07-19T20:24:25Z</time>
      </trkpt>
      <trkpt lat="44.8795" lon="6.67576">
        <ele>1405.4</ele>
        <time>2022-07-19T20:24:26Z</time>
      </trkpt>
      <trkpt lat="44.8795" lon="6.67583">
        <ele>1405.4</ele>
        <time>2022-07-19T20:24:27Z</time>
      </trkpt>
      <trkpt lat="44.87949" lon="6.67589">
        <ele>1405.4</ele>
        <time>2022-07-19T20:24:28Z</time>
      </trkpt>
      <trkpt lat="44.87949" lon="6.67595">
        <ele>1405.4</ele>
        <time>2022-07-19T20:24:29Z</time>
      </trkpt>
      <trkpt lat="44.87948" lon="6.67601">
        <ele>1405.4</ele>
        <time>2022-07-19T20:24:30Z</time>
      </trkpt>
      <trkpt lat="44.87948" lon="6.67607">
        <ele>1405.4</ele>
        <time>2022-07-19T20:24:31Z</time>
      </trkpt>
      <trkpt lat="44.87947" lon="6.67613">
        <ele>1405.6</ele>
        <time>2022-07-19T20:24:32Z</time>
      </trkpt>
      <trkpt lat="44.87947" lon="6.67619">
        <ele>1405.6</ele>
        <time>2022-07-19T20:24:33Z</time>
      </trkpt>
      <trkpt lat="44.87946" lon="6.67624">
        <ele>1405.6</ele>
        <time>2022-07-19T20:24:34Z</time>
      </trkpt>
      <trkpt lat="44.87946" lon="6.6763">
        <ele>1405.6</ele>
        <time>2022-07-19T20:24:35Z</time>
      </trkpt>
      <trkpt lat="44.87945" lon="6.67636">
        <ele>1405.6</ele>
        <time>2022-07-19T20:24:36Z</time>
      </trkpt>
      <trkpt lat="44.87944" lon="6.67641">
        <ele>1405.8</ele>
        <time>2022-07-19T20:24:37Z</time>
      </trkpt>
      <trkpt lat="44.87943" lon="6.67647">
        <ele>1405.8</ele>
        <time>2022-07-19T20:24:38Z</time>
      </trkpt>
      <trkpt lat="44.87942" lon="6.67653">
        <ele>1405.8</ele>
        <time>2022-07-19T20:24:39Z</time>
      </trkpt>
      <trkpt lat="44.87941" lon="6.67659">
        <ele>1405.8</ele>
        <time>2022-07-19T20:24:40Z</time>
      </trkpt>
      <trkpt lat="44.8794" lon="6.67665">
        <ele>1405.8</ele>
        <time>2022-07-19T20:24:41Z</time>
      </trkpt>
      <trkpt lat="44.87939" lon="6.67672">
        <ele>1406</ele>
        <time>2022-07-19T20:24:42Z</time>
      </trkpt>
      <trkpt lat="44.87937" lon="6.67678">
        <ele>1406</ele>
        <time>2022-07-19T20:24:43Z</time>
      </trkpt>
      <trkpt lat="44.87936" lon="6.67684">
        <ele>1406</ele>
        <time>2022-07-19T20:24:44Z</time>
      </trkpt>
      <trkpt lat="44.87935" lon="6.67689">
        <ele>1406</ele>
        <time>2022-07-19T20:24:45Z</time>
      </trkpt>
      <trkpt lat="44.87934" lon="6.67695">
        <ele>1406</ele>
        <time>2022-07-19T20:24:46Z</time>
      </trkpt>
      <trkpt lat="44.87933" lon="6.67701">
        <ele>1406.2</ele>
        <time>2022-07-19T20:24:47Z</time>
      </trkpt>
      <trkpt lat="44.87931" lon="6.67708">
        <ele>1406.2</ele>
        <time>2022-07-19T20:24:48Z</time>
      </trkpt>
      <trkpt lat="44.8793" lon="6.67714">
        <ele>1406.2</ele>
        <time>2022-07-19T20:24:49Z</time>
      </trkpt>
      <trkpt lat="44.87928" lon="6.6772">
        <ele>1406.2</ele>
        <time>2022-07-19T20:24:50Z</time>
      </trkpt>
      <trkpt lat="44.87927" lon="6.67727">
        <ele>1406.2</ele>
        <time>2022-07-19T20:24:51Z</time>
      </trkpt>
      <trkpt lat="44.87925" lon="6.67733">
        <ele>1406.2</ele>
        <time>2022-07-19T20:24:52Z</time>
      </trkpt>
      <trkpt lat="44.87923" lon="6.67739">
        <ele>1406.2</ele>
        <time>2022-07-19T20:24:53Z</time>
      </trkpt>
      <trkpt lat="44.87921" lon="6.67746">
        <ele>1406.2</ele>
        <time>2022-07-19T20:24:54Z</time>
      </trkpt>
      <trkpt lat="44.87919" lon="6.67752">
        <ele>1406.4</ele>
        <time>2022-07-19T20:24:55Z</time>
      </trkpt>
      <trkpt lat="44.87918" lon="6.67758">
        <ele>1406.4</ele>
        <time>2022-07-19T20:24:56Z</time>
      </trkpt>
      <trkpt lat="44.87916" lon="6.67765">
        <ele>1406.4</ele>
        <time>2022-07-19T20:24:57Z</time>
      </trkpt>
      <trkpt lat="44.87914" lon="6.67771">
        <ele>1406.4</ele>
        <time>2022-07-19T20:24:58Z</time>
      </trkpt>
      <trkpt lat="44.87913" lon="6.67778">
        <ele>1406.4</ele>
        <time>2022-07-19T20:24:59Z</time>
      </trkpt>
      <trkpt lat="44.87911" lon="6.67784">
        <ele>1406.4</ele>
        <time>2022-07-19T20:25:00Z</time>
      </trkpt>
      <trkpt lat="44.8791" lon="6.6779">
        <ele>1406.4</ele>
        <time>2022-07-19T20:25:01Z</time>
      </trkpt>
      <trkpt lat="44.87909" lon="6.67795">
        <ele>1406.4</ele>
        <time>2022-07-19T20:25:02Z</time>
      </trkpt>
      <trkpt lat="44.87908" lon="6.67802">
        <ele>1406.4</ele>
        <time>2022-07-19T20:25:03Z</time>
      </trkpt>
      <trkpt lat="44.87907" lon="6.67808">
        <ele>1406.4</ele>
        <time>2022-07-19T20:25:04Z</time>
      </trkpt>
      <trkpt lat="44.87905" lon="6.67813">
        <ele>1406.4</ele>
        <time>2022-07-19T20:25:05Z</time>
      </trkpt>
      <trkpt lat="44.87903" lon="6.67819">
        <ele>1406.8</ele>
        <time>2022-07-19T20:25:06Z</time>
      </trkpt>
      <trkpt lat="44.87902" lon="6.67825">
        <ele>1406.8</ele>
        <time>2022-07-19T20:25:07Z</time>
      </trkpt>
      <trkpt lat="44.879" lon="6.67831">
        <ele>1406.8</ele>
        <time>2022-07-19T20:25:08Z</time>
      </trkpt>
      <trkpt lat="44.87899" lon="6.67837">
        <ele>1406.8</ele>
        <time>2022-07-19T20:25:09Z</time>
      </trkpt>
      <trkpt lat="44.87898" lon="6.67844">
        <ele>1407</ele>
        <time>2022-07-19T20:25:10Z</time>
      </trkpt>
      <trkpt lat="44.87897" lon="6.6785">
        <ele>1407</ele>
        <time>2022-07-19T20:25:11Z</time>
      </trkpt>
      <trkpt lat="44.87897" lon="6.67856">
        <ele>1407</ele>
        <time>2022-07-19T20:25:12Z</time>
      </trkpt>
      <trkpt lat="44.87896" lon="6.67861">
        <ele>1407.2</ele>
        <time>2022-07-19T20:25:13Z</time>
      </trkpt>
      <trkpt lat="44.87894" lon="6.67866">
        <ele>1407.2</ele>
        <time>2022-07-19T20:25:14Z</time>
      </trkpt>
      <trkpt lat="44.87893" lon="6.67872">
        <ele>1407.2</ele>
        <time>2022-07-19T20:25:15Z</time>
      </trkpt>
      <trkpt lat="44.87893" lon="6.67878">
        <ele>1407.2</ele>
        <time>2022-07-19T20:25:16Z</time>
      </trkpt>
      <trkpt lat="44.87892" lon="6.67885">
        <ele>1407.4</ele>
        <time>2022-07-19T20:25:17Z</time>
      </trkpt>
      <trkpt lat="44.87892" lon="6.6789">
        <ele>1407.4</ele>
        <time>2022-07-19T20:25:18Z</time>
      </trkpt>
      <trkpt lat="44.87891" lon="6.67896">
        <ele>1407.4</ele>
        <time>2022-07-19T20:25:19Z</time>
      </trkpt>
      <trkpt lat="44.8789" lon="6.67901">
        <ele>1407.4</ele>
        <time>2022-07-19T20:25:20Z</time>
      </trkpt>
      <trkpt lat="44.87888" lon="6.67907">
        <ele>1407.4</ele>
        <time>2022-07-19T20:25:21Z</time>
      </trkpt>
      <trkpt lat="44.87887" lon="6.67912">
        <ele>1407.4</ele>
        <time>2022-07-19T20:25:22Z</time>
      </trkpt>
      <trkpt lat="44.87885" lon="6.67918">
        <ele>1407.4</ele>
        <time>2022-07-19T20:25:23Z</time>
      </trkpt>
      <trkpt lat="44.87883" lon="6.67923">
        <ele>1407.4</ele>
        <time>2022-07-19T20:25:24Z</time>
      </trkpt>
      <trkpt lat="44.87881" lon="6.67928">
        <ele>1407.4</ele>
        <time>2022-07-19T20:25:25Z</time>
      </trkpt>
      <trkpt lat="44.87879" lon="6.67932">
        <ele>1407.4</ele>
        <time>2022-07-19T20:25:26Z</time>
      </trkpt>
      <trkpt lat="44.87877" lon="6.67937">
        <ele>1407.4</ele>
        <time>2022-07-19T20:25:27Z</time>
      </trkpt>
      <trkpt lat="44.87875" lon="6.67942">
        <ele>1407.4</ele>
        <time>2022-07-19T20:25:28Z</time>
      </trkpt>
      <trkpt lat="44.87872" lon="6.67947">
        <ele>1407.6</ele>
        <time>2022-07-19T20:25:29Z</time>
      </trkpt>
      <trkpt lat="44.8787" lon="6.67952">
        <ele>1407.6</ele>
        <time>2022-07-19T20:25:30Z</time>
      </trkpt>
      <trkpt lat="44.87868" lon="6.67957">
        <ele>1407.6</ele>
        <time>2022-07-19T20:25:31Z</time>
      </trkpt>
      <trkpt lat="44.87866" lon="6.67961">
        <ele>1407.6</ele>
        <time>2022-07-19T20:25:32Z</time>
      </trkpt>
      <trkpt lat="44.87864" lon="6.67966">
        <ele>1408</ele>
        <time>2022-07-19T20:25:33Z</time>
      </trkpt>
      <trkpt lat="44.87862" lon="6.6797">
        <ele>1408</ele>
        <time>2022-07-19T20:25:34Z</time>
      </trkpt>
      <trkpt lat="44.8786" lon="6.67975">
        <ele>1408</ele>
        <time>2022-07-19T20:25:35Z</time>
      </trkpt>
      <trkpt lat="44.87858" lon="6.67979">
        <ele>1408.2</ele>
        <time>2022-07-19T20:25:36Z</time>
      </trkpt>
      <trkpt lat="44.87857" lon="6.67983">
        <ele>1408.2</ele>
        <time>2022-07-19T20:25:37Z</time>
      </trkpt>
      <trkpt lat="44.87855" lon="6.67987">
        <ele>1408.2</ele>
        <time>2022-07-19T20:25:38Z</time>
      </trkpt>
      <trkpt lat="44.87853" lon="6.67991">
        <ele>1408.4</ele>
        <time>2022-07-19T20:25:39Z</time>
      </trkpt>
      <trkpt lat="44.87851" lon="6.67995">
        <ele>1408.4</ele>
        <time>2022-07-19T20:25:40Z</time>
      </trkpt>
      <trkpt lat="44.8785" lon="6.67998">
        <ele>1408.6</ele>
        <time>2022-07-19T20:25:41Z</time>
      </trkpt>
      <trkpt lat="44.87848" lon="6.68002">
        <ele>1408.6</ele>
        <time>2022-07-19T20:25:42Z</time>
      </trkpt>
      <trkpt lat="44.87847" lon="6.68006">
        <ele>1408.6</ele>
        <time>2022-07-19T20:25:43Z</time>
      </trkpt>
      <trkpt lat="44.87845" lon="6.6801">
        <ele>1408.8</ele>
        <time>2022-07-19T20:25:44Z</time>
      </trkpt>
      <trkpt lat="44.87843" lon="6.68013">
        <ele>1408.8</ele>
        <time>2022-07-19T20:25:45Z</time>
      </trkpt>
      <trkpt lat="44.87841" lon="6.68017">
        <ele>1408.8</ele>
        <time>2022-07-19T20:25:46Z</time>
      </trkpt>
      <trkpt lat="44.87839" lon="6.68021">
        <ele>1409.2</ele>
        <time>2022-07-19T20:25:47Z</time>
      </trkpt>
      <trkpt lat="44.87837" lon="6.68025">
        <ele>1409.2</ele>
        <time>2022-07-19T20:25:48Z</time>
      </trkpt>
      <trkpt lat="44.87835" lon="6.68029">
        <ele>1409.2</ele>
        <time>2022-07-19T20:25:49Z</time>
      </trkpt>
      <trkpt lat="44.87834" lon="6.68033">
        <ele>1409.4</ele>
        <time>2022-07-19T20:25:50Z</time>
      </trkpt>
      <trkpt lat="44.87832" lon="6.68036">
        <ele>1409.4</ele>
        <time>2022-07-19T20:25:51Z</time>
      </trkpt>
      <trkpt lat="44.87831" lon="6.6804">
        <ele>1409.4</ele>
        <time>2022-07-19T20:25:52Z</time>
      </trkpt>
      <trkpt lat="44.87829" lon="6.68044">
        <ele>1409.4</ele>
        <time>2022-07-19T20:25:53Z</time>
      </trkpt>
      <trkpt lat="44.87828" lon="6.68048">
        <ele>1409.6</ele>
        <time>2022-07-19T20:25:54Z</time>
      </trkpt>
      <trkpt lat="44.87826" lon="6.68052">
        <ele>1409.6</ele>
        <time>2022-07-19T20:25:55Z</time>
      </trkpt>
      <trkpt lat="44.87825" lon="6.68056">
        <ele>1409.6</ele>
        <time>2022-07-19T20:25:56Z</time>
      </trkpt>
      <trkpt lat="44.87823" lon="6.6806">
        <ele>1410</ele>
        <time>2022-07-19T20:25:57Z</time>
      </trkpt>
      <trkpt lat="44.87821" lon="6.68064">
        <ele>1410</ele>
        <time>2022-07-19T20:25:58Z</time>
      </trkpt>
      <trkpt lat="44.8782" lon="6.68068">
        <ele>1410</ele>
        <time>2022-07-19T20:25:59Z</time>
      </trkpt>
      <trkpt lat="44.87818" lon="6.68072">
        <ele>1410.2</ele>
        <time>2022-07-19T20:26:00Z</time>
      </trkpt>
      <trkpt lat="44.87816" lon="6.68076">
        <ele>1410.2</ele>
        <time>2022-07-19T20:26:01Z</time>
      </trkpt>
      <trkpt lat="44.87815" lon="6.6808">
        <ele>1410.4</ele>
        <time>2022-07-19T20:26:02Z</time>
      </trkpt>
      <trkpt lat="44.87813" lon="6.68084">
        <ele>1410.4</ele>
        <time>2022-07-19T20:26:03Z</time>
      </trkpt>
      <trkpt lat="44.87811" lon="6.68088">
        <ele>1410.6</ele>
        <time>2022-07-19T20:26:04Z</time>
      </trkpt>
      <trkpt lat="44.8781" lon="6.68092">
        <ele>1410.6</ele>
        <time>2022-07-19T20:26:05Z</time>
      </trkpt>
      <trkpt lat="44.87808" lon="6.68095">
        <ele>1411</ele>
        <time>2022-07-19T20:26:06Z</time>
      </trkpt>
      <trkpt lat="44.87806" lon="6.68099">
        <ele>1411</ele>
        <time>2022-07-19T20:26:07Z</time>
      </trkpt>
      <trkpt lat="44.87804" lon="6.68102">
        <ele>1411</ele>
        <time>2022-07-19T20:26:08Z</time>
      </trkpt>
      <trkpt lat="44.87802" lon="6.68105">
        <ele>1411.2</ele>
        <time>2022-07-19T20:26:09Z</time>
      </trkpt>
      <trkpt lat="44.87799" lon="6.68108">
        <ele>1411.2</ele>
        <time>2022-07-19T20:26:10Z</time>
      </trkpt>
      <trkpt lat="44.87797" lon="6.68111">
        <ele>1411.4</ele>
        <time>2022-07-19T20:26:11Z</time>
      </trkpt>
      <trkpt lat="44.87795" lon="6.68114">
        <ele>1411.4</ele>
        <time>2022-07-19T20:26:12Z</time>
      </trkpt>
      <trkpt lat="44.87793" lon="6.68116">
        <ele>1411.8</ele>
        <time>2022-07-19T20:26:13Z</time>
      </trkpt>
      <trkpt lat="44.87791" lon="6.68118">
        <ele>1411.8</ele>
        <time>2022-07-19T20:26:14Z</time>
      </trkpt>
      <trkpt lat="44.87789" lon="6.6812">
        <ele>1412</ele>
        <time>2022-07-19T20:26:15Z</time>
      </trkpt>
      <trkpt lat="44.87786" lon="6.68122">
        <ele>1412.2</ele>
        <time>2022-07-19T20:26:16Z</time>
      </trkpt>
      <trkpt lat="44.87784" lon="6.68125">
        <ele>1412.2</ele>
        <time>2022-07-19T20:26:17Z</time>
      </trkpt>
      <trkpt lat="44.87783" lon="6.68128">
        <ele>1412.6</ele>
        <time>2022-07-19T20:26:18Z</time>
      </trkpt>
      <trkpt lat="44.87781" lon="6.6813">
        <ele>1412.8</ele>
        <time>2022-07-19T20:26:19Z</time>
      </trkpt>
      <trkpt lat="44.8778" lon="6.68133">
        <ele>1412.8</ele>
        <time>2022-07-19T20:26:20Z</time>
      </trkpt>
      <trkpt lat="44.87778" lon="6.68135">
        <ele>1413.2</ele>
        <time>2022-07-19T20:26:21Z</time>
      </trkpt>
      <trkpt lat="44.87777" lon="6.68138">
        <ele>1413.2</ele>
        <time>2022-07-19T20:26:22Z</time>
      </trkpt>
      <trkpt lat="44.87775" lon="6.68142">
        <ele>1413.4</ele>
        <time>2022-07-19T20:26:23Z</time>
      </trkpt>
      <trkpt lat="44.87773" lon="6.68145">
        <ele>1413.6</ele>
        <time>2022-07-19T20:26:24Z</time>
      </trkpt>
      <trkpt lat="44.87772" lon="6.68149">
        <ele>1413.8</ele>
        <time>2022-07-19T20:26:25Z</time>
      </trkpt>
      <trkpt lat="44.8777" lon="6.68153">
        <ele>1413.8</ele>
        <time>2022-07-19T20:26:26Z</time>
      </trkpt>
      <trkpt lat="44.87769" lon="6.68156">
        <ele>1414.2</ele>
        <time>2022-07-19T20:26:27Z</time>
      </trkpt>
      <trkpt lat="44.87767" lon="6.6816">
        <ele>1414.2</ele>
        <time>2022-07-19T20:26:28Z</time>
      </trkpt>
      <trkpt lat="44.87766" lon="6.68164">
        <ele>1414.6</ele>
        <time>2022-07-19T20:26:29Z</time>
      </trkpt>
      <trkpt lat="44.87764" lon="6.68167">
        <ele>1414.6</ele>
        <time>2022-07-19T20:26:30Z</time>
      </trkpt>
      <trkpt lat="44.87763" lon="6.6817">
        <ele>1414.8</ele>
        <time>2022-07-19T20:26:31Z</time>
      </trkpt>
      <trkpt lat="44.87761" lon="6.68174">
        <ele>1414.8</ele>
        <time>2022-07-19T20:26:32Z</time>
      </trkpt>
      <trkpt lat="44.8776" lon="6.68178">
        <ele>1414.8</ele>
        <time>2022-07-19T20:26:33Z</time>
      </trkpt>
      <trkpt lat="44.87759" lon="6.68182">
        <ele>1415</ele>
        <time>2022-07-19T20:26:34Z</time>
      </trkpt>
      <trkpt lat="44.87758" lon="6.68186">
        <ele>1415</ele>
        <time>2022-07-19T20:26:35Z</time>
      </trkpt>
      <trkpt lat="44.87756" lon="6.68189">
        <ele>1415.2</ele>
        <time>2022-07-19T20:26:36Z</time>
      </trkpt>
      <trkpt lat="44.87755" lon="6.68193">
        <ele>1415.4</ele>
        <time>2022-07-19T20:26:37Z</time>
      </trkpt>
      <trkpt lat="44.87754" lon="6.68196">
        <ele>1415.4</ele>
        <time>2022-07-19T20:26:38Z</time>
      </trkpt>
      <trkpt lat="44.87752" lon="6.68199">
        <ele>1415.8</ele>
        <time>2022-07-19T20:26:39Z</time>
      </trkpt>
      <trkpt lat="44.87751" lon="6.68202">
        <ele>1415.8</ele>
        <time>2022-07-19T20:26:40Z</time>
      </trkpt>
      <trkpt lat="44.8775" lon="6.68205">
        <ele>1416</ele>
        <time>2022-07-19T20:26:41Z</time>
      </trkpt>
      <trkpt lat="44.87748" lon="6.68207">
        <ele>1416</ele>
        <time>2022-07-19T20:26:42Z</time>
      </trkpt>
      <trkpt lat="44.87747" lon="6.68211">
        <ele>1416.2</ele>
        <time>2022-07-19T20:26:43Z</time>
      </trkpt>
      <trkpt lat="44.87746" lon="6.68214">
        <ele>1416.2</ele>
        <time>2022-07-19T20:26:44Z</time>
      </trkpt>
      <trkpt lat="44.87745" lon="6.68217">
        <ele>1416.6</ele>
        <time>2022-07-19T20:26:45Z</time>
      </trkpt>
      <trkpt lat="44.87743" lon="6.6822">
        <ele>1416.6</ele>
        <time>2022-07-19T20:26:46Z</time>
      </trkpt>
      <trkpt lat="44.87742" lon="6.68223">
        <ele>1416.8</ele>
        <time>2022-07-19T20:26:47Z</time>
      </trkpt>
      <trkpt lat="44.87741" lon="6.68226">
        <ele>1416.8</ele>
        <time>2022-07-19T20:26:48Z</time>
      </trkpt>
      <trkpt lat="44.8774" lon="6.68229">
        <ele>1417</ele>
        <time>2022-07-19T20:26:49Z</time>
      </trkpt>
      <trkpt lat="44.87738" lon="6.68232">
        <ele>1417</ele>
        <time>2022-07-19T20:26:50Z</time>
      </trkpt>
      <trkpt lat="44.87737" lon="6.68236">
        <ele>1417.2</ele>
        <time>2022-07-19T20:26:51Z</time>
      </trkpt>
      <trkpt lat="44.87736" lon="6.68239">
        <ele>1417.2</ele>
        <time>2022-07-19T20:26:52Z</time>
      </trkpt>
      <trkpt lat="44.87735" lon="6.68242">
        <ele>1417.6</ele>
        <time>2022-07-19T20:26:53Z</time>
      </trkpt>
      <trkpt lat="44.87734" lon="6.68245">
        <ele>1417.6</ele>
        <time>2022-07-19T20:26:54Z</time>
      </trkpt>
      <trkpt lat="44.87733" lon="6.68248">
        <ele>1418</ele>
        <time>2022-07-19T20:26:55Z</time>
      </trkpt>
      <trkpt lat="44.87731" lon="6.68251">
        <ele>1418</ele>
        <time>2022-07-19T20:26:56Z</time>
      </trkpt>
      <trkpt lat="44.8773" lon="6.68255">
        <ele>1418.2</ele>
        <time>2022-07-19T20:26:57Z</time>
      </trkpt>
      <trkpt lat="44.87729" lon="6.68258">
        <ele>1418.2</ele>
        <time>2022-07-19T20:26:58Z</time>
      </trkpt>
      <trkpt lat="44.87728" lon="6.6826">
        <ele>1418.6</ele>
        <time>2022-07-19T20:26:59Z</time>
      </trkpt>
      <trkpt lat="44.87727" lon="6.68263">
        <ele>1418.6</ele>
        <time>2022-07-19T20:27:00Z</time>
      </trkpt>
      <trkpt lat="44.87726" lon="6.68266">
        <ele>1418.8</ele>
        <time>2022-07-19T20:27:01Z</time>
      </trkpt>
      <trkpt lat="44.87725" lon="6.68269">
        <ele>1419</ele>
        <time>2022-07-19T20:27:02Z</time>
      </trkpt>
      <trkpt lat="44.87724" lon="6.68271">
        <ele>1419</ele>
        <time>2022-07-19T20:27:03Z</time>
      </trkpt>
      <trkpt lat="44.87723" lon="6.68274">
        <ele>1419.4</ele>
        <time>2022-07-19T20:27:04Z</time>
      </trkpt>
      <trkpt lat="44.87722" lon="6.68278">
        <ele>1419.6</ele>
        <time>2022-07-19T20:27:05Z</time>
      </trkpt>
      <trkpt lat="44.87721" lon="6.68282">
        <ele>1419.6</ele>
        <time>2022-07-19T20:27:06Z</time>
      </trkpt>
      <trkpt lat="44.87721" lon="6.68286">
        <ele>1419.6</ele>
        <time>2022-07-19T20:27:07Z</time>
      </trkpt>
      <trkpt lat="44.8772" lon="6.6829">
        <ele>1419.8</ele>
        <time>2022-07-19T20:27:08Z</time>
      </trkpt>
      <trkpt lat="44.87719" lon="6.68294">
        <ele>1420</ele>
        <time>2022-07-19T20:27:09Z</time>
      </trkpt>
      <trkpt lat="44.87718" lon="6.68298">
        <ele>1420.4</ele>
        <time>2022-07-19T20:27:10Z</time>
      </trkpt>
      <trkpt lat="44.87718" lon="6.68302">
        <ele>1420.4</ele>
        <time>2022-07-19T20:27:11Z</time>
      </trkpt>
      <trkpt lat="44.87718" lon="6.68306">
        <ele>1420.6</ele>
        <time>2022-07-19T20:27:12Z</time>
      </trkpt>
      <trkpt lat="44.87718" lon="6.6831">
        <ele>1420.6</ele>
        <time>2022-07-19T20:27:13Z</time>
      </trkpt>
      <trkpt lat="44.87717" lon="6.68313">
        <ele>1421</ele>
        <time>2022-07-19T20:27:14Z</time>
      </trkpt>
      <trkpt lat="44.87717" lon="6.68316">
        <ele>1421</ele>
        <time>2022-07-19T20:27:15Z</time>
      </trkpt>
      <trkpt lat="44.87716" lon="6.6832">
        <ele>1421.4</ele>
        <time>2022-07-19T20:27:16Z</time>
      </trkpt>
      <trkpt lat="44.87716" lon="6.68323">
        <ele>1421.4</ele>
        <time>2022-07-19T20:27:17Z</time>
      </trkpt>
      <trkpt lat="44.87716" lon="6.68326">
        <ele>1421.8</ele>
        <time>2022-07-19T20:27:18Z</time>
      </trkpt>
      <trkpt lat="44.87716" lon="6.68328">
        <ele>1421.8</ele>
        <time>2022-07-19T20:27:19Z</time>
      </trkpt>
      <trkpt lat="44.87715" lon="6.68331">
        <ele>1422</ele>
        <time>2022-07-19T20:27:20Z</time>
      </trkpt>
      <trkpt lat="44.87715" lon="6.68334">
        <ele>1422</ele>
        <time>2022-07-19T20:27:21Z</time>
      </trkpt>
      <trkpt lat="44.87714" lon="6.68336">
        <ele>1422.4</ele>
        <time>2022-07-19T20:27:22Z</time>
      </trkpt>
      <trkpt lat="44.87714" lon="6.68339">
        <ele>1422.4</ele>
        <time>2022-07-19T20:27:23Z</time>
      </trkpt>
      <trkpt lat="44.87714" lon="6.68342">
        <ele>1422.6</ele>
        <time>2022-07-19T20:27:24Z</time>
      </trkpt>
      <trkpt lat="44.87715" lon="6.68344">
        <ele>1422.6</ele>
        <time>2022-07-19T20:27:25Z</time>
      </trkpt>
      <trkpt lat="44.87715" lon="6.68347">
        <ele>1423</ele>
        <time>2022-07-19T20:27:26Z</time>
      </trkpt>
      <trkpt lat="44.87714" lon="6.68349">
        <ele>1423</ele>
        <time>2022-07-19T20:27:27Z</time>
      </trkpt>
      <trkpt lat="44.87714" lon="6.68352">
        <ele>1423.4</ele>
        <time>2022-07-19T20:27:28Z</time>
      </trkpt>
      <trkpt lat="44.87714" lon="6.68354">
        <ele>1423.4</ele>
        <time>2022-07-19T20:27:29Z</time>
      </trkpt>
      <trkpt lat="44.87714" lon="6.68356">
        <ele>1423.8</ele>
        <time>2022-07-19T20:27:30Z</time>
      </trkpt>
      <trkpt lat="44.87714" lon="6.68359">
        <ele>1423.8</ele>
        <time>2022-07-19T20:27:31Z</time>
      </trkpt>
      <trkpt lat="44.87714" lon="6.68361">
        <ele>1424.2</ele>
        <time>2022-07-19T20:27:32Z</time>
      </trkpt>
      <trkpt lat="44.87714" lon="6.68364">
        <ele>1424.4</ele>
        <time>2022-07-19T20:27:33Z</time>
      </trkpt>
      <trkpt lat="44.87714" lon="6.68366">
        <ele>1424.6</ele>
        <time>2022-07-19T20:27:34Z</time>
      </trkpt>
      <trkpt lat="44.87714" lon="6.68368">
        <ele>1424.6</ele>
        <time>2022-07-19T20:27:35Z</time>
      </trkpt>
      <trkpt lat="44.87714" lon="6.6837">
        <ele>1424.8</ele>
        <time>2022-07-19T20:27:36Z</time>
      </trkpt>
      <trkpt lat="44.87714" lon="6.68373">
        <ele>1424.8</ele>
        <time>2022-07-19T20:27:37Z</time>
      </trkpt>
      <trkpt lat="44.87714" lon="6.68375">
        <ele>1425</ele>
        <time>2022-07-19T20:27:38Z</time>
      </trkpt>
      <trkpt lat="44.87714" lon="6.68377">
        <ele>1425</ele>
        <time>2022-07-19T20:27:39Z</time>
      </trkpt>
      <trkpt lat="44.87713" lon="6.68379">
        <ele>1425.4</ele>
        <time>2022-07-19T20:27:40Z</time>
      </trkpt>
      <trkpt lat="44.87713" lon="6.68382">
        <ele>1425.4</ele>
        <time>2022-07-19T20:27:41Z</time>
      </trkpt>
      <trkpt lat="44.87713" lon="6.68384">
        <ele>1425.6</ele>
        <time>2022-07-19T20:27:42Z</time>
      </trkpt>
      <trkpt lat="44.87713" lon="6.68387">
        <ele>1425.6</ele>
        <time>2022-07-19T20:27:43Z</time>
      </trkpt>
      <trkpt lat="44.87713" lon="6.68389">
        <ele>1426</ele>
        <time>2022-07-19T20:27:44Z</time>
      </trkpt>
      <trkpt lat="44.87713" lon="6.68392">
        <ele>1426</ele>
        <time>2022-07-19T20:27:45Z</time>
      </trkpt>
      <trkpt lat="44.87713" lon="6.68394">
        <ele>1426.2</ele>
        <time>2022-07-19T20:27:46Z</time>
      </trkpt>
      <trkpt lat="44.87713" lon="6.68396">
        <ele>1426.2</ele>
        <time>2022-07-19T20:27:47Z</time>
      </trkpt>
      <trkpt lat="44.87713" lon="6.68398">
        <ele>1426.6</ele>
        <time>2022-07-19T20:27:48Z</time>
      </trkpt>
      <trkpt lat="44.87712" lon="6.68401">
        <ele>1426.6</ele>
        <time>2022-07-19T20:27:49Z</time>
      </trkpt>
      <trkpt lat="44.87712" lon="6.68403">
        <ele>1426.8</ele>
        <time>2022-07-19T20:27:50Z</time>
      </trkpt>
      <trkpt lat="44.87712" lon="6.68405">
        <ele>1426.8</ele>
        <time>2022-07-19T20:27:51Z</time>
      </trkpt>
      <trkpt lat="44.87713" lon="6.68407">
        <ele>1427</ele>
        <time>2022-07-19T20:27:52Z</time>
      </trkpt>
      <trkpt lat="44.87713" lon="6.68409">
        <ele>1427</ele>
        <time>2022-07-19T20:27:53Z</time>
      </trkpt>
      <trkpt lat="44.87713" lon="6.68412">
        <ele>1427.4</ele>
        <time>2022-07-19T20:27:54Z</time>
      </trkpt>
      <trkpt lat="44.87713" lon="6.68414">
        <ele>1427.4</ele>
        <time>2022-07-19T20:27:55Z</time>
      </trkpt>
      <trkpt lat="44.87713" lon="6.68416">
        <ele>1427.6</ele>
        <time>2022-07-19T20:27:56Z</time>
      </trkpt>
      <trkpt lat="44.87713" lon="6.68419">
        <ele>1427.6</ele>
        <time>2022-07-19T20:27:57Z</time>
      </trkpt>
      <trkpt lat="44.87713" lon="6.68421">
        <ele>1427.8</ele>
        <time>2022-07-19T20:27:58Z</time>
      </trkpt>
      <trkpt lat="44.87713" lon="6.68423">
        <ele>1427.8</ele>
        <time>2022-07-19T20:27:59Z</time>
      </trkpt>
      <trkpt lat="44.87713" lon="6.68426">
        <ele>1428.2</ele>
        <time>2022-07-19T20:28:00Z</time>
      </trkpt>
      <trkpt lat="44.87713" lon="6.68428">
        <ele>1428.4</ele>
        <time>2022-07-19T20:28:01Z</time>
      </trkpt>
      <trkpt lat="44.87713" lon="6.6843">
        <ele>1428.4</ele>
        <time>2022-07-19T20:28:02Z</time>
      </trkpt>
      <trkpt lat="44.87713" lon="6.68433">
        <ele>1428.4</ele>
        <time>2022-07-19T20:28:03Z</time>
      </trkpt>
      <trkpt lat="44.87712" lon="6.68435">
        <ele>1428.8</ele>
        <time>2022-07-19T20:28:04Z</time>
      </trkpt>
      <trkpt lat="44.87712" lon="6.68437">
        <ele>1428.8</ele>
        <time>2022-07-19T20:28:05Z</time>
      </trkpt>
      <trkpt lat="44.87712" lon="6.6844">
        <ele>1429</ele>
        <time>2022-07-19T20:28:06Z</time>
      </trkpt>
      <trkpt lat="44.87712" lon="6.68442">
        <ele>1429</ele>
        <time>2022-07-19T20:28:07Z</time>
      </trkpt>
      <trkpt lat="44.87712" lon="6.68445">
        <ele>1429.2</ele>
        <time>2022-07-19T20:28:08Z</time>
      </trkpt>
      <trkpt lat="44.87712" lon="6.68447">
        <ele>1429.2</ele>
        <time>2022-07-19T20:28:09Z</time>
      </trkpt>
      <trkpt lat="44.87712" lon="6.6845">
        <ele>1429.4</ele>
        <time>2022-07-19T20:28:10Z</time>
      </trkpt>
      <trkpt lat="44.87712" lon="6.68452">
        <ele>1429.4</ele>
        <time>2022-07-19T20:28:11Z</time>
      </trkpt>
      <trkpt lat="44.87713" lon="6.68455">
        <ele>1429.8</ele>
        <time>2022-07-19T20:28:12Z</time>
      </trkpt>
      <trkpt lat="44.87713" lon="6.68457">
        <ele>1429.8</ele>
        <time>2022-07-19T20:28:13Z</time>
      </trkpt>
      <trkpt lat="44.87713" lon="6.6846">
        <ele>1430</ele>
        <time>2022-07-19T20:28:14Z</time>
      </trkpt>
      <trkpt lat="44.87713" lon="6.68463">
        <ele>1430</ele>
        <time>2022-07-19T20:28:15Z</time>
      </trkpt>
      <trkpt lat="44.87713" lon="6.68465">
        <ele>1430</ele>
        <time>2022-07-19T20:28:16Z</time>
      </trkpt>
      <trkpt lat="44.87713" lon="6.68468">
        <ele>1430.2</ele>
        <time>2022-07-19T20:28:17Z</time>
      </trkpt>
      <trkpt lat="44.87713" lon="6.6847">
        <ele>1430.2</ele>
        <time>2022-07-19T20:28:18Z</time>
      </trkpt>
      <trkpt lat="44.87714" lon="6.68472">
        <ele>1430.6</ele>
        <time>2022-07-19T20:28:19Z</time>
      </trkpt>
      <trkpt lat="44.87714" lon="6.68474">
        <ele>1430.6</ele>
        <time>2022-07-19T20:28:20Z</time>
      </trkpt>
      <trkpt lat="44.87714" lon="6.68477">
        <ele>1430.8</ele>
        <time>2022-07-19T20:28:21Z</time>
      </trkpt>
      <trkpt lat="44.87714" lon="6.68479">
        <ele>1430.8</ele>
        <time>2022-07-19T20:28:22Z</time>
      </trkpt>
      <trkpt lat="44.87713" lon="6.68482">
        <ele>1431</ele>
        <time>2022-07-19T20:28:23Z</time>
      </trkpt>
      <trkpt lat="44.87713" lon="6.68484">
        <ele>1431</ele>
        <time>2022-07-19T20:28:24Z</time>
      </trkpt>
      <trkpt lat="44.87714" lon="6.68486">
        <ele>1431.4</ele>
        <time>2022-07-19T20:28:25Z</time>
      </trkpt>
      <trkpt lat="44.87714" lon="6.68489">
        <ele>1431.4</ele>
        <time>2022-07-19T20:28:26Z</time>
      </trkpt>
      <trkpt lat="44.87715" lon="6.68491">
        <ele>1431.6</ele>
        <time>2022-07-19T20:28:27Z</time>
      </trkpt>
      <trkpt lat="44.87715" lon="6.68493">
        <ele>1431.6</ele>
        <time>2022-07-19T20:28:28Z</time>
      </trkpt>
      <trkpt lat="44.87715" lon="6.68496">
        <ele>1432</ele>
        <time>2022-07-19T20:28:29Z</time>
      </trkpt>
      <trkpt lat="44.87715" lon="6.68498">
        <ele>1432</ele>
        <time>2022-07-19T20:28:30Z</time>
      </trkpt>
      <trkpt lat="44.87715" lon="6.685">
        <ele>1432.2</ele>
        <time>2022-07-19T20:28:31Z</time>
      </trkpt>
      <trkpt lat="44.87715" lon="6.68502">
        <ele>1432.2</ele>
        <time>2022-07-19T20:28:32Z</time>
      </trkpt>
      <trkpt lat="44.87715" lon="6.68505">
        <ele>1432.4</ele>
        <time>2022-07-19T20:28:33Z</time>
      </trkpt>
      <trkpt lat="44.87715" lon="6.68507">
        <ele>1432.4</ele>
        <time>2022-07-19T20:28:34Z</time>
      </trkpt>
      <trkpt lat="44.87715" lon="6.68509">
        <ele>1432.8</ele>
        <time>2022-07-19T20:28:35Z</time>
      </trkpt>
      <trkpt lat="44.87714" lon="6.68512">
        <ele>1432.8</ele>
        <time>2022-07-19T20:28:36Z</time>
      </trkpt>
      <trkpt lat="44.87714" lon="6.68516">
        <ele>1433</ele>
        <time>2022-07-19T20:28:37Z</time>
      </trkpt>
      <trkpt lat="44.87714" lon="6.68518">
        <ele>1433</ele>
        <time>2022-07-19T20:28:38Z</time>
      </trkpt>
      <trkpt lat="44.87714" lon="6.68521">
        <ele>1433.2</ele>
        <time>2022-07-19T20:28:39Z</time>
      </trkpt>
      <trkpt lat="44.87715" lon="6.68523">
        <ele>1433.2</ele>
        <time>2022-07-19T20:28:40Z</time>
      </trkpt>
      <trkpt lat="44.87714" lon="6.68525">
        <ele>1433.6</ele>
        <time>2022-07-19T20:28:41Z</time>
      </trkpt>
      <trkpt lat="44.87714" lon="6.68528">
        <ele>1433.6</ele>
        <time>2022-07-19T20:28:42Z</time>
      </trkpt>
      <trkpt lat="44.87714" lon="6.6853">
        <ele>1433.8</ele>
        <time>2022-07-19T20:28:43Z</time>
      </trkpt>
      <trkpt lat="44.87714" lon="6.68532">
        <ele>1433.8</ele>
        <time>2022-07-19T20:28:44Z</time>
      </trkpt>
      <trkpt lat="44.87714" lon="6.68534">
        <ele>1434</ele>
        <time>2022-07-19T20:28:45Z</time>
      </trkpt>
      <trkpt lat="44.87714" lon="6.68536">
        <ele>1434</ele>
        <time>2022-07-19T20:28:46Z</time>
      </trkpt>
      <trkpt lat="44.87714" lon="6.68539">
        <ele>1434.4</ele>
        <time>2022-07-19T20:28:47Z</time>
      </trkpt>
      <trkpt lat="44.87714" lon="6.68541">
        <ele>1434.4</ele>
        <time>2022-07-19T20:28:48Z</time>
      </trkpt>
      <trkpt lat="44.87714" lon="6.68544">
        <ele>1434.6</ele>
        <time>2022-07-19T20:28:49Z</time>
      </trkpt>
      <trkpt lat="44.87714" lon="6.68546">
        <ele>1434.6</ele>
        <time>2022-07-19T20:28:50Z</time>
      </trkpt>
      <trkpt lat="44.87713" lon="6.68548">
        <ele>1435</ele>
        <time>2022-07-19T20:28:51Z</time>
      </trkpt>
      <trkpt lat="44.87713" lon="6.68551">
        <ele>1435</ele>
        <time>2022-07-19T20:28:52Z</time>
      </trkpt>
      <trkpt lat="44.87713" lon="6.68553">
        <ele>1435.2</ele>
        <time>2022-07-19T20:28:53Z</time>
      </trkpt>
      <trkpt lat="44.87713" lon="6.68555">
        <ele>1435.2</ele>
        <time>2022-07-19T20:28:54Z</time>
      </trkpt>
      <trkpt lat="44.87713" lon="6.68557">
        <ele>1435.4</ele>
        <time>2022-07-19T20:28:55Z</time>
      </trkpt>
      <trkpt lat="44.87713" lon="6.6856">
        <ele>1435.4</ele>
        <time>2022-07-19T20:28:56Z</time>
      </trkpt>
      <trkpt lat="44.87713" lon="6.68561">
        <ele>1435.6</ele>
        <time>2022-07-19T20:28:57Z</time>
      </trkpt>
      <trkpt lat="44.87714" lon="6.68563">
        <ele>1435.6</ele>
        <time>2022-07-19T20:28:58Z</time>
      </trkpt>
      <trkpt lat="44.87714" lon="6.68565">
        <ele>1436</ele>
        <time>2022-07-19T20:28:59Z</time>
      </trkpt>
      <trkpt lat="44.87714" lon="6.68567">
        <ele>1436</ele>
        <time>2022-07-19T20:29:00Z</time>
      </trkpt>
      <trkpt lat="44.87714" lon="6.68569">
        <ele>1436.2</ele>
        <time>2022-07-19T20:29:01Z</time>
      </trkpt>
      <trkpt lat="44.87714" lon="6.68571">
        <ele>1436.2</ele>
        <time>2022-07-19T20:29:02Z</time>
      </trkpt>
      <trkpt lat="44.87714" lon="6.68573">
        <ele>1436.2</ele>
        <time>2022-07-19T20:29:03Z</time>
      </trkpt>
      <trkpt lat="44.87714" lon="6.68575">
        <ele>1436.4</ele>
        <time>2022-07-19T20:29:04Z</time>
      </trkpt>
      <trkpt lat="44.87714" lon="6.68578">
        <ele>1436.4</ele>
        <time>2022-07-19T20:29:05Z</time>
      </trkpt>
      <trkpt lat="44.87714" lon="6.6858">
        <ele>1436.4</ele>
        <time>2022-07-19T20:29:06Z</time>
      </trkpt>
      <trkpt lat="44.87714" lon="6.68582">
        <ele>1436.8</ele>
        <time>2022-07-19T20:29:07Z</time>
      </trkpt>
      <trkpt lat="44.87713" lon="6.68584">
        <ele>1436.8</ele>
        <time>2022-07-19T20:29:08Z</time>
      </trkpt>
      <trkpt lat="44.87713" lon="6.68586">
        <ele>1437</ele>
        <time>2022-07-19T20:29:09Z</time>
      </trkpt>
      <trkpt lat="44.87713" lon="6.68588">
        <ele>1437</ele>
        <time>2022-07-19T20:29:10Z</time>
      </trkpt>
      <trkpt lat="44.87713" lon="6.6859">
        <ele>1437.2</ele>
        <time>2022-07-19T20:29:11Z</time>
      </trkpt>
      <trkpt lat="44.87714" lon="6.68592">
        <ele>1437.2</ele>
        <time>2022-07-19T20:29:12Z</time>
      </trkpt>
      <trkpt lat="44.87714" lon="6.68594">
        <ele>1437.2</ele>
        <time>2022-07-19T20:29:13Z</time>
      </trkpt>
      <trkpt lat="44.87713" lon="6.68596">
        <ele>1437.6</ele>
        <time>2022-07-19T20:29:14Z</time>
      </trkpt>
      <trkpt lat="44.87713" lon="6.68598">
        <ele>1437.6</ele>
        <time>2022-07-19T20:29:15Z</time>
      </trkpt>
      <trkpt lat="44.87713" lon="6.686">
        <ele>1437.6</ele>
        <time>2022-07-19T20:29:16Z</time>
      </trkpt>
      <trkpt lat="44.87713" lon="6.68602">
        <ele>1437.8</ele>
        <time>2022-07-19T20:29:17Z</time>
      </trkpt>
      <trkpt lat="44.87713" lon="6.68604">
        <ele>1437.8</ele>
        <time>2022-07-19T20:29:18Z</time>
      </trkpt>
      <trkpt lat="44.87713" lon="6.68606">
        <ele>1438.2</ele>
        <time>2022-07-19T20:29:19Z</time>
      </trkpt>
      <trkpt lat="44.87713" lon="6.68608">
        <ele>1438.4</ele>
        <time>2022-07-19T20:29:20Z</time>
      </trkpt>
      <trkpt lat="44.87713" lon="6.6861">
        <ele>1438.4</ele>
        <time>2022-07-19T20:29:21Z</time>
      </trkpt>
      <trkpt lat="44.87713" lon="6.68612">
        <ele>1438.6</ele>
        <time>2022-07-19T20:29:22Z</time>
      </trkpt>
      <trkpt lat="44.87713" lon="6.68615">
        <ele>1438.6</ele>
        <time>2022-07-19T20:29:23Z</time>
      </trkpt>
      <trkpt lat="44.87713" lon="6.68617">
        <ele>1438.8</ele>
        <time>2022-07-19T20:29:24Z</time>
      </trkpt>
      <trkpt lat="44.87713" lon="6.68619">
        <ele>1438.8</ele>
        <time>2022-07-19T20:29:25Z</time>
      </trkpt>
      <trkpt lat="44.87713" lon="6.68621">
        <ele>1438.8</ele>
        <time>2022-07-19T20:29:26Z</time>
      </trkpt>
      <trkpt lat="44.87713" lon="6.68623">
        <ele>1439.2</ele>
        <time>2022-07-19T20:29:27Z</time>
      </trkpt>
      <trkpt lat="44.87713" lon="6.68626">
        <ele>1439.2</ele>
        <time>2022-07-19T20:29:28Z</time>
      </trkpt>
      <trkpt lat="44.87713" lon="6.68628">
        <ele>1439.2</ele>
        <time>2022-07-19T20:29:29Z</time>
      </trkpt>
      <trkpt lat="44.87712" lon="6.6863">
        <ele>1439.6</ele>
        <time>2022-07-19T20:29:30Z</time>
      </trkpt>
      <trkpt lat="44.87713" lon="6.68632">
        <ele>1439.6</ele>
        <time>2022-07-19T20:29:31Z</time>
      </trkpt>
      <trkpt lat="44.87713" lon="6.68634">
        <ele>1439.8</ele>
        <time>2022-07-19T20:29:32Z</time>
      </trkpt>
      <trkpt lat="44.87713" lon="6.68637">
        <ele>1439.8</ele>
        <time>2022-07-19T20:29:33Z</time>
      </trkpt>
      <trkpt lat="44.87713" lon="6.68639">
        <ele>1440.2</ele>
        <time>2022-07-19T20:29:34Z</time>
      </trkpt>
      <trkpt lat="44.87713" lon="6.68641">
        <ele>1440.2</ele>
        <time>2022-07-19T20:29:35Z</time>
      </trkpt>
      <trkpt lat="44.87713" lon="6.68643">
        <ele>1440.4</ele>
        <time>2022-07-19T20:29:36Z</time>
      </trkpt>
      <trkpt lat="44.87713" lon="6.68646">
        <ele>1440.4</ele>
        <time>2022-07-19T20:29:37Z</time>
      </trkpt>
      <trkpt lat="44.87713" lon="6.68648">
        <ele>1440.6</ele>
        <time>2022-07-19T20:29:38Z</time>
      </trkpt>
      <trkpt lat="44.87713" lon="6.6865">
        <ele>1440.6</ele>
        <time>2022-07-19T20:29:39Z</time>
      </trkpt>
      <trkpt lat="44.87713" lon="6.68652">
        <ele>1440.8</ele>
        <time>2022-07-19T20:29:40Z</time>
      </trkpt>
      <trkpt lat="44.87713" lon="6.68655">
        <ele>1440.8</ele>
        <time>2022-07-19T20:29:41Z</time>
      </trkpt>
      <trkpt lat="44.87713" lon="6.68657">
        <ele>1441</ele>
        <time>2022-07-19T20:29:42Z</time>
      </trkpt>
      <trkpt lat="44.87713" lon="6.68659">
        <ele>1441</ele>
        <time>2022-07-19T20:29:43Z</time>
      </trkpt>
      <trkpt lat="44.87713" lon="6.68662">
        <ele>1441.2</ele>
        <time>2022-07-19T20:29:44Z</time>
      </trkpt>
      <trkpt lat="44.87713" lon="6.68664">
        <ele>1441.2</ele>
        <time>2022-07-19T20:29:45Z</time>
      </trkpt>
      <trkpt lat="44.87713" lon="6.68666">
        <ele>1441.6</ele>
        <time>2022-07-19T20:29:46Z</time>
      </trkpt>
      <trkpt lat="44.87713" lon="6.68668">
        <ele>1441.6</ele>
        <time>2022-07-19T20:29:47Z</time>
      </trkpt>
      <trkpt lat="44.87713" lon="6.6867">
        <ele>1442</ele>
        <time>2022-07-19T20:29:48Z</time>
      </trkpt>
      <trkpt lat="44.87713" lon="6.68673">
        <ele>1442</ele>
        <time>2022-07-19T20:29:49Z</time>
      </trkpt>
      <trkpt lat="44.87713" lon="6.68675">
        <ele>1442.2</ele>
        <time>2022-07-19T20:29:50Z</time>
      </trkpt>
      <trkpt lat="44.87713" lon="6.68678">
        <ele>1442.2</ele>
        <time>2022-07-19T20:29:51Z</time>
      </trkpt>
      <trkpt lat="44.87713" lon="6.6868">
        <ele>1442.4</ele>
        <time>2022-07-19T20:29:52Z</time>
      </trkpt>
      <trkpt lat="44.87713" lon="6.68682">
        <ele>1442.4</ele>
        <time>2022-07-19T20:29:53Z</time>
      </trkpt>
      <trkpt lat="44.87713" lon="6.68685">
        <ele>1442.6</ele>
        <time>2022-07-19T20:29:54Z</time>
      </trkpt>
      <trkpt lat="44.87712" lon="6.68687">
        <ele>1442.6</ele>
        <time>2022-07-19T20:29:55Z</time>
      </trkpt>
      <trkpt lat="44.87712" lon="6.6869">
        <ele>1443</ele>
        <time>2022-07-19T20:29:56Z</time>
      </trkpt>
      <trkpt lat="44.87711" lon="6.68692">
        <ele>1443.2</ele>
        <time>2022-07-19T20:29:57Z</time>
      </trkpt>
      <trkpt lat="44.87711" lon="6.68695">
        <ele>1443.2</ele>
        <time>2022-07-19T20:29:58Z</time>
      </trkpt>
      <trkpt lat="44.87711" lon="6.68697">
        <ele>1443.6</ele>
        <time>2022-07-19T20:29:59Z</time>
      </trkpt>
      <trkpt lat="44.87711" lon="6.687">
        <ele>1443.6</ele>
        <time>2022-07-19T20:30:00Z</time>
      </trkpt>
      <trkpt lat="44.87711" lon="6.68702">
        <ele>1443.8</ele>
        <time>2022-07-19T20:30:01Z</time>
      </trkpt>
      <trkpt lat="44.87711" lon="6.68705">
        <ele>1443.8</ele>
        <time>2022-07-19T20:30:02Z</time>
      </trkpt>
      <trkpt lat="44.87711" lon="6.68707">
        <ele>1444</ele>
        <time>2022-07-19T20:30:03Z</time>
      </trkpt>
      <trkpt lat="44.87711" lon="6.6871">
        <ele>1444</ele>
        <time>2022-07-19T20:30:04Z</time>
      </trkpt>
      <trkpt lat="44.87711" lon="6.68712">
        <ele>1444.2</ele>
        <time>2022-07-19T20:30:05Z</time>
      </trkpt>
      <trkpt lat="44.87711" lon="6.68715">
        <ele>1444.2</ele>
        <time>2022-07-19T20:30:06Z</time>
      </trkpt>
      <trkpt lat="44.87711" lon="6.68717">
        <ele>1444.2</ele>
        <time>2022-07-19T20:30:07Z</time>
      </trkpt>
      <trkpt lat="44.87711" lon="6.6872">
        <ele>1444.6</ele>
        <time>2022-07-19T20:30:08Z</time>
      </trkpt>
      <trkpt lat="44.87711" lon="6.68722">
        <ele>1444.6</ele>
        <time>2022-07-19T20:30:09Z</time>
      </trkpt>
      <trkpt lat="44.87711" lon="6.68725">
        <ele>1444.8</ele>
        <time>2022-07-19T20:30:10Z</time>
      </trkpt>
      <trkpt lat="44.87711" lon="6.68727">
        <ele>1444.8</ele>
        <time>2022-07-19T20:30:11Z</time>
      </trkpt>
      <trkpt lat="44.87711" lon="6.6873">
        <ele>1445.2</ele>
        <time>2022-07-19T20:30:12Z</time>
      </trkpt>
      <trkpt lat="44.8771" lon="6.68732">
        <ele>1445.2</ele>
        <time>2022-07-19T20:30:13Z</time>
      </trkpt>
      <trkpt lat="44.8771" lon="6.68735">
        <ele>1445.6</ele>
        <time>2022-07-19T20:30:14Z</time>
      </trkpt>
      <trkpt lat="44.8771" lon="6.68737">
        <ele>1445.6</ele>
        <time>2022-07-19T20:30:15Z</time>
      </trkpt>
      <trkpt lat="44.87709" lon="6.6874">
        <ele>1445.8</ele>
        <time>2022-07-19T20:30:16Z</time>
      </trkpt>
      <trkpt lat="44.87709" lon="6.68742">
        <ele>1445.8</ele>
        <time>2022-07-19T20:30:17Z</time>
      </trkpt>
      <trkpt lat="44.87709" lon="6.68744">
        <ele>1446</ele>
        <time>2022-07-19T20:30:18Z</time>
      </trkpt>
      <trkpt lat="44.87709" lon="6.68747">
        <ele>1446</ele>
        <time>2022-07-19T20:30:19Z</time>
      </trkpt>
      <trkpt lat="44.87708" lon="6.68749">
        <ele>1446</ele>
        <time>2022-07-19T20:30:20Z</time>
      </trkpt>
      <trkpt lat="44.87708" lon="6.68751">
        <ele>1446.4</ele>
        <time>2022-07-19T20:30:21Z</time>
      </trkpt>
      <trkpt lat="44.87708" lon="6.68754">
        <ele>1446.4</ele>
        <time>2022-07-19T20:30:22Z</time>
      </trkpt>
      <trkpt lat="44.87707" lon="6.68756">
        <ele>1446.6</ele>
        <time>2022-07-19T20:30:23Z</time>
      </trkpt>
      <trkpt lat="44.87707" lon="6.68759">
        <ele>1446.8</ele>
        <time>2022-07-19T20:30:24Z</time>
      </trkpt>
      <trkpt lat="44.87707" lon="6.68761">
        <ele>1447</ele>
        <time>2022-07-19T20:30:25Z</time>
      </trkpt>
      <trkpt lat="44.87707" lon="6.68763">
        <ele>1447</ele>
        <time>2022-07-19T20:30:26Z</time>
      </trkpt>
      <trkpt lat="44.87708" lon="6.68765">
        <ele>1447.2</ele>
        <time>2022-07-19T20:30:27Z</time>
      </trkpt>
      <trkpt lat="44.87707" lon="6.68767">
        <ele>1447.2</ele>
        <time>2022-07-19T20:30:28Z</time>
      </trkpt>
      <trkpt lat="44.87707" lon="6.6877">
        <ele>1447.6</ele>
        <time>2022-07-19T20:30:29Z</time>
      </trkpt>
      <trkpt lat="44.87706" lon="6.68772">
        <ele>1447.6</ele>
        <time>2022-07-19T20:30:30Z</time>
      </trkpt>
      <trkpt lat="44.87706" lon="6.68775">
        <ele>1447.6</ele>
        <time>2022-07-19T20:30:31Z</time>
      </trkpt>
      <trkpt lat="44.87705" lon="6.68777">
        <ele>1447.8</ele>
        <time>2022-07-19T20:30:32Z</time>
      </trkpt>
      <trkpt lat="44.87705" lon="6.6878">
        <ele>1447.8</ele>
        <time>2022-07-19T20:30:33Z</time>
      </trkpt>
      <trkpt lat="44.87705" lon="6.68782">
        <ele>1448</ele>
        <time>2022-07-19T20:30:34Z</time>
      </trkpt>
      <trkpt lat="44.87704" lon="6.68785">
        <ele>1448</ele>
        <time>2022-07-19T20:30:35Z</time>
      </trkpt>
      <trkpt lat="44.87704" lon="6.68787">
        <ele>1448.2</ele>
        <time>2022-07-19T20:30:36Z</time>
      </trkpt>
      <trkpt lat="44.87703" lon="6.6879">
        <ele>1448.2</ele>
        <time>2022-07-19T20:30:37Z</time>
      </trkpt>
      <trkpt lat="44.87703" lon="6.68793">
        <ele>1448.4</ele>
        <time>2022-07-19T20:30:38Z</time>
      </trkpt>
      <trkpt lat="44.87703" lon="6.68795">
        <ele>1448.4</ele>
        <time>2022-07-19T20:30:39Z</time>
      </trkpt>
      <trkpt lat="44.87703" lon="6.68798">
        <ele>1448.6</ele>
        <time>2022-07-19T20:30:40Z</time>
      </trkpt>
      <trkpt lat="44.87702" lon="6.688">
        <ele>1448.6</ele>
        <time>2022-07-19T20:30:41Z</time>
      </trkpt>
      <trkpt lat="44.87702" lon="6.68803">
        <ele>1449</ele>
        <time>2022-07-19T20:30:42Z</time>
      </trkpt>
      <trkpt lat="44.87702" lon="6.68805">
        <ele>1449</ele>
        <time>2022-07-19T20:30:43Z</time>
      </trkpt>
      <trkpt lat="44.87701" lon="6.68807">
        <ele>1449.4</ele>
        <time>2022-07-19T20:30:44Z</time>
      </trkpt>
      <trkpt lat="44.87701" lon="6.6881">
        <ele>1449.4</ele>
        <time>2022-07-19T20:30:45Z</time>
      </trkpt>
      <trkpt lat="44.877" lon="6.68812">
        <ele>1449.8</ele>
        <time>2022-07-19T20:30:46Z</time>
      </trkpt>
      <trkpt lat="44.877" lon="6.68814">
        <ele>1450</ele>
        <time>2022-07-19T20:30:47Z</time>
      </trkpt>
      <trkpt lat="44.87699" lon="6.68817">
        <ele>1450</ele>
        <time>2022-07-19T20:30:48Z</time>
      </trkpt>
      <trkpt lat="44.87698" lon="6.68819">
        <ele>1450.2</ele>
        <time>2022-07-19T20:30:49Z</time>
      </trkpt>
      <trkpt lat="44.87697" lon="6.68822">
        <ele>1450.2</ele>
        <time>2022-07-19T20:30:50Z</time>
      </trkpt>
      <trkpt lat="44.87696" lon="6.68824">
        <ele>1450.6</ele>
        <time>2022-07-19T20:30:51Z</time>
      </trkpt>
      <trkpt lat="44.87696" lon="6.68827">
        <ele>1450.6</ele>
        <time>2022-07-19T20:30:52Z</time>
      </trkpt>
      <trkpt lat="44.87695" lon="6.68829">
        <ele>1450.8</ele>
        <time>2022-07-19T20:30:53Z</time>
      </trkpt>
      <trkpt lat="44.87694" lon="6.68831">
        <ele>1450.8</ele>
        <time>2022-07-19T20:30:54Z</time>
      </trkpt>
      <trkpt lat="44.87694" lon="6.68834">
        <ele>1451</ele>
        <time>2022-07-19T20:30:55Z</time>
      </trkpt>
      <trkpt lat="44.87694" lon="6.68836">
        <ele>1451</ele>
        <time>2022-07-19T20:30:56Z</time>
      </trkpt>
      <trkpt lat="44.87693" lon="6.68839">
        <ele>1451.4</ele>
        <time>2022-07-19T20:30:57Z</time>
      </trkpt>
      <trkpt lat="44.87693" lon="6.68841">
        <ele>1451.4</ele>
        <time>2022-07-19T20:30:58Z</time>
      </trkpt>
      <trkpt lat="44.87693" lon="6.68843">
        <ele>1451.6</ele>
        <time>2022-07-19T20:30:59Z</time>
      </trkpt>
      <trkpt lat="44.87692" lon="6.68845">
        <ele>1451.6</ele>
        <time>2022-07-19T20:31:00Z</time>
      </trkpt>
      <trkpt lat="44.87691" lon="6.68847">
        <ele>1451.6</ele>
        <time>2022-07-19T20:31:01Z</time>
      </trkpt>
      <trkpt lat="44.87691" lon="6.6885">
        <ele>1452</ele>
        <time>2022-07-19T20:31:02Z</time>
      </trkpt>
      <trkpt lat="44.8769" lon="6.68852">
        <ele>1452</ele>
        <time>2022-07-19T20:31:03Z</time>
      </trkpt>
      <trkpt lat="44.87689" lon="6.68854">
        <ele>1452</ele>
        <time>2022-07-19T20:31:04Z</time>
      </trkpt>
      <trkpt lat="44.87688" lon="6.68856">
        <ele>1452.2</ele>
        <time>2022-07-19T20:31:05Z</time>
      </trkpt>
      <trkpt lat="44.87687" lon="6.68859">
        <ele>1452.2</ele>
        <time>2022-07-19T20:31:06Z</time>
      </trkpt>
      <trkpt lat="44.87687" lon="6.68861">
        <ele>1452.6</ele>
        <time>2022-07-19T20:31:07Z</time>
      </trkpt>
      <trkpt lat="44.87686" lon="6.68863">
        <ele>1452.6</ele>
        <time>2022-07-19T20:31:08Z</time>
      </trkpt>
      <trkpt lat="44.87685" lon="6.68865">
        <ele>1452.8</ele>
        <time>2022-07-19T20:31:09Z</time>
      </trkpt>
      <trkpt lat="44.87685" lon="6.68867">
        <ele>1452.8</ele>
        <time>2022-07-19T20:31:10Z</time>
      </trkpt>
      <trkpt lat="44.87684" lon="6.6887">
        <ele>1453.2</ele>
        <time>2022-07-19T20:31:11Z</time>
      </trkpt>
      <trkpt lat="44.87683" lon="6.68872">
        <ele>1453.2</ele>
        <time>2022-07-19T20:31:12Z</time>
      </trkpt>
      <trkpt lat="44.87683" lon="6.68874">
        <ele>1453.4</ele>
        <time>2022-07-19T20:31:13Z</time>
      </trkpt>
      <trkpt lat="44.87683" lon="6.68876">
        <ele>1453.4</ele>
        <time>2022-07-19T20:31:14Z</time>
      </trkpt>
      <trkpt lat="44.87682" lon="6.68879">
        <ele>1453.6</ele>
        <time>2022-07-19T20:31:15Z</time>
      </trkpt>
      <trkpt lat="44.87682" lon="6.68881">
        <ele>1454</ele>
        <time>2022-07-19T20:31:16Z</time>
      </trkpt>
      <trkpt lat="44.87681" lon="6.68884">
        <ele>1454</ele>
        <time>2022-07-19T20:31:17Z</time>
      </trkpt>
      <trkpt lat="44.87681" lon="6.68886">
        <ele>1454.2</ele>
        <time>2022-07-19T20:31:18Z</time>
      </trkpt>
      <trkpt lat="44.8768" lon="6.68888">
        <ele>1454.4</ele>
        <time>2022-07-19T20:31:19Z</time>
      </trkpt>
      <trkpt lat="44.87679" lon="6.68891">
        <ele>1454.6</ele>
        <time>2022-07-19T20:31:20Z</time>
      </trkpt>
      <trkpt lat="44.87679" lon="6.68893">
        <ele>1454.6</ele>
        <time>2022-07-19T20:31:21Z</time>
      </trkpt>
      <trkpt lat="44.87678" lon="6.68895">
        <ele>1455</ele>
        <time>2022-07-19T20:31:22Z</time>
      </trkpt>
      <trkpt lat="44.87677" lon="6.68897">
        <ele>1455</ele>
        <time>2022-07-19T20:31:23Z</time>
      </trkpt>
      <trkpt lat="44.87677" lon="6.68899">
        <ele>1455.2</ele>
        <time>2022-07-19T20:31:24Z</time>
      </trkpt>
      <trkpt lat="44.87676" lon="6.68901">
        <ele>1455.2</ele>
        <time>2022-07-19T20:31:25Z</time>
      </trkpt>
      <trkpt lat="44.87675" lon="6.68903">
        <ele>1455.4</ele>
        <time>2022-07-19T20:31:26Z</time>
      </trkpt>
      <trkpt lat="44.87674" lon="6.68905">
        <ele>1455.4</ele>
        <time>2022-07-19T20:31:27Z</time>
      </trkpt>
      <trkpt lat="44.87673" lon="6.68907">
        <ele>1455.4</ele>
        <time>2022-07-19T20:31:28Z</time>
      </trkpt>
      <trkpt lat="44.87672" lon="6.68909">
        <ele>1455.8</ele>
        <time>2022-07-19T20:31:29Z</time>
      </trkpt>
      <trkpt lat="44.87671" lon="6.68911">
        <ele>1455.8</ele>
        <time>2022-07-19T20:31:30Z</time>
      </trkpt>
      <trkpt lat="44.8767" lon="6.68913">
        <ele>1456</ele>
        <time>2022-07-19T20:31:31Z</time>
      </trkpt>
      <trkpt lat="44.87669" lon="6.68915">
        <ele>1456</ele>
        <time>2022-07-19T20:31:32Z</time>
      </trkpt>
      <trkpt lat="44.87669" lon="6.68917">
        <ele>1456.2</ele>
        <time>2022-07-19T20:31:33Z</time>
      </trkpt>
      <trkpt lat="44.87668" lon="6.68919">
        <ele>1456.2</ele>
        <time>2022-07-19T20:31:34Z</time>
      </trkpt>
      <trkpt lat="44.87667" lon="6.6892">
        <ele>1456.6</ele>
        <time>2022-07-19T20:31:35Z</time>
      </trkpt>
      <trkpt lat="44.87666" lon="6.68922">
        <ele>1456.6</ele>
        <time>2022-07-19T20:31:36Z</time>
      </trkpt>
      <trkpt lat="44.87665" lon="6.68924">
        <ele>1456.8</ele>
        <time>2022-07-19T20:31:37Z</time>
      </trkpt>
      <trkpt lat="44.87664" lon="6.68926">
        <ele>1456.8</ele>
        <time>2022-07-19T20:31:38Z</time>
      </trkpt>
      <trkpt lat="44.87664" lon="6.68928">
        <ele>1456.8</ele>
        <time>2022-07-19T20:31:39Z</time>
      </trkpt>
      <trkpt lat="44.87664" lon="6.6893">
        <ele>1457.2</ele>
        <time>2022-07-19T20:31:40Z</time>
      </trkpt>
      <trkpt lat="44.87663" lon="6.68932">
        <ele>1457.2</ele>
        <time>2022-07-19T20:31:41Z</time>
      </trkpt>
      <trkpt lat="44.87663" lon="6.68933">
        <ele>1457.4</ele>
        <time>2022-07-19T20:31:43Z</time>
      </trkpt>
      <trkpt lat="44.87662" lon="6.68935">
        <ele>1457.8</ele>
        <time>2022-07-19T20:31:44Z</time>
      </trkpt>
      <trkpt lat="44.87661" lon="6.68937">
        <ele>1457.8</ele>
        <time>2022-07-19T20:31:45Z</time>
      </trkpt>
      <trkpt lat="44.8766" lon="6.68939">
        <ele>1458</ele>
        <time>2022-07-19T20:31:46Z</time>
      </trkpt>
      <trkpt lat="44.87659" lon="6.6894">
        <ele>1458</ele>
        <time>2022-07-19T20:31:47Z</time>
      </trkpt>
      <trkpt lat="44.87659" lon="6.68942">
        <ele>1458.2</ele>
        <time>2022-07-19T20:31:48Z</time>
      </trkpt>
      <trkpt lat="44.87658" lon="6.68944">
        <ele>1458.2</ele>
        <time>2022-07-19T20:31:49Z</time>
      </trkpt>
      <trkpt lat="44.87657" lon="6.68946">
        <ele>1458.4</ele>
        <time>2022-07-19T20:31:50Z</time>
      </trkpt>
      <trkpt lat="44.87656" lon="6.68948">
        <ele>1458.6</ele>
        <time>2022-07-19T20:31:51Z</time>
      </trkpt>
      <trkpt lat="44.87655" lon="6.6895">
        <ele>1458.6</ele>
        <time>2022-07-19T20:31:52Z</time>
      </trkpt>
      <trkpt lat="44.87654" lon="6.68952">
        <ele>1459</ele>
        <time>2022-07-19T20:31:53Z</time>
      </trkpt>
      <trkpt lat="44.87653" lon="6.68954">
        <ele>1459</ele>
        <time>2022-07-19T20:31:54Z</time>
      </trkpt>
      <trkpt lat="44.87652" lon="6.68955">
        <ele>1459</ele>
        <time>2022-07-19T20:31:55Z</time>
      </trkpt>
      <trkpt lat="44.8765" lon="6.68957">
        <ele>1459.2</ele>
        <time>2022-07-19T20:31:56Z</time>
      </trkpt>
      <trkpt lat="44.87649" lon="6.6896">
        <ele>1459.2</ele>
        <time>2022-07-19T20:31:57Z</time>
      </trkpt>
      <trkpt lat="44.87648" lon="6.68962">
        <ele>1459.4</ele>
        <time>2022-07-19T20:31:58Z</time>
      </trkpt>
      <trkpt lat="44.87647" lon="6.68965">
        <ele>1459.4</ele>
        <time>2022-07-19T20:31:59Z</time>
      </trkpt>
      <trkpt lat="44.87646" lon="6.68967">
        <ele>1459.6</ele>
        <time>2022-07-19T20:32:00Z</time>
      </trkpt>
      <trkpt lat="44.87645" lon="6.68969">
        <ele>1459.6</ele>
        <time>2022-07-19T20:32:01Z</time>
      </trkpt>
      <trkpt lat="44.87644" lon="6.68972">
        <ele>1460</ele>
        <time>2022-07-19T20:32:02Z</time>
      </trkpt>
      <trkpt lat="44.87643" lon="6.68974">
        <ele>1460</ele>
        <time>2022-07-19T20:32:03Z</time>
      </trkpt>
      <trkpt lat="44.87642" lon="6.68976">
        <ele>1460.4</ele>
        <time>2022-07-19T20:32:04Z</time>
      </trkpt>
      <trkpt lat="44.87642" lon="6.68978">
        <ele>1460.4</ele>
        <time>2022-07-19T20:32:05Z</time>
      </trkpt>
      <trkpt lat="44.87641" lon="6.68981">
        <ele>1460.6</ele>
        <time>2022-07-19T20:32:06Z</time>
      </trkpt>
      <trkpt lat="44.8764" lon="6.68983">
        <ele>1460.6</ele>
        <time>2022-07-19T20:32:07Z</time>
      </trkpt>
      <trkpt lat="44.87639" lon="6.68985">
        <ele>1460.8</ele>
        <time>2022-07-19T20:32:08Z</time>
      </trkpt>
      <trkpt lat="44.87638" lon="6.68987">
        <ele>1460.8</ele>
        <time>2022-07-19T20:32:09Z</time>
      </trkpt>
      <trkpt lat="44.87637" lon="6.68989">
        <ele>1461.2</ele>
        <time>2022-07-19T20:32:10Z</time>
      </trkpt>
      <trkpt lat="44.87636" lon="6.68991">
        <ele>1461.2</ele>
        <time>2022-07-19T20:32:11Z</time>
      </trkpt>
      <trkpt lat="44.87635" lon="6.68993">
        <ele>1461.4</ele>
        <time>2022-07-19T20:32:12Z</time>
      </trkpt>
      <trkpt lat="44.87633" lon="6.68995">
        <ele>1461.4</ele>
        <time>2022-07-19T20:32:13Z</time>
      </trkpt>
      <trkpt lat="44.87632" lon="6.68997">
        <ele>1461.6</ele>
        <time>2022-07-19T20:32:14Z</time>
      </trkpt>
      <trkpt lat="44.87631" lon="6.68999">
        <ele>1461.6</ele>
        <time>2022-07-19T20:32:15Z</time>
      </trkpt>
      <trkpt lat="44.87629" lon="6.69001">
        <ele>1461.8</ele>
        <time>2022-07-19T20:32:16Z</time>
      </trkpt>
      <trkpt lat="44.87628" lon="6.69003">
        <ele>1461.8</ele>
        <time>2022-07-19T20:32:17Z</time>
      </trkpt>
      <trkpt lat="44.87626" lon="6.69005">
        <ele>1462.2</ele>
        <time>2022-07-19T20:32:18Z</time>
      </trkpt>
      <trkpt lat="44.87625" lon="6.69007">
        <ele>1462.2</ele>
        <time>2022-07-19T20:32:19Z</time>
      </trkpt>
      <trkpt lat="44.87624" lon="6.6901">
        <ele>1462.4</ele>
        <time>2022-07-19T20:32:20Z</time>
      </trkpt>
      <trkpt lat="44.87622" lon="6.69012">
        <ele>1462.4</ele>
        <time>2022-07-19T20:32:21Z</time>
      </trkpt>
      <trkpt lat="44.87621" lon="6.69014">
        <ele>1462.6</ele>
        <time>2022-07-19T20:32:22Z</time>
      </trkpt>
      <trkpt lat="44.8762" lon="6.69015">
        <ele>1462.6</ele>
        <time>2022-07-19T20:32:23Z</time>
      </trkpt>
      <trkpt lat="44.87619" lon="6.69018">
        <ele>1462.8</ele>
        <time>2022-07-19T20:32:24Z</time>
      </trkpt>
      <trkpt lat="44.87617" lon="6.6902">
        <ele>1462.8</ele>
        <time>2022-07-19T20:32:25Z</time>
      </trkpt>
      <trkpt lat="44.87616" lon="6.69022">
        <ele>1463.2</ele>
        <time>2022-07-19T20:32:26Z</time>
      </trkpt>
      <trkpt lat="44.87615" lon="6.69024">
        <ele>1463.2</ele>
        <time>2022-07-19T20:32:27Z</time>
      </trkpt>
      <trkpt lat="44.87614" lon="6.69025">
        <ele>1463.2</ele>
        <time>2022-07-19T20:32:28Z</time>
      </trkpt>
      <trkpt lat="44.87613" lon="6.69027">
        <ele>1463.4</ele>
        <time>2022-07-19T20:32:29Z</time>
      </trkpt>
      <trkpt lat="44.87611" lon="6.69029">
        <ele>1463.4</ele>
        <time>2022-07-19T20:32:30Z</time>
      </trkpt>
      <trkpt lat="44.8761" lon="6.69031">
        <ele>1463.8</ele>
        <time>2022-07-19T20:32:31Z</time>
      </trkpt>
      <trkpt lat="44.87609" lon="6.69033">
        <ele>1463.8</ele>
        <time>2022-07-19T20:32:32Z</time>
      </trkpt>
      <trkpt lat="44.87608" lon="6.69035">
        <ele>1464</ele>
        <time>2022-07-19T20:32:33Z</time>
      </trkpt>
      <trkpt lat="44.87607" lon="6.69037">
        <ele>1464</ele>
        <time>2022-07-19T20:32:34Z</time>
      </trkpt>
      <trkpt lat="44.87606" lon="6.69039">
        <ele>1464</ele>
        <time>2022-07-19T20:32:35Z</time>
      </trkpt>
      <trkpt lat="44.87605" lon="6.69041">
        <ele>1464.4</ele>
        <time>2022-07-19T20:32:36Z</time>
      </trkpt>
      <trkpt lat="44.87603" lon="6.69042">
        <ele>1464.4</ele>
        <time>2022-07-19T20:32:37Z</time>
      </trkpt>
      <trkpt lat="44.87602" lon="6.69044">
        <ele>1464.6</ele>
        <time>2022-07-19T20:32:38Z</time>
      </trkpt>
      <trkpt lat="44.876" lon="6.69045">
        <ele>1464.6</ele>
        <time>2022-07-19T20:32:39Z</time>
      </trkpt>
      <trkpt lat="44.87599" lon="6.69047">
        <ele>1465</ele>
        <time>2022-07-19T20:32:40Z</time>
      </trkpt>
      <trkpt lat="44.87598" lon="6.69049">
        <ele>1465</ele>
        <time>2022-07-19T20:32:41Z</time>
      </trkpt>
      <trkpt lat="44.87596" lon="6.6905">
        <ele>1465</ele>
        <time>2022-07-19T20:32:42Z</time>
      </trkpt>
      <trkpt lat="44.87595" lon="6.69052">
        <ele>1465.2</ele>
        <time>2022-07-19T20:32:43Z</time>
      </trkpt>
      <trkpt lat="44.87594" lon="6.69054">
        <ele>1465.2</ele>
        <time>2022-07-19T20:32:44Z</time>
      </trkpt>
      <trkpt lat="44.87592" lon="6.69056">
        <ele>1465.6</ele>
        <time>2022-07-19T20:32:45Z</time>
      </trkpt>
      <trkpt lat="44.87591" lon="6.69058">
        <ele>1465.6</ele>
        <time>2022-07-19T20:32:46Z</time>
      </trkpt>
      <trkpt lat="44.8759" lon="6.6906">
        <ele>1465.8</ele>
        <time>2022-07-19T20:32:47Z</time>
      </trkpt>
      <trkpt lat="44.87589" lon="6.69062">
        <ele>1465.8</ele>
        <time>2022-07-19T20:32:48Z</time>
      </trkpt>
      <trkpt lat="44.87587" lon="6.69064">
        <ele>1466</ele>
        <time>2022-07-19T20:32:49Z</time>
      </trkpt>
      <trkpt lat="44.87586" lon="6.69065">
        <ele>1466</ele>
        <time>2022-07-19T20:32:50Z</time>
      </trkpt>
      <trkpt lat="44.87585" lon="6.69067">
        <ele>1466.4</ele>
        <time>2022-07-19T20:32:51Z</time>
      </trkpt>
      <trkpt lat="44.87584" lon="6.69069">
        <ele>1466.6</ele>
        <time>2022-07-19T20:32:52Z</time>
      </trkpt>
      <trkpt lat="44.87583" lon="6.69071">
        <ele>1466.6</ele>
        <time>2022-07-19T20:32:53Z</time>
      </trkpt>
      <trkpt lat="44.87581" lon="6.69073">
        <ele>1466.8</ele>
        <time>2022-07-19T20:32:54Z</time>
      </trkpt>
      <trkpt lat="44.8758" lon="6.69075">
        <ele>1466.8</ele>
        <time>2022-07-19T20:32:55Z</time>
      </trkpt>
      <trkpt lat="44.87579" lon="6.69077">
        <ele>1466.8</ele>
        <time>2022-07-19T20:32:56Z</time>
      </trkpt>
      <trkpt lat="44.87578" lon="6.69079">
        <ele>1466.8</ele>
        <time>2022-07-19T20:32:57Z</time>
      </trkpt>
      <trkpt lat="44.87577" lon="6.6908">
        <ele>1467.2</ele>
        <time>2022-07-19T20:32:58Z</time>
      </trkpt>
      <trkpt lat="44.87575" lon="6.69082">
        <ele>1467.2</ele>
        <time>2022-07-19T20:32:59Z</time>
      </trkpt>
      <trkpt lat="44.87574" lon="6.69084">
        <ele>1467.4</ele>
        <time>2022-07-19T20:33:00Z</time>
      </trkpt>
      <trkpt lat="44.87573" lon="6.69086">
        <ele>1467.4</ele>
        <time>2022-07-19T20:33:01Z</time>
      </trkpt>
      <trkpt lat="44.87572" lon="6.69088">
        <ele>1467.8</ele>
        <time>2022-07-19T20:33:02Z</time>
      </trkpt>
      <trkpt lat="44.87571" lon="6.6909">
        <ele>1467.8</ele>
        <time>2022-07-19T20:33:03Z</time>
      </trkpt>
      <trkpt lat="44.8757" lon="6.69091">
        <ele>1468</ele>
        <time>2022-07-19T20:33:04Z</time>
      </trkpt>
      <trkpt lat="44.87569" lon="6.69093">
        <ele>1468</ele>
        <time>2022-07-19T20:33:05Z</time>
      </trkpt>
      <trkpt lat="44.87567" lon="6.69095">
        <ele>1468.2</ele>
        <time>2022-07-19T20:33:06Z</time>
      </trkpt>
      <trkpt lat="44.87566" lon="6.69096">
        <ele>1468.2</ele>
        <time>2022-07-19T20:33:07Z</time>
      </trkpt>
      <trkpt lat="44.87565" lon="6.69098">
        <ele>1468.4</ele>
        <time>2022-07-19T20:33:08Z</time>
      </trkpt>
      <trkpt lat="44.87564" lon="6.69099">
        <ele>1468.4</ele>
        <time>2022-07-19T20:33:09Z</time>
      </trkpt>
      <trkpt lat="44.87563" lon="6.69101">
        <ele>1468.6</ele>
        <time>2022-07-19T20:33:10Z</time>
      </trkpt>
      <trkpt lat="44.87562" lon="6.69103">
        <ele>1468.6</ele>
        <time>2022-07-19T20:33:11Z</time>
      </trkpt>
      <trkpt lat="44.87561" lon="6.69105">
        <ele>1469</ele>
        <time>2022-07-19T20:33:12Z</time>
      </trkpt>
      <trkpt lat="44.8756" lon="6.69107">
        <ele>1469</ele>
        <time>2022-07-19T20:33:13Z</time>
      </trkpt>
      <trkpt lat="44.87559" lon="6.69109">
        <ele>1469.2</ele>
        <time>2022-07-19T20:33:14Z</time>
      </trkpt>
      <trkpt lat="44.87558" lon="6.69111">
        <ele>1469.2</ele>
        <time>2022-07-19T20:33:15Z</time>
      </trkpt>
      <trkpt lat="44.87557" lon="6.69112">
        <ele>1469.4</ele>
        <time>2022-07-19T20:33:16Z</time>
      </trkpt>
      <trkpt lat="44.87555" lon="6.69114">
        <ele>1469.4</ele>
        <time>2022-07-19T20:33:17Z</time>
      </trkpt>
      <trkpt lat="44.87554" lon="6.69116">
        <ele>1469.4</ele>
        <time>2022-07-19T20:33:18Z</time>
      </trkpt>
      <trkpt lat="44.87553" lon="6.69118">
        <ele>1469.8</ele>
        <time>2022-07-19T20:33:19Z</time>
      </trkpt>
      <trkpt lat="44.87552" lon="6.6912">
        <ele>1469.8</ele>
        <time>2022-07-19T20:33:20Z</time>
      </trkpt>
      <trkpt lat="44.87551" lon="6.69122">
        <ele>1469.8</ele>
        <time>2022-07-19T20:33:21Z</time>
      </trkpt>
      <trkpt lat="44.8755" lon="6.69124">
        <ele>1470</ele>
        <time>2022-07-19T20:33:22Z</time>
      </trkpt>
      <trkpt lat="44.87548" lon="6.69126">
        <ele>1470</ele>
        <time>2022-07-19T20:33:23Z</time>
      </trkpt>
      <trkpt lat="44.87547" lon="6.69128">
        <ele>1470.4</ele>
        <time>2022-07-19T20:33:24Z</time>
      </trkpt>
      <trkpt lat="44.87546" lon="6.6913">
        <ele>1470.4</ele>
        <time>2022-07-19T20:33:25Z</time>
      </trkpt>
      <trkpt lat="44.87545" lon="6.69132">
        <ele>1470.6</ele>
        <time>2022-07-19T20:33:26Z</time>
      </trkpt>
      <trkpt lat="44.87544" lon="6.69134">
        <ele>1470.6</ele>
        <time>2022-07-19T20:33:27Z</time>
      </trkpt>
      <trkpt lat="44.87543" lon="6.69136">
        <ele>1470.8</ele>
        <time>2022-07-19T20:33:28Z</time>
      </trkpt>
      <trkpt lat="44.87541" lon="6.69138">
        <ele>1470.8</ele>
        <time>2022-07-19T20:33:29Z</time>
      </trkpt>
      <trkpt lat="44.8754" lon="6.6914">
        <ele>1471.2</ele>
        <time>2022-07-19T20:33:30Z</time>
      </trkpt>
      <trkpt lat="44.87539" lon="6.69141">
        <ele>1471.2</ele>
        <time>2022-07-19T20:33:31Z</time>
      </trkpt>
      <trkpt lat="44.87537" lon="6.69143">
        <ele>1471.4</ele>
        <time>2022-07-19T20:33:32Z</time>
      </trkpt>
      <trkpt lat="44.87536" lon="6.69145">
        <ele>1471.4</ele>
        <time>2022-07-19T20:33:33Z</time>
      </trkpt>
      <trkpt lat="44.87535" lon="6.69147">
        <ele>1471.4</ele>
        <time>2022-07-19T20:33:34Z</time>
      </trkpt>
      <trkpt lat="44.87534" lon="6.69149">
        <ele>1471.6</ele>
        <time>2022-07-19T20:33:35Z</time>
      </trkpt>
      <trkpt lat="44.87532" lon="6.69151">
        <ele>1471.6</ele>
        <time>2022-07-19T20:33:36Z</time>
      </trkpt>
      <trkpt lat="44.87531" lon="6.69153">
        <ele>1472</ele>
        <time>2022-07-19T20:33:37Z</time>
      </trkpt>
      <trkpt lat="44.87531" lon="6.69156">
        <ele>1472</ele>
        <time>2022-07-19T20:33:38Z</time>
      </trkpt>
      <trkpt lat="44.8753" lon="6.69158">
        <ele>1472.2</ele>
        <time>2022-07-19T20:33:39Z</time>
      </trkpt>
      <trkpt lat="44.87529" lon="6.6916">
        <ele>1472.2</ele>
        <time>2022-07-19T20:33:40Z</time>
      </trkpt>
      <trkpt lat="44.87527" lon="6.69161">
        <ele>1472.6</ele>
        <time>2022-07-19T20:33:41Z</time>
      </trkpt>
      <trkpt lat="44.87526" lon="6.69163">
        <ele>1472.6</ele>
        <time>2022-07-19T20:33:42Z</time>
      </trkpt>
      <trkpt lat="44.87524" lon="6.69164">
        <ele>1472.8</ele>
        <time>2022-07-19T20:33:43Z</time>
      </trkpt>
      <trkpt lat="44.87523" lon="6.69167">
        <ele>1472.8</ele>
        <time>2022-07-19T20:33:44Z</time>
      </trkpt>
      <trkpt lat="44.87522" lon="6.69169">
        <ele>1473</ele>
        <time>2022-07-19T20:33:45Z</time>
      </trkpt>
      <trkpt lat="44.87521" lon="6.69171">
        <ele>1473</ele>
        <time>2022-07-19T20:33:46Z</time>
      </trkpt>
      <trkpt lat="44.8752" lon="6.69173">
        <ele>1473.2</ele>
        <time>2022-07-19T20:33:47Z</time>
      </trkpt>
      <trkpt lat="44.87519" lon="6.69175">
        <ele>1473.2</ele>
        <time>2022-07-19T20:33:48Z</time>
      </trkpt>
      <trkpt lat="44.87518" lon="6.69177">
        <ele>1473.4</ele>
        <time>2022-07-19T20:33:49Z</time>
      </trkpt>
      <trkpt lat="44.87517" lon="6.69179">
        <ele>1473.4</ele>
        <time>2022-07-19T20:33:50Z</time>
      </trkpt>
      <trkpt lat="44.87515" lon="6.69181">
        <ele>1473.4</ele>
        <time>2022-07-19T20:33:51Z</time>
      </trkpt>
      <trkpt lat="44.87514" lon="6.69182">
        <ele>1473.6</ele>
        <time>2022-07-19T20:33:52Z</time>
      </trkpt>
      <trkpt lat="44.87512" lon="6.69185">
        <ele>1473.6</ele>
        <time>2022-07-19T20:33:53Z</time>
      </trkpt>
      <trkpt lat="44.87511" lon="6.69187">
        <ele>1474</ele>
        <time>2022-07-19T20:33:54Z</time>
      </trkpt>
      <trkpt lat="44.8751" lon="6.69189">
        <ele>1474</ele>
        <time>2022-07-19T20:33:55Z</time>
      </trkpt>
      <trkpt lat="44.87509" lon="6.69191">
        <ele>1474.2</ele>
        <time>2022-07-19T20:33:56Z</time>
      </trkpt>
      <trkpt lat="44.87508" lon="6.69193">
        <ele>1474.2</ele>
        <time>2022-07-19T20:33:57Z</time>
      </trkpt>
      <trkpt lat="44.87506" lon="6.69194">
        <ele>1474.4</ele>
        <time>2022-07-19T20:33:58Z</time>
      </trkpt>
      <trkpt lat="44.87505" lon="6.69196">
        <ele>1474.4</ele>
        <time>2022-07-19T20:33:59Z</time>
      </trkpt>
      <trkpt lat="44.87503" lon="6.69198">
        <ele>1474.6</ele>
        <time>2022-07-19T20:34:00Z</time>
      </trkpt>
      <trkpt lat="44.87502" lon="6.69199">
        <ele>1474.6</ele>
        <time>2022-07-19T20:34:01Z</time>
      </trkpt>
      <trkpt lat="44.875" lon="6.69201">
        <ele>1474.8</ele>
        <time>2022-07-19T20:34:02Z</time>
      </trkpt>
      <trkpt lat="44.87499" lon="6.69203">
        <ele>1474.8</ele>
        <time>2022-07-19T20:34:03Z</time>
      </trkpt>
      <trkpt lat="44.87498" lon="6.69205">
        <ele>1475.2</ele>
        <time>2022-07-19T20:34:04Z</time>
      </trkpt>
      <trkpt lat="44.87496" lon="6.69207">
        <ele>1475.2</ele>
        <time>2022-07-19T20:34:05Z</time>
      </trkpt>
      <trkpt lat="44.87495" lon="6.69209">
        <ele>1475.2</ele>
        <time>2022-07-19T20:34:06Z</time>
      </trkpt>
      <trkpt lat="44.87494" lon="6.69211">
        <ele>1475.6</ele>
        <time>2022-07-19T20:34:07Z</time>
      </trkpt>
      <trkpt lat="44.87493" lon="6.69213">
        <ele>1475.6</ele>
        <time>2022-07-19T20:34:08Z</time>
      </trkpt>
      <trkpt lat="44.87492" lon="6.69215">
        <ele>1475.8</ele>
        <time>2022-07-19T20:34:09Z</time>
      </trkpt>
      <trkpt lat="44.87491" lon="6.69217">
        <ele>1475.8</ele>
        <time>2022-07-19T20:34:10Z</time>
      </trkpt>
      <trkpt lat="44.8749" lon="6.69219">
        <ele>1476</ele>
        <time>2022-07-19T20:34:11Z</time>
      </trkpt>
      <trkpt lat="44.87489" lon="6.6922">
        <ele>1476</ele>
        <time>2022-07-19T20:34:12Z</time>
      </trkpt>
      <trkpt lat="44.87487" lon="6.69222">
        <ele>1476.2</ele>
        <time>2022-07-19T20:34:13Z</time>
      </trkpt>
      <trkpt lat="44.87486" lon="6.69224">
        <ele>1476.2</ele>
        <time>2022-07-19T20:34:14Z</time>
      </trkpt>
      <trkpt lat="44.87485" lon="6.69226">
        <ele>1476.6</ele>
        <time>2022-07-19T20:34:15Z</time>
      </trkpt>
      <trkpt lat="44.87483" lon="6.69227">
        <ele>1476.6</ele>
        <time>2022-07-19T20:34:16Z</time>
      </trkpt>
      <trkpt lat="44.87482" lon="6.69229">
        <ele>1477</ele>
        <time>2022-07-19T20:34:17Z</time>
      </trkpt>
      <trkpt lat="44.87481" lon="6.69231">
        <ele>1477</ele>
        <time>2022-07-19T20:34:18Z</time>
      </trkpt>
      <trkpt lat="44.8748" lon="6.69232">
        <ele>1477.2</ele>
        <time>2022-07-19T20:34:19Z</time>
      </trkpt>
      <trkpt lat="44.87479" lon="6.69234">
        <ele>1477.2</ele>
        <time>2022-07-19T20:34:20Z</time>
      </trkpt>
      <trkpt lat="44.87478" lon="6.69237">
        <ele>1477.4</ele>
        <time>2022-07-19T20:34:21Z</time>
      </trkpt>
      <trkpt lat="44.87476" lon="6.69239">
        <ele>1477.4</ele>
        <time>2022-07-19T20:34:22Z</time>
      </trkpt>
      <trkpt lat="44.87475" lon="6.69241">
        <ele>1477.6</ele>
        <time>2022-07-19T20:34:23Z</time>
      </trkpt>
      <trkpt lat="44.87473" lon="6.69243">
        <ele>1477.8</ele>
        <time>2022-07-19T20:34:24Z</time>
      </trkpt>
      <trkpt lat="44.87472" lon="6.69245">
        <ele>1477.8</ele>
        <time>2022-07-19T20:34:25Z</time>
      </trkpt>
      <trkpt lat="44.8747" lon="6.69247">
        <ele>1478.2</ele>
        <time>2022-07-19T20:34:26Z</time>
      </trkpt>
      <trkpt lat="44.87469" lon="6.69249">
        <ele>1478.2</ele>
        <time>2022-07-19T20:34:27Z</time>
      </trkpt>
      <trkpt lat="44.87467" lon="6.69251">
        <ele>1478.6</ele>
        <time>2022-07-19T20:34:28Z</time>
      </trkpt>
      <trkpt lat="44.87466" lon="6.69253">
        <ele>1478.6</ele>
        <time>2022-07-19T20:34:29Z</time>
      </trkpt>
      <trkpt lat="44.87464" lon="6.69255">
        <ele>1478.8</ele>
        <time>2022-07-19T20:34:30Z</time>
      </trkpt>
      <trkpt lat="44.87463" lon="6.69257">
        <ele>1478.8</ele>
        <time>2022-07-19T20:34:31Z</time>
      </trkpt>
      <trkpt lat="44.87462" lon="6.69259">
        <ele>1479</ele>
        <time>2022-07-19T20:34:32Z</time>
      </trkpt>
      <trkpt lat="44.8746" lon="6.69261">
        <ele>1479</ele>
        <time>2022-07-19T20:34:33Z</time>
      </trkpt>
      <trkpt lat="44.87459" lon="6.69263">
        <ele>1479.2</ele>
        <time>2022-07-19T20:34:34Z</time>
      </trkpt>
      <trkpt lat="44.87458" lon="6.69265">
        <ele>1479.2</ele>
        <time>2022-07-19T20:34:35Z</time>
      </trkpt>
      <trkpt lat="44.87456" lon="6.69267">
        <ele>1479.6</ele>
        <time>2022-07-19T20:34:36Z</time>
      </trkpt>
      <trkpt lat="44.87455" lon="6.69269">
        <ele>1479.6</ele>
        <time>2022-07-19T20:34:37Z</time>
      </trkpt>
      <trkpt lat="44.87454" lon="6.69271">
        <ele>1479.8</ele>
        <time>2022-07-19T20:34:38Z</time>
      </trkpt>
      <trkpt lat="44.87452" lon="6.69273">
        <ele>1479.8</ele>
        <time>2022-07-19T20:34:39Z</time>
      </trkpt>
      <trkpt lat="44.8745" lon="6.69275">
        <ele>1480.2</ele>
        <time>2022-07-19T20:34:40Z</time>
      </trkpt>
      <trkpt lat="44.87449" lon="6.69277">
        <ele>1480.2</ele>
        <time>2022-07-19T20:34:41Z</time>
      </trkpt>
      <trkpt lat="44.87448" lon="6.69279">
        <ele>1480.6</ele>
        <time>2022-07-19T20:34:42Z</time>
      </trkpt>
      <trkpt lat="44.87446" lon="6.69281">
        <ele>1480.6</ele>
        <time>2022-07-19T20:34:43Z</time>
      </trkpt>
      <trkpt lat="44.87445" lon="6.69283">
        <ele>1480.8</ele>
        <time>2022-07-19T20:34:44Z</time>
      </trkpt>
      <trkpt lat="44.87444" lon="6.69285">
        <ele>1480.8</ele>
        <time>2022-07-19T20:34:45Z</time>
      </trkpt>
      <trkpt lat="44.87442" lon="6.69287">
        <ele>1481</ele>
        <time>2022-07-19T20:34:46Z</time>
      </trkpt>
      <trkpt lat="44.87441" lon="6.69289">
        <ele>1481</ele>
        <time>2022-07-19T20:34:47Z</time>
      </trkpt>
      <trkpt lat="44.87439" lon="6.69291">
        <ele>1481.4</ele>
        <time>2022-07-19T20:34:48Z</time>
      </trkpt>
      <trkpt lat="44.87438" lon="6.69293">
        <ele>1481.4</ele>
        <time>2022-07-19T20:34:49Z</time>
      </trkpt>
      <trkpt lat="44.87436" lon="6.69295">
        <ele>1481.6</ele>
        <time>2022-07-19T20:34:50Z</time>
      </trkpt>
      <trkpt lat="44.87433" lon="6.69296">
        <ele>1481.6</ele>
        <time>2022-07-19T20:34:51Z</time>
      </trkpt>
      <trkpt lat="44.87432" lon="6.69298">
        <ele>1481.8</ele>
        <time>2022-07-19T20:34:52Z</time>
      </trkpt>
      <trkpt lat="44.8743" lon="6.69301">
        <ele>1481.8</ele>
        <time>2022-07-19T20:34:53Z</time>
      </trkpt>
      <trkpt lat="44.87428" lon="6.69303">
        <ele>1482.2</ele>
        <time>2022-07-19T20:34:54Z</time>
      </trkpt>
      <trkpt lat="44.87427" lon="6.69305">
        <ele>1482.2</ele>
        <time>2022-07-19T20:34:55Z</time>
      </trkpt>
      <trkpt lat="44.87425" lon="6.69307">
        <ele>1482.6</ele>
        <time>2022-07-19T20:34:56Z</time>
      </trkpt>
      <trkpt lat="44.87423" lon="6.69308">
        <ele>1482.6</ele>
        <time>2022-07-19T20:34:57Z</time>
      </trkpt>
      <trkpt lat="44.87421" lon="6.6931">
        <ele>1482.8</ele>
        <time>2022-07-19T20:34:58Z</time>
      </trkpt>
      <trkpt lat="44.87419" lon="6.69311">
        <ele>1482.8</ele>
        <time>2022-07-19T20:34:59Z</time>
      </trkpt>
      <trkpt lat="44.87417" lon="6.69314">
        <ele>1483.2</ele>
        <time>2022-07-19T20:35:00Z</time>
      </trkpt>
      <trkpt lat="44.87415" lon="6.69316">
        <ele>1483.2</ele>
        <time>2022-07-19T20:35:01Z</time>
      </trkpt>
      <trkpt lat="44.87413" lon="6.69317">
        <ele>1483.2</ele>
        <time>2022-07-19T20:35:02Z</time>
      </trkpt>
      <trkpt lat="44.87411" lon="6.69319">
        <ele>1483.4</ele>
        <time>2022-07-19T20:35:03Z</time>
      </trkpt>
      <trkpt lat="44.8741" lon="6.69321">
        <ele>1483.4</ele>
        <time>2022-07-19T20:35:04Z</time>
      </trkpt>
      <trkpt lat="44.87408" lon="6.69323">
        <ele>1483.6</ele>
        <time>2022-07-19T20:35:05Z</time>
      </trkpt>
      <trkpt lat="44.87406" lon="6.69324">
        <ele>1483.6</ele>
        <time>2022-07-19T20:35:06Z</time>
      </trkpt>
      <trkpt lat="44.87404" lon="6.69326">
        <ele>1484</ele>
        <time>2022-07-19T20:35:07Z</time>
      </trkpt>
      <trkpt lat="44.87403" lon="6.69328">
        <ele>1484</ele>
        <time>2022-07-19T20:35:08Z</time>
      </trkpt>
      <trkpt lat="44.87401" lon="6.69329">
        <ele>1484</ele>
        <time>2022-07-19T20:35:09Z</time>
      </trkpt>
      <trkpt lat="44.87399" lon="6.69331">
        <ele>1484.2</ele>
        <time>2022-07-19T20:35:10Z</time>
      </trkpt>
      <trkpt lat="44.87397" lon="6.69332">
        <ele>1484.2</ele>
        <time>2022-07-19T20:35:11Z</time>
      </trkpt>
      <trkpt lat="44.87395" lon="6.69333">
        <ele>1484.2</ele>
        <time>2022-07-19T20:35:12Z</time>
      </trkpt>
      <trkpt lat="44.87393" lon="6.69335">
        <ele>1484.2</ele>
        <time>2022-07-19T20:35:13Z</time>
      </trkpt>
      <trkpt lat="44.87391" lon="6.69337">
        <ele>1484.4</ele>
        <time>2022-07-19T20:35:14Z</time>
      </trkpt>
      <trkpt lat="44.87389" lon="6.69338">
        <ele>1484.4</ele>
        <time>2022-07-19T20:35:15Z</time>
      </trkpt>
      <trkpt lat="44.87387" lon="6.69339">
        <ele>1484.8</ele>
        <time>2022-07-19T20:35:16Z</time>
      </trkpt>
      <trkpt lat="44.87385" lon="6.69341">
        <ele>1484.8</ele>
        <time>2022-07-19T20:35:17Z</time>
      </trkpt>
      <trkpt lat="44.87384" lon="6.69342">
        <ele>1485</ele>
        <time>2022-07-19T20:35:18Z</time>
      </trkpt>
      <trkpt lat="44.87382" lon="6.69344">
        <ele>1485</ele>
        <time>2022-07-19T20:35:19Z</time>
      </trkpt>
      <trkpt lat="44.8738" lon="6.69346">
        <ele>1485.4</ele>
        <time>2022-07-19T20:35:20Z</time>
      </trkpt>
      <trkpt lat="44.87379" lon="6.69347">
        <ele>1485.4</ele>
        <time>2022-07-19T20:35:21Z</time>
      </trkpt>
      <trkpt lat="44.87377" lon="6.69348">
        <ele>1485.8</ele>
        <time>2022-07-19T20:35:22Z</time>
      </trkpt>
      <trkpt lat="44.87375" lon="6.69349">
        <ele>1485.8</ele>
        <time>2022-07-19T20:35:23Z</time>
      </trkpt>
      <trkpt lat="44.87374" lon="6.6935">
        <ele>1486</ele>
        <time>2022-07-19T20:35:24Z</time>
      </trkpt>
      <trkpt lat="44.87372" lon="6.69351">
        <ele>1486</ele>
        <time>2022-07-19T20:35:25Z</time>
      </trkpt>
      <trkpt lat="44.8737" lon="6.69353">
        <ele>1486.2</ele>
        <time>2022-07-19T20:35:26Z</time>
      </trkpt>
      <trkpt lat="44.87368" lon="6.69355">
        <ele>1486.2</ele>
        <time>2022-07-19T20:35:27Z</time>
      </trkpt>
      <trkpt lat="44.87367" lon="6.69357">
        <ele>1486.6</ele>
        <time>2022-07-19T20:35:28Z</time>
      </trkpt>
      <trkpt lat="44.87365" lon="6.69358">
        <ele>1486.6</ele>
        <time>2022-07-19T20:35:29Z</time>
      </trkpt>
      <trkpt lat="44.87363" lon="6.6936">
        <ele>1486.8</ele>
        <time>2022-07-19T20:35:30Z</time>
      </trkpt>
      <trkpt lat="44.87362" lon="6.69362">
        <ele>1486.8</ele>
        <time>2022-07-19T20:35:31Z</time>
      </trkpt>
      <trkpt lat="44.8736" lon="6.69364">
        <ele>1487.2</ele>
        <time>2022-07-19T20:35:32Z</time>
      </trkpt>
      <trkpt lat="44.87359" lon="6.69365">
        <ele>1487.2</ele>
        <time>2022-07-19T20:35:33Z</time>
      </trkpt>
      <trkpt lat="44.87357" lon="6.69366">
        <ele>1487.4</ele>
        <time>2022-07-19T20:35:34Z</time>
      </trkpt>
      <trkpt lat="44.87355" lon="6.69367">
        <ele>1487.6</ele>
        <time>2022-07-19T20:35:35Z</time>
      </trkpt>
      <trkpt lat="44.87353" lon="6.69368">
        <ele>1487.8</ele>
        <time>2022-07-19T20:35:36Z</time>
      </trkpt>
      <trkpt lat="44.87352" lon="6.69369">
        <ele>1487.8</ele>
        <time>2022-07-19T20:35:37Z</time>
      </trkpt>
      <trkpt lat="44.8735" lon="6.6937">
        <ele>1488.2</ele>
        <time>2022-07-19T20:35:38Z</time>
      </trkpt>
      <trkpt lat="44.87348" lon="6.69371">
        <ele>1488.2</ele>
        <time>2022-07-19T20:35:39Z</time>
      </trkpt>
      <trkpt lat="44.87347" lon="6.69372">
        <ele>1488.4</ele>
        <time>2022-07-19T20:35:40Z</time>
      </trkpt>
      <trkpt lat="44.87345" lon="6.69374">
        <ele>1488.4</ele>
        <time>2022-07-19T20:35:41Z</time>
      </trkpt>
      <trkpt lat="44.87343" lon="6.69375">
        <ele>1488.8</ele>
        <time>2022-07-19T20:35:42Z</time>
      </trkpt>
      <trkpt lat="44.87342" lon="6.69376">
        <ele>1489</ele>
        <time>2022-07-19T20:35:43Z</time>
      </trkpt>
      <trkpt lat="44.8734" lon="6.69377">
        <ele>1489</ele>
        <time>2022-07-19T20:35:44Z</time>
      </trkpt>
      <trkpt lat="44.87338" lon="6.69379">
        <ele>1489.4</ele>
        <time>2022-07-19T20:35:45Z</time>
      </trkpt>
      <trkpt lat="44.87337" lon="6.6938">
        <ele>1489.4</ele>
        <time>2022-07-19T20:35:46Z</time>
      </trkpt>
      <trkpt lat="44.87335" lon="6.69381">
        <ele>1489.6</ele>
        <time>2022-07-19T20:35:47Z</time>
      </trkpt>
      <trkpt lat="44.87334" lon="6.69383">
        <ele>1489.6</ele>
        <time>2022-07-19T20:35:48Z</time>
      </trkpt>
      <trkpt lat="44.87333" lon="6.69385">
        <ele>1489.8</ele>
        <time>2022-07-19T20:35:49Z</time>
      </trkpt>
      <trkpt lat="44.87332" lon="6.69386">
        <ele>1489.8</ele>
        <time>2022-07-19T20:35:50Z</time>
      </trkpt>
      <trkpt lat="44.87331" lon="6.69387">
        <ele>1490</ele>
        <time>2022-07-19T20:35:51Z</time>
      </trkpt>
      <trkpt lat="44.87329" lon="6.69389">
        <ele>1490</ele>
        <time>2022-07-19T20:35:52Z</time>
      </trkpt>
      <trkpt lat="44.87328" lon="6.6939">
        <ele>1490.4</ele>
        <time>2022-07-19T20:35:53Z</time>
      </trkpt>
      <trkpt lat="44.87327" lon="6.69392">
        <ele>1490.4</ele>
        <time>2022-07-19T20:35:54Z</time>
      </trkpt>
      <trkpt lat="44.87326" lon="6.69394">
        <ele>1490.6</ele>
        <time>2022-07-19T20:35:55Z</time>
      </trkpt>
      <trkpt lat="44.87325" lon="6.69395">
        <ele>1490.6</ele>
        <time>2022-07-19T20:35:56Z</time>
      </trkpt>
      <trkpt lat="44.87324" lon="6.69396">
        <ele>1490.8</ele>
        <time>2022-07-19T20:35:57Z</time>
      </trkpt>
      <trkpt lat="44.87323" lon="6.69398">
        <ele>1490.8</ele>
        <time>2022-07-19T20:35:58Z</time>
      </trkpt>
      <trkpt lat="44.87322" lon="6.69399">
        <ele>1491</ele>
        <time>2022-07-19T20:35:59Z</time>
      </trkpt>
      <trkpt lat="44.87321" lon="6.69401">
        <ele>1491</ele>
        <time>2022-07-19T20:36:00Z</time>
      </trkpt>
      <trkpt lat="44.8732" lon="6.69403">
        <ele>1491.2</ele>
        <time>2022-07-19T20:36:01Z</time>
      </trkpt>
      <trkpt lat="44.87319" lon="6.69405">
        <ele>1491.2</ele>
        <time>2022-07-19T20:36:02Z</time>
      </trkpt>
      <trkpt lat="44.87318" lon="6.69406">
        <ele>1491.6</ele>
        <time>2022-07-19T20:36:03Z</time>
      </trkpt>
      <trkpt lat="44.87317" lon="6.69408">
        <ele>1491.6</ele>
        <time>2022-07-19T20:36:04Z</time>
      </trkpt>
      <trkpt lat="44.87315" lon="6.69409">
        <ele>1492</ele>
        <time>2022-07-19T20:36:05Z</time>
      </trkpt>
      <trkpt lat="44.87314" lon="6.6941">
        <ele>1492</ele>
        <time>2022-07-19T20:36:06Z</time>
      </trkpt>
      <trkpt lat="44.87313" lon="6.69412">
        <ele>1492.2</ele>
        <time>2022-07-19T20:36:07Z</time>
      </trkpt>
      <trkpt lat="44.87312" lon="6.69414">
        <ele>1492.2</ele>
        <time>2022-07-19T20:36:08Z</time>
      </trkpt>
      <trkpt lat="44.87311" lon="6.69416">
        <ele>1492.2</ele>
        <time>2022-07-19T20:36:09Z</time>
      </trkpt>
      <trkpt lat="44.8731" lon="6.69417">
        <ele>1492.4</ele>
        <time>2022-07-19T20:36:10Z</time>
      </trkpt>
      <trkpt lat="44.87309" lon="6.69419">
        <ele>1492.4</ele>
        <time>2022-07-19T20:36:11Z</time>
      </trkpt>
      <trkpt lat="44.87308" lon="6.69421">
        <ele>1492.4</ele>
        <time>2022-07-19T20:36:12Z</time>
      </trkpt>
      <trkpt lat="44.87308" lon="6.69423">
        <ele>1492.8</ele>
        <time>2022-07-19T20:36:13Z</time>
      </trkpt>
      <trkpt lat="44.87307" lon="6.69425">
        <ele>1492.8</ele>
        <time>2022-07-19T20:36:14Z</time>
      </trkpt>
      <trkpt lat="44.87306" lon="6.69427">
        <ele>1493</ele>
        <time>2022-07-19T20:36:15Z</time>
      </trkpt>
      <trkpt lat="44.87305" lon="6.69429">
        <ele>1493</ele>
        <time>2022-07-19T20:36:16Z</time>
      </trkpt>
      <trkpt lat="44.87304" lon="6.69431">
        <ele>1493</ele>
        <time>2022-07-19T20:36:17Z</time>
      </trkpt>
      <trkpt lat="44.87303" lon="6.69433">
        <ele>1493.4</ele>
        <time>2022-07-19T20:36:18Z</time>
      </trkpt>
      <trkpt lat="44.87302" lon="6.69434">
        <ele>1493.4</ele>
        <time>2022-07-19T20:36:19Z</time>
      </trkpt>
      <trkpt lat="44.87301" lon="6.69437">
        <ele>1493.8</ele>
        <time>2022-07-19T20:36:20Z</time>
      </trkpt>
      <trkpt lat="44.873" lon="6.69439">
        <ele>1493.8</ele>
        <time>2022-07-19T20:36:21Z</time>
      </trkpt>
      <trkpt lat="44.87299" lon="6.6944">
        <ele>1494</ele>
        <time>2022-07-19T20:36:22Z</time>
      </trkpt>
      <trkpt lat="44.87298" lon="6.69442">
        <ele>1494</ele>
        <time>2022-07-19T20:36:23Z</time>
      </trkpt>
      <trkpt lat="44.87297" lon="6.69444">
        <ele>1494.2</ele>
        <time>2022-07-19T20:36:24Z</time>
      </trkpt>
      <trkpt lat="44.87296" lon="6.69446">
        <ele>1494.2</ele>
        <time>2022-07-19T20:36:25Z</time>
      </trkpt>
      <trkpt lat="44.87295" lon="6.69448">
        <ele>1494.4</ele>
        <time>2022-07-19T20:36:26Z</time>
      </trkpt>
      <trkpt lat="44.87294" lon="6.69451">
        <ele>1494.4</ele>
        <time>2022-07-19T20:36:27Z</time>
      </trkpt>
      <trkpt lat="44.87293" lon="6.69453">
        <ele>1494.6</ele>
        <time>2022-07-19T20:36:28Z</time>
      </trkpt>
      <trkpt lat="44.87293" lon="6.69455">
        <ele>1494.6</ele>
        <time>2022-07-19T20:36:29Z</time>
      </trkpt>
      <trkpt lat="44.87292" lon="6.69458">
        <ele>1494.6</ele>
        <time>2022-07-19T20:36:30Z</time>
      </trkpt>
      <trkpt lat="44.87292" lon="6.69461">
        <ele>1495</ele>
        <time>2022-07-19T20:36:31Z</time>
      </trkpt>
      <trkpt lat="44.87291" lon="6.69464">
        <ele>1495</ele>
        <time>2022-07-19T20:36:32Z</time>
      </trkpt>
      <trkpt lat="44.87291" lon="6.69466">
        <ele>1495</ele>
        <time>2022-07-19T20:36:33Z</time>
      </trkpt>
      <trkpt lat="44.8729" lon="6.69469">
        <ele>1495.2</ele>
        <time>2022-07-19T20:36:34Z</time>
      </trkpt>
      <trkpt lat="44.8729" lon="6.69472">
        <ele>1495.2</ele>
        <time>2022-07-19T20:36:35Z</time>
      </trkpt>
      <trkpt lat="44.87289" lon="6.69475">
        <ele>1495.2</ele>
        <time>2022-07-19T20:36:36Z</time>
      </trkpt>
      <trkpt lat="44.87289" lon="6.69477">
        <ele>1495.6</ele>
        <time>2022-07-19T20:36:37Z</time>
      </trkpt>
      <trkpt lat="44.87288" lon="6.6948">
        <ele>1495.6</ele>
        <time>2022-07-19T20:36:38Z</time>
      </trkpt>
      <trkpt lat="44.87288" lon="6.69483">
        <ele>1495.6</ele>
        <time>2022-07-19T20:36:39Z</time>
      </trkpt>
      <trkpt lat="44.87288" lon="6.69486">
        <ele>1495.8</ele>
        <time>2022-07-19T20:36:40Z</time>
      </trkpt>
      <trkpt lat="44.87288" lon="6.69489">
        <ele>1495.8</ele>
        <time>2022-07-19T20:36:41Z</time>
      </trkpt>
      <trkpt lat="44.87287" lon="6.69492">
        <ele>1496.2</ele>
        <time>2022-07-19T20:36:42Z</time>
      </trkpt>
      <trkpt lat="44.87287" lon="6.69495">
        <ele>1496.4</ele>
        <time>2022-07-19T20:36:43Z</time>
      </trkpt>
      <trkpt lat="44.87286" lon="6.69498">
        <ele>1496.4</ele>
        <time>2022-07-19T20:36:44Z</time>
      </trkpt>
      <trkpt lat="44.87286" lon="6.695">
        <ele>1496.8</ele>
        <time>2022-07-19T20:36:45Z</time>
      </trkpt>
      <trkpt lat="44.87286" lon="6.69503">
        <ele>1496.8</ele>
        <time>2022-07-19T20:36:46Z</time>
      </trkpt>
      <trkpt lat="44.87285" lon="6.69505">
        <ele>1497</ele>
        <time>2022-07-19T20:36:47Z</time>
      </trkpt>
      <trkpt lat="44.87285" lon="6.69508">
        <ele>1497</ele>
        <time>2022-07-19T20:36:48Z</time>
      </trkpt>
      <trkpt lat="44.87285" lon="6.69511">
        <ele>1497.2</ele>
        <time>2022-07-19T20:36:49Z</time>
      </trkpt>
      <trkpt lat="44.87285" lon="6.69513">
        <ele>1497.2</ele>
        <time>2022-07-19T20:36:50Z</time>
      </trkpt>
      <trkpt lat="44.87285" lon="6.69516">
        <ele>1497.2</ele>
        <time>2022-07-19T20:36:51Z</time>
      </trkpt>
      <trkpt lat="44.87285" lon="6.69519">
        <ele>1497.4</ele>
        <time>2022-07-19T20:36:52Z</time>
      </trkpt>
      <trkpt lat="44.87285" lon="6.69521">
        <ele>1497.4</ele>
        <time>2022-07-19T20:36:53Z</time>
      </trkpt>
      <trkpt lat="44.87285" lon="6.69524">
        <ele>1497.8</ele>
        <time>2022-07-19T20:36:54Z</time>
      </trkpt>
      <trkpt lat="44.87284" lon="6.69527">
        <ele>1497.8</ele>
        <time>2022-07-19T20:36:55Z</time>
      </trkpt>
      <trkpt lat="44.87285" lon="6.6953">
        <ele>1497.8</ele>
        <time>2022-07-19T20:36:56Z</time>
      </trkpt>
      <trkpt lat="44.87284" lon="6.69533">
        <ele>1498</ele>
        <time>2022-07-19T20:36:57Z</time>
      </trkpt>
      <trkpt lat="44.87284" lon="6.69535">
        <ele>1498</ele>
        <time>2022-07-19T20:36:58Z</time>
      </trkpt>
      <trkpt lat="44.87284" lon="6.69538">
        <ele>1498.2</ele>
        <time>2022-07-19T20:36:59Z</time>
      </trkpt>
      <trkpt lat="44.87283" lon="6.69541">
        <ele>1498.2</ele>
        <time>2022-07-19T20:37:00Z</time>
      </trkpt>
      <trkpt lat="44.87283" lon="6.69544">
        <ele>1498.4</ele>
        <time>2022-07-19T20:37:01Z</time>
      </trkpt>
      <trkpt lat="44.87283" lon="6.69547">
        <ele>1498.4</ele>
        <time>2022-07-19T20:37:02Z</time>
      </trkpt>
      <trkpt lat="44.87283" lon="6.6955">
        <ele>1498.8</ele>
        <time>2022-07-19T20:37:03Z</time>
      </trkpt>
      <trkpt lat="44.87283" lon="6.69553">
        <ele>1498.8</ele>
        <time>2022-07-19T20:37:04Z</time>
      </trkpt>
      <trkpt lat="44.87283" lon="6.69556">
        <ele>1498.8</ele>
        <time>2022-07-19T20:37:05Z</time>
      </trkpt>
      <trkpt lat="44.87282" lon="6.69559">
        <ele>1499</ele>
        <time>2022-07-19T20:37:06Z</time>
      </trkpt>
      <trkpt lat="44.87282" lon="6.69562">
        <ele>1499</ele>
        <time>2022-07-19T20:37:07Z</time>
      </trkpt>
      <trkpt lat="44.87282" lon="6.69565">
        <ele>1499</ele>
        <time>2022-07-19T20:37:08Z</time>
      </trkpt>
      <trkpt lat="44.87282" lon="6.69568">
        <ele>1499.2</ele>
        <time>2022-07-19T20:37:09Z</time>
      </trkpt>
      <trkpt lat="44.87281" lon="6.69572">
        <ele>1499.2</ele>
        <time>2022-07-19T20:37:10Z</time>
      </trkpt>
      <trkpt lat="44.87281" lon="6.69575">
        <ele>1499.6</ele>
        <time>2022-07-19T20:37:11Z</time>
      </trkpt>
      <trkpt lat="44.87281" lon="6.69578">
        <ele>1499.6</ele>
        <time>2022-07-19T20:37:12Z</time>
      </trkpt>
      <trkpt lat="44.87281" lon="6.69582">
        <ele>1499.6</ele>
        <time>2022-07-19T20:37:13Z</time>
      </trkpt>
      <trkpt lat="44.87281" lon="6.69585">
        <ele>1499.8</ele>
        <time>2022-07-19T20:37:14Z</time>
      </trkpt>
      <trkpt lat="44.87281" lon="6.69589">
        <ele>1499.8</ele>
        <time>2022-07-19T20:37:15Z</time>
      </trkpt>
      <trkpt lat="44.87281" lon="6.69592">
        <ele>1499.8</ele>
        <time>2022-07-19T20:37:16Z</time>
      </trkpt>
      <trkpt lat="44.87281" lon="6.69595">
        <ele>1499.8</ele>
        <time>2022-07-19T20:37:17Z</time>
      </trkpt>
      <trkpt lat="44.8728" lon="6.69598">
        <ele>1500</ele>
        <time>2022-07-19T20:37:18Z</time>
      </trkpt>
      <trkpt lat="44.8728" lon="6.69602">
        <ele>1500</ele>
        <time>2022-07-19T20:37:19Z</time>
      </trkpt>
      <trkpt lat="44.8728" lon="6.69605">
        <ele>1500</ele>
        <time>2022-07-19T20:37:20Z</time>
      </trkpt>
      <trkpt lat="44.8728" lon="6.69608">
        <ele>1500.4</ele>
        <time>2022-07-19T20:37:21Z</time>
      </trkpt>
      <trkpt lat="44.8728" lon="6.69612">
        <ele>1500.4</ele>
        <time>2022-07-19T20:37:22Z</time>
      </trkpt>
      <trkpt lat="44.87279" lon="6.69616">
        <ele>1500.4</ele>
        <time>2022-07-19T20:37:23Z</time>
      </trkpt>
      <trkpt lat="44.87279" lon="6.69619">
        <ele>1500.6</ele>
        <time>2022-07-19T20:37:24Z</time>
      </trkpt>
      <trkpt lat="44.87279" lon="6.69622">
        <ele>1500.6</ele>
        <time>2022-07-19T20:37:25Z</time>
      </trkpt>
      <trkpt lat="44.87278" lon="6.69626">
        <ele>1500.6</ele>
        <time>2022-07-19T20:37:26Z</time>
      </trkpt>
      <trkpt lat="44.87278" lon="6.69629">
        <ele>1500.8</ele>
        <time>2022-07-19T20:37:27Z</time>
      </trkpt>
      <trkpt lat="44.87278" lon="6.69632">
        <ele>1500.8</ele>
        <time>2022-07-19T20:37:28Z</time>
      </trkpt>
      <trkpt lat="44.87278" lon="6.69636">
        <ele>1501</ele>
        <time>2022-07-19T20:37:29Z</time>
      </trkpt>
      <trkpt lat="44.87278" lon="6.69639">
        <ele>1501</ele>
        <time>2022-07-19T20:37:30Z</time>
      </trkpt>
      <trkpt lat="44.87278" lon="6.69643">
        <ele>1501</ele>
        <time>2022-07-19T20:37:31Z</time>
      </trkpt>
      <trkpt lat="44.87278" lon="6.69646">
        <ele>1501.4</ele>
        <time>2022-07-19T20:37:32Z</time>
      </trkpt>
      <trkpt lat="44.87278" lon="6.6965">
        <ele>1501.4</ele>
        <time>2022-07-19T20:37:33Z</time>
      </trkpt>
      <trkpt lat="44.87278" lon="6.69653">
        <ele>1501.6</ele>
        <time>2022-07-19T20:37:34Z</time>
      </trkpt>
      <trkpt lat="44.87278" lon="6.69657">
        <ele>1501.6</ele>
        <time>2022-07-19T20:37:35Z</time>
      </trkpt>
      <trkpt lat="44.87278" lon="6.6966">
        <ele>1502</ele>
        <time>2022-07-19T20:37:36Z</time>
      </trkpt>
      <trkpt lat="44.87278" lon="6.69664">
        <ele>1502</ele>
        <time>2022-07-19T20:37:37Z</time>
      </trkpt>
      <trkpt lat="44.87278" lon="6.69668">
        <ele>1502</ele>
        <time>2022-07-19T20:37:38Z</time>
      </trkpt>
      <trkpt lat="44.87278" lon="6.69671">
        <ele>1502.2</ele>
        <time>2022-07-19T20:37:39Z</time>
      </trkpt>
      <trkpt lat="44.87278" lon="6.69675">
        <ele>1502.2</ele>
        <time>2022-07-19T20:37:40Z</time>
      </trkpt>
      <trkpt lat="44.87278" lon="6.69679">
        <ele>1502.2</ele>
        <time>2022-07-19T20:37:41Z</time>
      </trkpt>
      <trkpt lat="44.87278" lon="6.69682">
        <ele>1502.4</ele>
        <time>2022-07-19T20:37:42Z</time>
      </trkpt>
      <trkpt lat="44.87277" lon="6.69686">
        <ele>1502.4</ele>
        <time>2022-07-19T20:37:43Z</time>
      </trkpt>
      <trkpt lat="44.87277" lon="6.6969">
        <ele>1502.4</ele>
        <time>2022-07-19T20:37:44Z</time>
      </trkpt>
      <trkpt lat="44.87277" lon="6.69694">
        <ele>1502.4</ele>
        <time>2022-07-19T20:37:45Z</time>
      </trkpt>
      <trkpt lat="44.87276" lon="6.69698">
        <ele>1502.6</ele>
        <time>2022-07-19T20:37:46Z</time>
      </trkpt>
      <trkpt lat="44.87276" lon="6.69702">
        <ele>1502.6</ele>
        <time>2022-07-19T20:37:47Z</time>
      </trkpt>
      <trkpt lat="44.87276" lon="6.69706">
        <ele>1502.8</ele>
        <time>2022-07-19T20:37:48Z</time>
      </trkpt>
      <trkpt lat="44.87276" lon="6.6971">
        <ele>1502.8</ele>
        <time>2022-07-19T20:37:49Z</time>
      </trkpt>
      <trkpt lat="44.87276" lon="6.69714">
        <ele>1503</ele>
        <time>2022-07-19T20:37:50Z</time>
      </trkpt>
      <trkpt lat="44.87276" lon="6.69717">
        <ele>1503.2</ele>
        <time>2022-07-19T20:37:51Z</time>
      </trkpt>
      <trkpt lat="44.87275" lon="6.69721">
        <ele>1503.2</ele>
        <time>2022-07-19T20:37:52Z</time>
      </trkpt>
      <trkpt lat="44.87275" lon="6.69725">
        <ele>1503.4</ele>
        <time>2022-07-19T20:37:53Z</time>
      </trkpt>
      <trkpt lat="44.87275" lon="6.69729">
        <ele>1503.4</ele>
        <time>2022-07-19T20:37:54Z</time>
      </trkpt>
      <trkpt lat="44.87274" lon="6.69733">
        <ele>1503.8</ele>
        <time>2022-07-19T20:37:55Z</time>
      </trkpt>
      <trkpt lat="44.87274" lon="6.69737">
        <ele>1503.8</ele>
        <time>2022-07-19T20:37:56Z</time>
      </trkpt>
      <trkpt lat="44.87273" lon="6.69741">
        <ele>1503.8</ele>
        <time>2022-07-19T20:37:57Z</time>
      </trkpt>
      <trkpt lat="44.87272" lon="6.69744">
        <ele>1504.2</ele>
        <time>2022-07-19T20:37:58Z</time>
      </trkpt>
      <trkpt lat="44.87272" lon="6.69748">
        <ele>1504.2</ele>
        <time>2022-07-19T20:37:59Z</time>
      </trkpt>
      <trkpt lat="44.87271" lon="6.69752">
        <ele>1504.4</ele>
        <time>2022-07-19T20:38:00Z</time>
      </trkpt>
      <trkpt lat="44.87271" lon="6.69756">
        <ele>1504.4</ele>
        <time>2022-07-19T20:38:01Z</time>
      </trkpt>
      <trkpt lat="44.8727" lon="6.6976">
        <ele>1504.6</ele>
        <time>2022-07-19T20:38:02Z</time>
      </trkpt>
      <trkpt lat="44.8727" lon="6.69764">
        <ele>1504.6</ele>
        <time>2022-07-19T20:38:03Z</time>
      </trkpt>
      <trkpt lat="44.87269" lon="6.69768">
        <ele>1504.8</ele>
        <time>2022-07-19T20:38:04Z</time>
      </trkpt>
      <trkpt lat="44.87268" lon="6.69772">
        <ele>1504.8</ele>
        <time>2022-07-19T20:38:05Z</time>
      </trkpt>
      <trkpt lat="44.87267" lon="6.69776">
        <ele>1505</ele>
        <time>2022-07-19T20:38:06Z</time>
      </trkpt>
      <trkpt lat="44.87266" lon="6.6978">
        <ele>1505</ele>
        <time>2022-07-19T20:38:07Z</time>
      </trkpt>
      <trkpt lat="44.87266" lon="6.69784">
        <ele>1505.4</ele>
        <time>2022-07-19T20:38:08Z</time>
      </trkpt>
      <trkpt lat="44.87264" lon="6.69792">
        <ele>1505.4</ele>
        <time>2022-07-19T20:38:09Z</time>
      </trkpt>
      <trkpt lat="44.87263" lon="6.69796">
        <ele>1505.8</ele>
        <time>2022-07-19T20:38:10Z</time>
      </trkpt>
      <trkpt lat="44.87263" lon="6.698">
        <ele>1505.8</ele>
        <time>2022-07-19T20:38:11Z</time>
      </trkpt>
      <trkpt lat="44.87262" lon="6.69804">
        <ele>1506</ele>
        <time>2022-07-19T20:38:12Z</time>
      </trkpt>
      <trkpt lat="44.87261" lon="6.69808">
        <ele>1506</ele>
        <time>2022-07-19T20:38:13Z</time>
      </trkpt>
      <trkpt lat="44.87261" lon="6.69812">
        <ele>1506.4</ele>
        <time>2022-07-19T20:38:14Z</time>
      </trkpt>
      <trkpt lat="44.8726" lon="6.69816">
        <ele>1506.4</ele>
        <time>2022-07-19T20:38:15Z</time>
      </trkpt>
      <trkpt lat="44.87259" lon="6.6982">
        <ele>1506.6</ele>
        <time>2022-07-19T20:38:16Z</time>
      </trkpt>
      <trkpt lat="44.87258" lon="6.69824">
        <ele>1506.6</ele>
        <time>2022-07-19T20:38:17Z</time>
      </trkpt>
      <trkpt lat="44.87258" lon="6.69828">
        <ele>1506.8</ele>
        <time>2022-07-19T20:38:18Z</time>
      </trkpt>
      <trkpt lat="44.87257" lon="6.69832">
        <ele>1506.8</ele>
        <time>2022-07-19T20:38:19Z</time>
      </trkpt>
      <trkpt lat="44.87256" lon="6.69836">
        <ele>1507.2</ele>
        <time>2022-07-19T20:38:20Z</time>
      </trkpt>
      <trkpt lat="44.87255" lon="6.6984">
        <ele>1507.2</ele>
        <time>2022-07-19T20:38:21Z</time>
      </trkpt>
      <trkpt lat="44.87254" lon="6.69844">
        <ele>1507.6</ele>
        <time>2022-07-19T20:38:22Z</time>
      </trkpt>
      <trkpt lat="44.87254" lon="6.69848">
        <ele>1507.6</ele>
        <time>2022-07-19T20:38:23Z</time>
      </trkpt>
      <trkpt lat="44.87253" lon="6.69851">
        <ele>1507.8</ele>
        <time>2022-07-19T20:38:24Z</time>
      </trkpt>
      <trkpt lat="44.87253" lon="6.69855">
        <ele>1507.8</ele>
        <time>2022-07-19T20:38:25Z</time>
      </trkpt>
      <trkpt lat="44.87252" lon="6.69859">
        <ele>1508</ele>
        <time>2022-07-19T20:38:26Z</time>
      </trkpt>
      <trkpt lat="44.87252" lon="6.69863">
        <ele>1508</ele>
        <time>2022-07-19T20:38:27Z</time>
      </trkpt>
      <trkpt lat="44.87251" lon="6.69867">
        <ele>1508</ele>
        <time>2022-07-19T20:38:28Z</time>
      </trkpt>
      <trkpt lat="44.8725" lon="6.69871">
        <ele>1508.4</ele>
        <time>2022-07-19T20:38:29Z</time>
      </trkpt>
      <trkpt lat="44.87249" lon="6.69875">
        <ele>1508.6</ele>
        <time>2022-07-19T20:38:30Z</time>
      </trkpt>
      <trkpt lat="44.87248" lon="6.69879">
        <ele>1508.6</ele>
        <time>2022-07-19T20:38:31Z</time>
      </trkpt>
      <trkpt lat="44.87247" lon="6.69883">
        <ele>1508.8</ele>
        <time>2022-07-19T20:38:32Z</time>
      </trkpt>
      <trkpt lat="44.87247" lon="6.69887">
        <ele>1508.8</ele>
        <time>2022-07-19T20:38:33Z</time>
      </trkpt>
      <trkpt lat="44.87246" lon="6.69891">
        <ele>1509.2</ele>
        <time>2022-07-19T20:38:34Z</time>
      </trkpt>
      <trkpt lat="44.87245" lon="6.69895">
        <ele>1509.2</ele>
        <time>2022-07-19T20:38:35Z</time>
      </trkpt>
      <trkpt lat="44.87244" lon="6.69899">
        <ele>1509.4</ele>
        <time>2022-07-19T20:38:36Z</time>
      </trkpt>
      <trkpt lat="44.87244" lon="6.69903">
        <ele>1509.4</ele>
        <time>2022-07-19T20:38:37Z</time>
      </trkpt>
      <trkpt lat="44.87243" lon="6.69907">
        <ele>1509.6</ele>
        <time>2022-07-19T20:38:38Z</time>
      </trkpt>
      <trkpt lat="44.87242" lon="6.69911">
        <ele>1509.6</ele>
        <time>2022-07-19T20:38:39Z</time>
      </trkpt>
      <trkpt lat="44.87241" lon="6.69915">
        <ele>1509.8</ele>
        <time>2022-07-19T20:38:40Z</time>
      </trkpt>
      <trkpt lat="44.87241" lon="6.69919">
        <ele>1509.8</ele>
        <time>2022-07-19T20:38:41Z</time>
      </trkpt>
      <trkpt lat="44.8724" lon="6.69923">
        <ele>1510.2</ele>
        <time>2022-07-19T20:38:42Z</time>
      </trkpt>
      <trkpt lat="44.8724" lon="6.69926">
        <ele>1510.2</ele>
        <time>2022-07-19T20:38:43Z</time>
      </trkpt>
      <trkpt lat="44.87239" lon="6.6993">
        <ele>1510.6</ele>
        <time>2022-07-19T20:38:44Z</time>
      </trkpt>
      <trkpt lat="44.87239" lon="6.69934">
        <ele>1510.6</ele>
        <time>2022-07-19T20:38:45Z</time>
      </trkpt>
      <trkpt lat="44.87238" lon="6.69938">
        <ele>1511</ele>
        <time>2022-07-19T20:38:46Z</time>
      </trkpt>
      <trkpt lat="44.87238" lon="6.69942">
        <ele>1511</ele>
        <time>2022-07-19T20:38:47Z</time>
      </trkpt>
      <trkpt lat="44.87237" lon="6.69946">
        <ele>1511.2</ele>
        <time>2022-07-19T20:38:48Z</time>
      </trkpt>
      <trkpt lat="44.87237" lon="6.69949">
        <ele>1511.2</ele>
        <time>2022-07-19T20:38:49Z</time>
      </trkpt>
      <trkpt lat="44.87236" lon="6.69953">
        <ele>1511.6</ele>
        <time>2022-07-19T20:38:50Z</time>
      </trkpt>
      <trkpt lat="44.87235" lon="6.69957">
        <ele>1511.6</ele>
        <time>2022-07-19T20:38:51Z</time>
      </trkpt>
      <trkpt lat="44.87235" lon="6.69961">
        <ele>1511.6</ele>
        <time>2022-07-19T20:38:52Z</time>
      </trkpt>
      <trkpt lat="44.87234" lon="6.69965">
        <ele>1512</ele>
        <time>2022-07-19T20:38:53Z</time>
      </trkpt>
      <trkpt lat="44.87233" lon="6.69969">
        <ele>1512</ele>
        <time>2022-07-19T20:38:54Z</time>
      </trkpt>
      <trkpt lat="44.87233" lon="6.69972">
        <ele>1512</ele>
        <time>2022-07-19T20:38:55Z</time>
      </trkpt>
      <trkpt lat="44.87232" lon="6.69976">
        <ele>1512.2</ele>
        <time>2022-07-19T20:38:56Z</time>
      </trkpt>
      <trkpt lat="44.87231" lon="6.6998">
        <ele>1512.2</ele>
        <time>2022-07-19T20:38:57Z</time>
      </trkpt>
      <trkpt lat="44.8723" lon="6.69984">
        <ele>1512.2</ele>
        <time>2022-07-19T20:38:58Z</time>
      </trkpt>
      <trkpt lat="44.8723" lon="6.69988">
        <ele>1512.4</ele>
        <time>2022-07-19T20:38:59Z</time>
      </trkpt>
      <trkpt lat="44.87229" lon="6.69992">
        <ele>1512.4</ele>
        <time>2022-07-19T20:39:00Z</time>
      </trkpt>
      <trkpt lat="44.87228" lon="6.69996">
        <ele>1512.8</ele>
        <time>2022-07-19T20:39:01Z</time>
      </trkpt>
      <trkpt lat="44.87227" lon="6.7">
        <ele>1512.8</ele>
        <time>2022-07-19T20:39:02Z</time>
      </trkpt>
      <trkpt lat="44.87227" lon="6.70004">
        <ele>1513</ele>
        <time>2022-07-19T20:39:03Z</time>
      </trkpt>
      <trkpt lat="44.87226" lon="6.70008">
        <ele>1513</ele>
        <time>2022-07-19T20:39:04Z</time>
      </trkpt>
      <trkpt lat="44.87225" lon="6.70012">
        <ele>1513.2</ele>
        <time>2022-07-19T20:39:05Z</time>
      </trkpt>
      <trkpt lat="44.87224" lon="6.70016">
        <ele>1513.2</ele>
        <time>2022-07-19T20:39:06Z</time>
      </trkpt>
      <trkpt lat="44.87224" lon="6.70021">
        <ele>1513.2</ele>
        <time>2022-07-19T20:39:07Z</time>
      </trkpt>
      <trkpt lat="44.87223" lon="6.70025">
        <ele>1513.2</ele>
        <time>2022-07-19T20:39:08Z</time>
      </trkpt>
      <trkpt lat="44.87222" lon="6.7003">
        <ele>1513.4</ele>
        <time>2022-07-19T20:39:09Z</time>
      </trkpt>
      <trkpt lat="44.87221" lon="6.70035">
        <ele>1513.4</ele>
        <time>2022-07-19T20:39:10Z</time>
      </trkpt>
      <trkpt lat="44.8722" lon="6.70039">
        <ele>1513.4</ele>
        <time>2022-07-19T20:39:11Z</time>
      </trkpt>
      <trkpt lat="44.8722" lon="6.70043">
        <ele>1513.6</ele>
        <time>2022-07-19T20:39:12Z</time>
      </trkpt>
      <trkpt lat="44.87219" lon="6.70047">
        <ele>1513.6</ele>
        <time>2022-07-19T20:39:13Z</time>
      </trkpt>
      <trkpt lat="44.87218" lon="6.70051">
        <ele>1513.6</ele>
        <time>2022-07-19T20:39:14Z</time>
      </trkpt>
      <trkpt lat="44.87217" lon="6.70055">
        <ele>1513.6</ele>
        <time>2022-07-19T20:39:15Z</time>
      </trkpt>
      <trkpt lat="44.87216" lon="6.7006">
        <ele>1513.8</ele>
        <time>2022-07-19T20:39:16Z</time>
      </trkpt>
      <trkpt lat="44.87214" lon="6.70064">
        <ele>1513.8</ele>
        <time>2022-07-19T20:39:17Z</time>
      </trkpt>
      <trkpt lat="44.87213" lon="6.70068">
        <ele>1513.8</ele>
        <time>2022-07-19T20:39:18Z</time>
      </trkpt>
      <trkpt lat="44.87212" lon="6.70072">
        <ele>1513.8</ele>
        <time>2022-07-19T20:39:19Z</time>
      </trkpt>
      <trkpt lat="44.8721" lon="6.70077">
        <ele>1514.2</ele>
        <time>2022-07-19T20:39:20Z</time>
      </trkpt>
      <trkpt lat="44.87209" lon="6.70081">
        <ele>1514.2</ele>
        <time>2022-07-19T20:39:21Z</time>
      </trkpt>
      <trkpt lat="44.87207" lon="6.70085">
        <ele>1514.2</ele>
        <time>2022-07-19T20:39:22Z</time>
      </trkpt>
      <trkpt lat="44.87205" lon="6.7009">
        <ele>1514.2</ele>
        <time>2022-07-19T20:39:23Z</time>
      </trkpt>
      <trkpt lat="44.87203" lon="6.70094">
        <ele>1514.2</ele>
        <time>2022-07-19T20:39:24Z</time>
      </trkpt>
      <trkpt lat="44.87201" lon="6.70099">
        <ele>1514.4</ele>
        <time>2022-07-19T20:39:25Z</time>
      </trkpt>
      <trkpt lat="44.87198" lon="6.70103">
        <ele>1514.4</ele>
        <time>2022-07-19T20:39:26Z</time>
      </trkpt>
      <trkpt lat="44.87196" lon="6.70108">
        <ele>1514.4</ele>
        <time>2022-07-19T20:39:27Z</time>
      </trkpt>
      <trkpt lat="44.87193" lon="6.70112">
        <ele>1514.4</ele>
        <time>2022-07-19T20:39:28Z</time>
      </trkpt>
      <trkpt lat="44.8719" lon="6.70116">
        <ele>1514.6</ele>
        <time>2022-07-19T20:39:29Z</time>
      </trkpt>
      <trkpt lat="44.87188" lon="6.70121">
        <ele>1514.6</ele>
        <time>2022-07-19T20:39:30Z</time>
      </trkpt>
      <trkpt lat="44.87185" lon="6.70125">
        <ele>1514.6</ele>
        <time>2022-07-19T20:39:31Z</time>
      </trkpt>
      <trkpt lat="44.87182" lon="6.70129">
        <ele>1514.6</ele>
        <time>2022-07-19T20:39:32Z</time>
      </trkpt>
      <trkpt lat="44.87179" lon="6.70133">
        <ele>1514.6</ele>
        <time>2022-07-19T20:39:33Z</time>
      </trkpt>
      <trkpt lat="44.87176" lon="6.70136">
        <ele>1514.6</ele>
        <time>2022-07-19T20:39:34Z</time>
      </trkpt>
      <trkpt lat="44.87173" lon="6.7014">
        <ele>1514.6</ele>
        <time>2022-07-19T20:39:35Z</time>
      </trkpt>
      <trkpt lat="44.8717" lon="6.70143">
        <ele>1514.6</ele>
        <time>2022-07-19T20:39:36Z</time>
      </trkpt>
      <trkpt lat="44.87167" lon="6.70146">
        <ele>1514.6</ele>
        <time>2022-07-19T20:39:37Z</time>
      </trkpt>
      <trkpt lat="44.87164" lon="6.7015">
        <ele>1514.6</ele>
        <time>2022-07-19T20:39:38Z</time>
      </trkpt>
      <trkpt lat="44.87161" lon="6.70153">
        <ele>1514.6</ele>
        <time>2022-07-19T20:39:39Z</time>
      </trkpt>
      <trkpt lat="44.87157" lon="6.70156">
        <ele>1514.8</ele>
        <time>2022-07-19T20:39:40Z</time>
      </trkpt>
      <trkpt lat="44.87154" lon="6.70158">
        <ele>1514.8</ele>
        <time>2022-07-19T20:39:41Z</time>
      </trkpt>
      <trkpt lat="44.87151" lon="6.7016">
        <ele>1514.8</ele>
        <time>2022-07-19T20:39:42Z</time>
      </trkpt>
      <trkpt lat="44.87147" lon="6.70163">
        <ele>1515</ele>
        <time>2022-07-19T20:39:43Z</time>
      </trkpt>
      <trkpt lat="44.87145" lon="6.70165">
        <ele>1515</ele>
        <time>2022-07-19T20:39:44Z</time>
      </trkpt>
      <trkpt lat="44.87141" lon="6.70167">
        <ele>1515</ele>
        <time>2022-07-19T20:39:45Z</time>
      </trkpt>
      <trkpt lat="44.87138" lon="6.70169">
        <ele>1515.2</ele>
        <time>2022-07-19T20:39:46Z</time>
      </trkpt>
      <trkpt lat="44.87135" lon="6.7017">
        <ele>1515.2</ele>
        <time>2022-07-19T20:39:47Z</time>
      </trkpt>
      <trkpt lat="44.87132" lon="6.7017">
        <ele>1515.2</ele>
        <time>2022-07-19T20:39:48Z</time>
      </trkpt>
      <trkpt lat="44.87129" lon="6.70171">
        <ele>1515.2</ele>
        <time>2022-07-19T20:39:49Z</time>
      </trkpt>
      <trkpt lat="44.87125" lon="6.70172">
        <ele>1515.2</ele>
        <time>2022-07-19T20:39:50Z</time>
      </trkpt>
      <trkpt lat="44.87122" lon="6.70173">
        <ele>1515.2</ele>
        <time>2022-07-19T20:39:51Z</time>
      </trkpt>
      <trkpt lat="44.87118" lon="6.70174">
        <ele>1515.2</ele>
        <time>2022-07-19T20:39:52Z</time>
      </trkpt>
      <trkpt lat="44.87114" lon="6.70175">
        <ele>1515.2</ele>
        <time>2022-07-19T20:39:53Z</time>
      </trkpt>
      <trkpt lat="44.8711" lon="6.70176">
        <ele>1515.4</ele>
        <time>2022-07-19T20:39:54Z</time>
      </trkpt>
      <trkpt lat="44.87107" lon="6.70177">
        <ele>1515.4</ele>
        <time>2022-07-19T20:39:55Z</time>
      </trkpt>
      <trkpt lat="44.87103" lon="6.70178">
        <ele>1515.4</ele>
        <time>2022-07-19T20:39:56Z</time>
      </trkpt>
      <trkpt lat="44.87099" lon="6.70179">
        <ele>1515.4</ele>
        <time>2022-07-19T20:39:57Z</time>
      </trkpt>
      <trkpt lat="44.87095" lon="6.70181">
        <ele>1515.4</ele>
        <time>2022-07-19T20:39:58Z</time>
      </trkpt>
      <trkpt lat="44.87091" lon="6.70182">
        <ele>1515.4</ele>
        <time>2022-07-19T20:39:59Z</time>
      </trkpt>
      <trkpt lat="44.87087" lon="6.70183">
        <ele>1515.4</ele>
        <time>2022-07-19T20:40:00Z</time>
      </trkpt>
      <trkpt lat="44.87083" lon="6.70184">
        <ele>1515.4</ele>
        <time>2022-07-19T20:40:01Z</time>
      </trkpt>
      <trkpt lat="44.8708" lon="6.70185">
        <ele>1515.6</ele>
        <time>2022-07-19T20:40:02Z</time>
      </trkpt>
      <trkpt lat="44.87076" lon="6.70186">
        <ele>1515.6</ele>
        <time>2022-07-19T20:40:03Z</time>
      </trkpt>
      <trkpt lat="44.87072" lon="6.70186">
        <ele>1515.6</ele>
        <time>2022-07-19T20:40:04Z</time>
      </trkpt>
      <trkpt lat="44.87069" lon="6.70186">
        <ele>1516</ele>
        <time>2022-07-19T20:40:05Z</time>
      </trkpt>
      <trkpt lat="44.87066" lon="6.70187">
        <ele>1516</ele>
        <time>2022-07-19T20:40:06Z</time>
      </trkpt>
      <trkpt lat="44.87063" lon="6.70187">
        <ele>1516</ele>
        <time>2022-07-19T20:40:07Z</time>
      </trkpt>
      <trkpt lat="44.8706" lon="6.70188">
        <ele>1516.2</ele>
        <time>2022-07-19T20:40:08Z</time>
      </trkpt>
      <trkpt lat="44.87057" lon="6.70189">
        <ele>1516.2</ele>
        <time>2022-07-19T20:40:09Z</time>
      </trkpt>
      <trkpt lat="44.87053" lon="6.7019">
        <ele>1516.2</ele>
        <time>2022-07-19T20:40:10Z</time>
      </trkpt>
      <trkpt lat="44.8705" lon="6.70192">
        <ele>1516.2</ele>
        <time>2022-07-19T20:40:11Z</time>
      </trkpt>
      <trkpt lat="44.87047" lon="6.70192">
        <ele>1516.6</ele>
        <time>2022-07-19T20:40:12Z</time>
      </trkpt>
      <trkpt lat="44.87044" lon="6.70193">
        <ele>1516.6</ele>
        <time>2022-07-19T20:40:13Z</time>
      </trkpt>
      <trkpt lat="44.8704" lon="6.70194">
        <ele>1516.6</ele>
        <time>2022-07-19T20:40:14Z</time>
      </trkpt>
      <trkpt lat="44.87037" lon="6.70195">
        <ele>1516.8</ele>
        <time>2022-07-19T20:40:15Z</time>
      </trkpt>
      <trkpt lat="44.87034" lon="6.70196">
        <ele>1516.8</ele>
        <time>2022-07-19T20:40:16Z</time>
      </trkpt>
      <trkpt lat="44.87031" lon="6.70197">
        <ele>1517</ele>
        <time>2022-07-19T20:40:17Z</time>
      </trkpt>
      <trkpt lat="44.87028" lon="6.70198">
        <ele>1517</ele>
        <time>2022-07-19T20:40:18Z</time>
      </trkpt>
      <trkpt lat="44.87025" lon="6.70199">
        <ele>1517.4</ele>
        <time>2022-07-19T20:40:19Z</time>
      </trkpt>
      <trkpt lat="44.87023" lon="6.70201">
        <ele>1517.4</ele>
        <time>2022-07-19T20:40:20Z</time>
      </trkpt>
      <trkpt lat="44.8702" lon="6.70202">
        <ele>1517.6</ele>
        <time>2022-07-19T20:40:21Z</time>
      </trkpt>
      <trkpt lat="44.87017" lon="6.70203">
        <ele>1517.6</ele>
        <time>2022-07-19T20:40:22Z</time>
      </trkpt>
      <trkpt lat="44.87015" lon="6.70204">
        <ele>1518</ele>
        <time>2022-07-19T20:40:23Z</time>
      </trkpt>
      <trkpt lat="44.87012" lon="6.70206">
        <ele>1518</ele>
        <time>2022-07-19T20:40:24Z</time>
      </trkpt>
      <trkpt lat="44.87009" lon="6.70207">
        <ele>1518.2</ele>
        <time>2022-07-19T20:40:25Z</time>
      </trkpt>
      <trkpt lat="44.87007" lon="6.70209">
        <ele>1518.2</ele>
        <time>2022-07-19T20:40:26Z</time>
      </trkpt>
      <trkpt lat="44.87004" lon="6.70211">
        <ele>1518.4</ele>
        <time>2022-07-19T20:40:27Z</time>
      </trkpt>
      <trkpt lat="44.87001" lon="6.70212">
        <ele>1518.4</ele>
        <time>2022-07-19T20:40:28Z</time>
      </trkpt>
      <trkpt lat="44.86999" lon="6.70214">
        <ele>1518.8</ele>
        <time>2022-07-19T20:40:29Z</time>
      </trkpt>
      <trkpt lat="44.86996" lon="6.70216">
        <ele>1518.8</ele>
        <time>2022-07-19T20:40:30Z</time>
      </trkpt>
      <trkpt lat="44.86994" lon="6.70218">
        <ele>1519</ele>
        <time>2022-07-19T20:40:31Z</time>
      </trkpt>
      <trkpt lat="44.86992" lon="6.70219">
        <ele>1519</ele>
        <time>2022-07-19T20:40:32Z</time>
      </trkpt>
      <trkpt lat="44.86989" lon="6.70221">
        <ele>1519.4</ele>
        <time>2022-07-19T20:40:33Z</time>
      </trkpt>
      <trkpt lat="44.86987" lon="6.70222">
        <ele>1519.4</ele>
        <time>2022-07-19T20:40:34Z</time>
      </trkpt>
      <trkpt lat="44.86985" lon="6.70224">
        <ele>1519.6</ele>
        <time>2022-07-19T20:40:35Z</time>
      </trkpt>
      <trkpt lat="44.86983" lon="6.70226">
        <ele>1519.6</ele>
        <time>2022-07-19T20:40:36Z</time>
      </trkpt>
      <trkpt lat="44.86981" lon="6.70228">
        <ele>1520</ele>
        <time>2022-07-19T20:40:37Z</time>
      </trkpt>
      <trkpt lat="44.86979" lon="6.70229">
        <ele>1520</ele>
        <time>2022-07-19T20:40:38Z</time>
      </trkpt>
      <trkpt lat="44.86977" lon="6.70231">
        <ele>1520.4</ele>
        <time>2022-07-19T20:40:39Z</time>
      </trkpt>
      <trkpt lat="44.86975" lon="6.70232">
        <ele>1520.4</ele>
        <time>2022-07-19T20:40:40Z</time>
      </trkpt>
      <trkpt lat="44.86974" lon="6.70233">
        <ele>1520.4</ele>
        <time>2022-07-19T20:40:41Z</time>
      </trkpt>
      <trkpt lat="44.86973" lon="6.70234">
        <ele>1520.6</ele>
        <time>2022-07-19T20:40:42Z</time>
      </trkpt>
      <trkpt lat="44.86973" lon="6.70234">
        <ele>1521.4</ele>
        <time>2022-07-19T20:40:56Z</time>
      </trkpt>
      <trkpt lat="44.86973" lon="6.70234">
        <ele>1521.6</ele>
        <time>2022-07-19T20:41:01Z</time>
      </trkpt>
      <trkpt lat="44.86967" lon="6.70238">
        <ele>1521.6</ele>
        <time>2022-07-19T20:41:06Z</time>
      </trkpt>
      <trkpt lat="44.86966" lon="6.70239">
        <ele>1521.6</ele>
        <time>2022-07-19T20:41:07Z</time>
      </trkpt>
      <trkpt lat="44.86965" lon="6.70241">
        <ele>1521.8</ele>
        <time>2022-07-19T20:41:08Z</time>
      </trkpt>
      <trkpt lat="44.86964" lon="6.70242">
        <ele>1521.8</ele>
        <time>2022-07-19T20:41:09Z</time>
      </trkpt>
      <trkpt lat="44.86963" lon="6.70243">
        <ele>1521.8</ele>
        <time>2022-07-19T20:41:10Z</time>
      </trkpt>
      <trkpt lat="44.86963" lon="6.70244">
        <ele>1522</ele>
        <time>2022-07-19T20:41:11Z</time>
      </trkpt>
      <trkpt lat="44.86962" lon="6.70245">
        <ele>1522</ele>
        <time>2022-07-19T20:41:12Z</time>
      </trkpt>
      <trkpt lat="44.86961" lon="6.70247">
        <ele>1522.2</ele>
        <time>2022-07-19T20:41:13Z</time>
      </trkpt>
      <trkpt lat="44.8696" lon="6.70248">
        <ele>1522.2</ele>
        <time>2022-07-19T20:41:14Z</time>
      </trkpt>
      <trkpt lat="44.86959" lon="6.70249">
        <ele>1522.2</ele>
        <time>2022-07-19T20:41:15Z</time>
      </trkpt>
      <trkpt lat="44.86958" lon="6.7025">
        <ele>1522.4</ele>
        <time>2022-07-19T20:41:16Z</time>
      </trkpt>
      <trkpt lat="44.86957" lon="6.70251">
        <ele>1522.4</ele>
        <time>2022-07-19T20:41:17Z</time>
      </trkpt>
      <trkpt lat="44.86956" lon="6.70253">
        <ele>1522.4</ele>
        <time>2022-07-19T20:41:18Z</time>
      </trkpt>
      <trkpt lat="44.86955" lon="6.70254">
        <ele>1522.6</ele>
        <time>2022-07-19T20:41:19Z</time>
      </trkpt>
      <trkpt lat="44.86954" lon="6.70255">
        <ele>1522.6</ele>
        <time>2022-07-19T20:41:20Z</time>
      </trkpt>
      <trkpt lat="44.86953" lon="6.70256">
        <ele>1522.6</ele>
        <time>2022-07-19T20:41:21Z</time>
      </trkpt>
      <trkpt lat="44.86953" lon="6.70258">
        <ele>1522.8</ele>
        <time>2022-07-19T20:41:22Z</time>
      </trkpt>
      <trkpt lat="44.86952" lon="6.70259">
        <ele>1522.8</ele>
        <time>2022-07-19T20:41:23Z</time>
      </trkpt>
      <trkpt lat="44.86951" lon="6.7026">
        <ele>1522.8</ele>
        <time>2022-07-19T20:41:24Z</time>
      </trkpt>
      <trkpt lat="44.8695" lon="6.70262">
        <ele>1523.2</ele>
        <time>2022-07-19T20:41:25Z</time>
      </trkpt>
      <trkpt lat="44.86949" lon="6.70263">
        <ele>1523.2</ele>
        <time>2022-07-19T20:41:26Z</time>
      </trkpt>
      <trkpt lat="44.86949" lon="6.70264">
        <ele>1523.2</ele>
        <time>2022-07-19T20:41:27Z</time>
      </trkpt>
      <trkpt lat="44.86948" lon="6.70265">
        <ele>1523.4</ele>
        <time>2022-07-19T20:41:28Z</time>
      </trkpt>
      <trkpt lat="44.86947" lon="6.70267">
        <ele>1523.4</ele>
        <time>2022-07-19T20:41:29Z</time>
      </trkpt>
      <trkpt lat="44.86946" lon="6.70268">
        <ele>1523.4</ele>
        <time>2022-07-19T20:41:30Z</time>
      </trkpt>
      <trkpt lat="44.86945" lon="6.70269">
        <ele>1523.4</ele>
        <time>2022-07-19T20:41:31Z</time>
      </trkpt>
      <trkpt lat="44.86945" lon="6.70271">
        <ele>1523.6</ele>
        <time>2022-07-19T20:41:32Z</time>
      </trkpt>
      <trkpt lat="44.86944" lon="6.70272">
        <ele>1523.6</ele>
        <time>2022-07-19T20:41:33Z</time>
      </trkpt>
      <trkpt lat="44.86943" lon="6.70274">
        <ele>1523.6</ele>
        <time>2022-07-19T20:41:34Z</time>
      </trkpt>
      <trkpt lat="44.86942" lon="6.70275">
        <ele>1523.8</ele>
        <time>2022-07-19T20:41:35Z</time>
      </trkpt>
      <trkpt lat="44.86941" lon="6.70276">
        <ele>1523.8</ele>
        <time>2022-07-19T20:41:36Z</time>
      </trkpt>
      <trkpt lat="44.86941" lon="6.70278">
        <ele>1523.8</ele>
        <time>2022-07-19T20:41:37Z</time>
      </trkpt>
      <trkpt lat="44.8694" lon="6.70279">
        <ele>1523.8</ele>
        <time>2022-07-19T20:41:38Z</time>
      </trkpt>
      <trkpt lat="44.86939" lon="6.7028">
        <ele>1523.8</ele>
        <time>2022-07-19T20:41:39Z</time>
      </trkpt>
      <trkpt lat="44.86939" lon="6.70282">
        <ele>1524.2</ele>
        <time>2022-07-19T20:41:40Z</time>
      </trkpt>
      <trkpt lat="44.86938" lon="6.70282">
        <ele>1524.2</ele>
        <time>2022-07-19T20:41:41Z</time>
      </trkpt>
      <trkpt lat="44.86938" lon="6.70284">
        <ele>1524.4</ele>
        <time>2022-07-19T20:41:42Z</time>
      </trkpt>
      <trkpt lat="44.86937" lon="6.70285">
        <ele>1524.4</ele>
        <time>2022-07-19T20:41:43Z</time>
      </trkpt>
      <trkpt lat="44.86936" lon="6.70286">
        <ele>1524.4</ele>
        <time>2022-07-19T20:41:44Z</time>
      </trkpt>
      <trkpt lat="44.86936" lon="6.70287">
        <ele>1524.4</ele>
        <time>2022-07-19T20:41:45Z</time>
      </trkpt>
      <trkpt lat="44.86935" lon="6.70289">
        <ele>1524.6</ele>
        <time>2022-07-19T20:41:46Z</time>
      </trkpt>
      <trkpt lat="44.86934" lon="6.7029">
        <ele>1524.6</ele>
        <time>2022-07-19T20:41:47Z</time>
      </trkpt>
      <trkpt lat="44.86934" lon="6.70292">
        <ele>1524.6</ele>
        <time>2022-07-19T20:41:48Z</time>
      </trkpt>
      <trkpt lat="44.86933" lon="6.70293">
        <ele>1525</ele>
        <time>2022-07-19T20:41:49Z</time>
      </trkpt>
      <trkpt lat="44.86933" lon="6.70294">
        <ele>1525</ele>
        <time>2022-07-19T20:41:50Z</time>
      </trkpt>
      <trkpt lat="44.86932" lon="6.70296">
        <ele>1525.2</ele>
        <time>2022-07-19T20:41:51Z</time>
      </trkpt>
      <trkpt lat="44.86931" lon="6.70297">
        <ele>1525.2</ele>
        <time>2022-07-19T20:41:52Z</time>
      </trkpt>
      <trkpt lat="44.86931" lon="6.70299">
        <ele>1525.2</ele>
        <time>2022-07-19T20:41:53Z</time>
      </trkpt>
      <trkpt lat="44.86931" lon="6.703">
        <ele>1525.2</ele>
        <time>2022-07-19T20:41:54Z</time>
      </trkpt>
      <trkpt lat="44.8693" lon="6.70302">
        <ele>1525.4</ele>
        <time>2022-07-19T20:41:55Z</time>
      </trkpt>
      <trkpt lat="44.8693" lon="6.70303">
        <ele>1525.4</ele>
        <time>2022-07-19T20:41:56Z</time>
      </trkpt>
      <trkpt lat="44.8693" lon="6.70304">
        <ele>1525.6</ele>
        <time>2022-07-19T20:41:57Z</time>
      </trkpt>
      <trkpt lat="44.86929" lon="6.70306">
        <ele>1525.6</ele>
        <time>2022-07-19T20:41:58Z</time>
      </trkpt>
      <trkpt lat="44.86929" lon="6.70307">
        <ele>1525.6</ele>
        <time>2022-07-19T20:41:59Z</time>
      </trkpt>
      <trkpt lat="44.86928" lon="6.70309">
        <ele>1526</ele>
        <time>2022-07-19T20:42:00Z</time>
      </trkpt>
      <trkpt lat="44.86928" lon="6.7031">
        <ele>1526</ele>
        <time>2022-07-19T20:42:01Z</time>
      </trkpt>
      <trkpt lat="44.86927" lon="6.70312">
        <ele>1526</ele>
        <time>2022-07-19T20:42:02Z</time>
      </trkpt>
      <trkpt lat="44.86926" lon="6.70313">
        <ele>1526</ele>
        <time>2022-07-19T20:42:03Z</time>
      </trkpt>
      <trkpt lat="44.86926" lon="6.70315">
        <ele>1526</ele>
        <time>2022-07-19T20:42:04Z</time>
      </trkpt>
      <trkpt lat="44.86925" lon="6.70316">
        <ele>1526</ele>
        <time>2022-07-19T20:42:05Z</time>
      </trkpt>
      <trkpt lat="44.86925" lon="6.70318">
        <ele>1526.2</ele>
        <time>2022-07-19T20:42:06Z</time>
      </trkpt>
      <trkpt lat="44.86924" lon="6.7032">
        <ele>1526.2</ele>
        <time>2022-07-19T20:42:07Z</time>
      </trkpt>
      <trkpt lat="44.86923" lon="6.70321">
        <ele>1526.2</ele>
        <time>2022-07-19T20:42:08Z</time>
      </trkpt>
      <trkpt lat="44.86923" lon="6.70323">
        <ele>1526.2</ele>
        <time>2022-07-19T20:42:09Z</time>
      </trkpt>
      <trkpt lat="44.86922" lon="6.70324">
        <ele>1526.2</ele>
        <time>2022-07-19T20:42:10Z</time>
      </trkpt>
      <trkpt lat="44.86922" lon="6.70326">
        <ele>1526.6</ele>
        <time>2022-07-19T20:42:11Z</time>
      </trkpt>
      <trkpt lat="44.86921" lon="6.70327">
        <ele>1526.6</ele>
        <time>2022-07-19T20:42:12Z</time>
      </trkpt>
      <trkpt lat="44.86921" lon="6.70328">
        <ele>1526.8</ele>
        <time>2022-07-19T20:42:13Z</time>
      </trkpt>
      <trkpt lat="44.8692" lon="6.7033">
        <ele>1526.8</ele>
        <time>2022-07-19T20:42:14Z</time>
      </trkpt>
      <trkpt lat="44.8692" lon="6.70331">
        <ele>1526.8</ele>
        <time>2022-07-19T20:42:15Z</time>
      </trkpt>
      <trkpt lat="44.86919" lon="6.70333">
        <ele>1526.8</ele>
        <time>2022-07-19T20:42:16Z</time>
      </trkpt>
      <trkpt lat="44.86919" lon="6.70334">
        <ele>1526.8</ele>
        <time>2022-07-19T20:42:17Z</time>
      </trkpt>
      <trkpt lat="44.86918" lon="6.70336">
        <ele>1526.8</ele>
        <time>2022-07-19T20:42:18Z</time>
      </trkpt>
      <trkpt lat="44.86917" lon="6.70337">
        <ele>1527</ele>
        <time>2022-07-19T20:42:19Z</time>
      </trkpt>
      <trkpt lat="44.86917" lon="6.70339">
        <ele>1527</ele>
        <time>2022-07-19T20:42:20Z</time>
      </trkpt>
      <trkpt lat="44.86917" lon="6.7034">
        <ele>1527</ele>
        <time>2022-07-19T20:42:21Z</time>
      </trkpt>
      <trkpt lat="44.86916" lon="6.70342">
        <ele>1527</ele>
        <time>2022-07-19T20:42:22Z</time>
      </trkpt>
      <trkpt lat="44.86916" lon="6.70344">
        <ele>1527.2</ele>
        <time>2022-07-19T20:42:23Z</time>
      </trkpt>
      <trkpt lat="44.86915" lon="6.70345">
        <ele>1527.2</ele>
        <time>2022-07-19T20:42:24Z</time>
      </trkpt>
      <trkpt lat="44.86915" lon="6.70347">
        <ele>1527.2</ele>
        <time>2022-07-19T20:42:25Z</time>
      </trkpt>
      <trkpt lat="44.86914" lon="6.70348">
        <ele>1527.4</ele>
        <time>2022-07-19T20:42:26Z</time>
      </trkpt>
      <trkpt lat="44.86914" lon="6.7035">
        <ele>1527.4</ele>
        <time>2022-07-19T20:42:27Z</time>
      </trkpt>
      <trkpt lat="44.86913" lon="6.70352">
        <ele>1527.4</ele>
        <time>2022-07-19T20:42:28Z</time>
      </trkpt>
      <trkpt lat="44.86913" lon="6.70353">
        <ele>1527.4</ele>
        <time>2022-07-19T20:42:29Z</time>
      </trkpt>
      <trkpt lat="44.86913" lon="6.70355">
        <ele>1527.4</ele>
        <time>2022-07-19T20:42:30Z</time>
      </trkpt>
      <trkpt lat="44.86912" lon="6.70357">
        <ele>1527.4</ele>
        <time>2022-07-19T20:42:31Z</time>
      </trkpt>
      <trkpt lat="44.86912" lon="6.70358">
        <ele>1527.4</ele>
        <time>2022-07-19T20:42:32Z</time>
      </trkpt>
      <trkpt lat="44.86912" lon="6.7036">
        <ele>1527.4</ele>
        <time>2022-07-19T20:42:33Z</time>
      </trkpt>
      <trkpt lat="44.86911" lon="6.70362">
        <ele>1527.6</ele>
        <time>2022-07-19T20:42:34Z</time>
      </trkpt>
      <trkpt lat="44.86911" lon="6.70363">
        <ele>1527.6</ele>
        <time>2022-07-19T20:42:35Z</time>
      </trkpt>
      <trkpt lat="44.86911" lon="6.70365">
        <ele>1527.6</ele>
        <time>2022-07-19T20:42:36Z</time>
      </trkpt>
      <trkpt lat="44.8691" lon="6.70367">
        <ele>1527.8</ele>
        <time>2022-07-19T20:42:37Z</time>
      </trkpt>
      <trkpt lat="44.8691" lon="6.70368">
        <ele>1527.8</ele>
        <time>2022-07-19T20:42:38Z</time>
      </trkpt>
      <trkpt lat="44.8691" lon="6.7037">
        <ele>1527.8</ele>
        <time>2022-07-19T20:42:39Z</time>
      </trkpt>
      <trkpt lat="44.8691" lon="6.70371">
        <ele>1527.8</ele>
        <time>2022-07-19T20:42:40Z</time>
      </trkpt>
      <trkpt lat="44.86909" lon="6.70373">
        <ele>1527.8</ele>
        <time>2022-07-19T20:42:41Z</time>
      </trkpt>
      <trkpt lat="44.86909" lon="6.70375">
        <ele>1528.2</ele>
        <time>2022-07-19T20:42:42Z</time>
      </trkpt>
      <trkpt lat="44.86909" lon="6.70376">
        <ele>1528.2</ele>
        <time>2022-07-19T20:42:43Z</time>
      </trkpt>
      <trkpt lat="44.86909" lon="6.70378">
        <ele>1528.2</ele>
        <time>2022-07-19T20:42:44Z</time>
      </trkpt>
      <trkpt lat="44.86908" lon="6.70379">
        <ele>1528.2</ele>
        <time>2022-07-19T20:42:45Z</time>
      </trkpt>
      <trkpt lat="44.86908" lon="6.70381">
        <ele>1528.4</ele>
        <time>2022-07-19T20:42:46Z</time>
      </trkpt>
      <trkpt lat="44.86908" lon="6.70382">
        <ele>1528.4</ele>
        <time>2022-07-19T20:42:47Z</time>
      </trkpt>
      <trkpt lat="44.86908" lon="6.70384">
        <ele>1528.4</ele>
        <time>2022-07-19T20:42:48Z</time>
      </trkpt>
      <trkpt lat="44.86907" lon="6.70385">
        <ele>1528.4</ele>
        <time>2022-07-19T20:42:49Z</time>
      </trkpt>
      <trkpt lat="44.86907" lon="6.70386">
        <ele>1528.4</ele>
        <time>2022-07-19T20:42:50Z</time>
      </trkpt>
      <trkpt lat="44.86907" lon="6.70388">
        <ele>1528.6</ele>
        <time>2022-07-19T20:42:51Z</time>
      </trkpt>
      <trkpt lat="44.86907" lon="6.70389">
        <ele>1528.6</ele>
        <time>2022-07-19T20:42:52Z</time>
      </trkpt>
      <trkpt lat="44.86906" lon="6.7039">
        <ele>1528.6</ele>
        <time>2022-07-19T20:42:53Z</time>
      </trkpt>
      <trkpt lat="44.86906" lon="6.70392">
        <ele>1528.6</ele>
        <time>2022-07-19T20:42:54Z</time>
      </trkpt>
      <trkpt lat="44.86906" lon="6.70393">
        <ele>1528.6</ele>
        <time>2022-07-19T20:42:55Z</time>
      </trkpt>
      <trkpt lat="44.86906" lon="6.70395">
        <ele>1528.6</ele>
        <time>2022-07-19T20:42:56Z</time>
      </trkpt>
      <trkpt lat="44.86906" lon="6.70396">
        <ele>1528.6</ele>
        <time>2022-07-19T20:42:57Z</time>
      </trkpt>
      <trkpt lat="44.86906" lon="6.70398">
        <ele>1528.8</ele>
        <time>2022-07-19T20:42:58Z</time>
      </trkpt>
      <trkpt lat="44.86906" lon="6.704">
        <ele>1528.8</ele>
        <time>2022-07-19T20:42:59Z</time>
      </trkpt>
      <trkpt lat="44.86906" lon="6.70401">
        <ele>1528.8</ele>
        <time>2022-07-19T20:43:00Z</time>
      </trkpt>
      <trkpt lat="44.86906" lon="6.70402">
        <ele>1529</ele>
        <time>2022-07-19T20:43:01Z</time>
      </trkpt>
      <trkpt lat="44.86906" lon="6.70404">
        <ele>1529</ele>
        <time>2022-07-19T20:43:02Z</time>
      </trkpt>
      <trkpt lat="44.86906" lon="6.70405">
        <ele>1529</ele>
        <time>2022-07-19T20:43:03Z</time>
      </trkpt>
      <trkpt lat="44.86906" lon="6.70407">
        <ele>1529.2</ele>
        <time>2022-07-19T20:43:04Z</time>
      </trkpt>
      <trkpt lat="44.86905" lon="6.70409">
        <ele>1529.2</ele>
        <time>2022-07-19T20:43:05Z</time>
      </trkpt>
      <trkpt lat="44.86905" lon="6.7041">
        <ele>1529.2</ele>
        <time>2022-07-19T20:43:06Z</time>
      </trkpt>
      <trkpt lat="44.86905" lon="6.70412">
        <ele>1529.4</ele>
        <time>2022-07-19T20:43:07Z</time>
      </trkpt>
      <trkpt lat="44.86905" lon="6.70413">
        <ele>1529.4</ele>
        <time>2022-07-19T20:43:08Z</time>
      </trkpt>
      <trkpt lat="44.86905" lon="6.70415">
        <ele>1529.4</ele>
        <time>2022-07-19T20:43:09Z</time>
      </trkpt>
      <trkpt lat="44.86905" lon="6.70416">
        <ele>1529.6</ele>
        <time>2022-07-19T20:43:10Z</time>
      </trkpt>
      <trkpt lat="44.86905" lon="6.70418">
        <ele>1529.6</ele>
        <time>2022-07-19T20:43:11Z</time>
      </trkpt>
      <trkpt lat="44.86905" lon="6.70419">
        <ele>1529.6</ele>
        <time>2022-07-19T20:43:12Z</time>
      </trkpt>
      <trkpt lat="44.86904" lon="6.70421">
        <ele>1530</ele>
        <time>2022-07-19T20:43:13Z</time>
      </trkpt>
      <trkpt lat="44.86904" lon="6.70422">
        <ele>1530</ele>
        <time>2022-07-19T20:43:14Z</time>
      </trkpt>
      <trkpt lat="44.86904" lon="6.70424">
        <ele>1530</ele>
        <time>2022-07-19T20:43:15Z</time>
      </trkpt>
      <trkpt lat="44.86904" lon="6.70426">
        <ele>1530</ele>
        <time>2022-07-19T20:43:16Z</time>
      </trkpt>
      <trkpt lat="44.86904" lon="6.70427">
        <ele>1530.2</ele>
        <time>2022-07-19T20:43:17Z</time>
      </trkpt>
      <trkpt lat="44.86904" lon="6.70429">
        <ele>1530.2</ele>
        <time>2022-07-19T20:43:18Z</time>
      </trkpt>
      <trkpt lat="44.86904" lon="6.70431">
        <ele>1530.2</ele>
        <time>2022-07-19T20:43:19Z</time>
      </trkpt>
      <trkpt lat="44.86904" lon="6.70433">
        <ele>1530.2</ele>
        <time>2022-07-19T20:43:20Z</time>
      </trkpt>
      <trkpt lat="44.86904" lon="6.70435">
        <ele>1530.2</ele>
        <time>2022-07-19T20:43:21Z</time>
      </trkpt>
      <trkpt lat="44.86903" lon="6.70437">
        <ele>1530.4</ele>
        <time>2022-07-19T20:43:22Z</time>
      </trkpt>
      <trkpt lat="44.86903" lon="6.70438">
        <ele>1530.4</ele>
        <time>2022-07-19T20:43:23Z</time>
      </trkpt>
      <trkpt lat="44.86903" lon="6.7044">
        <ele>1530.6</ele>
        <time>2022-07-19T20:43:24Z</time>
      </trkpt>
      <trkpt lat="44.86903" lon="6.70442">
        <ele>1530.6</ele>
        <time>2022-07-19T20:43:25Z</time>
      </trkpt>
      <trkpt lat="44.86903" lon="6.70444">
        <ele>1530.6</ele>
        <time>2022-07-19T20:43:26Z</time>
      </trkpt>
      <trkpt lat="44.86902" lon="6.70445">
        <ele>1530.6</ele>
        <time>2022-07-19T20:43:27Z</time>
      </trkpt>
      <trkpt lat="44.86902" lon="6.70447">
        <ele>1530.8</ele>
        <time>2022-07-19T20:43:28Z</time>
      </trkpt>
      <trkpt lat="44.86902" lon="6.70449">
        <ele>1530.8</ele>
        <time>2022-07-19T20:43:29Z</time>
      </trkpt>
      <trkpt lat="44.86902" lon="6.70451">
        <ele>1531.2</ele>
        <time>2022-07-19T20:43:30Z</time>
      </trkpt>
      <trkpt lat="44.86902" lon="6.70452">
        <ele>1531.2</ele>
        <time>2022-07-19T20:43:31Z</time>
      </trkpt>
      <trkpt lat="44.86901" lon="6.70454">
        <ele>1531.2</ele>
        <time>2022-07-19T20:43:32Z</time>
      </trkpt>
      <trkpt lat="44.86901" lon="6.70456">
        <ele>1531.4</ele>
        <time>2022-07-19T20:43:33Z</time>
      </trkpt>
      <trkpt lat="44.86901" lon="6.70457">
        <ele>1531.4</ele>
        <time>2022-07-19T20:43:34Z</time>
      </trkpt>
      <trkpt lat="44.86901" lon="6.70459">
        <ele>1531.6</ele>
        <time>2022-07-19T20:43:35Z</time>
      </trkpt>
      <trkpt lat="44.86901" lon="6.70461">
        <ele>1531.6</ele>
        <time>2022-07-19T20:43:36Z</time>
      </trkpt>
      <trkpt lat="44.86901" lon="6.70463">
        <ele>1531.6</ele>
        <time>2022-07-19T20:43:37Z</time>
      </trkpt>
      <trkpt lat="44.86901" lon="6.70465">
        <ele>1531.8</ele>
        <time>2022-07-19T20:43:38Z</time>
      </trkpt>
      <trkpt lat="44.86901" lon="6.70466">
        <ele>1531.8</ele>
        <time>2022-07-19T20:43:39Z</time>
      </trkpt>
      <trkpt lat="44.86901" lon="6.70468">
        <ele>1531.8</ele>
        <time>2022-07-19T20:43:40Z</time>
      </trkpt>
      <trkpt lat="44.869" lon="6.70469">
        <ele>1532</ele>
        <time>2022-07-19T20:43:41Z</time>
      </trkpt>
      <trkpt lat="44.869" lon="6.70471">
        <ele>1532</ele>
        <time>2022-07-19T20:43:42Z</time>
      </trkpt>
      <trkpt lat="44.869" lon="6.70472">
        <ele>1532</ele>
        <time>2022-07-19T20:43:43Z</time>
      </trkpt>
      <trkpt lat="44.869" lon="6.70474">
        <ele>1532</ele>
        <time>2022-07-19T20:43:44Z</time>
      </trkpt>
      <trkpt lat="44.86899" lon="6.70476">
        <ele>1532</ele>
        <time>2022-07-19T20:43:45Z</time>
      </trkpt>
      <trkpt lat="44.86899" lon="6.70478">
        <ele>1532</ele>
        <time>2022-07-19T20:43:46Z</time>
      </trkpt>
      <trkpt lat="44.86898" lon="6.70479">
        <ele>1532.4</ele>
        <time>2022-07-19T20:43:47Z</time>
      </trkpt>
      <trkpt lat="44.86898" lon="6.70481">
        <ele>1532.4</ele>
        <time>2022-07-19T20:43:48Z</time>
      </trkpt>
      <trkpt lat="44.86898" lon="6.70482">
        <ele>1532.6</ele>
        <time>2022-07-19T20:43:49Z</time>
      </trkpt>
      <trkpt lat="44.86897" lon="6.70484">
        <ele>1532.6</ele>
        <time>2022-07-19T20:43:50Z</time>
      </trkpt>
      <trkpt lat="44.86897" lon="6.70486">
        <ele>1532.6</ele>
        <time>2022-07-19T20:43:51Z</time>
      </trkpt>
      <trkpt lat="44.86897" lon="6.70488">
        <ele>1532.6</ele>
        <time>2022-07-19T20:43:52Z</time>
      </trkpt>
      <trkpt lat="44.86896" lon="6.70489">
        <ele>1532.8</ele>
        <time>2022-07-19T20:43:53Z</time>
      </trkpt>
      <trkpt lat="44.86896" lon="6.70491">
        <ele>1532.8</ele>
        <time>2022-07-19T20:43:54Z</time>
      </trkpt>
      <trkpt lat="44.86896" lon="6.70493">
        <ele>1532.8</ele>
        <time>2022-07-19T20:43:55Z</time>
      </trkpt>
      <trkpt lat="44.86895" lon="6.70495">
        <ele>1532.8</ele>
        <time>2022-07-19T20:43:56Z</time>
      </trkpt>
      <trkpt lat="44.86895" lon="6.70496">
        <ele>1533.2</ele>
        <time>2022-07-19T20:43:57Z</time>
      </trkpt>
      <trkpt lat="44.86894" lon="6.70498">
        <ele>1533.2</ele>
        <time>2022-07-19T20:43:58Z</time>
      </trkpt>
      <trkpt lat="44.86894" lon="6.705">
        <ele>1533.2</ele>
        <time>2022-07-19T20:43:59Z</time>
      </trkpt>
      <trkpt lat="44.86894" lon="6.70501">
        <ele>1533.4</ele>
        <time>2022-07-19T20:44:00Z</time>
      </trkpt>
      <trkpt lat="44.86893" lon="6.70503">
        <ele>1533.4</ele>
        <time>2022-07-19T20:44:01Z</time>
      </trkpt>
      <trkpt lat="44.86893" lon="6.70505">
        <ele>1533.4</ele>
        <time>2022-07-19T20:44:02Z</time>
      </trkpt>
      <trkpt lat="44.86893" lon="6.70507">
        <ele>1533.6</ele>
        <time>2022-07-19T20:44:03Z</time>
      </trkpt>
      <trkpt lat="44.86892" lon="6.70508">
        <ele>1533.6</ele>
        <time>2022-07-19T20:44:04Z</time>
      </trkpt>
      <trkpt lat="44.86892" lon="6.7051">
        <ele>1533.6</ele>
        <time>2022-07-19T20:44:05Z</time>
      </trkpt>
      <trkpt lat="44.86891" lon="6.70512">
        <ele>1533.6</ele>
        <time>2022-07-19T20:44:06Z</time>
      </trkpt>
      <trkpt lat="44.86891" lon="6.70514">
        <ele>1533.8</ele>
        <time>2022-07-19T20:44:07Z</time>
      </trkpt>
      <trkpt lat="44.86891" lon="6.70515">
        <ele>1533.8</ele>
        <time>2022-07-19T20:44:08Z</time>
      </trkpt>
      <trkpt lat="44.86891" lon="6.70517">
        <ele>1533.8</ele>
        <time>2022-07-19T20:44:09Z</time>
      </trkpt>
      <trkpt lat="44.8689" lon="6.70519">
        <ele>1534.2</ele>
        <time>2022-07-19T20:44:10Z</time>
      </trkpt>
      <trkpt lat="44.8689" lon="6.70521">
        <ele>1534.2</ele>
        <time>2022-07-19T20:44:11Z</time>
      </trkpt>
      <trkpt lat="44.86889" lon="6.70522">
        <ele>1534.2</ele>
        <time>2022-07-19T20:44:12Z</time>
      </trkpt>
      <trkpt lat="44.86889" lon="6.70524">
        <ele>1534.4</ele>
        <time>2022-07-19T20:44:13Z</time>
      </trkpt>
      <trkpt lat="44.86889" lon="6.70525">
        <ele>1534.4</ele>
        <time>2022-07-19T20:44:14Z</time>
      </trkpt>
      <trkpt lat="44.86889" lon="6.70527">
        <ele>1534.4</ele>
        <time>2022-07-19T20:44:15Z</time>
      </trkpt>
      <trkpt lat="44.86889" lon="6.70529">
        <ele>1534.4</ele>
        <time>2022-07-19T20:44:16Z</time>
      </trkpt>
      <trkpt lat="44.86889" lon="6.7053">
        <ele>1534.6</ele>
        <time>2022-07-19T20:44:17Z</time>
      </trkpt>
      <trkpt lat="44.86888" lon="6.70532">
        <ele>1534.6</ele>
        <time>2022-07-19T20:44:18Z</time>
      </trkpt>
      <trkpt lat="44.86888" lon="6.70534">
        <ele>1534.6</ele>
        <time>2022-07-19T20:44:19Z</time>
      </trkpt>
      <trkpt lat="44.86887" lon="6.70535">
        <ele>1534.6</ele>
        <time>2022-07-19T20:44:20Z</time>
      </trkpt>
      <trkpt lat="44.86887" lon="6.70537">
        <ele>1534.6</ele>
        <time>2022-07-19T20:44:21Z</time>
      </trkpt>
      <trkpt lat="44.86887" lon="6.70539">
        <ele>1534.8</ele>
        <time>2022-07-19T20:44:22Z</time>
      </trkpt>
      <trkpt lat="44.86886" lon="6.7054">
        <ele>1534.8</ele>
        <time>2022-07-19T20:44:23Z</time>
      </trkpt>
      <trkpt lat="44.86886" lon="6.70542">
        <ele>1535</ele>
        <time>2022-07-19T20:44:24Z</time>
      </trkpt>
      <trkpt lat="44.86886" lon="6.70543">
        <ele>1535</ele>
        <time>2022-07-19T20:44:25Z</time>
      </trkpt>
      <trkpt lat="44.86885" lon="6.70545">
        <ele>1535.2</ele>
        <time>2022-07-19T20:44:27Z</time>
      </trkpt>
      <trkpt lat="44.86885" lon="6.70546">
        <ele>1535.2</ele>
        <time>2022-07-19T20:44:28Z</time>
      </trkpt>
      <trkpt lat="44.86885" lon="6.70547">
        <ele>1535.2</ele>
        <time>2022-07-19T20:44:29Z</time>
      </trkpt>
      <trkpt lat="44.86884" lon="6.70548">
        <ele>1535.6</ele>
        <time>2022-07-19T20:44:30Z</time>
      </trkpt>
      <trkpt lat="44.86884" lon="6.70549">
        <ele>1535.6</ele>
        <time>2022-07-19T20:44:31Z</time>
      </trkpt>
      <trkpt lat="44.86884" lon="6.70549">
        <ele>1535.6</ele>
        <time>2022-07-19T20:44:36Z</time>
      </trkpt>
      <trkpt lat="44.86884" lon="6.70549">
        <ele>1535.6</ele>
        <time>2022-07-19T20:44:41Z</time>
      </trkpt>
      <trkpt lat="44.86883" lon="6.70553">
        <ele>1535.8</ele>
        <time>2022-07-19T20:44:44Z</time>
      </trkpt>
      <trkpt lat="44.86883" lon="6.70555">
        <ele>1535.8</ele>
        <time>2022-07-19T20:44:45Z</time>
      </trkpt>
      <trkpt lat="44.86882" lon="6.70557">
        <ele>1535.8</ele>
        <time>2022-07-19T20:44:46Z</time>
      </trkpt>
      <trkpt lat="44.86882" lon="6.70559">
        <ele>1535.8</ele>
        <time>2022-07-19T20:44:47Z</time>
      </trkpt>
      <trkpt lat="44.86881" lon="6.70562">
        <ele>1536</ele>
        <time>2022-07-19T20:44:48Z</time>
      </trkpt>
      <trkpt lat="44.86881" lon="6.70564">
        <ele>1536</ele>
        <time>2022-07-19T20:44:49Z</time>
      </trkpt>
      <trkpt lat="44.8688" lon="6.70567">
        <ele>1536</ele>
        <time>2022-07-19T20:44:50Z</time>
      </trkpt>
      <trkpt lat="44.8688" lon="6.70569">
        <ele>1536.2</ele>
        <time>2022-07-19T20:44:51Z</time>
      </trkpt>
      <trkpt lat="44.86879" lon="6.70572">
        <ele>1536.2</ele>
        <time>2022-07-19T20:44:52Z</time>
      </trkpt>
      <trkpt lat="44.86878" lon="6.70575">
        <ele>1536.2</ele>
        <time>2022-07-19T20:44:53Z</time>
      </trkpt>
      <trkpt lat="44.86877" lon="6.70578">
        <ele>1536.4</ele>
        <time>2022-07-19T20:44:54Z</time>
      </trkpt>
      <trkpt lat="44.86876" lon="6.70581">
        <ele>1536.4</ele>
        <time>2022-07-19T20:44:55Z</time>
      </trkpt>
      <trkpt lat="44.86875" lon="6.70584">
        <ele>1536.6</ele>
        <time>2022-07-19T20:44:56Z</time>
      </trkpt>
      <trkpt lat="44.86875" lon="6.70587">
        <ele>1536.6</ele>
        <time>2022-07-19T20:44:57Z</time>
      </trkpt>
      <trkpt lat="44.86874" lon="6.7059">
        <ele>1536.8</ele>
        <time>2022-07-19T20:44:58Z</time>
      </trkpt>
      <trkpt lat="44.86873" lon="6.70593">
        <ele>1536.8</ele>
        <time>2022-07-19T20:44:59Z</time>
      </trkpt>
      <trkpt lat="44.86872" lon="6.70596">
        <ele>1537.2</ele>
        <time>2022-07-19T20:45:00Z</time>
      </trkpt>
      <trkpt lat="44.86871" lon="6.706">
        <ele>1537.2</ele>
        <time>2022-07-19T20:45:01Z</time>
      </trkpt>
      <trkpt lat="44.8687" lon="6.70603">
        <ele>1537.4</ele>
        <time>2022-07-19T20:45:02Z</time>
      </trkpt>
      <trkpt lat="44.8687" lon="6.70606">
        <ele>1537.4</ele>
        <time>2022-07-19T20:45:03Z</time>
      </trkpt>
      <trkpt lat="44.86869" lon="6.70609">
        <ele>1537.4</ele>
        <time>2022-07-19T20:45:04Z</time>
      </trkpt>
      <trkpt lat="44.86868" lon="6.70613">
        <ele>1537.4</ele>
        <time>2022-07-19T20:45:05Z</time>
      </trkpt>
      <trkpt lat="44.86867" lon="6.70616">
        <ele>1537.4</ele>
        <time>2022-07-19T20:45:06Z</time>
      </trkpt>
      <trkpt lat="44.86866" lon="6.70619">
        <ele>1537.6</ele>
        <time>2022-07-19T20:45:07Z</time>
      </trkpt>
      <trkpt lat="44.86865" lon="6.70622">
        <ele>1537.6</ele>
        <time>2022-07-19T20:45:08Z</time>
      </trkpt>
      <trkpt lat="44.86865" lon="6.70625">
        <ele>1538</ele>
        <time>2022-07-19T20:45:09Z</time>
      </trkpt>
      <trkpt lat="44.86864" lon="6.70629">
        <ele>1538</ele>
        <time>2022-07-19T20:45:10Z</time>
      </trkpt>
      <trkpt lat="44.86863" lon="6.70632">
        <ele>1538</ele>
        <time>2022-07-19T20:45:11Z</time>
      </trkpt>
      <trkpt lat="44.86862" lon="6.70635">
        <ele>1538.2</ele>
        <time>2022-07-19T20:45:12Z</time>
      </trkpt>
      <trkpt lat="44.86861" lon="6.70638">
        <ele>1538.2</ele>
        <time>2022-07-19T20:45:13Z</time>
      </trkpt>
      <trkpt lat="44.8686" lon="6.70641">
        <ele>1538.2</ele>
        <time>2022-07-19T20:45:14Z</time>
      </trkpt>
      <trkpt lat="44.8686" lon="6.70644">
        <ele>1538.2</ele>
        <time>2022-07-19T20:45:15Z</time>
      </trkpt>
      <trkpt lat="44.86859" lon="6.70648">
        <ele>1538.4</ele>
        <time>2022-07-19T20:45:16Z</time>
      </trkpt>
      <trkpt lat="44.86858" lon="6.70651">
        <ele>1538.4</ele>
        <time>2022-07-19T20:45:17Z</time>
      </trkpt>
      <trkpt lat="44.86857" lon="6.70654">
        <ele>1538.4</ele>
        <time>2022-07-19T20:45:18Z</time>
      </trkpt>
      <trkpt lat="44.86856" lon="6.70658">
        <ele>1538.8</ele>
        <time>2022-07-19T20:45:19Z</time>
      </trkpt>
      <trkpt lat="44.86855" lon="6.70662">
        <ele>1538.8</ele>
        <time>2022-07-19T20:45:20Z</time>
      </trkpt>
      <trkpt lat="44.86854" lon="6.70665">
        <ele>1538.8</ele>
        <time>2022-07-19T20:45:21Z</time>
      </trkpt>
      <trkpt lat="44.86853" lon="6.70669">
        <ele>1538.8</ele>
        <time>2022-07-19T20:45:22Z</time>
      </trkpt>
      <trkpt lat="44.86852" lon="6.70673">
        <ele>1539</ele>
        <time>2022-07-19T20:45:23Z</time>
      </trkpt>
      <trkpt lat="44.86851" lon="6.70677">
        <ele>1539</ele>
        <time>2022-07-19T20:45:24Z</time>
      </trkpt>
      <trkpt lat="44.8685" lon="6.70681">
        <ele>1539</ele>
        <time>2022-07-19T20:45:25Z</time>
      </trkpt>
      <trkpt lat="44.86848" lon="6.70684">
        <ele>1539</ele>
        <time>2022-07-19T20:45:26Z</time>
      </trkpt>
      <trkpt lat="44.86847" lon="6.70688">
        <ele>1539</ele>
        <time>2022-07-19T20:45:27Z</time>
      </trkpt>
      <trkpt lat="44.86846" lon="6.70692">
        <ele>1539.2</ele>
        <time>2022-07-19T20:45:28Z</time>
      </trkpt>
      <trkpt lat="44.86845" lon="6.70696">
        <ele>1539.2</ele>
        <time>2022-07-19T20:45:29Z</time>
      </trkpt>
      <trkpt lat="44.86844" lon="6.70701">
        <ele>1539.2</ele>
        <time>2022-07-19T20:45:30Z</time>
      </trkpt>
      <trkpt lat="44.86843" lon="6.70706">
        <ele>1539.2</ele>
        <time>2022-07-19T20:45:31Z</time>
      </trkpt>
      <trkpt lat="44.86841" lon="6.70711">
        <ele>1539.2</ele>
        <time>2022-07-19T20:45:32Z</time>
      </trkpt>
      <trkpt lat="44.86839" lon="6.70716">
        <ele>1539.2</ele>
        <time>2022-07-19T20:45:33Z</time>
      </trkpt>
      <trkpt lat="44.86838" lon="6.70722">
        <ele>1539.2</ele>
        <time>2022-07-19T20:45:34Z</time>
      </trkpt>
      <trkpt lat="44.86836" lon="6.70728">
        <ele>1539.2</ele>
        <time>2022-07-19T20:45:35Z</time>
      </trkpt>
      <trkpt lat="44.86834" lon="6.70734">
        <ele>1539.2</ele>
        <time>2022-07-19T20:45:36Z</time>
      </trkpt>
      <trkpt lat="44.86832" lon="6.7074">
        <ele>1539.2</ele>
        <time>2022-07-19T20:45:37Z</time>
      </trkpt>
      <trkpt lat="44.86831" lon="6.70746">
        <ele>1539.2</ele>
        <time>2022-07-19T20:45:38Z</time>
      </trkpt>
      <trkpt lat="44.86829" lon="6.70752">
        <ele>1539.2</ele>
        <time>2022-07-19T20:45:39Z</time>
      </trkpt>
      <trkpt lat="44.86827" lon="6.70758">
        <ele>1538.8</ele>
        <time>2022-07-19T20:45:40Z</time>
      </trkpt>
      <trkpt lat="44.86826" lon="6.70765">
        <ele>1538.8</ele>
        <time>2022-07-19T20:45:41Z</time>
      </trkpt>
      <trkpt lat="44.86824" lon="6.70771">
        <ele>1538.6</ele>
        <time>2022-07-19T20:45:42Z</time>
      </trkpt>
      <trkpt lat="44.86822" lon="6.70778">
        <ele>1538.6</ele>
        <time>2022-07-19T20:45:43Z</time>
      </trkpt>
      <trkpt lat="44.8682" lon="6.70785">
        <ele>1538.4</ele>
        <time>2022-07-19T20:45:44Z</time>
      </trkpt>
      <trkpt lat="44.86818" lon="6.70792">
        <ele>1538.4</ele>
        <time>2022-07-19T20:45:45Z</time>
      </trkpt>
      <trkpt lat="44.86816" lon="6.708">
        <ele>1538</ele>
        <time>2022-07-19T20:45:46Z</time>
      </trkpt>
      <trkpt lat="44.86814" lon="6.70807">
        <ele>1537.8</ele>
        <time>2022-07-19T20:45:47Z</time>
      </trkpt>
      <trkpt lat="44.86811" lon="6.70816">
        <ele>1537.6</ele>
        <time>2022-07-19T20:45:48Z</time>
      </trkpt>
      <trkpt lat="44.86809" lon="6.70824">
        <ele>1537.4</ele>
        <time>2022-07-19T20:45:49Z</time>
      </trkpt>
      <trkpt lat="44.86807" lon="6.70833">
        <ele>1537.2</ele>
        <time>2022-07-19T20:45:50Z</time>
      </trkpt>
      <trkpt lat="44.86805" lon="6.70842">
        <ele>1537.2</ele>
        <time>2022-07-19T20:45:51Z</time>
      </trkpt>
      <trkpt lat="44.86802" lon="6.70852">
        <ele>1536.8</ele>
        <time>2022-07-19T20:45:52Z</time>
      </trkpt>
      <trkpt lat="44.868" lon="6.70861">
        <ele>1536.4</ele>
        <time>2022-07-19T20:45:53Z</time>
      </trkpt>
      <trkpt lat="44.86797" lon="6.70871">
        <ele>1536.2</ele>
        <time>2022-07-19T20:45:54Z</time>
      </trkpt>
      <trkpt lat="44.86794" lon="6.70881">
        <ele>1535.8</ele>
        <time>2022-07-19T20:45:55Z</time>
      </trkpt>
      <trkpt lat="44.86791" lon="6.70891">
        <ele>1535.4</ele>
        <time>2022-07-19T20:45:56Z</time>
      </trkpt>
      <trkpt lat="44.86788" lon="6.70901">
        <ele>1535.2</ele>
        <time>2022-07-19T20:45:57Z</time>
      </trkpt>
      <trkpt lat="44.86784" lon="6.7091">
        <ele>1534.8</ele>
        <time>2022-07-19T20:45:58Z</time>
      </trkpt>
      <trkpt lat="44.86779" lon="6.70919">
        <ele>1534.6</ele>
        <time>2022-07-19T20:45:59Z</time>
      </trkpt>
      <trkpt lat="44.86774" lon="6.70927">
        <ele>1534.2</ele>
        <time>2022-07-19T20:46:00Z</time>
      </trkpt>
      <trkpt lat="44.86769" lon="6.70935">
        <ele>1534</ele>
        <time>2022-07-19T20:46:01Z</time>
      </trkpt>
      <trkpt lat="44.86763" lon="6.70942">
        <ele>1533.8</ele>
        <time>2022-07-19T20:46:02Z</time>
      </trkpt>
      <trkpt lat="44.86758" lon="6.70949">
        <ele>1533.8</ele>
        <time>2022-07-19T20:46:03Z</time>
      </trkpt>
      <trkpt lat="44.86754" lon="6.70957">
        <ele>1533.6</ele>
        <time>2022-07-19T20:46:04Z</time>
      </trkpt>
      <trkpt lat="44.8675" lon="6.70964">
        <ele>1533.6</ele>
        <time>2022-07-19T20:46:05Z</time>
      </trkpt>
      <trkpt lat="44.86747" lon="6.7097">
        <ele>1533.6</ele>
        <time>2022-07-19T20:46:06Z</time>
      </trkpt>
      <trkpt lat="44.86744" lon="6.70977">
        <ele>1533.6</ele>
        <time>2022-07-19T20:46:07Z</time>
      </trkpt>
      <trkpt lat="44.86742" lon="6.70984">
        <ele>1534</ele>
        <time>2022-07-19T20:46:08Z</time>
      </trkpt>
      <trkpt lat="44.86741" lon="6.7099">
        <ele>1534.2</ele>
        <time>2022-07-19T20:46:09Z</time>
      </trkpt>
      <trkpt lat="44.86739" lon="6.70996">
        <ele>1534.4</ele>
        <time>2022-07-19T20:46:10Z</time>
      </trkpt>
      <trkpt lat="44.86738" lon="6.71002">
        <ele>1534.6</ele>
        <time>2022-07-19T20:46:11Z</time>
      </trkpt>
      <trkpt lat="44.86738" lon="6.71008">
        <ele>1534.8</ele>
        <time>2022-07-19T20:46:12Z</time>
      </trkpt>
      <trkpt lat="44.86737" lon="6.71013">
        <ele>1535</ele>
        <time>2022-07-19T20:46:13Z</time>
      </trkpt>
      <trkpt lat="44.86736" lon="6.71017">
        <ele>1535</ele>
        <time>2022-07-19T20:46:14Z</time>
      </trkpt>
      <trkpt lat="44.86735" lon="6.71021">
        <ele>1535.4</ele>
        <time>2022-07-19T20:46:15Z</time>
      </trkpt>
      <trkpt lat="44.86736" lon="6.71025">
        <ele>1535.6</ele>
        <time>2022-07-19T20:46:16Z</time>
      </trkpt>
      <trkpt lat="44.86736" lon="6.7103">
        <ele>1535.6</ele>
        <time>2022-07-19T20:46:17Z</time>
      </trkpt>
      <trkpt lat="44.86737" lon="6.71034">
        <ele>1535.8</ele>
        <time>2022-07-19T20:46:18Z</time>
      </trkpt>
      <trkpt lat="44.86737" lon="6.71038">
        <ele>1535.8</ele>
        <time>2022-07-19T20:46:19Z</time>
      </trkpt>
      <trkpt lat="44.86738" lon="6.71041">
        <ele>1536.2</ele>
        <time>2022-07-19T20:46:20Z</time>
      </trkpt>
      <trkpt lat="44.86739" lon="6.71045">
        <ele>1536.4</ele>
        <time>2022-07-19T20:46:21Z</time>
      </trkpt>
      <trkpt lat="44.86739" lon="6.71049">
        <ele>1536.4</ele>
        <time>2022-07-19T20:46:22Z</time>
      </trkpt>
      <trkpt lat="44.86739" lon="6.71052">
        <ele>1536.8</ele>
        <time>2022-07-19T20:46:23Z</time>
      </trkpt>
      <trkpt lat="44.8674" lon="6.71055">
        <ele>1536.8</ele>
        <time>2022-07-19T20:46:24Z</time>
      </trkpt>
      <trkpt lat="44.8674" lon="6.71059">
        <ele>1537.2</ele>
        <time>2022-07-19T20:46:25Z</time>
      </trkpt>
      <trkpt lat="44.86741" lon="6.71062">
        <ele>1537.2</ele>
        <time>2022-07-19T20:46:26Z</time>
      </trkpt>
      <trkpt lat="44.86742" lon="6.71064">
        <ele>1537.6</ele>
        <time>2022-07-19T20:46:27Z</time>
      </trkpt>
      <trkpt lat="44.86743" lon="6.71067">
        <ele>1537.6</ele>
        <time>2022-07-19T20:46:28Z</time>
      </trkpt>
      <trkpt lat="44.86744" lon="6.7107">
        <ele>1537.8</ele>
        <time>2022-07-19T20:46:29Z</time>
      </trkpt>
      <trkpt lat="44.86745" lon="6.71073">
        <ele>1537.8</ele>
        <time>2022-07-19T20:46:30Z</time>
      </trkpt>
      <trkpt lat="44.86746" lon="6.71076">
        <ele>1538</ele>
        <time>2022-07-19T20:46:31Z</time>
      </trkpt>
      <trkpt lat="44.86747" lon="6.71079">
        <ele>1538</ele>
        <time>2022-07-19T20:46:32Z</time>
      </trkpt>
      <trkpt lat="44.86748" lon="6.71082">
        <ele>1538</ele>
        <time>2022-07-19T20:46:33Z</time>
      </trkpt>
      <trkpt lat="44.86749" lon="6.71085">
        <ele>1538.4</ele>
        <time>2022-07-19T20:46:34Z</time>
      </trkpt>
      <trkpt lat="44.86749" lon="6.71089">
        <ele>1538.4</ele>
        <time>2022-07-19T20:46:35Z</time>
      </trkpt>
      <trkpt lat="44.8675" lon="6.71092">
        <ele>1538.4</ele>
        <time>2022-07-19T20:46:36Z</time>
      </trkpt>
      <trkpt lat="44.8675" lon="6.71095">
        <ele>1538.6</ele>
        <time>2022-07-19T20:46:37Z</time>
      </trkpt>
      <trkpt lat="44.86751" lon="6.71098">
        <ele>1538.6</ele>
        <time>2022-07-19T20:46:38Z</time>
      </trkpt>
      <trkpt lat="44.86751" lon="6.71102">
        <ele>1538.6</ele>
        <time>2022-07-19T20:46:39Z</time>
      </trkpt>
      <trkpt lat="44.86751" lon="6.71105">
        <ele>1539</ele>
        <time>2022-07-19T20:46:40Z</time>
      </trkpt>
      <trkpt lat="44.86752" lon="6.71109">
        <ele>1539</ele>
        <time>2022-07-19T20:46:41Z</time>
      </trkpt>
      <trkpt lat="44.86753" lon="6.71112">
        <ele>1539.2</ele>
        <time>2022-07-19T20:46:42Z</time>
      </trkpt>
      <trkpt lat="44.86754" lon="6.71115">
        <ele>1539.2</ele>
        <time>2022-07-19T20:46:43Z</time>
      </trkpt>
      <trkpt lat="44.86754" lon="6.71118">
        <ele>1539.2</ele>
        <time>2022-07-19T20:46:44Z</time>
      </trkpt>
      <trkpt lat="44.86754" lon="6.71122">
        <ele>1539.6</ele>
        <time>2022-07-19T20:46:45Z</time>
      </trkpt>
      <trkpt lat="44.86755" lon="6.71125">
        <ele>1539.6</ele>
        <time>2022-07-19T20:46:46Z</time>
      </trkpt>
      <trkpt lat="44.86756" lon="6.71128">
        <ele>1539.8</ele>
        <time>2022-07-19T20:46:47Z</time>
      </trkpt>
      <trkpt lat="44.86757" lon="6.71132">
        <ele>1539.8</ele>
        <time>2022-07-19T20:46:48Z</time>
      </trkpt>
      <trkpt lat="44.86757" lon="6.71135">
        <ele>1540</ele>
        <time>2022-07-19T20:46:49Z</time>
      </trkpt>
      <trkpt lat="44.86758" lon="6.71138">
        <ele>1540</ele>
        <time>2022-07-19T20:46:50Z</time>
      </trkpt>
      <trkpt lat="44.86759" lon="6.71142">
        <ele>1540</ele>
        <time>2022-07-19T20:46:51Z</time>
      </trkpt>
      <trkpt lat="44.86759" lon="6.71145">
        <ele>1540.4</ele>
        <time>2022-07-19T20:46:52Z</time>
      </trkpt>
      <trkpt lat="44.8676" lon="6.71148">
        <ele>1540.4</ele>
        <time>2022-07-19T20:46:53Z</time>
      </trkpt>
      <trkpt lat="44.8676" lon="6.71152">
        <ele>1540.4</ele>
        <time>2022-07-19T20:46:54Z</time>
      </trkpt>
      <trkpt lat="44.86761" lon="6.71155">
        <ele>1540.4</ele>
        <time>2022-07-19T20:46:55Z</time>
      </trkpt>
      <trkpt lat="44.86762" lon="6.71159">
        <ele>1540.6</ele>
        <time>2022-07-19T20:46:56Z</time>
      </trkpt>
      <trkpt lat="44.86762" lon="6.71162">
        <ele>1540.6</ele>
        <time>2022-07-19T20:46:57Z</time>
      </trkpt>
      <trkpt lat="44.86763" lon="6.71165">
        <ele>1540.8</ele>
        <time>2022-07-19T20:46:58Z</time>
      </trkpt>
      <trkpt lat="44.86764" lon="6.71168">
        <ele>1540.8</ele>
        <time>2022-07-19T20:46:59Z</time>
      </trkpt>
      <trkpt lat="44.86764" lon="6.71172">
        <ele>1541</ele>
        <time>2022-07-19T20:47:00Z</time>
      </trkpt>
      <trkpt lat="44.86765" lon="6.71175">
        <ele>1541</ele>
        <time>2022-07-19T20:47:01Z</time>
      </trkpt>
      <trkpt lat="44.86765" lon="6.71178">
        <ele>1541.4</ele>
        <time>2022-07-19T20:47:02Z</time>
      </trkpt>
      <trkpt lat="44.86766" lon="6.71181">
        <ele>1541.4</ele>
        <time>2022-07-19T20:47:03Z</time>
      </trkpt>
      <trkpt lat="44.86766" lon="6.71184">
        <ele>1541.8</ele>
        <time>2022-07-19T20:47:04Z</time>
      </trkpt>
      <trkpt lat="44.86767" lon="6.71187">
        <ele>1541.8</ele>
        <time>2022-07-19T20:47:05Z</time>
      </trkpt>
      <trkpt lat="44.86768" lon="6.7119">
        <ele>1542</ele>
        <time>2022-07-19T20:47:06Z</time>
      </trkpt>
      <trkpt lat="44.86768" lon="6.71193">
        <ele>1542</ele>
        <time>2022-07-19T20:47:07Z</time>
      </trkpt>
      <trkpt lat="44.86769" lon="6.71196">
        <ele>1542</ele>
        <time>2022-07-19T20:47:08Z</time>
      </trkpt>
      <trkpt lat="44.8677" lon="6.71199">
        <ele>1542.2</ele>
        <time>2022-07-19T20:47:09Z</time>
      </trkpt>
      <trkpt lat="44.86771" lon="6.71202">
        <ele>1542.2</ele>
        <time>2022-07-19T20:47:10Z</time>
      </trkpt>
      <trkpt lat="44.86772" lon="6.71204">
        <ele>1542.6</ele>
        <time>2022-07-19T20:47:11Z</time>
      </trkpt>
      <trkpt lat="44.86772" lon="6.71207">
        <ele>1542.6</ele>
        <time>2022-07-19T20:47:12Z</time>
      </trkpt>
      <trkpt lat="44.86773" lon="6.7121">
        <ele>1542.8</ele>
        <time>2022-07-19T20:47:13Z</time>
      </trkpt>
      <trkpt lat="44.86774" lon="6.71213">
        <ele>1542.8</ele>
        <time>2022-07-19T20:47:14Z</time>
      </trkpt>
      <trkpt lat="44.86775" lon="6.71216">
        <ele>1543.2</ele>
        <time>2022-07-19T20:47:15Z</time>
      </trkpt>
      <trkpt lat="44.86776" lon="6.71219">
        <ele>1543.2</ele>
        <time>2022-07-19T20:47:16Z</time>
      </trkpt>
      <trkpt lat="44.86778" lon="6.71221">
        <ele>1543.6</ele>
        <time>2022-07-19T20:47:17Z</time>
      </trkpt>
      <trkpt lat="44.86779" lon="6.71224">
        <ele>1543.6</ele>
        <time>2022-07-19T20:47:18Z</time>
      </trkpt>
      <trkpt lat="44.8678" lon="6.71226">
        <ele>1543.8</ele>
        <time>2022-07-19T20:47:19Z</time>
      </trkpt>
      <trkpt lat="44.86781" lon="6.71229">
        <ele>1543.8</ele>
        <time>2022-07-19T20:47:20Z</time>
      </trkpt>
      <trkpt lat="44.86782" lon="6.71231">
        <ele>1544.2</ele>
        <time>2022-07-19T20:47:21Z</time>
      </trkpt>
      <trkpt lat="44.86783" lon="6.71234">
        <ele>1544.2</ele>
        <time>2022-07-19T20:47:22Z</time>
      </trkpt>
      <trkpt lat="44.86783" lon="6.71236">
        <ele>1544.6</ele>
        <time>2022-07-19T20:47:23Z</time>
      </trkpt>
      <trkpt lat="44.86784" lon="6.71239">
        <ele>1544.6</ele>
        <time>2022-07-19T20:47:24Z</time>
      </trkpt>
      <trkpt lat="44.86785" lon="6.71241">
        <ele>1544.8</ele>
        <time>2022-07-19T20:47:25Z</time>
      </trkpt>
      <trkpt lat="44.86786" lon="6.71243">
        <ele>1544.8</ele>
        <time>2022-07-19T20:47:26Z</time>
      </trkpt>
      <trkpt lat="44.86786" lon="6.71246">
        <ele>1545</ele>
        <time>2022-07-19T20:47:27Z</time>
      </trkpt>
      <trkpt lat="44.86787" lon="6.71248">
        <ele>1545</ele>
        <time>2022-07-19T20:47:28Z</time>
      </trkpt>
      <trkpt lat="44.86788" lon="6.71251">
        <ele>1545.4</ele>
        <time>2022-07-19T20:47:29Z</time>
      </trkpt>
      <trkpt lat="44.86789" lon="6.71254">
        <ele>1545.4</ele>
        <time>2022-07-19T20:47:30Z</time>
      </trkpt>
      <trkpt lat="44.86789" lon="6.71256">
        <ele>1545.4</ele>
        <time>2022-07-19T20:47:31Z</time>
      </trkpt>
      <trkpt lat="44.8679" lon="6.71259">
        <ele>1545.6</ele>
        <time>2022-07-19T20:47:32Z</time>
      </trkpt>
      <trkpt lat="44.86791" lon="6.71262">
        <ele>1545.6</ele>
        <time>2022-07-19T20:47:33Z</time>
      </trkpt>
      <trkpt lat="44.86791" lon="6.71265">
        <ele>1545.8</ele>
        <time>2022-07-19T20:47:34Z</time>
      </trkpt>
      <trkpt lat="44.86792" lon="6.71267">
        <ele>1545.8</ele>
        <time>2022-07-19T20:47:35Z</time>
      </trkpt>
      <trkpt lat="44.86792" lon="6.7127">
        <ele>1546.2</ele>
        <time>2022-07-19T20:47:36Z</time>
      </trkpt>
      <trkpt lat="44.86793" lon="6.71273">
        <ele>1546.2</ele>
        <time>2022-07-19T20:47:37Z</time>
      </trkpt>
      <trkpt lat="44.86793" lon="6.71276">
        <ele>1546.4</ele>
        <time>2022-07-19T20:47:38Z</time>
      </trkpt>
      <trkpt lat="44.86793" lon="6.71278">
        <ele>1546.6</ele>
        <time>2022-07-19T20:47:39Z</time>
      </trkpt>
      <trkpt lat="44.86794" lon="6.7128">
        <ele>1546.8</ele>
        <time>2022-07-19T20:47:40Z</time>
      </trkpt>
      <trkpt lat="44.86794" lon="6.71283">
        <ele>1546.8</ele>
        <time>2022-07-19T20:47:41Z</time>
      </trkpt>
      <trkpt lat="44.86795" lon="6.71285">
        <ele>1547.2</ele>
        <time>2022-07-19T20:47:42Z</time>
      </trkpt>
      <trkpt lat="44.86795" lon="6.71287">
        <ele>1547.4</ele>
        <time>2022-07-19T20:47:43Z</time>
      </trkpt>
      <trkpt lat="44.86795" lon="6.7129">
        <ele>1547.4</ele>
        <time>2022-07-19T20:47:44Z</time>
      </trkpt>
      <trkpt lat="44.86796" lon="6.71292">
        <ele>1547.8</ele>
        <time>2022-07-19T20:47:45Z</time>
      </trkpt>
      <trkpt lat="44.86796" lon="6.71295">
        <ele>1547.8</ele>
        <time>2022-07-19T20:47:46Z</time>
      </trkpt>
      <trkpt lat="44.86796" lon="6.71298">
        <ele>1548.2</ele>
        <time>2022-07-19T20:47:47Z</time>
      </trkpt>
      <trkpt lat="44.86797" lon="6.713">
        <ele>1548.2</ele>
        <time>2022-07-19T20:47:48Z</time>
      </trkpt>
      <trkpt lat="44.86797" lon="6.71302">
        <ele>1548.4</ele>
        <time>2022-07-19T20:47:49Z</time>
      </trkpt>
      <trkpt lat="44.86798" lon="6.71305">
        <ele>1548.4</ele>
        <time>2022-07-19T20:47:50Z</time>
      </trkpt>
      <trkpt lat="44.86798" lon="6.71308">
        <ele>1548.4</ele>
        <time>2022-07-19T20:47:51Z</time>
      </trkpt>
      <trkpt lat="44.86799" lon="6.71311">
        <ele>1548.8</ele>
        <time>2022-07-19T20:47:52Z</time>
      </trkpt>
      <trkpt lat="44.86799" lon="6.71313">
        <ele>1548.8</ele>
        <time>2022-07-19T20:47:53Z</time>
      </trkpt>
      <trkpt lat="44.86799" lon="6.71316">
        <ele>1549</ele>
        <time>2022-07-19T20:47:54Z</time>
      </trkpt>
      <trkpt lat="44.868" lon="6.71319">
        <ele>1549.2</ele>
        <time>2022-07-19T20:47:56Z</time>
      </trkpt>
      <trkpt lat="44.868" lon="6.71322">
        <ele>1549.2</ele>
        <time>2022-07-19T20:47:57Z</time>
      </trkpt>
      <trkpt lat="44.86801" lon="6.71325">
        <ele>1549.2</ele>
        <time>2022-07-19T20:47:58Z</time>
      </trkpt>
      <trkpt lat="44.86801" lon="6.71328">
        <ele>1549.4</ele>
        <time>2022-07-19T20:47:59Z</time>
      </trkpt>
      <trkpt lat="44.86802" lon="6.7133">
        <ele>1549.4</ele>
        <time>2022-07-19T20:48:00Z</time>
      </trkpt>
      <trkpt lat="44.86803" lon="6.71333">
        <ele>1549.4</ele>
        <time>2022-07-19T20:48:01Z</time>
      </trkpt>
      <trkpt lat="44.86803" lon="6.71336">
        <ele>1549.8</ele>
        <time>2022-07-19T20:48:02Z</time>
      </trkpt>
      <trkpt lat="44.86804" lon="6.71339">
        <ele>1549.8</ele>
        <time>2022-07-19T20:48:03Z</time>
      </trkpt>
      <trkpt lat="44.86804" lon="6.71343">
        <ele>1549.8</ele>
        <time>2022-07-19T20:48:04Z</time>
      </trkpt>
      <trkpt lat="44.86804" lon="6.71346">
        <ele>1549.8</ele>
        <time>2022-07-19T20:48:05Z</time>
      </trkpt>
      <trkpt lat="44.86804" lon="6.7135">
        <ele>1550</ele>
        <time>2022-07-19T20:48:06Z</time>
      </trkpt>
      <trkpt lat="44.86804" lon="6.71353">
        <ele>1550</ele>
        <time>2022-07-19T20:48:07Z</time>
      </trkpt>
      <trkpt lat="44.86805" lon="6.71356">
        <ele>1550</ele>
        <time>2022-07-19T20:48:08Z</time>
      </trkpt>
      <trkpt lat="44.86805" lon="6.71359">
        <ele>1550.4</ele>
        <time>2022-07-19T20:48:09Z</time>
      </trkpt>
      <trkpt lat="44.86805" lon="6.71363">
        <ele>1550.4</ele>
        <time>2022-07-19T20:48:10Z</time>
      </trkpt>
      <trkpt lat="44.86804" lon="6.71366">
        <ele>1550.4</ele>
        <time>2022-07-19T20:48:11Z</time>
      </trkpt>
      <trkpt lat="44.86804" lon="6.71369">
        <ele>1550.6</ele>
        <time>2022-07-19T20:48:12Z</time>
      </trkpt>
      <trkpt lat="44.86803" lon="6.71372">
        <ele>1550.6</ele>
        <time>2022-07-19T20:48:13Z</time>
      </trkpt>
      <trkpt lat="44.86803" lon="6.71375">
        <ele>1550.8</ele>
        <time>2022-07-19T20:48:14Z</time>
      </trkpt>
      <trkpt lat="44.86802" lon="6.71378">
        <ele>1550.8</ele>
        <time>2022-07-19T20:48:15Z</time>
      </trkpt>
      <trkpt lat="44.86802" lon="6.71381">
        <ele>1551</ele>
        <time>2022-07-19T20:48:16Z</time>
      </trkpt>
      <trkpt lat="44.86802" lon="6.71384">
        <ele>1551</ele>
        <time>2022-07-19T20:48:17Z</time>
      </trkpt>
      <trkpt lat="44.86801" lon="6.71387">
        <ele>1551</ele>
        <time>2022-07-19T20:48:18Z</time>
      </trkpt>
      <trkpt lat="44.86801" lon="6.7139">
        <ele>1551.2</ele>
        <time>2022-07-19T20:48:19Z</time>
      </trkpt>
      <trkpt lat="44.868" lon="6.71393">
        <ele>1551.2</ele>
        <time>2022-07-19T20:48:20Z</time>
      </trkpt>
      <trkpt lat="44.868" lon="6.71396">
        <ele>1551.4</ele>
        <time>2022-07-19T20:48:21Z</time>
      </trkpt>
      <trkpt lat="44.86799" lon="6.71399">
        <ele>1551.4</ele>
        <time>2022-07-19T20:48:22Z</time>
      </trkpt>
      <trkpt lat="44.86799" lon="6.71402">
        <ele>1551.6</ele>
        <time>2022-07-19T20:48:23Z</time>
      </trkpt>
      <trkpt lat="44.86798" lon="6.71405">
        <ele>1551.6</ele>
        <time>2022-07-19T20:48:24Z</time>
      </trkpt>
      <trkpt lat="44.86798" lon="6.71408">
        <ele>1551.8</ele>
        <time>2022-07-19T20:48:25Z</time>
      </trkpt>
      <trkpt lat="44.86797" lon="6.7141">
        <ele>1551.8</ele>
        <time>2022-07-19T20:48:26Z</time>
      </trkpt>
      <trkpt lat="44.86796" lon="6.71413">
        <ele>1552.2</ele>
        <time>2022-07-19T20:48:27Z</time>
      </trkpt>
      <trkpt lat="44.86795" lon="6.71415">
        <ele>1552.4</ele>
        <time>2022-07-19T20:48:28Z</time>
      </trkpt>
      <trkpt lat="44.86794" lon="6.71418">
        <ele>1552.4</ele>
        <time>2022-07-19T20:48:29Z</time>
      </trkpt>
      <trkpt lat="44.86794" lon="6.71421">
        <ele>1552.6</ele>
        <time>2022-07-19T20:48:30Z</time>
      </trkpt>
      <trkpt lat="44.86793" lon="6.71424">
        <ele>1552.6</ele>
        <time>2022-07-19T20:48:31Z</time>
      </trkpt>
      <trkpt lat="44.86792" lon="6.71426">
        <ele>1553</ele>
        <time>2022-07-19T20:48:32Z</time>
      </trkpt>
      <trkpt lat="44.86792" lon="6.71429">
        <ele>1553</ele>
        <time>2022-07-19T20:48:33Z</time>
      </trkpt>
      <trkpt lat="44.86791" lon="6.71431">
        <ele>1553.2</ele>
        <time>2022-07-19T20:48:34Z</time>
      </trkpt>
      <trkpt lat="44.8679" lon="6.71434">
        <ele>1553.2</ele>
        <time>2022-07-19T20:48:35Z</time>
      </trkpt>
      <trkpt lat="44.86789" lon="6.71436">
        <ele>1553.2</ele>
        <time>2022-07-19T20:48:36Z</time>
      </trkpt>
      <trkpt lat="44.86788" lon="6.71439">
        <ele>1553.4</ele>
        <time>2022-07-19T20:48:37Z</time>
      </trkpt>
      <trkpt lat="44.86788" lon="6.71441">
        <ele>1553.4</ele>
        <time>2022-07-19T20:48:38Z</time>
      </trkpt>
      <trkpt lat="44.86787" lon="6.71444">
        <ele>1553.6</ele>
        <time>2022-07-19T20:48:39Z</time>
      </trkpt>
      <trkpt lat="44.86786" lon="6.71446">
        <ele>1553.6</ele>
        <time>2022-07-19T20:48:40Z</time>
      </trkpt>
      <trkpt lat="44.86785" lon="6.71449">
        <ele>1553.8</ele>
        <time>2022-07-19T20:48:41Z</time>
      </trkpt>
      <trkpt lat="44.86784" lon="6.71452">
        <ele>1553.8</ele>
        <time>2022-07-19T20:48:42Z</time>
      </trkpt>
      <trkpt lat="44.86783" lon="6.71455">
        <ele>1553.8</ele>
        <time>2022-07-19T20:48:43Z</time>
      </trkpt>
      <trkpt lat="44.86783" lon="6.71458">
        <ele>1554</ele>
        <time>2022-07-19T20:48:44Z</time>
      </trkpt>
      <trkpt lat="44.86782" lon="6.71461">
        <ele>1554</ele>
        <time>2022-07-19T20:48:45Z</time>
      </trkpt>
      <trkpt lat="44.86781" lon="6.71464">
        <ele>1554.4</ele>
        <time>2022-07-19T20:48:46Z</time>
      </trkpt>
      <trkpt lat="44.86781" lon="6.71468">
        <ele>1554.4</ele>
        <time>2022-07-19T20:48:47Z</time>
      </trkpt>
      <trkpt lat="44.8678" lon="6.71471">
        <ele>1554.6</ele>
        <time>2022-07-19T20:48:48Z</time>
      </trkpt>
      <trkpt lat="44.86779" lon="6.71474">
        <ele>1554.6</ele>
        <time>2022-07-19T20:48:49Z</time>
      </trkpt>
      <trkpt lat="44.86778" lon="6.71477">
        <ele>1554.6</ele>
        <time>2022-07-19T20:48:50Z</time>
      </trkpt>
      <trkpt lat="44.86777" lon="6.7148">
        <ele>1554.8</ele>
        <time>2022-07-19T20:48:51Z</time>
      </trkpt>
      <trkpt lat="44.86776" lon="6.71483">
        <ele>1554.8</ele>
        <time>2022-07-19T20:48:52Z</time>
      </trkpt>
      <trkpt lat="44.86775" lon="6.71486">
        <ele>1555.2</ele>
        <time>2022-07-19T20:48:53Z</time>
      </trkpt>
      <trkpt lat="44.86774" lon="6.71489">
        <ele>1555.2</ele>
        <time>2022-07-19T20:48:54Z</time>
      </trkpt>
      <trkpt lat="44.86773" lon="6.71493">
        <ele>1555.4</ele>
        <time>2022-07-19T20:48:55Z</time>
      </trkpt>
      <trkpt lat="44.86772" lon="6.71496">
        <ele>1555.4</ele>
        <time>2022-07-19T20:48:56Z</time>
      </trkpt>
      <trkpt lat="44.86771" lon="6.71499">
        <ele>1555.8</ele>
        <time>2022-07-19T20:48:57Z</time>
      </trkpt>
      <trkpt lat="44.86771" lon="6.71502">
        <ele>1555.8</ele>
        <time>2022-07-19T20:48:58Z</time>
      </trkpt>
      <trkpt lat="44.8677" lon="6.71506">
        <ele>1556</ele>
        <time>2022-07-19T20:48:59Z</time>
      </trkpt>
      <trkpt lat="44.86769" lon="6.71509">
        <ele>1556</ele>
        <time>2022-07-19T20:49:00Z</time>
      </trkpt>
      <trkpt lat="44.86768" lon="6.71513">
        <ele>1556.2</ele>
        <time>2022-07-19T20:49:01Z</time>
      </trkpt>
      <trkpt lat="44.86768" lon="6.71516">
        <ele>1556.2</ele>
        <time>2022-07-19T20:49:02Z</time>
      </trkpt>
      <trkpt lat="44.86767" lon="6.7152">
        <ele>1556.2</ele>
        <time>2022-07-19T20:49:03Z</time>
      </trkpt>
      <trkpt lat="44.86766" lon="6.71523">
        <ele>1556.4</ele>
        <time>2022-07-19T20:49:04Z</time>
      </trkpt>
      <trkpt lat="44.86766" lon="6.71527">
        <ele>1556.4</ele>
        <time>2022-07-19T20:49:05Z</time>
      </trkpt>
      <trkpt lat="44.86766" lon="6.71531">
        <ele>1556.6</ele>
        <time>2022-07-19T20:49:06Z</time>
      </trkpt>
      <trkpt lat="44.86766" lon="6.71534">
        <ele>1556.6</ele>
        <time>2022-07-19T20:49:07Z</time>
      </trkpt>
      <trkpt lat="44.86765" lon="6.71538">
        <ele>1556.6</ele>
        <time>2022-07-19T20:49:08Z</time>
      </trkpt>
      <trkpt lat="44.86764" lon="6.71541">
        <ele>1557</ele>
        <time>2022-07-19T20:49:09Z</time>
      </trkpt>
      <trkpt lat="44.86764" lon="6.71545">
        <ele>1557</ele>
        <time>2022-07-19T20:49:10Z</time>
      </trkpt>
      <trkpt lat="44.86764" lon="6.71549">
        <ele>1557</ele>
        <time>2022-07-19T20:49:11Z</time>
      </trkpt>
      <trkpt lat="44.86764" lon="6.71552">
        <ele>1557.2</ele>
        <time>2022-07-19T20:49:12Z</time>
      </trkpt>
      <trkpt lat="44.86764" lon="6.71556">
        <ele>1557.2</ele>
        <time>2022-07-19T20:49:13Z</time>
      </trkpt>
      <trkpt lat="44.86764" lon="6.7156">
        <ele>1557.6</ele>
        <time>2022-07-19T20:49:14Z</time>
      </trkpt>
      <trkpt lat="44.86763" lon="6.71563">
        <ele>1557.6</ele>
        <time>2022-07-19T20:49:15Z</time>
      </trkpt>
      <trkpt lat="44.86763" lon="6.71567">
        <ele>1557.8</ele>
        <time>2022-07-19T20:49:16Z</time>
      </trkpt>
      <trkpt lat="44.86763" lon="6.7157">
        <ele>1557.8</ele>
        <time>2022-07-19T20:49:17Z</time>
      </trkpt>
      <trkpt lat="44.86763" lon="6.71573">
        <ele>1557.8</ele>
        <time>2022-07-19T20:49:18Z</time>
      </trkpt>
      <trkpt lat="44.86763" lon="6.71577">
        <ele>1557.8</ele>
        <time>2022-07-19T20:49:19Z</time>
      </trkpt>
      <trkpt lat="44.86763" lon="6.7158">
        <ele>1558.2</ele>
        <time>2022-07-19T20:49:20Z</time>
      </trkpt>
      <trkpt lat="44.86763" lon="6.71583">
        <ele>1558.2</ele>
        <time>2022-07-19T20:49:21Z</time>
      </trkpt>
      <trkpt lat="44.86763" lon="6.71587">
        <ele>1558.4</ele>
        <time>2022-07-19T20:49:22Z</time>
      </trkpt>
      <trkpt lat="44.86763" lon="6.7159">
        <ele>1558.4</ele>
        <time>2022-07-19T20:49:23Z</time>
      </trkpt>
      <trkpt lat="44.86763" lon="6.71594">
        <ele>1558.8</ele>
        <time>2022-07-19T20:49:24Z</time>
      </trkpt>
      <trkpt lat="44.86763" lon="6.71598">
        <ele>1558.8</ele>
        <time>2022-07-19T20:49:25Z</time>
      </trkpt>
      <trkpt lat="44.86763" lon="6.71601">
        <ele>1559</ele>
        <time>2022-07-19T20:49:26Z</time>
      </trkpt>
      <trkpt lat="44.86764" lon="6.71605">
        <ele>1559</ele>
        <time>2022-07-19T20:49:27Z</time>
      </trkpt>
      <trkpt lat="44.86764" lon="6.71608">
        <ele>1559.2</ele>
        <time>2022-07-19T20:49:28Z</time>
      </trkpt>
      <trkpt lat="44.86764" lon="6.71612">
        <ele>1559.2</ele>
        <time>2022-07-19T20:49:29Z</time>
      </trkpt>
      <trkpt lat="44.86764" lon="6.71615">
        <ele>1559.4</ele>
        <time>2022-07-19T20:49:30Z</time>
      </trkpt>
      <trkpt lat="44.86765" lon="6.71619">
        <ele>1559.4</ele>
        <time>2022-07-19T20:49:31Z</time>
      </trkpt>
      <trkpt lat="44.86765" lon="6.71622">
        <ele>1559.6</ele>
        <time>2022-07-19T20:49:32Z</time>
      </trkpt>
      <trkpt lat="44.86766" lon="6.71626">
        <ele>1559.6</ele>
        <time>2022-07-19T20:49:33Z</time>
      </trkpt>
      <trkpt lat="44.86766" lon="6.7163">
        <ele>1560</ele>
        <time>2022-07-19T20:49:34Z</time>
      </trkpt>
      <trkpt lat="44.86766" lon="6.71633">
        <ele>1560</ele>
        <time>2022-07-19T20:49:35Z</time>
      </trkpt>
      <trkpt lat="44.86767" lon="6.71637">
        <ele>1560.2</ele>
        <time>2022-07-19T20:49:36Z</time>
      </trkpt>
      <trkpt lat="44.86767" lon="6.7164">
        <ele>1560.2</ele>
        <time>2022-07-19T20:49:37Z</time>
      </trkpt>
      <trkpt lat="44.86768" lon="6.71644">
        <ele>1560.6</ele>
        <time>2022-07-19T20:49:38Z</time>
      </trkpt>
      <trkpt lat="44.86768" lon="6.71647">
        <ele>1560.6</ele>
        <time>2022-07-19T20:49:39Z</time>
      </trkpt>
      <trkpt lat="44.86769" lon="6.71651">
        <ele>1560.8</ele>
        <time>2022-07-19T20:49:40Z</time>
      </trkpt>
      <trkpt lat="44.86769" lon="6.71654">
        <ele>1560.8</ele>
        <time>2022-07-19T20:49:41Z</time>
      </trkpt>
      <trkpt lat="44.8677" lon="6.71658">
        <ele>1561</ele>
        <time>2022-07-19T20:49:42Z</time>
      </trkpt>
      <trkpt lat="44.8677" lon="6.71661">
        <ele>1561</ele>
        <time>2022-07-19T20:49:43Z</time>
      </trkpt>
      <trkpt lat="44.86771" lon="6.71665">
        <ele>1561</ele>
        <time>2022-07-19T20:49:44Z</time>
      </trkpt>
      <trkpt lat="44.86772" lon="6.71668">
        <ele>1561.2</ele>
        <time>2022-07-19T20:49:45Z</time>
      </trkpt>
      <trkpt lat="44.86773" lon="6.71672">
        <ele>1561.2</ele>
        <time>2022-07-19T20:49:46Z</time>
      </trkpt>
      <trkpt lat="44.86773" lon="6.71675">
        <ele>1561.4</ele>
        <time>2022-07-19T20:49:47Z</time>
      </trkpt>
      <trkpt lat="44.86774" lon="6.71678">
        <ele>1561.4</ele>
        <time>2022-07-19T20:49:48Z</time>
      </trkpt>
      <trkpt lat="44.86774" lon="6.71682">
        <ele>1561.4</ele>
        <time>2022-07-19T20:49:49Z</time>
      </trkpt>
      <trkpt lat="44.86775" lon="6.71685">
        <ele>1561.8</ele>
        <time>2022-07-19T20:49:50Z</time>
      </trkpt>
      <trkpt lat="44.86776" lon="6.71688">
        <ele>1561.8</ele>
        <time>2022-07-19T20:49:51Z</time>
      </trkpt>
      <trkpt lat="44.86777" lon="6.71691">
        <ele>1561.8</ele>
        <time>2022-07-19T20:49:52Z</time>
      </trkpt>
      <trkpt lat="44.86777" lon="6.71695">
        <ele>1562.2</ele>
        <time>2022-07-19T20:49:53Z</time>
      </trkpt>
      <trkpt lat="44.86777" lon="6.71698">
        <ele>1562.2</ele>
        <time>2022-07-19T20:49:54Z</time>
      </trkpt>
      <trkpt lat="44.86778" lon="6.71701">
        <ele>1562.4</ele>
        <time>2022-07-19T20:49:55Z</time>
      </trkpt>
      <trkpt lat="44.86779" lon="6.71704">
        <ele>1562.4</ele>
        <time>2022-07-19T20:49:56Z</time>
      </trkpt>
      <trkpt lat="44.8678" lon="6.71707">
        <ele>1562.6</ele>
        <time>2022-07-19T20:49:57Z</time>
      </trkpt>
      <trkpt lat="44.86781" lon="6.71709">
        <ele>1562.6</ele>
        <time>2022-07-19T20:49:58Z</time>
      </trkpt>
      <trkpt lat="44.86781" lon="6.71712">
        <ele>1562.6</ele>
        <time>2022-07-19T20:49:59Z</time>
      </trkpt>
      <trkpt lat="44.86781" lon="6.71716">
        <ele>1563</ele>
        <time>2022-07-19T20:50:00Z</time>
      </trkpt>
      <trkpt lat="44.86782" lon="6.71719">
        <ele>1563</ele>
        <time>2022-07-19T20:50:01Z</time>
      </trkpt>
      <trkpt lat="44.86783" lon="6.71722">
        <ele>1563.2</ele>
        <time>2022-07-19T20:50:02Z</time>
      </trkpt>
      <trkpt lat="44.86784" lon="6.71725">
        <ele>1563.2</ele>
        <time>2022-07-19T20:50:03Z</time>
      </trkpt>
      <trkpt lat="44.86784" lon="6.71727">
        <ele>1563.6</ele>
        <time>2022-07-19T20:50:04Z</time>
      </trkpt>
      <trkpt lat="44.86786" lon="6.7173">
        <ele>1563.6</ele>
        <time>2022-07-19T20:50:05Z</time>
      </trkpt>
      <trkpt lat="44.86787" lon="6.71732">
        <ele>1563.8</ele>
        <time>2022-07-19T20:50:06Z</time>
      </trkpt>
      <trkpt lat="44.86788" lon="6.71735">
        <ele>1563.8</ele>
        <time>2022-07-19T20:50:07Z</time>
      </trkpt>
      <trkpt lat="44.86788" lon="6.71738">
        <ele>1564</ele>
        <time>2022-07-19T20:50:08Z</time>
      </trkpt>
      <trkpt lat="44.86789" lon="6.71741">
        <ele>1564</ele>
        <time>2022-07-19T20:50:09Z</time>
      </trkpt>
      <trkpt lat="44.8679" lon="6.71744">
        <ele>1564</ele>
        <time>2022-07-19T20:50:10Z</time>
      </trkpt>
      <trkpt lat="44.86791" lon="6.71747">
        <ele>1564</ele>
        <time>2022-07-19T20:50:11Z</time>
      </trkpt>
      <trkpt lat="44.86792" lon="6.7175">
        <ele>1564.4</ele>
        <time>2022-07-19T20:50:12Z</time>
      </trkpt>
      <trkpt lat="44.86792" lon="6.71753">
        <ele>1564.4</ele>
        <time>2022-07-19T20:50:13Z</time>
      </trkpt>
      <trkpt lat="44.86794" lon="6.71756">
        <ele>1564.6</ele>
        <time>2022-07-19T20:50:14Z</time>
      </trkpt>
      <trkpt lat="44.86795" lon="6.71758">
        <ele>1564.6</ele>
        <time>2022-07-19T20:50:15Z</time>
      </trkpt>
      <trkpt lat="44.86796" lon="6.71761">
        <ele>1564.8</ele>
        <time>2022-07-19T20:50:16Z</time>
      </trkpt>
      <trkpt lat="44.86797" lon="6.71764">
        <ele>1564.8</ele>
        <time>2022-07-19T20:50:17Z</time>
      </trkpt>
      <trkpt lat="44.86798" lon="6.71767">
        <ele>1565.2</ele>
        <time>2022-07-19T20:50:18Z</time>
      </trkpt>
      <trkpt lat="44.868" lon="6.71769">
        <ele>1565.2</ele>
        <time>2022-07-19T20:50:19Z</time>
      </trkpt>
      <trkpt lat="44.86801" lon="6.71772">
        <ele>1565.4</ele>
        <time>2022-07-19T20:50:20Z</time>
      </trkpt>
      <trkpt lat="44.86801" lon="6.71775">
        <ele>1565.4</ele>
        <time>2022-07-19T20:50:21Z</time>
      </trkpt>
      <trkpt lat="44.86802" lon="6.71778">
        <ele>1565.6</ele>
        <time>2022-07-19T20:50:22Z</time>
      </trkpt>
      <trkpt lat="44.86804" lon="6.71781">
        <ele>1565.8</ele>
        <time>2022-07-19T20:50:23Z</time>
      </trkpt>
      <trkpt lat="44.86805" lon="6.71784">
        <ele>1565.8</ele>
        <time>2022-07-19T20:50:24Z</time>
      </trkpt>
      <trkpt lat="44.86805" lon="6.71787">
        <ele>1566.2</ele>
        <time>2022-07-19T20:50:25Z</time>
      </trkpt>
      <trkpt lat="44.86806" lon="6.7179">
        <ele>1566.4</ele>
        <time>2022-07-19T20:50:26Z</time>
      </trkpt>
      <trkpt lat="44.86807" lon="6.71793">
        <ele>1566.4</ele>
        <time>2022-07-19T20:50:27Z</time>
      </trkpt>
      <trkpt lat="44.86808" lon="6.71796">
        <ele>1566.8</ele>
        <time>2022-07-19T20:50:28Z</time>
      </trkpt>
      <trkpt lat="44.86809" lon="6.71799">
        <ele>1566.8</ele>
        <time>2022-07-19T20:50:29Z</time>
      </trkpt>
      <trkpt lat="44.8681" lon="6.71801">
        <ele>1567</ele>
        <time>2022-07-19T20:50:30Z</time>
      </trkpt>
      <trkpt lat="44.86811" lon="6.71804">
        <ele>1567</ele>
        <time>2022-07-19T20:50:31Z</time>
      </trkpt>
      <trkpt lat="44.86812" lon="6.71806">
        <ele>1567.2</ele>
        <time>2022-07-19T20:50:32Z</time>
      </trkpt>
      <trkpt lat="44.86812" lon="6.71809">
        <ele>1567.2</ele>
        <time>2022-07-19T20:50:33Z</time>
      </trkpt>
      <trkpt lat="44.86813" lon="6.71812">
        <ele>1567.6</ele>
        <time>2022-07-19T20:50:34Z</time>
      </trkpt>
      <trkpt lat="44.86814" lon="6.71815">
        <ele>1567.6</ele>
        <time>2022-07-19T20:50:35Z</time>
      </trkpt>
      <trkpt lat="44.86814" lon="6.71817">
        <ele>1567.8</ele>
        <time>2022-07-19T20:50:36Z</time>
      </trkpt>
      <trkpt lat="44.86815" lon="6.7182">
        <ele>1567.8</ele>
        <time>2022-07-19T20:50:37Z</time>
      </trkpt>
      <trkpt lat="44.86816" lon="6.71822">
        <ele>1568</ele>
        <time>2022-07-19T20:50:38Z</time>
      </trkpt>
      <trkpt lat="44.86817" lon="6.71825">
        <ele>1568</ele>
        <time>2022-07-19T20:50:39Z</time>
      </trkpt>
      <trkpt lat="44.86817" lon="6.71827">
        <ele>1568.2</ele>
        <time>2022-07-19T20:50:40Z</time>
      </trkpt>
      <trkpt lat="44.86818" lon="6.7183">
        <ele>1568.2</ele>
        <time>2022-07-19T20:50:41Z</time>
      </trkpt>
      <trkpt lat="44.86819" lon="6.71832">
        <ele>1568.6</ele>
        <time>2022-07-19T20:50:42Z</time>
      </trkpt>
      <trkpt lat="44.8682" lon="6.71835">
        <ele>1568.6</ele>
        <time>2022-07-19T20:50:43Z</time>
      </trkpt>
      <trkpt lat="44.86821" lon="6.71837">
        <ele>1568.8</ele>
        <time>2022-07-19T20:50:44Z</time>
      </trkpt>
      <trkpt lat="44.86822" lon="6.7184">
        <ele>1568.8</ele>
        <time>2022-07-19T20:50:45Z</time>
      </trkpt>
      <trkpt lat="44.86823" lon="6.71842">
        <ele>1569.2</ele>
        <time>2022-07-19T20:50:46Z</time>
      </trkpt>
      <trkpt lat="44.86824" lon="6.71845">
        <ele>1569.2</ele>
        <time>2022-07-19T20:50:47Z</time>
      </trkpt>
      <trkpt lat="44.86825" lon="6.71847">
        <ele>1569.4</ele>
        <time>2022-07-19T20:50:48Z</time>
      </trkpt>
      <trkpt lat="44.86826" lon="6.7185">
        <ele>1569.4</ele>
        <time>2022-07-19T20:50:49Z</time>
      </trkpt>
      <trkpt lat="44.86826" lon="6.71853">
        <ele>1569.8</ele>
        <time>2022-07-19T20:50:50Z</time>
      </trkpt>
      <trkpt lat="44.86827" lon="6.71856">
        <ele>1569.8</ele>
        <time>2022-07-19T20:50:51Z</time>
      </trkpt>
      <trkpt lat="44.86828" lon="6.71858">
        <ele>1569.8</ele>
        <time>2022-07-19T20:50:52Z</time>
      </trkpt>
      <trkpt lat="44.86829" lon="6.71861">
        <ele>1570</ele>
        <time>2022-07-19T20:50:53Z</time>
      </trkpt>
      <trkpt lat="44.8683" lon="6.71864">
        <ele>1570</ele>
        <time>2022-07-19T20:50:54Z</time>
      </trkpt>
      <trkpt lat="44.86831" lon="6.71866">
        <ele>1570.4</ele>
        <time>2022-07-19T20:50:55Z</time>
      </trkpt>
      <trkpt lat="44.86832" lon="6.71868">
        <ele>1570.4</ele>
        <time>2022-07-19T20:50:56Z</time>
      </trkpt>
      <trkpt lat="44.86833" lon="6.71871">
        <ele>1570.6</ele>
        <time>2022-07-19T20:50:57Z</time>
      </trkpt>
      <trkpt lat="44.86834" lon="6.71873">
        <ele>1570.6</ele>
        <time>2022-07-19T20:50:58Z</time>
      </trkpt>
      <trkpt lat="44.86834" lon="6.71876">
        <ele>1570.8</ele>
        <time>2022-07-19T20:50:59Z</time>
      </trkpt>
      <trkpt lat="44.86835" lon="6.71879">
        <ele>1570.8</ele>
        <time>2022-07-19T20:51:00Z</time>
      </trkpt>
      <trkpt lat="44.86836" lon="6.71881">
        <ele>1571</ele>
        <time>2022-07-19T20:51:01Z</time>
      </trkpt>
      <trkpt lat="44.86837" lon="6.71884">
        <ele>1571</ele>
        <time>2022-07-19T20:51:02Z</time>
      </trkpt>
      <trkpt lat="44.86838" lon="6.71887">
        <ele>1571.4</ele>
        <time>2022-07-19T20:51:03Z</time>
      </trkpt>
      <trkpt lat="44.86839" lon="6.71889">
        <ele>1571.4</ele>
        <time>2022-07-19T20:51:04Z</time>
      </trkpt>
      <trkpt lat="44.8684" lon="6.71892">
        <ele>1571.6</ele>
        <time>2022-07-19T20:51:05Z</time>
      </trkpt>
      <trkpt lat="44.86842" lon="6.71894">
        <ele>1571.6</ele>
        <time>2022-07-19T20:51:06Z</time>
      </trkpt>
      <trkpt lat="44.86843" lon="6.71897">
        <ele>1571.8</ele>
        <time>2022-07-19T20:51:07Z</time>
      </trkpt>
      <trkpt lat="44.86844" lon="6.71899">
        <ele>1571.8</ele>
        <time>2022-07-19T20:51:08Z</time>
      </trkpt>
      <trkpt lat="44.86845" lon="6.71901">
        <ele>1571.8</ele>
        <time>2022-07-19T20:51:09Z</time>
      </trkpt>
      <trkpt lat="44.86846" lon="6.71904">
        <ele>1572</ele>
        <time>2022-07-19T20:51:10Z</time>
      </trkpt>
      <trkpt lat="44.86847" lon="6.71907">
        <ele>1572</ele>
        <time>2022-07-19T20:51:11Z</time>
      </trkpt>
      <trkpt lat="44.86848" lon="6.71909">
        <ele>1572</ele>
        <time>2022-07-19T20:51:12Z</time>
      </trkpt>
      <trkpt lat="44.86849" lon="6.71912">
        <ele>1572.4</ele>
        <time>2022-07-19T20:51:13Z</time>
      </trkpt>
      <trkpt lat="44.8685" lon="6.71914">
        <ele>1572.4</ele>
        <time>2022-07-19T20:51:14Z</time>
      </trkpt>
      <trkpt lat="44.86851" lon="6.71917">
        <ele>1572.4</ele>
        <time>2022-07-19T20:51:15Z</time>
      </trkpt>
      <trkpt lat="44.86852" lon="6.7192">
        <ele>1572.6</ele>
        <time>2022-07-19T20:51:16Z</time>
      </trkpt>
      <trkpt lat="44.86853" lon="6.71922">
        <ele>1572.6</ele>
        <time>2022-07-19T20:51:17Z</time>
      </trkpt>
      <trkpt lat="44.86854" lon="6.71925">
        <ele>1572.8</ele>
        <time>2022-07-19T20:51:18Z</time>
      </trkpt>
      <trkpt lat="44.86855" lon="6.71928">
        <ele>1572.8</ele>
        <time>2022-07-19T20:51:19Z</time>
      </trkpt>
      <trkpt lat="44.86856" lon="6.7193">
        <ele>1573</ele>
        <time>2022-07-19T20:51:20Z</time>
      </trkpt>
      <trkpt lat="44.86857" lon="6.71933">
        <ele>1573</ele>
        <time>2022-07-19T20:51:21Z</time>
      </trkpt>
      <trkpt lat="44.86858" lon="6.71936">
        <ele>1573</ele>
        <time>2022-07-19T20:51:22Z</time>
      </trkpt>
      <trkpt lat="44.86859" lon="6.71939">
        <ele>1573</ele>
        <time>2022-07-19T20:51:23Z</time>
      </trkpt>
      <trkpt lat="44.8686" lon="6.71942">
        <ele>1573.2</ele>
        <time>2022-07-19T20:51:24Z</time>
      </trkpt>
      <trkpt lat="44.86862" lon="6.71946">
        <ele>1573.2</ele>
        <time>2022-07-19T20:51:25Z</time>
      </trkpt>
      <trkpt lat="44.86863" lon="6.71949">
        <ele>1573.2</ele>
        <time>2022-07-19T20:51:26Z</time>
      </trkpt>
      <trkpt lat="44.86863" lon="6.71954">
        <ele>1573.2</ele>
        <time>2022-07-19T20:51:27Z</time>
      </trkpt>
      <trkpt lat="44.86863" lon="6.71958">
        <ele>1573.2</ele>
        <time>2022-07-19T20:51:28Z</time>
      </trkpt>
      <trkpt lat="44.86863" lon="6.71963">
        <ele>1573.2</ele>
        <time>2022-07-19T20:51:29Z</time>
      </trkpt>
      <trkpt lat="44.86862" lon="6.71967">
        <ele>1573.4</ele>
        <time>2022-07-19T20:51:30Z</time>
      </trkpt>
      <trkpt lat="44.86861" lon="6.71971">
        <ele>1573.4</ele>
        <time>2022-07-19T20:51:31Z</time>
      </trkpt>
      <trkpt lat="44.86859" lon="6.71976">
        <ele>1573.8</ele>
        <time>2022-07-19T20:51:32Z</time>
      </trkpt>
      <trkpt lat="44.86858" lon="6.71979">
        <ele>1573.8</ele>
        <time>2022-07-19T20:51:33Z</time>
      </trkpt>
      <trkpt lat="44.86855" lon="6.71983">
        <ele>1573.8</ele>
        <time>2022-07-19T20:51:34Z</time>
      </trkpt>
      <trkpt lat="44.86853" lon="6.71987">
        <ele>1574</ele>
        <time>2022-07-19T20:51:35Z</time>
      </trkpt>
      <trkpt lat="44.8685" lon="6.71991">
        <ele>1574</ele>
        <time>2022-07-19T20:51:36Z</time>
      </trkpt>
      <trkpt lat="44.86847" lon="6.71994">
        <ele>1574</ele>
        <time>2022-07-19T20:51:37Z</time>
      </trkpt>
      <trkpt lat="44.86845" lon="6.71998">
        <ele>1574</ele>
        <time>2022-07-19T20:51:38Z</time>
      </trkpt>
      <trkpt lat="44.86842" lon="6.72003">
        <ele>1574</ele>
        <time>2022-07-19T20:51:39Z</time>
      </trkpt>
      <trkpt lat="44.86839" lon="6.72007">
        <ele>1574</ele>
        <time>2022-07-19T20:51:40Z</time>
      </trkpt>
      <trkpt lat="44.86836" lon="6.72012">
        <ele>1574</ele>
        <time>2022-07-19T20:51:41Z</time>
      </trkpt>
      <trkpt lat="44.86833" lon="6.72017">
        <ele>1574</ele>
        <time>2022-07-19T20:51:42Z</time>
      </trkpt>
      <trkpt lat="44.86831" lon="6.72022">
        <ele>1574</ele>
        <time>2022-07-19T20:51:43Z</time>
      </trkpt>
      <trkpt lat="44.86829" lon="6.72027">
        <ele>1574</ele>
        <time>2022-07-19T20:51:44Z</time>
      </trkpt>
      <trkpt lat="44.86829" lon="6.72033">
        <ele>1574</ele>
        <time>2022-07-19T20:51:45Z</time>
      </trkpt>
      <trkpt lat="44.86829" lon="6.72038">
        <ele>1574.2</ele>
        <time>2022-07-19T20:51:46Z</time>
      </trkpt>
      <trkpt lat="44.86829" lon="6.72044">
        <ele>1574.2</ele>
        <time>2022-07-19T20:51:47Z</time>
      </trkpt>
      <trkpt lat="44.8683" lon="6.72049">
        <ele>1574.2</ele>
        <time>2022-07-19T20:51:48Z</time>
      </trkpt>
      <trkpt lat="44.86831" lon="6.72054">
        <ele>1574.2</ele>
        <time>2022-07-19T20:51:49Z</time>
      </trkpt>
      <trkpt lat="44.86832" lon="6.72058">
        <ele>1574.6</ele>
        <time>2022-07-19T20:51:50Z</time>
      </trkpt>
      <trkpt lat="44.86834" lon="6.72063">
        <ele>1574.6</ele>
        <time>2022-07-19T20:51:51Z</time>
      </trkpt>
      <trkpt lat="44.86835" lon="6.72067">
        <ele>1574.8</ele>
        <time>2022-07-19T20:51:52Z</time>
      </trkpt>
      <trkpt lat="44.86837" lon="6.7207">
        <ele>1574.8</ele>
        <time>2022-07-19T20:51:53Z</time>
      </trkpt>
      <trkpt lat="44.86839" lon="6.72073">
        <ele>1574.8</ele>
        <time>2022-07-19T20:51:54Z</time>
      </trkpt>
      <trkpt lat="44.86841" lon="6.72075">
        <ele>1575</ele>
        <time>2022-07-19T20:51:55Z</time>
      </trkpt>
      <trkpt lat="44.86844" lon="6.72077">
        <ele>1575</ele>
        <time>2022-07-19T20:51:56Z</time>
      </trkpt>
      <trkpt lat="44.86846" lon="6.72079">
        <ele>1575</ele>
        <time>2022-07-19T20:51:57Z</time>
      </trkpt>
      <trkpt lat="44.86849" lon="6.72081">
        <ele>1575</ele>
        <time>2022-07-19T20:51:58Z</time>
      </trkpt>
      <trkpt lat="44.86851" lon="6.72084">
        <ele>1575</ele>
        <time>2022-07-19T20:51:59Z</time>
      </trkpt>
      <trkpt lat="44.86853" lon="6.72087">
        <ele>1575</ele>
        <time>2022-07-19T20:52:00Z</time>
      </trkpt>
      <trkpt lat="44.86856" lon="6.72089">
        <ele>1574.8</ele>
        <time>2022-07-19T20:52:01Z</time>
      </trkpt>
      <trkpt lat="44.86858" lon="6.72092">
        <ele>1574.6</ele>
        <time>2022-07-19T20:52:02Z</time>
      </trkpt>
      <trkpt lat="44.86859" lon="6.72095">
        <ele>1574.4</ele>
        <time>2022-07-19T20:52:03Z</time>
      </trkpt>
      <trkpt lat="44.86861" lon="6.72097">
        <ele>1574.4</ele>
        <time>2022-07-19T20:52:04Z</time>
      </trkpt>
      <trkpt lat="44.86863" lon="6.72099">
        <ele>1574.4</ele>
        <time>2022-07-19T20:52:05Z</time>
      </trkpt>
      <trkpt lat="44.86864" lon="6.721">
        <ele>1574</ele>
        <time>2022-07-19T20:52:06Z</time>
      </trkpt>
      <trkpt lat="44.86865" lon="6.72101">
        <ele>1574</ele>
        <time>2022-07-19T20:52:07Z</time>
      </trkpt>
      <trkpt lat="44.86865" lon="6.72101">
        <ele>1573.8</ele>
        <time>2022-07-19T20:52:08Z</time>
      </trkpt>
      <trkpt lat="44.86865" lon="6.72101">
        <ele>1573.8</ele>
        <time>2022-07-19T20:52:09Z</time>
      </trkpt>
      <trkpt lat="44.86865" lon="6.72101">
        <ele>1573.6</ele>
        <time>2022-07-19T20:52:10Z</time>
      </trkpt>
    </trkseg>
  </trk>
</gpx>